<?xml version="1.0" encoding="UTF-8"?>
<gpx creator="Garmin Connect" version="1.1"
  xsi:schemaLocation="http://www.topografix.com/GPX/1/1 http://www.topografix.com/GPX/11.xsd"
  xmlns:ns3="http://www.garmin.com/xmlschemas/TrackPointExtension/v1"
  xmlns="http://www.topografix.com/GPX/1/1"
  xmlns:xsi="http://www.w3.org/2001/XMLSchema-instance" xmlns:ns2="http://www.garmin.com/xmlschemas/GpxExtensions/v3">
  <metadata>
    <link href="connect.garmin.com">
      <text>Garmin Connect</text>
    </link>
    <time>2026-09-03T04:46:18.000Z</time>
  </metadata>
  <trk>
    <name>Arvieux Trail</name>
    <type>trail_running</type>
    <trkseg>
      <trkpt lat="44.7275666892528533935546875" lon="6.71323179267346858978271484375">
        <ele>2288.60009765625</ele>
        <time>2026-09-03T04:46:37.000Z</time>
        <extensions>
          <ns3:TrackPointExtension>
            <ns3:hr>89</ns3:hr>
            <ns3:cad>58</ns3:cad>
          </ns3:TrackPointExtension>
        </extensions>
      </trkpt>
      <trkpt lat="44.7275678627192974090576171875" lon="6.71325207687914371490478515625">
        <ele>2288.39990234375</ele>
        <time>2026-09-03T04:46:38.000Z</time>
        <extensions>
          <ns3:TrackPointExtension>
            <ns3:hr>89</ns3:hr>
            <ns3:cad>58</ns3:cad>
          </ns3:TrackPointExtension>
        </extensions>
      </trkpt>
      <trkpt lat="44.72758957184851169586181640625" lon="6.71329180710017681121826171875">
        <ele>2288.199951171875</ele>
        <time>2026-09-03T04:46:39.000Z</time>
        <extensions>
          <ns3:TrackPointExtension>
            <ns3:hr>89</ns3:hr>
            <ns3:cad>58</ns3:cad>
          </ns3:TrackPointExtension>
        </extensions>
      </trkpt>
      <trkpt lat="44.7275827825069427490234375" lon="6.7133058048784732818603515625">
        <ele>2288</ele>
        <time>2026-09-03T04:46:40.000Z</time>
        <extensions>
          <ns3:TrackPointExtension>
            <ns3:hr>89</ns3:hr>
            <ns3:cad>61</ns3:cad>
          </ns3:TrackPointExtension>
        </extensions>
      </trkpt>
      <trkpt lat="44.727579765021800994873046875" lon="6.7133259214460849761962890625">
        <ele>2287.800048828125</ele>
        <time>2026-09-03T04:46:41.000Z</time>
        <extensions>
          <ns3:TrackPointExtension>
            <ns3:hr>89</ns3:hr>
            <ns3:cad>61</ns3:cad>
          </ns3:TrackPointExtension>
        </extensions>
      </trkpt>
      <trkpt lat="44.7275792621076107025146484375" lon="6.7133487202227115631103515625">
        <ele>2287.60009765625</ele>
        <time>2026-09-03T04:46:42.000Z</time>
        <extensions>
          <ns3:TrackPointExtension>
            <ns3:hr>90</ns3:hr>
            <ns3:cad>62</ns3:cad>
          </ns3:TrackPointExtension>
        </extensions>
      </trkpt>
      <trkpt lat="44.7275772504508495330810546875" lon="6.713374368846416473388671875">
        <ele>2287.39990234375</ele>
        <time>2026-09-03T04:46:43.000Z</time>
        <extensions>
          <ns3:TrackPointExtension>
            <ns3:hr>90</ns3:hr>
            <ns3:cad>62</ns3:cad>
          </ns3:TrackPointExtension>
        </extensions>
      </trkpt>
      <trkpt lat="44.72757213748991489410400390625" lon="6.7133959941565990447998046875">
        <ele>2287.199951171875</ele>
        <time>2026-09-03T04:46:44.000Z</time>
        <extensions>
          <ns3:TrackPointExtension>
            <ns3:hr>91</ns3:hr>
            <ns3:cad>62</ns3:cad>
          </ns3:TrackPointExtension>
        </extensions>
      </trkpt>
      <trkpt lat="44.72756844945251941680908203125" lon="6.7134100757539272308349609375">
        <ele>2287</ele>
        <time>2026-09-03T04:46:45.000Z</time>
        <extensions>
          <ns3:TrackPointExtension>
            <ns3:hr>92</ns3:hr>
            <ns3:cad>62</ns3:cad>
          </ns3:TrackPointExtension>
        </extensions>
      </trkpt>
      <trkpt lat="44.72756392322480678558349609375" lon="6.7134271748363971710205078125">
        <ele>2287</ele>
        <time>2026-09-03T04:46:46.000Z</time>
        <extensions>
          <ns3:TrackPointExtension>
            <ns3:hr>92</ns3:hr>
            <ns3:cad>62</ns3:cad>
          </ns3:TrackPointExtension>
        </extensions>
      </trkpt>
      <trkpt lat="44.727560989558696746826171875" lon="6.71344586648046970367431640625">
        <ele>2287</ele>
        <time>2026-09-03T04:46:47.000Z</time>
        <extensions>
          <ns3:TrackPointExtension>
            <ns3:hr>92</ns3:hr>
            <ns3:cad>64</ns3:cad>
          </ns3:TrackPointExtension>
        </extensions>
      </trkpt>
      <trkpt lat="44.7275554575026035308837890625" lon="6.71346078626811504364013671875">
        <ele>2287</ele>
        <time>2026-09-03T04:46:48.000Z</time>
        <extensions>
          <ns3:TrackPointExtension>
            <ns3:hr>92</ns3:hr>
            <ns3:cad>64</ns3:cad>
          </ns3:TrackPointExtension>
        </extensions>
      </trkpt>
      <trkpt lat="44.7275470755994319915771484375" lon="6.7134754545986652374267578125">
        <ele>2287</ele>
        <time>2026-09-03T04:46:49.000Z</time>
        <extensions>
          <ns3:TrackPointExtension>
            <ns3:hr>91</ns3:hr>
            <ns3:cad>64</ns3:cad>
          </ns3:TrackPointExtension>
        </extensions>
      </trkpt>
      <trkpt lat="44.7275376878678798675537109375" lon="6.713486015796661376953125">
        <ele>2286.800048828125</ele>
        <time>2026-09-03T04:46:50.000Z</time>
        <extensions>
          <ns3:TrackPointExtension>
            <ns3:hr>91</ns3:hr>
            <ns3:cad>64</ns3:cad>
          </ns3:TrackPointExtension>
        </extensions>
      </trkpt>
      <trkpt lat="44.727529473602771759033203125" lon="6.71349850483238697052001953125">
        <ele>2286.800048828125</ele>
        <time>2026-09-03T04:46:51.000Z</time>
        <extensions>
          <ns3:TrackPointExtension>
            <ns3:hr>91</ns3:hr>
            <ns3:cad>61</ns3:cad>
          </ns3:TrackPointExtension>
        </extensions>
      </trkpt>
      <trkpt lat="44.72752335481345653533935546875" lon="6.7135136760771274566650390625">
        <ele>2286.800048828125</ele>
        <time>2026-09-03T04:46:52.000Z</time>
        <extensions>
          <ns3:TrackPointExtension>
            <ns3:hr>91</ns3:hr>
            <ns3:cad>61</ns3:cad>
          </ns3:TrackPointExtension>
        </extensions>
      </trkpt>
      <trkpt lat="44.72751597873866558074951171875" lon="6.71351979486644268035888671875">
        <ele>2286.60009765625</ele>
        <time>2026-09-03T04:46:53.000Z</time>
        <extensions>
          <ns3:TrackPointExtension>
            <ns3:hr>91</ns3:hr>
            <ns3:cad>61</ns3:cad>
          </ns3:TrackPointExtension>
        </extensions>
      </trkpt>
      <trkpt lat="44.7275078482925891876220703125" lon="6.71353337354958057403564453125">
        <ele>2286.39990234375</ele>
        <time>2026-09-03T04:46:54.000Z</time>
        <extensions>
          <ns3:TrackPointExtension>
            <ns3:hr>92</ns3:hr>
            <ns3:cad>61</ns3:cad>
          </ns3:TrackPointExtension>
        </extensions>
      </trkpt>
      <trkpt lat="44.72749083302915096282958984375" lon="6.71355214901268482208251953125">
        <ele>2286</ele>
        <time>2026-09-03T04:46:55.000Z</time>
        <extensions>
          <ns3:TrackPointExtension>
            <ns3:hr>92</ns3:hr>
            <ns3:cad>61</ns3:cad>
          </ns3:TrackPointExtension>
        </extensions>
      </trkpt>
      <trkpt lat="44.727473147213459014892578125" lon="6.7135643027722835540771484375">
        <ele>2285.800048828125</ele>
        <time>2026-09-03T04:46:56.000Z</time>
        <extensions>
          <ns3:TrackPointExtension>
            <ns3:hr>92</ns3:hr>
            <ns3:cad>61</ns3:cad>
          </ns3:TrackPointExtension>
        </extensions>
      </trkpt>
      <trkpt lat="44.7274625860154628753662109375" lon="6.713577546179294586181640625">
        <ele>2285.39990234375</ele>
        <time>2026-09-03T04:46:57.000Z</time>
        <extensions>
          <ns3:TrackPointExtension>
            <ns3:hr>93</ns3:hr>
            <ns3:cad>63</ns3:cad>
          </ns3:TrackPointExtension>
        </extensions>
      </trkpt>
      <trkpt lat="44.72745730541646480560302734375" lon="6.71358861029148101806640625">
        <ele>2285</ele>
        <time>2026-09-03T04:46:58.000Z</time>
        <extensions>
          <ns3:TrackPointExtension>
            <ns3:hr>92</ns3:hr>
            <ns3:cad>70</ns3:cad>
          </ns3:TrackPointExtension>
        </extensions>
      </trkpt>
      <trkpt lat="44.72745227627456188201904296875" lon="6.71359933912754058837890625">
        <ele>2284.800048828125</ele>
        <time>2026-09-03T04:46:59.000Z</time>
        <extensions>
          <ns3:TrackPointExtension>
            <ns3:hr>92</ns3:hr>
            <ns3:cad>70</ns3:cad>
          </ns3:TrackPointExtension>
        </extensions>
      </trkpt>
      <trkpt lat="44.727445654571056365966796875" lon="6.71360679902136325836181640625">
        <ele>2284.39990234375</ele>
        <time>2026-09-03T04:47:00.000Z</time>
        <extensions>
          <ns3:TrackPointExtension>
            <ns3:hr>93</ns3:hr>
            <ns3:cad>70</ns3:cad>
          </ns3:TrackPointExtension>
        </extensions>
      </trkpt>
      <trkpt lat="44.72743819467723369598388671875" lon="6.7136142589151859283447265625">
        <ele>2284.199951171875</ele>
        <time>2026-09-03T04:47:01.000Z</time>
        <extensions>
          <ns3:TrackPointExtension>
            <ns3:hr>93</ns3:hr>
            <ns3:cad>69</ns3:cad>
          </ns3:TrackPointExtension>
        </extensions>
      </trkpt>
      <trkpt lat="44.7274310700595378875732421875" lon="6.7136249877512454986572265625">
        <ele>2284</ele>
        <time>2026-09-03T04:47:02.000Z</time>
        <extensions>
          <ns3:TrackPointExtension>
            <ns3:hr>93</ns3:hr>
            <ns3:cad>68</ns3:cad>
          </ns3:TrackPointExtension>
        </extensions>
      </trkpt>
      <trkpt lat="44.72742386162281036376953125" lon="6.7136370576918125152587890625">
        <ele>2283.800048828125</ele>
        <time>2026-09-03T04:47:03.000Z</time>
        <extensions>
          <ns3:TrackPointExtension>
            <ns3:hr>93</ns3:hr>
            <ns3:cad>68</ns3:cad>
          </ns3:TrackPointExtension>
        </extensions>
      </trkpt>
      <trkpt lat="44.72741656936705112457275390625" lon="6.71365675516426563262939453125">
        <ele>2283.60009765625</ele>
        <time>2026-09-03T04:47:04.000Z</time>
        <extensions>
          <ns3:TrackPointExtension>
            <ns3:hr>93</ns3:hr>
            <ns3:cad>68</ns3:cad>
          </ns3:TrackPointExtension>
        </extensions>
      </trkpt>
      <trkpt lat="44.72741304896771907806396484375" lon="6.71366907656192779541015625">
        <ele>2283.39990234375</ele>
        <time>2026-09-03T04:47:05.000Z</time>
        <extensions>
          <ns3:TrackPointExtension>
            <ns3:hr>93</ns3:hr>
            <ns3:cad>66</ns3:cad>
          </ns3:TrackPointExtension>
        </extensions>
      </trkpt>
      <trkpt lat="44.72740919329226016998291015625" lon="6.71369246207177639007568359375">
        <ele>2283.199951171875</ele>
        <time>2026-09-03T04:47:06.000Z</time>
        <extensions>
          <ns3:TrackPointExtension>
            <ns3:hr>93</ns3:hr>
            <ns3:cad>66</ns3:cad>
          </ns3:TrackPointExtension>
        </extensions>
      </trkpt>
      <trkpt lat="44.7274079360067844390869140625" lon="6.71371333301067352294921875">
        <ele>2283</ele>
        <time>2026-09-03T04:47:07.000Z</time>
        <extensions>
          <ns3:TrackPointExtension>
            <ns3:hr>93</ns3:hr>
            <ns3:cad>63</ns3:cad>
          </ns3:TrackPointExtension>
        </extensions>
      </trkpt>
      <trkpt lat="44.7274079360067844390869140625" lon="6.71373370103538036346435546875">
        <ele>2282.800048828125</ele>
        <time>2026-09-03T04:47:08.000Z</time>
        <extensions>
          <ns3:TrackPointExtension>
            <ns3:hr>93</ns3:hr>
            <ns3:cad>62</ns3:cad>
          </ns3:TrackPointExtension>
        </extensions>
      </trkpt>
      <trkpt lat="44.72740785218775272369384765625" lon="6.713750548660755157470703125">
        <ele>2282.60009765625</ele>
        <time>2026-09-03T04:47:09.000Z</time>
        <extensions>
          <ns3:TrackPointExtension>
            <ns3:hr>93</ns3:hr>
            <ns3:cad>62</ns3:cad>
          </ns3:TrackPointExtension>
        </extensions>
      </trkpt>
      <trkpt lat="44.72740508615970611572265625" lon="6.7137711681425571441650390625">
        <ele>2282.39990234375</ele>
        <time>2026-09-03T04:47:10.000Z</time>
        <extensions>
          <ns3:TrackPointExtension>
            <ns3:hr>93</ns3:hr>
            <ns3:cad>0</ns3:cad>
          </ns3:TrackPointExtension>
        </extensions>
      </trkpt>
      <trkpt lat="44.7274065949022769927978515625" lon="6.7137906141579151153564453125">
        <ele>2282</ele>
        <time>2026-09-03T04:47:11.000Z</time>
        <extensions>
          <ns3:TrackPointExtension>
            <ns3:hr>92</ns3:hr>
            <ns3:cad>0</ns3:cad>
          </ns3:TrackPointExtension>
        </extensions>
      </trkpt>
      <trkpt lat="44.7274039126932621002197265625" lon="6.71381617896258831024169921875">
        <ele>2281.800048828125</ele>
        <time>2026-09-03T04:47:12.000Z</time>
        <extensions>
          <ns3:TrackPointExtension>
            <ns3:hr>91</ns3:hr>
            <ns3:cad>0</ns3:cad>
          </ns3:TrackPointExtension>
        </extensions>
      </trkpt>
      <trkpt lat="44.72739846445620059967041015625" lon="6.71383126638829708099365234375">
        <ele>2281.60009765625</ele>
        <time>2026-09-03T04:47:13.000Z</time>
        <extensions>
          <ns3:TrackPointExtension>
            <ns3:hr>91</ns3:hr>
            <ns3:cad>73</ns3:cad>
          </ns3:TrackPointExtension>
        </extensions>
      </trkpt>
      <trkpt lat="44.72739209420979022979736328125" lon="6.71385289169847965240478515625">
        <ele>2281.199951171875</ele>
        <time>2026-09-03T04:47:14.000Z</time>
        <extensions>
          <ns3:TrackPointExtension>
            <ns3:hr>91</ns3:hr>
            <ns3:cad>73</ns3:cad>
          </ns3:TrackPointExtension>
        </extensions>
      </trkpt>
      <trkpt lat="44.727383963763713836669921875" lon="6.71387535519897937774658203125">
        <ele>2281</ele>
        <time>2026-09-03T04:47:15.000Z</time>
        <extensions>
          <ns3:TrackPointExtension>
            <ns3:hr>91</ns3:hr>
            <ns3:cad>73</ns3:cad>
          </ns3:TrackPointExtension>
        </extensions>
      </trkpt>
      <trkpt lat="44.7273801080882549285888671875" lon="6.71389932744204998016357421875">
        <ele>2280.800048828125</ele>
        <time>2026-09-03T04:47:16.000Z</time>
        <extensions>
          <ns3:TrackPointExtension>
            <ns3:hr>91</ns3:hr>
            <ns3:cad>73</ns3:cad>
          </ns3:TrackPointExtension>
        </extensions>
      </trkpt>
      <trkpt lat="44.72737558186054229736328125" lon="6.71391810290515422821044921875">
        <ele>2280.60009765625</ele>
        <time>2026-09-03T04:47:17.000Z</time>
        <extensions>
          <ns3:TrackPointExtension>
            <ns3:hr>91</ns3:hr>
            <ns3:cad>72</ns3:cad>
          </ns3:TrackPointExtension>
        </extensions>
      </trkpt>
      <trkpt lat="44.72737348638474941253662109375" lon="6.71393889002501964569091796875">
        <ele>2280.39990234375</ele>
        <time>2026-09-03T04:47:18.000Z</time>
        <extensions>
          <ns3:TrackPointExtension>
            <ns3:hr>91</ns3:hr>
            <ns3:cad>72</ns3:cad>
          </ns3:TrackPointExtension>
        </extensions>
      </trkpt>
      <trkpt lat="44.72738924436271190643310546875" lon="6.71395716257393360137939453125">
        <ele>2280.199951171875</ele>
        <time>2026-09-03T04:47:19.000Z</time>
        <extensions>
          <ns3:TrackPointExtension>
            <ns3:hr>92</ns3:hr>
            <ns3:cad>72</ns3:cad>
          </ns3:TrackPointExtension>
        </extensions>
      </trkpt>
      <trkpt lat="44.72739167511463165283203125" lon="6.7139693163335323333740234375">
        <ele>2279.800048828125</ele>
        <time>2026-09-03T04:47:20.000Z</time>
        <extensions>
          <ns3:TrackPointExtension>
            <ns3:hr>92</ns3:hr>
            <ns3:cad>72</ns3:cad>
          </ns3:TrackPointExtension>
        </extensions>
      </trkpt>
      <trkpt lat="44.727389998733997344970703125" lon="6.71398499049246311187744140625">
        <ele>2279.60009765625</ele>
        <time>2026-09-03T04:47:21.000Z</time>
        <extensions>
          <ns3:TrackPointExtension>
            <ns3:hr>92</ns3:hr>
            <ns3:cad>72</ns3:cad>
          </ns3:TrackPointExtension>
        </extensions>
      </trkpt>
      <trkpt lat="44.72738035954535007476806640625" lon="6.71400896273553371429443359375">
        <ele>2279.39990234375</ele>
        <time>2026-09-03T04:47:22.000Z</time>
        <extensions>
          <ns3:TrackPointExtension>
            <ns3:hr>92</ns3:hr>
            <ns3:cad>72</ns3:cad>
          </ns3:TrackPointExtension>
        </extensions>
      </trkpt>
      <trkpt lat="44.72737264819443225860595703125" lon="6.71402723528444766998291015625">
        <ele>2279</ele>
        <time>2026-09-03T04:47:23.000Z</time>
        <extensions>
          <ns3:TrackPointExtension>
            <ns3:hr>92</ns3:hr>
            <ns3:cad>72</ns3:cad>
          </ns3:TrackPointExtension>
        </extensions>
      </trkpt>
      <trkpt lat="44.72736694850027561187744140625" lon="6.71402983367443084716796875">
        <ele>2278.60009765625</ele>
        <time>2026-09-03T04:47:24.000Z</time>
        <extensions>
          <ns3:TrackPointExtension>
            <ns3:hr>92</ns3:hr>
            <ns3:cad>77</ns3:cad>
          </ns3:TrackPointExtension>
        </extensions>
      </trkpt>
      <trkpt lat="44.7273682057857513427734375" lon="6.71403922140598297119140625">
        <ele>2278.39990234375</ele>
        <time>2026-09-03T04:47:25.000Z</time>
        <extensions>
          <ns3:TrackPointExtension>
            <ns3:hr>92</ns3:hr>
            <ns3:cad>77</ns3:cad>
          </ns3:TrackPointExtension>
        </extensions>
      </trkpt>
      <trkpt lat="44.7273640148341655731201171875" lon="6.7140581645071506500244140625">
        <ele>2278</ele>
        <time>2026-09-03T04:47:26.000Z</time>
        <extensions>
          <ns3:TrackPointExtension>
            <ns3:hr>92</ns3:hr>
            <ns3:cad>77</ns3:cad>
          </ns3:TrackPointExtension>
        </extensions>
      </trkpt>
      <trkpt lat="44.72735253162682056427001953125" lon="6.71408481895923614501953125">
        <ele>2277.800048828125</ele>
        <time>2026-09-03T04:47:27.000Z</time>
        <extensions>
          <ns3:TrackPointExtension>
            <ns3:hr>92</ns3:hr>
            <ns3:cad>77</ns3:cad>
          </ns3:TrackPointExtension>
        </extensions>
      </trkpt>
      <trkpt lat="44.727339036762714385986328125" lon="6.714105941355228424072265625">
        <ele>2277.60009765625</ele>
        <time>2026-09-03T04:47:28.000Z</time>
        <extensions>
          <ns3:TrackPointExtension>
            <ns3:hr>93</ns3:hr>
            <ns3:cad>76</ns3:cad>
          </ns3:TrackPointExtension>
        </extensions>
      </trkpt>
      <trkpt lat="44.727334342896938323974609375" lon="6.71412697993218898773193359375">
        <ele>2277.199951171875</ele>
        <time>2026-09-03T04:47:29.000Z</time>
        <extensions>
          <ns3:TrackPointExtension>
            <ns3:hr>92</ns3:hr>
            <ns3:cad>76</ns3:cad>
          </ns3:TrackPointExtension>
        </extensions>
      </trkpt>
      <trkpt lat="44.72733266651630401611328125" lon="6.71414852142333984375">
        <ele>2277</ele>
        <time>2026-09-03T04:47:30.000Z</time>
        <extensions>
          <ns3:TrackPointExtension>
            <ns3:hr>92</ns3:hr>
            <ns3:cad>76</ns3:cad>
          </ns3:TrackPointExtension>
        </extensions>
      </trkpt>
      <trkpt lat="44.727334342896938323974609375" lon="6.71416922472417354583740234375">
        <ele>2276.60009765625</ele>
        <time>2026-09-03T04:47:31.000Z</time>
        <extensions>
          <ns3:TrackPointExtension>
            <ns3:hr>92</ns3:hr>
            <ns3:cad>76</ns3:cad>
          </ns3:TrackPointExtension>
        </extensions>
      </trkpt>
      <trkpt lat="44.72733241505920886993408203125" lon="6.714189089834690093994140625">
        <ele>2276.39990234375</ele>
        <time>2026-09-03T04:47:32.000Z</time>
        <extensions>
          <ns3:TrackPointExtension>
            <ns3:hr>92</ns3:hr>
            <ns3:cad>76</ns3:cad>
          </ns3:TrackPointExtension>
        </extensions>
      </trkpt>
      <trkpt lat="44.72732755355536937713623046875" lon="6.71420677565038204193115234375">
        <ele>2276.199951171875</ele>
        <time>2026-09-03T04:47:33.000Z</time>
        <extensions>
          <ns3:TrackPointExtension>
            <ns3:hr>92</ns3:hr>
            <ns3:cad>76</ns3:cad>
          </ns3:TrackPointExtension>
        </extensions>
      </trkpt>
      <trkpt lat="44.727321602404117584228515625" lon="6.7142217792570590972900390625">
        <ele>2276.199951171875</ele>
        <time>2026-09-03T04:47:34.000Z</time>
        <extensions>
          <ns3:TrackPointExtension>
            <ns3:hr>92</ns3:hr>
            <ns3:cad>76</ns3:cad>
          </ns3:TrackPointExtension>
        </extensions>
      </trkpt>
      <trkpt lat="44.72731498070061206817626953125" lon="6.71424047090113162994384765625">
        <ele>2276.199951171875</ele>
        <time>2026-09-03T04:47:35.000Z</time>
        <extensions>
          <ns3:TrackPointExtension>
            <ns3:hr>93</ns3:hr>
            <ns3:cad>76</ns3:cad>
          </ns3:TrackPointExtension>
        </extensions>
      </trkpt>
      <trkpt lat="44.727310873568058013916015625" lon="6.7142566479742527008056640625">
        <ele>2276.199951171875</ele>
        <time>2026-09-03T04:47:36.000Z</time>
        <extensions>
          <ns3:TrackPointExtension>
            <ns3:hr>92</ns3:hr>
            <ns3:cad>76</ns3:cad>
          </ns3:TrackPointExtension>
        </extensions>
      </trkpt>
      <trkpt lat="44.72730408422648906707763671875" lon="6.7142767645418643951416015625">
        <ele>2276.199951171875</ele>
        <time>2026-09-03T04:47:37.000Z</time>
        <extensions>
          <ns3:TrackPointExtension>
            <ns3:hr>91</ns3:hr>
            <ns3:cad>76</ns3:cad>
          </ns3:TrackPointExtension>
        </extensions>
      </trkpt>
      <trkpt lat="44.7272984683513641357421875" lon="6.71429042704403400421142578125">
        <ele>2276.199951171875</ele>
        <time>2026-09-03T04:47:38.000Z</time>
        <extensions>
          <ns3:TrackPointExtension>
            <ns3:hr>91</ns3:hr>
            <ns3:cad>76</ns3:cad>
          </ns3:TrackPointExtension>
        </extensions>
      </trkpt>
      <trkpt lat="44.727290086448192596435546875" lon="6.714304424822330474853515625">
        <ele>2276.199951171875</ele>
        <time>2026-09-03T04:47:39.000Z</time>
        <extensions>
          <ns3:TrackPointExtension>
            <ns3:hr>90</ns3:hr>
            <ns3:cad>76</ns3:cad>
          </ns3:TrackPointExtension>
        </extensions>
      </trkpt>
      <trkpt lat="44.72728011198341846466064453125" lon="6.71431691385805606842041015625">
        <ele>2276</ele>
        <time>2026-09-03T04:47:40.000Z</time>
        <extensions>
          <ns3:TrackPointExtension>
            <ns3:hr>90</ns3:hr>
            <ns3:cad>76</ns3:cad>
          </ns3:TrackPointExtension>
        </extensions>
      </trkpt>
      <trkpt lat="44.72726820968091487884521484375" lon="6.71433066017925739288330078125">
        <ele>2276</ele>
        <time>2026-09-03T04:47:41.000Z</time>
        <extensions>
          <ns3:TrackPointExtension>
            <ns3:hr>89</ns3:hr>
            <ns3:cad>76</ns3:cad>
          </ns3:TrackPointExtension>
        </extensions>
      </trkpt>
      <trkpt lat="44.7272573970258235931396484375" lon="6.7143424786627292633056640625">
        <ele>2276</ele>
        <time>2026-09-03T04:47:42.000Z</time>
        <extensions>
          <ns3:TrackPointExtension>
            <ns3:hr>89</ns3:hr>
            <ns3:cad>76</ns3:cad>
          </ns3:TrackPointExtension>
        </extensions>
      </trkpt>
      <trkpt lat="44.7272463329136371612548828125" lon="6.71434960328042507171630859375">
        <ele>2276</ele>
        <time>2026-09-03T04:47:43.000Z</time>
        <extensions>
          <ns3:TrackPointExtension>
            <ns3:hr>88</ns3:hr>
            <ns3:cad>59</ns3:cad>
          </ns3:TrackPointExtension>
        </extensions>
      </trkpt>
      <trkpt lat="44.7272340953350067138671875" lon="6.7143538780510425567626953125">
        <ele>2276</ele>
        <time>2026-09-03T04:47:44.000Z</time>
        <extensions>
          <ns3:TrackPointExtension>
            <ns3:hr>88</ns3:hr>
            <ns3:cad>59</ns3:cad>
          </ns3:TrackPointExtension>
        </extensions>
      </trkpt>
      <trkpt lat="44.72722596488893032073974609375" lon="6.71436066739261150360107421875">
        <ele>2276</ele>
        <time>2026-09-03T04:47:45.000Z</time>
        <extensions>
          <ns3:TrackPointExtension>
            <ns3:hr>88</ns3:hr>
            <ns3:cad>0</ns3:cad>
          </ns3:TrackPointExtension>
        </extensions>
      </trkpt>
      <trkpt lat="44.727217666804790496826171875" lon="6.71437315642833709716796875">
        <ele>2276</ele>
        <time>2026-09-03T04:47:46.000Z</time>
        <extensions>
          <ns3:TrackPointExtension>
            <ns3:hr>88</ns3:hr>
            <ns3:cad>0</ns3:cad>
          </ns3:TrackPointExtension>
        </extensions>
      </trkpt>
      <trkpt lat="44.72720794379711151123046875" lon="6.71439201571047306060791015625">
        <ele>2276</ele>
        <time>2026-09-03T04:47:47.000Z</time>
        <extensions>
          <ns3:TrackPointExtension>
            <ns3:hr>87</ns3:hr>
            <ns3:cad>0</ns3:cad>
          </ns3:TrackPointExtension>
        </extensions>
      </trkpt>
      <trkpt lat="44.727194868028163909912109375" lon="6.71441632322967052459716796875">
        <ele>2276</ele>
        <time>2026-09-03T04:47:48.000Z</time>
        <extensions>
          <ns3:TrackPointExtension>
            <ns3:hr>87</ns3:hr>
            <ns3:cad>0</ns3:cad>
          </ns3:TrackPointExtension>
        </extensions>
      </trkpt>
      <trkpt lat="44.72718304954469203948974609375" lon="6.7144383676350116729736328125">
        <ele>2275.800048828125</ele>
        <time>2026-09-03T04:47:49.000Z</time>
        <extensions>
          <ns3:TrackPointExtension>
            <ns3:hr>87</ns3:hr>
            <ns3:cad>0</ns3:cad>
          </ns3:TrackPointExtension>
        </extensions>
      </trkpt>
      <trkpt lat="44.72717047668993473052978515625" lon="6.71446041204035282135009765625">
        <ele>2275.60009765625</ele>
        <time>2026-09-03T04:47:50.000Z</time>
        <extensions>
          <ns3:TrackPointExtension>
            <ns3:hr>87</ns3:hr>
            <ns3:cad>0</ns3:cad>
          </ns3:TrackPointExtension>
        </extensions>
      </trkpt>
      <trkpt lat="44.72715890966355800628662109375" lon="6.7144792713224887847900390625">
        <ele>2275.39990234375</ele>
        <time>2026-09-03T04:47:51.000Z</time>
        <extensions>
          <ns3:TrackPointExtension>
            <ns3:hr>87</ns3:hr>
            <ns3:cad>0</ns3:cad>
          </ns3:TrackPointExtension>
        </extensions>
      </trkpt>
      <trkpt lat="44.72714583389461040496826171875" lon="6.7144956998527050018310546875">
        <ele>2275.199951171875</ele>
        <time>2026-09-03T04:47:52.000Z</time>
        <extensions>
          <ns3:TrackPointExtension>
            <ns3:hr>88</ns3:hr>
            <ns3:cad>74</ns3:cad>
          </ns3:TrackPointExtension>
        </extensions>
      </trkpt>
      <trkpt lat="44.72713326103985309600830078125" lon="6.71451388858258724212646484375">
        <ele>2275.199951171875</ele>
        <time>2026-09-03T04:47:53.000Z</time>
        <extensions>
          <ns3:TrackPointExtension>
            <ns3:hr>89</ns3:hr>
            <ns3:cad>74</ns3:cad>
          </ns3:TrackPointExtension>
        </extensions>
      </trkpt>
      <trkpt lat="44.72712454386055469512939453125" lon="6.71452604234218597412109375">
        <ele>2275.199951171875</ele>
        <time>2026-09-03T04:47:54.000Z</time>
        <extensions>
          <ns3:TrackPointExtension>
            <ns3:hr>89</ns3:hr>
            <ns3:cad>72</ns3:cad>
          </ns3:TrackPointExtension>
        </extensions>
      </trkpt>
      <trkpt lat="44.72711700014770030975341796875" lon="6.71453434042632579803466796875">
        <ele>2275.39990234375</ele>
        <time>2026-09-03T04:47:55.000Z</time>
        <extensions>
          <ns3:TrackPointExtension>
            <ns3:hr>91</ns3:hr>
            <ns3:cad>72</ns3:cad>
          </ns3:TrackPointExtension>
        </extensions>
      </trkpt>
      <trkpt lat="44.72710576839745044708251953125" lon="6.71454473398625850677490234375">
        <ele>2275.39990234375</ele>
        <time>2026-09-03T04:47:56.000Z</time>
        <extensions>
          <ns3:TrackPointExtension>
            <ns3:hr>93</ns3:hr>
            <ns3:cad>72</ns3:cad>
          </ns3:TrackPointExtension>
        </extensions>
      </trkpt>
      <trkpt lat="44.72709503956139087677001953125" lon="6.71455428935587406158447265625">
        <ele>2275.60009765625</ele>
        <time>2026-09-03T04:47:57.000Z</time>
        <extensions>
          <ns3:TrackPointExtension>
            <ns3:hr>94</ns3:hr>
            <ns3:cad>72</ns3:cad>
          </ns3:TrackPointExtension>
        </extensions>
      </trkpt>
      <trkpt lat="44.7270911000669002532958984375" lon="6.714561916887760162353515625">
        <ele>2275.800048828125</ele>
        <time>2026-09-03T04:47:58.000Z</time>
        <extensions>
          <ns3:TrackPointExtension>
            <ns3:hr>94</ns3:hr>
            <ns3:cad>72</ns3:cad>
          </ns3:TrackPointExtension>
        </extensions>
      </trkpt>
      <trkpt lat="44.727087914943695068359375" lon="6.714569963514804840087890625">
        <ele>2276.199951171875</ele>
        <time>2026-09-03T04:47:59.000Z</time>
        <extensions>
          <ns3:TrackPointExtension>
            <ns3:hr>95</ns3:hr>
            <ns3:cad>60</ns3:cad>
          </ns3:TrackPointExtension>
        </extensions>
      </trkpt>
      <trkpt lat="44.72708330489695072174072265625" lon="6.7145805247128009796142578125">
        <ele>2276.39990234375</ele>
        <time>2026-09-03T04:48:00.000Z</time>
        <extensions>
          <ns3:TrackPointExtension>
            <ns3:hr>95</ns3:hr>
            <ns3:cad>60</ns3:cad>
          </ns3:TrackPointExtension>
        </extensions>
      </trkpt>
      <trkpt lat="44.7270736657083034515380859375" lon="6.71458513475954532623291015625">
        <ele>2276.39990234375</ele>
        <time>2026-09-03T04:48:01.000Z</time>
        <extensions>
          <ns3:TrackPointExtension>
            <ns3:hr>95</ns3:hr>
            <ns3:cad>60</ns3:cad>
          </ns3:TrackPointExtension>
        </extensions>
      </trkpt>
      <trkpt lat="44.72706268541514873504638671875" lon="6.7145892418920993804931640625">
        <ele>2276.60009765625</ele>
        <time>2026-09-03T04:48:02.000Z</time>
        <extensions>
          <ns3:TrackPointExtension>
            <ns3:hr>95</ns3:hr>
            <ns3:cad>59</ns3:cad>
          </ns3:TrackPointExtension>
        </extensions>
      </trkpt>
      <trkpt lat="44.72705128602683544158935546875" lon="6.71458781696856021881103515625">
        <ele>2276.60009765625</ele>
        <time>2026-09-03T04:48:03.000Z</time>
        <extensions>
          <ns3:TrackPointExtension>
            <ns3:hr>95</ns3:hr>
            <ns3:cad>58</ns3:cad>
          </ns3:TrackPointExtension>
        </extensions>
      </trkpt>
      <trkpt lat="44.7270398028194904327392578125" lon="6.7145835421979427337646484375">
        <ele>2276.800048828125</ele>
        <time>2026-09-03T04:48:04.000Z</time>
        <extensions>
          <ns3:TrackPointExtension>
            <ns3:hr>94</ns3:hr>
            <ns3:cad>58</ns3:cad>
          </ns3:TrackPointExtension>
        </extensions>
      </trkpt>
      <trkpt lat="44.727027229964733123779296875" lon="6.714580021798610687255859375">
        <ele>2276.800048828125</ele>
        <time>2026-09-03T04:48:05.000Z</time>
        <extensions>
          <ns3:TrackPointExtension>
            <ns3:hr>94</ns3:hr>
            <ns3:cad>54</ns3:cad>
          </ns3:TrackPointExtension>
        </extensions>
      </trkpt>
      <trkpt lat="44.7270146571099758148193359375" lon="6.7145791836082935333251953125">
        <ele>2276.800048828125</ele>
        <time>2026-09-03T04:48:06.000Z</time>
        <extensions>
          <ns3:TrackPointExtension>
            <ns3:hr>94</ns3:hr>
            <ns3:cad>54</ns3:cad>
          </ns3:TrackPointExtension>
        </extensions>
      </trkpt>
      <trkpt lat="44.7270039282739162445068359375" lon="6.71458681114017963409423828125">
        <ele>2276.800048828125</ele>
        <time>2026-09-03T04:48:07.000Z</time>
        <extensions>
          <ns3:TrackPointExtension>
            <ns3:hr>93</ns3:hr>
            <ns3:cad>54</ns3:cad>
          </ns3:TrackPointExtension>
        </extensions>
      </trkpt>
      <trkpt lat="44.72699244506657123565673828125" lon="6.714594773948192596435546875">
        <ele>2276.60009765625</ele>
        <time>2026-09-03T04:48:08.000Z</time>
        <extensions>
          <ns3:TrackPointExtension>
            <ns3:hr>93</ns3:hr>
            <ns3:cad>57</ns3:cad>
          </ns3:TrackPointExtension>
        </extensions>
      </trkpt>
      <trkpt lat="44.72698255442082881927490234375" lon="6.71460491605103015899658203125">
        <ele>2276.60009765625</ele>
        <time>2026-09-03T04:48:09.000Z</time>
        <extensions>
          <ns3:TrackPointExtension>
            <ns3:hr>93</ns3:hr>
            <ns3:cad>57</ns3:cad>
          </ns3:TrackPointExtension>
        </extensions>
      </trkpt>
      <trkpt lat="44.72697299905121326446533203125" lon="6.714621596038341522216796875">
        <ele>2276.39990234375</ele>
        <time>2026-09-03T04:48:10.000Z</time>
        <extensions>
          <ns3:TrackPointExtension>
            <ns3:hr>92</ns3:hr>
            <ns3:cad>0</ns3:cad>
          </ns3:TrackPointExtension>
        </extensions>
      </trkpt>
      <trkpt lat="44.72696109674870967864990234375" lon="6.714638359844684600830078125">
        <ele>2276.39990234375</ele>
        <time>2026-09-03T04:48:11.000Z</time>
        <extensions>
          <ns3:TrackPointExtension>
            <ns3:hr>92</ns3:hr>
            <ns3:cad>0</ns3:cad>
          </ns3:TrackPointExtension>
        </extensions>
      </trkpt>
      <trkpt lat="44.7269529663026332855224609375" lon="6.71465344727039337158203125">
        <ele>2276.39990234375</ele>
        <time>2026-09-03T04:48:12.000Z</time>
        <extensions>
          <ns3:TrackPointExtension>
            <ns3:hr>92</ns3:hr>
            <ns3:cad>0</ns3:cad>
          </ns3:TrackPointExtension>
        </extensions>
      </trkpt>
      <trkpt lat="44.72694919444620609283447265625" lon="6.71467431820929050445556640625">
        <ele>2276.199951171875</ele>
        <time>2026-09-03T04:48:13.000Z</time>
        <extensions>
          <ns3:TrackPointExtension>
            <ns3:hr>92</ns3:hr>
            <ns3:cad>61</ns3:cad>
          </ns3:TrackPointExtension>
        </extensions>
      </trkpt>
      <trkpt lat="44.72694768570363521575927734375" lon="6.7146908305585384368896484375">
        <ele>2276.199951171875</ele>
        <time>2026-09-03T04:48:14.000Z</time>
        <extensions>
          <ns3:TrackPointExtension>
            <ns3:hr>92</ns3:hr>
            <ns3:cad>62</ns3:cad>
          </ns3:TrackPointExtension>
        </extensions>
      </trkpt>
      <trkpt lat="44.7269469313323497772216796875" lon="6.714706756174564361572265625">
        <ele>2276.199951171875</ele>
        <time>2026-09-03T04:48:15.000Z</time>
        <extensions>
          <ns3:TrackPointExtension>
            <ns3:hr>91</ns3:hr>
            <ns3:cad>62</ns3:cad>
          </ns3:TrackPointExtension>
        </extensions>
      </trkpt>
      <trkpt lat="44.726942740380764007568359375" lon="6.71472050249576568603515625">
        <ele>2276.199951171875</ele>
        <time>2026-09-03T04:48:16.000Z</time>
        <extensions>
          <ns3:TrackPointExtension>
            <ns3:hr>91</ns3:hr>
            <ns3:cad>62</ns3:cad>
          </ns3:TrackPointExtension>
        </extensions>
      </trkpt>
      <trkpt lat="44.7269335202872753143310546875" lon="6.71472846530377864837646484375">
        <ele>2276.199951171875</ele>
        <time>2026-09-03T04:48:17.000Z</time>
        <extensions>
          <ns3:TrackPointExtension>
            <ns3:hr>91</ns3:hr>
            <ns3:cad>62</ns3:cad>
          </ns3:TrackPointExtension>
        </extensions>
      </trkpt>
      <trkpt lat="44.72692538984119892120361328125" lon="6.71474003233015537261962890625">
        <ele>2276.199951171875</ele>
        <time>2026-09-03T04:48:18.000Z</time>
        <extensions>
          <ns3:TrackPointExtension>
            <ns3:hr>91</ns3:hr>
            <ns3:cad>62</ns3:cad>
          </ns3:TrackPointExtension>
        </extensions>
      </trkpt>
      <trkpt lat="44.72691784612834453582763671875" lon="6.71475646086037158966064453125">
        <ele>2276.199951171875</ele>
        <time>2026-09-03T04:48:19.000Z</time>
        <extensions>
          <ns3:TrackPointExtension>
            <ns3:hr>91</ns3:hr>
            <ns3:cad>60</ns3:cad>
          </ns3:TrackPointExtension>
        </extensions>
      </trkpt>
      <trkpt lat="44.72691147588193416595458984375" lon="6.71477490104734897613525390625">
        <ele>2276.199951171875</ele>
        <time>2026-09-03T04:48:20.000Z</time>
        <extensions>
          <ns3:TrackPointExtension>
            <ns3:hr>90</ns3:hr>
            <ns3:cad>60</ns3:cad>
          </ns3:TrackPointExtension>
        </extensions>
      </trkpt>
      <trkpt lat="44.726907201111316680908203125" lon="6.7147927545011043548583984375">
        <ele>2276.199951171875</ele>
        <time>2026-09-03T04:48:21.000Z</time>
        <extensions>
          <ns3:TrackPointExtension>
            <ns3:hr>90</ns3:hr>
            <ns3:cad>58</ns3:cad>
          </ns3:TrackPointExtension>
        </extensions>
      </trkpt>
      <trkpt lat="44.72690057940781116485595703125" lon="6.71480608172714710235595703125">
        <ele>2276.199951171875</ele>
        <time>2026-09-03T04:48:22.000Z</time>
        <extensions>
          <ns3:TrackPointExtension>
            <ns3:hr>90</ns3:hr>
            <ns3:cad>58</ns3:cad>
          </ns3:TrackPointExtension>
        </extensions>
      </trkpt>
      <trkpt lat="44.72689270041882991790771484375" lon="6.71481530182063579559326171875">
        <ele>2276.199951171875</ele>
        <time>2026-09-03T04:48:23.000Z</time>
        <extensions>
          <ns3:TrackPointExtension>
            <ns3:hr>90</ns3:hr>
            <ns3:cad>58</ns3:cad>
          </ns3:TrackPointExtension>
        </extensions>
      </trkpt>
      <trkpt lat="44.7268825583159923553466796875" lon="6.71482980251312255859375">
        <ele>2276</ele>
        <time>2026-09-03T04:48:24.000Z</time>
        <extensions>
          <ns3:TrackPointExtension>
            <ns3:hr>90</ns3:hr>
            <ns3:cad>59</ns3:cad>
          </ns3:TrackPointExtension>
        </extensions>
      </trkpt>
      <trkpt lat="44.7268725000321865081787109375" lon="6.71484497375786304473876953125">
        <ele>2276</ele>
        <time>2026-09-03T04:48:25.000Z</time>
        <extensions>
          <ns3:TrackPointExtension>
            <ns3:hr>89</ns3:hr>
            <ns3:cad>59</ns3:cad>
          </ns3:TrackPointExtension>
        </extensions>
      </trkpt>
      <trkpt lat="44.726863615214824676513671875" lon="6.7148541100323200225830078125">
        <ele>2276</ele>
        <time>2026-09-03T04:48:26.000Z</time>
        <extensions>
          <ns3:TrackPointExtension>
            <ns3:hr>89</ns3:hr>
            <ns3:cad>59</ns3:cad>
          </ns3:TrackPointExtension>
        </extensions>
      </trkpt>
      <trkpt lat="44.72685598768293857574462890625" lon="6.7148661799728870391845703125">
        <ele>2276</ele>
        <time>2026-09-03T04:48:27.000Z</time>
        <extensions>
          <ns3:TrackPointExtension>
            <ns3:hr>89</ns3:hr>
            <ns3:cad>59</ns3:cad>
          </ns3:TrackPointExtension>
        </extensions>
      </trkpt>
      <trkpt lat="44.72685263492166996002197265625" lon="6.7148829437792301177978515625">
        <ele>2276</ele>
        <time>2026-09-03T04:48:28.000Z</time>
        <extensions>
          <ns3:TrackPointExtension>
            <ns3:hr>89</ns3:hr>
            <ns3:cad>57</ns3:cad>
          </ns3:TrackPointExtension>
        </extensions>
      </trkpt>
      <trkpt lat="44.72684877924621105194091796875" lon="6.714896857738494873046875">
        <ele>2276</ele>
        <time>2026-09-03T04:48:29.000Z</time>
        <extensions>
          <ns3:TrackPointExtension>
            <ns3:hr>89</ns3:hr>
            <ns3:cad>57</ns3:cad>
          </ns3:TrackPointExtension>
        </extensions>
      </trkpt>
      <trkpt lat="44.72684609703719615936279296875" lon="6.71490800566971302032470703125">
        <ele>2275.800048828125</ele>
        <time>2026-09-03T04:48:30.000Z</time>
        <extensions>
          <ns3:TrackPointExtension>
            <ns3:hr>89</ns3:hr>
            <ns3:cad>59</ns3:cad>
          </ns3:TrackPointExtension>
        </extensions>
      </trkpt>
      <trkpt lat="44.72684048116207122802734375" lon="6.7149225063621997833251953125">
        <ele>2275.800048828125</ele>
        <time>2026-09-03T04:48:31.000Z</time>
        <extensions>
          <ns3:TrackPointExtension>
            <ns3:hr>89</ns3:hr>
            <ns3:cad>60</ns3:cad>
          </ns3:TrackPointExtension>
        </extensions>
      </trkpt>
      <trkpt lat="44.72683888860046863555908203125" lon="6.71493432484567165374755859375">
        <ele>2275.60009765625</ele>
        <time>2026-09-03T04:48:32.000Z</time>
        <extensions>
          <ns3:TrackPointExtension>
            <ns3:hr>88</ns3:hr>
            <ns3:cad>60</ns3:cad>
          </ns3:TrackPointExtension>
        </extensions>
      </trkpt>
      <trkpt lat="44.72683587111532688140869140625" lon="6.7149416171014308929443359375">
        <ele>2275.39990234375</ele>
        <time>2026-09-03T04:48:33.000Z</time>
        <extensions>
          <ns3:TrackPointExtension>
            <ns3:hr>88</ns3:hr>
            <ns3:cad>60</ns3:cad>
          </ns3:TrackPointExtension>
        </extensions>
      </trkpt>
      <trkpt lat="44.7268315963447093963623046875" lon="6.71495393849909305572509765625">
        <ele>2275.199951171875</ele>
        <time>2026-09-03T04:48:34.000Z</time>
        <extensions>
          <ns3:TrackPointExtension>
            <ns3:hr>87</ns3:hr>
            <ns3:cad>60</ns3:cad>
          </ns3:TrackPointExtension>
        </extensions>
      </trkpt>
      <trkpt lat="44.7268269024789333343505859375" lon="6.71497053466737270355224609375">
        <ele>2275.199951171875</ele>
        <time>2026-09-03T04:48:35.000Z</time>
        <extensions>
          <ns3:TrackPointExtension>
            <ns3:hr>87</ns3:hr>
            <ns3:cad>60</ns3:cad>
          </ns3:TrackPointExtension>
        </extensions>
      </trkpt>
      <trkpt lat="44.72682279534637928009033203125" lon="6.7149841971695423126220703125">
        <ele>2274.800048828125</ele>
        <time>2026-09-03T04:48:36.000Z</time>
        <extensions>
          <ns3:TrackPointExtension>
            <ns3:hr>87</ns3:hr>
            <ns3:cad>60</ns3:cad>
          </ns3:TrackPointExtension>
        </extensions>
      </trkpt>
      <trkpt lat="44.72681877203285694122314453125" lon="6.7150012962520122528076171875">
        <ele>2274.60009765625</ele>
        <time>2026-09-03T04:48:37.000Z</time>
        <extensions>
          <ns3:TrackPointExtension>
            <ns3:hr>87</ns3:hr>
            <ns3:cad>60</ns3:cad>
          </ns3:TrackPointExtension>
        </extensions>
      </trkpt>
      <trkpt lat="44.72681240178644657135009765625" lon="6.715016551315784454345703125">
        <ele>2274.39990234375</ele>
        <time>2026-09-03T04:48:38.000Z</time>
        <extensions>
          <ns3:TrackPointExtension>
            <ns3:hr>87</ns3:hr>
            <ns3:cad>60</ns3:cad>
          </ns3:TrackPointExtension>
        </extensions>
      </trkpt>
      <trkpt lat="44.726803265511989593505859375" lon="6.715027950704097747802734375">
        <ele>2274.199951171875</ele>
        <time>2026-09-03T04:48:39.000Z</time>
        <extensions>
          <ns3:TrackPointExtension>
            <ns3:hr>87</ns3:hr>
            <ns3:cad>60</ns3:cad>
          </ns3:TrackPointExtension>
        </extensions>
      </trkpt>
      <trkpt lat="44.726793207228183746337890625" lon="6.71503624878823757171630859375">
        <ele>2274</ele>
        <time>2026-09-03T04:48:40.000Z</time>
        <extensions>
          <ns3:TrackPointExtension>
            <ns3:hr>87</ns3:hr>
            <ns3:cad>64</ns3:cad>
          </ns3:TrackPointExtension>
        </extensions>
      </trkpt>
      <trkpt lat="44.7267762757837772369384765625" lon="6.71504915691912174224853515625">
        <ele>2274</ele>
        <time>2026-09-03T04:48:41.000Z</time>
        <extensions>
          <ns3:TrackPointExtension>
            <ns3:hr>87</ns3:hr>
            <ns3:cad>64</ns3:cad>
          </ns3:TrackPointExtension>
        </extensions>
      </trkpt>
      <trkpt lat="44.7267605178058147430419921875" lon="6.71506625600159168243408203125">
        <ele>2274</ele>
        <time>2026-09-03T04:48:42.000Z</time>
        <extensions>
          <ns3:TrackPointExtension>
            <ns3:hr>87</ns3:hr>
            <ns3:cad>62</ns3:cad>
          </ns3:TrackPointExtension>
        </extensions>
      </trkpt>
      <trkpt lat="44.7267410717904567718505859375" lon="6.7150908149778842926025390625">
        <ele>2273.800048828125</ele>
        <time>2026-09-03T04:48:43.000Z</time>
        <extensions>
          <ns3:TrackPointExtension>
            <ns3:hr>86</ns3:hr>
            <ns3:cad>62</ns3:cad>
          </ns3:TrackPointExtension>
        </extensions>
      </trkpt>
      <trkpt lat="44.7267313487827777862548828125" lon="6.7151109315454959869384765625">
        <ele>2273.800048828125</ele>
        <time>2026-09-03T04:48:44.000Z</time>
        <extensions>
          <ns3:TrackPointExtension>
            <ns3:hr>87</ns3:hr>
            <ns3:cad>62</ns3:cad>
          </ns3:TrackPointExtension>
        </extensions>
      </trkpt>
      <trkpt lat="44.72672372125089168548583984375" lon="6.71512543223798274993896484375">
        <ele>2273.800048828125</ele>
        <time>2026-09-03T04:48:45.000Z</time>
        <extensions>
          <ns3:TrackPointExtension>
            <ns3:hr>87</ns3:hr>
            <ns3:cad>62</ns3:cad>
          </ns3:TrackPointExtension>
        </extensions>
      </trkpt>
      <trkpt lat="44.7267149202525615692138671875" lon="6.71514320187270641326904296875">
        <ele>2273.800048828125</ele>
        <time>2026-09-03T04:48:46.000Z</time>
        <extensions>
          <ns3:TrackPointExtension>
            <ns3:hr>87</ns3:hr>
            <ns3:cad>83</ns3:cad>
          </ns3:TrackPointExtension>
        </extensions>
      </trkpt>
      <trkpt lat="44.7267095558345317840576171875" lon="6.71516113914549350738525390625">
        <ele>2273.800048828125</ele>
        <time>2026-09-03T04:48:47.000Z</time>
        <extensions>
          <ns3:TrackPointExtension>
            <ns3:hr>87</ns3:hr>
            <ns3:cad>83</ns3:cad>
          </ns3:TrackPointExtension>
        </extensions>
      </trkpt>
      <trkpt lat="44.726704023778438568115234375" lon="6.71517522074282169342041015625">
        <ele>2273.800048828125</ele>
        <time>2026-09-03T04:48:48.000Z</time>
        <extensions>
          <ns3:TrackPointExtension>
            <ns3:hr>87</ns3:hr>
            <ns3:cad>81</ns3:cad>
          </ns3:TrackPointExtension>
        </extensions>
      </trkpt>
      <trkpt lat="44.72669153474271297454833984375" lon="6.71518586575984954833984375">
        <ele>2273.800048828125</ele>
        <time>2026-09-03T04:48:49.000Z</time>
        <extensions>
          <ns3:TrackPointExtension>
            <ns3:hr>88</ns3:hr>
            <ns3:cad>81</ns3:cad>
          </ns3:TrackPointExtension>
        </extensions>
      </trkpt>
      <trkpt lat="44.7266867570579051971435546875" lon="6.71519391238689422607421875">
        <ele>2273.800048828125</ele>
        <time>2026-09-03T04:48:50.000Z</time>
        <extensions>
          <ns3:TrackPointExtension>
            <ns3:hr>88</ns3:hr>
            <ns3:cad>81</ns3:cad>
          </ns3:TrackPointExtension>
        </extensions>
      </trkpt>
      <trkpt lat="44.72668197937309741973876953125" lon="6.7152054794132709503173828125">
        <ele>2273.800048828125</ele>
        <time>2026-09-03T04:48:51.000Z</time>
        <extensions>
          <ns3:TrackPointExtension>
            <ns3:hr>89</ns3:hr>
            <ns3:cad>66</ns3:cad>
          </ns3:TrackPointExtension>
        </extensions>
      </trkpt>
      <trkpt lat="44.72667359746992588043212890625" lon="6.7152095027267932891845703125">
        <ele>2273.800048828125</ele>
        <time>2026-09-03T04:48:52.000Z</time>
        <extensions>
          <ns3:TrackPointExtension>
            <ns3:hr>89</ns3:hr>
            <ns3:cad>62</ns3:cad>
          </ns3:TrackPointExtension>
        </extensions>
      </trkpt>
      <trkpt lat="44.72666270099580287933349609375" lon="6.71521830372512340545654296875">
        <ele>2273.60009765625</ele>
        <time>2026-09-03T04:48:53.000Z</time>
        <extensions>
          <ns3:TrackPointExtension>
            <ns3:hr>89</ns3:hr>
            <ns3:cad>57</ns3:cad>
          </ns3:TrackPointExtension>
        </extensions>
      </trkpt>
      <trkpt lat="44.726653732359409332275390625" lon="6.71522484160959720611572265625">
        <ele>2273.60009765625</ele>
        <time>2026-09-03T04:48:54.000Z</time>
        <extensions>
          <ns3:TrackPointExtension>
            <ns3:hr>88</ns3:hr>
            <ns3:cad>57</ns3:cad>
          </ns3:TrackPointExtension>
        </extensions>
      </trkpt>
      <trkpt lat="44.72664409317076206207275390625" lon="6.71523657627403736114501953125">
        <ele>2273.39990234375</ele>
        <time>2026-09-03T04:48:55.000Z</time>
        <extensions>
          <ns3:TrackPointExtension>
            <ns3:hr>88</ns3:hr>
            <ns3:cad>59</ns3:cad>
          </ns3:TrackPointExtension>
        </extensions>
      </trkpt>
      <trkpt lat="44.7266324423253536224365234375" lon="6.71525166369974613189697265625">
        <ele>2273.39990234375</ele>
        <time>2026-09-03T04:48:56.000Z</time>
        <extensions>
          <ns3:TrackPointExtension>
            <ns3:hr>88</ns3:hr>
            <ns3:cad>59</ns3:cad>
          </ns3:TrackPointExtension>
        </extensions>
      </trkpt>
      <trkpt lat="44.72662431187927722930908203125" lon="6.71526373364031314849853515625">
        <ele>2273.199951171875</ele>
        <time>2026-09-03T04:48:57.000Z</time>
        <extensions>
          <ns3:TrackPointExtension>
            <ns3:hr>87</ns3:hr>
            <ns3:cad>55</ns3:cad>
          </ns3:TrackPointExtension>
        </extensions>
      </trkpt>
      <trkpt lat="44.72661542706191539764404296875" lon="6.71527446247637271881103515625">
        <ele>2273.199951171875</ele>
        <time>2026-09-03T04:48:58.000Z</time>
        <extensions>
          <ns3:TrackPointExtension>
            <ns3:hr>87</ns3:hr>
            <ns3:cad>55</ns3:cad>
          </ns3:TrackPointExtension>
        </extensions>
      </trkpt>
      <trkpt lat="44.7266069613397121429443359375" lon="6.71528133563697338104248046875">
        <ele>2273.199951171875</ele>
        <time>2026-09-03T04:48:59.000Z</time>
        <extensions>
          <ns3:TrackPointExtension>
            <ns3:hr>87</ns3:hr>
            <ns3:cad>59</ns3:cad>
          </ns3:TrackPointExtension>
        </extensions>
      </trkpt>
      <trkpt lat="44.726598747074604034423828125" lon="6.71528653241693973541259765625">
        <ele>2273</ele>
        <time>2026-09-03T04:49:00.000Z</time>
        <extensions>
          <ns3:TrackPointExtension>
            <ns3:hr>87</ns3:hr>
            <ns3:cad>59</ns3:cad>
          </ns3:TrackPointExtension>
        </extensions>
      </trkpt>
      <trkpt lat="44.72658860497176647186279296875" lon="6.71529047191143035888671875">
        <ele>2272.800048828125</ele>
        <time>2026-09-03T04:49:01.000Z</time>
        <extensions>
          <ns3:TrackPointExtension>
            <ns3:hr>87</ns3:hr>
            <ns3:cad>59</ns3:cad>
          </ns3:TrackPointExtension>
        </extensions>
      </trkpt>
      <trkpt lat="44.72657569684088230133056640625" lon="6.715301536023616790771484375">
        <ele>2272.60009765625</ele>
        <time>2026-09-03T04:49:02.000Z</time>
        <extensions>
          <ns3:TrackPointExtension>
            <ns3:hr>87</ns3:hr>
            <ns3:cad>59</ns3:cad>
          </ns3:TrackPointExtension>
        </extensions>
      </trkpt>
      <trkpt lat="44.72656094469130039215087890625" lon="6.71532173641026020050048828125">
        <ele>2272.39990234375</ele>
        <time>2026-09-03T04:49:03.000Z</time>
        <extensions>
          <ns3:TrackPointExtension>
            <ns3:hr>87</ns3:hr>
            <ns3:cad>59</ns3:cad>
          </ns3:TrackPointExtension>
        </extensions>
      </trkpt>
      <trkpt lat="44.726547785103321075439453125" lon="6.71534419991075992584228515625">
        <ele>2272.199951171875</ele>
        <time>2026-09-03T04:49:04.000Z</time>
        <extensions>
          <ns3:TrackPointExtension>
            <ns3:hr>86</ns3:hr>
            <ns3:cad>59</ns3:cad>
          </ns3:TrackPointExtension>
        </extensions>
      </trkpt>
      <trkpt lat="44.72652976401150226593017578125" lon="6.7153694294393062591552734375">
        <ele>2272</ele>
        <time>2026-09-03T04:49:05.000Z</time>
        <extensions>
          <ns3:TrackPointExtension>
            <ns3:hr>86</ns3:hr>
            <ns3:cad>59</ns3:cad>
          </ns3:TrackPointExtension>
        </extensions>
      </trkpt>
      <trkpt lat="44.72651635296642780303955078125" lon="6.715391390025615692138671875">
        <ele>2271.800048828125</ele>
        <time>2026-09-03T04:49:06.000Z</time>
        <extensions>
          <ns3:TrackPointExtension>
            <ns3:hr>86</ns3:hr>
            <ns3:cad>59</ns3:cad>
          </ns3:TrackPointExtension>
        </extensions>
      </trkpt>
      <trkpt lat="44.7265030257403850555419921875" lon="6.71541276387870311737060546875">
        <ele>2271.800048828125</ele>
        <time>2026-09-03T04:49:07.000Z</time>
        <extensions>
          <ns3:TrackPointExtension>
            <ns3:hr>86</ns3:hr>
            <ns3:cad>79</ns3:cad>
          </ns3:TrackPointExtension>
        </extensions>
      </trkpt>
      <trkpt lat="44.7264936380088329315185546875" lon="6.71542785130441188812255859375">
        <ele>2272</ele>
        <time>2026-09-03T04:49:08.000Z</time>
        <extensions>
          <ns3:TrackPointExtension>
            <ns3:hr>87</ns3:hr>
            <ns3:cad>80</ns3:cad>
          </ns3:TrackPointExtension>
        </extensions>
      </trkpt>
      <trkpt lat="44.72648349590599536895751953125" lon="6.715437658131122589111328125">
        <ele>2272.199951171875</ele>
        <time>2026-09-03T04:49:09.000Z</time>
        <extensions>
          <ns3:TrackPointExtension>
            <ns3:hr>88</ns3:hr>
            <ns3:cad>80</ns3:cad>
          </ns3:TrackPointExtension>
        </extensions>
      </trkpt>
      <trkpt lat="44.72646639682352542877197265625" lon="6.71544461511075496673583984375">
        <ele>2272.39990234375</ele>
        <time>2026-09-03T04:49:10.000Z</time>
        <extensions>
          <ns3:TrackPointExtension>
            <ns3:hr>89</ns3:hr>
            <ns3:cad>81</ns3:cad>
          </ns3:TrackPointExtension>
        </extensions>
      </trkpt>
      <trkpt lat="44.726455248892307281494140625" lon="6.71545542776584625244140625">
        <ele>2272.39990234375</ele>
        <time>2026-09-03T04:49:11.000Z</time>
        <extensions>
          <ns3:TrackPointExtension>
            <ns3:hr>89</ns3:hr>
            <ns3:cad>81</ns3:cad>
          </ns3:TrackPointExtension>
        </extensions>
      </trkpt>
      <trkpt lat="44.7264383174479007720947265625" lon="6.715465821325778961181640625">
        <ele>2272.39990234375</ele>
        <time>2026-09-03T04:49:12.000Z</time>
        <extensions>
          <ns3:TrackPointExtension>
            <ns3:hr>90</ns3:hr>
            <ns3:cad>81</ns3:cad>
          </ns3:TrackPointExtension>
        </extensions>
      </trkpt>
      <trkpt lat="44.7264272533357143402099609375" lon="6.71547931618988513946533203125">
        <ele>2272.199951171875</ele>
        <time>2026-09-03T04:49:13.000Z</time>
        <extensions>
          <ns3:TrackPointExtension>
            <ns3:hr>90</ns3:hr>
            <ns3:cad>79</ns3:cad>
          </ns3:TrackPointExtension>
        </extensions>
      </trkpt>
      <trkpt lat="44.72641258500516414642333984375" lon="6.7154948227107524871826171875">
        <ele>2272</ele>
        <time>2026-09-03T04:49:14.000Z</time>
        <extensions>
          <ns3:TrackPointExtension>
            <ns3:hr>90</ns3:hr>
            <ns3:cad>79</ns3:cad>
          </ns3:TrackPointExtension>
        </extensions>
      </trkpt>
      <trkpt lat="44.72639900632202625274658203125" lon="6.7155110836029052734375">
        <ele>2271.800048828125</ele>
        <time>2026-09-03T04:49:15.000Z</time>
        <extensions>
          <ns3:TrackPointExtension>
            <ns3:hr>91</ns3:hr>
            <ns3:cad>60</ns3:cad>
          </ns3:TrackPointExtension>
        </extensions>
      </trkpt>
      <trkpt lat="44.72638987004756927490234375" lon="6.71552927233278751373291015625">
        <ele>2271.60009765625</ele>
        <time>2026-09-03T04:49:16.000Z</time>
        <extensions>
          <ns3:TrackPointExtension>
            <ns3:hr>91</ns3:hr>
            <ns3:cad>0</ns3:cad>
          </ns3:TrackPointExtension>
        </extensions>
      </trkpt>
      <trkpt lat="44.726393222808837890625" lon="6.71555290929973125457763671875">
        <ele>2271.60009765625</ele>
        <time>2026-09-03T04:49:17.000Z</time>
        <extensions>
          <ns3:TrackPointExtension>
            <ns3:hr>90</ns3:hr>
            <ns3:cad>0</ns3:cad>
          </ns3:TrackPointExtension>
        </extensions>
      </trkpt>
      <trkpt lat="44.726394899189472198486328125" lon="6.71556095592677593231201171875">
        <ele>2271.800048828125</ele>
        <time>2026-09-03T04:49:18.000Z</time>
        <extensions>
          <ns3:TrackPointExtension>
            <ns3:hr>90</ns3:hr>
            <ns3:cad>64</ns3:cad>
          </ns3:TrackPointExtension>
        </extensions>
      </trkpt>
      <trkpt lat="44.72639121115207672119140625" lon="6.715571768581867218017578125">
        <ele>2271.800048828125</ele>
        <time>2026-09-03T04:49:19.000Z</time>
        <extensions>
          <ns3:TrackPointExtension>
            <ns3:hr>89</ns3:hr>
            <ns3:cad>64</ns3:cad>
          </ns3:TrackPointExtension>
        </extensions>
      </trkpt>
      <trkpt lat="44.72638375125825405120849609375" lon="6.71557587571442127227783203125">
        <ele>2272</ele>
        <time>2026-09-03T04:49:20.000Z</time>
        <extensions>
          <ns3:TrackPointExtension>
            <ns3:hr>89</ns3:hr>
            <ns3:cad>64</ns3:cad>
          </ns3:TrackPointExtension>
        </extensions>
      </trkpt>
      <trkpt lat="44.72637553699314594268798828125" lon="6.7155752889811992645263671875">
        <ele>2272</ele>
        <time>2026-09-03T04:49:21.000Z</time>
        <extensions>
          <ns3:TrackPointExtension>
            <ns3:hr>88</ns3:hr>
            <ns3:cad>64</ns3:cad>
          </ns3:TrackPointExtension>
        </extensions>
      </trkpt>
      <trkpt lat="44.7263715974986553192138671875" lon="6.71557872556149959564208984375">
        <ele>2272.199951171875</ele>
        <time>2026-09-03T04:49:22.000Z</time>
        <extensions>
          <ns3:TrackPointExtension>
            <ns3:hr>87</ns3:hr>
            <ns3:cad>64</ns3:cad>
          </ns3:TrackPointExtension>
        </extensions>
      </trkpt>
      <trkpt lat="44.72636279650032520294189453125" lon="6.71558107249438762664794921875">
        <ele>2272.199951171875</ele>
        <time>2026-09-03T04:49:23.000Z</time>
        <extensions>
          <ns3:TrackPointExtension>
            <ns3:hr>87</ns3:hr>
            <ns3:cad>64</ns3:cad>
          </ns3:TrackPointExtension>
        </extensions>
      </trkpt>
      <trkpt lat="44.72635843791067600250244140625" lon="6.7155816592276096343994140625">
        <ele>2272</ele>
        <time>2026-09-03T04:49:24.000Z</time>
        <extensions>
          <ns3:TrackPointExtension>
            <ns3:hr>87</ns3:hr>
            <ns3:cad>64</ns3:cad>
          </ns3:TrackPointExtension>
        </extensions>
      </trkpt>
      <trkpt lat="44.72635223530232906341552734375" lon="6.71558157540857791900634765625">
        <ele>2272</ele>
        <time>2026-09-03T04:49:25.000Z</time>
        <extensions>
          <ns3:TrackPointExtension>
            <ns3:hr>87</ns3:hr>
            <ns3:cad>64</ns3:cad>
          </ns3:TrackPointExtension>
        </extensions>
      </trkpt>
      <trkpt lat="44.72634200938045978546142578125" lon="6.7155830003321170806884765625">
        <ele>2271.800048828125</ele>
        <time>2026-09-03T04:49:26.000Z</time>
        <extensions>
          <ns3:TrackPointExtension>
            <ns3:hr>87</ns3:hr>
            <ns3:cad>64</ns3:cad>
          </ns3:TrackPointExtension>
        </extensions>
      </trkpt>
      <trkpt lat="44.72633178345859050750732421875" lon="6.715585179626941680908203125">
        <ele>2271.60009765625</ele>
        <time>2026-09-03T04:49:27.000Z</time>
        <extensions>
          <ns3:TrackPointExtension>
            <ns3:hr>87</ns3:hr>
            <ns3:cad>64</ns3:cad>
          </ns3:TrackPointExtension>
        </extensions>
      </trkpt>
      <trkpt lat="44.72632055170834064483642578125" lon="6.7155876941978931427001953125">
        <ele>2271.39990234375</ele>
        <time>2026-09-03T04:49:28.000Z</time>
        <extensions>
          <ns3:TrackPointExtension>
            <ns3:hr>87</ns3:hr>
            <ns3:cad>65</ns3:cad>
          </ns3:TrackPointExtension>
        </extensions>
      </trkpt>
      <trkpt lat="44.7263065539300441741943359375" lon="6.71559062786400318145751953125">
        <ele>2271.199951171875</ele>
        <time>2026-09-03T04:49:29.000Z</time>
        <extensions>
          <ns3:TrackPointExtension>
            <ns3:hr>86</ns3:hr>
            <ns3:cad>65</ns3:cad>
          </ns3:TrackPointExtension>
        </extensions>
      </trkpt>
      <trkpt lat="44.7262926399707794189453125" lon="6.71559498645365238189697265625">
        <ele>2271</ele>
        <time>2026-09-03T04:49:30.000Z</time>
        <extensions>
          <ns3:TrackPointExtension>
            <ns3:hr>86</ns3:hr>
            <ns3:cad>65</ns3:cad>
          </ns3:TrackPointExtension>
        </extensions>
      </trkpt>
      <trkpt lat="44.7262763790786266326904296875" lon="6.71559615992009639739990234375">
        <ele>2271</ele>
        <time>2026-09-03T04:49:31.000Z</time>
        <extensions>
          <ns3:TrackPointExtension>
            <ns3:hr>86</ns3:hr>
            <ns3:cad>65</ns3:cad>
          </ns3:TrackPointExtension>
        </extensions>
      </trkpt>
      <trkpt lat="44.72626221366226673126220703125" lon="6.7155960761010646820068359375">
        <ele>2270.800048828125</ele>
        <time>2026-09-03T04:49:32.000Z</time>
        <extensions>
          <ns3:TrackPointExtension>
            <ns3:hr>86</ns3:hr>
            <ns3:cad>65</ns3:cad>
          </ns3:TrackPointExtension>
        </extensions>
      </trkpt>
      <trkpt lat="44.72625483758747577667236328125" lon="6.71559180133044719696044921875">
        <ele>2270.800048828125</ele>
        <time>2026-09-03T04:49:33.000Z</time>
        <extensions>
          <ns3:TrackPointExtension>
            <ns3:hr>87</ns3:hr>
            <ns3:cad>61</ns3:cad>
          </ns3:TrackPointExtension>
        </extensions>
      </trkpt>
      <trkpt lat="44.7262539155781269073486328125" lon="6.71559347771108150482177734375">
        <ele>2270.60009765625</ele>
        <time>2026-09-03T04:49:34.000Z</time>
        <extensions>
          <ns3:TrackPointExtension>
            <ns3:hr>87</ns3:hr>
            <ns3:cad>61</ns3:cad>
          </ns3:TrackPointExtension>
        </extensions>
      </trkpt>
      <trkpt lat="44.726256094872951507568359375" lon="6.71559884212911128997802734375">
        <ele>2270.60009765625</ele>
        <time>2026-09-03T04:49:35.000Z</time>
        <extensions>
          <ns3:TrackPointExtension>
            <ns3:hr>87</ns3:hr>
            <ns3:cad>61</ns3:cad>
          </ns3:TrackPointExtension>
        </extensions>
      </trkpt>
      <trkpt lat="44.72625978291034698486328125" lon="6.7155994288623332977294921875">
        <ele>2270.60009765625</ele>
        <time>2026-09-03T04:49:36.000Z</time>
        <extensions>
          <ns3:TrackPointExtension>
            <ns3:hr>87</ns3:hr>
            <ns3:cad>61</ns3:cad>
          </ns3:TrackPointExtension>
        </extensions>
      </trkpt>
      <trkpt lat="44.7262609563767910003662109375" lon="6.71560102142393589019775390625">
        <ele>2270.39990234375</ele>
        <time>2026-09-03T04:49:37.000Z</time>
        <extensions>
          <ns3:TrackPointExtension>
            <ns3:hr>87</ns3:hr>
            <ns3:cad>0</ns3:cad>
          </ns3:TrackPointExtension>
        </extensions>
      </trkpt>
      <trkpt lat="44.72626355476677417755126953125" lon="6.71559817157685756683349609375">
        <ele>2270.39990234375</ele>
        <time>2026-09-03T04:49:38.000Z</time>
        <extensions>
          <ns3:TrackPointExtension>
            <ns3:hr>86</ns3:hr>
            <ns3:cad>0</ns3:cad>
          </ns3:TrackPointExtension>
        </extensions>
      </trkpt>
      <trkpt lat="44.72626439295709133148193359375" lon="6.715597249567508697509765625">
        <ele>2270.39990234375</ele>
        <time>2026-09-03T04:49:39.000Z</time>
        <extensions>
          <ns3:TrackPointExtension>
            <ns3:hr>86</ns3:hr>
            <ns3:cad>0</ns3:cad>
          </ns3:TrackPointExtension>
        </extensions>
      </trkpt>
      <trkpt lat="44.72626439295709133148193359375" lon="6.715597249567508697509765625">
        <ele>2270.39990234375</ele>
        <time>2026-09-03T04:49:40.000Z</time>
        <extensions>
          <ns3:TrackPointExtension>
            <ns3:hr>86</ns3:hr>
            <ns3:cad>0</ns3:cad>
          </ns3:TrackPointExtension>
        </extensions>
      </trkpt>
      <trkpt lat="44.72626439295709133148193359375" lon="6.715597249567508697509765625">
        <ele>2270.60009765625</ele>
        <time>2026-09-03T04:49:41.000Z</time>
        <extensions>
          <ns3:TrackPointExtension>
            <ns3:hr>86</ns3:hr>
            <ns3:cad>0</ns3:cad>
          </ns3:TrackPointExtension>
        </extensions>
      </trkpt>
      <trkpt lat="44.72626439295709133148193359375" lon="6.715597249567508697509765625">
        <ele>2270.60009765625</ele>
        <time>2026-09-03T04:49:42.000Z</time>
        <extensions>
          <ns3:TrackPointExtension>
            <ns3:hr>86</ns3:hr>
            <ns3:cad>0</ns3:cad>
          </ns3:TrackPointExtension>
        </extensions>
      </trkpt>
      <trkpt lat="44.72626439295709133148193359375" lon="6.715597249567508697509765625">
        <ele>2270.60009765625</ele>
        <time>2026-09-03T04:49:43.000Z</time>
        <extensions>
          <ns3:TrackPointExtension>
            <ns3:hr>86</ns3:hr>
            <ns3:cad>0</ns3:cad>
          </ns3:TrackPointExtension>
        </extensions>
      </trkpt>
      <trkpt lat="44.72626439295709133148193359375" lon="6.715597249567508697509765625">
        <ele>2270.60009765625</ele>
        <time>2026-09-03T04:49:44.000Z</time>
        <extensions>
          <ns3:TrackPointExtension>
            <ns3:hr>87</ns3:hr>
            <ns3:cad>0</ns3:cad>
          </ns3:TrackPointExtension>
        </extensions>
      </trkpt>
      <trkpt lat="44.72626380622386932373046875" lon="6.715596579015254974365234375">
        <ele>2270.60009765625</ele>
        <time>2026-09-03T04:49:45.000Z</time>
        <extensions>
          <ns3:TrackPointExtension>
            <ns3:hr>87</ns3:hr>
            <ns3:cad>0</ns3:cad>
          </ns3:TrackPointExtension>
        </extensions>
      </trkpt>
      <trkpt lat="44.72625173628330230712890625" lon="6.7155954055488109588623046875">
        <ele>2270.60009765625</ele>
        <time>2026-09-03T04:49:46.000Z</time>
        <extensions>
          <ns3:TrackPointExtension>
            <ns3:hr>87</ns3:hr>
            <ns3:cad>0</ns3:cad>
          </ns3:TrackPointExtension>
        </extensions>
      </trkpt>
      <trkpt lat="44.72623958252370357513427734375" lon="6.71559599228203296661376953125">
        <ele>2270.60009765625</ele>
        <time>2026-09-03T04:49:47.000Z</time>
        <extensions>
          <ns3:TrackPointExtension>
            <ns3:hr>87</ns3:hr>
            <ns3:cad>0</ns3:cad>
          </ns3:TrackPointExtension>
        </extensions>
      </trkpt>
      <trkpt lat="44.72623161971569061279296875" lon="6.7155954055488109588623046875">
        <ele>2270.60009765625</ele>
        <time>2026-09-03T04:49:48.000Z</time>
        <extensions>
          <ns3:TrackPointExtension>
            <ns3:hr>88</ns3:hr>
            <ns3:cad>0</ns3:cad>
          </ns3:TrackPointExtension>
        </extensions>
      </trkpt>
      <trkpt lat="44.72622784785926342010498046875" lon="6.71559448353946208953857421875">
        <ele>2270.60009765625</ele>
        <time>2026-09-03T04:49:49.000Z</time>
        <extensions>
          <ns3:TrackPointExtension>
            <ns3:hr>88</ns3:hr>
            <ns3:cad>0</ns3:cad>
          </ns3:TrackPointExtension>
        </extensions>
      </trkpt>
      <trkpt lat="44.72622223198413848876953125" lon="6.71559649519622325897216796875">
        <ele>2270.39990234375</ele>
        <time>2026-09-03T04:49:50.000Z</time>
        <extensions>
          <ns3:TrackPointExtension>
            <ns3:hr>89</ns3:hr>
            <ns3:cad>0</ns3:cad>
          </ns3:TrackPointExtension>
        </extensions>
      </trkpt>
      <trkpt lat="44.72621493972837924957275390625" lon="6.7155969142913818359375">
        <ele>2270.39990234375</ele>
        <time>2026-09-03T04:49:51.000Z</time>
        <extensions>
          <ns3:TrackPointExtension>
            <ns3:hr>90</ns3:hr>
            <ns3:cad>0</ns3:cad>
          </ns3:TrackPointExtension>
        </extensions>
      </trkpt>
      <trkpt lat="44.72620555199682712554931640625" lon="6.71559716574847698211669921875">
        <ele>2270.39990234375</ele>
        <time>2026-09-03T04:49:52.000Z</time>
        <extensions>
          <ns3:TrackPointExtension>
            <ns3:hr>89</ns3:hr>
            <ns3:cad>0</ns3:cad>
          </ns3:TrackPointExtension>
        </extensions>
      </trkpt>
      <trkpt lat="44.72619532607495784759521484375" lon="6.7155964113771915435791015625">
        <ele>2270.199951171875</ele>
        <time>2026-09-03T04:49:53.000Z</time>
        <extensions>
          <ns3:TrackPointExtension>
            <ns3:hr>90</ns3:hr>
            <ns3:cad>53</ns3:cad>
          </ns3:TrackPointExtension>
        </extensions>
      </trkpt>
      <trkpt lat="44.726183004677295684814453125" lon="6.71559615992009639739990234375">
        <ele>2270.199951171875</ele>
        <time>2026-09-03T04:49:54.000Z</time>
        <extensions>
          <ns3:TrackPointExtension>
            <ns3:hr>89</ns3:hr>
            <ns3:cad>57</ns3:cad>
          </ns3:TrackPointExtension>
        </extensions>
      </trkpt>
      <trkpt lat="44.7261687554419040679931640625" lon="6.7155969142913818359375">
        <ele>2270.199951171875</ele>
        <time>2026-09-03T04:49:55.000Z</time>
        <extensions>
          <ns3:TrackPointExtension>
            <ns3:hr>89</ns3:hr>
            <ns3:cad>57</ns3:cad>
          </ns3:TrackPointExtension>
        </extensions>
      </trkpt>
      <trkpt lat="44.72615609876811504364013671875" lon="6.7155984230339527130126953125">
        <ele>2270.199951171875</ele>
        <time>2026-09-03T04:49:56.000Z</time>
        <extensions>
          <ns3:TrackPointExtension>
            <ns3:hr>88</ns3:hr>
            <ns3:cad>57</ns3:cad>
          </ns3:TrackPointExtension>
        </extensions>
      </trkpt>
      <trkpt lat="44.726144112646579742431640625" lon="6.7155987583100795745849609375">
        <ele>2270</ele>
        <time>2026-09-03T04:49:57.000Z</time>
        <extensions>
          <ns3:TrackPointExtension>
            <ns3:hr>88</ns3:hr>
            <ns3:cad>58</ns3:cad>
          </ns3:TrackPointExtension>
        </extensions>
      </trkpt>
      <trkpt lat="44.726134054362773895263671875" lon="6.71559917740523815155029296875">
        <ele>2270</ele>
        <time>2026-09-03T04:49:58.000Z</time>
        <extensions>
          <ns3:TrackPointExtension>
            <ns3:hr>88</ns3:hr>
            <ns3:cad>58</ns3:cad>
          </ns3:TrackPointExtension>
        </extensions>
      </trkpt>
      <trkpt lat="44.7261208109557628631591796875" lon="6.71559934504330158233642578125">
        <ele>2269.800048828125</ele>
        <time>2026-09-03T04:49:59.000Z</time>
        <extensions>
          <ns3:TrackPointExtension>
            <ns3:hr>89</ns3:hr>
            <ns3:cad>58</ns3:cad>
          </ns3:TrackPointExtension>
        </extensions>
      </trkpt>
      <trkpt lat="44.72610631026327610015869140625" lon="6.71560035087168216705322265625">
        <ele>2269.800048828125</ele>
        <time>2026-09-03T04:50:00.000Z</time>
        <extensions>
          <ns3:TrackPointExtension>
            <ns3:hr>90</ns3:hr>
            <ns3:cad>59</ns3:cad>
          </ns3:TrackPointExtension>
        </extensions>
      </trkpt>
      <trkpt lat="44.72608812153339385986328125" lon="6.71560294926166534423828125">
        <ele>2269.800048828125</ele>
        <time>2026-09-03T04:50:01.000Z</time>
        <extensions>
          <ns3:TrackPointExtension>
            <ns3:hr>95</ns3:hr>
            <ns3:cad>59</ns3:cad>
          </ns3:TrackPointExtension>
        </extensions>
      </trkpt>
      <trkpt lat="44.7260685078799724578857421875" lon="6.715606637299060821533203125">
        <ele>2269.800048828125</ele>
        <time>2026-09-03T04:50:02.000Z</time>
        <extensions>
          <ns3:TrackPointExtension>
            <ns3:hr>95</ns3:hr>
            <ns3:cad>59</ns3:cad>
          </ns3:TrackPointExtension>
        </extensions>
      </trkpt>
      <trkpt lat="44.726046212017536163330078125" lon="6.71561124734580516815185546875">
        <ele>2269.800048828125</ele>
        <time>2026-09-03T04:50:03.000Z</time>
        <extensions>
          <ns3:TrackPointExtension>
            <ns3:hr>95</ns3:hr>
            <ns3:cad>125</ns3:cad>
          </ns3:TrackPointExtension>
        </extensions>
      </trkpt>
      <trkpt lat="44.72602106630802154541015625" lon="6.71561376191675662994384765625">
        <ele>2269.60009765625</ele>
        <time>2026-09-03T04:50:04.000Z</time>
        <extensions>
          <ns3:TrackPointExtension>
            <ns3:hr>96</ns3:hr>
            <ns3:cad>125</ns3:cad>
          </ns3:TrackPointExtension>
        </extensions>
      </trkpt>
      <trkpt lat="44.72600002773106098175048828125" lon="6.71561728231608867645263671875">
        <ele>2269.39990234375</ele>
        <time>2026-09-03T04:50:05.000Z</time>
        <extensions>
          <ns3:TrackPointExtension>
            <ns3:hr>96</ns3:hr>
            <ns3:cad>80</ns3:cad>
          </ns3:TrackPointExtension>
        </extensions>
      </trkpt>
      <trkpt lat="44.7259786538779735565185546875" lon="6.71562482602894306182861328125">
        <ele>2269.199951171875</ele>
        <time>2026-09-03T04:50:06.000Z</time>
        <extensions>
          <ns3:TrackPointExtension>
            <ns3:hr>97</ns3:hr>
            <ns3:cad>80</ns3:cad>
          </ns3:TrackPointExtension>
        </extensions>
      </trkpt>
      <trkpt lat="44.72595677711069583892822265625" lon="6.71563421376049518585205078125">
        <ele>2269</ele>
        <time>2026-09-03T04:50:07.000Z</time>
        <extensions>
          <ns3:TrackPointExtension>
            <ns3:hr>97</ns3:hr>
            <ns3:cad>80</ns3:cad>
          </ns3:TrackPointExtension>
        </extensions>
      </trkpt>
      <trkpt lat="44.72594730556011199951171875" lon="6.715646199882030487060546875">
        <ele>2269</ele>
        <time>2026-09-03T04:50:08.000Z</time>
        <extensions>
          <ns3:TrackPointExtension>
            <ns3:hr>98</ns3:hr>
            <ns3:cad>80</ns3:cad>
          </ns3:TrackPointExtension>
        </extensions>
      </trkpt>
      <trkpt lat="44.72592878155410289764404296875" lon="6.71565902419388294219970703125">
        <ele>2268.800048828125</ele>
        <time>2026-09-03T04:50:09.000Z</time>
        <extensions>
          <ns3:TrackPointExtension>
            <ns3:hr>98</ns3:hr>
            <ns3:cad>80</ns3:cad>
          </ns3:TrackPointExtension>
        </extensions>
      </trkpt>
      <trkpt lat="44.72591570578515529632568359375" lon="6.7156748659908771514892578125">
        <ele>2268.60009765625</ele>
        <time>2026-09-03T04:50:10.000Z</time>
        <extensions>
          <ns3:TrackPointExtension>
            <ns3:hr>98</ns3:hr>
            <ns3:cad>80</ns3:cad>
          </ns3:TrackPointExtension>
        </extensions>
      </trkpt>
      <trkpt lat="44.72589961253106594085693359375" lon="6.7156866006553173065185546875">
        <ele>2268.60009765625</ele>
        <time>2026-09-03T04:50:11.000Z</time>
        <extensions>
          <ns3:TrackPointExtension>
            <ns3:hr>98</ns3:hr>
            <ns3:cad>79</ns3:cad>
          </ns3:TrackPointExtension>
        </extensions>
      </trkpt>
      <trkpt lat="44.725889973342418670654296875" lon="6.71570193953812122344970703125">
        <ele>2268.39990234375</ele>
        <time>2026-09-03T04:50:12.000Z</time>
        <extensions>
          <ns3:TrackPointExtension>
            <ns3:hr>98</ns3:hr>
            <ns3:cad>79</ns3:cad>
          </ns3:TrackPointExtension>
        </extensions>
      </trkpt>
      <trkpt lat="44.7258763946592807769775390625" lon="6.71571115963160991668701171875">
        <ele>2268.199951171875</ele>
        <time>2026-09-03T04:50:13.000Z</time>
        <extensions>
          <ns3:TrackPointExtension>
            <ns3:hr>98</ns3:hr>
            <ns3:cad>79</ns3:cad>
          </ns3:TrackPointExtension>
        </extensions>
      </trkpt>
      <trkpt lat="44.72586122341454029083251953125" lon="6.7157144285738468170166015625">
        <ele>2268.199951171875</ele>
        <time>2026-09-03T04:50:14.000Z</time>
        <extensions>
          <ns3:TrackPointExtension>
            <ns3:hr>99</ns3:hr>
            <ns3:cad>79</ns3:cad>
          </ns3:TrackPointExtension>
        </extensions>
      </trkpt>
      <trkpt lat="44.72584747709333896636962890625" lon="6.71572239138185977935791015625">
        <ele>2268</ele>
        <time>2026-09-03T04:50:15.000Z</time>
        <extensions>
          <ns3:TrackPointExtension>
            <ns3:hr>99</ns3:hr>
            <ns3:cad>79</ns3:cad>
          </ns3:TrackPointExtension>
        </extensions>
      </trkpt>
      <trkpt lat="44.725832976400852203369140625" lon="6.7157305218279361724853515625">
        <ele>2267.800048828125</ele>
        <time>2026-09-03T04:50:16.000Z</time>
        <extensions>
          <ns3:TrackPointExtension>
            <ns3:hr>99</ns3:hr>
            <ns3:cad>68</ns3:cad>
          </ns3:TrackPointExtension>
        </extensions>
      </trkpt>
      <trkpt lat="44.72581746987998485565185546875" lon="6.7157409153878688812255859375">
        <ele>2267.800048828125</ele>
        <time>2026-09-03T04:50:17.000Z</time>
        <extensions>
          <ns3:TrackPointExtension>
            <ns3:hr>99</ns3:hr>
            <ns3:cad>65</ns3:cad>
          </ns3:TrackPointExtension>
        </extensions>
      </trkpt>
      <trkpt lat="44.725809507071971893310546875" lon="6.7157503031194210052490234375">
        <ele>2267.60009765625</ele>
        <time>2026-09-03T04:50:18.000Z</time>
        <extensions>
          <ns3:TrackPointExtension>
            <ns3:hr>100</ns3:hr>
            <ns3:cad>64</ns3:cad>
          </ns3:TrackPointExtension>
        </extensions>
      </trkpt>
      <trkpt lat="44.725802801549434661865234375" lon="6.71576379798352718353271484375">
        <ele>2267.199951171875</ele>
        <time>2026-09-03T04:50:19.000Z</time>
        <extensions>
          <ns3:TrackPointExtension>
            <ns3:hr>100</ns3:hr>
            <ns3:cad>64</ns3:cad>
          </ns3:TrackPointExtension>
        </extensions>
      </trkpt>
      <trkpt lat="44.72580154426395893096923828125" lon="6.7157757841050624847412109375">
        <ele>2267</ele>
        <time>2026-09-03T04:50:20.000Z</time>
        <extensions>
          <ns3:TrackPointExtension>
            <ns3:hr>99</ns3:hr>
            <ns3:cad>64</ns3:cad>
          </ns3:TrackPointExtension>
        </extensions>
      </trkpt>
      <trkpt lat="44.7257986105978488922119140625" lon="6.7157908715307712554931640625">
        <ele>2266.800048828125</ele>
        <time>2026-09-03T04:50:21.000Z</time>
        <extensions>
          <ns3:TrackPointExtension>
            <ns3:hr>98</ns3:hr>
            <ns3:cad>61</ns3:cad>
          </ns3:TrackPointExtension>
        </extensions>
      </trkpt>
      <trkpt lat="44.7257895581424236297607421875" lon="6.71581375412642955780029296875">
        <ele>2266.60009765625</ele>
        <time>2026-09-03T04:50:22.000Z</time>
        <extensions>
          <ns3:TrackPointExtension>
            <ns3:hr>97</ns3:hr>
            <ns3:cad>61</ns3:cad>
          </ns3:TrackPointExtension>
        </extensions>
      </trkpt>
      <trkpt lat="44.7257808409631252288818359375" lon="6.71583764255046844482421875">
        <ele>2266.39990234375</ele>
        <time>2026-09-03T04:50:23.000Z</time>
        <extensions>
          <ns3:TrackPointExtension>
            <ns3:hr>96</ns3:hr>
            <ns3:cad>61</ns3:cad>
          </ns3:TrackPointExtension>
        </extensions>
      </trkpt>
      <trkpt lat="44.72577053122222423553466796875" lon="6.7158616147935390472412109375">
        <ele>2266.199951171875</ele>
        <time>2026-09-03T04:50:24.000Z</time>
        <extensions>
          <ns3:TrackPointExtension>
            <ns3:hr>96</ns3:hr>
            <ns3:cad>63</ns3:cad>
          </ns3:TrackPointExtension>
        </extensions>
      </trkpt>
      <trkpt lat="44.72576281987130641937255859375" lon="6.7158810608088970184326171875">
        <ele>2266</ele>
        <time>2026-09-03T04:50:25.000Z</time>
        <extensions>
          <ns3:TrackPointExtension>
            <ns3:hr>96</ns3:hr>
            <ns3:cad>63</ns3:cad>
          </ns3:TrackPointExtension>
        </extensions>
      </trkpt>
      <trkpt lat="44.72575527615845203399658203125" lon="6.7158991657197475433349609375">
        <ele>2265.800048828125</ele>
        <time>2026-09-03T04:50:26.000Z</time>
        <extensions>
          <ns3:TrackPointExtension>
            <ns3:hr>95</ns3:hr>
            <ns3:cad>63</ns3:cad>
          </ns3:TrackPointExtension>
        </extensions>
      </trkpt>
      <trkpt lat="44.7257479839026927947998046875" lon="6.71591249294579029083251953125">
        <ele>2265.60009765625</ele>
        <time>2026-09-03T04:50:27.000Z</time>
        <extensions>
          <ns3:TrackPointExtension>
            <ns3:hr>95</ns3:hr>
            <ns3:cad>64</ns3:cad>
          </ns3:TrackPointExtension>
        </extensions>
      </trkpt>
      <trkpt lat="44.72574102692306041717529296875" lon="6.71592607162892818450927734375">
        <ele>2265.60009765625</ele>
        <time>2026-09-03T04:50:28.000Z</time>
        <extensions>
          <ns3:TrackPointExtension>
            <ns3:hr>95</ns3:hr>
            <ns3:cad>65</ns3:cad>
          </ns3:TrackPointExtension>
        </extensions>
      </trkpt>
      <trkpt lat="44.7257322259247303009033203125" lon="6.7159380577504634857177734375">
        <ele>2265.60009765625</ele>
        <time>2026-09-03T04:50:29.000Z</time>
        <extensions>
          <ns3:TrackPointExtension>
            <ns3:hr>95</ns3:hr>
            <ns3:cad>65</ns3:cad>
          </ns3:TrackPointExtension>
        </extensions>
      </trkpt>
      <trkpt lat="44.72572158090770244598388671875" lon="6.71595222316682338714599609375">
        <ele>2265.39990234375</ele>
        <time>2026-09-03T04:50:30.000Z</time>
        <extensions>
          <ns3:TrackPointExtension>
            <ns3:hr>96</ns3:hr>
            <ns3:cad>65</ns3:cad>
          </ns3:TrackPointExtension>
        </extensions>
      </trkpt>
      <trkpt lat="44.72570993006229400634765625" lon="6.7159672267735004425048828125">
        <ele>2265.39990234375</ele>
        <time>2026-09-03T04:50:31.000Z</time>
        <extensions>
          <ns3:TrackPointExtension>
            <ns3:hr>95</ns3:hr>
            <ns3:cad>65</ns3:cad>
          </ns3:TrackPointExtension>
        </extensions>
      </trkpt>
      <trkpt lat="44.72570188343524932861328125" lon="6.7159809730947017669677734375">
        <ele>2265.199951171875</ele>
        <time>2026-09-03T04:50:32.000Z</time>
        <extensions>
          <ns3:TrackPointExtension>
            <ns3:hr>95</ns3:hr>
            <ns3:cad>65</ns3:cad>
          </ns3:TrackPointExtension>
        </extensions>
      </trkpt>
      <trkpt lat="44.725692830979824066162109375" lon="6.71599597670137882232666015625">
        <ele>2265</ele>
        <time>2026-09-03T04:50:33.000Z</time>
        <extensions>
          <ns3:TrackPointExtension>
            <ns3:hr>95</ns3:hr>
            <ns3:cad>59</ns3:cad>
          </ns3:TrackPointExtension>
        </extensions>
      </trkpt>
      <trkpt lat="44.72568369470536708831787109375" lon="6.71600871719419956207275390625">
        <ele>2264.60009765625</ele>
        <time>2026-09-03T04:50:34.000Z</time>
        <extensions>
          <ns3:TrackPointExtension>
            <ns3:hr>95</ns3:hr>
            <ns3:cad>57</ns3:cad>
          </ns3:TrackPointExtension>
        </extensions>
      </trkpt>
      <trkpt lat="44.72567648626863956451416015625" lon="6.716019697487354278564453125">
        <ele>2264.39990234375</ele>
        <time>2026-09-03T04:50:35.000Z</time>
        <extensions>
          <ns3:TrackPointExtension>
            <ns3:hr>94</ns3:hr>
            <ns3:cad>57</ns3:cad>
          </ns3:TrackPointExtension>
        </extensions>
      </trkpt>
      <trkpt lat="44.725670702755451202392578125" lon="6.7160356231033802032470703125">
        <ele>2264.199951171875</ele>
        <time>2026-09-03T04:50:36.000Z</time>
        <extensions>
          <ns3:TrackPointExtension>
            <ns3:hr>94</ns3:hr>
            <ns3:cad>57</ns3:cad>
          </ns3:TrackPointExtension>
        </extensions>
      </trkpt>
      <trkpt lat="44.7256614826619625091552734375" lon="6.71604928560554981231689453125">
        <ele>2264</ele>
        <time>2026-09-03T04:50:37.000Z</time>
        <extensions>
          <ns3:TrackPointExtension>
            <ns3:hr>94</ns3:hr>
            <ns3:cad>57</ns3:cad>
          </ns3:TrackPointExtension>
        </extensions>
      </trkpt>
      <trkpt lat="44.72565360367298126220703125" lon="6.71606269665062427520751953125">
        <ele>2263.800048828125</ele>
        <time>2026-09-03T04:50:38.000Z</time>
        <extensions>
          <ns3:TrackPointExtension>
            <ns3:hr>94</ns3:hr>
            <ns3:cad>57</ns3:cad>
          </ns3:TrackPointExtension>
        </extensions>
      </trkpt>
      <trkpt lat="44.725643210113048553466796875" lon="6.7160751856863498687744140625">
        <ele>2263.60009765625</ele>
        <time>2026-09-03T04:50:39.000Z</time>
        <extensions>
          <ns3:TrackPointExtension>
            <ns3:hr>94</ns3:hr>
            <ns3:cad>57</ns3:cad>
          </ns3:TrackPointExtension>
        </extensions>
      </trkpt>
      <trkpt lat="44.72563005052506923675537109375" lon="6.7160862497985363006591796875">
        <ele>2263.39990234375</ele>
        <time>2026-09-03T04:50:40.000Z</time>
        <extensions>
          <ns3:TrackPointExtension>
            <ns3:hr>94</ns3:hr>
            <ns3:cad>61</ns3:cad>
          </ns3:TrackPointExtension>
        </extensions>
      </trkpt>
      <trkpt lat="44.7256152145564556121826171875" lon="6.716094799339771270751953125">
        <ele>2263.39990234375</ele>
        <time>2026-09-03T04:50:41.000Z</time>
        <extensions>
          <ns3:TrackPointExtension>
            <ns3:hr>93</ns3:hr>
            <ns3:cad>61</ns3:cad>
          </ns3:TrackPointExtension>
        </extensions>
      </trkpt>
      <trkpt lat="44.72560239024460315704345703125" lon="6.71609957702457904815673828125">
        <ele>2263.199951171875</ele>
        <time>2026-09-03T04:50:42.000Z</time>
        <extensions>
          <ns3:TrackPointExtension>
            <ns3:hr>93</ns3:hr>
            <ns3:cad>61</ns3:cad>
          </ns3:TrackPointExtension>
        </extensions>
      </trkpt>
      <trkpt lat="44.7255860455334186553955078125" lon="6.71610854566097259521484375">
        <ele>2263</ele>
        <time>2026-09-03T04:50:43.000Z</time>
        <extensions>
          <ns3:TrackPointExtension>
            <ns3:hr>93</ns3:hr>
            <ns3:cad>61</ns3:cad>
          </ns3:TrackPointExtension>
        </extensions>
      </trkpt>
      <trkpt lat="44.72557288594543933868408203125" lon="6.71611701138317584991455078125">
        <ele>2263</ele>
        <time>2026-09-03T04:50:44.000Z</time>
        <extensions>
          <ns3:TrackPointExtension>
            <ns3:hr>92</ns3:hr>
            <ns3:cad>57</ns3:cad>
          </ns3:TrackPointExtension>
        </extensions>
      </trkpt>
      <trkpt lat="44.72556048072874546051025390625" lon="6.71613000333309173583984375">
        <ele>2263</ele>
        <time>2026-09-03T04:50:45.000Z</time>
        <extensions>
          <ns3:TrackPointExtension>
            <ns3:hr>92</ns3:hr>
            <ns3:cad>57</ns3:cad>
          </ns3:TrackPointExtension>
        </extensions>
      </trkpt>
      <trkpt lat="44.725547321140766143798828125" lon="6.71613939106464385986328125">
        <ele>2262.800048828125</ele>
        <time>2026-09-03T04:50:46.000Z</time>
        <extensions>
          <ns3:TrackPointExtension>
            <ns3:hr>92</ns3:hr>
            <ns3:cad>61</ns3:cad>
          </ns3:TrackPointExtension>
        </extensions>
      </trkpt>
      <trkpt lat="44.72553516738116741180419921875" lon="6.71614400111138820648193359375">
        <ele>2262.800048828125</ele>
        <time>2026-09-03T04:50:47.000Z</time>
        <extensions>
          <ns3:TrackPointExtension>
            <ns3:hr>92</ns3:hr>
            <ns3:cad>61</ns3:cad>
          </ns3:TrackPointExtension>
        </extensions>
      </trkpt>
      <trkpt lat="44.72552108578383922576904296875" lon="6.71614970080554485321044921875">
        <ele>2262.60009765625</ele>
        <time>2026-09-03T04:50:48.000Z</time>
        <extensions>
          <ns3:TrackPointExtension>
            <ns3:hr>91</ns3:hr>
            <ns3:cad>61</ns3:cad>
          </ns3:TrackPointExtension>
        </extensions>
      </trkpt>
      <trkpt lat="44.7255045734345912933349609375" lon="6.7161600105464458465576171875">
        <ele>2262.39990234375</ele>
        <time>2026-09-03T04:50:49.000Z</time>
        <extensions>
          <ns3:TrackPointExtension>
            <ns3:hr>91</ns3:hr>
            <ns3:cad>61</ns3:cad>
          </ns3:TrackPointExtension>
        </extensions>
      </trkpt>
      <trkpt lat="44.72548822872340679168701171875" lon="6.71617065556347370147705078125">
        <ele>2262.199951171875</ele>
        <time>2026-09-03T04:50:50.000Z</time>
        <extensions>
          <ns3:TrackPointExtension>
            <ns3:hr>91</ns3:hr>
            <ns3:cad>61</ns3:cad>
          </ns3:TrackPointExtension>
        </extensions>
      </trkpt>
      <trkpt lat="44.72547565586864948272705078125" lon="6.71618104912340641021728515625">
        <ele>2262</ele>
        <time>2026-09-03T04:50:51.000Z</time>
        <extensions>
          <ns3:TrackPointExtension>
            <ns3:hr>91</ns3:hr>
            <ns3:cad>59</ns3:cad>
          </ns3:TrackPointExtension>
        </extensions>
      </trkpt>
      <trkpt lat="44.725464843213558197021484375" lon="6.7161977291107177734375">
        <ele>2261.800048828125</ele>
        <time>2026-09-03T04:50:52.000Z</time>
        <extensions>
          <ns3:TrackPointExtension>
            <ns3:hr>91</ns3:hr>
            <ns3:cad>0</ns3:cad>
          </ns3:TrackPointExtension>
        </extensions>
      </trkpt>
      <trkpt lat="44.72545637749135494232177734375" lon="6.716211475431919097900390625">
        <ele>2261.800048828125</ele>
        <time>2026-09-03T04:50:53.000Z</time>
        <extensions>
          <ns3:TrackPointExtension>
            <ns3:hr>91</ns3:hr>
            <ns3:cad>0</ns3:cad>
          </ns3:TrackPointExtension>
        </extensions>
      </trkpt>
      <trkpt lat="44.7254465706646442413330078125" lon="6.71622379682958126068115234375">
        <ele>2261.60009765625</ele>
        <time>2026-09-03T04:50:54.000Z</time>
        <extensions>
          <ns3:TrackPointExtension>
            <ns3:hr>91</ns3:hr>
            <ns3:cad>0</ns3:cad>
          </ns3:TrackPointExtension>
        </extensions>
      </trkpt>
      <trkpt lat="44.725438021123409271240234375" lon="6.71623519621789455413818359375">
        <ele>2261.60009765625</ele>
        <time>2026-09-03T04:50:55.000Z</time>
        <extensions>
          <ns3:TrackPointExtension>
            <ns3:hr>91</ns3:hr>
            <ns3:cad>59</ns3:cad>
          </ns3:TrackPointExtension>
        </extensions>
      </trkpt>
      <trkpt lat="44.72543039359152317047119140625" lon="6.7162458412349224090576171875">
        <ele>2261.39990234375</ele>
        <time>2026-09-03T04:50:56.000Z</time>
        <extensions>
          <ns3:TrackPointExtension>
            <ns3:hr>90</ns3:hr>
            <ns3:cad>59</ns3:cad>
          </ns3:TrackPointExtension>
        </extensions>
      </trkpt>
      <trkpt lat="44.7254254482686519622802734375" lon="6.7162545584142208099365234375">
        <ele>2261.39990234375</ele>
        <time>2026-09-03T04:50:57.000Z</time>
        <extensions>
          <ns3:TrackPointExtension>
            <ns3:hr>90</ns3:hr>
            <ns3:cad>59</ns3:cad>
          </ns3:TrackPointExtension>
        </extensions>
      </trkpt>
      <trkpt lat="44.725419916212558746337890625" lon="6.71626034192740917205810546875">
        <ele>2261.39990234375</ele>
        <time>2026-09-03T04:50:58.000Z</time>
        <extensions>
          <ns3:TrackPointExtension>
            <ns3:hr>90</ns3:hr>
            <ns3:cad>59</ns3:cad>
          </ns3:TrackPointExtension>
        </extensions>
      </trkpt>
      <trkpt lat="44.725415222346782684326171875" lon="6.7162666283547878265380859375">
        <ele>2261.199951171875</ele>
        <time>2026-09-03T04:50:59.000Z</time>
        <extensions>
          <ns3:TrackPointExtension>
            <ns3:hr>90</ns3:hr>
            <ns3:cad>60</ns3:cad>
          </ns3:TrackPointExtension>
        </extensions>
      </trkpt>
      <trkpt lat="44.72540818154811859130859375" lon="6.71627727337181568145751953125">
        <ele>2261.199951171875</ele>
        <time>2026-09-03T04:51:00.000Z</time>
        <extensions>
          <ns3:TrackPointExtension>
            <ns3:hr>90</ns3:hr>
            <ns3:cad>60</ns3:cad>
          </ns3:TrackPointExtension>
        </extensions>
      </trkpt>
      <trkpt lat="44.72539669834077358245849609375" lon="6.7162954621016979217529296875">
        <ele>2261</ele>
        <time>2026-09-03T04:51:01.000Z</time>
        <extensions>
          <ns3:TrackPointExtension>
            <ns3:hr>91</ns3:hr>
            <ns3:cad>60</ns3:cad>
          </ns3:TrackPointExtension>
        </extensions>
      </trkpt>
      <trkpt lat="44.72538848407566547393798828125" lon="6.71630895696580410003662109375">
        <ele>2261</ele>
        <time>2026-09-03T04:51:02.000Z</time>
        <extensions>
          <ns3:TrackPointExtension>
            <ns3:hr>90</ns3:hr>
            <ns3:cad>60</ns3:cad>
          </ns3:TrackPointExtension>
        </extensions>
      </trkpt>
      <trkpt lat="44.72538060508668422698974609375" lon="6.71632220037281513214111328125">
        <ele>2260.800048828125</ele>
        <time>2026-09-03T04:51:03.000Z</time>
        <extensions>
          <ns3:TrackPointExtension>
            <ns3:hr>90</ns3:hr>
            <ns3:cad>63</ns3:cad>
          </ns3:TrackPointExtension>
        </extensions>
      </trkpt>
      <trkpt lat="44.725372307002544403076171875" lon="6.71633728779852390289306640625">
        <ele>2260.60009765625</ele>
        <time>2026-09-03T04:51:04.000Z</time>
        <extensions>
          <ns3:TrackPointExtension>
            <ns3:hr>89</ns3:hr>
            <ns3:cad>63</ns3:cad>
          </ns3:TrackPointExtension>
        </extensions>
      </trkpt>
      <trkpt lat="44.72536451183259487152099609375" lon="6.71635396778583526611328125">
        <ele>2260.39990234375</ele>
        <time>2026-09-03T04:51:05.000Z</time>
        <extensions>
          <ns3:TrackPointExtension>
            <ns3:hr>88</ns3:hr>
            <ns3:cad>63</ns3:cad>
          </ns3:TrackPointExtension>
        </extensions>
      </trkpt>
      <trkpt lat="44.72535579465329647064208984375" lon="6.716369055211544036865234375">
        <ele>2260.199951171875</ele>
        <time>2026-09-03T04:51:06.000Z</time>
        <extensions>
          <ns3:TrackPointExtension>
            <ns3:hr>88</ns3:hr>
            <ns3:cad>63</ns3:cad>
          </ns3:TrackPointExtension>
        </extensions>
      </trkpt>
      <trkpt lat="44.72534758038818836212158203125" lon="6.71638087369501590728759765625">
        <ele>2260</ele>
        <time>2026-09-03T04:51:07.000Z</time>
        <extensions>
          <ns3:TrackPointExtension>
            <ns3:hr>88</ns3:hr>
            <ns3:cad>63</ns3:cad>
          </ns3:TrackPointExtension>
        </extensions>
      </trkpt>
      <trkpt lat="44.7253416292369365692138671875" lon="6.7163950391113758087158203125">
        <ele>2260</ele>
        <time>2026-09-03T04:51:08.000Z</time>
        <extensions>
          <ns3:TrackPointExtension>
            <ns3:hr>88</ns3:hr>
            <ns3:cad>63</ns3:cad>
          </ns3:TrackPointExtension>
        </extensions>
      </trkpt>
      <trkpt lat="44.72533685155212879180908203125" lon="6.71640668995678424835205078125">
        <ele>2260</ele>
        <time>2026-09-03T04:51:09.000Z</time>
        <extensions>
          <ns3:TrackPointExtension>
            <ns3:hr>88</ns3:hr>
            <ns3:cad>61</ns3:cad>
          </ns3:TrackPointExtension>
        </extensions>
      </trkpt>
      <trkpt lat="44.7253258712589740753173828125" lon="6.71642278321087360382080078125">
        <ele>2259.800048828125</ele>
        <time>2026-09-03T04:51:10.000Z</time>
        <extensions>
          <ns3:TrackPointExtension>
            <ns3:hr>89</ns3:hr>
            <ns3:cad>59</ns3:cad>
          </ns3:TrackPointExtension>
        </extensions>
      </trkpt>
      <trkpt lat="44.725314639508724212646484375" lon="6.71643787063658237457275390625">
        <ele>2259.800048828125</ele>
        <time>2026-09-03T04:51:11.000Z</time>
        <extensions>
          <ns3:TrackPointExtension>
            <ns3:hr>89</ns3:hr>
            <ns3:cad>59</ns3:cad>
          </ns3:TrackPointExtension>
        </extensions>
      </trkpt>
      <trkpt lat="44.72530717961490154266357421875" lon="6.71644985675811767578125">
        <ele>2259.39990234375</ele>
        <time>2026-09-03T04:51:12.000Z</time>
        <extensions>
          <ns3:TrackPointExtension>
            <ns3:hr>89</ns3:hr>
            <ns3:cad>59</ns3:cad>
          </ns3:TrackPointExtension>
        </extensions>
      </trkpt>
      <trkpt lat="44.72529779188334941864013671875" lon="6.716466285288333892822265625">
        <ele>2259.199951171875</ele>
        <time>2026-09-03T04:51:13.000Z</time>
        <extensions>
          <ns3:TrackPointExtension>
            <ns3:hr>88</ns3:hr>
            <ns3:cad>59</ns3:cad>
          </ns3:TrackPointExtension>
        </extensions>
      </trkpt>
      <trkpt lat="44.72528823651373386383056640625" lon="6.71647391282021999359130859375">
        <ele>2259</ele>
        <time>2026-09-03T04:51:14.000Z</time>
        <extensions>
          <ns3:TrackPointExtension>
            <ns3:hr>89</ns3:hr>
            <ns3:cad>59</ns3:cad>
          </ns3:TrackPointExtension>
        </extensions>
      </trkpt>
      <trkpt lat="44.72527717240154743194580078125" lon="6.71648271381855010986328125">
        <ele>2258.800048828125</ele>
        <time>2026-09-03T04:51:15.000Z</time>
        <extensions>
          <ns3:TrackPointExtension>
            <ns3:hr>89</ns3:hr>
            <ns3:cad>59</ns3:cad>
          </ns3:TrackPointExtension>
        </extensions>
      </trkpt>
      <trkpt lat="44.7252678684890270233154296875" lon="6.71649017371237277984619140625">
        <ele>2258.60009765625</ele>
        <time>2026-09-03T04:51:16.000Z</time>
        <extensions>
          <ns3:TrackPointExtension>
            <ns3:hr>89</ns3:hr>
            <ns3:cad>59</ns3:cad>
          </ns3:TrackPointExtension>
        </extensions>
      </trkpt>
      <trkpt lat="44.7252578102052211761474609375" lon="6.7165013216435909271240234375">
        <ele>2258.39990234375</ele>
        <time>2026-09-03T04:51:17.000Z</time>
        <extensions>
          <ns3:TrackPointExtension>
            <ns3:hr>89</ns3:hr>
            <ns3:cad>59</ns3:cad>
          </ns3:TrackPointExtension>
        </extensions>
      </trkpt>
      <trkpt lat="44.7252492606639862060546875" lon="6.71651330776512622833251953125">
        <ele>2258.199951171875</ele>
        <time>2026-09-03T04:51:18.000Z</time>
        <extensions>
          <ns3:TrackPointExtension>
            <ns3:hr>88</ns3:hr>
            <ns3:cad>59</ns3:cad>
          </ns3:TrackPointExtension>
        </extensions>
      </trkpt>
      <trkpt lat="44.7252360172569751739501953125" lon="6.7165217734873294830322265625">
        <ele>2258</ele>
        <time>2026-09-03T04:51:19.000Z</time>
        <extensions>
          <ns3:TrackPointExtension>
            <ns3:hr>89</ns3:hr>
            <ns3:cad>59</ns3:cad>
          </ns3:TrackPointExtension>
        </extensions>
      </trkpt>
      <trkpt lat="44.725222103297710418701171875" lon="6.71653359197080135345458984375">
        <ele>2258</ele>
        <time>2026-09-03T04:51:20.000Z</time>
        <extensions>
          <ns3:TrackPointExtension>
            <ns3:hr>89</ns3:hr>
            <ns3:cad>59</ns3:cad>
          </ns3:TrackPointExtension>
        </extensions>
      </trkpt>
      <trkpt lat="44.72520693205296993255615234375" lon="6.7165479250252246856689453125">
        <ele>2258</ele>
        <time>2026-09-03T04:51:21.000Z</time>
        <extensions>
          <ns3:TrackPointExtension>
            <ns3:hr>89</ns3:hr>
            <ns3:cad>59</ns3:cad>
          </ns3:TrackPointExtension>
        </extensions>
      </trkpt>
      <trkpt lat="44.725193269550800323486328125" lon="6.71656049787998199462890625">
        <ele>2258</ele>
        <time>2026-09-03T04:51:22.000Z</time>
        <extensions>
          <ns3:TrackPointExtension>
            <ns3:hr>89</ns3:hr>
            <ns3:cad>70</ns3:cad>
          </ns3:TrackPointExtension>
        </extensions>
      </trkpt>
      <trkpt lat="44.7251800261437892913818359375" lon="6.71657265163958072662353515625">
        <ele>2258.199951171875</ele>
        <time>2026-09-03T04:51:23.000Z</time>
        <extensions>
          <ns3:TrackPointExtension>
            <ns3:hr>88</ns3:hr>
            <ns3:cad>70</ns3:cad>
          </ns3:TrackPointExtension>
        </extensions>
      </trkpt>
      <trkpt lat="44.7251662798225879669189453125" lon="6.716582961380481719970703125">
        <ele>2258.199951171875</ele>
        <time>2026-09-03T04:51:24.000Z</time>
        <extensions>
          <ns3:TrackPointExtension>
            <ns3:hr>89</ns3:hr>
            <ns3:cad>70</ns3:cad>
          </ns3:TrackPointExtension>
        </extensions>
      </trkpt>
      <trkpt lat="44.72515295259654521942138671875" lon="6.71659343875944614410400390625">
        <ele>2258.199951171875</ele>
        <time>2026-09-03T04:51:25.000Z</time>
        <extensions>
          <ns3:TrackPointExtension>
            <ns3:hr>89</ns3:hr>
            <ns3:cad>62</ns3:cad>
          </ns3:TrackPointExtension>
        </extensions>
      </trkpt>
      <trkpt lat="44.725141637027263641357421875" lon="6.71659938991069793701171875">
        <ele>2258.199951171875</ele>
        <time>2026-09-03T04:51:26.000Z</time>
        <extensions>
          <ns3:TrackPointExtension>
            <ns3:hr>88</ns3:hr>
            <ns3:cad>62</ns3:cad>
          </ns3:TrackPointExtension>
        </extensions>
      </trkpt>
      <trkpt lat="44.72513149492442607879638671875" lon="6.71660785563290119171142578125">
        <ele>2258</ele>
        <time>2026-09-03T04:51:27.000Z</time>
        <extensions>
          <ns3:TrackPointExtension>
            <ns3:hr>88</ns3:hr>
            <ns3:cad>62</ns3:cad>
          </ns3:TrackPointExtension>
        </extensions>
      </trkpt>
      <trkpt lat="44.72511674277484416961669921875" lon="6.7166173271834850311279296875">
        <ele>2258</ele>
        <time>2026-09-03T04:51:28.000Z</time>
        <extensions>
          <ns3:TrackPointExtension>
            <ns3:hr>87</ns3:hr>
            <ns3:cad>62</ns3:cad>
          </ns3:TrackPointExtension>
        </extensions>
      </trkpt>
      <trkpt lat="44.725104086101055145263671875" lon="6.71662352979183197021484375">
        <ele>2258</ele>
        <time>2026-09-03T04:51:29.000Z</time>
        <extensions>
          <ns3:TrackPointExtension>
            <ns3:hr>86</ns3:hr>
            <ns3:cad>62</ns3:cad>
          </ns3:TrackPointExtension>
        </extensions>
      </trkpt>
      <trkpt lat="44.7250936925411224365234375" lon="6.71663023531436920166015625">
        <ele>2257.800048828125</ele>
        <time>2026-09-03T04:51:30.000Z</time>
        <extensions>
          <ns3:TrackPointExtension>
            <ns3:hr>86</ns3:hr>
            <ns3:cad>62</ns3:cad>
          </ns3:TrackPointExtension>
        </extensions>
      </trkpt>
      <trkpt lat="44.725082628428936004638671875" lon="6.716640628874301910400390625">
        <ele>2257.60009765625</ele>
        <time>2026-09-03T04:51:31.000Z</time>
        <extensions>
          <ns3:TrackPointExtension>
            <ns3:hr>86</ns3:hr>
            <ns3:cad>62</ns3:cad>
          </ns3:TrackPointExtension>
        </extensions>
      </trkpt>
      <trkpt lat="44.7250730730593204498291015625" lon="6.71665395610034465789794921875">
        <ele>2257.60009765625</ele>
        <time>2026-09-03T04:51:32.000Z</time>
        <extensions>
          <ns3:TrackPointExtension>
            <ns3:hr>86</ns3:hr>
            <ns3:cad>61</ns3:cad>
          </ns3:TrackPointExtension>
        </extensions>
      </trkpt>
      <trkpt lat="44.72506209276616573333740234375" lon="6.71666719950735569000244140625">
        <ele>2257.39990234375</ele>
        <time>2026-09-03T04:51:33.000Z</time>
        <extensions>
          <ns3:TrackPointExtension>
            <ns3:hr>85</ns3:hr>
            <ns3:cad>61</ns3:cad>
          </ns3:TrackPointExtension>
        </extensions>
      </trkpt>
      <trkpt lat="44.7250454127788543701171875" lon="6.716683208942413330078125">
        <ele>2257.39990234375</ele>
        <time>2026-09-03T04:51:34.000Z</time>
        <extensions>
          <ns3:TrackPointExtension>
            <ns3:hr>85</ns3:hr>
            <ns3:cad>61</ns3:cad>
          </ns3:TrackPointExtension>
        </extensions>
      </trkpt>
      <trkpt lat="44.7250331752002239227294921875" lon="6.71669905073940753936767578125">
        <ele>2257.39990234375</ele>
        <time>2026-09-03T04:51:35.000Z</time>
        <extensions>
          <ns3:TrackPointExtension>
            <ns3:hr>85</ns3:hr>
            <ns3:cad>64</ns3:cad>
          </ns3:TrackPointExtension>
        </extensions>
      </trkpt>
      <trkpt lat="44.7250241227447986602783203125" lon="6.71671397052705287933349609375">
        <ele>2257.39990234375</ele>
        <time>2026-09-03T04:51:36.000Z</time>
        <extensions>
          <ns3:TrackPointExtension>
            <ns3:hr>85</ns3:hr>
            <ns3:cad>64</ns3:cad>
          </ns3:TrackPointExtension>
        </extensions>
      </trkpt>
      <trkpt lat="44.72501817159354686737060546875" lon="6.7167328298091888427734375">
        <ele>2257.39990234375</ele>
        <time>2026-09-03T04:51:37.000Z</time>
        <extensions>
          <ns3:TrackPointExtension>
            <ns3:hr>85</ns3:hr>
            <ns3:cad>64</ns3:cad>
          </ns3:TrackPointExtension>
        </extensions>
      </trkpt>
      <trkpt lat="44.7250137291848659515380859375" lon="6.7167517729103565216064453125">
        <ele>2257.39990234375</ele>
        <time>2026-09-03T04:51:38.000Z</time>
        <extensions>
          <ns3:TrackPointExtension>
            <ns3:hr>85</ns3:hr>
            <ns3:cad>64</ns3:cad>
          </ns3:TrackPointExtension>
        </extensions>
      </trkpt>
      <trkpt lat="44.72501196898519992828369140625" lon="6.71677046455442905426025390625">
        <ele>2257.39990234375</ele>
        <time>2026-09-03T04:51:39.000Z</time>
        <extensions>
          <ns3:TrackPointExtension>
            <ns3:hr>84</ns3:hr>
            <ns3:cad>64</ns3:cad>
          </ns3:TrackPointExtension>
        </extensions>
      </trkpt>
      <trkpt lat="44.725011885166168212890625" lon="6.71678756363689899444580078125">
        <ele>2257.39990234375</ele>
        <time>2026-09-03T04:51:40.000Z</time>
        <extensions>
          <ns3:TrackPointExtension>
            <ns3:hr>84</ns3:hr>
            <ns3:cad>64</ns3:cad>
          </ns3:TrackPointExtension>
        </extensions>
      </trkpt>
      <trkpt lat="44.7250127233564853668212890625" lon="6.71680633910000324249267578125">
        <ele>2257.199951171875</ele>
        <time>2026-09-03T04:51:41.000Z</time>
        <extensions>
          <ns3:TrackPointExtension>
            <ns3:hr>84</ns3:hr>
            <ns3:cad>62</ns3:cad>
          </ns3:TrackPointExtension>
        </extensions>
      </trkpt>
      <trkpt lat="44.7250083647668361663818359375" lon="6.7168372683227062225341796875">
        <ele>2257.199951171875</ele>
        <time>2026-09-03T04:51:42.000Z</time>
        <extensions>
          <ns3:TrackPointExtension>
            <ns3:hr>84</ns3:hr>
            <ns3:cad>62</ns3:cad>
          </ns3:TrackPointExtension>
        </extensions>
      </trkpt>
      <trkpt lat="44.7250023297965526580810546875" lon="6.716864593327045440673828125">
        <ele>2257.199951171875</ele>
        <time>2026-09-03T04:51:43.000Z</time>
        <extensions>
          <ns3:TrackPointExtension>
            <ns3:hr>83</ns3:hr>
            <ns3:cad>62</ns3:cad>
          </ns3:TrackPointExtension>
        </extensions>
      </trkpt>
      <trkpt lat="44.7249986417591571807861328125" lon="6.71689040958881378173828125">
        <ele>2257</ele>
        <time>2026-09-03T04:51:44.000Z</time>
        <extensions>
          <ns3:TrackPointExtension>
            <ns3:hr>83</ns3:hr>
            <ns3:cad>62</ns3:cad>
          </ns3:TrackPointExtension>
        </extensions>
      </trkpt>
      <trkpt lat="44.72499084658920764923095703125" lon="6.71692150644958019256591796875">
        <ele>2256.800048828125</ele>
        <time>2026-09-03T04:51:45.000Z</time>
        <extensions>
          <ns3:TrackPointExtension>
            <ns3:hr>83</ns3:hr>
            <ns3:cad>62</ns3:cad>
          </ns3:TrackPointExtension>
        </extensions>
      </trkpt>
      <trkpt lat="44.7249859012663364410400390625" lon="6.716947071254253387451171875">
        <ele>2256.60009765625</ele>
        <time>2026-09-03T04:51:46.000Z</time>
        <extensions>
          <ns3:TrackPointExtension>
            <ns3:hr>82</ns3:hr>
            <ns3:cad>62</ns3:cad>
          </ns3:TrackPointExtension>
        </extensions>
      </trkpt>
      <trkpt lat="44.7249832190573215484619140625" lon="6.716971881687641143798828125">
        <ele>2256.60009765625</ele>
        <time>2026-09-03T04:51:47.000Z</time>
        <extensions>
          <ns3:TrackPointExtension>
            <ns3:hr>82</ns3:hr>
            <ns3:cad>81</ns3:cad>
          </ns3:TrackPointExtension>
        </extensions>
      </trkpt>
      <trkpt lat="44.72497877664864063262939453125" lon="6.7169928364455699920654296875">
        <ele>2256.60009765625</ele>
        <time>2026-09-03T04:51:48.000Z</time>
        <extensions>
          <ns3:TrackPointExtension>
            <ns3:hr>82</ns3:hr>
            <ns3:cad>81</ns3:cad>
          </ns3:TrackPointExtension>
        </extensions>
      </trkpt>
      <trkpt lat="44.72497525624930858612060546875" lon="6.7170132882893085479736328125">
        <ele>2256.60009765625</ele>
        <time>2026-09-03T04:51:49.000Z</time>
        <extensions>
          <ns3:TrackPointExtension>
            <ns3:hr>82</ns3:hr>
            <ns3:cad>81</ns3:cad>
          </ns3:TrackPointExtension>
        </extensions>
      </trkpt>
      <trkpt lat="44.72495765425264835357666015625" lon="6.717023514211177825927734375">
        <ele>2256.800048828125</ele>
        <time>2026-09-03T04:51:50.000Z</time>
        <extensions>
          <ns3:TrackPointExtension>
            <ns3:hr>83</ns3:hr>
            <ns3:cad>80</ns3:cad>
          </ns3:TrackPointExtension>
        </extensions>
      </trkpt>
      <trkpt lat="44.72494960762560367584228515625" lon="6.71704321168363094329833984375">
        <ele>2256.800048828125</ele>
        <time>2026-09-03T04:51:51.000Z</time>
        <extensions>
          <ns3:TrackPointExtension>
            <ns3:hr>83</ns3:hr>
            <ns3:cad>80</ns3:cad>
          </ns3:TrackPointExtension>
        </extensions>
      </trkpt>
      <trkpt lat="44.72494147717952728271484375" lon="6.71706081368029117584228515625">
        <ele>2256.800048828125</ele>
        <time>2026-09-03T04:51:52.000Z</time>
        <extensions>
          <ns3:TrackPointExtension>
            <ns3:hr>83</ns3:hr>
            <ns3:cad>80</ns3:cad>
          </ns3:TrackPointExtension>
        </extensions>
      </trkpt>
      <trkpt lat="44.724933765828609466552734375" lon="6.7170692794024944305419921875">
        <ele>2256.800048828125</ele>
        <time>2026-09-03T04:51:53.000Z</time>
        <extensions>
          <ns3:TrackPointExtension>
            <ns3:hr>83</ns3:hr>
            <ns3:cad>60</ns3:cad>
          </ns3:TrackPointExtension>
        </extensions>
      </trkpt>
      <trkpt lat="44.72492965869605541229248046875" lon="6.7170843668282032012939453125">
        <ele>2256.60009765625</ele>
        <time>2026-09-03T04:51:54.000Z</time>
        <extensions>
          <ns3:TrackPointExtension>
            <ns3:hr>83</ns3:hr>
            <ns3:cad>60</ns3:cad>
          </ns3:TrackPointExtension>
        </extensions>
      </trkpt>
      <trkpt lat="44.7249272279441356658935546875" lon="6.7170967720448970794677734375">
        <ele>2256.39990234375</ele>
        <time>2026-09-03T04:51:55.000Z</time>
        <extensions>
          <ns3:TrackPointExtension>
            <ns3:hr>83</ns3:hr>
            <ns3:cad>60</ns3:cad>
          </ns3:TrackPointExtension>
        </extensions>
      </trkpt>
      <trkpt lat="44.72492429427802562713623046875" lon="6.717113368213176727294921875">
        <ele>2256.199951171875</ele>
        <time>2026-09-03T04:51:56.000Z</time>
        <extensions>
          <ns3:TrackPointExtension>
            <ns3:hr>83</ns3:hr>
            <ns3:cad>56</ns3:cad>
          </ns3:TrackPointExtension>
        </extensions>
      </trkpt>
      <trkpt lat="44.7249215282499790191650390625" lon="6.717126779258251190185546875">
        <ele>2256.199951171875</ele>
        <time>2026-09-03T04:51:57.000Z</time>
        <extensions>
          <ns3:TrackPointExtension>
            <ns3:hr>83</ns3:hr>
            <ns3:cad>56</ns3:cad>
          </ns3:TrackPointExtension>
        </extensions>
      </trkpt>
      <trkpt lat="44.72491331398487091064453125" lon="6.71713993884623050689697265625">
        <ele>2256</ele>
        <time>2026-09-03T04:51:58.000Z</time>
        <extensions>
          <ns3:TrackPointExtension>
            <ns3:hr>82</ns3:hr>
            <ns3:cad>56</ns3:cad>
          </ns3:TrackPointExtension>
        </extensions>
      </trkpt>
      <trkpt lat="44.72490602172911167144775390625" lon="6.7171527631580829620361328125">
        <ele>2256</ele>
        <time>2026-09-03T04:51:59.000Z</time>
        <extensions>
          <ns3:TrackPointExtension>
            <ns3:hr>82</ns3:hr>
            <ns3:cad>56</ns3:cad>
          </ns3:TrackPointExtension>
        </extensions>
      </trkpt>
      <trkpt lat="44.72490032203495502471923828125" lon="6.71716407872736454010009765625">
        <ele>2256</ele>
        <time>2026-09-03T04:52:00.000Z</time>
        <extensions>
          <ns3:TrackPointExtension>
            <ns3:hr>82</ns3:hr>
            <ns3:cad>55</ns3:cad>
          </ns3:TrackPointExtension>
        </extensions>
      </trkpt>
      <trkpt lat="44.724891185760498046875" lon="6.71718008816242218017578125">
        <ele>2255.800048828125</ele>
        <time>2026-09-03T04:52:01.000Z</time>
        <extensions>
          <ns3:TrackPointExtension>
            <ns3:hr>82</ns3:hr>
            <ns3:cad>0</ns3:cad>
          </ns3:TrackPointExtension>
        </extensions>
      </trkpt>
      <trkpt lat="44.72488037310540676116943359375" lon="6.71719911508262157440185546875">
        <ele>2255.800048828125</ele>
        <time>2026-09-03T04:52:02.000Z</time>
        <extensions>
          <ns3:TrackPointExtension>
            <ns3:hr>82</ns3:hr>
            <ns3:cad>0</ns3:cad>
          </ns3:TrackPointExtension>
        </extensions>
      </trkpt>
      <trkpt lat="44.7248685546219348907470703125" lon="6.71721956692636013031005859375">
        <ele>2255.60009765625</ele>
        <time>2026-09-03T04:52:03.000Z</time>
        <extensions>
          <ns3:TrackPointExtension>
            <ns3:hr>82</ns3:hr>
            <ns3:cad>0</ns3:cad>
          </ns3:TrackPointExtension>
        </extensions>
      </trkpt>
      <trkpt lat="44.72485338337719440460205078125" lon="6.7172352410852909088134765625">
        <ele>2255.39990234375</ele>
        <time>2026-09-03T04:52:04.000Z</time>
        <extensions>
          <ns3:TrackPointExtension>
            <ns3:hr>83</ns3:hr>
            <ns3:cad>0</ns3:cad>
          </ns3:TrackPointExtension>
        </extensions>
      </trkpt>
      <trkpt lat="44.72484047524631023406982421875" lon="6.717246808111667633056640625">
        <ele>2255.39990234375</ele>
        <time>2026-09-03T04:52:05.000Z</time>
        <extensions>
          <ns3:TrackPointExtension>
            <ns3:hr>84</ns3:hr>
            <ns3:cad>58</ns3:cad>
          </ns3:TrackPointExtension>
        </extensions>
      </trkpt>
      <trkpt lat="44.72483041696250438690185546875" lon="6.7172560282051563262939453125">
        <ele>2255.39990234375</ele>
        <time>2026-09-03T04:52:06.000Z</time>
        <extensions>
          <ns3:TrackPointExtension>
            <ns3:hr>86</ns3:hr>
            <ns3:cad>58</ns3:cad>
          </ns3:TrackPointExtension>
        </extensions>
      </trkpt>
      <trkpt lat="44.72482572309672832489013671875" lon="6.71726348809897899627685546875">
        <ele>2255.39990234375</ele>
        <time>2026-09-03T04:52:07.000Z</time>
        <extensions>
          <ns3:TrackPointExtension>
            <ns3:hr>87</ns3:hr>
            <ns3:cad>58</ns3:cad>
          </ns3:TrackPointExtension>
        </extensions>
      </trkpt>
      <trkpt lat="44.72481415607035160064697265625" lon="6.71727321110665798187255859375">
        <ele>2255.39990234375</ele>
        <time>2026-09-03T04:52:08.000Z</time>
        <extensions>
          <ns3:TrackPointExtension>
            <ns3:hr>88</ns3:hr>
            <ns3:cad>58</ns3:cad>
          </ns3:TrackPointExtension>
        </extensions>
      </trkpt>
      <trkpt lat="44.72480175085365772247314453125" lon="6.71727924607694149017333984375">
        <ele>2255.39990234375</ele>
        <time>2026-09-03T04:52:09.000Z</time>
        <extensions>
          <ns3:TrackPointExtension>
            <ns3:hr>89</ns3:hr>
            <ns3:cad>58</ns3:cad>
          </ns3:TrackPointExtension>
        </extensions>
      </trkpt>
      <trkpt lat="44.7247860766947269439697265625" lon="6.71729232184588909149169921875">
        <ele>2255.39990234375</ele>
        <time>2026-09-03T04:52:10.000Z</time>
        <extensions>
          <ns3:TrackPointExtension>
            <ns3:hr>90</ns3:hr>
            <ns3:cad>58</ns3:cad>
          </ns3:TrackPointExtension>
        </extensions>
      </trkpt>
      <trkpt lat="44.72477115690708160400390625" lon="6.71729953028261661529541015625">
        <ele>2255.39990234375</ele>
        <time>2026-09-03T04:52:11.000Z</time>
        <extensions>
          <ns3:TrackPointExtension>
            <ns3:hr>90</ns3:hr>
            <ns3:cad>58</ns3:cad>
          </ns3:TrackPointExtension>
        </extensions>
      </trkpt>
      <trkpt lat="44.72475782968103885650634765625" lon="6.71730338595807552337646484375">
        <ele>2255.199951171875</ele>
        <time>2026-09-03T04:52:12.000Z</time>
        <extensions>
          <ns3:TrackPointExtension>
            <ns3:hr>91</ns3:hr>
            <ns3:cad>58</ns3:cad>
          </ns3:TrackPointExtension>
        </extensions>
      </trkpt>
      <trkpt lat="44.7247423231601715087890625" lon="6.7173096723854541778564453125">
        <ele>2255</ele>
        <time>2026-09-03T04:52:13.000Z</time>
        <extensions>
          <ns3:TrackPointExtension>
            <ns3:hr>91</ns3:hr>
            <ns3:cad>60</ns3:cad>
          </ns3:TrackPointExtension>
        </extensions>
      </trkpt>
      <trkpt lat="44.72472866065800189971923828125" lon="6.71731688082218170166015625">
        <ele>2254.800048828125</ele>
        <time>2026-09-03T04:52:14.000Z</time>
        <extensions>
          <ns3:TrackPointExtension>
            <ns3:hr>91</ns3:hr>
            <ns3:cad>61</ns3:cad>
          </ns3:TrackPointExtension>
        </extensions>
      </trkpt>
      <trkpt lat="44.7247176803648471832275390625" lon="6.71732425689697265625">
        <ele>2254.60009765625</ele>
        <time>2026-09-03T04:52:15.000Z</time>
        <extensions>
          <ns3:TrackPointExtension>
            <ns3:hr>91</ns3:hr>
            <ns3:cad>61</ns3:cad>
          </ns3:TrackPointExtension>
        </extensions>
      </trkpt>
      <trkpt lat="44.724709801375865936279296875" lon="6.71733255498111248016357421875">
        <ele>2254.39990234375</ele>
        <time>2026-09-03T04:52:16.000Z</time>
        <extensions>
          <ns3:TrackPointExtension>
            <ns3:hr>91</ns3:hr>
            <ns3:cad>61</ns3:cad>
          </ns3:TrackPointExtension>
        </extensions>
      </trkpt>
      <trkpt lat="44.72469982691109180450439453125" lon="6.71734278090298175811767578125">
        <ele>2254.199951171875</ele>
        <time>2026-09-03T04:52:17.000Z</time>
        <extensions>
          <ns3:TrackPointExtension>
            <ns3:hr>91</ns3:hr>
            <ns3:cad>61</ns3:cad>
          </ns3:TrackPointExtension>
        </extensions>
      </trkpt>
      <trkpt lat="44.724688343703746795654296875" lon="6.7173552699387073516845703125">
        <ele>2254.199951171875</ele>
        <time>2026-09-03T04:52:18.000Z</time>
        <extensions>
          <ns3:TrackPointExtension>
            <ns3:hr>91</ns3:hr>
            <ns3:cad>61</ns3:cad>
          </ns3:TrackPointExtension>
        </extensions>
      </trkpt>
      <trkpt lat="44.72467937506735324859619140625" lon="6.71736658550798892974853515625">
        <ele>2254</ele>
        <time>2026-09-03T04:52:19.000Z</time>
        <extensions>
          <ns3:TrackPointExtension>
            <ns3:hr>91</ns3:hr>
            <ns3:cad>61</ns3:cad>
          </ns3:TrackPointExtension>
        </extensions>
      </trkpt>
      <trkpt lat="44.72466948442161083221435546875" lon="6.7173686809837818145751953125">
        <ele>2253.800048828125</ele>
        <time>2026-09-03T04:52:20.000Z</time>
        <extensions>
          <ns3:TrackPointExtension>
            <ns3:hr>92</ns3:hr>
            <ns3:cad>62</ns3:cad>
          </ns3:TrackPointExtension>
        </extensions>
      </trkpt>
      <trkpt lat="44.72465925849974155426025390625" lon="6.717372871935367584228515625">
        <ele>2253.800048828125</ele>
        <time>2026-09-03T04:52:21.000Z</time>
        <extensions>
          <ns3:TrackPointExtension>
            <ns3:hr>92</ns3:hr>
            <ns3:cad>62</ns3:cad>
          </ns3:TrackPointExtension>
        </extensions>
      </trkpt>
      <trkpt lat="44.72464769147336483001708984375" lon="6.71737714670598506927490234375">
        <ele>2253.60009765625</ele>
        <time>2026-09-03T04:52:22.000Z</time>
        <extensions>
          <ns3:TrackPointExtension>
            <ns3:hr>91</ns3:hr>
            <ns3:cad>61</ns3:cad>
          </ns3:TrackPointExtension>
        </extensions>
      </trkpt>
      <trkpt lat="44.7246385551989078521728515625" lon="6.71738267876207828521728515625">
        <ele>2253.39990234375</ele>
        <time>2026-09-03T04:52:23.000Z</time>
        <extensions>
          <ns3:TrackPointExtension>
            <ns3:hr>91</ns3:hr>
            <ns3:cad>61</ns3:cad>
          </ns3:TrackPointExtension>
        </extensions>
      </trkpt>
      <trkpt lat="44.72462371923029422760009765625" lon="6.717391647398471832275390625">
        <ele>2253.199951171875</ele>
        <time>2026-09-03T04:52:24.000Z</time>
        <extensions>
          <ns3:TrackPointExtension>
            <ns3:hr>91</ns3:hr>
            <ns3:cad>61</ns3:cad>
          </ns3:TrackPointExtension>
        </extensions>
      </trkpt>
      <trkpt lat="44.72460729070007801055908203125" lon="6.7174022085964679718017578125">
        <ele>2253</ele>
        <time>2026-09-03T04:52:25.000Z</time>
        <extensions>
          <ns3:TrackPointExtension>
            <ns3:hr>91</ns3:hr>
            <ns3:cad>61</ns3:cad>
          </ns3:TrackPointExtension>
        </extensions>
      </trkpt>
      <trkpt lat="44.724591113626956939697265625" lon="6.7174119316041469573974609375">
        <ele>2252.800048828125</ele>
        <time>2026-09-03T04:52:26.000Z</time>
        <extensions>
          <ns3:TrackPointExtension>
            <ns3:hr>91</ns3:hr>
            <ns3:cad>0</ns3:cad>
          </ns3:TrackPointExtension>
        </extensions>
      </trkpt>
      <trkpt lat="44.7245825640857219696044921875" lon="6.7174179665744304656982421875">
        <ele>2252.800048828125</ele>
        <time>2026-09-03T04:52:27.000Z</time>
        <extensions>
          <ns3:TrackPointExtension>
            <ns3:hr>91</ns3:hr>
            <ns3:cad>0</ns3:cad>
          </ns3:TrackPointExtension>
        </extensions>
      </trkpt>
      <trkpt lat="44.72457309253513813018798828125" lon="6.71741989441215991973876953125">
        <ele>2252.60009765625</ele>
        <time>2026-09-03T04:52:28.000Z</time>
        <extensions>
          <ns3:TrackPointExtension>
            <ns3:hr>91</ns3:hr>
            <ns3:cad>0</ns3:cad>
          </ns3:TrackPointExtension>
        </extensions>
      </trkpt>
      <trkpt lat="44.7245658002793788909912109375" lon="6.717419140040874481201171875">
        <ele>2252.60009765625</ele>
        <time>2026-09-03T04:52:29.000Z</time>
        <extensions>
          <ns3:TrackPointExtension>
            <ns3:hr>91</ns3:hr>
            <ns3:cad>0</ns3:cad>
          </ns3:TrackPointExtension>
        </extensions>
      </trkpt>
      <trkpt lat="44.7245517186820507049560546875" lon="6.71742014586925506591796875">
        <ele>2252.39990234375</ele>
        <time>2026-09-03T04:52:30.000Z</time>
        <extensions>
          <ns3:TrackPointExtension>
            <ns3:hr>91</ns3:hr>
            <ns3:cad>0</ns3:cad>
          </ns3:TrackPointExtension>
        </extensions>
      </trkpt>
      <trkpt lat="44.72453839145600795745849609375" lon="6.7174219898879528045654296875">
        <ele>2252</ele>
        <time>2026-09-03T04:52:31.000Z</time>
        <extensions>
          <ns3:TrackPointExtension>
            <ns3:hr>92</ns3:hr>
            <ns3:cad>0</ns3:cad>
          </ns3:TrackPointExtension>
        </extensions>
      </trkpt>
      <trkpt lat="44.724527411162853240966796875" lon="6.7174256779253482818603515625">
        <ele>2251.800048828125</ele>
        <time>2026-09-03T04:52:32.000Z</time>
        <extensions>
          <ns3:TrackPointExtension>
            <ns3:hr>91</ns3:hr>
            <ns3:cad>0</ns3:cad>
          </ns3:TrackPointExtension>
        </extensions>
      </trkpt>
      <trkpt lat="44.7245156764984130859375" lon="6.71743229962885379791259765625">
        <ele>2251.39990234375</ele>
        <time>2026-09-03T04:52:33.000Z</time>
        <extensions>
          <ns3:TrackPointExtension>
            <ns3:hr>91</ns3:hr>
            <ns3:cad>0</ns3:cad>
          </ns3:TrackPointExtension>
        </extensions>
      </trkpt>
      <trkpt lat="44.724502265453338623046875" lon="6.71742978505790233612060546875">
        <ele>2251.199951171875</ele>
        <time>2026-09-03T04:52:34.000Z</time>
        <extensions>
          <ns3:TrackPointExtension>
            <ns3:hr>91</ns3:hr>
            <ns3:cad>0</ns3:cad>
          </ns3:TrackPointExtension>
        </extensions>
      </trkpt>
      <trkpt lat="44.72448684275150299072265625" lon="6.717433221638202667236328125">
        <ele>2251</ele>
        <time>2026-09-03T04:52:35.000Z</time>
        <extensions>
          <ns3:TrackPointExtension>
            <ns3:hr>91</ns3:hr>
            <ns3:cad>0</ns3:cad>
          </ns3:TrackPointExtension>
        </extensions>
      </trkpt>
      <trkpt lat="44.7244796343147754669189453125" lon="6.71744017861783504486083984375">
        <ele>2250.800048828125</ele>
        <time>2026-09-03T04:52:36.000Z</time>
        <extensions>
          <ns3:TrackPointExtension>
            <ns3:hr>91</ns3:hr>
            <ns3:cad>0</ns3:cad>
          </ns3:TrackPointExtension>
        </extensions>
      </trkpt>
      <trkpt lat="44.7244739346206188201904296875" lon="6.7174414359033107757568359375">
        <ele>2250.60009765625</ele>
        <time>2026-09-03T04:52:37.000Z</time>
        <extensions>
          <ns3:TrackPointExtension>
            <ns3:hr>90</ns3:hr>
            <ns3:cad>0</ns3:cad>
          </ns3:TrackPointExtension>
        </extensions>
      </trkpt>
      <trkpt lat="44.72446261905133724212646484375" lon="6.7174461297690868377685546875">
        <ele>2250.39990234375</ele>
        <time>2026-09-03T04:52:38.000Z</time>
        <extensions>
          <ns3:TrackPointExtension>
            <ns3:hr>89</ns3:hr>
            <ns3:cad>62</ns3:cad>
          </ns3:TrackPointExtension>
        </extensions>
      </trkpt>
      <trkpt lat="44.72444904036819934844970703125" lon="6.71745409257709980010986328125">
        <ele>2250.199951171875</ele>
        <time>2026-09-03T04:52:39.000Z</time>
        <extensions>
          <ns3:TrackPointExtension>
            <ns3:hr>89</ns3:hr>
            <ns3:cad>62</ns3:cad>
          </ns3:TrackPointExtension>
        </extensions>
      </trkpt>
      <trkpt lat="44.72443629987537860870361328125" lon="6.71745912171900272369384765625">
        <ele>2250</ele>
        <time>2026-09-03T04:52:40.000Z</time>
        <extensions>
          <ns3:TrackPointExtension>
            <ns3:hr>88</ns3:hr>
            <ns3:cad>62</ns3:cad>
          </ns3:TrackPointExtension>
        </extensions>
      </trkpt>
      <trkpt lat="44.72442540340125560760498046875" lon="6.71745861880481243133544921875">
        <ele>2249.800048828125</ele>
        <time>2026-09-03T04:52:41.000Z</time>
        <extensions>
          <ns3:TrackPointExtension>
            <ns3:hr>88</ns3:hr>
            <ns3:cad>62</ns3:cad>
          </ns3:TrackPointExtension>
        </extensions>
      </trkpt>
      <trkpt lat="44.72441450692713260650634765625" lon="6.71746599487960338592529296875">
        <ele>2249.60009765625</ele>
        <time>2026-09-03T04:52:42.000Z</time>
        <extensions>
          <ns3:TrackPointExtension>
            <ns3:hr>88</ns3:hr>
            <ns3:cad>62</ns3:cad>
          </ns3:TrackPointExtension>
        </extensions>
      </trkpt>
      <trkpt lat="44.72440528683364391326904296875" lon="6.71747705899178981781005859375">
        <ele>2249.39990234375</ele>
        <time>2026-09-03T04:52:43.000Z</time>
        <extensions>
          <ns3:TrackPointExtension>
            <ns3:hr>88</ns3:hr>
            <ns3:cad>62</ns3:cad>
          </ns3:TrackPointExtension>
        </extensions>
      </trkpt>
      <trkpt lat="44.724396653473377227783203125" lon="6.7174900509417057037353515625">
        <ele>2249</ele>
        <time>2026-09-03T04:52:44.000Z</time>
        <extensions>
          <ns3:TrackPointExtension>
            <ns3:hr>88</ns3:hr>
            <ns3:cad>62</ns3:cad>
          </ns3:TrackPointExtension>
        </extensions>
      </trkpt>
      <trkpt lat="44.72439003176987171173095703125" lon="6.71750195324420928955078125">
        <ele>2248.800048828125</ele>
        <time>2026-09-03T04:52:45.000Z</time>
        <extensions>
          <ns3:TrackPointExtension>
            <ns3:hr>87</ns3:hr>
            <ns3:cad>59</ns3:cad>
          </ns3:TrackPointExtension>
        </extensions>
      </trkpt>
      <trkpt lat="44.7243827395141124725341796875" lon="6.71751268208026885986328125">
        <ele>2248.60009765625</ele>
        <time>2026-09-03T04:52:46.000Z</time>
        <extensions>
          <ns3:TrackPointExtension>
            <ns3:hr>87</ns3:hr>
            <ns3:cad>59</ns3:cad>
          </ns3:TrackPointExtension>
        </extensions>
      </trkpt>
      <trkpt lat="44.72437611781060695648193359375" lon="6.71752617694437503814697265625">
        <ele>2248.39990234375</ele>
        <time>2026-09-03T04:52:47.000Z</time>
        <extensions>
          <ns3:TrackPointExtension>
            <ns3:hr>86</ns3:hr>
            <ns3:cad>62</ns3:cad>
          </ns3:TrackPointExtension>
        </extensions>
      </trkpt>
      <trkpt lat="44.72437016665935516357421875" lon="6.7175363190472126007080078125">
        <ele>2248.199951171875</ele>
        <time>2026-09-03T04:52:48.000Z</time>
        <extensions>
          <ns3:TrackPointExtension>
            <ns3:hr>86</ns3:hr>
            <ns3:cad>63</ns3:cad>
          </ns3:TrackPointExtension>
        </extensions>
      </trkpt>
      <trkpt lat="44.7243616171181201934814453125" lon="6.71754679642617702484130859375">
        <ele>2248</ele>
        <time>2026-09-03T04:52:49.000Z</time>
        <extensions>
          <ns3:TrackPointExtension>
            <ns3:hr>85</ns3:hr>
            <ns3:cad>63</ns3:cad>
          </ns3:TrackPointExtension>
        </extensions>
      </trkpt>
      <trkpt lat="44.72434468567371368408203125" lon="6.7175567708909511566162109375">
        <ele>2248</ele>
        <time>2026-09-03T04:52:50.000Z</time>
        <extensions>
          <ns3:TrackPointExtension>
            <ns3:hr>85</ns3:hr>
            <ns3:cad>61</ns3:cad>
          </ns3:TrackPointExtension>
        </extensions>
      </trkpt>
      <trkpt lat="44.72432884387671947479248046875" lon="6.71756054274737834930419921875">
        <ele>2247.800048828125</ele>
        <time>2026-09-03T04:52:51.000Z</time>
        <extensions>
          <ns3:TrackPointExtension>
            <ns3:hr>85</ns3:hr>
            <ns3:cad>61</ns3:cad>
          </ns3:TrackPointExtension>
        </extensions>
      </trkpt>
      <trkpt lat="44.7243130020797252655029296875" lon="6.71756607480347156524658203125">
        <ele>2247.60009765625</ele>
        <time>2026-09-03T04:52:52.000Z</time>
        <extensions>
          <ns3:TrackPointExtension>
            <ns3:hr>85</ns3:hr>
            <ns3:cad>61</ns3:cad>
          </ns3:TrackPointExtension>
        </extensions>
      </trkpt>
      <trkpt lat="44.72429481334984302520751953125" lon="6.71757495962083339691162109375">
        <ele>2247.39990234375</ele>
        <time>2026-09-03T04:52:53.000Z</time>
        <extensions>
          <ns3:TrackPointExtension>
            <ns3:hr>84</ns3:hr>
            <ns3:cad>64</ns3:cad>
          </ns3:TrackPointExtension>
        </extensions>
      </trkpt>
      <trkpt lat="44.724279977381229400634765625" lon="6.7175802402198314666748046875">
        <ele>2247.39990234375</ele>
        <time>2026-09-03T04:52:54.000Z</time>
        <extensions>
          <ns3:TrackPointExtension>
            <ns3:hr>83</ns3:hr>
            <ns3:cad>64</ns3:cad>
          </ns3:TrackPointExtension>
        </extensions>
      </trkpt>
      <trkpt lat="44.724265895783901214599609375" lon="6.71758510172367095947265625">
        <ele>2247.39990234375</ele>
        <time>2026-09-03T04:52:55.000Z</time>
        <extensions>
          <ns3:TrackPointExtension>
            <ns3:hr>83</ns3:hr>
            <ns3:cad>64</ns3:cad>
          </ns3:TrackPointExtension>
        </extensions>
      </trkpt>
      <trkpt lat="44.72425089217722415924072265625" lon="6.71759105287492275238037109375">
        <ele>2247.39990234375</ele>
        <time>2026-09-03T04:52:56.000Z</time>
        <extensions>
          <ns3:TrackPointExtension>
            <ns3:hr>83</ns3:hr>
            <ns3:cad>64</ns3:cad>
          </ns3:TrackPointExtension>
        </extensions>
      </trkpt>
      <trkpt lat="44.72423546947538852691650390625" lon="6.717596836388111114501953125">
        <ele>2247.39990234375</ele>
        <time>2026-09-03T04:52:57.000Z</time>
        <extensions>
          <ns3:TrackPointExtension>
            <ns3:hr>82</ns3:hr>
            <ns3:cad>64</ns3:cad>
          </ns3:TrackPointExtension>
        </extensions>
      </trkpt>
      <trkpt lat="44.72422272898256778717041015625" lon="6.7176037095487117767333984375">
        <ele>2247.39990234375</ele>
        <time>2026-09-03T04:52:58.000Z</time>
        <extensions>
          <ns3:TrackPointExtension>
            <ns3:hr>82</ns3:hr>
            <ns3:cad>63</ns3:cad>
          </ns3:TrackPointExtension>
        </extensions>
      </trkpt>
      <trkpt lat="44.72421116195619106292724609375" lon="6.71760932542383670806884765625">
        <ele>2247.39990234375</ele>
        <time>2026-09-03T04:52:59.000Z</time>
        <extensions>
          <ns3:TrackPointExtension>
            <ns3:hr>82</ns3:hr>
            <ns3:cad>63</ns3:cad>
          </ns3:TrackPointExtension>
        </extensions>
      </trkpt>
      <trkpt lat="44.72419850528240203857421875" lon="6.7176161147654056549072265625">
        <ele>2247.39990234375</ele>
        <time>2026-09-03T04:53:00.000Z</time>
        <extensions>
          <ns3:TrackPointExtension>
            <ns3:hr>82</ns3:hr>
            <ns3:cad>63</ns3:cad>
          </ns3:TrackPointExtension>
        </extensions>
      </trkpt>
      <trkpt lat="44.724185764789581298828125" lon="6.717620305716991424560546875">
        <ele>2247.39990234375</ele>
        <time>2026-09-03T04:53:01.000Z</time>
        <extensions>
          <ns3:TrackPointExtension>
            <ns3:hr>82</ns3:hr>
            <ns3:cad>63</ns3:cad>
          </ns3:TrackPointExtension>
        </extensions>
      </trkpt>
      <trkpt lat="44.72417302429676055908203125" lon="6.7176268436014652252197265625">
        <ele>2247.39990234375</ele>
        <time>2026-09-03T04:53:02.000Z</time>
        <extensions>
          <ns3:TrackPointExtension>
            <ns3:hr>81</ns3:hr>
            <ns3:cad>63</ns3:cad>
          </ns3:TrackPointExtension>
        </extensions>
      </trkpt>
      <trkpt lat="44.7241607867181301116943359375" lon="6.7176352255046367645263671875">
        <ele>2247.39990234375</ele>
        <time>2026-09-03T04:53:03.000Z</time>
        <extensions>
          <ns3:TrackPointExtension>
            <ns3:hr>81</ns3:hr>
            <ns3:cad>59</ns3:cad>
          </ns3:TrackPointExtension>
        </extensions>
      </trkpt>
      <trkpt lat="44.72414947114884853363037109375" lon="6.717641092836856842041015625">
        <ele>2247.199951171875</ele>
        <time>2026-09-03T04:53:04.000Z</time>
        <extensions>
          <ns3:TrackPointExtension>
            <ns3:hr>81</ns3:hr>
            <ns3:cad>59</ns3:cad>
          </ns3:TrackPointExtension>
        </extensions>
      </trkpt>
      <trkpt lat="44.724139161407947540283203125" lon="6.71764670871198177337646484375">
        <ele>2247.199951171875</ele>
        <time>2026-09-03T04:53:05.000Z</time>
        <extensions>
          <ns3:TrackPointExtension>
            <ns3:hr>81</ns3:hr>
            <ns3:cad>60</ns3:cad>
          </ns3:TrackPointExtension>
        </extensions>
      </trkpt>
      <trkpt lat="44.724125750362873077392578125" lon="6.71765022911131381988525390625">
        <ele>2247</ele>
        <time>2026-09-03T04:53:06.000Z</time>
        <extensions>
          <ns3:TrackPointExtension>
            <ns3:hr>82</ns3:hr>
            <ns3:cad>60</ns3:cad>
          </ns3:TrackPointExtension>
        </extensions>
      </trkpt>
      <trkpt lat="44.7241135127842426300048828125" lon="6.71765458770096302032470703125">
        <ele>2246.800048828125</ele>
        <time>2026-09-03T04:53:07.000Z</time>
        <extensions>
          <ns3:TrackPointExtension>
            <ns3:hr>82</ns3:hr>
            <ns3:cad>60</ns3:cad>
          </ns3:TrackPointExtension>
        </extensions>
      </trkpt>
      <trkpt lat="44.724098928272724151611328125" lon="6.7176603712141513824462890625">
        <ele>2246.60009765625</ele>
        <time>2026-09-03T04:53:08.000Z</time>
        <extensions>
          <ns3:TrackPointExtension>
            <ns3:hr>82</ns3:hr>
            <ns3:cad>60</ns3:cad>
          </ns3:TrackPointExtension>
        </extensions>
      </trkpt>
      <trkpt lat="44.72408308647572994232177734375" lon="6.71766112558543682098388671875">
        <ele>2246.39990234375</ele>
        <time>2026-09-03T04:53:09.000Z</time>
        <extensions>
          <ns3:TrackPointExtension>
            <ns3:hr>82</ns3:hr>
            <ns3:cad>60</ns3:cad>
          </ns3:TrackPointExtension>
        </extensions>
      </trkpt>
      <trkpt lat="44.72406716085970401763916015625" lon="6.71766900457441806793212890625">
        <ele>2246.39990234375</ele>
        <time>2026-09-03T04:53:10.000Z</time>
        <extensions>
          <ns3:TrackPointExtension>
            <ns3:hr>82</ns3:hr>
            <ns3:cad>60</ns3:cad>
          </ns3:TrackPointExtension>
        </extensions>
      </trkpt>
      <trkpt lat="44.72405525855720043182373046875" lon="6.71768727712333202362060546875">
        <ele>2246.199951171875</ele>
        <time>2026-09-03T04:53:11.000Z</time>
        <extensions>
          <ns3:TrackPointExtension>
            <ns3:hr>82</ns3:hr>
            <ns3:cad>60</ns3:cad>
          </ns3:TrackPointExtension>
        </extensions>
      </trkpt>
      <trkpt lat="44.72404201515018939971923828125" lon="6.71770605258643627166748046875">
        <ele>2246</ele>
        <time>2026-09-03T04:53:12.000Z</time>
        <extensions>
          <ns3:TrackPointExtension>
            <ns3:hr>82</ns3:hr>
            <ns3:cad>60</ns3:cad>
          </ns3:TrackPointExtension>
        </extensions>
      </trkpt>
      <trkpt lat="44.724033214151859283447265625" lon="6.7177244089543819427490234375">
        <ele>2245.800048828125</ele>
        <time>2026-09-03T04:53:13.000Z</time>
        <extensions>
          <ns3:TrackPointExtension>
            <ns3:hr>82</ns3:hr>
            <ns3:cad>60</ns3:cad>
          </ns3:TrackPointExtension>
        </extensions>
      </trkpt>
      <trkpt lat="44.72402910701930522918701171875" lon="6.7177445255219936370849609375">
        <ele>2245.60009765625</ele>
        <time>2026-09-03T04:53:14.000Z</time>
        <extensions>
          <ns3:TrackPointExtension>
            <ns3:hr>83</ns3:hr>
            <ns3:cad>0</ns3:cad>
          </ns3:TrackPointExtension>
        </extensions>
      </trkpt>
      <trkpt lat="44.72401938401162624359130859375" lon="6.71775651164352893829345703125">
        <ele>2245.60009765625</ele>
        <time>2026-09-03T04:53:15.000Z</time>
        <extensions>
          <ns3:TrackPointExtension>
            <ns3:hr>83</ns3:hr>
            <ns3:cad>0</ns3:cad>
          </ns3:TrackPointExtension>
        </extensions>
      </trkpt>
      <trkpt lat="44.7240065596997737884521484375" lon="6.7177757062017917633056640625">
        <ele>2245.60009765625</ele>
        <time>2026-09-03T04:53:16.000Z</time>
        <extensions>
          <ns3:TrackPointExtension>
            <ns3:hr>84</ns3:hr>
            <ns3:cad>0</ns3:cad>
          </ns3:TrackPointExtension>
        </extensions>
      </trkpt>
      <trkpt lat="44.72399222664535045623779296875" lon="6.71779808588325977325439453125">
        <ele>2245.39990234375</ele>
        <time>2026-09-03T04:53:17.000Z</time>
        <extensions>
          <ns3:TrackPointExtension>
            <ns3:hr>83</ns3:hr>
            <ns3:cad>0</ns3:cad>
          </ns3:TrackPointExtension>
        </extensions>
      </trkpt>
      <trkpt lat="44.7239760495722293853759765625" lon="6.71781920827925205230712890625">
        <ele>2245.199951171875</ele>
        <time>2026-09-03T04:53:18.000Z</time>
        <extensions>
          <ns3:TrackPointExtension>
            <ns3:hr>83</ns3:hr>
            <ns3:cad>0</ns3:cad>
          </ns3:TrackPointExtension>
        </extensions>
      </trkpt>
      <trkpt lat="44.72395819611847400665283203125" lon="6.71783530153334140777587890625">
        <ele>2245</ele>
        <time>2026-09-03T04:53:19.000Z</time>
        <extensions>
          <ns3:TrackPointExtension>
            <ns3:hr>83</ns3:hr>
            <ns3:cad>81</ns3:cad>
          </ns3:TrackPointExtension>
        </extensions>
      </trkpt>
      <trkpt lat="44.7239425219595432281494140625" lon="6.717851646244525909423828125">
        <ele>2244.800048828125</ele>
        <time>2026-09-03T04:53:20.000Z</time>
        <extensions>
          <ns3:TrackPointExtension>
            <ns3:hr>83</ns3:hr>
            <ns3:cad>83</ns3:cad>
          </ns3:TrackPointExtension>
        </extensions>
      </trkpt>
      <trkpt lat="44.7239269316196441650390625" lon="6.71786405146121978759765625">
        <ele>2244.39990234375</ele>
        <time>2026-09-03T04:53:21.000Z</time>
        <extensions>
          <ns3:TrackPointExtension>
            <ns3:hr>83</ns3:hr>
            <ns3:cad>83</ns3:cad>
          </ns3:TrackPointExtension>
        </extensions>
      </trkpt>
      <trkpt lat="44.723901450634002685546875" lon="6.71787821687757968902587890625">
        <ele>2244.199951171875</ele>
        <time>2026-09-03T04:53:22.000Z</time>
        <extensions>
          <ns3:TrackPointExtension>
            <ns3:hr>83</ns3:hr>
            <ns3:cad>81</ns3:cad>
          </ns3:TrackPointExtension>
        </extensions>
      </trkpt>
      <trkpt lat="44.7238885425031185150146484375" lon="6.71788944862782955169677734375">
        <ele>2244.199951171875</ele>
        <time>2026-09-03T04:53:23.000Z</time>
        <extensions>
          <ns3:TrackPointExtension>
            <ns3:hr>83</ns3:hr>
            <ns3:cad>80</ns3:cad>
          </ns3:TrackPointExtension>
        </extensions>
      </trkpt>
      <trkpt lat="44.72386817447841167449951171875" lon="6.71790420077741146087646484375">
        <ele>2244</ele>
        <time>2026-09-03T04:53:24.000Z</time>
        <extensions>
          <ns3:TrackPointExtension>
            <ns3:hr>82</ns3:hr>
            <ns3:cad>80</ns3:cad>
          </ns3:TrackPointExtension>
        </extensions>
      </trkpt>
      <trkpt lat="44.72385509870946407318115234375" lon="6.717910654842853546142578125">
        <ele>2244</ele>
        <time>2026-09-03T04:53:25.000Z</time>
        <extensions>
          <ns3:TrackPointExtension>
            <ns3:hr>83</ns3:hr>
            <ns3:cad>80</ns3:cad>
          </ns3:TrackPointExtension>
        </extensions>
      </trkpt>
      <trkpt lat="44.7238348983228206634521484375" lon="6.71791442669928073883056640625">
        <ele>2244</ele>
        <time>2026-09-03T04:53:26.000Z</time>
        <extensions>
          <ns3:TrackPointExtension>
            <ns3:hr>83</ns3:hr>
            <ns3:cad>80</ns3:cad>
          </ns3:TrackPointExtension>
        </extensions>
      </trkpt>
      <trkpt lat="44.72381670959293842315673828125" lon="6.71792565844953060150146484375">
        <ele>2244</ele>
        <time>2026-09-03T04:53:27.000Z</time>
        <extensions>
          <ns3:TrackPointExtension>
            <ns3:hr>83</ns3:hr>
            <ns3:cad>80</ns3:cad>
          </ns3:TrackPointExtension>
        </extensions>
      </trkpt>
      <trkpt lat="44.723805226385593414306640625" lon="6.71793504618108272552490234375">
        <ele>2244</ele>
        <time>2026-09-03T04:53:28.000Z</time>
        <extensions>
          <ns3:TrackPointExtension>
            <ns3:hr>83</ns3:hr>
            <ns3:cad>80</ns3:cad>
          </ns3:TrackPointExtension>
        </extensions>
      </trkpt>
      <trkpt lat="44.723796509206295013427734375" lon="6.71794527210295200347900390625">
        <ele>2243.800048828125</ele>
        <time>2026-09-03T04:53:29.000Z</time>
        <extensions>
          <ns3:TrackPointExtension>
            <ns3:hr>83</ns3:hr>
            <ns3:cad>80</ns3:cad>
          </ns3:TrackPointExtension>
        </extensions>
      </trkpt>
      <trkpt lat="44.72379080951213836669921875" lon="6.71795968897640705108642578125">
        <ele>2243.60009765625</ele>
        <time>2026-09-03T04:53:30.000Z</time>
        <extensions>
          <ns3:TrackPointExtension>
            <ns3:hr>84</ns3:hr>
            <ns3:cad>80</ns3:cad>
          </ns3:TrackPointExtension>
        </extensions>
      </trkpt>
      <trkpt lat="44.72378678619861602783203125" lon="6.717969663441181182861328125">
        <ele>2243.39990234375</ele>
        <time>2026-09-03T04:53:31.000Z</time>
        <extensions>
          <ns3:TrackPointExtension>
            <ns3:hr>84</ns3:hr>
            <ns3:cad>80</ns3:cad>
          </ns3:TrackPointExtension>
        </extensions>
      </trkpt>
      <trkpt lat="44.7237785719335079193115234375" lon="6.71797762624919414520263671875">
        <ele>2243.199951171875</ele>
        <time>2026-09-03T04:53:32.000Z</time>
        <extensions>
          <ns3:TrackPointExtension>
            <ns3:hr>84</ns3:hr>
            <ns3:cad>65</ns3:cad>
          </ns3:TrackPointExtension>
        </extensions>
      </trkpt>
      <trkpt lat="44.7237661667168140411376953125" lon="6.717986427247524261474609375">
        <ele>2243</ele>
        <time>2026-09-03T04:53:33.000Z</time>
        <extensions>
          <ns3:TrackPointExtension>
            <ns3:hr>84</ns3:hr>
            <ns3:cad>65</ns3:cad>
          </ns3:TrackPointExtension>
        </extensions>
      </trkpt>
      <trkpt lat="44.7237477265298366546630859375" lon="6.717992462217807769775390625">
        <ele>2242.800048828125</ele>
        <time>2026-09-03T04:53:34.000Z</time>
        <extensions>
          <ns3:TrackPointExtension>
            <ns3:hr>84</ns3:hr>
            <ns3:cad>65</ns3:cad>
          </ns3:TrackPointExtension>
        </extensions>
      </trkpt>
      <trkpt lat="44.723732471466064453125" lon="6.71799824573099613189697265625">
        <ele>2242.60009765625</ele>
        <time>2026-09-03T04:53:35.000Z</time>
        <extensions>
          <ns3:TrackPointExtension>
            <ns3:hr>85</ns3:hr>
            <ns3:cad>65</ns3:cad>
          </ns3:TrackPointExtension>
        </extensions>
      </trkpt>
      <trkpt lat="44.72371109761297702789306640625" lon="6.7180015146732330322265625">
        <ele>2242.39990234375</ele>
        <time>2026-09-03T04:53:36.000Z</time>
        <extensions>
          <ns3:TrackPointExtension>
            <ns3:hr>84</ns3:hr>
            <ns3:cad>0</ns3:cad>
          </ns3:TrackPointExtension>
        </extensions>
      </trkpt>
      <trkpt lat="44.72369232214987277984619140625" lon="6.71800528652966022491455078125">
        <ele>2242.199951171875</ele>
        <time>2026-09-03T04:53:37.000Z</time>
        <extensions>
          <ns3:TrackPointExtension>
            <ns3:hr>84</ns3:hr>
            <ns3:cad>0</ns3:cad>
          </ns3:TrackPointExtension>
        </extensions>
      </trkpt>
      <trkpt lat="44.72367220558226108551025390625" lon="6.718011237680912017822265625">
        <ele>2242.199951171875</ele>
        <time>2026-09-03T04:53:38.000Z</time>
        <extensions>
          <ns3:TrackPointExtension>
            <ns3:hr>84</ns3:hr>
            <ns3:cad>0</ns3:cad>
          </ns3:TrackPointExtension>
        </extensions>
      </trkpt>
      <trkpt lat="44.72365477122366428375244140625" lon="6.71801836229860782623291015625">
        <ele>2242</ele>
        <time>2026-09-03T04:53:39.000Z</time>
        <extensions>
          <ns3:TrackPointExtension>
            <ns3:hr>84</ns3:hr>
            <ns3:cad>0</ns3:cad>
          </ns3:TrackPointExtension>
        </extensions>
      </trkpt>
      <trkpt lat="44.72364169545471668243408203125" lon="6.71803244389593601226806640625">
        <ele>2241.800048828125</ele>
        <time>2026-09-03T04:53:40.000Z</time>
        <extensions>
          <ns3:TrackPointExtension>
            <ns3:hr>84</ns3:hr>
            <ns3:cad>64</ns3:cad>
          </ns3:TrackPointExtension>
        </extensions>
      </trkpt>
      <trkpt lat="44.7236293740570545196533203125" lon="6.71804451383650302886962890625">
        <ele>2241.60009765625</ele>
        <time>2026-09-03T04:53:41.000Z</time>
        <extensions>
          <ns3:TrackPointExtension>
            <ns3:hr>84</ns3:hr>
            <ns3:cad>64</ns3:cad>
          </ns3:TrackPointExtension>
        </extensions>
      </trkpt>
      <trkpt lat="44.7236144542694091796875" lon="6.718057505786418914794921875">
        <ele>2241.39990234375</ele>
        <time>2026-09-03T04:53:42.000Z</time>
        <extensions>
          <ns3:TrackPointExtension>
            <ns3:hr>85</ns3:hr>
            <ns3:cad>0</ns3:cad>
          </ns3:TrackPointExtension>
        </extensions>
      </trkpt>
      <trkpt lat="44.723603390157222747802734375" lon="6.71807552687823772430419921875">
        <ele>2241.199951171875</ele>
        <time>2026-09-03T04:53:43.000Z</time>
        <extensions>
          <ns3:TrackPointExtension>
            <ns3:hr>85</ns3:hr>
            <ns3:cad>0</ns3:cad>
          </ns3:TrackPointExtension>
        </extensions>
      </trkpt>
      <trkpt lat="44.72359140403568744659423828125" lon="6.71808977611362934112548828125">
        <ele>2241</ele>
        <time>2026-09-03T04:53:44.000Z</time>
        <extensions>
          <ns3:TrackPointExtension>
            <ns3:hr>85</ns3:hr>
            <ns3:cad>0</ns3:cad>
          </ns3:TrackPointExtension>
        </extensions>
      </trkpt>
      <trkpt lat="44.7235800884664058685302734375" lon="6.71810151077806949615478515625">
        <ele>2241</ele>
        <time>2026-09-03T04:53:45.000Z</time>
        <extensions>
          <ns3:TrackPointExtension>
            <ns3:hr>86</ns3:hr>
            <ns3:cad>60</ns3:cad>
          </ns3:TrackPointExtension>
        </extensions>
      </trkpt>
      <trkpt lat="44.723567180335521697998046875" lon="6.71810385771095752716064453125">
        <ele>2240.800048828125</ele>
        <time>2026-09-03T04:53:46.000Z</time>
        <extensions>
          <ns3:TrackPointExtension>
            <ns3:hr>86</ns3:hr>
            <ns3:cad>62</ns3:cad>
          </ns3:TrackPointExtension>
        </extensions>
      </trkpt>
      <trkpt lat="44.72355402074754238128662109375" lon="6.71810788102447986602783203125">
        <ele>2240.800048828125</ele>
        <time>2026-09-03T04:53:47.000Z</time>
        <extensions>
          <ns3:TrackPointExtension>
            <ns3:hr>86</ns3:hr>
            <ns3:cad>62</ns3:cad>
          </ns3:TrackPointExtension>
        </extensions>
      </trkpt>
      <trkpt lat="44.7235422022640705108642578125" lon="6.71811282634735107421875">
        <ele>2240.60009765625</ele>
        <time>2026-09-03T04:53:48.000Z</time>
        <extensions>
          <ns3:TrackPointExtension>
            <ns3:hr>86</ns3:hr>
            <ns3:cad>62</ns3:cad>
          </ns3:TrackPointExtension>
        </extensions>
      </trkpt>
      <trkpt lat="44.7235314734280109405517578125" lon="6.71812162734568119049072265625">
        <ele>2240.60009765625</ele>
        <time>2026-09-03T04:53:49.000Z</time>
        <extensions>
          <ns3:TrackPointExtension>
            <ns3:hr>86</ns3:hr>
            <ns3:cad>65</ns3:cad>
          </ns3:TrackPointExtension>
        </extensions>
      </trkpt>
      <trkpt lat="44.72351856529712677001953125" lon="6.71813118271529674530029296875">
        <ele>2240.39990234375</ele>
        <time>2026-09-03T04:53:50.000Z</time>
        <extensions>
          <ns3:TrackPointExtension>
            <ns3:hr>86</ns3:hr>
            <ns3:cad>65</ns3:cad>
          </ns3:TrackPointExtension>
        </extensions>
      </trkpt>
      <trkpt lat="44.7235049866139888763427734375" lon="6.71813889406621456146240234375">
        <ele>2240.39990234375</ele>
        <time>2026-09-03T04:53:51.000Z</time>
        <extensions>
          <ns3:TrackPointExtension>
            <ns3:hr>87</ns3:hr>
            <ns3:cad>65</ns3:cad>
          </ns3:TrackPointExtension>
        </extensions>
      </trkpt>
      <trkpt lat="44.723492749035358428955078125" lon="6.718144677579402923583984375">
        <ele>2240.199951171875</ele>
        <time>2026-09-03T04:53:52.000Z</time>
        <extensions>
          <ns3:TrackPointExtension>
            <ns3:hr>87</ns3:hr>
            <ns3:cad>65</ns3:cad>
          </ns3:TrackPointExtension>
        </extensions>
      </trkpt>
      <trkpt lat="44.72348176874220371246337890625" lon="6.71815532259643077850341796875">
        <ele>2240</ele>
        <time>2026-09-03T04:53:53.000Z</time>
        <extensions>
          <ns3:TrackPointExtension>
            <ns3:hr>87</ns3:hr>
            <ns3:cad>65</ns3:cad>
          </ns3:TrackPointExtension>
        </extensions>
      </trkpt>
      <trkpt lat="44.72347238101065158843994140625" lon="6.71816571615636348724365234375">
        <ele>2240</ele>
        <time>2026-09-03T04:53:54.000Z</time>
        <extensions>
          <ns3:TrackPointExtension>
            <ns3:hr>87</ns3:hr>
            <ns3:cad>62</ns3:cad>
          </ns3:TrackPointExtension>
        </extensions>
      </trkpt>
      <trkpt lat="44.72346265800297260284423828125" lon="6.71817828901112079620361328125">
        <ele>2239.800048828125</ele>
        <time>2026-09-03T04:53:55.000Z</time>
        <extensions>
          <ns3:TrackPointExtension>
            <ns3:hr>87</ns3:hr>
            <ns3:cad>62</ns3:cad>
          </ns3:TrackPointExtension>
        </extensions>
      </trkpt>
      <trkpt lat="44.72345285117626190185546875" lon="6.71819262206554412841796875">
        <ele>2239.60009765625</ele>
        <time>2026-09-03T04:53:56.000Z</time>
        <extensions>
          <ns3:TrackPointExtension>
            <ns3:hr>87</ns3:hr>
            <ns3:cad>62</ns3:cad>
          </ns3:TrackPointExtension>
        </extensions>
      </trkpt>
      <trkpt lat="44.7234468162059783935546875" lon="6.71820628456771373748779296875">
        <ele>2239.39990234375</ele>
        <time>2026-09-03T04:53:57.000Z</time>
        <extensions>
          <ns3:TrackPointExtension>
            <ns3:hr>87</ns3:hr>
            <ns3:cad>62</ns3:cad>
          </ns3:TrackPointExtension>
        </extensions>
      </trkpt>
      <trkpt lat="44.72344078123569488525390625" lon="6.71821936033666133880615234375">
        <ele>2239</ele>
        <time>2026-09-03T04:53:58.000Z</time>
        <extensions>
          <ns3:TrackPointExtension>
            <ns3:hr>88</ns3:hr>
            <ns3:cad>62</ns3:cad>
          </ns3:TrackPointExtension>
        </extensions>
      </trkpt>
      <trkpt lat="44.7234329022467136383056640625" lon="6.7182306759059429168701171875">
        <ele>2238.800048828125</ele>
        <time>2026-09-03T04:53:59.000Z</time>
        <extensions>
          <ns3:TrackPointExtension>
            <ns3:hr>87</ns3:hr>
            <ns3:cad>65</ns3:cad>
          </ns3:TrackPointExtension>
        </extensions>
      </trkpt>
      <trkpt lat="44.72341940738260746002197265625" lon="6.718243919312953948974609375">
        <ele>2238.60009765625</ele>
        <time>2026-09-03T04:54:00.000Z</time>
        <extensions>
          <ns3:TrackPointExtension>
            <ns3:hr>88</ns3:hr>
            <ns3:cad>66</ns3:cad>
          </ns3:TrackPointExtension>
        </extensions>
      </trkpt>
      <trkpt lat="44.72340934909880161285400390625" lon="6.718254648149013519287109375">
        <ele>2238.39990234375</ele>
        <time>2026-09-03T04:54:01.000Z</time>
        <extensions>
          <ns3:TrackPointExtension>
            <ns3:hr>88</ns3:hr>
            <ns3:cad>66</ns3:cad>
          </ns3:TrackPointExtension>
        </extensions>
      </trkpt>
      <trkpt lat="44.72339794971048831939697265625" lon="6.71826529316604137420654296875">
        <ele>2238.199951171875</ele>
        <time>2026-09-03T04:54:02.000Z</time>
        <extensions>
          <ns3:TrackPointExtension>
            <ns3:hr>88</ns3:hr>
            <ns3:cad>66</ns3:cad>
          </ns3:TrackPointExtension>
        </extensions>
      </trkpt>
      <trkpt lat="44.72338638268411159515380859375" lon="6.7182777822017669677734375">
        <ele>2238</ele>
        <time>2026-09-03T04:54:03.000Z</time>
        <extensions>
          <ns3:TrackPointExtension>
            <ns3:hr>87</ns3:hr>
            <ns3:cad>66</ns3:cad>
          </ns3:TrackPointExtension>
        </extensions>
      </trkpt>
      <trkpt lat="44.72337833605706691741943359375" lon="6.71829060651361942291259765625">
        <ele>2237.800048828125</ele>
        <time>2026-09-03T04:54:04.000Z</time>
        <extensions>
          <ns3:TrackPointExtension>
            <ns3:hr>88</ns3:hr>
            <ns3:cad>66</ns3:cad>
          </ns3:TrackPointExtension>
        </extensions>
      </trkpt>
      <trkpt lat="44.7233708761632442474365234375" lon="6.718305610120296478271484375">
        <ele>2237.60009765625</ele>
        <time>2026-09-03T04:54:05.000Z</time>
        <extensions>
          <ns3:TrackPointExtension>
            <ns3:hr>88</ns3:hr>
            <ns3:cad>66</ns3:cad>
          </ns3:TrackPointExtension>
        </extensions>
      </trkpt>
      <trkpt lat="44.72336274571716785430908203125" lon="6.718321032822132110595703125">
        <ele>2237.60009765625</ele>
        <time>2026-09-03T04:54:06.000Z</time>
        <extensions>
          <ns3:TrackPointExtension>
            <ns3:hr>88</ns3:hr>
            <ns3:cad>66</ns3:cad>
          </ns3:TrackPointExtension>
        </extensions>
      </trkpt>
      <trkpt lat="44.72335419617593288421630859375" lon="6.71833704225718975067138671875">
        <ele>2237.39990234375</ele>
        <time>2026-09-03T04:54:07.000Z</time>
        <extensions>
          <ns3:TrackPointExtension>
            <ns3:hr>87</ns3:hr>
            <ns3:cad>66</ns3:cad>
          </ns3:TrackPointExtension>
        </extensions>
      </trkpt>
      <trkpt lat="44.72334296442568302154541015625" lon="6.718351207673549652099609375">
        <ele>2237.39990234375</ele>
        <time>2026-09-03T04:54:08.000Z</time>
        <extensions>
          <ns3:TrackPointExtension>
            <ns3:hr>88</ns3:hr>
            <ns3:cad>64</ns3:cad>
          </ns3:TrackPointExtension>
        </extensions>
      </trkpt>
      <trkpt lat="44.723330475389957427978515625" lon="6.718363277614116668701171875">
        <ele>2237.199951171875</ele>
        <time>2026-09-03T04:54:09.000Z</time>
        <extensions>
          <ns3:TrackPointExtension>
            <ns3:hr>88</ns3:hr>
            <ns3:cad>63</ns3:cad>
          </ns3:TrackPointExtension>
        </extensions>
      </trkpt>
      <trkpt lat="44.72331362776458263397216796875" lon="6.7183654569089412689208984375">
        <ele>2237.199951171875</ele>
        <time>2026-09-03T04:54:10.000Z</time>
        <extensions>
          <ns3:TrackPointExtension>
            <ns3:hr>87</ns3:hr>
            <ns3:cad>62</ns3:cad>
          </ns3:TrackPointExtension>
        </extensions>
      </trkpt>
      <trkpt lat="44.7232991270720958709716796875" lon="6.71837341971695423126220703125">
        <ele>2237</ele>
        <time>2026-09-03T04:54:11.000Z</time>
        <extensions>
          <ns3:TrackPointExtension>
            <ns3:hr>88</ns3:hr>
            <ns3:cad>62</ns3:cad>
          </ns3:TrackPointExtension>
        </extensions>
      </trkpt>
      <trkpt lat="44.7232830338180065155029296875" lon="6.71837660484015941619873046875">
        <ele>2237</ele>
        <time>2026-09-03T04:54:12.000Z</time>
        <extensions>
          <ns3:TrackPointExtension>
            <ns3:hr>88</ns3:hr>
            <ns3:cad>62</ns3:cad>
          </ns3:TrackPointExtension>
        </extensions>
      </trkpt>
      <trkpt lat="44.72326937131583690643310546875" lon="6.71837341971695423126220703125">
        <ele>2237</ele>
        <time>2026-09-03T04:54:13.000Z</time>
        <extensions>
          <ns3:TrackPointExtension>
            <ns3:hr>87</ns3:hr>
            <ns3:cad>62</ns3:cad>
          </ns3:TrackPointExtension>
        </extensions>
      </trkpt>
      <trkpt lat="44.72325503826141357421875" lon="6.71837308444082736968994140625">
        <ele>2237</ele>
        <time>2026-09-03T04:54:14.000Z</time>
        <extensions>
          <ns3:TrackPointExtension>
            <ns3:hr>87</ns3:hr>
            <ns3:cad>62</ns3:cad>
          </ns3:TrackPointExtension>
        </extensions>
      </trkpt>
      <trkpt lat="44.72324053756892681121826171875" lon="6.7183684743940830230712890625">
        <ele>2236.800048828125</ele>
        <time>2026-09-03T04:54:15.000Z</time>
        <extensions>
          <ns3:TrackPointExtension>
            <ns3:hr>87</ns3:hr>
            <ns3:cad>62</ns3:cad>
          </ns3:TrackPointExtension>
        </extensions>
      </trkpt>
      <trkpt lat="44.7232263721525669097900390625" lon="6.71836386434733867645263671875">
        <ele>2236.800048828125</ele>
        <time>2026-09-03T04:54:16.000Z</time>
        <extensions>
          <ns3:TrackPointExtension>
            <ns3:hr>86</ns3:hr>
            <ns3:cad>63</ns3:cad>
          </ns3:TrackPointExtension>
        </extensions>
      </trkpt>
      <trkpt lat="44.7232126258313655853271484375" lon="6.7183627746999263763427734375">
        <ele>2236.60009765625</ele>
        <time>2026-09-03T04:54:17.000Z</time>
        <extensions>
          <ns3:TrackPointExtension>
            <ns3:hr>86</ns3:hr>
            <ns3:cad>63</ns3:cad>
          </ns3:TrackPointExtension>
        </extensions>
      </trkpt>
      <trkpt lat="44.72320080734789371490478515625" lon="6.718363948166370391845703125">
        <ele>2236.39990234375</ele>
        <time>2026-09-03T04:54:18.000Z</time>
        <extensions>
          <ns3:TrackPointExtension>
            <ns3:hr>85</ns3:hr>
            <ns3:cad>63</ns3:cad>
          </ns3:TrackPointExtension>
        </extensions>
      </trkpt>
      <trkpt lat="44.72319024614989757537841796875" lon="6.7183674685657024383544921875">
        <ele>2236.39990234375</ele>
        <time>2026-09-03T04:54:19.000Z</time>
        <extensions>
          <ns3:TrackPointExtension>
            <ns3:hr>84</ns3:hr>
            <ns3:cad>63</ns3:cad>
          </ns3:TrackPointExtension>
        </extensions>
      </trkpt>
      <trkpt lat="44.7231797687709331512451171875" lon="6.71837056986987590789794921875">
        <ele>2236.39990234375</ele>
        <time>2026-09-03T04:54:20.000Z</time>
        <extensions>
          <ns3:TrackPointExtension>
            <ns3:hr>84</ns3:hr>
            <ns3:cad>63</ns3:cad>
          </ns3:TrackPointExtension>
        </extensions>
      </trkpt>
      <trkpt lat="44.7231651842594146728515625" lon="6.71837643720209598541259765625">
        <ele>2236.39990234375</ele>
        <time>2026-09-03T04:54:21.000Z</time>
        <extensions>
          <ns3:TrackPointExtension>
            <ns3:hr>84</ns3:hr>
            <ns3:cad>63</ns3:cad>
          </ns3:TrackPointExtension>
        </extensions>
      </trkpt>
      <trkpt lat="44.7231472469866275787353515625" lon="6.718385405838489532470703125">
        <ele>2236.199951171875</ele>
        <time>2026-09-03T04:54:22.000Z</time>
        <extensions>
          <ns3:TrackPointExtension>
            <ns3:hr>84</ns3:hr>
            <ns3:cad>63</ns3:cad>
          </ns3:TrackPointExtension>
        </extensions>
      </trkpt>
      <trkpt lat="44.72312067635357379913330078125" lon="6.7183971405029296875">
        <ele>2236</ele>
        <time>2026-09-03T04:54:23.000Z</time>
        <extensions>
          <ns3:TrackPointExtension>
            <ns3:hr>85</ns3:hr>
            <ns3:cad>125</ns3:cad>
          </ns3:TrackPointExtension>
        </extensions>
      </trkpt>
      <trkpt lat="44.72309737466275691986083984375" lon="6.71840812079608440399169921875">
        <ele>2235.800048828125</ele>
        <time>2026-09-03T04:54:24.000Z</time>
        <extensions>
          <ns3:TrackPointExtension>
            <ns3:hr>84</ns3:hr>
            <ns3:cad>125</ns3:cad>
          </ns3:TrackPointExtension>
        </extensions>
      </trkpt>
      <trkpt lat="44.7230785153806209564208984375" lon="6.718419604003429412841796875">
        <ele>2235.60009765625</ele>
        <time>2026-09-03T04:54:25.000Z</time>
        <extensions>
          <ns3:TrackPointExtension>
            <ns3:hr>85</ns3:hr>
            <ns3:cad>0</ns3:cad>
          </ns3:TrackPointExtension>
        </extensions>
      </trkpt>
      <trkpt lat="44.72306569106876850128173828125" lon="6.7184306681156158447265625">
        <ele>2235.60009765625</ele>
        <time>2026-09-03T04:54:26.000Z</time>
        <extensions>
          <ns3:TrackPointExtension>
            <ns3:hr>85</ns3:hr>
            <ns3:cad>0</ns3:cad>
          </ns3:TrackPointExtension>
        </extensions>
      </trkpt>
      <trkpt lat="44.7230516932904720306396484375" lon="6.7184432409703731536865234375">
        <ele>2235.39990234375</ele>
        <time>2026-09-03T04:54:27.000Z</time>
        <extensions>
          <ns3:TrackPointExtension>
            <ns3:hr>85</ns3:hr>
            <ns3:cad>78</ns3:cad>
          </ns3:TrackPointExtension>
        </extensions>
      </trkpt>
      <trkpt lat="44.72303534857928752899169921875" lon="6.71845355071127414703369140625">
        <ele>2235.199951171875</ele>
        <time>2026-09-03T04:54:28.000Z</time>
        <extensions>
          <ns3:TrackPointExtension>
            <ns3:hr>85</ns3:hr>
            <ns3:cad>78</ns3:cad>
          </ns3:TrackPointExtension>
        </extensions>
      </trkpt>
      <trkpt lat="44.72301707603037357330322265625" lon="6.7184613458812236785888671875">
        <ele>2235</ele>
        <time>2026-09-03T04:54:29.000Z</time>
        <extensions>
          <ns3:TrackPointExtension>
            <ns3:hr>86</ns3:hr>
            <ns3:cad>68</ns3:cad>
          </ns3:TrackPointExtension>
        </extensions>
      </trkpt>
      <trkpt lat="44.72299947403371334075927734375" lon="6.7184667102992534637451171875">
        <ele>2234.800048828125</ele>
        <time>2026-09-03T04:54:30.000Z</time>
        <extensions>
          <ns3:TrackPointExtension>
            <ns3:hr>87</ns3:hr>
            <ns3:cad>68</ns3:cad>
          </ns3:TrackPointExtension>
        </extensions>
      </trkpt>
      <trkpt lat="44.72298220731317996978759765625" lon="6.71847148798406124114990234375">
        <ele>2234.60009765625</ele>
        <time>2026-09-03T04:54:31.000Z</time>
        <extensions>
          <ns3:TrackPointExtension>
            <ns3:hr>88</ns3:hr>
            <ns3:cad>72</ns3:cad>
          </ns3:TrackPointExtension>
        </extensions>
      </trkpt>
      <trkpt lat="44.7229779325425624847412109375" lon="6.7184811271727085113525390625">
        <ele>2234.39990234375</ele>
        <time>2026-09-03T04:54:32.000Z</time>
        <extensions>
          <ns3:TrackPointExtension>
            <ns3:hr>88</ns3:hr>
            <ns3:cad>72</ns3:cad>
          </ns3:TrackPointExtension>
        </extensions>
      </trkpt>
      <trkpt lat="44.72296376712620258331298828125" lon="6.71848406083881855010986328125">
        <ele>2234.39990234375</ele>
        <time>2026-09-03T04:54:33.000Z</time>
        <extensions>
          <ns3:TrackPointExtension>
            <ns3:hr>89</ns3:hr>
            <ns3:cad>72</ns3:cad>
          </ns3:TrackPointExtension>
        </extensions>
      </trkpt>
      <trkpt lat="44.7229427285492420196533203125" lon="6.7184764333069324493408203125">
        <ele>2234.199951171875</ele>
        <time>2026-09-03T04:54:34.000Z</time>
        <extensions>
          <ns3:TrackPointExtension>
            <ns3:hr>89</ns3:hr>
            <ns3:cad>72</ns3:cad>
          </ns3:TrackPointExtension>
        </extensions>
      </trkpt>
      <trkpt lat="44.7229279763996601104736328125" lon="6.71847182326018810272216796875">
        <ele>2234</ele>
        <time>2026-09-03T04:54:35.000Z</time>
        <extensions>
          <ns3:TrackPointExtension>
            <ns3:hr>90</ns3:hr>
            <ns3:cad>72</ns3:cad>
          </ns3:TrackPointExtension>
        </extensions>
      </trkpt>
      <trkpt lat="44.722914062440395355224609375" lon="6.71847534365952014923095703125">
        <ele>2233.60009765625</ele>
        <time>2026-09-03T04:54:36.000Z</time>
        <extensions>
          <ns3:TrackPointExtension>
            <ns3:hr>90</ns3:hr>
            <ns3:cad>72</ns3:cad>
          </ns3:TrackPointExtension>
        </extensions>
      </trkpt>
      <trkpt lat="44.7229018248617649078369140625" lon="6.71848238445818424224853515625">
        <ele>2233.199951171875</ele>
        <time>2026-09-03T04:54:37.000Z</time>
        <extensions>
          <ns3:TrackPointExtension>
            <ns3:hr>90</ns3:hr>
            <ns3:cad>75</ns3:cad>
          </ns3:TrackPointExtension>
        </extensions>
      </trkpt>
      <trkpt lat="44.72288816235959529876708984375" lon="6.71848640777170658111572265625">
        <ele>2232.800048828125</ele>
        <time>2026-09-03T04:54:38.000Z</time>
        <extensions>
          <ns3:TrackPointExtension>
            <ns3:hr>91</ns3:hr>
            <ns3:cad>75</ns3:cad>
          </ns3:TrackPointExtension>
        </extensions>
      </trkpt>
      <trkpt lat="44.7228689678013324737548828125" lon="6.7184928618371486663818359375">
        <ele>2232.39990234375</ele>
        <time>2026-09-03T04:54:39.000Z</time>
        <extensions>
          <ns3:TrackPointExtension>
            <ns3:hr>91</ns3:hr>
            <ns3:cad>75</ns3:cad>
          </ns3:TrackPointExtension>
        </extensions>
      </trkpt>
      <trkpt lat="44.7228525392711162567138671875" lon="6.718490682542324066162109375">
        <ele>2232</ele>
        <time>2026-09-03T04:54:40.000Z</time>
        <extensions>
          <ns3:TrackPointExtension>
            <ns3:hr>91</ns3:hr>
            <ns3:cad>66</ns3:cad>
          </ns3:TrackPointExtension>
        </extensions>
      </trkpt>
      <trkpt lat="44.72283669747412204742431640625" lon="6.71849261038005352020263671875">
        <ele>2231.60009765625</ele>
        <time>2026-09-03T04:54:41.000Z</time>
        <extensions>
          <ns3:TrackPointExtension>
            <ns3:hr>91</ns3:hr>
            <ns3:cad>66</ns3:cad>
          </ns3:TrackPointExtension>
        </extensions>
      </trkpt>
      <trkpt lat="44.72281842492520809173583984375" lon="6.71849646605551242828369140625">
        <ele>2231.39990234375</ele>
        <time>2026-09-03T04:54:42.000Z</time>
        <extensions>
          <ns3:TrackPointExtension>
            <ns3:hr>91</ns3:hr>
            <ns3:cad>77</ns3:cad>
          </ns3:TrackPointExtension>
        </extensions>
      </trkpt>
      <trkpt lat="44.72280241549015045166015625" lon="6.7184905149042606353759765625">
        <ele>2231.199951171875</ele>
        <time>2026-09-03T04:54:43.000Z</time>
        <extensions>
          <ns3:TrackPointExtension>
            <ns3:hr>92</ns3:hr>
            <ns3:cad>77</ns3:cad>
          </ns3:TrackPointExtension>
        </extensions>
      </trkpt>
      <trkpt lat="44.72278841771185398101806640625" lon="6.71848741360008716583251953125">
        <ele>2231</ele>
        <time>2026-09-03T04:54:44.000Z</time>
        <extensions>
          <ns3:TrackPointExtension>
            <ns3:hr>94</ns3:hr>
            <ns3:cad>77</ns3:cad>
          </ns3:TrackPointExtension>
        </extensions>
      </trkpt>
      <trkpt lat="44.72277701832354068756103515625" lon="6.71848942525684833526611328125">
        <ele>2230.800048828125</ele>
        <time>2026-09-03T04:54:45.000Z</time>
        <extensions>
          <ns3:TrackPointExtension>
            <ns3:hr>96</ns3:hr>
            <ns3:cad>77</ns3:cad>
          </ns3:TrackPointExtension>
        </extensions>
      </trkpt>
      <trkpt lat="44.72276377491652965545654296875" lon="6.718496717512607574462890625">
        <ele>2230.60009765625</ele>
        <time>2026-09-03T04:54:46.000Z</time>
        <extensions>
          <ns3:TrackPointExtension>
            <ns3:hr>96</ns3:hr>
            <ns3:cad>70</ns3:cad>
          </ns3:TrackPointExtension>
        </extensions>
      </trkpt>
      <trkpt lat="44.7227509506046772003173828125" lon="6.71849613077938556671142578125">
        <ele>2230.60009765625</ele>
        <time>2026-09-03T04:54:47.000Z</time>
        <extensions>
          <ns3:TrackPointExtension>
            <ns3:hr>96</ns3:hr>
            <ns3:cad>70</ns3:cad>
          </ns3:TrackPointExtension>
        </extensions>
      </trkpt>
      <trkpt lat="44.7227385453879833221435546875" lon="6.7184975557029247283935546875">
        <ele>2230.39990234375</ele>
        <time>2026-09-03T04:54:48.000Z</time>
        <extensions>
          <ns3:TrackPointExtension>
            <ns3:hr>96</ns3:hr>
            <ns3:cad>68</ns3:cad>
          </ns3:TrackPointExtension>
        </extensions>
      </trkpt>
      <trkpt lat="44.722730331122875213623046875" lon="6.71850535087287425994873046875">
        <ele>2230.199951171875</ele>
        <time>2026-09-03T04:54:49.000Z</time>
        <extensions>
          <ns3:TrackPointExtension>
            <ns3:hr>96</ns3:hr>
            <ns3:cad>68</ns3:cad>
          </ns3:TrackPointExtension>
        </extensions>
      </trkpt>
      <trkpt lat="44.7227160818874835968017578125" lon="6.71851004473865032196044921875">
        <ele>2229.800048828125</ele>
        <time>2026-09-03T04:54:50.000Z</time>
        <extensions>
          <ns3:TrackPointExtension>
            <ns3:hr>96</ns3:hr>
            <ns3:cad>68</ns3:cad>
          </ns3:TrackPointExtension>
        </extensions>
      </trkpt>
      <trkpt lat="44.7227053530514240264892578125" lon="6.718520186841487884521484375">
        <ele>2229.60009765625</ele>
        <time>2026-09-03T04:54:51.000Z</time>
        <extensions>
          <ns3:TrackPointExtension>
            <ns3:hr>95</ns3:hr>
            <ns3:cad>64</ns3:cad>
          </ns3:TrackPointExtension>
        </extensions>
      </trkpt>
      <trkpt lat="44.72269135527312755584716796875" lon="6.71853066422045230865478515625">
        <ele>2229.39990234375</ele>
        <time>2026-09-03T04:54:52.000Z</time>
        <extensions>
          <ns3:TrackPointExtension>
            <ns3:hr>95</ns3:hr>
            <ns3:cad>64</ns3:cad>
          </ns3:TrackPointExtension>
        </extensions>
      </trkpt>
      <trkpt lat="44.72267224453389644622802734375" lon="6.71854189597070217132568359375">
        <ele>2229</ele>
        <time>2026-09-03T04:54:53.000Z</time>
        <extensions>
          <ns3:TrackPointExtension>
            <ns3:hr>95</ns3:hr>
            <ns3:cad>64</ns3:cad>
          </ns3:TrackPointExtension>
        </extensions>
      </trkpt>
      <trkpt lat="44.72265648655593395233154296875" lon="6.71855228953063488006591796875">
        <ele>2228.800048828125</ele>
        <time>2026-09-03T04:54:54.000Z</time>
        <extensions>
          <ns3:TrackPointExtension>
            <ns3:hr>94</ns3:hr>
            <ns3:cad>66</ns3:cad>
          </ns3:TrackPointExtension>
        </extensions>
      </trkpt>
      <trkpt lat="44.72263888455927371978759765625" lon="6.71857039444148540496826171875">
        <ele>2228.39990234375</ele>
        <time>2026-09-03T04:54:55.000Z</time>
        <extensions>
          <ns3:TrackPointExtension>
            <ns3:hr>95</ns3:hr>
            <ns3:cad>66</ns3:cad>
          </ns3:TrackPointExtension>
        </extensions>
      </trkpt>
      <trkpt lat="44.72261860035359859466552734375" lon="6.7185917682945728302001953125">
        <ele>2228.199951171875</ele>
        <time>2026-09-03T04:54:56.000Z</time>
        <extensions>
          <ns3:TrackPointExtension>
            <ns3:hr>95</ns3:hr>
            <ns3:cad>75</ns3:cad>
          </ns3:TrackPointExtension>
        </extensions>
      </trkpt>
      <trkpt lat="44.72259999252855777740478515625" lon="6.71861180104315280914306640625">
        <ele>2228</ele>
        <time>2026-09-03T04:54:57.000Z</time>
        <extensions>
          <ns3:TrackPointExtension>
            <ns3:hr>94</ns3:hr>
            <ns3:cad>75</ns3:cad>
          </ns3:TrackPointExtension>
        </extensions>
      </trkpt>
      <trkpt lat="44.722592532634735107421875" lon="6.7186237871646881103515625">
        <ele>2227.60009765625</ele>
        <time>2026-09-03T04:54:58.000Z</time>
        <extensions>
          <ns3:TrackPointExtension>
            <ns3:hr>95</ns3:hr>
            <ns3:cad>75</ns3:cad>
          </ns3:TrackPointExtension>
        </extensions>
      </trkpt>
      <trkpt lat="44.722581468522548675537109375" lon="6.71863309107720851898193359375">
        <ele>2227.60009765625</ele>
        <time>2026-09-03T04:54:59.000Z</time>
        <extensions>
          <ns3:TrackPointExtension>
            <ns3:hr>95</ns3:hr>
            <ns3:cad>75</ns3:cad>
          </ns3:TrackPointExtension>
        </extensions>
      </trkpt>
      <trkpt lat="44.722570739686489105224609375" lon="6.7186417244374752044677734375">
        <ele>2227.39990234375</ele>
        <time>2026-09-03T04:55:00.000Z</time>
        <extensions>
          <ns3:TrackPointExtension>
            <ns3:hr>95</ns3:hr>
            <ns3:cad>74</ns3:cad>
          </ns3:TrackPointExtension>
        </extensions>
      </trkpt>
      <trkpt lat="44.7225615195930004119873046875" lon="6.71864859759807586669921875">
        <ele>2227.199951171875</ele>
        <time>2026-09-03T04:55:01.000Z</time>
        <extensions>
          <ns3:TrackPointExtension>
            <ns3:hr>95</ns3:hr>
            <ns3:cad>74</ns3:cad>
          </ns3:TrackPointExtension>
        </extensions>
      </trkpt>
      <trkpt lat="44.722548611462116241455078125" lon="6.718651615083217620849609375">
        <ele>2227.199951171875</ele>
        <time>2026-09-03T04:55:02.000Z</time>
        <extensions>
          <ns3:TrackPointExtension>
            <ns3:hr>95</ns3:hr>
            <ns3:cad>74</ns3:cad>
          </ns3:TrackPointExtension>
        </extensions>
      </trkpt>
      <trkpt lat="44.7225357033312320709228515625" lon="6.71865588985383510589599609375">
        <ele>2227</ele>
        <time>2026-09-03T04:55:03.000Z</time>
        <extensions>
          <ns3:TrackPointExtension>
            <ns3:hr>95</ns3:hr>
            <ns3:cad>0</ns3:cad>
          </ns3:TrackPointExtension>
        </extensions>
      </trkpt>
      <trkpt lat="44.7225229628384113311767578125" lon="6.71866066753864288330078125">
        <ele>2226.800048828125</ele>
        <time>2026-09-03T04:55:04.000Z</time>
        <extensions>
          <ns3:TrackPointExtension>
            <ns3:hr>95</ns3:hr>
            <ns3:cad>0</ns3:cad>
          </ns3:TrackPointExtension>
        </extensions>
      </trkpt>
      <trkpt lat="44.72250812686979770660400390625" lon="6.7186638526618480682373046875">
        <ele>2226.800048828125</ele>
        <time>2026-09-03T04:55:05.000Z</time>
        <extensions>
          <ns3:TrackPointExtension>
            <ns3:hr>95</ns3:hr>
            <ns3:cad>0</ns3:cad>
          </ns3:TrackPointExtension>
        </extensions>
      </trkpt>
      <trkpt lat="44.7224894352257251739501953125" lon="6.71866980381309986114501953125">
        <ele>2226.60009765625</ele>
        <time>2026-09-03T04:55:06.000Z</time>
        <extensions>
          <ns3:TrackPointExtension>
            <ns3:hr>95</ns3:hr>
            <ns3:cad>0</ns3:cad>
          </ns3:TrackPointExtension>
        </extensions>
      </trkpt>
      <trkpt lat="44.722473509609699249267578125" lon="6.71867407858371734619140625">
        <ele>2226.39990234375</ele>
        <time>2026-09-03T04:55:07.000Z</time>
        <extensions>
          <ns3:TrackPointExtension>
            <ns3:hr>95</ns3:hr>
            <ns3:cad>0</ns3:cad>
          </ns3:TrackPointExtension>
        </extensions>
      </trkpt>
      <trkpt lat="44.7224562428891658782958984375" lon="6.7186779342591762542724609375">
        <ele>2226.199951171875</ele>
        <time>2026-09-03T04:55:08.000Z</time>
        <extensions>
          <ns3:TrackPointExtension>
            <ns3:hr>95</ns3:hr>
            <ns3:cad>64</ns3:cad>
          </ns3:TrackPointExtension>
        </extensions>
      </trkpt>
      <trkpt lat="44.72243763506412506103515625" lon="6.71868480741977691650390625">
        <ele>2226</ele>
        <time>2026-09-03T04:55:09.000Z</time>
        <extensions>
          <ns3:TrackPointExtension>
            <ns3:hr>95</ns3:hr>
            <ns3:cad>64</ns3:cad>
          </ns3:TrackPointExtension>
        </extensions>
      </trkpt>
      <trkpt lat="44.72242112271487712860107421875" lon="6.7186950333416461944580078125">
        <ele>2225.800048828125</ele>
        <time>2026-09-03T04:55:10.000Z</time>
        <extensions>
          <ns3:TrackPointExtension>
            <ns3:hr>95</ns3:hr>
            <ns3:cad>64</ns3:cad>
          </ns3:TrackPointExtension>
        </extensions>
      </trkpt>
      <trkpt lat="44.7224025987088680267333984375" lon="6.7187064327299594879150390625">
        <ele>2225.60009765625</ele>
        <time>2026-09-03T04:55:11.000Z</time>
        <extensions>
          <ns3:TrackPointExtension>
            <ns3:hr>96</ns3:hr>
            <ns3:cad>64</ns3:cad>
          </ns3:TrackPointExtension>
        </extensions>
      </trkpt>
      <trkpt lat="44.722384996712207794189453125" lon="6.718716658651828765869140625">
        <ele>2225.39990234375</ele>
        <time>2026-09-03T04:55:12.000Z</time>
        <extensions>
          <ns3:TrackPointExtension>
            <ns3:hr>97</ns3:hr>
            <ns3:cad>64</ns3:cad>
          </ns3:TrackPointExtension>
        </extensions>
      </trkpt>
      <trkpt lat="44.72236923873424530029296875" lon="6.71872562728822231292724609375">
        <ele>2225.199951171875</ele>
        <time>2026-09-03T04:55:13.000Z</time>
        <extensions>
          <ns3:TrackPointExtension>
            <ns3:hr>98</ns3:hr>
            <ns3:cad>64</ns3:cad>
          </ns3:TrackPointExtension>
        </extensions>
      </trkpt>
      <trkpt lat="44.72234820015728473663330078125" lon="6.7187396250665187835693359375">
        <ele>2225</ele>
        <time>2026-09-03T04:55:14.000Z</time>
        <extensions>
          <ns3:TrackPointExtension>
            <ns3:hr>99</ns3:hr>
            <ns3:cad>79</ns3:cad>
          </ns3:TrackPointExtension>
        </extensions>
      </trkpt>
      <trkpt lat="44.72232657484710216522216796875" lon="6.7187537066638469696044921875">
        <ele>2224.60009765625</ele>
        <time>2026-09-03T04:55:15.000Z</time>
        <extensions>
          <ns3:TrackPointExtension>
            <ns3:hr>100</ns3:hr>
            <ns3:cad>79</ns3:cad>
          </ns3:TrackPointExtension>
        </extensions>
      </trkpt>
      <trkpt lat="44.722308218479156494140625" lon="6.71876686625182628631591796875">
        <ele>2224.39990234375</ele>
        <time>2026-09-03T04:55:16.000Z</time>
        <extensions>
          <ns3:TrackPointExtension>
            <ns3:hr>100</ns3:hr>
            <ns3:cad>79</ns3:cad>
          </ns3:TrackPointExtension>
        </extensions>
      </trkpt>
      <trkpt lat="44.722286760807037353515625" lon="6.7187835462391376495361328125">
        <ele>2224.199951171875</ele>
        <time>2026-09-03T04:55:17.000Z</time>
        <extensions>
          <ns3:TrackPointExtension>
            <ns3:hr>100</ns3:hr>
            <ns3:cad>79</ns3:cad>
          </ns3:TrackPointExtension>
        </extensions>
      </trkpt>
      <trkpt lat="44.72226387821137905120849609375" lon="6.7187954485416412353515625">
        <ele>2223.800048828125</ele>
        <time>2026-09-03T04:55:18.000Z</time>
        <extensions>
          <ns3:TrackPointExtension>
            <ns3:hr>100</ns3:hr>
            <ns3:cad>79</ns3:cad>
          </ns3:TrackPointExtension>
        </extensions>
      </trkpt>
      <trkpt lat="44.722252897918224334716796875" lon="6.71881028451025485992431640625">
        <ele>2223.39990234375</ele>
        <time>2026-09-03T04:55:19.000Z</time>
        <extensions>
          <ns3:TrackPointExtension>
            <ns3:hr>101</ns3:hr>
            <ns3:cad>79</ns3:cad>
          </ns3:TrackPointExtension>
        </extensions>
      </trkpt>
      <trkpt lat="44.72223135642707347869873046875" lon="6.71883165836334228515625">
        <ele>2223</ele>
        <time>2026-09-03T04:55:20.000Z</time>
        <extensions>
          <ns3:TrackPointExtension>
            <ns3:hr>101</ns3:hr>
            <ns3:cad>79</ns3:cad>
          </ns3:TrackPointExtension>
        </extensions>
      </trkpt>
      <trkpt lat="44.7222074680030345916748046875" lon="6.7188405431807041168212890625">
        <ele>2222.60009765625</ele>
        <time>2026-09-03T04:55:21.000Z</time>
        <extensions>
          <ns3:TrackPointExtension>
            <ns3:hr>102</ns3:hr>
            <ns3:cad>80</ns3:cad>
          </ns3:TrackPointExtension>
        </extensions>
      </trkpt>
      <trkpt lat="44.72219397313892841339111328125" lon="6.71885646879673004150390625">
        <ele>2222.199951171875</ele>
        <time>2026-09-03T04:55:22.000Z</time>
        <extensions>
          <ns3:TrackPointExtension>
            <ns3:hr>102</ns3:hr>
            <ns3:cad>82</ns3:cad>
          </ns3:TrackPointExtension>
        </extensions>
      </trkpt>
      <trkpt lat="44.72217251546680927276611328125" lon="6.71888194978237152099609375">
        <ele>2222</ele>
        <time>2026-09-03T04:55:23.000Z</time>
        <extensions>
          <ns3:TrackPointExtension>
            <ns3:hr>103</ns3:hr>
            <ns3:cad>82</ns3:cad>
          </ns3:TrackPointExtension>
        </extensions>
      </trkpt>
      <trkpt lat="44.722156338393688201904296875" lon="6.718897707760334014892578125">
        <ele>2221.800048828125</ele>
        <time>2026-09-03T04:55:24.000Z</time>
        <extensions>
          <ns3:TrackPointExtension>
            <ns3:hr>103</ns3:hr>
            <ns3:cad>81</ns3:cad>
          </ns3:TrackPointExtension>
        </extensions>
      </trkpt>
      <trkpt lat="44.722143597900867462158203125" lon="6.71892084181308746337890625">
        <ele>2221.60009765625</ele>
        <time>2026-09-03T04:55:25.000Z</time>
        <extensions>
          <ns3:TrackPointExtension>
            <ns3:hr>104</ns3:hr>
            <ns3:cad>81</ns3:cad>
          </ns3:TrackPointExtension>
        </extensions>
      </trkpt>
      <trkpt lat="44.72212825901806354522705078125" lon="6.71894825063645839691162109375">
        <ele>2221.60009765625</ele>
        <time>2026-09-03T04:55:26.000Z</time>
        <extensions>
          <ns3:TrackPointExtension>
            <ns3:hr>104</ns3:hr>
            <ns3:cad>81</ns3:cad>
          </ns3:TrackPointExtension>
        </extensions>
      </trkpt>
      <trkpt lat="44.72211451269686222076416015625" lon="6.71896803192794322967529296875">
        <ele>2221.39990234375</ele>
        <time>2026-09-03T04:55:27.000Z</time>
        <extensions>
          <ns3:TrackPointExtension>
            <ns3:hr>104</ns3:hr>
            <ns3:cad>81</ns3:cad>
          </ns3:TrackPointExtension>
        </extensions>
      </trkpt>
      <trkpt lat="44.72209640778601169586181640625" lon="6.718995608389377593994140625">
        <ele>2221.199951171875</ele>
        <time>2026-09-03T04:55:28.000Z</time>
        <extensions>
          <ns3:TrackPointExtension>
            <ns3:hr>104</ns3:hr>
            <ns3:cad>81</ns3:cad>
          </ns3:TrackPointExtension>
        </extensions>
      </trkpt>
      <trkpt lat="44.72207662649452686309814453125" lon="6.71901606023311614990234375">
        <ele>2220.800048828125</ele>
        <time>2026-09-03T04:55:29.000Z</time>
        <extensions>
          <ns3:TrackPointExtension>
            <ns3:hr>105</ns3:hr>
            <ns3:cad>81</ns3:cad>
          </ns3:TrackPointExtension>
        </extensions>
      </trkpt>
      <trkpt lat="44.72206556238234043121337890625" lon="6.71903559006750583648681640625">
        <ele>2220.60009765625</ele>
        <time>2026-09-03T04:55:30.000Z</time>
        <extensions>
          <ns3:TrackPointExtension>
            <ns3:hr>105</ns3:hr>
            <ns3:cad>81</ns3:cad>
          </ns3:TrackPointExtension>
        </extensions>
      </trkpt>
      <trkpt lat="44.7220480442047119140625" lon="6.719063334167003631591796875">
        <ele>2220.199951171875</ele>
        <time>2026-09-03T04:55:31.000Z</time>
        <extensions>
          <ns3:TrackPointExtension>
            <ns3:hr>106</ns3:hr>
            <ns3:cad>81</ns3:cad>
          </ns3:TrackPointExtension>
        </extensions>
      </trkpt>
      <trkpt lat="44.72203153185546398162841796875" lon="6.71908252872526645660400390625">
        <ele>2220</ele>
        <time>2026-09-03T04:55:32.000Z</time>
        <extensions>
          <ns3:TrackPointExtension>
            <ns3:hr>106</ns3:hr>
            <ns3:cad>81</ns3:cad>
          </ns3:TrackPointExtension>
        </extensions>
      </trkpt>
      <trkpt lat="44.7220294363796710968017578125" lon="6.7190973646938800811767578125">
        <ele>2219.60009765625</ele>
        <time>2026-09-03T04:55:33.000Z</time>
        <extensions>
          <ns3:TrackPointExtension>
            <ns3:hr>106</ns3:hr>
            <ns3:cad>81</ns3:cad>
          </ns3:TrackPointExtension>
        </extensions>
      </trkpt>
      <trkpt lat="44.722025580704212188720703125" lon="6.719112955033779144287109375">
        <ele>2219.60009765625</ele>
        <time>2026-09-03T04:55:34.000Z</time>
        <extensions>
          <ns3:TrackPointExtension>
            <ns3:hr>106</ns3:hr>
            <ns3:cad>81</ns3:cad>
          </ns3:TrackPointExtension>
        </extensions>
      </trkpt>
      <trkpt lat="44.72202382050454616546630859375" lon="6.71912929974496364593505859375">
        <ele>2219.39990234375</ele>
        <time>2026-09-03T04:55:35.000Z</time>
        <extensions>
          <ns3:TrackPointExtension>
            <ns3:hr>107</ns3:hr>
            <ns3:cad>81</ns3:cad>
          </ns3:TrackPointExtension>
        </extensions>
      </trkpt>
      <trkpt lat="44.72201946191489696502685546875" lon="6.71914212405681610107421875">
        <ele>2219.39990234375</ele>
        <time>2026-09-03T04:55:36.000Z</time>
        <extensions>
          <ns3:TrackPointExtension>
            <ns3:hr>107</ns3:hr>
            <ns3:cad>81</ns3:cad>
          </ns3:TrackPointExtension>
        </extensions>
      </trkpt>
      <trkpt lat="44.7220166958868503570556640625" lon="6.7191588878631591796875">
        <ele>2219.39990234375</ele>
        <time>2026-09-03T04:55:37.000Z</time>
        <extensions>
          <ns3:TrackPointExtension>
            <ns3:hr>107</ns3:hr>
            <ns3:cad>81</ns3:cad>
          </ns3:TrackPointExtension>
        </extensions>
      </trkpt>
      <trkpt lat="44.722011499106884002685546875" lon="6.71917657367885112762451171875">
        <ele>2219.199951171875</ele>
        <time>2026-09-03T04:55:38.000Z</time>
        <extensions>
          <ns3:TrackPointExtension>
            <ns3:hr>108</ns3:hr>
            <ns3:cad>81</ns3:cad>
          </ns3:TrackPointExtension>
        </extensions>
      </trkpt>
      <trkpt lat="44.722005464136600494384765625" lon="6.719196774065494537353515625">
        <ele>2219</ele>
        <time>2026-09-03T04:55:39.000Z</time>
        <extensions>
          <ns3:TrackPointExtension>
            <ns3:hr>107</ns3:hr>
            <ns3:cad>81</ns3:cad>
          </ns3:TrackPointExtension>
        </extensions>
      </trkpt>
      <trkpt lat="44.72199951298534870147705078125" lon="6.7192157171666622161865234375">
        <ele>2218.800048828125</ele>
        <time>2026-09-03T04:55:40.000Z</time>
        <extensions>
          <ns3:TrackPointExtension>
            <ns3:hr>107</ns3:hr>
            <ns3:cad>64</ns3:cad>
          </ns3:TrackPointExtension>
        </extensions>
      </trkpt>
      <trkpt lat="44.721991717815399169921875" lon="6.71924564056098461151123046875">
        <ele>2218.60009765625</ele>
        <time>2026-09-03T04:55:41.000Z</time>
        <extensions>
          <ns3:TrackPointExtension>
            <ns3:hr>108</ns3:hr>
            <ns3:cad>64</ns3:cad>
          </ns3:TrackPointExtension>
        </extensions>
      </trkpt>
      <trkpt lat="44.7219868563115596771240234375" lon="6.71927581541240215301513671875">
        <ele>2218</ele>
        <time>2026-09-03T04:55:42.000Z</time>
        <extensions>
          <ns3:TrackPointExtension>
            <ns3:hr>107</ns3:hr>
            <ns3:cad>64</ns3:cad>
          </ns3:TrackPointExtension>
        </extensions>
      </trkpt>
      <trkpt lat="44.72198526374995708465576171875" lon="6.719300709664821624755859375">
        <ele>2217.60009765625</ele>
        <time>2026-09-03T04:55:43.000Z</time>
        <extensions>
          <ns3:TrackPointExtension>
            <ns3:hr>107</ns3:hr>
            <ns3:cad>123</ns3:cad>
          </ns3:TrackPointExtension>
        </extensions>
      </trkpt>
      <trkpt lat="44.721976630389690399169921875" lon="6.7193384282290935516357421875">
        <ele>2217.199951171875</ele>
        <time>2026-09-03T04:55:44.000Z</time>
        <extensions>
          <ns3:TrackPointExtension>
            <ns3:hr>107</ns3:hr>
            <ns3:cad>123</ns3:cad>
          </ns3:TrackPointExtension>
        </extensions>
      </trkpt>
      <trkpt lat="44.72196347080171108245849609375" lon="6.71936206519603729248046875">
        <ele>2217</ele>
        <time>2026-09-03T04:55:45.000Z</time>
        <extensions>
          <ns3:TrackPointExtension>
            <ns3:hr>107</ns3:hr>
            <ns3:cad>80</ns3:cad>
          </ns3:TrackPointExtension>
        </extensions>
      </trkpt>
      <trkpt lat="44.72195408307015895843505859375" lon="6.7193935811519622802734375">
        <ele>2216.800048828125</ele>
        <time>2026-09-03T04:55:46.000Z</time>
        <extensions>
          <ns3:TrackPointExtension>
            <ns3:hr>107</ns3:hr>
            <ns3:cad>79</ns3:cad>
          </ns3:TrackPointExtension>
        </extensions>
      </trkpt>
      <trkpt lat="44.72194100730121135711669921875" lon="6.71943088062107563018798828125">
        <ele>2216.60009765625</ele>
        <time>2026-09-03T04:55:47.000Z</time>
        <extensions>
          <ns3:TrackPointExtension>
            <ns3:hr>107</ns3:hr>
            <ns3:cad>79</ns3:cad>
          </ns3:TrackPointExtension>
        </extensions>
      </trkpt>
      <trkpt lat="44.72193346358835697174072265625" lon="6.71945267356932163238525390625">
        <ele>2216.60009765625</ele>
        <time>2026-09-03T04:55:48.000Z</time>
        <extensions>
          <ns3:TrackPointExtension>
            <ns3:hr>107</ns3:hr>
            <ns3:cad>79</ns3:cad>
          </ns3:TrackPointExtension>
        </extensions>
      </trkpt>
      <trkpt lat="44.72192130982875823974609375" lon="6.71948251314461231231689453125">
        <ele>2216.60009765625</ele>
        <time>2026-09-03T04:55:49.000Z</time>
        <extensions>
          <ns3:TrackPointExtension>
            <ns3:hr>107</ns3:hr>
            <ns3:cad>80</ns3:cad>
          </ns3:TrackPointExtension>
        </extensions>
      </trkpt>
      <trkpt lat="44.72191032953560352325439453125" lon="6.7195157893002033233642578125">
        <ele>2216.39990234375</ele>
        <time>2026-09-03T04:55:50.000Z</time>
        <extensions>
          <ns3:TrackPointExtension>
            <ns3:hr>107</ns3:hr>
            <ns3:cad>81</ns3:cad>
          </ns3:TrackPointExtension>
        </extensions>
      </trkpt>
      <trkpt lat="44.72190521657466888427734375" lon="6.7195439524948596954345703125">
        <ele>2216</ele>
        <time>2026-09-03T04:55:51.000Z</time>
        <extensions>
          <ns3:TrackPointExtension>
            <ns3:hr>108</ns3:hr>
            <ns3:cad>81</ns3:cad>
          </ns3:TrackPointExtension>
        </extensions>
      </trkpt>
      <trkpt lat="44.72188618965446949005126953125" lon="6.7195737920701503753662109375">
        <ele>2215.800048828125</ele>
        <time>2026-09-03T04:55:52.000Z</time>
        <extensions>
          <ns3:TrackPointExtension>
            <ns3:hr>108</ns3:hr>
            <ns3:cad>81</ns3:cad>
          </ns3:TrackPointExtension>
        </extensions>
      </trkpt>
      <trkpt lat="44.7218752093613147735595703125" lon="6.71959734521806240081787109375">
        <ele>2215.60009765625</ele>
        <time>2026-09-03T04:55:53.000Z</time>
        <extensions>
          <ns3:TrackPointExtension>
            <ns3:hr>108</ns3:hr>
            <ns3:cad>81</ns3:cad>
          </ns3:TrackPointExtension>
        </extensions>
      </trkpt>
      <trkpt lat="44.72186858765780925750732421875" lon="6.7196217365562915802001953125">
        <ele>2215.199951171875</ele>
        <time>2026-09-03T04:55:54.000Z</time>
        <extensions>
          <ns3:TrackPointExtension>
            <ns3:hr>108</ns3:hr>
            <ns3:cad>81</ns3:cad>
          </ns3:TrackPointExtension>
        </extensions>
      </trkpt>
      <trkpt lat="44.7218493930995464324951171875" lon="6.7196599580347537994384765625">
        <ele>2215</ele>
        <time>2026-09-03T04:55:55.000Z</time>
        <extensions>
          <ns3:TrackPointExtension>
            <ns3:hr>109</ns3:hr>
            <ns3:cad>81</ns3:cad>
          </ns3:TrackPointExtension>
        </extensions>
      </trkpt>
      <trkpt lat="44.72183338366448879241943359375" lon="6.71967177651822566986083984375">
        <ele>2214.800048828125</ele>
        <time>2026-09-03T04:55:56.000Z</time>
        <extensions>
          <ns3:TrackPointExtension>
            <ns3:hr>109</ns3:hr>
            <ns3:cad>81</ns3:cad>
          </ns3:TrackPointExtension>
        </extensions>
      </trkpt>
      <trkpt lat="44.72181494347751140594482421875" lon="6.7196961678564548492431640625">
        <ele>2214.800048828125</ele>
        <time>2026-09-03T04:55:57.000Z</time>
        <extensions>
          <ns3:TrackPointExtension>
            <ns3:hr>108</ns3:hr>
            <ns3:cad>80</ns3:cad>
          </ns3:TrackPointExtension>
        </extensions>
      </trkpt>
      <trkpt lat="44.7217945754528045654296875" lon="6.71971754170954227447509765625">
        <ele>2214.60009765625</ele>
        <time>2026-09-03T04:55:58.000Z</time>
        <extensions>
          <ns3:TrackPointExtension>
            <ns3:hr>109</ns3:hr>
            <ns3:cad>80</ns3:cad>
          </ns3:TrackPointExtension>
        </extensions>
      </trkpt>
      <trkpt lat="44.7217806614935398101806640625" lon="6.719733215868473052978515625">
        <ele>2214.39990234375</ele>
        <time>2026-09-03T04:55:59.000Z</time>
        <extensions>
          <ns3:TrackPointExtension>
            <ns3:hr>109</ns3:hr>
            <ns3:cad>81</ns3:cad>
          </ns3:TrackPointExtension>
        </extensions>
      </trkpt>
      <trkpt lat="44.72176733426749706268310546875" lon="6.7197568528354167938232421875">
        <ele>2214.39990234375</ele>
        <time>2026-09-03T04:56:00.000Z</time>
        <extensions>
          <ns3:TrackPointExtension>
            <ns3:hr>109</ns3:hr>
            <ns3:cad>82</ns3:cad>
          </ns3:TrackPointExtension>
        </extensions>
      </trkpt>
      <trkpt lat="44.7217491455376148223876953125" lon="6.71977118588984012603759765625">
        <ele>2214.199951171875</ele>
        <time>2026-09-03T04:56:01.000Z</time>
        <extensions>
          <ns3:TrackPointExtension>
            <ns3:hr>109</ns3:hr>
            <ns3:cad>82</ns3:cad>
          </ns3:TrackPointExtension>
        </extensions>
      </trkpt>
      <trkpt lat="44.72174000926315784454345703125" lon="6.71978962607681751251220703125">
        <ele>2213.800048828125</ele>
        <time>2026-09-03T04:56:02.000Z</time>
        <extensions>
          <ns3:TrackPointExtension>
            <ns3:hr>110</ns3:hr>
            <ns3:cad>82</ns3:cad>
          </ns3:TrackPointExtension>
        </extensions>
      </trkpt>
      <trkpt lat="44.72172307781875133514404296875" lon="6.71981577761471271514892578125">
        <ele>2213.60009765625</ele>
        <time>2026-09-03T04:56:03.000Z</time>
        <extensions>
          <ns3:TrackPointExtension>
            <ns3:hr>110</ns3:hr>
            <ns3:cad>81</ns3:cad>
          </ns3:TrackPointExtension>
        </extensions>
      </trkpt>
      <trkpt lat="44.72170614637434482574462890625" lon="6.71982784755527973175048828125">
        <ele>2213.199951171875</ele>
        <time>2026-09-03T04:56:04.000Z</time>
        <extensions>
          <ns3:TrackPointExtension>
            <ns3:hr>110</ns3:hr>
            <ns3:cad>81</ns3:cad>
          </ns3:TrackPointExtension>
        </extensions>
      </trkpt>
      <trkpt lat="44.721691310405731201171875" lon="6.71984209679067134857177734375">
        <ele>2212.800048828125</ele>
        <time>2026-09-03T04:56:05.000Z</time>
        <extensions>
          <ns3:TrackPointExtension>
            <ns3:hr>110</ns3:hr>
            <ns3:cad>81</ns3:cad>
          </ns3:TrackPointExtension>
        </extensions>
      </trkpt>
      <trkpt lat="44.72167295403778553009033203125" lon="6.7198648117482662200927734375">
        <ele>2212.39990234375</ele>
        <time>2026-09-03T04:56:06.000Z</time>
        <extensions>
          <ns3:TrackPointExtension>
            <ns3:hr>110</ns3:hr>
            <ns3:cad>81</ns3:cad>
          </ns3:TrackPointExtension>
        </extensions>
      </trkpt>
      <trkpt lat="44.721654765307903289794921875" lon="6.71987579204142093658447265625">
        <ele>2212</ele>
        <time>2026-09-03T04:56:07.000Z</time>
        <extensions>
          <ns3:TrackPointExtension>
            <ns3:hr>111</ns3:hr>
            <ns3:cad>83</ns3:cad>
          </ns3:TrackPointExtension>
        </extensions>
      </trkpt>
      <trkpt lat="44.721638672053813934326171875" lon="6.71989557333290576934814453125">
        <ele>2211.800048828125</ele>
        <time>2026-09-03T04:56:08.000Z</time>
        <extensions>
          <ns3:TrackPointExtension>
            <ns3:hr>111</ns3:hr>
            <ns3:cad>83</ns3:cad>
          </ns3:TrackPointExtension>
        </extensions>
      </trkpt>
      <trkpt lat="44.7216173820197582244873046875" lon="6.7199134267866611480712890625">
        <ele>2211.39990234375</ele>
        <time>2026-09-03T04:56:09.000Z</time>
        <extensions>
          <ns3:TrackPointExtension>
            <ns3:hr>111</ns3:hr>
            <ns3:cad>82</ns3:cad>
          </ns3:TrackPointExtension>
        </extensions>
      </trkpt>
      <trkpt lat="44.72160891629755496978759765625" lon="6.7199313640594482421875">
        <ele>2211</ele>
        <time>2026-09-03T04:56:10.000Z</time>
        <extensions>
          <ns3:TrackPointExtension>
            <ns3:hr>110</ns3:hr>
            <ns3:cad>81</ns3:cad>
          </ns3:TrackPointExtension>
        </extensions>
      </trkpt>
      <trkpt lat="44.72159634344279766082763671875" lon="6.71995751559734344482421875">
        <ele>2210.60009765625</ele>
        <time>2026-09-03T04:56:11.000Z</time>
        <extensions>
          <ns3:TrackPointExtension>
            <ns3:hr>110</ns3:hr>
            <ns3:cad>81</ns3:cad>
          </ns3:TrackPointExtension>
        </extensions>
      </trkpt>
      <trkpt lat="44.7215811721980571746826171875" lon="6.71998207457363605499267578125">
        <ele>2210.39990234375</ele>
        <time>2026-09-03T04:56:12.000Z</time>
        <extensions>
          <ns3:TrackPointExtension>
            <ns3:hr>110</ns3:hr>
            <ns3:cad>81</ns3:cad>
          </ns3:TrackPointExtension>
        </extensions>
      </trkpt>
      <trkpt lat="44.7215724550187587738037109375" lon="6.72000705264508724212646484375">
        <ele>2210</ele>
        <time>2026-09-03T04:56:13.000Z</time>
        <extensions>
          <ns3:TrackPointExtension>
            <ns3:hr>110</ns3:hr>
            <ns3:cad>81</ns3:cad>
          </ns3:TrackPointExtension>
        </extensions>
      </trkpt>
      <trkpt lat="44.72155460156500339508056640625" lon="6.72003395855426788330078125">
        <ele>2209.60009765625</ele>
        <time>2026-09-03T04:56:14.000Z</time>
        <extensions>
          <ns3:TrackPointExtension>
            <ns3:hr>111</ns3:hr>
            <ns3:cad>82</ns3:cad>
          </ns3:TrackPointExtension>
        </extensions>
      </trkpt>
      <trkpt lat="44.721538759768009185791015625" lon="6.72005315311253070831298828125">
        <ele>2209.199951171875</ele>
        <time>2026-09-03T04:56:15.000Z</time>
        <extensions>
          <ns3:TrackPointExtension>
            <ns3:hr>111</ns3:hr>
            <ns3:cad>82</ns3:cad>
          </ns3:TrackPointExtension>
        </extensions>
      </trkpt>
      <trkpt lat="44.7215308807790279388427734375" lon="6.72006991691887378692626953125">
        <ele>2209</ele>
        <time>2026-09-03T04:56:16.000Z</time>
        <extensions>
          <ns3:TrackPointExtension>
            <ns3:hr>111</ns3:hr>
            <ns3:cad>82</ns3:cad>
          </ns3:TrackPointExtension>
        </extensions>
      </trkpt>
      <trkpt lat="44.721511937677860260009765625" lon="6.72009967267513275146484375">
        <ele>2208.800048828125</ele>
        <time>2026-09-03T04:56:17.000Z</time>
        <extensions>
          <ns3:TrackPointExtension>
            <ns3:hr>112</ns3:hr>
            <ns3:cad>80</ns3:cad>
          </ns3:TrackPointExtension>
        </extensions>
      </trkpt>
      <trkpt lat="44.72149559296667575836181640625" lon="6.7201150953769683837890625">
        <ele>2208.60009765625</ele>
        <time>2026-09-03T04:56:18.000Z</time>
        <extensions>
          <ns3:TrackPointExtension>
            <ns3:hr>112</ns3:hr>
            <ns3:cad>80</ns3:cad>
          </ns3:TrackPointExtension>
        </extensions>
      </trkpt>
      <trkpt lat="44.72148268483579158782958984375" lon="6.720134206116199493408203125">
        <ele>2208.60009765625</ele>
        <time>2026-09-03T04:56:19.000Z</time>
        <extensions>
          <ns3:TrackPointExtension>
            <ns3:hr>112</ns3:hr>
            <ns3:cad>80</ns3:cad>
          </ns3:TrackPointExtension>
        </extensions>
      </trkpt>
      <trkpt lat="44.72146340645849704742431640625" lon="6.72015524469316005706787109375">
        <ele>2208.39990234375</ele>
        <time>2026-09-03T04:56:20.000Z</time>
        <extensions>
          <ns3:TrackPointExtension>
            <ns3:hr>113</ns3:hr>
            <ns3:cad>81</ns3:cad>
          </ns3:TrackPointExtension>
        </extensions>
      </trkpt>
      <trkpt lat="44.7214463911950588226318359375" lon="6.720169745385646820068359375">
        <ele>2208.39990234375</ele>
        <time>2026-09-03T04:56:21.000Z</time>
        <extensions>
          <ns3:TrackPointExtension>
            <ns3:hr>113</ns3:hr>
            <ns3:cad>81</ns3:cad>
          </ns3:TrackPointExtension>
        </extensions>
      </trkpt>
      <trkpt lat="44.7214309684932231903076171875" lon="6.72018424607813358306884765625">
        <ele>2208.199951171875</ele>
        <time>2026-09-03T04:56:22.000Z</time>
        <extensions>
          <ns3:TrackPointExtension>
            <ns3:hr>113</ns3:hr>
            <ns3:cad>81</ns3:cad>
          </ns3:TrackPointExtension>
        </extensions>
      </trkpt>
      <trkpt lat="44.7214121930301189422607421875" lon="6.720200590789318084716796875">
        <ele>2207.800048828125</ele>
        <time>2026-09-03T04:56:23.000Z</time>
        <extensions>
          <ns3:TrackPointExtension>
            <ns3:hr>113</ns3:hr>
            <ns3:cad>81</ns3:cad>
          </ns3:TrackPointExtension>
        </extensions>
      </trkpt>
      <trkpt lat="44.72140473313629627227783203125" lon="6.72022280283272266387939453125">
        <ele>2207.60009765625</ele>
        <time>2026-09-03T04:56:24.000Z</time>
        <extensions>
          <ns3:TrackPointExtension>
            <ns3:hr>113</ns3:hr>
            <ns3:cad>81</ns3:cad>
          </ns3:TrackPointExtension>
        </extensions>
      </trkpt>
      <trkpt lat="44.7213910706341266632080078125" lon="6.72025926411151885986328125">
        <ele>2207.199951171875</ele>
        <time>2026-09-03T04:56:25.000Z</time>
        <extensions>
          <ns3:TrackPointExtension>
            <ns3:hr>114</ns3:hr>
            <ns3:cad>81</ns3:cad>
          </ns3:TrackPointExtension>
        </extensions>
      </trkpt>
      <trkpt lat="44.72138478420674800872802734375" lon="6.72028264962136745452880859375">
        <ele>2207</ele>
        <time>2026-09-03T04:56:26.000Z</time>
        <extensions>
          <ns3:TrackPointExtension>
            <ns3:hr>114</ns3:hr>
            <ns3:cad>81</ns3:cad>
          </ns3:TrackPointExtension>
        </extensions>
      </trkpt>
      <trkpt lat="44.72137522883713245391845703125" lon="6.7202946357429027557373046875">
        <ele>2206.800048828125</ele>
        <time>2026-09-03T04:56:27.000Z</time>
        <extensions>
          <ns3:TrackPointExtension>
            <ns3:hr>114</ns3:hr>
            <ns3:cad>81</ns3:cad>
          </ns3:TrackPointExtension>
        </extensions>
      </trkpt>
      <trkpt lat="44.72136466763913631439208984375" lon="6.72029069624841213226318359375">
        <ele>2206.800048828125</ele>
        <time>2026-09-03T04:56:28.000Z</time>
        <extensions>
          <ns3:TrackPointExtension>
            <ns3:hr>114</ns3:hr>
            <ns3:cad>81</ns3:cad>
          </ns3:TrackPointExtension>
        </extensions>
      </trkpt>
      <trkpt lat="44.72135134041309356689453125" lon="6.72028742730617523193359375">
        <ele>2207</ele>
        <time>2026-09-03T04:56:29.000Z</time>
        <extensions>
          <ns3:TrackPointExtension>
            <ns3:hr>114</ns3:hr>
            <ns3:cad>82</ns3:cad>
          </ns3:TrackPointExtension>
        </extensions>
      </trkpt>
      <trkpt lat="44.7213354147970676422119140625" lon="6.72030176036059856414794921875">
        <ele>2206.800048828125</ele>
        <time>2026-09-03T04:56:30.000Z</time>
        <extensions>
          <ns3:TrackPointExtension>
            <ns3:hr>114</ns3:hr>
            <ns3:cad>82</ns3:cad>
          </ns3:TrackPointExtension>
        </extensions>
      </trkpt>
      <trkpt lat="44.72132728435099124908447265625" lon="6.720316596329212188720703125">
        <ele>2206.60009765625</ele>
        <time>2026-09-03T04:56:31.000Z</time>
        <extensions>
          <ns3:TrackPointExtension>
            <ns3:hr>114</ns3:hr>
            <ns3:cad>82</ns3:cad>
          </ns3:TrackPointExtension>
        </extensions>
      </trkpt>
      <trkpt lat="44.7213106043636798858642578125" lon="6.72032900154590606689453125">
        <ele>2206.39990234375</ele>
        <time>2026-09-03T04:56:32.000Z</time>
        <extensions>
          <ns3:TrackPointExtension>
            <ns3:hr>114</ns3:hr>
            <ns3:cad>87</ns3:cad>
          </ns3:TrackPointExtension>
        </extensions>
      </trkpt>
      <trkpt lat="44.72129459492862224578857421875" lon="6.7203429155051708221435546875">
        <ele>2206</ele>
        <time>2026-09-03T04:56:33.000Z</time>
        <extensions>
          <ns3:TrackPointExtension>
            <ns3:hr>114</ns3:hr>
            <ns3:cad>87</ns3:cad>
          </ns3:TrackPointExtension>
        </extensions>
      </trkpt>
      <trkpt lat="44.72126978449523448944091796875" lon="6.72036931850016117095947265625">
        <ele>2205.60009765625</ele>
        <time>2026-09-03T04:56:34.000Z</time>
        <extensions>
          <ns3:TrackPointExtension>
            <ns3:hr>114</ns3:hr>
            <ns3:cad>87</ns3:cad>
          </ns3:TrackPointExtension>
        </extensions>
      </trkpt>
      <trkpt lat="44.72124866209924221038818359375" lon="6.72038474120199680328369140625">
        <ele>2205.199951171875</ele>
        <time>2026-09-03T04:56:35.000Z</time>
        <extensions>
          <ns3:TrackPointExtension>
            <ns3:hr>114</ns3:hr>
            <ns3:cad>87</ns3:cad>
          </ns3:TrackPointExtension>
        </extensions>
      </trkpt>
      <trkpt lat="44.72123525105416774749755859375" lon="6.7204052768647670745849609375">
        <ele>2204.800048828125</ele>
        <time>2026-09-03T04:56:36.000Z</time>
        <extensions>
          <ns3:TrackPointExtension>
            <ns3:hr>114</ns3:hr>
            <ns3:cad>87</ns3:cad>
          </ns3:TrackPointExtension>
        </extensions>
      </trkpt>
      <trkpt lat="44.7212120331823825836181640625" lon="6.7204227112233638763427734375">
        <ele>2204.60009765625</ele>
        <time>2026-09-03T04:56:37.000Z</time>
        <extensions>
          <ns3:TrackPointExtension>
            <ns3:hr>115</ns3:hr>
            <ns3:cad>87</ns3:cad>
          </ns3:TrackPointExtension>
        </extensions>
      </trkpt>
      <trkpt lat="44.72119233570992946624755859375" lon="6.7204307578504085540771484375">
        <ele>2204.39990234375</ele>
        <time>2026-09-03T04:56:38.000Z</time>
        <extensions>
          <ns3:TrackPointExtension>
            <ns3:hr>115</ns3:hr>
            <ns3:cad>87</ns3:cad>
          </ns3:TrackPointExtension>
        </extensions>
      </trkpt>
      <trkpt lat="44.72117641009390354156494140625" lon="6.72044140286743640899658203125">
        <ele>2204.199951171875</ele>
        <time>2026-09-03T04:56:39.000Z</time>
        <extensions>
          <ns3:TrackPointExtension>
            <ns3:hr>116</ns3:hr>
            <ns3:cad>87</ns3:cad>
          </ns3:TrackPointExtension>
        </extensions>
      </trkpt>
      <trkpt lat="44.721171297132968902587890625" lon="6.72046118415892124176025390625">
        <ele>2204.199951171875</ele>
        <time>2026-09-03T04:56:40.000Z</time>
        <extensions>
          <ns3:TrackPointExtension>
            <ns3:hr>116</ns3:hr>
            <ns3:cad>87</ns3:cad>
          </ns3:TrackPointExtension>
        </extensions>
      </trkpt>
      <trkpt lat="44.72116685472428798675537109375" lon="6.72047744505107402801513671875">
        <ele>2204</ele>
        <time>2026-09-03T04:56:41.000Z</time>
        <extensions>
          <ns3:TrackPointExtension>
            <ns3:hr>116</ns3:hr>
            <ns3:cad>80</ns3:cad>
          </ns3:TrackPointExtension>
        </extensions>
      </trkpt>
      <trkpt lat="44.72115176729857921600341796875" lon="6.7204984836280345916748046875">
        <ele>2203.800048828125</ele>
        <time>2026-09-03T04:56:42.000Z</time>
        <extensions>
          <ns3:TrackPointExtension>
            <ns3:hr>116</ns3:hr>
            <ns3:cad>68</ns3:cad>
          </ns3:TrackPointExtension>
        </extensions>
      </trkpt>
      <trkpt lat="44.7211369313299655914306640625" lon="6.7205139063298702239990234375">
        <ele>2203.39990234375</ele>
        <time>2026-09-03T04:56:43.000Z</time>
        <extensions>
          <ns3:TrackPointExtension>
            <ns3:hr>116</ns3:hr>
            <ns3:cad>68</ns3:cad>
          </ns3:TrackPointExtension>
        </extensions>
      </trkpt>
      <trkpt lat="44.72112494520843029022216796875" lon="6.72053025104105472564697265625">
        <ele>2203</ele>
        <time>2026-09-03T04:56:44.000Z</time>
        <extensions>
          <ns3:TrackPointExtension>
            <ns3:hr>116</ns3:hr>
            <ns3:cad>68</ns3:cad>
          </ns3:TrackPointExtension>
        </extensions>
      </trkpt>
      <trkpt lat="44.72110181115567684173583984375" lon="6.7205464281141757965087890625">
        <ele>2202.60009765625</ele>
        <time>2026-09-03T04:56:45.000Z</time>
        <extensions>
          <ns3:TrackPointExtension>
            <ns3:hr>116</ns3:hr>
            <ns3:cad>68</ns3:cad>
          </ns3:TrackPointExtension>
        </extensions>
      </trkpt>
      <trkpt lat="44.72108672372996807098388671875" lon="6.72055774368345737457275390625">
        <ele>2202.39990234375</ele>
        <time>2026-09-03T04:56:46.000Z</time>
        <extensions>
          <ns3:TrackPointExtension>
            <ns3:hr>116</ns3:hr>
            <ns3:cad>68</ns3:cad>
          </ns3:TrackPointExtension>
        </extensions>
      </trkpt>
      <trkpt lat="44.72107239067554473876953125" lon="6.72057366929948329925537109375">
        <ele>2202.199951171875</ele>
        <time>2026-09-03T04:56:47.000Z</time>
        <extensions>
          <ns3:TrackPointExtension>
            <ns3:hr>117</ns3:hr>
            <ns3:cad>68</ns3:cad>
          </ns3:TrackPointExtension>
        </extensions>
      </trkpt>
      <trkpt lat="44.72105973400175571441650390625" lon="6.72058288939297199249267578125">
        <ele>2202.199951171875</ele>
        <time>2026-09-03T04:56:48.000Z</time>
        <extensions>
          <ns3:TrackPointExtension>
            <ns3:hr>116</ns3:hr>
            <ns3:cad>81</ns3:cad>
          </ns3:TrackPointExtension>
        </extensions>
      </trkpt>
      <trkpt lat="44.7210400365293025970458984375" lon="6.7206034250557422637939453125">
        <ele>2202.199951171875</ele>
        <time>2026-09-03T04:56:49.000Z</time>
        <extensions>
          <ns3:TrackPointExtension>
            <ns3:hr>116</ns3:hr>
            <ns3:cad>81</ns3:cad>
          </ns3:TrackPointExtension>
        </extensions>
      </trkpt>
      <trkpt lat="44.72102168016135692596435546875" lon="6.72062597237527370452880859375">
        <ele>2202</ele>
        <time>2026-09-03T04:56:50.000Z</time>
        <extensions>
          <ns3:TrackPointExtension>
            <ns3:hr>116</ns3:hr>
            <ns3:cad>81</ns3:cad>
          </ns3:TrackPointExtension>
        </extensions>
      </trkpt>
      <trkpt lat="44.72100935876369476318359375" lon="6.7206433229148387908935546875">
        <ele>2201.800048828125</ele>
        <time>2026-09-03T04:56:51.000Z</time>
        <extensions>
          <ns3:TrackPointExtension>
            <ns3:hr>116</ns3:hr>
            <ns3:cad>81</ns3:cad>
          </ns3:TrackPointExtension>
        </extensions>
      </trkpt>
      <trkpt lat="44.7209920920431613922119140625" lon="6.7206624336540699005126953125">
        <ele>2201.60009765625</ele>
        <time>2026-09-03T04:56:52.000Z</time>
        <extensions>
          <ns3:TrackPointExtension>
            <ns3:hr>115</ns3:hr>
            <ns3:cad>81</ns3:cad>
          </ns3:TrackPointExtension>
        </extensions>
      </trkpt>
      <trkpt lat="44.72097289748489856719970703125" lon="6.72068414278328418731689453125">
        <ele>2201.199951171875</ele>
        <time>2026-09-03T04:56:53.000Z</time>
        <extensions>
          <ns3:TrackPointExtension>
            <ns3:hr>115</ns3:hr>
            <ns3:cad>81</ns3:cad>
          </ns3:TrackPointExtension>
        </extensions>
      </trkpt>
      <trkpt lat="44.7209578938782215118408203125" lon="6.7207046784460544586181640625">
        <ele>2201</ele>
        <time>2026-09-03T04:56:54.000Z</time>
        <extensions>
          <ns3:TrackPointExtension>
            <ns3:hr>116</ns3:hr>
            <ns3:cad>81</ns3:cad>
          </ns3:TrackPointExtension>
        </extensions>
      </trkpt>
      <trkpt lat="44.72093367017805576324462890625" lon="6.72071968205273151397705078125">
        <ele>2200.800048828125</ele>
        <time>2026-09-03T04:56:55.000Z</time>
        <extensions>
          <ns3:TrackPointExtension>
            <ns3:hr>116</ns3:hr>
            <ns3:cad>81</ns3:cad>
          </ns3:TrackPointExtension>
        </extensions>
      </trkpt>
      <trkpt lat="44.72091539762914180755615234375" lon="6.7207266390323638916015625">
        <ele>2200.800048828125</ele>
        <time>2026-09-03T04:56:56.000Z</time>
        <extensions>
          <ns3:TrackPointExtension>
            <ns3:hr>116</ns3:hr>
            <ns3:cad>82</ns3:cad>
          </ns3:TrackPointExtension>
        </extensions>
      </trkpt>
      <trkpt lat="44.72090232186019420623779296875" lon="6.72074181027710437774658203125">
        <ele>2200.60009765625</ele>
        <time>2026-09-03T04:56:57.000Z</time>
        <extensions>
          <ns3:TrackPointExtension>
            <ns3:hr>116</ns3:hr>
            <ns3:cad>82</ns3:cad>
          </ns3:TrackPointExtension>
        </extensions>
      </trkpt>
      <trkpt lat="44.72087868489325046539306640625" lon="6.72076888382434844970703125">
        <ele>2200.60009765625</ele>
        <time>2026-09-03T04:56:58.000Z</time>
        <extensions>
          <ns3:TrackPointExtension>
            <ns3:hr>116</ns3:hr>
            <ns3:cad>82</ns3:cad>
          </ns3:TrackPointExtension>
        </extensions>
      </trkpt>
      <trkpt lat="44.72086728550493717193603515625" lon="6.72078497707843780517578125">
        <ele>2200.60009765625</ele>
        <time>2026-09-03T04:56:59.000Z</time>
        <extensions>
          <ns3:TrackPointExtension>
            <ns3:hr>116</ns3:hr>
            <ns3:cad>82</ns3:cad>
          </ns3:TrackPointExtension>
        </extensions>
      </trkpt>
      <trkpt lat="44.72084649838507175445556640625" lon="6.7208072729408740997314453125">
        <ele>2200.39990234375</ele>
        <time>2026-09-03T04:57:00.000Z</time>
        <extensions>
          <ns3:TrackPointExtension>
            <ns3:hr>116</ns3:hr>
            <ns3:cad>81</ns3:cad>
          </ns3:TrackPointExtension>
        </extensions>
      </trkpt>
      <trkpt lat="44.7208294831216335296630859375" lon="6.72082697041332721710205078125">
        <ele>2200.39990234375</ele>
        <time>2026-09-03T04:57:01.000Z</time>
        <extensions>
          <ns3:TrackPointExtension>
            <ns3:hr>117</ns3:hr>
            <ns3:cad>81</ns3:cad>
          </ns3:TrackPointExtension>
        </extensions>
      </trkpt>
      <trkpt lat="44.72081464715301990509033203125" lon="6.72084406949579715728759765625">
        <ele>2200.199951171875</ele>
        <time>2026-09-03T04:57:02.000Z</time>
        <extensions>
          <ns3:TrackPointExtension>
            <ns3:hr>117</ns3:hr>
            <ns3:cad>81</ns3:cad>
          </ns3:TrackPointExtension>
        </extensions>
      </trkpt>
      <trkpt lat="44.7207872383296489715576171875" lon="6.72086083330214023590087890625">
        <ele>2200.199951171875</ele>
        <time>2026-09-03T04:57:03.000Z</time>
        <extensions>
          <ns3:TrackPointExtension>
            <ns3:hr>117</ns3:hr>
            <ns3:cad>82</ns3:cad>
          </ns3:TrackPointExtension>
        </extensions>
      </trkpt>
      <trkpt lat="44.7207714803516864776611328125" lon="6.72087290324270725250244140625">
        <ele>2200.39990234375</ele>
        <time>2026-09-03T04:57:04.000Z</time>
        <extensions>
          <ns3:TrackPointExtension>
            <ns3:hr>117</ns3:hr>
            <ns3:cad>83</ns3:cad>
          </ns3:TrackPointExtension>
        </extensions>
      </trkpt>
      <trkpt lat="44.720758236944675445556640625" lon="6.72088497318327426910400390625">
        <ele>2200.39990234375</ele>
        <time>2026-09-03T04:57:05.000Z</time>
        <extensions>
          <ns3:TrackPointExtension>
            <ns3:hr>117</ns3:hr>
            <ns3:cad>83</ns3:cad>
          </ns3:TrackPointExtension>
        </extensions>
      </trkpt>
      <trkpt lat="44.72073485143482685089111328125" lon="6.720906682312488555908203125">
        <ele>2200.60009765625</ele>
        <time>2026-09-03T04:57:06.000Z</time>
        <extensions>
          <ns3:TrackPointExtension>
            <ns3:hr>117</ns3:hr>
            <ns3:cad>83</ns3:cad>
          </ns3:TrackPointExtension>
        </extensions>
      </trkpt>
      <trkpt lat="44.720718674361705780029296875" lon="6.72091816551983356475830078125">
        <ele>2200.60009765625</ele>
        <time>2026-09-03T04:57:07.000Z</time>
        <extensions>
          <ns3:TrackPointExtension>
            <ns3:hr>118</ns3:hr>
            <ns3:cad>83</ns3:cad>
          </ns3:TrackPointExtension>
        </extensions>
      </trkpt>
      <trkpt lat="44.7207064367830753326416015625" lon="6.7209296487271785736083984375">
        <ele>2200.800048828125</ele>
        <time>2026-09-03T04:57:08.000Z</time>
        <extensions>
          <ns3:TrackPointExtension>
            <ns3:hr>118</ns3:hr>
            <ns3:cad>82</ns3:cad>
          </ns3:TrackPointExtension>
        </extensions>
      </trkpt>
      <trkpt lat="44.720698893070220947265625" lon="6.7209278047084808349609375">
        <ele>2200.800048828125</ele>
        <time>2026-09-03T04:57:09.000Z</time>
        <extensions>
          <ns3:TrackPointExtension>
            <ns3:hr>118</ns3:hr>
            <ns3:cad>82</ns3:cad>
          </ns3:TrackPointExtension>
        </extensions>
      </trkpt>
      <trkpt lat="44.72069763578474521636962890625" lon="6.720920093357563018798828125">
        <ele>2200.60009765625</ele>
        <time>2026-09-03T04:57:10.000Z</time>
        <extensions>
          <ns3:TrackPointExtension>
            <ns3:hr>118</ns3:hr>
            <ns3:cad>82</ns3:cad>
          </ns3:TrackPointExtension>
        </extensions>
      </trkpt>
      <trkpt lat="44.7206962108612060546875" lon="6.720916740596294403076171875">
        <ele>2200.60009765625</ele>
        <time>2026-09-03T04:57:11.000Z</time>
        <extensions>
          <ns3:TrackPointExtension>
            <ns3:hr>119</ns3:hr>
            <ns3:cad>0</ns3:cad>
          </ns3:TrackPointExtension>
        </extensions>
      </trkpt>
      <trkpt lat="44.7206960432231426239013671875" lon="6.720916740596294403076171875">
        <ele>2200.60009765625</ele>
        <time>2026-09-03T04:57:12.000Z</time>
        <extensions>
          <ns3:TrackPointExtension>
            <ns3:hr>119</ns3:hr>
            <ns3:cad>0</ns3:cad>
          </ns3:TrackPointExtension>
        </extensions>
      </trkpt>
      <trkpt lat="44.72068942151963710784912109375" lon="6.72092503868043422698974609375">
        <ele>2200.39990234375</ele>
        <time>2026-09-03T04:57:13.000Z</time>
        <extensions>
          <ns3:TrackPointExtension>
            <ns3:hr>119</ns3:hr>
            <ns3:cad>0</ns3:cad>
          </ns3:TrackPointExtension>
        </extensions>
      </trkpt>
      <trkpt lat="44.72068338654935359954833984375" lon="6.7209353484213352203369140625">
        <ele>2200.39990234375</ele>
        <time>2026-09-03T04:57:14.000Z</time>
        <extensions>
          <ns3:TrackPointExtension>
            <ns3:hr>119</ns3:hr>
            <ns3:cad>68</ns3:cad>
          </ns3:TrackPointExtension>
        </extensions>
      </trkpt>
      <trkpt lat="44.7206776030361652374267578125" lon="6.7209480889141559600830078125">
        <ele>2200.39990234375</ele>
        <time>2026-09-03T04:57:15.000Z</time>
        <extensions>
          <ns3:TrackPointExtension>
            <ns3:hr>119</ns3:hr>
            <ns3:cad>68</ns3:cad>
          </ns3:TrackPointExtension>
        </extensions>
      </trkpt>
      <trkpt lat="44.720672070980072021484375" lon="6.72096041031181812286376953125">
        <ele>2200.199951171875</ele>
        <time>2026-09-03T04:57:16.000Z</time>
        <extensions>
          <ns3:TrackPointExtension>
            <ns3:hr>119</ns3:hr>
            <ns3:cad>0</ns3:cad>
          </ns3:TrackPointExtension>
        </extensions>
      </trkpt>
      <trkpt lat="44.720665700733661651611328125" lon="6.72097633592784404754638671875">
        <ele>2200.199951171875</ele>
        <time>2026-09-03T04:57:17.000Z</time>
        <extensions>
          <ns3:TrackPointExtension>
            <ns3:hr>118</ns3:hr>
            <ns3:cad>0</ns3:cad>
          </ns3:TrackPointExtension>
        </extensions>
      </trkpt>
      <trkpt lat="44.7206581570208072662353515625" lon="6.720994524657726287841796875">
        <ele>2200</ele>
        <time>2026-09-03T04:57:18.000Z</time>
        <extensions>
          <ns3:TrackPointExtension>
            <ns3:hr>118</ns3:hr>
            <ns3:cad>56</ns3:cad>
          </ns3:TrackPointExtension>
        </extensions>
      </trkpt>
      <trkpt lat="44.720651619136333465576171875" lon="6.72100567258894443511962890625">
        <ele>2200</ele>
        <time>2026-09-03T04:57:19.000Z</time>
        <extensions>
          <ns3:TrackPointExtension>
            <ns3:hr>118</ns3:hr>
            <ns3:cad>57</ns3:cad>
          </ns3:TrackPointExtension>
        </extensions>
      </trkpt>
      <trkpt lat="44.72064197994768619537353515625" lon="6.72101958654820919036865234375">
        <ele>2199.800048828125</ele>
        <time>2026-09-03T04:57:20.000Z</time>
        <extensions>
          <ns3:TrackPointExtension>
            <ns3:hr>118</ns3:hr>
            <ns3:cad>57</ns3:cad>
          </ns3:TrackPointExtension>
        </extensions>
      </trkpt>
      <trkpt lat="44.7206318378448486328125" lon="6.7210362665355205535888671875">
        <ele>2199.39990234375</ele>
        <time>2026-09-03T04:57:21.000Z</time>
        <extensions>
          <ns3:TrackPointExtension>
            <ns3:hr>118</ns3:hr>
            <ns3:cad>113</ns3:cad>
          </ns3:TrackPointExtension>
        </extensions>
      </trkpt>
      <trkpt lat="44.72062605433166027069091796875" lon="6.7210526950657367706298828125">
        <ele>2199.199951171875</ele>
        <time>2026-09-03T04:57:22.000Z</time>
        <extensions>
          <ns3:TrackPointExtension>
            <ns3:hr>116</ns3:hr>
            <ns3:cad>113</ns3:cad>
          </ns3:TrackPointExtension>
        </extensions>
      </trkpt>
      <trkpt lat="44.7206182591617107391357421875" lon="6.72107306309044361114501953125">
        <ele>2198.800048828125</ele>
        <time>2026-09-03T04:57:23.000Z</time>
        <extensions>
          <ns3:TrackPointExtension>
            <ns3:hr>115</ns3:hr>
            <ns3:cad>64</ns3:cad>
          </ns3:TrackPointExtension>
        </extensions>
      </trkpt>
      <trkpt lat="44.7206102125346660614013671875" lon="6.72108831815421581268310546875">
        <ele>2198.60009765625</ele>
        <time>2026-09-03T04:57:24.000Z</time>
        <extensions>
          <ns3:TrackPointExtension>
            <ns3:hr>114</ns3:hr>
            <ns3:cad>61</ns3:cad>
          </ns3:TrackPointExtension>
        </extensions>
      </trkpt>
      <trkpt lat="44.72060493193566799163818359375" lon="6.72110038809478282928466796875">
        <ele>2198.199951171875</ele>
        <time>2026-09-03T04:57:25.000Z</time>
        <extensions>
          <ns3:TrackPointExtension>
            <ns3:hr>113</ns3:hr>
            <ns3:cad>61</ns3:cad>
          </ns3:TrackPointExtension>
        </extensions>
      </trkpt>
      <trkpt lat="44.72059470601379871368408203125" lon="6.7211110331118106842041015625">
        <ele>2198</ele>
        <time>2026-09-03T04:57:26.000Z</time>
        <extensions>
          <ns3:TrackPointExtension>
            <ns3:hr>112</ns3:hr>
            <ns3:cad>76</ns3:cad>
          </ns3:TrackPointExtension>
        </extensions>
      </trkpt>
      <trkpt lat="44.720580540597438812255859375" lon="6.72112620435655117034912109375">
        <ele>2197.800048828125</ele>
        <time>2026-09-03T04:57:27.000Z</time>
        <extensions>
          <ns3:TrackPointExtension>
            <ns3:hr>111</ns3:hr>
            <ns3:cad>76</ns3:cad>
          </ns3:TrackPointExtension>
        </extensions>
      </trkpt>
      <trkpt lat="44.72056855447590351104736328125" lon="6.72114171087741851806640625">
        <ele>2197.60009765625</ele>
        <time>2026-09-03T04:57:28.000Z</time>
        <extensions>
          <ns3:TrackPointExtension>
            <ns3:hr>111</ns3:hr>
            <ns3:cad>76</ns3:cad>
          </ns3:TrackPointExtension>
        </extensions>
      </trkpt>
      <trkpt lat="44.72055606544017791748046875" lon="6.72116811387240886688232421875">
        <ele>2197.199951171875</ele>
        <time>2026-09-03T04:57:29.000Z</time>
        <extensions>
          <ns3:TrackPointExtension>
            <ns3:hr>111</ns3:hr>
            <ns3:cad>76</ns3:cad>
          </ns3:TrackPointExtension>
        </extensions>
      </trkpt>
      <trkpt lat="44.720539636909961700439453125" lon="6.7211908288300037384033203125">
        <ele>2196.800048828125</ele>
        <time>2026-09-03T04:57:30.000Z</time>
        <extensions>
          <ns3:TrackPointExtension>
            <ns3:hr>111</ns3:hr>
            <ns3:cad>76</ns3:cad>
          </ns3:TrackPointExtension>
        </extensions>
      </trkpt>
      <trkpt lat="44.72053502686321735382080078125" lon="6.72121119685471057891845703125">
        <ele>2196.39990234375</ele>
        <time>2026-09-03T04:57:31.000Z</time>
        <extensions>
          <ns3:TrackPointExtension>
            <ns3:hr>111</ns3:hr>
            <ns3:cad>77</ns3:cad>
          </ns3:TrackPointExtension>
        </extensions>
      </trkpt>
      <trkpt lat="44.72051859833300113677978515625" lon="6.72124623320996761322021484375">
        <ele>2196</ele>
        <time>2026-09-03T04:57:32.000Z</time>
        <extensions>
          <ns3:TrackPointExtension>
            <ns3:hr>111</ns3:hr>
            <ns3:cad>77</ns3:cad>
          </ns3:TrackPointExtension>
        </extensions>
      </trkpt>
      <trkpt lat="44.7205035947263240814208984375" lon="6.72127272002398967742919921875">
        <ele>2195.60009765625</ele>
        <time>2026-09-03T04:57:33.000Z</time>
        <extensions>
          <ns3:TrackPointExtension>
            <ns3:hr>111</ns3:hr>
            <ns3:cad>77</ns3:cad>
          </ns3:TrackPointExtension>
        </extensions>
      </trkpt>
      <trkpt lat="44.72049211151897907257080078125" lon="6.7212997935712337493896484375">
        <ele>2195.39990234375</ele>
        <time>2026-09-03T04:57:34.000Z</time>
        <extensions>
          <ns3:TrackPointExtension>
            <ns3:hr>111</ns3:hr>
            <ns3:cad>79</ns3:cad>
          </ns3:TrackPointExtension>
        </extensions>
      </trkpt>
      <trkpt lat="44.72046931274235248565673828125" lon="6.721328459680080413818359375">
        <ele>2195</ele>
        <time>2026-09-03T04:57:35.000Z</time>
        <extensions>
          <ns3:TrackPointExtension>
            <ns3:hr>112</ns3:hr>
            <ns3:cad>80</ns3:cad>
          </ns3:TrackPointExtension>
        </extensions>
      </trkpt>
      <trkpt lat="44.720449782907962799072265625" lon="6.7213457264006137847900390625">
        <ele>2195</ele>
        <time>2026-09-03T04:57:36.000Z</time>
        <extensions>
          <ns3:TrackPointExtension>
            <ns3:hr>112</ns3:hr>
            <ns3:cad>81</ns3:cad>
          </ns3:TrackPointExtension>
        </extensions>
      </trkpt>
      <trkpt lat="44.720428995788097381591796875" lon="6.7213722132146358489990234375">
        <ele>2194.800048828125</ele>
        <time>2026-09-03T04:57:37.000Z</time>
        <extensions>
          <ns3:TrackPointExtension>
            <ns3:hr>112</ns3:hr>
            <ns3:cad>81</ns3:cad>
          </ns3:TrackPointExtension>
        </extensions>
      </trkpt>
      <trkpt lat="44.720408208668231964111328125" lon="6.7213983647525310516357421875">
        <ele>2194.800048828125</ele>
        <time>2026-09-03T04:57:38.000Z</time>
        <extensions>
          <ns3:TrackPointExtension>
            <ns3:hr>112</ns3:hr>
            <ns3:cad>81</ns3:cad>
          </ns3:TrackPointExtension>
        </extensions>
      </trkpt>
      <trkpt lat="44.720400162041187286376953125" lon="6.721416302025318145751953125">
        <ele>2194.800048828125</ele>
        <time>2026-09-03T04:57:39.000Z</time>
        <extensions>
          <ns3:TrackPointExtension>
            <ns3:hr>113</ns3:hr>
            <ns3:cad>82</ns3:cad>
          </ns3:TrackPointExtension>
        </extensions>
      </trkpt>
      <trkpt lat="44.7203963063657283782958984375" lon="6.72143851406872272491455078125">
        <ele>2194.800048828125</ele>
        <time>2026-09-03T04:57:40.000Z</time>
        <extensions>
          <ns3:TrackPointExtension>
            <ns3:hr>113</ns3:hr>
            <ns3:cad>82</ns3:cad>
          </ns3:TrackPointExtension>
        </extensions>
      </trkpt>
      <trkpt lat="44.72039203159511089324951171875" lon="6.72145343385636806488037109375">
        <ele>2194.800048828125</ele>
        <time>2026-09-03T04:57:41.000Z</time>
        <extensions>
          <ns3:TrackPointExtension>
            <ns3:hr>113</ns3:hr>
            <ns3:cad>82</ns3:cad>
          </ns3:TrackPointExtension>
        </extensions>
      </trkpt>
      <trkpt lat="44.7203916124999523162841796875" lon="6.721459217369556427001953125">
        <ele>2194.800048828125</ele>
        <time>2026-09-03T04:57:42.000Z</time>
        <extensions>
          <ns3:TrackPointExtension>
            <ns3:hr>113</ns3:hr>
            <ns3:cad>82</ns3:cad>
          </ns3:TrackPointExtension>
        </extensions>
      </trkpt>
      <trkpt lat="44.7203896008431911468505859375" lon="6.7214684374630451202392578125">
        <ele>2194.800048828125</ele>
        <time>2026-09-03T04:57:43.000Z</time>
        <extensions>
          <ns3:TrackPointExtension>
            <ns3:hr>113</ns3:hr>
            <ns3:cad>81</ns3:cad>
          </ns3:TrackPointExtension>
        </extensions>
      </trkpt>
      <trkpt lat="44.7203859128057956695556640625" lon="6.7214771546423435211181640625">
        <ele>2194.60009765625</ele>
        <time>2026-09-03T04:57:44.000Z</time>
        <extensions>
          <ns3:TrackPointExtension>
            <ns3:hr>112</ns3:hr>
            <ns3:cad>81</ns3:cad>
          </ns3:TrackPointExtension>
        </extensions>
      </trkpt>
      <trkpt lat="44.7203810513019561767578125" lon="6.721491403877735137939453125">
        <ele>2194.39990234375</ele>
        <time>2026-09-03T04:57:45.000Z</time>
        <extensions>
          <ns3:TrackPointExtension>
            <ns3:hr>110</ns3:hr>
            <ns3:cad>81</ns3:cad>
          </ns3:TrackPointExtension>
        </extensions>
      </trkpt>
      <trkpt lat="44.720377027988433837890625" lon="6.72150338999927043914794921875">
        <ele>2194.39990234375</ele>
        <time>2026-09-03T04:57:46.000Z</time>
        <extensions>
          <ns3:TrackPointExtension>
            <ns3:hr>109</ns3:hr>
            <ns3:cad>81</ns3:cad>
          </ns3:TrackPointExtension>
        </extensions>
      </trkpt>
      <trkpt lat="44.7203738428652286529541015625" lon="6.72151898033916950225830078125">
        <ele>2194.199951171875</ele>
        <time>2026-09-03T04:57:47.000Z</time>
        <extensions>
          <ns3:TrackPointExtension>
            <ns3:hr>109</ns3:hr>
            <ns3:cad>61</ns3:cad>
          </ns3:TrackPointExtension>
        </extensions>
      </trkpt>
      <trkpt lat="44.7203721664845943450927734375" lon="6.72152258455753326416015625">
        <ele>2194</ele>
        <time>2026-09-03T04:57:48.000Z</time>
        <extensions>
          <ns3:TrackPointExtension>
            <ns3:hr>108</ns3:hr>
            <ns3:cad>57</ns3:cad>
          </ns3:TrackPointExtension>
        </extensions>
      </trkpt>
      <trkpt lat="44.7203703224658966064453125" lon="6.72153155319392681121826171875">
        <ele>2193.800048828125</ele>
        <time>2026-09-03T04:57:49.000Z</time>
        <extensions>
          <ns3:TrackPointExtension>
            <ns3:hr>108</ns3:hr>
            <ns3:cad>56</ns3:cad>
          </ns3:TrackPointExtension>
        </extensions>
      </trkpt>
      <trkpt lat="44.72037099301815032958984375" lon="6.72153993509709835052490234375">
        <ele>2193.800048828125</ele>
        <time>2026-09-03T04:57:50.000Z</time>
        <extensions>
          <ns3:TrackPointExtension>
            <ns3:hr>108</ns3:hr>
            <ns3:cad>56</ns3:cad>
          </ns3:TrackPointExtension>
        </extensions>
      </trkpt>
      <trkpt lat="44.72037677653133869171142578125" lon="6.7215554416179656982421875">
        <ele>2193.60009765625</ele>
        <time>2026-09-03T04:57:51.000Z</time>
        <extensions>
          <ns3:TrackPointExtension>
            <ns3:hr>107</ns3:hr>
            <ns3:cad>56</ns3:cad>
          </ns3:TrackPointExtension>
        </extensions>
      </trkpt>
      <trkpt lat="44.72037510015070438385009765625" lon="6.72156608663499355316162109375">
        <ele>2193.60009765625</ele>
        <time>2026-09-03T04:57:52.000Z</time>
        <extensions>
          <ns3:TrackPointExtension>
            <ns3:hr>106</ns3:hr>
            <ns3:cad>60</ns3:cad>
          </ns3:TrackPointExtension>
        </extensions>
      </trkpt>
      <trkpt lat="44.7203738428652286529541015625" lon="6.72158293426036834716796875">
        <ele>2193.199951171875</ele>
        <time>2026-09-03T04:57:53.000Z</time>
        <extensions>
          <ns3:TrackPointExtension>
            <ns3:hr>106</ns3:hr>
            <ns3:cad>61</ns3:cad>
          </ns3:TrackPointExtension>
        </extensions>
      </trkpt>
      <trkpt lat="44.72037099301815032958984375" lon="6.721595339477062225341796875">
        <ele>2193</ele>
        <time>2026-09-03T04:57:54.000Z</time>
        <extensions>
          <ns3:TrackPointExtension>
            <ns3:hr>105</ns3:hr>
            <ns3:cad>61</ns3:cad>
          </ns3:TrackPointExtension>
        </extensions>
      </trkpt>
      <trkpt lat="44.720365963876247406005859375" lon="6.72160129062831401824951171875">
        <ele>2192.800048828125</ele>
        <time>2026-09-03T04:57:55.000Z</time>
        <extensions>
          <ns3:TrackPointExtension>
            <ns3:hr>104</ns3:hr>
            <ns3:cad>61</ns3:cad>
          </ns3:TrackPointExtension>
        </extensions>
      </trkpt>
      <trkpt lat="44.7203507088124752044677734375" lon="6.72159726731479167938232421875">
        <ele>2192.39990234375</ele>
        <time>2026-09-03T04:57:56.000Z</time>
        <extensions>
          <ns3:TrackPointExtension>
            <ns3:hr>103</ns3:hr>
            <ns3:cad>61</ns3:cad>
          </ns3:TrackPointExtension>
        </extensions>
      </trkpt>
      <trkpt lat="44.72034039907157421112060546875" lon="6.72159709967672824859619140625">
        <ele>2192.199951171875</ele>
        <time>2026-09-03T04:57:57.000Z</time>
        <extensions>
          <ns3:TrackPointExtension>
            <ns3:hr>102</ns3:hr>
            <ns3:cad>61</ns3:cad>
          </ns3:TrackPointExtension>
        </extensions>
      </trkpt>
      <trkpt lat="44.720333106815814971923828125" lon="6.72160514630377292633056640625">
        <ele>2192</ele>
        <time>2026-09-03T04:57:58.000Z</time>
        <extensions>
          <ns3:TrackPointExtension>
            <ns3:hr>102</ns3:hr>
            <ns3:cad>61</ns3:cad>
          </ns3:TrackPointExtension>
        </extensions>
      </trkpt>
      <trkpt lat="44.72032614983618259429931640625" lon="6.72161520458757877349853515625">
        <ele>2191.800048828125</ele>
        <time>2026-09-03T04:57:59.000Z</time>
        <extensions>
          <ns3:TrackPointExtension>
            <ns3:hr>102</ns3:hr>
            <ns3:cad>0</ns3:cad>
          </ns3:TrackPointExtension>
        </extensions>
      </trkpt>
      <trkpt lat="44.72032145597040653228759765625" lon="6.7216260172426700592041015625">
        <ele>2191.60009765625</ele>
        <time>2026-09-03T04:58:00.000Z</time>
        <extensions>
          <ns3:TrackPointExtension>
            <ns3:hr>101</ns3:hr>
            <ns3:cad>0</ns3:cad>
          </ns3:TrackPointExtension>
        </extensions>
      </trkpt>
      <trkpt lat="44.72031273879110813140869140625" lon="6.7216411046683788299560546875">
        <ele>2191.199951171875</ele>
        <time>2026-09-03T04:58:01.000Z</time>
        <extensions>
          <ns3:TrackPointExtension>
            <ns3:hr>101</ns3:hr>
            <ns3:cad>0</ns3:cad>
          </ns3:TrackPointExtension>
        </extensions>
      </trkpt>
      <trkpt lat="44.72030435688793659210205078125" lon="6.7216575331985950469970703125">
        <ele>2191</ele>
        <time>2026-09-03T04:58:02.000Z</time>
        <extensions>
          <ns3:TrackPointExtension>
            <ns3:hr>101</ns3:hr>
            <ns3:cad>0</ns3:cad>
          </ns3:TrackPointExtension>
        </extensions>
      </trkpt>
      <trkpt lat="44.72029932774603366851806640625" lon="6.7216679267585277557373046875">
        <ele>2190.800048828125</ele>
        <time>2026-09-03T04:58:03.000Z</time>
        <extensions>
          <ns3:TrackPointExtension>
            <ns3:hr>101</ns3:hr>
            <ns3:cad>0</ns3:cad>
          </ns3:TrackPointExtension>
        </extensions>
      </trkpt>
      <trkpt lat="44.72029547207057476043701171875" lon="6.72167739830911159515380859375">
        <ele>2190.39990234375</ele>
        <time>2026-09-03T04:58:04.000Z</time>
        <extensions>
          <ns3:TrackPointExtension>
            <ns3:hr>102</ns3:hr>
            <ns3:cad>0</ns3:cad>
          </ns3:TrackPointExtension>
        </extensions>
      </trkpt>
      <trkpt lat="44.720289520919322967529296875" lon="6.7216895520687103271484375">
        <ele>2190.199951171875</ele>
        <time>2026-09-03T04:58:05.000Z</time>
        <extensions>
          <ns3:TrackPointExtension>
            <ns3:hr>102</ns3:hr>
            <ns3:cad>0</ns3:cad>
          </ns3:TrackPointExtension>
        </extensions>
      </trkpt>
      <trkpt lat="44.72028004936873912811279296875" lon="6.72170606441795825958251953125">
        <ele>2190</ele>
        <time>2026-09-03T04:58:06.000Z</time>
        <extensions>
          <ns3:TrackPointExtension>
            <ns3:hr>102</ns3:hr>
            <ns3:cad>0</ns3:cad>
          </ns3:TrackPointExtension>
        </extensions>
      </trkpt>
      <trkpt lat="44.72026328556239604949951171875" lon="6.7217329703271389007568359375">
        <ele>2189.800048828125</ele>
        <time>2026-09-03T04:58:07.000Z</time>
        <extensions>
          <ns3:TrackPointExtension>
            <ns3:hr>103</ns3:hr>
            <ns3:cad>0</ns3:cad>
          </ns3:TrackPointExtension>
        </extensions>
      </trkpt>
      <trkpt lat="44.720251969993114471435546875" lon="6.721758954226970672607421875">
        <ele>2189.60009765625</ele>
        <time>2026-09-03T04:58:08.000Z</time>
        <extensions>
          <ns3:TrackPointExtension>
            <ns3:hr>103</ns3:hr>
            <ns3:cad>0</ns3:cad>
          </ns3:TrackPointExtension>
        </extensions>
      </trkpt>
      <trkpt lat="44.72024233080446720123291015625" lon="6.72177630476653575897216796875">
        <ele>2189.199951171875</ele>
        <time>2026-09-03T04:58:09.000Z</time>
        <extensions>
          <ns3:TrackPointExtension>
            <ns3:hr>103</ns3:hr>
            <ns3:cad>110</ns3:cad>
          </ns3:TrackPointExtension>
        </extensions>
      </trkpt>
      <trkpt lat="44.72023679874837398529052734375" lon="6.721790134906768798828125">
        <ele>2189</ele>
        <time>2026-09-03T04:58:10.000Z</time>
        <extensions>
          <ns3:TrackPointExtension>
            <ns3:hr>103</ns3:hr>
            <ns3:cad>110</ns3:cad>
          </ns3:TrackPointExtension>
        </extensions>
      </trkpt>
      <trkpt lat="44.72022925503551959991455078125" lon="6.72180748544633388519287109375">
        <ele>2188.60009765625</ele>
        <time>2026-09-03T04:58:11.000Z</time>
        <extensions>
          <ns3:TrackPointExtension>
            <ns3:hr>103</ns3:hr>
            <ns3:cad>110</ns3:cad>
          </ns3:TrackPointExtension>
        </extensions>
      </trkpt>
      <trkpt lat="44.7202169336378574371337890625" lon="6.72182760201394557952880859375">
        <ele>2188.39990234375</ele>
        <time>2026-09-03T04:58:12.000Z</time>
        <extensions>
          <ns3:TrackPointExtension>
            <ns3:hr>104</ns3:hr>
            <ns3:cad>110</ns3:cad>
          </ns3:TrackPointExtension>
        </extensions>
      </trkpt>
      <trkpt lat="44.7202005051076412200927734375" lon="6.7218419350683689117431640625">
        <ele>2188.199951171875</ele>
        <time>2026-09-03T04:58:13.000Z</time>
        <extensions>
          <ns3:TrackPointExtension>
            <ns3:hr>104</ns3:hr>
            <ns3:cad>110</ns3:cad>
          </ns3:TrackPointExtension>
        </extensions>
      </trkpt>
      <trkpt lat="44.72018499858677387237548828125" lon="6.72185760922729969024658203125">
        <ele>2188</ele>
        <time>2026-09-03T04:58:14.000Z</time>
        <extensions>
          <ns3:TrackPointExtension>
            <ns3:hr>104</ns3:hr>
            <ns3:cad>80</ns3:cad>
          </ns3:TrackPointExtension>
        </extensions>
      </trkpt>
      <trkpt lat="44.72018583677709102630615234375" lon="6.72187554650008678436279296875">
        <ele>2187.800048828125</ele>
        <time>2026-09-03T04:58:15.000Z</time>
        <extensions>
          <ns3:TrackPointExtension>
            <ns3:hr>105</ns3:hr>
            <ns3:cad>80</ns3:cad>
          </ns3:TrackPointExtension>
        </extensions>
      </trkpt>
      <trkpt lat="44.72017242573201656341552734375" lon="6.7218835093080997467041015625">
        <ele>2187.60009765625</ele>
        <time>2026-09-03T04:58:16.000Z</time>
        <extensions>
          <ns3:TrackPointExtension>
            <ns3:hr>105</ns3:hr>
            <ns3:cad>80</ns3:cad>
          </ns3:TrackPointExtension>
        </extensions>
      </trkpt>
      <trkpt lat="44.72015985287725925445556640625" lon="6.72188795171678066253662109375">
        <ele>2187.39990234375</ele>
        <time>2026-09-03T04:58:17.000Z</time>
        <extensions>
          <ns3:TrackPointExtension>
            <ns3:hr>106</ns3:hr>
            <ns3:cad>80</ns3:cad>
          </ns3:TrackPointExtension>
        </extensions>
      </trkpt>
      <trkpt lat="44.72014610655605792999267578125" lon="6.72189331613481044769287109375">
        <ele>2187</ele>
        <time>2026-09-03T04:58:18.000Z</time>
        <extensions>
          <ns3:TrackPointExtension>
            <ns3:hr>106</ns3:hr>
            <ns3:cad>73</ns3:cad>
          </ns3:TrackPointExtension>
        </extensions>
      </trkpt>
      <trkpt lat="44.72013755701482295989990234375" lon="6.72190153039991855621337890625">
        <ele>2186.800048828125</ele>
        <time>2026-09-03T04:58:19.000Z</time>
        <extensions>
          <ns3:TrackPointExtension>
            <ns3:hr>106</ns3:hr>
            <ns3:cad>73</ns3:cad>
          </ns3:TrackPointExtension>
        </extensions>
      </trkpt>
      <trkpt lat="44.72013437189161777496337890625" lon="6.72190337441861629486083984375">
        <ele>2186.60009765625</ele>
        <time>2026-09-03T04:58:20.000Z</time>
        <extensions>
          <ns3:TrackPointExtension>
            <ns3:hr>107</ns3:hr>
            <ns3:cad>73</ns3:cad>
          </ns3:TrackPointExtension>
        </extensions>
      </trkpt>
      <trkpt lat="44.7201334498822689056396484375" lon="6.72190639190375804901123046875">
        <ele>2186.39990234375</ele>
        <time>2026-09-03T04:58:21.000Z</time>
        <extensions>
          <ns3:TrackPointExtension>
            <ns3:hr>106</ns3:hr>
            <ns3:cad>17</ns3:cad>
          </ns3:TrackPointExtension>
        </extensions>
      </trkpt>
      <trkpt lat="44.72013286314904689788818359375" lon="6.72192198224365711212158203125">
        <ele>2186.39990234375</ele>
        <time>2026-09-03T04:58:22.000Z</time>
        <extensions>
          <ns3:TrackPointExtension>
            <ns3:hr>106</ns3:hr>
            <ns3:cad>17</ns3:cad>
          </ns3:TrackPointExtension>
        </extensions>
      </trkpt>
      <trkpt lat="44.7201307676732540130615234375" lon="6.721931286156177520751953125">
        <ele>2186</ele>
        <time>2026-09-03T04:58:23.000Z</time>
        <extensions>
          <ns3:TrackPointExtension>
            <ns3:hr>106</ns3:hr>
            <ns3:cad>17</ns3:cad>
          </ns3:TrackPointExtension>
        </extensions>
      </trkpt>
      <trkpt lat="44.7201230563223361968994140625" lon="6.72193690203130245208740234375">
        <ele>2185.800048828125</ele>
        <time>2026-09-03T04:58:24.000Z</time>
        <extensions>
          <ns3:TrackPointExtension>
            <ns3:hr>106</ns3:hr>
            <ns3:cad>0</ns3:cad>
          </ns3:TrackPointExtension>
        </extensions>
      </trkpt>
      <trkpt lat="44.720121882855892181396484375" lon="6.72195115126669406890869140625">
        <ele>2185.60009765625</ele>
        <time>2026-09-03T04:58:25.000Z</time>
        <extensions>
          <ns3:TrackPointExtension>
            <ns3:hr>105</ns3:hr>
            <ns3:cad>0</ns3:cad>
          </ns3:TrackPointExtension>
        </extensions>
      </trkpt>
      <trkpt lat="44.72011676989495754241943359375" lon="6.7219596169888973236083984375">
        <ele>2185.199951171875</ele>
        <time>2026-09-03T04:58:26.000Z</time>
        <extensions>
          <ns3:TrackPointExtension>
            <ns3:hr>105</ns3:hr>
            <ns3:cad>0</ns3:cad>
          </ns3:TrackPointExtension>
        </extensions>
      </trkpt>
      <trkpt lat="44.72010838799178600311279296875" lon="6.721966154873371124267578125">
        <ele>2185</ele>
        <time>2026-09-03T04:58:27.000Z</time>
        <extensions>
          <ns3:TrackPointExtension>
            <ns3:hr>105</ns3:hr>
            <ns3:cad>0</ns3:cad>
          </ns3:TrackPointExtension>
        </extensions>
      </trkpt>
      <trkpt lat="44.72009682096540927886962890625" lon="6.721979565918445587158203125">
        <ele>2184.60009765625</ele>
        <time>2026-09-03T04:58:28.000Z</time>
        <extensions>
          <ns3:TrackPointExtension>
            <ns3:hr>104</ns3:hr>
            <ns3:cad>0</ns3:cad>
          </ns3:TrackPointExtension>
        </extensions>
      </trkpt>
      <trkpt lat="44.72008374519646167755126953125" lon="6.72198836691677570343017578125">
        <ele>2184.39990234375</ele>
        <time>2026-09-03T04:58:29.000Z</time>
        <extensions>
          <ns3:TrackPointExtension>
            <ns3:hr>104</ns3:hr>
            <ns3:cad>0</ns3:cad>
          </ns3:TrackPointExtension>
        </extensions>
      </trkpt>
      <trkpt lat="44.720080979168415069580078125" lon="6.72200999222695827484130859375">
        <ele>2184</ele>
        <time>2026-09-03T04:58:30.000Z</time>
        <extensions>
          <ns3:TrackPointExtension>
            <ns3:hr>104</ns3:hr>
            <ns3:cad>0</ns3:cad>
          </ns3:TrackPointExtension>
        </extensions>
      </trkpt>
      <trkpt lat="44.7200710885226726531982421875" lon="6.7220283485949039459228515625">
        <ele>2183.60009765625</ele>
        <time>2026-09-03T04:58:31.000Z</time>
        <extensions>
          <ns3:TrackPointExtension>
            <ns3:hr>104</ns3:hr>
            <ns3:cad>0</ns3:cad>
          </ns3:TrackPointExtension>
        </extensions>
      </trkpt>
      <trkpt lat="44.720055498182773590087890625" lon="6.72204569913446903228759765625">
        <ele>2183.199951171875</ele>
        <time>2026-09-03T04:58:32.000Z</time>
        <extensions>
          <ns3:TrackPointExtension>
            <ns3:hr>104</ns3:hr>
            <ns3:cad>0</ns3:cad>
          </ns3:TrackPointExtension>
        </extensions>
      </trkpt>
      <trkpt lat="44.72004150040447711944580078125" lon="6.72206036746501922607421875">
        <ele>2182.60009765625</ele>
        <time>2026-09-03T04:58:33.000Z</time>
        <extensions>
          <ns3:TrackPointExtension>
            <ns3:hr>104</ns3:hr>
            <ns3:cad>0</ns3:cad>
          </ns3:TrackPointExtension>
        </extensions>
      </trkpt>
      <trkpt lat="44.72003043629229068756103515625" lon="6.72206464223563671112060546875">
        <ele>2182.39990234375</ele>
        <time>2026-09-03T04:58:34.000Z</time>
        <extensions>
          <ns3:TrackPointExtension>
            <ns3:hr>104</ns3:hr>
            <ns3:cad>65</ns3:cad>
          </ns3:TrackPointExtension>
        </extensions>
      </trkpt>
      <trkpt lat="44.72001769579946994781494140625" lon="6.722072772681713104248046875">
        <ele>2182</ele>
        <time>2026-09-03T04:58:35.000Z</time>
        <extensions>
          <ns3:TrackPointExtension>
            <ns3:hr>103</ns3:hr>
            <ns3:cad>65</ns3:cad>
          </ns3:TrackPointExtension>
        </extensions>
      </trkpt>
      <trkpt lat="44.72000260837376117706298828125" lon="6.72208584845066070556640625">
        <ele>2181.800048828125</ele>
        <time>2026-09-03T04:58:36.000Z</time>
        <extensions>
          <ns3:TrackPointExtension>
            <ns3:hr>103</ns3:hr>
            <ns3:cad>0</ns3:cad>
          </ns3:TrackPointExtension>
        </extensions>
      </trkpt>
      <trkpt lat="44.719981737434864044189453125" lon="6.72210118733346462249755859375">
        <ele>2181.60009765625</ele>
        <time>2026-09-03T04:58:37.000Z</time>
        <extensions>
          <ns3:TrackPointExtension>
            <ns3:hr>103</ns3:hr>
            <ns3:cad>0</ns3:cad>
          </ns3:TrackPointExtension>
        </extensions>
      </trkpt>
      <trkpt lat="44.71996807493269443511962890625" lon="6.72211174853146076202392578125">
        <ele>2181.199951171875</ele>
        <time>2026-09-03T04:58:38.000Z</time>
        <extensions>
          <ns3:TrackPointExtension>
            <ns3:hr>103</ns3:hr>
            <ns3:cad>71</ns3:cad>
          </ns3:TrackPointExtension>
        </extensions>
      </trkpt>
      <trkpt lat="44.71995248459279537200927734375" lon="6.72213002108037471771240234375">
        <ele>2181</ele>
        <time>2026-09-03T04:58:39.000Z</time>
        <extensions>
          <ns3:TrackPointExtension>
            <ns3:hr>103</ns3:hr>
            <ns3:cad>71</ns3:cad>
          </ns3:TrackPointExtension>
        </extensions>
      </trkpt>
      <trkpt lat="44.71993773244321346282958984375" lon="6.7221487127244472503662109375">
        <ele>2180.60009765625</ele>
        <time>2026-09-03T04:58:40.000Z</time>
        <extensions>
          <ns3:TrackPointExtension>
            <ns3:hr>103</ns3:hr>
            <ns3:cad>75</ns3:cad>
          </ns3:TrackPointExtension>
        </extensions>
      </trkpt>
      <trkpt lat="44.719926416873931884765625" lon="6.72216321341693401336669921875">
        <ele>2180.199951171875</ele>
        <time>2026-09-03T04:58:41.000Z</time>
        <extensions>
          <ns3:TrackPointExtension>
            <ns3:hr>103</ns3:hr>
            <ns3:cad>75</ns3:cad>
          </ns3:TrackPointExtension>
        </extensions>
      </trkpt>
      <trkpt lat="44.719918034970760345458984375" lon="6.722175367176532745361328125">
        <ele>2179.800048828125</ele>
        <time>2026-09-03T04:58:42.000Z</time>
        <extensions>
          <ns3:TrackPointExtension>
            <ns3:hr>103</ns3:hr>
            <ns3:cad>75</ns3:cad>
          </ns3:TrackPointExtension>
        </extensions>
      </trkpt>
      <trkpt lat="44.7198994271457195281982421875" lon="6.72218064777553081512451171875">
        <ele>2179.60009765625</ele>
        <time>2026-09-03T04:58:43.000Z</time>
        <extensions>
          <ns3:TrackPointExtension>
            <ns3:hr>103</ns3:hr>
            <ns3:cad>75</ns3:cad>
          </ns3:TrackPointExtension>
        </extensions>
      </trkpt>
      <trkpt lat="44.7198846749961376190185546875" lon="6.722178719937801361083984375">
        <ele>2179.199951171875</ele>
        <time>2026-09-03T04:58:44.000Z</time>
        <extensions>
          <ns3:TrackPointExtension>
            <ns3:hr>103</ns3:hr>
            <ns3:cad>76</ns3:cad>
          </ns3:TrackPointExtension>
        </extensions>
      </trkpt>
      <trkpt lat="44.71987419761717319488525390625" lon="6.722176708281040191650390625">
        <ele>2179</ele>
        <time>2026-09-03T04:58:45.000Z</time>
        <extensions>
          <ns3:TrackPointExtension>
            <ns3:hr>104</ns3:hr>
            <ns3:cad>79</ns3:cad>
          </ns3:TrackPointExtension>
        </extensions>
      </trkpt>
      <trkpt lat="44.7198746167123317718505859375" lon="6.7221844196319580078125">
        <ele>2178.800048828125</ele>
        <time>2026-09-03T04:58:46.000Z</time>
        <extensions>
          <ns3:TrackPointExtension>
            <ns3:hr>103</ns3:hr>
            <ns3:cad>79</ns3:cad>
          </ns3:TrackPointExtension>
        </extensions>
      </trkpt>
      <trkpt lat="44.7198759578168392181396484375" lon="6.72219808213412761688232421875">
        <ele>2178.60009765625</ele>
        <time>2026-09-03T04:58:47.000Z</time>
        <extensions>
          <ns3:TrackPointExtension>
            <ns3:hr>103</ns3:hr>
            <ns3:cad>79</ns3:cad>
          </ns3:TrackPointExtension>
        </extensions>
      </trkpt>
      <trkpt lat="44.71986715681850910186767578125" lon="6.72221970744431018829345703125">
        <ele>2178.60009765625</ele>
        <time>2026-09-03T04:58:48.000Z</time>
        <extensions>
          <ns3:TrackPointExtension>
            <ns3:hr>103</ns3:hr>
            <ns3:cad>77</ns3:cad>
          </ns3:TrackPointExtension>
        </extensions>
      </trkpt>
      <trkpt lat="44.71985709853470325469970703125" lon="6.7222321964800357818603515625">
        <ele>2178.199951171875</ele>
        <time>2026-09-03T04:58:49.000Z</time>
        <extensions>
          <ns3:TrackPointExtension>
            <ns3:hr>103</ns3:hr>
            <ns3:cad>77</ns3:cad>
          </ns3:TrackPointExtension>
        </extensions>
      </trkpt>
      <trkpt lat="44.7198524884879589080810546875" lon="6.72224569134414196014404296875">
        <ele>2177.800048828125</ele>
        <time>2026-09-03T04:58:50.000Z</time>
        <extensions>
          <ns3:TrackPointExtension>
            <ns3:hr>102</ns3:hr>
            <ns3:cad>77</ns3:cad>
          </ns3:TrackPointExtension>
        </extensions>
      </trkpt>
      <trkpt lat="44.7198434360325336456298828125" lon="6.722263209521770477294921875">
        <ele>2177.60009765625</ele>
        <time>2026-09-03T04:58:51.000Z</time>
        <extensions>
          <ns3:TrackPointExtension>
            <ns3:hr>102</ns3:hr>
            <ns3:cad>77</ns3:cad>
          </ns3:TrackPointExtension>
        </extensions>
      </trkpt>
      <trkpt lat="44.71982675604522228240966796875" lon="6.72228273935616016387939453125">
        <ele>2177.199951171875</ele>
        <time>2026-09-03T04:58:52.000Z</time>
        <extensions>
          <ns3:TrackPointExtension>
            <ns3:hr>102</ns3:hr>
            <ns3:cad>77</ns3:cad>
          </ns3:TrackPointExtension>
        </extensions>
      </trkpt>
      <trkpt lat="44.71981887705624103546142578125" lon="6.72229363583028316497802734375">
        <ele>2176.800048828125</ele>
        <time>2026-09-03T04:58:53.000Z</time>
        <extensions>
          <ns3:TrackPointExtension>
            <ns3:hr>102</ns3:hr>
            <ns3:cad>77</ns3:cad>
          </ns3:TrackPointExtension>
        </extensions>
      </trkpt>
      <trkpt lat="44.71980848349630832672119140625" lon="6.7223062925040721893310546875">
        <ele>2176.39990234375</ele>
        <time>2026-09-03T04:58:54.000Z</time>
        <extensions>
          <ns3:TrackPointExtension>
            <ns3:hr>102</ns3:hr>
            <ns3:cad>77</ns3:cad>
          </ns3:TrackPointExtension>
        </extensions>
      </trkpt>
      <trkpt lat="44.7198011912405490875244140625" lon="6.722320877015590667724609375">
        <ele>2176.199951171875</ele>
        <time>2026-09-03T04:58:55.000Z</time>
        <extensions>
          <ns3:TrackPointExtension>
            <ns3:hr>102</ns3:hr>
            <ns3:cad>77</ns3:cad>
          </ns3:TrackPointExtension>
        </extensions>
      </trkpt>
      <trkpt lat="44.71979624591767787933349609375" lon="6.72234090976417064666748046875">
        <ele>2175.800048828125</ele>
        <time>2026-09-03T04:58:56.000Z</time>
        <extensions>
          <ns3:TrackPointExtension>
            <ns3:hr>103</ns3:hr>
            <ns3:cad>77</ns3:cad>
          </ns3:TrackPointExtension>
        </extensions>
      </trkpt>
      <trkpt lat="44.71978962421417236328125" lon="6.72235834412276744842529296875">
        <ele>2175.39990234375</ele>
        <time>2026-09-03T04:58:57.000Z</time>
        <extensions>
          <ns3:TrackPointExtension>
            <ns3:hr>102</ns3:hr>
            <ns3:cad>68</ns3:cad>
          </ns3:TrackPointExtension>
        </extensions>
      </trkpt>
      <trkpt lat="44.7197720222175121307373046875" lon="6.7223736830055713653564453125">
        <ele>2175.199951171875</ele>
        <time>2026-09-03T04:58:58.000Z</time>
        <extensions>
          <ns3:TrackPointExtension>
            <ns3:hr>101</ns3:hr>
            <ns3:cad>0</ns3:cad>
          </ns3:TrackPointExtension>
        </extensions>
      </trkpt>
      <trkpt lat="44.7197572700679302215576171875" lon="6.72238290309906005859375">
        <ele>2175</ele>
        <time>2026-09-03T04:58:59.000Z</time>
        <extensions>
          <ns3:TrackPointExtension>
            <ns3:hr>100</ns3:hr>
            <ns3:cad>0</ns3:cad>
          </ns3:TrackPointExtension>
        </extensions>
      </trkpt>
      <trkpt lat="44.719742350280284881591796875" lon="6.72239237464964389801025390625">
        <ele>2174.800048828125</ele>
        <time>2026-09-03T04:59:00.000Z</time>
        <extensions>
          <ns3:TrackPointExtension>
            <ns3:hr>100</ns3:hr>
            <ns3:cad>40</ns3:cad>
          </ns3:TrackPointExtension>
        </extensions>
      </trkpt>
      <trkpt lat="44.71973723731935024261474609375" lon="6.7224028520286083221435546875">
        <ele>2174.60009765625</ele>
        <time>2026-09-03T04:59:01.000Z</time>
        <extensions>
          <ns3:TrackPointExtension>
            <ns3:hr>99</ns3:hr>
            <ns3:cad>40</ns3:cad>
          </ns3:TrackPointExtension>
        </extensions>
      </trkpt>
      <trkpt lat="44.7197391651570796966552734375" lon="6.7224164307117462158203125">
        <ele>2174.39990234375</ele>
        <time>2026-09-03T04:59:02.000Z</time>
        <extensions>
          <ns3:TrackPointExtension>
            <ns3:hr>99</ns3:hr>
            <ns3:cad>0</ns3:cad>
          </ns3:TrackPointExtension>
        </extensions>
      </trkpt>
      <trkpt lat="44.71973522566258907318115234375" lon="6.72242925502359867095947265625">
        <ele>2174.199951171875</ele>
        <time>2026-09-03T04:59:03.000Z</time>
        <extensions>
          <ns3:TrackPointExtension>
            <ns3:hr>99</ns3:hr>
            <ns3:cad>0</ns3:cad>
          </ns3:TrackPointExtension>
        </extensions>
      </trkpt>
      <trkpt lat="44.71972935833036899566650390625" lon="6.7224357090890407562255859375">
        <ele>2174</ele>
        <time>2026-09-03T04:59:04.000Z</time>
        <extensions>
          <ns3:TrackPointExtension>
            <ns3:hr>98</ns3:hr>
            <ns3:cad>0</ns3:cad>
          </ns3:TrackPointExtension>
        </extensions>
      </trkpt>
      <trkpt lat="44.71972164697945117950439453125" lon="6.722447611391544342041015625">
        <ele>2173.800048828125</ele>
        <time>2026-09-03T04:59:05.000Z</time>
        <extensions>
          <ns3:TrackPointExtension>
            <ns3:hr>98</ns3:hr>
            <ns3:cad>0</ns3:cad>
          </ns3:TrackPointExtension>
        </extensions>
      </trkpt>
      <trkpt lat="44.71971519291400909423828125" lon="6.72246077097952365875244140625">
        <ele>2173.39990234375</ele>
        <time>2026-09-03T04:59:06.000Z</time>
        <extensions>
          <ns3:TrackPointExtension>
            <ns3:hr>98</ns3:hr>
            <ns3:cad>0</ns3:cad>
          </ns3:TrackPointExtension>
        </extensions>
      </trkpt>
      <trkpt lat="44.71970756538212299346923828125" lon="6.722472421824932098388671875">
        <ele>2173.199951171875</ele>
        <time>2026-09-03T04:59:07.000Z</time>
        <extensions>
          <ns3:TrackPointExtension>
            <ns3:hr>98</ns3:hr>
            <ns3:cad>71</ns3:cad>
          </ns3:TrackPointExtension>
        </extensions>
      </trkpt>
      <trkpt lat="44.71969750709831714630126953125" lon="6.72248591668903827667236328125">
        <ele>2172.800048828125</ele>
        <time>2026-09-03T04:59:08.000Z</time>
        <extensions>
          <ns3:TrackPointExtension>
            <ns3:hr>98</ns3:hr>
            <ns3:cad>71</ns3:cad>
          </ns3:TrackPointExtension>
        </extensions>
      </trkpt>
      <trkpt lat="44.71968459896743297576904296875" lon="6.72249396331608295440673828125">
        <ele>2172.60009765625</ele>
        <time>2026-09-03T04:59:09.000Z</time>
        <extensions>
          <ns3:TrackPointExtension>
            <ns3:hr>98</ns3:hr>
            <ns3:cad>71</ns3:cad>
          </ns3:TrackPointExtension>
        </extensions>
      </trkpt>
      <trkpt lat="44.71966481767594814300537109375" lon="6.72250159084796905517578125">
        <ele>2172.199951171875</ele>
        <time>2026-09-03T04:59:10.000Z</time>
        <extensions>
          <ns3:TrackPointExtension>
            <ns3:hr>97</ns3:hr>
            <ns3:cad>71</ns3:cad>
          </ns3:TrackPointExtension>
        </extensions>
      </trkpt>
      <trkpt lat="44.71965174190700054168701171875" lon="6.722511984407901763916015625">
        <ele>2172</ele>
        <time>2026-09-03T04:59:11.000Z</time>
        <extensions>
          <ns3:TrackPointExtension>
            <ns3:hr>97</ns3:hr>
            <ns3:cad>71</ns3:cad>
          </ns3:TrackPointExtension>
        </extensions>
      </trkpt>
      <trkpt lat="44.719636403024196624755859375" lon="6.72252346761524677276611328125">
        <ele>2171.800048828125</ele>
        <time>2026-09-03T04:59:12.000Z</time>
        <extensions>
          <ns3:TrackPointExtension>
            <ns3:hr>97</ns3:hr>
            <ns3:cad>71</ns3:cad>
          </ns3:TrackPointExtension>
        </extensions>
      </trkpt>
      <trkpt lat="44.719620645046234130859375" lon="6.7225372977554798126220703125">
        <ele>2171.60009765625</ele>
        <time>2026-09-03T04:59:13.000Z</time>
        <extensions>
          <ns3:TrackPointExtension>
            <ns3:hr>96</ns3:hr>
            <ns3:cad>71</ns3:cad>
          </ns3:TrackPointExtension>
        </extensions>
      </trkpt>
      <trkpt lat="44.7196137718856334686279296875" lon="6.72255448065698146820068359375">
        <ele>2171.39990234375</ele>
        <time>2026-09-03T04:59:14.000Z</time>
        <extensions>
          <ns3:TrackPointExtension>
            <ns3:hr>96</ns3:hr>
            <ns3:cad>71</ns3:cad>
          </ns3:TrackPointExtension>
        </extensions>
      </trkpt>
      <trkpt lat="44.7196107544004917144775390625" lon="6.72255364246666431427001953125">
        <ele>2171.199951171875</ele>
        <time>2026-09-03T04:59:15.000Z</time>
        <extensions>
          <ns3:TrackPointExtension>
            <ns3:hr>96</ns3:hr>
            <ns3:cad>71</ns3:cad>
          </ns3:TrackPointExtension>
        </extensions>
      </trkpt>
      <trkpt lat="44.71960949711501598358154296875" lon="6.72255682758986949920654296875">
        <ele>2171</ele>
        <time>2026-09-03T04:59:16.000Z</time>
        <extensions>
          <ns3:TrackPointExtension>
            <ns3:hr>96</ns3:hr>
            <ns3:cad>71</ns3:cad>
          </ns3:TrackPointExtension>
        </extensions>
      </trkpt>
      <trkpt lat="44.71960446797311305999755859375" lon="6.72257359139621257781982421875">
        <ele>2170.800048828125</ele>
        <time>2026-09-03T04:59:17.000Z</time>
        <extensions>
          <ns3:TrackPointExtension>
            <ns3:hr>96</ns3:hr>
            <ns3:cad>62</ns3:cad>
          </ns3:TrackPointExtension>
        </extensions>
      </trkpt>
      <trkpt lat="44.71959717571735382080078125" lon="6.72259337268769741058349609375">
        <ele>2170.60009765625</ele>
        <time>2026-09-03T04:59:18.000Z</time>
        <extensions>
          <ns3:TrackPointExtension>
            <ns3:hr>95</ns3:hr>
            <ns3:cad>62</ns3:cad>
          </ns3:TrackPointExtension>
        </extensions>
      </trkpt>
      <trkpt lat="44.7195906378328800201416015625" lon="6.7226073704659938812255859375">
        <ele>2170.39990234375</ele>
        <time>2026-09-03T04:59:19.000Z</time>
        <extensions>
          <ns3:TrackPointExtension>
            <ns3:hr>94</ns3:hr>
            <ns3:cad>125</ns3:cad>
          </ns3:TrackPointExtension>
        </extensions>
      </trkpt>
      <trkpt lat="44.7195822559297084808349609375" lon="6.72262539155781269073486328125">
        <ele>2170</ele>
        <time>2026-09-03T04:59:20.000Z</time>
        <extensions>
          <ns3:TrackPointExtension>
            <ns3:hr>92</ns3:hr>
            <ns3:cad>125</ns3:cad>
          </ns3:TrackPointExtension>
        </extensions>
      </trkpt>
      <trkpt lat="44.71957228146493434906005859375" lon="6.722642742097377777099609375">
        <ele>2169.800048828125</ele>
        <time>2026-09-03T04:59:21.000Z</time>
        <extensions>
          <ns3:TrackPointExtension>
            <ns3:hr>92</ns3:hr>
            <ns3:cad>125</ns3:cad>
          </ns3:TrackPointExtension>
        </extensions>
      </trkpt>
      <trkpt lat="44.71955937333405017852783203125" lon="6.72265657223761081695556640625">
        <ele>2169.39990234375</ele>
        <time>2026-09-03T04:59:22.000Z</time>
        <extensions>
          <ns3:TrackPointExtension>
            <ns3:hr>91</ns3:hr>
            <ns3:cad>125</ns3:cad>
          </ns3:TrackPointExtension>
        </extensions>
      </trkpt>
      <trkpt lat="44.71954487264156341552734375" lon="6.72267031855881214141845703125">
        <ele>2169</ele>
        <time>2026-09-03T04:59:23.000Z</time>
        <extensions>
          <ns3:TrackPointExtension>
            <ns3:hr>91</ns3:hr>
            <ns3:cad>125</ns3:cad>
          </ns3:TrackPointExtension>
        </extensions>
      </trkpt>
      <trkpt lat="44.7195346467196941375732421875" lon="6.722680963575839996337890625">
        <ele>2168.800048828125</ele>
        <time>2026-09-03T04:59:24.000Z</time>
        <extensions>
          <ns3:TrackPointExtension>
            <ns3:hr>91</ns3:hr>
            <ns3:cad>125</ns3:cad>
          </ns3:TrackPointExtension>
        </extensions>
      </trkpt>
      <trkpt lat="44.71952919848263263702392578125" lon="6.722689010202884674072265625">
        <ele>2168.39990234375</ele>
        <time>2026-09-03T04:59:25.000Z</time>
        <extensions>
          <ns3:TrackPointExtension>
            <ns3:hr>91</ns3:hr>
            <ns3:cad>125</ns3:cad>
          </ns3:TrackPointExtension>
        </extensions>
      </trkpt>
      <trkpt lat="44.7195374965667724609375" lon="6.72268741764128208160400390625">
        <ele>2168</ele>
        <time>2026-09-03T04:59:26.000Z</time>
        <extensions>
          <ns3:TrackPointExtension>
            <ns3:hr>91</ns3:hr>
            <ns3:cad>125</ns3:cad>
          </ns3:TrackPointExtension>
        </extensions>
      </trkpt>
      <trkpt lat="44.71954881213605403900146484375" lon="6.7226871661841869354248046875">
        <ele>2167.800048828125</ele>
        <time>2026-09-03T04:59:27.000Z</time>
        <extensions>
          <ns3:TrackPointExtension>
            <ns3:hr>90</ns3:hr>
            <ns3:cad>125</ns3:cad>
          </ns3:TrackPointExtension>
        </extensions>
      </trkpt>
      <trkpt lat="44.71955937333405017852783203125" lon="6.72269077040255069732666015625">
        <ele>2167.60009765625</ele>
        <time>2026-09-03T04:59:28.000Z</time>
        <extensions>
          <ns3:TrackPointExtension>
            <ns3:hr>91</ns3:hr>
            <ns3:cad>125</ns3:cad>
          </ns3:TrackPointExtension>
        </extensions>
      </trkpt>
      <trkpt lat="44.71957161091268062591552734375" lon="6.72269781120121479034423828125">
        <ele>2167.39990234375</ele>
        <time>2026-09-03T04:59:29.000Z</time>
        <extensions>
          <ns3:TrackPointExtension>
            <ns3:hr>91</ns3:hr>
            <ns3:cad>65</ns3:cad>
          </ns3:TrackPointExtension>
        </extensions>
      </trkpt>
      <trkpt lat="44.7195817530155181884765625" lon="6.72270133160054683685302734375">
        <ele>2167.199951171875</ele>
        <time>2026-09-03T04:59:30.000Z</time>
        <extensions>
          <ns3:TrackPointExtension>
            <ns3:hr>91</ns3:hr>
            <ns3:cad>61</ns3:cad>
          </ns3:TrackPointExtension>
        </extensions>
      </trkpt>
      <trkpt lat="44.71959340386092662811279296875" lon="6.72270049341022968292236328125">
        <ele>2166.800048828125</ele>
        <time>2026-09-03T04:59:31.000Z</time>
        <extensions>
          <ns3:TrackPointExtension>
            <ns3:hr>91</ns3:hr>
            <ns3:cad>61</ns3:cad>
          </ns3:TrackPointExtension>
        </extensions>
      </trkpt>
      <trkpt lat="44.719604887068271636962890625" lon="6.7227007448673248291015625">
        <ele>2166.60009765625</ele>
        <time>2026-09-03T04:59:32.000Z</time>
        <extensions>
          <ns3:TrackPointExtension>
            <ns3:hr>91</ns3:hr>
            <ns3:cad>61</ns3:cad>
          </ns3:TrackPointExtension>
        </extensions>
      </trkpt>
      <trkpt lat="44.71961972303688526153564453125" lon="6.72270409762859344482421875">
        <ele>2166.199951171875</ele>
        <time>2026-09-03T04:59:33.000Z</time>
        <extensions>
          <ns3:TrackPointExtension>
            <ns3:hr>90</ns3:hr>
            <ns3:cad>61</ns3:cad>
          </ns3:TrackPointExtension>
        </extensions>
      </trkpt>
      <trkpt lat="44.719636738300323486328125" lon="6.72270619310438632965087890625">
        <ele>2166</ele>
        <time>2026-09-03T04:59:34.000Z</time>
        <extensions>
          <ns3:TrackPointExtension>
            <ns3:hr>91</ns3:hr>
            <ns3:cad>61</ns3:cad>
          </ns3:TrackPointExtension>
        </extensions>
      </trkpt>
      <trkpt lat="44.71965081989765167236328125" lon="6.7227092944085597991943359375">
        <ele>2165.800048828125</ele>
        <time>2026-09-03T04:59:35.000Z</time>
        <extensions>
          <ns3:TrackPointExtension>
            <ns3:hr>91</ns3:hr>
            <ns3:cad>64</ns3:cad>
          </ns3:TrackPointExtension>
        </extensions>
      </trkpt>
      <trkpt lat="44.71966096200048923492431640625" lon="6.7227166704833507537841796875">
        <ele>2165.39990234375</ele>
        <time>2026-09-03T04:59:36.000Z</time>
        <extensions>
          <ns3:TrackPointExtension>
            <ns3:hr>91</ns3:hr>
            <ns3:cad>111</ns3:cad>
          </ns3:TrackPointExtension>
        </extensions>
      </trkpt>
      <trkpt lat="44.71967361867427825927734375" lon="6.72272823750972747802734375">
        <ele>2165.199951171875</ele>
        <time>2026-09-03T04:59:37.000Z</time>
        <extensions>
          <ns3:TrackPointExtension>
            <ns3:hr>91</ns3:hr>
            <ns3:cad>111</ns3:cad>
          </ns3:TrackPointExtension>
        </extensions>
      </trkpt>
      <trkpt lat="44.71969197504222393035888671875" lon="6.722742654383182525634765625">
        <ele>2164.800048828125</ele>
        <time>2026-09-03T04:59:38.000Z</time>
        <extensions>
          <ns3:TrackPointExtension>
            <ns3:hr>91</ns3:hr>
            <ns3:cad>111</ns3:cad>
          </ns3:TrackPointExtension>
        </extensions>
      </trkpt>
      <trkpt lat="44.719701111316680908203125" lon="6.72274592332541942596435546875">
        <ele>2164.60009765625</ele>
        <time>2026-09-03T04:59:39.000Z</time>
        <extensions>
          <ns3:TrackPointExtension>
            <ns3:hr>91</ns3:hr>
            <ns3:cad>111</ns3:cad>
          </ns3:TrackPointExtension>
        </extensions>
      </trkpt>
      <trkpt lat="44.71971158869564533233642578125" lon="6.722745001316070556640625">
        <ele>2164.199951171875</ele>
        <time>2026-09-03T04:59:40.000Z</time>
        <extensions>
          <ns3:TrackPointExtension>
            <ns3:hr>91</ns3:hr>
            <ns3:cad>111</ns3:cad>
          </ns3:TrackPointExtension>
        </extensions>
      </trkpt>
      <trkpt lat="44.7197213955223560333251953125" lon="6.7227444984018802642822265625">
        <ele>2164</ele>
        <time>2026-09-03T04:59:41.000Z</time>
        <extensions>
          <ns3:TrackPointExtension>
            <ns3:hr>91</ns3:hr>
            <ns3:cad>111</ns3:cad>
          </ns3:TrackPointExtension>
        </extensions>
      </trkpt>
      <trkpt lat="44.7197311185300350189208984375" lon="6.72274206764996051788330078125">
        <ele>2163.800048828125</ele>
        <time>2026-09-03T04:59:42.000Z</time>
        <extensions>
          <ns3:TrackPointExtension>
            <ns3:hr>91</ns3:hr>
            <ns3:cad>77</ns3:cad>
          </ns3:TrackPointExtension>
        </extensions>
      </trkpt>
      <trkpt lat="44.71973933279514312744140625" lon="6.72273695468902587890625">
        <ele>2163.60009765625</ele>
        <time>2026-09-03T04:59:43.000Z</time>
        <extensions>
          <ns3:TrackPointExtension>
            <ns3:hr>91</ns3:hr>
            <ns3:cad>77</ns3:cad>
          </ns3:TrackPointExtension>
        </extensions>
      </trkpt>
      <trkpt lat="44.71975031308829784393310546875" lon="6.7227304168045520782470703125">
        <ele>2163.199951171875</ele>
        <time>2026-09-03T04:59:44.000Z</time>
        <extensions>
          <ns3:TrackPointExtension>
            <ns3:hr>91</ns3:hr>
            <ns3:cad>66</ns3:cad>
          </ns3:TrackPointExtension>
        </extensions>
      </trkpt>
      <trkpt lat="44.71976271830499172210693359375" lon="6.7227173410356044769287109375">
        <ele>2163</ele>
        <time>2026-09-03T04:59:45.000Z</time>
        <extensions>
          <ns3:TrackPointExtension>
            <ns3:hr>92</ns3:hr>
            <ns3:cad>66</ns3:cad>
          </ns3:TrackPointExtension>
        </extensions>
      </trkpt>
      <trkpt lat="44.71977395005524158477783203125" lon="6.7227183468639850616455078125">
        <ele>2162.800048828125</ele>
        <time>2026-09-03T04:59:46.000Z</time>
        <extensions>
          <ns3:TrackPointExtension>
            <ns3:hr>91</ns3:hr>
            <ns3:cad>66</ns3:cad>
          </ns3:TrackPointExtension>
        </extensions>
      </trkpt>
      <trkpt lat="44.71978400833904743194580078125" lon="6.7227233760058879852294921875">
        <ele>2162.39990234375</ele>
        <time>2026-09-03T04:59:47.000Z</time>
        <extensions>
          <ns3:TrackPointExtension>
            <ns3:hr>91</ns3:hr>
            <ns3:cad>66</ns3:cad>
          </ns3:TrackPointExtension>
        </extensions>
      </trkpt>
      <trkpt lat="44.71979607827961444854736328125" lon="6.72271826304495334625244140625">
        <ele>2162.199951171875</ele>
        <time>2026-09-03T04:59:48.000Z</time>
        <extensions>
          <ns3:TrackPointExtension>
            <ns3:hr>91</ns3:hr>
            <ns3:cad>61</ns3:cad>
          </ns3:TrackPointExtension>
        </extensions>
      </trkpt>
      <trkpt lat="44.719808734953403472900390625" lon="6.72271608375012874603271484375">
        <ele>2162</ele>
        <time>2026-09-03T04:59:49.000Z</time>
        <extensions>
          <ns3:TrackPointExtension>
            <ns3:hr>91</ns3:hr>
            <ns3:cad>61</ns3:cad>
          </ns3:TrackPointExtension>
        </extensions>
      </trkpt>
      <trkpt lat="44.71981904469430446624755859375" lon="6.72272161580622196197509765625">
        <ele>2161.800048828125</ele>
        <time>2026-09-03T04:59:50.000Z</time>
        <extensions>
          <ns3:TrackPointExtension>
            <ns3:hr>91</ns3:hr>
            <ns3:cad>61</ns3:cad>
          </ns3:TrackPointExtension>
        </extensions>
      </trkpt>
      <trkpt lat="44.7198327071964740753173828125" lon="6.72272262163460254669189453125">
        <ele>2161.60009765625</ele>
        <time>2026-09-03T04:59:51.000Z</time>
        <extensions>
          <ns3:TrackPointExtension>
            <ns3:hr>91</ns3:hr>
            <ns3:cad>61</ns3:cad>
          </ns3:TrackPointExtension>
        </extensions>
      </trkpt>
      <trkpt lat="44.71984201110899448394775390625" lon="6.72272153198719024658203125">
        <ele>2161.199951171875</ele>
        <time>2026-09-03T04:59:52.000Z</time>
        <extensions>
          <ns3:TrackPointExtension>
            <ns3:hr>91</ns3:hr>
            <ns3:cad>61</ns3:cad>
          </ns3:TrackPointExtension>
        </extensions>
      </trkpt>
      <trkpt lat="44.7198514826595783233642578125" lon="6.72272060997784137725830078125">
        <ele>2161</ele>
        <time>2026-09-03T04:59:53.000Z</time>
        <extensions>
          <ns3:TrackPointExtension>
            <ns3:hr>90</ns3:hr>
            <ns3:cad>0</ns3:cad>
          </ns3:TrackPointExtension>
        </extensions>
      </trkpt>
      <trkpt lat="44.71985843963921070098876953125" lon="6.72271524555981159210205078125">
        <ele>2160.60009765625</ele>
        <time>2026-09-03T04:59:54.000Z</time>
        <extensions>
          <ns3:TrackPointExtension>
            <ns3:hr>90</ns3:hr>
            <ns3:cad>0</ns3:cad>
          </ns3:TrackPointExtension>
        </extensions>
      </trkpt>
      <trkpt lat="44.7198658995330333709716796875" lon="6.72270753420889377593994140625">
        <ele>2160.39990234375</ele>
        <time>2026-09-03T04:59:55.000Z</time>
        <extensions>
          <ns3:TrackPointExtension>
            <ns3:hr>90</ns3:hr>
            <ns3:cad>62</ns3:cad>
          </ns3:TrackPointExtension>
        </extensions>
      </trkpt>
      <trkpt lat="44.71987436525523662567138671875" lon="6.72270451672375202178955078125">
        <ele>2160.199951171875</ele>
        <time>2026-09-03T04:59:56.000Z</time>
        <extensions>
          <ns3:TrackPointExtension>
            <ns3:hr>90</ns3:hr>
            <ns3:cad>62</ns3:cad>
          </ns3:TrackPointExtension>
        </extensions>
      </trkpt>
      <trkpt lat="44.7198808193206787109375" lon="6.722707450389862060546875">
        <ele>2160</ele>
        <time>2026-09-03T04:59:57.000Z</time>
        <extensions>
          <ns3:TrackPointExtension>
            <ns3:hr>90</ns3:hr>
            <ns3:cad>62</ns3:cad>
          </ns3:TrackPointExtension>
        </extensions>
      </trkpt>
      <trkpt lat="44.71989012323319911956787109375" lon="6.72270485199987888336181640625">
        <ele>2159.800048828125</ele>
        <time>2026-09-03T04:59:58.000Z</time>
        <extensions>
          <ns3:TrackPointExtension>
            <ns3:hr>91</ns3:hr>
            <ns3:cad>62</ns3:cad>
          </ns3:TrackPointExtension>
        </extensions>
      </trkpt>
      <trkpt lat="44.7199007682502269744873046875" lon="6.722704432904720306396484375">
        <ele>2159.60009765625</ele>
        <time>2026-09-03T04:59:59.000Z</time>
        <extensions>
          <ns3:TrackPointExtension>
            <ns3:hr>90</ns3:hr>
            <ns3:cad>62</ns3:cad>
          </ns3:TrackPointExtension>
        </extensions>
      </trkpt>
      <trkpt lat="44.71991359256207942962646484375" lon="6.7227061092853546142578125">
        <ele>2159.199951171875</ele>
        <time>2026-09-03T05:00:00.000Z</time>
        <extensions>
          <ns3:TrackPointExtension>
            <ns3:hr>91</ns3:hr>
            <ns3:cad>62</ns3:cad>
          </ns3:TrackPointExtension>
        </extensions>
      </trkpt>
      <trkpt lat="44.7199235670268535614013671875" lon="6.72270099632441997528076171875">
        <ele>2159</ele>
        <time>2026-09-03T05:00:01.000Z</time>
        <extensions>
          <ns3:TrackPointExtension>
            <ns3:hr>91</ns3:hr>
            <ns3:cad>62</ns3:cad>
          </ns3:TrackPointExtension>
        </extensions>
      </trkpt>
      <trkpt lat="44.71993354149162769317626953125" lon="6.72269663773477077484130859375">
        <ele>2158.60009765625</ele>
        <time>2026-09-03T05:00:02.000Z</time>
        <extensions>
          <ns3:TrackPointExtension>
            <ns3:hr>91</ns3:hr>
            <ns3:cad>62</ns3:cad>
          </ns3:TrackPointExtension>
        </extensions>
      </trkpt>
      <trkpt lat="44.7199440188705921173095703125" lon="6.7226901836693286895751953125">
        <ele>2158.39990234375</ele>
        <time>2026-09-03T05:00:03.000Z</time>
        <extensions>
          <ns3:TrackPointExtension>
            <ns3:hr>91</ns3:hr>
            <ns3:cad>62</ns3:cad>
          </ns3:TrackPointExtension>
        </extensions>
      </trkpt>
      <trkpt lat="44.71995483152568340301513671875" lon="6.722686327993869781494140625">
        <ele>2158</ele>
        <time>2026-09-03T05:00:04.000Z</time>
        <extensions>
          <ns3:TrackPointExtension>
            <ns3:hr>91</ns3:hr>
            <ns3:cad>62</ns3:cad>
          </ns3:TrackPointExtension>
        </extensions>
      </trkpt>
      <trkpt lat="44.719966314733028411865234375" lon="6.72268171794712543487548828125">
        <ele>2157.800048828125</ele>
        <time>2026-09-03T05:00:05.000Z</time>
        <extensions>
          <ns3:TrackPointExtension>
            <ns3:hr>91</ns3:hr>
            <ns3:cad>62</ns3:cad>
          </ns3:TrackPointExtension>
        </extensions>
      </trkpt>
      <trkpt lat="44.7199792228639125823974609375" lon="6.72268398106098175048828125">
        <ele>2157.60009765625</ele>
        <time>2026-09-03T05:00:06.000Z</time>
        <extensions>
          <ns3:TrackPointExtension>
            <ns3:hr>91</ns3:hr>
            <ns3:cad>62</ns3:cad>
          </ns3:TrackPointExtension>
        </extensions>
      </trkpt>
      <trkpt lat="44.719989784061908721923828125" lon="6.7226861603558063507080078125">
        <ele>2157.199951171875</ele>
        <time>2026-09-03T05:00:07.000Z</time>
        <extensions>
          <ns3:TrackPointExtension>
            <ns3:hr>91</ns3:hr>
            <ns3:cad>62</ns3:cad>
          </ns3:TrackPointExtension>
        </extensions>
      </trkpt>
      <trkpt lat="44.71999774686992168426513671875" lon="6.7226868309080600738525390625">
        <ele>2157</ele>
        <time>2026-09-03T05:00:08.000Z</time>
        <extensions>
          <ns3:TrackPointExtension>
            <ns3:hr>92</ns3:hr>
            <ns3:cad>62</ns3:cad>
          </ns3:TrackPointExtension>
        </extensions>
      </trkpt>
      <trkpt lat="44.72000746987760066986083984375" lon="6.722685992717742919921875">
        <ele>2156.60009765625</ele>
        <time>2026-09-03T05:00:09.000Z</time>
        <extensions>
          <ns3:TrackPointExtension>
            <ns3:hr>92</ns3:hr>
            <ns3:cad>0</ns3:cad>
          </ns3:TrackPointExtension>
        </extensions>
      </trkpt>
      <trkpt lat="44.7200201265513896942138671875" lon="6.72268741764128208160400390625">
        <ele>2156.39990234375</ele>
        <time>2026-09-03T05:00:10.000Z</time>
        <extensions>
          <ns3:TrackPointExtension>
            <ns3:hr>92</ns3:hr>
            <ns3:cad>0</ns3:cad>
          </ns3:TrackPointExtension>
        </extensions>
      </trkpt>
      <trkpt lat="44.720031358301639556884765625" lon="6.7226864956319332122802734375">
        <ele>2156</ele>
        <time>2026-09-03T05:00:11.000Z</time>
        <extensions>
          <ns3:TrackPointExtension>
            <ns3:hr>92</ns3:hr>
            <ns3:cad>0</ns3:cad>
          </ns3:TrackPointExtension>
        </extensions>
      </trkpt>
      <trkpt lat="44.7200392372906208038330078125" lon="6.72268423251807689666748046875">
        <ele>2155.800048828125</ele>
        <time>2026-09-03T05:00:12.000Z</time>
        <extensions>
          <ns3:TrackPointExtension>
            <ns3:hr>92</ns3:hr>
            <ns3:cad>0</ns3:cad>
          </ns3:TrackPointExtension>
        </extensions>
      </trkpt>
      <trkpt lat="44.72005289979279041290283203125" lon="6.7226804606616497039794921875">
        <ele>2155.39990234375</ele>
        <time>2026-09-03T05:00:13.000Z</time>
        <extensions>
          <ns3:TrackPointExtension>
            <ns3:hr>92</ns3:hr>
            <ns3:cad>0</ns3:cad>
          </ns3:TrackPointExtension>
        </extensions>
      </trkpt>
      <trkpt lat="44.72006253898143768310546875" lon="6.7226791195571422576904296875">
        <ele>2155.199951171875</ele>
        <time>2026-09-03T05:00:14.000Z</time>
        <extensions>
          <ns3:TrackPointExtension>
            <ns3:hr>93</ns3:hr>
            <ns3:cad>0</ns3:cad>
          </ns3:TrackPointExtension>
        </extensions>
      </trkpt>
      <trkpt lat="44.72007871605455875396728515625" lon="6.72267719171941280364990234375">
        <ele>2154.800048828125</ele>
        <time>2026-09-03T05:00:15.000Z</time>
        <extensions>
          <ns3:TrackPointExtension>
            <ns3:hr>92</ns3:hr>
            <ns3:cad>0</ns3:cad>
          </ns3:TrackPointExtension>
        </extensions>
      </trkpt>
      <trkpt lat="44.72009900026023387908935546875" lon="6.72267450951039791107177734375">
        <ele>2154.60009765625</ele>
        <time>2026-09-03T05:00:16.000Z</time>
        <extensions>
          <ns3:TrackPointExtension>
            <ns3:hr>92</ns3:hr>
            <ns3:cad>0</ns3:cad>
          </ns3:TrackPointExtension>
        </extensions>
      </trkpt>
      <trkpt lat="44.72011442296206951141357421875" lon="6.722675263881683349609375">
        <ele>2154.199951171875</ele>
        <time>2026-09-03T05:00:17.000Z</time>
        <extensions>
          <ns3:TrackPointExtension>
            <ns3:hr>91</ns3:hr>
            <ns3:cad>0</ns3:cad>
          </ns3:TrackPointExtension>
        </extensions>
      </trkpt>
      <trkpt lat="44.72013227641582489013671875" lon="6.72266922891139984130859375">
        <ele>2154</ele>
        <time>2026-09-03T05:00:18.000Z</time>
        <extensions>
          <ns3:TrackPointExtension>
            <ns3:hr>91</ns3:hr>
            <ns3:cad>75</ns3:cad>
          </ns3:TrackPointExtension>
        </extensions>
      </trkpt>
      <trkpt lat="44.72014778293669223785400390625" lon="6.722664199769496917724609375">
        <ele>2153.60009765625</ele>
        <time>2026-09-03T05:00:19.000Z</time>
        <extensions>
          <ns3:TrackPointExtension>
            <ns3:hr>90</ns3:hr>
            <ns3:cad>75</ns3:cad>
          </ns3:TrackPointExtension>
        </extensions>
      </trkpt>
      <trkpt lat="44.72016178071498870849609375" lon="6.72266176901757717132568359375">
        <ele>2153.39990234375</ele>
        <time>2026-09-03T05:00:20.000Z</time>
        <extensions>
          <ns3:TrackPointExtension>
            <ns3:hr>89</ns3:hr>
            <ns3:cad>75</ns3:cad>
          </ns3:TrackPointExtension>
        </extensions>
      </trkpt>
      <trkpt lat="44.720175527036190032958984375" lon="6.72266713343560695648193359375">
        <ele>2153.199951171875</ele>
        <time>2026-09-03T05:00:21.000Z</time>
        <extensions>
          <ns3:TrackPointExtension>
            <ns3:hr>89</ns3:hr>
            <ns3:cad>75</ns3:cad>
          </ns3:TrackPointExtension>
        </extensions>
      </trkpt>
      <trkpt lat="44.72019371576607227325439453125" lon="6.72267165966331958770751953125">
        <ele>2153</ele>
        <time>2026-09-03T05:00:22.000Z</time>
        <extensions>
          <ns3:TrackPointExtension>
            <ns3:hr>89</ns3:hr>
            <ns3:cad>72</ns3:cad>
          </ns3:TrackPointExtension>
        </extensions>
      </trkpt>
      <trkpt lat="44.72021232359111309051513671875" lon="6.72267417423427104949951171875">
        <ele>2152.800048828125</ele>
        <time>2026-09-03T05:00:23.000Z</time>
        <extensions>
          <ns3:TrackPointExtension>
            <ns3:hr>88</ns3:hr>
            <ns3:cad>72</ns3:cad>
          </ns3:TrackPointExtension>
        </extensions>
      </trkpt>
      <trkpt lat="44.7202269919216632843017578125" lon="6.72267367132008075714111328125">
        <ele>2152.39990234375</ele>
        <time>2026-09-03T05:00:24.000Z</time>
        <extensions>
          <ns3:TrackPointExtension>
            <ns3:hr>88</ns3:hr>
            <ns3:cad>72</ns3:cad>
          </ns3:TrackPointExtension>
        </extensions>
      </trkpt>
      <trkpt lat="44.7202360443770885467529296875" lon="6.722674258053302764892578125">
        <ele>2152.199951171875</ele>
        <time>2026-09-03T05:00:25.000Z</time>
        <extensions>
          <ns3:TrackPointExtension>
            <ns3:hr>88</ns3:hr>
            <ns3:cad>72</ns3:cad>
          </ns3:TrackPointExtension>
        </extensions>
      </trkpt>
      <trkpt lat="44.72024484537541866302490234375" lon="6.72267685644328594207763671875">
        <ele>2152</ele>
        <time>2026-09-03T05:00:26.000Z</time>
        <extensions>
          <ns3:TrackPointExtension>
            <ns3:hr>88</ns3:hr>
            <ns3:cad>71</ns3:cad>
          </ns3:TrackPointExtension>
        </extensions>
      </trkpt>
      <trkpt lat="44.72025540657341480255126953125" lon="6.7226861603558063507080078125">
        <ele>2151.800048828125</ele>
        <time>2026-09-03T05:00:27.000Z</time>
        <extensions>
          <ns3:TrackPointExtension>
            <ns3:hr>89</ns3:hr>
            <ns3:cad>71</ns3:cad>
          </ns3:TrackPointExtension>
        </extensions>
      </trkpt>
      <trkpt lat="44.7202621959149837493896484375" lon="6.7226958833634853363037109375">
        <ele>2151.60009765625</ele>
        <time>2026-09-03T05:00:28.000Z</time>
        <extensions>
          <ns3:TrackPointExtension>
            <ns3:hr>88</ns3:hr>
            <ns3:cad>71</ns3:cad>
          </ns3:TrackPointExtension>
        </extensions>
      </trkpt>
      <trkpt lat="44.72026772797107696533203125" lon="6.722695045173168182373046875">
        <ele>2151.60009765625</ele>
        <time>2026-09-03T05:00:29.000Z</time>
        <extensions>
          <ns3:TrackPointExtension>
            <ns3:hr>88</ns3:hr>
            <ns3:cad>71</ns3:cad>
          </ns3:TrackPointExtension>
        </extensions>
      </trkpt>
      <trkpt lat="44.72027711570262908935546875" lon="6.7227012477815151214599609375">
        <ele>2151.39990234375</ele>
        <time>2026-09-03T05:00:30.000Z</time>
        <extensions>
          <ns3:TrackPointExtension>
            <ns3:hr>88</ns3:hr>
            <ns3:cad>71</ns3:cad>
          </ns3:TrackPointExtension>
        </extensions>
      </trkpt>
      <trkpt lat="44.72028273157775402069091796875" lon="6.7227052710950374603271484375">
        <ele>2151</ele>
        <time>2026-09-03T05:00:31.000Z</time>
        <extensions>
          <ns3:TrackPointExtension>
            <ns3:hr>89</ns3:hr>
            <ns3:cad>71</ns3:cad>
          </ns3:TrackPointExtension>
        </extensions>
      </trkpt>
      <trkpt lat="44.72028516232967376708984375" lon="6.7227005772292613983154296875">
        <ele>2150.800048828125</ele>
        <time>2026-09-03T05:00:32.000Z</time>
        <extensions>
          <ns3:TrackPointExtension>
            <ns3:hr>88</ns3:hr>
            <ns3:cad>71</ns3:cad>
          </ns3:TrackPointExtension>
        </extensions>
      </trkpt>
      <trkpt lat="44.72028709016740322113037109375" lon="6.72269965521991252899169921875">
        <ele>2150.60009765625</ele>
        <time>2026-09-03T05:00:33.000Z</time>
        <extensions>
          <ns3:TrackPointExtension>
            <ns3:hr>88</ns3:hr>
            <ns3:cad>71</ns3:cad>
          </ns3:TrackPointExtension>
        </extensions>
      </trkpt>
      <trkpt lat="44.720284156501293182373046875" lon="6.722701080143451690673828125">
        <ele>2150.39990234375</ele>
        <time>2026-09-03T05:00:34.000Z</time>
        <extensions>
          <ns3:TrackPointExtension>
            <ns3:hr>88</ns3:hr>
            <ns3:cad>0</ns3:cad>
          </ns3:TrackPointExtension>
        </extensions>
      </trkpt>
      <trkpt lat="44.720284156501293182373046875" lon="6.722701080143451690673828125">
        <ele>2150.39990234375</ele>
        <time>2026-09-03T05:00:35.000Z</time>
        <extensions>
          <ns3:TrackPointExtension>
            <ns3:hr>88</ns3:hr>
            <ns3:cad>0</ns3:cad>
          </ns3:TrackPointExtension>
        </extensions>
      </trkpt>
      <trkpt lat="44.720284156501293182373046875" lon="6.722701080143451690673828125">
        <ele>2150.39990234375</ele>
        <time>2026-09-03T05:00:36.000Z</time>
        <extensions>
          <ns3:TrackPointExtension>
            <ns3:hr>89</ns3:hr>
            <ns3:cad>0</ns3:cad>
          </ns3:TrackPointExtension>
        </extensions>
      </trkpt>
      <trkpt lat="44.720284156501293182373046875" lon="6.722701080143451690673828125">
        <ele>2150.39990234375</ele>
        <time>2026-09-03T05:00:37.000Z</time>
        <extensions>
          <ns3:TrackPointExtension>
            <ns3:hr>88</ns3:hr>
            <ns3:cad>0</ns3:cad>
          </ns3:TrackPointExtension>
        </extensions>
      </trkpt>
      <trkpt lat="44.720284156501293182373046875" lon="6.722701080143451690673828125">
        <ele>2150.60009765625</ele>
        <time>2026-09-03T05:00:38.000Z</time>
        <extensions>
          <ns3:TrackPointExtension>
            <ns3:hr>88</ns3:hr>
            <ns3:cad>0</ns3:cad>
          </ns3:TrackPointExtension>
        </extensions>
      </trkpt>
      <trkpt lat="44.720284156501293182373046875" lon="6.722701080143451690673828125">
        <ele>2150.60009765625</ele>
        <time>2026-09-03T05:00:39.000Z</time>
        <extensions>
          <ns3:TrackPointExtension>
            <ns3:hr>88</ns3:hr>
            <ns3:cad>0</ns3:cad>
          </ns3:TrackPointExtension>
        </extensions>
      </trkpt>
      <trkpt lat="44.720284156501293182373046875" lon="6.722701080143451690673828125">
        <ele>2150.60009765625</ele>
        <time>2026-09-03T05:00:40.000Z</time>
        <extensions>
          <ns3:TrackPointExtension>
            <ns3:hr>88</ns3:hr>
            <ns3:cad>0</ns3:cad>
          </ns3:TrackPointExtension>
        </extensions>
      </trkpt>
      <trkpt lat="44.720284156501293182373046875" lon="6.722701080143451690673828125">
        <ele>2150.60009765625</ele>
        <time>2026-09-03T05:00:41.000Z</time>
        <extensions>
          <ns3:TrackPointExtension>
            <ns3:hr>90</ns3:hr>
            <ns3:cad>0</ns3:cad>
          </ns3:TrackPointExtension>
        </extensions>
      </trkpt>
      <trkpt lat="44.720284156501293182373046875" lon="6.722701080143451690673828125">
        <ele>2150.60009765625</ele>
        <time>2026-09-03T05:00:42.000Z</time>
        <extensions>
          <ns3:TrackPointExtension>
            <ns3:hr>93</ns3:hr>
            <ns3:cad>0</ns3:cad>
          </ns3:TrackPointExtension>
        </extensions>
      </trkpt>
      <trkpt lat="44.720284156501293182373046875" lon="6.722701080143451690673828125">
        <ele>2150.60009765625</ele>
        <time>2026-09-03T05:00:43.000Z</time>
        <extensions>
          <ns3:TrackPointExtension>
            <ns3:hr>95</ns3:hr>
            <ns3:cad>0</ns3:cad>
          </ns3:TrackPointExtension>
        </extensions>
      </trkpt>
      <trkpt lat="44.720284156501293182373046875" lon="6.722701080143451690673828125">
        <ele>2150.60009765625</ele>
        <time>2026-09-03T05:00:44.000Z</time>
        <extensions>
          <ns3:TrackPointExtension>
            <ns3:hr>97</ns3:hr>
            <ns3:cad>0</ns3:cad>
          </ns3:TrackPointExtension>
        </extensions>
      </trkpt>
      <trkpt lat="44.720284156501293182373046875" lon="6.722701080143451690673828125">
        <ele>2150.800048828125</ele>
        <time>2026-09-03T05:00:45.000Z</time>
        <extensions>
          <ns3:TrackPointExtension>
            <ns3:hr>97</ns3:hr>
            <ns3:cad>0</ns3:cad>
          </ns3:TrackPointExtension>
        </extensions>
      </trkpt>
      <trkpt lat="44.720284156501293182373046875" lon="6.722701080143451690673828125">
        <ele>2150.800048828125</ele>
        <time>2026-09-03T05:00:46.000Z</time>
        <extensions>
          <ns3:TrackPointExtension>
            <ns3:hr>96</ns3:hr>
            <ns3:cad>0</ns3:cad>
          </ns3:TrackPointExtension>
        </extensions>
      </trkpt>
      <trkpt lat="44.72027887590229511260986328125" lon="6.7227034270763397216796875">
        <ele>2150.800048828125</ele>
        <time>2026-09-03T05:00:47.000Z</time>
        <extensions>
          <ns3:TrackPointExtension>
            <ns3:hr>96</ns3:hr>
            <ns3:cad>0</ns3:cad>
          </ns3:TrackPointExtension>
        </extensions>
      </trkpt>
      <trkpt lat="44.72027468495070934295654296875" lon="6.72271138988435268402099609375">
        <ele>2150.800048828125</ele>
        <time>2026-09-03T05:00:48.000Z</time>
        <extensions>
          <ns3:TrackPointExtension>
            <ns3:hr>96</ns3:hr>
            <ns3:cad>0</ns3:cad>
          </ns3:TrackPointExtension>
        </extensions>
      </trkpt>
      <trkpt lat="44.720274768769741058349609375" lon="6.722723208367824554443359375">
        <ele>2150.800048828125</ele>
        <time>2026-09-03T05:00:49.000Z</time>
        <extensions>
          <ns3:TrackPointExtension>
            <ns3:hr>96</ns3:hr>
            <ns3:cad>0</ns3:cad>
          </ns3:TrackPointExtension>
        </extensions>
      </trkpt>
      <trkpt lat="44.72027652896940708160400390625" lon="6.72273217700421810150146484375">
        <ele>2150.800048828125</ele>
        <time>2026-09-03T05:00:50.000Z</time>
        <extensions>
          <ns3:TrackPointExtension>
            <ns3:hr>96</ns3:hr>
            <ns3:cad>0</ns3:cad>
          </ns3:TrackPointExtension>
        </extensions>
      </trkpt>
      <trkpt lat="44.720280468463897705078125" lon="6.72273837961256504058837890625">
        <ele>2150.60009765625</ele>
        <time>2026-09-03T05:00:51.000Z</time>
        <extensions>
          <ns3:TrackPointExtension>
            <ns3:hr>97</ns3:hr>
            <ns3:cad>0</ns3:cad>
          </ns3:TrackPointExtension>
        </extensions>
      </trkpt>
      <trkpt lat="44.72028776071965694427490234375" lon="6.72274558804929256439208984375">
        <ele>2150.39990234375</ele>
        <time>2026-09-03T05:00:52.000Z</time>
        <extensions>
          <ns3:TrackPointExtension>
            <ns3:hr>96</ns3:hr>
            <ns3:cad>0</ns3:cad>
          </ns3:TrackPointExtension>
        </extensions>
      </trkpt>
      <trkpt lat="44.720292203128337860107421875" lon="6.72275313176214694976806640625">
        <ele>2150.199951171875</ele>
        <time>2026-09-03T05:00:53.000Z</time>
        <extensions>
          <ns3:TrackPointExtension>
            <ns3:hr>96</ns3:hr>
            <ns3:cad>0</ns3:cad>
          </ns3:TrackPointExtension>
        </extensions>
      </trkpt>
      <trkpt lat="44.72029589116573333740234375" lon="6.7227651178836822509765625">
        <ele>2149.800048828125</ele>
        <time>2026-09-03T05:00:54.000Z</time>
        <extensions>
          <ns3:TrackPointExtension>
            <ns3:hr>96</ns3:hr>
            <ns3:cad>0</ns3:cad>
          </ns3:TrackPointExtension>
        </extensions>
      </trkpt>
      <trkpt lat="44.72029664553701877593994140625" lon="6.72277056612074375152587890625">
        <ele>2149.60009765625</ele>
        <time>2026-09-03T05:00:55.000Z</time>
        <extensions>
          <ns3:TrackPointExtension>
            <ns3:hr>96</ns3:hr>
            <ns3:cad>0</ns3:cad>
          </ns3:TrackPointExtension>
        </extensions>
      </trkpt>
      <trkpt lat="44.72029798664152622222900390625" lon="6.72278322279453277587890625">
        <ele>2149.39990234375</ele>
        <time>2026-09-03T05:00:56.000Z</time>
        <extensions>
          <ns3:TrackPointExtension>
            <ns3:hr>95</ns3:hr>
            <ns3:cad>0</ns3:cad>
          </ns3:TrackPointExtension>
        </extensions>
      </trkpt>
      <trkpt lat="44.72030720673501491546630859375" lon="6.72279420308768749237060546875">
        <ele>2149.199951171875</ele>
        <time>2026-09-03T05:00:57.000Z</time>
        <extensions>
          <ns3:TrackPointExtension>
            <ns3:hr>95</ns3:hr>
            <ns3:cad>0</ns3:cad>
          </ns3:TrackPointExtension>
        </extensions>
      </trkpt>
      <trkpt lat="44.7203134931623935699462890625" lon="6.7228055186569690704345703125">
        <ele>2149.199951171875</ele>
        <time>2026-09-03T05:00:58.000Z</time>
        <extensions>
          <ns3:TrackPointExtension>
            <ns3:hr>96</ns3:hr>
            <ns3:cad>0</ns3:cad>
          </ns3:TrackPointExtension>
        </extensions>
      </trkpt>
      <trkpt lat="44.72032028250396251678466796875" lon="6.72281918115913867950439453125">
        <ele>2149</ele>
        <time>2026-09-03T05:00:59.000Z</time>
        <extensions>
          <ns3:TrackPointExtension>
            <ns3:hr>95</ns3:hr>
            <ns3:cad>58</ns3:cad>
          </ns3:TrackPointExtension>
        </extensions>
      </trkpt>
      <trkpt lat="44.7203245572745800018310546875" lon="6.7228293232619762420654296875">
        <ele>2148.800048828125</ele>
        <time>2026-09-03T05:01:00.000Z</time>
        <extensions>
          <ns3:TrackPointExtension>
            <ns3:hr>94</ns3:hr>
            <ns3:cad>58</ns3:cad>
          </ns3:TrackPointExtension>
        </extensions>
      </trkpt>
      <trkpt lat="44.72032698802649974822998046875" lon="6.7228407226502895355224609375">
        <ele>2148.60009765625</ele>
        <time>2026-09-03T05:01:01.000Z</time>
        <extensions>
          <ns3:TrackPointExtension>
            <ns3:hr>93</ns3:hr>
            <ns3:cad>58</ns3:cad>
          </ns3:TrackPointExtension>
        </extensions>
      </trkpt>
      <trkpt lat="44.720329754054546356201171875" lon="6.72284667380154132843017578125">
        <ele>2148.39990234375</ele>
        <time>2026-09-03T05:01:02.000Z</time>
        <extensions>
          <ns3:TrackPointExtension>
            <ns3:hr>91</ns3:hr>
            <ns3:cad>58</ns3:cad>
          </ns3:TrackPointExtension>
        </extensions>
      </trkpt>
      <trkpt lat="44.7203300893306732177734375" lon="6.722850613296031951904296875">
        <ele>2148.199951171875</ele>
        <time>2026-09-03T05:01:03.000Z</time>
        <extensions>
          <ns3:TrackPointExtension>
            <ns3:hr>90</ns3:hr>
            <ns3:cad>58</ns3:cad>
          </ns3:TrackPointExtension>
        </extensions>
      </trkpt>
      <trkpt lat="44.7203339450061321258544921875" lon="6.7228588275611400604248046875">
        <ele>2148</ele>
        <time>2026-09-03T05:01:04.000Z</time>
        <extensions>
          <ns3:TrackPointExtension>
            <ns3:hr>89</ns3:hr>
            <ns3:cad>58</ns3:cad>
          </ns3:TrackPointExtension>
        </extensions>
      </trkpt>
      <trkpt lat="44.7203379683196544647216796875" lon="6.72286829911172389984130859375">
        <ele>2147.60009765625</ele>
        <time>2026-09-03T05:01:05.000Z</time>
        <extensions>
          <ns3:TrackPointExtension>
            <ns3:hr>89</ns3:hr>
            <ns3:cad>58</ns3:cad>
          </ns3:TrackPointExtension>
        </extensions>
      </trkpt>
      <trkpt lat="44.7203426621854305267333984375" lon="6.72288908623158931732177734375">
        <ele>2147.39990234375</ele>
        <time>2026-09-03T05:01:06.000Z</time>
        <extensions>
          <ns3:TrackPointExtension>
            <ns3:hr>89</ns3:hr>
            <ns3:cad>58</ns3:cad>
          </ns3:TrackPointExtension>
        </extensions>
      </trkpt>
      <trkpt lat="44.720350205898284912109375" lon="6.722904928028583526611328125">
        <ele>2147.199951171875</ele>
        <time>2026-09-03T05:01:07.000Z</time>
        <extensions>
          <ns3:TrackPointExtension>
            <ns3:hr>88</ns3:hr>
            <ns3:cad>58</ns3:cad>
          </ns3:TrackPointExtension>
        </extensions>
      </trkpt>
      <trkpt lat="44.72035800106823444366455078125" lon="6.7229208536446094512939453125">
        <ele>2146.800048828125</ele>
        <time>2026-09-03T05:01:08.000Z</time>
        <extensions>
          <ns3:TrackPointExtension>
            <ns3:hr>88</ns3:hr>
            <ns3:cad>58</ns3:cad>
          </ns3:TrackPointExtension>
        </extensions>
      </trkpt>
      <trkpt lat="44.72036269493401050567626953125" lon="6.72292881645262241363525390625">
        <ele>2146.60009765625</ele>
        <time>2026-09-03T05:01:09.000Z</time>
        <extensions>
          <ns3:TrackPointExtension>
            <ns3:hr>86</ns3:hr>
            <ns3:cad>58</ns3:cad>
          </ns3:TrackPointExtension>
        </extensions>
      </trkpt>
      <trkpt lat="44.7203664667904376983642578125" lon="6.7229406349360942840576171875">
        <ele>2146.39990234375</ele>
        <time>2026-09-03T05:01:10.000Z</time>
        <extensions>
          <ns3:TrackPointExtension>
            <ns3:hr>84</ns3:hr>
            <ns3:cad>58</ns3:cad>
          </ns3:TrackPointExtension>
        </extensions>
      </trkpt>
      <trkpt lat="44.7203711606562137603759765625" lon="6.72295211814343929290771484375">
        <ele>2146</ele>
        <time>2026-09-03T05:01:11.000Z</time>
        <extensions>
          <ns3:TrackPointExtension>
            <ns3:hr>83</ns3:hr>
            <ns3:cad>58</ns3:cad>
          </ns3:TrackPointExtension>
        </extensions>
      </trkpt>
      <trkpt lat="44.720375351607799530029296875" lon="6.7229577340185642242431640625">
        <ele>2145.800048828125</ele>
        <time>2026-09-03T05:01:12.000Z</time>
        <extensions>
          <ns3:TrackPointExtension>
            <ns3:hr>83</ns3:hr>
            <ns3:cad>58</ns3:cad>
          </ns3:TrackPointExtension>
        </extensions>
      </trkpt>
      <trkpt lat="44.72038038074970245361328125" lon="6.72296267934143543243408203125">
        <ele>2145.60009765625</ele>
        <time>2026-09-03T05:01:13.000Z</time>
        <extensions>
          <ns3:TrackPointExtension>
            <ns3:hr>83</ns3:hr>
            <ns3:cad>65</ns3:cad>
          </ns3:TrackPointExtension>
        </extensions>
      </trkpt>
      <trkpt lat="44.7203852422535419464111328125" lon="6.72296871431171894073486328125">
        <ele>2145.39990234375</ele>
        <time>2026-09-03T05:01:14.000Z</time>
        <extensions>
          <ns3:TrackPointExtension>
            <ns3:hr>83</ns3:hr>
            <ns3:cad>65</ns3:cad>
          </ns3:TrackPointExtension>
        </extensions>
      </trkpt>
      <trkpt lat="44.72039152868092060089111328125" lon="6.7229755036532878875732421875">
        <ele>2145.199951171875</ele>
        <time>2026-09-03T05:01:15.000Z</time>
        <extensions>
          <ns3:TrackPointExtension>
            <ns3:hr>82</ns3:hr>
            <ns3:cad>65</ns3:cad>
          </ns3:TrackPointExtension>
        </extensions>
      </trkpt>
      <trkpt lat="44.72039622254669666290283203125" lon="6.72298061661422252655029296875">
        <ele>2145</ele>
        <time>2026-09-03T05:01:16.000Z</time>
        <extensions>
          <ns3:TrackPointExtension>
            <ns3:hr>82</ns3:hr>
            <ns3:cad>65</ns3:cad>
          </ns3:TrackPointExtension>
        </extensions>
      </trkpt>
      <trkpt lat="44.72040074877440929412841796875" lon="6.7229909263551235198974609375">
        <ele>2144.800048828125</ele>
        <time>2026-09-03T05:01:17.000Z</time>
        <extensions>
          <ns3:TrackPointExtension>
            <ns3:hr>82</ns3:hr>
            <ns3:cad>65</ns3:cad>
          </ns3:TrackPointExtension>
        </extensions>
      </trkpt>
      <trkpt lat="44.72040561027824878692626953125" lon="6.72300324775278568267822265625">
        <ele>2144.39990234375</ele>
        <time>2026-09-03T05:01:18.000Z</time>
        <extensions>
          <ns3:TrackPointExtension>
            <ns3:hr>81</ns3:hr>
            <ns3:cad>65</ns3:cad>
          </ns3:TrackPointExtension>
        </extensions>
      </trkpt>
      <trkpt lat="44.72040577791631221771240234375" lon="6.723010875284671783447265625">
        <ele>2144.199951171875</ele>
        <time>2026-09-03T05:01:19.000Z</time>
        <extensions>
          <ns3:TrackPointExtension>
            <ns3:hr>81</ns3:hr>
            <ns3:cad>65</ns3:cad>
          </ns3:TrackPointExtension>
        </extensions>
      </trkpt>
      <trkpt lat="44.72040594555437564849853515625" lon="6.7230184189975261688232421875">
        <ele>2144.199951171875</ele>
        <time>2026-09-03T05:01:20.000Z</time>
        <extensions>
          <ns3:TrackPointExtension>
            <ns3:hr>80</ns3:hr>
            <ns3:cad>65</ns3:cad>
          </ns3:TrackPointExtension>
        </extensions>
      </trkpt>
      <trkpt lat="44.72040996886789798736572265625" lon="6.7230279743671417236328125">
        <ele>2144</ele>
        <time>2026-09-03T05:01:21.000Z</time>
        <extensions>
          <ns3:TrackPointExtension>
            <ns3:hr>79</ns3:hr>
            <ns3:cad>59</ns3:cad>
          </ns3:TrackPointExtension>
        </extensions>
      </trkpt>
      <trkpt lat="44.72041281871497631072998046875" lon="6.72304230742156505584716796875">
        <ele>2143.800048828125</ele>
        <time>2026-09-03T05:01:22.000Z</time>
        <extensions>
          <ns3:TrackPointExtension>
            <ns3:hr>78</ns3:hr>
            <ns3:cad>59</ns3:cad>
          </ns3:TrackPointExtension>
        </extensions>
      </trkpt>
      <trkpt lat="44.72041751258075237274169921875" lon="6.723054461181163787841796875">
        <ele>2143.800048828125</ele>
        <time>2026-09-03T05:01:23.000Z</time>
        <extensions>
          <ns3:TrackPointExtension>
            <ns3:hr>77</ns3:hr>
            <ns3:cad>59</ns3:cad>
          </ns3:TrackPointExtension>
        </extensions>
      </trkpt>
      <trkpt lat="44.7204211167991161346435546875" lon="6.72305957414209842681884765625">
        <ele>2143.60009765625</ele>
        <time>2026-09-03T05:01:24.000Z</time>
        <extensions>
          <ns3:TrackPointExtension>
            <ns3:hr>77</ns3:hr>
            <ns3:cad>62</ns3:cad>
          </ns3:TrackPointExtension>
        </extensions>
      </trkpt>
      <trkpt lat="44.72042237408459186553955078125" lon="6.7230589874088764190673828125">
        <ele>2143.39990234375</ele>
        <time>2026-09-03T05:01:25.000Z</time>
        <extensions>
          <ns3:TrackPointExtension>
            <ns3:hr>76</ns3:hr>
            <ns3:cad>62</ns3:cad>
          </ns3:TrackPointExtension>
        </extensions>
      </trkpt>
      <trkpt lat="44.72042187117040157318115234375" lon="6.7230620048940181732177734375">
        <ele>2143.199951171875</ele>
        <time>2026-09-03T05:01:26.000Z</time>
        <extensions>
          <ns3:TrackPointExtension>
            <ns3:hr>77</ns3:hr>
            <ns3:cad>62</ns3:cad>
          </ns3:TrackPointExtension>
        </extensions>
      </trkpt>
      <trkpt lat="44.72042187117040157318115234375" lon="6.7230650223791599273681640625">
        <ele>2143.199951171875</ele>
        <time>2026-09-03T05:01:27.000Z</time>
        <extensions>
          <ns3:TrackPointExtension>
            <ns3:hr>77</ns3:hr>
            <ns3:cad>62</ns3:cad>
          </ns3:TrackPointExtension>
        </extensions>
      </trkpt>
      <trkpt lat="44.720422290265560150146484375" lon="6.72306812368333339691162109375">
        <ele>2143</ele>
        <time>2026-09-03T05:01:28.000Z</time>
        <extensions>
          <ns3:TrackPointExtension>
            <ns3:hr>77</ns3:hr>
            <ns3:cad>62</ns3:cad>
          </ns3:TrackPointExtension>
        </extensions>
      </trkpt>
      <trkpt lat="44.72042061388492584228515625" lon="6.723071895539760589599609375">
        <ele>2143</ele>
        <time>2026-09-03T05:01:29.000Z</time>
        <extensions>
          <ns3:TrackPointExtension>
            <ns3:hr>78</ns3:hr>
            <ns3:cad>0</ns3:cad>
          </ns3:TrackPointExtension>
        </extensions>
      </trkpt>
      <trkpt lat="44.7204211167991161346435546875" lon="6.7230784334242343902587890625">
        <ele>2143</ele>
        <time>2026-09-03T05:01:30.000Z</time>
        <extensions>
          <ns3:TrackPointExtension>
            <ns3:hr>78</ns3:hr>
            <ns3:cad>0</ns3:cad>
          </ns3:TrackPointExtension>
        </extensions>
      </trkpt>
      <trkpt lat="44.72041734494268894195556640625" lon="6.7230884917080402374267578125">
        <ele>2143</ele>
        <time>2026-09-03T05:01:31.000Z</time>
        <extensions>
          <ns3:TrackPointExtension>
            <ns3:hr>78</ns3:hr>
            <ns3:cad>0</ns3:cad>
          </ns3:TrackPointExtension>
        </extensions>
      </trkpt>
      <trkpt lat="44.72041466273367404937744140625" lon="6.72309435904026031494140625">
        <ele>2142.800048828125</ele>
        <time>2026-09-03T05:01:32.000Z</time>
        <extensions>
          <ns3:TrackPointExtension>
            <ns3:hr>78</ns3:hr>
            <ns3:cad>0</ns3:cad>
          </ns3:TrackPointExtension>
        </extensions>
      </trkpt>
      <trkpt lat="44.7204132378101348876953125" lon="6.72309435904026031494140625">
        <ele>2142.800048828125</ele>
        <time>2026-09-03T05:01:33.000Z</time>
        <extensions>
          <ns3:TrackPointExtension>
            <ns3:hr>78</ns3:hr>
            <ns3:cad>0</ns3:cad>
          </ns3:TrackPointExtension>
        </extensions>
      </trkpt>
      <trkpt lat="44.72041265107691287994384765625" lon="6.72309444285929203033447265625">
        <ele>2142.800048828125</ele>
        <time>2026-09-03T05:01:34.000Z</time>
        <extensions>
          <ns3:TrackPointExtension>
            <ns3:hr>79</ns3:hr>
            <ns3:cad>0</ns3:cad>
          </ns3:TrackPointExtension>
        </extensions>
      </trkpt>
      <trkpt lat="44.72041281871497631072998046875" lon="6.72309746034443378448486328125">
        <ele>2142.60009765625</ele>
        <time>2026-09-03T05:01:35.000Z</time>
        <extensions>
          <ns3:TrackPointExtension>
            <ns3:hr>78</ns3:hr>
            <ns3:cad>0</ns3:cad>
          </ns3:TrackPointExtension>
        </extensions>
      </trkpt>
      <trkpt lat="44.72041466273367404937744140625" lon="6.7230931855738162994384765625">
        <ele>2142.60009765625</ele>
        <time>2026-09-03T05:01:36.000Z</time>
        <extensions>
          <ns3:TrackPointExtension>
            <ns3:hr>78</ns3:hr>
            <ns3:cad>0</ns3:cad>
          </ns3:TrackPointExtension>
        </extensions>
      </trkpt>
      <trkpt lat="44.7204194404184818267822265625" lon="6.7230821214616298675537109375">
        <ele>2142.800048828125</ele>
        <time>2026-09-03T05:01:37.000Z</time>
        <extensions>
          <ns3:TrackPointExtension>
            <ns3:hr>78</ns3:hr>
            <ns3:cad>0</ns3:cad>
          </ns3:TrackPointExtension>
        </extensions>
      </trkpt>
      <trkpt lat="44.7204187698662281036376953125" lon="6.723077259957790374755859375">
        <ele>2142.800048828125</ele>
        <time>2026-09-03T05:01:38.000Z</time>
        <extensions>
          <ns3:TrackPointExtension>
            <ns3:hr>78</ns3:hr>
            <ns3:cad>59</ns3:cad>
          </ns3:TrackPointExtension>
        </extensions>
      </trkpt>
      <trkpt lat="44.72041918896138668060302734375" lon="6.72307449392974376678466796875">
        <ele>2143</ele>
        <time>2026-09-03T05:01:39.000Z</time>
        <extensions>
          <ns3:TrackPointExtension>
            <ns3:hr>78</ns3:hr>
            <ns3:cad>59</ns3:cad>
          </ns3:TrackPointExtension>
        </extensions>
      </trkpt>
      <trkpt lat="44.7204197756946086883544921875" lon="6.72307315282523632049560546875">
        <ele>2143</ele>
        <time>2026-09-03T05:01:40.000Z</time>
        <extensions>
          <ns3:TrackPointExtension>
            <ns3:hr>79</ns3:hr>
            <ns3:cad>0</ns3:cad>
          </ns3:TrackPointExtension>
        </extensions>
      </trkpt>
      <trkpt lat="44.72042220644652843475341796875" lon="6.72307399101555347442626953125">
        <ele>2143</ele>
        <time>2026-09-03T05:01:41.000Z</time>
        <extensions>
          <ns3:TrackPointExtension>
            <ns3:hr>78</ns3:hr>
            <ns3:cad>0</ns3:cad>
          </ns3:TrackPointExtension>
        </extensions>
      </trkpt>
      <trkpt lat="44.72042103298008441925048828125" lon="6.72307784669101238250732421875">
        <ele>2143</ele>
        <time>2026-09-03T05:01:42.000Z</time>
        <extensions>
          <ns3:TrackPointExtension>
            <ns3:hr>78</ns3:hr>
            <ns3:cad>0</ns3:cad>
          </ns3:TrackPointExtension>
        </extensions>
      </trkpt>
      <trkpt lat="44.72041902132332324981689453125" lon="6.7230760864913463592529296875">
        <ele>2142.800048828125</ele>
        <time>2026-09-03T05:01:43.000Z</time>
        <extensions>
          <ns3:TrackPointExtension>
            <ns3:hr>78</ns3:hr>
            <ns3:cad>0</ns3:cad>
          </ns3:TrackPointExtension>
        </extensions>
      </trkpt>
      <trkpt lat="44.720417596399784088134765625" lon="6.72307097353041172027587890625">
        <ele>2142.800048828125</ele>
        <time>2026-09-03T05:01:44.000Z</time>
        <extensions>
          <ns3:TrackPointExtension>
            <ns3:hr>78</ns3:hr>
            <ns3:cad>0</ns3:cad>
          </ns3:TrackPointExtension>
        </extensions>
      </trkpt>
      <trkpt lat="44.720420278608798980712890625" lon="6.72306778840720653533935546875">
        <ele>2142.800048828125</ele>
        <time>2026-09-03T05:01:45.000Z</time>
        <extensions>
          <ns3:TrackPointExtension>
            <ns3:hr>79</ns3:hr>
            <ns3:cad>0</ns3:cad>
          </ns3:TrackPointExtension>
        </extensions>
      </trkpt>
      <trkpt lat="44.7204194404184818267822265625" lon="6.7230677045881748199462890625">
        <ele>2142.800048828125</ele>
        <time>2026-09-03T05:01:46.000Z</time>
        <extensions>
          <ns3:TrackPointExtension>
            <ns3:hr>80</ns3:hr>
            <ns3:cad>0</ns3:cad>
          </ns3:TrackPointExtension>
        </extensions>
      </trkpt>
      <trkpt lat="44.7204194404184818267822265625" lon="6.7230646871030330657958984375">
        <ele>2142.60009765625</ele>
        <time>2026-09-03T05:01:47.000Z</time>
        <extensions>
          <ns3:TrackPointExtension>
            <ns3:hr>81</ns3:hr>
            <ns3:cad>0</ns3:cad>
          </ns3:TrackPointExtension>
        </extensions>
      </trkpt>
      <trkpt lat="44.7204212844371795654296875" lon="6.72306041233241558074951171875">
        <ele>2142.60009765625</ele>
        <time>2026-09-03T05:01:48.000Z</time>
        <extensions>
          <ns3:TrackPointExtension>
            <ns3:hr>82</ns3:hr>
            <ns3:cad>0</ns3:cad>
          </ns3:TrackPointExtension>
        </extensions>
      </trkpt>
      <trkpt lat="44.72042053006589412689208984375" lon="6.72305974178016185760498046875">
        <ele>2142.60009765625</ele>
        <time>2026-09-03T05:01:49.000Z</time>
        <extensions>
          <ns3:TrackPointExtension>
            <ns3:hr>83</ns3:hr>
            <ns3:cad>0</ns3:cad>
          </ns3:TrackPointExtension>
        </extensions>
      </trkpt>
      <trkpt lat="44.72042053006589412689208984375" lon="6.72305974178016185760498046875">
        <ele>2142.60009765625</ele>
        <time>2026-09-03T05:01:50.000Z</time>
        <extensions>
          <ns3:TrackPointExtension>
            <ns3:hr>84</ns3:hr>
            <ns3:cad>0</ns3:cad>
          </ns3:TrackPointExtension>
        </extensions>
      </trkpt>
      <trkpt lat="44.72042053006589412689208984375" lon="6.72305974178016185760498046875">
        <ele>2142.60009765625</ele>
        <time>2026-09-03T05:01:51.000Z</time>
        <extensions>
          <ns3:TrackPointExtension>
            <ns3:hr>84</ns3:hr>
            <ns3:cad>0</ns3:cad>
          </ns3:TrackPointExtension>
        </extensions>
      </trkpt>
      <trkpt lat="44.72042053006589412689208984375" lon="6.72305974178016185760498046875">
        <ele>2142.60009765625</ele>
        <time>2026-09-03T05:01:52.000Z</time>
        <extensions>
          <ns3:TrackPointExtension>
            <ns3:hr>84</ns3:hr>
            <ns3:cad>0</ns3:cad>
          </ns3:TrackPointExtension>
        </extensions>
      </trkpt>
      <trkpt lat="44.72042053006589412689208984375" lon="6.72305974178016185760498046875">
        <ele>2142.60009765625</ele>
        <time>2026-09-03T05:01:53.000Z</time>
        <extensions>
          <ns3:TrackPointExtension>
            <ns3:hr>85</ns3:hr>
            <ns3:cad>0</ns3:cad>
          </ns3:TrackPointExtension>
        </extensions>
      </trkpt>
      <trkpt lat="44.72042053006589412689208984375" lon="6.72305974178016185760498046875">
        <ele>2142.39990234375</ele>
        <time>2026-09-03T05:01:54.000Z</time>
        <extensions>
          <ns3:TrackPointExtension>
            <ns3:hr>85</ns3:hr>
            <ns3:cad>0</ns3:cad>
          </ns3:TrackPointExtension>
        </extensions>
      </trkpt>
      <trkpt lat="44.72042053006589412689208984375" lon="6.72305974178016185760498046875">
        <ele>2142.39990234375</ele>
        <time>2026-09-03T05:01:55.000Z</time>
        <extensions>
          <ns3:TrackPointExtension>
            <ns3:hr>85</ns3:hr>
            <ns3:cad>0</ns3:cad>
          </ns3:TrackPointExtension>
        </extensions>
      </trkpt>
      <trkpt lat="44.72042053006589412689208984375" lon="6.72305974178016185760498046875">
        <ele>2142.199951171875</ele>
        <time>2026-09-03T05:01:56.000Z</time>
        <extensions>
          <ns3:TrackPointExtension>
            <ns3:hr>85</ns3:hr>
            <ns3:cad>0</ns3:cad>
          </ns3:TrackPointExtension>
        </extensions>
      </trkpt>
      <trkpt lat="44.72042053006589412689208984375" lon="6.72305974178016185760498046875">
        <ele>2142.199951171875</ele>
        <time>2026-09-03T05:01:57.000Z</time>
        <extensions>
          <ns3:TrackPointExtension>
            <ns3:hr>85</ns3:hr>
            <ns3:cad>0</ns3:cad>
          </ns3:TrackPointExtension>
        </extensions>
      </trkpt>
      <trkpt lat="44.72042053006589412689208984375" lon="6.72305974178016185760498046875">
        <ele>2142.199951171875</ele>
        <time>2026-09-03T05:01:58.000Z</time>
        <extensions>
          <ns3:TrackPointExtension>
            <ns3:hr>83</ns3:hr>
            <ns3:cad>0</ns3:cad>
          </ns3:TrackPointExtension>
        </extensions>
      </trkpt>
      <trkpt lat="44.72042053006589412689208984375" lon="6.72305974178016185760498046875">
        <ele>2142.199951171875</ele>
        <time>2026-09-03T05:01:59.000Z</time>
        <extensions>
          <ns3:TrackPointExtension>
            <ns3:hr>77</ns3:hr>
            <ns3:cad>0</ns3:cad>
          </ns3:TrackPointExtension>
        </extensions>
      </trkpt>
      <trkpt lat="44.72042053006589412689208984375" lon="6.72305974178016185760498046875">
        <ele>2142.199951171875</ele>
        <time>2026-09-03T05:02:00.000Z</time>
        <extensions>
          <ns3:TrackPointExtension>
            <ns3:hr>74</ns3:hr>
            <ns3:cad>0</ns3:cad>
          </ns3:TrackPointExtension>
        </extensions>
      </trkpt>
      <trkpt lat="44.72042053006589412689208984375" lon="6.72305974178016185760498046875">
        <ele>2142.199951171875</ele>
        <time>2026-09-03T05:02:01.000Z</time>
        <extensions>
          <ns3:TrackPointExtension>
            <ns3:hr>72</ns3:hr>
            <ns3:cad>0</ns3:cad>
          </ns3:TrackPointExtension>
        </extensions>
      </trkpt>
      <trkpt lat="44.72042053006589412689208984375" lon="6.72305974178016185760498046875">
        <ele>2142.199951171875</ele>
        <time>2026-09-03T05:02:02.000Z</time>
        <extensions>
          <ns3:TrackPointExtension>
            <ns3:hr>72</ns3:hr>
            <ns3:cad>0</ns3:cad>
          </ns3:TrackPointExtension>
        </extensions>
      </trkpt>
      <trkpt lat="44.72042053006589412689208984375" lon="6.72305974178016185760498046875">
        <ele>2142.39990234375</ele>
        <time>2026-09-03T05:02:03.000Z</time>
        <extensions>
          <ns3:TrackPointExtension>
            <ns3:hr>72</ns3:hr>
            <ns3:cad>0</ns3:cad>
          </ns3:TrackPointExtension>
        </extensions>
      </trkpt>
      <trkpt lat="44.72042053006589412689208984375" lon="6.72305974178016185760498046875">
        <ele>2142.39990234375</ele>
        <time>2026-09-03T05:02:04.000Z</time>
        <extensions>
          <ns3:TrackPointExtension>
            <ns3:hr>71</ns3:hr>
            <ns3:cad>0</ns3:cad>
          </ns3:TrackPointExtension>
        </extensions>
      </trkpt>
      <trkpt lat="44.72042053006589412689208984375" lon="6.72305974178016185760498046875">
        <ele>2142.39990234375</ele>
        <time>2026-09-03T05:02:05.000Z</time>
        <extensions>
          <ns3:TrackPointExtension>
            <ns3:hr>70</ns3:hr>
            <ns3:cad>0</ns3:cad>
          </ns3:TrackPointExtension>
        </extensions>
      </trkpt>
      <trkpt lat="44.72042053006589412689208984375" lon="6.72305974178016185760498046875">
        <ele>2142.39990234375</ele>
        <time>2026-09-03T05:02:06.000Z</time>
        <extensions>
          <ns3:TrackPointExtension>
            <ns3:hr>70</ns3:hr>
            <ns3:cad>0</ns3:cad>
          </ns3:TrackPointExtension>
        </extensions>
      </trkpt>
      <trkpt lat="44.72042053006589412689208984375" lon="6.72305974178016185760498046875">
        <ele>2142.39990234375</ele>
        <time>2026-09-03T05:02:07.000Z</time>
        <extensions>
          <ns3:TrackPointExtension>
            <ns3:hr>71</ns3:hr>
            <ns3:cad>0</ns3:cad>
          </ns3:TrackPointExtension>
        </extensions>
      </trkpt>
      <trkpt lat="44.72042053006589412689208984375" lon="6.72305974178016185760498046875">
        <ele>2142.39990234375</ele>
        <time>2026-09-03T05:02:08.000Z</time>
        <extensions>
          <ns3:TrackPointExtension>
            <ns3:hr>71</ns3:hr>
            <ns3:cad>0</ns3:cad>
          </ns3:TrackPointExtension>
        </extensions>
      </trkpt>
      <trkpt lat="44.72042053006589412689208984375" lon="6.72305974178016185760498046875">
        <ele>2142.39990234375</ele>
        <time>2026-09-03T05:02:09.000Z</time>
        <extensions>
          <ns3:TrackPointExtension>
            <ns3:hr>72</ns3:hr>
            <ns3:cad>0</ns3:cad>
          </ns3:TrackPointExtension>
        </extensions>
      </trkpt>
      <trkpt lat="44.72042053006589412689208984375" lon="6.72305974178016185760498046875">
        <ele>2142.39990234375</ele>
        <time>2026-09-03T05:02:10.000Z</time>
        <extensions>
          <ns3:TrackPointExtension>
            <ns3:hr>72</ns3:hr>
            <ns3:cad>0</ns3:cad>
          </ns3:TrackPointExtension>
        </extensions>
      </trkpt>
      <trkpt lat="44.72042053006589412689208984375" lon="6.72305974178016185760498046875">
        <ele>2142.39990234375</ele>
        <time>2026-09-03T05:02:11.000Z</time>
        <extensions>
          <ns3:TrackPointExtension>
            <ns3:hr>72</ns3:hr>
            <ns3:cad>0</ns3:cad>
          </ns3:TrackPointExtension>
        </extensions>
      </trkpt>
      <trkpt lat="44.72042053006589412689208984375" lon="6.72305974178016185760498046875">
        <ele>2142.199951171875</ele>
        <time>2026-09-03T05:02:12.000Z</time>
        <extensions>
          <ns3:TrackPointExtension>
            <ns3:hr>72</ns3:hr>
            <ns3:cad>0</ns3:cad>
          </ns3:TrackPointExtension>
        </extensions>
      </trkpt>
      <trkpt lat="44.72042053006589412689208984375" lon="6.72305974178016185760498046875">
        <ele>2142.199951171875</ele>
        <time>2026-09-03T05:02:13.000Z</time>
        <extensions>
          <ns3:TrackPointExtension>
            <ns3:hr>72</ns3:hr>
            <ns3:cad>0</ns3:cad>
          </ns3:TrackPointExtension>
        </extensions>
      </trkpt>
      <trkpt lat="44.72042053006589412689208984375" lon="6.72305974178016185760498046875">
        <ele>2142.199951171875</ele>
        <time>2026-09-03T05:02:14.000Z</time>
        <extensions>
          <ns3:TrackPointExtension>
            <ns3:hr>71</ns3:hr>
            <ns3:cad>0</ns3:cad>
          </ns3:TrackPointExtension>
        </extensions>
      </trkpt>
      <trkpt lat="44.72042053006589412689208984375" lon="6.72305974178016185760498046875">
        <ele>2142.199951171875</ele>
        <time>2026-09-03T05:02:15.000Z</time>
        <extensions>
          <ns3:TrackPointExtension>
            <ns3:hr>72</ns3:hr>
            <ns3:cad>0</ns3:cad>
          </ns3:TrackPointExtension>
        </extensions>
      </trkpt>
      <trkpt lat="44.72042053006589412689208984375" lon="6.72305974178016185760498046875">
        <ele>2142.199951171875</ele>
        <time>2026-09-03T05:02:16.000Z</time>
        <extensions>
          <ns3:TrackPointExtension>
            <ns3:hr>72</ns3:hr>
            <ns3:cad>0</ns3:cad>
          </ns3:TrackPointExtension>
        </extensions>
      </trkpt>
      <trkpt lat="44.72042053006589412689208984375" lon="6.72305974178016185760498046875">
        <ele>2142.199951171875</ele>
        <time>2026-09-03T05:02:17.000Z</time>
        <extensions>
          <ns3:TrackPointExtension>
            <ns3:hr>71</ns3:hr>
            <ns3:cad>0</ns3:cad>
          </ns3:TrackPointExtension>
        </extensions>
      </trkpt>
      <trkpt lat="44.72042053006589412689208984375" lon="6.72305974178016185760498046875">
        <ele>2142.199951171875</ele>
        <time>2026-09-03T05:02:18.000Z</time>
        <extensions>
          <ns3:TrackPointExtension>
            <ns3:hr>70</ns3:hr>
            <ns3:cad>0</ns3:cad>
          </ns3:TrackPointExtension>
        </extensions>
      </trkpt>
      <trkpt lat="44.72042053006589412689208984375" lon="6.72305974178016185760498046875">
        <ele>2142.199951171875</ele>
        <time>2026-09-03T05:02:19.000Z</time>
        <extensions>
          <ns3:TrackPointExtension>
            <ns3:hr>69</ns3:hr>
            <ns3:cad>0</ns3:cad>
          </ns3:TrackPointExtension>
        </extensions>
      </trkpt>
      <trkpt lat="44.72042053006589412689208984375" lon="6.72305974178016185760498046875">
        <ele>2142.199951171875</ele>
        <time>2026-09-03T05:02:20.000Z</time>
        <extensions>
          <ns3:TrackPointExtension>
            <ns3:hr>69</ns3:hr>
            <ns3:cad>0</ns3:cad>
          </ns3:TrackPointExtension>
        </extensions>
      </trkpt>
      <trkpt lat="44.72042053006589412689208984375" lon="6.72305974178016185760498046875">
        <ele>2142.199951171875</ele>
        <time>2026-09-03T05:02:21.000Z</time>
        <extensions>
          <ns3:TrackPointExtension>
            <ns3:hr>69</ns3:hr>
            <ns3:cad>0</ns3:cad>
          </ns3:TrackPointExtension>
        </extensions>
      </trkpt>
      <trkpt lat="44.72042053006589412689208984375" lon="6.72305974178016185760498046875">
        <ele>2142.199951171875</ele>
        <time>2026-09-03T05:02:22.000Z</time>
        <extensions>
          <ns3:TrackPointExtension>
            <ns3:hr>69</ns3:hr>
            <ns3:cad>0</ns3:cad>
          </ns3:TrackPointExtension>
        </extensions>
      </trkpt>
      <trkpt lat="44.72042053006589412689208984375" lon="6.72305974178016185760498046875">
        <ele>2142.199951171875</ele>
        <time>2026-09-03T05:02:23.000Z</time>
        <extensions>
          <ns3:TrackPointExtension>
            <ns3:hr>69</ns3:hr>
            <ns3:cad>0</ns3:cad>
          </ns3:TrackPointExtension>
        </extensions>
      </trkpt>
      <trkpt lat="44.72042053006589412689208984375" lon="6.72305974178016185760498046875">
        <ele>2142.199951171875</ele>
        <time>2026-09-03T05:02:24.000Z</time>
        <extensions>
          <ns3:TrackPointExtension>
            <ns3:hr>69</ns3:hr>
            <ns3:cad>0</ns3:cad>
          </ns3:TrackPointExtension>
        </extensions>
      </trkpt>
      <trkpt lat="44.72042053006589412689208984375" lon="6.72305974178016185760498046875">
        <ele>2142.199951171875</ele>
        <time>2026-09-03T05:02:25.000Z</time>
        <extensions>
          <ns3:TrackPointExtension>
            <ns3:hr>69</ns3:hr>
            <ns3:cad>0</ns3:cad>
          </ns3:TrackPointExtension>
        </extensions>
      </trkpt>
      <trkpt lat="44.72042053006589412689208984375" lon="6.72305974178016185760498046875">
        <ele>2142</ele>
        <time>2026-09-03T05:02:26.000Z</time>
        <extensions>
          <ns3:TrackPointExtension>
            <ns3:hr>68</ns3:hr>
            <ns3:cad>0</ns3:cad>
          </ns3:TrackPointExtension>
        </extensions>
      </trkpt>
      <trkpt lat="44.72042053006589412689208984375" lon="6.72305974178016185760498046875">
        <ele>2142</ele>
        <time>2026-09-03T05:02:27.000Z</time>
        <extensions>
          <ns3:TrackPointExtension>
            <ns3:hr>68</ns3:hr>
            <ns3:cad>0</ns3:cad>
          </ns3:TrackPointExtension>
        </extensions>
      </trkpt>
      <trkpt lat="44.72042053006589412689208984375" lon="6.72305974178016185760498046875">
        <ele>2142</ele>
        <time>2026-09-03T05:02:28.000Z</time>
        <extensions>
          <ns3:TrackPointExtension>
            <ns3:hr>68</ns3:hr>
            <ns3:cad>0</ns3:cad>
          </ns3:TrackPointExtension>
        </extensions>
      </trkpt>
      <trkpt lat="44.72042053006589412689208984375" lon="6.72305974178016185760498046875">
        <ele>2142</ele>
        <time>2026-09-03T05:02:29.000Z</time>
        <extensions>
          <ns3:TrackPointExtension>
            <ns3:hr>68</ns3:hr>
            <ns3:cad>0</ns3:cad>
          </ns3:TrackPointExtension>
        </extensions>
      </trkpt>
      <trkpt lat="44.72042053006589412689208984375" lon="6.72305974178016185760498046875">
        <ele>2142</ele>
        <time>2026-09-03T05:02:30.000Z</time>
        <extensions>
          <ns3:TrackPointExtension>
            <ns3:hr>68</ns3:hr>
            <ns3:cad>0</ns3:cad>
          </ns3:TrackPointExtension>
        </extensions>
      </trkpt>
      <trkpt lat="44.72042053006589412689208984375" lon="6.72305974178016185760498046875">
        <ele>2142</ele>
        <time>2026-09-03T05:02:31.000Z</time>
        <extensions>
          <ns3:TrackPointExtension>
            <ns3:hr>69</ns3:hr>
            <ns3:cad>0</ns3:cad>
          </ns3:TrackPointExtension>
        </extensions>
      </trkpt>
      <trkpt lat="44.72042053006589412689208984375" lon="6.72305974178016185760498046875">
        <ele>2142</ele>
        <time>2026-09-03T05:02:32.000Z</time>
        <extensions>
          <ns3:TrackPointExtension>
            <ns3:hr>69</ns3:hr>
            <ns3:cad>0</ns3:cad>
          </ns3:TrackPointExtension>
        </extensions>
      </trkpt>
      <trkpt lat="44.72042053006589412689208984375" lon="6.72305974178016185760498046875">
        <ele>2142</ele>
        <time>2026-09-03T05:02:33.000Z</time>
        <extensions>
          <ns3:TrackPointExtension>
            <ns3:hr>69</ns3:hr>
            <ns3:cad>0</ns3:cad>
          </ns3:TrackPointExtension>
        </extensions>
      </trkpt>
      <trkpt lat="44.72042053006589412689208984375" lon="6.72305974178016185760498046875">
        <ele>2142</ele>
        <time>2026-09-03T05:02:34.000Z</time>
        <extensions>
          <ns3:TrackPointExtension>
            <ns3:hr>69</ns3:hr>
            <ns3:cad>0</ns3:cad>
          </ns3:TrackPointExtension>
        </extensions>
      </trkpt>
      <trkpt lat="44.72042053006589412689208984375" lon="6.72305974178016185760498046875">
        <ele>2142</ele>
        <time>2026-09-03T05:02:35.000Z</time>
        <extensions>
          <ns3:TrackPointExtension>
            <ns3:hr>69</ns3:hr>
            <ns3:cad>0</ns3:cad>
          </ns3:TrackPointExtension>
        </extensions>
      </trkpt>
      <trkpt lat="44.72042053006589412689208984375" lon="6.72305974178016185760498046875">
        <ele>2142</ele>
        <time>2026-09-03T05:02:36.000Z</time>
        <extensions>
          <ns3:TrackPointExtension>
            <ns3:hr>69</ns3:hr>
            <ns3:cad>0</ns3:cad>
          </ns3:TrackPointExtension>
        </extensions>
      </trkpt>
      <trkpt lat="44.72042053006589412689208984375" lon="6.72305974178016185760498046875">
        <ele>2142</ele>
        <time>2026-09-03T05:02:37.000Z</time>
        <extensions>
          <ns3:TrackPointExtension>
            <ns3:hr>69</ns3:hr>
            <ns3:cad>0</ns3:cad>
          </ns3:TrackPointExtension>
        </extensions>
      </trkpt>
      <trkpt lat="44.72042053006589412689208984375" lon="6.72305974178016185760498046875">
        <ele>2142</ele>
        <time>2026-09-03T05:02:38.000Z</time>
        <extensions>
          <ns3:TrackPointExtension>
            <ns3:hr>69</ns3:hr>
            <ns3:cad>0</ns3:cad>
          </ns3:TrackPointExtension>
        </extensions>
      </trkpt>
      <trkpt lat="44.72042053006589412689208984375" lon="6.72305974178016185760498046875">
        <ele>2142</ele>
        <time>2026-09-03T05:02:39.000Z</time>
        <extensions>
          <ns3:TrackPointExtension>
            <ns3:hr>69</ns3:hr>
            <ns3:cad>0</ns3:cad>
          </ns3:TrackPointExtension>
        </extensions>
      </trkpt>
      <trkpt lat="44.72042053006589412689208984375" lon="6.72305974178016185760498046875">
        <ele>2142</ele>
        <time>2026-09-03T05:02:40.000Z</time>
        <extensions>
          <ns3:TrackPointExtension>
            <ns3:hr>69</ns3:hr>
            <ns3:cad>0</ns3:cad>
          </ns3:TrackPointExtension>
        </extensions>
      </trkpt>
      <trkpt lat="44.720418937504291534423828125" lon="6.72306812368333339691162109375">
        <ele>2142</ele>
        <time>2026-09-03T05:02:41.000Z</time>
        <extensions>
          <ns3:TrackPointExtension>
            <ns3:hr>69</ns3:hr>
            <ns3:cad>90</ns3:cad>
          </ns3:TrackPointExtension>
        </extensions>
      </trkpt>
      <trkpt lat="44.72041801549494266510009765625" lon="6.72307566739618778228759765625">
        <ele>2142</ele>
        <time>2026-09-03T05:02:42.000Z</time>
        <extensions>
          <ns3:TrackPointExtension>
            <ns3:hr>69</ns3:hr>
            <ns3:cad>90</ns3:cad>
          </ns3:TrackPointExtension>
        </extensions>
      </trkpt>
      <trkpt lat="44.7204167582094669342041015625" lon="6.723077259957790374755859375">
        <ele>2142.199951171875</ele>
        <time>2026-09-03T05:02:43.000Z</time>
        <extensions>
          <ns3:TrackPointExtension>
            <ns3:hr>69</ns3:hr>
            <ns3:cad>90</ns3:cad>
          </ns3:TrackPointExtension>
        </extensions>
      </trkpt>
      <trkpt lat="44.72042086534202098846435546875" lon="6.72307801432907581329345703125">
        <ele>2142.199951171875</ele>
        <time>2026-09-03T05:02:44.000Z</time>
        <extensions>
          <ns3:TrackPointExtension>
            <ns3:hr>68</ns3:hr>
            <ns3:cad>90</ns3:cad>
          </ns3:TrackPointExtension>
        </extensions>
      </trkpt>
      <trkpt lat="44.7204231284558773040771484375" lon="6.72307600267231464385986328125">
        <ele>2142.39990234375</ele>
        <time>2026-09-03T05:02:45.000Z</time>
        <extensions>
          <ns3:TrackPointExtension>
            <ns3:hr>68</ns3:hr>
            <ns3:cad>90</ns3:cad>
          </ns3:TrackPointExtension>
        </extensions>
      </trkpt>
      <trkpt lat="44.7204294987022876739501953125" lon="6.7230750806629657745361328125">
        <ele>2142.39990234375</ele>
        <time>2026-09-03T05:02:46.000Z</time>
        <extensions>
          <ns3:TrackPointExtension>
            <ns3:hr>68</ns3:hr>
            <ns3:cad>0</ns3:cad>
          </ns3:TrackPointExtension>
        </extensions>
      </trkpt>
      <trkpt lat="44.7204378806054592132568359375" lon="6.72307558357715606689453125">
        <ele>2142.39990234375</ele>
        <time>2026-09-03T05:02:47.000Z</time>
        <extensions>
          <ns3:TrackPointExtension>
            <ns3:hr>67</ns3:hr>
            <ns3:cad>0</ns3:cad>
          </ns3:TrackPointExtension>
        </extensions>
      </trkpt>
      <trkpt lat="44.720437712967395782470703125" lon="6.72309100627899169921875">
        <ele>2142.39990234375</ele>
        <time>2026-09-03T05:02:48.000Z</time>
        <extensions>
          <ns3:TrackPointExtension>
            <ns3:hr>67</ns3:hr>
            <ns3:cad>0</ns3:cad>
          </ns3:TrackPointExtension>
        </extensions>
      </trkpt>
      <trkpt lat="44.72043813206255435943603515625" lon="6.72309913672506809234619140625">
        <ele>2142.39990234375</ele>
        <time>2026-09-03T05:02:49.000Z</time>
        <extensions>
          <ns3:TrackPointExtension>
            <ns3:hr>67</ns3:hr>
            <ns3:cad>0</ns3:cad>
          </ns3:TrackPointExtension>
        </extensions>
      </trkpt>
      <trkpt lat="44.72043804824352264404296875" lon="6.7231030762195587158203125">
        <ele>2142.199951171875</ele>
        <time>2026-09-03T05:02:50.000Z</time>
        <extensions>
          <ns3:TrackPointExtension>
            <ns3:hr>67</ns3:hr>
            <ns3:cad>0</ns3:cad>
          </ns3:TrackPointExtension>
        </extensions>
      </trkpt>
      <trkpt lat="44.720435030758380889892578125" lon="6.72310165129601955413818359375">
        <ele>2142.199951171875</ele>
        <time>2026-09-03T05:02:51.000Z</time>
        <extensions>
          <ns3:TrackPointExtension>
            <ns3:hr>66</ns3:hr>
            <ns3:cad>0</ns3:cad>
          </ns3:TrackPointExtension>
        </extensions>
      </trkpt>
      <trkpt lat="44.72043402493000030517578125" lon="6.7231070995330810546875">
        <ele>2142</ele>
        <time>2026-09-03T05:02:52.000Z</time>
        <extensions>
          <ns3:TrackPointExtension>
            <ns3:hr>66</ns3:hr>
            <ns3:cad>0</ns3:cad>
          </ns3:TrackPointExtension>
        </extensions>
      </trkpt>
      <trkpt lat="44.72043335437774658203125" lon="6.72311288304626941680908203125">
        <ele>2141.800048828125</ele>
        <time>2026-09-03T05:02:53.000Z</time>
        <extensions>
          <ns3:TrackPointExtension>
            <ns3:hr>67</ns3:hr>
            <ns3:cad>0</ns3:cad>
          </ns3:TrackPointExtension>
        </extensions>
      </trkpt>
      <trkpt lat="44.72043746151030063629150390625" lon="6.72311849892139434814453125">
        <ele>2141.60009765625</ele>
        <time>2026-09-03T05:02:54.000Z</time>
        <extensions>
          <ns3:TrackPointExtension>
            <ns3:hr>67</ns3:hr>
            <ns3:cad>0</ns3:cad>
          </ns3:TrackPointExtension>
        </extensions>
      </trkpt>
      <trkpt lat="44.72044114954769611358642578125" lon="6.7231210134923458099365234375">
        <ele>2141.39990234375</ele>
        <time>2026-09-03T05:02:55.000Z</time>
        <extensions>
          <ns3:TrackPointExtension>
            <ns3:hr>67</ns3:hr>
            <ns3:cad>0</ns3:cad>
          </ns3:TrackPointExtension>
        </extensions>
      </trkpt>
      <trkpt lat="44.72044567577540874481201171875" lon="6.723136268556118011474609375">
        <ele>2141.39990234375</ele>
        <time>2026-09-03T05:02:56.000Z</time>
        <extensions>
          <ns3:TrackPointExtension>
            <ns3:hr>68</ns3:hr>
            <ns3:cad>0</ns3:cad>
          </ns3:TrackPointExtension>
        </extensions>
      </trkpt>
      <trkpt lat="44.72044819034636020660400390625" lon="6.72314289025962352752685546875">
        <ele>2141.199951171875</ele>
        <time>2026-09-03T05:02:57.000Z</time>
        <extensions>
          <ns3:TrackPointExtension>
            <ns3:hr>68</ns3:hr>
            <ns3:cad>0</ns3:cad>
          </ns3:TrackPointExtension>
        </extensions>
      </trkpt>
      <trkpt lat="44.72044919617474079132080078125" lon="6.72315127216279506683349609375">
        <ele>2141</ele>
        <time>2026-09-03T05:02:58.000Z</time>
        <extensions>
          <ns3:TrackPointExtension>
            <ns3:hr>68</ns3:hr>
            <ns3:cad>0</ns3:cad>
          </ns3:TrackPointExtension>
        </extensions>
      </trkpt>
      <trkpt lat="44.7204492799937725067138671875" lon="6.72315630130469799041748046875">
        <ele>2141</ele>
        <time>2026-09-03T05:02:59.000Z</time>
        <extensions>
          <ns3:TrackPointExtension>
            <ns3:hr>69</ns3:hr>
            <ns3:cad>0</ns3:cad>
          </ns3:TrackPointExtension>
        </extensions>
      </trkpt>
      <trkpt lat="44.7204496152698993682861328125" lon="6.723166443407535552978515625">
        <ele>2141</ele>
        <time>2026-09-03T05:03:00.000Z</time>
        <extensions>
          <ns3:TrackPointExtension>
            <ns3:hr>68</ns3:hr>
            <ns3:cad>51</ns3:cad>
          </ns3:TrackPointExtension>
        </extensions>
      </trkpt>
      <trkpt lat="44.72044986672699451446533203125" lon="6.72317591495811939239501953125">
        <ele>2140.800048828125</ele>
        <time>2026-09-03T05:03:01.000Z</time>
        <extensions>
          <ns3:TrackPointExtension>
            <ns3:hr>68</ns3:hr>
            <ns3:cad>51</ns3:cad>
          </ns3:TrackPointExtension>
        </extensions>
      </trkpt>
      <trkpt lat="44.72045104019343852996826171875" lon="6.72318329103291034698486328125">
        <ele>2140.60009765625</ele>
        <time>2026-09-03T05:03:02.000Z</time>
        <extensions>
          <ns3:TrackPointExtension>
            <ns3:hr>69</ns3:hr>
            <ns3:cad>51</ns3:cad>
          </ns3:TrackPointExtension>
        </extensions>
      </trkpt>
      <trkpt lat="44.7204526327550411224365234375" lon="6.72319628298282623291015625">
        <ele>2140.39990234375</ele>
        <time>2026-09-03T05:03:03.000Z</time>
        <extensions>
          <ns3:TrackPointExtension>
            <ns3:hr>69</ns3:hr>
            <ns3:cad>51</ns3:cad>
          </ns3:TrackPointExtension>
        </extensions>
      </trkpt>
      <trkpt lat="44.7204546444118022918701171875" lon="6.723207347095012664794921875">
        <ele>2140.199951171875</ele>
        <time>2026-09-03T05:03:04.000Z</time>
        <extensions>
          <ns3:TrackPointExtension>
            <ns3:hr>69</ns3:hr>
            <ns3:cad>51</ns3:cad>
          </ns3:TrackPointExtension>
        </extensions>
      </trkpt>
      <trkpt lat="44.7204576618969440460205078125" lon="6.723216064274311065673828125">
        <ele>2139.800048828125</ele>
        <time>2026-09-03T05:03:05.000Z</time>
        <extensions>
          <ns3:TrackPointExtension>
            <ns3:hr>69</ns3:hr>
            <ns3:cad>73</ns3:cad>
          </ns3:TrackPointExtension>
        </extensions>
      </trkpt>
      <trkpt lat="44.72046260721981525421142578125" lon="6.72322821803390979766845703125">
        <ele>2139.60009765625</ele>
        <time>2026-09-03T05:03:06.000Z</time>
        <extensions>
          <ns3:TrackPointExtension>
            <ns3:hr>69</ns3:hr>
            <ns3:cad>73</ns3:cad>
          </ns3:TrackPointExtension>
        </extensions>
      </trkpt>
      <trkpt lat="44.7204667143523693084716796875" lon="6.72324045561254024505615234375">
        <ele>2139.60009765625</ele>
        <time>2026-09-03T05:03:07.000Z</time>
        <extensions>
          <ns3:TrackPointExtension>
            <ns3:hr>69</ns3:hr>
            <ns3:cad>73</ns3:cad>
          </ns3:TrackPointExtension>
        </extensions>
      </trkpt>
      <trkpt lat="44.72046780399978160858154296875" lon="6.723251603543758392333984375">
        <ele>2139.39990234375</ele>
        <time>2026-09-03T05:03:08.000Z</time>
        <extensions>
          <ns3:TrackPointExtension>
            <ns3:hr>69</ns3:hr>
            <ns3:cad>73</ns3:cad>
          </ns3:TrackPointExtension>
        </extensions>
      </trkpt>
      <trkpt lat="44.72047157585620880126953125" lon="6.7232631705701351165771484375">
        <ele>2139.199951171875</ele>
        <time>2026-09-03T05:03:09.000Z</time>
        <extensions>
          <ns3:TrackPointExtension>
            <ns3:hr>69</ns3:hr>
            <ns3:cad>73</ns3:cad>
          </ns3:TrackPointExtension>
        </extensions>
      </trkpt>
      <trkpt lat="44.72048121504485607147216796875" lon="6.72327247448265552520751953125">
        <ele>2139.199951171875</ele>
        <time>2026-09-03T05:03:10.000Z</time>
        <extensions>
          <ns3:TrackPointExtension>
            <ns3:hr>68</ns3:hr>
            <ns3:cad>73</ns3:cad>
          </ns3:TrackPointExtension>
        </extensions>
      </trkpt>
      <trkpt lat="44.7204858250916004180908203125" lon="6.72328211367130279541015625">
        <ele>2139</ele>
        <time>2026-09-03T05:03:11.000Z</time>
        <extensions>
          <ns3:TrackPointExtension>
            <ns3:hr>68</ns3:hr>
            <ns3:cad>59</ns3:cad>
          </ns3:TrackPointExtension>
        </extensions>
      </trkpt>
      <trkpt lat="44.7204831428825855255126953125" lon="6.72329443506896495819091796875">
        <ele>2138.800048828125</ele>
        <time>2026-09-03T05:03:12.000Z</time>
        <extensions>
          <ns3:TrackPointExtension>
            <ns3:hr>68</ns3:hr>
            <ns3:cad>59</ns3:cad>
          </ns3:TrackPointExtension>
        </extensions>
      </trkpt>
      <trkpt lat="44.72048574127256870269775390625" lon="6.72330533154308795928955078125">
        <ele>2138.800048828125</ele>
        <time>2026-09-03T05:03:13.000Z</time>
        <extensions>
          <ns3:TrackPointExtension>
            <ns3:hr>68</ns3:hr>
            <ns3:cad>59</ns3:cad>
          </ns3:TrackPointExtension>
        </extensions>
      </trkpt>
      <trkpt lat="44.72048674710094928741455078125" lon="6.723315306007862091064453125">
        <ele>2138.60009765625</ele>
        <time>2026-09-03T05:03:14.000Z</time>
        <extensions>
          <ns3:TrackPointExtension>
            <ns3:hr>68</ns3:hr>
            <ns3:cad>59</ns3:cad>
          </ns3:TrackPointExtension>
        </extensions>
      </trkpt>
      <trkpt lat="44.72048892639577388763427734375" lon="6.72332444228231906890869140625">
        <ele>2138.39990234375</ele>
        <time>2026-09-03T05:03:15.000Z</time>
        <extensions>
          <ns3:TrackPointExtension>
            <ns3:hr>69</ns3:hr>
            <ns3:cad>57</ns3:cad>
          </ns3:TrackPointExtension>
        </extensions>
      </trkpt>
      <trkpt lat="44.72049060277640819549560546875" lon="6.72333768568933010101318359375">
        <ele>2138.199951171875</ele>
        <time>2026-09-03T05:03:16.000Z</time>
        <extensions>
          <ns3:TrackPointExtension>
            <ns3:hr>69</ns3:hr>
            <ns3:cad>57</ns3:cad>
          </ns3:TrackPointExtension>
        </extensions>
      </trkpt>
      <trkpt lat="44.72049211151897907257080078125" lon="6.723350845277309417724609375">
        <ele>2138</ele>
        <time>2026-09-03T05:03:17.000Z</time>
        <extensions>
          <ns3:TrackPointExtension>
            <ns3:hr>69</ns3:hr>
            <ns3:cad>57</ns3:cad>
          </ns3:TrackPointExtension>
        </extensions>
      </trkpt>
      <trkpt lat="44.720495380461215972900390625" lon="6.7233647592365741729736328125">
        <ele>2137.800048828125</ele>
        <time>2026-09-03T05:03:18.000Z</time>
        <extensions>
          <ns3:TrackPointExtension>
            <ns3:hr>70</ns3:hr>
            <ns3:cad>62</ns3:cad>
          </ns3:TrackPointExtension>
        </extensions>
      </trkpt>
      <trkpt lat="44.72049797885119915008544921875" lon="6.723379679024219512939453125">
        <ele>2137.60009765625</ele>
        <time>2026-09-03T05:03:19.000Z</time>
        <extensions>
          <ns3:TrackPointExtension>
            <ns3:hr>70</ns3:hr>
            <ns3:cad>62</ns3:cad>
          </ns3:TrackPointExtension>
        </extensions>
      </trkpt>
      <trkpt lat="44.72050183452665805816650390625" lon="6.72339954413473606109619140625">
        <ele>2137.60009765625</ele>
        <time>2026-09-03T05:03:20.000Z</time>
        <extensions>
          <ns3:TrackPointExtension>
            <ns3:hr>71</ns3:hr>
            <ns3:cad>62</ns3:cad>
          </ns3:TrackPointExtension>
        </extensions>
      </trkpt>
      <trkpt lat="44.7205066122114658355712890625" lon="6.72341463156044483184814453125">
        <ele>2137.39990234375</ele>
        <time>2026-09-03T05:03:21.000Z</time>
        <extensions>
          <ns3:TrackPointExtension>
            <ns3:hr>70</ns3:hr>
            <ns3:cad>62</ns3:cad>
          </ns3:TrackPointExtension>
        </extensions>
      </trkpt>
      <trkpt lat="44.72051122225821018218994140625" lon="6.72342787496745586395263671875">
        <ele>2137.199951171875</ele>
        <time>2026-09-03T05:03:22.000Z</time>
        <extensions>
          <ns3:TrackPointExtension>
            <ns3:hr>70</ns3:hr>
            <ns3:cad>59</ns3:cad>
          </ns3:TrackPointExtension>
        </extensions>
      </trkpt>
      <trkpt lat="44.72051776014268398284912109375" lon="6.72344229184091091156005859375">
        <ele>2137</ele>
        <time>2026-09-03T05:03:23.000Z</time>
        <extensions>
          <ns3:TrackPointExtension>
            <ns3:hr>70</ns3:hr>
            <ns3:cad>59</ns3:cad>
          </ns3:TrackPointExtension>
        </extensions>
      </trkpt>
      <trkpt lat="44.7205267287790775299072265625" lon="6.72346207313239574432373046875">
        <ele>2136.800048828125</ele>
        <time>2026-09-03T05:03:24.000Z</time>
        <extensions>
          <ns3:TrackPointExtension>
            <ns3:hr>70</ns3:hr>
            <ns3:cad>58</ns3:cad>
          </ns3:TrackPointExtension>
        </extensions>
      </trkpt>
      <trkpt lat="44.72053402103483676910400390625" lon="6.72347933985292911529541015625">
        <ele>2136.800048828125</ele>
        <time>2026-09-03T05:03:25.000Z</time>
        <extensions>
          <ns3:TrackPointExtension>
            <ns3:hr>70</ns3:hr>
            <ns3:cad>58</ns3:cad>
          </ns3:TrackPointExtension>
        </extensions>
      </trkpt>
      <trkpt lat="44.72054391168057918548583984375" lon="6.72349291853606700897216796875">
        <ele>2136.39990234375</ele>
        <time>2026-09-03T05:03:26.000Z</time>
        <extensions>
          <ns3:TrackPointExtension>
            <ns3:hr>70</ns3:hr>
            <ns3:cad>0</ns3:cad>
          </ns3:TrackPointExtension>
        </extensions>
      </trkpt>
      <trkpt lat="44.72055070102214813232421875" lon="6.7235079221427440643310546875">
        <ele>2136.199951171875</ele>
        <time>2026-09-03T05:03:27.000Z</time>
        <extensions>
          <ns3:TrackPointExtension>
            <ns3:hr>69</ns3:hr>
            <ns3:cad>0</ns3:cad>
          </ns3:TrackPointExtension>
        </extensions>
      </trkpt>
      <trkpt lat="44.7205501981079578399658203125" lon="6.72351957298815250396728515625">
        <ele>2136</ele>
        <time>2026-09-03T05:03:28.000Z</time>
        <extensions>
          <ns3:TrackPointExtension>
            <ns3:hr>69</ns3:hr>
            <ns3:cad>0</ns3:cad>
          </ns3:TrackPointExtension>
        </extensions>
      </trkpt>
      <trkpt lat="44.72054441459476947784423828125" lon="6.72352778725326061248779296875">
        <ele>2135.800048828125</ele>
        <time>2026-09-03T05:03:29.000Z</time>
        <extensions>
          <ns3:TrackPointExtension>
            <ns3:hr>69</ns3:hr>
            <ns3:cad>0</ns3:cad>
          </ns3:TrackPointExtension>
        </extensions>
      </trkpt>
      <trkpt lat="44.72053737379610538482666015625" lon="6.7235270328819751739501953125">
        <ele>2135.39990234375</ele>
        <time>2026-09-03T05:03:30.000Z</time>
        <extensions>
          <ns3:TrackPointExtension>
            <ns3:hr>69</ns3:hr>
            <ns3:cad>0</ns3:cad>
          </ns3:TrackPointExtension>
        </extensions>
      </trkpt>
      <trkpt lat="44.7205320931971073150634765625" lon="6.72352577559649944305419921875">
        <ele>2135</ele>
        <time>2026-09-03T05:03:31.000Z</time>
        <extensions>
          <ns3:TrackPointExtension>
            <ns3:hr>69</ns3:hr>
            <ns3:cad>0</ns3:cad>
          </ns3:TrackPointExtension>
        </extensions>
      </trkpt>
      <trkpt lat="44.72052656114101409912109375" lon="6.723522506654262542724609375">
        <ele>2134.800048828125</ele>
        <time>2026-09-03T05:03:32.000Z</time>
        <extensions>
          <ns3:TrackPointExtension>
            <ns3:hr>69</ns3:hr>
            <ns3:cad>0</ns3:cad>
          </ns3:TrackPointExtension>
        </extensions>
      </trkpt>
      <trkpt lat="44.72052094526588916778564453125" lon="6.723515801131725311279296875">
        <ele>2134.60009765625</ele>
        <time>2026-09-03T05:03:33.000Z</time>
        <extensions>
          <ns3:TrackPointExtension>
            <ns3:hr>69</ns3:hr>
            <ns3:cad>0</ns3:cad>
          </ns3:TrackPointExtension>
        </extensions>
      </trkpt>
      <trkpt lat="44.72050954587757587432861328125" lon="6.7235072515904903411865234375">
        <ele>2134.39990234375</ele>
        <time>2026-09-03T05:03:34.000Z</time>
        <extensions>
          <ns3:TrackPointExtension>
            <ns3:hr>68</ns3:hr>
            <ns3:cad>0</ns3:cad>
          </ns3:TrackPointExtension>
        </extensions>
      </trkpt>
      <trkpt lat="44.72049965523183345794677734375" lon="6.7234981991350650787353515625">
        <ele>2134.199951171875</ele>
        <time>2026-09-03T05:03:35.000Z</time>
        <extensions>
          <ns3:TrackPointExtension>
            <ns3:hr>67</ns3:hr>
            <ns3:cad>0</ns3:cad>
          </ns3:TrackPointExtension>
        </extensions>
      </trkpt>
      <trkpt lat="44.7204848192632198333740234375" lon="6.72349744476377964019775390625">
        <ele>2134</ele>
        <time>2026-09-03T05:03:36.000Z</time>
        <extensions>
          <ns3:TrackPointExtension>
            <ns3:hr>67</ns3:hr>
            <ns3:cad>66</ns3:cad>
          </ns3:TrackPointExtension>
        </extensions>
      </trkpt>
      <trkpt lat="44.72046914510428905487060546875" lon="6.72349442727863788604736328125">
        <ele>2133.800048828125</ele>
        <time>2026-09-03T05:03:37.000Z</time>
        <extensions>
          <ns3:TrackPointExtension>
            <ns3:hr>67</ns3:hr>
            <ns3:cad>66</ns3:cad>
          </ns3:TrackPointExtension>
        </extensions>
      </trkpt>
      <trkpt lat="44.7204566560685634613037109375" lon="6.72349912114441394805908203125">
        <ele>2133.60009765625</ele>
        <time>2026-09-03T05:03:38.000Z</time>
        <extensions>
          <ns3:TrackPointExtension>
            <ns3:hr>67</ns3:hr>
            <ns3:cad>59</ns3:cad>
          </ns3:TrackPointExtension>
        </extensions>
      </trkpt>
      <trkpt lat="44.7204650379717350006103515625" lon="6.72351504676043987274169921875">
        <ele>2133.39990234375</ele>
        <time>2026-09-03T05:03:39.000Z</time>
        <extensions>
          <ns3:TrackPointExtension>
            <ns3:hr>67</ns3:hr>
            <ns3:cad>59</ns3:cad>
          </ns3:TrackPointExtension>
        </extensions>
      </trkpt>
      <trkpt lat="44.72046562470495700836181640625" lon="6.72353633679449558258056640625">
        <ele>2133</ele>
        <time>2026-09-03T05:03:40.000Z</time>
        <extensions>
          <ns3:TrackPointExtension>
            <ns3:hr>67</ns3:hr>
            <ns3:cad>59</ns3:cad>
          </ns3:TrackPointExtension>
        </extensions>
      </trkpt>
      <trkpt lat="44.72047300077974796295166015625" lon="6.72356097958981990814208984375">
        <ele>2132.800048828125</ele>
        <time>2026-09-03T05:03:41.000Z</time>
        <extensions>
          <ns3:TrackPointExtension>
            <ns3:hr>67</ns3:hr>
            <ns3:cad>63</ns3:cad>
          </ns3:TrackPointExtension>
        </extensions>
      </trkpt>
      <trkpt lat="44.7204767726361751556396484375" lon="6.72357849776744842529296875">
        <ele>2132.39990234375</ele>
        <time>2026-09-03T05:03:42.000Z</time>
        <extensions>
          <ns3:TrackPointExtension>
            <ns3:hr>68</ns3:hr>
            <ns3:cad>75</ns3:cad>
          </ns3:TrackPointExtension>
        </extensions>
      </trkpt>
      <trkpt lat="44.72048171795904636383056640625" lon="6.72359459102153778076171875">
        <ele>2132.199951171875</ele>
        <time>2026-09-03T05:03:43.000Z</time>
        <extensions>
          <ns3:TrackPointExtension>
            <ns3:hr>68</ns3:hr>
            <ns3:cad>75</ns3:cad>
          </ns3:TrackPointExtension>
        </extensions>
      </trkpt>
      <trkpt lat="44.720489345490932464599609375" lon="6.72361009754240512847900390625">
        <ele>2132</ele>
        <time>2026-09-03T05:03:44.000Z</time>
        <extensions>
          <ns3:TrackPointExtension>
            <ns3:hr>69</ns3:hr>
            <ns3:cad>75</ns3:cad>
          </ns3:TrackPointExtension>
        </extensions>
      </trkpt>
      <trkpt lat="44.72049496136605739593505859375" lon="6.72362736426293849945068359375">
        <ele>2131.60009765625</ele>
        <time>2026-09-03T05:03:45.000Z</time>
        <extensions>
          <ns3:TrackPointExtension>
            <ns3:hr>71</ns3:hr>
            <ns3:cad>75</ns3:cad>
          </ns3:TrackPointExtension>
        </extensions>
      </trkpt>
      <trkpt lat="44.72050501964986324310302734375" lon="6.7236413620412349700927734375">
        <ele>2131.199951171875</ele>
        <time>2026-09-03T05:03:46.000Z</time>
        <extensions>
          <ns3:TrackPointExtension>
            <ns3:hr>72</ns3:hr>
            <ns3:cad>76</ns3:cad>
          </ns3:TrackPointExtension>
        </extensions>
      </trkpt>
      <trkpt lat="44.7205176763236522674560546875" lon="6.72365988604724407196044921875">
        <ele>2131</ele>
        <time>2026-09-03T05:03:47.000Z</time>
        <extensions>
          <ns3:TrackPointExtension>
            <ns3:hr>73</ns3:hr>
            <ns3:cad>77</ns3:cad>
          </ns3:TrackPointExtension>
        </extensions>
      </trkpt>
      <trkpt lat="44.720528237521648406982421875" lon="6.72367245890200138092041015625">
        <ele>2130.60009765625</ele>
        <time>2026-09-03T05:03:48.000Z</time>
        <extensions>
          <ns3:TrackPointExtension>
            <ns3:hr>75</ns3:hr>
            <ns3:cad>77</ns3:cad>
          </ns3:TrackPointExtension>
        </extensions>
      </trkpt>
      <trkpt lat="44.720542989671230316162109375" lon="6.72368134371936321258544921875">
        <ele>2130.39990234375</ele>
        <time>2026-09-03T05:03:49.000Z</time>
        <extensions>
          <ns3:TrackPointExtension>
            <ns3:hr>77</ns3:hr>
            <ns3:cad>77</ns3:cad>
          </ns3:TrackPointExtension>
        </extensions>
      </trkpt>
      <trkpt lat="44.72056134603917598724365234375" lon="6.7236849479377269744873046875">
        <ele>2130.199951171875</ele>
        <time>2026-09-03T05:03:50.000Z</time>
        <extensions>
          <ns3:TrackPointExtension>
            <ns3:hr>78</ns3:hr>
            <ns3:cad>71</ns3:cad>
          </ns3:TrackPointExtension>
        </extensions>
      </trkpt>
      <trkpt lat="44.72057157196104526519775390625" lon="6.72368788160383701324462890625">
        <ele>2130</ele>
        <time>2026-09-03T05:03:51.000Z</time>
        <extensions>
          <ns3:TrackPointExtension>
            <ns3:hr>79</ns3:hr>
            <ns3:cad>71</ns3:cad>
          </ns3:TrackPointExtension>
        </extensions>
      </trkpt>
      <trkpt lat="44.72057911567389965057373046875" lon="6.72369827516376972198486328125">
        <ele>2129.60009765625</ele>
        <time>2026-09-03T05:03:52.000Z</time>
        <extensions>
          <ns3:TrackPointExtension>
            <ns3:hr>82</ns3:hr>
            <ns3:cad>79</ns3:cad>
          </ns3:TrackPointExtension>
        </extensions>
      </trkpt>
      <trkpt lat="44.720569141209125518798828125" lon="6.72371369786560535430908203125">
        <ele>2129.39990234375</ele>
        <time>2026-09-03T05:03:53.000Z</time>
        <extensions>
          <ns3:TrackPointExtension>
            <ns3:hr>84</ns3:hr>
            <ns3:cad>79</ns3:cad>
          </ns3:TrackPointExtension>
        </extensions>
      </trkpt>
      <trkpt lat="44.720561094582080841064453125" lon="6.7237275280058383941650390625">
        <ele>2129</ele>
        <time>2026-09-03T05:03:54.000Z</time>
        <extensions>
          <ns3:TrackPointExtension>
            <ns3:hr>86</ns3:hr>
            <ns3:cad>79</ns3:cad>
          </ns3:TrackPointExtension>
        </extensions>
      </trkpt>
      <trkpt lat="44.72055899910628795623779296875" lon="6.72374001704156398773193359375">
        <ele>2128.60009765625</ele>
        <time>2026-09-03T05:03:55.000Z</time>
        <extensions>
          <ns3:TrackPointExtension>
            <ns3:hr>88</ns3:hr>
            <ns3:cad>78</ns3:cad>
          </ns3:TrackPointExtension>
        </extensions>
      </trkpt>
      <trkpt lat="44.72055816091597080230712890625" lon="6.72375258989632129669189453125">
        <ele>2128.199951171875</ele>
        <time>2026-09-03T05:03:56.000Z</time>
        <extensions>
          <ns3:TrackPointExtension>
            <ns3:hr>90</ns3:hr>
            <ns3:cad>78</ns3:cad>
          </ns3:TrackPointExtension>
        </extensions>
      </trkpt>
      <trkpt lat="44.72055338323116302490234375" lon="6.72376633621752262115478515625">
        <ele>2128</ele>
        <time>2026-09-03T05:03:57.000Z</time>
        <extensions>
          <ns3:TrackPointExtension>
            <ns3:hr>96</ns3:hr>
            <ns3:cad>78</ns3:cad>
          </ns3:TrackPointExtension>
        </extensions>
      </trkpt>
      <trkpt lat="44.72054340876638889312744140625" lon="6.72376432456076145172119140625">
        <ele>2127.60009765625</ele>
        <time>2026-09-03T05:03:58.000Z</time>
        <extensions>
          <ns3:TrackPointExtension>
            <ns3:hr>97</ns3:hr>
            <ns3:cad>78</ns3:cad>
          </ns3:TrackPointExtension>
        </extensions>
      </trkpt>
      <trkpt lat="44.72052790224552154541015625" lon="6.72376331873238086700439453125">
        <ele>2127.199951171875</ele>
        <time>2026-09-03T05:03:59.000Z</time>
        <extensions>
          <ns3:TrackPointExtension>
            <ns3:hr>97</ns3:hr>
            <ns3:cad>78</ns3:cad>
          </ns3:TrackPointExtension>
        </extensions>
      </trkpt>
      <trkpt lat="44.7205153293907642364501953125" lon="6.72376625239849090576171875">
        <ele>2126.800048828125</ele>
        <time>2026-09-03T05:04:00.000Z</time>
        <extensions>
          <ns3:TrackPointExtension>
            <ns3:hr>99</ns3:hr>
            <ns3:cad>78</ns3:cad>
          </ns3:TrackPointExtension>
        </extensions>
      </trkpt>
      <trkpt lat="44.72050367854535579681396484375" lon="6.72377153299748897552490234375">
        <ele>2126.60009765625</ele>
        <time>2026-09-03T05:04:01.000Z</time>
        <extensions>
          <ns3:TrackPointExtension>
            <ns3:hr>99</ns3:hr>
            <ns3:cad>78</ns3:cad>
          </ns3:TrackPointExtension>
        </extensions>
      </trkpt>
      <trkpt lat="44.72048607654869556427001953125" lon="6.72377672977745532989501953125">
        <ele>2126.199951171875</ele>
        <time>2026-09-03T05:04:02.000Z</time>
        <extensions>
          <ns3:TrackPointExtension>
            <ns3:hr>99</ns3:hr>
            <ns3:cad>78</ns3:cad>
          </ns3:TrackPointExtension>
        </extensions>
      </trkpt>
      <trkpt lat="44.72047417424619197845458984375" lon="6.7237818427383899688720703125">
        <ele>2125.800048828125</ele>
        <time>2026-09-03T05:04:03.000Z</time>
        <extensions>
          <ns3:TrackPointExtension>
            <ns3:hr>99</ns3:hr>
            <ns3:cad>78</ns3:cad>
          </ns3:TrackPointExtension>
        </extensions>
      </trkpt>
      <trkpt lat="44.72046629525721073150634765625" lon="6.72378963790833950042724609375">
        <ele>2125.39990234375</ele>
        <time>2026-09-03T05:04:04.000Z</time>
        <extensions>
          <ns3:TrackPointExtension>
            <ns3:hr>99</ns3:hr>
            <ns3:cad>78</ns3:cad>
          </ns3:TrackPointExtension>
        </extensions>
      </trkpt>
      <trkpt lat="44.720449782907962799072265625" lon="6.72379248775541782379150390625">
        <ele>2125.199951171875</ele>
        <time>2026-09-03T05:04:05.000Z</time>
        <extensions>
          <ns3:TrackPointExtension>
            <ns3:hr>99</ns3:hr>
            <ns3:cad>78</ns3:cad>
          </ns3:TrackPointExtension>
        </extensions>
      </trkpt>
      <trkpt lat="44.72042187117040157318115234375" lon="6.72379047609865665435791015625">
        <ele>2124.800048828125</ele>
        <time>2026-09-03T05:04:06.000Z</time>
        <extensions>
          <ns3:TrackPointExtension>
            <ns3:hr>99</ns3:hr>
            <ns3:cad>0</ns3:cad>
          </ns3:TrackPointExtension>
        </extensions>
      </trkpt>
      <trkpt lat="44.7204078733921051025390625" lon="6.72378628514707088470458984375">
        <ele>2124.60009765625</ele>
        <time>2026-09-03T05:04:07.000Z</time>
        <extensions>
          <ns3:TrackPointExtension>
            <ns3:hr>99</ns3:hr>
            <ns3:cad>0</ns3:cad>
          </ns3:TrackPointExtension>
        </extensions>
      </trkpt>
      <trkpt lat="44.7203959710896015167236328125" lon="6.72378762625157833099365234375">
        <ele>2124.199951171875</ele>
        <time>2026-09-03T05:04:08.000Z</time>
        <extensions>
          <ns3:TrackPointExtension>
            <ns3:hr>98</ns3:hr>
            <ns3:cad>0</ns3:cad>
          </ns3:TrackPointExtension>
        </extensions>
      </trkpt>
      <trkpt lat="44.720386750996112823486328125" lon="6.7237912304699420928955078125">
        <ele>2124</ele>
        <time>2026-09-03T05:04:09.000Z</time>
        <extensions>
          <ns3:TrackPointExtension>
            <ns3:hr>98</ns3:hr>
            <ns3:cad>0</ns3:cad>
          </ns3:TrackPointExtension>
        </extensions>
      </trkpt>
      <trkpt lat="44.72036696970462799072265625" lon="6.723780333995819091796875">
        <ele>2123.800048828125</ele>
        <time>2026-09-03T05:04:10.000Z</time>
        <extensions>
          <ns3:TrackPointExtension>
            <ns3:hr>98</ns3:hr>
            <ns3:cad>73</ns3:cad>
          </ns3:TrackPointExtension>
        </extensions>
      </trkpt>
      <trkpt lat="44.72034727223217487335205078125" lon="6.72377522103488445281982421875">
        <ele>2123.39990234375</ele>
        <time>2026-09-03T05:04:11.000Z</time>
        <extensions>
          <ns3:TrackPointExtension>
            <ns3:hr>99</ns3:hr>
            <ns3:cad>73</ns3:cad>
          </ns3:TrackPointExtension>
        </extensions>
      </trkpt>
      <trkpt lat="44.72033604048192501068115234375" lon="6.72376164235174655914306640625">
        <ele>2123.199951171875</ele>
        <time>2026-09-03T05:04:12.000Z</time>
        <extensions>
          <ns3:TrackPointExtension>
            <ns3:hr>99</ns3:hr>
            <ns3:cad>73</ns3:cad>
          </ns3:TrackPointExtension>
        </extensions>
      </trkpt>
      <trkpt lat="44.7203295864164829254150390625" lon="6.72374739311635494232177734375">
        <ele>2122.800048828125</ele>
        <time>2026-09-03T05:04:13.000Z</time>
        <extensions>
          <ns3:TrackPointExtension>
            <ns3:hr>99</ns3:hr>
            <ns3:cad>73</ns3:cad>
          </ns3:TrackPointExtension>
        </extensions>
      </trkpt>
      <trkpt lat="44.72032514400780200958251953125" lon="6.7237395979464054107666015625">
        <ele>2122.60009765625</ele>
        <time>2026-09-03T05:04:14.000Z</time>
        <extensions>
          <ns3:TrackPointExtension>
            <ns3:hr>99</ns3:hr>
            <ns3:cad>73</ns3:cad>
          </ns3:TrackPointExtension>
        </extensions>
      </trkpt>
      <trkpt lat="44.7203225456178188323974609375" lon="6.72373515553772449493408203125">
        <ele>2122.39990234375</ele>
        <time>2026-09-03T05:04:15.000Z</time>
        <extensions>
          <ns3:TrackPointExtension>
            <ns3:hr>100</ns3:hr>
            <ns3:cad>0</ns3:cad>
          </ns3:TrackPointExtension>
        </extensions>
      </trkpt>
      <trkpt lat="44.720320366322994232177734375" lon="6.72373012639582157135009765625">
        <ele>2122</ele>
        <time>2026-09-03T05:04:16.000Z</time>
        <extensions>
          <ns3:TrackPointExtension>
            <ns3:hr>100</ns3:hr>
            <ns3:cad>0</ns3:cad>
          </ns3:TrackPointExtension>
        </extensions>
      </trkpt>
      <trkpt lat="44.72031525336205959320068359375" lon="6.72372174449265003204345703125">
        <ele>2121.800048828125</ele>
        <time>2026-09-03T05:04:17.000Z</time>
        <extensions>
          <ns3:TrackPointExtension>
            <ns3:hr>100</ns3:hr>
            <ns3:cad>0</ns3:cad>
          </ns3:TrackPointExtension>
        </extensions>
      </trkpt>
      <trkpt lat="44.720308296382427215576171875" lon="6.72370749525725841522216796875">
        <ele>2121.60009765625</ele>
        <time>2026-09-03T05:04:18.000Z</time>
        <extensions>
          <ns3:TrackPointExtension>
            <ns3:hr>100</ns3:hr>
            <ns3:cad>0</ns3:cad>
          </ns3:TrackPointExtension>
        </extensions>
      </trkpt>
      <trkpt lat="44.7202977351844310760498046875" lon="6.72369928099215030670166015625">
        <ele>2121.39990234375</ele>
        <time>2026-09-03T05:04:19.000Z</time>
        <extensions>
          <ns3:TrackPointExtension>
            <ns3:hr>100</ns3:hr>
            <ns3:cad>0</ns3:cad>
          </ns3:TrackPointExtension>
        </extensions>
      </trkpt>
      <trkpt lat="44.720288850367069244384765625" lon="6.7236970178782939910888671875">
        <ele>2121</ele>
        <time>2026-09-03T05:04:20.000Z</time>
        <extensions>
          <ns3:TrackPointExtension>
            <ns3:hr>100</ns3:hr>
            <ns3:cad>0</ns3:cad>
          </ns3:TrackPointExtension>
        </extensions>
      </trkpt>
      <trkpt lat="44.7202789597213268280029296875" lon="6.72370246611535549163818359375">
        <ele>2120.60009765625</ele>
        <time>2026-09-03T05:04:21.000Z</time>
        <extensions>
          <ns3:TrackPointExtension>
            <ns3:hr>100</ns3:hr>
            <ns3:cad>0</ns3:cad>
          </ns3:TrackPointExtension>
        </extensions>
      </trkpt>
      <trkpt lat="44.72027577459812164306640625" lon="6.7237167991697788238525390625">
        <ele>2120.199951171875</ele>
        <time>2026-09-03T05:04:22.000Z</time>
        <extensions>
          <ns3:TrackPointExtension>
            <ns3:hr>99</ns3:hr>
            <ns3:cad>0</ns3:cad>
          </ns3:TrackPointExtension>
        </extensions>
      </trkpt>
      <trkpt lat="44.72028088755905628204345703125" lon="6.72373146750032901763916015625">
        <ele>2120</ele>
        <time>2026-09-03T05:04:23.000Z</time>
        <extensions>
          <ns3:TrackPointExtension>
            <ns3:hr>99</ns3:hr>
            <ns3:cad>0</ns3:cad>
          </ns3:TrackPointExtension>
        </extensions>
      </trkpt>
      <trkpt lat="44.720280803740024566650390625" lon="6.72374672256410121917724609375">
        <ele>2119.60009765625</ele>
        <time>2026-09-03T05:04:24.000Z</time>
        <extensions>
          <ns3:TrackPointExtension>
            <ns3:hr>98</ns3:hr>
            <ns3:cad>0</ns3:cad>
          </ns3:TrackPointExtension>
        </extensions>
      </trkpt>
      <trkpt lat="44.72028390504419803619384765625" lon="6.7237680964171886444091796875">
        <ele>2119.199951171875</ele>
        <time>2026-09-03T05:04:25.000Z</time>
        <extensions>
          <ns3:TrackPointExtension>
            <ns3:hr>98</ns3:hr>
            <ns3:cad>0</ns3:cad>
          </ns3:TrackPointExtension>
        </extensions>
      </trkpt>
      <trkpt lat="44.7202839888632297515869140625" lon="6.72378502786159515380859375">
        <ele>2119</ele>
        <time>2026-09-03T05:04:26.000Z</time>
        <extensions>
          <ns3:TrackPointExtension>
            <ns3:hr>97</ns3:hr>
            <ns3:cad>71</ns3:cad>
          </ns3:TrackPointExtension>
        </extensions>
      </trkpt>
      <trkpt lat="44.72028457559645175933837890625" lon="6.72380187548696994781494140625">
        <ele>2118.60009765625</ele>
        <time>2026-09-03T05:04:27.000Z</time>
        <extensions>
          <ns3:TrackPointExtension>
            <ns3:hr>97</ns3:hr>
            <ns3:cad>72</ns3:cad>
          </ns3:TrackPointExtension>
        </extensions>
      </trkpt>
      <trkpt lat="44.72028491087257862091064453125" lon="6.72381998039782047271728515625">
        <ele>2118.199951171875</ele>
        <time>2026-09-03T05:04:28.000Z</time>
        <extensions>
          <ns3:TrackPointExtension>
            <ns3:hr>97</ns3:hr>
            <ns3:cad>72</ns3:cad>
          </ns3:TrackPointExtension>
        </extensions>
      </trkpt>
      <trkpt lat="44.7202844917774200439453125" lon="6.72383867204189300537109375">
        <ele>2117.800048828125</ele>
        <time>2026-09-03T05:04:29.000Z</time>
        <extensions>
          <ns3:TrackPointExtension>
            <ns3:hr>97</ns3:hr>
            <ns3:cad>72</ns3:cad>
          </ns3:TrackPointExtension>
        </extensions>
      </trkpt>
      <trkpt lat="44.720285832881927490234375" lon="6.72385602258145809173583984375">
        <ele>2117.60009765625</ele>
        <time>2026-09-03T05:04:30.000Z</time>
        <extensions>
          <ns3:TrackPointExtension>
            <ns3:hr>98</ns3:hr>
            <ns3:cad>72</ns3:cad>
          </ns3:TrackPointExtension>
        </extensions>
      </trkpt>
      <trkpt lat="44.720286838710308074951171875" lon="6.72387161292135715484619140625">
        <ele>2117.199951171875</ele>
        <time>2026-09-03T05:04:31.000Z</time>
        <extensions>
          <ns3:TrackPointExtension>
            <ns3:hr>98</ns3:hr>
            <ns3:cad>75</ns3:cad>
          </ns3:TrackPointExtension>
        </extensions>
      </trkpt>
      <trkpt lat="44.72027652896940708160400390625" lon="6.72388619743287563323974609375">
        <ele>2117</ele>
        <time>2026-09-03T05:04:32.000Z</time>
        <extensions>
          <ns3:TrackPointExtension>
            <ns3:hr>98</ns3:hr>
            <ns3:cad>75</ns3:cad>
          </ns3:TrackPointExtension>
        </extensions>
      </trkpt>
      <trkpt lat="44.7202746011316776275634765625" lon="6.72390044666826725006103515625">
        <ele>2116.800048828125</ele>
        <time>2026-09-03T05:04:33.000Z</time>
        <extensions>
          <ns3:TrackPointExtension>
            <ns3:hr>98</ns3:hr>
            <ns3:cad>70</ns3:cad>
          </ns3:TrackPointExtension>
        </extensions>
      </trkpt>
      <trkpt lat="44.72027837298810482025146484375" lon="6.72391167841851711273193359375">
        <ele>2116.39990234375</ele>
        <time>2026-09-03T05:04:34.000Z</time>
        <extensions>
          <ns3:TrackPointExtension>
            <ns3:hr>98</ns3:hr>
            <ns3:cad>70</ns3:cad>
          </ns3:TrackPointExtension>
        </extensions>
      </trkpt>
      <trkpt lat="44.72028021700680255889892578125" lon="6.72393481247127056121826171875">
        <ele>2116.199951171875</ele>
        <time>2026-09-03T05:04:35.000Z</time>
        <extensions>
          <ns3:TrackPointExtension>
            <ns3:hr>98</ns3:hr>
            <ns3:cad>70</ns3:cad>
          </ns3:TrackPointExtension>
        </extensions>
      </trkpt>
      <trkpt lat="44.7202789597213268280029296875" lon="6.72395811416208744049072265625">
        <ele>2116</ele>
        <time>2026-09-03T05:04:36.000Z</time>
        <extensions>
          <ns3:TrackPointExtension>
            <ns3:hr>98</ns3:hr>
            <ns3:cad>70</ns3:cad>
          </ns3:TrackPointExtension>
        </extensions>
      </trkpt>
      <trkpt lat="44.72027921117842197418212890625" lon="6.7239709384739398956298828125">
        <ele>2115.60009765625</ele>
        <time>2026-09-03T05:04:37.000Z</time>
        <extensions>
          <ns3:TrackPointExtension>
            <ns3:hr>98</ns3:hr>
            <ns3:cad>70</ns3:cad>
          </ns3:TrackPointExtension>
        </extensions>
      </trkpt>
      <trkpt lat="44.72028977237641811370849609375" lon="6.72397202812135219573974609375">
        <ele>2115.39990234375</ele>
        <time>2026-09-03T05:04:38.000Z</time>
        <extensions>
          <ns3:TrackPointExtension>
            <ns3:hr>98</ns3:hr>
            <ns3:cad>70</ns3:cad>
          </ns3:TrackPointExtension>
        </extensions>
      </trkpt>
      <trkpt lat="44.72030662000179290771484375" lon="6.7239809967577457427978515625">
        <ele>2115.199951171875</ele>
        <time>2026-09-03T05:04:39.000Z</time>
        <extensions>
          <ns3:TrackPointExtension>
            <ns3:hr>98</ns3:hr>
            <ns3:cad>70</ns3:cad>
          </ns3:TrackPointExtension>
        </extensions>
      </trkpt>
      <trkpt lat="44.72030418924987316131591796875" lon="6.72400572337210178375244140625">
        <ele>2115</ele>
        <time>2026-09-03T05:04:40.000Z</time>
        <extensions>
          <ns3:TrackPointExtension>
            <ns3:hr>98</ns3:hr>
            <ns3:cad>70</ns3:cad>
          </ns3:TrackPointExtension>
        </extensions>
      </trkpt>
      <trkpt lat="44.72029010765254497528076171875" lon="6.724023409187793731689453125">
        <ele>2114.60009765625</ele>
        <time>2026-09-03T05:04:41.000Z</time>
        <extensions>
          <ns3:TrackPointExtension>
            <ns3:hr>99</ns3:hr>
            <ns3:cad>70</ns3:cad>
          </ns3:TrackPointExtension>
        </extensions>
      </trkpt>
      <trkpt lat="44.7202786244451999664306640625" lon="6.72402969561517238616943359375">
        <ele>2114.39990234375</ele>
        <time>2026-09-03T05:04:42.000Z</time>
        <extensions>
          <ns3:TrackPointExtension>
            <ns3:hr>98</ns3:hr>
            <ns3:cad>71</ns3:cad>
          </ns3:TrackPointExtension>
        </extensions>
      </trkpt>
      <trkpt lat="44.7202722541987895965576171875" lon="6.7240379936993122100830078125">
        <ele>2114.199951171875</ele>
        <time>2026-09-03T05:04:43.000Z</time>
        <extensions>
          <ns3:TrackPointExtension>
            <ns3:hr>97</ns3:hr>
            <ns3:cad>71</ns3:cad>
          </ns3:TrackPointExtension>
        </extensions>
      </trkpt>
      <trkpt lat="44.72025658003985881805419921875" lon="6.72404293902218341827392578125">
        <ele>2113.800048828125</ele>
        <time>2026-09-03T05:04:44.000Z</time>
        <extensions>
          <ns3:TrackPointExtension>
            <ns3:hr>97</ns3:hr>
            <ns3:cad>71</ns3:cad>
          </ns3:TrackPointExtension>
        </extensions>
      </trkpt>
      <trkpt lat="44.72024065442383289337158203125" lon="6.72403053380548954010009765625">
        <ele>2113.60009765625</ele>
        <time>2026-09-03T05:04:45.000Z</time>
        <extensions>
          <ns3:TrackPointExtension>
            <ns3:hr>96</ns3:hr>
            <ns3:cad>71</ns3:cad>
          </ns3:TrackPointExtension>
        </extensions>
      </trkpt>
      <trkpt lat="44.72022808156907558441162109375" lon="6.7240162007510662078857421875">
        <ele>2113.199951171875</ele>
        <time>2026-09-03T05:04:46.000Z</time>
        <extensions>
          <ns3:TrackPointExtension>
            <ns3:hr>96</ns3:hr>
            <ns3:cad>71</ns3:cad>
          </ns3:TrackPointExtension>
        </extensions>
      </trkpt>
      <trkpt lat="44.72021919675171375274658203125" lon="6.7240078188478946685791015625">
        <ele>2112.800048828125</ele>
        <time>2026-09-03T05:04:47.000Z</time>
        <extensions>
          <ns3:TrackPointExtension>
            <ns3:hr>95</ns3:hr>
            <ns3:cad>71</ns3:cad>
          </ns3:TrackPointExtension>
        </extensions>
      </trkpt>
      <trkpt lat="44.7202098928391933441162109375" lon="6.72401209361851215362548828125">
        <ele>2112.60009765625</ele>
        <time>2026-09-03T05:04:48.000Z</time>
        <extensions>
          <ns3:TrackPointExtension>
            <ns3:hr>95</ns3:hr>
            <ns3:cad>71</ns3:cad>
          </ns3:TrackPointExtension>
        </extensions>
      </trkpt>
      <trkpt lat="44.72020830027759075164794921875" lon="6.72402299009263515472412109375">
        <ele>2112.199951171875</ele>
        <time>2026-09-03T05:04:49.000Z</time>
        <extensions>
          <ns3:TrackPointExtension>
            <ns3:hr>95</ns3:hr>
            <ns3:cad>71</ns3:cad>
          </ns3:TrackPointExtension>
        </extensions>
      </trkpt>
      <trkpt lat="44.7202085517346858978271484375" lon="6.72404117882251739501953125">
        <ele>2112</ele>
        <time>2026-09-03T05:04:50.000Z</time>
        <extensions>
          <ns3:TrackPointExtension>
            <ns3:hr>95</ns3:hr>
            <ns3:cad>71</ns3:cad>
          </ns3:TrackPointExtension>
        </extensions>
      </trkpt>
      <trkpt lat="44.720203019678592681884765625" lon="6.72406037338078022003173828125">
        <ele>2111.60009765625</ele>
        <time>2026-09-03T05:04:51.000Z</time>
        <extensions>
          <ns3:TrackPointExtension>
            <ns3:hr>95</ns3:hr>
            <ns3:cad>71</ns3:cad>
          </ns3:TrackPointExtension>
        </extensions>
      </trkpt>
      <trkpt lat="44.7202041931450366973876953125" lon="6.7240731976926326751708984375">
        <ele>2111.39990234375</ele>
        <time>2026-09-03T05:04:52.000Z</time>
        <extensions>
          <ns3:TrackPointExtension>
            <ns3:hr>95</ns3:hr>
            <ns3:cad>71</ns3:cad>
          </ns3:TrackPointExtension>
        </extensions>
      </trkpt>
      <trkpt lat="44.72021601162850856781005859375" lon="6.7240778915584087371826171875">
        <ele>2111.199951171875</ele>
        <time>2026-09-03T05:04:53.000Z</time>
        <extensions>
          <ns3:TrackPointExtension>
            <ns3:hr>96</ns3:hr>
            <ns3:cad>71</ns3:cad>
          </ns3:TrackPointExtension>
        </extensions>
      </trkpt>
      <trkpt lat="44.7202145867049694061279296875" lon="6.72410094179213047027587890625">
        <ele>2110.800048828125</ele>
        <time>2026-09-03T05:04:54.000Z</time>
        <extensions>
          <ns3:TrackPointExtension>
            <ns3:hr>95</ns3:hr>
            <ns3:cad>71</ns3:cad>
          </ns3:TrackPointExtension>
        </extensions>
      </trkpt>
      <trkpt lat="44.720198325812816619873046875" lon="6.7241040430963039398193359375">
        <ele>2110.60009765625</ele>
        <time>2026-09-03T05:04:55.000Z</time>
        <extensions>
          <ns3:TrackPointExtension>
            <ns3:hr>95</ns3:hr>
            <ns3:cad>70</ns3:cad>
          </ns3:TrackPointExtension>
        </extensions>
      </trkpt>
      <trkpt lat="44.72019053064286708831787109375" lon="6.7241013608872890472412109375">
        <ele>2110.39990234375</ele>
        <time>2026-09-03T05:04:56.000Z</time>
        <extensions>
          <ns3:TrackPointExtension>
            <ns3:hr>95</ns3:hr>
            <ns3:cad>70</ns3:cad>
          </ns3:TrackPointExtension>
        </extensions>
      </trkpt>
      <trkpt lat="44.72018164582550525665283203125" lon="6.72409524209797382354736328125">
        <ele>2110.199951171875</ele>
        <time>2026-09-03T05:04:57.000Z</time>
        <extensions>
          <ns3:TrackPointExtension>
            <ns3:hr>95</ns3:hr>
            <ns3:cad>70</ns3:cad>
          </ns3:TrackPointExtension>
        </extensions>
      </trkpt>
      <trkpt lat="44.72017309628427028656005859375" lon="6.72409423626959323883056640625">
        <ele>2109.800048828125</ele>
        <time>2026-09-03T05:04:58.000Z</time>
        <extensions>
          <ns3:TrackPointExtension>
            <ns3:hr>95</ns3:hr>
            <ns3:cad>70</ns3:cad>
          </ns3:TrackPointExtension>
        </extensions>
      </trkpt>
      <trkpt lat="44.72016689367592334747314453125" lon="6.7241010256111621856689453125">
        <ele>2109.60009765625</ele>
        <time>2026-09-03T05:04:59.000Z</time>
        <extensions>
          <ns3:TrackPointExtension>
            <ns3:hr>94</ns3:hr>
            <ns3:cad>72</ns3:cad>
          </ns3:TrackPointExtension>
        </extensions>
      </trkpt>
      <trkpt lat="44.72016404382884502410888671875" lon="6.72411602921783924102783203125">
        <ele>2109.199951171875</ele>
        <time>2026-09-03T05:05:00.000Z</time>
        <extensions>
          <ns3:TrackPointExtension>
            <ns3:hr>94</ns3:hr>
            <ns3:cad>73</ns3:cad>
          </ns3:TrackPointExtension>
        </extensions>
      </trkpt>
      <trkpt lat="44.720162115991115570068359375" lon="6.7241415940225124359130859375">
        <ele>2109</ele>
        <time>2026-09-03T05:05:01.000Z</time>
        <extensions>
          <ns3:TrackPointExtension>
            <ns3:hr>94</ns3:hr>
            <ns3:cad>73</ns3:cad>
          </ns3:TrackPointExtension>
        </extensions>
      </trkpt>
      <trkpt lat="44.7201622836291790008544921875" lon="6.7241625487804412841796875">
        <ele>2108.60009765625</ele>
        <time>2026-09-03T05:05:02.000Z</time>
        <extensions>
          <ns3:TrackPointExtension>
            <ns3:hr>94</ns3:hr>
            <ns3:cad>66</ns3:cad>
          </ns3:TrackPointExtension>
        </extensions>
      </trkpt>
      <trkpt lat="44.72016270272433757781982421875" lon="6.72417788766324520111083984375">
        <ele>2108.199951171875</ele>
        <time>2026-09-03T05:05:03.000Z</time>
        <extensions>
          <ns3:TrackPointExtension>
            <ns3:hr>94</ns3:hr>
            <ns3:cad>66</ns3:cad>
          </ns3:TrackPointExtension>
        </extensions>
      </trkpt>
      <trkpt lat="44.7201673127710819244384765625" lon="6.72419079579412937164306640625">
        <ele>2108</ele>
        <time>2026-09-03T05:05:04.000Z</time>
        <extensions>
          <ns3:TrackPointExtension>
            <ns3:hr>95</ns3:hr>
            <ns3:cad>66</ns3:cad>
          </ns3:TrackPointExtension>
        </extensions>
      </trkpt>
      <trkpt lat="44.7201736830174922943115234375" lon="6.72420387156307697296142578125">
        <ele>2107.60009765625</ele>
        <time>2026-09-03T05:05:05.000Z</time>
        <extensions>
          <ns3:TrackPointExtension>
            <ns3:hr>95</ns3:hr>
            <ns3:cad>66</ns3:cad>
          </ns3:TrackPointExtension>
        </extensions>
      </trkpt>
      <trkpt lat="44.720178209245204925537109375" lon="6.72421191819012165069580078125">
        <ele>2107.39990234375</ele>
        <time>2026-09-03T05:05:06.000Z</time>
        <extensions>
          <ns3:TrackPointExtension>
            <ns3:hr>95</ns3:hr>
            <ns3:cad>66</ns3:cad>
          </ns3:TrackPointExtension>
        </extensions>
      </trkpt>
      <trkpt lat="44.7201830707490444183349609375" lon="6.72421946190297603607177734375">
        <ele>2107.199951171875</ele>
        <time>2026-09-03T05:05:07.000Z</time>
        <extensions>
          <ns3:TrackPointExtension>
            <ns3:hr>95</ns3:hr>
            <ns3:cad>60</ns3:cad>
          </ns3:TrackPointExtension>
        </extensions>
      </trkpt>
      <trkpt lat="44.7201879322528839111328125" lon="6.72423295676708221435546875">
        <ele>2106.800048828125</ele>
        <time>2026-09-03T05:05:08.000Z</time>
        <extensions>
          <ns3:TrackPointExtension>
            <ns3:hr>95</ns3:hr>
            <ns3:cad>60</ns3:cad>
          </ns3:TrackPointExtension>
        </extensions>
      </trkpt>
      <trkpt lat="44.72018994390964508056640625" lon="6.72424628399312496185302734375">
        <ele>2106.60009765625</ele>
        <time>2026-09-03T05:05:09.000Z</time>
        <extensions>
          <ns3:TrackPointExtension>
            <ns3:hr>96</ns3:hr>
            <ns3:cad>60</ns3:cad>
          </ns3:TrackPointExtension>
        </extensions>
      </trkpt>
      <trkpt lat="44.720190949738025665283203125" lon="6.7242569290101528167724609375">
        <ele>2106.39990234375</ele>
        <time>2026-09-03T05:05:10.000Z</time>
        <extensions>
          <ns3:TrackPointExtension>
            <ns3:hr>95</ns3:hr>
            <ns3:cad>0</ns3:cad>
          </ns3:TrackPointExtension>
        </extensions>
      </trkpt>
      <trkpt lat="44.720193631947040557861328125" lon="6.72427243553102016448974609375">
        <ele>2106.199951171875</ele>
        <time>2026-09-03T05:05:11.000Z</time>
        <extensions>
          <ns3:TrackPointExtension>
            <ns3:hr>95</ns3:hr>
            <ns3:cad>0</ns3:cad>
          </ns3:TrackPointExtension>
        </extensions>
      </trkpt>
      <trkpt lat="44.72018801607191562652587890625" lon="6.7242901213467121124267578125">
        <ele>2105.800048828125</ele>
        <time>2026-09-03T05:05:12.000Z</time>
        <extensions>
          <ns3:TrackPointExtension>
            <ns3:hr>94</ns3:hr>
            <ns3:cad>75</ns3:cad>
          </ns3:TrackPointExtension>
        </extensions>
      </trkpt>
      <trkpt lat="44.72017921507358551025390625" lon="6.72430696897208690643310546875">
        <ele>2105.60009765625</ele>
        <time>2026-09-03T05:05:13.000Z</time>
        <extensions>
          <ns3:TrackPointExtension>
            <ns3:hr>94</ns3:hr>
            <ns3:cad>75</ns3:cad>
          </ns3:TrackPointExtension>
        </extensions>
      </trkpt>
      <trkpt lat="44.7201686538755893707275390625" lon="6.72431753017008304595947265625">
        <ele>2105.199951171875</ele>
        <time>2026-09-03T05:05:14.000Z</time>
        <extensions>
          <ns3:TrackPointExtension>
            <ns3:hr>94</ns3:hr>
            <ns3:cad>75</ns3:cad>
          </ns3:TrackPointExtension>
        </extensions>
      </trkpt>
      <trkpt lat="44.72016069106757640838623046875" lon="6.72432390041649341583251953125">
        <ele>2104.800048828125</ele>
        <time>2026-09-03T05:05:15.000Z</time>
        <extensions>
          <ns3:TrackPointExtension>
            <ns3:hr>95</ns3:hr>
            <ns3:cad>75</ns3:cad>
          </ns3:TrackPointExtension>
        </extensions>
      </trkpt>
      <trkpt lat="44.720151387155055999755859375" lon="6.72432390041649341583251953125">
        <ele>2104.60009765625</ele>
        <time>2026-09-03T05:05:16.000Z</time>
        <extensions>
          <ns3:TrackPointExtension>
            <ns3:hr>95</ns3:hr>
            <ns3:cad>75</ns3:cad>
          </ns3:TrackPointExtension>
        </extensions>
      </trkpt>
      <trkpt lat="44.72013495862483978271484375" lon="6.7243194580078125">
        <ele>2104.199951171875</ele>
        <time>2026-09-03T05:05:17.000Z</time>
        <extensions>
          <ns3:TrackPointExtension>
            <ns3:hr>96</ns3:hr>
            <ns3:cad>75</ns3:cad>
          </ns3:TrackPointExtension>
        </extensions>
      </trkpt>
      <trkpt lat="44.72012062557041645050048828125" lon="6.72433110885322093963623046875">
        <ele>2104</ele>
        <time>2026-09-03T05:05:18.000Z</time>
        <extensions>
          <ns3:TrackPointExtension>
            <ns3:hr>96</ns3:hr>
            <ns3:cad>75</ns3:cad>
          </ns3:TrackPointExtension>
        </extensions>
      </trkpt>
      <trkpt lat="44.72011760808527469635009765625" lon="6.7243484593927860260009765625">
        <ele>2103.60009765625</ele>
        <time>2026-09-03T05:05:19.000Z</time>
        <extensions>
          <ns3:TrackPointExtension>
            <ns3:hr>97</ns3:hr>
            <ns3:cad>75</ns3:cad>
          </ns3:TrackPointExtension>
        </extensions>
      </trkpt>
      <trkpt lat="44.72011324949562549591064453125" lon="6.72437251545488834381103515625">
        <ele>2103.39990234375</ele>
        <time>2026-09-03T05:05:20.000Z</time>
        <extensions>
          <ns3:TrackPointExtension>
            <ns3:hr>97</ns3:hr>
            <ns3:cad>75</ns3:cad>
          </ns3:TrackPointExtension>
        </extensions>
      </trkpt>
      <trkpt lat="44.7201180271804332733154296875" lon="6.7243932187557220458984375">
        <ele>2103</ele>
        <time>2026-09-03T05:05:21.000Z</time>
        <extensions>
          <ns3:TrackPointExtension>
            <ns3:hr>97</ns3:hr>
            <ns3:cad>64</ns3:cad>
          </ns3:TrackPointExtension>
        </extensions>
      </trkpt>
      <trkpt lat="44.7201304323971271514892578125" lon="6.72441677190363407135009765625">
        <ele>2102.60009765625</ele>
        <time>2026-09-03T05:05:22.000Z</time>
        <extensions>
          <ns3:TrackPointExtension>
            <ns3:hr>97</ns3:hr>
            <ns3:cad>64</ns3:cad>
          </ns3:TrackPointExtension>
        </extensions>
      </trkpt>
      <trkpt lat="44.7201451845467090606689453125" lon="6.724430434405803680419921875">
        <ele>2102.39990234375</ele>
        <time>2026-09-03T05:05:23.000Z</time>
        <extensions>
          <ns3:TrackPointExtension>
            <ns3:hr>97</ns3:hr>
            <ns3:cad>64</ns3:cad>
          </ns3:TrackPointExtension>
        </extensions>
      </trkpt>
      <trkpt lat="44.7201555781066417694091796875" lon="6.7244413308799266815185546875">
        <ele>2102.199951171875</ele>
        <time>2026-09-03T05:05:24.000Z</time>
        <extensions>
          <ns3:TrackPointExtension>
            <ns3:hr>97</ns3:hr>
            <ns3:cad>69</ns3:cad>
          </ns3:TrackPointExtension>
        </extensions>
      </trkpt>
      <trkpt lat="44.7201575897634029388427734375" lon="6.7244483716785907745361328125">
        <ele>2102</ele>
        <time>2026-09-03T05:05:25.000Z</time>
        <extensions>
          <ns3:TrackPointExtension>
            <ns3:hr>98</ns3:hr>
            <ns3:cad>69</ns3:cad>
          </ns3:TrackPointExtension>
        </extensions>
      </trkpt>
      <trkpt lat="44.7201515547931194305419921875" lon="6.72446253709495067596435546875">
        <ele>2101.800048828125</ele>
        <time>2026-09-03T05:05:26.000Z</time>
        <extensions>
          <ns3:TrackPointExtension>
            <ns3:hr>98</ns3:hr>
            <ns3:cad>69</ns3:cad>
          </ns3:TrackPointExtension>
        </extensions>
      </trkpt>
      <trkpt lat="44.720141999423503875732421875" lon="6.7244735173881053924560546875">
        <ele>2101.39990234375</ele>
        <time>2026-09-03T05:05:27.000Z</time>
        <extensions>
          <ns3:TrackPointExtension>
            <ns3:hr>98</ns3:hr>
            <ns3:cad>69</ns3:cad>
          </ns3:TrackPointExtension>
        </extensions>
      </trkpt>
      <trkpt lat="44.72013789229094982147216796875" lon="6.72448349185287952423095703125">
        <ele>2101.199951171875</ele>
        <time>2026-09-03T05:05:28.000Z</time>
        <extensions>
          <ns3:TrackPointExtension>
            <ns3:hr>98</ns3:hr>
            <ns3:cad>74</ns3:cad>
          </ns3:TrackPointExtension>
        </extensions>
      </trkpt>
      <trkpt lat="44.72013470716774463653564453125" lon="6.7244983278214931488037109375">
        <ele>2100.800048828125</ele>
        <time>2026-09-03T05:05:29.000Z</time>
        <extensions>
          <ns3:TrackPointExtension>
            <ns3:hr>99</ns3:hr>
            <ns3:cad>74</ns3:cad>
          </ns3:TrackPointExtension>
        </extensions>
      </trkpt>
      <trkpt lat="44.72013487480580806732177734375" lon="6.72451802529394626617431640625">
        <ele>2100.39990234375</ele>
        <time>2026-09-03T05:05:30.000Z</time>
        <extensions>
          <ns3:TrackPointExtension>
            <ns3:hr>98</ns3:hr>
            <ns3:cad>74</ns3:cad>
          </ns3:TrackPointExtension>
        </extensions>
      </trkpt>
      <trkpt lat="44.72012548707425594329833984375" lon="6.724531687796115875244140625">
        <ele>2100</ele>
        <time>2026-09-03T05:05:31.000Z</time>
        <extensions>
          <ns3:TrackPointExtension>
            <ns3:hr>98</ns3:hr>
            <ns3:cad>75</ns3:cad>
          </ns3:TrackPointExtension>
        </extensions>
      </trkpt>
      <trkpt lat="44.72011308185756206512451171875" lon="6.72453914768993854522705078125">
        <ele>2099.60009765625</ele>
        <time>2026-09-03T05:05:32.000Z</time>
        <extensions>
          <ns3:TrackPointExtension>
            <ns3:hr>98</ns3:hr>
            <ns3:cad>75</ns3:cad>
          </ns3:TrackPointExtension>
        </extensions>
      </trkpt>
      <trkpt lat="44.720095731317996978759765625" lon="6.7245382256805896759033203125">
        <ele>2099.39990234375</ele>
        <time>2026-09-03T05:05:33.000Z</time>
        <extensions>
          <ns3:TrackPointExtension>
            <ns3:hr>98</ns3:hr>
            <ns3:cad>75</ns3:cad>
          </ns3:TrackPointExtension>
        </extensions>
      </trkpt>
      <trkpt lat="44.72008290700614452362060546875" lon="6.72452774830162525177001953125">
        <ele>2099</ele>
        <time>2026-09-03T05:05:34.000Z</time>
        <extensions>
          <ns3:TrackPointExtension>
            <ns3:hr>98</ns3:hr>
            <ns3:cad>68</ns3:cad>
          </ns3:TrackPointExtension>
        </extensions>
      </trkpt>
      <trkpt lat="44.72006781958043575286865234375" lon="6.7245204560458660125732421875">
        <ele>2098.800048828125</ele>
        <time>2026-09-03T05:05:35.000Z</time>
        <extensions>
          <ns3:TrackPointExtension>
            <ns3:hr>98</ns3:hr>
            <ns3:cad>68</ns3:cad>
          </ns3:TrackPointExtension>
        </extensions>
      </trkpt>
      <trkpt lat="44.72005893476307392120361328125" lon="6.7245139181613922119140625">
        <ele>2098.39990234375</ele>
        <time>2026-09-03T05:05:36.000Z</time>
        <extensions>
          <ns3:TrackPointExtension>
            <ns3:hr>98</ns3:hr>
            <ns3:cad>68</ns3:cad>
          </ns3:TrackPointExtension>
        </extensions>
      </trkpt>
      <trkpt lat="44.72005181014537811279296875" lon="6.724509894847869873046875">
        <ele>2098.199951171875</ele>
        <time>2026-09-03T05:05:37.000Z</time>
        <extensions>
          <ns3:TrackPointExtension>
            <ns3:hr>98</ns3:hr>
            <ns3:cad>68</ns3:cad>
          </ns3:TrackPointExtension>
        </extensions>
      </trkpt>
      <trkpt lat="44.720043428242206573486328125" lon="6.72450897283852100372314453125">
        <ele>2097.800048828125</ele>
        <time>2026-09-03T05:05:38.000Z</time>
        <extensions>
          <ns3:TrackPointExtension>
            <ns3:hr>97</ns3:hr>
            <ns3:cad>68</ns3:cad>
          </ns3:TrackPointExtension>
        </extensions>
      </trkpt>
      <trkpt lat="44.720031358301639556884765625" lon="6.72450813464820384979248046875">
        <ele>2097.60009765625</ele>
        <time>2026-09-03T05:05:39.000Z</time>
        <extensions>
          <ns3:TrackPointExtension>
            <ns3:hr>97</ns3:hr>
            <ns3:cad>68</ns3:cad>
          </ns3:TrackPointExtension>
        </extensions>
      </trkpt>
      <trkpt lat="44.720015265047550201416015625" lon="6.72451484017074108123779296875">
        <ele>2097.199951171875</ele>
        <time>2026-09-03T05:05:40.000Z</time>
        <extensions>
          <ns3:TrackPointExtension>
            <ns3:hr>97</ns3:hr>
            <ns3:cad>68</ns3:cad>
          </ns3:TrackPointExtension>
        </extensions>
      </trkpt>
      <trkpt lat="44.7200097329914569854736328125" lon="6.72452540136873722076416015625">
        <ele>2096.800048828125</ele>
        <time>2026-09-03T05:05:41.000Z</time>
        <extensions>
          <ns3:TrackPointExtension>
            <ns3:hr>97</ns3:hr>
            <ns3:cad>68</ns3:cad>
          </ns3:TrackPointExtension>
        </extensions>
      </trkpt>
      <trkpt lat="44.7200104035437107086181640625" lon="6.7245385609567165374755859375">
        <ele>2096.60009765625</ele>
        <time>2026-09-03T05:05:42.000Z</time>
        <extensions>
          <ns3:TrackPointExtension>
            <ns3:hr>96</ns3:hr>
            <ns3:cad>68</ns3:cad>
          </ns3:TrackPointExtension>
        </extensions>
      </trkpt>
      <trkpt lat="44.72000981681048870086669921875" lon="6.7245546542108058929443359375">
        <ele>2096.199951171875</ele>
        <time>2026-09-03T05:05:43.000Z</time>
        <extensions>
          <ns3:TrackPointExtension>
            <ns3:hr>96</ns3:hr>
            <ns3:cad>68</ns3:cad>
          </ns3:TrackPointExtension>
        </extensions>
      </trkpt>
      <trkpt lat="44.720007888972759246826171875" lon="6.7245757766067981719970703125">
        <ele>2096</ele>
        <time>2026-09-03T05:05:44.000Z</time>
        <extensions>
          <ns3:TrackPointExtension>
            <ns3:hr>96</ns3:hr>
            <ns3:cad>68</ns3:cad>
          </ns3:TrackPointExtension>
        </extensions>
      </trkpt>
      <trkpt lat="44.72000663168728351593017578125" lon="6.724593378603458404541015625">
        <ele>2095.800048828125</ele>
        <time>2026-09-03T05:05:45.000Z</time>
        <extensions>
          <ns3:TrackPointExtension>
            <ns3:hr>97</ns3:hr>
            <ns3:cad>68</ns3:cad>
          </ns3:TrackPointExtension>
        </extensions>
      </trkpt>
      <trkpt lat="44.72000579349696636199951171875" lon="6.72460712492465972900390625">
        <ele>2095.39990234375</ele>
        <time>2026-09-03T05:05:46.000Z</time>
        <extensions>
          <ns3:TrackPointExtension>
            <ns3:hr>97</ns3:hr>
            <ns3:cad>68</ns3:cad>
          </ns3:TrackPointExtension>
        </extensions>
      </trkpt>
      <trkpt lat="44.7200050391256809234619140625" lon="6.7246227152645587921142578125">
        <ele>2095.199951171875</ele>
        <time>2026-09-03T05:05:47.000Z</time>
        <extensions>
          <ns3:TrackPointExtension>
            <ns3:hr>97</ns3:hr>
            <ns3:cad>68</ns3:cad>
          </ns3:TrackPointExtension>
        </extensions>
      </trkpt>
      <trkpt lat="44.72000042907893657684326171875" lon="6.72464333474636077880859375">
        <ele>2094.800048828125</ele>
        <time>2026-09-03T05:05:48.000Z</time>
        <extensions>
          <ns3:TrackPointExtension>
            <ns3:hr>97</ns3:hr>
            <ns3:cad>68</ns3:cad>
          </ns3:TrackPointExtension>
        </extensions>
      </trkpt>
      <trkpt lat="44.71999204717576503753662109375" lon="6.72465850599110126495361328125">
        <ele>2094.39990234375</ele>
        <time>2026-09-03T05:05:49.000Z</time>
        <extensions>
          <ns3:TrackPointExtension>
            <ns3:hr>97</ns3:hr>
            <ns3:cad>68</ns3:cad>
          </ns3:TrackPointExtension>
        </extensions>
      </trkpt>
      <trkpt lat="44.719981737434864044189453125" lon="6.72466319985687732696533203125">
        <ele>2094</ele>
        <time>2026-09-03T05:05:50.000Z</time>
        <extensions>
          <ns3:TrackPointExtension>
            <ns3:hr>97</ns3:hr>
            <ns3:cad>68</ns3:cad>
          </ns3:TrackPointExtension>
        </extensions>
      </trkpt>
      <trkpt lat="44.719972349703311920166015625" lon="6.7246535606682300567626953125">
        <ele>2093.800048828125</ele>
        <time>2026-09-03T05:05:51.000Z</time>
        <extensions>
          <ns3:TrackPointExtension>
            <ns3:hr>96</ns3:hr>
            <ns3:cad>66</ns3:cad>
          </ns3:TrackPointExtension>
        </extensions>
      </trkpt>
      <trkpt lat="44.71996187232434749603271484375" lon="6.72464375384151935577392578125">
        <ele>2093.39990234375</ele>
        <time>2026-09-03T05:05:52.000Z</time>
        <extensions>
          <ns3:TrackPointExtension>
            <ns3:hr>97</ns3:hr>
            <ns3:cad>66</ns3:cad>
          </ns3:TrackPointExtension>
        </extensions>
      </trkpt>
      <trkpt lat="44.71995097585022449493408203125" lon="6.724627912044525146484375">
        <ele>2093.199951171875</ele>
        <time>2026-09-03T05:05:53.000Z</time>
        <extensions>
          <ns3:TrackPointExtension>
            <ns3:hr>97</ns3:hr>
            <ns3:cad>66</ns3:cad>
          </ns3:TrackPointExtension>
        </extensions>
      </trkpt>
      <trkpt lat="44.71994359977543354034423828125" lon="6.724612824618816375732421875">
        <ele>2093</ele>
        <time>2026-09-03T05:05:54.000Z</time>
        <extensions>
          <ns3:TrackPointExtension>
            <ns3:hr>97</ns3:hr>
            <ns3:cad>66</ns3:cad>
          </ns3:TrackPointExtension>
        </extensions>
      </trkpt>
      <trkpt lat="44.71993370912969112396240234375" lon="6.724601425230503082275390625">
        <ele>2092.60009765625</ele>
        <time>2026-09-03T05:05:55.000Z</time>
        <extensions>
          <ns3:TrackPointExtension>
            <ns3:hr>97</ns3:hr>
            <ns3:cad>66</ns3:cad>
          </ns3:TrackPointExtension>
        </extensions>
      </trkpt>
      <trkpt lat="44.7199282608926296234130859375" lon="6.72459505498409271240234375">
        <ele>2092.39990234375</ele>
        <time>2026-09-03T05:05:56.000Z</time>
        <extensions>
          <ns3:TrackPointExtension>
            <ns3:hr>97</ns3:hr>
            <ns3:cad>0</ns3:cad>
          </ns3:TrackPointExtension>
        </extensions>
      </trkpt>
      <trkpt lat="44.719922728836536407470703125" lon="6.7246015928685665130615234375">
        <ele>2092</ele>
        <time>2026-09-03T05:05:57.000Z</time>
        <extensions>
          <ns3:TrackPointExtension>
            <ns3:hr>98</ns3:hr>
            <ns3:cad>0</ns3:cad>
          </ns3:TrackPointExtension>
        </extensions>
      </trkpt>
      <trkpt lat="44.71991895698010921478271484375" lon="6.72462330199778079986572265625">
        <ele>2091.60009765625</ele>
        <time>2026-09-03T05:05:58.000Z</time>
        <extensions>
          <ns3:TrackPointExtension>
            <ns3:hr>97</ns3:hr>
            <ns3:cad>0</ns3:cad>
          </ns3:TrackPointExtension>
        </extensions>
      </trkpt>
      <trkpt lat="44.7199131734669208526611328125" lon="6.72464056871831417083740234375">
        <ele>2091.39990234375</ele>
        <time>2026-09-03T05:05:59.000Z</time>
        <extensions>
          <ns3:TrackPointExtension>
            <ns3:hr>97</ns3:hr>
            <ns3:cad>0</ns3:cad>
          </ns3:TrackPointExtension>
        </extensions>
      </trkpt>
      <trkpt lat="44.71989884041249752044677734375" lon="6.72463788650929927825927734375">
        <ele>2091</ele>
        <time>2026-09-03T05:06:00.000Z</time>
        <extensions>
          <ns3:TrackPointExtension>
            <ns3:hr>98</ns3:hr>
            <ns3:cad>0</ns3:cad>
          </ns3:TrackPointExtension>
        </extensions>
      </trkpt>
      <trkpt lat="44.7198902070522308349609375" lon="6.7246317677199840545654296875">
        <ele>2090.800048828125</ele>
        <time>2026-09-03T05:06:01.000Z</time>
        <extensions>
          <ns3:TrackPointExtension>
            <ns3:hr>97</ns3:hr>
            <ns3:cad>0</ns3:cad>
          </ns3:TrackPointExtension>
        </extensions>
      </trkpt>
      <trkpt lat="44.71988140605390071868896484375" lon="6.72462229616940021514892578125">
        <ele>2090.60009765625</ele>
        <time>2026-09-03T05:06:02.000Z</time>
        <extensions>
          <ns3:TrackPointExtension>
            <ns3:hr>97</ns3:hr>
            <ns3:cad>67</ns3:cad>
          </ns3:TrackPointExtension>
        </extensions>
      </trkpt>
      <trkpt lat="44.71987185068428516387939453125" lon="6.7246103100478649139404296875">
        <ele>2090.199951171875</ele>
        <time>2026-09-03T05:06:03.000Z</time>
        <extensions>
          <ns3:TrackPointExtension>
            <ns3:hr>98</ns3:hr>
            <ns3:cad>68</ns3:cad>
          </ns3:TrackPointExtension>
        </extensions>
      </trkpt>
      <trkpt lat="44.71986095421016216278076171875" lon="6.72459530644118785858154296875">
        <ele>2090</ele>
        <time>2026-09-03T05:06:04.000Z</time>
        <extensions>
          <ns3:TrackPointExtension>
            <ns3:hr>98</ns3:hr>
            <ns3:cad>70</ns3:cad>
          </ns3:TrackPointExtension>
        </extensions>
      </trkpt>
      <trkpt lat="44.719847626984119415283203125" lon="6.72457854263484477996826171875">
        <ele>2089.800048828125</ele>
        <time>2026-09-03T05:06:05.000Z</time>
        <extensions>
          <ns3:TrackPointExtension>
            <ns3:hr>98</ns3:hr>
            <ns3:cad>70</ns3:cad>
          </ns3:TrackPointExtension>
        </extensions>
      </trkpt>
      <trkpt lat="44.71983865834772586822509765625" lon="6.72457669861614704132080078125">
        <ele>2089.39990234375</ele>
        <time>2026-09-03T05:06:06.000Z</time>
        <extensions>
          <ns3:TrackPointExtension>
            <ns3:hr>98</ns3:hr>
            <ns3:cad>70</ns3:cad>
          </ns3:TrackPointExtension>
        </extensions>
      </trkpt>
      <trkpt lat="44.71983346156775951385498046875" lon="6.72457736916840076446533203125">
        <ele>2089</ele>
        <time>2026-09-03T05:06:07.000Z</time>
        <extensions>
          <ns3:TrackPointExtension>
            <ns3:hr>98</ns3:hr>
            <ns3:cad>70</ns3:cad>
          </ns3:TrackPointExtension>
        </extensions>
      </trkpt>
      <trkpt lat="44.71982625313103199005126953125" lon="6.72457636334002017974853515625">
        <ele>2088.60009765625</ele>
        <time>2026-09-03T05:06:08.000Z</time>
        <extensions>
          <ns3:TrackPointExtension>
            <ns3:hr>98</ns3:hr>
            <ns3:cad>69</ns3:cad>
          </ns3:TrackPointExtension>
        </extensions>
      </trkpt>
      <trkpt lat="44.719824157655239105224609375" lon="6.7245741002261638641357421875">
        <ele>2088.199951171875</ele>
        <time>2026-09-03T05:06:09.000Z</time>
        <extensions>
          <ns3:TrackPointExtension>
            <ns3:hr>98</ns3:hr>
            <ns3:cad>69</ns3:cad>
          </ns3:TrackPointExtension>
        </extensions>
      </trkpt>
      <trkpt lat="44.71981753595173358917236328125" lon="6.72457234002649784088134765625">
        <ele>2088</ele>
        <time>2026-09-03T05:06:10.000Z</time>
        <extensions>
          <ns3:TrackPointExtension>
            <ns3:hr>98</ns3:hr>
            <ns3:cad>69</ns3:cad>
          </ns3:TrackPointExtension>
        </extensions>
      </trkpt>
      <trkpt lat="44.71981233917176723480224609375" lon="6.72457569278776645660400390625">
        <ele>2087.800048828125</ele>
        <time>2026-09-03T05:06:11.000Z</time>
        <extensions>
          <ns3:TrackPointExtension>
            <ns3:hr>98</ns3:hr>
            <ns3:cad>69</ns3:cad>
          </ns3:TrackPointExtension>
        </extensions>
      </trkpt>
      <trkpt lat="44.71981099806725978851318359375" lon="6.724572591483592987060546875">
        <ele>2087.60009765625</ele>
        <time>2026-09-03T05:06:12.000Z</time>
        <extensions>
          <ns3:TrackPointExtension>
            <ns3:hr>98</ns3:hr>
            <ns3:cad>65</ns3:cad>
          </ns3:TrackPointExtension>
        </extensions>
      </trkpt>
      <trkpt lat="44.7198075614869594573974609375" lon="6.72458809800446033477783203125">
        <ele>2087.60009765625</ele>
        <time>2026-09-03T05:06:13.000Z</time>
        <extensions>
          <ns3:TrackPointExtension>
            <ns3:hr>98</ns3:hr>
            <ns3:cad>65</ns3:cad>
          </ns3:TrackPointExtension>
        </extensions>
      </trkpt>
      <trkpt lat="44.71980370581150054931640625" lon="6.72460687346756458282470703125">
        <ele>2087.39990234375</ele>
        <time>2026-09-03T05:06:14.000Z</time>
        <extensions>
          <ns3:TrackPointExtension>
            <ns3:hr>97</ns3:hr>
            <ns3:cad>0</ns3:cad>
          </ns3:TrackPointExtension>
        </extensions>
      </trkpt>
      <trkpt lat="44.71980035305023193359375" lon="6.7246304266154766082763671875">
        <ele>2087.199951171875</ele>
        <time>2026-09-03T05:06:15.000Z</time>
        <extensions>
          <ns3:TrackPointExtension>
            <ns3:hr>97</ns3:hr>
            <ns3:cad>0</ns3:cad>
          </ns3:TrackPointExtension>
        </extensions>
      </trkpt>
      <trkpt lat="44.71979892812669277191162109375" lon="6.72464643605053424835205078125">
        <ele>2086.800048828125</ele>
        <time>2026-09-03T05:06:16.000Z</time>
        <extensions>
          <ns3:TrackPointExtension>
            <ns3:hr>97</ns3:hr>
            <ns3:cad>70</ns3:cad>
          </ns3:TrackPointExtension>
        </extensions>
      </trkpt>
      <trkpt lat="44.71979976631700992584228515625" lon="6.72466504387557506561279296875">
        <ele>2086.60009765625</ele>
        <time>2026-09-03T05:06:17.000Z</time>
        <extensions>
          <ns3:TrackPointExtension>
            <ns3:hr>98</ns3:hr>
            <ns3:cad>70</ns3:cad>
          </ns3:TrackPointExtension>
        </extensions>
      </trkpt>
      <trkpt lat="44.71979842521250247955322265625" lon="6.72468013130128383636474609375">
        <ele>2086.199951171875</ele>
        <time>2026-09-03T05:06:18.000Z</time>
        <extensions>
          <ns3:TrackPointExtension>
            <ns3:hr>98</ns3:hr>
            <ns3:cad>70</ns3:cad>
          </ns3:TrackPointExtension>
        </extensions>
      </trkpt>
      <trkpt lat="44.71979431807994842529296875" lon="6.72469907440245151519775390625">
        <ele>2086</ele>
        <time>2026-09-03T05:06:19.000Z</time>
        <extensions>
          <ns3:TrackPointExtension>
            <ns3:hr>98</ns3:hr>
            <ns3:cad>70</ns3:cad>
          </ns3:TrackPointExtension>
        </extensions>
      </trkpt>
      <trkpt lat="44.71978149376809597015380859375" lon="6.724720112979412078857421875">
        <ele>2085.800048828125</ele>
        <time>2026-09-03T05:06:20.000Z</time>
        <extensions>
          <ns3:TrackPointExtension>
            <ns3:hr>98</ns3:hr>
            <ns3:cad>71</ns3:cad>
          </ns3:TrackPointExtension>
        </extensions>
      </trkpt>
      <trkpt lat="44.7197706811130046844482421875" lon="6.72473763115704059600830078125">
        <ele>2085.39990234375</ele>
        <time>2026-09-03T05:06:21.000Z</time>
        <extensions>
          <ns3:TrackPointExtension>
            <ns3:hr>99</ns3:hr>
            <ns3:cad>71</ns3:cad>
          </ns3:TrackPointExtension>
        </extensions>
      </trkpt>
      <trkpt lat="44.71975743770599365234375" lon="6.72475221566855907440185546875">
        <ele>2085.199951171875</ele>
        <time>2026-09-03T05:06:22.000Z</time>
        <extensions>
          <ns3:TrackPointExtension>
            <ns3:hr>99</ns3:hr>
            <ns3:cad>71</ns3:cad>
          </ns3:TrackPointExtension>
        </extensions>
      </trkpt>
      <trkpt lat="44.71974243409931659698486328125" lon="6.7247497849166393280029296875">
        <ele>2084.800048828125</ele>
        <time>2026-09-03T05:06:23.000Z</time>
        <extensions>
          <ns3:TrackPointExtension>
            <ns3:hr>99</ns3:hr>
            <ns3:cad>71</ns3:cad>
          </ns3:TrackPointExtension>
        </extensions>
      </trkpt>
      <trkpt lat="44.71973421983420848846435546875" lon="6.724748276174068450927734375">
        <ele>2084.60009765625</ele>
        <time>2026-09-03T05:06:24.000Z</time>
        <extensions>
          <ns3:TrackPointExtension>
            <ns3:hr>99</ns3:hr>
            <ns3:cad>71</ns3:cad>
          </ns3:TrackPointExtension>
        </extensions>
      </trkpt>
      <trkpt lat="44.7197207249701023101806640625" lon="6.72475003637373447418212890625">
        <ele>2084.39990234375</ele>
        <time>2026-09-03T05:06:25.000Z</time>
        <extensions>
          <ns3:TrackPointExtension>
            <ns3:hr>98</ns3:hr>
            <ns3:cad>71</ns3:cad>
          </ns3:TrackPointExtension>
        </extensions>
      </trkpt>
      <trkpt lat="44.71970957703888416290283203125" lon="6.72475271858274936676025390625">
        <ele>2084.199951171875</ele>
        <time>2026-09-03T05:06:26.000Z</time>
        <extensions>
          <ns3:TrackPointExtension>
            <ns3:hr>98</ns3:hr>
            <ns3:cad>65</ns3:cad>
          </ns3:TrackPointExtension>
        </extensions>
      </trkpt>
      <trkpt lat="44.71970119513571262359619140625" lon="6.7247598432004451751708984375">
        <ele>2084</ele>
        <time>2026-09-03T05:06:27.000Z</time>
        <extensions>
          <ns3:TrackPointExtension>
            <ns3:hr>98</ns3:hr>
            <ns3:cad>65</ns3:cad>
          </ns3:TrackPointExtension>
        </extensions>
      </trkpt>
      <trkpt lat="44.71968761645257472991943359375" lon="6.724771074950695037841796875">
        <ele>2083.800048828125</ele>
        <time>2026-09-03T05:06:28.000Z</time>
        <extensions>
          <ns3:TrackPointExtension>
            <ns3:hr>98</ns3:hr>
            <ns3:cad>65</ns3:cad>
          </ns3:TrackPointExtension>
        </extensions>
      </trkpt>
      <trkpt lat="44.7196751274168491363525390625" lon="6.7247749306261539459228515625">
        <ele>2083.60009765625</ele>
        <time>2026-09-03T05:06:29.000Z</time>
        <extensions>
          <ns3:TrackPointExtension>
            <ns3:hr>97</ns3:hr>
            <ns3:cad>65</ns3:cad>
          </ns3:TrackPointExtension>
        </extensions>
      </trkpt>
      <trkpt lat="44.71966288983821868896484375" lon="6.724783144891262054443359375">
        <ele>2083.39990234375</ele>
        <time>2026-09-03T05:06:30.000Z</time>
        <extensions>
          <ns3:TrackPointExtension>
            <ns3:hr>96</ns3:hr>
            <ns3:cad>65</ns3:cad>
          </ns3:TrackPointExtension>
        </extensions>
      </trkpt>
      <trkpt lat="44.71965559758245944976806640625" lon="6.72478440217673778533935546875">
        <ele>2083</ele>
        <time>2026-09-03T05:06:31.000Z</time>
        <extensions>
          <ns3:TrackPointExtension>
            <ns3:hr>95</ns3:hr>
            <ns3:cad>0</ns3:cad>
          </ns3:TrackPointExtension>
        </extensions>
      </trkpt>
      <trkpt lat="44.71965056844055652618408203125" lon="6.72478607855737209320068359375">
        <ele>2082.800048828125</ele>
        <time>2026-09-03T05:06:32.000Z</time>
        <extensions>
          <ns3:TrackPointExtension>
            <ns3:hr>94</ns3:hr>
            <ns3:cad>0</ns3:cad>
          </ns3:TrackPointExtension>
        </extensions>
      </trkpt>
      <trkpt lat="44.7196466289460659027099609375" lon="6.72479311935603618621826171875">
        <ele>2082.39990234375</ele>
        <time>2026-09-03T05:06:33.000Z</time>
        <extensions>
          <ns3:TrackPointExtension>
            <ns3:hr>93</ns3:hr>
            <ns3:cad>0</ns3:cad>
          </ns3:TrackPointExtension>
        </extensions>
      </trkpt>
      <trkpt lat="44.7196389175951480865478515625" lon="6.724801249802112579345703125">
        <ele>2082.199951171875</ele>
        <time>2026-09-03T05:06:34.000Z</time>
        <extensions>
          <ns3:TrackPointExtension>
            <ns3:hr>91</ns3:hr>
            <ns3:cad>68</ns3:cad>
          </ns3:TrackPointExtension>
        </extensions>
      </trkpt>
      <trkpt lat="44.71962936222553253173828125" lon="6.724807955324649810791015625">
        <ele>2082</ele>
        <time>2026-09-03T05:06:35.000Z</time>
        <extensions>
          <ns3:TrackPointExtension>
            <ns3:hr>90</ns3:hr>
            <ns3:cad>68</ns3:cad>
          </ns3:TrackPointExtension>
        </extensions>
      </trkpt>
      <trkpt lat="44.719618968665599822998046875" lon="6.72481675632297992706298828125">
        <ele>2081.60009765625</ele>
        <time>2026-09-03T05:06:36.000Z</time>
        <extensions>
          <ns3:TrackPointExtension>
            <ns3:hr>90</ns3:hr>
            <ns3:cad>68</ns3:cad>
          </ns3:TrackPointExtension>
        </extensions>
      </trkpt>
      <trkpt lat="44.71960748545825481414794921875" lon="6.72482145018875598907470703125">
        <ele>2081.39990234375</ele>
        <time>2026-09-03T05:06:37.000Z</time>
        <extensions>
          <ns3:TrackPointExtension>
            <ns3:hr>90</ns3:hr>
            <ns3:cad>68</ns3:cad>
          </ns3:TrackPointExtension>
        </extensions>
      </trkpt>
      <trkpt lat="44.71959223039448261260986328125" lon="6.7248218692839145660400390625">
        <ele>2081</ele>
        <time>2026-09-03T05:06:38.000Z</time>
        <extensions>
          <ns3:TrackPointExtension>
            <ns3:hr>89</ns3:hr>
            <ns3:cad>68</ns3:cad>
          </ns3:TrackPointExtension>
        </extensions>
      </trkpt>
      <trkpt lat="44.71957814879715442657470703125" lon="6.72482228837907314300537109375">
        <ele>2080.800048828125</ele>
        <time>2026-09-03T05:06:39.000Z</time>
        <extensions>
          <ns3:TrackPointExtension>
            <ns3:hr>90</ns3:hr>
            <ns3:cad>70</ns3:cad>
          </ns3:TrackPointExtension>
        </extensions>
      </trkpt>
      <trkpt lat="44.7195648215711116790771484375" lon="6.72482513822615146636962890625">
        <ele>2080.60009765625</ele>
        <time>2026-09-03T05:06:40.000Z</time>
        <extensions>
          <ns3:TrackPointExtension>
            <ns3:hr>91</ns3:hr>
            <ns3:cad>70</ns3:cad>
          </ns3:TrackPointExtension>
        </extensions>
      </trkpt>
      <trkpt lat="44.71954830922186374664306640625" lon="6.72482714988291263580322265625">
        <ele>2080.199951171875</ele>
        <time>2026-09-03T05:06:41.000Z</time>
        <extensions>
          <ns3:TrackPointExtension>
            <ns3:hr>92</ns3:hr>
            <ns3:cad>70</ns3:cad>
          </ns3:TrackPointExtension>
        </extensions>
      </trkpt>
      <trkpt lat="44.719535149633884429931640625" lon="6.7248346097767353057861328125">
        <ele>2080</ele>
        <time>2026-09-03T05:06:42.000Z</time>
        <extensions>
          <ns3:TrackPointExtension>
            <ns3:hr>92</ns3:hr>
            <ns3:cad>70</ns3:cad>
          </ns3:TrackPointExtension>
        </extensions>
      </trkpt>
      <trkpt lat="44.71954294480383396148681640625" lon="6.72485933639109134674072265625">
        <ele>2079.60009765625</ele>
        <time>2026-09-03T05:06:43.000Z</time>
        <extensions>
          <ns3:TrackPointExtension>
            <ns3:hr>93</ns3:hr>
            <ns3:cad>71</ns3:cad>
          </ns3:TrackPointExtension>
        </extensions>
      </trkpt>
      <trkpt lat="44.71954814158380031585693359375" lon="6.72486302442848682403564453125">
        <ele>2079.39990234375</ele>
        <time>2026-09-03T05:06:44.000Z</time>
        <extensions>
          <ns3:TrackPointExtension>
            <ns3:hr>93</ns3:hr>
            <ns3:cad>71</ns3:cad>
          </ns3:TrackPointExtension>
        </extensions>
      </trkpt>
      <trkpt lat="44.71955400891602039337158203125" lon="6.7248679697513580322265625">
        <ele>2079.199951171875</ele>
        <time>2026-09-03T05:06:45.000Z</time>
        <extensions>
          <ns3:TrackPointExtension>
            <ns3:hr>93</ns3:hr>
            <ns3:cad>71</ns3:cad>
          </ns3:TrackPointExtension>
        </extensions>
      </trkpt>
      <trkpt lat="44.719566665589809417724609375" lon="6.72486570663750171661376953125">
        <ele>2079</ele>
        <time>2026-09-03T05:06:46.000Z</time>
        <extensions>
          <ns3:TrackPointExtension>
            <ns3:hr>93</ns3:hr>
            <ns3:cad>71</ns3:cad>
          </ns3:TrackPointExtension>
        </extensions>
      </trkpt>
      <trkpt lat="44.71959256567060947418212890625" lon="6.724877022206783294677734375">
        <ele>2078.800048828125</ele>
        <time>2026-09-03T05:06:47.000Z</time>
        <extensions>
          <ns3:TrackPointExtension>
            <ns3:hr>94</ns3:hr>
            <ns3:cad>0</ns3:cad>
          </ns3:TrackPointExtension>
        </extensions>
      </trkpt>
      <trkpt lat="44.71961033530533313751220703125" lon="6.72488733194768428802490234375">
        <ele>2078.60009765625</ele>
        <time>2026-09-03T05:06:48.000Z</time>
        <extensions>
          <ns3:TrackPointExtension>
            <ns3:hr>93</ns3:hr>
            <ns3:cad>0</ns3:cad>
          </ns3:TrackPointExtension>
        </extensions>
      </trkpt>
      <trkpt lat="44.71962709911167621612548828125" lon="6.7248939536511898040771484375">
        <ele>2078.199951171875</ele>
        <time>2026-09-03T05:06:49.000Z</time>
        <extensions>
          <ns3:TrackPointExtension>
            <ns3:hr>93</ns3:hr>
            <ns3:cad>0</ns3:cad>
          </ns3:TrackPointExtension>
        </extensions>
      </trkpt>
      <trkpt lat="44.7196395881474018096923828125" lon="6.7248986475169658660888671875">
        <ele>2078</ele>
        <time>2026-09-03T05:06:50.000Z</time>
        <extensions>
          <ns3:TrackPointExtension>
            <ns3:hr>94</ns3:hr>
            <ns3:cad>68</ns3:cad>
          </ns3:TrackPointExtension>
        </extensions>
      </trkpt>
      <trkpt lat="44.71965258009731769561767578125" lon="6.72490392811596393585205078125">
        <ele>2077.60009765625</ele>
        <time>2026-09-03T05:06:51.000Z</time>
        <extensions>
          <ns3:TrackPointExtension>
            <ns3:hr>94</ns3:hr>
            <ns3:cad>68</ns3:cad>
          </ns3:TrackPointExtension>
        </extensions>
      </trkpt>
      <trkpt lat="44.71966557204723358154296875" lon="6.72491163946688175201416015625">
        <ele>2077.39990234375</ele>
        <time>2026-09-03T05:06:52.000Z</time>
        <extensions>
          <ns3:TrackPointExtension>
            <ns3:hr>94</ns3:hr>
            <ns3:cad>68</ns3:cad>
          </ns3:TrackPointExtension>
        </extensions>
      </trkpt>
      <trkpt lat="44.71967705525457859039306640625" lon="6.724923960864543914794921875">
        <ele>2077.199951171875</ele>
        <time>2026-09-03T05:06:53.000Z</time>
        <extensions>
          <ns3:TrackPointExtension>
            <ns3:hr>94</ns3:hr>
            <ns3:cad>68</ns3:cad>
          </ns3:TrackPointExtension>
        </extensions>
      </trkpt>
      <trkpt lat="44.71969147212803363800048828125" lon="6.724944412708282470703125">
        <ele>2076.800048828125</ele>
        <time>2026-09-03T05:06:54.000Z</time>
        <extensions>
          <ns3:TrackPointExtension>
            <ns3:hr>95</ns3:hr>
            <ns3:cad>68</ns3:cad>
          </ns3:TrackPointExtension>
        </extensions>
      </trkpt>
      <trkpt lat="44.71970655955374240875244140625" lon="6.72496075741946697235107421875">
        <ele>2076.60009765625</ele>
        <time>2026-09-03T05:06:55.000Z</time>
        <extensions>
          <ns3:TrackPointExtension>
            <ns3:hr>95</ns3:hr>
            <ns3:cad>68</ns3:cad>
          </ns3:TrackPointExtension>
        </extensions>
      </trkpt>
      <trkpt lat="44.719720892608165740966796875" lon="6.7249791137874126434326171875">
        <ele>2076.39990234375</ele>
        <time>2026-09-03T05:06:56.000Z</time>
        <extensions>
          <ns3:TrackPointExtension>
            <ns3:hr>95</ns3:hr>
            <ns3:cad>68</ns3:cad>
          </ns3:TrackPointExtension>
        </extensions>
      </trkpt>
      <trkpt lat="44.71973472274839878082275390625" lon="6.7249975539743900299072265625">
        <ele>2076</ele>
        <time>2026-09-03T05:06:57.000Z</time>
        <extensions>
          <ns3:TrackPointExtension>
            <ns3:hr>94</ns3:hr>
            <ns3:cad>68</ns3:cad>
          </ns3:TrackPointExtension>
        </extensions>
      </trkpt>
      <trkpt lat="44.71974763087928295135498046875" lon="6.72501205466687679290771484375">
        <ele>2075.60009765625</ele>
        <time>2026-09-03T05:06:58.000Z</time>
        <extensions>
          <ns3:TrackPointExtension>
            <ns3:hr>94</ns3:hr>
            <ns3:cad>72</ns3:cad>
          </ns3:TrackPointExtension>
        </extensions>
      </trkpt>
      <trkpt lat="44.71976104192435741424560546875" lon="6.72504222951829433441162109375">
        <ele>2075.39990234375</ele>
        <time>2026-09-03T05:06:59.000Z</time>
        <extensions>
          <ns3:TrackPointExtension>
            <ns3:hr>95</ns3:hr>
            <ns3:cad>72</ns3:cad>
          </ns3:TrackPointExtension>
        </extensions>
      </trkpt>
      <trkpt lat="44.7197703458368778228759765625" lon="6.7250676266849040985107421875">
        <ele>2075.199951171875</ele>
        <time>2026-09-03T05:07:00.000Z</time>
        <extensions>
          <ns3:TrackPointExtension>
            <ns3:hr>95</ns3:hr>
            <ns3:cad>72</ns3:cad>
          </ns3:TrackPointExtension>
        </extensions>
      </trkpt>
      <trkpt lat="44.71978082321584224700927734375" lon="6.72508497722446918487548828125">
        <ele>2074.800048828125</ele>
        <time>2026-09-03T05:07:01.000Z</time>
        <extensions>
          <ns3:TrackPointExtension>
            <ns3:hr>95</ns3:hr>
            <ns3:cad>81</ns3:cad>
          </ns3:TrackPointExtension>
        </extensions>
      </trkpt>
      <trkpt lat="44.7197924740612506866455078125" lon="6.7251102067530155181884765625">
        <ele>2074.60009765625</ele>
        <time>2026-09-03T05:07:02.000Z</time>
        <extensions>
          <ns3:TrackPointExtension>
            <ns3:hr>96</ns3:hr>
            <ns3:cad>81</ns3:cad>
          </ns3:TrackPointExtension>
        </extensions>
      </trkpt>
      <trkpt lat="44.71980328671634197235107421875" lon="6.7251303233206272125244140625">
        <ele>2074.199951171875</ele>
        <time>2026-09-03T05:07:03.000Z</time>
        <extensions>
          <ns3:TrackPointExtension>
            <ns3:hr>97</ns3:hr>
            <ns3:cad>81</ns3:cad>
          </ns3:TrackPointExtension>
        </extensions>
      </trkpt>
      <trkpt lat="44.71981585957109928131103515625" lon="6.72514013014733791351318359375">
        <ele>2074</ele>
        <time>2026-09-03T05:07:04.000Z</time>
        <extensions>
          <ns3:TrackPointExtension>
            <ns3:hr>98</ns3:hr>
            <ns3:cad>80</ns3:cad>
          </ns3:TrackPointExtension>
        </extensions>
      </trkpt>
      <trkpt lat="44.7198400832712650299072265625" lon="6.72515161335468292236328125">
        <ele>2073.60009765625</ele>
        <time>2026-09-03T05:07:05.000Z</time>
        <extensions>
          <ns3:TrackPointExtension>
            <ns3:hr>99</ns3:hr>
            <ns3:cad>80</ns3:cad>
          </ns3:TrackPointExtension>
        </extensions>
      </trkpt>
      <trkpt lat="44.71984586678445339202880859375" lon="6.72517114318907260894775390625">
        <ele>2073.39990234375</ele>
        <time>2026-09-03T05:07:06.000Z</time>
        <extensions>
          <ns3:TrackPointExtension>
            <ns3:hr>100</ns3:hr>
            <ns3:cad>80</ns3:cad>
          </ns3:TrackPointExtension>
        </extensions>
      </trkpt>
      <trkpt lat="44.719846956431865692138671875" lon="6.725187487900257110595703125">
        <ele>2073.199951171875</ele>
        <time>2026-09-03T05:07:07.000Z</time>
        <extensions>
          <ns3:TrackPointExtension>
            <ns3:hr>100</ns3:hr>
            <ns3:cad>80</ns3:cad>
          </ns3:TrackPointExtension>
        </extensions>
      </trkpt>
      <trkpt lat="44.7198310308158397674560546875" lon="6.7251916788518428802490234375">
        <ele>2072.800048828125</ele>
        <time>2026-09-03T05:07:08.000Z</time>
        <extensions>
          <ns3:TrackPointExtension>
            <ns3:hr>101</ns3:hr>
            <ns3:cad>81</ns3:cad>
          </ns3:TrackPointExtension>
        </extensions>
      </trkpt>
      <trkpt lat="44.7198105789721012115478515625" lon="6.725184135138988494873046875">
        <ele>2072.60009765625</ele>
        <time>2026-09-03T05:07:09.000Z</time>
        <extensions>
          <ns3:TrackPointExtension>
            <ns3:hr>102</ns3:hr>
            <ns3:cad>81</ns3:cad>
          </ns3:TrackPointExtension>
        </extensions>
      </trkpt>
      <trkpt lat="44.71980211324989795684814453125" lon="6.72518723644316196441650390625">
        <ele>2072.199951171875</ele>
        <time>2026-09-03T05:07:10.000Z</time>
        <extensions>
          <ns3:TrackPointExtension>
            <ns3:hr>103</ns3:hr>
            <ns3:cad>81</ns3:cad>
          </ns3:TrackPointExtension>
        </extensions>
      </trkpt>
      <trkpt lat="44.71978283487260341644287109375" lon="6.7251856438815593719482421875">
        <ele>2071.800048828125</ele>
        <time>2026-09-03T05:07:11.000Z</time>
        <extensions>
          <ns3:TrackPointExtension>
            <ns3:hr>104</ns3:hr>
            <ns3:cad>81</ns3:cad>
          </ns3:TrackPointExtension>
        </extensions>
      </trkpt>
      <trkpt lat="44.71975919790565967559814453125" lon="6.725180447101593017578125">
        <ele>2071.39990234375</ele>
        <time>2026-09-03T05:07:12.000Z</time>
        <extensions>
          <ns3:TrackPointExtension>
            <ns3:hr>105</ns3:hr>
            <ns3:cad>79</ns3:cad>
          </ns3:TrackPointExtension>
        </extensions>
      </trkpt>
      <trkpt lat="44.7197465412318706512451171875" lon="6.72517868690192699432373046875">
        <ele>2071</ele>
        <time>2026-09-03T05:07:13.000Z</time>
        <extensions>
          <ns3:TrackPointExtension>
            <ns3:hr>105</ns3:hr>
            <ns3:cad>77</ns3:cad>
          </ns3:TrackPointExtension>
        </extensions>
      </trkpt>
      <trkpt lat="44.71973690204322338104248046875" lon="6.72517751343548297882080078125">
        <ele>2070.60009765625</ele>
        <time>2026-09-03T05:07:14.000Z</time>
        <extensions>
          <ns3:TrackPointExtension>
            <ns3:hr>106</ns3:hr>
            <ns3:cad>77</ns3:cad>
          </ns3:TrackPointExtension>
        </extensions>
      </trkpt>
      <trkpt lat="44.719725586473941802978515625" lon="6.725180111825466156005859375">
        <ele>2070.199951171875</ele>
        <time>2026-09-03T05:07:15.000Z</time>
        <extensions>
          <ns3:TrackPointExtension>
            <ns3:hr>106</ns3:hr>
            <ns3:cad>77</ns3:cad>
          </ns3:TrackPointExtension>
        </extensions>
      </trkpt>
      <trkpt lat="44.7197180427610874176025390625" lon="6.72517952509224414825439453125">
        <ele>2070</ele>
        <time>2026-09-03T05:07:16.000Z</time>
        <extensions>
          <ns3:TrackPointExtension>
            <ns3:hr>106</ns3:hr>
            <ns3:cad>77</ns3:cad>
          </ns3:TrackPointExtension>
        </extensions>
      </trkpt>
      <trkpt lat="44.7196982614696025848388671875" lon="6.72517172992229461669921875">
        <ele>2069.800048828125</ele>
        <time>2026-09-03T05:07:17.000Z</time>
        <extensions>
          <ns3:TrackPointExtension>
            <ns3:hr>106</ns3:hr>
            <ns3:cad>77</ns3:cad>
          </ns3:TrackPointExtension>
        </extensions>
      </trkpt>
      <trkpt lat="44.71968560479581356048583984375" lon="6.72516913153231143951416015625">
        <ele>2069.39990234375</ele>
        <time>2026-09-03T05:07:18.000Z</time>
        <extensions>
          <ns3:TrackPointExtension>
            <ns3:hr>106</ns3:hr>
            <ns3:cad>77</ns3:cad>
          </ns3:TrackPointExtension>
        </extensions>
      </trkpt>
      <trkpt lat="44.71968024037778377532958984375" lon="6.7251802794635295867919921875">
        <ele>2069.199951171875</ele>
        <time>2026-09-03T05:07:19.000Z</time>
        <extensions>
          <ns3:TrackPointExtension>
            <ns3:hr>106</ns3:hr>
            <ns3:cad>77</ns3:cad>
          </ns3:TrackPointExtension>
        </extensions>
      </trkpt>
      <trkpt lat="44.71967537887394428253173828125" lon="6.725196875631809234619140625">
        <ele>2068.800048828125</ele>
        <time>2026-09-03T05:07:20.000Z</time>
        <extensions>
          <ns3:TrackPointExtension>
            <ns3:hr>106</ns3:hr>
            <ns3:cad>77</ns3:cad>
          </ns3:TrackPointExtension>
        </extensions>
      </trkpt>
      <trkpt lat="44.71966087818145751953125" lon="6.725202240049839019775390625">
        <ele>2068.60009765625</ele>
        <time>2026-09-03T05:07:21.000Z</time>
        <extensions>
          <ns3:TrackPointExtension>
            <ns3:hr>107</ns3:hr>
            <ns3:cad>77</ns3:cad>
          </ns3:TrackPointExtension>
        </extensions>
      </trkpt>
      <trkpt lat="44.7196536697447299957275390625" lon="6.725205592811107635498046875">
        <ele>2068.199951171875</ele>
        <time>2026-09-03T05:07:22.000Z</time>
        <extensions>
          <ns3:TrackPointExtension>
            <ns3:hr>107</ns3:hr>
            <ns3:cad>77</ns3:cad>
          </ns3:TrackPointExtension>
        </extensions>
      </trkpt>
      <trkpt lat="44.71963849849998950958251953125" lon="6.72521062195301055908203125">
        <ele>2067.800048828125</ele>
        <time>2026-09-03T05:07:23.000Z</time>
        <extensions>
          <ns3:TrackPointExtension>
            <ns3:hr>106</ns3:hr>
            <ns3:cad>77</ns3:cad>
          </ns3:TrackPointExtension>
        </extensions>
      </trkpt>
      <trkpt lat="44.71962491981685161590576171875" lon="6.72521456144750118255615234375">
        <ele>2067.60009765625</ele>
        <time>2026-09-03T05:07:24.000Z</time>
        <extensions>
          <ns3:TrackPointExtension>
            <ns3:hr>106</ns3:hr>
            <ns3:cad>0</ns3:cad>
          </ns3:TrackPointExtension>
        </extensions>
      </trkpt>
      <trkpt lat="44.7196177951991558074951171875" lon="6.7252272181212902069091796875">
        <ele>2067.39990234375</ele>
        <time>2026-09-03T05:07:25.000Z</time>
        <extensions>
          <ns3:TrackPointExtension>
            <ns3:hr>106</ns3:hr>
            <ns3:cad>0</ns3:cad>
          </ns3:TrackPointExtension>
        </extensions>
      </trkpt>
      <trkpt lat="44.719608239829540252685546875" lon="6.7252453230321407318115234375">
        <ele>2067</ele>
        <time>2026-09-03T05:07:26.000Z</time>
        <extensions>
          <ns3:TrackPointExtension>
            <ns3:hr>106</ns3:hr>
            <ns3:cad>0</ns3:cad>
          </ns3:TrackPointExtension>
        </extensions>
      </trkpt>
      <trkpt lat="44.71960463561117649078369140625" lon="6.72525487840175628662109375">
        <ele>2066.60009765625</ele>
        <time>2026-09-03T05:07:27.000Z</time>
        <extensions>
          <ns3:TrackPointExtension>
            <ns3:hr>107</ns3:hr>
            <ns3:cad>0</ns3:cad>
          </ns3:TrackPointExtension>
        </extensions>
      </trkpt>
      <trkpt lat="44.719601534307003021240234375" lon="6.72526426613330841064453125">
        <ele>2066.39990234375</ele>
        <time>2026-09-03T05:07:28.000Z</time>
        <extensions>
          <ns3:TrackPointExtension>
            <ns3:hr>106</ns3:hr>
            <ns3:cad>0</ns3:cad>
          </ns3:TrackPointExtension>
        </extensions>
      </trkpt>
      <trkpt lat="44.7196017019450664520263671875" lon="6.72527222894132137298583984375">
        <ele>2066</ele>
        <time>2026-09-03T05:07:29.000Z</time>
        <extensions>
          <ns3:TrackPointExtension>
            <ns3:hr>106</ns3:hr>
            <ns3:cad>0</ns3:cad>
          </ns3:TrackPointExtension>
        </extensions>
      </trkpt>
      <trkpt lat="44.7196057252585887908935546875" lon="6.7252791859209537506103515625">
        <ele>2065.800048828125</ele>
        <time>2026-09-03T05:07:30.000Z</time>
        <extensions>
          <ns3:TrackPointExtension>
            <ns3:hr>107</ns3:hr>
            <ns3:cad>0</ns3:cad>
          </ns3:TrackPointExtension>
        </extensions>
      </trkpt>
      <trkpt lat="44.71961201168596744537353515625" lon="6.72528245486319065093994140625">
        <ele>2065.39990234375</ele>
        <time>2026-09-03T05:07:31.000Z</time>
        <extensions>
          <ns3:TrackPointExtension>
            <ns3:hr>107</ns3:hr>
            <ns3:cad>0</ns3:cad>
          </ns3:TrackPointExtension>
        </extensions>
      </trkpt>
      <trkpt lat="44.719622321426868438720703125" lon="6.72528580762445926666259765625">
        <ele>2065.199951171875</ele>
        <time>2026-09-03T05:07:32.000Z</time>
        <extensions>
          <ns3:TrackPointExtension>
            <ns3:hr>107</ns3:hr>
            <ns3:cad>0</ns3:cad>
          </ns3:TrackPointExtension>
        </extensions>
      </trkpt>
      <trkpt lat="44.7196298651397228240966796875" lon="6.725288070738315582275390625">
        <ele>2065</ele>
        <time>2026-09-03T05:07:33.000Z</time>
        <extensions>
          <ns3:TrackPointExtension>
            <ns3:hr>107</ns3:hr>
            <ns3:cad>0</ns3:cad>
          </ns3:TrackPointExtension>
        </extensions>
      </trkpt>
      <trkpt lat="44.71964151598513126373291015625" lon="6.7252946086227893829345703125">
        <ele>2064.800048828125</ele>
        <time>2026-09-03T05:07:34.000Z</time>
        <extensions>
          <ns3:TrackPointExtension>
            <ns3:hr>106</ns3:hr>
            <ns3:cad>0</ns3:cad>
          </ns3:TrackPointExtension>
        </extensions>
      </trkpt>
      <trkpt lat="44.71965459175407886505126953125" lon="6.72530458308756351470947265625">
        <ele>2064.39990234375</ele>
        <time>2026-09-03T05:07:35.000Z</time>
        <extensions>
          <ns3:TrackPointExtension>
            <ns3:hr>107</ns3:hr>
            <ns3:cad>68</ns3:cad>
          </ns3:TrackPointExtension>
        </extensions>
      </trkpt>
      <trkpt lat="44.71966632641851902008056640625" lon="6.72531313262879848480224609375">
        <ele>2064</ele>
        <time>2026-09-03T05:07:36.000Z</time>
        <extensions>
          <ns3:TrackPointExtension>
            <ns3:hr>107</ns3:hr>
            <ns3:cad>74</ns3:cad>
          </ns3:TrackPointExtension>
        </extensions>
      </trkpt>
      <trkpt lat="44.71967722289264202117919921875" lon="6.72532327473163604736328125">
        <ele>2063.800048828125</ele>
        <time>2026-09-03T05:07:37.000Z</time>
        <extensions>
          <ns3:TrackPointExtension>
            <ns3:hr>107</ns3:hr>
            <ns3:cad>74</ns3:cad>
          </ns3:TrackPointExtension>
        </extensions>
      </trkpt>
      <trkpt lat="44.7196868620812892913818359375" lon="6.7253355123102664947509765625">
        <ele>2063.39990234375</ele>
        <time>2026-09-03T05:07:38.000Z</time>
        <extensions>
          <ns3:TrackPointExtension>
            <ns3:hr>106</ns3:hr>
            <ns3:cad>74</ns3:cad>
          </ns3:TrackPointExtension>
        </extensions>
      </trkpt>
      <trkpt lat="44.71969616599380970001220703125" lon="6.7253489233553409576416015625">
        <ele>2063</ele>
        <time>2026-09-03T05:07:39.000Z</time>
        <extensions>
          <ns3:TrackPointExtension>
            <ns3:hr>107</ns3:hr>
            <ns3:cad>74</ns3:cad>
          </ns3:TrackPointExtension>
        </extensions>
      </trkpt>
      <trkpt lat="44.71970220096409320831298828125" lon="6.7253599874675273895263671875">
        <ele>2062.800048828125</ele>
        <time>2026-09-03T05:07:40.000Z</time>
        <extensions>
          <ns3:TrackPointExtension>
            <ns3:hr>107</ns3:hr>
            <ns3:cad>0</ns3:cad>
          </ns3:TrackPointExtension>
        </extensions>
      </trkpt>
      <trkpt lat="44.71970790065824985504150390625" lon="6.72537297941744327545166015625">
        <ele>2062.39990234375</ele>
        <time>2026-09-03T05:07:41.000Z</time>
        <extensions>
          <ns3:TrackPointExtension>
            <ns3:hr>107</ns3:hr>
            <ns3:cad>0</ns3:cad>
          </ns3:TrackPointExtension>
        </extensions>
      </trkpt>
      <trkpt lat="44.71971443854272365570068359375" lon="6.725386641919612884521484375">
        <ele>2062.199951171875</ele>
        <time>2026-09-03T05:07:42.000Z</time>
        <extensions>
          <ns3:TrackPointExtension>
            <ns3:hr>106</ns3:hr>
            <ns3:cad>0</ns3:cad>
          </ns3:TrackPointExtension>
        </extensions>
      </trkpt>
      <trkpt lat="44.719721563160419464111328125" lon="6.72540063969790935516357421875">
        <ele>2061.800048828125</ele>
        <time>2026-09-03T05:07:43.000Z</time>
        <extensions>
          <ns3:TrackPointExtension>
            <ns3:hr>107</ns3:hr>
            <ns3:cad>65</ns3:cad>
          </ns3:TrackPointExtension>
        </extensions>
      </trkpt>
      <trkpt lat="44.71973220817744731903076171875" lon="6.72541807405650615692138671875">
        <ele>2061.60009765625</ele>
        <time>2026-09-03T05:07:44.000Z</time>
        <extensions>
          <ns3:TrackPointExtension>
            <ns3:hr>107</ns3:hr>
            <ns3:cad>65</ns3:cad>
          </ns3:TrackPointExtension>
        </extensions>
      </trkpt>
      <trkpt lat="44.719741679728031158447265625" lon="6.7254290543496608734130859375">
        <ele>2061.199951171875</ele>
        <time>2026-09-03T05:07:45.000Z</time>
        <extensions>
          <ns3:TrackPointExtension>
            <ns3:hr>106</ns3:hr>
            <ns3:cad>65</ns3:cad>
          </ns3:TrackPointExtension>
        </extensions>
      </trkpt>
      <trkpt lat="44.71975785680115222930908203125" lon="6.72544129192829132080078125">
        <ele>2060.800048828125</ele>
        <time>2026-09-03T05:07:46.000Z</time>
        <extensions>
          <ns3:TrackPointExtension>
            <ns3:hr>106</ns3:hr>
            <ns3:cad>0</ns3:cad>
          </ns3:TrackPointExtension>
        </extensions>
      </trkpt>
      <trkpt lat="44.719776548445224761962890625" lon="6.7254553735256195068359375">
        <ele>2060.39990234375</ele>
        <time>2026-09-03T05:07:47.000Z</time>
        <extensions>
          <ns3:TrackPointExtension>
            <ns3:hr>106</ns3:hr>
            <ns3:cad>0</ns3:cad>
          </ns3:TrackPointExtension>
        </extensions>
      </trkpt>
      <trkpt lat="44.71979339607059955596923828125" lon="6.72546652145683765411376953125">
        <ele>2060</ele>
        <time>2026-09-03T05:07:48.000Z</time>
        <extensions>
          <ns3:TrackPointExtension>
            <ns3:hr>106</ns3:hr>
            <ns3:cad>0</ns3:cad>
          </ns3:TrackPointExtension>
        </extensions>
      </trkpt>
      <trkpt lat="44.7198099084198474884033203125" lon="6.7254714667797088623046875">
        <ele>2059.60009765625</ele>
        <time>2026-09-03T05:07:49.000Z</time>
        <extensions>
          <ns3:TrackPointExtension>
            <ns3:hr>106</ns3:hr>
            <ns3:cad>0</ns3:cad>
          </ns3:TrackPointExtension>
        </extensions>
      </trkpt>
      <trkpt lat="44.71982994116842746734619140625" lon="6.7254773341119289398193359375">
        <ele>2059.39990234375</ele>
        <time>2026-09-03T05:07:50.000Z</time>
        <extensions>
          <ns3:TrackPointExtension>
            <ns3:hr>106</ns3:hr>
            <ns3:cad>0</ns3:cad>
          </ns3:TrackPointExtension>
        </extensions>
      </trkpt>
      <trkpt lat="44.71984603442251682281494140625" lon="6.72547456808388233184814453125">
        <ele>2059.199951171875</ele>
        <time>2026-09-03T05:07:51.000Z</time>
        <extensions>
          <ns3:TrackPointExtension>
            <ns3:hr>106</ns3:hr>
            <ns3:cad>0</ns3:cad>
          </ns3:TrackPointExtension>
        </extensions>
      </trkpt>
      <trkpt lat="44.71986271440982818603515625" lon="6.72546886838972568511962890625">
        <ele>2059</ele>
        <time>2026-09-03T05:07:52.000Z</time>
        <extensions>
          <ns3:TrackPointExtension>
            <ns3:hr>105</ns3:hr>
            <ns3:cad>75</ns3:cad>
          </ns3:TrackPointExtension>
        </extensions>
      </trkpt>
      <trkpt lat="44.71988040022552013397216796875" lon="6.7254582233726978302001953125">
        <ele>2058.800048828125</ele>
        <time>2026-09-03T05:07:53.000Z</time>
        <extensions>
          <ns3:TrackPointExtension>
            <ns3:hr>105</ns3:hr>
            <ns3:cad>75</ns3:cad>
          </ns3:TrackPointExtension>
        </extensions>
      </trkpt>
      <trkpt lat="44.71989532001316547393798828125" lon="6.72544757835566997528076171875">
        <ele>2058.60009765625</ele>
        <time>2026-09-03T05:07:54.000Z</time>
        <extensions>
          <ns3:TrackPointExtension>
            <ns3:hr>105</ns3:hr>
            <ns3:cad>75</ns3:cad>
          </ns3:TrackPointExtension>
        </extensions>
      </trkpt>
      <trkpt lat="44.7199116647243499755859375" lon="6.72544062137603759765625">
        <ele>2058.39990234375</ele>
        <time>2026-09-03T05:07:55.000Z</time>
        <extensions>
          <ns3:TrackPointExtension>
            <ns3:hr>106</ns3:hr>
            <ns3:cad>78</ns3:cad>
          </ns3:TrackPointExtension>
        </extensions>
      </trkpt>
      <trkpt lat="44.7199292667210102081298828125" lon="6.72543265856802463531494140625">
        <ele>2058.199951171875</ele>
        <time>2026-09-03T05:07:56.000Z</time>
        <extensions>
          <ns3:TrackPointExtension>
            <ns3:hr>105</ns3:hr>
            <ns3:cad>79</ns3:cad>
          </ns3:TrackPointExtension>
        </extensions>
      </trkpt>
      <trkpt lat="44.71995256841182708740234375" lon="6.725427545607089996337890625">
        <ele>2058</ele>
        <time>2026-09-03T05:07:57.000Z</time>
        <extensions>
          <ns3:TrackPointExtension>
            <ns3:hr>106</ns3:hr>
            <ns3:cad>80</ns3:cad>
          </ns3:TrackPointExtension>
        </extensions>
      </trkpt>
      <trkpt lat="44.71997461281716823577880859375" lon="6.7254240252077579498291015625">
        <ele>2057.800048828125</ele>
        <time>2026-09-03T05:07:58.000Z</time>
        <extensions>
          <ns3:TrackPointExtension>
            <ns3:hr>106</ns3:hr>
            <ns3:cad>80</ns3:cad>
          </ns3:TrackPointExtension>
        </extensions>
      </trkpt>
      <trkpt lat="44.719990789890289306640625" lon="6.72543433494865894317626953125">
        <ele>2057.39990234375</ele>
        <time>2026-09-03T05:07:59.000Z</time>
        <extensions>
          <ns3:TrackPointExtension>
            <ns3:hr>106</ns3:hr>
            <ns3:cad>80</ns3:cad>
          </ns3:TrackPointExtension>
        </extensions>
      </trkpt>
      <trkpt lat="44.72000244073569774627685546875" lon="6.72543860971927642822265625">
        <ele>2057.199951171875</ele>
        <time>2026-09-03T05:08:00.000Z</time>
        <extensions>
          <ns3:TrackPointExtension>
            <ns3:hr>107</ns3:hr>
            <ns3:cad>80</ns3:cad>
          </ns3:TrackPointExtension>
        </extensions>
      </trkpt>
      <trkpt lat="44.7200187854468822479248046875" lon="6.7254387773573398590087890625">
        <ele>2057</ele>
        <time>2026-09-03T05:08:01.000Z</time>
        <extensions>
          <ns3:TrackPointExtension>
            <ns3:hr>107</ns3:hr>
            <ns3:cad>70</ns3:cad>
          </ns3:TrackPointExtension>
        </extensions>
      </trkpt>
      <trkpt lat="44.72003638744354248046875" lon="6.725437603890895843505859375">
        <ele>2056.60009765625</ele>
        <time>2026-09-03T05:08:02.000Z</time>
        <extensions>
          <ns3:TrackPointExtension>
            <ns3:hr>108</ns3:hr>
            <ns3:cad>70</ns3:cad>
          </ns3:TrackPointExtension>
        </extensions>
      </trkpt>
      <trkpt lat="44.72005583345890045166015625" lon="6.72544129192829132080078125">
        <ele>2056.199951171875</ele>
        <time>2026-09-03T05:08:03.000Z</time>
        <extensions>
          <ns3:TrackPointExtension>
            <ns3:hr>108</ns3:hr>
            <ns3:cad>70</ns3:cad>
          </ns3:TrackPointExtension>
        </extensions>
      </trkpt>
      <trkpt lat="44.720076620578765869140625" lon="6.72544665634632110595703125">
        <ele>2055.800048828125</ele>
        <time>2026-09-03T05:08:04.000Z</time>
        <extensions>
          <ns3:TrackPointExtension>
            <ns3:hr>108</ns3:hr>
            <ns3:cad>70</ns3:cad>
          </ns3:TrackPointExtension>
        </extensions>
      </trkpt>
      <trkpt lat="44.72009204328060150146484375" lon="6.725461073219776153564453125">
        <ele>2055.39990234375</ele>
        <time>2026-09-03T05:08:05.000Z</time>
        <extensions>
          <ns3:TrackPointExtension>
            <ns3:hr>108</ns3:hr>
            <ns3:cad>70</ns3:cad>
          </ns3:TrackPointExtension>
        </extensions>
      </trkpt>
      <trkpt lat="44.720103777945041656494140625" lon="6.72547423280775547027587890625">
        <ele>2055</ele>
        <time>2026-09-03T05:08:06.000Z</time>
        <extensions>
          <ns3:TrackPointExtension>
            <ns3:hr>107</ns3:hr>
            <ns3:cad>70</ns3:cad>
          </ns3:TrackPointExtension>
        </extensions>
      </trkpt>
      <trkpt lat="44.7201176919043064117431640625" lon="6.7254920862615108489990234375">
        <ele>2054.800048828125</ele>
        <time>2026-09-03T05:08:07.000Z</time>
        <extensions>
          <ns3:TrackPointExtension>
            <ns3:hr>107</ns3:hr>
            <ns3:cad>70</ns3:cad>
          </ns3:TrackPointExtension>
        </extensions>
      </trkpt>
      <trkpt lat="44.72012867219746112823486328125" lon="6.725504659116268157958984375">
        <ele>2054.39990234375</ele>
        <time>2026-09-03T05:08:08.000Z</time>
        <extensions>
          <ns3:TrackPointExtension>
            <ns3:hr>107</ns3:hr>
            <ns3:cad>70</ns3:cad>
          </ns3:TrackPointExtension>
        </extensions>
      </trkpt>
      <trkpt lat="44.720127582550048828125" lon="6.725529469549655914306640625">
        <ele>2054.199951171875</ele>
        <time>2026-09-03T05:08:09.000Z</time>
        <extensions>
          <ns3:TrackPointExtension>
            <ns3:hr>106</ns3:hr>
            <ns3:cad>80</ns3:cad>
          </ns3:TrackPointExtension>
        </extensions>
      </trkpt>
      <trkpt lat="44.72012163139879703521728515625" lon="6.72554296441376209259033203125">
        <ele>2054.199951171875</ele>
        <time>2026-09-03T05:08:10.000Z</time>
        <extensions>
          <ns3:TrackPointExtension>
            <ns3:hr>106</ns3:hr>
            <ns3:cad>80</ns3:cad>
          </ns3:TrackPointExtension>
        </extensions>
      </trkpt>
      <trkpt lat="44.72011107020080089569091796875" lon="6.72555402852594852447509765625">
        <ele>2054</ele>
        <time>2026-09-03T05:08:11.000Z</time>
        <extensions>
          <ns3:TrackPointExtension>
            <ns3:hr>106</ns3:hr>
            <ns3:cad>80</ns3:cad>
          </ns3:TrackPointExtension>
        </extensions>
      </trkpt>
      <trkpt lat="44.7201056219637393951416015625" lon="6.7255648411810398101806640625">
        <ele>2053.800048828125</ele>
        <time>2026-09-03T05:08:12.000Z</time>
        <extensions>
          <ns3:TrackPointExtension>
            <ns3:hr>106</ns3:hr>
            <ns3:cad>80</ns3:cad>
          </ns3:TrackPointExtension>
        </extensions>
      </trkpt>
      <trkpt lat="44.72010143101215362548828125" lon="6.72558235935866832733154296875">
        <ele>2053.60009765625</ele>
        <time>2026-09-03T05:08:13.000Z</time>
        <extensions>
          <ns3:TrackPointExtension>
            <ns3:hr>105</ns3:hr>
            <ns3:cad>79</ns3:cad>
          </ns3:TrackPointExtension>
        </extensions>
      </trkpt>
      <trkpt lat="44.720099754631519317626953125" lon="6.72559442929923534393310546875">
        <ele>2053.199951171875</ele>
        <time>2026-09-03T05:08:14.000Z</time>
        <extensions>
          <ns3:TrackPointExtension>
            <ns3:hr>105</ns3:hr>
            <ns3:cad>79</ns3:cad>
          </ns3:TrackPointExtension>
        </extensions>
      </trkpt>
      <trkpt lat="44.72009447403252124786376953125" lon="6.72562242485582828521728515625">
        <ele>2052.800048828125</ele>
        <time>2026-09-03T05:08:15.000Z</time>
        <extensions>
          <ns3:TrackPointExtension>
            <ns3:hr>104</ns3:hr>
            <ns3:cad>79</ns3:cad>
          </ns3:TrackPointExtension>
        </extensions>
      </trkpt>
      <trkpt lat="44.720093719661235809326171875" lon="6.72564589418470859527587890625">
        <ele>2052.60009765625</ele>
        <time>2026-09-03T05:08:16.000Z</time>
        <extensions>
          <ns3:TrackPointExtension>
            <ns3:hr>103</ns3:hr>
            <ns3:cad>79</ns3:cad>
          </ns3:TrackPointExtension>
        </extensions>
      </trkpt>
      <trkpt lat="44.7200967371463775634765625" lon="6.7256619036197662353515625">
        <ele>2052.199951171875</ele>
        <time>2026-09-03T05:08:17.000Z</time>
        <extensions>
          <ns3:TrackPointExtension>
            <ns3:hr>103</ns3:hr>
            <ns3:cad>79</ns3:cad>
          </ns3:TrackPointExtension>
        </extensions>
      </trkpt>
      <trkpt lat="44.72010084427893161773681640625" lon="6.7256753146648406982421875">
        <ele>2051.800048828125</ele>
        <time>2026-09-03T05:08:18.000Z</time>
        <extensions>
          <ns3:TrackPointExtension>
            <ns3:hr>103</ns3:hr>
            <ns3:cad>79</ns3:cad>
          </ns3:TrackPointExtension>
        </extensions>
      </trkpt>
      <trkpt lat="44.72010252065956592559814453125" lon="6.72568445093929767608642578125">
        <ele>2051.60009765625</ele>
        <time>2026-09-03T05:08:19.000Z</time>
        <extensions>
          <ns3:TrackPointExtension>
            <ns3:hr>103</ns3:hr>
            <ns3:cad>68</ns3:cad>
          </ns3:TrackPointExtension>
        </extensions>
      </trkpt>
      <trkpt lat="44.7201079688966274261474609375" lon="6.7256929166615009307861328125">
        <ele>2051.199951171875</ele>
        <time>2026-09-03T05:08:20.000Z</time>
        <extensions>
          <ns3:TrackPointExtension>
            <ns3:hr>103</ns3:hr>
            <ns3:cad>68</ns3:cad>
          </ns3:TrackPointExtension>
        </extensions>
      </trkpt>
      <trkpt lat="44.72011023201048374176025390625" lon="6.72569811344146728515625">
        <ele>2051.199951171875</ele>
        <time>2026-09-03T05:08:21.000Z</time>
        <extensions>
          <ns3:TrackPointExtension>
            <ns3:hr>102</ns3:hr>
            <ns3:cad>0</ns3:cad>
          </ns3:TrackPointExtension>
        </extensions>
      </trkpt>
      <trkpt lat="44.72011484205722808837890625" lon="6.725699789822101593017578125">
        <ele>2051</ele>
        <time>2026-09-03T05:08:22.000Z</time>
        <extensions>
          <ns3:TrackPointExtension>
            <ns3:hr>102</ns3:hr>
            <ns3:cad>0</ns3:cad>
          </ns3:TrackPointExtension>
        </extensions>
      </trkpt>
      <trkpt lat="44.72011484205722808837890625" lon="6.7256996221840381622314453125">
        <ele>2051</ele>
        <time>2026-09-03T05:08:23.000Z</time>
        <extensions>
          <ns3:TrackPointExtension>
            <ns3:hr>102</ns3:hr>
            <ns3:cad>0</ns3:cad>
          </ns3:TrackPointExtension>
        </extensions>
      </trkpt>
      <trkpt lat="44.72011484205722808837890625" lon="6.7256996221840381622314453125">
        <ele>2051.199951171875</ele>
        <time>2026-09-03T05:08:24.000Z</time>
        <extensions>
          <ns3:TrackPointExtension>
            <ns3:hr>102</ns3:hr>
            <ns3:cad>0</ns3:cad>
          </ns3:TrackPointExtension>
        </extensions>
      </trkpt>
      <trkpt lat="44.72011484205722808837890625" lon="6.7256996221840381622314453125">
        <ele>2051.199951171875</ele>
        <time>2026-09-03T05:08:25.000Z</time>
        <extensions>
          <ns3:TrackPointExtension>
            <ns3:hr>102</ns3:hr>
            <ns3:cad>0</ns3:cad>
          </ns3:TrackPointExtension>
        </extensions>
      </trkpt>
      <trkpt lat="44.72011484205722808837890625" lon="6.7256996221840381622314453125">
        <ele>2051.199951171875</ele>
        <time>2026-09-03T05:08:26.000Z</time>
        <extensions>
          <ns3:TrackPointExtension>
            <ns3:hr>102</ns3:hr>
            <ns3:cad>0</ns3:cad>
          </ns3:TrackPointExtension>
        </extensions>
      </trkpt>
      <trkpt lat="44.7201155126094818115234375" lon="6.72569953836500644683837890625">
        <ele>2051.39990234375</ele>
        <time>2026-09-03T05:08:27.000Z</time>
        <extensions>
          <ns3:TrackPointExtension>
            <ns3:hr>102</ns3:hr>
            <ns3:cad>0</ns3:cad>
          </ns3:TrackPointExtension>
        </extensions>
      </trkpt>
      <trkpt lat="44.7201316058635711669921875" lon="6.72571026720106601715087890625">
        <ele>2051.199951171875</ele>
        <time>2026-09-03T05:08:28.000Z</time>
        <extensions>
          <ns3:TrackPointExtension>
            <ns3:hr>103</ns3:hr>
            <ns3:cad>0</ns3:cad>
          </ns3:TrackPointExtension>
        </extensions>
      </trkpt>
      <trkpt lat="44.72014971077442169189453125" lon="6.7257227562367916107177734375">
        <ele>2051</ele>
        <time>2026-09-03T05:08:29.000Z</time>
        <extensions>
          <ns3:TrackPointExtension>
            <ns3:hr>103</ns3:hr>
            <ns3:cad>0</ns3:cad>
          </ns3:TrackPointExtension>
        </extensions>
      </trkpt>
      <trkpt lat="44.72016303800046443939208984375" lon="6.7257224209606647491455078125">
        <ele>2050.800048828125</ele>
        <time>2026-09-03T05:08:30.000Z</time>
        <extensions>
          <ns3:TrackPointExtension>
            <ns3:hr>104</ns3:hr>
            <ns3:cad>0</ns3:cad>
          </ns3:TrackPointExtension>
        </extensions>
      </trkpt>
      <trkpt lat="44.72017385065555572509765625" lon="6.7257137037813663482666015625">
        <ele>2050.60009765625</ele>
        <time>2026-09-03T05:08:31.000Z</time>
        <extensions>
          <ns3:TrackPointExtension>
            <ns3:hr>104</ns3:hr>
            <ns3:cad>0</ns3:cad>
          </ns3:TrackPointExtension>
        </extensions>
      </trkpt>
      <trkpt lat="44.72019304521381855010986328125" lon="6.7257036454975605010986328125">
        <ele>2050.39990234375</ele>
        <time>2026-09-03T05:08:32.000Z</time>
        <extensions>
          <ns3:TrackPointExtension>
            <ns3:hr>104</ns3:hr>
            <ns3:cad>0</ns3:cad>
          </ns3:TrackPointExtension>
        </extensions>
      </trkpt>
      <trkpt lat="44.72020628862082958221435546875" lon="6.72568537294864654541015625">
        <ele>2050</ele>
        <time>2026-09-03T05:08:33.000Z</time>
        <extensions>
          <ns3:TrackPointExtension>
            <ns3:hr>104</ns3:hr>
            <ns3:cad>69</ns3:cad>
          </ns3:TrackPointExtension>
        </extensions>
      </trkpt>
      <trkpt lat="44.7202169336378574371337890625" lon="6.7256671003997325897216796875">
        <ele>2049.800048828125</ele>
        <time>2026-09-03T05:08:34.000Z</time>
        <extensions>
          <ns3:TrackPointExtension>
            <ns3:hr>104</ns3:hr>
            <ns3:cad>75</ns3:cad>
          </ns3:TrackPointExtension>
        </extensions>
      </trkpt>
      <trkpt lat="44.72022640518844127655029296875" lon="6.725656203925609588623046875">
        <ele>2049.60009765625</ele>
        <time>2026-09-03T05:08:35.000Z</time>
        <extensions>
          <ns3:TrackPointExtension>
            <ns3:hr>105</ns3:hr>
            <ns3:cad>75</ns3:cad>
          </ns3:TrackPointExtension>
        </extensions>
      </trkpt>
      <trkpt lat="44.720231853425502777099609375" lon="6.72564958222210407257080078125">
        <ele>2049.39990234375</ele>
        <time>2026-09-03T05:08:36.000Z</time>
        <extensions>
          <ns3:TrackPointExtension>
            <ns3:hr>105</ns3:hr>
            <ns3:cad>75</ns3:cad>
          </ns3:TrackPointExtension>
        </extensions>
      </trkpt>
      <trkpt lat="44.7202397324144840240478515625" lon="6.7256432957947254180908203125">
        <ele>2049</ele>
        <time>2026-09-03T05:08:37.000Z</time>
        <extensions>
          <ns3:TrackPointExtension>
            <ns3:hr>105</ns3:hr>
            <ns3:cad>75</ns3:cad>
          </ns3:TrackPointExtension>
        </extensions>
      </trkpt>
      <trkpt lat="44.720247946679592132568359375" lon="6.7256453074514865875244140625">
        <ele>2048.800048828125</ele>
        <time>2026-09-03T05:08:38.000Z</time>
        <extensions>
          <ns3:TrackPointExtension>
            <ns3:hr>105</ns3:hr>
            <ns3:cad>75</ns3:cad>
          </ns3:TrackPointExtension>
        </extensions>
      </trkpt>
      <trkpt lat="44.7202474437654018402099609375" lon="6.7256779968738555908203125">
        <ele>2048.60009765625</ele>
        <time>2026-09-03T05:08:39.000Z</time>
        <extensions>
          <ns3:TrackPointExtension>
            <ns3:hr>104</ns3:hr>
            <ns3:cad>75</ns3:cad>
          </ns3:TrackPointExtension>
        </extensions>
      </trkpt>
      <trkpt lat="44.72023948095738887786865234375" lon="6.725703142583370208740234375">
        <ele>2048.39990234375</ele>
        <time>2026-09-03T05:08:40.000Z</time>
        <extensions>
          <ns3:TrackPointExtension>
            <ns3:hr>104</ns3:hr>
            <ns3:cad>67</ns3:cad>
          </ns3:TrackPointExtension>
        </extensions>
      </trkpt>
      <trkpt lat="44.72022623755037784576416015625" lon="6.72572585754096508026123046875">
        <ele>2048</ele>
        <time>2026-09-03T05:08:41.000Z</time>
        <extensions>
          <ns3:TrackPointExtension>
            <ns3:hr>103</ns3:hr>
            <ns3:cad>67</ns3:cad>
          </ns3:TrackPointExtension>
        </extensions>
      </trkpt>
      <trkpt lat="44.72021810710430145263671875" lon="6.72574102878570556640625">
        <ele>2047.800048828125</ele>
        <time>2026-09-03T05:08:42.000Z</time>
        <extensions>
          <ns3:TrackPointExtension>
            <ns3:hr>102</ns3:hr>
            <ns3:cad>67</ns3:cad>
          </ns3:TrackPointExtension>
        </extensions>
      </trkpt>
      <trkpt lat="44.72021047957241535186767578125" lon="6.72575821168720722198486328125">
        <ele>2047.5999755859375</ele>
        <time>2026-09-03T05:08:43.000Z</time>
        <extensions>
          <ns3:TrackPointExtension>
            <ns3:hr>102</ns3:hr>
            <ns3:cad>67</ns3:cad>
          </ns3:TrackPointExtension>
        </extensions>
      </trkpt>
      <trkpt lat="44.7201981581747531890869140625" lon="6.725786626338958740234375">
        <ele>2047.4000244140625</ele>
        <time>2026-09-03T05:08:44.000Z</time>
        <extensions>
          <ns3:TrackPointExtension>
            <ns3:hr>101</ns3:hr>
            <ns3:cad>67</ns3:cad>
          </ns3:TrackPointExtension>
        </extensions>
      </trkpt>
      <trkpt lat="44.720190949738025665283203125" lon="6.7258048988878726959228515625">
        <ele>2047</ele>
        <time>2026-09-03T05:08:45.000Z</time>
        <extensions>
          <ns3:TrackPointExtension>
            <ns3:hr>101</ns3:hr>
            <ns3:cad>67</ns3:cad>
          </ns3:TrackPointExtension>
        </extensions>
      </trkpt>
      <trkpt lat="44.720183908939361572265625" lon="6.7258189804852008819580078125">
        <ele>2046.800048828125</ele>
        <time>2026-09-03T05:08:46.000Z</time>
        <extensions>
          <ns3:TrackPointExtension>
            <ns3:hr>101</ns3:hr>
            <ns3:cad>67</ns3:cad>
          </ns3:TrackPointExtension>
        </extensions>
      </trkpt>
      <trkpt lat="44.720175527036190032958984375" lon="6.72584186308085918426513671875">
        <ele>2046.5999755859375</ele>
        <time>2026-09-03T05:08:47.000Z</time>
        <extensions>
          <ns3:TrackPointExtension>
            <ns3:hr>100</ns3:hr>
            <ns3:cad>67</ns3:cad>
          </ns3:TrackPointExtension>
        </extensions>
      </trkpt>
      <trkpt lat="44.720165468752384185791015625" lon="6.72586952336132526397705078125">
        <ele>2046.4000244140625</ele>
        <time>2026-09-03T05:08:48.000Z</time>
        <extensions>
          <ns3:TrackPointExtension>
            <ns3:hr>101</ns3:hr>
            <ns3:cad>75</ns3:cad>
          </ns3:TrackPointExtension>
        </extensions>
      </trkpt>
      <trkpt lat="44.7201535664498805999755859375" lon="6.7258791625499725341796875">
        <ele>2046.199951171875</ele>
        <time>2026-09-03T05:08:49.000Z</time>
        <extensions>
          <ns3:TrackPointExtension>
            <ns3:hr>100</ns3:hr>
            <ns3:cad>75</ns3:cad>
          </ns3:TrackPointExtension>
        </extensions>
      </trkpt>
      <trkpt lat="44.7201476991176605224609375" lon="6.72588662244379520416259765625">
        <ele>2045.800048828125</ele>
        <time>2026-09-03T05:08:50.000Z</time>
        <extensions>
          <ns3:TrackPointExtension>
            <ns3:hr>101</ns3:hr>
            <ns3:cad>75</ns3:cad>
          </ns3:TrackPointExtension>
        </extensions>
      </trkpt>
      <trkpt lat="44.720140658318996429443359375" lon="6.72589416615664958953857421875">
        <ele>2045.5999755859375</ele>
        <time>2026-09-03T05:08:51.000Z</time>
        <extensions>
          <ns3:TrackPointExtension>
            <ns3:hr>101</ns3:hr>
            <ns3:cad>76</ns3:cad>
          </ns3:TrackPointExtension>
        </extensions>
      </trkpt>
      <trkpt lat="44.72012867219746112823486328125" lon="6.725904308259487152099609375">
        <ele>2045.199951171875</ele>
        <time>2026-09-03T05:08:52.000Z</time>
        <extensions>
          <ns3:TrackPointExtension>
            <ns3:hr>101</ns3:hr>
            <ns3:cad>77</ns3:cad>
          </ns3:TrackPointExtension>
        </extensions>
      </trkpt>
      <trkpt lat="44.72011190839111804962158203125" lon="6.72590958885848522186279296875">
        <ele>2045</ele>
        <time>2026-09-03T05:08:53.000Z</time>
        <extensions>
          <ns3:TrackPointExtension>
            <ns3:hr>101</ns3:hr>
            <ns3:cad>77</ns3:cad>
          </ns3:TrackPointExtension>
        </extensions>
      </trkpt>
      <trkpt lat="44.72009430639445781707763671875" lon="6.72590992413461208343505859375">
        <ele>2044.5999755859375</ele>
        <time>2026-09-03T05:08:54.000Z</time>
        <extensions>
          <ns3:TrackPointExtension>
            <ns3:hr>101</ns3:hr>
            <ns3:cad>77</ns3:cad>
          </ns3:TrackPointExtension>
        </extensions>
      </trkpt>
      <trkpt lat="44.72008265554904937744140625" lon="6.7259011231362819671630859375">
        <ele>2044.4000244140625</ele>
        <time>2026-09-03T05:08:55.000Z</time>
        <extensions>
          <ns3:TrackPointExtension>
            <ns3:hr>101</ns3:hr>
            <ns3:cad>77</ns3:cad>
          </ns3:TrackPointExtension>
        </extensions>
      </trkpt>
      <trkpt lat="44.72006916068494319915771484375" lon="6.72590288333594799041748046875">
        <ele>2044</ele>
        <time>2026-09-03T05:08:56.000Z</time>
        <extensions>
          <ns3:TrackPointExtension>
            <ns3:hr>101</ns3:hr>
            <ns3:cad>80</ns3:cad>
          </ns3:TrackPointExtension>
        </extensions>
      </trkpt>
      <trkpt lat="44.7200573422014713287353515625" lon="6.72590355388820171356201171875">
        <ele>2043.800048828125</ele>
        <time>2026-09-03T05:08:57.000Z</time>
        <extensions>
          <ns3:TrackPointExtension>
            <ns3:hr>100</ns3:hr>
            <ns3:cad>80</ns3:cad>
          </ns3:TrackPointExtension>
        </extensions>
      </trkpt>
      <trkpt lat="44.72003580071032047271728515625" lon="6.72589383088052272796630859375">
        <ele>2043.4000244140625</ele>
        <time>2026-09-03T05:08:58.000Z</time>
        <extensions>
          <ns3:TrackPointExtension>
            <ns3:hr>99</ns3:hr>
            <ns3:cad>80</ns3:cad>
          </ns3:TrackPointExtension>
        </extensions>
      </trkpt>
      <trkpt lat="44.7200234793126583099365234375" lon="6.7258791625499725341796875">
        <ele>2043</ele>
        <time>2026-09-03T05:08:59.000Z</time>
        <extensions>
          <ns3:TrackPointExtension>
            <ns3:hr>99</ns3:hr>
            <ns3:cad>80</ns3:cad>
          </ns3:TrackPointExtension>
        </extensions>
      </trkpt>
      <trkpt lat="44.7200104035437107086181640625" lon="6.72587446868419647216796875">
        <ele>2042.800048828125</ele>
        <time>2026-09-03T05:09:00.000Z</time>
        <extensions>
          <ns3:TrackPointExtension>
            <ns3:hr>97</ns3:hr>
            <ns3:cad>80</ns3:cad>
          </ns3:TrackPointExtension>
        </extensions>
      </trkpt>
      <trkpt lat="44.71999280154705047607421875" lon="6.72586851753294467926025390625">
        <ele>2042.4000244140625</ele>
        <time>2026-09-03T05:09:01.000Z</time>
        <extensions>
          <ns3:TrackPointExtension>
            <ns3:hr>96</ns3:hr>
            <ns3:cad>77</ns3:cad>
          </ns3:TrackPointExtension>
        </extensions>
      </trkpt>
      <trkpt lat="44.71996991895139217376708984375" lon="6.72586667351424694061279296875">
        <ele>2042</ele>
        <time>2026-09-03T05:09:02.000Z</time>
        <extensions>
          <ns3:TrackPointExtension>
            <ns3:hr>96</ns3:hr>
            <ns3:cad>77</ns3:cad>
          </ns3:TrackPointExtension>
        </extensions>
      </trkpt>
      <trkpt lat="44.71995122730731964111328125" lon="6.7258682660758495330810546875">
        <ele>2041.4000244140625</ele>
        <time>2026-09-03T05:09:03.000Z</time>
        <extensions>
          <ns3:TrackPointExtension>
            <ns3:hr>95</ns3:hr>
            <ns3:cad>68</ns3:cad>
          </ns3:TrackPointExtension>
        </extensions>
      </trkpt>
      <trkpt lat="44.71993974409997463226318359375" lon="6.725876815617084503173828125">
        <ele>2041</ele>
        <time>2026-09-03T05:09:04.000Z</time>
        <extensions>
          <ns3:TrackPointExtension>
            <ns3:hr>95</ns3:hr>
            <ns3:cad>68</ns3:cad>
          </ns3:TrackPointExtension>
        </extensions>
      </trkpt>
      <trkpt lat="44.71993437968194484710693359375" lon="6.72588293440639972686767578125">
        <ele>2040.5999755859375</ele>
        <time>2026-09-03T05:09:05.000Z</time>
        <extensions>
          <ns3:TrackPointExtension>
            <ns3:hr>96</ns3:hr>
            <ns3:cad>68</ns3:cad>
          </ns3:TrackPointExtension>
        </extensions>
      </trkpt>
      <trkpt lat="44.7199225611984729766845703125" lon="6.72589190304279327392578125">
        <ele>2040.199951171875</ele>
        <time>2026-09-03T05:09:06.000Z</time>
        <extensions>
          <ns3:TrackPointExtension>
            <ns3:hr>96</ns3:hr>
            <ns3:cad>68</ns3:cad>
          </ns3:TrackPointExtension>
        </extensions>
      </trkpt>
      <trkpt lat="44.71991476602852344512939453125" lon="6.72589994966983795166015625">
        <ele>2040</ele>
        <time>2026-09-03T05:09:07.000Z</time>
        <extensions>
          <ns3:TrackPointExtension>
            <ns3:hr>96</ns3:hr>
            <ns3:cad>68</ns3:cad>
          </ns3:TrackPointExtension>
        </extensions>
      </trkpt>
      <trkpt lat="44.71989699639379978179931640625" lon="6.72589919529855251312255859375">
        <ele>2039.5999755859375</ele>
        <time>2026-09-03T05:09:08.000Z</time>
        <extensions>
          <ns3:TrackPointExtension>
            <ns3:hr>97</ns3:hr>
            <ns3:cad>73</ns3:cad>
          </ns3:TrackPointExtension>
        </extensions>
      </trkpt>
      <trkpt lat="44.71988241188228130340576171875" lon="6.72589399851858615875244140625">
        <ele>2039.4000244140625</ele>
        <time>2026-09-03T05:09:09.000Z</time>
        <extensions>
          <ns3:TrackPointExtension>
            <ns3:hr>97</ns3:hr>
            <ns3:cad>73</ns3:cad>
          </ns3:TrackPointExtension>
        </extensions>
      </trkpt>
      <trkpt lat="44.7198638878762722015380859375" lon="6.72589550726115703582763671875">
        <ele>2039.199951171875</ele>
        <time>2026-09-03T05:09:10.000Z</time>
        <extensions>
          <ns3:TrackPointExtension>
            <ns3:hr>97</ns3:hr>
            <ns3:cad>73</ns3:cad>
          </ns3:TrackPointExtension>
        </extensions>
      </trkpt>
      <trkpt lat="44.71985064446926116943359375" lon="6.72589433379471302032470703125">
        <ele>2039</ele>
        <time>2026-09-03T05:09:11.000Z</time>
        <extensions>
          <ns3:TrackPointExtension>
            <ns3:hr>98</ns3:hr>
            <ns3:cad>73</ns3:cad>
          </ns3:TrackPointExtension>
        </extensions>
      </trkpt>
      <trkpt lat="44.71983949653804302215576171875" lon="6.72589835710823535919189453125">
        <ele>2038.800048828125</ele>
        <time>2026-09-03T05:09:12.000Z</time>
        <extensions>
          <ns3:TrackPointExtension>
            <ns3:hr>98</ns3:hr>
            <ns3:cad>73</ns3:cad>
          </ns3:TrackPointExtension>
        </extensions>
      </trkpt>
      <trkpt lat="44.71982642076909542083740234375" lon="6.7259044758975505828857421875">
        <ele>2038.5999755859375</ele>
        <time>2026-09-03T05:09:13.000Z</time>
        <extensions>
          <ns3:TrackPointExtension>
            <ns3:hr>98</ns3:hr>
            <ns3:cad>73</ns3:cad>
          </ns3:TrackPointExtension>
        </extensions>
      </trkpt>
      <trkpt lat="44.7198152728378772735595703125" lon="6.72591092996299266815185546875">
        <ele>2038.199951171875</ele>
        <time>2026-09-03T05:09:14.000Z</time>
        <extensions>
          <ns3:TrackPointExtension>
            <ns3:hr>98</ns3:hr>
            <ns3:cad>64</ns3:cad>
          </ns3:TrackPointExtension>
        </extensions>
      </trkpt>
      <trkpt lat="44.71980110742151737213134765625" lon="6.7259180545806884765625">
        <ele>2038</ele>
        <time>2026-09-03T05:09:15.000Z</time>
        <extensions>
          <ns3:TrackPointExtension>
            <ns3:hr>98</ns3:hr>
            <ns3:cad>0</ns3:cad>
          </ns3:TrackPointExtension>
        </extensions>
      </trkpt>
      <trkpt lat="44.71979607827961444854736328125" lon="6.7259326390922069549560546875">
        <ele>2037.5999755859375</ele>
        <time>2026-09-03T05:09:16.000Z</time>
        <extensions>
          <ns3:TrackPointExtension>
            <ns3:hr>97</ns3:hr>
            <ns3:cad>0</ns3:cad>
          </ns3:TrackPointExtension>
        </extensions>
      </trkpt>
      <trkpt lat="44.71978803165256977081298828125" lon="6.72594529576599597930908203125">
        <ele>2037.199951171875</ele>
        <time>2026-09-03T05:09:17.000Z</time>
        <extensions>
          <ns3:TrackPointExtension>
            <ns3:hr>96</ns3:hr>
            <ns3:cad>0</ns3:cad>
          </ns3:TrackPointExtension>
        </extensions>
      </trkpt>
      <trkpt lat="44.7197726927697658538818359375" lon="6.72596298158168792724609375">
        <ele>2037</ele>
        <time>2026-09-03T05:09:18.000Z</time>
        <extensions>
          <ns3:TrackPointExtension>
            <ns3:hr>96</ns3:hr>
            <ns3:cad>0</ns3:cad>
          </ns3:TrackPointExtension>
        </extensions>
      </trkpt>
      <trkpt lat="44.71975550986826419830322265625" lon="6.72598133794963359832763671875">
        <ele>2036.5999755859375</ele>
        <time>2026-09-03T05:09:19.000Z</time>
        <extensions>
          <ns3:TrackPointExtension>
            <ns3:hr>95</ns3:hr>
            <ns3:cad>0</ns3:cad>
          </ns3:TrackPointExtension>
        </extensions>
      </trkpt>
      <trkpt lat="44.71974335610866546630859375" lon="6.725993491709232330322265625">
        <ele>2036.199951171875</ele>
        <time>2026-09-03T05:09:20.000Z</time>
        <extensions>
          <ns3:TrackPointExtension>
            <ns3:hr>94</ns3:hr>
            <ns3:cad>0</ns3:cad>
          </ns3:TrackPointExtension>
        </extensions>
      </trkpt>
      <trkpt lat="44.71973204053938388824462890625" lon="6.72600514255464076995849609375">
        <ele>2035.5999755859375</ele>
        <time>2026-09-03T05:09:21.000Z</time>
        <extensions>
          <ns3:TrackPointExtension>
            <ns3:hr>94</ns3:hr>
            <ns3:cad>0</ns3:cad>
          </ns3:TrackPointExtension>
        </extensions>
      </trkpt>
      <trkpt lat="44.71971930004656314849853515625" lon="6.7260171286761760711669921875">
        <ele>2035.199951171875</ele>
        <time>2026-09-03T05:09:22.000Z</time>
        <extensions>
          <ns3:TrackPointExtension>
            <ns3:hr>94</ns3:hr>
            <ns3:cad>0</ns3:cad>
          </ns3:TrackPointExtension>
        </extensions>
      </trkpt>
      <trkpt lat="44.71969700418412685394287109375" lon="6.72602442093193531036376953125">
        <ele>2034.800048828125</ele>
        <time>2026-09-03T05:09:23.000Z</time>
        <extensions>
          <ns3:TrackPointExtension>
            <ns3:hr>94</ns3:hr>
            <ns3:cad>0</ns3:cad>
          </ns3:TrackPointExtension>
        </extensions>
      </trkpt>
      <trkpt lat="44.7196890413761138916015625" lon="6.726030372083187103271484375">
        <ele>2034.5999755859375</ele>
        <time>2026-09-03T05:09:24.000Z</time>
        <extensions>
          <ns3:TrackPointExtension>
            <ns3:hr>94</ns3:hr>
            <ns3:cad>0</ns3:cad>
          </ns3:TrackPointExtension>
        </extensions>
      </trkpt>
      <trkpt lat="44.7196804918348789215087890625" lon="6.7260419391095638275146484375">
        <ele>2034.4000244140625</ele>
        <time>2026-09-03T05:09:25.000Z</time>
        <extensions>
          <ns3:TrackPointExtension>
            <ns3:hr>93</ns3:hr>
            <ns3:cad>0</ns3:cad>
          </ns3:TrackPointExtension>
        </extensions>
      </trkpt>
      <trkpt lat="44.7196704335510730743408203125" lon="6.7260489799082279205322265625">
        <ele>2034.199951171875</ele>
        <time>2026-09-03T05:09:26.000Z</time>
        <extensions>
          <ns3:TrackPointExtension>
            <ns3:hr>93</ns3:hr>
            <ns3:cad>78</ns3:cad>
          </ns3:TrackPointExtension>
        </extensions>
      </trkpt>
      <trkpt lat="44.71966230310499668121337890625" lon="6.72605627216398715972900390625">
        <ele>2033.800048828125</ele>
        <time>2026-09-03T05:09:27.000Z</time>
        <extensions>
          <ns3:TrackPointExtension>
            <ns3:hr>93</ns3:hr>
            <ns3:cad>78</ns3:cad>
          </ns3:TrackPointExtension>
        </extensions>
      </trkpt>
      <trkpt lat="44.71965341828763484954833984375" lon="6.72606482170522212982177734375">
        <ele>2033.4000244140625</ele>
        <time>2026-09-03T05:09:28.000Z</time>
        <extensions>
          <ns3:TrackPointExtension>
            <ns3:hr>93</ns3:hr>
            <ns3:cad>75</ns3:cad>
          </ns3:TrackPointExtension>
        </extensions>
      </trkpt>
      <trkpt lat="44.71964620985090732574462890625" lon="6.7260722815990447998046875">
        <ele>2033.199951171875</ele>
        <time>2026-09-03T05:09:29.000Z</time>
        <extensions>
          <ns3:TrackPointExtension>
            <ns3:hr>93</ns3:hr>
            <ns3:cad>75</ns3:cad>
          </ns3:TrackPointExtension>
        </extensions>
      </trkpt>
      <trkpt lat="44.7196372412145137786865234375" lon="6.7260768078267574310302734375">
        <ele>2032.800048828125</ele>
        <time>2026-09-03T05:09:30.000Z</time>
        <extensions>
          <ns3:TrackPointExtension>
            <ns3:hr>93</ns3:hr>
            <ns3:cad>75</ns3:cad>
          </ns3:TrackPointExtension>
        </extensions>
      </trkpt>
      <trkpt lat="44.7196214832365512847900390625" lon="6.72606783919036388397216796875">
        <ele>2032.5999755859375</ele>
        <time>2026-09-03T05:09:31.000Z</time>
        <extensions>
          <ns3:TrackPointExtension>
            <ns3:hr>92</ns3:hr>
            <ns3:cad>75</ns3:cad>
          </ns3:TrackPointExtension>
        </extensions>
      </trkpt>
      <trkpt lat="44.71961569972336292266845703125" lon="6.72606934793293476104736328125">
        <ele>2032.4000244140625</ele>
        <time>2026-09-03T05:09:32.000Z</time>
        <extensions>
          <ns3:TrackPointExtension>
            <ns3:hr>93</ns3:hr>
            <ns3:cad>75</ns3:cad>
          </ns3:TrackPointExtension>
        </extensions>
      </trkpt>
      <trkpt lat="44.71960580907762050628662109375" lon="6.726073287427425384521484375">
        <ele>2032.199951171875</ele>
        <time>2026-09-03T05:09:33.000Z</time>
        <extensions>
          <ns3:TrackPointExtension>
            <ns3:hr>93</ns3:hr>
            <ns3:cad>75</ns3:cad>
          </ns3:TrackPointExtension>
        </extensions>
      </trkpt>
      <trkpt lat="44.71960178576409816741943359375" lon="6.72606918029487133026123046875">
        <ele>2032</ele>
        <time>2026-09-03T05:09:34.000Z</time>
        <extensions>
          <ns3:TrackPointExtension>
            <ns3:hr>93</ns3:hr>
            <ns3:cad>63</ns3:cad>
          </ns3:TrackPointExtension>
        </extensions>
      </trkpt>
      <trkpt lat="44.71959843300282955169677734375" lon="6.72606767155230045318603515625">
        <ele>2032</ele>
        <time>2026-09-03T05:09:35.000Z</time>
        <extensions>
          <ns3:TrackPointExtension>
            <ns3:hr>93</ns3:hr>
            <ns3:cad>0</ns3:cad>
          </ns3:TrackPointExtension>
        </extensions>
      </trkpt>
      <trkpt lat="44.7195978462696075439453125" lon="6.7260669171810150146484375">
        <ele>2031.800048828125</ele>
        <time>2026-09-03T05:09:36.000Z</time>
        <extensions>
          <ns3:TrackPointExtension>
            <ns3:hr>93</ns3:hr>
            <ns3:cad>0</ns3:cad>
          </ns3:TrackPointExtension>
        </extensions>
      </trkpt>
      <trkpt lat="44.7195993550121784210205078125" lon="6.72606633044779300689697265625">
        <ele>2031.800048828125</ele>
        <time>2026-09-03T05:09:37.000Z</time>
        <extensions>
          <ns3:TrackPointExtension>
            <ns3:hr>92</ns3:hr>
            <ns3:cad>0</ns3:cad>
          </ns3:TrackPointExtension>
        </extensions>
      </trkpt>
      <trkpt lat="44.71960111521184444427490234375" lon="6.7260660789906978607177734375">
        <ele>2031.800048828125</ele>
        <time>2026-09-03T05:09:38.000Z</time>
        <extensions>
          <ns3:TrackPointExtension>
            <ns3:hr>93</ns3:hr>
            <ns3:cad>0</ns3:cad>
          </ns3:TrackPointExtension>
        </extensions>
      </trkpt>
      <trkpt lat="44.71960388123989105224609375" lon="6.72606616280972957611083984375">
        <ele>2031.800048828125</ele>
        <time>2026-09-03T05:09:39.000Z</time>
        <extensions>
          <ns3:TrackPointExtension>
            <ns3:hr>96</ns3:hr>
            <ns3:cad>0</ns3:cad>
          </ns3:TrackPointExtension>
        </extensions>
      </trkpt>
      <trkpt lat="44.71960631199181079864501953125" lon="6.726066581904888153076171875">
        <ele>2031.800048828125</ele>
        <time>2026-09-03T05:09:40.000Z</time>
        <extensions>
          <ns3:TrackPointExtension>
            <ns3:hr>101</ns3:hr>
            <ns3:cad>0</ns3:cad>
          </ns3:TrackPointExtension>
        </extensions>
      </trkpt>
      <trkpt lat="44.7196110896766185760498046875" lon="6.7260650731623172760009765625">
        <ele>2031.800048828125</ele>
        <time>2026-09-03T05:09:41.000Z</time>
        <extensions>
          <ns3:TrackPointExtension>
            <ns3:hr>104</ns3:hr>
            <ns3:cad>0</ns3:cad>
          </ns3:TrackPointExtension>
        </extensions>
      </trkpt>
      <trkpt lat="44.7196112573146820068359375" lon="6.72606549225747585296630859375">
        <ele>2031.800048828125</ele>
        <time>2026-09-03T05:09:42.000Z</time>
        <extensions>
          <ns3:TrackPointExtension>
            <ns3:hr>104</ns3:hr>
            <ns3:cad>0</ns3:cad>
          </ns3:TrackPointExtension>
        </extensions>
      </trkpt>
      <trkpt lat="44.71959977410733699798583984375" lon="6.72606415115296840667724609375">
        <ele>2031.800048828125</ele>
        <time>2026-09-03T05:09:43.000Z</time>
        <extensions>
          <ns3:TrackPointExtension>
            <ns3:hr>104</ns3:hr>
            <ns3:cad>0</ns3:cad>
          </ns3:TrackPointExtension>
        </extensions>
      </trkpt>
      <trkpt lat="44.7195896320044994354248046875" lon="6.726069264113903045654296875">
        <ele>2031.5999755859375</ele>
        <time>2026-09-03T05:09:44.000Z</time>
        <extensions>
          <ns3:TrackPointExtension>
            <ns3:hr>105</ns3:hr>
            <ns3:cad>0</ns3:cad>
          </ns3:TrackPointExtension>
        </extensions>
      </trkpt>
      <trkpt lat="44.7195809148252010345458984375" lon="6.7260695993900299072265625">
        <ele>2031.4000244140625</ele>
        <time>2026-09-03T05:09:45.000Z</time>
        <extensions>
          <ns3:TrackPointExtension>
            <ns3:hr>105</ns3:hr>
            <ns3:cad>0</ns3:cad>
          </ns3:TrackPointExtension>
        </extensions>
      </trkpt>
      <trkpt lat="44.719567000865936279296875" lon="6.726079992949962615966796875">
        <ele>2031.199951171875</ele>
        <time>2026-09-03T05:09:46.000Z</time>
        <extensions>
          <ns3:TrackPointExtension>
            <ns3:hr>105</ns3:hr>
            <ns3:cad>0</ns3:cad>
          </ns3:TrackPointExtension>
        </extensions>
      </trkpt>
      <trkpt lat="44.71955266781151294708251953125" lon="6.726100780069828033447265625">
        <ele>2031</ele>
        <time>2026-09-03T05:09:47.000Z</time>
        <extensions>
          <ns3:TrackPointExtension>
            <ns3:hr>105</ns3:hr>
            <ns3:cad>0</ns3:cad>
          </ns3:TrackPointExtension>
        </extensions>
      </trkpt>
      <trkpt lat="44.719544537365436553955078125" lon="6.7261110059916973114013671875">
        <ele>2030.5999755859375</ele>
        <time>2026-09-03T05:09:48.000Z</time>
        <extensions>
          <ns3:TrackPointExtension>
            <ns3:hr>105</ns3:hr>
            <ns3:cad>0</ns3:cad>
          </ns3:TrackPointExtension>
        </extensions>
      </trkpt>
      <trkpt lat="44.71953104250133037567138671875" lon="6.7261207289993762969970703125">
        <ele>2030.199951171875</ele>
        <time>2026-09-03T05:09:49.000Z</time>
        <extensions>
          <ns3:TrackPointExtension>
            <ns3:hr>105</ns3:hr>
            <ns3:cad>75</ns3:cad>
          </ns3:TrackPointExtension>
        </extensions>
      </trkpt>
      <trkpt lat="44.71952115185558795928955078125" lon="6.72612701542675495147705078125">
        <ele>2029.800048828125</ele>
        <time>2026-09-03T05:09:50.000Z</time>
        <extensions>
          <ns3:TrackPointExtension>
            <ns3:hr>105</ns3:hr>
            <ns3:cad>75</ns3:cad>
          </ns3:TrackPointExtension>
        </extensions>
      </trkpt>
      <trkpt lat="44.71951402723789215087890625" lon="6.72613061964511871337890625">
        <ele>2029.5999755859375</ele>
        <time>2026-09-03T05:09:51.000Z</time>
        <extensions>
          <ns3:TrackPointExtension>
            <ns3:hr>105</ns3:hr>
            <ns3:cad>77</ns3:cad>
          </ns3:TrackPointExtension>
        </extensions>
      </trkpt>
      <trkpt lat="44.71950824372470378875732421875" lon="6.7261341400444507598876953125">
        <ele>2029.199951171875</ele>
        <time>2026-09-03T05:09:52.000Z</time>
        <extensions>
          <ns3:TrackPointExtension>
            <ns3:hr>106</ns3:hr>
            <ns3:cad>77</ns3:cad>
          </ns3:TrackPointExtension>
        </extensions>
      </trkpt>
      <trkpt lat="44.7194974310696125030517578125" lon="6.7261421866714954376220703125">
        <ele>2029</ele>
        <time>2026-09-03T05:09:53.000Z</time>
        <extensions>
          <ns3:TrackPointExtension>
            <ns3:hr>106</ns3:hr>
            <ns3:cad>77</ns3:cad>
          </ns3:TrackPointExtension>
        </extensions>
      </trkpt>
      <trkpt lat="44.71948863007128238677978515625" lon="6.7261579446494579315185546875">
        <ele>2028.800048828125</ele>
        <time>2026-09-03T05:09:54.000Z</time>
        <extensions>
          <ns3:TrackPointExtension>
            <ns3:hr>106</ns3:hr>
            <ns3:cad>77</ns3:cad>
          </ns3:TrackPointExtension>
        </extensions>
      </trkpt>
      <trkpt lat="44.7194763086736202239990234375" lon="6.7261626385152339935302734375">
        <ele>2028.5999755859375</ele>
        <time>2026-09-03T05:09:55.000Z</time>
        <extensions>
          <ns3:TrackPointExtension>
            <ns3:hr>105</ns3:hr>
            <ns3:cad>77</ns3:cad>
          </ns3:TrackPointExtension>
        </extensions>
      </trkpt>
      <trkpt lat="44.719464741647243499755859375" lon="6.7261643148958683013916015625">
        <ele>2028.199951171875</ele>
        <time>2026-09-03T05:09:56.000Z</time>
        <extensions>
          <ns3:TrackPointExtension>
            <ns3:hr>106</ns3:hr>
            <ns3:cad>64</ns3:cad>
          </ns3:TrackPointExtension>
        </extensions>
      </trkpt>
      <trkpt lat="44.7194545157253742218017578125" lon="6.7261715233325958251953125">
        <ele>2028</ele>
        <time>2026-09-03T05:09:57.000Z</time>
        <extensions>
          <ns3:TrackPointExtension>
            <ns3:hr>106</ns3:hr>
            <ns3:cad>64</ns3:cad>
          </ns3:TrackPointExtension>
        </extensions>
      </trkpt>
      <trkpt lat="44.71944051794707775115966796875" lon="6.72617378644645214080810546875">
        <ele>2027.5999755859375</ele>
        <time>2026-09-03T05:09:58.000Z</time>
        <extensions>
          <ns3:TrackPointExtension>
            <ns3:hr>105</ns3:hr>
            <ns3:cad>64</ns3:cad>
          </ns3:TrackPointExtension>
        </extensions>
      </trkpt>
      <trkpt lat="44.7194342315196990966796875" lon="6.72618384473025798797607421875">
        <ele>2027.4000244140625</ele>
        <time>2026-09-03T05:09:59.000Z</time>
        <extensions>
          <ns3:TrackPointExtension>
            <ns3:hr>105</ns3:hr>
            <ns3:cad>64</ns3:cad>
          </ns3:TrackPointExtension>
        </extensions>
      </trkpt>
      <trkpt lat="44.7194256819784641265869140625" lon="6.72619759105145931243896484375">
        <ele>2027</ele>
        <time>2026-09-03T05:10:00.000Z</time>
        <extensions>
          <ns3:TrackPointExtension>
            <ns3:hr>105</ns3:hr>
            <ns3:cad>64</ns3:cad>
          </ns3:TrackPointExtension>
        </extensions>
      </trkpt>
      <trkpt lat="44.71942685544490814208984375" lon="6.726204045116901397705078125">
        <ele>2026.800048828125</ele>
        <time>2026-09-03T05:10:01.000Z</time>
        <extensions>
          <ns3:TrackPointExtension>
            <ns3:hr>106</ns3:hr>
            <ns3:cad>66</ns3:cad>
          </ns3:TrackPointExtension>
        </extensions>
      </trkpt>
      <trkpt lat="44.71940933726727962493896484375" lon="6.726212091743946075439453125">
        <ele>2026.5999755859375</ele>
        <time>2026-09-03T05:10:02.000Z</time>
        <extensions>
          <ns3:TrackPointExtension>
            <ns3:hr>105</ns3:hr>
            <ns3:cad>66</ns3:cad>
          </ns3:TrackPointExtension>
        </extensions>
      </trkpt>
      <trkpt lat="44.71939542330801486968994140625" lon="6.726219467818737030029296875">
        <ele>2026.4000244140625</ele>
        <time>2026-09-03T05:10:03.000Z</time>
        <extensions>
          <ns3:TrackPointExtension>
            <ns3:hr>105</ns3:hr>
            <ns3:cad>66</ns3:cad>
          </ns3:TrackPointExtension>
        </extensions>
      </trkpt>
      <trkpt lat="44.71938285045325756072998046875" lon="6.726228184998035430908203125">
        <ele>2026</ele>
        <time>2026-09-03T05:10:04.000Z</time>
        <extensions>
          <ns3:TrackPointExtension>
            <ns3:hr>105</ns3:hr>
            <ns3:cad>66</ns3:cad>
          </ns3:TrackPointExtension>
        </extensions>
      </trkpt>
      <trkpt lat="44.7193717025220394134521484375" lon="6.7262370698153972625732421875">
        <ele>2025.800048828125</ele>
        <time>2026-09-03T05:10:05.000Z</time>
        <extensions>
          <ns3:TrackPointExtension>
            <ns3:hr>104</ns3:hr>
            <ns3:cad>66</ns3:cad>
          </ns3:TrackPointExtension>
        </extensions>
      </trkpt>
      <trkpt lat="44.71936759538948535919189453125" lon="6.72624603845179080963134765625">
        <ele>2025.4000244140625</ele>
        <time>2026-09-03T05:10:06.000Z</time>
        <extensions>
          <ns3:TrackPointExtension>
            <ns3:hr>103</ns3:hr>
            <ns3:cad>66</ns3:cad>
          </ns3:TrackPointExtension>
        </extensions>
      </trkpt>
      <trkpt lat="44.7193609736859798431396484375" lon="6.72625525854527950286865234375">
        <ele>2025.199951171875</ele>
        <time>2026-09-03T05:10:07.000Z</time>
        <extensions>
          <ns3:TrackPointExtension>
            <ns3:hr>103</ns3:hr>
            <ns3:cad>66</ns3:cad>
          </ns3:TrackPointExtension>
        </extensions>
      </trkpt>
      <trkpt lat="44.7193515859544277191162109375" lon="6.72626632265746593475341796875">
        <ele>2025</ele>
        <time>2026-09-03T05:10:08.000Z</time>
        <extensions>
          <ns3:TrackPointExtension>
            <ns3:hr>102</ns3:hr>
            <ns3:cad>66</ns3:cad>
          </ns3:TrackPointExtension>
        </extensions>
      </trkpt>
      <trkpt lat="44.71934236586093902587890625" lon="6.72627487219870090484619140625">
        <ele>2024.800048828125</ele>
        <time>2026-09-03T05:10:09.000Z</time>
        <extensions>
          <ns3:TrackPointExtension>
            <ns3:hr>102</ns3:hr>
            <ns3:cad>66</ns3:cad>
          </ns3:TrackPointExtension>
        </extensions>
      </trkpt>
      <trkpt lat="44.719331972301006317138671875" lon="6.72628560103476047515869140625">
        <ele>2024.5999755859375</ele>
        <time>2026-09-03T05:10:10.000Z</time>
        <extensions>
          <ns3:TrackPointExtension>
            <ns3:hr>102</ns3:hr>
            <ns3:cad>64</ns3:cad>
          </ns3:TrackPointExtension>
        </extensions>
      </trkpt>
      <trkpt lat="44.71932317130267620086669921875" lon="6.72629549168050289154052734375">
        <ele>2024.4000244140625</ele>
        <time>2026-09-03T05:10:11.000Z</time>
        <extensions>
          <ns3:TrackPointExtension>
            <ns3:hr>101</ns3:hr>
            <ns3:cad>64</ns3:cad>
          </ns3:TrackPointExtension>
        </extensions>
      </trkpt>
      <trkpt lat="44.71931981854140758514404296875" lon="6.72630756162106990814208984375">
        <ele>2024</ele>
        <time>2026-09-03T05:10:12.000Z</time>
        <extensions>
          <ns3:TrackPointExtension>
            <ns3:hr>102</ns3:hr>
            <ns3:cad>64</ns3:cad>
          </ns3:TrackPointExtension>
        </extensions>
      </trkpt>
      <trkpt lat="44.7193177230656147003173828125" lon="6.72631577588617801666259765625">
        <ele>2023.800048828125</ele>
        <time>2026-09-03T05:10:13.000Z</time>
        <extensions>
          <ns3:TrackPointExtension>
            <ns3:hr>102</ns3:hr>
            <ns3:cad>64</ns3:cad>
          </ns3:TrackPointExtension>
        </extensions>
      </trkpt>
      <trkpt lat="44.7193136997520923614501953125" lon="6.72632834874093532562255859375">
        <ele>2023.4000244140625</ele>
        <time>2026-09-03T05:10:14.000Z</time>
        <extensions>
          <ns3:TrackPointExtension>
            <ns3:hr>102</ns3:hr>
            <ns3:cad>64</ns3:cad>
          </ns3:TrackPointExtension>
        </extensions>
      </trkpt>
      <trkpt lat="44.71930741332471370697021484375" lon="6.7263470403850078582763671875">
        <ele>2023.199951171875</ele>
        <time>2026-09-03T05:10:15.000Z</time>
        <extensions>
          <ns3:TrackPointExtension>
            <ns3:hr>101</ns3:hr>
            <ns3:cad>66</ns3:cad>
          </ns3:TrackPointExtension>
        </extensions>
      </trkpt>
      <trkpt lat="44.71930054016411304473876953125" lon="6.72636539675295352935791015625">
        <ele>2022.800048828125</ele>
        <time>2026-09-03T05:10:16.000Z</time>
        <extensions>
          <ns3:TrackPointExtension>
            <ns3:hr>101</ns3:hr>
            <ns3:cad>66</ns3:cad>
          </ns3:TrackPointExtension>
        </extensions>
      </trkpt>
      <trkpt lat="44.7192949242889881134033203125" lon="6.72638065181672573089599609375">
        <ele>2022.5999755859375</ele>
        <time>2026-09-03T05:10:17.000Z</time>
        <extensions>
          <ns3:TrackPointExtension>
            <ns3:hr>101</ns3:hr>
            <ns3:cad>66</ns3:cad>
          </ns3:TrackPointExtension>
        </extensions>
      </trkpt>
      <trkpt lat="44.71928796730935573577880859375" lon="6.72639540396630764007568359375">
        <ele>2022.199951171875</ele>
        <time>2026-09-03T05:10:18.000Z</time>
        <extensions>
          <ns3:TrackPointExtension>
            <ns3:hr>101</ns3:hr>
            <ns3:cad>66</ns3:cad>
          </ns3:TrackPointExtension>
        </extensions>
      </trkpt>
      <trkpt lat="44.71927933394908905029296875" lon="6.72640864737331867218017578125">
        <ele>2022</ele>
        <time>2026-09-03T05:10:19.000Z</time>
        <extensions>
          <ns3:TrackPointExtension>
            <ns3:hr>100</ns3:hr>
            <ns3:cad>66</ns3:cad>
          </ns3:TrackPointExtension>
        </extensions>
      </trkpt>
      <trkpt lat="44.71926785074174404144287109375" lon="6.72641971148550510406494140625">
        <ele>2021.800048828125</ele>
        <time>2026-09-03T05:10:20.000Z</time>
        <extensions>
          <ns3:TrackPointExtension>
            <ns3:hr>100</ns3:hr>
            <ns3:cad>66</ns3:cad>
          </ns3:TrackPointExtension>
        </extensions>
      </trkpt>
      <trkpt lat="44.71925728954374790191650390625" lon="6.72643546946346759796142578125">
        <ele>2021.5999755859375</ele>
        <time>2026-09-03T05:10:21.000Z</time>
        <extensions>
          <ns3:TrackPointExtension>
            <ns3:hr>100</ns3:hr>
            <ns3:cad>66</ns3:cad>
          </ns3:TrackPointExtension>
        </extensions>
      </trkpt>
      <trkpt lat="44.7192464768886566162109375" lon="6.72644536010921001434326171875">
        <ele>2021.4000244140625</ele>
        <time>2026-09-03T05:10:22.000Z</time>
        <extensions>
          <ns3:TrackPointExtension>
            <ns3:hr>99</ns3:hr>
            <ns3:cad>64</ns3:cad>
          </ns3:TrackPointExtension>
        </extensions>
      </trkpt>
      <trkpt lat="44.7192345745861530303955078125" lon="6.72645575366914272308349609375">
        <ele>2021.199951171875</ele>
        <time>2026-09-03T05:10:23.000Z</time>
        <extensions>
          <ns3:TrackPointExtension>
            <ns3:hr>99</ns3:hr>
            <ns3:cad>64</ns3:cad>
          </ns3:TrackPointExtension>
        </extensions>
      </trkpt>
      <trkpt lat="44.7192265279591083526611328125" lon="6.7264590226113796234130859375">
        <ele>2021</ele>
        <time>2026-09-03T05:10:24.000Z</time>
        <extensions>
          <ns3:TrackPointExtension>
            <ns3:hr>99</ns3:hr>
            <ns3:cad>64</ns3:cad>
          </ns3:TrackPointExtension>
        </extensions>
      </trkpt>
      <trkpt lat="44.71921739168465137481689453125" lon="6.72645919024944305419921875">
        <ele>2020.800048828125</ele>
        <time>2026-09-03T05:10:25.000Z</time>
        <extensions>
          <ns3:TrackPointExtension>
            <ns3:hr>99</ns3:hr>
            <ns3:cad>64</ns3:cad>
          </ns3:TrackPointExtension>
        </extensions>
      </trkpt>
      <trkpt lat="44.71920783631503582000732421875" lon="6.7264560051262378692626953125">
        <ele>2020.5999755859375</ele>
        <time>2026-09-03T05:10:26.000Z</time>
        <extensions>
          <ns3:TrackPointExtension>
            <ns3:hr>99</ns3:hr>
            <ns3:cad>64</ns3:cad>
          </ns3:TrackPointExtension>
        </extensions>
      </trkpt>
      <trkpt lat="44.71919953823089599609375" lon="6.7264570109546184539794921875">
        <ele>2020.4000244140625</ele>
        <time>2026-09-03T05:10:27.000Z</time>
        <extensions>
          <ns3:TrackPointExtension>
            <ns3:hr>98</ns3:hr>
            <ns3:cad>64</ns3:cad>
          </ns3:TrackPointExtension>
        </extensions>
      </trkpt>
      <trkpt lat="44.71919073723256587982177734375" lon="6.72646061517298221588134765625">
        <ele>2020</ele>
        <time>2026-09-03T05:10:28.000Z</time>
        <extensions>
          <ns3:TrackPointExtension>
            <ns3:hr>98</ns3:hr>
            <ns3:cad>64</ns3:cad>
          </ns3:TrackPointExtension>
        </extensions>
      </trkpt>
      <trkpt lat="44.7191809304058551788330078125" lon="6.72646447084844112396240234375">
        <ele>2019.800048828125</ele>
        <time>2026-09-03T05:10:29.000Z</time>
        <extensions>
          <ns3:TrackPointExtension>
            <ns3:hr>98</ns3:hr>
            <ns3:cad>64</ns3:cad>
          </ns3:TrackPointExtension>
        </extensions>
      </trkpt>
      <trkpt lat="44.7191738896071910858154296875" lon="6.72646748833358287811279296875">
        <ele>2019.4000244140625</ele>
        <time>2026-09-03T05:10:30.000Z</time>
        <extensions>
          <ns3:TrackPointExtension>
            <ns3:hr>97</ns3:hr>
            <ns3:cad>63</ns3:cad>
          </ns3:TrackPointExtension>
        </extensions>
      </trkpt>
      <trkpt lat="44.71916726790368556976318359375" lon="6.7264710925519466400146484375">
        <ele>2019.199951171875</ele>
        <time>2026-09-03T05:10:31.000Z</time>
        <extensions>
          <ns3:TrackPointExtension>
            <ns3:hr>97</ns3:hr>
            <ns3:cad>63</ns3:cad>
          </ns3:TrackPointExtension>
        </extensions>
      </trkpt>
      <trkpt lat="44.71916441805660724639892578125" lon="6.72647670842707157135009765625">
        <ele>2019</ele>
        <time>2026-09-03T05:10:32.000Z</time>
        <extensions>
          <ns3:TrackPointExtension>
            <ns3:hr>97</ns3:hr>
            <ns3:cad>63</ns3:cad>
          </ns3:TrackPointExtension>
        </extensions>
      </trkpt>
      <trkpt lat="44.71916374750435352325439453125" lon="6.7264828272163867950439453125">
        <ele>2018.800048828125</ele>
        <time>2026-09-03T05:10:33.000Z</time>
        <extensions>
          <ns3:TrackPointExtension>
            <ns3:hr>98</ns3:hr>
            <ns3:cad>63</ns3:cad>
          </ns3:TrackPointExtension>
        </extensions>
      </trkpt>
      <trkpt lat="44.7191604785621166229248046875" lon="6.72648827545344829559326171875">
        <ele>2018.4000244140625</ele>
        <time>2026-09-03T05:10:34.000Z</time>
        <extensions>
          <ns3:TrackPointExtension>
            <ns3:hr>97</ns3:hr>
            <ns3:cad>63</ns3:cad>
          </ns3:TrackPointExtension>
        </extensions>
      </trkpt>
      <trkpt lat="44.71915503032505512237548828125" lon="6.7264952324330806732177734375">
        <ele>2018.199951171875</ele>
        <time>2026-09-03T05:10:35.000Z</time>
        <extensions>
          <ns3:TrackPointExtension>
            <ns3:hr>97</ns3:hr>
            <ns3:cad>63</ns3:cad>
          </ns3:TrackPointExtension>
        </extensions>
      </trkpt>
      <trkpt lat="44.71914849244058132171630859375" lon="6.7265036143362522125244140625">
        <ele>2017.800048828125</ele>
        <time>2026-09-03T05:10:36.000Z</time>
        <extensions>
          <ns3:TrackPointExtension>
            <ns3:hr>97</ns3:hr>
            <ns3:cad>63</ns3:cad>
          </ns3:TrackPointExtension>
        </extensions>
      </trkpt>
      <trkpt lat="44.7191386856138706207275390625" lon="6.72650881111621856689453125">
        <ele>2017.5999755859375</ele>
        <time>2026-09-03T05:10:37.000Z</time>
        <extensions>
          <ns3:TrackPointExtension>
            <ns3:hr>97</ns3:hr>
            <ns3:cad>63</ns3:cad>
          </ns3:TrackPointExtension>
        </extensions>
      </trkpt>
      <trkpt lat="44.71913089044392108917236328125" lon="6.7265133373439311981201171875">
        <ele>2017.4000244140625</ele>
        <time>2026-09-03T05:10:38.000Z</time>
        <extensions>
          <ns3:TrackPointExtension>
            <ns3:hr>98</ns3:hr>
            <ns3:cad>62</ns3:cad>
          </ns3:TrackPointExtension>
        </extensions>
      </trkpt>
      <trkpt lat="44.71912435255944728851318359375" lon="6.72652012668550014495849609375">
        <ele>2017</ele>
        <time>2026-09-03T05:10:39.000Z</time>
        <extensions>
          <ns3:TrackPointExtension>
            <ns3:hr>98</ns3:hr>
            <ns3:cad>62</ns3:cad>
          </ns3:TrackPointExtension>
        </extensions>
      </trkpt>
      <trkpt lat="44.7191199101507663726806640625" lon="6.726526916027069091796875">
        <ele>2016.800048828125</ele>
        <time>2026-09-03T05:10:40.000Z</time>
        <extensions>
          <ns3:TrackPointExtension>
            <ns3:hr>98</ns3:hr>
            <ns3:cad>62</ns3:cad>
          </ns3:TrackPointExtension>
        </extensions>
      </trkpt>
      <trkpt lat="44.71911228261888027191162109375" lon="6.7265347950160503387451171875">
        <ele>2016.5999755859375</ele>
        <time>2026-09-03T05:10:41.000Z</time>
        <extensions>
          <ns3:TrackPointExtension>
            <ns3:hr>98</ns3:hr>
            <ns3:cad>64</ns3:cad>
          </ns3:TrackPointExtension>
        </extensions>
      </trkpt>
      <trkpt lat="44.719103984534740447998046875" lon="6.7265455238521099090576171875">
        <ele>2016.4000244140625</ele>
        <time>2026-09-03T05:10:42.000Z</time>
        <extensions>
          <ns3:TrackPointExtension>
            <ns3:hr>98</ns3:hr>
            <ns3:cad>0</ns3:cad>
          </ns3:TrackPointExtension>
        </extensions>
      </trkpt>
      <trkpt lat="44.71909853629767894744873046875" lon="6.72655298374593257904052734375">
        <ele>2016</ele>
        <time>2026-09-03T05:10:43.000Z</time>
        <extensions>
          <ns3:TrackPointExtension>
            <ns3:hr>98</ns3:hr>
            <ns3:cad>64</ns3:cad>
          </ns3:TrackPointExtension>
        </extensions>
      </trkpt>
      <trkpt lat="44.71909317187964916229248046875" lon="6.7265646345913410186767578125">
        <ele>2015.800048828125</ele>
        <time>2026-09-03T05:10:44.000Z</time>
        <extensions>
          <ns3:TrackPointExtension>
            <ns3:hr>98</ns3:hr>
            <ns3:cad>65</ns3:cad>
          </ns3:TrackPointExtension>
        </extensions>
      </trkpt>
      <trkpt lat="44.7190863825380802154541015625" lon="6.72657360322773456573486328125">
        <ele>2015.5999755859375</ele>
        <time>2026-09-03T05:10:45.000Z</time>
        <extensions>
          <ns3:TrackPointExtension>
            <ns3:hr>97</ns3:hr>
            <ns3:cad>65</ns3:cad>
          </ns3:TrackPointExtension>
        </extensions>
      </trkpt>
      <trkpt lat="44.719076491892337799072265625" lon="6.72658517025411128997802734375">
        <ele>2015.4000244140625</ele>
        <time>2026-09-03T05:10:46.000Z</time>
        <extensions>
          <ns3:TrackPointExtension>
            <ns3:hr>97</ns3:hr>
            <ns3:cad>65</ns3:cad>
          </ns3:TrackPointExtension>
        </extensions>
      </trkpt>
      <trkpt lat="44.7190669365227222442626953125" lon="6.7265911214053630828857421875">
        <ele>2015.199951171875</ele>
        <time>2026-09-03T05:10:47.000Z</time>
        <extensions>
          <ns3:TrackPointExtension>
            <ns3:hr>97</ns3:hr>
            <ns3:cad>65</ns3:cad>
          </ns3:TrackPointExtension>
        </extensions>
      </trkpt>
      <trkpt lat="44.719058386981487274169921875" lon="6.72659908421337604522705078125">
        <ele>2015</ele>
        <time>2026-09-03T05:10:48.000Z</time>
        <extensions>
          <ns3:TrackPointExtension>
            <ns3:hr>97</ns3:hr>
            <ns3:cad>65</ns3:cad>
          </ns3:TrackPointExtension>
        </extensions>
      </trkpt>
      <trkpt lat="44.7190468199551105499267578125" lon="6.726607717573642730712890625">
        <ele>2014.800048828125</ele>
        <time>2026-09-03T05:10:49.000Z</time>
        <extensions>
          <ns3:TrackPointExtension>
            <ns3:hr>97</ns3:hr>
            <ns3:cad>65</ns3:cad>
          </ns3:TrackPointExtension>
        </extensions>
      </trkpt>
      <trkpt lat="44.71903734840452671051025390625" lon="6.7266139201819896697998046875">
        <ele>2014.5999755859375</ele>
        <time>2026-09-03T05:10:50.000Z</time>
        <extensions>
          <ns3:TrackPointExtension>
            <ns3:hr>96</ns3:hr>
            <ns3:cad>65</ns3:cad>
          </ns3:TrackPointExtension>
        </extensions>
      </trkpt>
      <trkpt lat="44.71902586519718170166015625" lon="6.72662238590419292449951171875">
        <ele>2014.4000244140625</ele>
        <time>2026-09-03T05:10:51.000Z</time>
        <extensions>
          <ns3:TrackPointExtension>
            <ns3:hr>96</ns3:hr>
            <ns3:cad>64</ns3:cad>
          </ns3:TrackPointExtension>
        </extensions>
      </trkpt>
      <trkpt lat="44.71901102922856807708740234375" lon="6.72663093544542789459228515625">
        <ele>2014.199951171875</ele>
        <time>2026-09-03T05:10:52.000Z</time>
        <extensions>
          <ns3:TrackPointExtension>
            <ns3:hr>96</ns3:hr>
            <ns3:cad>64</ns3:cad>
          </ns3:TrackPointExtension>
        </extensions>
      </trkpt>
      <trkpt lat="44.7190039046108722686767578125" lon="6.72664158046245574951171875">
        <ele>2013.800048828125</ele>
        <time>2026-09-03T05:10:53.000Z</time>
        <extensions>
          <ns3:TrackPointExtension>
            <ns3:hr>96</ns3:hr>
            <ns3:cad>64</ns3:cad>
          </ns3:TrackPointExtension>
        </extensions>
      </trkpt>
      <trkpt lat="44.71899108029901981353759765625" lon="6.7266615293920040130615234375">
        <ele>2013.5999755859375</ele>
        <time>2026-09-03T05:10:54.000Z</time>
        <extensions>
          <ns3:TrackPointExtension>
            <ns3:hr>96</ns3:hr>
            <ns3:cad>64</ns3:cad>
          </ns3:TrackPointExtension>
        </extensions>
      </trkpt>
      <trkpt lat="44.7189824469387531280517578125" lon="6.72667502425611019134521484375">
        <ele>2013.4000244140625</ele>
        <time>2026-09-03T05:10:55.000Z</time>
        <extensions>
          <ns3:TrackPointExtension>
            <ns3:hr>96</ns3:hr>
            <ns3:cad>64</ns3:cad>
          </ns3:TrackPointExtension>
        </extensions>
      </trkpt>
      <trkpt lat="44.71897247247397899627685546875" lon="6.72668742947280406951904296875">
        <ele>2013</ele>
        <time>2026-09-03T05:10:56.000Z</time>
        <extensions>
          <ns3:TrackPointExtension>
            <ns3:hr>96</ns3:hr>
            <ns3:cad>64</ns3:cad>
          </ns3:TrackPointExtension>
        </extensions>
      </trkpt>
      <trkpt lat="44.71896744333207607269287109375" lon="6.72669262625277042388916015625">
        <ele>2012.800048828125</ele>
        <time>2026-09-03T05:10:57.000Z</time>
        <extensions>
          <ns3:TrackPointExtension>
            <ns3:hr>96</ns3:hr>
            <ns3:cad>64</ns3:cad>
          </ns3:TrackPointExtension>
        </extensions>
      </trkpt>
      <trkpt lat="44.7189648449420928955078125" lon="6.726696230471134185791015625">
        <ele>2012.5999755859375</ele>
        <time>2026-09-03T05:10:58.000Z</time>
        <extensions>
          <ns3:TrackPointExtension>
            <ns3:hr>97</ns3:hr>
            <ns3:cad>0</ns3:cad>
          </ns3:TrackPointExtension>
        </extensions>
      </trkpt>
      <trkpt lat="44.7189603187143802642822265625" lon="6.7267004214227199554443359375">
        <ele>2012.4000244140625</ele>
        <time>2026-09-03T05:10:59.000Z</time>
        <extensions>
          <ns3:TrackPointExtension>
            <ns3:hr>97</ns3:hr>
            <ns3:cad>0</ns3:cad>
          </ns3:TrackPointExtension>
        </extensions>
      </trkpt>
      <trkpt lat="44.718955457210540771484375" lon="6.7267091386020183563232421875">
        <ele>2012</ele>
        <time>2026-09-03T05:11:00.000Z</time>
        <extensions>
          <ns3:TrackPointExtension>
            <ns3:hr>97</ns3:hr>
            <ns3:cad>0</ns3:cad>
          </ns3:TrackPointExtension>
        </extensions>
      </trkpt>
      <trkpt lat="44.7189489193260669708251953125" lon="6.72672514803707599639892578125">
        <ele>2011.800048828125</ele>
        <time>2026-09-03T05:11:01.000Z</time>
        <extensions>
          <ns3:TrackPointExtension>
            <ns3:hr>97</ns3:hr>
            <ns3:cad>0</ns3:cad>
          </ns3:TrackPointExtension>
        </extensions>
      </trkpt>
      <trkpt lat="44.71894942224025726318359375" lon="6.72673487104475498199462890625">
        <ele>2011.4000244140625</ele>
        <time>2026-09-03T05:11:02.000Z</time>
        <extensions>
          <ns3:TrackPointExtension>
            <ns3:hr>97</ns3:hr>
            <ns3:cad>0</ns3:cad>
          </ns3:TrackPointExtension>
        </extensions>
      </trkpt>
      <trkpt lat="44.71894405782222747802734375" lon="6.7267500422894954681396484375">
        <ele>2011.199951171875</ele>
        <time>2026-09-03T05:11:03.000Z</time>
        <extensions>
          <ns3:TrackPointExtension>
            <ns3:hr>97</ns3:hr>
            <ns3:cad>0</ns3:cad>
          </ns3:TrackPointExtension>
        </extensions>
      </trkpt>
      <trkpt lat="44.71893324516713619232177734375" lon="6.72676320187747478485107421875">
        <ele>2011</ele>
        <time>2026-09-03T05:11:04.000Z</time>
        <extensions>
          <ns3:TrackPointExtension>
            <ns3:hr>97</ns3:hr>
            <ns3:cad>0</ns3:cad>
          </ns3:TrackPointExtension>
        </extensions>
      </trkpt>
      <trkpt lat="44.718923270702362060546875" lon="6.72677493654191493988037109375">
        <ele>2010.800048828125</ele>
        <time>2026-09-03T05:11:05.000Z</time>
        <extensions>
          <ns3:TrackPointExtension>
            <ns3:hr>97</ns3:hr>
            <ns3:cad>61</ns3:cad>
          </ns3:TrackPointExtension>
        </extensions>
      </trkpt>
      <trkpt lat="44.718915559351444244384765625" lon="6.72678507864475250244140625">
        <ele>2010.4000244140625</ele>
        <time>2026-09-03T05:11:06.000Z</time>
        <extensions>
          <ns3:TrackPointExtension>
            <ns3:hr>97</ns3:hr>
            <ns3:cad>61</ns3:cad>
          </ns3:TrackPointExtension>
        </extensions>
      </trkpt>
      <trkpt lat="44.7189096920192241668701171875" lon="6.72679622657597064971923828125">
        <ele>2010.199951171875</ele>
        <time>2026-09-03T05:11:07.000Z</time>
        <extensions>
          <ns3:TrackPointExtension>
            <ns3:hr>97</ns3:hr>
            <ns3:cad>61</ns3:cad>
          </ns3:TrackPointExtension>
        </extensions>
      </trkpt>
      <trkpt lat="44.7189090214669704437255859375" lon="6.726802177727222442626953125">
        <ele>2010</ele>
        <time>2026-09-03T05:11:08.000Z</time>
        <extensions>
          <ns3:TrackPointExtension>
            <ns3:hr>98</ns3:hr>
            <ns3:cad>61</ns3:cad>
          </ns3:TrackPointExtension>
        </extensions>
      </trkpt>
      <trkpt lat="44.718925617635250091552734375" lon="6.72679672949016094207763671875">
        <ele>2009.5999755859375</ele>
        <time>2026-09-03T05:11:09.000Z</time>
        <extensions>
          <ns3:TrackPointExtension>
            <ns3:hr>98</ns3:hr>
            <ns3:cad>61</ns3:cad>
          </ns3:TrackPointExtension>
        </extensions>
      </trkpt>
      <trkpt lat="44.71894581802189350128173828125" lon="6.72679245471954345703125">
        <ele>2009.4000244140625</ele>
        <time>2026-09-03T05:11:10.000Z</time>
        <extensions>
          <ns3:TrackPointExtension>
            <ns3:hr>98</ns3:hr>
            <ns3:cad>61</ns3:cad>
          </ns3:TrackPointExtension>
        </extensions>
      </trkpt>
      <trkpt lat="44.71895855851471424102783203125" lon="6.7267875932157039642333984375">
        <ele>2009</ele>
        <time>2026-09-03T05:11:11.000Z</time>
        <extensions>
          <ns3:TrackPointExtension>
            <ns3:hr>99</ns3:hr>
            <ns3:cad>61</ns3:cad>
          </ns3:TrackPointExtension>
        </extensions>
      </trkpt>
      <trkpt lat="44.71896828152239322662353515625" lon="6.7267825640738010406494140625">
        <ele>2008.5999755859375</ele>
        <time>2026-09-03T05:11:12.000Z</time>
        <extensions>
          <ns3:TrackPointExtension>
            <ns3:hr>99</ns3:hr>
            <ns3:cad>65</ns3:cad>
          </ns3:TrackPointExtension>
        </extensions>
      </trkpt>
      <trkpt lat="44.71897800453007221221923828125" lon="6.72677694819867610931396484375">
        <ele>2008.4000244140625</ele>
        <time>2026-09-03T05:11:13.000Z</time>
        <extensions>
          <ns3:TrackPointExtension>
            <ns3:hr>99</ns3:hr>
            <ns3:cad>65</ns3:cad>
          </ns3:TrackPointExtension>
        </extensions>
      </trkpt>
      <trkpt lat="44.71899158321321010589599609375" lon="6.72677493654191493988037109375">
        <ele>2008.199951171875</ele>
        <time>2026-09-03T05:11:14.000Z</time>
        <extensions>
          <ns3:TrackPointExtension>
            <ns3:hr>98</ns3:hr>
            <ns3:cad>65</ns3:cad>
          </ns3:TrackPointExtension>
        </extensions>
      </trkpt>
      <trkpt lat="44.71900440752506256103515625" lon="6.7267725057899951934814453125">
        <ele>2008</ele>
        <time>2026-09-03T05:11:15.000Z</time>
        <extensions>
          <ns3:TrackPointExtension>
            <ns3:hr>98</ns3:hr>
            <ns3:cad>0</ns3:cad>
          </ns3:TrackPointExtension>
        </extensions>
      </trkpt>
      <trkpt lat="44.71901371143758296966552734375" lon="6.72677191905677318572998046875">
        <ele>2007.5999755859375</ele>
        <time>2026-09-03T05:11:16.000Z</time>
        <extensions>
          <ns3:TrackPointExtension>
            <ns3:hr>98</ns3:hr>
            <ns3:cad>0</ns3:cad>
          </ns3:TrackPointExtension>
        </extensions>
      </trkpt>
      <trkpt lat="44.71902276389300823211669921875" lon="6.72676487825810909271240234375">
        <ele>2007.4000244140625</ele>
        <time>2026-09-03T05:11:17.000Z</time>
        <extensions>
          <ns3:TrackPointExtension>
            <ns3:hr>97</ns3:hr>
            <ns3:cad>0</ns3:cad>
          </ns3:TrackPointExtension>
        </extensions>
      </trkpt>
      <trkpt lat="44.7190340794622898101806640625" lon="6.72675968147814273834228515625">
        <ele>2007.199951171875</ele>
        <time>2026-09-03T05:11:18.000Z</time>
        <extensions>
          <ns3:TrackPointExtension>
            <ns3:hr>96</ns3:hr>
            <ns3:cad>0</ns3:cad>
          </ns3:TrackPointExtension>
        </extensions>
      </trkpt>
      <trkpt lat="44.71904723905026912689208984375" lon="6.72676001675426959991455078125">
        <ele>2006.800048828125</ele>
        <time>2026-09-03T05:11:19.000Z</time>
        <extensions>
          <ns3:TrackPointExtension>
            <ns3:hr>95</ns3:hr>
            <ns3:cad>0</ns3:cad>
          </ns3:TrackPointExtension>
        </extensions>
      </trkpt>
      <trkpt lat="44.7190588898956775665283203125" lon="6.72675984911620616912841796875">
        <ele>2006.5999755859375</ele>
        <time>2026-09-03T05:11:20.000Z</time>
        <extensions>
          <ns3:TrackPointExtension>
            <ns3:hr>93</ns3:hr>
            <ns3:cad>0</ns3:cad>
          </ns3:TrackPointExtension>
        </extensions>
      </trkpt>
      <trkpt lat="44.7190682776272296905517578125" lon="6.726757250726222991943359375">
        <ele>2006.199951171875</ele>
        <time>2026-09-03T05:11:21.000Z</time>
        <extensions>
          <ns3:TrackPointExtension>
            <ns3:hr>92</ns3:hr>
            <ns3:cad>0</ns3:cad>
          </ns3:TrackPointExtension>
        </extensions>
      </trkpt>
      <trkpt lat="44.71908143721520900726318359375" lon="6.72675557434558868408203125">
        <ele>2006</ele>
        <time>2026-09-03T05:11:22.000Z</time>
        <extensions>
          <ns3:TrackPointExtension>
            <ns3:hr>91</ns3:hr>
            <ns3:cad>0</ns3:cad>
          </ns3:TrackPointExtension>
        </extensions>
      </trkpt>
      <trkpt lat="44.7190860472619533538818359375" lon="6.72676051966845989227294921875">
        <ele>2005.800048828125</ele>
        <time>2026-09-03T05:11:23.000Z</time>
        <extensions>
          <ns3:TrackPointExtension>
            <ns3:hr>91</ns3:hr>
            <ns3:cad>0</ns3:cad>
          </ns3:TrackPointExtension>
        </extensions>
      </trkpt>
      <trkpt lat="44.71909199841320514678955078125" lon="6.72675515525043010711669921875">
        <ele>2005.5999755859375</ele>
        <time>2026-09-03T05:11:24.000Z</time>
        <extensions>
          <ns3:TrackPointExtension>
            <ns3:hr>91</ns3:hr>
            <ns3:cad>0</ns3:cad>
          </ns3:TrackPointExtension>
        </extensions>
      </trkpt>
      <trkpt lat="44.7191064991056919097900390625" lon="6.72676085494458675384521484375">
        <ele>2005.4000244140625</ele>
        <time>2026-09-03T05:11:25.000Z</time>
        <extensions>
          <ns3:TrackPointExtension>
            <ns3:hr>91</ns3:hr>
            <ns3:cad>0</ns3:cad>
          </ns3:TrackPointExtension>
        </extensions>
      </trkpt>
      <trkpt lat="44.7191292978823184967041015625" lon="6.72676085494458675384521484375">
        <ele>2005</ele>
        <time>2026-09-03T05:11:26.000Z</time>
        <extensions>
          <ns3:TrackPointExtension>
            <ns3:hr>91</ns3:hr>
            <ns3:cad>0</ns3:cad>
          </ns3:TrackPointExtension>
        </extensions>
      </trkpt>
      <trkpt lat="44.71915117464959621429443359375" lon="6.7267557419836521148681640625">
        <ele>2004.5999755859375</ele>
        <time>2026-09-03T05:11:27.000Z</time>
        <extensions>
          <ns3:TrackPointExtension>
            <ns3:hr>92</ns3:hr>
            <ns3:cad>65</ns3:cad>
          </ns3:TrackPointExtension>
        </extensions>
      </trkpt>
      <trkpt lat="44.71917338669300079345703125" lon="6.72675498761236667633056640625">
        <ele>2004.199951171875</ele>
        <time>2026-09-03T05:11:28.000Z</time>
        <extensions>
          <ns3:TrackPointExtension>
            <ns3:hr>92</ns3:hr>
            <ns3:cad>75</ns3:cad>
          </ns3:TrackPointExtension>
        </extensions>
      </trkpt>
      <trkpt lat="44.71919107250869274139404296875" lon="6.72675766982138156890869140625">
        <ele>2004</ele>
        <time>2026-09-03T05:11:29.000Z</time>
        <extensions>
          <ns3:TrackPointExtension>
            <ns3:hr>92</ns3:hr>
            <ns3:cad>75</ns3:cad>
          </ns3:TrackPointExtension>
        </extensions>
      </trkpt>
      <trkpt lat="44.7192074172198772430419921875" lon="6.7267590947449207305908203125">
        <ele>2003.5999755859375</ele>
        <time>2026-09-03T05:11:30.000Z</time>
        <extensions>
          <ns3:TrackPointExtension>
            <ns3:hr>92</ns3:hr>
            <ns3:cad>0</ns3:cad>
          </ns3:TrackPointExtension>
        </extensions>
      </trkpt>
      <trkpt lat="44.71922434866428375244140625" lon="6.72676001675426959991455078125">
        <ele>2003.5999755859375</ele>
        <time>2026-09-03T05:11:31.000Z</time>
        <extensions>
          <ns3:TrackPointExtension>
            <ns3:hr>93</ns3:hr>
            <ns3:cad>0</ns3:cad>
          </ns3:TrackPointExtension>
        </extensions>
      </trkpt>
      <trkpt lat="44.71923884935677051544189453125" lon="6.7267621122300624847412109375">
        <ele>2003.5999755859375</ele>
        <time>2026-09-03T05:11:32.000Z</time>
        <extensions>
          <ns3:TrackPointExtension>
            <ns3:hr>93</ns3:hr>
            <ns3:cad>81</ns3:cad>
          </ns3:TrackPointExtension>
        </extensions>
      </trkpt>
      <trkpt lat="44.7192545235157012939453125" lon="6.7267641238868236541748046875">
        <ele>2003.4000244140625</ele>
        <time>2026-09-03T05:11:33.000Z</time>
        <extensions>
          <ns3:TrackPointExtension>
            <ns3:hr>94</ns3:hr>
            <ns3:cad>81</ns3:cad>
          </ns3:TrackPointExtension>
        </extensions>
      </trkpt>
      <trkpt lat="44.71926852129399776458740234375" lon="6.72675498761236667633056640625">
        <ele>2003.4000244140625</ele>
        <time>2026-09-03T05:11:34.000Z</time>
        <extensions>
          <ns3:TrackPointExtension>
            <ns3:hr>95</ns3:hr>
            <ns3:cad>81</ns3:cad>
          </ns3:TrackPointExtension>
        </extensions>
      </trkpt>
      <trkpt lat="44.71928914077579975128173828125" lon="6.72675800509750843048095703125">
        <ele>2003.199951171875</ele>
        <time>2026-09-03T05:11:35.000Z</time>
        <extensions>
          <ns3:TrackPointExtension>
            <ns3:hr>95</ns3:hr>
            <ns3:cad>81</ns3:cad>
          </ns3:TrackPointExtension>
        </extensions>
      </trkpt>
      <trkpt lat="44.71929936669766902923583984375" lon="6.726768650114536285400390625">
        <ele>2003.199951171875</ele>
        <time>2026-09-03T05:11:36.000Z</time>
        <extensions>
          <ns3:TrackPointExtension>
            <ns3:hr>95</ns3:hr>
            <ns3:cad>79</ns3:cad>
          </ns3:TrackPointExtension>
        </extensions>
      </trkpt>
      <trkpt lat="44.71930774860084056854248046875" lon="6.726762615144252777099609375">
        <ele>2002.800048828125</ele>
        <time>2026-09-03T05:11:37.000Z</time>
        <extensions>
          <ns3:TrackPointExtension>
            <ns3:hr>95</ns3:hr>
            <ns3:cad>79</ns3:cad>
          </ns3:TrackPointExtension>
        </extensions>
      </trkpt>
      <trkpt lat="44.719319902360439300537109375" lon="6.7267562448978424072265625">
        <ele>2002.5999755859375</ele>
        <time>2026-09-03T05:11:38.000Z</time>
        <extensions>
          <ns3:TrackPointExtension>
            <ns3:hr>95</ns3:hr>
            <ns3:cad>79</ns3:cad>
          </ns3:TrackPointExtension>
        </extensions>
      </trkpt>
      <trkpt lat="44.7193341515958309173583984375" lon="6.72675280831754207611083984375">
        <ele>2002.4000244140625</ele>
        <time>2026-09-03T05:11:39.000Z</time>
        <extensions>
          <ns3:TrackPointExtension>
            <ns3:hr>96</ns3:hr>
            <ns3:cad>79</ns3:cad>
          </ns3:TrackPointExtension>
        </extensions>
      </trkpt>
      <trkpt lat="44.719349406659603118896484375" lon="6.726752556860446929931640625">
        <ele>2002.199951171875</ele>
        <time>2026-09-03T05:11:40.000Z</time>
        <extensions>
          <ns3:TrackPointExtension>
            <ns3:hr>96</ns3:hr>
            <ns3:cad>79</ns3:cad>
          </ns3:TrackPointExtension>
        </extensions>
      </trkpt>
      <trkpt lat="44.71936441026628017425537109375" lon="6.7267589271068572998046875">
        <ele>2002</ele>
        <time>2026-09-03T05:11:41.000Z</time>
        <extensions>
          <ns3:TrackPointExtension>
            <ns3:hr>96</ns3:hr>
            <ns3:cad>79</ns3:cad>
          </ns3:TrackPointExtension>
        </extensions>
      </trkpt>
      <trkpt lat="44.7193774022161960601806640625" lon="6.7267604358494281768798828125">
        <ele>2001.800048828125</ele>
        <time>2026-09-03T05:11:42.000Z</time>
        <extensions>
          <ns3:TrackPointExtension>
            <ns3:hr>96</ns3:hr>
            <ns3:cad>79</ns3:cad>
          </ns3:TrackPointExtension>
        </extensions>
      </trkpt>
      <trkpt lat="44.71938662230968475341796875" lon="6.72677166759967803955078125">
        <ele>2001.5999755859375</ele>
        <time>2026-09-03T05:11:43.000Z</time>
        <extensions>
          <ns3:TrackPointExtension>
            <ns3:hr>96</ns3:hr>
            <ns3:cad>0</ns3:cad>
          </ns3:TrackPointExtension>
        </extensions>
      </trkpt>
      <trkpt lat="44.719402380287647247314453125" lon="6.7267668060958385467529296875">
        <ele>2001.4000244140625</ele>
        <time>2026-09-03T05:11:44.000Z</time>
        <extensions>
          <ns3:TrackPointExtension>
            <ns3:hr>95</ns3:hr>
            <ns3:cad>0</ns3:cad>
          </ns3:TrackPointExtension>
        </extensions>
      </trkpt>
      <trkpt lat="44.71940866671502590179443359375" lon="6.72676923684775829315185546875">
        <ele>2001.199951171875</ele>
        <time>2026-09-03T05:11:45.000Z</time>
        <extensions>
          <ns3:TrackPointExtension>
            <ns3:hr>95</ns3:hr>
            <ns3:cad>0</ns3:cad>
          </ns3:TrackPointExtension>
        </extensions>
      </trkpt>
      <trkpt lat="44.7194209881126880645751953125" lon="6.72676806338131427764892578125">
        <ele>2001</ele>
        <time>2026-09-03T05:11:46.000Z</time>
        <extensions>
          <ns3:TrackPointExtension>
            <ns3:hr>94</ns3:hr>
            <ns3:cad>58</ns3:cad>
          </ns3:TrackPointExtension>
        </extensions>
      </trkpt>
      <trkpt lat="44.71942911855876445770263671875" lon="6.7267621122300624847412109375">
        <ele>2000.5999755859375</ele>
        <time>2026-09-03T05:11:47.000Z</time>
        <extensions>
          <ns3:TrackPointExtension>
            <ns3:hr>94</ns3:hr>
            <ns3:cad>59</ns3:cad>
          </ns3:TrackPointExtension>
        </extensions>
      </trkpt>
      <trkpt lat="44.71944018267095088958740234375" lon="6.72675699926912784576416015625">
        <ele>2000.4000244140625</ele>
        <time>2026-09-03T05:11:48.000Z</time>
        <extensions>
          <ns3:TrackPointExtension>
            <ns3:hr>94</ns3:hr>
            <ns3:cad>59</ns3:cad>
          </ns3:TrackPointExtension>
        </extensions>
      </trkpt>
      <trkpt lat="44.71945091150701045989990234375" lon="6.7267560772597789764404296875">
        <ele>2000</ele>
        <time>2026-09-03T05:11:49.000Z</time>
        <extensions>
          <ns3:TrackPointExtension>
            <ns3:hr>94</ns3:hr>
            <ns3:cad>59</ns3:cad>
          </ns3:TrackPointExtension>
        </extensions>
      </trkpt>
      <trkpt lat="44.71946532838046550750732421875" lon="6.72674995847046375274658203125">
        <ele>1999.5999755859375</ele>
        <time>2026-09-03T05:11:50.000Z</time>
        <extensions>
          <ns3:TrackPointExtension>
            <ns3:hr>94</ns3:hr>
            <ns3:cad>59</ns3:cad>
          </ns3:TrackPointExtension>
        </extensions>
      </trkpt>
      <trkpt lat="44.71947857178747653961181640625" lon="6.72674509696662425994873046875">
        <ele>1999.4000244140625</ele>
        <time>2026-09-03T05:11:51.000Z</time>
        <extensions>
          <ns3:TrackPointExtension>
            <ns3:hr>93</ns3:hr>
            <ns3:cad>59</ns3:cad>
          </ns3:TrackPointExtension>
        </extensions>
      </trkpt>
      <trkpt lat="44.719487540423870086669921875" lon="6.7267413251101970672607421875">
        <ele>1999</ele>
        <time>2026-09-03T05:11:52.000Z</time>
        <extensions>
          <ns3:TrackPointExtension>
            <ns3:hr>94</ns3:hr>
            <ns3:cad>59</ns3:cad>
          </ns3:TrackPointExtension>
        </extensions>
      </trkpt>
      <trkpt lat="44.71949650906026363372802734375" lon="6.7267362959682941436767578125">
        <ele>1998.800048828125</ele>
        <time>2026-09-03T05:11:53.000Z</time>
        <extensions>
          <ns3:TrackPointExtension>
            <ns3:hr>94</ns3:hr>
            <ns3:cad>59</ns3:cad>
          </ns3:TrackPointExtension>
        </extensions>
      </trkpt>
      <trkpt lat="44.71950388513505458831787109375" lon="6.7267322726547718048095703125">
        <ele>1998.5999755859375</ele>
        <time>2026-09-03T05:11:54.000Z</time>
        <extensions>
          <ns3:TrackPointExtension>
            <ns3:hr>94</ns3:hr>
            <ns3:cad>0</ns3:cad>
          </ns3:TrackPointExtension>
        </extensions>
      </trkpt>
      <trkpt lat="44.71951243467628955841064453125" lon="6.72672875225543975830078125">
        <ele>1998.199951171875</ele>
        <time>2026-09-03T05:11:55.000Z</time>
        <extensions>
          <ns3:TrackPointExtension>
            <ns3:hr>93</ns3:hr>
            <ns3:cad>0</ns3:cad>
          </ns3:TrackPointExtension>
        </extensions>
      </trkpt>
      <trkpt lat="44.71952014602720737457275390625" lon="6.72672313638031482696533203125">
        <ele>1998</ele>
        <time>2026-09-03T05:11:56.000Z</time>
        <extensions>
          <ns3:TrackPointExtension>
            <ns3:hr>93</ns3:hr>
            <ns3:cad>0</ns3:cad>
          </ns3:TrackPointExtension>
        </extensions>
      </trkpt>
      <trkpt lat="44.71953087486326694488525390625" lon="6.726717688143253326416015625">
        <ele>1997.800048828125</ele>
        <time>2026-09-03T05:11:57.000Z</time>
        <extensions>
          <ns3:TrackPointExtension>
            <ns3:hr>93</ns3:hr>
            <ns3:cad>0</ns3:cad>
          </ns3:TrackPointExtension>
        </extensions>
      </trkpt>
      <trkpt lat="44.71954411827027797698974609375" lon="6.7267077974975109100341796875">
        <ele>1997.5999755859375</ele>
        <time>2026-09-03T05:11:58.000Z</time>
        <extensions>
          <ns3:TrackPointExtension>
            <ns3:hr>93</ns3:hr>
            <ns3:cad>0</ns3:cad>
          </ns3:TrackPointExtension>
        </extensions>
      </trkpt>
      <trkpt lat="44.7195557691156864166259765625" lon="6.72670058906078338623046875">
        <ele>1997.199951171875</ele>
        <time>2026-09-03T05:11:59.000Z</time>
        <extensions>
          <ns3:TrackPointExtension>
            <ns3:hr>93</ns3:hr>
            <ns3:cad>0</ns3:cad>
          </ns3:TrackPointExtension>
        </extensions>
      </trkpt>
      <trkpt lat="44.7195678390562534332275390625" lon="6.72669882886111736297607421875">
        <ele>1997</ele>
        <time>2026-09-03T05:12:00.000Z</time>
        <extensions>
          <ns3:TrackPointExtension>
            <ns3:hr>92</ns3:hr>
            <ns3:cad>0</ns3:cad>
          </ns3:TrackPointExtension>
        </extensions>
      </trkpt>
      <trkpt lat="44.71957705914974212646484375" lon="6.72669413499534130096435546875">
        <ele>1996.800048828125</ele>
        <time>2026-09-03T05:12:01.000Z</time>
        <extensions>
          <ns3:TrackPointExtension>
            <ns3:hr>92</ns3:hr>
            <ns3:cad>0</ns3:cad>
          </ns3:TrackPointExtension>
        </extensions>
      </trkpt>
      <trkpt lat="44.7195909731090068817138671875" lon="6.72671156935393810272216796875">
        <ele>1996.4000244140625</ele>
        <time>2026-09-03T05:12:02.000Z</time>
        <extensions>
          <ns3:TrackPointExtension>
            <ns3:hr>92</ns3:hr>
            <ns3:cad>0</ns3:cad>
          </ns3:TrackPointExtension>
        </extensions>
      </trkpt>
      <trkpt lat="44.7196037136018276214599609375" lon="6.72672263346612453460693359375">
        <ele>1996.199951171875</ele>
        <time>2026-09-03T05:12:03.000Z</time>
        <extensions>
          <ns3:TrackPointExtension>
            <ns3:hr>92</ns3:hr>
            <ns3:cad>0</ns3:cad>
          </ns3:TrackPointExtension>
        </extensions>
      </trkpt>
      <trkpt lat="44.71961997449398040771484375" lon="6.72673068009316921234130859375">
        <ele>1995.800048828125</ele>
        <time>2026-09-03T05:12:04.000Z</time>
        <extensions>
          <ns3:TrackPointExtension>
            <ns3:hr>92</ns3:hr>
            <ns3:cad>0</ns3:cad>
          </ns3:TrackPointExtension>
        </extensions>
      </trkpt>
      <trkpt lat="44.7196231596171855926513671875" lon="6.726730428636074066162109375">
        <ele>1995.4000244140625</ele>
        <time>2026-09-03T05:12:05.000Z</time>
        <extensions>
          <ns3:TrackPointExtension>
            <ns3:hr>92</ns3:hr>
            <ns3:cad>0</ns3:cad>
          </ns3:TrackPointExtension>
        </extensions>
      </trkpt>
      <trkpt lat="44.7196308709681034088134765625" lon="6.72672607004642486572265625">
        <ele>1995</ele>
        <time>2026-09-03T05:12:06.000Z</time>
        <extensions>
          <ns3:TrackPointExtension>
            <ns3:hr>92</ns3:hr>
            <ns3:cad>0</ns3:cad>
          </ns3:TrackPointExtension>
        </extensions>
      </trkpt>
      <trkpt lat="44.71964252181351184844970703125" lon="6.72672866843640804290771484375">
        <ele>1994.5999755859375</ele>
        <time>2026-09-03T05:12:07.000Z</time>
        <extensions>
          <ns3:TrackPointExtension>
            <ns3:hr>91</ns3:hr>
            <ns3:cad>0</ns3:cad>
          </ns3:TrackPointExtension>
        </extensions>
      </trkpt>
      <trkpt lat="44.71964947879314422607421875" lon="6.72673277556896209716796875">
        <ele>1994.4000244140625</ele>
        <time>2026-09-03T05:12:08.000Z</time>
        <extensions>
          <ns3:TrackPointExtension>
            <ns3:hr>91</ns3:hr>
            <ns3:cad>0</ns3:cad>
          </ns3:TrackPointExtension>
        </extensions>
      </trkpt>
      <trkpt lat="44.71965760923922061920166015625" lon="6.726742498576641082763671875">
        <ele>1994</ele>
        <time>2026-09-03T05:12:09.000Z</time>
        <extensions>
          <ns3:TrackPointExtension>
            <ns3:hr>91</ns3:hr>
            <ns3:cad>74</ns3:cad>
          </ns3:TrackPointExtension>
        </extensions>
      </trkpt>
      <trkpt lat="44.7196654044091701507568359375" lon="6.72674979083240032196044921875">
        <ele>1993.800048828125</ele>
        <time>2026-09-03T05:12:10.000Z</time>
        <extensions>
          <ns3:TrackPointExtension>
            <ns3:hr>90</ns3:hr>
            <ns3:cad>74</ns3:cad>
          </ns3:TrackPointExtension>
        </extensions>
      </trkpt>
      <trkpt lat="44.719675965607166290283203125" lon="6.7267547361552715301513671875">
        <ele>1993.4000244140625</ele>
        <time>2026-09-03T05:12:11.000Z</time>
        <extensions>
          <ns3:TrackPointExtension>
            <ns3:hr>89</ns3:hr>
            <ns3:cad>74</ns3:cad>
          </ns3:TrackPointExtension>
        </extensions>
      </trkpt>
      <trkpt lat="44.7196861915290355682373046875" lon="6.7267567478120326995849609375">
        <ele>1993.199951171875</ele>
        <time>2026-09-03T05:12:12.000Z</time>
        <extensions>
          <ns3:TrackPointExtension>
            <ns3:hr>89</ns3:hr>
            <ns3:cad>74</ns3:cad>
          </ns3:TrackPointExtension>
        </extensions>
      </trkpt>
      <trkpt lat="44.7196979261934757232666015625" lon="6.7267570830881595611572265625">
        <ele>1992.800048828125</ele>
        <time>2026-09-03T05:12:13.000Z</time>
        <extensions>
          <ns3:TrackPointExtension>
            <ns3:hr>88</ns3:hr>
            <ns3:cad>74</ns3:cad>
          </ns3:TrackPointExtension>
        </extensions>
      </trkpt>
      <trkpt lat="44.71971242688596248626708984375" lon="6.72675616107881069183349609375">
        <ele>1992.5999755859375</ele>
        <time>2026-09-03T05:12:14.000Z</time>
        <extensions>
          <ns3:TrackPointExtension>
            <ns3:hr>88</ns3:hr>
            <ns3:cad>74</ns3:cad>
          </ns3:TrackPointExtension>
        </extensions>
      </trkpt>
      <trkpt lat="44.71971745602786540985107421875" lon="6.72674559988081455230712890625">
        <ele>1992.199951171875</ele>
        <time>2026-09-03T05:12:15.000Z</time>
        <extensions>
          <ns3:TrackPointExtension>
            <ns3:hr>88</ns3:hr>
            <ns3:cad>74</ns3:cad>
          </ns3:TrackPointExtension>
        </extensions>
      </trkpt>
      <trkpt lat="44.71972214989364147186279296875" lon="6.7267376370728015899658203125">
        <ele>1992</ele>
        <time>2026-09-03T05:12:16.000Z</time>
        <extensions>
          <ns3:TrackPointExtension>
            <ns3:hr>88</ns3:hr>
            <ns3:cad>74</ns3:cad>
          </ns3:TrackPointExtension>
        </extensions>
      </trkpt>
      <trkpt lat="44.719734303653240203857421875" lon="6.72673453576862812042236328125">
        <ele>1991.5999755859375</ele>
        <time>2026-09-03T05:12:17.000Z</time>
        <extensions>
          <ns3:TrackPointExtension>
            <ns3:hr>88</ns3:hr>
            <ns3:cad>74</ns3:cad>
          </ns3:TrackPointExtension>
        </extensions>
      </trkpt>
      <trkpt lat="44.71974830143153667449951171875" lon="6.72672447748482227325439453125">
        <ele>1991.4000244140625</ele>
        <time>2026-09-03T05:12:18.000Z</time>
        <extensions>
          <ns3:TrackPointExtension>
            <ns3:hr>88</ns3:hr>
            <ns3:cad>74</ns3:cad>
          </ns3:TrackPointExtension>
        </extensions>
      </trkpt>
      <trkpt lat="44.71976079046726226806640625" lon="6.72672028653323650360107421875">
        <ele>1991.199951171875</ele>
        <time>2026-09-03T05:12:19.000Z</time>
        <extensions>
          <ns3:TrackPointExtension>
            <ns3:hr>89</ns3:hr>
            <ns3:cad>74</ns3:cad>
          </ns3:TrackPointExtension>
        </extensions>
      </trkpt>
      <trkpt lat="44.71977445296943187713623046875" lon="6.7267242260277271270751953125">
        <ele>1990.800048828125</ele>
        <time>2026-09-03T05:12:20.000Z</time>
        <extensions>
          <ns3:TrackPointExtension>
            <ns3:hr>89</ns3:hr>
            <ns3:cad>74</ns3:cad>
          </ns3:TrackPointExtension>
        </extensions>
      </trkpt>
      <trkpt lat="44.71979071386158466339111328125" lon="6.72672229818999767303466796875">
        <ele>1990.5999755859375</ele>
        <time>2026-09-03T05:12:21.000Z</time>
        <extensions>
          <ns3:TrackPointExtension>
            <ns3:hr>89</ns3:hr>
            <ns3:cad>74</ns3:cad>
          </ns3:TrackPointExtension>
        </extensions>
      </trkpt>
      <trkpt lat="44.719797335565090179443359375" lon="6.72671735286712646484375">
        <ele>1990.199951171875</ele>
        <time>2026-09-03T05:12:22.000Z</time>
        <extensions>
          <ns3:TrackPointExtension>
            <ns3:hr>89</ns3:hr>
            <ns3:cad>74</ns3:cad>
          </ns3:TrackPointExtension>
        </extensions>
      </trkpt>
      <trkpt lat="44.7198021970689296722412109375" lon="6.72671391628682613372802734375">
        <ele>1990</ele>
        <time>2026-09-03T05:12:23.000Z</time>
        <extensions>
          <ns3:TrackPointExtension>
            <ns3:hr>89</ns3:hr>
            <ns3:cad>74</ns3:cad>
          </ns3:TrackPointExtension>
        </extensions>
      </trkpt>
      <trkpt lat="44.7198151051998138427734375" lon="6.72671592794358730316162109375">
        <ele>1989.5999755859375</ele>
        <time>2026-09-03T05:12:24.000Z</time>
        <extensions>
          <ns3:TrackPointExtension>
            <ns3:hr>89</ns3:hr>
            <ns3:cad>74</ns3:cad>
          </ns3:TrackPointExtension>
        </extensions>
      </trkpt>
      <trkpt lat="44.7198333777487277984619140625" lon="6.726715676486492156982421875">
        <ele>1989.4000244140625</ele>
        <time>2026-09-03T05:12:25.000Z</time>
        <extensions>
          <ns3:TrackPointExtension>
            <ns3:hr>88</ns3:hr>
            <ns3:cad>62</ns3:cad>
          </ns3:TrackPointExtension>
        </extensions>
      </trkpt>
      <trkpt lat="44.71985399723052978515625" lon="6.72672145999968051910400390625">
        <ele>1989</ele>
        <time>2026-09-03T05:12:26.000Z</time>
        <extensions>
          <ns3:TrackPointExtension>
            <ns3:hr>88</ns3:hr>
            <ns3:cad>62</ns3:cad>
          </ns3:TrackPointExtension>
        </extensions>
      </trkpt>
      <trkpt lat="44.719875119626522064208984375" lon="6.72672229818999767303466796875">
        <ele>1988.800048828125</ele>
        <time>2026-09-03T05:12:27.000Z</time>
        <extensions>
          <ns3:TrackPointExtension>
            <ns3:hr>87</ns3:hr>
            <ns3:cad>62</ns3:cad>
          </ns3:TrackPointExtension>
        </extensions>
      </trkpt>
      <trkpt lat="44.71990454010665416717529296875" lon="6.72673637978732585906982421875">
        <ele>1988.199951171875</ele>
        <time>2026-09-03T05:12:28.000Z</time>
        <extensions>
          <ns3:TrackPointExtension>
            <ns3:hr>87</ns3:hr>
            <ns3:cad>80</ns3:cad>
          </ns3:TrackPointExtension>
        </extensions>
      </trkpt>
      <trkpt lat="44.719915688037872314453125" lon="6.72674886882305145263671875">
        <ele>1987.800048828125</ele>
        <time>2026-09-03T05:12:29.000Z</time>
        <extensions>
          <ns3:TrackPointExtension>
            <ns3:hr>87</ns3:hr>
            <ns3:cad>80</ns3:cad>
          </ns3:TrackPointExtension>
        </extensions>
      </trkpt>
      <trkpt lat="44.719931446015834808349609375" lon="6.72675549052655696868896484375">
        <ele>1987.4000244140625</ele>
        <time>2026-09-03T05:12:30.000Z</time>
        <extensions>
          <ns3:TrackPointExtension>
            <ns3:hr>87</ns3:hr>
            <ns3:cad>80</ns3:cad>
          </ns3:TrackPointExtension>
        </extensions>
      </trkpt>
      <trkpt lat="44.7199518978595733642578125" lon="6.72677057795226573944091796875">
        <ele>1987.199951171875</ele>
        <time>2026-09-03T05:12:31.000Z</time>
        <extensions>
          <ns3:TrackPointExtension>
            <ns3:hr>88</ns3:hr>
            <ns3:cad>80</ns3:cad>
          </ns3:TrackPointExtension>
        </extensions>
      </trkpt>
      <trkpt lat="44.71996271051466464996337890625" lon="6.72678465954959392547607421875">
        <ele>1987</ele>
        <time>2026-09-03T05:12:32.000Z</time>
        <extensions>
          <ns3:TrackPointExtension>
            <ns3:hr>88</ns3:hr>
            <ns3:cad>80</ns3:cad>
          </ns3:TrackPointExtension>
        </extensions>
      </trkpt>
      <trkpt lat="44.71997276879847049713134765625" lon="6.72679773531854152679443359375">
        <ele>1986.800048828125</ele>
        <time>2026-09-03T05:12:33.000Z</time>
        <extensions>
          <ns3:TrackPointExtension>
            <ns3:hr>89</ns3:hr>
            <ns3:cad>80</ns3:cad>
          </ns3:TrackPointExtension>
        </extensions>
      </trkpt>
      <trkpt lat="44.71997830085456371307373046875" lon="6.72681651078164577484130859375">
        <ele>1986.800048828125</ele>
        <time>2026-09-03T05:12:34.000Z</time>
        <extensions>
          <ns3:TrackPointExtension>
            <ns3:hr>90</ns3:hr>
            <ns3:cad>80</ns3:cad>
          </ns3:TrackPointExtension>
        </extensions>
      </trkpt>
      <trkpt lat="44.7199829109013080596923828125" lon="6.72684408724308013916015625">
        <ele>1986.5999755859375</ele>
        <time>2026-09-03T05:12:35.000Z</time>
        <extensions>
          <ns3:TrackPointExtension>
            <ns3:hr>90</ns3:hr>
            <ns3:cad>80</ns3:cad>
          </ns3:TrackPointExtension>
        </extensions>
      </trkpt>
      <trkpt lat="44.7199892811477184295654296875" lon="6.72685875557363033294677734375">
        <ele>1986.4000244140625</ele>
        <time>2026-09-03T05:12:36.000Z</time>
        <extensions>
          <ns3:TrackPointExtension>
            <ns3:hr>91</ns3:hr>
            <ns3:cad>80</ns3:cad>
          </ns3:TrackPointExtension>
        </extensions>
      </trkpt>
      <trkpt lat="44.71999422647058963775634765625" lon="6.7268633656203746795654296875">
        <ele>1986.199951171875</ele>
        <time>2026-09-03T05:12:37.000Z</time>
        <extensions>
          <ns3:TrackPointExtension>
            <ns3:hr>91</ns3:hr>
            <ns3:cad>80</ns3:cad>
          </ns3:TrackPointExtension>
        </extensions>
      </trkpt>
      <trkpt lat="44.7199983336031436920166015625" lon="6.72686613164842128753662109375">
        <ele>1986</ele>
        <time>2026-09-03T05:12:38.000Z</time>
        <extensions>
          <ns3:TrackPointExtension>
            <ns3:hr>91</ns3:hr>
            <ns3:cad>80</ns3:cad>
          </ns3:TrackPointExtension>
        </extensions>
      </trkpt>
      <trkpt lat="44.72000428475439548492431640625" lon="6.72687359154224395751953125">
        <ele>1985.800048828125</ele>
        <time>2026-09-03T05:12:39.000Z</time>
        <extensions>
          <ns3:TrackPointExtension>
            <ns3:hr>91</ns3:hr>
            <ns3:cad>74</ns3:cad>
          </ns3:TrackPointExtension>
        </extensions>
      </trkpt>
      <trkpt lat="44.72001484595239162445068359375" lon="6.72688901424407958984375">
        <ele>1985.4000244140625</ele>
        <time>2026-09-03T05:12:40.000Z</time>
        <extensions>
          <ns3:TrackPointExtension>
            <ns3:hr>91</ns3:hr>
            <ns3:cad>72</ns3:cad>
          </ns3:TrackPointExtension>
        </extensions>
      </trkpt>
      <trkpt lat="44.72002591006457805633544921875" lon="6.72690150327980518341064453125">
        <ele>1985</ele>
        <time>2026-09-03T05:12:41.000Z</time>
        <extensions>
          <ns3:TrackPointExtension>
            <ns3:hr>91</ns3:hr>
            <ns3:cad>71</ns3:cad>
          </ns3:TrackPointExtension>
        </extensions>
      </trkpt>
      <trkpt lat="44.72003831528127193450927734375" lon="6.72690586186945438385009765625">
        <ele>1984.5999755859375</ele>
        <time>2026-09-03T05:12:42.000Z</time>
        <extensions>
          <ns3:TrackPointExtension>
            <ns3:hr>92</ns3:hr>
            <ns3:cad>71</ns3:cad>
          </ns3:TrackPointExtension>
        </extensions>
      </trkpt>
      <trkpt lat="44.72004803828895092010498046875" lon="6.72691139392554759979248046875">
        <ele>1984.199951171875</ele>
        <time>2026-09-03T05:12:43.000Z</time>
        <extensions>
          <ns3:TrackPointExtension>
            <ns3:hr>92</ns3:hr>
            <ns3:cad>71</ns3:cad>
          </ns3:TrackPointExtension>
        </extensions>
      </trkpt>
      <trkpt lat="44.72006061114370822906494140625" lon="6.7269183509051799774169921875">
        <ele>1983.5999755859375</ele>
        <time>2026-09-03T05:12:44.000Z</time>
        <extensions>
          <ns3:TrackPointExtension>
            <ns3:hr>92</ns3:hr>
            <ns3:cad>71</ns3:cad>
          </ns3:TrackPointExtension>
        </extensions>
      </trkpt>
      <trkpt lat="44.7200724296271800994873046875" lon="6.7269265651702880859375">
        <ele>1983.199951171875</ele>
        <time>2026-09-03T05:12:45.000Z</time>
        <extensions>
          <ns3:TrackPointExtension>
            <ns3:hr>92</ns3:hr>
            <ns3:cad>71</ns3:cad>
          </ns3:TrackPointExtension>
        </extensions>
      </trkpt>
      <trkpt lat="44.7200885228812694549560546875" lon="6.7269361205399036407470703125">
        <ele>1982.800048828125</ele>
        <time>2026-09-03T05:12:46.000Z</time>
        <extensions>
          <ns3:TrackPointExtension>
            <ns3:hr>92</ns3:hr>
            <ns3:cad>71</ns3:cad>
          </ns3:TrackPointExtension>
        </extensions>
      </trkpt>
      <trkpt lat="44.72010386176407337188720703125" lon="6.72694793902337551116943359375">
        <ele>1982.4000244140625</ele>
        <time>2026-09-03T05:12:47.000Z</time>
        <extensions>
          <ns3:TrackPointExtension>
            <ns3:hr>92</ns3:hr>
            <ns3:cad>65</ns3:cad>
          </ns3:TrackPointExtension>
        </extensions>
      </trkpt>
      <trkpt lat="44.72011609934270381927490234375" lon="6.7269565723836421966552734375">
        <ele>1982</ele>
        <time>2026-09-03T05:12:48.000Z</time>
        <extensions>
          <ns3:TrackPointExtension>
            <ns3:hr>92</ns3:hr>
            <ns3:cad>65</ns3:cad>
          </ns3:TrackPointExtension>
        </extensions>
      </trkpt>
      <trkpt lat="44.72012749873101711273193359375" lon="6.7269669659435749053955078125">
        <ele>1981.800048828125</ele>
        <time>2026-09-03T05:12:49.000Z</time>
        <extensions>
          <ns3:TrackPointExtension>
            <ns3:hr>91</ns3:hr>
            <ns3:cad>65</ns3:cad>
          </ns3:TrackPointExtension>
        </extensions>
      </trkpt>
      <trkpt lat="44.720137305557727813720703125" lon="6.72698163427412509918212890625">
        <ele>1981.5999755859375</ele>
        <time>2026-09-03T05:12:50.000Z</time>
        <extensions>
          <ns3:TrackPointExtension>
            <ns3:hr>91</ns3:hr>
            <ns3:cad>0</ns3:cad>
          </ns3:TrackPointExtension>
        </extensions>
      </trkpt>
      <trkpt lat="44.72014543600380420684814453125" lon="6.72699471004307270050048828125">
        <ele>1981.4000244140625</ele>
        <time>2026-09-03T05:12:51.000Z</time>
        <extensions>
          <ns3:TrackPointExtension>
            <ns3:hr>90</ns3:hr>
            <ns3:cad>0</ns3:cad>
          </ns3:TrackPointExtension>
        </extensions>
      </trkpt>
      <trkpt lat="44.7201488725841045379638671875" lon="6.72700677998363971710205078125">
        <ele>1981.4000244140625</ele>
        <time>2026-09-03T05:12:52.000Z</time>
        <extensions>
          <ns3:TrackPointExtension>
            <ns3:hr>90</ns3:hr>
            <ns3:cad>0</ns3:cad>
          </ns3:TrackPointExtension>
        </extensions>
      </trkpt>
      <trkpt lat="44.72015239298343658447265625" lon="6.72701918520033359527587890625">
        <ele>1981.199951171875</ele>
        <time>2026-09-03T05:12:53.000Z</time>
        <extensions>
          <ns3:TrackPointExtension>
            <ns3:hr>90</ns3:hr>
            <ns3:cad>0</ns3:cad>
          </ns3:TrackPointExtension>
        </extensions>
      </trkpt>
      <trkpt lat="44.72015616483986377716064453125" lon="6.72702773474156856536865234375">
        <ele>1981.199951171875</ele>
        <time>2026-09-03T05:12:54.000Z</time>
        <extensions>
          <ns3:TrackPointExtension>
            <ns3:hr>89</ns3:hr>
            <ns3:cad>0</ns3:cad>
          </ns3:TrackPointExtension>
        </extensions>
      </trkpt>
      <trkpt lat="44.72015549428761005401611328125" lon="6.7270370386540889739990234375">
        <ele>1981</ele>
        <time>2026-09-03T05:12:55.000Z</time>
        <extensions>
          <ns3:TrackPointExtension>
            <ns3:hr>89</ns3:hr>
            <ns3:cad>15</ns3:cad>
          </ns3:TrackPointExtension>
        </extensions>
      </trkpt>
      <trkpt lat="44.72015365026891231536865234375" lon="6.72705338336527347564697265625">
        <ele>1980.800048828125</ele>
        <time>2026-09-03T05:12:56.000Z</time>
        <extensions>
          <ns3:TrackPointExtension>
            <ns3:hr>89</ns3:hr>
            <ns3:cad>61</ns3:cad>
          </ns3:TrackPointExtension>
        </extensions>
      </trkpt>
      <trkpt lat="44.72015105187892913818359375" lon="6.727068722248077392578125">
        <ele>1980.4000244140625</ele>
        <time>2026-09-03T05:12:57.000Z</time>
        <extensions>
          <ns3:TrackPointExtension>
            <ns3:hr>89</ns3:hr>
            <ns3:cad>61</ns3:cad>
          </ns3:TrackPointExtension>
        </extensions>
      </trkpt>
      <trkpt lat="44.72014434635639190673828125" lon="6.72707987017929553985595703125">
        <ele>1980.199951171875</ele>
        <time>2026-09-03T05:12:58.000Z</time>
        <extensions>
          <ns3:TrackPointExtension>
            <ns3:hr>89</ns3:hr>
            <ns3:cad>61</ns3:cad>
          </ns3:TrackPointExtension>
        </extensions>
      </trkpt>
      <trkpt lat="44.72013386897742748260498046875" lon="6.7270886711776256561279296875">
        <ele>1979.800048828125</ele>
        <time>2026-09-03T05:12:59.000Z</time>
        <extensions>
          <ns3:TrackPointExtension>
            <ns3:hr>89</ns3:hr>
            <ns3:cad>61</ns3:cad>
          </ns3:TrackPointExtension>
        </extensions>
      </trkpt>
      <trkpt lat="44.72012766636908054351806640625" lon="6.7271004058420658111572265625">
        <ele>1979.5999755859375</ele>
        <time>2026-09-03T05:13:00.000Z</time>
        <extensions>
          <ns3:TrackPointExtension>
            <ns3:hr>89</ns3:hr>
            <ns3:cad>61</ns3:cad>
          </ns3:TrackPointExtension>
        </extensions>
      </trkpt>
      <trkpt lat="44.72012196667492389678955078125" lon="6.72711390070617198944091796875">
        <ele>1979.4000244140625</ele>
        <time>2026-09-03T05:13:01.000Z</time>
        <extensions>
          <ns3:TrackPointExtension>
            <ns3:hr>89</ns3:hr>
            <ns3:cad>61</ns3:cad>
          </ns3:TrackPointExtension>
        </extensions>
      </trkpt>
      <trkpt lat="44.72012029029428958892822265625" lon="6.72712169587612152099609375">
        <ele>1979.199951171875</ele>
        <time>2026-09-03T05:13:02.000Z</time>
        <extensions>
          <ns3:TrackPointExtension>
            <ns3:hr>89</ns3:hr>
            <ns3:cad>0</ns3:cad>
          </ns3:TrackPointExtension>
        </extensions>
      </trkpt>
      <trkpt lat="44.7201190330088138580322265625" lon="6.7271317541599273681640625">
        <ele>1979</ele>
        <time>2026-09-03T05:13:03.000Z</time>
        <extensions>
          <ns3:TrackPointExtension>
            <ns3:hr>88</ns3:hr>
            <ns3:cad>0</ns3:cad>
          </ns3:TrackPointExtension>
        </extensions>
      </trkpt>
      <trkpt lat="44.72011559642851352691650390625" lon="6.72714659012854099273681640625">
        <ele>1978.800048828125</ele>
        <time>2026-09-03T05:13:04.000Z</time>
        <extensions>
          <ns3:TrackPointExtension>
            <ns3:hr>88</ns3:hr>
            <ns3:cad>0</ns3:cad>
          </ns3:TrackPointExtension>
        </extensions>
      </trkpt>
      <trkpt lat="44.7201123274862766265869140625" lon="6.72716184519231319427490234375">
        <ele>1978.5999755859375</ele>
        <time>2026-09-03T05:13:05.000Z</time>
        <extensions>
          <ns3:TrackPointExtension>
            <ns3:hr>88</ns3:hr>
            <ns3:cad>65</ns3:cad>
          </ns3:TrackPointExtension>
        </extensions>
      </trkpt>
      <trkpt lat="44.7201109863817691802978515625" lon="6.72717710025608539581298828125">
        <ele>1978.199951171875</ele>
        <time>2026-09-03T05:13:06.000Z</time>
        <extensions>
          <ns3:TrackPointExtension>
            <ns3:hr>88</ns3:hr>
            <ns3:cad>66</ns3:cad>
          </ns3:TrackPointExtension>
        </extensions>
      </trkpt>
      <trkpt lat="44.72011107020080089569091796875" lon="6.72719101421535015106201171875">
        <ele>1978</ele>
        <time>2026-09-03T05:13:07.000Z</time>
        <extensions>
          <ns3:TrackPointExtension>
            <ns3:hr>88</ns3:hr>
            <ns3:cad>69</ns3:cad>
          </ns3:TrackPointExtension>
        </extensions>
      </trkpt>
      <trkpt lat="44.720111154019832611083984375" lon="6.72720610164105892181396484375">
        <ele>1977.5999755859375</ele>
        <time>2026-09-03T05:13:08.000Z</time>
        <extensions>
          <ns3:TrackPointExtension>
            <ns3:hr>88</ns3:hr>
            <ns3:cad>69</ns3:cad>
          </ns3:TrackPointExtension>
        </extensions>
      </trkpt>
      <trkpt lat="44.7201153449714183807373046875" lon="6.7272149026393890380859375">
        <ele>1977.199951171875</ele>
        <time>2026-09-03T05:13:09.000Z</time>
        <extensions>
          <ns3:TrackPointExtension>
            <ns3:hr>88</ns3:hr>
            <ns3:cad>0</ns3:cad>
          </ns3:TrackPointExtension>
        </extensions>
      </trkpt>
      <trkpt lat="44.720118530094623565673828125" lon="6.7272261343896389007568359375">
        <ele>1977</ele>
        <time>2026-09-03T05:13:10.000Z</time>
        <extensions>
          <ns3:TrackPointExtension>
            <ns3:hr>87</ns3:hr>
            <ns3:cad>0</ns3:cad>
          </ns3:TrackPointExtension>
        </extensions>
      </trkpt>
      <trkpt lat="44.7201208770275115966796875" lon="6.7272368632256984710693359375">
        <ele>1976.800048828125</ele>
        <time>2026-09-03T05:13:11.000Z</time>
        <extensions>
          <ns3:TrackPointExtension>
            <ns3:hr>87</ns3:hr>
            <ns3:cad>0</ns3:cad>
          </ns3:TrackPointExtension>
        </extensions>
      </trkpt>
      <trkpt lat="44.72012221813201904296875" lon="6.72725236974656581878662109375">
        <ele>1976.5999755859375</ele>
        <time>2026-09-03T05:13:12.000Z</time>
        <extensions>
          <ns3:TrackPointExtension>
            <ns3:hr>87</ns3:hr>
            <ns3:cad>0</ns3:cad>
          </ns3:TrackPointExtension>
        </extensions>
      </trkpt>
      <trkpt lat="44.72012263722717761993408203125" lon="6.72726611606776714324951171875">
        <ele>1976.4000244140625</ele>
        <time>2026-09-03T05:13:13.000Z</time>
        <extensions>
          <ns3:TrackPointExtension>
            <ns3:hr>88</ns3:hr>
            <ns3:cad>0</ns3:cad>
          </ns3:TrackPointExtension>
        </extensions>
      </trkpt>
      <trkpt lat="44.72012565471231937408447265625" lon="6.72727835364639759063720703125">
        <ele>1976.199951171875</ele>
        <time>2026-09-03T05:13:14.000Z</time>
        <extensions>
          <ns3:TrackPointExtension>
            <ns3:hr>88</ns3:hr>
            <ns3:cad>0</ns3:cad>
          </ns3:TrackPointExtension>
        </extensions>
      </trkpt>
      <trkpt lat="44.720127247273921966552734375" lon="6.72729159705340862274169921875">
        <ele>1976.199951171875</ele>
        <time>2026-09-03T05:13:15.000Z</time>
        <extensions>
          <ns3:TrackPointExtension>
            <ns3:hr>89</ns3:hr>
            <ns3:cad>0</ns3:cad>
          </ns3:TrackPointExtension>
        </extensions>
      </trkpt>
      <trkpt lat="44.7201290912926197052001953125" lon="6.72729981131851673126220703125">
        <ele>1976</ele>
        <time>2026-09-03T05:13:16.000Z</time>
        <extensions>
          <ns3:TrackPointExtension>
            <ns3:hr>89</ns3:hr>
            <ns3:cad>0</ns3:cad>
          </ns3:TrackPointExtension>
        </extensions>
      </trkpt>
      <trkpt lat="44.72013319842517375946044921875" lon="6.7273163236677646636962890625">
        <ele>1975.800048828125</ele>
        <time>2026-09-03T05:13:17.000Z</time>
        <extensions>
          <ns3:TrackPointExtension>
            <ns3:hr>89</ns3:hr>
            <ns3:cad>0</ns3:cad>
          </ns3:TrackPointExtension>
        </extensions>
      </trkpt>
      <trkpt lat="44.72012850455939769744873046875" lon="6.727344989776611328125">
        <ele>1975.4000244140625</ele>
        <time>2026-09-03T05:13:18.000Z</time>
        <extensions>
          <ns3:TrackPointExtension>
            <ns3:hr>89</ns3:hr>
            <ns3:cad>64</ns3:cad>
          </ns3:TrackPointExtension>
        </extensions>
      </trkpt>
      <trkpt lat="44.7201262414455413818359375" lon="6.7273692972958087921142578125">
        <ele>1975</ele>
        <time>2026-09-03T05:13:19.000Z</time>
        <extensions>
          <ns3:TrackPointExtension>
            <ns3:hr>88</ns3:hr>
            <ns3:cad>64</ns3:cad>
          </ns3:TrackPointExtension>
        </extensions>
      </trkpt>
      <trkpt lat="44.7201235592365264892578125" lon="6.727393604815006256103515625">
        <ele>1974.800048828125</ele>
        <time>2026-09-03T05:13:20.000Z</time>
        <extensions>
          <ns3:TrackPointExtension>
            <ns3:hr>89</ns3:hr>
            <ns3:cad>64</ns3:cad>
          </ns3:TrackPointExtension>
        </extensions>
      </trkpt>
      <trkpt lat="44.7201227210462093353271484375" lon="6.72741816379129886627197265625">
        <ele>1974.5999755859375</ele>
        <time>2026-09-03T05:13:21.000Z</time>
        <extensions>
          <ns3:TrackPointExtension>
            <ns3:hr>89</ns3:hr>
            <ns3:cad>64</ns3:cad>
          </ns3:TrackPointExtension>
        </extensions>
      </trkpt>
      <trkpt lat="44.720121212303638458251953125" lon="6.7274383641779422760009765625">
        <ele>1974.199951171875</ele>
        <time>2026-09-03T05:13:22.000Z</time>
        <extensions>
          <ns3:TrackPointExtension>
            <ns3:hr>88</ns3:hr>
            <ns3:cad>75</ns3:cad>
          </ns3:TrackPointExtension>
        </extensions>
      </trkpt>
      <trkpt lat="44.7201193682849407196044921875" lon="6.72746191732585430145263671875">
        <ele>1974</ele>
        <time>2026-09-03T05:13:23.000Z</time>
        <extensions>
          <ns3:TrackPointExtension>
            <ns3:hr>89</ns3:hr>
            <ns3:cad>78</ns3:cad>
          </ns3:TrackPointExtension>
        </extensions>
      </trkpt>
      <trkpt lat="44.72012012265622615814208984375" lon="6.7274829559028148651123046875">
        <ele>1973.800048828125</ele>
        <time>2026-09-03T05:13:24.000Z</time>
        <extensions>
          <ns3:TrackPointExtension>
            <ns3:hr>89</ns3:hr>
            <ns3:cad>78</ns3:cad>
          </ns3:TrackPointExtension>
        </extensions>
      </trkpt>
      <trkpt lat="44.72012020647525787353515625" lon="6.72750181518495082855224609375">
        <ele>1973.5999755859375</ele>
        <time>2026-09-03T05:13:25.000Z</time>
        <extensions>
          <ns3:TrackPointExtension>
            <ns3:hr>89</ns3:hr>
            <ns3:cad>0</ns3:cad>
          </ns3:TrackPointExtension>
        </extensions>
      </trkpt>
      <trkpt lat="44.72012196667492389678955078125" lon="6.72751656733453273773193359375">
        <ele>1973.4000244140625</ele>
        <time>2026-09-03T05:13:26.000Z</time>
        <extensions>
          <ns3:TrackPointExtension>
            <ns3:hr>90</ns3:hr>
            <ns3:cad>0</ns3:cad>
          </ns3:TrackPointExtension>
        </extensions>
      </trkpt>
      <trkpt lat="44.7201227210462093353271484375" lon="6.72752612270414829254150390625">
        <ele>1973.4000244140625</ele>
        <time>2026-09-03T05:13:27.000Z</time>
        <extensions>
          <ns3:TrackPointExtension>
            <ns3:hr>90</ns3:hr>
            <ns3:cad>0</ns3:cad>
          </ns3:TrackPointExtension>
        </extensions>
      </trkpt>
      <trkpt lat="44.72012314014136791229248046875" lon="6.72754171304404735565185546875">
        <ele>1973.199951171875</ele>
        <time>2026-09-03T05:13:28.000Z</time>
        <extensions>
          <ns3:TrackPointExtension>
            <ns3:hr>90</ns3:hr>
            <ns3:cad>0</ns3:cad>
          </ns3:TrackPointExtension>
        </extensions>
      </trkpt>
      <trkpt lat="44.72012154757976531982421875" lon="6.72755177132785320281982421875">
        <ele>1973</ele>
        <time>2026-09-03T05:13:29.000Z</time>
        <extensions>
          <ns3:TrackPointExtension>
            <ns3:hr>90</ns3:hr>
            <ns3:cad>0</ns3:cad>
          </ns3:TrackPointExtension>
        </extensions>
      </trkpt>
      <trkpt lat="44.72012154757976531982421875" lon="6.727561242878437042236328125">
        <ele>1972.800048828125</ele>
        <time>2026-09-03T05:13:30.000Z</time>
        <extensions>
          <ns3:TrackPointExtension>
            <ns3:hr>91</ns3:hr>
            <ns3:cad>0</ns3:cad>
          </ns3:TrackPointExtension>
        </extensions>
      </trkpt>
      <trkpt lat="44.720121212303638458251953125" lon="6.727573312819004058837890625">
        <ele>1972.5999755859375</ele>
        <time>2026-09-03T05:13:31.000Z</time>
        <extensions>
          <ns3:TrackPointExtension>
            <ns3:hr>91</ns3:hr>
            <ns3:cad>0</ns3:cad>
          </ns3:TrackPointExtension>
        </extensions>
      </trkpt>
      <trkpt lat="44.72011911682784557342529296875" lon="6.7275909148156642913818359375">
        <ele>1972.4000244140625</ele>
        <time>2026-09-03T05:13:32.000Z</time>
        <extensions>
          <ns3:TrackPointExtension>
            <ns3:hr>91</ns3:hr>
            <ns3:cad>0</ns3:cad>
          </ns3:TrackPointExtension>
        </extensions>
      </trkpt>
      <trkpt lat="44.720107801258563995361328125" lon="6.727595441043376922607421875">
        <ele>1972.199951171875</ele>
        <time>2026-09-03T05:13:33.000Z</time>
        <extensions>
          <ns3:TrackPointExtension>
            <ns3:hr>91</ns3:hr>
            <ns3:cad>0</ns3:cad>
          </ns3:TrackPointExtension>
        </extensions>
      </trkpt>
      <trkpt lat="44.72010469995439052581787109375" lon="6.7276120372116565704345703125">
        <ele>1972</ele>
        <time>2026-09-03T05:13:34.000Z</time>
        <extensions>
          <ns3:TrackPointExtension>
            <ns3:hr>91</ns3:hr>
            <ns3:cad>0</ns3:cad>
          </ns3:TrackPointExtension>
        </extensions>
      </trkpt>
      <trkpt lat="44.72010721452534198760986328125" lon="6.72761480323970317840576171875">
        <ele>1971.5999755859375</ele>
        <time>2026-09-03T05:13:35.000Z</time>
        <extensions>
          <ns3:TrackPointExtension>
            <ns3:hr>91</ns3:hr>
            <ns3:cad>0</ns3:cad>
          </ns3:TrackPointExtension>
        </extensions>
      </trkpt>
      <trkpt lat="44.7200994193553924560546875" lon="6.72762620262801647186279296875">
        <ele>1971.4000244140625</ele>
        <time>2026-09-03T05:13:36.000Z</time>
        <extensions>
          <ns3:TrackPointExtension>
            <ns3:hr>91</ns3:hr>
            <ns3:cad>0</ns3:cad>
          </ns3:TrackPointExtension>
        </extensions>
      </trkpt>
      <trkpt lat="44.72008910961449146270751953125" lon="6.727636344730854034423828125">
        <ele>1971</ele>
        <time>2026-09-03T05:13:37.000Z</time>
        <extensions>
          <ns3:TrackPointExtension>
            <ns3:hr>91</ns3:hr>
            <ns3:cad>0</ns3:cad>
          </ns3:TrackPointExtension>
        </extensions>
      </trkpt>
      <trkpt lat="44.72008961252868175506591796875" lon="6.7276512645184993743896484375">
        <ele>1970.800048828125</ele>
        <time>2026-09-03T05:13:38.000Z</time>
        <extensions>
          <ns3:TrackPointExtension>
            <ns3:hr>91</ns3:hr>
            <ns3:cad>0</ns3:cad>
          </ns3:TrackPointExtension>
        </extensions>
      </trkpt>
      <trkpt lat="44.720083661377429962158203125" lon="6.72766593284904956817626953125">
        <ele>1970.4000244140625</ele>
        <time>2026-09-03T05:13:39.000Z</time>
        <extensions>
          <ns3:TrackPointExtension>
            <ns3:hr>92</ns3:hr>
            <ns3:cad>0</ns3:cad>
          </ns3:TrackPointExtension>
        </extensions>
      </trkpt>
      <trkpt lat="44.7200761176645755767822265625" lon="6.72767967917025089263916015625">
        <ele>1970.199951171875</ele>
        <time>2026-09-03T05:13:40.000Z</time>
        <extensions>
          <ns3:TrackPointExtension>
            <ns3:hr>91</ns3:hr>
            <ns3:cad>62</ns3:cad>
          </ns3:TrackPointExtension>
        </extensions>
      </trkpt>
      <trkpt lat="44.72006882540881633758544921875" lon="6.72769091092050075531005859375">
        <ele>1969.800048828125</ele>
        <time>2026-09-03T05:13:41.000Z</time>
        <extensions>
          <ns3:TrackPointExtension>
            <ns3:hr>92</ns3:hr>
            <ns3:cad>62</ns3:cad>
          </ns3:TrackPointExtension>
        </extensions>
      </trkpt>
      <trkpt lat="44.72005985677242279052734375" lon="6.72770465724170207977294921875">
        <ele>1969.5999755859375</ele>
        <time>2026-09-03T05:13:42.000Z</time>
        <extensions>
          <ns3:TrackPointExtension>
            <ns3:hr>92</ns3:hr>
            <ns3:cad>62</ns3:cad>
          </ns3:TrackPointExtension>
        </extensions>
      </trkpt>
      <trkpt lat="44.72004937939345836639404296875" lon="6.7277226783335208892822265625">
        <ele>1969.4000244140625</ele>
        <time>2026-09-03T05:13:43.000Z</time>
        <extensions>
          <ns3:TrackPointExtension>
            <ns3:hr>92</ns3:hr>
            <ns3:cad>62</ns3:cad>
          </ns3:TrackPointExtension>
        </extensions>
      </trkpt>
      <trkpt lat="44.72004108130931854248046875" lon="6.72774262726306915283203125">
        <ele>1969</ele>
        <time>2026-09-03T05:13:44.000Z</time>
        <extensions>
          <ns3:TrackPointExtension>
            <ns3:hr>93</ns3:hr>
            <ns3:cad>62</ns3:cad>
          </ns3:TrackPointExtension>
        </extensions>
      </trkpt>
      <trkpt lat="44.7200296819210052490234375" lon="6.72776953317224979400634765625">
        <ele>1968.800048828125</ele>
        <time>2026-09-03T05:13:45.000Z</time>
        <extensions>
          <ns3:TrackPointExtension>
            <ns3:hr>93</ns3:hr>
            <ns3:cad>61</ns3:cad>
          </ns3:TrackPointExtension>
        </extensions>
      </trkpt>
      <trkpt lat="44.72002498805522918701171875" lon="6.72779048793017864227294921875">
        <ele>1968.4000244140625</ele>
        <time>2026-09-03T05:13:46.000Z</time>
        <extensions>
          <ns3:TrackPointExtension>
            <ns3:hr>93</ns3:hr>
            <ns3:cad>61</ns3:cad>
          </ns3:TrackPointExtension>
        </extensions>
      </trkpt>
      <trkpt lat="44.72002205438911914825439453125" lon="6.72780624590814113616943359375">
        <ele>1968.199951171875</ele>
        <time>2026-09-03T05:13:47.000Z</time>
        <extensions>
          <ns3:TrackPointExtension>
            <ns3:hr>93</ns3:hr>
            <ns3:cad>61</ns3:cad>
          </ns3:TrackPointExtension>
        </extensions>
      </trkpt>
      <trkpt lat="44.720019288361072540283203125" lon="6.72782233916223049163818359375">
        <ele>1968</ele>
        <time>2026-09-03T05:13:48.000Z</time>
        <extensions>
          <ns3:TrackPointExtension>
            <ns3:hr>92</ns3:hr>
            <ns3:cad>70</ns3:cad>
          </ns3:TrackPointExtension>
        </extensions>
      </trkpt>
      <trkpt lat="44.7200204618275165557861328125" lon="6.72783424146473407745361328125">
        <ele>1967.800048828125</ele>
        <time>2026-09-03T05:13:49.000Z</time>
        <extensions>
          <ns3:TrackPointExtension>
            <ns3:hr>93</ns3:hr>
            <ns3:cad>70</ns3:cad>
          </ns3:TrackPointExtension>
        </extensions>
      </trkpt>
      <trkpt lat="44.72002591006457805633544921875" lon="6.7278437130153179168701171875">
        <ele>1967.800048828125</ele>
        <time>2026-09-03T05:13:50.000Z</time>
        <extensions>
          <ns3:TrackPointExtension>
            <ns3:hr>93</ns3:hr>
            <ns3:cad>70</ns3:cad>
          </ns3:TrackPointExtension>
        </extensions>
      </trkpt>
      <trkpt lat="44.72003077156841754913330078125" lon="6.727852262556552886962890625">
        <ele>1967.5999755859375</ele>
        <time>2026-09-03T05:13:51.000Z</time>
        <extensions>
          <ns3:TrackPointExtension>
            <ns3:hr>92</ns3:hr>
            <ns3:cad>70</ns3:cad>
          </ns3:TrackPointExtension>
        </extensions>
      </trkpt>
      <trkpt lat="44.72003580071032047271728515625" lon="6.72785821370780467987060546875">
        <ele>1967.4000244140625</ele>
        <time>2026-09-03T05:13:52.000Z</time>
        <extensions>
          <ns3:TrackPointExtension>
            <ns3:hr>93</ns3:hr>
            <ns3:cad>70</ns3:cad>
          </ns3:TrackPointExtension>
        </extensions>
      </trkpt>
      <trkpt lat="44.72003714181482791900634765625" lon="6.7278695292770862579345703125">
        <ele>1967.4000244140625</ele>
        <time>2026-09-03T05:13:53.000Z</time>
        <extensions>
          <ns3:TrackPointExtension>
            <ns3:hr>93</ns3:hr>
            <ns3:cad>70</ns3:cad>
          </ns3:TrackPointExtension>
        </extensions>
      </trkpt>
      <trkpt lat="44.720041416585445404052734375" lon="6.727881766855716705322265625">
        <ele>1967</ele>
        <time>2026-09-03T05:13:54.000Z</time>
        <extensions>
          <ns3:TrackPointExtension>
            <ns3:hr>93</ns3:hr>
            <ns3:cad>65</ns3:cad>
          </ns3:TrackPointExtension>
        </extensions>
      </trkpt>
      <trkpt lat="44.720043428242206573486328125" lon="6.7278956808149814605712890625">
        <ele>1966.800048828125</ele>
        <time>2026-09-03T05:13:55.000Z</time>
        <extensions>
          <ns3:TrackPointExtension>
            <ns3:hr>93</ns3:hr>
            <ns3:cad>65</ns3:cad>
          </ns3:TrackPointExtension>
        </extensions>
      </trkpt>
      <trkpt lat="44.72004435025155544281005859375" lon="6.72790582291781902313232421875">
        <ele>1966.5999755859375</ele>
        <time>2026-09-03T05:13:56.000Z</time>
        <extensions>
          <ns3:TrackPointExtension>
            <ns3:hr>93</ns3:hr>
            <ns3:cad>0</ns3:cad>
          </ns3:TrackPointExtension>
        </extensions>
      </trkpt>
      <trkpt lat="44.720046781003475189208984375" lon="6.727917306125164031982421875">
        <ele>1966.199951171875</ele>
        <time>2026-09-03T05:13:57.000Z</time>
        <extensions>
          <ns3:TrackPointExtension>
            <ns3:hr>93</ns3:hr>
            <ns3:cad>0</ns3:cad>
          </ns3:TrackPointExtension>
        </extensions>
      </trkpt>
      <trkpt lat="44.720046110451221466064453125" lon="6.7279256880283355712890625">
        <ele>1966</ele>
        <time>2026-09-03T05:13:58.000Z</time>
        <extensions>
          <ns3:TrackPointExtension>
            <ns3:hr>93</ns3:hr>
            <ns3:cad>0</ns3:cad>
          </ns3:TrackPointExtension>
        </extensions>
      </trkpt>
      <trkpt lat="44.72004502080380916595458984375" lon="6.72793230973184108734130859375">
        <ele>1965.800048828125</ele>
        <time>2026-09-03T05:13:59.000Z</time>
        <extensions>
          <ns3:TrackPointExtension>
            <ns3:hr>93</ns3:hr>
            <ns3:cad>0</ns3:cad>
          </ns3:TrackPointExtension>
        </extensions>
      </trkpt>
      <trkpt lat="44.72004468552768230438232421875" lon="6.727937422692775726318359375">
        <ele>1965.4000244140625</ele>
        <time>2026-09-03T05:14:00.000Z</time>
        <extensions>
          <ns3:TrackPointExtension>
            <ns3:hr>92</ns3:hr>
            <ns3:cad>0</ns3:cad>
          </ns3:TrackPointExtension>
        </extensions>
      </trkpt>
      <trkpt lat="44.720044434070587158203125" lon="6.7279469780623912811279296875">
        <ele>1965.199951171875</ele>
        <time>2026-09-03T05:14:01.000Z</time>
        <extensions>
          <ns3:TrackPointExtension>
            <ns3:hr>92</ns3:hr>
            <ns3:cad>0</ns3:cad>
          </ns3:TrackPointExtension>
        </extensions>
      </trkpt>
      <trkpt lat="44.72004082985222339630126953125" lon="6.72795452177524566650390625">
        <ele>1965</ele>
        <time>2026-09-03T05:14:02.000Z</time>
        <extensions>
          <ns3:TrackPointExtension>
            <ns3:hr>92</ns3:hr>
            <ns3:cad>0</ns3:cad>
          </ns3:TrackPointExtension>
        </extensions>
      </trkpt>
      <trkpt lat="44.720038063824176788330078125" lon="6.727964915335178375244140625">
        <ele>1964.5999755859375</ele>
        <time>2026-09-03T05:14:03.000Z</time>
        <extensions>
          <ns3:TrackPointExtension>
            <ns3:hr>91</ns3:hr>
            <ns3:cad>0</ns3:cad>
          </ns3:TrackPointExtension>
        </extensions>
      </trkpt>
      <trkpt lat="44.72003705799579620361328125" lon="6.72798276878893375396728515625">
        <ele>1964.4000244140625</ele>
        <time>2026-09-03T05:14:04.000Z</time>
        <extensions>
          <ns3:TrackPointExtension>
            <ns3:hr>91</ns3:hr>
            <ns3:cad>0</ns3:cad>
          </ns3:TrackPointExtension>
        </extensions>
      </trkpt>
      <trkpt lat="44.72003445960581302642822265625" lon="6.727996431291103363037109375">
        <ele>1964.199951171875</ele>
        <time>2026-09-03T05:14:05.000Z</time>
        <extensions>
          <ns3:TrackPointExtension>
            <ns3:hr>90</ns3:hr>
            <ns3:cad>0</ns3:cad>
          </ns3:TrackPointExtension>
        </extensions>
      </trkpt>
      <trkpt lat="44.720029346644878387451171875" lon="6.72800657339394092559814453125">
        <ele>1963.800048828125</ele>
        <time>2026-09-03T05:14:06.000Z</time>
        <extensions>
          <ns3:TrackPointExtension>
            <ns3:hr>90</ns3:hr>
            <ns3:cad>62</ns3:cad>
          </ns3:TrackPointExtension>
        </extensions>
      </trkpt>
      <trkpt lat="44.720024652779102325439453125" lon="6.72801981680095195770263671875">
        <ele>1963.5999755859375</ele>
        <time>2026-09-03T05:14:07.000Z</time>
        <extensions>
          <ns3:TrackPointExtension>
            <ns3:hr>89</ns3:hr>
            <ns3:cad>62</ns3:cad>
          </ns3:TrackPointExtension>
        </extensions>
      </trkpt>
      <trkpt lat="44.720020294189453125" lon="6.72803440131247043609619140625">
        <ele>1963.199951171875</ele>
        <time>2026-09-03T05:14:08.000Z</time>
        <extensions>
          <ns3:TrackPointExtension>
            <ns3:hr>89</ns3:hr>
            <ns3:cad>62</ns3:cad>
          </ns3:TrackPointExtension>
        </extensions>
      </trkpt>
      <trkpt lat="44.7200201265513896942138671875" lon="6.72804881818592548370361328125">
        <ele>1963</ele>
        <time>2026-09-03T05:14:09.000Z</time>
        <extensions>
          <ns3:TrackPointExtension>
            <ns3:hr>89</ns3:hr>
            <ns3:cad>62</ns3:cad>
          </ns3:TrackPointExtension>
        </extensions>
      </trkpt>
      <trkpt lat="44.7200197912752628326416015625" lon="6.72806692309677600860595703125">
        <ele>1962.5999755859375</ele>
        <time>2026-09-03T05:14:10.000Z</time>
        <extensions>
          <ns3:TrackPointExtension>
            <ns3:hr>89</ns3:hr>
            <ns3:cad>62</ns3:cad>
          </ns3:TrackPointExtension>
        </extensions>
      </trkpt>
      <trkpt lat="44.72001953981816768646240234375" lon="6.72808921895921230316162109375">
        <ele>1962.4000244140625</ele>
        <time>2026-09-03T05:14:11.000Z</time>
        <extensions>
          <ns3:TrackPointExtension>
            <ns3:hr>90</ns3:hr>
            <ns3:cad>62</ns3:cad>
          </ns3:TrackPointExtension>
        </extensions>
      </trkpt>
      <trkpt lat="44.72001920454204082489013671875" lon="6.7281115986406803131103515625">
        <ele>1962.199951171875</ele>
        <time>2026-09-03T05:14:12.000Z</time>
        <extensions>
          <ns3:TrackPointExtension>
            <ns3:hr>90</ns3:hr>
            <ns3:cad>62</ns3:cad>
          </ns3:TrackPointExtension>
        </extensions>
      </trkpt>
      <trkpt lat="44.7200164385139942169189453125" lon="6.72812350094318389892578125">
        <ele>1961.800048828125</ele>
        <time>2026-09-03T05:14:13.000Z</time>
        <extensions>
          <ns3:TrackPointExtension>
            <ns3:hr>91</ns3:hr>
            <ns3:cad>75</ns3:cad>
          </ns3:TrackPointExtension>
        </extensions>
      </trkpt>
      <trkpt lat="44.720013253390789031982421875" lon="6.72813816927373409271240234375">
        <ele>1961.5999755859375</ele>
        <time>2026-09-03T05:14:14.000Z</time>
        <extensions>
          <ns3:TrackPointExtension>
            <ns3:hr>91</ns3:hr>
            <ns3:cad>75</ns3:cad>
          </ns3:TrackPointExtension>
        </extensions>
      </trkpt>
      <trkpt lat="44.7200055420398712158203125" lon="6.728152334690093994140625">
        <ele>1961.4000244140625</ele>
        <time>2026-09-03T05:14:15.000Z</time>
        <extensions>
          <ns3:TrackPointExtension>
            <ns3:hr>92</ns3:hr>
            <ns3:cad>75</ns3:cad>
          </ns3:TrackPointExtension>
        </extensions>
      </trkpt>
      <trkpt lat="44.71999757923185825347900390625" lon="6.728166751563549041748046875">
        <ele>1961.199951171875</ele>
        <time>2026-09-03T05:14:16.000Z</time>
        <extensions>
          <ns3:TrackPointExtension>
            <ns3:hr>92</ns3:hr>
            <ns3:cad>71</ns3:cad>
          </ns3:TrackPointExtension>
        </extensions>
      </trkpt>
      <trkpt lat="44.71998366527259349822998046875" lon="6.7281598784029483795166015625">
        <ele>1960.800048828125</ele>
        <time>2026-09-03T05:14:17.000Z</time>
        <extensions>
          <ns3:TrackPointExtension>
            <ns3:hr>92</ns3:hr>
            <ns3:cad>71</ns3:cad>
          </ns3:TrackPointExtension>
        </extensions>
      </trkpt>
      <trkpt lat="44.7199825756251811981201171875" lon="6.7281429469585418701171875">
        <ele>1960.5999755859375</ele>
        <time>2026-09-03T05:14:18.000Z</time>
        <extensions>
          <ns3:TrackPointExtension>
            <ns3:hr>92</ns3:hr>
            <ns3:cad>72</ns3:cad>
          </ns3:TrackPointExtension>
        </extensions>
      </trkpt>
      <trkpt lat="44.71997561864554882049560546875" lon="6.72813012264668941497802734375">
        <ele>1960.199951171875</ele>
        <time>2026-09-03T05:14:19.000Z</time>
        <extensions>
          <ns3:TrackPointExtension>
            <ns3:hr>92</ns3:hr>
            <ns3:cad>72</ns3:cad>
          </ns3:TrackPointExtension>
        </extensions>
      </trkpt>
      <trkpt lat="44.719963967800140380859375" lon="6.7281126044690608978271484375">
        <ele>1960</ele>
        <time>2026-09-03T05:14:20.000Z</time>
        <extensions>
          <ns3:TrackPointExtension>
            <ns3:hr>93</ns3:hr>
            <ns3:cad>72</ns3:cad>
          </ns3:TrackPointExtension>
        </extensions>
      </trkpt>
      <trkpt lat="44.71995701082050800323486328125" lon="6.728104390203952789306640625">
        <ele>1959.5999755859375</ele>
        <time>2026-09-03T05:14:21.000Z</time>
        <extensions>
          <ns3:TrackPointExtension>
            <ns3:hr>92</ns3:hr>
            <ns3:cad>72</ns3:cad>
          </ns3:TrackPointExtension>
        </extensions>
      </trkpt>
      <trkpt lat="44.719949550926685333251953125" lon="6.72810883261263370513916015625">
        <ele>1959.199951171875</ele>
        <time>2026-09-03T05:14:22.000Z</time>
        <extensions>
          <ns3:TrackPointExtension>
            <ns3:hr>92</ns3:hr>
            <ns3:cad>0</ns3:cad>
          </ns3:TrackPointExtension>
        </extensions>
      </trkpt>
      <trkpt lat="44.71995214931666851043701171875" lon="6.72812777571380138397216796875">
        <ele>1959</ele>
        <time>2026-09-03T05:14:23.000Z</time>
        <extensions>
          <ns3:TrackPointExtension>
            <ns3:hr>92</ns3:hr>
            <ns3:cad>0</ns3:cad>
          </ns3:TrackPointExtension>
        </extensions>
      </trkpt>
      <trkpt lat="44.7199530713260173797607421875" lon="6.72814093530178070068359375">
        <ele>1958.800048828125</ele>
        <time>2026-09-03T05:14:24.000Z</time>
        <extensions>
          <ns3:TrackPointExtension>
            <ns3:hr>92</ns3:hr>
            <ns3:cad>0</ns3:cad>
          </ns3:TrackPointExtension>
        </extensions>
      </trkpt>
      <trkpt lat="44.719955921173095703125" lon="6.72815459780395030975341796875">
        <ele>1958.5999755859375</ele>
        <time>2026-09-03T05:14:25.000Z</time>
        <extensions>
          <ns3:TrackPointExtension>
            <ns3:hr>91</ns3:hr>
            <ns3:cad>0</ns3:cad>
          </ns3:TrackPointExtension>
        </extensions>
      </trkpt>
      <trkpt lat="44.7199574299156665802001953125" lon="6.72817136161029338836669921875">
        <ele>1958.4000244140625</ele>
        <time>2026-09-03T05:14:26.000Z</time>
        <extensions>
          <ns3:TrackPointExtension>
            <ns3:hr>91</ns3:hr>
            <ns3:cad>0</ns3:cad>
          </ns3:TrackPointExtension>
        </extensions>
      </trkpt>
      <trkpt lat="44.71995784901082515716552734375" lon="6.72818980179727077484130859375">
        <ele>1958.199951171875</ele>
        <time>2026-09-03T05:14:27.000Z</time>
        <extensions>
          <ns3:TrackPointExtension>
            <ns3:hr>91</ns3:hr>
            <ns3:cad>0</ns3:cad>
          </ns3:TrackPointExtension>
        </extensions>
      </trkpt>
      <trkpt lat="44.71995390951633453369140625" lon="6.7282071523368358612060546875">
        <ele>1958</ele>
        <time>2026-09-03T05:14:28.000Z</time>
        <extensions>
          <ns3:TrackPointExtension>
            <ns3:hr>91</ns3:hr>
            <ns3:cad>0</ns3:cad>
          </ns3:TrackPointExtension>
        </extensions>
      </trkpt>
      <trkpt lat="44.7199503891170024871826171875" lon="6.7282232455909252166748046875">
        <ele>1957.800048828125</ele>
        <time>2026-09-03T05:14:29.000Z</time>
        <extensions>
          <ns3:TrackPointExtension>
            <ns3:hr>91</ns3:hr>
            <ns3:cad>68</ns3:cad>
          </ns3:TrackPointExtension>
        </extensions>
      </trkpt>
      <trkpt lat="44.7199465334415435791015625" lon="6.7282379977405071258544921875">
        <ele>1957.4000244140625</ele>
        <time>2026-09-03T05:14:30.000Z</time>
        <extensions>
          <ns3:TrackPointExtension>
            <ns3:hr>91</ns3:hr>
            <ns3:cad>68</ns3:cad>
          </ns3:TrackPointExtension>
        </extensions>
      </trkpt>
      <trkpt lat="44.71994108520448207855224609375" lon="6.72825534828007221221923828125">
        <ele>1957.199951171875</ele>
        <time>2026-09-03T05:14:31.000Z</time>
        <extensions>
          <ns3:TrackPointExtension>
            <ns3:hr>91</ns3:hr>
            <ns3:cad>68</ns3:cad>
          </ns3:TrackPointExtension>
        </extensions>
      </trkpt>
      <trkpt lat="44.71993722952902317047119140625" lon="6.7282705195248126983642578125">
        <ele>1956.800048828125</ele>
        <time>2026-09-03T05:14:32.000Z</time>
        <extensions>
          <ns3:TrackPointExtension>
            <ns3:hr>91</ns3:hr>
            <ns3:cad>68</ns3:cad>
          </ns3:TrackPointExtension>
        </extensions>
      </trkpt>
      <trkpt lat="44.71993236802518367767333984375" lon="6.72828904353082180023193359375">
        <ele>1956.4000244140625</ele>
        <time>2026-09-03T05:14:33.000Z</time>
        <extensions>
          <ns3:TrackPointExtension>
            <ns3:hr>91</ns3:hr>
            <ns3:cad>68</ns3:cad>
          </ns3:TrackPointExtension>
        </extensions>
      </trkpt>
      <trkpt lat="44.7199304401874542236328125" lon="6.7283067293465137481689453125">
        <ele>1956.199951171875</ele>
        <time>2026-09-03T05:14:34.000Z</time>
        <extensions>
          <ns3:TrackPointExtension>
            <ns3:hr>90</ns3:hr>
            <ns3:cad>68</ns3:cad>
          </ns3:TrackPointExtension>
        </extensions>
      </trkpt>
      <trkpt lat="44.7199304401874542236328125" lon="6.72832340933382511138916015625">
        <ele>1955.800048828125</ele>
        <time>2026-09-03T05:14:35.000Z</time>
        <extensions>
          <ns3:TrackPointExtension>
            <ns3:hr>90</ns3:hr>
            <ns3:cad>68</ns3:cad>
          </ns3:TrackPointExtension>
        </extensions>
      </trkpt>
      <trkpt lat="44.71992909908294677734375" lon="6.72833950258791446685791015625">
        <ele>1955.5999755859375</ele>
        <time>2026-09-03T05:14:36.000Z</time>
        <extensions>
          <ns3:TrackPointExtension>
            <ns3:hr>90</ns3:hr>
            <ns3:cad>68</ns3:cad>
          </ns3:TrackPointExtension>
        </extensions>
      </trkpt>
      <trkpt lat="44.719930775463581085205078125" lon="6.72835551202297210693359375">
        <ele>1955.5999755859375</ele>
        <time>2026-09-03T05:14:37.000Z</time>
        <extensions>
          <ns3:TrackPointExtension>
            <ns3:hr>90</ns3:hr>
            <ns3:cad>68</ns3:cad>
          </ns3:TrackPointExtension>
        </extensions>
      </trkpt>
      <trkpt lat="44.71993169747292995452880859375" lon="6.72837101854383945465087890625">
        <ele>1955.4000244140625</ele>
        <time>2026-09-03T05:14:38.000Z</time>
        <extensions>
          <ns3:TrackPointExtension>
            <ns3:hr>90</ns3:hr>
            <ns3:cad>0</ns3:cad>
          </ns3:TrackPointExtension>
        </extensions>
      </trkpt>
      <trkpt lat="44.71993052400648593902587890625" lon="6.728394068777561187744140625">
        <ele>1955.199951171875</ele>
        <time>2026-09-03T05:14:39.000Z</time>
        <extensions>
          <ns3:TrackPointExtension>
            <ns3:hr>91</ns3:hr>
            <ns3:cad>0</ns3:cad>
          </ns3:TrackPointExtension>
        </extensions>
      </trkpt>
      <trkpt lat="44.719928763806819915771484375" lon="6.728415191173553466796875">
        <ele>1954.800048828125</ele>
        <time>2026-09-03T05:14:40.000Z</time>
        <extensions>
          <ns3:TrackPointExtension>
            <ns3:hr>91</ns3:hr>
            <ns3:cad>0</ns3:cad>
          </ns3:TrackPointExtension>
        </extensions>
      </trkpt>
      <trkpt lat="44.719929434359073638916015625" lon="6.72843572683632373809814453125">
        <ele>1954.5999755859375</ele>
        <time>2026-09-03T05:14:41.000Z</time>
        <extensions>
          <ns3:TrackPointExtension>
            <ns3:hr>91</ns3:hr>
            <ns3:cad>77</ns3:cad>
          </ns3:TrackPointExtension>
        </extensions>
      </trkpt>
      <trkpt lat="44.71993245184421539306640625" lon="6.728453077375888824462890625">
        <ele>1954.199951171875</ele>
        <time>2026-09-03T05:14:42.000Z</time>
        <extensions>
          <ns3:TrackPointExtension>
            <ns3:hr>91</ns3:hr>
            <ns3:cad>77</ns3:cad>
          </ns3:TrackPointExtension>
        </extensions>
      </trkpt>
      <trkpt lat="44.71993119455873966217041015625" lon="6.72846539877355098724365234375">
        <ele>1954</ele>
        <time>2026-09-03T05:14:43.000Z</time>
        <extensions>
          <ns3:TrackPointExtension>
            <ns3:hr>92</ns3:hr>
            <ns3:cad>77</ns3:cad>
          </ns3:TrackPointExtension>
        </extensions>
      </trkpt>
      <trkpt lat="44.71992867998778820037841796875" lon="6.7284817434847354888916015625">
        <ele>1953.800048828125</ele>
        <time>2026-09-03T05:14:44.000Z</time>
        <extensions>
          <ns3:TrackPointExtension>
            <ns3:hr>92</ns3:hr>
            <ns3:cad>62</ns3:cad>
          </ns3:TrackPointExtension>
        </extensions>
      </trkpt>
      <trkpt lat="44.7199265845119953155517578125" lon="6.72849473543465137481689453125">
        <ele>1953.800048828125</ele>
        <time>2026-09-03T05:14:45.000Z</time>
        <extensions>
          <ns3:TrackPointExtension>
            <ns3:hr>92</ns3:hr>
            <ns3:cad>62</ns3:cad>
          </ns3:TrackPointExtension>
        </extensions>
      </trkpt>
      <trkpt lat="44.719924069941043853759765625" lon="6.72850931994616985321044921875">
        <ele>1953.5999755859375</ele>
        <time>2026-09-03T05:14:46.000Z</time>
        <extensions>
          <ns3:TrackPointExtension>
            <ns3:hr>92</ns3:hr>
            <ns3:cad>62</ns3:cad>
          </ns3:TrackPointExtension>
        </extensions>
      </trkpt>
      <trkpt lat="44.7199212200939655303955078125" lon="6.728520803153514862060546875">
        <ele>1953.5999755859375</ele>
        <time>2026-09-03T05:14:47.000Z</time>
        <extensions>
          <ns3:TrackPointExtension>
            <ns3:hr>92</ns3:hr>
            <ns3:cad>0</ns3:cad>
          </ns3:TrackPointExtension>
        </extensions>
      </trkpt>
      <trkpt lat="44.71991510130465030670166015625" lon="6.728525497019290924072265625">
        <ele>1953.4000244140625</ele>
        <time>2026-09-03T05:14:48.000Z</time>
        <extensions>
          <ns3:TrackPointExtension>
            <ns3:hr>93</ns3:hr>
            <ns3:cad>0</ns3:cad>
          </ns3:TrackPointExtension>
        </extensions>
      </trkpt>
      <trkpt lat="44.7199118323624134063720703125" lon="6.72852273099124431610107421875">
        <ele>1953.199951171875</ele>
        <time>2026-09-03T05:14:49.000Z</time>
        <extensions>
          <ns3:TrackPointExtension>
            <ns3:hr>93</ns3:hr>
            <ns3:cad>0</ns3:cad>
          </ns3:TrackPointExtension>
        </extensions>
      </trkpt>
      <trkpt lat="44.71991040743887424468994140625" lon="6.72850730828940868377685546875">
        <ele>1953.199951171875</ele>
        <time>2026-09-03T05:14:50.000Z</time>
        <extensions>
          <ns3:TrackPointExtension>
            <ns3:hr>94</ns3:hr>
            <ns3:cad>53</ns3:cad>
          </ns3:TrackPointExtension>
        </extensions>
      </trkpt>
      <trkpt lat="44.71990688703954219818115234375" lon="6.7284834198653697967529296875">
        <ele>1953</ele>
        <time>2026-09-03T05:14:51.000Z</time>
        <extensions>
          <ns3:TrackPointExtension>
            <ns3:hr>95</ns3:hr>
            <ns3:cad>53</ns3:cad>
          </ns3:TrackPointExtension>
        </extensions>
      </trkpt>
      <trkpt lat="44.71990135498344898223876953125" lon="6.72846707515418529510498046875">
        <ele>1952.800048828125</ele>
        <time>2026-09-03T05:14:52.000Z</time>
        <extensions>
          <ns3:TrackPointExtension>
            <ns3:hr>95</ns3:hr>
            <ns3:cad>54</ns3:cad>
          </ns3:TrackPointExtension>
        </extensions>
      </trkpt>
      <trkpt lat="44.71989280544221401214599609375" lon="6.72845215536653995513916015625">
        <ele>1952.4000244140625</ele>
        <time>2026-09-03T05:14:53.000Z</time>
        <extensions>
          <ns3:TrackPointExtension>
            <ns3:hr>95</ns3:hr>
            <ns3:cad>54</ns3:cad>
          </ns3:TrackPointExtension>
        </extensions>
      </trkpt>
      <trkpt lat="44.71988509409129619598388671875" lon="6.728438995778560638427734375">
        <ele>1952.199951171875</ele>
        <time>2026-09-03T05:14:54.000Z</time>
        <extensions>
          <ns3:TrackPointExtension>
            <ns3:hr>96</ns3:hr>
            <ns3:cad>54</ns3:cad>
          </ns3:TrackPointExtension>
        </extensions>
      </trkpt>
      <trkpt lat="44.7198783047497272491455078125" lon="6.72842114232480525970458984375">
        <ele>1952</ele>
        <time>2026-09-03T05:14:55.000Z</time>
        <extensions>
          <ns3:TrackPointExtension>
            <ns3:hr>96</ns3:hr>
            <ns3:cad>62</ns3:cad>
          </ns3:TrackPointExtension>
        </extensions>
      </trkpt>
      <trkpt lat="44.719871766865253448486328125" lon="6.7284002713859081268310546875">
        <ele>1951.5999755859375</ele>
        <time>2026-09-03T05:14:56.000Z</time>
        <extensions>
          <ns3:TrackPointExtension>
            <ns3:hr>96</ns3:hr>
            <ns3:cad>62</ns3:cad>
          </ns3:TrackPointExtension>
        </extensions>
      </trkpt>
      <trkpt lat="44.7198608703911304473876953125" lon="6.7283804900944232940673828125">
        <ele>1951.4000244140625</ele>
        <time>2026-09-03T05:14:57.000Z</time>
        <extensions>
          <ns3:TrackPointExtension>
            <ns3:hr>95</ns3:hr>
            <ns3:cad>62</ns3:cad>
          </ns3:TrackPointExtension>
        </extensions>
      </trkpt>
      <trkpt lat="44.71984972245991230010986328125" lon="6.728367246687412261962890625">
        <ele>1951</ele>
        <time>2026-09-03T05:14:58.000Z</time>
        <extensions>
          <ns3:TrackPointExtension>
            <ns3:hr>95</ns3:hr>
            <ns3:cad>62</ns3:cad>
          </ns3:TrackPointExtension>
        </extensions>
      </trkpt>
      <trkpt lat="44.71984033472836017608642578125" lon="6.72835417091846466064453125">
        <ele>1950.800048828125</ele>
        <time>2026-09-03T05:14:59.000Z</time>
        <extensions>
          <ns3:TrackPointExtension>
            <ns3:hr>96</ns3:hr>
            <ns3:cad>62</ns3:cad>
          </ns3:TrackPointExtension>
        </extensions>
      </trkpt>
      <trkpt lat="44.71983044408261775970458984375" lon="6.7283362336456775665283203125">
        <ele>1950.5999755859375</ele>
        <time>2026-09-03T05:15:00.000Z</time>
        <extensions>
          <ns3:TrackPointExtension>
            <ns3:hr>96</ns3:hr>
            <ns3:cad>62</ns3:cad>
          </ns3:TrackPointExtension>
        </extensions>
      </trkpt>
      <trkpt lat="44.71982273273169994354248046875" lon="6.7283167876303195953369140625">
        <ele>1950.199951171875</ele>
        <time>2026-09-03T05:15:01.000Z</time>
        <extensions>
          <ns3:TrackPointExtension>
            <ns3:hr>96</ns3:hr>
            <ns3:cad>62</ns3:cad>
          </ns3:TrackPointExtension>
        </extensions>
      </trkpt>
      <trkpt lat="44.7198146022856235504150390625" lon="6.72830077819526195526123046875">
        <ele>1950</ele>
        <time>2026-09-03T05:15:02.000Z</time>
        <extensions>
          <ns3:TrackPointExtension>
            <ns3:hr>97</ns3:hr>
            <ns3:cad>70</ns3:cad>
          </ns3:TrackPointExtension>
        </extensions>
      </trkpt>
      <trkpt lat="44.7198070585727691650390625" lon="6.72828485257923603057861328125">
        <ele>1949.800048828125</ele>
        <time>2026-09-03T05:15:03.000Z</time>
        <extensions>
          <ns3:TrackPointExtension>
            <ns3:hr>98</ns3:hr>
            <ns3:cad>70</ns3:cad>
          </ns3:TrackPointExtension>
        </extensions>
      </trkpt>
      <trkpt lat="44.719799347221851348876953125" lon="6.72826708294451236724853515625">
        <ele>1949.5999755859375</ele>
        <time>2026-09-03T05:15:04.000Z</time>
        <extensions>
          <ns3:TrackPointExtension>
            <ns3:hr>98</ns3:hr>
            <ns3:cad>70</ns3:cad>
          </ns3:TrackPointExtension>
        </extensions>
      </trkpt>
      <trkpt lat="44.719791971147060394287109375" lon="6.72824461944401264190673828125">
        <ele>1949.199951171875</ele>
        <time>2026-09-03T05:15:05.000Z</time>
        <extensions>
          <ns3:TrackPointExtension>
            <ns3:hr>97</ns3:hr>
            <ns3:cad>71</ns3:cad>
          </ns3:TrackPointExtension>
        </extensions>
      </trkpt>
      <trkpt lat="44.71978702582418918609619140625" lon="6.728216707706451416015625">
        <ele>1949</ele>
        <time>2026-09-03T05:15:06.000Z</time>
        <extensions>
          <ns3:TrackPointExtension>
            <ns3:hr>97</ns3:hr>
            <ns3:cad>73</ns3:cad>
          </ns3:TrackPointExtension>
        </extensions>
      </trkpt>
      <trkpt lat="44.7197834216058254241943359375" lon="6.7281920649111270904541015625">
        <ele>1948.800048828125</ele>
        <time>2026-09-03T05:15:07.000Z</time>
        <extensions>
          <ns3:TrackPointExtension>
            <ns3:hr>97</ns3:hr>
            <ns3:cad>73</ns3:cad>
          </ns3:TrackPointExtension>
        </extensions>
      </trkpt>
      <trkpt lat="44.71977286040782928466796875" lon="6.72818594612181186676025390625">
        <ele>1948.4000244140625</ele>
        <time>2026-09-03T05:15:08.000Z</time>
        <extensions>
          <ns3:TrackPointExtension>
            <ns3:hr>97</ns3:hr>
            <ns3:cad>73</ns3:cad>
          </ns3:TrackPointExtension>
        </extensions>
      </trkpt>
      <trkpt lat="44.7197628021240234375" lon="6.72817370854318141937255859375">
        <ele>1948.199951171875</ele>
        <time>2026-09-03T05:15:09.000Z</time>
        <extensions>
          <ns3:TrackPointExtension>
            <ns3:hr>98</ns3:hr>
            <ns3:cad>73</ns3:cad>
          </ns3:TrackPointExtension>
        </extensions>
      </trkpt>
      <trkpt lat="44.71974872052669525146484375" lon="6.72815074212849140167236328125">
        <ele>1948</ele>
        <time>2026-09-03T05:15:10.000Z</time>
        <extensions>
          <ns3:TrackPointExtension>
            <ns3:hr>98</ns3:hr>
            <ns3:cad>0</ns3:cad>
          </ns3:TrackPointExtension>
        </extensions>
      </trkpt>
      <trkpt lat="44.719740338623523712158203125" lon="6.72812693752348423004150390625">
        <ele>1947.5999755859375</ele>
        <time>2026-09-03T05:15:11.000Z</time>
        <extensions>
          <ns3:TrackPointExtension>
            <ns3:hr>98</ns3:hr>
            <ns3:cad>0</ns3:cad>
          </ns3:TrackPointExtension>
        </extensions>
      </trkpt>
      <trkpt lat="44.71973690204322338104248046875" lon="6.728107742965221405029296875">
        <ele>1947.4000244140625</ele>
        <time>2026-09-03T05:15:12.000Z</time>
        <extensions>
          <ns3:TrackPointExtension>
            <ns3:hr>98</ns3:hr>
            <ns3:cad>0</ns3:cad>
          </ns3:TrackPointExtension>
        </extensions>
      </trkpt>
      <trkpt lat="44.7197324596345424652099609375" lon="6.72809056006371974945068359375">
        <ele>1947.199951171875</ele>
        <time>2026-09-03T05:15:13.000Z</time>
        <extensions>
          <ns3:TrackPointExtension>
            <ns3:hr>98</ns3:hr>
            <ns3:cad>0</ns3:cad>
          </ns3:TrackPointExtension>
        </extensions>
      </trkpt>
      <trkpt lat="44.7197267599403858184814453125" lon="6.7280737124383449554443359375">
        <ele>1946.800048828125</ele>
        <time>2026-09-03T05:15:14.000Z</time>
        <extensions>
          <ns3:TrackPointExtension>
            <ns3:hr>98</ns3:hr>
            <ns3:cad>0</ns3:cad>
          </ns3:TrackPointExtension>
        </extensions>
      </trkpt>
      <trkpt lat="44.71971846185624599456787109375" lon="6.72804999165236949920654296875">
        <ele>1946.5999755859375</ele>
        <time>2026-09-03T05:15:15.000Z</time>
        <extensions>
          <ns3:TrackPointExtension>
            <ns3:hr>99</ns3:hr>
            <ns3:cad>0</ns3:cad>
          </ns3:TrackPointExtension>
        </extensions>
      </trkpt>
      <trkpt lat="44.7197104990482330322265625" lon="6.72803289256989955902099609375">
        <ele>1946.4000244140625</ele>
        <time>2026-09-03T05:15:16.000Z</time>
        <extensions>
          <ns3:TrackPointExtension>
            <ns3:hr>99</ns3:hr>
            <ns3:cad>0</ns3:cad>
          </ns3:TrackPointExtension>
        </extensions>
      </trkpt>
      <trkpt lat="44.71970588900148868560791015625" lon="6.72802157700061798095703125">
        <ele>1946</ele>
        <time>2026-09-03T05:15:17.000Z</time>
        <extensions>
          <ns3:TrackPointExtension>
            <ns3:hr>99</ns3:hr>
            <ns3:cad>0</ns3:cad>
          </ns3:TrackPointExtension>
        </extensions>
      </trkpt>
      <trkpt lat="44.71968434751033782958984375" lon="6.72802065499126911163330078125">
        <ele>1945.5999755859375</ele>
        <time>2026-09-03T05:15:18.000Z</time>
        <extensions>
          <ns3:TrackPointExtension>
            <ns3:hr>99</ns3:hr>
            <ns3:cad>0</ns3:cad>
          </ns3:TrackPointExtension>
        </extensions>
      </trkpt>
      <trkpt lat="44.71967160701751708984375" lon="6.7280086688697338104248046875">
        <ele>1945.4000244140625</ele>
        <time>2026-09-03T05:15:19.000Z</time>
        <extensions>
          <ns3:TrackPointExtension>
            <ns3:hr>100</ns3:hr>
            <ns3:cad>0</ns3:cad>
          </ns3:TrackPointExtension>
        </extensions>
      </trkpt>
      <trkpt lat="44.7196657396852970123291015625" lon="6.72801076434552669525146484375">
        <ele>1945</ele>
        <time>2026-09-03T05:15:20.000Z</time>
        <extensions>
          <ns3:TrackPointExtension>
            <ns3:hr>99</ns3:hr>
            <ns3:cad>0</ns3:cad>
          </ns3:TrackPointExtension>
        </extensions>
      </trkpt>
      <trkpt lat="44.71965140663087368011474609375" lon="6.7280210740864276885986328125">
        <ele>1944.800048828125</ele>
        <time>2026-09-03T05:15:21.000Z</time>
        <extensions>
          <ns3:TrackPointExtension>
            <ns3:hr>99</ns3:hr>
            <ns3:cad>0</ns3:cad>
          </ns3:TrackPointExtension>
        </extensions>
      </trkpt>
      <trkpt lat="44.7196469642221927642822265625" lon="6.728033311665058135986328125">
        <ele>1944.4000244140625</ele>
        <time>2026-09-03T05:15:22.000Z</time>
        <extensions>
          <ns3:TrackPointExtension>
            <ns3:hr>98</ns3:hr>
            <ns3:cad>0</ns3:cad>
          </ns3:TrackPointExtension>
        </extensions>
      </trkpt>
      <trkpt lat="44.71964386291801929473876953125" lon="6.72804077155888080596923828125">
        <ele>1944.199951171875</ele>
        <time>2026-09-03T05:15:23.000Z</time>
        <extensions>
          <ns3:TrackPointExtension>
            <ns3:hr>98</ns3:hr>
            <ns3:cad>77</ns3:cad>
          </ns3:TrackPointExtension>
        </extensions>
      </trkpt>
      <trkpt lat="44.71964168362319469451904296875" lon="6.72804898582398891448974609375">
        <ele>1943.800048828125</ele>
        <time>2026-09-03T05:15:24.000Z</time>
        <extensions>
          <ns3:TrackPointExtension>
            <ns3:hr>98</ns3:hr>
            <ns3:cad>77</ns3:cad>
          </ns3:TrackPointExtension>
        </extensions>
      </trkpt>
      <trkpt lat="44.71963967196643352508544921875" lon="6.72805988229811191558837890625">
        <ele>1943.5999755859375</ele>
        <time>2026-09-03T05:15:25.000Z</time>
        <extensions>
          <ns3:TrackPointExtension>
            <ns3:hr>97</ns3:hr>
            <ns3:cad>77</ns3:cad>
          </ns3:TrackPointExtension>
        </extensions>
      </trkpt>
      <trkpt lat="44.71963933669030666351318359375" lon="6.7280753888189792633056640625">
        <ele>1943.4000244140625</ele>
        <time>2026-09-03T05:15:26.000Z</time>
        <extensions>
          <ns3:TrackPointExtension>
            <ns3:hr>97</ns3:hr>
            <ns3:cad>0</ns3:cad>
          </ns3:TrackPointExtension>
        </extensions>
      </trkpt>
      <trkpt lat="44.71964453347027301788330078125" lon="6.728084273636341094970703125">
        <ele>1943</ele>
        <time>2026-09-03T05:15:27.000Z</time>
        <extensions>
          <ns3:TrackPointExtension>
            <ns3:hr>97</ns3:hr>
            <ns3:cad>0</ns3:cad>
          </ns3:TrackPointExtension>
        </extensions>
      </trkpt>
      <trkpt lat="44.719647467136383056640625" lon="6.72809558920562267303466796875">
        <ele>1942.800048828125</ele>
        <time>2026-09-03T05:15:28.000Z</time>
        <extensions>
          <ns3:TrackPointExtension>
            <ns3:hr>97</ns3:hr>
            <ns3:cad>0</ns3:cad>
          </ns3:TrackPointExtension>
        </extensions>
      </trkpt>
      <trkpt lat="44.71965274773538112640380859375" lon="6.72810581512749195098876953125">
        <ele>1942.5999755859375</ele>
        <time>2026-09-03T05:15:29.000Z</time>
        <extensions>
          <ns3:TrackPointExtension>
            <ns3:hr>97</ns3:hr>
            <ns3:cad>0</ns3:cad>
          </ns3:TrackPointExtension>
        </extensions>
      </trkpt>
      <trkpt lat="44.71965475939214229583740234375" lon="6.72812475822865962982177734375">
        <ele>1942.199951171875</ele>
        <time>2026-09-03T05:15:30.000Z</time>
        <extensions>
          <ns3:TrackPointExtension>
            <ns3:hr>97</ns3:hr>
            <ns3:cad>0</ns3:cad>
          </ns3:TrackPointExtension>
        </extensions>
      </trkpt>
      <trkpt lat="44.7196560166776180267333984375" lon="6.7281377501785755157470703125">
        <ele>1942</ele>
        <time>2026-09-03T05:15:31.000Z</time>
        <extensions>
          <ns3:TrackPointExtension>
            <ns3:hr>97</ns3:hr>
            <ns3:cad>0</ns3:cad>
          </ns3:TrackPointExtension>
        </extensions>
      </trkpt>
      <trkpt lat="44.71965660341084003448486328125" lon="6.7281456291675567626953125">
        <ele>1941.5999755859375</ele>
        <time>2026-09-03T05:15:32.000Z</time>
        <extensions>
          <ns3:TrackPointExtension>
            <ns3:hr>97</ns3:hr>
            <ns3:cad>0</ns3:cad>
          </ns3:TrackPointExtension>
        </extensions>
      </trkpt>
      <trkpt lat="44.71965895034372806549072265625" lon="6.7281622253358364105224609375">
        <ele>1941.4000244140625</ele>
        <time>2026-09-03T05:15:33.000Z</time>
        <extensions>
          <ns3:TrackPointExtension>
            <ns3:hr>97</ns3:hr>
            <ns3:cad>76</ns3:cad>
          </ns3:TrackPointExtension>
        </extensions>
      </trkpt>
      <trkpt lat="44.719654507935047149658203125" lon="6.7281816713511943817138671875">
        <ele>1941.199951171875</ele>
        <time>2026-09-03T05:15:34.000Z</time>
        <extensions>
          <ns3:TrackPointExtension>
            <ns3:hr>97</ns3:hr>
            <ns3:cad>76</ns3:cad>
          </ns3:TrackPointExtension>
        </extensions>
      </trkpt>
      <trkpt lat="44.71965006552636623382568359375" lon="6.7281997762620449066162109375">
        <ele>1940.800048828125</ele>
        <time>2026-09-03T05:15:35.000Z</time>
        <extensions>
          <ns3:TrackPointExtension>
            <ns3:hr>97</ns3:hr>
            <ns3:cad>76</ns3:cad>
          </ns3:TrackPointExtension>
        </extensions>
      </trkpt>
      <trkpt lat="44.71964084543287754058837890625" lon="6.72820254229009151458740234375">
        <ele>1940.5999755859375</ele>
        <time>2026-09-03T05:15:36.000Z</time>
        <extensions>
          <ns3:TrackPointExtension>
            <ns3:hr>97</ns3:hr>
            <ns3:cad>76</ns3:cad>
          </ns3:TrackPointExtension>
        </extensions>
      </trkpt>
      <trkpt lat="44.71963531337678432464599609375" lon="6.72820455394685268402099609375">
        <ele>1940.4000244140625</ele>
        <time>2026-09-03T05:15:37.000Z</time>
        <extensions>
          <ns3:TrackPointExtension>
            <ns3:hr>97</ns3:hr>
            <ns3:cad>75</ns3:cad>
          </ns3:TrackPointExtension>
        </extensions>
      </trkpt>
      <trkpt lat="44.7196369059383869171142578125" lon="6.72821545042097568511962890625">
        <ele>1940.199951171875</ele>
        <time>2026-09-03T05:15:38.000Z</time>
        <extensions>
          <ns3:TrackPointExtension>
            <ns3:hr>97</ns3:hr>
            <ns3:cad>75</ns3:cad>
          </ns3:TrackPointExtension>
        </extensions>
      </trkpt>
      <trkpt lat="44.71963849849998950958251953125" lon="6.72823657281696796417236328125">
        <ele>1940</ele>
        <time>2026-09-03T05:15:39.000Z</time>
        <extensions>
          <ns3:TrackPointExtension>
            <ns3:hr>98</ns3:hr>
            <ns3:cad>75</ns3:cad>
          </ns3:TrackPointExtension>
        </extensions>
      </trkpt>
      <trkpt lat="44.71964101307094097137451171875" lon="6.7282470501959323883056640625">
        <ele>1939.5999755859375</ele>
        <time>2026-09-03T05:15:40.000Z</time>
        <extensions>
          <ns3:TrackPointExtension>
            <ns3:hr>98</ns3:hr>
            <ns3:cad>75</ns3:cad>
          </ns3:TrackPointExtension>
        </extensions>
      </trkpt>
      <trkpt lat="44.7196426056325435638427734375" lon="6.72826691530644893646240234375">
        <ele>1939.4000244140625</ele>
        <time>2026-09-03T05:15:41.000Z</time>
        <extensions>
          <ns3:TrackPointExtension>
            <ns3:hr>98</ns3:hr>
            <ns3:cad>75</ns3:cad>
          </ns3:TrackPointExtension>
        </extensions>
      </trkpt>
      <trkpt lat="44.71964637748897075653076171875" lon="6.7282931506633758544921875">
        <ele>1939</ele>
        <time>2026-09-03T05:15:42.000Z</time>
        <extensions>
          <ns3:TrackPointExtension>
            <ns3:hr>98</ns3:hr>
            <ns3:cad>75</ns3:cad>
          </ns3:TrackPointExtension>
        </extensions>
      </trkpt>
      <trkpt lat="44.7196436114609241485595703125" lon="6.728308238089084625244140625">
        <ele>1938.5999755859375</ele>
        <time>2026-09-03T05:15:43.000Z</time>
        <extensions>
          <ns3:TrackPointExtension>
            <ns3:hr>98</ns3:hr>
            <ns3:cad>75</ns3:cad>
          </ns3:TrackPointExtension>
        </extensions>
      </trkpt>
      <trkpt lat="44.71963648684322834014892578125" lon="6.7283332161605358123779296875">
        <ele>1938.199951171875</ele>
        <time>2026-09-03T05:15:44.000Z</time>
        <extensions>
          <ns3:TrackPointExtension>
            <ns3:hr>98</ns3:hr>
            <ns3:cad>75</ns3:cad>
          </ns3:TrackPointExtension>
        </extensions>
      </trkpt>
      <trkpt lat="44.7196365706622600555419921875" lon="6.72835995443165302276611328125">
        <ele>1937.800048828125</ele>
        <time>2026-09-03T05:15:45.000Z</time>
        <extensions>
          <ns3:TrackPointExtension>
            <ns3:hr>98</ns3:hr>
            <ns3:cad>75</ns3:cad>
          </ns3:TrackPointExtension>
        </extensions>
      </trkpt>
      <trkpt lat="44.7196359001100063323974609375" lon="6.72837923280894756317138671875">
        <ele>1937.4000244140625</ele>
        <time>2026-09-03T05:15:46.000Z</time>
        <extensions>
          <ns3:TrackPointExtension>
            <ns3:hr>98</ns3:hr>
            <ns3:cad>75</ns3:cad>
          </ns3:TrackPointExtension>
        </extensions>
      </trkpt>
      <trkpt lat="44.71963472664356231689453125" lon="6.72840756364166736602783203125">
        <ele>1937.199951171875</ele>
        <time>2026-09-03T05:15:47.000Z</time>
        <extensions>
          <ns3:TrackPointExtension>
            <ns3:hr>98</ns3:hr>
            <ns3:cad>75</ns3:cad>
          </ns3:TrackPointExtension>
        </extensions>
      </trkpt>
      <trkpt lat="44.71963606774806976318359375" lon="6.72843371517956256866455078125">
        <ele>1936.800048828125</ele>
        <time>2026-09-03T05:15:48.000Z</time>
        <extensions>
          <ns3:TrackPointExtension>
            <ns3:hr>98</ns3:hr>
            <ns3:cad>0</ns3:cad>
          </ns3:TrackPointExtension>
        </extensions>
      </trkpt>
      <trkpt lat="44.7196359001100063323974609375" lon="6.72844880260527133941650390625">
        <ele>1936.4000244140625</ele>
        <time>2026-09-03T05:15:49.000Z</time>
        <extensions>
          <ns3:TrackPointExtension>
            <ns3:hr>99</ns3:hr>
            <ns3:cad>0</ns3:cad>
          </ns3:TrackPointExtension>
        </extensions>
      </trkpt>
      <trkpt lat="44.7196327149868011474609375" lon="6.72847126610577106475830078125">
        <ele>1936</ele>
        <time>2026-09-03T05:15:50.000Z</time>
        <extensions>
          <ns3:TrackPointExtension>
            <ns3:hr>99</ns3:hr>
            <ns3:cad>79</ns3:cad>
          </ns3:TrackPointExtension>
        </extensions>
      </trkpt>
      <trkpt lat="44.7196379117667675018310546875" lon="6.72848953865468502044677734375">
        <ele>1935.800048828125</ele>
        <time>2026-09-03T05:15:51.000Z</time>
        <extensions>
          <ns3:TrackPointExtension>
            <ns3:hr>99</ns3:hr>
            <ns3:cad>79</ns3:cad>
          </ns3:TrackPointExtension>
        </extensions>
      </trkpt>
      <trkpt lat="44.7196422703564167022705078125" lon="6.728503368794918060302734375">
        <ele>1935.5999755859375</ele>
        <time>2026-09-03T05:15:52.000Z</time>
        <extensions>
          <ns3:TrackPointExtension>
            <ns3:hr>99</ns3:hr>
            <ns3:cad>79</ns3:cad>
          </ns3:TrackPointExtension>
        </extensions>
      </trkpt>
      <trkpt lat="44.71964545547962188720703125" lon="6.72851183451712131500244140625">
        <ele>1935.4000244140625</ele>
        <time>2026-09-03T05:15:53.000Z</time>
        <extensions>
          <ns3:TrackPointExtension>
            <ns3:hr>99</ns3:hr>
            <ns3:cad>77</ns3:cad>
          </ns3:TrackPointExtension>
        </extensions>
      </trkpt>
      <trkpt lat="44.71964419819414615631103515625" lon="6.72853144817054271697998046875">
        <ele>1935.4000244140625</ele>
        <time>2026-09-03T05:15:54.000Z</time>
        <extensions>
          <ns3:TrackPointExtension>
            <ns3:hr>99</ns3:hr>
            <ns3:cad>77</ns3:cad>
          </ns3:TrackPointExtension>
        </extensions>
      </trkpt>
      <trkpt lat="44.719639085233211517333984375" lon="6.72854687087237834930419921875">
        <ele>1935.199951171875</ele>
        <time>2026-09-03T05:15:55.000Z</time>
        <extensions>
          <ns3:TrackPointExtension>
            <ns3:hr>100</ns3:hr>
            <ns3:cad>80</ns3:cad>
          </ns3:TrackPointExtension>
        </extensions>
      </trkpt>
      <trkpt lat="44.71963967196643352508544921875" lon="6.72855198383331298828125">
        <ele>1934.800048828125</ele>
        <time>2026-09-03T05:15:56.000Z</time>
        <extensions>
          <ns3:TrackPointExtension>
            <ns3:hr>99</ns3:hr>
            <ns3:cad>82</ns3:cad>
          </ns3:TrackPointExtension>
        </extensions>
      </trkpt>
      <trkpt lat="44.71964252181351184844970703125" lon="6.7285551689565181732177734375">
        <ele>1934.5999755859375</ele>
        <time>2026-09-03T05:15:57.000Z</time>
        <extensions>
          <ns3:TrackPointExtension>
            <ns3:hr>99</ns3:hr>
            <ns3:cad>82</ns3:cad>
          </ns3:TrackPointExtension>
        </extensions>
      </trkpt>
      <trkpt lat="44.7196429409086704254150390625" lon="6.7285715974867343902587890625">
        <ele>1934.199951171875</ele>
        <time>2026-09-03T05:15:58.000Z</time>
        <extensions>
          <ns3:TrackPointExtension>
            <ns3:hr>100</ns3:hr>
            <ns3:cad>82</ns3:cad>
          </ns3:TrackPointExtension>
        </extensions>
      </trkpt>
      <trkpt lat="44.719654507935047149658203125" lon="6.7286044545471668243408203125">
        <ele>1933.800048828125</ele>
        <time>2026-09-03T05:15:59.000Z</time>
        <extensions>
          <ns3:TrackPointExtension>
            <ns3:hr>100</ns3:hr>
            <ns3:cad>82</ns3:cad>
          </ns3:TrackPointExtension>
        </extensions>
      </trkpt>
      <trkpt lat="44.7196643985807895660400390625" lon="6.72861694358289241790771484375">
        <ele>1933.4000244140625</ele>
        <time>2026-09-03T05:16:00.000Z</time>
        <extensions>
          <ns3:TrackPointExtension>
            <ns3:hr>100</ns3:hr>
            <ns3:cad>82</ns3:cad>
          </ns3:TrackPointExtension>
        </extensions>
      </trkpt>
      <trkpt lat="44.7196744568645954132080078125" lon="6.72863923944532871246337890625">
        <ele>1933.199951171875</ele>
        <time>2026-09-03T05:16:01.000Z</time>
        <extensions>
          <ns3:TrackPointExtension>
            <ns3:hr>100</ns3:hr>
            <ns3:cad>82</ns3:cad>
          </ns3:TrackPointExtension>
        </extensions>
      </trkpt>
      <trkpt lat="44.7196801565587520599365234375" lon="6.7286691628396511077880859375">
        <ele>1932.800048828125</ele>
        <time>2026-09-03T05:16:02.000Z</time>
        <extensions>
          <ns3:TrackPointExtension>
            <ns3:hr>100</ns3:hr>
            <ns3:cad>82</ns3:cad>
          </ns3:TrackPointExtension>
        </extensions>
      </trkpt>
      <trkpt lat="44.719684012234210968017578125" lon="6.7286909557878971099853515625">
        <ele>1932.4000244140625</ele>
        <time>2026-09-03T05:16:03.000Z</time>
        <extensions>
          <ns3:TrackPointExtension>
            <ns3:hr>100</ns3:hr>
            <ns3:cad>73</ns3:cad>
          </ns3:TrackPointExtension>
        </extensions>
      </trkpt>
      <trkpt lat="44.71968702971935272216796875" lon="6.7287083901464939117431640625">
        <ele>1932</ele>
        <time>2026-09-03T05:16:04.000Z</time>
        <extensions>
          <ns3:TrackPointExtension>
            <ns3:hr>101</ns3:hr>
            <ns3:cad>73</ns3:cad>
          </ns3:TrackPointExtension>
        </extensions>
      </trkpt>
      <trkpt lat="44.71968962810933589935302734375" lon="6.72874921001493930816650390625">
        <ele>1931.800048828125</ele>
        <time>2026-09-03T05:16:05.000Z</time>
        <extensions>
          <ns3:TrackPointExtension>
            <ns3:hr>100</ns3:hr>
            <ns3:cad>79</ns3:cad>
          </ns3:TrackPointExtension>
        </extensions>
      </trkpt>
      <trkpt lat="44.7196794860064983367919921875" lon="6.7287717573344707489013671875">
        <ele>1931.5999755859375</ele>
        <time>2026-09-03T05:16:06.000Z</time>
        <extensions>
          <ns3:TrackPointExtension>
            <ns3:hr>100</ns3:hr>
            <ns3:cad>79</ns3:cad>
          </ns3:TrackPointExtension>
        </extensions>
      </trkpt>
      <trkpt lat="44.7196747921407222747802734375" lon="6.728791706264019012451171875">
        <ele>1931.4000244140625</ele>
        <time>2026-09-03T05:16:07.000Z</time>
        <extensions>
          <ns3:TrackPointExtension>
            <ns3:hr>100</ns3:hr>
            <ns3:cad>79</ns3:cad>
          </ns3:TrackPointExtension>
        </extensions>
      </trkpt>
      <trkpt lat="44.71966825425624847412109375" lon="6.728806793689727783203125">
        <ele>1931.4000244140625</ele>
        <time>2026-09-03T05:16:08.000Z</time>
        <extensions>
          <ns3:TrackPointExtension>
            <ns3:hr>101</ns3:hr>
            <ns3:cad>80</ns3:cad>
          </ns3:TrackPointExtension>
        </extensions>
      </trkpt>
      <trkpt lat="44.71967655234038829803466796875" lon="6.72882615588605403900146484375">
        <ele>1931.199951171875</ele>
        <time>2026-09-03T05:16:09.000Z</time>
        <extensions>
          <ns3:TrackPointExtension>
            <ns3:hr>101</ns3:hr>
            <ns3:cad>81</ns3:cad>
          </ns3:TrackPointExtension>
        </extensions>
      </trkpt>
      <trkpt lat="44.719677977263927459716796875" lon="6.7288465239107608795166015625">
        <ele>1931</ele>
        <time>2026-09-03T05:16:10.000Z</time>
        <extensions>
          <ns3:TrackPointExtension>
            <ns3:hr>101</ns3:hr>
            <ns3:cad>82</ns3:cad>
          </ns3:TrackPointExtension>
        </extensions>
      </trkpt>
      <trkpt lat="44.7196871973574161529541015625" lon="6.72887175343930721282958984375">
        <ele>1930.800048828125</ele>
        <time>2026-09-03T05:16:11.000Z</time>
        <extensions>
          <ns3:TrackPointExtension>
            <ns3:hr>101</ns3:hr>
            <ns3:cad>82</ns3:cad>
          </ns3:TrackPointExtension>
        </extensions>
      </trkpt>
      <trkpt lat="44.71968728117644786834716796875" lon="6.72889740206301212310791015625">
        <ele>1930.5999755859375</ele>
        <time>2026-09-03T05:16:12.000Z</time>
        <extensions>
          <ns3:TrackPointExtension>
            <ns3:hr>101</ns3:hr>
            <ns3:cad>81</ns3:cad>
          </ns3:TrackPointExtension>
        </extensions>
      </trkpt>
      <trkpt lat="44.71968677826225757598876953125" lon="6.72892439179122447967529296875">
        <ele>1930.199951171875</ele>
        <time>2026-09-03T05:16:13.000Z</time>
        <extensions>
          <ns3:TrackPointExtension>
            <ns3:hr>102</ns3:hr>
            <ns3:cad>80</ns3:cad>
          </ns3:TrackPointExtension>
        </extensions>
      </trkpt>
      <trkpt lat="44.7196892090141773223876953125" lon="6.72894517891108989715576171875">
        <ele>1930</ele>
        <time>2026-09-03T05:16:14.000Z</time>
        <extensions>
          <ns3:TrackPointExtension>
            <ns3:hr>102</ns3:hr>
            <ns3:cad>80</ns3:cad>
          </ns3:TrackPointExtension>
        </extensions>
      </trkpt>
      <trkpt lat="44.71969717182219028472900390625" lon="6.72897485084831714630126953125">
        <ele>1929.800048828125</ele>
        <time>2026-09-03T05:16:15.000Z</time>
        <extensions>
          <ns3:TrackPointExtension>
            <ns3:hr>102</ns3:hr>
            <ns3:cad>80</ns3:cad>
          </ns3:TrackPointExtension>
        </extensions>
      </trkpt>
      <trkpt lat="44.71970588900148868560791015625" lon="6.72899329103529453277587890625">
        <ele>1929.5999755859375</ele>
        <time>2026-09-03T05:16:16.000Z</time>
        <extensions>
          <ns3:TrackPointExtension>
            <ns3:hr>102</ns3:hr>
            <ns3:cad>76</ns3:cad>
          </ns3:TrackPointExtension>
        </extensions>
      </trkpt>
      <trkpt lat="44.7197143547236919403076171875" lon="6.7290289141237735748291015625">
        <ele>1929.4000244140625</ele>
        <time>2026-09-03T05:16:17.000Z</time>
        <extensions>
          <ns3:TrackPointExtension>
            <ns3:hr>102</ns3:hr>
            <ns3:cad>76</ns3:cad>
          </ns3:TrackPointExtension>
        </extensions>
      </trkpt>
      <trkpt lat="44.71971494145691394805908203125" lon="6.729053892195224761962890625">
        <ele>1929.199951171875</ele>
        <time>2026-09-03T05:16:18.000Z</time>
        <extensions>
          <ns3:TrackPointExtension>
            <ns3:hr>101</ns3:hr>
            <ns3:cad>76</ns3:cad>
          </ns3:TrackPointExtension>
        </extensions>
      </trkpt>
      <trkpt lat="44.719717539846897125244140625" lon="6.7290684767067432403564453125">
        <ele>1928.800048828125</ele>
        <time>2026-09-03T05:16:19.000Z</time>
        <extensions>
          <ns3:TrackPointExtension>
            <ns3:hr>101</ns3:hr>
            <ns3:cad>0</ns3:cad>
          </ns3:TrackPointExtension>
        </extensions>
      </trkpt>
      <trkpt lat="44.71971946768462657928466796875" lon="6.72909135930240154266357421875">
        <ele>1928.5999755859375</ele>
        <time>2026-09-03T05:16:20.000Z</time>
        <extensions>
          <ns3:TrackPointExtension>
            <ns3:hr>101</ns3:hr>
            <ns3:cad>0</ns3:cad>
          </ns3:TrackPointExtension>
        </extensions>
      </trkpt>
      <trkpt lat="44.71972550265491008758544921875" lon="6.729105524718761444091796875">
        <ele>1928.199951171875</ele>
        <time>2026-09-03T05:16:21.000Z</time>
        <extensions>
          <ns3:TrackPointExtension>
            <ns3:hr>100</ns3:hr>
            <ns3:cad>0</ns3:cad>
          </ns3:TrackPointExtension>
        </extensions>
      </trkpt>
      <trkpt lat="44.71972458064556121826171875" lon="6.72911818139255046844482421875">
        <ele>1927.800048828125</ele>
        <time>2026-09-03T05:16:22.000Z</time>
        <extensions>
          <ns3:TrackPointExtension>
            <ns3:hr>101</ns3:hr>
            <ns3:cad>61</ns3:cad>
          </ns3:TrackPointExtension>
        </extensions>
      </trkpt>
      <trkpt lat="44.71972189843654632568359375" lon="6.729139052331447601318359375">
        <ele>1927.4000244140625</ele>
        <time>2026-09-03T05:16:23.000Z</time>
        <extensions>
          <ns3:TrackPointExtension>
            <ns3:hr>101</ns3:hr>
            <ns3:cad>61</ns3:cad>
          </ns3:TrackPointExtension>
        </extensions>
      </trkpt>
      <trkpt lat="44.719720892608165740966796875" lon="6.7291516251862049102783203125">
        <ele>1927</ele>
        <time>2026-09-03T05:16:24.000Z</time>
        <extensions>
          <ns3:TrackPointExtension>
            <ns3:hr>101</ns3:hr>
            <ns3:cad>61</ns3:cad>
          </ns3:TrackPointExtension>
        </extensions>
      </trkpt>
      <trkpt lat="44.71971896477043628692626953125" lon="6.72916914336383342742919921875">
        <ele>1926.5999755859375</ele>
        <time>2026-09-03T05:16:25.000Z</time>
        <extensions>
          <ns3:TrackPointExtension>
            <ns3:hr>100</ns3:hr>
            <ns3:cad>61</ns3:cad>
          </ns3:TrackPointExtension>
        </extensions>
      </trkpt>
      <trkpt lat="44.71971963532269001007080078125" lon="6.7291861586272716522216796875">
        <ele>1926.4000244140625</ele>
        <time>2026-09-03T05:16:26.000Z</time>
        <extensions>
          <ns3:TrackPointExtension>
            <ns3:hr>101</ns3:hr>
            <ns3:cad>61</ns3:cad>
          </ns3:TrackPointExtension>
        </extensions>
      </trkpt>
      <trkpt lat="44.71972189843654632568359375" lon="6.7292022518813610076904296875">
        <ele>1926</ele>
        <time>2026-09-03T05:16:27.000Z</time>
        <extensions>
          <ns3:TrackPointExtension>
            <ns3:hr>101</ns3:hr>
            <ns3:cad>61</ns3:cad>
          </ns3:TrackPointExtension>
        </extensions>
      </trkpt>
      <trkpt lat="44.71972382627427577972412109375" lon="6.72921809367835521697998046875">
        <ele>1925.5999755859375</ele>
        <time>2026-09-03T05:16:28.000Z</time>
        <extensions>
          <ns3:TrackPointExtension>
            <ns3:hr>101</ns3:hr>
            <ns3:cad>61</ns3:cad>
          </ns3:TrackPointExtension>
        </extensions>
      </trkpt>
      <trkpt lat="44.719722904264926910400390625" lon="6.7292364500463008880615234375">
        <ele>1925.4000244140625</ele>
        <time>2026-09-03T05:16:29.000Z</time>
        <extensions>
          <ns3:TrackPointExtension>
            <ns3:hr>102</ns3:hr>
            <ns3:cad>61</ns3:cad>
          </ns3:TrackPointExtension>
        </extensions>
      </trkpt>
      <trkpt lat="44.71972617320716381072998046875" lon="6.72925514169037342071533203125">
        <ele>1925.199951171875</ele>
        <time>2026-09-03T05:16:30.000Z</time>
        <extensions>
          <ns3:TrackPointExtension>
            <ns3:hr>102</ns3:hr>
            <ns3:cad>61</ns3:cad>
          </ns3:TrackPointExtension>
        </extensions>
      </trkpt>
      <trkpt lat="44.71972935833036899566650390625" lon="6.72928129322826862335205078125">
        <ele>1925</ele>
        <time>2026-09-03T05:16:31.000Z</time>
        <extensions>
          <ns3:TrackPointExtension>
            <ns3:hr>102</ns3:hr>
            <ns3:cad>78</ns3:cad>
          </ns3:TrackPointExtension>
        </extensions>
      </trkpt>
      <trkpt lat="44.7197317890822887420654296875" lon="6.72930912114679813385009765625">
        <ele>1925</ele>
        <time>2026-09-03T05:16:32.000Z</time>
        <extensions>
          <ns3:TrackPointExtension>
            <ns3:hr>103</ns3:hr>
            <ns3:cad>78</ns3:cad>
          </ns3:TrackPointExtension>
        </extensions>
      </trkpt>
      <trkpt lat="44.71973371692001819610595703125" lon="6.7293298244476318359375">
        <ele>1924.5999755859375</ele>
        <time>2026-09-03T05:16:33.000Z</time>
        <extensions>
          <ns3:TrackPointExtension>
            <ns3:hr>103</ns3:hr>
            <ns3:cad>78</ns3:cad>
          </ns3:TrackPointExtension>
        </extensions>
      </trkpt>
      <trkpt lat="44.71973706968128681182861328125" lon="6.72935555689036846160888671875">
        <ele>1924.4000244140625</ele>
        <time>2026-09-03T05:16:34.000Z</time>
        <extensions>
          <ns3:TrackPointExtension>
            <ns3:hr>102</ns3:hr>
            <ns3:cad>78</ns3:cad>
          </ns3:TrackPointExtension>
        </extensions>
      </trkpt>
      <trkpt lat="44.719754755496978759765625" lon="6.72937743365764617919921875">
        <ele>1924.199951171875</ele>
        <time>2026-09-03T05:16:35.000Z</time>
        <extensions>
          <ns3:TrackPointExtension>
            <ns3:hr>102</ns3:hr>
            <ns3:cad>78</ns3:cad>
          </ns3:TrackPointExtension>
        </extensions>
      </trkpt>
      <trkpt lat="44.719761796295642852783203125" lon="6.7293982207775115966796875">
        <ele>1923.800048828125</ele>
        <time>2026-09-03T05:16:36.000Z</time>
        <extensions>
          <ns3:TrackPointExtension>
            <ns3:hr>101</ns3:hr>
            <ns3:cad>78</ns3:cad>
          </ns3:TrackPointExtension>
        </extensions>
      </trkpt>
      <trkpt lat="44.71976615488529205322265625" lon="6.72942143864929676055908203125">
        <ele>1923.5999755859375</ele>
        <time>2026-09-03T05:16:37.000Z</time>
        <extensions>
          <ns3:TrackPointExtension>
            <ns3:hr>101</ns3:hr>
            <ns3:cad>0</ns3:cad>
          </ns3:TrackPointExtension>
        </extensions>
      </trkpt>
      <trkpt lat="44.7197686694562435150146484375" lon="6.72943912446498870849609375">
        <ele>1923.199951171875</ele>
        <time>2026-09-03T05:16:38.000Z</time>
        <extensions>
          <ns3:TrackPointExtension>
            <ns3:hr>100</ns3:hr>
            <ns3:cad>0</ns3:cad>
          </ns3:TrackPointExtension>
        </extensions>
      </trkpt>
      <trkpt lat="44.719768501818180084228515625" lon="6.7294590733945369720458984375">
        <ele>1923</ele>
        <time>2026-09-03T05:16:39.000Z</time>
        <extensions>
          <ns3:TrackPointExtension>
            <ns3:hr>100</ns3:hr>
            <ns3:cad>0</ns3:cad>
          </ns3:TrackPointExtension>
        </extensions>
      </trkpt>
      <trkpt lat="44.71976841799914836883544921875" lon="6.72947131097316741943359375">
        <ele>1922.5999755859375</ele>
        <time>2026-09-03T05:16:40.000Z</time>
        <extensions>
          <ns3:TrackPointExtension>
            <ns3:hr>100</ns3:hr>
            <ns3:cad>0</ns3:cad>
          </ns3:TrackPointExtension>
        </extensions>
      </trkpt>
      <trkpt lat="44.719773866236209869384765625" lon="6.729495786130428314208984375">
        <ele>1922.199951171875</ele>
        <time>2026-09-03T05:16:41.000Z</time>
        <extensions>
          <ns3:TrackPointExtension>
            <ns3:hr>101</ns3:hr>
            <ns3:cad>0</ns3:cad>
          </ns3:TrackPointExtension>
        </extensions>
      </trkpt>
      <trkpt lat="44.7197750397026538848876953125" lon="6.72951632179319858551025390625">
        <ele>1921.800048828125</ele>
        <time>2026-09-03T05:16:42.000Z</time>
        <extensions>
          <ns3:TrackPointExtension>
            <ns3:hr>101</ns3:hr>
            <ns3:cad>0</ns3:cad>
          </ns3:TrackPointExtension>
        </extensions>
      </trkpt>
      <trkpt lat="44.7197780571877956390380859375" lon="6.7295402102172374725341796875">
        <ele>1921.4000244140625</ele>
        <time>2026-09-03T05:16:43.000Z</time>
        <extensions>
          <ns3:TrackPointExtension>
            <ns3:hr>101</ns3:hr>
            <ns3:cad>0</ns3:cad>
          </ns3:TrackPointExtension>
        </extensions>
      </trkpt>
      <trkpt lat="44.7197777219116687774658203125" lon="6.72956242226064205169677734375">
        <ele>1921</ele>
        <time>2026-09-03T05:16:44.000Z</time>
        <extensions>
          <ns3:TrackPointExtension>
            <ns3:hr>102</ns3:hr>
            <ns3:cad>0</ns3:cad>
          </ns3:TrackPointExtension>
        </extensions>
      </trkpt>
      <trkpt lat="44.71977579407393932342529296875" lon="6.729582287371158599853515625">
        <ele>1920.800048828125</ele>
        <time>2026-09-03T05:16:45.000Z</time>
        <extensions>
          <ns3:TrackPointExtension>
            <ns3:hr>102</ns3:hr>
            <ns3:cad>0</ns3:cad>
          </ns3:TrackPointExtension>
        </extensions>
      </trkpt>
      <trkpt lat="44.719779230654239654541015625" lon="6.7296169884502887725830078125">
        <ele>1920.4000244140625</ele>
        <time>2026-09-03T05:16:46.000Z</time>
        <extensions>
          <ns3:TrackPointExtension>
            <ns3:hr>103</ns3:hr>
            <ns3:cad>43</ns3:cad>
          </ns3:TrackPointExtension>
        </extensions>
      </trkpt>
      <trkpt lat="44.71978493034839630126953125" lon="6.7296444810926914215087890625">
        <ele>1920.199951171875</ele>
        <time>2026-09-03T05:16:47.000Z</time>
        <extensions>
          <ns3:TrackPointExtension>
            <ns3:hr>103</ns3:hr>
            <ns3:cad>43</ns3:cad>
          </ns3:TrackPointExtension>
        </extensions>
      </trkpt>
      <trkpt lat="44.71978870220482349395751953125" lon="6.72966719605028629302978515625">
        <ele>1919.800048828125</ele>
        <time>2026-09-03T05:16:48.000Z</time>
        <extensions>
          <ns3:TrackPointExtension>
            <ns3:hr>104</ns3:hr>
            <ns3:cad>43</ns3:cad>
          </ns3:TrackPointExtension>
        </extensions>
      </trkpt>
      <trkpt lat="44.71979121677577495574951171875" lon="6.729682199656963348388671875">
        <ele>1919.5999755859375</ele>
        <time>2026-09-03T05:16:49.000Z</time>
        <extensions>
          <ns3:TrackPointExtension>
            <ns3:hr>104</ns3:hr>
            <ns3:cad>76</ns3:cad>
          </ns3:TrackPointExtension>
        </extensions>
      </trkpt>
      <trkpt lat="44.719791971147060394287109375" lon="6.72969334758818149566650390625">
        <ele>1919.199951171875</ele>
        <time>2026-09-03T05:16:50.000Z</time>
        <extensions>
          <ns3:TrackPointExtension>
            <ns3:hr>105</ns3:hr>
            <ns3:cad>76</ns3:cad>
          </ns3:TrackPointExtension>
        </extensions>
      </trkpt>
      <trkpt lat="44.7197820805013179779052734375" lon="6.729714386165142059326171875">
        <ele>1919</ele>
        <time>2026-09-03T05:16:51.000Z</time>
        <extensions>
          <ns3:TrackPointExtension>
            <ns3:hr>105</ns3:hr>
            <ns3:cad>76</ns3:cad>
          </ns3:TrackPointExtension>
        </extensions>
      </trkpt>
      <trkpt lat="44.71978090703487396240234375" lon="6.72972888685762882232666015625">
        <ele>1918.800048828125</ele>
        <time>2026-09-03T05:16:52.000Z</time>
        <extensions>
          <ns3:TrackPointExtension>
            <ns3:hr>105</ns3:hr>
            <ns3:cad>76</ns3:cad>
          </ns3:TrackPointExtension>
        </extensions>
      </trkpt>
      <trkpt lat="44.719776213169097900390625" lon="6.7297470755875110626220703125">
        <ele>1918.4000244140625</ele>
        <time>2026-09-03T05:16:53.000Z</time>
        <extensions>
          <ns3:TrackPointExtension>
            <ns3:hr>105</ns3:hr>
            <ns3:cad>76</ns3:cad>
          </ns3:TrackPointExtension>
        </extensions>
      </trkpt>
      <trkpt lat="44.71977344714105129241943359375" lon="6.7297630012035369873046875">
        <ele>1918</ele>
        <time>2026-09-03T05:16:54.000Z</time>
        <extensions>
          <ns3:TrackPointExtension>
            <ns3:hr>105</ns3:hr>
            <ns3:cad>78</ns3:cad>
          </ns3:TrackPointExtension>
        </extensions>
      </trkpt>
      <trkpt lat="44.719768501818180084228515625" lon="6.72977708280086517333984375">
        <ele>1917.5999755859375</ele>
        <time>2026-09-03T05:16:55.000Z</time>
        <extensions>
          <ns3:TrackPointExtension>
            <ns3:hr>105</ns3:hr>
            <ns3:cad>79</ns3:cad>
          </ns3:TrackPointExtension>
        </extensions>
      </trkpt>
      <trkpt lat="44.7197679989039897918701171875" lon="6.72978487797081470489501953125">
        <ele>1917.4000244140625</ele>
        <time>2026-09-03T05:16:56.000Z</time>
        <extensions>
          <ns3:TrackPointExtension>
            <ns3:hr>105</ns3:hr>
            <ns3:cad>79</ns3:cad>
          </ns3:TrackPointExtension>
        </extensions>
      </trkpt>
      <trkpt lat="44.71976791508495807647705078125" lon="6.7297930084168910980224609375">
        <ele>1917</ele>
        <time>2026-09-03T05:16:57.000Z</time>
        <extensions>
          <ns3:TrackPointExtension>
            <ns3:hr>105</ns3:hr>
            <ns3:cad>79</ns3:cad>
          </ns3:TrackPointExtension>
        </extensions>
      </trkpt>
      <trkpt lat="44.7197646461427211761474609375" lon="6.72979854047298431396484375">
        <ele>1916.800048828125</ele>
        <time>2026-09-03T05:16:58.000Z</time>
        <extensions>
          <ns3:TrackPointExtension>
            <ns3:hr>104</ns3:hr>
            <ns3:cad>79</ns3:cad>
          </ns3:TrackPointExtension>
        </extensions>
      </trkpt>
      <trkpt lat="44.71976020373404026031494140625" lon="6.72980616800487041473388671875">
        <ele>1916.800048828125</ele>
        <time>2026-09-03T05:16:59.000Z</time>
        <extensions>
          <ns3:TrackPointExtension>
            <ns3:hr>103</ns3:hr>
            <ns3:cad>79</ns3:cad>
          </ns3:TrackPointExtension>
        </extensions>
      </trkpt>
      <trkpt lat="44.71975768916308879852294921875" lon="6.729812957346439361572265625">
        <ele>1916.5999755859375</ele>
        <time>2026-09-03T05:17:00.000Z</time>
        <extensions>
          <ns3:TrackPointExtension>
            <ns3:hr>103</ns3:hr>
            <ns3:cad>0</ns3:cad>
          </ns3:TrackPointExtension>
        </extensions>
      </trkpt>
      <trkpt lat="44.7197519056499004364013671875" lon="6.7298218421638011932373046875">
        <ele>1916.4000244140625</ele>
        <time>2026-09-03T05:17:01.000Z</time>
        <extensions>
          <ns3:TrackPointExtension>
            <ns3:hr>102</ns3:hr>
            <ns3:cad>0</ns3:cad>
          </ns3:TrackPointExtension>
        </extensions>
      </trkpt>
      <trkpt lat="44.7197468765079975128173828125" lon="6.72982946969568729400634765625">
        <ele>1916.199951171875</ele>
        <time>2026-09-03T05:17:02.000Z</time>
        <extensions>
          <ns3:TrackPointExtension>
            <ns3:hr>102</ns3:hr>
            <ns3:cad>0</ns3:cad>
          </ns3:TrackPointExtension>
        </extensions>
      </trkpt>
      <trkpt lat="44.71974545158445835113525390625" lon="6.72983818687498569488525390625">
        <ele>1916</ele>
        <time>2026-09-03T05:17:03.000Z</time>
        <extensions>
          <ns3:TrackPointExtension>
            <ns3:hr>102</ns3:hr>
            <ns3:cad>0</ns3:cad>
          </ns3:TrackPointExtension>
        </extensions>
      </trkpt>
      <trkpt lat="44.71973891369998455047607421875" lon="6.72984539531171321868896484375">
        <ele>1915.800048828125</ele>
        <time>2026-09-03T05:17:04.000Z</time>
        <extensions>
          <ns3:TrackPointExtension>
            <ns3:hr>102</ns3:hr>
            <ns3:cad>0</ns3:cad>
          </ns3:TrackPointExtension>
        </extensions>
      </trkpt>
      <trkpt lat="44.71973505802452564239501953125" lon="6.72985159792006015777587890625">
        <ele>1915.5999755859375</ele>
        <time>2026-09-03T05:17:05.000Z</time>
        <extensions>
          <ns3:TrackPointExtension>
            <ns3:hr>102</ns3:hr>
            <ns3:cad>62</ns3:cad>
          </ns3:TrackPointExtension>
        </extensions>
      </trkpt>
      <trkpt lat="44.7197319567203521728515625" lon="6.72985964454710483551025390625">
        <ele>1915.4000244140625</ele>
        <time>2026-09-03T05:17:06.000Z</time>
        <extensions>
          <ns3:TrackPointExtension>
            <ns3:hr>101</ns3:hr>
            <ns3:cad>63</ns3:cad>
          </ns3:TrackPointExtension>
        </extensions>
      </trkpt>
      <trkpt lat="44.71972935833036899566650390625" lon="6.72986819408833980560302734375">
        <ele>1915.199951171875</ele>
        <time>2026-09-03T05:17:07.000Z</time>
        <extensions>
          <ns3:TrackPointExtension>
            <ns3:hr>101</ns3:hr>
            <ns3:cad>63</ns3:cad>
          </ns3:TrackPointExtension>
        </extensions>
      </trkpt>
      <trkpt lat="44.7197260893881320953369140625" lon="6.72988026402890682220458984375">
        <ele>1915</ele>
        <time>2026-09-03T05:17:08.000Z</time>
        <extensions>
          <ns3:TrackPointExtension>
            <ns3:hr>101</ns3:hr>
            <ns3:cad>66</ns3:cad>
          </ns3:TrackPointExtension>
        </extensions>
      </trkpt>
      <trkpt lat="44.71972282044589519500732421875" lon="6.72989509999752044677734375">
        <ele>1914.800048828125</ele>
        <time>2026-09-03T05:17:09.000Z</time>
        <extensions>
          <ns3:TrackPointExtension>
            <ns3:hr>101</ns3:hr>
            <ns3:cad>66</ns3:cad>
          </ns3:TrackPointExtension>
        </extensions>
      </trkpt>
      <trkpt lat="44.7197212278842926025390625" lon="6.7299113608896732330322265625">
        <ele>1914.5999755859375</ele>
        <time>2026-09-03T05:17:10.000Z</time>
        <extensions>
          <ns3:TrackPointExtension>
            <ns3:hr>101</ns3:hr>
            <ns3:cad>66</ns3:cad>
          </ns3:TrackPointExtension>
        </extensions>
      </trkpt>
      <trkpt lat="44.71971762366592884063720703125" lon="6.72992820851504802703857421875">
        <ele>1914.199951171875</ele>
        <time>2026-09-03T05:17:11.000Z</time>
        <extensions>
          <ns3:TrackPointExtension>
            <ns3:hr>101</ns3:hr>
            <ns3:cad>0</ns3:cad>
          </ns3:TrackPointExtension>
        </extensions>
      </trkpt>
      <trkpt lat="44.71971930004656314849853515625" lon="6.72994933091104030609130859375">
        <ele>1914</ele>
        <time>2026-09-03T05:17:12.000Z</time>
        <extensions>
          <ns3:TrackPointExtension>
            <ns3:hr>100</ns3:hr>
            <ns3:cad>0</ns3:cad>
          </ns3:TrackPointExtension>
        </extensions>
      </trkpt>
      <trkpt lat="44.71971762366592884063720703125" lon="6.72997045330703258514404296875">
        <ele>1913.5999755859375</ele>
        <time>2026-09-03T05:17:13.000Z</time>
        <extensions>
          <ns3:TrackPointExtension>
            <ns3:hr>100</ns3:hr>
            <ns3:cad>0</ns3:cad>
          </ns3:TrackPointExtension>
        </extensions>
      </trkpt>
      <trkpt lat="44.7197187133133411407470703125" lon="6.729988642036914825439453125">
        <ele>1913.199951171875</ele>
        <time>2026-09-03T05:17:14.000Z</time>
        <extensions>
          <ns3:TrackPointExtension>
            <ns3:hr>100</ns3:hr>
            <ns3:cad>0</ns3:cad>
          </ns3:TrackPointExtension>
        </extensions>
      </trkpt>
      <trkpt lat="44.7197230719029903411865234375" lon="6.73001470975577831268310546875">
        <ele>1912.800048828125</ele>
        <time>2026-09-03T05:17:15.000Z</time>
        <extensions>
          <ns3:TrackPointExtension>
            <ns3:hr>99</ns3:hr>
            <ns3:cad>0</ns3:cad>
          </ns3:TrackPointExtension>
        </extensions>
      </trkpt>
      <trkpt lat="44.71972181461751461029052734375" lon="6.7300384305417537689208984375">
        <ele>1912.5999755859375</ele>
        <time>2026-09-03T05:17:16.000Z</time>
        <extensions>
          <ns3:TrackPointExtension>
            <ns3:hr>99</ns3:hr>
            <ns3:cad>0</ns3:cad>
          </ns3:TrackPointExtension>
        </extensions>
      </trkpt>
      <trkpt lat="44.7197240777313709259033203125" lon="6.73006500117480754852294921875">
        <ele>1912.199951171875</ele>
        <time>2026-09-03T05:17:17.000Z</time>
        <extensions>
          <ns3:TrackPointExtension>
            <ns3:hr>99</ns3:hr>
            <ns3:cad>0</ns3:cad>
          </ns3:TrackPointExtension>
        </extensions>
      </trkpt>
      <trkpt lat="44.71972919069230556488037109375" lon="6.73009366728365421295166015625">
        <ele>1912</ele>
        <time>2026-09-03T05:17:18.000Z</time>
        <extensions>
          <ns3:TrackPointExtension>
            <ns3:hr>99</ns3:hr>
            <ns3:cad>0</ns3:cad>
          </ns3:TrackPointExtension>
        </extensions>
      </trkpt>
      <trkpt lat="44.71973120234906673431396484375" lon="6.730120740830898284912109375">
        <ele>1911.5999755859375</ele>
        <time>2026-09-03T05:17:19.000Z</time>
        <extensions>
          <ns3:TrackPointExtension>
            <ns3:hr>100</ns3:hr>
            <ns3:cad>78</ns3:cad>
          </ns3:TrackPointExtension>
        </extensions>
      </trkpt>
      <trkpt lat="44.71973170526325702667236328125" lon="6.73014127649366855621337890625">
        <ele>1911.4000244140625</ele>
        <time>2026-09-03T05:17:20.000Z</time>
        <extensions>
          <ns3:TrackPointExtension>
            <ns3:hr>101</ns3:hr>
            <ns3:cad>80</ns3:cad>
          </ns3:TrackPointExtension>
        </extensions>
      </trkpt>
      <trkpt lat="44.71972885541617870330810546875" lon="6.73015594482421875">
        <ele>1911.199951171875</ele>
        <time>2026-09-03T05:17:21.000Z</time>
        <extensions>
          <ns3:TrackPointExtension>
            <ns3:hr>101</ns3:hr>
            <ns3:cad>80</ns3:cad>
          </ns3:TrackPointExtension>
        </extensions>
      </trkpt>
      <trkpt lat="44.71972952596843242645263671875" lon="6.73017128370702266693115234375">
        <ele>1911</ele>
        <time>2026-09-03T05:17:22.000Z</time>
        <extensions>
          <ns3:TrackPointExtension>
            <ns3:hr>101</ns3:hr>
            <ns3:cad>80</ns3:cad>
          </ns3:TrackPointExtension>
        </extensions>
      </trkpt>
      <trkpt lat="44.719716198742389678955078125" lon="6.73018477857112884521484375">
        <ele>1910.800048828125</ele>
        <time>2026-09-03T05:17:23.000Z</time>
        <extensions>
          <ns3:TrackPointExtension>
            <ns3:hr>102</ns3:hr>
            <ns3:cad>79</ns3:cad>
          </ns3:TrackPointExtension>
        </extensions>
      </trkpt>
      <trkpt lat="44.71971242688596248626708984375" lon="6.73019844107329845428466796875">
        <ele>1910.5999755859375</ele>
        <time>2026-09-03T05:17:24.000Z</time>
        <extensions>
          <ns3:TrackPointExtension>
            <ns3:hr>101</ns3:hr>
            <ns3:cad>79</ns3:cad>
          </ns3:TrackPointExtension>
        </extensions>
      </trkpt>
      <trkpt lat="44.7197104990482330322265625" lon="6.73021570779383182525634765625">
        <ele>1910.4000244140625</ele>
        <time>2026-09-03T05:17:25.000Z</time>
        <extensions>
          <ns3:TrackPointExtension>
            <ns3:hr>100</ns3:hr>
            <ns3:cad>80</ns3:cad>
          </ns3:TrackPointExtension>
        </extensions>
      </trkpt>
      <trkpt lat="44.7196955792605876922607421875" lon="6.7302369140088558197021484375">
        <ele>1910</ele>
        <time>2026-09-03T05:17:26.000Z</time>
        <extensions>
          <ns3:TrackPointExtension>
            <ns3:hr>100</ns3:hr>
            <ns3:cad>80</ns3:cad>
          </ns3:TrackPointExtension>
        </extensions>
      </trkpt>
      <trkpt lat="44.719680659472942352294921875" lon="6.73025493510067462921142578125">
        <ele>1909.800048828125</ele>
        <time>2026-09-03T05:17:27.000Z</time>
        <extensions>
          <ns3:TrackPointExtension>
            <ns3:hr>99</ns3:hr>
            <ns3:cad>79</ns3:cad>
          </ns3:TrackPointExtension>
        </extensions>
      </trkpt>
      <trkpt lat="44.71966917626559734344482421875" lon="6.73025979660451412200927734375">
        <ele>1909.4000244140625</ele>
        <time>2026-09-03T05:17:28.000Z</time>
        <extensions>
          <ns3:TrackPointExtension>
            <ns3:hr>100</ns3:hr>
            <ns3:cad>79</ns3:cad>
          </ns3:TrackPointExtension>
        </extensions>
      </trkpt>
      <trkpt lat="44.71965241245925426483154296875" lon="6.73027823679149150848388671875">
        <ele>1909</ele>
        <time>2026-09-03T05:17:29.000Z</time>
        <extensions>
          <ns3:TrackPointExtension>
            <ns3:hr>100</ns3:hr>
            <ns3:cad>79</ns3:cad>
          </ns3:TrackPointExtension>
        </extensions>
      </trkpt>
      <trkpt lat="44.71963581629097461700439453125" lon="6.73029382713139057159423828125">
        <ele>1908.800048828125</ele>
        <time>2026-09-03T05:17:30.000Z</time>
        <extensions>
          <ns3:TrackPointExtension>
            <ns3:hr>100</ns3:hr>
            <ns3:cad>79</ns3:cad>
          </ns3:TrackPointExtension>
        </extensions>
      </trkpt>
      <trkpt lat="44.7196233272552490234375" lon="6.73030908219516277313232421875">
        <ele>1908.5999755859375</ele>
        <time>2026-09-03T05:17:31.000Z</time>
        <extensions>
          <ns3:TrackPointExtension>
            <ns3:hr>101</ns3:hr>
            <ns3:cad>79</ns3:cad>
          </ns3:TrackPointExtension>
        </extensions>
      </trkpt>
      <trkpt lat="44.71960312686860561370849609375" lon="6.7303237505257129669189453125">
        <ele>1908.4000244140625</ele>
        <time>2026-09-03T05:17:32.000Z</time>
        <extensions>
          <ns3:TrackPointExtension>
            <ns3:hr>102</ns3:hr>
            <ns3:cad>79</ns3:cad>
          </ns3:TrackPointExtension>
        </extensions>
      </trkpt>
      <trkpt lat="44.71958954818546772003173828125" lon="6.73033364117145538330078125">
        <ele>1908.199951171875</ele>
        <time>2026-09-03T05:17:33.000Z</time>
        <extensions>
          <ns3:TrackPointExtension>
            <ns3:hr>102</ns3:hr>
            <ns3:cad>81</ns3:cad>
          </ns3:TrackPointExtension>
        </extensions>
      </trkpt>
      <trkpt lat="44.719568677246570587158203125" lon="6.73035266809165477752685546875">
        <ele>1907.800048828125</ele>
        <time>2026-09-03T05:17:34.000Z</time>
        <extensions>
          <ns3:TrackPointExtension>
            <ns3:hr>103</ns3:hr>
            <ns3:cad>82</ns3:cad>
          </ns3:TrackPointExtension>
        </extensions>
      </trkpt>
      <trkpt lat="44.71955568529665470123291015625" lon="6.73037546686828136444091796875">
        <ele>1907.5999755859375</ele>
        <time>2026-09-03T05:17:35.000Z</time>
        <extensions>
          <ns3:TrackPointExtension>
            <ns3:hr>103</ns3:hr>
            <ns3:cad>82</ns3:cad>
          </ns3:TrackPointExtension>
        </extensions>
      </trkpt>
      <trkpt lat="44.71954277716577053070068359375" lon="6.73039608635008335113525390625">
        <ele>1907.199951171875</ele>
        <time>2026-09-03T05:17:36.000Z</time>
        <extensions>
          <ns3:TrackPointExtension>
            <ns3:hr>104</ns3:hr>
            <ns3:cad>83</ns3:cad>
          </ns3:TrackPointExtension>
        </extensions>
      </trkpt>
      <trkpt lat="44.71953640691936016082763671875" lon="6.7304281890392303466796875">
        <ele>1907</ele>
        <time>2026-09-03T05:17:37.000Z</time>
        <extensions>
          <ns3:TrackPointExtension>
            <ns3:hr>105</ns3:hr>
            <ns3:cad>85</ns3:cad>
          </ns3:TrackPointExtension>
        </extensions>
      </trkpt>
      <trkpt lat="44.719529785215854644775390625" lon="6.7304416000843048095703125">
        <ele>1906.5999755859375</ele>
        <time>2026-09-03T05:17:38.000Z</time>
        <extensions>
          <ns3:TrackPointExtension>
            <ns3:hr>106</ns3:hr>
            <ns3:cad>85</ns3:cad>
          </ns3:TrackPointExtension>
        </extensions>
      </trkpt>
      <trkpt lat="44.719525761902332305908203125" lon="6.73046062700450420379638671875">
        <ele>1906.199951171875</ele>
        <time>2026-09-03T05:17:39.000Z</time>
        <extensions>
          <ns3:TrackPointExtension>
            <ns3:hr>108</ns3:hr>
            <ns3:cad>85</ns3:cad>
          </ns3:TrackPointExtension>
        </extensions>
      </trkpt>
      <trkpt lat="44.71952517516911029815673828125" lon="6.73048057593405246734619140625">
        <ele>1906</ele>
        <time>2026-09-03T05:17:40.000Z</time>
        <extensions>
          <ns3:TrackPointExtension>
            <ns3:hr>109</ns3:hr>
            <ns3:cad>84</ns3:cad>
          </ns3:TrackPointExtension>
        </extensions>
      </trkpt>
      <trkpt lat="44.71952634863555431365966796875" lon="6.73051242716610431671142578125">
        <ele>1905.800048828125</ele>
        <time>2026-09-03T05:17:41.000Z</time>
        <extensions>
          <ns3:TrackPointExtension>
            <ns3:hr>110</ns3:hr>
            <ns3:cad>83</ns3:cad>
          </ns3:TrackPointExtension>
        </extensions>
      </trkpt>
      <trkpt lat="44.7195255942642688751220703125" lon="6.73053723759949207305908203125">
        <ele>1905.5999755859375</ele>
        <time>2026-09-03T05:17:42.000Z</time>
        <extensions>
          <ns3:TrackPointExtension>
            <ns3:hr>111</ns3:hr>
            <ns3:cad>83</ns3:cad>
          </ns3:TrackPointExtension>
        </extensions>
      </trkpt>
      <trkpt lat="44.71952182240784168243408203125" lon="6.73055903054773807525634765625">
        <ele>1905.4000244140625</ele>
        <time>2026-09-03T05:17:43.000Z</time>
        <extensions>
          <ns3:TrackPointExtension>
            <ns3:hr>111</ns3:hr>
            <ns3:cad>83</ns3:cad>
          </ns3:TrackPointExtension>
        </extensions>
      </trkpt>
      <trkpt lat="44.719522409141063690185546875" lon="6.73058970831334590911865234375">
        <ele>1905.199951171875</ele>
        <time>2026-09-03T05:17:44.000Z</time>
        <extensions>
          <ns3:TrackPointExtension>
            <ns3:hr>111</ns3:hr>
            <ns3:cad>80</ns3:cad>
          </ns3:TrackPointExtension>
        </extensions>
      </trkpt>
      <trkpt lat="44.7195266000926494598388671875" lon="6.73062063753604888916015625">
        <ele>1904.800048828125</ele>
        <time>2026-09-03T05:17:45.000Z</time>
        <extensions>
          <ns3:TrackPointExtension>
            <ns3:hr>112</ns3:hr>
            <ns3:cad>79</ns3:cad>
          </ns3:TrackPointExtension>
        </extensions>
      </trkpt>
      <trkpt lat="44.71952299587428569793701171875" lon="6.73064921982586383819580078125">
        <ele>1904.4000244140625</ele>
        <time>2026-09-03T05:17:46.000Z</time>
        <extensions>
          <ns3:TrackPointExtension>
            <ns3:hr>113</ns3:hr>
            <ns3:cad>77</ns3:cad>
          </ns3:TrackPointExtension>
        </extensions>
      </trkpt>
      <trkpt lat="44.7195178829133510589599609375" lon="6.73068224452435970306396484375">
        <ele>1904.199951171875</ele>
        <time>2026-09-03T05:17:47.000Z</time>
        <extensions>
          <ns3:TrackPointExtension>
            <ns3:hr>113</ns3:hr>
            <ns3:cad>77</ns3:cad>
          </ns3:TrackPointExtension>
        </extensions>
      </trkpt>
      <trkpt lat="44.71951536834239959716796875" lon="6.7307066358625888824462890625">
        <ele>1903.800048828125</ele>
        <time>2026-09-03T05:17:48.000Z</time>
        <extensions>
          <ns3:TrackPointExtension>
            <ns3:hr>114</ns3:hr>
            <ns3:cad>79</ns3:cad>
          </ns3:TrackPointExtension>
        </extensions>
      </trkpt>
      <trkpt lat="44.719513691961765289306640625" lon="6.73072666861116886138916015625">
        <ele>1903.4000244140625</ele>
        <time>2026-09-03T05:17:49.000Z</time>
        <extensions>
          <ns3:TrackPointExtension>
            <ns3:hr>114</ns3:hr>
            <ns3:cad>79</ns3:cad>
          </ns3:TrackPointExtension>
        </extensions>
      </trkpt>
      <trkpt lat="44.71951511688530445098876953125" lon="6.73073790036141872406005859375">
        <ele>1903.199951171875</ele>
        <time>2026-09-03T05:17:50.000Z</time>
        <extensions>
          <ns3:TrackPointExtension>
            <ns3:hr>114</ns3:hr>
            <ns3:cad>80</ns3:cad>
          </ns3:TrackPointExtension>
        </extensions>
      </trkpt>
      <trkpt lat="44.71951494924724102020263671875" lon="6.73074938356876373291015625">
        <ele>1902.800048828125</ele>
        <time>2026-09-03T05:17:51.000Z</time>
        <extensions>
          <ns3:TrackPointExtension>
            <ns3:hr>114</ns3:hr>
            <ns3:cad>80</ns3:cad>
          </ns3:TrackPointExtension>
        </extensions>
      </trkpt>
      <trkpt lat="44.71951629035174846649169921875" lon="6.730761788785457611083984375">
        <ele>1902.5999755859375</ele>
        <time>2026-09-03T05:17:52.000Z</time>
        <extensions>
          <ns3:TrackPointExtension>
            <ns3:hr>114</ns3:hr>
            <ns3:cad>80</ns3:cad>
          </ns3:TrackPointExtension>
        </extensions>
      </trkpt>
      <trkpt lat="44.7195198945701122283935546875" lon="6.7307720147073268890380859375">
        <ele>1902.4000244140625</ele>
        <time>2026-09-03T05:17:53.000Z</time>
        <extensions>
          <ns3:TrackPointExtension>
            <ns3:hr>115</ns3:hr>
            <ns3:cad>80</ns3:cad>
          </ns3:TrackPointExtension>
        </extensions>
      </trkpt>
      <trkpt lat="44.7195212356746196746826171875" lon="6.7307763732969760894775390625">
        <ele>1902.199951171875</ele>
        <time>2026-09-03T05:17:54.000Z</time>
        <extensions>
          <ns3:TrackPointExtension>
            <ns3:hr>115</ns3:hr>
            <ns3:cad>80</ns3:cad>
          </ns3:TrackPointExtension>
        </extensions>
      </trkpt>
      <trkpt lat="44.719522409141063690185546875" lon="6.7307827435433864593505859375">
        <ele>1902</ele>
        <time>2026-09-03T05:17:55.000Z</time>
        <extensions>
          <ns3:TrackPointExtension>
            <ns3:hr>115</ns3:hr>
            <ns3:cad>0</ns3:cad>
          </ns3:TrackPointExtension>
        </extensions>
      </trkpt>
      <trkpt lat="44.7195225767791271209716796875" lon="6.73078299500048160552978515625">
        <ele>1902</ele>
        <time>2026-09-03T05:17:56.000Z</time>
        <extensions>
          <ns3:TrackPointExtension>
            <ns3:hr>115</ns3:hr>
            <ns3:cad>0</ns3:cad>
          </ns3:TrackPointExtension>
        </extensions>
      </trkpt>
      <trkpt lat="44.71951796673238277435302734375" lon="6.730797328054904937744140625">
        <ele>1901.800048828125</ele>
        <time>2026-09-03T05:17:57.000Z</time>
        <extensions>
          <ns3:TrackPointExtension>
            <ns3:hr>115</ns3:hr>
            <ns3:cad>68</ns3:cad>
          </ns3:TrackPointExtension>
        </extensions>
      </trkpt>
      <trkpt lat="44.71951662562787532806396484375" lon="6.73080864362418651580810546875">
        <ele>1901.5999755859375</ele>
        <time>2026-09-03T05:17:58.000Z</time>
        <extensions>
          <ns3:TrackPointExtension>
            <ns3:hr>115</ns3:hr>
            <ns3:cad>68</ns3:cad>
          </ns3:TrackPointExtension>
        </extensions>
      </trkpt>
      <trkpt lat="44.71951763145625591278076171875" lon="6.73082741908729076385498046875">
        <ele>1901.4000244140625</ele>
        <time>2026-09-03T05:17:59.000Z</time>
        <extensions>
          <ns3:TrackPointExtension>
            <ns3:hr>117</ns3:hr>
            <ns3:cad>71</ns3:cad>
          </ns3:TrackPointExtension>
        </extensions>
      </trkpt>
      <trkpt lat="44.71950924955308437347412109375" lon="6.73084183596074581146240234375">
        <ele>1901.199951171875</ele>
        <time>2026-09-03T05:18:00.000Z</time>
        <extensions>
          <ns3:TrackPointExtension>
            <ns3:hr>117</ns3:hr>
            <ns3:cad>71</ns3:cad>
          </ns3:TrackPointExtension>
        </extensions>
      </trkpt>
      <trkpt lat="44.71950790844857692718505859375" lon="6.73086748458445072174072265625">
        <ele>1900.800048828125</ele>
        <time>2026-09-03T05:18:01.000Z</time>
        <extensions>
          <ns3:TrackPointExtension>
            <ns3:hr>117</ns3:hr>
            <ns3:cad>68</ns3:cad>
          </ns3:TrackPointExtension>
        </extensions>
      </trkpt>
      <trkpt lat="44.71950531005859375" lon="6.73088525421917438507080078125">
        <ele>1900.4000244140625</ele>
        <time>2026-09-03T05:18:02.000Z</time>
        <extensions>
          <ns3:TrackPointExtension>
            <ns3:hr>117</ns3:hr>
            <ns3:cad>0</ns3:cad>
          </ns3:TrackPointExtension>
        </extensions>
      </trkpt>
      <trkpt lat="44.71950220875442028045654296875" lon="6.73090453259646892547607421875">
        <ele>1900</ele>
        <time>2026-09-03T05:18:03.000Z</time>
        <extensions>
          <ns3:TrackPointExtension>
            <ns3:hr>116</ns3:hr>
            <ns3:cad>0</ns3:cad>
          </ns3:TrackPointExtension>
        </extensions>
      </trkpt>
      <trkpt lat="44.71950137056410312652587890625" lon="6.73092146404087543487548828125">
        <ele>1899.5999755859375</ele>
        <time>2026-09-03T05:18:04.000Z</time>
        <extensions>
          <ns3:TrackPointExtension>
            <ns3:hr>115</ns3:hr>
            <ns3:cad>0</ns3:cad>
          </ns3:TrackPointExtension>
        </extensions>
      </trkpt>
      <trkpt lat="44.719502292573451995849609375" lon="6.73094107769429683685302734375">
        <ele>1899.4000244140625</ele>
        <time>2026-09-03T05:18:05.000Z</time>
        <extensions>
          <ns3:TrackPointExtension>
            <ns3:hr>115</ns3:hr>
            <ns3:cad>0</ns3:cad>
          </ns3:TrackPointExtension>
        </extensions>
      </trkpt>
      <trkpt lat="44.71949952654540538787841796875" lon="6.73096530139446258544921875">
        <ele>1899</ele>
        <time>2026-09-03T05:18:06.000Z</time>
        <extensions>
          <ns3:TrackPointExtension>
            <ns3:hr>114</ns3:hr>
            <ns3:cad>0</ns3:cad>
          </ns3:TrackPointExtension>
        </extensions>
      </trkpt>
      <trkpt lat="44.719496928155422210693359375" lon="6.7309869267046451568603515625">
        <ele>1898.800048828125</ele>
        <time>2026-09-03T05:18:07.000Z</time>
        <extensions>
          <ns3:TrackPointExtension>
            <ns3:hr>114</ns3:hr>
            <ns3:cad>0</ns3:cad>
          </ns3:TrackPointExtension>
        </extensions>
      </trkpt>
      <trkpt lat="44.71949617378413677215576171875" lon="6.731011234223842620849609375">
        <ele>1898.5999755859375</ele>
        <time>2026-09-03T05:18:08.000Z</time>
        <extensions>
          <ns3:TrackPointExtension>
            <ns3:hr>113</ns3:hr>
            <ns3:cad>0</ns3:cad>
          </ns3:TrackPointExtension>
        </extensions>
      </trkpt>
      <trkpt lat="44.7194984368979930877685546875" lon="6.7310298420488834381103515625">
        <ele>1898.199951171875</ele>
        <time>2026-09-03T05:18:09.000Z</time>
        <extensions>
          <ns3:TrackPointExtension>
            <ns3:hr>113</ns3:hr>
            <ns3:cad>0</ns3:cad>
          </ns3:TrackPointExtension>
        </extensions>
      </trkpt>
      <trkpt lat="44.71949701197445392608642578125" lon="6.731039397418498992919921875">
        <ele>1897.800048828125</ele>
        <time>2026-09-03T05:18:10.000Z</time>
        <extensions>
          <ns3:TrackPointExtension>
            <ns3:hr>113</ns3:hr>
            <ns3:cad>0</ns3:cad>
          </ns3:TrackPointExtension>
        </extensions>
      </trkpt>
      <trkpt lat="44.7194924019277095794677734375" lon="6.73105716705322265625">
        <ele>1897.5999755859375</ele>
        <time>2026-09-03T05:18:11.000Z</time>
        <extensions>
          <ns3:TrackPointExtension>
            <ns3:hr>112</ns3:hr>
            <ns3:cad>0</ns3:cad>
          </ns3:TrackPointExtension>
        </extensions>
      </trkpt>
      <trkpt lat="44.7194944135844707489013671875" lon="6.73106680624186992645263671875">
        <ele>1897.199951171875</ele>
        <time>2026-09-03T05:18:12.000Z</time>
        <extensions>
          <ns3:TrackPointExtension>
            <ns3:hr>112</ns3:hr>
            <ns3:cad>0</ns3:cad>
          </ns3:TrackPointExtension>
        </extensions>
      </trkpt>
      <trkpt lat="44.7194945812225341796875" lon="6.7310670576989650726318359375">
        <ele>1897</ele>
        <time>2026-09-03T05:18:13.000Z</time>
        <extensions>
          <ns3:TrackPointExtension>
            <ns3:hr>112</ns3:hr>
            <ns3:cad>0</ns3:cad>
          </ns3:TrackPointExtension>
        </extensions>
      </trkpt>
      <trkpt lat="44.71949181519448757171630859375" lon="6.7310979031026363372802734375">
        <ele>1896.5999755859375</ele>
        <time>2026-09-03T05:18:14.000Z</time>
        <extensions>
          <ns3:TrackPointExtension>
            <ns3:hr>111</ns3:hr>
            <ns3:cad>0</ns3:cad>
          </ns3:TrackPointExtension>
        </extensions>
      </trkpt>
      <trkpt lat="44.7194883786141872406005859375" lon="6.73111223615705966949462890625">
        <ele>1896.199951171875</ele>
        <time>2026-09-03T05:18:15.000Z</time>
        <extensions>
          <ns3:TrackPointExtension>
            <ns3:hr>111</ns3:hr>
            <ns3:cad>0</ns3:cad>
          </ns3:TrackPointExtension>
        </extensions>
      </trkpt>
      <trkpt lat="44.71948175691068172454833984375" lon="6.73113687895238399505615234375">
        <ele>1895.5999755859375</ele>
        <time>2026-09-03T05:18:16.000Z</time>
        <extensions>
          <ns3:TrackPointExtension>
            <ns3:hr>110</ns3:hr>
            <ns3:cad>0</ns3:cad>
          </ns3:TrackPointExtension>
        </extensions>
      </trkpt>
      <trkpt lat="44.719484187662601470947265625" lon="6.73116135410964488983154296875">
        <ele>1895.199951171875</ele>
        <time>2026-09-03T05:18:17.000Z</time>
        <extensions>
          <ns3:TrackPointExtension>
            <ns3:hr>109</ns3:hr>
            <ns3:cad>0</ns3:cad>
          </ns3:TrackPointExtension>
        </extensions>
      </trkpt>
      <trkpt lat="44.7194878756999969482421875" lon="6.7311810515820980072021484375">
        <ele>1894.800048828125</ele>
        <time>2026-09-03T05:18:18.000Z</time>
        <extensions>
          <ns3:TrackPointExtension>
            <ns3:hr>108</ns3:hr>
            <ns3:cad>0</ns3:cad>
          </ns3:TrackPointExtension>
        </extensions>
      </trkpt>
      <trkpt lat="44.719486199319362640380859375" lon="6.73120443709194660186767578125">
        <ele>1894.4000244140625</ele>
        <time>2026-09-03T05:18:19.000Z</time>
        <extensions>
          <ns3:TrackPointExtension>
            <ns3:hr>107</ns3:hr>
            <ns3:cad>0</ns3:cad>
          </ns3:TrackPointExtension>
        </extensions>
      </trkpt>
      <trkpt lat="44.7194890491664409637451171875" lon="6.7312232963740825653076171875">
        <ele>1894.199951171875</ele>
        <time>2026-09-03T05:18:20.000Z</time>
        <extensions>
          <ns3:TrackPointExtension>
            <ns3:hr>107</ns3:hr>
            <ns3:cad>0</ns3:cad>
          </ns3:TrackPointExtension>
        </extensions>
      </trkpt>
      <trkpt lat="44.719493575394153594970703125" lon="6.73123276792466640472412109375">
        <ele>1893.800048828125</ele>
        <time>2026-09-03T05:18:21.000Z</time>
        <extensions>
          <ns3:TrackPointExtension>
            <ns3:hr>107</ns3:hr>
            <ns3:cad>0</ns3:cad>
          </ns3:TrackPointExtension>
        </extensions>
      </trkpt>
      <trkpt lat="44.71949952654540538787841796875" lon="6.7312437482178211212158203125">
        <ele>1893.5999755859375</ele>
        <time>2026-09-03T05:18:22.000Z</time>
        <extensions>
          <ns3:TrackPointExtension>
            <ns3:hr>107</ns3:hr>
            <ns3:cad>0</ns3:cad>
          </ns3:TrackPointExtension>
        </extensions>
      </trkpt>
      <trkpt lat="44.7195066511631011962890625" lon="6.731262691318988800048828125">
        <ele>1893.4000244140625</ele>
        <time>2026-09-03T05:18:23.000Z</time>
        <extensions>
          <ns3:TrackPointExtension>
            <ns3:hr>107</ns3:hr>
            <ns3:cad>0</ns3:cad>
          </ns3:TrackPointExtension>
        </extensions>
      </trkpt>
      <trkpt lat="44.71951863728463649749755859375" lon="6.73126981593668460845947265625">
        <ele>1893.199951171875</ele>
        <time>2026-09-03T05:18:24.000Z</time>
        <extensions>
          <ns3:TrackPointExtension>
            <ns3:hr>108</ns3:hr>
            <ns3:cad>0</ns3:cad>
          </ns3:TrackPointExtension>
        </extensions>
      </trkpt>
      <trkpt lat="44.7195309586822986602783203125" lon="6.73126830719411373138427734375">
        <ele>1892.800048828125</ele>
        <time>2026-09-03T05:18:25.000Z</time>
        <extensions>
          <ns3:TrackPointExtension>
            <ns3:hr>107</ns3:hr>
            <ns3:cad>72</ns3:cad>
          </ns3:TrackPointExtension>
        </extensions>
      </trkpt>
      <trkpt lat="44.71954110078513622283935546875" lon="6.73126545734703540802001953125">
        <ele>1892.5999755859375</ele>
        <time>2026-09-03T05:18:26.000Z</time>
        <extensions>
          <ns3:TrackPointExtension>
            <ns3:hr>107</ns3:hr>
            <ns3:cad>72</ns3:cad>
          </ns3:TrackPointExtension>
        </extensions>
      </trkpt>
      <trkpt lat="44.71955132670700550079345703125" lon="6.7312675528228282928466796875">
        <ele>1892.199951171875</ele>
        <time>2026-09-03T05:18:27.000Z</time>
        <extensions>
          <ns3:TrackPointExtension>
            <ns3:hr>107</ns3:hr>
            <ns3:cad>0</ns3:cad>
          </ns3:TrackPointExtension>
        </extensions>
      </trkpt>
      <trkpt lat="44.7195614688098430633544921875" lon="6.7312732525169849395751953125">
        <ele>1892</ele>
        <time>2026-09-03T05:18:28.000Z</time>
        <extensions>
          <ns3:TrackPointExtension>
            <ns3:hr>107</ns3:hr>
            <ns3:cad>0</ns3:cad>
          </ns3:TrackPointExtension>
        </extensions>
      </trkpt>
      <trkpt lat="44.7195728681981563568115234375" lon="6.7312886752188205718994140625">
        <ele>1891.5999755859375</ele>
        <time>2026-09-03T05:18:29.000Z</time>
        <extensions>
          <ns3:TrackPointExtension>
            <ns3:hr>107</ns3:hr>
            <ns3:cad>0</ns3:cad>
          </ns3:TrackPointExtension>
        </extensions>
      </trkpt>
      <trkpt lat="44.7195849381387233734130859375" lon="6.73130820505321025848388671875">
        <ele>1891.4000244140625</ele>
        <time>2026-09-03T05:18:30.000Z</time>
        <extensions>
          <ns3:TrackPointExtension>
            <ns3:hr>107</ns3:hr>
            <ns3:cad>0</ns3:cad>
          </ns3:TrackPointExtension>
        </extensions>
      </trkpt>
      <trkpt lat="44.71959809772670269012451171875" lon="6.73132932744920253753662109375">
        <ele>1891</ele>
        <time>2026-09-03T05:18:31.000Z</time>
        <extensions>
          <ns3:TrackPointExtension>
            <ns3:hr>107</ns3:hr>
            <ns3:cad>0</ns3:cad>
          </ns3:TrackPointExtension>
        </extensions>
      </trkpt>
      <trkpt lat="44.7196157835423946380615234375" lon="6.731363274157047271728515625">
        <ele>1890.5999755859375</ele>
        <time>2026-09-03T05:18:32.000Z</time>
        <extensions>
          <ns3:TrackPointExtension>
            <ns3:hr>107</ns3:hr>
            <ns3:cad>0</ns3:cad>
          </ns3:TrackPointExtension>
        </extensions>
      </trkpt>
      <trkpt lat="44.7196265123784542083740234375" lon="6.731387414038181304931640625">
        <ele>1890.4000244140625</ele>
        <time>2026-09-03T05:18:33.000Z</time>
        <extensions>
          <ns3:TrackPointExtension>
            <ns3:hr>107</ns3:hr>
            <ns3:cad>81</ns3:cad>
          </ns3:TrackPointExtension>
        </extensions>
      </trkpt>
      <trkpt lat="44.71964067779481410980224609375" lon="6.73141012899577617645263671875">
        <ele>1890.199951171875</ele>
        <time>2026-09-03T05:18:34.000Z</time>
        <extensions>
          <ns3:TrackPointExtension>
            <ns3:hr>107</ns3:hr>
            <ns3:cad>81</ns3:cad>
          </ns3:TrackPointExtension>
        </extensions>
      </trkpt>
      <trkpt lat="44.719646461308002471923828125" lon="6.73143058083951473236083984375">
        <ele>1890</ele>
        <time>2026-09-03T05:18:35.000Z</time>
        <extensions>
          <ns3:TrackPointExtension>
            <ns3:hr>107</ns3:hr>
            <ns3:cad>81</ns3:cad>
          </ns3:TrackPointExtension>
        </extensions>
      </trkpt>
      <trkpt lat="44.7196488082408905029296875" lon="6.73145203851163387298583984375">
        <ele>1890</ele>
        <time>2026-09-03T05:18:36.000Z</time>
        <extensions>
          <ns3:TrackPointExtension>
            <ns3:hr>108</ns3:hr>
            <ns3:cad>81</ns3:cad>
          </ns3:TrackPointExtension>
        </extensions>
      </trkpt>
      <trkpt lat="44.71961670555174350738525390625" lon="6.7314714007079601287841796875">
        <ele>1889.800048828125</ele>
        <time>2026-09-03T05:18:37.000Z</time>
        <extensions>
          <ns3:TrackPointExtension>
            <ns3:hr>108</ns3:hr>
            <ns3:cad>81</ns3:cad>
          </ns3:TrackPointExtension>
        </extensions>
      </trkpt>
      <trkpt lat="44.7196060605347156524658203125" lon="6.7315049283206462860107421875">
        <ele>1889.4000244140625</ele>
        <time>2026-09-03T05:18:38.000Z</time>
        <extensions>
          <ns3:TrackPointExtension>
            <ns3:hr>109</ns3:hr>
            <ns3:cad>81</ns3:cad>
          </ns3:TrackPointExtension>
        </extensions>
      </trkpt>
      <trkpt lat="44.71959742717444896697998046875" lon="6.73152730800211429595947265625">
        <ele>1889</ele>
        <time>2026-09-03T05:18:39.000Z</time>
        <extensions>
          <ns3:TrackPointExtension>
            <ns3:hr>109</ns3:hr>
            <ns3:cad>81</ns3:cad>
          </ns3:TrackPointExtension>
        </extensions>
      </trkpt>
      <trkpt lat="44.71958619542419910430908203125" lon="6.7315495200455188751220703125">
        <ele>1888.5999755859375</ele>
        <time>2026-09-03T05:18:40.000Z</time>
        <extensions>
          <ns3:TrackPointExtension>
            <ns3:hr>109</ns3:hr>
            <ns3:cad>0</ns3:cad>
          </ns3:TrackPointExtension>
        </extensions>
      </trkpt>
      <trkpt lat="44.71957513131201267242431640625" lon="6.731572486460208892822265625">
        <ele>1888</ele>
        <time>2026-09-03T05:18:41.000Z</time>
        <extensions>
          <ns3:TrackPointExtension>
            <ns3:hr>109</ns3:hr>
            <ns3:cad>0</ns3:cad>
          </ns3:TrackPointExtension>
        </extensions>
      </trkpt>
      <trkpt lat="44.71956498920917510986328125" lon="6.73158849589526653289794921875">
        <ele>1887.5999755859375</ele>
        <time>2026-09-03T05:18:42.000Z</time>
        <extensions>
          <ns3:TrackPointExtension>
            <ns3:hr>110</ns3:hr>
            <ns3:cad>0</ns3:cad>
          </ns3:TrackPointExtension>
        </extensions>
      </trkpt>
      <trkpt lat="44.719553254544734954833984375" lon="6.73161146230995655059814453125">
        <ele>1887.199951171875</ele>
        <time>2026-09-03T05:18:43.000Z</time>
        <extensions>
          <ns3:TrackPointExtension>
            <ns3:hr>110</ns3:hr>
            <ns3:cad>83</ns3:cad>
          </ns3:TrackPointExtension>
        </extensions>
      </trkpt>
      <trkpt lat="44.7195493988692760467529296875" lon="6.73163007013499736785888671875">
        <ele>1887</ele>
        <time>2026-09-03T05:18:44.000Z</time>
        <extensions>
          <ns3:TrackPointExtension>
            <ns3:hr>110</ns3:hr>
            <ns3:cad>83</ns3:cad>
          </ns3:TrackPointExtension>
        </extensions>
      </trkpt>
      <trkpt lat="44.71954311244189739227294921875" lon="6.73164599575102329254150390625">
        <ele>1886.5999755859375</ele>
        <time>2026-09-03T05:18:45.000Z</time>
        <extensions>
          <ns3:TrackPointExtension>
            <ns3:hr>111</ns3:hr>
            <ns3:cad>85</ns3:cad>
          </ns3:TrackPointExtension>
        </extensions>
      </trkpt>
      <trkpt lat="44.71952651627361774444580078125" lon="6.73166158609092235565185546875">
        <ele>1886.4000244140625</ele>
        <time>2026-09-03T05:18:46.000Z</time>
        <extensions>
          <ns3:TrackPointExtension>
            <ns3:hr>112</ns3:hr>
            <ns3:cad>85</ns3:cad>
          </ns3:TrackPointExtension>
        </extensions>
      </trkpt>
      <trkpt lat="44.719511009752750396728515625" lon="6.73169276677072048187255859375">
        <ele>1886.199951171875</ele>
        <time>2026-09-03T05:18:47.000Z</time>
        <extensions>
          <ns3:TrackPointExtension>
            <ns3:hr>112</ns3:hr>
            <ns3:cad>85</ns3:cad>
          </ns3:TrackPointExtension>
        </extensions>
      </trkpt>
      <trkpt lat="44.719502963125705718994140625" lon="6.7317027412354946136474609375">
        <ele>1885.800048828125</ele>
        <time>2026-09-03T05:18:48.000Z</time>
        <extensions>
          <ns3:TrackPointExtension>
            <ns3:hr>112</ns3:hr>
            <ns3:cad>85</ns3:cad>
          </ns3:TrackPointExtension>
        </extensions>
      </trkpt>
      <trkpt lat="44.71948527731001377105712890625" lon="6.7317275516688823699951171875">
        <ele>1885.4000244140625</ele>
        <time>2026-09-03T05:18:49.000Z</time>
        <extensions>
          <ns3:TrackPointExtension>
            <ns3:hr>113</ns3:hr>
            <ns3:cad>85</ns3:cad>
          </ns3:TrackPointExtension>
        </extensions>
      </trkpt>
      <trkpt lat="44.7194716148078441619873046875" lon="6.7317505180835723876953125">
        <ele>1885</ele>
        <time>2026-09-03T05:18:50.000Z</time>
        <extensions>
          <ns3:TrackPointExtension>
            <ns3:hr>113</ns3:hr>
            <ns3:cad>85</ns3:cad>
          </ns3:TrackPointExtension>
        </extensions>
      </trkpt>
      <trkpt lat="44.7194639034569263458251953125" lon="6.73177222721278667449951171875">
        <ele>1884.5999755859375</ele>
        <time>2026-09-03T05:18:51.000Z</time>
        <extensions>
          <ns3:TrackPointExtension>
            <ns3:hr>114</ns3:hr>
            <ns3:cad>81</ns3:cad>
          </ns3:TrackPointExtension>
        </extensions>
      </trkpt>
      <trkpt lat="44.7194503247737884521484375" lon="6.7317959479987621307373046875">
        <ele>1884.199951171875</ele>
        <time>2026-09-03T05:18:52.000Z</time>
        <extensions>
          <ns3:TrackPointExtension>
            <ns3:hr>114</ns3:hr>
            <ns3:cad>81</ns3:cad>
          </ns3:TrackPointExtension>
        </extensions>
      </trkpt>
      <trkpt lat="44.71944169141352176666259765625" lon="6.73180575482547283172607421875">
        <ele>1883.800048828125</ele>
        <time>2026-09-03T05:18:53.000Z</time>
        <extensions>
          <ns3:TrackPointExtension>
            <ns3:hr>114</ns3:hr>
            <ns3:cad>81</ns3:cad>
          </ns3:TrackPointExtension>
        </extensions>
      </trkpt>
      <trkpt lat="44.719425849616527557373046875" lon="6.731814555823802947998046875">
        <ele>1883.5999755859375</ele>
        <time>2026-09-03T05:18:54.000Z</time>
        <extensions>
          <ns3:TrackPointExtension>
            <ns3:hr>115</ns3:hr>
            <ns3:cad>81</ns3:cad>
          </ns3:TrackPointExtension>
        </extensions>
      </trkpt>
      <trkpt lat="44.71941201947629451751708984375" lon="6.73182629048824310302734375">
        <ele>1883.4000244140625</ele>
        <time>2026-09-03T05:18:55.000Z</time>
        <extensions>
          <ns3:TrackPointExtension>
            <ns3:hr>115</ns3:hr>
            <ns3:cad>81</ns3:cad>
          </ns3:TrackPointExtension>
        </extensions>
      </trkpt>
      <trkpt lat="44.71940430812537670135498046875" lon="6.73183861188590526580810546875">
        <ele>1883</ele>
        <time>2026-09-03T05:18:56.000Z</time>
        <extensions>
          <ns3:TrackPointExtension>
            <ns3:hr>115</ns3:hr>
            <ns3:cad>81</ns3:cad>
          </ns3:TrackPointExtension>
        </extensions>
      </trkpt>
      <trkpt lat="44.7193824313580989837646484375" lon="6.731857471168041229248046875">
        <ele>1882.800048828125</ele>
        <time>2026-09-03T05:18:57.000Z</time>
        <extensions>
          <ns3:TrackPointExtension>
            <ns3:hr>115</ns3:hr>
            <ns3:cad>84</ns3:cad>
          </ns3:TrackPointExtension>
        </extensions>
      </trkpt>
      <trkpt lat="44.7193706966936588287353515625" lon="6.731864511966705322265625">
        <ele>1882.4000244140625</ele>
        <time>2026-09-03T05:18:58.000Z</time>
        <extensions>
          <ns3:TrackPointExtension>
            <ns3:hr>116</ns3:hr>
            <ns3:cad>84</ns3:cad>
          </ns3:TrackPointExtension>
        </extensions>
      </trkpt>
      <trkpt lat="44.71935586072504520416259765625" lon="6.73187364824116230010986328125">
        <ele>1882</ele>
        <time>2026-09-03T05:18:59.000Z</time>
        <extensions>
          <ns3:TrackPointExtension>
            <ns3:hr>116</ns3:hr>
            <ns3:cad>84</ns3:cad>
          </ns3:TrackPointExtension>
        </extensions>
      </trkpt>
      <trkpt lat="44.71933674998581409454345703125" lon="6.73189125023782253265380859375">
        <ele>1881.5999755859375</ele>
        <time>2026-09-03T05:19:00.000Z</time>
        <extensions>
          <ns3:TrackPointExtension>
            <ns3:hr>116</ns3:hr>
            <ns3:cad>84</ns3:cad>
          </ns3:TrackPointExtension>
        </extensions>
      </trkpt>
      <trkpt lat="44.719326607882976531982421875" lon="6.7318921722471714019775390625">
        <ele>1881.4000244140625</ele>
        <time>2026-09-03T05:19:01.000Z</time>
        <extensions>
          <ns3:TrackPointExtension>
            <ns3:hr>117</ns3:hr>
            <ns3:cad>0</ns3:cad>
          </ns3:TrackPointExtension>
        </extensions>
      </trkpt>
      <trkpt lat="44.71930959261953830718994140625" lon="6.73189275898039340972900390625">
        <ele>1881.199951171875</ele>
        <time>2026-09-03T05:19:02.000Z</time>
        <extensions>
          <ns3:TrackPointExtension>
            <ns3:hr>117</ns3:hr>
            <ns3:cad>0</ns3:cad>
          </ns3:TrackPointExtension>
        </extensions>
      </trkpt>
      <trkpt lat="44.71928746439516544342041015625" lon="6.73189661465585231781005859375">
        <ele>1880.800048828125</ele>
        <time>2026-09-03T05:19:03.000Z</time>
        <extensions>
          <ns3:TrackPointExtension>
            <ns3:hr>117</ns3:hr>
            <ns3:cad>0</ns3:cad>
          </ns3:TrackPointExtension>
        </extensions>
      </trkpt>
      <trkpt lat="44.71927053295075893402099609375" lon="6.73190617002546787261962890625">
        <ele>1880.4000244140625</ele>
        <time>2026-09-03T05:19:04.000Z</time>
        <extensions>
          <ns3:TrackPointExtension>
            <ns3:hr>118</ns3:hr>
            <ns3:cad>0</ns3:cad>
          </ns3:TrackPointExtension>
        </extensions>
      </trkpt>
      <trkpt lat="44.71925385296344757080078125" lon="6.73191991634666919708251953125">
        <ele>1880</ele>
        <time>2026-09-03T05:19:05.000Z</time>
        <extensions>
          <ns3:TrackPointExtension>
            <ns3:hr>118</ns3:hr>
            <ns3:cad>0</ns3:cad>
          </ns3:TrackPointExtension>
        </extensions>
      </trkpt>
      <trkpt lat="44.719247482717037200927734375" lon="6.73193584196269512176513671875">
        <ele>1879.5999755859375</ele>
        <time>2026-09-03T05:19:06.000Z</time>
        <extensions>
          <ns3:TrackPointExtension>
            <ns3:hr>118</ns3:hr>
            <ns3:cad>0</ns3:cad>
          </ns3:TrackPointExtension>
        </extensions>
      </trkpt>
      <trkpt lat="44.7192411124706268310546875" lon="6.73194958828389644622802734375">
        <ele>1879.4000244140625</ele>
        <time>2026-09-03T05:19:07.000Z</time>
        <extensions>
          <ns3:TrackPointExtension>
            <ns3:hr>117</ns3:hr>
            <ns3:cad>0</ns3:cad>
          </ns3:TrackPointExtension>
        </extensions>
      </trkpt>
      <trkpt lat="44.71923247911036014556884765625" lon="6.73196434043347835540771484375">
        <ele>1879</ele>
        <time>2026-09-03T05:19:08.000Z</time>
        <extensions>
          <ns3:TrackPointExtension>
            <ns3:hr>116</ns3:hr>
            <ns3:cad>0</ns3:cad>
          </ns3:TrackPointExtension>
        </extensions>
      </trkpt>
      <trkpt lat="44.71922577358782291412353515625" lon="6.7319726385176181793212890625">
        <ele>1878.800048828125</ele>
        <time>2026-09-03T05:19:09.000Z</time>
        <extensions>
          <ns3:TrackPointExtension>
            <ns3:hr>116</ns3:hr>
            <ns3:cad>0</ns3:cad>
          </ns3:TrackPointExtension>
        </extensions>
      </trkpt>
      <trkpt lat="44.7192258574068546295166015625" lon="6.731980182230472564697265625">
        <ele>1878.4000244140625</ele>
        <time>2026-09-03T05:19:10.000Z</time>
        <extensions>
          <ns3:TrackPointExtension>
            <ns3:hr>115</ns3:hr>
            <ns3:cad>0</ns3:cad>
          </ns3:TrackPointExtension>
        </extensions>
      </trkpt>
      <trkpt lat="44.71921336837112903594970703125" lon="6.7319850437343120574951171875">
        <ele>1878.199951171875</ele>
        <time>2026-09-03T05:19:11.000Z</time>
        <extensions>
          <ns3:TrackPointExtension>
            <ns3:hr>115</ns3:hr>
            <ns3:cad>72</ns3:cad>
          </ns3:TrackPointExtension>
        </extensions>
      </trkpt>
      <trkpt lat="44.71920020878314971923828125" lon="6.7319944314658641815185546875">
        <ele>1877.800048828125</ele>
        <time>2026-09-03T05:19:12.000Z</time>
        <extensions>
          <ns3:TrackPointExtension>
            <ns3:hr>114</ns3:hr>
            <ns3:cad>72</ns3:cad>
          </ns3:TrackPointExtension>
        </extensions>
      </trkpt>
      <trkpt lat="44.71918947994709014892578125" lon="6.73200842924416065216064453125">
        <ele>1877.4000244140625</ele>
        <time>2026-09-03T05:19:13.000Z</time>
        <extensions>
          <ns3:TrackPointExtension>
            <ns3:hr>114</ns3:hr>
            <ns3:cad>72</ns3:cad>
          </ns3:TrackPointExtension>
        </extensions>
      </trkpt>
      <trkpt lat="44.71917933784425258636474609375" lon="6.73202301375567913055419921875">
        <ele>1877</ele>
        <time>2026-09-03T05:19:14.000Z</time>
        <extensions>
          <ns3:TrackPointExtension>
            <ns3:hr>114</ns3:hr>
            <ns3:cad>72</ns3:cad>
          </ns3:TrackPointExtension>
        </extensions>
      </trkpt>
      <trkpt lat="44.71917229704558849334716796875" lon="6.73204178921878337860107421875">
        <ele>1876.5999755859375</ele>
        <time>2026-09-03T05:19:15.000Z</time>
        <extensions>
          <ns3:TrackPointExtension>
            <ns3:hr>114</ns3:hr>
            <ns3:cad>72</ns3:cad>
          </ns3:TrackPointExtension>
        </extensions>
      </trkpt>
      <trkpt lat="44.71916559152305126190185546875" lon="6.73205872066318988800048828125">
        <ele>1876.199951171875</ele>
        <time>2026-09-03T05:19:16.000Z</time>
        <extensions>
          <ns3:TrackPointExtension>
            <ns3:hr>114</ns3:hr>
            <ns3:cad>72</ns3:cad>
          </ns3:TrackPointExtension>
        </extensions>
      </trkpt>
      <trkpt lat="44.7191722132265567779541015625" lon="6.73207196407020092010498046875">
        <ele>1876</ele>
        <time>2026-09-03T05:19:17.000Z</time>
        <extensions>
          <ns3:TrackPointExtension>
            <ns3:hr>114</ns3:hr>
            <ns3:cad>72</ns3:cad>
          </ns3:TrackPointExtension>
        </extensions>
      </trkpt>
      <trkpt lat="44.71917615272104740142822265625" lon="6.7320960201323032379150390625">
        <ele>1875.5999755859375</ele>
        <time>2026-09-03T05:19:18.000Z</time>
        <extensions>
          <ns3:TrackPointExtension>
            <ns3:hr>114</ns3:hr>
            <ns3:cad>0</ns3:cad>
          </ns3:TrackPointExtension>
        </extensions>
      </trkpt>
      <trkpt lat="44.71917514689266681671142578125" lon="6.73211806453764438629150390625">
        <ele>1875.4000244140625</ele>
        <time>2026-09-03T05:19:19.000Z</time>
        <extensions>
          <ns3:TrackPointExtension>
            <ns3:hr>115</ns3:hr>
            <ns3:cad>0</ns3:cad>
          </ns3:TrackPointExtension>
        </extensions>
      </trkpt>
      <trkpt lat="44.71917347051203250885009765625" lon="6.73213164322078227996826171875">
        <ele>1875</ele>
        <time>2026-09-03T05:19:20.000Z</time>
        <extensions>
          <ns3:TrackPointExtension>
            <ns3:hr>115</ns3:hr>
            <ns3:cad>77</ns3:cad>
          </ns3:TrackPointExtension>
        </extensions>
      </trkpt>
      <trkpt lat="44.71917447634041309356689453125" lon="6.7321546934545040130615234375">
        <ele>1874.5999755859375</ele>
        <time>2026-09-03T05:19:21.000Z</time>
        <extensions>
          <ns3:TrackPointExtension>
            <ns3:hr>115</ns3:hr>
            <ns3:cad>77</ns3:cad>
          </ns3:TrackPointExtension>
        </extensions>
      </trkpt>
      <trkpt lat="44.71917665563523769378662109375" lon="6.732183359563350677490234375">
        <ele>1874.199951171875</ele>
        <time>2026-09-03T05:19:22.000Z</time>
        <extensions>
          <ns3:TrackPointExtension>
            <ns3:hr>115</ns3:hr>
            <ns3:cad>77</ns3:cad>
          </ns3:TrackPointExtension>
        </extensions>
      </trkpt>
      <trkpt lat="44.71918202005326747894287109375" lon="6.7322069965302944183349609375">
        <ele>1873.800048828125</ele>
        <time>2026-09-03T05:19:23.000Z</time>
        <extensions>
          <ns3:TrackPointExtension>
            <ns3:hr>115</ns3:hr>
            <ns3:cad>75</ns3:cad>
          </ns3:TrackPointExtension>
        </extensions>
      </trkpt>
      <trkpt lat="44.71919073723256587982177734375" lon="6.73221093602478504180908203125">
        <ele>1873.4000244140625</ele>
        <time>2026-09-03T05:19:24.000Z</time>
        <extensions>
          <ns3:TrackPointExtension>
            <ns3:hr>115</ns3:hr>
            <ns3:cad>75</ns3:cad>
          </ns3:TrackPointExtension>
        </extensions>
      </trkpt>
      <trkpt lat="44.7191941738128662109375" lon="6.73223239369690418243408203125">
        <ele>1873</ele>
        <time>2026-09-03T05:19:25.000Z</time>
        <extensions>
          <ns3:TrackPointExtension>
            <ns3:hr>115</ns3:hr>
            <ns3:cad>75</ns3:cad>
          </ns3:TrackPointExtension>
        </extensions>
      </trkpt>
      <trkpt lat="44.71919492818415164947509765625" lon="6.7322467267513275146484375">
        <ele>1872.800048828125</ele>
        <time>2026-09-03T05:19:26.000Z</time>
        <extensions>
          <ns3:TrackPointExtension>
            <ns3:hr>115</ns3:hr>
            <ns3:cad>75</ns3:cad>
          </ns3:TrackPointExtension>
        </extensions>
      </trkpt>
      <trkpt lat="44.71920398063957691192626953125" lon="6.73226173035800457000732421875">
        <ele>1872.4000244140625</ele>
        <time>2026-09-03T05:19:27.000Z</time>
        <extensions>
          <ns3:TrackPointExtension>
            <ns3:hr>115</ns3:hr>
            <ns3:cad>75</ns3:cad>
          </ns3:TrackPointExtension>
        </extensions>
      </trkpt>
      <trkpt lat="44.71921202726662158966064453125" lon="6.7322710342705249786376953125">
        <ele>1872</ele>
        <time>2026-09-03T05:19:28.000Z</time>
        <extensions>
          <ns3:TrackPointExtension>
            <ns3:hr>115</ns3:hr>
            <ns3:cad>75</ns3:cad>
          </ns3:TrackPointExtension>
        </extensions>
      </trkpt>
      <trkpt lat="44.71921772696077823638916015625" lon="6.73229056410491466522216796875">
        <ele>1871.5999755859375</ele>
        <time>2026-09-03T05:19:29.000Z</time>
        <extensions>
          <ns3:TrackPointExtension>
            <ns3:hr>115</ns3:hr>
            <ns3:cad>75</ns3:cad>
          </ns3:TrackPointExtension>
        </extensions>
      </trkpt>
      <trkpt lat="44.71922376193106174468994140625" lon="6.73231353051960468292236328125">
        <ele>1871.4000244140625</ele>
        <time>2026-09-03T05:19:30.000Z</time>
        <extensions>
          <ns3:TrackPointExtension>
            <ns3:hr>115</ns3:hr>
            <ns3:cad>0</ns3:cad>
          </ns3:TrackPointExtension>
        </extensions>
      </trkpt>
      <trkpt lat="44.719226695597171783447265625" lon="6.73233783803880214691162109375">
        <ele>1871</ele>
        <time>2026-09-03T05:19:31.000Z</time>
        <extensions>
          <ns3:TrackPointExtension>
            <ns3:hr>114</ns3:hr>
            <ns3:cad>0</ns3:cad>
          </ns3:TrackPointExtension>
        </extensions>
      </trkpt>
      <trkpt lat="44.719233401119709014892578125" lon="6.7323545180261135101318359375">
        <ele>1870.800048828125</ele>
        <time>2026-09-03T05:19:32.000Z</time>
        <extensions>
          <ns3:TrackPointExtension>
            <ns3:hr>114</ns3:hr>
            <ns3:cad>0</ns3:cad>
          </ns3:TrackPointExtension>
        </extensions>
      </trkpt>
      <trkpt lat="44.7192392684519290924072265625" lon="6.73237522132694721221923828125">
        <ele>1870.4000244140625</ele>
        <time>2026-09-03T05:19:33.000Z</time>
        <extensions>
          <ns3:TrackPointExtension>
            <ns3:hr>114</ns3:hr>
            <ns3:cad>0</ns3:cad>
          </ns3:TrackPointExtension>
        </extensions>
      </trkpt>
      <trkpt lat="44.719242788851261138916015625" lon="6.73238913528621196746826171875">
        <ele>1870</ele>
        <time>2026-09-03T05:19:34.000Z</time>
        <extensions>
          <ns3:TrackPointExtension>
            <ns3:hr>113</ns3:hr>
            <ns3:cad>0</ns3:cad>
          </ns3:TrackPointExtension>
        </extensions>
      </trkpt>
      <trkpt lat="44.7192442975938320159912109375" lon="6.73240690492093563079833984375">
        <ele>1869.5999755859375</ele>
        <time>2026-09-03T05:19:35.000Z</time>
        <extensions>
          <ns3:TrackPointExtension>
            <ns3:hr>113</ns3:hr>
            <ns3:cad>0</ns3:cad>
          </ns3:TrackPointExtension>
        </extensions>
      </trkpt>
      <trkpt lat="44.719245471060276031494140625" lon="6.7324172146618366241455078125">
        <ele>1869</ele>
        <time>2026-09-03T05:19:36.000Z</time>
        <extensions>
          <ns3:TrackPointExtension>
            <ns3:hr>113</ns3:hr>
            <ns3:cad>0</ns3:cad>
          </ns3:TrackPointExtension>
        </extensions>
      </trkpt>
      <trkpt lat="44.719248153269290924072265625" lon="6.7324386723339557647705078125">
        <ele>1868.800048828125</ele>
        <time>2026-09-03T05:19:37.000Z</time>
        <extensions>
          <ns3:TrackPointExtension>
            <ns3:hr>113</ns3:hr>
            <ns3:cad>0</ns3:cad>
          </ns3:TrackPointExtension>
        </extensions>
      </trkpt>
      <trkpt lat="44.71924974583089351654052734375" lon="6.7324621416628360748291015625">
        <ele>1868.4000244140625</ele>
        <time>2026-09-03T05:19:38.000Z</time>
        <extensions>
          <ns3:TrackPointExtension>
            <ns3:hr>113</ns3:hr>
            <ns3:cad>74</ns3:cad>
          </ns3:TrackPointExtension>
        </extensions>
      </trkpt>
      <trkpt lat="44.71925108693540096282958984375" lon="6.73248368315398693084716796875">
        <ele>1868</ele>
        <time>2026-09-03T05:19:39.000Z</time>
        <extensions>
          <ns3:TrackPointExtension>
            <ns3:hr>113</ns3:hr>
            <ns3:cad>74</ns3:cad>
          </ns3:TrackPointExtension>
        </extensions>
      </trkpt>
      <trkpt lat="44.71925209276378154754638671875" lon="6.73250849358737468719482421875">
        <ele>1867.800048828125</ele>
        <time>2026-09-03T05:19:40.000Z</time>
        <extensions>
          <ns3:TrackPointExtension>
            <ns3:hr>112</ns3:hr>
            <ns3:cad>83</ns3:cad>
          </ns3:TrackPointExtension>
        </extensions>
      </trkpt>
      <trkpt lat="44.719251506030559539794921875" lon="6.73253565095365047454833984375">
        <ele>1867.5999755859375</ele>
        <time>2026-09-03T05:19:41.000Z</time>
        <extensions>
          <ns3:TrackPointExtension>
            <ns3:hr>112</ns3:hr>
            <ns3:cad>83</ns3:cad>
          </ns3:TrackPointExtension>
        </extensions>
      </trkpt>
      <trkpt lat="44.7192530147731304168701171875" lon="6.73255710862576961517333984375">
        <ele>1867.199951171875</ele>
        <time>2026-09-03T05:19:42.000Z</time>
        <extensions>
          <ns3:TrackPointExtension>
            <ns3:hr>112</ns3:hr>
            <ns3:cad>0</ns3:cad>
          </ns3:TrackPointExtension>
        </extensions>
      </trkpt>
      <trkpt lat="44.7192546911537647247314453125" lon="6.7325808294117450714111328125">
        <ele>1867</ele>
        <time>2026-09-03T05:19:43.000Z</time>
        <extensions>
          <ns3:TrackPointExtension>
            <ns3:hr>112</ns3:hr>
            <ns3:cad>0</ns3:cad>
          </ns3:TrackPointExtension>
        </extensions>
      </trkpt>
      <trkpt lat="44.7192536853253841400146484375" lon="6.73260019160807132720947265625">
        <ele>1866.800048828125</ele>
        <time>2026-09-03T05:19:44.000Z</time>
        <extensions>
          <ns3:TrackPointExtension>
            <ns3:hr>111</ns3:hr>
            <ns3:cad>0</ns3:cad>
          </ns3:TrackPointExtension>
        </extensions>
      </trkpt>
      <trkpt lat="44.71925175748765468597412109375" lon="6.73262382857501506805419921875">
        <ele>1866.5999755859375</ele>
        <time>2026-09-03T05:19:45.000Z</time>
        <extensions>
          <ns3:TrackPointExtension>
            <ns3:hr>111</ns3:hr>
            <ns3:cad>68</ns3:cad>
          </ns3:TrackPointExtension>
        </extensions>
      </trkpt>
      <trkpt lat="44.71924086101353168487548828125" lon="6.732638664543628692626953125">
        <ele>1866.199951171875</ele>
        <time>2026-09-03T05:19:46.000Z</time>
        <extensions>
          <ns3:TrackPointExtension>
            <ns3:hr>111</ns3:hr>
            <ns3:cad>68</ns3:cad>
          </ns3:TrackPointExtension>
        </extensions>
      </trkpt>
      <trkpt lat="44.71923734061419963836669921875" lon="6.73265769146382808685302734375">
        <ele>1865.800048828125</ele>
        <time>2026-09-03T05:19:47.000Z</time>
        <extensions>
          <ns3:TrackPointExtension>
            <ns3:hr>111</ns3:hr>
            <ns3:cad>68</ns3:cad>
          </ns3:TrackPointExtension>
        </extensions>
      </trkpt>
      <trkpt lat="44.71923130564391613006591796875" lon="6.7326770536601543426513671875">
        <ele>1865.5999755859375</ele>
        <time>2026-09-03T05:19:48.000Z</time>
        <extensions>
          <ns3:TrackPointExtension>
            <ns3:hr>111</ns3:hr>
            <ns3:cad>70</ns3:cad>
          </ns3:TrackPointExtension>
        </extensions>
      </trkpt>
      <trkpt lat="44.7192335687577724456787109375" lon="6.73270613886415958404541015625">
        <ele>1865.199951171875</ele>
        <time>2026-09-03T05:19:49.000Z</time>
        <extensions>
          <ns3:TrackPointExtension>
            <ns3:hr>110</ns3:hr>
            <ns3:cad>70</ns3:cad>
          </ns3:TrackPointExtension>
        </extensions>
      </trkpt>
      <trkpt lat="44.719234071671962738037109375" lon="6.73272709362208843231201171875">
        <ele>1865</ele>
        <time>2026-09-03T05:19:50.000Z</time>
        <extensions>
          <ns3:TrackPointExtension>
            <ns3:hr>109</ns3:hr>
            <ns3:cad>70</ns3:cad>
          </ns3:TrackPointExtension>
        </extensions>
      </trkpt>
      <trkpt lat="44.7192342393100261688232421875" lon="6.73274637199938297271728515625">
        <ele>1864.5999755859375</ele>
        <time>2026-09-03T05:19:51.000Z</time>
        <extensions>
          <ns3:TrackPointExtension>
            <ns3:hr>109</ns3:hr>
            <ns3:cad>70</ns3:cad>
          </ns3:TrackPointExtension>
        </extensions>
      </trkpt>
      <trkpt lat="44.71923046745359897613525390625" lon="6.7327670753002166748046875">
        <ele>1864.4000244140625</ele>
        <time>2026-09-03T05:19:52.000Z</time>
        <extensions>
          <ns3:TrackPointExtension>
            <ns3:hr>109</ns3:hr>
            <ns3:cad>70</ns3:cad>
          </ns3:TrackPointExtension>
        </extensions>
      </trkpt>
      <trkpt lat="44.71922728233039379119873046875" lon="6.73279012553393840789794921875">
        <ele>1864</ele>
        <time>2026-09-03T05:19:53.000Z</time>
        <extensions>
          <ns3:TrackPointExtension>
            <ns3:hr>109</ns3:hr>
            <ns3:cad>70</ns3:cad>
          </ns3:TrackPointExtension>
        </extensions>
      </trkpt>
      <trkpt lat="44.719226025044918060302734375" lon="6.73281057737767696380615234375">
        <ele>1863.800048828125</ele>
        <time>2026-09-03T05:19:54.000Z</time>
        <extensions>
          <ns3:TrackPointExtension>
            <ns3:hr>109</ns3:hr>
            <ns3:cad>70</ns3:cad>
          </ns3:TrackPointExtension>
        </extensions>
      </trkpt>
      <trkpt lat="44.71922258846461772918701171875" lon="6.732824407517910003662109375">
        <ele>1863.4000244140625</ele>
        <time>2026-09-03T05:19:55.000Z</time>
        <extensions>
          <ns3:TrackPointExtension>
            <ns3:hr>109</ns3:hr>
            <ns3:cad>0</ns3:cad>
          </ns3:TrackPointExtension>
        </extensions>
      </trkpt>
      <trkpt lat="44.7192198224365711212158203125" lon="6.73283840529620647430419921875">
        <ele>1863.199951171875</ele>
        <time>2026-09-03T05:19:56.000Z</time>
        <extensions>
          <ns3:TrackPointExtension>
            <ns3:hr>110</ns3:hr>
            <ns3:cad>0</ns3:cad>
          </ns3:TrackPointExtension>
        </extensions>
      </trkpt>
      <trkpt lat="44.71920917741954326629638671875" lon="6.73285667784512042999267578125">
        <ele>1862.800048828125</ele>
        <time>2026-09-03T05:19:57.000Z</time>
        <extensions>
          <ns3:TrackPointExtension>
            <ns3:hr>110</ns3:hr>
            <ns3:cad>40</ns3:cad>
          </ns3:TrackPointExtension>
        </extensions>
      </trkpt>
      <trkpt lat="44.7192074172198772430419921875" lon="6.73287277109920978546142578125">
        <ele>1862.4000244140625</ele>
        <time>2026-09-03T05:19:58.000Z</time>
        <extensions>
          <ns3:TrackPointExtension>
            <ns3:hr>110</ns3:hr>
            <ns3:cad>40</ns3:cad>
          </ns3:TrackPointExtension>
        </extensions>
      </trkpt>
      <trkpt lat="44.7191955149173736572265625" lon="6.7328973300755023956298828125">
        <ele>1862</ele>
        <time>2026-09-03T05:19:59.000Z</time>
        <extensions>
          <ns3:TrackPointExtension>
            <ns3:hr>110</ns3:hr>
            <ns3:cad>40</ns3:cad>
          </ns3:TrackPointExtension>
        </extensions>
      </trkpt>
      <trkpt lat="44.719185791909694671630859375" lon="6.73291937448084354400634765625">
        <ele>1861.800048828125</ele>
        <time>2026-09-03T05:20:00.000Z</time>
        <extensions>
          <ns3:TrackPointExtension>
            <ns3:hr>110</ns3:hr>
            <ns3:cad>40</ns3:cad>
          </ns3:TrackPointExtension>
        </extensions>
      </trkpt>
      <trkpt lat="44.7191698662936687469482421875" lon="6.73293999396264553070068359375">
        <ele>1861.4000244140625</ele>
        <time>2026-09-03T05:20:01.000Z</time>
        <extensions>
          <ns3:TrackPointExtension>
            <ns3:hr>110</ns3:hr>
            <ns3:cad>40</ns3:cad>
          </ns3:TrackPointExtension>
        </extensions>
      </trkpt>
      <trkpt lat="44.71916022710502147674560546875" lon="6.73295424319803714752197265625">
        <ele>1861</ele>
        <time>2026-09-03T05:20:02.000Z</time>
        <extensions>
          <ns3:TrackPointExtension>
            <ns3:hr>110</ns3:hr>
            <ns3:cad>40</ns3:cad>
          </ns3:TrackPointExtension>
        </extensions>
      </trkpt>
      <trkpt lat="44.7191497497260570526123046875" lon="6.73296413384377956390380859375">
        <ele>1860.5999755859375</ele>
        <time>2026-09-03T05:20:03.000Z</time>
        <extensions>
          <ns3:TrackPointExtension>
            <ns3:hr>110</ns3:hr>
            <ns3:cad>40</ns3:cad>
          </ns3:TrackPointExtension>
        </extensions>
      </trkpt>
      <trkpt lat="44.7191417030990123748779296875" lon="6.73297821544110774993896484375">
        <ele>1860.199951171875</ele>
        <time>2026-09-03T05:20:04.000Z</time>
        <extensions>
          <ns3:TrackPointExtension>
            <ns3:hr>109</ns3:hr>
            <ns3:cad>81</ns3:cad>
          </ns3:TrackPointExtension>
        </extensions>
      </trkpt>
      <trkpt lat="44.71913323737680912017822265625" lon="6.732990704476833343505859375">
        <ele>1860</ele>
        <time>2026-09-03T05:20:05.000Z</time>
        <extensions>
          <ns3:TrackPointExtension>
            <ns3:hr>110</ns3:hr>
            <ns3:cad>85</ns3:cad>
          </ns3:TrackPointExtension>
        </extensions>
      </trkpt>
      <trkpt lat="44.7191262803971767425537109375" lon="6.7330019362270832061767578125">
        <ele>1859.5999755859375</ele>
        <time>2026-09-03T05:20:06.000Z</time>
        <extensions>
          <ns3:TrackPointExtension>
            <ns3:hr>110</ns3:hr>
            <ns3:cad>85</ns3:cad>
          </ns3:TrackPointExtension>
        </extensions>
      </trkpt>
      <trkpt lat="44.719126112759113311767578125" lon="6.73301325179636478424072265625">
        <ele>1859.4000244140625</ele>
        <time>2026-09-03T05:20:07.000Z</time>
        <extensions>
          <ns3:TrackPointExtension>
            <ns3:hr>109</ns3:hr>
            <ns3:cad>71</ns3:cad>
          </ns3:TrackPointExtension>
        </extensions>
      </trkpt>
      <trkpt lat="44.71911571919918060302734375" lon="6.73302984796464443206787109375">
        <ele>1859.199951171875</ele>
        <time>2026-09-03T05:20:08.000Z</time>
        <extensions>
          <ns3:TrackPointExtension>
            <ns3:hr>109</ns3:hr>
            <ns3:cad>71</ns3:cad>
          </ns3:TrackPointExtension>
        </extensions>
      </trkpt>
      <trkpt lat="44.71910323016345500946044921875" lon="6.73304627649486064910888671875">
        <ele>1858.800048828125</ele>
        <time>2026-09-03T05:20:09.000Z</time>
        <extensions>
          <ns3:TrackPointExtension>
            <ns3:hr>109</ns3:hr>
            <ns3:cad>71</ns3:cad>
          </ns3:TrackPointExtension>
        </extensions>
      </trkpt>
      <trkpt lat="44.7190823592245578765869140625" lon="6.7330710031092166900634765625">
        <ele>1858.5999755859375</ele>
        <time>2026-09-03T05:20:10.000Z</time>
        <extensions>
          <ns3:TrackPointExtension>
            <ns3:hr>109</ns3:hr>
            <ns3:cad>65</ns3:cad>
          </ns3:TrackPointExtension>
        </extensions>
      </trkpt>
      <trkpt lat="44.7190729714930057525634765625" lon="6.73309438861906528472900390625">
        <ele>1858.199951171875</ele>
        <time>2026-09-03T05:20:11.000Z</time>
        <extensions>
          <ns3:TrackPointExtension>
            <ns3:hr>109</ns3:hr>
            <ns3:cad>65</ns3:cad>
          </ns3:TrackPointExtension>
        </extensions>
      </trkpt>
      <trkpt lat="44.719063751399517059326171875" lon="6.733110733330249786376953125">
        <ele>1857.800048828125</ele>
        <time>2026-09-03T05:20:12.000Z</time>
        <extensions>
          <ns3:TrackPointExtension>
            <ns3:hr>108</ns3:hr>
            <ns3:cad>65</ns3:cad>
          </ns3:TrackPointExtension>
        </extensions>
      </trkpt>
      <trkpt lat="44.71905662678182125091552734375" lon="6.73312372528016567230224609375">
        <ele>1857.4000244140625</ele>
        <time>2026-09-03T05:20:13.000Z</time>
        <extensions>
          <ns3:TrackPointExtension>
            <ns3:hr>108</ns3:hr>
            <ns3:cad>67</ns3:cad>
          </ns3:TrackPointExtension>
        </extensions>
      </trkpt>
      <trkpt lat="44.71905461512506008148193359375" lon="6.733135879039764404296875">
        <ele>1857.199951171875</ele>
        <time>2026-09-03T05:20:14.000Z</time>
        <extensions>
          <ns3:TrackPointExtension>
            <ns3:hr>108</ns3:hr>
            <ns3:cad>67</ns3:cad>
          </ns3:TrackPointExtension>
        </extensions>
      </trkpt>
      <trkpt lat="44.71905268728733062744140625" lon="6.73314769752323627471923828125">
        <ele>1857</ele>
        <time>2026-09-03T05:20:15.000Z</time>
        <extensions>
          <ns3:TrackPointExtension>
            <ns3:hr>108</ns3:hr>
            <ns3:cad>67</ns3:cad>
          </ns3:TrackPointExtension>
        </extensions>
      </trkpt>
      <trkpt lat="44.7190495021641254425048828125" lon="6.7331588454544544219970703125">
        <ele>1856.800048828125</ele>
        <time>2026-09-03T05:20:16.000Z</time>
        <extensions>
          <ns3:TrackPointExtension>
            <ns3:hr>107</ns3:hr>
            <ns3:cad>0</ns3:cad>
          </ns3:TrackPointExtension>
        </extensions>
      </trkpt>
      <trkpt lat="44.7190451435744762420654296875" lon="6.73317435197532176971435546875">
        <ele>1856.4000244140625</ele>
        <time>2026-09-03T05:20:17.000Z</time>
        <extensions>
          <ns3:TrackPointExtension>
            <ns3:hr>107</ns3:hr>
            <ns3:cad>0</ns3:cad>
          </ns3:TrackPointExtension>
        </extensions>
      </trkpt>
      <trkpt lat="44.71904070116579532623291015625" lon="6.73319287598133087158203125">
        <ele>1856.199951171875</ele>
        <time>2026-09-03T05:20:18.000Z</time>
        <extensions>
          <ns3:TrackPointExtension>
            <ns3:hr>107</ns3:hr>
            <ns3:cad>68</ns3:cad>
          </ns3:TrackPointExtension>
        </extensions>
      </trkpt>
      <trkpt lat="44.71903567202389240264892578125" lon="6.7332077957689762115478515625">
        <ele>1855.800048828125</ele>
        <time>2026-09-03T05:20:19.000Z</time>
        <extensions>
          <ns3:TrackPointExtension>
            <ns3:hr>107</ns3:hr>
            <ns3:cad>68</ns3:cad>
          </ns3:TrackPointExtension>
        </extensions>
      </trkpt>
      <trkpt lat="44.719030894339084625244140625" lon="6.73321827314794063568115234375">
        <ele>1855.5999755859375</ele>
        <time>2026-09-03T05:20:20.000Z</time>
        <extensions>
          <ns3:TrackPointExtension>
            <ns3:hr>107</ns3:hr>
            <ns3:cad>68</ns3:cad>
          </ns3:TrackPointExtension>
        </extensions>
      </trkpt>
      <trkpt lat="44.71902494318783283233642578125" lon="6.733224056661128997802734375">
        <ele>1855.199951171875</ele>
        <time>2026-09-03T05:20:21.000Z</time>
        <extensions>
          <ns3:TrackPointExtension>
            <ns3:hr>106</ns3:hr>
            <ns3:cad>63</ns3:cad>
          </ns3:TrackPointExtension>
        </extensions>
      </trkpt>
      <trkpt lat="44.71901941113173961639404296875" lon="6.73323302529752254486083984375">
        <ele>1855</ele>
        <time>2026-09-03T05:20:22.000Z</time>
        <extensions>
          <ns3:TrackPointExtension>
            <ns3:hr>106</ns3:hr>
            <ns3:cad>63</ns3:cad>
          </ns3:TrackPointExtension>
        </extensions>
      </trkpt>
      <trkpt lat="44.71901203505694866180419921875" lon="6.733237802982330322265625">
        <ele>1854.5999755859375</ele>
        <time>2026-09-03T05:20:23.000Z</time>
        <extensions>
          <ns3:TrackPointExtension>
            <ns3:hr>106</ns3:hr>
            <ns3:cad>63</ns3:cad>
          </ns3:TrackPointExtension>
        </extensions>
      </trkpt>
      <trkpt lat="44.71900600008666515350341796875" lon="6.7332351207733154296875">
        <ele>1854.4000244140625</ele>
        <time>2026-09-03T05:20:24.000Z</time>
        <extensions>
          <ns3:TrackPointExtension>
            <ns3:hr>105</ns3:hr>
            <ns3:cad>65</ns3:cad>
          </ns3:TrackPointExtension>
        </extensions>
      </trkpt>
      <trkpt lat="44.71900851465761661529541015625" lon="6.73321969807147979736328125">
        <ele>1854</ele>
        <time>2026-09-03T05:20:25.000Z</time>
        <extensions>
          <ns3:TrackPointExtension>
            <ns3:hr>105</ns3:hr>
            <ns3:cad>65</ns3:cad>
          </ns3:TrackPointExtension>
        </extensions>
      </trkpt>
      <trkpt lat="44.71900935284793376922607421875" lon="6.73320226371288299560546875">
        <ele>1853.800048828125</ele>
        <time>2026-09-03T05:20:26.000Z</time>
        <extensions>
          <ns3:TrackPointExtension>
            <ns3:hr>105</ns3:hr>
            <ns3:cad>65</ns3:cad>
          </ns3:TrackPointExtension>
        </extensions>
      </trkpt>
      <trkpt lat="44.71900851465761661529541015625" lon="6.7331772856414318084716796875">
        <ele>1853.4000244140625</ele>
        <time>2026-09-03T05:20:27.000Z</time>
        <extensions>
          <ns3:TrackPointExtension>
            <ns3:hr>105</ns3:hr>
            <ns3:cad>65</ns3:cad>
          </ns3:TrackPointExtension>
        </extensions>
      </trkpt>
      <trkpt lat="44.71900516189634799957275390625" lon="6.733155660331249237060546875">
        <ele>1853</ele>
        <time>2026-09-03T05:20:28.000Z</time>
        <extensions>
          <ns3:TrackPointExtension>
            <ns3:hr>105</ns3:hr>
            <ns3:cad>65</ns3:cad>
          </ns3:TrackPointExtension>
        </extensions>
      </trkpt>
      <trkpt lat="44.71900030039250850677490234375" lon="6.7331347055733203887939453125">
        <ele>1852.5999755859375</ele>
        <time>2026-09-03T05:20:29.000Z</time>
        <extensions>
          <ns3:TrackPointExtension>
            <ns3:hr>104</ns3:hr>
            <ns3:cad>65</ns3:cad>
          </ns3:TrackPointExtension>
        </extensions>
      </trkpt>
      <trkpt lat="44.718997366726398468017578125" lon="6.733118109405040740966796875">
        <ele>1852.4000244140625</ele>
        <time>2026-09-03T05:20:30.000Z</time>
        <extensions>
          <ns3:TrackPointExtension>
            <ns3:hr>104</ns3:hr>
            <ns3:cad>65</ns3:cad>
          </ns3:TrackPointExtension>
        </extensions>
      </trkpt>
      <trkpt lat="44.71899577416479587554931640625" lon="6.733100004494190216064453125">
        <ele>1852</ele>
        <time>2026-09-03T05:20:31.000Z</time>
        <extensions>
          <ns3:TrackPointExtension>
            <ns3:hr>104</ns3:hr>
            <ns3:cad>75</ns3:cad>
          </ns3:TrackPointExtension>
        </extensions>
      </trkpt>
      <trkpt lat="44.71899409778416156768798828125" lon="6.73308332450687885284423828125">
        <ele>1851.800048828125</ele>
        <time>2026-09-03T05:20:32.000Z</time>
        <extensions>
          <ns3:TrackPointExtension>
            <ns3:hr>104</ns3:hr>
            <ns3:cad>75</ns3:cad>
          </ns3:TrackPointExtension>
        </extensions>
      </trkpt>
      <trkpt lat="44.71899426542222499847412109375" lon="6.7330653034150600433349609375">
        <ele>1851.5999755859375</ele>
        <time>2026-09-03T05:20:33.000Z</time>
        <extensions>
          <ns3:TrackPointExtension>
            <ns3:hr>104</ns3:hr>
            <ns3:cad>75</ns3:cad>
          </ns3:TrackPointExtension>
        </extensions>
      </trkpt>
      <trkpt lat="44.71899895928800106048583984375" lon="6.7330540716648101806640625">
        <ele>1851.4000244140625</ele>
        <time>2026-09-03T05:20:34.000Z</time>
        <extensions>
          <ns3:TrackPointExtension>
            <ns3:hr>103</ns3:hr>
            <ns3:cad>75</ns3:cad>
          </ns3:TrackPointExtension>
        </extensions>
      </trkpt>
      <trkpt lat="44.7189965285360813140869140625" lon="6.73304669559001922607421875">
        <ele>1851.199951171875</ele>
        <time>2026-09-03T05:20:35.000Z</time>
        <extensions>
          <ns3:TrackPointExtension>
            <ns3:hr>103</ns3:hr>
            <ns3:cad>75</ns3:cad>
          </ns3:TrackPointExtension>
        </extensions>
      </trkpt>
      <trkpt lat="44.7190008871257305145263671875" lon="6.733041666448116302490234375">
        <ele>1850.800048828125</ele>
        <time>2026-09-03T05:20:36.000Z</time>
        <extensions>
          <ns3:TrackPointExtension>
            <ns3:hr>103</ns3:hr>
            <ns3:cad>75</ns3:cad>
          </ns3:TrackPointExtension>
        </extensions>
      </trkpt>
      <trkpt lat="44.719003736972808837890625" lon="6.73303185962140560150146484375">
        <ele>1850.5999755859375</ele>
        <time>2026-09-03T05:20:37.000Z</time>
        <extensions>
          <ns3:TrackPointExtension>
            <ns3:hr>103</ns3:hr>
            <ns3:cad>75</ns3:cad>
          </ns3:TrackPointExtension>
        </extensions>
      </trkpt>
      <trkpt lat="44.71900516189634799957275390625" lon="6.73300738446414470672607421875">
        <ele>1850.199951171875</ele>
        <time>2026-09-03T05:20:38.000Z</time>
        <extensions>
          <ns3:TrackPointExtension>
            <ns3:hr>102</ns3:hr>
            <ns3:cad>75</ns3:cad>
          </ns3:TrackPointExtension>
        </extensions>
      </trkpt>
      <trkpt lat="44.7190092690289020538330078125" lon="6.73298089765012264251708984375">
        <ele>1849.800048828125</ele>
        <time>2026-09-03T05:20:39.000Z</time>
        <extensions>
          <ns3:TrackPointExtension>
            <ns3:hr>102</ns3:hr>
            <ns3:cad>75</ns3:cad>
          </ns3:TrackPointExtension>
        </extensions>
      </trkpt>
      <trkpt lat="44.71901169978082180023193359375" lon="6.73295692540705204010009765625">
        <ele>1849.5999755859375</ele>
        <time>2026-09-03T05:20:40.000Z</time>
        <extensions>
          <ns3:TrackPointExtension>
            <ns3:hr>102</ns3:hr>
            <ns3:cad>75</ns3:cad>
          </ns3:TrackPointExtension>
        </extensions>
      </trkpt>
      <trkpt lat="44.71900750882923603057861328125" lon="6.7329432629048824310302734375">
        <ele>1849.199951171875</ele>
        <time>2026-09-03T05:20:41.000Z</time>
        <extensions>
          <ns3:TrackPointExtension>
            <ns3:hr>102</ns3:hr>
            <ns3:cad>75</ns3:cad>
          </ns3:TrackPointExtension>
        </extensions>
      </trkpt>
      <trkpt lat="44.71900264732539653778076171875" lon="6.73292071558535099029541015625">
        <ele>1848.800048828125</ele>
        <time>2026-09-03T05:20:42.000Z</time>
        <extensions>
          <ns3:TrackPointExtension>
            <ns3:hr>101</ns3:hr>
            <ns3:cad>75</ns3:cad>
          </ns3:TrackPointExtension>
        </extensions>
      </trkpt>
      <trkpt lat="44.71900180913507938385009765625" lon="6.7329000122845172882080078125">
        <ele>1848.5999755859375</ele>
        <time>2026-09-03T05:20:43.000Z</time>
        <extensions>
          <ns3:TrackPointExtension>
            <ns3:hr>101</ns3:hr>
            <ns3:cad>75</ns3:cad>
          </ns3:TrackPointExtension>
        </extensions>
      </trkpt>
      <trkpt lat="44.71900583244860172271728515625" lon="6.7328785546123981475830078125">
        <ele>1848.199951171875</ele>
        <time>2026-09-03T05:20:44.000Z</time>
        <extensions>
          <ns3:TrackPointExtension>
            <ns3:hr>101</ns3:hr>
            <ns3:cad>75</ns3:cad>
          </ns3:TrackPointExtension>
        </extensions>
      </trkpt>
      <trkpt lat="44.71900415606796741485595703125" lon="6.73286304809153079986572265625">
        <ele>1848</ele>
        <time>2026-09-03T05:20:45.000Z</time>
        <extensions>
          <ns3:TrackPointExtension>
            <ns3:hr>101</ns3:hr>
            <ns3:cad>75</ns3:cad>
          </ns3:TrackPointExtension>
        </extensions>
      </trkpt>
      <trkpt lat="44.71899879164993762969970703125" lon="6.7328500561416149139404296875">
        <ele>1847.5999755859375</ele>
        <time>2026-09-03T05:20:46.000Z</time>
        <extensions>
          <ns3:TrackPointExtension>
            <ns3:hr>101</ns3:hr>
            <ns3:cad>74</ns3:cad>
          </ns3:TrackPointExtension>
        </extensions>
      </trkpt>
      <trkpt lat="44.71899024210870265960693359375" lon="6.73284460790455341339111328125">
        <ele>1847.199951171875</ele>
        <time>2026-09-03T05:20:47.000Z</time>
        <extensions>
          <ns3:TrackPointExtension>
            <ns3:hr>101</ns3:hr>
            <ns3:cad>74</ns3:cad>
          </ns3:TrackPointExtension>
        </extensions>
      </trkpt>
      <trkpt lat="44.71897624433040618896484375" lon="6.73281870782375335693359375">
        <ele>1847</ele>
        <time>2026-09-03T05:20:48.000Z</time>
        <extensions>
          <ns3:TrackPointExtension>
            <ns3:hr>101</ns3:hr>
            <ns3:cad>74</ns3:cad>
          </ns3:TrackPointExtension>
        </extensions>
      </trkpt>
      <trkpt lat="44.718973897397518157958984375" lon="6.7327907122671604156494140625">
        <ele>1846.5999755859375</ele>
        <time>2026-09-03T05:20:49.000Z</time>
        <extensions>
          <ns3:TrackPointExtension>
            <ns3:hr>101</ns3:hr>
            <ns3:cad>74</ns3:cad>
          </ns3:TrackPointExtension>
        </extensions>
      </trkpt>
      <trkpt lat="44.71896828152239322662353515625" lon="6.73276950605213642120361328125">
        <ele>1846.4000244140625</ele>
        <time>2026-09-03T05:20:50.000Z</time>
        <extensions>
          <ns3:TrackPointExtension>
            <ns3:hr>100</ns3:hr>
            <ns3:cad>74</ns3:cad>
          </ns3:TrackPointExtension>
        </extensions>
      </trkpt>
      <trkpt lat="44.7189589776098728179931640625" lon="6.73274721018970012664794921875">
        <ele>1846</ele>
        <time>2026-09-03T05:20:51.000Z</time>
        <extensions>
          <ns3:TrackPointExtension>
            <ns3:hr>99</ns3:hr>
            <ns3:cad>69</ns3:cad>
          </ns3:TrackPointExtension>
        </extensions>
      </trkpt>
      <trkpt lat="44.71895034424960613250732421875" lon="6.73273849301040172576904296875">
        <ele>1845.5999755859375</ele>
        <time>2026-09-03T05:20:52.000Z</time>
        <extensions>
          <ns3:TrackPointExtension>
            <ns3:hr>98</ns3:hr>
            <ns3:cad>69</ns3:cad>
          </ns3:TrackPointExtension>
        </extensions>
      </trkpt>
      <trkpt lat="44.718939363956451416015625" lon="6.73271938227117061614990234375">
        <ele>1845.199951171875</ele>
        <time>2026-09-03T05:20:53.000Z</time>
        <extensions>
          <ns3:TrackPointExtension>
            <ns3:hr>98</ns3:hr>
            <ns3:cad>0</ns3:cad>
          </ns3:TrackPointExtension>
        </extensions>
      </trkpt>
      <trkpt lat="44.7189234383404254913330078125" lon="6.7326981760561466217041015625">
        <ele>1844.800048828125</ele>
        <time>2026-09-03T05:20:54.000Z</time>
        <extensions>
          <ns3:TrackPointExtension>
            <ns3:hr>98</ns3:hr>
            <ns3:cad>0</ns3:cad>
          </ns3:TrackPointExtension>
        </extensions>
      </trkpt>
      <trkpt lat="44.718910865485668182373046875" lon="6.73268057405948638916015625">
        <ele>1844.4000244140625</ele>
        <time>2026-09-03T05:20:55.000Z</time>
        <extensions>
          <ns3:TrackPointExtension>
            <ns3:hr>99</ns3:hr>
            <ns3:cad>0</ns3:cad>
          </ns3:TrackPointExtension>
        </extensions>
      </trkpt>
      <trkpt lat="44.718899466097354888916015625" lon="6.73266582190990447998046875">
        <ele>1844</ele>
        <time>2026-09-03T05:20:56.000Z</time>
        <extensions>
          <ns3:TrackPointExtension>
            <ns3:hr>99</ns3:hr>
            <ns3:cad>69</ns3:cad>
          </ns3:TrackPointExtension>
        </extensions>
      </trkpt>
      <trkpt lat="44.71888882108032703399658203125" lon="6.73264838755130767822265625">
        <ele>1843.800048828125</ele>
        <time>2026-09-03T05:20:57.000Z</time>
        <extensions>
          <ns3:TrackPointExtension>
            <ns3:hr>99</ns3:hr>
            <ns3:cad>69</ns3:cad>
          </ns3:TrackPointExtension>
        </extensions>
      </trkpt>
      <trkpt lat="44.7188775055110454559326171875" lon="6.73262768425047397613525390625">
        <ele>1843.4000244140625</ele>
        <time>2026-09-03T05:20:58.000Z</time>
        <extensions>
          <ns3:TrackPointExtension>
            <ns3:hr>98</ns3:hr>
            <ns3:cad>69</ns3:cad>
          </ns3:TrackPointExtension>
        </extensions>
      </trkpt>
      <trkpt lat="44.71886501647531986236572265625" lon="6.732607148587703704833984375">
        <ele>1843</ele>
        <time>2026-09-03T05:20:59.000Z</time>
        <extensions>
          <ns3:TrackPointExtension>
            <ns3:hr>98</ns3:hr>
            <ns3:cad>71</ns3:cad>
          </ns3:TrackPointExtension>
        </extensions>
      </trkpt>
      <trkpt lat="44.718849845230579376220703125" lon="6.7325885407626628875732421875">
        <ele>1842.5999755859375</ele>
        <time>2026-09-03T05:21:00.000Z</time>
        <extensions>
          <ns3:TrackPointExtension>
            <ns3:hr>98</ns3:hr>
            <ns3:cad>73</ns3:cad>
          </ns3:TrackPointExtension>
        </extensions>
      </trkpt>
      <trkpt lat="44.71883945167064666748046875" lon="6.7325739562511444091796875">
        <ele>1842.4000244140625</ele>
        <time>2026-09-03T05:21:01.000Z</time>
        <extensions>
          <ns3:TrackPointExtension>
            <ns3:hr>98</ns3:hr>
            <ns3:cad>73</ns3:cad>
          </ns3:TrackPointExtension>
        </extensions>
      </trkpt>
      <trkpt lat="44.71882872283458709716796875" lon="6.73255744390189647674560546875">
        <ele>1842</ele>
        <time>2026-09-03T05:21:02.000Z</time>
        <extensions>
          <ns3:TrackPointExtension>
            <ns3:hr>99</ns3:hr>
            <ns3:cad>76</ns3:cad>
          </ns3:TrackPointExtension>
        </extensions>
      </trkpt>
      <trkpt lat="44.7188074328005313873291015625" lon="6.73253615386784076690673828125">
        <ele>1841.5999755859375</ele>
        <time>2026-09-03T05:21:03.000Z</time>
        <extensions>
          <ns3:TrackPointExtension>
            <ns3:hr>99</ns3:hr>
            <ns3:cad>76</ns3:cad>
          </ns3:TrackPointExtension>
        </extensions>
      </trkpt>
      <trkpt lat="44.7187970392405986785888671875" lon="6.73252073116600513458251953125">
        <ele>1841.4000244140625</ele>
        <time>2026-09-03T05:21:04.000Z</time>
        <extensions>
          <ns3:TrackPointExtension>
            <ns3:hr>99</ns3:hr>
            <ns3:cad>76</ns3:cad>
          </ns3:TrackPointExtension>
        </extensions>
      </trkpt>
      <trkpt lat="44.71878857351839542388916015625" lon="6.73251419328153133392333984375">
        <ele>1841</ele>
        <time>2026-09-03T05:21:05.000Z</time>
        <extensions>
          <ns3:TrackPointExtension>
            <ns3:hr>99</ns3:hr>
            <ns3:cad>76</ns3:cad>
          </ns3:TrackPointExtension>
        </extensions>
      </trkpt>
      <trkpt lat="44.71878354437649250030517578125" lon="6.73250949941575527191162109375">
        <ele>1840.800048828125</ele>
        <time>2026-09-03T05:21:06.000Z</time>
        <extensions>
          <ns3:TrackPointExtension>
            <ns3:hr>100</ns3:hr>
            <ns3:cad>76</ns3:cad>
          </ns3:TrackPointExtension>
        </extensions>
      </trkpt>
      <trkpt lat="44.7187752462923526763916015625" lon="6.73249810002744197845458984375">
        <ele>1840.4000244140625</ele>
        <time>2026-09-03T05:21:07.000Z</time>
        <extensions>
          <ns3:TrackPointExtension>
            <ns3:hr>100</ns3:hr>
            <ns3:cad>76</ns3:cad>
          </ns3:TrackPointExtension>
        </extensions>
      </trkpt>
      <trkpt lat="44.7187698818743228912353515625" lon="6.73248955048620700836181640625">
        <ele>1840</ele>
        <time>2026-09-03T05:21:08.000Z</time>
        <extensions>
          <ns3:TrackPointExtension>
            <ns3:hr>101</ns3:hr>
            <ns3:cad>76</ns3:cad>
          </ns3:TrackPointExtension>
        </extensions>
      </trkpt>
      <trkpt lat="44.718762673437595367431640625" lon="6.732479743659496307373046875">
        <ele>1839.800048828125</ele>
        <time>2026-09-03T05:21:09.000Z</time>
        <extensions>
          <ns3:TrackPointExtension>
            <ns3:hr>101</ns3:hr>
            <ns3:cad>76</ns3:cad>
          </ns3:TrackPointExtension>
        </extensions>
      </trkpt>
      <trkpt lat="44.71874549053609371185302734375" lon="6.73245585523545742034912109375">
        <ele>1839.4000244140625</ele>
        <time>2026-09-03T05:21:10.000Z</time>
        <extensions>
          <ns3:TrackPointExtension>
            <ns3:hr>101</ns3:hr>
            <ns3:cad>76</ns3:cad>
          </ns3:TrackPointExtension>
        </extensions>
      </trkpt>
      <trkpt lat="44.71873828209936618804931640625" lon="6.73243858851492404937744140625">
        <ele>1839</ele>
        <time>2026-09-03T05:21:11.000Z</time>
        <extensions>
          <ns3:TrackPointExtension>
            <ns3:hr>101</ns3:hr>
            <ns3:cad>76</ns3:cad>
          </ns3:TrackPointExtension>
        </extensions>
      </trkpt>
      <trkpt lat="44.718731157481670379638671875" lon="6.73243020661175251007080078125">
        <ele>1838.5999755859375</ele>
        <time>2026-09-03T05:21:12.000Z</time>
        <extensions>
          <ns3:TrackPointExtension>
            <ns3:hr>101</ns3:hr>
            <ns3:cad>76</ns3:cad>
          </ns3:TrackPointExtension>
        </extensions>
      </trkpt>
      <trkpt lat="44.7187239490449428558349609375" lon="6.7324074916541576385498046875">
        <ele>1838.4000244140625</ele>
        <time>2026-09-03T05:21:13.000Z</time>
        <extensions>
          <ns3:TrackPointExtension>
            <ns3:hr>102</ns3:hr>
            <ns3:cad>76</ns3:cad>
          </ns3:TrackPointExtension>
        </extensions>
      </trkpt>
      <trkpt lat="44.71871313638985157012939453125" lon="6.732377149164676666259765625">
        <ele>1838</ele>
        <time>2026-09-03T05:21:14.000Z</time>
        <extensions>
          <ns3:TrackPointExtension>
            <ns3:hr>102</ns3:hr>
            <ns3:cad>0</ns3:cad>
          </ns3:TrackPointExtension>
        </extensions>
      </trkpt>
      <trkpt lat="44.71870802342891693115234375" lon="6.73235736787319183349609375">
        <ele>1837.800048828125</ele>
        <time>2026-09-03T05:21:15.000Z</time>
        <extensions>
          <ns3:TrackPointExtension>
            <ns3:hr>102</ns3:hr>
            <ns3:cad>0</ns3:cad>
          </ns3:TrackPointExtension>
        </extensions>
      </trkpt>
      <trkpt lat="44.71870106644928455352783203125" lon="6.73234370537102222442626953125">
        <ele>1837.4000244140625</ele>
        <time>2026-09-03T05:21:16.000Z</time>
        <extensions>
          <ns3:TrackPointExtension>
            <ns3:hr>102</ns3:hr>
            <ns3:cad>79</ns3:cad>
          </ns3:TrackPointExtension>
        </extensions>
      </trkpt>
      <trkpt lat="44.718695618212223052978515625" lon="6.73233280889689922332763671875">
        <ele>1837.199951171875</ele>
        <time>2026-09-03T05:21:17.000Z</time>
        <extensions>
          <ns3:TrackPointExtension>
            <ns3:hr>102</ns3:hr>
            <ns3:cad>79</ns3:cad>
          </ns3:TrackPointExtension>
        </extensions>
      </trkpt>
      <trkpt lat="44.7186863981187343597412109375" lon="6.73232174478471279144287109375">
        <ele>1836.800048828125</ele>
        <time>2026-09-03T05:21:18.000Z</time>
        <extensions>
          <ns3:TrackPointExtension>
            <ns3:hr>103</ns3:hr>
            <ns3:cad>79</ns3:cad>
          </ns3:TrackPointExtension>
        </extensions>
      </trkpt>
      <trkpt lat="44.718670807778835296630859375" lon="6.732296682894229888916015625">
        <ele>1836.5999755859375</ele>
        <time>2026-09-03T05:21:19.000Z</time>
        <extensions>
          <ns3:TrackPointExtension>
            <ns3:hr>102</ns3:hr>
            <ns3:cad>79</ns3:cad>
          </ns3:TrackPointExtension>
        </extensions>
      </trkpt>
      <trkpt lat="44.71865731291472911834716796875" lon="6.73228184692561626434326171875">
        <ele>1836.4000244140625</ele>
        <time>2026-09-03T05:21:20.000Z</time>
        <extensions>
          <ns3:TrackPointExtension>
            <ns3:hr>102</ns3:hr>
            <ns3:cad>79</ns3:cad>
          </ns3:TrackPointExtension>
        </extensions>
      </trkpt>
      <trkpt lat="44.7186481766402721405029296875" lon="6.73228184692561626434326171875">
        <ele>1836</ele>
        <time>2026-09-03T05:21:21.000Z</time>
        <extensions>
          <ns3:TrackPointExtension>
            <ns3:hr>102</ns3:hr>
            <ns3:cad>79</ns3:cad>
          </ns3:TrackPointExtension>
        </extensions>
      </trkpt>
      <trkpt lat="44.71864708699285984039306640625" lon="6.7322881333529949188232421875">
        <ele>1835.5999755859375</ele>
        <time>2026-09-03T05:21:22.000Z</time>
        <extensions>
          <ns3:TrackPointExtension>
            <ns3:hr>102</ns3:hr>
            <ns3:cad>79</ns3:cad>
          </ns3:TrackPointExtension>
        </extensions>
      </trkpt>
      <trkpt lat="44.71864457242190837860107421875" lon="6.732304058969020843505859375">
        <ele>1835.199951171875</ele>
        <time>2026-09-03T05:21:23.000Z</time>
        <extensions>
          <ns3:TrackPointExtension>
            <ns3:hr>103</ns3:hr>
            <ns3:cad>79</ns3:cad>
          </ns3:TrackPointExtension>
        </extensions>
      </trkpt>
      <trkpt lat="44.7186481766402721405029296875" lon="6.73232073895633220672607421875">
        <ele>1835</ele>
        <time>2026-09-03T05:21:24.000Z</time>
        <extensions>
          <ns3:TrackPointExtension>
            <ns3:hr>102</ns3:hr>
            <ns3:cad>79</ns3:cad>
          </ns3:TrackPointExtension>
        </extensions>
      </trkpt>
      <trkpt lat="44.71865328960120677947998046875" lon="6.73233699984848499298095703125">
        <ele>1834.5999755859375</ele>
        <time>2026-09-03T05:21:25.000Z</time>
        <extensions>
          <ns3:TrackPointExtension>
            <ns3:hr>102</ns3:hr>
            <ns3:cad>79</ns3:cad>
          </ns3:TrackPointExtension>
        </extensions>
      </trkpt>
      <trkpt lat="44.71865697763860225677490234375" lon="6.7323568649590015411376953125">
        <ele>1834.4000244140625</ele>
        <time>2026-09-03T05:21:26.000Z</time>
        <extensions>
          <ns3:TrackPointExtension>
            <ns3:hr>103</ns3:hr>
            <ns3:cad>75</ns3:cad>
          </ns3:TrackPointExtension>
        </extensions>
      </trkpt>
      <trkpt lat="44.7186605818569660186767578125" lon="6.7323679290711879730224609375">
        <ele>1834.199951171875</ele>
        <time>2026-09-03T05:21:27.000Z</time>
        <extensions>
          <ns3:TrackPointExtension>
            <ns3:hr>102</ns3:hr>
            <ns3:cad>75</ns3:cad>
          </ns3:TrackPointExtension>
        </extensions>
      </trkpt>
      <trkpt lat="44.7186649404466152191162109375" lon="6.732387542724609375">
        <ele>1833.800048828125</ele>
        <time>2026-09-03T05:21:28.000Z</time>
        <extensions>
          <ns3:TrackPointExtension>
            <ns3:hr>102</ns3:hr>
            <ns3:cad>75</ns3:cad>
          </ns3:TrackPointExtension>
        </extensions>
      </trkpt>
      <trkpt lat="44.71866854466497898101806640625" lon="6.73241277225315570831298828125">
        <ele>1833.5999755859375</ele>
        <time>2026-09-03T05:21:29.000Z</time>
        <extensions>
          <ns3:TrackPointExtension>
            <ns3:hr>103</ns3:hr>
            <ns3:cad>71</ns3:cad>
          </ns3:TrackPointExtension>
        </extensions>
      </trkpt>
      <trkpt lat="44.71867189742624759674072265625" lon="6.7324296198785305023193359375">
        <ele>1833.199951171875</ele>
        <time>2026-09-03T05:21:30.000Z</time>
        <extensions>
          <ns3:TrackPointExtension>
            <ns3:hr>102</ns3:hr>
            <ns3:cad>71</ns3:cad>
          </ns3:TrackPointExtension>
        </extensions>
      </trkpt>
      <trkpt lat="44.71867575310170650482177734375" lon="6.73245987854897975921630859375">
        <ele>1832.800048828125</ele>
        <time>2026-09-03T05:21:31.000Z</time>
        <extensions>
          <ns3:TrackPointExtension>
            <ns3:hr>102</ns3:hr>
            <ns3:cad>71</ns3:cad>
          </ns3:TrackPointExtension>
        </extensions>
      </trkpt>
      <trkpt lat="44.7186751663684844970703125" lon="6.73248334787786006927490234375">
        <ele>1832.4000244140625</ele>
        <time>2026-09-03T05:21:32.000Z</time>
        <extensions>
          <ns3:TrackPointExtension>
            <ns3:hr>103</ns3:hr>
            <ns3:cad>71</ns3:cad>
          </ns3:TrackPointExtension>
        </extensions>
      </trkpt>
      <trkpt lat="44.71867172978818416595458984375" lon="6.73250681720674037933349609375">
        <ele>1832</ele>
        <time>2026-09-03T05:21:33.000Z</time>
        <extensions>
          <ns3:TrackPointExtension>
            <ns3:hr>102</ns3:hr>
            <ns3:cad>79</ns3:cad>
          </ns3:TrackPointExtension>
        </extensions>
      </trkpt>
      <trkpt lat="44.71867089159786701202392578125" lon="6.732534728944301605224609375">
        <ele>1831.5999755859375</ele>
        <time>2026-09-03T05:21:34.000Z</time>
        <extensions>
          <ns3:TrackPointExtension>
            <ns3:hr>102</ns3:hr>
            <ns3:cad>81</ns3:cad>
          </ns3:TrackPointExtension>
        </extensions>
      </trkpt>
      <trkpt lat="44.71867575310170650482177734375" lon="6.73256364651024341583251953125">
        <ele>1831.199951171875</ele>
        <time>2026-09-03T05:21:35.000Z</time>
        <extensions>
          <ns3:TrackPointExtension>
            <ns3:hr>103</ns3:hr>
            <ns3:cad>81</ns3:cad>
          </ns3:TrackPointExtension>
        </extensions>
      </trkpt>
      <trkpt lat="44.71867726184427738189697265625" lon="6.7325918935239315032958984375">
        <ele>1830.800048828125</ele>
        <time>2026-09-03T05:21:36.000Z</time>
        <extensions>
          <ns3:TrackPointExtension>
            <ns3:hr>102</ns3:hr>
            <ns3:cad>80</ns3:cad>
          </ns3:TrackPointExtension>
        </extensions>
      </trkpt>
      <trkpt lat="44.71867575310170650482177734375" lon="6.732615195214748382568359375">
        <ele>1830.4000244140625</ele>
        <time>2026-09-03T05:21:37.000Z</time>
        <extensions>
          <ns3:TrackPointExtension>
            <ns3:hr>101</ns3:hr>
            <ns3:cad>80</ns3:cad>
          </ns3:TrackPointExtension>
        </extensions>
      </trkpt>
      <trkpt lat="44.71867382526397705078125" lon="6.7326415143907070159912109375">
        <ele>1830</ele>
        <time>2026-09-03T05:21:38.000Z</time>
        <extensions>
          <ns3:TrackPointExtension>
            <ns3:hr>102</ns3:hr>
            <ns3:cad>80</ns3:cad>
          </ns3:TrackPointExtension>
        </extensions>
      </trkpt>
      <trkpt lat="44.7186698019504547119140625" lon="6.73266942612826824188232421875">
        <ele>1829.5999755859375</ele>
        <time>2026-09-03T05:21:39.000Z</time>
        <extensions>
          <ns3:TrackPointExtension>
            <ns3:hr>102</ns3:hr>
            <ns3:cad>83</ns3:cad>
          </ns3:TrackPointExtension>
        </extensions>
      </trkpt>
      <trkpt lat="44.71866913139820098876953125" lon="6.73268820159137248992919921875">
        <ele>1829.199951171875</ele>
        <time>2026-09-03T05:21:40.000Z</time>
        <extensions>
          <ns3:TrackPointExtension>
            <ns3:hr>102</ns3:hr>
            <ns3:cad>84</ns3:cad>
          </ns3:TrackPointExtension>
        </extensions>
      </trkpt>
      <trkpt lat="44.71867022104561328887939453125" lon="6.73271284438669681549072265625">
        <ele>1828.800048828125</ele>
        <time>2026-09-03T05:21:41.000Z</time>
        <extensions>
          <ns3:TrackPointExtension>
            <ns3:hr>103</ns3:hr>
            <ns3:cad>84</ns3:cad>
          </ns3:TrackPointExtension>
        </extensions>
      </trkpt>
      <trkpt lat="44.71866603009402751922607421875" lon="6.73273966647684574127197265625">
        <ele>1828.5999755859375</ele>
        <time>2026-09-03T05:21:42.000Z</time>
        <extensions>
          <ns3:TrackPointExtension>
            <ns3:hr>103</ns3:hr>
            <ns3:cad>84</ns3:cad>
          </ns3:TrackPointExtension>
        </extensions>
      </trkpt>
      <trkpt lat="44.718664772808551788330078125" lon="6.73276011832058429718017578125">
        <ele>1828.4000244140625</ele>
        <time>2026-09-03T05:21:43.000Z</time>
        <extensions>
          <ns3:TrackPointExtension>
            <ns3:hr>103</ns3:hr>
            <ns3:cad>84</ns3:cad>
          </ns3:TrackPointExtension>
        </extensions>
      </trkpt>
      <trkpt lat="44.71865882165729999542236328125" lon="6.73277621157467365264892578125">
        <ele>1828</ele>
        <time>2026-09-03T05:21:44.000Z</time>
        <extensions>
          <ns3:TrackPointExtension>
            <ns3:hr>104</ns3:hr>
            <ns3:cad>83</ns3:cad>
          </ns3:TrackPointExtension>
        </extensions>
      </trkpt>
      <trkpt lat="44.71865563653409481048583984375" lon="6.73279163427650928497314453125">
        <ele>1827.800048828125</ele>
        <time>2026-09-03T05:21:45.000Z</time>
        <extensions>
          <ns3:TrackPointExtension>
            <ns3:hr>104</ns3:hr>
            <ns3:cad>83</ns3:cad>
          </ns3:TrackPointExtension>
        </extensions>
      </trkpt>
      <trkpt lat="44.7186508588492870330810546875" lon="6.73280789516866207122802734375">
        <ele>1827.4000244140625</ele>
        <time>2026-09-03T05:21:46.000Z</time>
        <extensions>
          <ns3:TrackPointExtension>
            <ns3:hr>104</ns3:hr>
            <ns3:cad>83</ns3:cad>
          </ns3:TrackPointExtension>
        </extensions>
      </trkpt>
      <trkpt lat="44.71865261904895305633544921875" lon="6.732831113040447235107421875">
        <ele>1827.199951171875</ele>
        <time>2026-09-03T05:21:47.000Z</time>
        <extensions>
          <ns3:TrackPointExtension>
            <ns3:hr>103</ns3:hr>
            <ns3:cad>83</ns3:cad>
          </ns3:TrackPointExtension>
        </extensions>
      </trkpt>
      <trkpt lat="44.71865043975412845611572265625" lon="6.73285298980772495269775390625">
        <ele>1826.800048828125</ele>
        <time>2026-09-03T05:21:48.000Z</time>
        <extensions>
          <ns3:TrackPointExtension>
            <ns3:hr>103</ns3:hr>
            <ns3:cad>82</ns3:cad>
          </ns3:TrackPointExtension>
        </extensions>
      </trkpt>
      <trkpt lat="44.71864725463092327117919921875" lon="6.73289573751389980316162109375">
        <ele>1826.5999755859375</ele>
        <time>2026-09-03T05:21:49.000Z</time>
        <extensions>
          <ns3:TrackPointExtension>
            <ns3:hr>103</ns3:hr>
            <ns3:cad>82</ns3:cad>
          </ns3:TrackPointExtension>
        </extensions>
      </trkpt>
      <trkpt lat="44.7186414711177349090576171875" lon="6.73292507417500019073486328125">
        <ele>1826.4000244140625</ele>
        <time>2026-09-03T05:21:50.000Z</time>
        <extensions>
          <ns3:TrackPointExtension>
            <ns3:hr>104</ns3:hr>
            <ns3:cad>82</ns3:cad>
          </ns3:TrackPointExtension>
        </extensions>
      </trkpt>
      <trkpt lat="44.71863468177616596221923828125" lon="6.73294837586581707000732421875">
        <ele>1826</ele>
        <time>2026-09-03T05:21:51.000Z</time>
        <extensions>
          <ns3:TrackPointExtension>
            <ns3:hr>104</ns3:hr>
            <ns3:cad>84</ns3:cad>
          </ns3:TrackPointExtension>
        </extensions>
      </trkpt>
      <trkpt lat="44.7186322510242462158203125" lon="6.73297201283276081085205078125">
        <ele>1825.5999755859375</ele>
        <time>2026-09-03T05:21:52.000Z</time>
        <extensions>
          <ns3:TrackPointExtension>
            <ns3:hr>104</ns3:hr>
            <ns3:cad>84</ns3:cad>
          </ns3:TrackPointExtension>
        </extensions>
      </trkpt>
      <trkpt lat="44.7186295688152313232421875" lon="6.7329915426671504974365234375">
        <ele>1825.4000244140625</ele>
        <time>2026-09-03T05:21:53.000Z</time>
        <extensions>
          <ns3:TrackPointExtension>
            <ns3:hr>104</ns3:hr>
            <ns3:cad>84</ns3:cad>
          </ns3:TrackPointExtension>
        </extensions>
      </trkpt>
      <trkpt lat="44.71862982027232646942138671875" lon="6.733015514910221099853515625">
        <ele>1825</ele>
        <time>2026-09-03T05:21:54.000Z</time>
        <extensions>
          <ns3:TrackPointExtension>
            <ns3:hr>105</ns3:hr>
            <ns3:cad>84</ns3:cad>
          </ns3:TrackPointExtension>
        </extensions>
      </trkpt>
      <trkpt lat="44.71862982027232646942138671875" lon="6.7330420017242431640625">
        <ele>1824.800048828125</ele>
        <time>2026-09-03T05:21:55.000Z</time>
        <extensions>
          <ns3:TrackPointExtension>
            <ns3:hr>105</ns3:hr>
            <ns3:cad>84</ns3:cad>
          </ns3:TrackPointExtension>
        </extensions>
      </trkpt>
      <trkpt lat="44.71862697042524814605712890625" lon="6.73307427205145359039306640625">
        <ele>1824.4000244140625</ele>
        <time>2026-09-03T05:21:56.000Z</time>
        <extensions>
          <ns3:TrackPointExtension>
            <ns3:hr>105</ns3:hr>
            <ns3:cad>84</ns3:cad>
          </ns3:TrackPointExtension>
        </extensions>
      </trkpt>
      <trkpt lat="44.71862546168267726898193359375" lon="6.73310796730220317840576171875">
        <ele>1824.199951171875</ele>
        <time>2026-09-03T05:21:57.000Z</time>
        <extensions>
          <ns3:TrackPointExtension>
            <ns3:hr>105</ns3:hr>
            <ns3:cad>79</ns3:cad>
          </ns3:TrackPointExtension>
        </extensions>
      </trkpt>
      <trkpt lat="44.718622528016567230224609375" lon="6.73312942497432231903076171875">
        <ele>1823.800048828125</ele>
        <time>2026-09-03T05:21:58.000Z</time>
        <extensions>
          <ns3:TrackPointExtension>
            <ns3:hr>105</ns3:hr>
            <ns3:cad>79</ns3:cad>
          </ns3:TrackPointExtension>
        </extensions>
      </trkpt>
      <trkpt lat="44.71861624158918857574462890625" lon="6.73315800726413726806640625">
        <ele>1823.4000244140625</ele>
        <time>2026-09-03T05:21:59.000Z</time>
        <extensions>
          <ns3:TrackPointExtension>
            <ns3:hr>106</ns3:hr>
            <ns3:cad>79</ns3:cad>
          </ns3:TrackPointExtension>
        </extensions>
      </trkpt>
      <trkpt lat="44.7186136431992053985595703125" lon="6.73318617045879364013671875">
        <ele>1823</ele>
        <time>2026-09-03T05:22:00.000Z</time>
        <extensions>
          <ns3:TrackPointExtension>
            <ns3:hr>106</ns3:hr>
            <ns3:cad>79</ns3:cad>
          </ns3:TrackPointExtension>
        </extensions>
      </trkpt>
      <trkpt lat="44.71861280500888824462890625" lon="6.73321031033992767333984375">
        <ele>1822.800048828125</ele>
        <time>2026-09-03T05:22:01.000Z</time>
        <extensions>
          <ns3:TrackPointExtension>
            <ns3:hr>106</ns3:hr>
            <ns3:cad>79</ns3:cad>
          </ns3:TrackPointExtension>
        </extensions>
      </trkpt>
      <trkpt lat="44.7186107933521270751953125" lon="6.733229421079158782958984375">
        <ele>1822.4000244140625</ele>
        <time>2026-09-03T05:22:02.000Z</time>
        <extensions>
          <ns3:TrackPointExtension>
            <ns3:hr>106</ns3:hr>
            <ns3:cad>79</ns3:cad>
          </ns3:TrackPointExtension>
        </extensions>
      </trkpt>
      <trkpt lat="44.71861682832241058349609375" lon="6.73325263895094394683837890625">
        <ele>1822</ele>
        <time>2026-09-03T05:22:03.000Z</time>
        <extensions>
          <ns3:TrackPointExtension>
            <ns3:hr>106</ns3:hr>
            <ns3:cad>84</ns3:cad>
          </ns3:TrackPointExtension>
        </extensions>
      </trkpt>
      <trkpt lat="44.7186263836920261383056640625" lon="6.733280718326568603515625">
        <ele>1821.800048828125</ele>
        <time>2026-09-03T05:22:04.000Z</time>
        <extensions>
          <ns3:TrackPointExtension>
            <ns3:hr>106</ns3:hr>
            <ns3:cad>84</ns3:cad>
          </ns3:TrackPointExtension>
        </extensions>
      </trkpt>
      <trkpt lat="44.71863602288067340850830078125" lon="6.7333073727786540985107421875">
        <ele>1821.4000244140625</ele>
        <time>2026-09-03T05:22:05.000Z</time>
        <extensions>
          <ns3:TrackPointExtension>
            <ns3:hr>105</ns3:hr>
            <ns3:cad>84</ns3:cad>
          </ns3:TrackPointExtension>
        </extensions>
      </trkpt>
      <trkpt lat="44.718643315136432647705078125" lon="6.7333295010030269622802734375">
        <ele>1821</ele>
        <time>2026-09-03T05:22:06.000Z</time>
        <extensions>
          <ns3:TrackPointExtension>
            <ns3:hr>105</ns3:hr>
            <ns3:cad>84</ns3:cad>
          </ns3:TrackPointExtension>
        </extensions>
      </trkpt>
      <trkpt lat="44.718646667897701263427734375" lon="6.73335825093090534210205078125">
        <ele>1820.800048828125</ele>
        <time>2026-09-03T05:22:07.000Z</time>
        <extensions>
          <ns3:TrackPointExtension>
            <ns3:hr>105</ns3:hr>
            <ns3:cad>84</ns3:cad>
          </ns3:TrackPointExtension>
        </extensions>
      </trkpt>
      <trkpt lat="44.71864758990705013275146484375" lon="6.733377613127231597900390625">
        <ele>1820.5999755859375</ele>
        <time>2026-09-03T05:22:08.000Z</time>
        <extensions>
          <ns3:TrackPointExtension>
            <ns3:hr>105</ns3:hr>
            <ns3:cad>84</ns3:cad>
          </ns3:TrackPointExtension>
        </extensions>
      </trkpt>
      <trkpt lat="44.71864624880254268646240234375" lon="6.73340116627514362335205078125">
        <ele>1820.4000244140625</ele>
        <time>2026-09-03T05:22:09.000Z</time>
        <extensions>
          <ns3:TrackPointExtension>
            <ns3:hr>106</ns3:hr>
            <ns3:cad>84</ns3:cad>
          </ns3:TrackPointExtension>
        </extensions>
      </trkpt>
      <trkpt lat="44.71864490769803524017333984375" lon="6.7334274016320705413818359375">
        <ele>1820</ele>
        <time>2026-09-03T05:22:10.000Z</time>
        <extensions>
          <ns3:TrackPointExtension>
            <ns3:hr>107</ns3:hr>
            <ns3:cad>84</ns3:cad>
          </ns3:TrackPointExtension>
        </extensions>
      </trkpt>
      <trkpt lat="44.718652032315731048583984375" lon="6.7334431596100330352783203125">
        <ele>1819.5999755859375</ele>
        <time>2026-09-03T05:22:11.000Z</time>
        <extensions>
          <ns3:TrackPointExtension>
            <ns3:hr>107</ns3:hr>
            <ns3:cad>79</ns3:cad>
          </ns3:TrackPointExtension>
        </extensions>
      </trkpt>
      <trkpt lat="44.71866033039987087249755859375" lon="6.7334776930510997772216796875">
        <ele>1819.199951171875</ele>
        <time>2026-09-03T05:22:12.000Z</time>
        <extensions>
          <ns3:TrackPointExtension>
            <ns3:hr>107</ns3:hr>
            <ns3:cad>79</ns3:cad>
          </ns3:TrackPointExtension>
        </extensions>
      </trkpt>
      <trkpt lat="44.718661420047283172607421875" lon="6.73349596560001373291015625">
        <ele>1818.800048828125</ele>
        <time>2026-09-03T05:22:13.000Z</time>
        <extensions>
          <ns3:TrackPointExtension>
            <ns3:hr>107</ns3:hr>
            <ns3:cad>79</ns3:cad>
          </ns3:TrackPointExtension>
        </extensions>
      </trkpt>
      <trkpt lat="44.71866435371339321136474609375" lon="6.7335155792534351348876953125">
        <ele>1818.4000244140625</ele>
        <time>2026-09-03T05:22:14.000Z</time>
        <extensions>
          <ns3:TrackPointExtension>
            <ns3:hr>106</ns3:hr>
            <ns3:cad>79</ns3:cad>
          </ns3:TrackPointExtension>
        </extensions>
      </trkpt>
      <trkpt lat="44.7186689637601375579833984375" lon="6.73353510908782482147216796875">
        <ele>1818</ele>
        <time>2026-09-03T05:22:15.000Z</time>
        <extensions>
          <ns3:TrackPointExtension>
            <ns3:hr>106</ns3:hr>
            <ns3:cad>79</ns3:cad>
          </ns3:TrackPointExtension>
        </extensions>
      </trkpt>
      <trkpt lat="44.71867642365396022796630859375" lon="6.73354826867580413818359375">
        <ele>1817.800048828125</ele>
        <time>2026-09-03T05:22:16.000Z</time>
        <extensions>
          <ns3:TrackPointExtension>
            <ns3:hr>106</ns3:hr>
            <ns3:cad>79</ns3:cad>
          </ns3:TrackPointExtension>
        </extensions>
      </trkpt>
      <trkpt lat="44.71868497319519519805908203125" lon="6.7335645295679569244384765625">
        <ele>1817.5999755859375</ele>
        <time>2026-09-03T05:22:17.000Z</time>
        <extensions>
          <ns3:TrackPointExtension>
            <ns3:hr>105</ns3:hr>
            <ns3:cad>79</ns3:cad>
          </ns3:TrackPointExtension>
        </extensions>
      </trkpt>
      <trkpt lat="44.71869553439319133758544921875" lon="6.73356545157730579376220703125">
        <ele>1817.4000244140625</ele>
        <time>2026-09-03T05:22:18.000Z</time>
        <extensions>
          <ns3:TrackPointExtension>
            <ns3:hr>105</ns3:hr>
            <ns3:cad>79</ns3:cad>
          </ns3:TrackPointExtension>
        </extensions>
      </trkpt>
      <trkpt lat="44.718700982630252838134765625" lon="6.7335792817175388336181640625">
        <ele>1817.4000244140625</ele>
        <time>2026-09-03T05:22:19.000Z</time>
        <extensions>
          <ns3:TrackPointExtension>
            <ns3:hr>106</ns3:hr>
            <ns3:cad>79</ns3:cad>
          </ns3:TrackPointExtension>
        </extensions>
      </trkpt>
      <trkpt lat="44.71870441921055316925048828125" lon="6.73360115848481655120849609375">
        <ele>1817.199951171875</ele>
        <time>2026-09-03T05:22:20.000Z</time>
        <extensions>
          <ns3:TrackPointExtension>
            <ns3:hr>106</ns3:hr>
            <ns3:cad>79</ns3:cad>
          </ns3:TrackPointExtension>
        </extensions>
      </trkpt>
      <trkpt lat="44.7187098674476146697998046875" lon="6.733622364699840545654296875">
        <ele>1817</ele>
        <time>2026-09-03T05:22:21.000Z</time>
        <extensions>
          <ns3:TrackPointExtension>
            <ns3:hr>107</ns3:hr>
            <ns3:cad>63</ns3:cad>
          </ns3:TrackPointExtension>
        </extensions>
      </trkpt>
      <trkpt lat="44.71871204674243927001953125" lon="6.73364072106778621673583984375">
        <ele>1816.5999755859375</ele>
        <time>2026-09-03T05:22:22.000Z</time>
        <extensions>
          <ns3:TrackPointExtension>
            <ns3:hr>106</ns3:hr>
            <ns3:cad>0</ns3:cad>
          </ns3:TrackPointExtension>
        </extensions>
      </trkpt>
      <trkpt lat="44.7187202610075473785400390625" lon="6.733661592006683349609375">
        <ele>1816.4000244140625</ele>
        <time>2026-09-03T05:22:23.000Z</time>
        <extensions>
          <ns3:TrackPointExtension>
            <ns3:hr>106</ns3:hr>
            <ns3:cad>0</ns3:cad>
          </ns3:TrackPointExtension>
        </extensions>
      </trkpt>
      <trkpt lat="44.71872285939753055572509765625" lon="6.73367978073656558990478515625">
        <ele>1815.800048828125</ele>
        <time>2026-09-03T05:22:24.000Z</time>
        <extensions>
          <ns3:TrackPointExtension>
            <ns3:hr>105</ns3:hr>
            <ns3:cad>81</ns3:cad>
          </ns3:TrackPointExtension>
        </extensions>
      </trkpt>
      <trkpt lat="44.71872436814010143280029296875" lon="6.733700819313526153564453125">
        <ele>1815.4000244140625</ele>
        <time>2026-09-03T05:22:25.000Z</time>
        <extensions>
          <ns3:TrackPointExtension>
            <ns3:hr>105</ns3:hr>
            <ns3:cad>82</ns3:cad>
          </ns3:TrackPointExtension>
        </extensions>
      </trkpt>
      <trkpt lat="44.71872839145362377166748046875" lon="6.7337246239185333251953125">
        <ele>1815</ele>
        <time>2026-09-03T05:22:26.000Z</time>
        <extensions>
          <ns3:TrackPointExtension>
            <ns3:hr>105</ns3:hr>
            <ns3:cad>82</ns3:cad>
          </ns3:TrackPointExtension>
        </extensions>
      </trkpt>
      <trkpt lat="44.718729816377162933349609375" lon="6.7337460815906524658203125">
        <ele>1814.5999755859375</ele>
        <time>2026-09-03T05:22:27.000Z</time>
        <extensions>
          <ns3:TrackPointExtension>
            <ns3:hr>105</ns3:hr>
            <ns3:cad>82</ns3:cad>
          </ns3:TrackPointExtension>
        </extensions>
      </trkpt>
      <trkpt lat="44.718735516071319580078125" lon="6.7337717302143573760986328125">
        <ele>1814.199951171875</ele>
        <time>2026-09-03T05:22:28.000Z</time>
        <extensions>
          <ns3:TrackPointExtension>
            <ns3:hr>106</ns3:hr>
            <ns3:cad>83</ns3:cad>
          </ns3:TrackPointExtension>
        </extensions>
      </trkpt>
      <trkpt lat="44.71873995848000049591064453125" lon="6.733802743256092071533203125">
        <ele>1813.800048828125</ele>
        <time>2026-09-03T05:22:29.000Z</time>
        <extensions>
          <ns3:TrackPointExtension>
            <ns3:hr>106</ns3:hr>
            <ns3:cad>83</ns3:cad>
          </ns3:TrackPointExtension>
        </extensions>
      </trkpt>
      <trkpt lat="44.71874264068901538848876953125" lon="6.7338350974023342132568359375">
        <ele>1813.4000244140625</ele>
        <time>2026-09-03T05:22:30.000Z</time>
        <extensions>
          <ns3:TrackPointExtension>
            <ns3:hr>106</ns3:hr>
            <ns3:cad>83</ns3:cad>
          </ns3:TrackPointExtension>
        </extensions>
      </trkpt>
      <trkpt lat="44.71875320188701152801513671875" lon="6.73385747708380222320556640625">
        <ele>1813.199951171875</ele>
        <time>2026-09-03T05:22:31.000Z</time>
        <extensions>
          <ns3:TrackPointExtension>
            <ns3:hr>107</ns3:hr>
            <ns3:cad>83</ns3:cad>
          </ns3:TrackPointExtension>
        </extensions>
      </trkpt>
      <trkpt lat="44.71875906921923160552978515625" lon="6.733879856765270233154296875">
        <ele>1813</ele>
        <time>2026-09-03T05:22:32.000Z</time>
        <extensions>
          <ns3:TrackPointExtension>
            <ns3:hr>107</ns3:hr>
            <ns3:cad>84</ns3:cad>
          </ns3:TrackPointExtension>
        </extensions>
      </trkpt>
      <trkpt lat="44.71875839866697788238525390625" lon="6.73390567302703857421875">
        <ele>1812.5999755859375</ele>
        <time>2026-09-03T05:22:33.000Z</time>
        <extensions>
          <ns3:TrackPointExtension>
            <ns3:hr>107</ns3:hr>
            <ns3:cad>84</ns3:cad>
          </ns3:TrackPointExtension>
        </extensions>
      </trkpt>
      <trkpt lat="44.7187556326389312744140625" lon="6.73392972908914089202880859375">
        <ele>1812.4000244140625</ele>
        <time>2026-09-03T05:22:34.000Z</time>
        <extensions>
          <ns3:TrackPointExtension>
            <ns3:hr>108</ns3:hr>
            <ns3:cad>84</ns3:cad>
          </ns3:TrackPointExtension>
        </extensions>
      </trkpt>
      <trkpt lat="44.71875990740954875946044921875" lon="6.73395906575024127960205078125">
        <ele>1812</ele>
        <time>2026-09-03T05:22:35.000Z</time>
        <extensions>
          <ns3:TrackPointExtension>
            <ns3:hr>108</ns3:hr>
            <ns3:cad>84</ns3:cad>
          </ns3:TrackPointExtension>
        </extensions>
      </trkpt>
      <trkpt lat="44.7187618352472782135009765625" lon="6.7339859716594219207763671875">
        <ele>1811.5999755859375</ele>
        <time>2026-09-03T05:22:36.000Z</time>
        <extensions>
          <ns3:TrackPointExtension>
            <ns3:hr>109</ns3:hr>
            <ns3:cad>84</ns3:cad>
          </ns3:TrackPointExtension>
        </extensions>
      </trkpt>
      <trkpt lat="44.7187608294188976287841796875" lon="6.73400868661701679229736328125">
        <ele>1811.199951171875</ele>
        <time>2026-09-03T05:22:37.000Z</time>
        <extensions>
          <ns3:TrackPointExtension>
            <ns3:hr>109</ns3:hr>
            <ns3:cad>0</ns3:cad>
          </ns3:TrackPointExtension>
        </extensions>
      </trkpt>
      <trkpt lat="44.71876258961856365203857421875" lon="6.734030060470104217529296875">
        <ele>1810.800048828125</ele>
        <time>2026-09-03T05:22:38.000Z</time>
        <extensions>
          <ns3:TrackPointExtension>
            <ns3:hr>109</ns3:hr>
            <ns3:cad>0</ns3:cad>
          </ns3:TrackPointExtension>
        </extensions>
      </trkpt>
      <trkpt lat="44.71877113915979862213134765625" lon="6.73405864275991916656494140625">
        <ele>1810.5999755859375</ele>
        <time>2026-09-03T05:22:39.000Z</time>
        <extensions>
          <ns3:TrackPointExtension>
            <ns3:hr>109</ns3:hr>
            <ns3:cad>80</ns3:cad>
          </ns3:TrackPointExtension>
        </extensions>
      </trkpt>
      <trkpt lat="44.71878220327198505401611328125" lon="6.73407674767076969146728515625">
        <ele>1810.4000244140625</ele>
        <time>2026-09-03T05:22:40.000Z</time>
        <extensions>
          <ns3:TrackPointExtension>
            <ns3:hr>108</ns3:hr>
            <ns3:cad>80</ns3:cad>
          </ns3:TrackPointExtension>
        </extensions>
      </trkpt>
      <trkpt lat="44.71878807060420513153076171875" lon="6.73408999107778072357177734375">
        <ele>1810.199951171875</ele>
        <time>2026-09-03T05:22:41.000Z</time>
        <extensions>
          <ns3:TrackPointExtension>
            <ns3:hr>108</ns3:hr>
            <ns3:cad>80</ns3:cad>
          </ns3:TrackPointExtension>
        </extensions>
      </trkpt>
      <trkpt lat="44.71878874115645885467529296875" lon="6.73409988172352313995361328125">
        <ele>1810</ele>
        <time>2026-09-03T05:22:42.000Z</time>
        <extensions>
          <ns3:TrackPointExtension>
            <ns3:hr>108</ns3:hr>
            <ns3:cad>0</ns3:cad>
          </ns3:TrackPointExtension>
        </extensions>
      </trkpt>
      <trkpt lat="44.71879762597382068634033203125" lon="6.73410859890282154083251953125">
        <ele>1809.5999755859375</ele>
        <time>2026-09-03T05:22:43.000Z</time>
        <extensions>
          <ns3:TrackPointExtension>
            <ns3:hr>107</ns3:hr>
            <ns3:cad>0</ns3:cad>
          </ns3:TrackPointExtension>
        </extensions>
      </trkpt>
      <trkpt lat="44.71880299039185047149658203125" lon="6.73413240350782871246337890625">
        <ele>1809.199951171875</ele>
        <time>2026-09-03T05:22:44.000Z</time>
        <extensions>
          <ns3:TrackPointExtension>
            <ns3:hr>106</ns3:hr>
            <ns3:cad>0</ns3:cad>
          </ns3:TrackPointExtension>
        </extensions>
      </trkpt>
      <trkpt lat="44.71880936063826084136962890625" lon="6.7341579683125019073486328125">
        <ele>1808.800048828125</ele>
        <time>2026-09-03T05:22:45.000Z</time>
        <extensions>
          <ns3:TrackPointExtension>
            <ns3:hr>106</ns3:hr>
            <ns3:cad>0</ns3:cad>
          </ns3:TrackPointExtension>
        </extensions>
      </trkpt>
      <trkpt lat="44.718815647065639495849609375" lon="6.7341888137161731719970703125">
        <ele>1808.4000244140625</ele>
        <time>2026-09-03T05:22:46.000Z</time>
        <extensions>
          <ns3:TrackPointExtension>
            <ns3:hr>106</ns3:hr>
            <ns3:cad>0</ns3:cad>
          </ns3:TrackPointExtension>
        </extensions>
      </trkpt>
      <trkpt lat="44.7188226878643035888671875" lon="6.73421907238662242889404296875">
        <ele>1808</ele>
        <time>2026-09-03T05:22:47.000Z</time>
        <extensions>
          <ns3:TrackPointExtension>
            <ns3:hr>107</ns3:hr>
            <ns3:cad>75</ns3:cad>
          </ns3:TrackPointExtension>
        </extensions>
      </trkpt>
      <trkpt lat="44.71883785910904407501220703125" lon="6.7342315614223480224609375">
        <ele>1807.800048828125</ele>
        <time>2026-09-03T05:22:48.000Z</time>
        <extensions>
          <ns3:TrackPointExtension>
            <ns3:hr>106</ns3:hr>
            <ns3:cad>83</ns3:cad>
          </ns3:TrackPointExtension>
        </extensions>
      </trkpt>
      <trkpt lat="44.7188495099544525146484375" lon="6.7342464812099933624267578125">
        <ele>1807.5999755859375</ele>
        <time>2026-09-03T05:22:49.000Z</time>
        <extensions>
          <ns3:TrackPointExtension>
            <ns3:hr>106</ns3:hr>
            <ns3:cad>83</ns3:cad>
          </ns3:TrackPointExtension>
        </extensions>
      </trkpt>
      <trkpt lat="44.71885093487799167633056640625" lon="6.734262742102146148681640625">
        <ele>1807.5999755859375</ele>
        <time>2026-09-03T05:22:50.000Z</time>
        <extensions>
          <ns3:TrackPointExtension>
            <ns3:hr>106</ns3:hr>
            <ns3:cad>83</ns3:cad>
          </ns3:TrackPointExtension>
        </extensions>
      </trkpt>
      <trkpt lat="44.7188480012118816375732421875" lon="6.7342887260019779205322265625">
        <ele>1807.4000244140625</ele>
        <time>2026-09-03T05:22:51.000Z</time>
        <extensions>
          <ns3:TrackPointExtension>
            <ns3:hr>106</ns3:hr>
            <ns3:cad>83</ns3:cad>
          </ns3:TrackPointExtension>
        </extensions>
      </trkpt>
      <trkpt lat="44.71885412000119686126708984375" lon="6.7343058250844478607177734375">
        <ele>1807</ele>
        <time>2026-09-03T05:22:52.000Z</time>
        <extensions>
          <ns3:TrackPointExtension>
            <ns3:hr>107</ns3:hr>
            <ns3:cad>83</ns3:cad>
          </ns3:TrackPointExtension>
        </extensions>
      </trkpt>
      <trkpt lat="44.7188627533614635467529296875" lon="6.7343333177268505096435546875">
        <ele>1806.800048828125</ele>
        <time>2026-09-03T05:22:53.000Z</time>
        <extensions>
          <ns3:TrackPointExtension>
            <ns3:hr>107</ns3:hr>
            <ns3:cad>83</ns3:cad>
          </ns3:TrackPointExtension>
        </extensions>
      </trkpt>
      <trkpt lat="44.718862585723400115966796875" lon="6.73435569740831851959228515625">
        <ele>1806.199951171875</ele>
        <time>2026-09-03T05:22:54.000Z</time>
        <extensions>
          <ns3:TrackPointExtension>
            <ns3:hr>107</ns3:hr>
            <ns3:cad>83</ns3:cad>
          </ns3:TrackPointExtension>
        </extensions>
      </trkpt>
      <trkpt lat="44.71886694431304931640625" lon="6.734381429851055145263671875">
        <ele>1805.800048828125</ele>
        <time>2026-09-03T05:22:55.000Z</time>
        <extensions>
          <ns3:TrackPointExtension>
            <ns3:hr>107</ns3:hr>
            <ns3:cad>83</ns3:cad>
          </ns3:TrackPointExtension>
        </extensions>
      </trkpt>
      <trkpt lat="44.71887473948299884796142578125" lon="6.73441051505506038665771484375">
        <ele>1805.4000244140625</ele>
        <time>2026-09-03T05:22:56.000Z</time>
        <extensions>
          <ns3:TrackPointExtension>
            <ns3:hr>108</ns3:hr>
            <ns3:cad>83</ns3:cad>
          </ns3:TrackPointExtension>
        </extensions>
      </trkpt>
      <trkpt lat="44.71888639032840728759765625" lon="6.73443138599395751953125">
        <ele>1805</ele>
        <time>2026-09-03T05:22:57.000Z</time>
        <extensions>
          <ns3:TrackPointExtension>
            <ns3:hr>108</ns3:hr>
            <ns3:cad>83</ns3:cad>
          </ns3:TrackPointExtension>
        </extensions>
      </trkpt>
      <trkpt lat="44.7188959456980228424072265625" lon="6.73444203101098537445068359375">
        <ele>1804.800048828125</ele>
        <time>2026-09-03T05:22:58.000Z</time>
        <extensions>
          <ns3:TrackPointExtension>
            <ns3:hr>108</ns3:hr>
            <ns3:cad>83</ns3:cad>
          </ns3:TrackPointExtension>
        </extensions>
      </trkpt>
      <trkpt lat="44.71890072338283061981201171875" lon="6.73444923944771289825439453125">
        <ele>1804.800048828125</ele>
        <time>2026-09-03T05:22:59.000Z</time>
        <extensions>
          <ns3:TrackPointExtension>
            <ns3:hr>109</ns3:hr>
            <ns3:cad>82</ns3:cad>
          </ns3:TrackPointExtension>
        </extensions>
      </trkpt>
      <trkpt lat="44.7189044952392578125" lon="6.73447807319462299346923828125">
        <ele>1804.5999755859375</ele>
        <time>2026-09-03T05:23:00.000Z</time>
        <extensions>
          <ns3:TrackPointExtension>
            <ns3:hr>109</ns3:hr>
            <ns3:cad>82</ns3:cad>
          </ns3:TrackPointExtension>
        </extensions>
      </trkpt>
      <trkpt lat="44.71890784800052642822265625" lon="6.73449953086674213409423828125">
        <ele>1804.199951171875</ele>
        <time>2026-09-03T05:23:01.000Z</time>
        <extensions>
          <ns3:TrackPointExtension>
            <ns3:hr>109</ns3:hr>
            <ns3:cad>82</ns3:cad>
          </ns3:TrackPointExtension>
        </extensions>
      </trkpt>
      <trkpt lat="44.71891011111438274383544921875" lon="6.7345185577869415283203125">
        <ele>1804</ele>
        <time>2026-09-03T05:23:02.000Z</time>
        <extensions>
          <ns3:TrackPointExtension>
            <ns3:hr>110</ns3:hr>
            <ns3:cad>86</ns3:cad>
          </ns3:TrackPointExtension>
        </extensions>
      </trkpt>
      <trkpt lat="44.718917571008205413818359375" lon="6.73454194329679012298583984375">
        <ele>1803.5999755859375</ele>
        <time>2026-09-03T05:23:03.000Z</time>
        <extensions>
          <ns3:TrackPointExtension>
            <ns3:hr>110</ns3:hr>
            <ns3:cad>86</ns3:cad>
          </ns3:TrackPointExtension>
        </extensions>
      </trkpt>
      <trkpt lat="44.71892620436847209930419921875" lon="6.7345775663852691650390625">
        <ele>1803.199951171875</ele>
        <time>2026-09-03T05:23:04.000Z</time>
        <extensions>
          <ns3:TrackPointExtension>
            <ns3:hr>110</ns3:hr>
            <ns3:cad>86</ns3:cad>
          </ns3:TrackPointExtension>
        </extensions>
      </trkpt>
      <trkpt lat="44.7189371846616268157958984375" lon="6.7345991916954517364501953125">
        <ele>1802.800048828125</ele>
        <time>2026-09-03T05:23:05.000Z</time>
        <extensions>
          <ns3:TrackPointExtension>
            <ns3:hr>111</ns3:hr>
            <ns3:cad>86</ns3:cad>
          </ns3:TrackPointExtension>
        </extensions>
      </trkpt>
      <trkpt lat="44.71893911249935626983642578125" lon="6.73461670987308025360107421875">
        <ele>1802.4000244140625</ele>
        <time>2026-09-03T05:23:06.000Z</time>
        <extensions>
          <ns3:TrackPointExtension>
            <ns3:hr>111</ns3:hr>
            <ns3:cad>86</ns3:cad>
          </ns3:TrackPointExtension>
        </extensions>
      </trkpt>
      <trkpt lat="44.718945734202861785888671875" lon="6.7346447892487049102783203125">
        <ele>1802.199951171875</ele>
        <time>2026-09-03T05:23:07.000Z</time>
        <extensions>
          <ns3:TrackPointExtension>
            <ns3:hr>111</ns3:hr>
            <ns3:cad>83</ns3:cad>
          </ns3:TrackPointExtension>
        </extensions>
      </trkpt>
      <trkpt lat="44.71894850023090839385986328125" lon="6.7346612177789211273193359375">
        <ele>1801.800048828125</ele>
        <time>2026-09-03T05:23:08.000Z</time>
        <extensions>
          <ns3:TrackPointExtension>
            <ns3:hr>112</ns3:hr>
            <ns3:cad>83</ns3:cad>
          </ns3:TrackPointExtension>
        </extensions>
      </trkpt>
      <trkpt lat="44.7189526073634624481201171875" lon="6.73468778841197490692138671875">
        <ele>1801.5999755859375</ele>
        <time>2026-09-03T05:23:09.000Z</time>
        <extensions>
          <ns3:TrackPointExtension>
            <ns3:hr>112</ns3:hr>
            <ns3:cad>83</ns3:cad>
          </ns3:TrackPointExtension>
        </extensions>
      </trkpt>
      <trkpt lat="44.71896350383758544921875" lon="6.73471829853951930999755859375">
        <ele>1801.199951171875</ele>
        <time>2026-09-03T05:23:10.000Z</time>
        <extensions>
          <ns3:TrackPointExtension>
            <ns3:hr>112</ns3:hr>
            <ns3:cad>83</ns3:cad>
          </ns3:TrackPointExtension>
        </extensions>
      </trkpt>
      <trkpt lat="44.718967191874980926513671875" lon="6.73474176786839962005615234375">
        <ele>1801</ele>
        <time>2026-09-03T05:23:11.000Z</time>
        <extensions>
          <ns3:TrackPointExtension>
            <ns3:hr>112</ns3:hr>
            <ns3:cad>83</ns3:cad>
          </ns3:TrackPointExtension>
        </extensions>
      </trkpt>
      <trkpt lat="44.71897934563457965850830078125" lon="6.73477730713784694671630859375">
        <ele>1800.800048828125</ele>
        <time>2026-09-03T05:23:12.000Z</time>
        <extensions>
          <ns3:TrackPointExtension>
            <ns3:hr>113</ns3:hr>
            <ns3:cad>85</ns3:cad>
          </ns3:TrackPointExtension>
        </extensions>
      </trkpt>
      <trkpt lat="44.71898965537548065185546875" lon="6.73480312339961528778076171875">
        <ele>1800.5999755859375</ele>
        <time>2026-09-03T05:23:13.000Z</time>
        <extensions>
          <ns3:TrackPointExtension>
            <ns3:hr>113</ns3:hr>
            <ns3:cad>85</ns3:cad>
          </ns3:TrackPointExtension>
        </extensions>
      </trkpt>
      <trkpt lat="44.71899510361254215240478515625" lon="6.73482240177690982818603515625">
        <ele>1800.4000244140625</ele>
        <time>2026-09-03T05:23:14.000Z</time>
        <extensions>
          <ns3:TrackPointExtension>
            <ns3:hr>113</ns3:hr>
            <ns3:cad>85</ns3:cad>
          </ns3:TrackPointExtension>
        </extensions>
      </trkpt>
      <trkpt lat="44.719004072248935699462890625" lon="6.734849475324153900146484375">
        <ele>1800.199951171875</ele>
        <time>2026-09-03T05:23:15.000Z</time>
        <extensions>
          <ns3:TrackPointExtension>
            <ns3:hr>114</ns3:hr>
            <ns3:cad>83</ns3:cad>
          </ns3:TrackPointExtension>
        </extensions>
      </trkpt>
      <trkpt lat="44.7190075926482677459716796875" lon="6.73487001098692417144775390625">
        <ele>1799.800048828125</ele>
        <time>2026-09-03T05:23:16.000Z</time>
        <extensions>
          <ns3:TrackPointExtension>
            <ns3:hr>114</ns3:hr>
            <ns3:cad>80</ns3:cad>
          </ns3:TrackPointExtension>
        </extensions>
      </trkpt>
      <trkpt lat="44.7190142981708049774169921875" lon="6.73489633016288280487060546875">
        <ele>1799.4000244140625</ele>
        <time>2026-09-03T05:23:17.000Z</time>
        <extensions>
          <ns3:TrackPointExtension>
            <ns3:hr>114</ns3:hr>
            <ns3:cad>80</ns3:cad>
          </ns3:TrackPointExtension>
        </extensions>
      </trkpt>
      <trkpt lat="44.71902452409267425537109375" lon="6.73492155969142913818359375">
        <ele>1799.199951171875</ele>
        <time>2026-09-03T05:23:18.000Z</time>
        <extensions>
          <ns3:TrackPointExtension>
            <ns3:hr>114</ns3:hr>
            <ns3:cad>80</ns3:cad>
          </ns3:TrackPointExtension>
        </extensions>
      </trkpt>
      <trkpt lat="44.71903047524392604827880859375" lon="6.73494435846805572509765625">
        <ele>1798.800048828125</ele>
        <time>2026-09-03T05:23:19.000Z</time>
        <extensions>
          <ns3:TrackPointExtension>
            <ns3:hr>115</ns3:hr>
            <ns3:cad>81</ns3:cad>
          </ns3:TrackPointExtension>
        </extensions>
      </trkpt>
      <trkpt lat="44.7190374322235584259033203125" lon="6.7349643073976039886474609375">
        <ele>1798.4000244140625</ele>
        <time>2026-09-03T05:23:20.000Z</time>
        <extensions>
          <ns3:TrackPointExtension>
            <ns3:hr>115</ns3:hr>
            <ns3:cad>82</ns3:cad>
          </ns3:TrackPointExtension>
        </extensions>
      </trkpt>
      <trkpt lat="44.71903969533741474151611328125" lon="6.73498651944100856781005859375">
        <ele>1798</ele>
        <time>2026-09-03T05:23:21.000Z</time>
        <extensions>
          <ns3:TrackPointExtension>
            <ns3:hr>116</ns3:hr>
            <ns3:cad>83</ns3:cad>
          </ns3:TrackPointExtension>
        </extensions>
      </trkpt>
      <trkpt lat="44.71904522739350795745849609375" lon="6.73500697128474712371826171875">
        <ele>1797.800048828125</ele>
        <time>2026-09-03T05:23:22.000Z</time>
        <extensions>
          <ns3:TrackPointExtension>
            <ns3:hr>116</ns3:hr>
            <ns3:cad>84</ns3:cad>
          </ns3:TrackPointExtension>
        </extensions>
      </trkpt>
      <trkpt lat="44.719055034220218658447265625" lon="6.735031865537166595458984375">
        <ele>1797.4000244140625</ele>
        <time>2026-09-03T05:23:23.000Z</time>
        <extensions>
          <ns3:TrackPointExtension>
            <ns3:hr>116</ns3:hr>
            <ns3:cad>84</ns3:cad>
          </ns3:TrackPointExtension>
        </extensions>
      </trkpt>
      <trkpt lat="44.71906065009534358978271484375" lon="6.73505290411412715911865234375">
        <ele>1797</ele>
        <time>2026-09-03T05:23:24.000Z</time>
        <extensions>
          <ns3:TrackPointExtension>
            <ns3:hr>116</ns3:hr>
            <ns3:cad>84</ns3:cad>
          </ns3:TrackPointExtension>
        </extensions>
      </trkpt>
      <trkpt lat="44.7190759889781475067138671875" lon="6.7350829951465129852294921875">
        <ele>1796.5999755859375</ele>
        <time>2026-09-03T05:23:25.000Z</time>
        <extensions>
          <ns3:TrackPointExtension>
            <ns3:hr>116</ns3:hr>
            <ns3:cad>84</ns3:cad>
          </ns3:TrackPointExtension>
        </extensions>
      </trkpt>
      <trkpt lat="44.71908596344292163848876953125" lon="6.7351000942289829254150390625">
        <ele>1796.4000244140625</ele>
        <time>2026-09-03T05:23:26.000Z</time>
        <extensions>
          <ns3:TrackPointExtension>
            <ns3:hr>116</ns3:hr>
            <ns3:cad>83</ns3:cad>
          </ns3:TrackPointExtension>
        </extensions>
      </trkpt>
      <trkpt lat="44.71909962594509124755859375" lon="6.7351269163191318511962890625">
        <ele>1796</ele>
        <time>2026-09-03T05:23:27.000Z</time>
        <extensions>
          <ns3:TrackPointExtension>
            <ns3:hr>116</ns3:hr>
            <ns3:cad>83</ns3:cad>
          </ns3:TrackPointExtension>
        </extensions>
      </trkpt>
      <trkpt lat="44.71910440362989902496337890625" lon="6.73514678142964839935302734375">
        <ele>1795.5999755859375</ele>
        <time>2026-09-03T05:23:28.000Z</time>
        <extensions>
          <ns3:TrackPointExtension>
            <ns3:hr>116</ns3:hr>
            <ns3:cad>83</ns3:cad>
          </ns3:TrackPointExtension>
        </extensions>
      </trkpt>
      <trkpt lat="44.71911177970468997955322265625" lon="6.73516874201595783233642578125">
        <ele>1795.199951171875</ele>
        <time>2026-09-03T05:23:29.000Z</time>
        <extensions>
          <ns3:TrackPointExtension>
            <ns3:hr>117</ns3:hr>
            <ns3:cad>83</ns3:cad>
          </ns3:TrackPointExtension>
        </extensions>
      </trkpt>
      <trkpt lat="44.71911814995110034942626953125" lon="6.7351956479251384735107421875">
        <ele>1795</ele>
        <time>2026-09-03T05:23:30.000Z</time>
        <extensions>
          <ns3:TrackPointExtension>
            <ns3:hr>117</ns3:hr>
            <ns3:cad>83</ns3:cad>
          </ns3:TrackPointExtension>
        </extensions>
      </trkpt>
      <trkpt lat="44.71912586130201816558837890625" lon="6.73521350137889385223388671875">
        <ele>1794.5999755859375</ele>
        <time>2026-09-03T05:23:31.000Z</time>
        <extensions>
          <ns3:TrackPointExtension>
            <ns3:hr>117</ns3:hr>
            <ns3:cad>83</ns3:cad>
          </ns3:TrackPointExtension>
        </extensions>
      </trkpt>
      <trkpt lat="44.71913809888064861297607421875" lon="6.73523713834583759307861328125">
        <ele>1794.199951171875</ele>
        <time>2026-09-03T05:23:32.000Z</time>
        <extensions>
          <ns3:TrackPointExtension>
            <ns3:hr>117</ns3:hr>
            <ns3:cad>83</ns3:cad>
          </ns3:TrackPointExtension>
        </extensions>
      </trkpt>
      <trkpt lat="44.71914949826896190643310546875" lon="6.73526010476052761077880859375">
        <ele>1794</ele>
        <time>2026-09-03T05:23:33.000Z</time>
        <extensions>
          <ns3:TrackPointExtension>
            <ns3:hr>118</ns3:hr>
            <ns3:cad>84</ns3:cad>
          </ns3:TrackPointExtension>
        </extensions>
      </trkpt>
      <trkpt lat="44.71916274167597293853759765625" lon="6.7352838255465030670166015625">
        <ele>1793.5999755859375</ele>
        <time>2026-09-03T05:23:34.000Z</time>
        <extensions>
          <ns3:TrackPointExtension>
            <ns3:hr>118</ns3:hr>
            <ns3:cad>84</ns3:cad>
          </ns3:TrackPointExtension>
        </extensions>
      </trkpt>
      <trkpt lat="44.71917816437780857086181640625" lon="6.73530821688473224639892578125">
        <ele>1793.199951171875</ele>
        <time>2026-09-03T05:23:35.000Z</time>
        <extensions>
          <ns3:TrackPointExtension>
            <ns3:hr>118</ns3:hr>
            <ns3:cad>84</ns3:cad>
          </ns3:TrackPointExtension>
        </extensions>
      </trkpt>
      <trkpt lat="44.71918319351971149444580078125" lon="6.73532866872847080230712890625">
        <ele>1793</ele>
        <time>2026-09-03T05:23:36.000Z</time>
        <extensions>
          <ns3:TrackPointExtension>
            <ns3:hr>118</ns3:hr>
            <ns3:cad>84</ns3:cad>
          </ns3:TrackPointExtension>
        </extensions>
      </trkpt>
      <trkpt lat="44.71919124014675617218017578125" lon="6.73535599373281002044677734375">
        <ele>1792.5999755859375</ele>
        <time>2026-09-03T05:23:37.000Z</time>
        <extensions>
          <ns3:TrackPointExtension>
            <ns3:hr>118</ns3:hr>
            <ns3:cad>84</ns3:cad>
          </ns3:TrackPointExtension>
        </extensions>
      </trkpt>
      <trkpt lat="44.719202220439910888671875" lon="6.73538155853748321533203125">
        <ele>1792.4000244140625</ele>
        <time>2026-09-03T05:23:38.000Z</time>
        <extensions>
          <ns3:TrackPointExtension>
            <ns3:hr>119</ns3:hr>
            <ns3:cad>84</ns3:cad>
          </ns3:TrackPointExtension>
        </extensions>
      </trkpt>
      <trkpt lat="44.71921403892338275909423828125" lon="6.7354035191237926483154296875">
        <ele>1792</ele>
        <time>2026-09-03T05:23:39.000Z</time>
        <extensions>
          <ns3:TrackPointExtension>
            <ns3:hr>119</ns3:hr>
            <ns3:cad>83</ns3:cad>
          </ns3:TrackPointExtension>
        </extensions>
      </trkpt>
      <trkpt lat="44.71922225318849086761474609375" lon="6.73543117940425872802734375">
        <ele>1791.5999755859375</ele>
        <time>2026-09-03T05:23:40.000Z</time>
        <extensions>
          <ns3:TrackPointExtension>
            <ns3:hr>119</ns3:hr>
            <ns3:cad>83</ns3:cad>
          </ns3:TrackPointExtension>
        </extensions>
      </trkpt>
      <trkpt lat="44.71923180855810642242431640625" lon="6.73544500954449176788330078125">
        <ele>1791.199951171875</ele>
        <time>2026-09-03T05:23:41.000Z</time>
        <extensions>
          <ns3:TrackPointExtension>
            <ns3:hr>119</ns3:hr>
            <ns3:cad>83</ns3:cad>
          </ns3:TrackPointExtension>
        </extensions>
      </trkpt>
      <trkpt lat="44.71923968754708766937255859375" lon="6.73546629957854747772216796875">
        <ele>1790.800048828125</ele>
        <time>2026-09-03T05:23:42.000Z</time>
        <extensions>
          <ns3:TrackPointExtension>
            <ns3:hr>120</ns3:hr>
            <ns3:cad>83</ns3:cad>
          </ns3:TrackPointExtension>
        </extensions>
      </trkpt>
      <trkpt lat="44.7192496620118618011474609375" lon="6.7354772798717021942138671875">
        <ele>1790.5999755859375</ele>
        <time>2026-09-03T05:23:43.000Z</time>
        <extensions>
          <ns3:TrackPointExtension>
            <ns3:hr>120</ns3:hr>
            <ns3:cad>85</ns3:cad>
          </ns3:TrackPointExtension>
        </extensions>
      </trkpt>
      <trkpt lat="44.719255529344081878662109375" lon="6.7354881763458251953125">
        <ele>1790.199951171875</ele>
        <time>2026-09-03T05:23:44.000Z</time>
        <extensions>
          <ns3:TrackPointExtension>
            <ns3:hr>121</ns3:hr>
            <ns3:cad>85</ns3:cad>
          </ns3:TrackPointExtension>
        </extensions>
      </trkpt>
      <trkpt lat="44.719260223209857940673828125" lon="6.73549823462963104248046875">
        <ele>1790</ele>
        <time>2026-09-03T05:23:45.000Z</time>
        <extensions>
          <ns3:TrackPointExtension>
            <ns3:hr>121</ns3:hr>
            <ns3:cad>84</ns3:cad>
          </ns3:TrackPointExtension>
        </extensions>
      </trkpt>
      <trkpt lat="44.719260893762111663818359375" lon="6.735508628189563751220703125">
        <ele>1789.5999755859375</ele>
        <time>2026-09-03T05:23:46.000Z</time>
        <extensions>
          <ns3:TrackPointExtension>
            <ns3:hr>121</ns3:hr>
            <ns3:cad>82</ns3:cad>
          </ns3:TrackPointExtension>
        </extensions>
      </trkpt>
      <trkpt lat="44.7192613966763019561767578125" lon="6.73551558516919612884521484375">
        <ele>1789.4000244140625</ele>
        <time>2026-09-03T05:23:47.000Z</time>
        <extensions>
          <ns3:TrackPointExtension>
            <ns3:hr>122</ns3:hr>
            <ns3:cad>81</ns3:cad>
          </ns3:TrackPointExtension>
        </extensions>
      </trkpt>
      <trkpt lat="44.7192647494375705718994140625" lon="6.73552815802395343780517578125">
        <ele>1789.199951171875</ele>
        <time>2026-09-03T05:23:48.000Z</time>
        <extensions>
          <ns3:TrackPointExtension>
            <ns3:hr>122</ns3:hr>
            <ns3:cad>77</ns3:cad>
          </ns3:TrackPointExtension>
        </extensions>
      </trkpt>
      <trkpt lat="44.7192734666168689727783203125" lon="6.7355483584105968475341796875">
        <ele>1789</ele>
        <time>2026-09-03T05:23:49.000Z</time>
        <extensions>
          <ns3:TrackPointExtension>
            <ns3:hr>122</ns3:hr>
            <ns3:cad>77</ns3:cad>
          </ns3:TrackPointExtension>
        </extensions>
      </trkpt>
      <trkpt lat="44.7192868776619434356689453125" lon="6.73556805588304996490478515625">
        <ele>1788.5999755859375</ele>
        <time>2026-09-03T05:23:50.000Z</time>
        <extensions>
          <ns3:TrackPointExtension>
            <ns3:hr>122</ns3:hr>
            <ns3:cad>77</ns3:cad>
          </ns3:TrackPointExtension>
        </extensions>
      </trkpt>
      <trkpt lat="44.7192992828786373138427734375" lon="6.735584400594234466552734375">
        <ele>1788.199951171875</ele>
        <time>2026-09-03T05:23:51.000Z</time>
        <extensions>
          <ns3:TrackPointExtension>
            <ns3:hr>121</ns3:hr>
            <ns3:cad>77</ns3:cad>
          </ns3:TrackPointExtension>
        </extensions>
      </trkpt>
      <trkpt lat="44.71931755542755126953125" lon="6.73559722490608692169189453125">
        <ele>1787.800048828125</ele>
        <time>2026-09-03T05:23:52.000Z</time>
        <extensions>
          <ns3:TrackPointExtension>
            <ns3:hr>121</ns3:hr>
            <ns3:cad>77</ns3:cad>
          </ns3:TrackPointExtension>
        </extensions>
      </trkpt>
      <trkpt lat="44.7193338163197040557861328125" lon="6.73561147414147853851318359375">
        <ele>1787.4000244140625</ele>
        <time>2026-09-03T05:23:53.000Z</time>
        <extensions>
          <ns3:TrackPointExtension>
            <ns3:hr>121</ns3:hr>
            <ns3:cad>77</ns3:cad>
          </ns3:TrackPointExtension>
        </extensions>
      </trkpt>
      <trkpt lat="44.7193462215363979339599609375" lon="6.7356237955391407012939453125">
        <ele>1787</ele>
        <time>2026-09-03T05:23:54.000Z</time>
        <extensions>
          <ns3:TrackPointExtension>
            <ns3:hr>122</ns3:hr>
            <ns3:cad>77</ns3:cad>
          </ns3:TrackPointExtension>
        </extensions>
      </trkpt>
      <trkpt lat="44.71936491318047046661376953125" lon="6.7356415651738643646240234375">
        <ele>1786.800048828125</ele>
        <time>2026-09-03T05:23:55.000Z</time>
        <extensions>
          <ns3:TrackPointExtension>
            <ns3:hr>122</ns3:hr>
            <ns3:cad>77</ns3:cad>
          </ns3:TrackPointExtension>
        </extensions>
      </trkpt>
      <trkpt lat="44.7193807549774646759033203125" lon="6.73565941862761974334716796875">
        <ele>1786.4000244140625</ele>
        <time>2026-09-03T05:23:56.000Z</time>
        <extensions>
          <ns3:TrackPointExtension>
            <ns3:hr>122</ns3:hr>
            <ns3:cad>84</ns3:cad>
          </ns3:TrackPointExtension>
        </extensions>
      </trkpt>
      <trkpt lat="44.71940271556377410888671875" lon="6.735678948462009429931640625">
        <ele>1786.199951171875</ele>
        <time>2026-09-03T05:23:57.000Z</time>
        <extensions>
          <ns3:TrackPointExtension>
            <ns3:hr>122</ns3:hr>
            <ns3:cad>86</ns3:cad>
          </ns3:TrackPointExtension>
        </extensions>
      </trkpt>
      <trkpt lat="44.719420485198497772216796875" lon="6.73569244332611560821533203125">
        <ele>1786</ele>
        <time>2026-09-03T05:23:58.000Z</time>
        <extensions>
          <ns3:TrackPointExtension>
            <ns3:hr>122</ns3:hr>
            <ns3:cad>86</ns3:cad>
          </ns3:TrackPointExtension>
        </extensions>
      </trkpt>
      <trkpt lat="44.719443619251251220703125" lon="6.7356948740780353546142578125">
        <ele>1785.5999755859375</ele>
        <time>2026-09-03T05:23:59.000Z</time>
        <extensions>
          <ns3:TrackPointExtension>
            <ns3:hr>122</ns3:hr>
            <ns3:cad>86</ns3:cad>
          </ns3:TrackPointExtension>
        </extensions>
      </trkpt>
      <trkpt lat="44.719466082751750946044921875" lon="6.73570476472377777099609375">
        <ele>1785.4000244140625</ele>
        <time>2026-09-03T05:24:00.000Z</time>
        <extensions>
          <ns3:TrackPointExtension>
            <ns3:hr>121</ns3:hr>
            <ns3:cad>86</ns3:cad>
          </ns3:TrackPointExtension>
        </extensions>
      </trkpt>
      <trkpt lat="44.71947940997779369354248046875" lon="6.73571289516985416412353515625">
        <ele>1785</ele>
        <time>2026-09-03T05:24:01.000Z</time>
        <extensions>
          <ns3:TrackPointExtension>
            <ns3:hr>120</ns3:hr>
            <ns3:cad>84</ns3:cad>
          </ns3:TrackPointExtension>
        </extensions>
      </trkpt>
      <trkpt lat="44.71949282102286815643310546875" lon="6.7357213608920574188232421875">
        <ele>1784.800048828125</ele>
        <time>2026-09-03T05:24:02.000Z</time>
        <extensions>
          <ns3:TrackPointExtension>
            <ns3:hr>120</ns3:hr>
            <ns3:cad>84</ns3:cad>
          </ns3:TrackPointExtension>
        </extensions>
      </trkpt>
      <trkpt lat="44.7195061482489109039306640625" lon="6.7357354424893856048583984375">
        <ele>1784.5999755859375</ele>
        <time>2026-09-03T05:24:03.000Z</time>
        <extensions>
          <ns3:TrackPointExtension>
            <ns3:hr>120</ns3:hr>
            <ns3:cad>84</ns3:cad>
          </ns3:TrackPointExtension>
        </extensions>
      </trkpt>
      <trkpt lat="44.71951805055141448974609375" lon="6.73574541695415973663330078125">
        <ele>1784.199951171875</ele>
        <time>2026-09-03T05:24:04.000Z</time>
        <extensions>
          <ns3:TrackPointExtension>
            <ns3:hr>121</ns3:hr>
            <ns3:cad>83</ns3:cad>
          </ns3:TrackPointExtension>
        </extensions>
      </trkpt>
      <trkpt lat="44.71953875385224819183349609375" lon="6.73575329594314098358154296875">
        <ele>1784</ele>
        <time>2026-09-03T05:24:05.000Z</time>
        <extensions>
          <ns3:TrackPointExtension>
            <ns3:hr>121</ns3:hr>
            <ns3:cad>82</ns3:cad>
          </ns3:TrackPointExtension>
        </extensions>
      </trkpt>
      <trkpt lat="44.719553925096988677978515625" lon="6.73576486296951770782470703125">
        <ele>1783.5999755859375</ele>
        <time>2026-09-03T05:24:06.000Z</time>
        <extensions>
          <ns3:TrackPointExtension>
            <ns3:hr>122</ns3:hr>
            <ns3:cad>82</ns3:cad>
          </ns3:TrackPointExtension>
        </extensions>
      </trkpt>
      <trkpt lat="44.71956943161785602569580078125" lon="6.73577173613011837005615234375">
        <ele>1783.199951171875</ele>
        <time>2026-09-03T05:24:07.000Z</time>
        <extensions>
          <ns3:TrackPointExtension>
            <ns3:hr>122</ns3:hr>
            <ns3:cad>82</ns3:cad>
          </ns3:TrackPointExtension>
        </extensions>
      </trkpt>
      <trkpt lat="44.7195876203477382659912109375" lon="6.7357840575277805328369140625">
        <ele>1782.800048828125</ele>
        <time>2026-09-03T05:24:08.000Z</time>
        <extensions>
          <ns3:TrackPointExtension>
            <ns3:hr>122</ns3:hr>
            <ns3:cad>82</ns3:cad>
          </ns3:TrackPointExtension>
        </extensions>
      </trkpt>
      <trkpt lat="44.71959927119314670562744140625" lon="6.735794283449649810791015625">
        <ele>1782.5999755859375</ele>
        <time>2026-09-03T05:24:09.000Z</time>
        <extensions>
          <ns3:TrackPointExtension>
            <ns3:hr>121</ns3:hr>
            <ns3:cad>85</ns3:cad>
          </ns3:TrackPointExtension>
        </extensions>
      </trkpt>
      <trkpt lat="44.7196127660572528839111328125" lon="6.73580467700958251953125">
        <ele>1782.4000244140625</ele>
        <time>2026-09-03T05:24:10.000Z</time>
        <extensions>
          <ns3:TrackPointExtension>
            <ns3:hr>122</ns3:hr>
            <ns3:cad>85</ns3:cad>
          </ns3:TrackPointExtension>
        </extensions>
      </trkpt>
      <trkpt lat="44.71962559036910533905029296875" lon="6.73581548966467380523681640625">
        <ele>1782.199951171875</ele>
        <time>2026-09-03T05:24:11.000Z</time>
        <extensions>
          <ns3:TrackPointExtension>
            <ns3:hr>122</ns3:hr>
            <ns3:cad>85</ns3:cad>
          </ns3:TrackPointExtension>
        </extensions>
      </trkpt>
      <trkpt lat="44.7196372412145137786865234375" lon="6.73582018353044986724853515625">
        <ele>1782</ele>
        <time>2026-09-03T05:24:12.000Z</time>
        <extensions>
          <ns3:TrackPointExtension>
            <ns3:hr>122</ns3:hr>
            <ns3:cad>83</ns3:cad>
          </ns3:TrackPointExtension>
        </extensions>
      </trkpt>
      <trkpt lat="44.719655178487300872802734375" lon="6.7358185909688472747802734375">
        <ele>1781.800048828125</ele>
        <time>2026-09-03T05:24:13.000Z</time>
        <extensions>
          <ns3:TrackPointExtension>
            <ns3:hr>122</ns3:hr>
            <ns3:cad>83</ns3:cad>
          </ns3:TrackPointExtension>
        </extensions>
      </trkpt>
      <trkpt lat="44.71967001445591449737548828125" lon="6.735817752778530120849609375">
        <ele>1781.800048828125</ele>
        <time>2026-09-03T05:24:14.000Z</time>
        <extensions>
          <ns3:TrackPointExtension>
            <ns3:hr>122</ns3:hr>
            <ns3:cad>84</ns3:cad>
          </ns3:TrackPointExtension>
        </extensions>
      </trkpt>
      <trkpt lat="44.71968811936676502227783203125" lon="6.735821776092052459716796875">
        <ele>1781.5999755859375</ele>
        <time>2026-09-03T05:24:15.000Z</time>
        <extensions>
          <ns3:TrackPointExtension>
            <ns3:hr>123</ns3:hr>
            <ns3:cad>84</ns3:cad>
          </ns3:TrackPointExtension>
        </extensions>
      </trkpt>
      <trkpt lat="44.71970119513571262359619140625" lon="6.73583158291876316070556640625">
        <ele>1781.4000244140625</ele>
        <time>2026-09-03T05:24:16.000Z</time>
        <extensions>
          <ns3:TrackPointExtension>
            <ns3:hr>123</ns3:hr>
            <ns3:cad>86</ns3:cad>
          </ns3:TrackPointExtension>
        </extensions>
      </trkpt>
      <trkpt lat="44.7197217307984828948974609375" lon="6.73583527095615863800048828125">
        <ele>1781.199951171875</ele>
        <time>2026-09-03T05:24:17.000Z</time>
        <extensions>
          <ns3:TrackPointExtension>
            <ns3:hr>122</ns3:hr>
            <ns3:cad>86</ns3:cad>
          </ns3:TrackPointExtension>
        </extensions>
      </trkpt>
      <trkpt lat="44.7197505645453929901123046875" lon="6.735823787748813629150390625">
        <ele>1781</ele>
        <time>2026-09-03T05:24:18.000Z</time>
        <extensions>
          <ns3:TrackPointExtension>
            <ns3:hr>122</ns3:hr>
            <ns3:cad>85</ns3:cad>
          </ns3:TrackPointExtension>
        </extensions>
      </trkpt>
      <trkpt lat="44.71976875327527523040771484375" lon="6.73581867478787899017333984375">
        <ele>1780.800048828125</ele>
        <time>2026-09-03T05:24:19.000Z</time>
        <extensions>
          <ns3:TrackPointExtension>
            <ns3:hr>121</ns3:hr>
            <ns3:cad>84</ns3:cad>
          </ns3:TrackPointExtension>
        </extensions>
      </trkpt>
      <trkpt lat="44.71979121677577495574951171875" lon="6.73582001589238643646240234375">
        <ele>1780.4000244140625</ele>
        <time>2026-09-03T05:24:20.000Z</time>
        <extensions>
          <ns3:TrackPointExtension>
            <ns3:hr>121</ns3:hr>
            <ns3:cad>84</ns3:cad>
          </ns3:TrackPointExtension>
        </extensions>
      </trkpt>
      <trkpt lat="44.719804041087627410888671875" lon="6.73581666313111782073974609375">
        <ele>1780.199951171875</ele>
        <time>2026-09-03T05:24:21.000Z</time>
        <extensions>
          <ns3:TrackPointExtension>
            <ns3:hr>121</ns3:hr>
            <ns3:cad>83</ns3:cad>
          </ns3:TrackPointExtension>
        </extensions>
      </trkpt>
      <trkpt lat="44.71982181072235107421875" lon="6.73581901006400585174560546875">
        <ele>1779.800048828125</ele>
        <time>2026-09-03T05:24:22.000Z</time>
        <extensions>
          <ns3:TrackPointExtension>
            <ns3:hr>121</ns3:hr>
            <ns3:cad>83</ns3:cad>
          </ns3:TrackPointExtension>
        </extensions>
      </trkpt>
      <trkpt lat="44.7198350541293621063232421875" lon="6.7358274757862091064453125">
        <ele>1779.4000244140625</ele>
        <time>2026-09-03T05:24:23.000Z</time>
        <extensions>
          <ns3:TrackPointExtension>
            <ns3:hr>122</ns3:hr>
            <ns3:cad>79</ns3:cad>
          </ns3:TrackPointExtension>
        </extensions>
      </trkpt>
      <trkpt lat="44.7198534943163394927978515625" lon="6.73582973890006542205810546875">
        <ele>1779</ele>
        <time>2026-09-03T05:24:24.000Z</time>
        <extensions>
          <ns3:TrackPointExtension>
            <ns3:hr>121</ns3:hr>
            <ns3:cad>79</ns3:cad>
          </ns3:TrackPointExtension>
        </extensions>
      </trkpt>
      <trkpt lat="44.71986548043787479400634765625" lon="6.73583753407001495361328125">
        <ele>1778.800048828125</ele>
        <time>2026-09-03T05:24:25.000Z</time>
        <extensions>
          <ns3:TrackPointExtension>
            <ns3:hr>121</ns3:hr>
            <ns3:cad>79</ns3:cad>
          </ns3:TrackPointExtension>
        </extensions>
      </trkpt>
      <trkpt lat="44.71987185068428516387939453125" lon="6.73584180884063243865966796875">
        <ele>1778.4000244140625</ele>
        <time>2026-09-03T05:24:26.000Z</time>
        <extensions>
          <ns3:TrackPointExtension>
            <ns3:hr>121</ns3:hr>
            <ns3:cad>79</ns3:cad>
          </ns3:TrackPointExtension>
        </extensions>
      </trkpt>
      <trkpt lat="44.7198994271457195281982421875" lon="6.73584516160190105438232421875">
        <ele>1778.4000244140625</ele>
        <time>2026-09-03T05:24:27.000Z</time>
        <extensions>
          <ns3:TrackPointExtension>
            <ns3:hr>121</ns3:hr>
            <ns3:cad>79</ns3:cad>
          </ns3:TrackPointExtension>
        </extensions>
      </trkpt>
      <trkpt lat="44.7199114970862865447998046875" lon="6.73584935255348682403564453125">
        <ele>1778.199951171875</ele>
        <time>2026-09-03T05:24:28.000Z</time>
        <extensions>
          <ns3:TrackPointExtension>
            <ns3:hr>120</ns3:hr>
            <ns3:cad>79</ns3:cad>
          </ns3:TrackPointExtension>
        </extensions>
      </trkpt>
      <trkpt lat="44.71993052400648593902587890625" lon="6.73586075194180011749267578125">
        <ele>1778</ele>
        <time>2026-09-03T05:24:29.000Z</time>
        <extensions>
          <ns3:TrackPointExtension>
            <ns3:hr>120</ns3:hr>
            <ns3:cad>79</ns3:cad>
          </ns3:TrackPointExtension>
        </extensions>
      </trkpt>
      <trkpt lat="44.71994259394705295562744140625" lon="6.73586712218821048736572265625">
        <ele>1777.800048828125</ele>
        <time>2026-09-03T05:24:30.000Z</time>
        <extensions>
          <ns3:TrackPointExtension>
            <ns3:hr>120</ns3:hr>
            <ns3:cad>79</ns3:cad>
          </ns3:TrackPointExtension>
        </extensions>
      </trkpt>
      <trkpt lat="44.719956927001476287841796875" lon="6.735872738063335418701171875">
        <ele>1777.5999755859375</ele>
        <time>2026-09-03T05:24:31.000Z</time>
        <extensions>
          <ns3:TrackPointExtension>
            <ns3:hr>120</ns3:hr>
            <ns3:cad>0</ns3:cad>
          </ns3:TrackPointExtension>
        </extensions>
      </trkpt>
      <trkpt lat="44.71996254287660121917724609375" lon="6.73587868921458721160888671875">
        <ele>1777.4000244140625</ele>
        <time>2026-09-03T05:24:32.000Z</time>
        <extensions>
          <ns3:TrackPointExtension>
            <ns3:hr>120</ns3:hr>
            <ns3:cad>0</ns3:cad>
          </ns3:TrackPointExtension>
        </extensions>
      </trkpt>
      <trkpt lat="44.7199738584458827972412109375" lon="6.7358853109180927276611328125">
        <ele>1777.199951171875</ele>
        <time>2026-09-03T05:24:33.000Z</time>
        <extensions>
          <ns3:TrackPointExtension>
            <ns3:hr>119</ns3:hr>
            <ns3:cad>0</ns3:cad>
          </ns3:TrackPointExtension>
        </extensions>
      </trkpt>
      <trkpt lat="44.71998534165322780609130859375" lon="6.735896877944469451904296875">
        <ele>1777</ele>
        <time>2026-09-03T05:24:34.000Z</time>
        <extensions>
          <ns3:TrackPointExtension>
            <ns3:hr>119</ns3:hr>
            <ns3:cad>79</ns3:cad>
          </ns3:TrackPointExtension>
        </extensions>
      </trkpt>
      <trkpt lat="44.72000160254538059234619140625" lon="6.735910288989543914794921875">
        <ele>1777</ele>
        <time>2026-09-03T05:24:35.000Z</time>
        <extensions>
          <ns3:TrackPointExtension>
            <ns3:hr>118</ns3:hr>
            <ns3:cad>79</ns3:cad>
          </ns3:TrackPointExtension>
        </extensions>
      </trkpt>
      <trkpt lat="44.720022976398468017578125" lon="6.73592738807201385498046875">
        <ele>1776.5999755859375</ele>
        <time>2026-09-03T05:24:36.000Z</time>
        <extensions>
          <ns3:TrackPointExtension>
            <ns3:hr>117</ns3:hr>
            <ns3:cad>79</ns3:cad>
          </ns3:TrackPointExtension>
        </extensions>
      </trkpt>
      <trkpt lat="44.7200524806976318359375" lon="6.73594943247735500335693359375">
        <ele>1776.4000244140625</ele>
        <time>2026-09-03T05:24:37.000Z</time>
        <extensions>
          <ns3:TrackPointExtension>
            <ns3:hr>116</ns3:hr>
            <ns3:cad>77</ns3:cad>
          </ns3:TrackPointExtension>
        </extensions>
      </trkpt>
      <trkpt lat="44.720065556466579437255859375" lon="6.73596451990306377410888671875">
        <ele>1776</ele>
        <time>2026-09-03T05:24:38.000Z</time>
        <extensions>
          <ns3:TrackPointExtension>
            <ns3:hr>116</ns3:hr>
            <ns3:cad>0</ns3:cad>
          </ns3:TrackPointExtension>
        </extensions>
      </trkpt>
      <trkpt lat="44.7200804762542247772216796875" lon="6.73597759567201137542724609375">
        <ele>1775.5999755859375</ele>
        <time>2026-09-03T05:24:39.000Z</time>
        <extensions>
          <ns3:TrackPointExtension>
            <ns3:hr>116</ns3:hr>
            <ns3:cad>0</ns3:cad>
          </ns3:TrackPointExtension>
        </extensions>
      </trkpt>
      <trkpt lat="44.7200965695083141326904296875" lon="6.7359868995845317840576171875">
        <ele>1775.199951171875</ele>
        <time>2026-09-03T05:24:40.000Z</time>
        <extensions>
          <ns3:TrackPointExtension>
            <ns3:hr>116</ns3:hr>
            <ns3:cad>80</ns3:cad>
          </ns3:TrackPointExtension>
        </extensions>
      </trkpt>
      <trkpt lat="44.7201062925159931182861328125" lon="6.7360003106296062469482421875">
        <ele>1775</ele>
        <time>2026-09-03T05:24:41.000Z</time>
        <extensions>
          <ns3:TrackPointExtension>
            <ns3:hr>115</ns3:hr>
            <ns3:cad>80</ns3:cad>
          </ns3:TrackPointExtension>
        </extensions>
      </trkpt>
      <trkpt lat="44.7201168537139892578125" lon="6.7360125482082366943359375">
        <ele>1774.800048828125</ele>
        <time>2026-09-03T05:24:42.000Z</time>
        <extensions>
          <ns3:TrackPointExtension>
            <ns3:hr>116</ns3:hr>
            <ns3:cad>82</ns3:cad>
          </ns3:TrackPointExtension>
        </extensions>
      </trkpt>
      <trkpt lat="44.72012531943619251251220703125" lon="6.73602000810205936431884765625">
        <ele>1774.800048828125</ele>
        <time>2026-09-03T05:24:43.000Z</time>
        <extensions>
          <ns3:TrackPointExtension>
            <ns3:hr>116</ns3:hr>
            <ns3:cad>83</ns3:cad>
          </ns3:TrackPointExtension>
        </extensions>
      </trkpt>
      <trkpt lat="44.7201371379196643829345703125" lon="6.73602855764329433441162109375">
        <ele>1774.5999755859375</ele>
        <time>2026-09-03T05:24:44.000Z</time>
        <extensions>
          <ns3:TrackPointExtension>
            <ns3:hr>116</ns3:hr>
            <ns3:cad>83</ns3:cad>
          </ns3:TrackPointExtension>
        </extensions>
      </trkpt>
      <trkpt lat="44.72015180625021457672119140625" lon="6.73604347743093967437744140625">
        <ele>1774.4000244140625</ele>
        <time>2026-09-03T05:24:45.000Z</time>
        <extensions>
          <ns3:TrackPointExtension>
            <ns3:hr>116</ns3:hr>
            <ns3:cad>83</ns3:cad>
          </ns3:TrackPointExtension>
        </extensions>
      </trkpt>
      <trkpt lat="44.72016404382884502410888671875" lon="6.73605252988636493682861328125">
        <ele>1774</ele>
        <time>2026-09-03T05:24:46.000Z</time>
        <extensions>
          <ns3:TrackPointExtension>
            <ns3:hr>117</ns3:hr>
            <ns3:cad>83</ns3:cad>
          </ns3:TrackPointExtension>
        </extensions>
      </trkpt>
      <trkpt lat="44.7201770357787609100341796875" lon="6.736059822142124176025390625">
        <ele>1773.800048828125</ele>
        <time>2026-09-03T05:24:47.000Z</time>
        <extensions>
          <ns3:TrackPointExtension>
            <ns3:hr>116</ns3:hr>
            <ns3:cad>83</ns3:cad>
          </ns3:TrackPointExtension>
        </extensions>
      </trkpt>
      <trkpt lat="44.7201917879283428192138671875" lon="6.73606694675981998443603515625">
        <ele>1773.4000244140625</ele>
        <time>2026-09-03T05:24:48.000Z</time>
        <extensions>
          <ns3:TrackPointExtension>
            <ns3:hr>116</ns3:hr>
            <ns3:cad>83</ns3:cad>
          </ns3:TrackPointExtension>
        </extensions>
      </trkpt>
      <trkpt lat="44.72019790671765804290771484375" lon="6.73607767559587955474853515625">
        <ele>1773</ele>
        <time>2026-09-03T05:24:49.000Z</time>
        <extensions>
          <ns3:TrackPointExtension>
            <ns3:hr>116</ns3:hr>
            <ns3:cad>83</ns3:cad>
          </ns3:TrackPointExtension>
        </extensions>
      </trkpt>
      <trkpt lat="44.72021098248660564422607421875" lon="6.736090667545795440673828125">
        <ele>1772.800048828125</ele>
        <time>2026-09-03T05:24:50.000Z</time>
        <extensions>
          <ns3:TrackPointExtension>
            <ns3:hr>116</ns3:hr>
            <ns3:cad>65</ns3:cad>
          </ns3:TrackPointExtension>
        </extensions>
      </trkpt>
      <trkpt lat="44.7202283330261707305908203125" lon="6.7360956966876983642578125">
        <ele>1772.4000244140625</ele>
        <time>2026-09-03T05:24:51.000Z</time>
        <extensions>
          <ns3:TrackPointExtension>
            <ns3:hr>115</ns3:hr>
            <ns3:cad>65</ns3:cad>
          </ns3:TrackPointExtension>
        </extensions>
      </trkpt>
      <trkpt lat="44.7202437557280063629150390625" lon="6.73610231839120388031005859375">
        <ele>1772.199951171875</ele>
        <time>2026-09-03T05:24:52.000Z</time>
        <extensions>
          <ns3:TrackPointExtension>
            <ns3:hr>114</ns3:hr>
            <ns3:cad>66</ns3:cad>
          </ns3:TrackPointExtension>
        </extensions>
      </trkpt>
      <trkpt lat="44.7202568314969539642333984375" lon="6.73610868863761425018310546875">
        <ele>1771.800048828125</ele>
        <time>2026-09-03T05:24:53.000Z</time>
        <extensions>
          <ns3:TrackPointExtension>
            <ns3:hr>114</ns3:hr>
            <ns3:cad>66</ns3:cad>
          </ns3:TrackPointExtension>
        </extensions>
      </trkpt>
      <trkpt lat="44.7202752716839313507080078125" lon="6.73611941747367382049560546875">
        <ele>1771.5999755859375</ele>
        <time>2026-09-03T05:24:54.000Z</time>
        <extensions>
          <ns3:TrackPointExtension>
            <ns3:hr>113</ns3:hr>
            <ns3:cad>66</ns3:cad>
          </ns3:TrackPointExtension>
        </extensions>
      </trkpt>
      <trkpt lat="44.72029455006122589111328125" lon="6.736130900681018829345703125">
        <ele>1771.4000244140625</ele>
        <time>2026-09-03T05:24:55.000Z</time>
        <extensions>
          <ns3:TrackPointExtension>
            <ns3:hr>113</ns3:hr>
            <ns3:cad>66</ns3:cad>
          </ns3:TrackPointExtension>
        </extensions>
      </trkpt>
      <trkpt lat="44.72030066885054111480712890625" lon="6.736146993935108184814453125">
        <ele>1771</ele>
        <time>2026-09-03T05:24:56.000Z</time>
        <extensions>
          <ns3:TrackPointExtension>
            <ns3:hr>112</ns3:hr>
            <ns3:cad>66</ns3:cad>
          </ns3:TrackPointExtension>
        </extensions>
      </trkpt>
      <trkpt lat="44.72028994001448154449462890625" lon="6.73615596257150173187255859375">
        <ele>1770.800048828125</ele>
        <time>2026-09-03T05:24:57.000Z</time>
        <extensions>
          <ns3:TrackPointExtension>
            <ns3:hr>112</ns3:hr>
            <ns3:cad>66</ns3:cad>
          </ns3:TrackPointExtension>
        </extensions>
      </trkpt>
      <trkpt lat="44.7202786244451999664306640625" lon="6.73616250045597553253173828125">
        <ele>1770.5999755859375</ele>
        <time>2026-09-03T05:24:58.000Z</time>
        <extensions>
          <ns3:TrackPointExtension>
            <ns3:hr>113</ns3:hr>
            <ns3:cad>67</ns3:cad>
          </ns3:TrackPointExtension>
        </extensions>
      </trkpt>
      <trkpt lat="44.72025674767792224884033203125" lon="6.7361679486930370330810546875">
        <ele>1770.4000244140625</ele>
        <time>2026-09-03T05:24:59.000Z</time>
        <extensions>
          <ns3:TrackPointExtension>
            <ns3:hr>113</ns3:hr>
            <ns3:cad>67</ns3:cad>
          </ns3:TrackPointExtension>
        </extensions>
      </trkpt>
      <trkpt lat="44.72023964859545230865478515625" lon="6.73617205582559108734130859375">
        <ele>1770.199951171875</ele>
        <time>2026-09-03T05:25:00.000Z</time>
        <extensions>
          <ns3:TrackPointExtension>
            <ns3:hr>113</ns3:hr>
            <ns3:cad>67</ns3:cad>
          </ns3:TrackPointExtension>
        </extensions>
      </trkpt>
      <trkpt lat="44.7202159278094768524169921875" lon="6.7361726425588130950927734375">
        <ele>1769.800048828125</ele>
        <time>2026-09-03T05:25:01.000Z</time>
        <extensions>
          <ns3:TrackPointExtension>
            <ns3:hr>113</ns3:hr>
            <ns3:cad>75</ns3:cad>
          </ns3:TrackPointExtension>
        </extensions>
      </trkpt>
      <trkpt lat="44.72019824199378490447998046875" lon="6.7361716367304325103759765625">
        <ele>1769.5999755859375</ele>
        <time>2026-09-03T05:25:02.000Z</time>
        <extensions>
          <ns3:TrackPointExtension>
            <ns3:hr>112</ns3:hr>
            <ns3:cad>75</ns3:cad>
          </ns3:TrackPointExtension>
        </extensions>
      </trkpt>
      <trkpt lat="44.72018214873969554901123046875" lon="6.73616920597851276397705078125">
        <ele>1769.199951171875</ele>
        <time>2026-09-03T05:25:03.000Z</time>
        <extensions>
          <ns3:TrackPointExtension>
            <ns3:hr>113</ns3:hr>
            <ns3:cad>83</ns3:cad>
          </ns3:TrackPointExtension>
        </extensions>
      </trkpt>
      <trkpt lat="44.72015985287725925445556640625" lon="6.7361627519130706787109375">
        <ele>1768.800048828125</ele>
        <time>2026-09-03T05:25:04.000Z</time>
        <extensions>
          <ns3:TrackPointExtension>
            <ns3:hr>113</ns3:hr>
            <ns3:cad>83</ns3:cad>
          </ns3:TrackPointExtension>
        </extensions>
      </trkpt>
      <trkpt lat="44.72014778293669223785400390625" lon="6.736163087189197540283203125">
        <ele>1768.4000244140625</ele>
        <time>2026-09-03T05:25:05.000Z</time>
        <extensions>
          <ns3:TrackPointExtension>
            <ns3:hr>112</ns3:hr>
            <ns3:cad>83</ns3:cad>
          </ns3:TrackPointExtension>
        </extensions>
      </trkpt>
      <trkpt lat="44.7201207093894481658935546875" lon="6.73615529201924800872802734375">
        <ele>1768.199951171875</ele>
        <time>2026-09-03T05:25:06.000Z</time>
        <extensions>
          <ns3:TrackPointExtension>
            <ns3:hr>112</ns3:hr>
            <ns3:cad>83</ns3:cad>
          </ns3:TrackPointExtension>
        </extensions>
      </trkpt>
      <trkpt lat="44.7201047837734222412109375" lon="6.736150346696376800537109375">
        <ele>1767.800048828125</ele>
        <time>2026-09-03T05:25:07.000Z</time>
        <extensions>
          <ns3:TrackPointExtension>
            <ns3:hr>112</ns3:hr>
            <ns3:cad>84</ns3:cad>
          </ns3:TrackPointExtension>
        </extensions>
      </trkpt>
      <trkpt lat="44.72009313292801380157470703125" lon="6.73614003695547580718994140625">
        <ele>1767.800048828125</ele>
        <time>2026-09-03T05:25:08.000Z</time>
        <extensions>
          <ns3:TrackPointExtension>
            <ns3:hr>112</ns3:hr>
            <ns3:cad>84</ns3:cad>
          </ns3:TrackPointExtension>
        </extensions>
      </trkpt>
      <trkpt lat="44.7200831584632396697998046875" lon="6.7361386120319366455078125">
        <ele>1767.5999755859375</ele>
        <time>2026-09-03T05:25:09.000Z</time>
        <extensions>
          <ns3:TrackPointExtension>
            <ns3:hr>112</ns3:hr>
            <ns3:cad>84</ns3:cad>
          </ns3:TrackPointExtension>
        </extensions>
      </trkpt>
      <trkpt lat="44.72007234580814838409423828125" lon="6.7361386120319366455078125">
        <ele>1767.4000244140625</ele>
        <time>2026-09-03T05:25:10.000Z</time>
        <extensions>
          <ns3:TrackPointExtension>
            <ns3:hr>113</ns3:hr>
            <ns3:cad>84</ns3:cad>
          </ns3:TrackPointExtension>
        </extensions>
      </trkpt>
      <trkpt lat="44.72006329335272312164306640625" lon="6.73614439554512500762939453125">
        <ele>1767.199951171875</ele>
        <time>2026-09-03T05:25:11.000Z</time>
        <extensions>
          <ns3:TrackPointExtension>
            <ns3:hr>112</ns3:hr>
            <ns3:cad>84</ns3:cad>
          </ns3:TrackPointExtension>
        </extensions>
      </trkpt>
      <trkpt lat="44.72004099749028682708740234375" lon="6.736142635345458984375">
        <ele>1767</ele>
        <time>2026-09-03T05:25:12.000Z</time>
        <extensions>
          <ns3:TrackPointExtension>
            <ns3:hr>112</ns3:hr>
            <ns3:cad>84</ns3:cad>
          </ns3:TrackPointExtension>
        </extensions>
      </trkpt>
      <trkpt lat="44.720027334988117218017578125" lon="6.73613014630973339080810546875">
        <ele>1766.5999755859375</ele>
        <time>2026-09-03T05:25:13.000Z</time>
        <extensions>
          <ns3:TrackPointExtension>
            <ns3:hr>113</ns3:hr>
            <ns3:cad>84</ns3:cad>
          </ns3:TrackPointExtension>
        </extensions>
      </trkpt>
      <trkpt lat="44.7200140915811061859130859375" lon="6.73612008802592754364013671875">
        <ele>1766.4000244140625</ele>
        <time>2026-09-03T05:25:14.000Z</time>
        <extensions>
          <ns3:TrackPointExtension>
            <ns3:hr>113</ns3:hr>
            <ns3:cad>0</ns3:cad>
          </ns3:TrackPointExtension>
        </extensions>
      </trkpt>
      <trkpt lat="44.72000487148761749267578125" lon="6.7361092753708362579345703125">
        <ele>1766</ele>
        <time>2026-09-03T05:25:15.000Z</time>
        <extensions>
          <ns3:TrackPointExtension>
            <ns3:hr>113</ns3:hr>
            <ns3:cad>0</ns3:cad>
          </ns3:TrackPointExtension>
        </extensions>
      </trkpt>
      <trkpt lat="44.7199835814535617828369140625" lon="6.736102737486362457275390625">
        <ele>1765.800048828125</ele>
        <time>2026-09-03T05:25:16.000Z</time>
        <extensions>
          <ns3:TrackPointExtension>
            <ns3:hr>113</ns3:hr>
            <ns3:cad>65</ns3:cad>
          </ns3:TrackPointExtension>
        </extensions>
      </trkpt>
      <trkpt lat="44.71996656619012355804443359375" lon="6.7360945232212543487548828125">
        <ele>1765.5999755859375</ele>
        <time>2026-09-03T05:25:17.000Z</time>
        <extensions>
          <ns3:TrackPointExtension>
            <ns3:hr>112</ns3:hr>
            <ns3:cad>79</ns3:cad>
          </ns3:TrackPointExtension>
        </extensions>
      </trkpt>
      <trkpt lat="44.71995499916374683380126953125" lon="6.736093349754810333251953125">
        <ele>1765.4000244140625</ele>
        <time>2026-09-03T05:25:18.000Z</time>
        <extensions>
          <ns3:TrackPointExtension>
            <ns3:hr>112</ns3:hr>
            <ns3:cad>81</ns3:cad>
          </ns3:TrackPointExtension>
        </extensions>
      </trkpt>
      <trkpt lat="44.71994183957576751708984375" lon="6.73609561286866664886474609375">
        <ele>1765.199951171875</ele>
        <time>2026-09-03T05:25:19.000Z</time>
        <extensions>
          <ns3:TrackPointExtension>
            <ns3:hr>112</ns3:hr>
            <ns3:cad>83</ns3:cad>
          </ns3:TrackPointExtension>
        </extensions>
      </trkpt>
      <trkpt lat="44.71993337385356426239013671875" lon="6.73610567115247249603271484375">
        <ele>1764.800048828125</ele>
        <time>2026-09-03T05:25:20.000Z</time>
        <extensions>
          <ns3:TrackPointExtension>
            <ns3:hr>112</ns3:hr>
            <ns3:cad>83</ns3:cad>
          </ns3:TrackPointExtension>
        </extensions>
      </trkpt>
      <trkpt lat="44.71990956924855709075927734375" lon="6.73611556179821491241455078125">
        <ele>1764.5999755859375</ele>
        <time>2026-09-03T05:25:21.000Z</time>
        <extensions>
          <ns3:TrackPointExtension>
            <ns3:hr>112</ns3:hr>
            <ns3:cad>83</ns3:cad>
          </ns3:TrackPointExtension>
        </extensions>
      </trkpt>
      <trkpt lat="44.71989532001316547393798828125" lon="6.736132912337779998779296875">
        <ele>1764.199951171875</ele>
        <time>2026-09-03T05:25:22.000Z</time>
        <extensions>
          <ns3:TrackPointExtension>
            <ns3:hr>112</ns3:hr>
            <ns3:cad>81</ns3:cad>
          </ns3:TrackPointExtension>
        </extensions>
      </trkpt>
      <trkpt lat="44.7198819927871227264404296875" lon="6.73614204861223697662353515625">
        <ele>1763.800048828125</ele>
        <time>2026-09-03T05:25:23.000Z</time>
        <extensions>
          <ns3:TrackPointExtension>
            <ns3:hr>112</ns3:hr>
            <ns3:cad>81</ns3:cad>
          </ns3:TrackPointExtension>
        </extensions>
      </trkpt>
      <trkpt lat="44.71985693089663982391357421875" lon="6.73614791594445705413818359375">
        <ele>1763.5999755859375</ele>
        <time>2026-09-03T05:25:24.000Z</time>
        <extensions>
          <ns3:TrackPointExtension>
            <ns3:hr>112</ns3:hr>
            <ns3:cad>81</ns3:cad>
          </ns3:TrackPointExtension>
        </extensions>
      </trkpt>
      <trkpt lat="44.71983547322452068328857421875" lon="6.7361505143344402313232421875">
        <ele>1763.199951171875</ele>
        <time>2026-09-03T05:25:25.000Z</time>
        <extensions>
          <ns3:TrackPointExtension>
            <ns3:hr>111</ns3:hr>
            <ns3:cad>81</ns3:cad>
          </ns3:TrackPointExtension>
        </extensions>
      </trkpt>
      <trkpt lat="44.71981602720916271209716796875" lon="6.73616065643727779388427734375">
        <ele>1763</ele>
        <time>2026-09-03T05:25:26.000Z</time>
        <extensions>
          <ns3:TrackPointExtension>
            <ns3:hr>111</ns3:hr>
            <ns3:cad>81</ns3:cad>
          </ns3:TrackPointExtension>
        </extensions>
      </trkpt>
      <trkpt lat="44.71978937275707721710205078125" lon="6.7361709661781787872314453125">
        <ele>1762.5999755859375</ele>
        <time>2026-09-03T05:25:27.000Z</time>
        <extensions>
          <ns3:TrackPointExtension>
            <ns3:hr>110</ns3:hr>
            <ns3:cad>80</ns3:cad>
          </ns3:TrackPointExtension>
        </extensions>
      </trkpt>
      <trkpt lat="44.71977277658879756927490234375" lon="6.73617658205330371856689453125">
        <ele>1762.199951171875</ele>
        <time>2026-09-03T05:25:28.000Z</time>
        <extensions>
          <ns3:TrackPointExtension>
            <ns3:hr>109</ns3:hr>
            <ns3:cad>80</ns3:cad>
          </ns3:TrackPointExtension>
        </extensions>
      </trkpt>
      <trkpt lat="44.7197535820305347442626953125" lon="6.73619066365063190460205078125">
        <ele>1762</ele>
        <time>2026-09-03T05:25:29.000Z</time>
        <extensions>
          <ns3:TrackPointExtension>
            <ns3:hr>109</ns3:hr>
            <ns3:cad>79</ns3:cad>
          </ns3:TrackPointExtension>
        </extensions>
      </trkpt>
      <trkpt lat="44.71972701139748096466064453125" lon="6.73620021902024745941162109375">
        <ele>1761.800048828125</ele>
        <time>2026-09-03T05:25:30.000Z</time>
        <extensions>
          <ns3:TrackPointExtension>
            <ns3:hr>109</ns3:hr>
            <ns3:cad>79</ns3:cad>
          </ns3:TrackPointExtension>
        </extensions>
      </trkpt>
      <trkpt lat="44.71971125341951847076416015625" lon="6.73620231449604034423828125">
        <ele>1761.4000244140625</ele>
        <time>2026-09-03T05:25:31.000Z</time>
        <extensions>
          <ns3:TrackPointExtension>
            <ns3:hr>109</ns3:hr>
            <ns3:cad>80</ns3:cad>
          </ns3:TrackPointExtension>
        </extensions>
      </trkpt>
      <trkpt lat="44.71968744881451129913330078125" lon="6.7362088523805141448974609375">
        <ele>1761.199951171875</ele>
        <time>2026-09-03T05:25:32.000Z</time>
        <extensions>
          <ns3:TrackPointExtension>
            <ns3:hr>109</ns3:hr>
            <ns3:cad>81</ns3:cad>
          </ns3:TrackPointExtension>
        </extensions>
      </trkpt>
      <trkpt lat="44.7196607105433940887451171875" lon="6.736212037503719329833984375">
        <ele>1760.800048828125</ele>
        <time>2026-09-03T05:25:33.000Z</time>
        <extensions>
          <ns3:TrackPointExtension>
            <ns3:hr>109</ns3:hr>
            <ns3:cad>81</ns3:cad>
          </ns3:TrackPointExtension>
        </extensions>
      </trkpt>
      <trkpt lat="44.71964805386960506439208984375" lon="6.73621765337884426116943359375">
        <ele>1760.5999755859375</ele>
        <time>2026-09-03T05:25:34.000Z</time>
        <extensions>
          <ns3:TrackPointExtension>
            <ns3:hr>110</ns3:hr>
            <ns3:cad>81</ns3:cad>
          </ns3:TrackPointExtension>
        </extensions>
      </trkpt>
      <trkpt lat="44.7196218185126781463623046875" lon="6.73622134141623973846435546875">
        <ele>1760.4000244140625</ele>
        <time>2026-09-03T05:25:35.000Z</time>
        <extensions>
          <ns3:TrackPointExtension>
            <ns3:hr>110</ns3:hr>
            <ns3:cad>80</ns3:cad>
          </ns3:TrackPointExtension>
        </extensions>
      </trkpt>
      <trkpt lat="44.719605557620525360107421875" lon="6.73622519709169864654541015625">
        <ele>1760.199951171875</ele>
        <time>2026-09-03T05:25:36.000Z</time>
        <extensions>
          <ns3:TrackPointExtension>
            <ns3:hr>111</ns3:hr>
            <ns3:cad>80</ns3:cad>
          </ns3:TrackPointExtension>
        </extensions>
      </trkpt>
      <trkpt lat="44.719588458538055419921875" lon="6.73623827286064624786376953125">
        <ele>1759.800048828125</ele>
        <time>2026-09-03T05:25:37.000Z</time>
        <extensions>
          <ns3:TrackPointExtension>
            <ns3:hr>111</ns3:hr>
            <ns3:cad>80</ns3:cad>
          </ns3:TrackPointExtension>
        </extensions>
      </trkpt>
      <trkpt lat="44.7195681743323802947998046875" lon="6.73623357899487018585205078125">
        <ele>1759.5999755859375</ele>
        <time>2026-09-03T05:25:38.000Z</time>
        <extensions>
          <ns3:TrackPointExtension>
            <ns3:hr>111</ns3:hr>
            <ns3:cad>82</ns3:cad>
          </ns3:TrackPointExtension>
        </extensions>
      </trkpt>
      <trkpt lat="44.71954948268830776214599609375" lon="6.73623240552842617034912109375">
        <ele>1759.4000244140625</ele>
        <time>2026-09-03T05:25:39.000Z</time>
        <extensions>
          <ns3:TrackPointExtension>
            <ns3:hr>111</ns3:hr>
            <ns3:cad>83</ns3:cad>
          </ns3:TrackPointExtension>
        </extensions>
      </trkpt>
      <trkpt lat="44.719532467424869537353515625" lon="6.73623475246131420135498046875">
        <ele>1759</ele>
        <time>2026-09-03T05:25:40.000Z</time>
        <extensions>
          <ns3:TrackPointExtension>
            <ns3:hr>111</ns3:hr>
            <ns3:cad>83</ns3:cad>
          </ns3:TrackPointExtension>
        </extensions>
      </trkpt>
      <trkpt lat="44.71951193176209926605224609375" lon="6.7362316511571407318115234375">
        <ele>1758.800048828125</ele>
        <time>2026-09-03T05:25:41.000Z</time>
        <extensions>
          <ns3:TrackPointExtension>
            <ns3:hr>112</ns3:hr>
            <ns3:cad>83</ns3:cad>
          </ns3:TrackPointExtension>
        </extensions>
      </trkpt>
      <trkpt lat="44.719500951468944549560546875" lon="6.73623793758451938629150390625">
        <ele>1758.4000244140625</ele>
        <time>2026-09-03T05:25:42.000Z</time>
        <extensions>
          <ns3:TrackPointExtension>
            <ns3:hr>112</ns3:hr>
            <ns3:cad>82</ns3:cad>
          </ns3:TrackPointExtension>
        </extensions>
      </trkpt>
      <trkpt lat="44.7194873727858066558837890625" lon="6.7362410388886928558349609375">
        <ele>1758</ele>
        <time>2026-09-03T05:25:43.000Z</time>
        <extensions>
          <ns3:TrackPointExtension>
            <ns3:hr>112</ns3:hr>
            <ns3:cad>82</ns3:cad>
          </ns3:TrackPointExtension>
        </extensions>
      </trkpt>
      <trkpt lat="44.7194744646549224853515625" lon="6.73624246381223201751708984375">
        <ele>1757.800048828125</ele>
        <time>2026-09-03T05:25:44.000Z</time>
        <extensions>
          <ns3:TrackPointExtension>
            <ns3:hr>112</ns3:hr>
            <ns3:cad>80</ns3:cad>
          </ns3:TrackPointExtension>
        </extensions>
      </trkpt>
      <trkpt lat="44.719463400542736053466796875" lon="6.73624665476381778717041015625">
        <ele>1757.5999755859375</ele>
        <time>2026-09-03T05:25:45.000Z</time>
        <extensions>
          <ns3:TrackPointExtension>
            <ns3:hr>112</ns3:hr>
            <ns3:cad>80</ns3:cad>
          </ns3:TrackPointExtension>
        </extensions>
      </trkpt>
      <trkpt lat="44.7194422781467437744140625" lon="6.7362433858215808868408203125">
        <ele>1757.4000244140625</ele>
        <time>2026-09-03T05:25:46.000Z</time>
        <extensions>
          <ns3:TrackPointExtension>
            <ns3:hr>112</ns3:hr>
            <ns3:cad>80</ns3:cad>
          </ns3:TrackPointExtension>
        </extensions>
      </trkpt>
      <trkpt lat="44.71942325122654438018798828125" lon="6.73624346964061260223388671875">
        <ele>1757.199951171875</ele>
        <time>2026-09-03T05:25:47.000Z</time>
        <extensions>
          <ns3:TrackPointExtension>
            <ns3:hr>113</ns3:hr>
            <ns3:cad>80</ns3:cad>
          </ns3:TrackPointExtension>
        </extensions>
      </trkpt>
      <trkpt lat="44.71940548159182071685791015625" lon="6.7362484149634838104248046875">
        <ele>1757</ele>
        <time>2026-09-03T05:25:48.000Z</time>
        <extensions>
          <ns3:TrackPointExtension>
            <ns3:hr>113</ns3:hr>
            <ns3:cad>80</ns3:cad>
          </ns3:TrackPointExtension>
        </extensions>
      </trkpt>
      <trkpt lat="44.71938704140484333038330078125" lon="6.736250929534435272216796875">
        <ele>1756.800048828125</ele>
        <time>2026-09-03T05:25:49.000Z</time>
        <extensions>
          <ns3:TrackPointExtension>
            <ns3:hr>113</ns3:hr>
            <ns3:cad>80</ns3:cad>
          </ns3:TrackPointExtension>
        </extensions>
      </trkpt>
      <trkpt lat="44.7193619795143604278564453125" lon="6.73626425676047801971435546875">
        <ele>1756.4000244140625</ele>
        <time>2026-09-03T05:25:50.000Z</time>
        <extensions>
          <ns3:TrackPointExtension>
            <ns3:hr>112</ns3:hr>
            <ns3:cad>80</ns3:cad>
          </ns3:TrackPointExtension>
        </extensions>
      </trkpt>
      <trkpt lat="44.7193425334990024566650390625" lon="6.736267022788524627685546875">
        <ele>1756.199951171875</ele>
        <time>2026-09-03T05:25:51.000Z</time>
        <extensions>
          <ns3:TrackPointExtension>
            <ns3:hr>111</ns3:hr>
            <ns3:cad>80</ns3:cad>
          </ns3:TrackPointExtension>
        </extensions>
      </trkpt>
      <trkpt lat="44.719322584569454193115234375" lon="6.73626895062625408172607421875">
        <ele>1755.800048828125</ele>
        <time>2026-09-03T05:25:52.000Z</time>
        <extensions>
          <ns3:TrackPointExtension>
            <ns3:hr>111</ns3:hr>
            <ns3:cad>80</ns3:cad>
          </ns3:TrackPointExtension>
        </extensions>
      </trkpt>
      <trkpt lat="44.71930858679115772247314453125" lon="6.7362700402736663818359375">
        <ele>1755.5999755859375</ele>
        <time>2026-09-03T05:25:53.000Z</time>
        <extensions>
          <ns3:TrackPointExtension>
            <ns3:hr>110</ns3:hr>
            <ns3:cad>83</ns3:cad>
          </ns3:TrackPointExtension>
        </extensions>
      </trkpt>
      <trkpt lat="44.71928712911903858184814453125" lon="6.73626610077917575836181640625">
        <ele>1755.4000244140625</ele>
        <time>2026-09-03T05:25:54.000Z</time>
        <extensions>
          <ns3:TrackPointExtension>
            <ns3:hr>111</ns3:hr>
            <ns3:cad>83</ns3:cad>
          </ns3:TrackPointExtension>
        </extensions>
      </trkpt>
      <trkpt lat="44.71926835365593433380126953125" lon="6.73626392148435115814208984375">
        <ele>1755.199951171875</ele>
        <time>2026-09-03T05:25:55.000Z</time>
        <extensions>
          <ns3:TrackPointExtension>
            <ns3:hr>111</ns3:hr>
            <ns3:cad>83</ns3:cad>
          </ns3:TrackPointExtension>
        </extensions>
      </trkpt>
      <trkpt lat="44.7192503325641155242919921875" lon="6.73626744188368320465087890625">
        <ele>1754.800048828125</ele>
        <time>2026-09-03T05:25:56.000Z</time>
        <extensions>
          <ns3:TrackPointExtension>
            <ns3:hr>112</ns3:hr>
            <ns3:cad>83</ns3:cad>
          </ns3:TrackPointExtension>
        </extensions>
      </trkpt>
      <trkpt lat="44.71923239529132843017578125" lon="6.7362695373594760894775390625">
        <ele>1754.5999755859375</ele>
        <time>2026-09-03T05:25:57.000Z</time>
        <extensions>
          <ns3:TrackPointExtension>
            <ns3:hr>112</ns3:hr>
            <ns3:cad>83</ns3:cad>
          </ns3:TrackPointExtension>
        </extensions>
      </trkpt>
      <trkpt lat="44.71921470947563648223876953125" lon="6.7362695373594760894775390625">
        <ele>1754</ele>
        <time>2026-09-03T05:25:58.000Z</time>
        <extensions>
          <ns3:TrackPointExtension>
            <ns3:hr>112</ns3:hr>
            <ns3:cad>83</ns3:cad>
          </ns3:TrackPointExtension>
        </extensions>
      </trkpt>
      <trkpt lat="44.71919744275510311126708984375" lon="6.736260317265987396240234375">
        <ele>1753.5999755859375</ele>
        <time>2026-09-03T05:25:59.000Z</time>
        <extensions>
          <ns3:TrackPointExtension>
            <ns3:hr>113</ns3:hr>
            <ns3:cad>83</ns3:cad>
          </ns3:TrackPointExtension>
        </extensions>
      </trkpt>
      <trkpt lat="44.719180427491664886474609375" lon="6.73625386320054531097412109375">
        <ele>1753.199951171875</ele>
        <time>2026-09-03T05:26:00.000Z</time>
        <extensions>
          <ns3:TrackPointExtension>
            <ns3:hr>113</ns3:hr>
            <ns3:cad>83</ns3:cad>
          </ns3:TrackPointExtension>
        </extensions>
      </trkpt>
      <trkpt lat="44.71916399896144866943359375" lon="6.73624531365931034088134765625">
        <ele>1753</ele>
        <time>2026-09-03T05:26:01.000Z</time>
        <extensions>
          <ns3:TrackPointExtension>
            <ns3:hr>113</ns3:hr>
            <ns3:cad>82</ns3:cad>
          </ns3:TrackPointExtension>
        </extensions>
      </trkpt>
      <trkpt lat="44.719140194356441497802734375" lon="6.73623584210872650146484375">
        <ele>1752.5999755859375</ele>
        <time>2026-09-03T05:26:02.000Z</time>
        <extensions>
          <ns3:TrackPointExtension>
            <ns3:hr>113</ns3:hr>
            <ns3:cad>84</ns3:cad>
          </ns3:TrackPointExtension>
        </extensions>
      </trkpt>
      <trkpt lat="44.719117395579814910888671875" lon="6.736230812966823577880859375">
        <ele>1752.199951171875</ele>
        <time>2026-09-03T05:26:03.000Z</time>
        <extensions>
          <ns3:TrackPointExtension>
            <ns3:hr>113</ns3:hr>
            <ns3:cad>84</ns3:cad>
          </ns3:TrackPointExtension>
        </extensions>
      </trkpt>
      <trkpt lat="44.719087220728397369384765625" lon="6.736222766339778900146484375">
        <ele>1751.800048828125</ele>
        <time>2026-09-03T05:26:04.000Z</time>
        <extensions>
          <ns3:TrackPointExtension>
            <ns3:hr>114</ns3:hr>
            <ns3:cad>85</ns3:cad>
          </ns3:TrackPointExtension>
        </extensions>
      </trkpt>
      <trkpt lat="44.7190640866756439208984375" lon="6.7362122051417827606201171875">
        <ele>1751.5999755859375</ele>
        <time>2026-09-03T05:26:05.000Z</time>
        <extensions>
          <ns3:TrackPointExtension>
            <ns3:hr>113</ns3:hr>
            <ns3:cad>85</ns3:cad>
          </ns3:TrackPointExtension>
        </extensions>
      </trkpt>
      <trkpt lat="44.719046652317047119140625" lon="6.73620156012475490570068359375">
        <ele>1751.199951171875</ele>
        <time>2026-09-03T05:26:06.000Z</time>
        <extensions>
          <ns3:TrackPointExtension>
            <ns3:hr>113</ns3:hr>
            <ns3:cad>85</ns3:cad>
          </ns3:TrackPointExtension>
        </extensions>
      </trkpt>
      <trkpt lat="44.71902393735945224761962890625" lon="6.7361823655664920806884765625">
        <ele>1750.800048828125</ele>
        <time>2026-09-03T05:26:07.000Z</time>
        <extensions>
          <ns3:TrackPointExtension>
            <ns3:hr>113</ns3:hr>
            <ns3:cad>85</ns3:cad>
          </ns3:TrackPointExtension>
        </extensions>
      </trkpt>
      <trkpt lat="44.71900365315377712249755859375" lon="6.7361786775290966033935546875">
        <ele>1750.5999755859375</ele>
        <time>2026-09-03T05:26:08.000Z</time>
        <extensions>
          <ns3:TrackPointExtension>
            <ns3:hr>113</ns3:hr>
            <ns3:cad>84</ns3:cad>
          </ns3:TrackPointExtension>
        </extensions>
      </trkpt>
      <trkpt lat="44.71897624433040618896484375" lon="6.736167781054973602294921875">
        <ele>1750.199951171875</ele>
        <time>2026-09-03T05:26:09.000Z</time>
        <extensions>
          <ns3:TrackPointExtension>
            <ns3:hr>113</ns3:hr>
            <ns3:cad>84</ns3:cad>
          </ns3:TrackPointExtension>
        </extensions>
      </trkpt>
      <trkpt lat="44.7189509309828281402587890625" lon="6.736158393323421478271484375">
        <ele>1750</ele>
        <time>2026-09-03T05:26:10.000Z</time>
        <extensions>
          <ns3:TrackPointExtension>
            <ns3:hr>113</ns3:hr>
            <ns3:cad>83</ns3:cad>
          </ns3:TrackPointExtension>
        </extensions>
      </trkpt>
      <trkpt lat="44.7189331613481044769287109375" lon="6.736157052218914031982421875">
        <ele>1749.5999755859375</ele>
        <time>2026-09-03T05:26:11.000Z</time>
        <extensions>
          <ns3:TrackPointExtension>
            <ns3:hr>114</ns3:hr>
            <ns3:cad>83</ns3:cad>
          </ns3:TrackPointExtension>
        </extensions>
      </trkpt>
      <trkpt lat="44.71891262568533420562744140625" lon="6.7361538670957088470458984375">
        <ele>1749.4000244140625</ele>
        <time>2026-09-03T05:26:12.000Z</time>
        <extensions>
          <ns3:TrackPointExtension>
            <ns3:hr>114</ns3:hr>
            <ns3:cad>83</ns3:cad>
          </ns3:TrackPointExtension>
        </extensions>
      </trkpt>
      <trkpt lat="44.71889301203191280364990234375" lon="6.73615495674312114715576171875">
        <ele>1749</ele>
        <time>2026-09-03T05:26:13.000Z</time>
        <extensions>
          <ns3:TrackPointExtension>
            <ns3:hr>114</ns3:hr>
            <ns3:cad>84</ns3:cad>
          </ns3:TrackPointExtension>
        </extensions>
      </trkpt>
      <trkpt lat="44.71887708641588687896728515625" lon="6.736149005591869354248046875">
        <ele>1748.800048828125</ele>
        <time>2026-09-03T05:26:14.000Z</time>
        <extensions>
          <ns3:TrackPointExtension>
            <ns3:hr>115</ns3:hr>
            <ns3:cad>84</ns3:cad>
          </ns3:TrackPointExtension>
        </extensions>
      </trkpt>
      <trkpt lat="44.71886065788567066192626953125" lon="6.73614053986966609954833984375">
        <ele>1748.4000244140625</ele>
        <time>2026-09-03T05:26:15.000Z</time>
        <extensions>
          <ns3:TrackPointExtension>
            <ns3:hr>115</ns3:hr>
            <ns3:cad>83</ns3:cad>
          </ns3:TrackPointExtension>
        </extensions>
      </trkpt>
      <trkpt lat="44.71884121187031269073486328125" lon="6.73612629063427448272705078125">
        <ele>1748.199951171875</ele>
        <time>2026-09-03T05:26:16.000Z</time>
        <extensions>
          <ns3:TrackPointExtension>
            <ns3:hr>115</ns3:hr>
            <ns3:cad>83</ns3:cad>
          </ns3:TrackPointExtension>
        </extensions>
      </trkpt>
      <trkpt lat="44.7188215143978595733642578125" lon="6.7361064255237579345703125">
        <ele>1747.800048828125</ele>
        <time>2026-09-03T05:26:17.000Z</time>
        <extensions>
          <ns3:TrackPointExtension>
            <ns3:hr>116</ns3:hr>
            <ns3:cad>83</ns3:cad>
          </ns3:TrackPointExtension>
        </extensions>
      </trkpt>
      <trkpt lat="44.71880131401121616363525390625" lon="6.7361010611057281494140625">
        <ele>1747.4000244140625</ele>
        <time>2026-09-03T05:26:18.000Z</time>
        <extensions>
          <ns3:TrackPointExtension>
            <ns3:hr>116</ns3:hr>
            <ns3:cad>84</ns3:cad>
          </ns3:TrackPointExtension>
        </extensions>
      </trkpt>
      <trkpt lat="44.7187682054936885833740234375" lon="6.73609209246933460235595703125">
        <ele>1747</ele>
        <time>2026-09-03T05:26:19.000Z</time>
        <extensions>
          <ns3:TrackPointExtension>
            <ns3:hr>116</ns3:hr>
            <ns3:cad>84</ns3:cad>
          </ns3:TrackPointExtension>
        </extensions>
      </trkpt>
      <trkpt lat="44.718747921288013458251953125" lon="6.73608588986098766326904296875">
        <ele>1746.800048828125</ele>
        <time>2026-09-03T05:26:20.000Z</time>
        <extensions>
          <ns3:TrackPointExtension>
            <ns3:hr>116</ns3:hr>
            <ns3:cad>85</ns3:cad>
          </ns3:TrackPointExtension>
        </extensions>
      </trkpt>
      <trkpt lat="44.7187212668359279632568359375" lon="6.7360737361013889312744140625">
        <ele>1746.5999755859375</ele>
        <time>2026-09-03T05:26:21.000Z</time>
        <extensions>
          <ns3:TrackPointExtension>
            <ns3:hr>117</ns3:hr>
            <ns3:cad>86</ns3:cad>
          </ns3:TrackPointExtension>
        </extensions>
      </trkpt>
      <trkpt lat="44.71870190463960170745849609375" lon="6.7360556311905384063720703125">
        <ele>1746.4000244140625</ele>
        <time>2026-09-03T05:26:22.000Z</time>
        <extensions>
          <ns3:TrackPointExtension>
            <ns3:hr>117</ns3:hr>
            <ns3:cad>86</ns3:cad>
          </ns3:TrackPointExtension>
        </extensions>
      </trkpt>
      <trkpt lat="44.718676842749118804931640625" lon="6.736052446067333221435546875">
        <ele>1746</ele>
        <time>2026-09-03T05:26:23.000Z</time>
        <extensions>
          <ns3:TrackPointExtension>
            <ns3:hr>118</ns3:hr>
            <ns3:cad>86</ns3:cad>
          </ns3:TrackPointExtension>
        </extensions>
      </trkpt>
      <trkpt lat="44.718654714524745941162109375" lon="6.73604540526866912841796875">
        <ele>1745.800048828125</ele>
        <time>2026-09-03T05:26:24.000Z</time>
        <extensions>
          <ns3:TrackPointExtension>
            <ns3:hr>118</ns3:hr>
            <ns3:cad>84</ns3:cad>
          </ns3:TrackPointExtension>
        </extensions>
      </trkpt>
      <trkpt lat="44.71863434650003910064697265625" lon="6.73603476025164127349853515625">
        <ele>1745.5999755859375</ele>
        <time>2026-09-03T05:26:25.000Z</time>
        <extensions>
          <ns3:TrackPointExtension>
            <ns3:hr>119</ns3:hr>
            <ns3:cad>84</ns3:cad>
          </ns3:TrackPointExtension>
        </extensions>
      </trkpt>
      <trkpt lat="44.71861188299953937530517578125" lon="6.73602201975882053375244140625">
        <ele>1745.4000244140625</ele>
        <time>2026-09-03T05:26:26.000Z</time>
        <extensions>
          <ns3:TrackPointExtension>
            <ns3:hr>119</ns3:hr>
            <ns3:cad>84</ns3:cad>
          </ns3:TrackPointExtension>
        </extensions>
      </trkpt>
      <trkpt lat="44.71859109587967395782470703125" lon="6.73601095564663410186767578125">
        <ele>1745.199951171875</ele>
        <time>2026-09-03T05:26:27.000Z</time>
        <extensions>
          <ns3:TrackPointExtension>
            <ns3:hr>120</ns3:hr>
            <ns3:cad>84</ns3:cad>
          </ns3:TrackPointExtension>
        </extensions>
      </trkpt>
      <trkpt lat="44.7185757569968700408935546875" lon="6.7360043339431285858154296875">
        <ele>1745</ele>
        <time>2026-09-03T05:26:28.000Z</time>
        <extensions>
          <ns3:TrackPointExtension>
            <ns3:hr>120</ns3:hr>
            <ns3:cad>83</ns3:cad>
          </ns3:TrackPointExtension>
        </extensions>
      </trkpt>
      <trkpt lat="44.7185522876679897308349609375" lon="6.73599653877317905426025390625">
        <ele>1744.800048828125</ele>
        <time>2026-09-03T05:26:29.000Z</time>
        <extensions>
          <ns3:TrackPointExtension>
            <ns3:hr>120</ns3:hr>
            <ns3:cad>83</ns3:cad>
          </ns3:TrackPointExtension>
        </extensions>
      </trkpt>
      <trkpt lat="44.718537367880344390869140625" lon="6.73600223846733570098876953125">
        <ele>1744.5999755859375</ele>
        <time>2026-09-03T05:26:30.000Z</time>
        <extensions>
          <ns3:TrackPointExtension>
            <ns3:hr>121</ns3:hr>
            <ns3:cad>83</ns3:cad>
          </ns3:TrackPointExtension>
        </extensions>
      </trkpt>
      <trkpt lat="44.71851297654211521148681640625" lon="6.73599419184029102325439453125">
        <ele>1744.4000244140625</ele>
        <time>2026-09-03T05:26:31.000Z</time>
        <extensions>
          <ns3:TrackPointExtension>
            <ns3:hr>121</ns3:hr>
            <ns3:cad>84</ns3:cad>
          </ns3:TrackPointExtension>
        </extensions>
      </trkpt>
      <trkpt lat="44.71849168650805950164794921875" lon="6.73598078079521656036376953125">
        <ele>1744.4000244140625</ele>
        <time>2026-09-03T05:26:32.000Z</time>
        <extensions>
          <ns3:TrackPointExtension>
            <ns3:hr>121</ns3:hr>
            <ns3:cad>84</ns3:cad>
          </ns3:TrackPointExtension>
        </extensions>
      </trkpt>
      <trkpt lat="44.71847039647400379180908203125" lon="6.73596753738820552825927734375">
        <ele>1744.199951171875</ele>
        <time>2026-09-03T05:26:33.000Z</time>
        <extensions>
          <ns3:TrackPointExtension>
            <ns3:hr>121</ns3:hr>
            <ns3:cad>84</ns3:cad>
          </ns3:TrackPointExtension>
        </extensions>
      </trkpt>
      <trkpt lat="44.71843720413744449615478515625" lon="6.7359483428299427032470703125">
        <ele>1744</ele>
        <time>2026-09-03T05:26:34.000Z</time>
        <extensions>
          <ns3:TrackPointExtension>
            <ns3:hr>122</ns3:hr>
            <ns3:cad>84</ns3:cad>
          </ns3:TrackPointExtension>
        </extensions>
      </trkpt>
      <trkpt lat="44.718415997922420501708984375" lon="6.73593719489872455596923828125">
        <ele>1743.800048828125</ele>
        <time>2026-09-03T05:26:35.000Z</time>
        <extensions>
          <ns3:TrackPointExtension>
            <ns3:hr>122</ns3:hr>
            <ns3:cad>84</ns3:cad>
          </ns3:TrackPointExtension>
        </extensions>
      </trkpt>
      <trkpt lat="44.718392528593540191650390625" lon="6.73591858707368373870849609375">
        <ele>1743.5999755859375</ele>
        <time>2026-09-03T05:26:36.000Z</time>
        <extensions>
          <ns3:TrackPointExtension>
            <ns3:hr>122</ns3:hr>
            <ns3:cad>84</ns3:cad>
          </ns3:TrackPointExtension>
        </extensions>
      </trkpt>
      <trkpt lat="44.71837408840656280517578125" lon="6.73590316437184810638427734375">
        <ele>1743.4000244140625</ele>
        <time>2026-09-03T05:26:37.000Z</time>
        <extensions>
          <ns3:TrackPointExtension>
            <ns3:hr>122</ns3:hr>
            <ns3:cad>84</ns3:cad>
          </ns3:TrackPointExtension>
        </extensions>
      </trkpt>
      <trkpt lat="44.71835958771407604217529296875" lon="6.73588891513645648956298828125">
        <ele>1743.4000244140625</ele>
        <time>2026-09-03T05:26:38.000Z</time>
        <extensions>
          <ns3:TrackPointExtension>
            <ns3:hr>123</ns3:hr>
            <ns3:cad>84</ns3:cad>
          </ns3:TrackPointExtension>
        </extensions>
      </trkpt>
      <trkpt lat="44.718344248831272125244140625" lon="6.73587776720523834228515625">
        <ele>1743.199951171875</ele>
        <time>2026-09-03T05:26:39.000Z</time>
        <extensions>
          <ns3:TrackPointExtension>
            <ns3:hr>124</ns3:hr>
            <ns3:cad>84</ns3:cad>
          </ns3:TrackPointExtension>
        </extensions>
      </trkpt>
      <trkpt lat="44.71832706592977046966552734375" lon="6.73586343415081501007080078125">
        <ele>1743</ele>
        <time>2026-09-03T05:26:40.000Z</time>
        <extensions>
          <ns3:TrackPointExtension>
            <ns3:hr>124</ns3:hr>
            <ns3:cad>84</ns3:cad>
          </ns3:TrackPointExtension>
        </extensions>
      </trkpt>
      <trkpt lat="44.718311391770839691162109375" lon="6.73584801144897937774658203125">
        <ele>1742.800048828125</ele>
        <time>2026-09-03T05:26:41.000Z</time>
        <extensions>
          <ns3:TrackPointExtension>
            <ns3:hr>124</ns3:hr>
            <ns3:cad>84</ns3:cad>
          </ns3:TrackPointExtension>
        </extensions>
      </trkpt>
      <trkpt lat="44.71829689107835292816162109375" lon="6.73583208583295345306396484375">
        <ele>1742.5999755859375</ele>
        <time>2026-09-03T05:26:42.000Z</time>
        <extensions>
          <ns3:TrackPointExtension>
            <ns3:hr>124</ns3:hr>
            <ns3:cad>84</ns3:cad>
          </ns3:TrackPointExtension>
        </extensions>
      </trkpt>
      <trkpt lat="44.7182807140052318572998046875" lon="6.7358194291591644287109375">
        <ele>1742.4000244140625</ele>
        <time>2026-09-03T05:26:43.000Z</time>
        <extensions>
          <ns3:TrackPointExtension>
            <ns3:hr>125</ns3:hr>
            <ns3:cad>84</ns3:cad>
          </ns3:TrackPointExtension>
        </extensions>
      </trkpt>
      <trkpt lat="44.7182649560272693634033203125" lon="6.7358014918863773345947265625">
        <ele>1742.199951171875</ele>
        <time>2026-09-03T05:26:44.000Z</time>
        <extensions>
          <ns3:TrackPointExtension>
            <ns3:hr>125</ns3:hr>
            <ns3:cad>84</ns3:cad>
          </ns3:TrackPointExtension>
        </extensions>
      </trkpt>
      <trkpt lat="44.7182532213628292083740234375" lon="6.7357904277741909027099609375">
        <ele>1741.800048828125</ele>
        <time>2026-09-03T05:26:45.000Z</time>
        <extensions>
          <ns3:TrackPointExtension>
            <ns3:hr>125</ns3:hr>
            <ns3:cad>84</ns3:cad>
          </ns3:TrackPointExtension>
        </extensions>
      </trkpt>
      <trkpt lat="44.71823469735682010650634765625" lon="6.73577676527202129364013671875">
        <ele>1741.5999755859375</ele>
        <time>2026-09-03T05:26:46.000Z</time>
        <extensions>
          <ns3:TrackPointExtension>
            <ns3:hr>125</ns3:hr>
            <ns3:cad>84</ns3:cad>
          </ns3:TrackPointExtension>
        </extensions>
      </trkpt>
      <trkpt lat="44.7182206995785236358642578125" lon="6.73575681634247303009033203125">
        <ele>1741.4000244140625</ele>
        <time>2026-09-03T05:26:47.000Z</time>
        <extensions>
          <ns3:TrackPointExtension>
            <ns3:hr>125</ns3:hr>
            <ns3:cad>83</ns3:cad>
          </ns3:TrackPointExtension>
        </extensions>
      </trkpt>
      <trkpt lat="44.7182049416005611419677734375" lon="6.73573384992778301239013671875">
        <ele>1741</ele>
        <time>2026-09-03T05:26:48.000Z</time>
        <extensions>
          <ns3:TrackPointExtension>
            <ns3:hr>126</ns3:hr>
            <ns3:cad>84</ns3:cad>
          </ns3:TrackPointExtension>
        </extensions>
      </trkpt>
      <trkpt lat="44.71819044090807437896728515625" lon="6.73570702783763408660888671875">
        <ele>1740.800048828125</ele>
        <time>2026-09-03T05:26:49.000Z</time>
        <extensions>
          <ns3:TrackPointExtension>
            <ns3:hr>126</ns3:hr>
            <ns3:cad>84</ns3:cad>
          </ns3:TrackPointExtension>
        </extensions>
      </trkpt>
      <trkpt lat="44.71817954443395137786865234375" lon="6.735687665641307830810546875">
        <ele>1740.5999755859375</ele>
        <time>2026-09-03T05:26:50.000Z</time>
        <extensions>
          <ns3:TrackPointExtension>
            <ns3:hr>126</ns3:hr>
            <ns3:cad>84</ns3:cad>
          </ns3:TrackPointExtension>
        </extensions>
      </trkpt>
      <trkpt lat="44.718161858618259429931640625" lon="6.7356690578162670135498046875">
        <ele>1740.199951171875</ele>
        <time>2026-09-03T05:26:51.000Z</time>
        <extensions>
          <ns3:TrackPointExtension>
            <ns3:hr>126</ns3:hr>
            <ns3:cad>84</ns3:cad>
          </ns3:TrackPointExtension>
        </extensions>
      </trkpt>
      <trkpt lat="44.71814987249672412872314453125" lon="6.73565723933279514312744140625">
        <ele>1740</ele>
        <time>2026-09-03T05:26:52.000Z</time>
        <extensions>
          <ns3:TrackPointExtension>
            <ns3:hr>125</ns3:hr>
            <ns3:cad>84</ns3:cad>
          </ns3:TrackPointExtension>
        </extensions>
      </trkpt>
      <trkpt lat="44.71813797019422054290771484375" lon="6.73565648496150970458984375">
        <ele>1739.800048828125</ele>
        <time>2026-09-03T05:26:53.000Z</time>
        <extensions>
          <ns3:TrackPointExtension>
            <ns3:hr>126</ns3:hr>
            <ns3:cad>85</ns3:cad>
          </ns3:TrackPointExtension>
        </extensions>
      </trkpt>
      <trkpt lat="44.71813025884330272674560546875" lon="6.7356445826590061187744140625">
        <ele>1739.4000244140625</ele>
        <time>2026-09-03T05:26:54.000Z</time>
        <extensions>
          <ns3:TrackPointExtension>
            <ns3:hr>126</ns3:hr>
            <ns3:cad>85</ns3:cad>
          </ns3:TrackPointExtension>
        </extensions>
      </trkpt>
      <trkpt lat="44.71812254749238491058349609375" lon="6.73563108779489994049072265625">
        <ele>1739.199951171875</ele>
        <time>2026-09-03T05:26:55.000Z</time>
        <extensions>
          <ns3:TrackPointExtension>
            <ns3:hr>126</ns3:hr>
            <ns3:cad>85</ns3:cad>
          </ns3:TrackPointExtension>
        </extensions>
      </trkpt>
      <trkpt lat="44.71810452640056610107421875" lon="6.735605187714099884033203125">
        <ele>1739</ele>
        <time>2026-09-03T05:26:56.000Z</time>
        <extensions>
          <ns3:TrackPointExtension>
            <ns3:hr>125</ns3:hr>
            <ns3:cad>85</ns3:cad>
          </ns3:TrackPointExtension>
        </extensions>
      </trkpt>
      <trkpt lat="44.7180922888219356536865234375" lon="6.7355889268219470977783203125">
        <ele>1738.5999755859375</ele>
        <time>2026-09-03T05:26:57.000Z</time>
        <extensions>
          <ns3:TrackPointExtension>
            <ns3:hr>126</ns3:hr>
            <ns3:cad>0</ns3:cad>
          </ns3:TrackPointExtension>
        </extensions>
      </trkpt>
      <trkpt lat="44.7180859185755252838134765625" lon="6.73557828180491924285888671875">
        <ele>1738.4000244140625</ele>
        <time>2026-09-03T05:26:58.000Z</time>
        <extensions>
          <ns3:TrackPointExtension>
            <ns3:hr>125</ns3:hr>
            <ns3:cad>0</ns3:cad>
          </ns3:TrackPointExtension>
        </extensions>
      </trkpt>
      <trkpt lat="44.7180770337581634521484375" lon="6.73555179499089717864990234375">
        <ele>1738</ele>
        <time>2026-09-03T05:26:59.000Z</time>
        <extensions>
          <ns3:TrackPointExtension>
            <ns3:hr>125</ns3:hr>
            <ns3:cad>83</ns3:cad>
          </ns3:TrackPointExtension>
        </extensions>
      </trkpt>
      <trkpt lat="44.7180674783885478973388671875" lon="6.735522039234638214111328125">
        <ele>1737.4000244140625</ele>
        <time>2026-09-03T05:27:00.000Z</time>
        <extensions>
          <ns3:TrackPointExtension>
            <ns3:hr>125</ns3:hr>
            <ns3:cad>83</ns3:cad>
          </ns3:TrackPointExtension>
        </extensions>
      </trkpt>
      <trkpt lat="44.7180560790002346038818359375" lon="6.735495887696743011474609375">
        <ele>1737</ele>
        <time>2026-09-03T05:27:01.000Z</time>
        <extensions>
          <ns3:TrackPointExtension>
            <ns3:hr>126</ns3:hr>
            <ns3:cad>81</ns3:cad>
          </ns3:TrackPointExtension>
        </extensions>
      </trkpt>
      <trkpt lat="44.718040488660335540771484375" lon="6.73546596430242061614990234375">
        <ele>1736.800048828125</ele>
        <time>2026-09-03T05:27:02.000Z</time>
        <extensions>
          <ns3:TrackPointExtension>
            <ns3:hr>125</ns3:hr>
            <ns3:cad>80</ns3:cad>
          </ns3:TrackPointExtension>
        </extensions>
      </trkpt>
      <trkpt lat="44.718030430376529693603515625" lon="6.7354504577815532684326171875">
        <ele>1736.4000244140625</ele>
        <time>2026-09-03T05:27:03.000Z</time>
        <extensions>
          <ns3:TrackPointExtension>
            <ns3:hr>125</ns3:hr>
            <ns3:cad>80</ns3:cad>
          </ns3:TrackPointExtension>
        </extensions>
      </trkpt>
      <trkpt lat="44.71801861189305782318115234375" lon="6.73542254604399204254150390625">
        <ele>1736</ele>
        <time>2026-09-03T05:27:04.000Z</time>
        <extensions>
          <ns3:TrackPointExtension>
            <ns3:hr>125</ns3:hr>
            <ns3:cad>80</ns3:cad>
          </ns3:TrackPointExtension>
        </extensions>
      </trkpt>
      <trkpt lat="44.71802003681659698486328125" lon="6.7353880964219570159912109375">
        <ele>1735.800048828125</ele>
        <time>2026-09-03T05:27:05.000Z</time>
        <extensions>
          <ns3:TrackPointExtension>
            <ns3:hr>126</ns3:hr>
            <ns3:cad>80</ns3:cad>
          </ns3:TrackPointExtension>
        </extensions>
      </trkpt>
      <trkpt lat="44.718017689883708953857421875" lon="6.73536420799791812896728515625">
        <ele>1735.5999755859375</ele>
        <time>2026-09-03T05:27:06.000Z</time>
        <extensions>
          <ns3:TrackPointExtension>
            <ns3:hr>126</ns3:hr>
            <ns3:cad>81</ns3:cad>
          </ns3:TrackPointExtension>
        </extensions>
      </trkpt>
      <trkpt lat="44.7180126607418060302734375" lon="6.73534560017287731170654296875">
        <ele>1735.4000244140625</ele>
        <time>2026-09-03T05:27:07.000Z</time>
        <extensions>
          <ns3:TrackPointExtension>
            <ns3:hr>126</ns3:hr>
            <ns3:cad>81</ns3:cad>
          </ns3:TrackPointExtension>
        </extensions>
      </trkpt>
      <trkpt lat="44.71800796687602996826171875" lon="6.7353394813835620880126953125">
        <ele>1735</ele>
        <time>2026-09-03T05:27:08.000Z</time>
        <extensions>
          <ns3:TrackPointExtension>
            <ns3:hr>126</ns3:hr>
            <ns3:cad>81</ns3:cad>
          </ns3:TrackPointExtension>
        </extensions>
      </trkpt>
      <trkpt lat="44.71799732185900211334228515625" lon="6.73532481305301189422607421875">
        <ele>1734.800048828125</ele>
        <time>2026-09-03T05:27:09.000Z</time>
        <extensions>
          <ns3:TrackPointExtension>
            <ns3:hr>125</ns3:hr>
            <ns3:cad>81</ns3:cad>
          </ns3:TrackPointExtension>
        </extensions>
      </trkpt>
      <trkpt lat="44.71799455583095550537109375" lon="6.73530586995184421539306640625">
        <ele>1734.4000244140625</ele>
        <time>2026-09-03T05:27:10.000Z</time>
        <extensions>
          <ns3:TrackPointExtension>
            <ns3:hr>126</ns3:hr>
            <ns3:cad>81</ns3:cad>
          </ns3:TrackPointExtension>
        </extensions>
      </trkpt>
      <trkpt lat="44.7179896943271160125732421875" lon="6.735288687050342559814453125">
        <ele>1734</ele>
        <time>2026-09-03T05:27:11.000Z</time>
        <extensions>
          <ns3:TrackPointExtension>
            <ns3:hr>125</ns3:hr>
            <ns3:cad>81</ns3:cad>
          </ns3:TrackPointExtension>
        </extensions>
      </trkpt>
      <trkpt lat="44.7179829888045787811279296875" lon="6.7352804727852344512939453125">
        <ele>1733.800048828125</ele>
        <time>2026-09-03T05:27:12.000Z</time>
        <extensions>
          <ns3:TrackPointExtension>
            <ns3:hr>125</ns3:hr>
            <ns3:cad>81</ns3:cad>
          </ns3:TrackPointExtension>
        </extensions>
      </trkpt>
      <trkpt lat="44.71796966157853603363037109375" lon="6.73527158796787261962890625">
        <ele>1733.4000244140625</ele>
        <time>2026-09-03T05:27:13.000Z</time>
        <extensions>
          <ns3:TrackPointExtension>
            <ns3:hr>125</ns3:hr>
            <ns3:cad>81</ns3:cad>
          </ns3:TrackPointExtension>
        </extensions>
      </trkpt>
      <trkpt lat="44.7179648838937282562255859375" lon="6.73526815138757228851318359375">
        <ele>1733</ele>
        <time>2026-09-03T05:27:14.000Z</time>
        <extensions>
          <ns3:TrackPointExtension>
            <ns3:hr>124</ns3:hr>
            <ns3:cad>81</ns3:cad>
          </ns3:TrackPointExtension>
        </extensions>
      </trkpt>
      <trkpt lat="44.71795675344765186309814453125" lon="6.73525457270443439483642578125">
        <ele>1732.5999755859375</ele>
        <time>2026-09-03T05:27:15.000Z</time>
        <extensions>
          <ns3:TrackPointExtension>
            <ns3:hr>124</ns3:hr>
            <ns3:cad>81</ns3:cad>
          </ns3:TrackPointExtension>
        </extensions>
      </trkpt>
      <trkpt lat="44.7179508022964000701904296875" lon="6.73525205813348293304443359375">
        <ele>1732.199951171875</ele>
        <time>2026-09-03T05:27:16.000Z</time>
        <extensions>
          <ns3:TrackPointExtension>
            <ns3:hr>124</ns3:hr>
            <ns3:cad>81</ns3:cad>
          </ns3:TrackPointExtension>
        </extensions>
      </trkpt>
      <trkpt lat="44.71794736571609973907470703125" lon="6.73523311503231525421142578125">
        <ele>1732</ele>
        <time>2026-09-03T05:27:17.000Z</time>
        <extensions>
          <ns3:TrackPointExtension>
            <ns3:hr>124</ns3:hr>
            <ns3:cad>81</ns3:cad>
          </ns3:TrackPointExtension>
        </extensions>
      </trkpt>
      <trkpt lat="44.7179397381842136383056640625" lon="6.73520394600927829742431640625">
        <ele>1731.5999755859375</ele>
        <time>2026-09-03T05:27:18.000Z</time>
        <extensions>
          <ns3:TrackPointExtension>
            <ns3:hr>124</ns3:hr>
            <ns3:cad>81</ns3:cad>
          </ns3:TrackPointExtension>
        </extensions>
      </trkpt>
      <trkpt lat="44.7179387323558330535888671875" lon="6.73518232069909572601318359375">
        <ele>1731.199951171875</ele>
        <time>2026-09-03T05:27:19.000Z</time>
        <extensions>
          <ns3:TrackPointExtension>
            <ns3:hr>124</ns3:hr>
            <ns3:cad>81</ns3:cad>
          </ns3:TrackPointExtension>
        </extensions>
      </trkpt>
      <trkpt lat="44.7179347090423107147216796875" lon="6.7351614497601985931396484375">
        <ele>1731</ele>
        <time>2026-09-03T05:27:20.000Z</time>
        <extensions>
          <ns3:TrackPointExtension>
            <ns3:hr>123</ns3:hr>
            <ns3:cad>81</ns3:cad>
          </ns3:TrackPointExtension>
        </extensions>
      </trkpt>
      <trkpt lat="44.717931188642978668212890625" lon="6.7351436801254749298095703125">
        <ele>1730.800048828125</ele>
        <time>2026-09-03T05:27:21.000Z</time>
        <extensions>
          <ns3:TrackPointExtension>
            <ns3:hr>123</ns3:hr>
            <ns3:cad>81</ns3:cad>
          </ns3:TrackPointExtension>
        </extensions>
      </trkpt>
      <trkpt lat="44.717925488948822021484375" lon="6.73513404093682765960693359375">
        <ele>1730.4000244140625</ele>
        <time>2026-09-03T05:27:22.000Z</time>
        <extensions>
          <ns3:TrackPointExtension>
            <ns3:hr>123</ns3:hr>
            <ns3:cad>81</ns3:cad>
          </ns3:TrackPointExtension>
        </extensions>
      </trkpt>
      <trkpt lat="44.71791920252144336700439453125" lon="6.73511476255953311920166015625">
        <ele>1730.199951171875</ele>
        <time>2026-09-03T05:27:23.000Z</time>
        <extensions>
          <ns3:TrackPointExtension>
            <ns3:hr>123</ns3:hr>
            <ns3:cad>71</ns3:cad>
          </ns3:TrackPointExtension>
        </extensions>
      </trkpt>
      <trkpt lat="44.7179112397134304046630859375" lon="6.7350917123258113861083984375">
        <ele>1730</ele>
        <time>2026-09-03T05:27:24.000Z</time>
        <extensions>
          <ns3:TrackPointExtension>
            <ns3:hr>123</ns3:hr>
            <ns3:cad>71</ns3:cad>
          </ns3:TrackPointExtension>
        </extensions>
      </trkpt>
      <trkpt lat="44.71790981478989124298095703125" lon="6.735074110329151153564453125">
        <ele>1729.5999755859375</ele>
        <time>2026-09-03T05:27:25.000Z</time>
        <extensions>
          <ns3:TrackPointExtension>
            <ns3:hr>122</ns3:hr>
            <ns3:cad>71</ns3:cad>
          </ns3:TrackPointExtension>
        </extensions>
      </trkpt>
      <trkpt lat="44.717911072075366973876953125" lon="6.7350642196834087371826171875">
        <ele>1729.4000244140625</ele>
        <time>2026-09-03T05:27:26.000Z</time>
        <extensions>
          <ns3:TrackPointExtension>
            <ns3:hr>122</ns3:hr>
            <ns3:cad>71</ns3:cad>
          </ns3:TrackPointExtension>
        </extensions>
      </trkpt>
      <trkpt lat="44.7179082222282886505126953125" lon="6.73505675978958606719970703125">
        <ele>1729</ele>
        <time>2026-09-03T05:27:27.000Z</time>
        <extensions>
          <ns3:TrackPointExtension>
            <ns3:hr>121</ns3:hr>
            <ns3:cad>71</ns3:cad>
          </ns3:TrackPointExtension>
        </extensions>
      </trkpt>
      <trkpt lat="44.71789824776351451873779296875" lon="6.7350384034216403961181640625">
        <ele>1728.800048828125</ele>
        <time>2026-09-03T05:27:28.000Z</time>
        <extensions>
          <ns3:TrackPointExtension>
            <ns3:hr>120</ns3:hr>
            <ns3:cad>71</ns3:cad>
          </ns3:TrackPointExtension>
        </extensions>
      </trkpt>
      <trkpt lat="44.7178927995264530181884765625" lon="6.7350296862423419952392578125">
        <ele>1728.5999755859375</ele>
        <time>2026-09-03T05:27:29.000Z</time>
        <extensions>
          <ns3:TrackPointExtension>
            <ns3:hr>120</ns3:hr>
            <ns3:cad>71</ns3:cad>
          </ns3:TrackPointExtension>
        </extensions>
      </trkpt>
      <trkpt lat="44.7178850881755352020263671875" lon="6.73501837067306041717529296875">
        <ele>1728.199951171875</ele>
        <time>2026-09-03T05:27:30.000Z</time>
        <extensions>
          <ns3:TrackPointExtension>
            <ns3:hr>119</ns3:hr>
            <ns3:cad>71</ns3:cad>
          </ns3:TrackPointExtension>
        </extensions>
      </trkpt>
      <trkpt lat="44.71787896938621997833251953125" lon="6.7350058816373348236083984375">
        <ele>1728</ele>
        <time>2026-09-03T05:27:31.000Z</time>
        <extensions>
          <ns3:TrackPointExtension>
            <ns3:hr>119</ns3:hr>
            <ns3:cad>71</ns3:cad>
          </ns3:TrackPointExtension>
        </extensions>
      </trkpt>
      <trkpt lat="44.71786874346435070037841796875" lon="6.7349825799465179443359375">
        <ele>1727.5999755859375</ele>
        <time>2026-09-03T05:27:32.000Z</time>
        <extensions>
          <ns3:TrackPointExtension>
            <ns3:hr>118</ns3:hr>
            <ns3:cad>71</ns3:cad>
          </ns3:TrackPointExtension>
        </extensions>
      </trkpt>
      <trkpt lat="44.71785550005733966827392578125" lon="6.7349664866924285888671875">
        <ele>1727.199951171875</ele>
        <time>2026-09-03T05:27:33.000Z</time>
        <extensions>
          <ns3:TrackPointExtension>
            <ns3:hr>118</ns3:hr>
            <ns3:cad>71</ns3:cad>
          </ns3:TrackPointExtension>
        </extensions>
      </trkpt>
      <trkpt lat="44.71784711815416812896728515625" lon="6.734951399266719818115234375">
        <ele>1726.800048828125</ele>
        <time>2026-09-03T05:27:34.000Z</time>
        <extensions>
          <ns3:TrackPointExtension>
            <ns3:hr>117</ns3:hr>
            <ns3:cad>71</ns3:cad>
          </ns3:TrackPointExtension>
        </extensions>
      </trkpt>
      <trkpt lat="44.7178356349468231201171875" lon="6.7349183745682239532470703125">
        <ele>1726.5999755859375</ele>
        <time>2026-09-03T05:27:35.000Z</time>
        <extensions>
          <ns3:TrackPointExtension>
            <ns3:hr>116</ns3:hr>
            <ns3:cad>73</ns3:cad>
          </ns3:TrackPointExtension>
        </extensions>
      </trkpt>
      <trkpt lat="44.71782750450074672698974609375" lon="6.734891720116138458251953125">
        <ele>1726.199951171875</ele>
        <time>2026-09-03T05:27:36.000Z</time>
        <extensions>
          <ns3:TrackPointExtension>
            <ns3:hr>116</ns3:hr>
            <ns3:cad>73</ns3:cad>
          </ns3:TrackPointExtension>
        </extensions>
      </trkpt>
      <trkpt lat="44.7178114950656890869140625" lon="6.7348643951117992401123046875">
        <ele>1725.800048828125</ele>
        <time>2026-09-03T05:27:37.000Z</time>
        <extensions>
          <ns3:TrackPointExtension>
            <ns3:hr>115</ns3:hr>
            <ns3:cad>73</ns3:cad>
          </ns3:TrackPointExtension>
        </extensions>
      </trkpt>
      <trkpt lat="44.71779095940291881561279296875" lon="6.7348348908126354217529296875">
        <ele>1725.4000244140625</ele>
        <time>2026-09-03T05:27:38.000Z</time>
        <extensions>
          <ns3:TrackPointExtension>
            <ns3:hr>115</ns3:hr>
            <ns3:cad>82</ns3:cad>
          </ns3:TrackPointExtension>
        </extensions>
      </trkpt>
      <trkpt lat="44.71778668463230133056640625" lon="6.734818629920482635498046875">
        <ele>1725.199951171875</ele>
        <time>2026-09-03T05:27:39.000Z</time>
        <extensions>
          <ns3:TrackPointExtension>
            <ns3:hr>115</ns3:hr>
            <ns3:cad>83</ns3:cad>
          </ns3:TrackPointExtension>
        </extensions>
      </trkpt>
      <trkpt lat="44.71777486614882946014404296875" lon="6.73480463214218616485595703125">
        <ele>1725</ele>
        <time>2026-09-03T05:27:40.000Z</time>
        <extensions>
          <ns3:TrackPointExtension>
            <ns3:hr>115</ns3:hr>
            <ns3:cad>83</ns3:cad>
          </ns3:TrackPointExtension>
        </extensions>
      </trkpt>
      <trkpt lat="44.71777402795851230621337890625" lon="6.73479926772415637969970703125">
        <ele>1724.800048828125</ele>
        <time>2026-09-03T05:27:41.000Z</time>
        <extensions>
          <ns3:TrackPointExtension>
            <ns3:hr>114</ns3:hr>
            <ns3:cad>83</ns3:cad>
          </ns3:TrackPointExtension>
        </extensions>
      </trkpt>
      <trkpt lat="44.7177667357027530670166015625" lon="6.7347921431064605712890625">
        <ele>1724.5999755859375</ele>
        <time>2026-09-03T05:27:42.000Z</time>
        <extensions>
          <ns3:TrackPointExtension>
            <ns3:hr>114</ns3:hr>
            <ns3:cad>0</ns3:cad>
          </ns3:TrackPointExtension>
        </extensions>
      </trkpt>
      <trkpt lat="44.717759527266025543212890625" lon="6.734774373471736907958984375">
        <ele>1724.4000244140625</ele>
        <time>2026-09-03T05:27:43.000Z</time>
        <extensions>
          <ns3:TrackPointExtension>
            <ns3:hr>114</ns3:hr>
            <ns3:cad>0</ns3:cad>
          </ns3:TrackPointExtension>
        </extensions>
      </trkpt>
      <trkpt lat="44.7177449427545070648193359375" lon="6.7347587831318378448486328125">
        <ele>1724.199951171875</ele>
        <time>2026-09-03T05:27:44.000Z</time>
        <extensions>
          <ns3:TrackPointExtension>
            <ns3:hr>114</ns3:hr>
            <ns3:cad>0</ns3:cad>
          </ns3:TrackPointExtension>
        </extensions>
      </trkpt>
      <trkpt lat="44.71773195080459117889404296875" lon="6.73474880866706371307373046875">
        <ele>1724</ele>
        <time>2026-09-03T05:27:45.000Z</time>
        <extensions>
          <ns3:TrackPointExtension>
            <ns3:hr>114</ns3:hr>
            <ns3:cad>0</ns3:cad>
          </ns3:TrackPointExtension>
        </extensions>
      </trkpt>
      <trkpt lat="44.71771887503564357757568359375" lon="6.7347363196313381195068359375">
        <ele>1723.5999755859375</ele>
        <time>2026-09-03T05:27:46.000Z</time>
        <extensions>
          <ns3:TrackPointExtension>
            <ns3:hr>114</ns3:hr>
            <ns3:cad>78</ns3:cad>
          </ns3:TrackPointExtension>
        </extensions>
      </trkpt>
      <trkpt lat="44.717715270817279815673828125" lon="6.73471528105437755584716796875">
        <ele>1723.4000244140625</ele>
        <time>2026-09-03T05:27:47.000Z</time>
        <extensions>
          <ns3:TrackPointExtension>
            <ns3:hr>114</ns3:hr>
            <ns3:cad>78</ns3:cad>
          </ns3:TrackPointExtension>
        </extensions>
      </trkpt>
      <trkpt lat="44.717707894742488861083984375" lon="6.7346930690109729766845703125">
        <ele>1723.199951171875</ele>
        <time>2026-09-03T05:27:48.000Z</time>
        <extensions>
          <ns3:TrackPointExtension>
            <ns3:hr>114</ns3:hr>
            <ns3:cad>78</ns3:cad>
          </ns3:TrackPointExtension>
        </extensions>
      </trkpt>
      <trkpt lat="44.71769892610609531402587890625" lon="6.734680831432342529296875">
        <ele>1723</ele>
        <time>2026-09-03T05:27:49.000Z</time>
        <extensions>
          <ns3:TrackPointExtension>
            <ns3:hr>113</ns3:hr>
            <ns3:cad>78</ns3:cad>
          </ns3:TrackPointExtension>
        </extensions>
      </trkpt>
      <trkpt lat="44.7176881134510040283203125" lon="6.7346702702343463897705078125">
        <ele>1722.800048828125</ele>
        <time>2026-09-03T05:27:50.000Z</time>
        <extensions>
          <ns3:TrackPointExtension>
            <ns3:hr>112</ns3:hr>
            <ns3:cad>78</ns3:cad>
          </ns3:TrackPointExtension>
        </extensions>
      </trkpt>
      <trkpt lat="44.71767210401594638824462890625" lon="6.73464068211615085601806640625">
        <ele>1722.4000244140625</ele>
        <time>2026-09-03T05:27:51.000Z</time>
        <extensions>
          <ns3:TrackPointExtension>
            <ns3:hr>112</ns3:hr>
            <ns3:cad>78</ns3:cad>
          </ns3:TrackPointExtension>
        </extensions>
      </trkpt>
      <trkpt lat="44.7176614589989185333251953125" lon="6.73461955972015857696533203125">
        <ele>1722</ele>
        <time>2026-09-03T05:27:52.000Z</time>
        <extensions>
          <ns3:TrackPointExtension>
            <ns3:hr>111</ns3:hr>
            <ns3:cad>0</ns3:cad>
          </ns3:TrackPointExtension>
        </extensions>
      </trkpt>
      <trkpt lat="44.71764846704900264739990234375" lon="6.73460061661899089813232421875">
        <ele>1721.5999755859375</ele>
        <time>2026-09-03T05:27:53.000Z</time>
        <extensions>
          <ns3:TrackPointExtension>
            <ns3:hr>111</ns3:hr>
            <ns3:cad>0</ns3:cad>
          </ns3:TrackPointExtension>
        </extensions>
      </trkpt>
      <trkpt lat="44.7176359780132770538330078125" lon="6.73456239514052867889404296875">
        <ele>1721.199951171875</ele>
        <time>2026-09-03T05:27:54.000Z</time>
        <extensions>
          <ns3:TrackPointExtension>
            <ns3:hr>111</ns3:hr>
            <ns3:cad>80</ns3:cad>
          </ns3:TrackPointExtension>
        </extensions>
      </trkpt>
      <trkpt lat="44.71762667410075664520263671875" lon="6.73454110510647296905517578125">
        <ele>1721</ele>
        <time>2026-09-03T05:27:55.000Z</time>
        <extensions>
          <ns3:TrackPointExtension>
            <ns3:hr>110</ns3:hr>
            <ns3:cad>81</ns3:cad>
          </ns3:TrackPointExtension>
        </extensions>
      </trkpt>
      <trkpt lat="44.7176148556172847747802734375" lon="6.73453154973685741424560546875">
        <ele>1720.800048828125</ele>
        <time>2026-09-03T05:27:56.000Z</time>
        <extensions>
          <ns3:TrackPointExtension>
            <ns3:hr>111</ns3:hr>
            <ns3:cad>81</ns3:cad>
          </ns3:TrackPointExtension>
        </extensions>
      </trkpt>
      <trkpt lat="44.71760136075317859649658203125" lon="6.7345120199024677276611328125">
        <ele>1720.5999755859375</ele>
        <time>2026-09-03T05:27:57.000Z</time>
        <extensions>
          <ns3:TrackPointExtension>
            <ns3:hr>111</ns3:hr>
            <ns3:cad>81</ns3:cad>
          </ns3:TrackPointExtension>
        </extensions>
      </trkpt>
      <trkpt lat="44.7175860218703746795654296875" lon="6.73448964022099971771240234375">
        <ele>1720.5999755859375</ele>
        <time>2026-09-03T05:27:58.000Z</time>
        <extensions>
          <ns3:TrackPointExtension>
            <ns3:hr>111</ns3:hr>
            <ns3:cad>81</ns3:cad>
          </ns3:TrackPointExtension>
        </extensions>
      </trkpt>
      <trkpt lat="44.7175736166536808013916015625" lon="6.73447270877659320831298828125">
        <ele>1720.4000244140625</ele>
        <time>2026-09-03T05:27:59.000Z</time>
        <extensions>
          <ns3:TrackPointExtension>
            <ns3:hr>111</ns3:hr>
            <ns3:cad>81</ns3:cad>
          </ns3:TrackPointExtension>
        </extensions>
      </trkpt>
      <trkpt lat="44.7175659053027629852294921875" lon="6.7344419471919536590576171875">
        <ele>1720</ele>
        <time>2026-09-03T05:28:00.000Z</time>
        <extensions>
          <ns3:TrackPointExtension>
            <ns3:hr>111</ns3:hr>
            <ns3:cad>62</ns3:cad>
          </ns3:TrackPointExtension>
        </extensions>
      </trkpt>
      <trkpt lat="44.71755509264767169952392578125" lon="6.73442191444337368011474609375">
        <ele>1719.5999755859375</ele>
        <time>2026-09-03T05:28:01.000Z</time>
        <extensions>
          <ns3:TrackPointExtension>
            <ns3:hr>111</ns3:hr>
            <ns3:cad>62</ns3:cad>
          </ns3:TrackPointExtension>
        </extensions>
      </trkpt>
      <trkpt lat="44.71754486672580242156982421875" lon="6.73439391888678073883056640625">
        <ele>1719.199951171875</ele>
        <time>2026-09-03T05:28:02.000Z</time>
        <extensions>
          <ns3:TrackPointExtension>
            <ns3:hr>111</ns3:hr>
            <ns3:cad>62</ns3:cad>
          </ns3:TrackPointExtension>
        </extensions>
      </trkpt>
      <trkpt lat="44.71754134632647037506103515625" lon="6.73436793498694896697998046875">
        <ele>1718.800048828125</ele>
        <time>2026-09-03T05:28:03.000Z</time>
        <extensions>
          <ns3:TrackPointExtension>
            <ns3:hr>111</ns3:hr>
            <ns3:cad>0</ns3:cad>
          </ns3:TrackPointExtension>
        </extensions>
      </trkpt>
      <trkpt lat="44.71753053367137908935546875" lon="6.73434228636324405670166015625">
        <ele>1718.4000244140625</ele>
        <time>2026-09-03T05:28:04.000Z</time>
        <extensions>
          <ns3:TrackPointExtension>
            <ns3:hr>112</ns3:hr>
            <ns3:cad>0</ns3:cad>
          </ns3:TrackPointExtension>
        </extensions>
      </trkpt>
      <trkpt lat="44.7175226546823978424072265625" lon="6.73430808819830417633056640625">
        <ele>1718</ele>
        <time>2026-09-03T05:28:05.000Z</time>
        <extensions>
          <ns3:TrackPointExtension>
            <ns3:hr>112</ns3:hr>
            <ns3:cad>80</ns3:cad>
          </ns3:TrackPointExtension>
        </extensions>
      </trkpt>
      <trkpt lat="44.7175115905702114105224609375" lon="6.7342865467071533203125">
        <ele>1717.5999755859375</ele>
        <time>2026-09-03T05:28:06.000Z</time>
        <extensions>
          <ns3:TrackPointExtension>
            <ns3:hr>112</ns3:hr>
            <ns3:cad>81</ns3:cad>
          </ns3:TrackPointExtension>
        </extensions>
      </trkpt>
      <trkpt lat="44.71750128082931041717529296875" lon="6.7342689447104930877685546875">
        <ele>1717.199951171875</ele>
        <time>2026-09-03T05:28:07.000Z</time>
        <extensions>
          <ns3:TrackPointExtension>
            <ns3:hr>113</ns3:hr>
            <ns3:cad>81</ns3:cad>
          </ns3:TrackPointExtension>
        </extensions>
      </trkpt>
      <trkpt lat="44.7174864448606967926025390625" lon="6.73424103297293186187744140625">
        <ele>1717</ele>
        <time>2026-09-03T05:28:08.000Z</time>
        <extensions>
          <ns3:TrackPointExtension>
            <ns3:hr>113</ns3:hr>
            <ns3:cad>81</ns3:cad>
          </ns3:TrackPointExtension>
        </extensions>
      </trkpt>
      <trkpt lat="44.71747311763465404510498046875" lon="6.73422393389046192169189453125">
        <ele>1716.5999755859375</ele>
        <time>2026-09-03T05:28:09.000Z</time>
        <extensions>
          <ns3:TrackPointExtension>
            <ns3:hr>113</ns3:hr>
            <ns3:cad>81</ns3:cad>
          </ns3:TrackPointExtension>
        </extensions>
      </trkpt>
      <trkpt lat="44.7174582816660404205322265625" lon="6.73420012928545475006103515625">
        <ele>1716.199951171875</ele>
        <time>2026-09-03T05:28:10.000Z</time>
        <extensions>
          <ns3:TrackPointExtension>
            <ns3:hr>114</ns3:hr>
            <ns3:cad>82</ns3:cad>
          </ns3:TrackPointExtension>
        </extensions>
      </trkpt>
      <trkpt lat="44.717447049915790557861328125" lon="6.734186969697475433349609375">
        <ele>1716</ele>
        <time>2026-09-03T05:28:11.000Z</time>
        <extensions>
          <ns3:TrackPointExtension>
            <ns3:hr>114</ns3:hr>
            <ns3:cad>83</ns3:cad>
          </ns3:TrackPointExtension>
        </extensions>
      </trkpt>
      <trkpt lat="44.71744143404066562652587890625" lon="6.7341760732233524322509765625">
        <ele>1715.5999755859375</ele>
        <time>2026-09-03T05:28:12.000Z</time>
        <extensions>
          <ns3:TrackPointExtension>
            <ns3:hr>115</ns3:hr>
            <ns3:cad>83</ns3:cad>
          </ns3:TrackPointExtension>
        </extensions>
      </trkpt>
      <trkpt lat="44.7174346446990966796875" lon="6.73416425473988056182861328125">
        <ele>1715.4000244140625</ele>
        <time>2026-09-03T05:28:13.000Z</time>
        <extensions>
          <ns3:TrackPointExtension>
            <ns3:hr>115</ns3:hr>
            <ns3:cad>80</ns3:cad>
          </ns3:TrackPointExtension>
        </extensions>
      </trkpt>
      <trkpt lat="44.71742450259625911712646484375" lon="6.7341542802751064300537109375">
        <ele>1715</ele>
        <time>2026-09-03T05:28:14.000Z</time>
        <extensions>
          <ns3:TrackPointExtension>
            <ns3:hr>115</ns3:hr>
            <ns3:cad>80</ns3:cad>
          </ns3:TrackPointExtension>
        </extensions>
      </trkpt>
      <trkpt lat="44.7174198925495147705078125" lon="6.73415453173220157623291015625">
        <ele>1714.800048828125</ele>
        <time>2026-09-03T05:28:15.000Z</time>
        <extensions>
          <ns3:TrackPointExtension>
            <ns3:hr>115</ns3:hr>
            <ns3:cad>80</ns3:cad>
          </ns3:TrackPointExtension>
        </extensions>
      </trkpt>
      <trkpt lat="44.71740941517055034637451171875" lon="6.73414849676191806793212890625">
        <ele>1714.4000244140625</ele>
        <time>2026-09-03T05:28:16.000Z</time>
        <extensions>
          <ns3:TrackPointExtension>
            <ns3:hr>115</ns3:hr>
            <ns3:cad>88</ns3:cad>
          </ns3:TrackPointExtension>
        </extensions>
      </trkpt>
      <trkpt lat="44.71739885397255420684814453125" lon="6.734139025211334228515625">
        <ele>1714</ele>
        <time>2026-09-03T05:28:17.000Z</time>
        <extensions>
          <ns3:TrackPointExtension>
            <ns3:hr>115</ns3:hr>
            <ns3:cad>88</ns3:cad>
          </ns3:TrackPointExtension>
        </extensions>
      </trkpt>
      <trkpt lat="44.71738728694617748260498046875" lon="6.734119243919849395751953125">
        <ele>1713.5999755859375</ele>
        <time>2026-09-03T05:28:18.000Z</time>
        <extensions>
          <ns3:TrackPointExtension>
            <ns3:hr>115</ns3:hr>
            <ns3:cad>88</ns3:cad>
          </ns3:TrackPointExtension>
        </extensions>
      </trkpt>
      <trkpt lat="44.71738158725202083587646484375" lon="6.7341130413115024566650390625">
        <ele>1713.199951171875</ele>
        <time>2026-09-03T05:28:19.000Z</time>
        <extensions>
          <ns3:TrackPointExtension>
            <ns3:hr>114</ns3:hr>
            <ns3:cad>88</ns3:cad>
          </ns3:TrackPointExtension>
        </extensions>
      </trkpt>
      <trkpt lat="44.7173791565001010894775390625" lon="6.734104156494140625">
        <ele>1712.800048828125</ele>
        <time>2026-09-03T05:28:20.000Z</time>
        <extensions>
          <ns3:TrackPointExtension>
            <ns3:hr>114</ns3:hr>
            <ns3:cad>88</ns3:cad>
          </ns3:TrackPointExtension>
        </extensions>
      </trkpt>
      <trkpt lat="44.71736582927405834197998046875" lon="6.73409099690616130828857421875">
        <ele>1712.5999755859375</ele>
        <time>2026-09-03T05:28:21.000Z</time>
        <extensions>
          <ns3:TrackPointExtension>
            <ns3:hr>113</ns3:hr>
            <ns3:cad>79</ns3:cad>
          </ns3:TrackPointExtension>
        </extensions>
      </trkpt>
      <trkpt lat="44.71735308878123760223388671875" lon="6.73407004214823246002197265625">
        <ele>1712.199951171875</ele>
        <time>2026-09-03T05:28:22.000Z</time>
        <extensions>
          <ns3:TrackPointExtension>
            <ns3:hr>112</ns3:hr>
            <ns3:cad>79</ns3:cad>
          </ns3:TrackPointExtension>
        </extensions>
      </trkpt>
      <trkpt lat="44.71734604798257350921630859375" lon="6.73405193723738193511962890625">
        <ele>1711.5999755859375</ele>
        <time>2026-09-03T05:28:23.000Z</time>
        <extensions>
          <ns3:TrackPointExtension>
            <ns3:hr>111</ns3:hr>
            <ns3:cad>79</ns3:cad>
          </ns3:TrackPointExtension>
        </extensions>
      </trkpt>
      <trkpt lat="44.71733246929943561553955078125" lon="6.73402528278529644012451171875">
        <ele>1711.4000244140625</ele>
        <time>2026-09-03T05:28:24.000Z</time>
        <extensions>
          <ns3:TrackPointExtension>
            <ns3:hr>111</ns3:hr>
            <ns3:cad>79</ns3:cad>
          </ns3:TrackPointExtension>
        </extensions>
      </trkpt>
      <trkpt lat="44.71732408739626407623291015625" lon="6.73400181345641613006591796875">
        <ele>1710.800048828125</ele>
        <time>2026-09-03T05:28:25.000Z</time>
        <extensions>
          <ns3:TrackPointExtension>
            <ns3:hr>110</ns3:hr>
            <ns3:cad>79</ns3:cad>
          </ns3:TrackPointExtension>
        </extensions>
      </trkpt>
      <trkpt lat="44.71731352619826793670654296875" lon="6.733981780707836151123046875">
        <ele>1710.5999755859375</ele>
        <time>2026-09-03T05:28:26.000Z</time>
        <extensions>
          <ns3:TrackPointExtension>
            <ns3:hr>110</ns3:hr>
            <ns3:cad>79</ns3:cad>
          </ns3:TrackPointExtension>
        </extensions>
      </trkpt>
      <trkpt lat="44.717300869524478912353515625" lon="6.73396426253020763397216796875">
        <ele>1710.4000244140625</ele>
        <time>2026-09-03T05:28:27.000Z</time>
        <extensions>
          <ns3:TrackPointExtension>
            <ns3:hr>110</ns3:hr>
            <ns3:cad>79</ns3:cad>
          </ns3:TrackPointExtension>
        </extensions>
      </trkpt>
      <trkpt lat="44.7172879613935947418212890625" lon="6.7339490912854671478271484375">
        <ele>1710.199951171875</ele>
        <time>2026-09-03T05:28:28.000Z</time>
        <extensions>
          <ns3:TrackPointExtension>
            <ns3:hr>109</ns3:hr>
            <ns3:cad>79</ns3:cad>
          </ns3:TrackPointExtension>
        </extensions>
      </trkpt>
      <trkpt lat="44.71727916039526462554931640625" lon="6.733924113214015960693359375">
        <ele>1709.800048828125</ele>
        <time>2026-09-03T05:28:29.000Z</time>
        <extensions>
          <ns3:TrackPointExtension>
            <ns3:hr>109</ns3:hr>
            <ns3:cad>79</ns3:cad>
          </ns3:TrackPointExtension>
        </extensions>
      </trkpt>
      <trkpt lat="44.717268012464046478271484375" lon="6.73389385454356670379638671875">
        <ele>1709.5999755859375</ele>
        <time>2026-09-03T05:28:30.000Z</time>
        <extensions>
          <ns3:TrackPointExtension>
            <ns3:hr>109</ns3:hr>
            <ns3:cad>80</ns3:cad>
          </ns3:TrackPointExtension>
        </extensions>
      </trkpt>
      <trkpt lat="44.71725870855152606964111328125" lon="6.73386854119598865509033203125">
        <ele>1709.199951171875</ele>
        <time>2026-09-03T05:28:31.000Z</time>
        <extensions>
          <ns3:TrackPointExtension>
            <ns3:hr>108</ns3:hr>
            <ns3:cad>80</ns3:cad>
          </ns3:TrackPointExtension>
        </extensions>
      </trkpt>
      <trkpt lat="44.71725099720060825347900390625" lon="6.73385244794189929962158203125">
        <ele>1708.800048828125</ele>
        <time>2026-09-03T05:28:32.000Z</time>
        <extensions>
          <ns3:TrackPointExtension>
            <ns3:hr>108</ns3:hr>
            <ns3:cad>65</ns3:cad>
          </ns3:TrackPointExtension>
        </extensions>
      </trkpt>
      <trkpt lat="44.71723725087940692901611328125" lon="6.7338310740888118743896484375">
        <ele>1708.5999755859375</ele>
        <time>2026-09-03T05:28:33.000Z</time>
        <extensions>
          <ns3:TrackPointExtension>
            <ns3:hr>108</ns3:hr>
            <ns3:cad>65</ns3:cad>
          </ns3:TrackPointExtension>
        </extensions>
      </trkpt>
      <trkpt lat="44.71723322756588459014892578125" lon="6.7338196747004985809326171875">
        <ele>1708.199951171875</ele>
        <time>2026-09-03T05:28:34.000Z</time>
        <extensions>
          <ns3:TrackPointExtension>
            <ns3:hr>108</ns3:hr>
            <ns3:cad>65</ns3:cad>
          </ns3:TrackPointExtension>
        </extensions>
      </trkpt>
      <trkpt lat="44.71722903661429882049560546875" lon="6.7338099516928195953369140625">
        <ele>1707.800048828125</ele>
        <time>2026-09-03T05:28:35.000Z</time>
        <extensions>
          <ns3:TrackPointExtension>
            <ns3:hr>108</ns3:hr>
            <ns3:cad>83</ns3:cad>
          </ns3:TrackPointExtension>
        </extensions>
      </trkpt>
      <trkpt lat="44.71722249872982501983642578125" lon="6.7338022403419017791748046875">
        <ele>1707.5999755859375</ele>
        <time>2026-09-03T05:28:36.000Z</time>
        <extensions>
          <ns3:TrackPointExtension>
            <ns3:hr>108</ns3:hr>
            <ns3:cad>83</ns3:cad>
          </ns3:TrackPointExtension>
        </extensions>
      </trkpt>
      <trkpt lat="44.7172128595411777496337890625" lon="6.73379997722804546356201171875">
        <ele>1707.4000244140625</ele>
        <time>2026-09-03T05:28:37.000Z</time>
        <extensions>
          <ns3:TrackPointExtension>
            <ns3:hr>107</ns3:hr>
            <ns3:cad>83</ns3:cad>
          </ns3:TrackPointExtension>
        </extensions>
      </trkpt>
      <trkpt lat="44.7172024659812450408935546875" lon="6.73380617983639240264892578125">
        <ele>1707</ele>
        <time>2026-09-03T05:28:38.000Z</time>
        <extensions>
          <ns3:TrackPointExtension>
            <ns3:hr>108</ns3:hr>
            <ns3:cad>0</ns3:cad>
          </ns3:TrackPointExtension>
        </extensions>
      </trkpt>
      <trkpt lat="44.7171991132199764251708984375" lon="6.73381322063505649566650390625">
        <ele>1706.800048828125</ele>
        <time>2026-09-03T05:28:39.000Z</time>
        <extensions>
          <ns3:TrackPointExtension>
            <ns3:hr>107</ns3:hr>
            <ns3:cad>0</ns3:cad>
          </ns3:TrackPointExtension>
        </extensions>
      </trkpt>
      <trkpt lat="44.71719433553516864776611328125" lon="6.733826883137226104736328125">
        <ele>1706.4000244140625</ele>
        <time>2026-09-03T05:28:40.000Z</time>
        <extensions>
          <ns3:TrackPointExtension>
            <ns3:hr>107</ns3:hr>
            <ns3:cad>81</ns3:cad>
          </ns3:TrackPointExtension>
        </extensions>
      </trkpt>
      <trkpt lat="44.71719198860228061676025390625" lon="6.73384205438196659088134765625">
        <ele>1706</ele>
        <time>2026-09-03T05:28:41.000Z</time>
        <extensions>
          <ns3:TrackPointExtension>
            <ns3:hr>107</ns3:hr>
            <ns3:cad>81</ns3:cad>
          </ns3:TrackPointExtension>
        </extensions>
      </trkpt>
      <trkpt lat="44.7171907313168048858642578125" lon="6.73385848291218280792236328125">
        <ele>1705.800048828125</ele>
        <time>2026-09-03T05:28:42.000Z</time>
        <extensions>
          <ns3:TrackPointExtension>
            <ns3:hr>107</ns3:hr>
            <ns3:cad>81</ns3:cad>
          </ns3:TrackPointExtension>
        </extensions>
      </trkpt>
      <trkpt lat="44.71719081513583660125732421875" lon="6.73387742601335048675537109375">
        <ele>1705.199951171875</ele>
        <time>2026-09-03T05:28:43.000Z</time>
        <extensions>
          <ns3:TrackPointExtension>
            <ns3:hr>107</ns3:hr>
            <ns3:cad>81</ns3:cad>
          </ns3:TrackPointExtension>
        </extensions>
      </trkpt>
      <trkpt lat="44.71718930639326572418212890625" lon="6.733898632228374481201171875">
        <ele>1704.800048828125</ele>
        <time>2026-09-03T05:28:44.000Z</time>
        <extensions>
          <ns3:TrackPointExtension>
            <ns3:hr>107</ns3:hr>
            <ns3:cad>0</ns3:cad>
          </ns3:TrackPointExtension>
        </extensions>
      </trkpt>
      <trkpt lat="44.7171838581562042236328125" lon="6.7339177429676055908203125">
        <ele>1704.5999755859375</ele>
        <time>2026-09-03T05:28:45.000Z</time>
        <extensions>
          <ns3:TrackPointExtension>
            <ns3:hr>107</ns3:hr>
            <ns3:cad>0</ns3:cad>
          </ns3:TrackPointExtension>
        </extensions>
      </trkpt>
      <trkpt lat="44.71718410961329936981201171875" lon="6.73394632525742053985595703125">
        <ele>1704.199951171875</ele>
        <time>2026-09-03T05:28:46.000Z</time>
        <extensions>
          <ns3:TrackPointExtension>
            <ns3:hr>107</ns3:hr>
            <ns3:cad>0</ns3:cad>
          </ns3:TrackPointExtension>
        </extensions>
      </trkpt>
      <trkpt lat="44.7171843610703945159912109375" lon="6.73396275378763675689697265625">
        <ele>1703.800048828125</ele>
        <time>2026-09-03T05:28:47.000Z</time>
        <extensions>
          <ns3:TrackPointExtension>
            <ns3:hr>106</ns3:hr>
            <ns3:cad>80</ns3:cad>
          </ns3:TrackPointExtension>
        </extensions>
      </trkpt>
      <trkpt lat="44.71718980930745601654052734375" lon="6.73398873768746852874755859375">
        <ele>1703.4000244140625</ele>
        <time>2026-09-03T05:28:48.000Z</time>
        <extensions>
          <ns3:TrackPointExtension>
            <ns3:hr>106</ns3:hr>
            <ns3:cad>81</ns3:cad>
          </ns3:TrackPointExtension>
        </extensions>
      </trkpt>
      <trkpt lat="44.717192240059375762939453125" lon="6.73401555977761745452880859375">
        <ele>1703.199951171875</ele>
        <time>2026-09-03T05:28:49.000Z</time>
        <extensions>
          <ns3:TrackPointExtension>
            <ns3:hr>106</ns3:hr>
            <ns3:cad>81</ns3:cad>
          </ns3:TrackPointExtension>
        </extensions>
      </trkpt>
      <trkpt lat="44.71719584427773952484130859375" lon="6.7340406216681003570556640625">
        <ele>1702.800048828125</ele>
        <time>2026-09-03T05:28:50.000Z</time>
        <extensions>
          <ns3:TrackPointExtension>
            <ns3:hr>105</ns3:hr>
            <ns3:cad>73</ns3:cad>
          </ns3:TrackPointExtension>
        </extensions>
      </trkpt>
      <trkpt lat="44.71719802357256412506103515625" lon="6.73406082205474376678466796875">
        <ele>1702.4000244140625</ele>
        <time>2026-09-03T05:28:51.000Z</time>
        <extensions>
          <ns3:TrackPointExtension>
            <ns3:hr>106</ns3:hr>
            <ns3:cad>73</ns3:cad>
          </ns3:TrackPointExtension>
        </extensions>
      </trkpt>
      <trkpt lat="44.7172054834663867950439453125" lon="6.7340711317956447601318359375">
        <ele>1702</ele>
        <time>2026-09-03T05:28:52.000Z</time>
        <extensions>
          <ns3:TrackPointExtension>
            <ns3:hr>107</ns3:hr>
            <ns3:cad>73</ns3:cad>
          </ns3:TrackPointExtension>
        </extensions>
      </trkpt>
      <trkpt lat="44.7172128595411777496337890625" lon="6.73408244736492633819580078125">
        <ele>1701.800048828125</ele>
        <time>2026-09-03T05:28:53.000Z</time>
        <extensions>
          <ns3:TrackPointExtension>
            <ns3:hr>107</ns3:hr>
            <ns3:cad>73</ns3:cad>
          </ns3:TrackPointExtension>
        </extensions>
      </trkpt>
      <trkpt lat="44.7172133624553680419921875" lon="6.73409535549581050872802734375">
        <ele>1701.5999755859375</ele>
        <time>2026-09-03T05:28:54.000Z</time>
        <extensions>
          <ns3:TrackPointExtension>
            <ns3:hr>107</ns3:hr>
            <ns3:cad>73</ns3:cad>
          </ns3:TrackPointExtension>
        </extensions>
      </trkpt>
      <trkpt lat="44.7172188945114612579345703125" lon="6.734103150665760040283203125">
        <ele>1701.199951171875</ele>
        <time>2026-09-03T05:28:55.000Z</time>
        <extensions>
          <ns3:TrackPointExtension>
            <ns3:hr>107</ns3:hr>
            <ns3:cad>73</ns3:cad>
          </ns3:TrackPointExtension>
        </extensions>
      </trkpt>
      <trkpt lat="44.71722484566271305084228515625" lon="6.73411463387310504913330078125">
        <ele>1701</ele>
        <time>2026-09-03T05:28:56.000Z</time>
        <extensions>
          <ns3:TrackPointExtension>
            <ns3:hr>107</ns3:hr>
            <ns3:cad>73</ns3:cad>
          </ns3:TrackPointExtension>
        </extensions>
      </trkpt>
      <trkpt lat="44.7172294557094573974609375" lon="6.734126619994640350341796875">
        <ele>1700.800048828125</ele>
        <time>2026-09-03T05:28:57.000Z</time>
        <extensions>
          <ns3:TrackPointExtension>
            <ns3:hr>108</ns3:hr>
            <ns3:cad>73</ns3:cad>
          </ns3:TrackPointExtension>
        </extensions>
      </trkpt>
      <trkpt lat="44.71722601912915706634521484375" lon="6.7341515980660915374755859375">
        <ele>1700.4000244140625</ele>
        <time>2026-09-03T05:28:58.000Z</time>
        <extensions>
          <ns3:TrackPointExtension>
            <ns3:hr>108</ns3:hr>
            <ns3:cad>73</ns3:cad>
          </ns3:TrackPointExtension>
        </extensions>
      </trkpt>
      <trkpt lat="44.71722476184368133544921875" lon="6.73417129553854465484619140625">
        <ele>1700</ele>
        <time>2026-09-03T05:28:59.000Z</time>
        <extensions>
          <ns3:TrackPointExtension>
            <ns3:hr>108</ns3:hr>
            <ns3:cad>73</ns3:cad>
          </ns3:TrackPointExtension>
        </extensions>
      </trkpt>
      <trkpt lat="44.7172252647578716278076171875" lon="6.7341888137161731719970703125">
        <ele>1699.5999755859375</ele>
        <time>2026-09-03T05:29:00.000Z</time>
        <extensions>
          <ns3:TrackPointExtension>
            <ns3:hr>107</ns3:hr>
            <ns3:cad>73</ns3:cad>
          </ns3:TrackPointExtension>
        </extensions>
      </trkpt>
      <trkpt lat="44.7172252647578716278076171875" lon="6.734195016324520111083984375">
        <ele>1699.4000244140625</ele>
        <time>2026-09-03T05:29:01.000Z</time>
        <extensions>
          <ns3:TrackPointExtension>
            <ns3:hr>107</ns3:hr>
            <ns3:cad>83</ns3:cad>
          </ns3:TrackPointExtension>
        </extensions>
      </trkpt>
      <trkpt lat="44.7172202356159687042236328125" lon="6.7342089302837848663330078125">
        <ele>1699.199951171875</ele>
        <time>2026-09-03T05:29:02.000Z</time>
        <extensions>
          <ns3:TrackPointExtension>
            <ns3:hr>107</ns3:hr>
            <ns3:cad>83</ns3:cad>
          </ns3:TrackPointExtension>
        </extensions>
      </trkpt>
      <trkpt lat="44.71721830777823925018310546875" lon="6.73421588726341724395751953125">
        <ele>1698.800048828125</ele>
        <time>2026-09-03T05:29:03.000Z</time>
        <extensions>
          <ns3:TrackPointExtension>
            <ns3:hr>108</ns3:hr>
            <ns3:cad>83</ns3:cad>
          </ns3:TrackPointExtension>
        </extensions>
      </trkpt>
      <trkpt lat="44.71721461974084377288818359375" lon="6.73423667438328266143798828125">
        <ele>1698.5999755859375</ele>
        <time>2026-09-03T05:29:04.000Z</time>
        <extensions>
          <ns3:TrackPointExtension>
            <ns3:hr>107</ns3:hr>
            <ns3:cad>83</ns3:cad>
          </ns3:TrackPointExtension>
        </extensions>
      </trkpt>
      <trkpt lat="44.717209003865718841552734375" lon="6.73424857668578624725341796875">
        <ele>1698.4000244140625</ele>
        <time>2026-09-03T05:29:05.000Z</time>
        <extensions>
          <ns3:TrackPointExtension>
            <ns3:hr>108</ns3:hr>
            <ns3:cad>83</ns3:cad>
          </ns3:TrackPointExtension>
        </extensions>
      </trkpt>
      <trkpt lat="44.717200957238674163818359375" lon="6.73426031135022640228271484375">
        <ele>1698</ele>
        <time>2026-09-03T05:29:06.000Z</time>
        <extensions>
          <ns3:TrackPointExtension>
            <ns3:hr>108</ns3:hr>
            <ns3:cad>83</ns3:cad>
          </ns3:TrackPointExtension>
        </extensions>
      </trkpt>
      <trkpt lat="44.7171846963465213775634765625" lon="6.734266765415668487548828125">
        <ele>1697.5999755859375</ele>
        <time>2026-09-03T05:29:07.000Z</time>
        <extensions>
          <ns3:TrackPointExtension>
            <ns3:hr>108</ns3:hr>
            <ns3:cad>83</ns3:cad>
          </ns3:TrackPointExtension>
        </extensions>
      </trkpt>
      <trkpt lat="44.7171739675104618072509765625" lon="6.73427724279463291168212890625">
        <ele>1697.4000244140625</ele>
        <time>2026-09-03T05:29:08.000Z</time>
        <extensions>
          <ns3:TrackPointExtension>
            <ns3:hr>107</ns3:hr>
            <ns3:cad>83</ns3:cad>
          </ns3:TrackPointExtension>
        </extensions>
      </trkpt>
      <trkpt lat="44.7171639092266559600830078125" lon="6.73429316841065883636474609375">
        <ele>1697</ele>
        <time>2026-09-03T05:29:09.000Z</time>
        <extensions>
          <ns3:TrackPointExtension>
            <ns3:hr>107</ns3:hr>
            <ns3:cad>83</ns3:cad>
          </ns3:TrackPointExtension>
        </extensions>
      </trkpt>
      <trkpt lat="44.71715376712381839752197265625" lon="6.73431395553052425384521484375">
        <ele>1696.5999755859375</ele>
        <time>2026-09-03T05:29:10.000Z</time>
        <extensions>
          <ns3:TrackPointExtension>
            <ns3:hr>107</ns3:hr>
            <ns3:cad>83</ns3:cad>
          </ns3:TrackPointExtension>
        </extensions>
      </trkpt>
      <trkpt lat="44.71714555285871028900146484375" lon="6.73433826304972171783447265625">
        <ele>1696.199951171875</ele>
        <time>2026-09-03T05:29:11.000Z</time>
        <extensions>
          <ns3:TrackPointExtension>
            <ns3:hr>107</ns3:hr>
            <ns3:cad>83</ns3:cad>
          </ns3:TrackPointExtension>
        </extensions>
      </trkpt>
      <trkpt lat="44.71713851206004619598388671875" lon="6.73435921780765056610107421875">
        <ele>1695.800048828125</ele>
        <time>2026-09-03T05:29:12.000Z</time>
        <extensions>
          <ns3:TrackPointExtension>
            <ns3:hr>107</ns3:hr>
            <ns3:cad>83</ns3:cad>
          </ns3:TrackPointExtension>
        </extensions>
      </trkpt>
      <trkpt lat="44.7171307168900966644287109375" lon="6.734382770955562591552734375">
        <ele>1695.4000244140625</ele>
        <time>2026-09-03T05:29:13.000Z</time>
        <extensions>
          <ns3:TrackPointExtension>
            <ns3:hr>107</ns3:hr>
            <ns3:cad>75</ns3:cad>
          </ns3:TrackPointExtension>
        </extensions>
      </trkpt>
      <trkpt lat="44.71712342463433742523193359375" lon="6.73439852893352508544921875">
        <ele>1695.199951171875</ele>
        <time>2026-09-03T05:29:14.000Z</time>
        <extensions>
          <ns3:TrackPointExtension>
            <ns3:hr>106</ns3:hr>
            <ns3:cad>74</ns3:cad>
          </ns3:TrackPointExtension>
        </extensions>
      </trkpt>
      <trkpt lat="44.71711521036922931671142578125" lon="6.73441923223435878753662109375">
        <ele>1694.800048828125</ele>
        <time>2026-09-03T05:29:15.000Z</time>
        <extensions>
          <ns3:TrackPointExtension>
            <ns3:hr>107</ns3:hr>
            <ns3:cad>74</ns3:cad>
          </ns3:TrackPointExtension>
        </extensions>
      </trkpt>
      <trkpt lat="44.71711076796054840087890625" lon="6.7344436235725879669189453125">
        <ele>1694.4000244140625</ele>
        <time>2026-09-03T05:29:16.000Z</time>
        <extensions>
          <ns3:TrackPointExtension>
            <ns3:hr>107</ns3:hr>
            <ns3:cad>74</ns3:cad>
          </ns3:TrackPointExtension>
        </extensions>
      </trkpt>
      <trkpt lat="44.71711018122732639312744140625" lon="6.73446030355989933013916015625">
        <ele>1694.199951171875</ele>
        <time>2026-09-03T05:29:17.000Z</time>
        <extensions>
          <ns3:TrackPointExtension>
            <ns3:hr>107</ns3:hr>
            <ns3:cad>74</ns3:cad>
          </ns3:TrackPointExtension>
        </extensions>
      </trkpt>
      <trkpt lat="44.71711185760796070098876953125" lon="6.73447689972817897796630859375">
        <ele>1693.800048828125</ele>
        <time>2026-09-03T05:29:18.000Z</time>
        <extensions>
          <ns3:TrackPointExtension>
            <ns3:hr>107</ns3:hr>
            <ns3:cad>74</ns3:cad>
          </ns3:TrackPointExtension>
        </extensions>
      </trkpt>
      <trkpt lat="44.71711168996989727020263671875" lon="6.7344997823238372802734375">
        <ele>1693.5999755859375</ele>
        <time>2026-09-03T05:29:19.000Z</time>
        <extensions>
          <ns3:TrackPointExtension>
            <ns3:hr>107</ns3:hr>
            <ns3:cad>74</ns3:cad>
          </ns3:TrackPointExtension>
        </extensions>
      </trkpt>
      <trkpt lat="44.71710498444736003875732421875" lon="6.73451947979629039764404296875">
        <ele>1693.199951171875</ele>
        <time>2026-09-03T05:29:20.000Z</time>
        <extensions>
          <ns3:TrackPointExtension>
            <ns3:hr>107</ns3:hr>
            <ns3:cad>74</ns3:cad>
          </ns3:TrackPointExtension>
        </extensions>
      </trkpt>
      <trkpt lat="44.717103056609630584716796875" lon="6.7345354892313480377197265625">
        <ele>1693</ele>
        <time>2026-09-03T05:29:21.000Z</time>
        <extensions>
          <ns3:TrackPointExtension>
            <ns3:hr>107</ns3:hr>
            <ns3:cad>74</ns3:cad>
          </ns3:TrackPointExtension>
        </extensions>
      </trkpt>
      <trkpt lat="44.7171038947999477386474609375" lon="6.73454998992383480072021484375">
        <ele>1692.5999755859375</ele>
        <time>2026-09-03T05:29:22.000Z</time>
        <extensions>
          <ns3:TrackPointExtension>
            <ns3:hr>108</ns3:hr>
            <ns3:cad>75</ns3:cad>
          </ns3:TrackPointExtension>
        </extensions>
      </trkpt>
      <trkpt lat="44.71710900776088237762451171875" lon="6.7345614731311798095703125">
        <ele>1692.4000244140625</ele>
        <time>2026-09-03T05:29:23.000Z</time>
        <extensions>
          <ns3:TrackPointExtension>
            <ns3:hr>108</ns3:hr>
            <ns3:cad>75</ns3:cad>
          </ns3:TrackPointExtension>
        </extensions>
      </trkpt>
      <trkpt lat="44.717105068266391754150390625" lon="6.73458628356456756591796875">
        <ele>1692</ele>
        <time>2026-09-03T05:29:24.000Z</time>
        <extensions>
          <ns3:TrackPointExtension>
            <ns3:hr>108</ns3:hr>
            <ns3:cad>75</ns3:cad>
          </ns3:TrackPointExtension>
        </extensions>
      </trkpt>
      <trkpt lat="44.717103056609630584716796875" lon="6.73461570404469966888427734375">
        <ele>1691.800048828125</ele>
        <time>2026-09-03T05:29:25.000Z</time>
        <extensions>
          <ns3:TrackPointExtension>
            <ns3:hr>108</ns3:hr>
            <ns3:cad>75</ns3:cad>
          </ns3:TrackPointExtension>
        </extensions>
      </trkpt>
      <trkpt lat="44.717095009982585906982421875" lon="6.73464353196322917938232421875">
        <ele>1691.4000244140625</ele>
        <time>2026-09-03T05:29:26.000Z</time>
        <extensions>
          <ns3:TrackPointExtension>
            <ns3:hr>108</ns3:hr>
            <ns3:cad>75</ns3:cad>
          </ns3:TrackPointExtension>
        </extensions>
      </trkpt>
      <trkpt lat="44.717088304460048675537109375" lon="6.73468024469912052154541015625">
        <ele>1691</ele>
        <time>2026-09-03T05:29:27.000Z</time>
        <extensions>
          <ns3:TrackPointExtension>
            <ns3:hr>108</ns3:hr>
            <ns3:cad>77</ns3:cad>
          </ns3:TrackPointExtension>
        </extensions>
      </trkpt>
      <trkpt lat="44.7170894779264926910400390625" lon="6.73470698297023773193359375">
        <ele>1690.5999755859375</ele>
        <time>2026-09-03T05:29:28.000Z</time>
        <extensions>
          <ns3:TrackPointExtension>
            <ns3:hr>108</ns3:hr>
            <ns3:cad>77</ns3:cad>
          </ns3:TrackPointExtension>
        </extensions>
      </trkpt>
      <trkpt lat="44.71709073521196842193603515625" lon="6.73472844064235687255859375">
        <ele>1690.199951171875</ele>
        <time>2026-09-03T05:29:29.000Z</time>
        <extensions>
          <ns3:TrackPointExtension>
            <ns3:hr>108</ns3:hr>
            <ns3:cad>77</ns3:cad>
          </ns3:TrackPointExtension>
        </extensions>
      </trkpt>
      <trkpt lat="44.71708637662231922149658203125" lon="6.7347581125795841217041015625">
        <ele>1690</ele>
        <time>2026-09-03T05:29:30.000Z</time>
        <extensions>
          <ns3:TrackPointExtension>
            <ns3:hr>108</ns3:hr>
            <ns3:cad>77</ns3:cad>
          </ns3:TrackPointExtension>
        </extensions>
      </trkpt>
      <trkpt lat="44.71708838827908039093017578125" lon="6.73478602431714534759521484375">
        <ele>1689.800048828125</ele>
        <time>2026-09-03T05:29:31.000Z</time>
        <extensions>
          <ns3:TrackPointExtension>
            <ns3:hr>108</ns3:hr>
            <ns3:cad>80</ns3:cad>
          </ns3:TrackPointExtension>
        </extensions>
      </trkpt>
      <trkpt lat="44.71708503551781177520751953125" lon="6.73480496741831302642822265625">
        <ele>1689.4000244140625</ele>
        <time>2026-09-03T05:29:32.000Z</time>
        <extensions>
          <ns3:TrackPointExtension>
            <ns3:hr>108</ns3:hr>
            <ns3:cad>81</ns3:cad>
          </ns3:TrackPointExtension>
        </extensions>
      </trkpt>
      <trkpt lat="44.71708185039460659027099609375" lon="6.73483799211680889129638671875">
        <ele>1689.199951171875</ele>
        <time>2026-09-03T05:29:33.000Z</time>
        <extensions>
          <ns3:TrackPointExtension>
            <ns3:hr>109</ns3:hr>
            <ns3:cad>81</ns3:cad>
          </ns3:TrackPointExtension>
        </extensions>
      </trkpt>
      <trkpt lat="44.7170794196426868438720703125" lon="6.73486883752048015594482421875">
        <ele>1688.800048828125</ele>
        <time>2026-09-03T05:29:34.000Z</time>
        <extensions>
          <ns3:TrackPointExtension>
            <ns3:hr>109</ns3:hr>
            <ns3:cad>81</ns3:cad>
          </ns3:TrackPointExtension>
        </extensions>
      </trkpt>
      <trkpt lat="44.71708252094686031341552734375" lon="6.73489146865904331207275390625">
        <ele>1688.5999755859375</ele>
        <time>2026-09-03T05:29:35.000Z</time>
        <extensions>
          <ns3:TrackPointExtension>
            <ns3:hr>109</ns3:hr>
            <ns3:cad>81</ns3:cad>
          </ns3:TrackPointExtension>
        </extensions>
      </trkpt>
      <trkpt lat="44.71707598306238651275634765625" lon="6.7349348030984401702880859375">
        <ele>1688.4000244140625</ele>
        <time>2026-09-03T05:29:36.000Z</time>
        <extensions>
          <ns3:TrackPointExtension>
            <ns3:hr>110</ns3:hr>
            <ns3:cad>81</ns3:cad>
          </ns3:TrackPointExtension>
        </extensions>
      </trkpt>
      <trkpt lat="44.71706491895020008087158203125" lon="6.734959781169891357421875">
        <ele>1688.199951171875</ele>
        <time>2026-09-03T05:29:37.000Z</time>
        <extensions>
          <ns3:TrackPointExtension>
            <ns3:hr>111</ns3:hr>
            <ns3:cad>81</ns3:cad>
          </ns3:TrackPointExtension>
        </extensions>
      </trkpt>
      <trkpt lat="44.717062152922153472900390625" lon="6.73498920165002346038818359375">
        <ele>1688</ele>
        <time>2026-09-03T05:29:38.000Z</time>
        <extensions>
          <ns3:TrackPointExtension>
            <ns3:hr>111</ns3:hr>
            <ns3:cad>81</ns3:cad>
          </ns3:TrackPointExtension>
        </extensions>
      </trkpt>
      <trkpt lat="44.71705921925604343414306640625" lon="6.73501250334084033966064453125">
        <ele>1687.5999755859375</ele>
        <time>2026-09-03T05:29:39.000Z</time>
        <extensions>
          <ns3:TrackPointExtension>
            <ns3:hr>112</ns3:hr>
            <ns3:cad>81</ns3:cad>
          </ns3:TrackPointExtension>
        </extensions>
      </trkpt>
      <trkpt lat="44.71705737523734569549560546875" lon="6.73503379337489604949951171875">
        <ele>1687.4000244140625</ele>
        <time>2026-09-03T05:29:40.000Z</time>
        <extensions>
          <ns3:TrackPointExtension>
            <ns3:hr>112</ns3:hr>
            <ns3:cad>82</ns3:cad>
          </ns3:TrackPointExtension>
        </extensions>
      </trkpt>
      <trkpt lat="44.71706156618893146514892578125" lon="6.73504385165870189666748046875">
        <ele>1687.199951171875</ele>
        <time>2026-09-03T05:29:41.000Z</time>
        <extensions>
          <ns3:TrackPointExtension>
            <ns3:hr>113</ns3:hr>
            <ns3:cad>82</ns3:cad>
          </ns3:TrackPointExtension>
        </extensions>
      </trkpt>
      <trkpt lat="44.7170613147318363189697265625" lon="6.73506748862564563751220703125">
        <ele>1687</ele>
        <time>2026-09-03T05:29:42.000Z</time>
        <extensions>
          <ns3:TrackPointExtension>
            <ns3:hr>113</ns3:hr>
            <ns3:cad>82</ns3:cad>
          </ns3:TrackPointExtension>
        </extensions>
      </trkpt>
      <trkpt lat="44.717058129608631134033203125" lon="6.73509481362998485565185546875">
        <ele>1687</ele>
        <time>2026-09-03T05:29:43.000Z</time>
        <extensions>
          <ns3:TrackPointExtension>
            <ns3:hr>114</ns3:hr>
            <ns3:cad>82</ns3:cad>
          </ns3:TrackPointExtension>
        </extensions>
      </trkpt>
      <trkpt lat="44.71705620177090167999267578125" lon="6.73512364737689495086669921875">
        <ele>1686.800048828125</ele>
        <time>2026-09-03T05:29:44.000Z</time>
        <extensions>
          <ns3:TrackPointExtension>
            <ns3:hr>114</ns3:hr>
            <ns3:cad>82</ns3:cad>
          </ns3:TrackPointExtension>
        </extensions>
      </trkpt>
      <trkpt lat="44.7170546092092990875244140625" lon="6.73514611087739467620849609375">
        <ele>1686.4000244140625</ele>
        <time>2026-09-03T05:29:45.000Z</time>
        <extensions>
          <ns3:TrackPointExtension>
            <ns3:hr>114</ns3:hr>
            <ns3:cad>0</ns3:cad>
          </ns3:TrackPointExtension>
        </extensions>
      </trkpt>
      <trkpt lat="44.7170529328286647796630859375" lon="6.73516170121729373931884765625">
        <ele>1686.199951171875</ele>
        <time>2026-09-03T05:29:46.000Z</time>
        <extensions>
          <ns3:TrackPointExtension>
            <ns3:hr>114</ns3:hr>
            <ns3:cad>0</ns3:cad>
          </ns3:TrackPointExtension>
        </extensions>
      </trkpt>
      <trkpt lat="44.71705712378025054931640625" lon="6.73517444171011447906494140625">
        <ele>1685.800048828125</ele>
        <time>2026-09-03T05:29:47.000Z</time>
        <extensions>
          <ns3:TrackPointExtension>
            <ns3:hr>114</ns3:hr>
            <ns3:cad>71</ns3:cad>
          </ns3:TrackPointExtension>
        </extensions>
      </trkpt>
      <trkpt lat="44.71706248819828033447265625" lon="6.73518818803131580352783203125">
        <ele>1685.4000244140625</ele>
        <time>2026-09-03T05:29:48.000Z</time>
        <extensions>
          <ns3:TrackPointExtension>
            <ns3:hr>114</ns3:hr>
            <ns3:cad>71</ns3:cad>
          </ns3:TrackPointExtension>
        </extensions>
      </trkpt>
      <trkpt lat="44.71706776879727840423583984375" lon="6.73519690521061420440673828125">
        <ele>1685.199951171875</ele>
        <time>2026-09-03T05:29:49.000Z</time>
        <extensions>
          <ns3:TrackPointExtension>
            <ns3:hr>113</ns3:hr>
            <ns3:cad>71</ns3:cad>
          </ns3:TrackPointExtension>
        </extensions>
      </trkpt>
      <trkpt lat="44.71707246266305446624755859375" lon="6.73521123826503753662109375">
        <ele>1684.800048828125</ele>
        <time>2026-09-03T05:29:50.000Z</time>
        <extensions>
          <ns3:TrackPointExtension>
            <ns3:hr>113</ns3:hr>
            <ns3:cad>71</ns3:cad>
          </ns3:TrackPointExtension>
        </extensions>
      </trkpt>
      <trkpt lat="44.71707564778625965118408203125" lon="6.73522531986236572265625">
        <ele>1684.4000244140625</ele>
        <time>2026-09-03T05:29:51.000Z</time>
        <extensions>
          <ns3:TrackPointExtension>
            <ns3:hr>113</ns3:hr>
            <ns3:cad>71</ns3:cad>
          </ns3:TrackPointExtension>
        </extensions>
      </trkpt>
      <trkpt lat="44.71708260476589202880859375" lon="6.735247783362865447998046875">
        <ele>1684.199951171875</ele>
        <time>2026-09-03T05:29:52.000Z</time>
        <extensions>
          <ns3:TrackPointExtension>
            <ns3:hr>113</ns3:hr>
            <ns3:cad>71</ns3:cad>
          </ns3:TrackPointExtension>
        </extensions>
      </trkpt>
      <trkpt lat="44.71708168275654315948486328125" lon="6.735257841646671295166015625">
        <ele>1684</ele>
        <time>2026-09-03T05:29:53.000Z</time>
        <extensions>
          <ns3:TrackPointExtension>
            <ns3:hr>113</ns3:hr>
            <ns3:cad>71</ns3:cad>
          </ns3:TrackPointExtension>
        </extensions>
      </trkpt>
      <trkpt lat="44.71708151511847972869873046875" lon="6.73526563681662082672119140625">
        <ele>1683.5999755859375</ele>
        <time>2026-09-03T05:29:54.000Z</time>
        <extensions>
          <ns3:TrackPointExtension>
            <ns3:hr>114</ns3:hr>
            <ns3:cad>71</ns3:cad>
          </ns3:TrackPointExtension>
        </extensions>
      </trkpt>
      <trkpt lat="44.7170827724039554595947265625" lon="6.7352735996246337890625">
        <ele>1683.4000244140625</ele>
        <time>2026-09-03T05:29:55.000Z</time>
        <extensions>
          <ns3:TrackPointExtension>
            <ns3:hr>114</ns3:hr>
            <ns3:cad>71</ns3:cad>
          </ns3:TrackPointExtension>
        </extensions>
      </trkpt>
      <trkpt lat="44.71708889119327068328857421875" lon="6.73528323881328105926513671875">
        <ele>1683</ele>
        <time>2026-09-03T05:29:56.000Z</time>
        <extensions>
          <ns3:TrackPointExtension>
            <ns3:hr>114</ns3:hr>
            <ns3:cad>71</ns3:cad>
          </ns3:TrackPointExtension>
        </extensions>
      </trkpt>
      <trkpt lat="44.71708788536489009857177734375" lon="6.7353072948753833770751953125">
        <ele>1682.800048828125</ele>
        <time>2026-09-03T05:29:57.000Z</time>
        <extensions>
          <ns3:TrackPointExtension>
            <ns3:hr>114</ns3:hr>
            <ns3:cad>72</ns3:cad>
          </ns3:TrackPointExtension>
        </extensions>
      </trkpt>
      <trkpt lat="44.7170884720981121063232421875" lon="6.7353287525475025177001953125">
        <ele>1682.4000244140625</ele>
        <time>2026-09-03T05:29:58.000Z</time>
        <extensions>
          <ns3:TrackPointExtension>
            <ns3:hr>114</ns3:hr>
            <ns3:cad>73</ns3:cad>
          </ns3:TrackPointExtension>
        </extensions>
      </trkpt>
      <trkpt lat="44.7170864604413509368896484375" lon="6.735351048409938812255859375">
        <ele>1682.199951171875</ele>
        <time>2026-09-03T05:29:59.000Z</time>
        <extensions>
          <ns3:TrackPointExtension>
            <ns3:hr>113</ns3:hr>
            <ns3:cad>77</ns3:cad>
          </ns3:TrackPointExtension>
        </extensions>
      </trkpt>
      <trkpt lat="44.71708738245069980621337890625" lon="6.73537611030042171478271484375">
        <ele>1681.800048828125</ele>
        <time>2026-09-03T05:30:00.000Z</time>
        <extensions>
          <ns3:TrackPointExtension>
            <ns3:hr>113</ns3:hr>
            <ns3:cad>77</ns3:cad>
          </ns3:TrackPointExtension>
        </extensions>
      </trkpt>
      <trkpt lat="44.717090316116809844970703125" lon="6.73539203591644763946533203125">
        <ele>1681.5999755859375</ele>
        <time>2026-09-03T05:30:01.000Z</time>
        <extensions>
          <ns3:TrackPointExtension>
            <ns3:hr>113</ns3:hr>
            <ns3:cad>77</ns3:cad>
          </ns3:TrackPointExtension>
        </extensions>
      </trkpt>
      <trkpt lat="44.71709224395453929901123046875" lon="6.7354085482656955718994140625">
        <ele>1681.199951171875</ele>
        <time>2026-09-03T05:30:02.000Z</time>
        <extensions>
          <ns3:TrackPointExtension>
            <ns3:hr>113</ns3:hr>
            <ns3:cad>76</ns3:cad>
          </ns3:TrackPointExtension>
        </extensions>
      </trkpt>
      <trkpt lat="44.71709207631647586822509765625" lon="6.735428161919116973876953125">
        <ele>1680.800048828125</ele>
        <time>2026-09-03T05:30:03.000Z</time>
        <extensions>
          <ns3:TrackPointExtension>
            <ns3:hr>113</ns3:hr>
            <ns3:cad>76</ns3:cad>
          </ns3:TrackPointExtension>
        </extensions>
      </trkpt>
      <trkpt lat="44.71709475852549076080322265625" lon="6.73545800149440765380859375">
        <ele>1680.5999755859375</ele>
        <time>2026-09-03T05:30:04.000Z</time>
        <extensions>
          <ns3:TrackPointExtension>
            <ns3:hr>113</ns3:hr>
            <ns3:cad>0</ns3:cad>
          </ns3:TrackPointExtension>
        </extensions>
      </trkpt>
      <trkpt lat="44.71709710545837879180908203125" lon="6.73548105172812938690185546875">
        <ele>1680.199951171875</ele>
        <time>2026-09-03T05:30:05.000Z</time>
        <extensions>
          <ns3:TrackPointExtension>
            <ns3:hr>113</ns3:hr>
            <ns3:cad>0</ns3:cad>
          </ns3:TrackPointExtension>
        </extensions>
      </trkpt>
      <trkpt lat="44.717107079923152923583984375" lon="6.73550468869507312774658203125">
        <ele>1679.800048828125</ele>
        <time>2026-09-03T05:30:06.000Z</time>
        <extensions>
          <ns3:TrackPointExtension>
            <ns3:hr>112</ns3:hr>
            <ns3:cad>0</ns3:cad>
          </ns3:TrackPointExtension>
        </extensions>
      </trkpt>
      <trkpt lat="44.717111103236675262451171875" lon="6.73553151078522205352783203125">
        <ele>1679.4000244140625</ele>
        <time>2026-09-03T05:30:07.000Z</time>
        <extensions>
          <ns3:TrackPointExtension>
            <ns3:hr>112</ns3:hr>
            <ns3:cad>0</ns3:cad>
          </ns3:TrackPointExtension>
        </extensions>
      </trkpt>
      <trkpt lat="44.71711571328341960906982421875" lon="6.7355538904666900634765625">
        <ele>1679</ele>
        <time>2026-09-03T05:30:08.000Z</time>
        <extensions>
          <ns3:TrackPointExtension>
            <ns3:hr>112</ns3:hr>
            <ns3:cad>66</ns3:cad>
          </ns3:TrackPointExtension>
        </extensions>
      </trkpt>
      <trkpt lat="44.71711806021630764007568359375" lon="6.73557258211076259613037109375">
        <ele>1678.800048828125</ele>
        <time>2026-09-03T05:30:09.000Z</time>
        <extensions>
          <ns3:TrackPointExtension>
            <ns3:hr>112</ns3:hr>
            <ns3:cad>66</ns3:cad>
          </ns3:TrackPointExtension>
        </extensions>
      </trkpt>
      <trkpt lat="44.717120826244354248046875" lon="6.735586412250995635986328125">
        <ele>1678.5999755859375</ele>
        <time>2026-09-03T05:30:10.000Z</time>
        <extensions>
          <ns3:TrackPointExtension>
            <ns3:hr>113</ns3:hr>
            <ns3:cad>66</ns3:cad>
          </ns3:TrackPointExtension>
        </extensions>
      </trkpt>
      <trkpt lat="44.71712417900562286376953125" lon="6.73560376279056072235107421875">
        <ele>1678.199951171875</ele>
        <time>2026-09-03T05:30:11.000Z</time>
        <extensions>
          <ns3:TrackPointExtension>
            <ns3:hr>113</ns3:hr>
            <ns3:cad>66</ns3:cad>
          </ns3:TrackPointExtension>
        </extensions>
      </trkpt>
      <trkpt lat="44.7171317227184772491455078125" lon="6.7356209456920623779296875">
        <ele>1678</ele>
        <time>2026-09-03T05:30:12.000Z</time>
        <extensions>
          <ns3:TrackPointExtension>
            <ns3:hr>113</ns3:hr>
            <ns3:cad>70</ns3:cad>
          </ns3:TrackPointExtension>
        </extensions>
      </trkpt>
      <trkpt lat="44.71713968552649021148681640625" lon="6.73564148135483264923095703125">
        <ele>1677.800048828125</ele>
        <time>2026-09-03T05:30:13.000Z</time>
        <extensions>
          <ns3:TrackPointExtension>
            <ns3:hr>112</ns3:hr>
            <ns3:cad>70</ns3:cad>
          </ns3:TrackPointExtension>
        </extensions>
      </trkpt>
      <trkpt lat="44.71714806742966175079345703125" lon="6.735654138028621673583984375">
        <ele>1677.5999755859375</ele>
        <time>2026-09-03T05:30:14.000Z</time>
        <extensions>
          <ns3:TrackPointExtension>
            <ns3:hr>112</ns3:hr>
            <ns3:cad>70</ns3:cad>
          </ns3:TrackPointExtension>
        </extensions>
      </trkpt>
      <trkpt lat="44.71715477295219898223876953125" lon="6.73566964454948902130126953125">
        <ele>1677.4000244140625</ele>
        <time>2026-09-03T05:30:15.000Z</time>
        <extensions>
          <ns3:TrackPointExtension>
            <ns3:hr>112</ns3:hr>
            <ns3:cad>79</ns3:cad>
          </ns3:TrackPointExtension>
        </extensions>
      </trkpt>
      <trkpt lat="44.7171645797789096832275390625" lon="6.7356915213167667388916015625">
        <ele>1677</ele>
        <time>2026-09-03T05:30:16.000Z</time>
        <extensions>
          <ns3:TrackPointExtension>
            <ns3:hr>112</ns3:hr>
            <ns3:cad>83</ns3:cad>
          </ns3:TrackPointExtension>
        </extensions>
      </trkpt>
      <trkpt lat="44.71716365776956081390380859375" lon="6.73571691848337650299072265625">
        <ele>1676.5999755859375</ele>
        <time>2026-09-03T05:30:17.000Z</time>
        <extensions>
          <ns3:TrackPointExtension>
            <ns3:hr>113</ns3:hr>
            <ns3:cad>83</ns3:cad>
          </ns3:TrackPointExtension>
        </extensions>
      </trkpt>
      <trkpt lat="44.71716918982565402984619140625" lon="6.73574105836451053619384765625">
        <ele>1676.199951171875</ele>
        <time>2026-09-03T05:30:18.000Z</time>
        <extensions>
          <ns3:TrackPointExtension>
            <ns3:hr>112</ns3:hr>
            <ns3:cad>83</ns3:cad>
          </ns3:TrackPointExtension>
        </extensions>
      </trkpt>
      <trkpt lat="44.71717740409076213836669921875" lon="6.73576176166534423828125">
        <ele>1676</ele>
        <time>2026-09-03T05:30:19.000Z</time>
        <extensions>
          <ns3:TrackPointExtension>
            <ns3:hr>112</ns3:hr>
            <ns3:cad>81</ns3:cad>
          </ns3:TrackPointExtension>
        </extensions>
      </trkpt>
      <trkpt lat="44.71718679182231426239013671875" lon="6.73578397370874881744384765625">
        <ele>1675.800048828125</ele>
        <time>2026-09-03T05:30:20.000Z</time>
        <extensions>
          <ns3:TrackPointExtension>
            <ns3:hr>112</ns3:hr>
            <ns3:cad>81</ns3:cad>
          </ns3:TrackPointExtension>
        </extensions>
      </trkpt>
      <trkpt lat="44.71719324588775634765625" lon="6.735805012285709381103515625">
        <ele>1675.5999755859375</ele>
        <time>2026-09-03T05:30:21.000Z</time>
        <extensions>
          <ns3:TrackPointExtension>
            <ns3:hr>112</ns3:hr>
            <ns3:cad>81</ns3:cad>
          </ns3:TrackPointExtension>
        </extensions>
      </trkpt>
      <trkpt lat="44.71719324588775634765625" lon="6.7358247935771942138671875">
        <ele>1675.4000244140625</ele>
        <time>2026-09-03T05:30:22.000Z</time>
        <extensions>
          <ns3:TrackPointExtension>
            <ns3:hr>111</ns3:hr>
            <ns3:cad>81</ns3:cad>
          </ns3:TrackPointExtension>
        </extensions>
      </trkpt>
      <trkpt lat="44.7171947546303272247314453125" lon="6.7358462512493133544921875">
        <ele>1675</ele>
        <time>2026-09-03T05:30:23.000Z</time>
        <extensions>
          <ns3:TrackPointExtension>
            <ns3:hr>112</ns3:hr>
            <ns3:cad>81</ns3:cad>
          </ns3:TrackPointExtension>
        </extensions>
      </trkpt>
      <trkpt lat="44.717201627790927886962890625" lon="6.73586041666567325592041015625">
        <ele>1674.800048828125</ele>
        <time>2026-09-03T05:30:24.000Z</time>
        <extensions>
          <ns3:TrackPointExtension>
            <ns3:hr>112</ns3:hr>
            <ns3:cad>81</ns3:cad>
          </ns3:TrackPointExtension>
        </extensions>
      </trkpt>
      <trkpt lat="44.71720992587506771087646484375" lon="6.7358786053955554962158203125">
        <ele>1674.4000244140625</ele>
        <time>2026-09-03T05:30:25.000Z</time>
        <extensions>
          <ns3:TrackPointExtension>
            <ns3:hr>112</ns3:hr>
            <ns3:cad>77</ns3:cad>
          </ns3:TrackPointExtension>
        </extensions>
      </trkpt>
      <trkpt lat="44.7172145359218120574951171875" lon="6.73589897342026233673095703125">
        <ele>1674.199951171875</ele>
        <time>2026-09-03T05:30:26.000Z</time>
        <extensions>
          <ns3:TrackPointExtension>
            <ns3:hr>112</ns3:hr>
            <ns3:cad>77</ns3:cad>
          </ns3:TrackPointExtension>
        </extensions>
      </trkpt>
      <trkpt lat="44.717222750186920166015625" lon="6.7359213531017303466796875">
        <ele>1674</ele>
        <time>2026-09-03T05:30:27.000Z</time>
        <extensions>
          <ns3:TrackPointExtension>
            <ns3:hr>112</ns3:hr>
            <ns3:cad>69</ns3:cad>
          </ns3:TrackPointExtension>
        </extensions>
      </trkpt>
      <trkpt lat="44.71723238937556743621826171875" lon="6.7359463311731815338134765625">
        <ele>1674</ele>
        <time>2026-09-03T05:30:28.000Z</time>
        <extensions>
          <ns3:TrackPointExtension>
            <ns3:hr>113</ns3:hr>
            <ns3:cad>69</ns3:cad>
          </ns3:TrackPointExtension>
        </extensions>
      </trkpt>
      <trkpt lat="44.7172406874597072601318359375" lon="6.7359755001962184906005859375">
        <ele>1673.800048828125</ele>
        <time>2026-09-03T05:30:29.000Z</time>
        <extensions>
          <ns3:TrackPointExtension>
            <ns3:hr>113</ns3:hr>
            <ns3:cad>69</ns3:cad>
          </ns3:TrackPointExtension>
        </extensions>
      </trkpt>
      <trkpt lat="44.71724764443933963775634765625" lon="6.73599452711641788482666015625">
        <ele>1673.800048828125</ele>
        <time>2026-09-03T05:30:30.000Z</time>
        <extensions>
          <ns3:TrackPointExtension>
            <ns3:hr>113</ns3:hr>
            <ns3:cad>0</ns3:cad>
          </ns3:TrackPointExtension>
        </extensions>
      </trkpt>
      <trkpt lat="44.71725267358124256134033203125" lon="6.73600475303828716278076171875">
        <ele>1673.5999755859375</ele>
        <time>2026-09-03T05:30:31.000Z</time>
        <extensions>
          <ns3:TrackPointExtension>
            <ns3:hr>113</ns3:hr>
            <ns3:cad>0</ns3:cad>
          </ns3:TrackPointExtension>
        </extensions>
      </trkpt>
      <trkpt lat="44.71726373769342899322509765625" lon="6.73602269031107425689697265625">
        <ele>1673.199951171875</ele>
        <time>2026-09-03T05:30:32.000Z</time>
        <extensions>
          <ns3:TrackPointExtension>
            <ns3:hr>113</ns3:hr>
            <ns3:cad>65</ns3:cad>
          </ns3:TrackPointExtension>
        </extensions>
      </trkpt>
      <trkpt lat="44.7172705270349979400634765625" lon="6.73603777773678302764892578125">
        <ele>1673</ele>
        <time>2026-09-03T05:30:33.000Z</time>
        <extensions>
          <ns3:TrackPointExtension>
            <ns3:hr>112</ns3:hr>
            <ns3:cad>65</ns3:cad>
          </ns3:TrackPointExtension>
        </extensions>
      </trkpt>
      <trkpt lat="44.71727631054818630218505859375" lon="6.73604448325932025909423828125">
        <ele>1672.800048828125</ele>
        <time>2026-09-03T05:30:34.000Z</time>
        <extensions>
          <ns3:TrackPointExtension>
            <ns3:hr>111</ns3:hr>
            <ns3:cad>65</ns3:cad>
          </ns3:TrackPointExtension>
        </extensions>
      </trkpt>
      <trkpt lat="44.71728318370878696441650390625" lon="6.7360586486756801605224609375">
        <ele>1672.5999755859375</ele>
        <time>2026-09-03T05:30:35.000Z</time>
        <extensions>
          <ns3:TrackPointExtension>
            <ns3:hr>110</ns3:hr>
            <ns3:cad>65</ns3:cad>
          </ns3:TrackPointExtension>
        </extensions>
      </trkpt>
      <trkpt lat="44.71729106269776821136474609375" lon="6.73607893288135528564453125">
        <ele>1672.199951171875</ele>
        <time>2026-09-03T05:30:36.000Z</time>
        <extensions>
          <ns3:TrackPointExtension>
            <ns3:hr>110</ns3:hr>
            <ns3:cad>65</ns3:cad>
          </ns3:TrackPointExtension>
        </extensions>
      </trkpt>
      <trkpt lat="44.7172976844012737274169921875" lon="6.736098043620586395263671875">
        <ele>1672</ele>
        <time>2026-09-03T05:30:37.000Z</time>
        <extensions>
          <ns3:TrackPointExtension>
            <ns3:hr>109</ns3:hr>
            <ns3:cad>65</ns3:cad>
          </ns3:TrackPointExtension>
        </extensions>
      </trkpt>
      <trkpt lat="44.717307575047016143798828125" lon="6.7361198365688323974609375">
        <ele>1671.800048828125</ele>
        <time>2026-09-03T05:30:38.000Z</time>
        <extensions>
          <ns3:TrackPointExtension>
            <ns3:hr>109</ns3:hr>
            <ns3:cad>65</ns3:cad>
          </ns3:TrackPointExtension>
        </extensions>
      </trkpt>
      <trkpt lat="44.717320315539836883544921875" lon="6.7361401207745075225830078125">
        <ele>1671.4000244140625</ele>
        <time>2026-09-03T05:30:39.000Z</time>
        <extensions>
          <ns3:TrackPointExtension>
            <ns3:hr>109</ns3:hr>
            <ns3:cad>65</ns3:cad>
          </ns3:TrackPointExtension>
        </extensions>
      </trkpt>
      <trkpt lat="44.71733096055686473846435546875" lon="6.73615537583827972412109375">
        <ele>1671.199951171875</ele>
        <time>2026-09-03T05:30:40.000Z</time>
        <extensions>
          <ns3:TrackPointExtension>
            <ns3:hr>109</ns3:hr>
            <ns3:cad>65</ns3:cad>
          </ns3:TrackPointExtension>
        </extensions>
      </trkpt>
      <trkpt lat="44.7173379175364971160888671875" lon="6.73617104999721050262451171875">
        <ele>1671</ele>
        <time>2026-09-03T05:30:41.000Z</time>
        <extensions>
          <ns3:TrackPointExtension>
            <ns3:hr>109</ns3:hr>
            <ns3:cad>65</ns3:cad>
          </ns3:TrackPointExtension>
        </extensions>
      </trkpt>
      <trkpt lat="44.71734412014484405517578125" lon="6.7361842095851898193359375">
        <ele>1670.5999755859375</ele>
        <time>2026-09-03T05:30:42.000Z</time>
        <extensions>
          <ns3:TrackPointExtension>
            <ns3:hr>109</ns3:hr>
            <ns3:cad>65</ns3:cad>
          </ns3:TrackPointExtension>
        </extensions>
      </trkpt>
      <trkpt lat="44.71734814345836639404296875" lon="6.73619334585964679718017578125">
        <ele>1670.4000244140625</ele>
        <time>2026-09-03T05:30:43.000Z</time>
        <extensions>
          <ns3:TrackPointExtension>
            <ns3:hr>108</ns3:hr>
            <ns3:cad>65</ns3:cad>
          </ns3:TrackPointExtension>
        </extensions>
      </trkpt>
      <trkpt lat="44.71735426224768161773681640625" lon="6.73620340414345264434814453125">
        <ele>1670.199951171875</ele>
        <time>2026-09-03T05:30:44.000Z</time>
        <extensions>
          <ns3:TrackPointExtension>
            <ns3:hr>108</ns3:hr>
            <ns3:cad>65</ns3:cad>
          </ns3:TrackPointExtension>
        </extensions>
      </trkpt>
      <trkpt lat="44.71736549399793148040771484375" lon="6.736237518489360809326171875">
        <ele>1670</ele>
        <time>2026-09-03T05:30:45.000Z</time>
        <extensions>
          <ns3:TrackPointExtension>
            <ns3:hr>108</ns3:hr>
            <ns3:cad>65</ns3:cad>
          </ns3:TrackPointExtension>
        </extensions>
      </trkpt>
      <trkpt lat="44.7173731215298175811767578125" lon="6.7362594790756702423095703125">
        <ele>1669.5999755859375</ele>
        <time>2026-09-03T05:30:46.000Z</time>
        <extensions>
          <ns3:TrackPointExtension>
            <ns3:hr>108</ns3:hr>
            <ns3:cad>65</ns3:cad>
          </ns3:TrackPointExtension>
        </extensions>
      </trkpt>
      <trkpt lat="44.71738426946103572845458984375" lon="6.7362762428820133209228515625">
        <ele>1669.199951171875</ele>
        <time>2026-09-03T05:30:47.000Z</time>
        <extensions>
          <ns3:TrackPointExtension>
            <ns3:hr>108</ns3:hr>
            <ns3:cad>65</ns3:cad>
          </ns3:TrackPointExtension>
        </extensions>
      </trkpt>
      <trkpt lat="44.71738837659358978271484375" lon="6.736285127699375152587890625">
        <ele>1669</ele>
        <time>2026-09-03T05:30:48.000Z</time>
        <extensions>
          <ns3:TrackPointExtension>
            <ns3:hr>107</ns3:hr>
            <ns3:cad>65</ns3:cad>
          </ns3:TrackPointExtension>
        </extensions>
      </trkpt>
      <trkpt lat="44.717394746840000152587890625" lon="6.7362977005541324615478515625">
        <ele>1668.800048828125</ele>
        <time>2026-09-03T05:30:49.000Z</time>
        <extensions>
          <ns3:TrackPointExtension>
            <ns3:hr>107</ns3:hr>
            <ns3:cad>65</ns3:cad>
          </ns3:TrackPointExtension>
        </extensions>
      </trkpt>
      <trkpt lat="44.71740338020026683807373046875" lon="6.73631689511239528656005859375">
        <ele>1668.4000244140625</ele>
        <time>2026-09-03T05:30:50.000Z</time>
        <extensions>
          <ns3:TrackPointExtension>
            <ns3:hr>107</ns3:hr>
            <ns3:cad>65</ns3:cad>
          </ns3:TrackPointExtension>
        </extensions>
      </trkpt>
      <trkpt lat="44.71741310320794582366943359375" lon="6.736331395804882049560546875">
        <ele>1668.199951171875</ele>
        <time>2026-09-03T05:30:51.000Z</time>
        <extensions>
          <ns3:TrackPointExtension>
            <ns3:hr>107</ns3:hr>
            <ns3:cad>65</ns3:cad>
          </ns3:TrackPointExtension>
        </extensions>
      </trkpt>
      <trkpt lat="44.71742324531078338623046875" lon="6.736345477402210235595703125">
        <ele>1668</ele>
        <time>2026-09-03T05:30:52.000Z</time>
        <extensions>
          <ns3:TrackPointExtension>
            <ns3:hr>106</ns3:hr>
            <ns3:cad>65</ns3:cad>
          </ns3:TrackPointExtension>
        </extensions>
      </trkpt>
      <trkpt lat="44.71743087284266948699951171875" lon="6.7363577149808406829833984375">
        <ele>1667.800048828125</ele>
        <time>2026-09-03T05:30:53.000Z</time>
        <extensions>
          <ns3:TrackPointExtension>
            <ns3:hr>106</ns3:hr>
            <ns3:cad>65</ns3:cad>
          </ns3:TrackPointExtension>
        </extensions>
      </trkpt>
      <trkpt lat="44.717439003288745880126953125" lon="6.73637422733008861541748046875">
        <ele>1667.5999755859375</ele>
        <time>2026-09-03T05:30:54.000Z</time>
        <extensions>
          <ns3:TrackPointExtension>
            <ns3:hr>106</ns3:hr>
            <ns3:cad>65</ns3:cad>
          </ns3:TrackPointExtension>
        </extensions>
      </trkpt>
      <trkpt lat="44.71745015121996402740478515625" lon="6.73639451153576374053955078125">
        <ele>1667.199951171875</ele>
        <time>2026-09-03T05:30:55.000Z</time>
        <extensions>
          <ns3:TrackPointExtension>
            <ns3:hr>106</ns3:hr>
            <ns3:cad>0</ns3:cad>
          </ns3:TrackPointExtension>
        </extensions>
      </trkpt>
      <trkpt lat="44.717459790408611297607421875" lon="6.73640909604728221893310546875">
        <ele>1667</ele>
        <time>2026-09-03T05:30:56.000Z</time>
        <extensions>
          <ns3:TrackPointExtension>
            <ns3:hr>106</ns3:hr>
            <ns3:cad>0</ns3:cad>
          </ns3:TrackPointExtension>
        </extensions>
      </trkpt>
      <trkpt lat="44.7174693457782268524169921875" lon="6.73642921261489391326904296875">
        <ele>1666.800048828125</ele>
        <time>2026-09-03T05:30:57.000Z</time>
        <extensions>
          <ns3:TrackPointExtension>
            <ns3:hr>106</ns3:hr>
            <ns3:cad>0</ns3:cad>
          </ns3:TrackPointExtension>
        </extensions>
      </trkpt>
      <trkpt lat="44.71747730858623981475830078125" lon="6.73644966445863246917724609375">
        <ele>1666.4000244140625</ele>
        <time>2026-09-03T05:30:58.000Z</time>
        <extensions>
          <ns3:TrackPointExtension>
            <ns3:hr>105</ns3:hr>
            <ns3:cad>0</ns3:cad>
          </ns3:TrackPointExtension>
        </extensions>
      </trkpt>
      <trkpt lat="44.71748099662363529205322265625" lon="6.73646810464560985565185546875">
        <ele>1666</ele>
        <time>2026-09-03T05:30:59.000Z</time>
        <extensions>
          <ns3:TrackPointExtension>
            <ns3:hr>105</ns3:hr>
            <ns3:cad>0</ns3:cad>
          </ns3:TrackPointExtension>
        </extensions>
      </trkpt>
      <trkpt lat="44.717485941946506500244140625" lon="6.73648704774677753448486328125">
        <ele>1665.800048828125</ele>
        <time>2026-09-03T05:31:00.000Z</time>
        <extensions>
          <ns3:TrackPointExtension>
            <ns3:hr>104</ns3:hr>
            <ns3:cad>0</ns3:cad>
          </ns3:TrackPointExtension>
        </extensions>
      </trkpt>
      <trkpt lat="44.7174918092787265777587890625" lon="6.73650406301021575927734375">
        <ele>1665.4000244140625</ele>
        <time>2026-09-03T05:31:01.000Z</time>
        <extensions>
          <ns3:TrackPointExtension>
            <ns3:hr>104</ns3:hr>
            <ns3:cad>0</ns3:cad>
          </ns3:TrackPointExtension>
        </extensions>
      </trkpt>
      <trkpt lat="44.717494659125804901123046875" lon="6.7365181446075439453125">
        <ele>1665</ele>
        <time>2026-09-03T05:31:02.000Z</time>
        <extensions>
          <ns3:TrackPointExtension>
            <ns3:hr>104</ns3:hr>
            <ns3:cad>0</ns3:cad>
          </ns3:TrackPointExtension>
        </extensions>
      </trkpt>
      <trkpt lat="44.71749792806804180145263671875" lon="6.73653868027031421661376953125">
        <ele>1664.800048828125</ele>
        <time>2026-09-03T05:31:03.000Z</time>
        <extensions>
          <ns3:TrackPointExtension>
            <ns3:hr>104</ns3:hr>
            <ns3:cad>0</ns3:cad>
          </ns3:TrackPointExtension>
        </extensions>
      </trkpt>
      <trkpt lat="44.717491306364536285400390625" lon="6.73655896447598934173583984375">
        <ele>1664.4000244140625</ele>
        <time>2026-09-03T05:31:04.000Z</time>
        <extensions>
          <ns3:TrackPointExtension>
            <ns3:hr>103</ns3:hr>
            <ns3:cad>0</ns3:cad>
          </ns3:TrackPointExtension>
        </extensions>
      </trkpt>
      <trkpt lat="44.71746993251144886016845703125" lon="6.7365618981420993804931640625">
        <ele>1664.199951171875</ele>
        <time>2026-09-03T05:31:05.000Z</time>
        <extensions>
          <ns3:TrackPointExtension>
            <ns3:hr>103</ns3:hr>
            <ns3:cad>0</ns3:cad>
          </ns3:TrackPointExtension>
        </extensions>
      </trkpt>
      <trkpt lat="44.71744562499225139617919921875" lon="6.7365618981420993804931640625">
        <ele>1663.800048828125</ele>
        <time>2026-09-03T05:31:06.000Z</time>
        <extensions>
          <ns3:TrackPointExtension>
            <ns3:hr>103</ns3:hr>
            <ns3:cad>0</ns3:cad>
          </ns3:TrackPointExtension>
        </extensions>
      </trkpt>
      <trkpt lat="44.7174338065087795257568359375" lon="6.73655175603926181793212890625">
        <ele>1663.4000244140625</ele>
        <time>2026-09-03T05:31:07.000Z</time>
        <extensions>
          <ns3:TrackPointExtension>
            <ns3:hr>102</ns3:hr>
            <ns3:cad>0</ns3:cad>
          </ns3:TrackPointExtension>
        </extensions>
      </trkpt>
      <trkpt lat="44.71742131747305393218994140625" lon="6.736538596451282501220703125">
        <ele>1663.199951171875</ele>
        <time>2026-09-03T05:31:08.000Z</time>
        <extensions>
          <ns3:TrackPointExtension>
            <ns3:hr>102</ns3:hr>
            <ns3:cad>0</ns3:cad>
          </ns3:TrackPointExtension>
        </extensions>
      </trkpt>
      <trkpt lat="44.7174083255231380462646484375" lon="6.73652091063559055328369140625">
        <ele>1662.800048828125</ele>
        <time>2026-09-03T05:31:09.000Z</time>
        <extensions>
          <ns3:TrackPointExtension>
            <ns3:hr>102</ns3:hr>
            <ns3:cad>0</ns3:cad>
          </ns3:TrackPointExtension>
        </extensions>
      </trkpt>
      <trkpt lat="44.7173945792019367218017578125" lon="6.73650934360921382904052734375">
        <ele>1662.4000244140625</ele>
        <time>2026-09-03T05:31:10.000Z</time>
        <extensions>
          <ns3:TrackPointExtension>
            <ns3:hr>102</ns3:hr>
            <ns3:cad>0</ns3:cad>
          </ns3:TrackPointExtension>
        </extensions>
      </trkpt>
      <trkpt lat="44.7173794917762279510498046875" lon="6.73649542964994907379150390625">
        <ele>1662</ele>
        <time>2026-09-03T05:31:11.000Z</time>
        <extensions>
          <ns3:TrackPointExtension>
            <ns3:hr>102</ns3:hr>
            <ns3:cad>0</ns3:cad>
          </ns3:TrackPointExtension>
        </extensions>
      </trkpt>
      <trkpt lat="44.7173747979104518890380859375" lon="6.73649760894477367401123046875">
        <ele>1661.800048828125</ele>
        <time>2026-09-03T05:31:12.000Z</time>
        <extensions>
          <ns3:TrackPointExtension>
            <ns3:hr>102</ns3:hr>
            <ns3:cad>0</ns3:cad>
          </ns3:TrackPointExtension>
        </extensions>
      </trkpt>
      <trkpt lat="44.7173570282757282257080078125" lon="6.73649593256413936614990234375">
        <ele>1661.4000244140625</ele>
        <time>2026-09-03T05:31:13.000Z</time>
        <extensions>
          <ns3:TrackPointExtension>
            <ns3:hr>102</ns3:hr>
            <ns3:cad>0</ns3:cad>
          </ns3:TrackPointExtension>
        </extensions>
      </trkpt>
      <trkpt lat="44.71734755672514438629150390625" lon="6.73650129698216915130615234375">
        <ele>1661</ele>
        <time>2026-09-03T05:31:14.000Z</time>
        <extensions>
          <ns3:TrackPointExtension>
            <ns3:hr>102</ns3:hr>
            <ns3:cad>0</ns3:cad>
          </ns3:TrackPointExtension>
        </extensions>
      </trkpt>
      <trkpt lat="44.71733598969876766204833984375" lon="6.736499369144439697265625">
        <ele>1660.5999755859375</ele>
        <time>2026-09-03T05:31:15.000Z</time>
        <extensions>
          <ns3:TrackPointExtension>
            <ns3:hr>101</ns3:hr>
            <ns3:cad>0</ns3:cad>
          </ns3:TrackPointExtension>
        </extensions>
      </trkpt>
      <trkpt lat="44.71732534468173980712890625" lon="6.73650146462023258209228515625">
        <ele>1660.4000244140625</ele>
        <time>2026-09-03T05:31:16.000Z</time>
        <extensions>
          <ns3:TrackPointExtension>
            <ns3:hr>102</ns3:hr>
            <ns3:cad>0</ns3:cad>
          </ns3:TrackPointExtension>
        </extensions>
      </trkpt>
      <trkpt lat="44.7173141129314899444580078125" lon="6.7365055717527866363525390625">
        <ele>1660</ele>
        <time>2026-09-03T05:31:17.000Z</time>
        <extensions>
          <ns3:TrackPointExtension>
            <ns3:hr>101</ns3:hr>
            <ns3:cad>0</ns3:cad>
          </ns3:TrackPointExtension>
        </extensions>
      </trkpt>
      <trkpt lat="44.71730061806738376617431640625" lon="6.73649895004928112030029296875">
        <ele>1659.800048828125</ele>
        <time>2026-09-03T05:31:18.000Z</time>
        <extensions>
          <ns3:TrackPointExtension>
            <ns3:hr>102</ns3:hr>
            <ns3:cad>0</ns3:cad>
          </ns3:TrackPointExtension>
        </extensions>
      </trkpt>
      <trkpt lat="44.7172869555652141571044921875" lon="6.73649132251739501953125">
        <ele>1659.4000244140625</ele>
        <time>2026-09-03T05:31:19.000Z</time>
        <extensions>
          <ns3:TrackPointExtension>
            <ns3:hr>102</ns3:hr>
            <ns3:cad>0</ns3:cad>
          </ns3:TrackPointExtension>
        </extensions>
      </trkpt>
      <trkpt lat="44.7172768972814083099365234375" lon="6.736483611166477203369140625">
        <ele>1659.199951171875</ele>
        <time>2026-09-03T05:31:20.000Z</time>
        <extensions>
          <ns3:TrackPointExtension>
            <ns3:hr>101</ns3:hr>
            <ns3:cad>0</ns3:cad>
          </ns3:TrackPointExtension>
        </extensions>
      </trkpt>
      <trkpt lat="44.71727496944367885589599609375" lon="6.73648050986230373382568359375">
        <ele>1658.800048828125</ele>
        <time>2026-09-03T05:31:21.000Z</time>
        <extensions>
          <ns3:TrackPointExtension>
            <ns3:hr>101</ns3:hr>
            <ns3:cad>0</ns3:cad>
          </ns3:TrackPointExtension>
        </extensions>
      </trkpt>
      <trkpt lat="44.717260301113128662109375" lon="6.73647430725395679473876953125">
        <ele>1658.4000244140625</ele>
        <time>2026-09-03T05:31:22.000Z</time>
        <extensions>
          <ns3:TrackPointExtension>
            <ns3:hr>101</ns3:hr>
            <ns3:cad>0</ns3:cad>
          </ns3:TrackPointExtension>
        </extensions>
      </trkpt>
      <trkpt lat="44.7172410227358341217041015625" lon="6.73646709881722927093505859375">
        <ele>1658.199951171875</ele>
        <time>2026-09-03T05:31:23.000Z</time>
        <extensions>
          <ns3:TrackPointExtension>
            <ns3:hr>101</ns3:hr>
            <ns3:cad>0</ns3:cad>
          </ns3:TrackPointExtension>
        </extensions>
      </trkpt>
      <trkpt lat="44.71722476184368133544921875" lon="6.736469529569149017333984375">
        <ele>1657.5999755859375</ele>
        <time>2026-09-03T05:31:24.000Z</time>
        <extensions>
          <ns3:TrackPointExtension>
            <ns3:hr>100</ns3:hr>
            <ns3:cad>73</ns3:cad>
          </ns3:TrackPointExtension>
        </extensions>
      </trkpt>
      <trkpt lat="44.7172098420560359954833984375" lon="6.73646986484527587890625">
        <ele>1657.199951171875</ele>
        <time>2026-09-03T05:31:25.000Z</time>
        <extensions>
          <ns3:TrackPointExtension>
            <ns3:hr>100</ns3:hr>
            <ns3:cad>73</ns3:cad>
          </ns3:TrackPointExtension>
        </extensions>
      </trkpt>
      <trkpt lat="44.7171920724213123321533203125" lon="6.73646978102624416351318359375">
        <ele>1657</ele>
        <time>2026-09-03T05:31:26.000Z</time>
        <extensions>
          <ns3:TrackPointExtension>
            <ns3:hr>100</ns3:hr>
            <ns3:cad>73</ns3:cad>
          </ns3:TrackPointExtension>
        </extensions>
      </trkpt>
      <trkpt lat="44.71717514097690582275390625" lon="6.73646525479853153228759765625">
        <ele>1656.5999755859375</ele>
        <time>2026-09-03T05:31:27.000Z</time>
        <extensions>
          <ns3:TrackPointExtension>
            <ns3:hr>100</ns3:hr>
            <ns3:cad>70</ns3:cad>
          </ns3:TrackPointExtension>
        </extensions>
      </trkpt>
      <trkpt lat="44.7171582095324993133544921875" lon="6.73646223731338977813720703125">
        <ele>1656.199951171875</ele>
        <time>2026-09-03T05:31:28.000Z</time>
        <extensions>
          <ns3:TrackPointExtension>
            <ns3:hr>100</ns3:hr>
            <ns3:cad>70</ns3:cad>
          </ns3:TrackPointExtension>
        </extensions>
      </trkpt>
      <trkpt lat="44.717145301401615142822265625" lon="6.73647229559719562530517578125">
        <ele>1655.800048828125</ele>
        <time>2026-09-03T05:31:29.000Z</time>
        <extensions>
          <ns3:TrackPointExtension>
            <ns3:hr>100</ns3:hr>
            <ns3:cad>70</ns3:cad>
          </ns3:TrackPointExtension>
        </extensions>
      </trkpt>
      <trkpt lat="44.71713046543300151824951171875" lon="6.73648386262357234954833984375">
        <ele>1655.5999755859375</ele>
        <time>2026-09-03T05:31:30.000Z</time>
        <extensions>
          <ns3:TrackPointExtension>
            <ns3:hr>100</ns3:hr>
            <ns3:cad>70</ns3:cad>
          </ns3:TrackPointExtension>
        </extensions>
      </trkpt>
      <trkpt lat="44.7171206586062908172607421875" lon="6.7365005426108837127685546875">
        <ele>1655.5999755859375</ele>
        <time>2026-09-03T05:31:31.000Z</time>
        <extensions>
          <ns3:TrackPointExtension>
            <ns3:hr>100</ns3:hr>
            <ns3:cad>70</ns3:cad>
          </ns3:TrackPointExtension>
        </extensions>
      </trkpt>
      <trkpt lat="44.7171102650463581085205078125" lon="6.73651386983692646026611328125">
        <ele>1655.4000244140625</ele>
        <time>2026-09-03T05:31:32.000Z</time>
        <extensions>
          <ns3:TrackPointExtension>
            <ns3:hr>100</ns3:hr>
            <ns3:cad>70</ns3:cad>
          </ns3:TrackPointExtension>
        </extensions>
      </trkpt>
      <trkpt lat="44.71711001358926296234130859375" lon="6.7365220002830028533935546875">
        <ele>1655.4000244140625</ele>
        <time>2026-09-03T05:31:33.000Z</time>
        <extensions>
          <ns3:TrackPointExtension>
            <ns3:hr>100</ns3:hr>
            <ns3:cad>65</ns3:cad>
          </ns3:TrackPointExtension>
        </extensions>
      </trkpt>
      <trkpt lat="44.7171075828373432159423828125" lon="6.7365283705294132232666015625">
        <ele>1655.5999755859375</ele>
        <time>2026-09-03T05:31:34.000Z</time>
        <extensions>
          <ns3:TrackPointExtension>
            <ns3:hr>98</ns3:hr>
            <ns3:cad>65</ns3:cad>
          </ns3:TrackPointExtension>
        </extensions>
      </trkpt>
      <trkpt lat="44.7171035595238208770751953125" lon="6.73655024729669094085693359375">
        <ele>1655.5999755859375</ele>
        <time>2026-09-03T05:31:35.000Z</time>
        <extensions>
          <ns3:TrackPointExtension>
            <ns3:hr>98</ns3:hr>
            <ns3:cad>68</ns3:cad>
          </ns3:TrackPointExtension>
        </extensions>
      </trkpt>
      <trkpt lat="44.71710079349577426910400390625" lon="6.7365719564259052276611328125">
        <ele>1655.4000244140625</ele>
        <time>2026-09-03T05:31:36.000Z</time>
        <extensions>
          <ns3:TrackPointExtension>
            <ns3:hr>98</ns3:hr>
            <ns3:cad>68</ns3:cad>
          </ns3:TrackPointExtension>
        </extensions>
      </trkpt>
      <trkpt lat="44.71709928475320339202880859375" lon="6.7365934140980243682861328125">
        <ele>1655.199951171875</ele>
        <time>2026-09-03T05:31:37.000Z</time>
        <extensions>
          <ns3:TrackPointExtension>
            <ns3:hr>97</ns3:hr>
            <ns3:cad>68</ns3:cad>
          </ns3:TrackPointExtension>
        </extensions>
      </trkpt>
      <trkpt lat="44.71710280515253543853759765625" lon="6.73661629669368267059326171875">
        <ele>1655</ele>
        <time>2026-09-03T05:31:38.000Z</time>
        <extensions>
          <ns3:TrackPointExtension>
            <ns3:hr>97</ns3:hr>
            <ns3:cad>71</ns3:cad>
          </ns3:TrackPointExtension>
        </extensions>
      </trkpt>
      <trkpt lat="44.71710867248475551605224609375" lon="6.73662803135812282562255859375">
        <ele>1654.5999755859375</ele>
        <time>2026-09-03T05:31:39.000Z</time>
        <extensions>
          <ns3:TrackPointExtension>
            <ns3:hr>97</ns3:hr>
            <ns3:cad>71</ns3:cad>
          </ns3:TrackPointExtension>
        </extensions>
      </trkpt>
      <trkpt lat="44.7171132825314998626708984375" lon="6.73664848320186138153076171875">
        <ele>1654.199951171875</ele>
        <time>2026-09-03T05:31:40.000Z</time>
        <extensions>
          <ns3:TrackPointExtension>
            <ns3:hr>96</ns3:hr>
            <ns3:cad>71</ns3:cad>
          </ns3:TrackPointExtension>
        </extensions>
      </trkpt>
      <trkpt lat="44.71711906604468822479248046875" lon="6.736660301685333251953125">
        <ele>1653.5999755859375</ele>
        <time>2026-09-03T05:31:41.000Z</time>
        <extensions>
          <ns3:TrackPointExtension>
            <ns3:hr>96</ns3:hr>
            <ns3:cad>71</ns3:cad>
          </ns3:TrackPointExtension>
        </extensions>
      </trkpt>
      <trkpt lat="44.7171275317668914794921875" lon="6.736675389111042022705078125">
        <ele>1653.199951171875</ele>
        <time>2026-09-03T05:31:42.000Z</time>
        <extensions>
          <ns3:TrackPointExtension>
            <ns3:hr>96</ns3:hr>
            <ns3:cad>83</ns3:cad>
          </ns3:TrackPointExtension>
        </extensions>
      </trkpt>
      <trkpt lat="44.71713415347039699554443359375" lon="6.73669139854609966278076171875">
        <ele>1653</ele>
        <time>2026-09-03T05:31:43.000Z</time>
        <extensions>
          <ns3:TrackPointExtension>
            <ns3:hr>97</ns3:hr>
            <ns3:cad>83</ns3:cad>
          </ns3:TrackPointExtension>
        </extensions>
      </trkpt>
      <trkpt lat="44.71713817678391933441162109375" lon="6.73670631833374500274658203125">
        <ele>1652.5999755859375</ele>
        <time>2026-09-03T05:31:44.000Z</time>
        <extensions>
          <ns3:TrackPointExtension>
            <ns3:hr>96</ns3:hr>
            <ns3:cad>83</ns3:cad>
          </ns3:TrackPointExtension>
        </extensions>
      </trkpt>
      <trkpt lat="44.71714572049677371978759765625" lon="6.736717633903026580810546875">
        <ele>1652.4000244140625</ele>
        <time>2026-09-03T05:31:45.000Z</time>
        <extensions>
          <ns3:TrackPointExtension>
            <ns3:hr>96</ns3:hr>
            <ns3:cad>83</ns3:cad>
          </ns3:TrackPointExtension>
        </extensions>
      </trkpt>
      <trkpt lat="44.717160053551197052001953125" lon="6.7367359064519405364990234375">
        <ele>1652</ele>
        <time>2026-09-03T05:31:46.000Z</time>
        <extensions>
          <ns3:TrackPointExtension>
            <ns3:hr>96</ns3:hr>
            <ns3:cad>83</ns3:cad>
          </ns3:TrackPointExtension>
        </extensions>
      </trkpt>
      <trkpt lat="44.71718343906104564666748046875" lon="6.7367395944893360137939453125">
        <ele>1651.5999755859375</ele>
        <time>2026-09-03T05:31:47.000Z</time>
        <extensions>
          <ns3:TrackPointExtension>
            <ns3:hr>97</ns3:hr>
            <ns3:cad>83</ns3:cad>
          </ns3:TrackPointExtension>
        </extensions>
      </trkpt>
      <trkpt lat="44.7171997837722301483154296875" lon="6.7367483116686344146728515625">
        <ele>1651.4000244140625</ele>
        <time>2026-09-03T05:31:48.000Z</time>
        <extensions>
          <ns3:TrackPointExtension>
            <ns3:hr>97</ns3:hr>
            <ns3:cad>83</ns3:cad>
          </ns3:TrackPointExtension>
        </extensions>
      </trkpt>
      <trkpt lat="44.7172101773321628570556640625" lon="6.7367555201053619384765625">
        <ele>1651</ele>
        <time>2026-09-03T05:31:49.000Z</time>
        <extensions>
          <ns3:TrackPointExtension>
            <ns3:hr>97</ns3:hr>
            <ns3:cad>83</ns3:cad>
          </ns3:TrackPointExtension>
        </extensions>
      </trkpt>
      <trkpt lat="44.7172168828547000885009765625" lon="6.73676163889467716217041015625">
        <ele>1650.5999755859375</ele>
        <time>2026-09-03T05:31:50.000Z</time>
        <extensions>
          <ns3:TrackPointExtension>
            <ns3:hr>98</ns3:hr>
            <ns3:cad>71</ns3:cad>
          </ns3:TrackPointExtension>
        </extensions>
      </trkpt>
      <trkpt lat="44.7172282822430133819580078125" lon="6.73677706159651279449462890625">
        <ele>1650.4000244140625</ele>
        <time>2026-09-03T05:31:51.000Z</time>
        <extensions>
          <ns3:TrackPointExtension>
            <ns3:hr>99</ns3:hr>
            <ns3:cad>70</ns3:cad>
          </ns3:TrackPointExtension>
        </extensions>
      </trkpt>
      <trkpt lat="44.71723993308842182159423828125" lon="6.73678628169000148773193359375">
        <ele>1650</ele>
        <time>2026-09-03T05:31:52.000Z</time>
        <extensions>
          <ns3:TrackPointExtension>
            <ns3:hr>99</ns3:hr>
            <ns3:cad>70</ns3:cad>
          </ns3:TrackPointExtension>
        </extensions>
      </trkpt>
      <trkpt lat="44.71725535579025745391845703125" lon="6.73679332248866558074951171875">
        <ele>1649.800048828125</ele>
        <time>2026-09-03T05:31:53.000Z</time>
        <extensions>
          <ns3:TrackPointExtension>
            <ns3:hr>99</ns3:hr>
            <ns3:cad>70</ns3:cad>
          </ns3:TrackPointExtension>
        </extensions>
      </trkpt>
      <trkpt lat="44.7172641567885875701904296875" lon="6.73679818399250507354736328125">
        <ele>1649.4000244140625</ele>
        <time>2026-09-03T05:31:54.000Z</time>
        <extensions>
          <ns3:TrackPointExtension>
            <ns3:hr>99</ns3:hr>
            <ns3:cad>70</ns3:cad>
          </ns3:TrackPointExtension>
        </extensions>
      </trkpt>
      <trkpt lat="44.71726767718791961669921875" lon="6.73681251704692840576171875">
        <ele>1649</ele>
        <time>2026-09-03T05:31:55.000Z</time>
        <extensions>
          <ns3:TrackPointExtension>
            <ns3:hr>98</ns3:hr>
            <ns3:cad>70</ns3:cad>
          </ns3:TrackPointExtension>
        </extensions>
      </trkpt>
      <trkpt lat="44.71726893447339534759521484375" lon="6.7368230782449245452880859375">
        <ele>1648.800048828125</ele>
        <time>2026-09-03T05:31:56.000Z</time>
        <extensions>
          <ns3:TrackPointExtension>
            <ns3:hr>98</ns3:hr>
            <ns3:cad>71</ns3:cad>
          </ns3:TrackPointExtension>
        </extensions>
      </trkpt>
      <trkpt lat="44.71726859919726848602294921875" lon="6.736833639442920684814453125">
        <ele>1648.4000244140625</ele>
        <time>2026-09-03T05:31:57.000Z</time>
        <extensions>
          <ns3:TrackPointExtension>
            <ns3:hr>98</ns3:hr>
            <ns3:cad>71</ns3:cad>
          </ns3:TrackPointExtension>
        </extensions>
      </trkpt>
      <trkpt lat="44.717270694673061370849609375" lon="6.73684344626963138580322265625">
        <ele>1648.199951171875</ele>
        <time>2026-09-03T05:31:58.000Z</time>
        <extensions>
          <ns3:TrackPointExtension>
            <ns3:hr>97</ns3:hr>
            <ns3:cad>71</ns3:cad>
          </ns3:TrackPointExtension>
        </extensions>
      </trkpt>
      <trkpt lat="44.71727614291012287139892578125" lon="6.73685635440051555633544921875">
        <ele>1647.800048828125</ele>
        <time>2026-09-03T05:31:59.000Z</time>
        <extensions>
          <ns3:TrackPointExtension>
            <ns3:hr>97</ns3:hr>
            <ns3:cad>71</ns3:cad>
          </ns3:TrackPointExtension>
        </extensions>
      </trkpt>
      <trkpt lat="44.71727974712848663330078125" lon="6.73687714152038097381591796875">
        <ele>1647.4000244140625</ele>
        <time>2026-09-03T05:32:00.000Z</time>
        <extensions>
          <ns3:TrackPointExtension>
            <ns3:hr>97</ns3:hr>
            <ns3:cad>71</ns3:cad>
          </ns3:TrackPointExtension>
        </extensions>
      </trkpt>
      <trkpt lat="44.71728150732815265655517578125" lon="6.7368938215076923370361328125">
        <ele>1647</ele>
        <time>2026-09-03T05:32:01.000Z</time>
        <extensions>
          <ns3:TrackPointExtension>
            <ns3:hr>97</ns3:hr>
            <ns3:cad>71</ns3:cad>
          </ns3:TrackPointExtension>
        </extensions>
      </trkpt>
      <trkpt lat="44.71728779375553131103515625" lon="6.73690974712371826171875">
        <ele>1646.800048828125</ele>
        <time>2026-09-03T05:32:02.000Z</time>
        <extensions>
          <ns3:TrackPointExtension>
            <ns3:hr>97</ns3:hr>
            <ns3:cad>71</ns3:cad>
          </ns3:TrackPointExtension>
        </extensions>
      </trkpt>
      <trkpt lat="44.7172960080206394195556640625" lon="6.736925505101680755615234375">
        <ele>1646.4000244140625</ele>
        <time>2026-09-03T05:32:03.000Z</time>
        <extensions>
          <ns3:TrackPointExtension>
            <ns3:hr>97</ns3:hr>
            <ns3:cad>71</ns3:cad>
          </ns3:TrackPointExtension>
        </extensions>
      </trkpt>
      <trkpt lat="44.71730346791446208953857421875" lon="6.73694352619349956512451171875">
        <ele>1646.199951171875</ele>
        <time>2026-09-03T05:32:04.000Z</time>
        <extensions>
          <ns3:TrackPointExtension>
            <ns3:hr>98</ns3:hr>
            <ns3:cad>71</ns3:cad>
          </ns3:TrackPointExtension>
        </extensions>
      </trkpt>
      <trkpt lat="44.717308245599269866943359375" lon="6.7369608767330646514892578125">
        <ele>1645.800048828125</ele>
        <time>2026-09-03T05:32:05.000Z</time>
        <extensions>
          <ns3:TrackPointExtension>
            <ns3:hr>99</ns3:hr>
            <ns3:cad>73</ns3:cad>
          </ns3:TrackPointExtension>
        </extensions>
      </trkpt>
      <trkpt lat="44.7173152863979339599609375" lon="6.7369819991290569305419921875">
        <ele>1645.5999755859375</ele>
        <time>2026-09-03T05:32:06.000Z</time>
        <extensions>
          <ns3:TrackPointExtension>
            <ns3:hr>99</ns3:hr>
            <ns3:cad>75</ns3:cad>
          </ns3:TrackPointExtension>
        </extensions>
      </trkpt>
      <trkpt lat="44.71731721423566341400146484375" lon="6.736996583640575408935546875">
        <ele>1645.4000244140625</ele>
        <time>2026-09-03T05:32:07.000Z</time>
        <extensions>
          <ns3:TrackPointExtension>
            <ns3:hr>100</ns3:hr>
            <ns3:cad>75</ns3:cad>
          </ns3:TrackPointExtension>
        </extensions>
      </trkpt>
      <trkpt lat="44.71732408739626407623291015625" lon="6.73700588755309581756591796875">
        <ele>1645</ele>
        <time>2026-09-03T05:32:08.000Z</time>
        <extensions>
          <ns3:TrackPointExtension>
            <ns3:hr>100</ns3:hr>
            <ns3:cad>73</ns3:cad>
          </ns3:TrackPointExtension>
        </extensions>
      </trkpt>
      <trkpt lat="44.71733012236654758453369140625" lon="6.73701946623623371124267578125">
        <ele>1644.800048828125</ele>
        <time>2026-09-03T05:32:09.000Z</time>
        <extensions>
          <ns3:TrackPointExtension>
            <ns3:hr>100</ns3:hr>
            <ns3:cad>68</ns3:cad>
          </ns3:TrackPointExtension>
        </extensions>
      </trkpt>
      <trkpt lat="44.71733741462230682373046875" lon="6.7370386607944965362548828125">
        <ele>1644.5999755859375</ele>
        <time>2026-09-03T05:32:10.000Z</time>
        <extensions>
          <ns3:TrackPointExtension>
            <ns3:hr>101</ns3:hr>
            <ns3:cad>68</ns3:cad>
          </ns3:TrackPointExtension>
        </extensions>
      </trkpt>
      <trkpt lat="44.71734504215419292449951171875" lon="6.73705391585826873779296875">
        <ele>1644.199951171875</ele>
        <time>2026-09-03T05:32:11.000Z</time>
        <extensions>
          <ns3:TrackPointExtension>
            <ns3:hr>101</ns3:hr>
            <ns3:cad>68</ns3:cad>
          </ns3:TrackPointExtension>
        </extensions>
      </trkpt>
      <trkpt lat="44.71734948456287384033203125" lon="6.737070344388484954833984375">
        <ele>1644</ele>
        <time>2026-09-03T05:32:12.000Z</time>
        <extensions>
          <ns3:TrackPointExtension>
            <ns3:hr>101</ns3:hr>
            <ns3:cad>68</ns3:cad>
          </ns3:TrackPointExtension>
        </extensions>
      </trkpt>
      <trkpt lat="44.7173526696860790252685546875" lon="6.73708803020417690277099609375">
        <ele>1643.5999755859375</ele>
        <time>2026-09-03T05:32:13.000Z</time>
        <extensions>
          <ns3:TrackPointExtension>
            <ns3:hr>100</ns3:hr>
            <ns3:cad>68</ns3:cad>
          </ns3:TrackPointExtension>
        </extensions>
      </trkpt>
      <trkpt lat="44.71735493279993534088134765625" lon="6.73710579983890056610107421875">
        <ele>1643.4000244140625</ele>
        <time>2026-09-03T05:32:14.000Z</time>
        <extensions>
          <ns3:TrackPointExtension>
            <ns3:hr>101</ns3:hr>
            <ns3:cad>68</ns3:cad>
          </ns3:TrackPointExtension>
        </extensions>
      </trkpt>
      <trkpt lat="44.71736214123666286468505859375" lon="6.7371204681694507598876953125">
        <ele>1643.199951171875</ele>
        <time>2026-09-03T05:32:15.000Z</time>
        <extensions>
          <ns3:TrackPointExtension>
            <ns3:hr>101</ns3:hr>
            <ns3:cad>68</ns3:cad>
          </ns3:TrackPointExtension>
        </extensions>
      </trkpt>
      <trkpt lat="44.7173701040446758270263671875" lon="6.73713765107095241546630859375">
        <ele>1643</ele>
        <time>2026-09-03T05:32:16.000Z</time>
        <extensions>
          <ns3:TrackPointExtension>
            <ns3:hr>101</ns3:hr>
            <ns3:cad>68</ns3:cad>
          </ns3:TrackPointExtension>
        </extensions>
      </trkpt>
      <trkpt lat="44.71737806685268878936767578125" lon="6.7371556721627712249755859375">
        <ele>1642.800048828125</ele>
        <time>2026-09-03T05:32:17.000Z</time>
        <extensions>
          <ns3:TrackPointExtension>
            <ns3:hr>101</ns3:hr>
            <ns3:cad>68</ns3:cad>
          </ns3:TrackPointExtension>
        </extensions>
      </trkpt>
      <trkpt lat="44.71738577820360660552978515625" lon="6.7371774651110172271728515625">
        <ele>1642.5999755859375</ele>
        <time>2026-09-03T05:32:18.000Z</time>
        <extensions>
          <ns3:TrackPointExtension>
            <ns3:hr>101</ns3:hr>
            <ns3:cad>66</ns3:cad>
          </ns3:TrackPointExtension>
        </extensions>
      </trkpt>
      <trkpt lat="44.71739298664033412933349609375" lon="6.7371992580592632293701171875">
        <ele>1642.4000244140625</ele>
        <time>2026-09-03T05:32:19.000Z</time>
        <extensions>
          <ns3:TrackPointExtension>
            <ns3:hr>101</ns3:hr>
            <ns3:cad>66</ns3:cad>
          </ns3:TrackPointExtension>
        </extensions>
      </trkpt>
      <trkpt lat="44.7173992730677127838134765625" lon="6.73721887171268463134765625">
        <ele>1642</ele>
        <time>2026-09-03T05:32:20.000Z</time>
        <extensions>
          <ns3:TrackPointExtension>
            <ns3:hr>101</ns3:hr>
            <ns3:cad>66</ns3:cad>
          </ns3:TrackPointExtension>
        </extensions>
      </trkpt>
      <trkpt lat="44.71740874461829662322998046875" lon="6.73724074847996234893798828125">
        <ele>1641.800048828125</ele>
        <time>2026-09-03T05:32:21.000Z</time>
        <extensions>
          <ns3:TrackPointExtension>
            <ns3:hr>101</ns3:hr>
            <ns3:cad>66</ns3:cad>
          </ns3:TrackPointExtension>
        </extensions>
      </trkpt>
      <trkpt lat="44.7174183838069438934326171875" lon="6.73726304434239864349365234375">
        <ele>1641.5999755859375</ele>
        <time>2026-09-03T05:32:22.000Z</time>
        <extensions>
          <ns3:TrackPointExtension>
            <ns3:hr>101</ns3:hr>
            <ns3:cad>67</ns3:cad>
          </ns3:TrackPointExtension>
        </extensions>
      </trkpt>
      <trkpt lat="44.7174240835011005401611328125" lon="6.7372773773968219757080078125">
        <ele>1641.4000244140625</ele>
        <time>2026-09-03T05:32:23.000Z</time>
        <extensions>
          <ns3:TrackPointExtension>
            <ns3:hr>101</ns3:hr>
            <ns3:cad>67</ns3:cad>
          </ns3:TrackPointExtension>
        </extensions>
      </trkpt>
      <trkpt lat="44.71742995083332061767578125" lon="6.73729238100349903106689453125">
        <ele>1641.199951171875</ele>
        <time>2026-09-03T05:32:24.000Z</time>
        <extensions>
          <ns3:TrackPointExtension>
            <ns3:hr>101</ns3:hr>
            <ns3:cad>66</ns3:cad>
          </ns3:TrackPointExtension>
        </extensions>
      </trkpt>
      <trkpt lat="44.717436321079730987548828125" lon="6.73731534741818904876708984375">
        <ele>1641</ele>
        <time>2026-09-03T05:32:25.000Z</time>
        <extensions>
          <ns3:TrackPointExtension>
            <ns3:hr>102</ns3:hr>
            <ns3:cad>66</ns3:cad>
          </ns3:TrackPointExtension>
        </extensions>
      </trkpt>
      <trkpt lat="44.71744109876453876495361328125" lon="6.737337224185466766357421875">
        <ele>1640.800048828125</ele>
        <time>2026-09-03T05:32:26.000Z</time>
        <extensions>
          <ns3:TrackPointExtension>
            <ns3:hr>102</ns3:hr>
            <ns3:cad>67</ns3:cad>
          </ns3:TrackPointExtension>
        </extensions>
      </trkpt>
      <trkpt lat="44.71744579263031482696533203125" lon="6.73736144788563251495361328125">
        <ele>1640.4000244140625</ele>
        <time>2026-09-03T05:32:27.000Z</time>
        <extensions>
          <ns3:TrackPointExtension>
            <ns3:hr>102</ns3:hr>
            <ns3:cad>67</ns3:cad>
          </ns3:TrackPointExtension>
        </extensions>
      </trkpt>
      <trkpt lat="44.717449732124805450439453125" lon="6.73738558776676654815673828125">
        <ele>1640.199951171875</ele>
        <time>2026-09-03T05:32:28.000Z</time>
        <extensions>
          <ns3:TrackPointExtension>
            <ns3:hr>102</ns3:hr>
            <ns3:cad>67</ns3:cad>
          </ns3:TrackPointExtension>
        </extensions>
      </trkpt>
      <trkpt lat="44.7174547612667083740234375" lon="6.737398244440555572509765625">
        <ele>1640</ele>
        <time>2026-09-03T05:32:29.000Z</time>
        <extensions>
          <ns3:TrackPointExtension>
            <ns3:hr>102</ns3:hr>
            <ns3:cad>77</ns3:cad>
          </ns3:TrackPointExtension>
        </extensions>
      </trkpt>
      <trkpt lat="44.71745786257088184356689453125" lon="6.73741291277110576629638671875">
        <ele>1639.800048828125</ele>
        <time>2026-09-03T05:32:30.000Z</time>
        <extensions>
          <ns3:TrackPointExtension>
            <ns3:hr>102</ns3:hr>
            <ns3:cad>77</ns3:cad>
          </ns3:TrackPointExtension>
        </extensions>
      </trkpt>
      <trkpt lat="44.717463813722133636474609375" lon="6.73743118532001972198486328125">
        <ele>1639.800048828125</ele>
        <time>2026-09-03T05:32:31.000Z</time>
        <extensions>
          <ns3:TrackPointExtension>
            <ns3:hr>101</ns3:hr>
            <ns3:cad>77</ns3:cad>
          </ns3:TrackPointExtension>
        </extensions>
      </trkpt>
      <trkpt lat="44.7174666635692119598388671875" lon="6.73744744621217250823974609375">
        <ele>1639.4000244140625</ele>
        <time>2026-09-03T05:32:32.000Z</time>
        <extensions>
          <ns3:TrackPointExtension>
            <ns3:hr>101</ns3:hr>
            <ns3:cad>77</ns3:cad>
          </ns3:TrackPointExtension>
        </extensions>
      </trkpt>
      <trkpt lat="44.71747110597789287567138671875" lon="6.7374651320278644561767578125">
        <ele>1639.199951171875</ele>
        <time>2026-09-03T05:32:33.000Z</time>
        <extensions>
          <ns3:TrackPointExtension>
            <ns3:hr>101</ns3:hr>
            <ns3:cad>79</ns3:cad>
          </ns3:TrackPointExtension>
        </extensions>
      </trkpt>
      <trkpt lat="44.7174740396440029144287109375" lon="6.73748902045190334320068359375">
        <ele>1639</ele>
        <time>2026-09-03T05:32:34.000Z</time>
        <extensions>
          <ns3:TrackPointExtension>
            <ns3:hr>102</ns3:hr>
            <ns3:cad>79</ns3:cad>
          </ns3:TrackPointExtension>
        </extensions>
      </trkpt>
      <trkpt lat="44.7174824215471744537353515625" lon="6.7375119030475616455078125">
        <ele>1638.5999755859375</ele>
        <time>2026-09-03T05:32:35.000Z</time>
        <extensions>
          <ns3:TrackPointExtension>
            <ns3:hr>102</ns3:hr>
            <ns3:cad>71</ns3:cad>
          </ns3:TrackPointExtension>
        </extensions>
      </trkpt>
      <trkpt lat="44.71748686395585536956787109375" lon="6.73753537237644195556640625">
        <ele>1638.199951171875</ele>
        <time>2026-09-03T05:32:36.000Z</time>
        <extensions>
          <ns3:TrackPointExtension>
            <ns3:hr>102</ns3:hr>
            <ns3:cad>71</ns3:cad>
          </ns3:TrackPointExtension>
        </extensions>
      </trkpt>
      <trkpt lat="44.717491976916790008544921875" lon="6.73756915144622325897216796875">
        <ele>1638</ele>
        <time>2026-09-03T05:32:37.000Z</time>
        <extensions>
          <ns3:TrackPointExtension>
            <ns3:hr>102</ns3:hr>
            <ns3:cad>79</ns3:cad>
          </ns3:TrackPointExtension>
        </extensions>
      </trkpt>
      <trkpt lat="44.717493988573551177978515625" lon="6.73759295605123043060302734375">
        <ele>1637.5999755859375</ele>
        <time>2026-09-03T05:32:38.000Z</time>
        <extensions>
          <ns3:TrackPointExtension>
            <ns3:hr>103</ns3:hr>
            <ns3:cad>79</ns3:cad>
          </ns3:TrackPointExtension>
        </extensions>
      </trkpt>
      <trkpt lat="44.71750128082931041717529296875" lon="6.7376191914081573486328125">
        <ele>1637.4000244140625</ele>
        <time>2026-09-03T05:32:39.000Z</time>
        <extensions>
          <ns3:TrackPointExtension>
            <ns3:hr>103</ns3:hr>
            <ns3:cad>79</ns3:cad>
          </ns3:TrackPointExtension>
        </extensions>
      </trkpt>
      <trkpt lat="44.71750865690410137176513671875" lon="6.737655065953731536865234375">
        <ele>1637</ele>
        <time>2026-09-03T05:32:40.000Z</time>
        <extensions>
          <ns3:TrackPointExtension>
            <ns3:hr>104</ns3:hr>
            <ns3:cad>80</ns3:cad>
          </ns3:TrackPointExtension>
        </extensions>
      </trkpt>
      <trkpt lat="44.71751720644533634185791015625" lon="6.73767878673970699310302734375">
        <ele>1636.800048828125</ele>
        <time>2026-09-03T05:32:41.000Z</time>
        <extensions>
          <ns3:TrackPointExtension>
            <ns3:hr>104</ns3:hr>
            <ns3:cad>80</ns3:cad>
          </ns3:TrackPointExtension>
        </extensions>
      </trkpt>
      <trkpt lat="44.71753128804266452789306640625" lon="6.737716756761074066162109375">
        <ele>1636.5999755859375</ele>
        <time>2026-09-03T05:32:42.000Z</time>
        <extensions>
          <ns3:TrackPointExtension>
            <ns3:hr>105</ns3:hr>
            <ns3:cad>81</ns3:cad>
          </ns3:TrackPointExtension>
        </extensions>
      </trkpt>
      <trkpt lat="44.7175441123545169830322265625" lon="6.737745590507984161376953125">
        <ele>1636.4000244140625</ele>
        <time>2026-09-03T05:32:43.000Z</time>
        <extensions>
          <ns3:TrackPointExtension>
            <ns3:hr>106</ns3:hr>
            <ns3:cad>81</ns3:cad>
          </ns3:TrackPointExtension>
        </extensions>
      </trkpt>
      <trkpt lat="44.717563055455684661865234375" lon="6.7377672158181667327880859375">
        <ele>1636.199951171875</ele>
        <time>2026-09-03T05:32:44.000Z</time>
        <extensions>
          <ns3:TrackPointExtension>
            <ns3:hr>106</ns3:hr>
            <ns3:cad>82</ns3:cad>
          </ns3:TrackPointExtension>
        </extensions>
      </trkpt>
      <trkpt lat="44.71758811734616756439208984375" lon="6.73779554665088653564453125">
        <ele>1636</ele>
        <time>2026-09-03T05:32:45.000Z</time>
        <extensions>
          <ns3:TrackPointExtension>
            <ns3:hr>107</ns3:hr>
            <ns3:cad>82</ns3:cad>
          </ns3:TrackPointExtension>
        </extensions>
      </trkpt>
      <trkpt lat="44.71760253421962261199951171875" lon="6.73780837096273899078369140625">
        <ele>1636</ele>
        <time>2026-09-03T05:32:46.000Z</time>
        <extensions>
          <ns3:TrackPointExtension>
            <ns3:hr>108</ns3:hr>
            <ns3:cad>82</ns3:cad>
          </ns3:TrackPointExtension>
        </extensions>
      </trkpt>
      <trkpt lat="44.71762147732079029083251953125" lon="6.73783368431031703948974609375">
        <ele>1635.800048828125</ele>
        <time>2026-09-03T05:32:47.000Z</time>
        <extensions>
          <ns3:TrackPointExtension>
            <ns3:hr>108</ns3:hr>
            <ns3:cad>82</ns3:cad>
          </ns3:TrackPointExtension>
        </extensions>
      </trkpt>
      <trkpt lat="44.71764008514583110809326171875" lon="6.7378557287156581878662109375">
        <ele>1636</ele>
        <time>2026-09-03T05:32:48.000Z</time>
        <extensions>
          <ns3:TrackPointExtension>
            <ns3:hr>109</ns3:hr>
            <ns3:cad>82</ns3:cad>
          </ns3:TrackPointExtension>
        </extensions>
      </trkpt>
      <trkpt lat="44.71765416674315929412841796875" lon="6.73786662518978118896484375">
        <ele>1636</ele>
        <time>2026-09-03T05:32:49.000Z</time>
        <extensions>
          <ns3:TrackPointExtension>
            <ns3:hr>110</ns3:hr>
            <ns3:cad>82</ns3:cad>
          </ns3:TrackPointExtension>
        </extensions>
      </trkpt>
      <trkpt lat="44.71766992472112178802490234375" lon="6.737891770899295806884765625">
        <ele>1636</ele>
        <time>2026-09-03T05:32:50.000Z</time>
        <extensions>
          <ns3:TrackPointExtension>
            <ns3:hr>110</ns3:hr>
            <ns3:cad>82</ns3:cad>
          </ns3:TrackPointExtension>
        </extensions>
      </trkpt>
      <trkpt lat="44.717699177563190460205078125" lon="6.73790283501148223876953125">
        <ele>1636</ele>
        <time>2026-09-03T05:32:51.000Z</time>
        <extensions>
          <ns3:TrackPointExtension>
            <ns3:hr>110</ns3:hr>
            <ns3:cad>82</ns3:cad>
          </ns3:TrackPointExtension>
        </extensions>
      </trkpt>
      <trkpt lat="44.7177140973508358001708984375" lon="6.7379133962094783782958984375">
        <ele>1636</ele>
        <time>2026-09-03T05:32:52.000Z</time>
        <extensions>
          <ns3:TrackPointExtension>
            <ns3:hr>112</ns3:hr>
            <ns3:cad>82</ns3:cad>
          </ns3:TrackPointExtension>
        </extensions>
      </trkpt>
      <trkpt lat="44.717727340757846832275390625" lon="6.73792839981615543365478515625">
        <ele>1635.800048828125</ele>
        <time>2026-09-03T05:32:53.000Z</time>
        <extensions>
          <ns3:TrackPointExtension>
            <ns3:hr>112</ns3:hr>
            <ns3:cad>82</ns3:cad>
          </ns3:TrackPointExtension>
        </extensions>
      </trkpt>
      <trkpt lat="44.717742092907428741455078125" lon="6.73794968985021114349365234375">
        <ele>1635.5999755859375</ele>
        <time>2026-09-03T05:32:54.000Z</time>
        <extensions>
          <ns3:TrackPointExtension>
            <ns3:hr>112</ns3:hr>
            <ns3:cad>82</ns3:cad>
          </ns3:TrackPointExtension>
        </extensions>
      </trkpt>
      <trkpt lat="44.71775491721928119659423828125" lon="6.737967543303966522216796875">
        <ele>1635.199951171875</ele>
        <time>2026-09-03T05:32:55.000Z</time>
        <extensions>
          <ns3:TrackPointExtension>
            <ns3:hr>114</ns3:hr>
            <ns3:cad>82</ns3:cad>
          </ns3:TrackPointExtension>
        </extensions>
      </trkpt>
      <trkpt lat="44.7177677415311336517333984375" lon="6.737985312938690185546875">
        <ele>1634.5999755859375</ele>
        <time>2026-09-03T05:32:56.000Z</time>
        <extensions>
          <ns3:TrackPointExtension>
            <ns3:hr>114</ns3:hr>
            <ns3:cad>82</ns3:cad>
          </ns3:TrackPointExtension>
        </extensions>
      </trkpt>
      <trkpt lat="44.71778157167136669158935546875" lon="6.7380129732191562652587890625">
        <ele>1634</ele>
        <time>2026-09-03T05:32:57.000Z</time>
        <extensions>
          <ns3:TrackPointExtension>
            <ns3:hr>115</ns3:hr>
            <ns3:cad>81</ns3:cad>
          </ns3:TrackPointExtension>
        </extensions>
      </trkpt>
      <trkpt lat="44.71778190694749355316162109375" lon="6.7380404658615589141845703125">
        <ele>1633.4000244140625</ele>
        <time>2026-09-03T05:32:58.000Z</time>
        <extensions>
          <ns3:TrackPointExtension>
            <ns3:hr>116</ns3:hr>
            <ns3:cad>81</ns3:cad>
          </ns3:TrackPointExtension>
        </extensions>
      </trkpt>
      <trkpt lat="44.71779246814548969268798828125" lon="6.73807977698743343353271484375">
        <ele>1633</ele>
        <time>2026-09-03T05:32:59.000Z</time>
        <extensions>
          <ns3:TrackPointExtension>
            <ns3:hr>117</ns3:hr>
            <ns3:cad>84</ns3:cad>
          </ns3:TrackPointExtension>
        </extensions>
      </trkpt>
      <trkpt lat="44.7178036160767078399658203125" lon="6.738107688724994659423828125">
        <ele>1632.5999755859375</ele>
        <time>2026-09-03T05:33:00.000Z</time>
        <extensions>
          <ns3:TrackPointExtension>
            <ns3:hr>117</ns3:hr>
            <ns3:cad>84</ns3:cad>
          </ns3:TrackPointExtension>
        </extensions>
      </trkpt>
      <trkpt lat="44.7178140096366405487060546875" lon="6.73812788911163806915283203125">
        <ele>1632.199951171875</ele>
        <time>2026-09-03T05:33:01.000Z</time>
        <extensions>
          <ns3:TrackPointExtension>
            <ns3:hr>118</ns3:hr>
            <ns3:cad>84</ns3:cad>
          </ns3:TrackPointExtension>
        </extensions>
      </trkpt>
      <trkpt lat="44.71783052198588848114013671875" lon="6.73815219663083553314208984375">
        <ele>1631.800048828125</ele>
        <time>2026-09-03T05:33:02.000Z</time>
        <extensions>
          <ns3:TrackPointExtension>
            <ns3:hr>118</ns3:hr>
            <ns3:cad>83</ns3:cad>
          </ns3:TrackPointExtension>
        </extensions>
      </trkpt>
      <trkpt lat="44.7178401611745357513427734375" lon="6.738180778920650482177734375">
        <ele>1631.5999755859375</ele>
        <time>2026-09-03T05:33:03.000Z</time>
        <extensions>
          <ns3:TrackPointExtension>
            <ns3:hr>119</ns3:hr>
            <ns3:cad>83</ns3:cad>
          </ns3:TrackPointExtension>
        </extensions>
      </trkpt>
      <trkpt lat="44.71785508096218109130859375" lon="6.73822210170328617095947265625">
        <ele>1631.199951171875</ele>
        <time>2026-09-03T05:33:04.000Z</time>
        <extensions>
          <ns3:TrackPointExtension>
            <ns3:hr>119</ns3:hr>
            <ns3:cad>83</ns3:cad>
          </ns3:TrackPointExtension>
        </extensions>
      </trkpt>
      <trkpt lat="44.7178624570369720458984375" lon="6.73825345002114772796630859375">
        <ele>1630.800048828125</ele>
        <time>2026-09-03T05:33:05.000Z</time>
        <extensions>
          <ns3:TrackPointExtension>
            <ns3:hr>119</ns3:hr>
            <ns3:cad>83</ns3:cad>
          </ns3:TrackPointExtension>
        </extensions>
      </trkpt>
      <trkpt lat="44.71788416616618633270263671875" lon="6.73828295432031154632568359375">
        <ele>1630.4000244140625</ele>
        <time>2026-09-03T05:33:06.000Z</time>
        <extensions>
          <ns3:TrackPointExtension>
            <ns3:hr>120</ns3:hr>
            <ns3:cad>84</ns3:cad>
          </ns3:TrackPointExtension>
        </extensions>
      </trkpt>
      <trkpt lat="44.71790545620024204254150390625" lon="6.73830625601112842559814453125">
        <ele>1630.199951171875</ele>
        <time>2026-09-03T05:33:07.000Z</time>
        <extensions>
          <ns3:TrackPointExtension>
            <ns3:hr>120</ns3:hr>
            <ns3:cad>85</ns3:cad>
          </ns3:TrackPointExtension>
        </extensions>
      </trkpt>
      <trkpt lat="44.71792205236852169036865234375" lon="6.738327629864215850830078125">
        <ele>1629.800048828125</ele>
        <time>2026-09-03T05:33:08.000Z</time>
        <extensions>
          <ns3:TrackPointExtension>
            <ns3:hr>121</ns3:hr>
            <ns3:cad>85</ns3:cad>
          </ns3:TrackPointExtension>
        </extensions>
      </trkpt>
      <trkpt lat="44.717939235270023345947265625" lon="6.7383576370775699615478515625">
        <ele>1629.5999755859375</ele>
        <time>2026-09-03T05:33:09.000Z</time>
        <extensions>
          <ns3:TrackPointExtension>
            <ns3:hr>121</ns3:hr>
            <ns3:cad>85</ns3:cad>
          </ns3:TrackPointExtension>
        </extensions>
      </trkpt>
      <trkpt lat="44.7179487906396389007568359375" lon="6.73837766982614994049072265625">
        <ele>1629.4000244140625</ele>
        <time>2026-09-03T05:33:10.000Z</time>
        <extensions>
          <ns3:TrackPointExtension>
            <ns3:hr>123</ns3:hr>
            <ns3:cad>85</ns3:cad>
          </ns3:TrackPointExtension>
        </extensions>
      </trkpt>
      <trkpt lat="44.717960357666015625" lon="6.738397367298603057861328125">
        <ele>1629.199951171875</ele>
        <time>2026-09-03T05:33:11.000Z</time>
        <extensions>
          <ns3:TrackPointExtension>
            <ns3:hr>123</ns3:hr>
            <ns3:cad>85</ns3:cad>
          </ns3:TrackPointExtension>
        </extensions>
      </trkpt>
      <trkpt lat="44.7179692424833774566650390625" lon="6.73841513693332672119140625">
        <ele>1629</ele>
        <time>2026-09-03T05:33:12.000Z</time>
        <extensions>
          <ns3:TrackPointExtension>
            <ns3:hr>123</ns3:hr>
            <ns3:cad>85</ns3:cad>
          </ns3:TrackPointExtension>
        </extensions>
      </trkpt>
      <trkpt lat="44.7179819829761981964111328125" lon="6.73843030817806720733642578125">
        <ele>1628.800048828125</ele>
        <time>2026-09-03T05:33:13.000Z</time>
        <extensions>
          <ns3:TrackPointExtension>
            <ns3:hr>124</ns3:hr>
            <ns3:cad>84</ns3:cad>
          </ns3:TrackPointExtension>
        </extensions>
      </trkpt>
      <trkpt lat="44.7179890237748622894287109375" lon="6.738440282642841339111328125">
        <ele>1628.5999755859375</ele>
        <time>2026-09-03T05:33:14.000Z</time>
        <extensions>
          <ns3:TrackPointExtension>
            <ns3:hr>124</ns3:hr>
            <ns3:cad>84</ns3:cad>
          </ns3:TrackPointExtension>
        </extensions>
      </trkpt>
      <trkpt lat="44.7179987467825412750244140625" lon="6.738459728658199310302734375">
        <ele>1628.4000244140625</ele>
        <time>2026-09-03T05:33:15.000Z</time>
        <extensions>
          <ns3:TrackPointExtension>
            <ns3:hr>125</ns3:hr>
            <ns3:cad>84</ns3:cad>
          </ns3:TrackPointExtension>
        </extensions>
      </trkpt>
      <trkpt lat="44.71800738014280796051025390625" lon="6.73847590573132038116455078125">
        <ele>1628</ele>
        <time>2026-09-03T05:33:16.000Z</time>
        <extensions>
          <ns3:TrackPointExtension>
            <ns3:hr>125</ns3:hr>
            <ns3:cad>84</ns3:cad>
          </ns3:TrackPointExtension>
        </extensions>
      </trkpt>
      <trkpt lat="44.71801861189305782318115234375" lon="6.738504655659198760986328125">
        <ele>1627.5999755859375</ele>
        <time>2026-09-03T05:33:17.000Z</time>
        <extensions>
          <ns3:TrackPointExtension>
            <ns3:hr>125</ns3:hr>
            <ns3:cad>83</ns3:cad>
          </ns3:TrackPointExtension>
        </extensions>
      </trkpt>
      <trkpt lat="44.71802347339689731597900390625" lon="6.7385230958461761474609375">
        <ele>1627.4000244140625</ele>
        <time>2026-09-03T05:33:18.000Z</time>
        <extensions>
          <ns3:TrackPointExtension>
            <ns3:hr>125</ns3:hr>
            <ns3:cad>83</ns3:cad>
          </ns3:TrackPointExtension>
        </extensions>
      </trkpt>
      <trkpt lat="44.71803152002394199371337890625" lon="6.7385527677834033966064453125">
        <ele>1627</ele>
        <time>2026-09-03T05:33:19.000Z</time>
        <extensions>
          <ns3:TrackPointExtension>
            <ns3:hr>124</ns3:hr>
            <ns3:cad>83</ns3:cad>
          </ns3:TrackPointExtension>
        </extensions>
      </trkpt>
      <trkpt lat="44.7180366329848766326904296875" lon="6.73857497982680797576904296875">
        <ele>1626.5999755859375</ele>
        <time>2026-09-03T05:33:20.000Z</time>
        <extensions>
          <ns3:TrackPointExtension>
            <ns3:hr>125</ns3:hr>
            <ns3:cad>82</ns3:cad>
          </ns3:TrackPointExtension>
        </extensions>
      </trkpt>
      <trkpt lat="44.7180453501641750335693359375" lon="6.73860163427889347076416015625">
        <ele>1626.199951171875</ele>
        <time>2026-09-03T05:33:21.000Z</time>
        <extensions>
          <ns3:TrackPointExtension>
            <ns3:hr>125</ns3:hr>
            <ns3:cad>82</ns3:cad>
          </ns3:TrackPointExtension>
        </extensions>
      </trkpt>
      <trkpt lat="44.7180517204105854034423828125" lon="6.73863239586353302001953125">
        <ele>1626</ele>
        <time>2026-09-03T05:33:22.000Z</time>
        <extensions>
          <ns3:TrackPointExtension>
            <ns3:hr>125</ns3:hr>
            <ns3:cad>84</ns3:cad>
          </ns3:TrackPointExtension>
        </extensions>
      </trkpt>
      <trkpt lat="44.7180570848286151885986328125" lon="6.7386600561439990997314453125">
        <ele>1625.5999755859375</ele>
        <time>2026-09-03T05:33:23.000Z</time>
        <extensions>
          <ns3:TrackPointExtension>
            <ns3:hr>125</ns3:hr>
            <ns3:cad>84</ns3:cad>
          </ns3:TrackPointExtension>
        </extensions>
      </trkpt>
      <trkpt lat="44.718060605227947235107421875" lon="6.73869274556636810302734375">
        <ele>1625.4000244140625</ele>
        <time>2026-09-03T05:33:24.000Z</time>
        <extensions>
          <ns3:TrackPointExtension>
            <ns3:hr>125</ns3:hr>
            <ns3:cad>83</ns3:cad>
          </ns3:TrackPointExtension>
        </extensions>
      </trkpt>
      <trkpt lat="44.71806152723729610443115234375" lon="6.73871512524783611297607421875">
        <ele>1625</ele>
        <time>2026-09-03T05:33:25.000Z</time>
        <extensions>
          <ns3:TrackPointExtension>
            <ns3:hr>125</ns3:hr>
            <ns3:cad>83</ns3:cad>
          </ns3:TrackPointExtension>
        </extensions>
      </trkpt>
      <trkpt lat="44.71807074733078479766845703125" lon="6.7387395165860652923583984375">
        <ele>1624.800048828125</ele>
        <time>2026-09-03T05:33:26.000Z</time>
        <extensions>
          <ns3:TrackPointExtension>
            <ns3:hr>125</ns3:hr>
            <ns3:cad>83</ns3:cad>
          </ns3:TrackPointExtension>
        </extensions>
      </trkpt>
      <trkpt lat="44.7180822305381298065185546875" lon="6.73876692540943622589111328125">
        <ele>1624.4000244140625</ele>
        <time>2026-09-03T05:33:27.000Z</time>
        <extensions>
          <ns3:TrackPointExtension>
            <ns3:hr>125</ns3:hr>
            <ns3:cad>82</ns3:cad>
          </ns3:TrackPointExtension>
        </extensions>
      </trkpt>
      <trkpt lat="44.71808633767068386077880859375" lon="6.73878503032028675079345703125">
        <ele>1624.4000244140625</ele>
        <time>2026-09-03T05:33:28.000Z</time>
        <extensions>
          <ns3:TrackPointExtension>
            <ns3:hr>124</ns3:hr>
            <ns3:cad>82</ns3:cad>
          </ns3:TrackPointExtension>
        </extensions>
      </trkpt>
      <trkpt lat="44.7180932946503162384033203125" lon="6.738804392516613006591796875">
        <ele>1624.199951171875</ele>
        <time>2026-09-03T05:33:29.000Z</time>
        <extensions>
          <ns3:TrackPointExtension>
            <ns3:hr>124</ns3:hr>
            <ns3:cad>81</ns3:cad>
          </ns3:TrackPointExtension>
        </extensions>
      </trkpt>
      <trkpt lat="44.718102179467678070068359375" lon="6.7388364113867282867431640625">
        <ele>1624</ele>
        <time>2026-09-03T05:33:30.000Z</time>
        <extensions>
          <ns3:TrackPointExtension>
            <ns3:hr>123</ns3:hr>
            <ns3:cad>81</ns3:cad>
          </ns3:TrackPointExtension>
        </extensions>
      </trkpt>
      <trkpt lat="44.71811818890273571014404296875" lon="6.73886667005717754364013671875">
        <ele>1624</ele>
        <time>2026-09-03T05:33:31.000Z</time>
        <extensions>
          <ns3:TrackPointExtension>
            <ns3:hr>122</ns3:hr>
            <ns3:cad>81</ns3:cad>
          </ns3:TrackPointExtension>
        </extensions>
      </trkpt>
      <trkpt lat="44.7181224636733531951904296875" lon="6.7388850264251232147216796875">
        <ele>1623.800048828125</ele>
        <time>2026-09-03T05:33:32.000Z</time>
        <extensions>
          <ns3:TrackPointExtension>
            <ns3:hr>122</ns3:hr>
            <ns3:cad>81</ns3:cad>
          </ns3:TrackPointExtension>
        </extensions>
      </trkpt>
      <trkpt lat="44.71812590025365352630615234375" lon="6.738906987011432647705078125">
        <ele>1623.5999755859375</ele>
        <time>2026-09-03T05:33:33.000Z</time>
        <extensions>
          <ns3:TrackPointExtension>
            <ns3:hr>123</ns3:hr>
            <ns3:cad>81</ns3:cad>
          </ns3:TrackPointExtension>
        </extensions>
      </trkpt>
      <trkpt lat="44.71812841482460498809814453125" lon="6.7389235831797122955322265625">
        <ele>1623.4000244140625</ele>
        <time>2026-09-03T05:33:34.000Z</time>
        <extensions>
          <ns3:TrackPointExtension>
            <ns3:hr>123</ns3:hr>
            <ns3:cad>0</ns3:cad>
          </ns3:TrackPointExtension>
        </extensions>
      </trkpt>
      <trkpt lat="44.718135707080364227294921875" lon="6.7389453761279582977294921875">
        <ele>1623</ele>
        <time>2026-09-03T05:33:35.000Z</time>
        <extensions>
          <ns3:TrackPointExtension>
            <ns3:hr>123</ns3:hr>
            <ns3:cad>0</ns3:cad>
          </ns3:TrackPointExtension>
        </extensions>
      </trkpt>
      <trkpt lat="44.71815255470573902130126953125" lon="6.73896725289523601531982421875">
        <ele>1622.5999755859375</ele>
        <time>2026-09-03T05:33:36.000Z</time>
        <extensions>
          <ns3:TrackPointExtension>
            <ns3:hr>124</ns3:hr>
            <ns3:cad>0</ns3:cad>
          </ns3:TrackPointExtension>
        </extensions>
      </trkpt>
      <trkpt lat="44.71817702986299991607666015625" lon="6.738986112177371978759765625">
        <ele>1622.199951171875</ele>
        <time>2026-09-03T05:33:37.000Z</time>
        <extensions>
          <ns3:TrackPointExtension>
            <ns3:hr>124</ns3:hr>
            <ns3:cad>68</ns3:cad>
          </ns3:TrackPointExtension>
        </extensions>
      </trkpt>
      <trkpt lat="44.7181918658316135406494140625" lon="6.7390040494501590728759765625">
        <ele>1621.800048828125</ele>
        <time>2026-09-03T05:33:38.000Z</time>
        <extensions>
          <ns3:TrackPointExtension>
            <ns3:hr>124</ns3:hr>
            <ns3:cad>68</ns3:cad>
          </ns3:TrackPointExtension>
        </extensions>
      </trkpt>
      <trkpt lat="44.7182113118469715118408203125" lon="6.73901259899139404296875">
        <ele>1621.4000244140625</ele>
        <time>2026-09-03T05:33:39.000Z</time>
        <extensions>
          <ns3:TrackPointExtension>
            <ns3:hr>124</ns3:hr>
            <ns3:cad>68</ns3:cad>
          </ns3:TrackPointExtension>
        </extensions>
      </trkpt>
      <trkpt lat="44.7182200290262699127197265625" lon="6.73900312744081020355224609375">
        <ele>1621</ele>
        <time>2026-09-03T05:33:40.000Z</time>
        <extensions>
          <ns3:TrackPointExtension>
            <ns3:hr>124</ns3:hr>
            <ns3:cad>0</ns3:cad>
          </ns3:TrackPointExtension>
        </extensions>
      </trkpt>
      <trkpt lat="44.7182310931384563446044921875" lon="6.738999523222446441650390625">
        <ele>1620.800048828125</ele>
        <time>2026-09-03T05:33:41.000Z</time>
        <extensions>
          <ns3:TrackPointExtension>
            <ns3:hr>124</ns3:hr>
            <ns3:cad>0</ns3:cad>
          </ns3:TrackPointExtension>
        </extensions>
      </trkpt>
      <trkpt lat="44.71824760548770427703857421875" lon="6.73900094814598560333251953125">
        <ele>1620.5999755859375</ele>
        <time>2026-09-03T05:33:42.000Z</time>
        <extensions>
          <ns3:TrackPointExtension>
            <ns3:hr>124</ns3:hr>
            <ns3:cad>65</ns3:cad>
          </ns3:TrackPointExtension>
        </extensions>
      </trkpt>
      <trkpt lat="44.718257077038288116455078125" lon="6.7389973439276218414306640625">
        <ele>1620.4000244140625</ele>
        <time>2026-09-03T05:33:43.000Z</time>
        <extensions>
          <ns3:TrackPointExtension>
            <ns3:hr>125</ns3:hr>
            <ns3:cad>67</ns3:cad>
          </ns3:TrackPointExtension>
        </extensions>
      </trkpt>
      <trkpt lat="44.71827191300690174102783203125" lon="6.73900119960308074951171875">
        <ele>1620.199951171875</ele>
        <time>2026-09-03T05:33:44.000Z</time>
        <extensions>
          <ns3:TrackPointExtension>
            <ns3:hr>124</ns3:hr>
            <ns3:cad>72</ns3:cad>
          </ns3:TrackPointExtension>
        </extensions>
      </trkpt>
      <trkpt lat="44.71828557550907135009765625" lon="6.739001534879207611083984375">
        <ele>1619.800048828125</ele>
        <time>2026-09-03T05:33:45.000Z</time>
        <extensions>
          <ns3:TrackPointExtension>
            <ns3:hr>124</ns3:hr>
            <ns3:cad>72</ns3:cad>
          </ns3:TrackPointExtension>
        </extensions>
      </trkpt>
      <trkpt lat="44.718293957412242889404296875" lon="6.73900161869823932647705078125">
        <ele>1619.4000244140625</ele>
        <time>2026-09-03T05:33:46.000Z</time>
        <extensions>
          <ns3:TrackPointExtension>
            <ns3:hr>124</ns3:hr>
            <ns3:cad>65</ns3:cad>
          </ns3:TrackPointExtension>
        </extensions>
      </trkpt>
      <trkpt lat="44.71829638816416263580322265625" lon="6.7390005290508270263671875">
        <ele>1619</ele>
        <time>2026-09-03T05:33:47.000Z</time>
        <extensions>
          <ns3:TrackPointExtension>
            <ns3:hr>123</ns3:hr>
            <ns3:cad>65</ns3:cad>
          </ns3:TrackPointExtension>
        </extensions>
      </trkpt>
      <trkpt lat="44.718303680419921875" lon="6.7390037141740322113037109375">
        <ele>1618.800048828125</ele>
        <time>2026-09-03T05:33:48.000Z</time>
        <extensions>
          <ns3:TrackPointExtension>
            <ns3:hr>123</ns3:hr>
            <ns3:cad>65</ns3:cad>
          </ns3:TrackPointExtension>
        </extensions>
      </trkpt>
      <trkpt lat="44.71831801347434520721435546875" lon="6.73900983296334743499755859375">
        <ele>1618.4000244140625</ele>
        <time>2026-09-03T05:33:49.000Z</time>
        <extensions>
          <ns3:TrackPointExtension>
            <ns3:hr>123</ns3:hr>
            <ns3:cad>69</ns3:cad>
          </ns3:TrackPointExtension>
        </extensions>
      </trkpt>
      <trkpt lat="44.7183320112526416778564453125" lon="6.73901595175266265869140625">
        <ele>1618</ele>
        <time>2026-09-03T05:33:50.000Z</time>
        <extensions>
          <ns3:TrackPointExtension>
            <ns3:hr>123</ns3:hr>
            <ns3:cad>69</ns3:cad>
          </ns3:TrackPointExtension>
        </extensions>
      </trkpt>
      <trkpt lat="44.71834651194512844085693359375" lon="6.739017963409423828125">
        <ele>1617.5999755859375</ele>
        <time>2026-09-03T05:33:51.000Z</time>
        <extensions>
          <ns3:TrackPointExtension>
            <ns3:hr>122</ns3:hr>
            <ns3:cad>69</ns3:cad>
          </ns3:TrackPointExtension>
        </extensions>
      </trkpt>
      <trkpt lat="44.71836059354245662689208984375" lon="6.7390208132565021514892578125">
        <ele>1617</ele>
        <time>2026-09-03T05:33:52.000Z</time>
        <extensions>
          <ns3:TrackPointExtension>
            <ns3:hr>121</ns3:hr>
            <ns3:cad>69</ns3:cad>
          </ns3:TrackPointExtension>
        </extensions>
      </trkpt>
      <trkpt lat="44.7183735854923725128173828125" lon="6.7390271835029125213623046875">
        <ele>1616.5999755859375</ele>
        <time>2026-09-03T05:33:53.000Z</time>
        <extensions>
          <ns3:TrackPointExtension>
            <ns3:hr>121</ns3:hr>
            <ns3:cad>69</ns3:cad>
          </ns3:TrackPointExtension>
        </extensions>
      </trkpt>
      <trkpt lat="44.71838884055614471435546875" lon="6.73903472721576690673828125">
        <ele>1616.199951171875</ele>
        <time>2026-09-03T05:33:54.000Z</time>
        <extensions>
          <ns3:TrackPointExtension>
            <ns3:hr>121</ns3:hr>
            <ns3:cad>69</ns3:cad>
          </ns3:TrackPointExtension>
        </extensions>
      </trkpt>
      <trkpt lat="44.7184010781347751617431640625" lon="6.7390407621860504150390625">
        <ele>1615.800048828125</ele>
        <time>2026-09-03T05:33:55.000Z</time>
        <extensions>
          <ns3:TrackPointExtension>
            <ns3:hr>120</ns3:hr>
            <ns3:cad>69</ns3:cad>
          </ns3:TrackPointExtension>
        </extensions>
      </trkpt>
      <trkpt lat="44.718415327370166778564453125" lon="6.73904688097536563873291015625">
        <ele>1615.4000244140625</ele>
        <time>2026-09-03T05:33:56.000Z</time>
        <extensions>
          <ns3:TrackPointExtension>
            <ns3:hr>119</ns3:hr>
            <ns3:cad>69</ns3:cad>
          </ns3:TrackPointExtension>
        </extensions>
      </trkpt>
      <trkpt lat="44.718429744243621826171875" lon="6.7390509881079196929931640625">
        <ele>1615</ele>
        <time>2026-09-03T05:33:57.000Z</time>
        <extensions>
          <ns3:TrackPointExtension>
            <ns3:hr>118</ns3:hr>
            <ns3:cad>69</ns3:cad>
          </ns3:TrackPointExtension>
        </extensions>
      </trkpt>
      <trkpt lat="44.71844105981290340423583984375" lon="6.7390543408691883087158203125">
        <ele>1614.5999755859375</ele>
        <time>2026-09-03T05:33:58.000Z</time>
        <extensions>
          <ns3:TrackPointExtension>
            <ns3:hr>117</ns3:hr>
            <ns3:cad>69</ns3:cad>
          </ns3:TrackPointExtension>
        </extensions>
      </trkpt>
      <trkpt lat="44.71844692714512348175048828125" lon="6.7390674166381359100341796875">
        <ele>1614.199951171875</ele>
        <time>2026-09-03T05:33:59.000Z</time>
        <extensions>
          <ns3:TrackPointExtension>
            <ns3:hr>116</ns3:hr>
            <ns3:cad>40</ns3:cad>
          </ns3:TrackPointExtension>
        </extensions>
      </trkpt>
      <trkpt lat="44.71845581196248531341552734375" lon="6.7390791513025760650634765625">
        <ele>1614</ele>
        <time>2026-09-03T05:34:00.000Z</time>
        <extensions>
          <ns3:TrackPointExtension>
            <ns3:hr>115</ns3:hr>
            <ns3:cad>40</ns3:cad>
          </ns3:TrackPointExtension>
        </extensions>
      </trkpt>
      <trkpt lat="44.718460924923419952392578125" lon="6.7390863597393035888671875">
        <ele>1613.800048828125</ele>
        <time>2026-09-03T05:34:01.000Z</time>
        <extensions>
          <ns3:TrackPointExtension>
            <ns3:hr>114</ns3:hr>
            <ns3:cad>40</ns3:cad>
          </ns3:TrackPointExtension>
        </extensions>
      </trkpt>
      <trkpt lat="44.71847006119787693023681640625" lon="6.7390972562134265899658203125">
        <ele>1613.5999755859375</ele>
        <time>2026-09-03T05:34:02.000Z</time>
        <extensions>
          <ns3:TrackPointExtension>
            <ns3:hr>114</ns3:hr>
            <ns3:cad>78</ns3:cad>
          </ns3:TrackPointExtension>
        </extensions>
      </trkpt>
      <trkpt lat="44.7184805385768413543701171875" lon="6.739102117717266082763671875">
        <ele>1613.199951171875</ele>
        <time>2026-09-03T05:34:03.000Z</time>
        <extensions>
          <ns3:TrackPointExtension>
            <ns3:hr>112</ns3:hr>
            <ns3:cad>78</ns3:cad>
          </ns3:TrackPointExtension>
        </extensions>
      </trkpt>
      <trkpt lat="44.71849076449871063232421875" lon="6.73910656012594699859619140625">
        <ele>1613</ele>
        <time>2026-09-03T05:34:04.000Z</time>
        <extensions>
          <ns3:TrackPointExtension>
            <ns3:hr>111</ns3:hr>
            <ns3:cad>78</ns3:cad>
          </ns3:TrackPointExtension>
        </extensions>
      </trkpt>
      <trkpt lat="44.71850576810538768768310546875" lon="6.73911117017269134521484375">
        <ele>1612.800048828125</ele>
        <time>2026-09-03T05:34:05.000Z</time>
        <extensions>
          <ns3:TrackPointExtension>
            <ns3:hr>110</ns3:hr>
            <ns3:cad>78</ns3:cad>
          </ns3:TrackPointExtension>
        </extensions>
      </trkpt>
      <trkpt lat="44.718517921864986419677734375" lon="6.7391146905720233917236328125">
        <ele>1612.4000244140625</ele>
        <time>2026-09-03T05:34:06.000Z</time>
        <extensions>
          <ns3:TrackPointExtension>
            <ns3:hr>110</ns3:hr>
            <ns3:cad>78</ns3:cad>
          </ns3:TrackPointExtension>
        </extensions>
      </trkpt>
      <trkpt lat="44.7185251303017139434814453125" lon="6.73911158926784992218017578125">
        <ele>1612.199951171875</ele>
        <time>2026-09-03T05:34:07.000Z</time>
        <extensions>
          <ns3:TrackPointExtension>
            <ns3:hr>109</ns3:hr>
            <ns3:cad>78</ns3:cad>
          </ns3:TrackPointExtension>
        </extensions>
      </trkpt>
      <trkpt lat="44.71853627823293209075927734375" lon="6.7391096614301204681396484375">
        <ele>1611.800048828125</ele>
        <time>2026-09-03T05:34:08.000Z</time>
        <extensions>
          <ns3:TrackPointExtension>
            <ns3:hr>109</ns3:hr>
            <ns3:cad>78</ns3:cad>
          </ns3:TrackPointExtension>
        </extensions>
      </trkpt>
      <trkpt lat="44.7185499407351016998291015625" lon="6.73911293037235736846923828125">
        <ele>1611.4000244140625</ele>
        <time>2026-09-03T05:34:09.000Z</time>
        <extensions>
          <ns3:TrackPointExtension>
            <ns3:hr>109</ns3:hr>
            <ns3:cad>72</ns3:cad>
          </ns3:TrackPointExtension>
        </extensions>
      </trkpt>
      <trkpt lat="44.71857366152107715606689453125" lon="6.73911829479038715362548828125">
        <ele>1611.199951171875</ele>
        <time>2026-09-03T05:34:10.000Z</time>
        <extensions>
          <ns3:TrackPointExtension>
            <ns3:hr>109</ns3:hr>
            <ns3:cad>71</ns3:cad>
          </ns3:TrackPointExtension>
        </extensions>
      </trkpt>
      <trkpt lat="44.71858774311840534210205078125" lon="6.7391170375049114227294921875">
        <ele>1610.800048828125</ele>
        <time>2026-09-03T05:34:11.000Z</time>
        <extensions>
          <ns3:TrackPointExtension>
            <ns3:hr>108</ns3:hr>
            <ns3:cad>71</ns3:cad>
          </ns3:TrackPointExtension>
        </extensions>
      </trkpt>
      <trkpt lat="44.7185982204973697662353515625" lon="6.73911678604781627655029296875">
        <ele>1610.5999755859375</ele>
        <time>2026-09-03T05:34:12.000Z</time>
        <extensions>
          <ns3:TrackPointExtension>
            <ns3:hr>108</ns3:hr>
            <ns3:cad>71</ns3:cad>
          </ns3:TrackPointExtension>
        </extensions>
      </trkpt>
      <trkpt lat="44.7186035849153995513916015625" lon="6.73911225982010364532470703125">
        <ele>1610.199951171875</ele>
        <time>2026-09-03T05:34:13.000Z</time>
        <extensions>
          <ns3:TrackPointExtension>
            <ns3:hr>108</ns3:hr>
            <ns3:cad>71</ns3:cad>
          </ns3:TrackPointExtension>
        </extensions>
      </trkpt>
      <trkpt lat="44.71860568039119243621826171875" lon="6.7391120083630084991455078125">
        <ele>1609.800048828125</ele>
        <time>2026-09-03T05:34:14.000Z</time>
        <extensions>
          <ns3:TrackPointExtension>
            <ns3:hr>108</ns3:hr>
            <ns3:cad>68</ns3:cad>
          </ns3:TrackPointExtension>
        </extensions>
      </trkpt>
      <trkpt lat="44.71861389465630054473876953125" lon="6.73912324011325836181640625">
        <ele>1609.5999755859375</ele>
        <time>2026-09-03T05:34:15.000Z</time>
        <extensions>
          <ns3:TrackPointExtension>
            <ns3:hr>108</ns3:hr>
            <ns3:cad>68</ns3:cad>
          </ns3:TrackPointExtension>
        </extensions>
      </trkpt>
      <trkpt lat="44.71862546168267726898193359375" lon="6.7391292750835418701171875">
        <ele>1609.199951171875</ele>
        <time>2026-09-03T05:34:16.000Z</time>
        <extensions>
          <ns3:TrackPointExtension>
            <ns3:hr>108</ns3:hr>
            <ns3:cad>68</ns3:cad>
          </ns3:TrackPointExtension>
        </extensions>
      </trkpt>
      <trkpt lat="44.71863585524260997772216796875" lon="6.7391344718635082244873046875">
        <ele>1608.800048828125</ele>
        <time>2026-09-03T05:34:17.000Z</time>
        <extensions>
          <ns3:TrackPointExtension>
            <ns3:hr>108</ns3:hr>
            <ns3:cad>68</ns3:cad>
          </ns3:TrackPointExtension>
        </extensions>
      </trkpt>
      <trkpt lat="44.71865043975412845611572265625" lon="6.739137656986713409423828125">
        <ele>1608.4000244140625</ele>
        <time>2026-09-03T05:34:18.000Z</time>
        <extensions>
          <ns3:TrackPointExtension>
            <ns3:hr>108</ns3:hr>
            <ns3:cad>70</ns3:cad>
          </ns3:TrackPointExtension>
        </extensions>
      </trkpt>
      <trkpt lat="44.718664102256298065185546875" lon="6.73913723789155483245849609375">
        <ele>1607.800048828125</ele>
        <time>2026-09-03T05:34:19.000Z</time>
        <extensions>
          <ns3:TrackPointExtension>
            <ns3:hr>107</ns3:hr>
            <ns3:cad>70</ns3:cad>
          </ns3:TrackPointExtension>
        </extensions>
      </trkpt>
      <trkpt lat="44.7186756692826747894287109375" lon="6.73913707025349140167236328125">
        <ele>1607.5999755859375</ele>
        <time>2026-09-03T05:34:20.000Z</time>
        <extensions>
          <ns3:TrackPointExtension>
            <ns3:hr>107</ns3:hr>
            <ns3:cad>70</ns3:cad>
          </ns3:TrackPointExtension>
        </extensions>
      </trkpt>
      <trkpt lat="44.718691594898700714111328125" lon="6.7391405068337917327880859375">
        <ele>1607.199951171875</ele>
        <time>2026-09-03T05:34:21.000Z</time>
        <extensions>
          <ns3:TrackPointExtension>
            <ns3:hr>107</ns3:hr>
            <ns3:cad>70</ns3:cad>
          </ns3:TrackPointExtension>
        </extensions>
      </trkpt>
      <trkpt lat="44.7187098674476146697998046875" lon="6.7391505651175975799560546875">
        <ele>1607</ele>
        <time>2026-09-03T05:34:22.000Z</time>
        <extensions>
          <ns3:TrackPointExtension>
            <ns3:hr>107</ns3:hr>
            <ns3:cad>70</ns3:cad>
          </ns3:TrackPointExtension>
        </extensions>
      </trkpt>
      <trkpt lat="44.7187226079404354095458984375" lon="6.73915634863078594207763671875">
        <ele>1606.800048828125</ele>
        <time>2026-09-03T05:34:23.000Z</time>
        <extensions>
          <ns3:TrackPointExtension>
            <ns3:hr>107</ns3:hr>
            <ns3:cad>70</ns3:cad>
          </ns3:TrackPointExtension>
        </extensions>
      </trkpt>
      <trkpt lat="44.718732498586177825927734375" lon="6.739169843494892120361328125">
        <ele>1606.4000244140625</ele>
        <time>2026-09-03T05:34:24.000Z</time>
        <extensions>
          <ns3:TrackPointExtension>
            <ns3:hr>107</ns3:hr>
            <ns3:cad>70</ns3:cad>
          </ns3:TrackPointExtension>
        </extensions>
      </trkpt>
      <trkpt lat="44.71874465234577655792236328125" lon="6.73917512409389019012451171875">
        <ele>1606.199951171875</ele>
        <time>2026-09-03T05:34:25.000Z</time>
        <extensions>
          <ns3:TrackPointExtension>
            <ns3:hr>107</ns3:hr>
            <ns3:cad>70</ns3:cad>
          </ns3:TrackPointExtension>
        </extensions>
      </trkpt>
      <trkpt lat="44.71875571645796298980712890625" lon="6.73917629756033420562744140625">
        <ele>1605.800048828125</ele>
        <time>2026-09-03T05:34:26.000Z</time>
        <extensions>
          <ns3:TrackPointExtension>
            <ns3:hr>107</ns3:hr>
            <ns3:cad>70</ns3:cad>
          </ns3:TrackPointExtension>
        </extensions>
      </trkpt>
      <trkpt lat="44.7187625057995319366455078125" lon="6.73917562700808048248291015625">
        <ele>1605.5999755859375</ele>
        <time>2026-09-03T05:34:27.000Z</time>
        <extensions>
          <ns3:TrackPointExtension>
            <ns3:hr>107</ns3:hr>
            <ns3:cad>70</ns3:cad>
          </ns3:TrackPointExtension>
        </extensions>
      </trkpt>
      <trkpt lat="44.71877214498817920684814453125" lon="6.73917931504547595977783203125">
        <ele>1605.4000244140625</ele>
        <time>2026-09-03T05:34:28.000Z</time>
        <extensions>
          <ns3:TrackPointExtension>
            <ns3:hr>107</ns3:hr>
            <ns3:cad>66</ns3:cad>
          </ns3:TrackPointExtension>
        </extensions>
      </trkpt>
      <trkpt lat="44.71879117190837860107421875" lon="6.73918501473963260650634765625">
        <ele>1605.199951171875</ele>
        <time>2026-09-03T05:34:29.000Z</time>
        <extensions>
          <ns3:TrackPointExtension>
            <ns3:hr>106</ns3:hr>
            <ns3:cad>66</ns3:cad>
          </ns3:TrackPointExtension>
        </extensions>
      </trkpt>
      <trkpt lat="44.7188017331063747406005859375" lon="6.73918819986283779144287109375">
        <ele>1604.800048828125</ele>
        <time>2026-09-03T05:34:30.000Z</time>
        <extensions>
          <ns3:TrackPointExtension>
            <ns3:hr>106</ns3:hr>
            <ns3:cad>66</ns3:cad>
          </ns3:TrackPointExtension>
        </extensions>
      </trkpt>
      <trkpt lat="44.71880726516246795654296875" lon="6.7391874454915523529052734375">
        <ele>1604.5999755859375</ele>
        <time>2026-09-03T05:34:31.000Z</time>
        <extensions>
          <ns3:TrackPointExtension>
            <ns3:hr>106</ns3:hr>
            <ns3:cad>66</ns3:cad>
          </ns3:TrackPointExtension>
        </extensions>
      </trkpt>
      <trkpt lat="44.71881573088467121124267578125" lon="6.7391911335289478302001953125">
        <ele>1604.4000244140625</ele>
        <time>2026-09-03T05:34:32.000Z</time>
        <extensions>
          <ns3:TrackPointExtension>
            <ns3:hr>106</ns3:hr>
            <ns3:cad>66</ns3:cad>
          </ns3:TrackPointExtension>
        </extensions>
      </trkpt>
      <trkpt lat="44.718824364244937896728515625" lon="6.739195995032787322998046875">
        <ele>1604.199951171875</ele>
        <time>2026-09-03T05:34:33.000Z</time>
        <extensions>
          <ns3:TrackPointExtension>
            <ns3:hr>106</ns3:hr>
            <ns3:cad>67</ns3:cad>
          </ns3:TrackPointExtension>
        </extensions>
      </trkpt>
      <trkpt lat="44.718830399215221405029296875" lon="6.7391971684992313385009765625">
        <ele>1603.800048828125</ele>
        <time>2026-09-03T05:34:34.000Z</time>
        <extensions>
          <ns3:TrackPointExtension>
            <ns3:hr>106</ns3:hr>
            <ns3:cad>68</ns3:cad>
          </ns3:TrackPointExtension>
        </extensions>
      </trkpt>
      <trkpt lat="44.7188379429280757904052734375" lon="6.7391998507082462310791015625">
        <ele>1603.5999755859375</ele>
        <time>2026-09-03T05:34:35.000Z</time>
        <extensions>
          <ns3:TrackPointExtension>
            <ns3:hr>106</ns3:hr>
            <ns3:cad>68</ns3:cad>
          </ns3:TrackPointExtension>
        </extensions>
      </trkpt>
      <trkpt lat="44.71884540282189846038818359375" lon="6.7392008565366268157958984375">
        <ele>1603.4000244140625</ele>
        <time>2026-09-03T05:34:36.000Z</time>
        <extensions>
          <ns3:TrackPointExtension>
            <ns3:hr>106</ns3:hr>
            <ns3:cad>68</ns3:cad>
          </ns3:TrackPointExtension>
        </extensions>
      </trkpt>
      <trkpt lat="44.718856550753116607666015625" lon="6.7392043769359588623046875">
        <ele>1603</ele>
        <time>2026-09-03T05:34:37.000Z</time>
        <extensions>
          <ns3:TrackPointExtension>
            <ns3:hr>106</ns3:hr>
            <ns3:cad>69</ns3:cad>
          </ns3:TrackPointExtension>
        </extensions>
      </trkpt>
      <trkpt lat="44.7188687883317470550537109375" lon="6.73920881934463977813720703125">
        <ele>1602.800048828125</ele>
        <time>2026-09-03T05:34:38.000Z</time>
        <extensions>
          <ns3:TrackPointExtension>
            <ns3:hr>106</ns3:hr>
            <ns3:cad>69</ns3:cad>
          </ns3:TrackPointExtension>
        </extensions>
      </trkpt>
      <trkpt lat="44.71887842752039432525634765625" lon="6.73921016044914722442626953125">
        <ele>1602.4000244140625</ele>
        <time>2026-09-03T05:34:39.000Z</time>
        <extensions>
          <ns3:TrackPointExtension>
            <ns3:hr>106</ns3:hr>
            <ns3:cad>69</ns3:cad>
          </ns3:TrackPointExtension>
        </extensions>
      </trkpt>
      <trkpt lat="44.71888965927064418792724609375" lon="6.73921418376266956329345703125">
        <ele>1602.199951171875</ele>
        <time>2026-09-03T05:34:40.000Z</time>
        <extensions>
          <ns3:TrackPointExtension>
            <ns3:hr>105</ns3:hr>
            <ns3:cad>69</ns3:cad>
          </ns3:TrackPointExtension>
        </extensions>
      </trkpt>
      <trkpt lat="44.718907512724399566650390625" lon="6.73921887762844562530517578125">
        <ele>1602</ele>
        <time>2026-09-03T05:34:41.000Z</time>
        <extensions>
          <ns3:TrackPointExtension>
            <ns3:hr>105</ns3:hr>
            <ns3:cad>69</ns3:cad>
          </ns3:TrackPointExtension>
        </extensions>
      </trkpt>
      <trkpt lat="44.7189170680940151214599609375" lon="6.739220805466175079345703125">
        <ele>1601.5999755859375</ele>
        <time>2026-09-03T05:34:42.000Z</time>
        <extensions>
          <ns3:TrackPointExtension>
            <ns3:hr>105</ns3:hr>
            <ns3:cad>69</ns3:cad>
          </ns3:TrackPointExtension>
        </extensions>
      </trkpt>
      <trkpt lat="44.71893190406262874603271484375" lon="6.7392258346080780029296875">
        <ele>1601.4000244140625</ele>
        <time>2026-09-03T05:34:43.000Z</time>
        <extensions>
          <ns3:TrackPointExtension>
            <ns3:hr>104</ns3:hr>
            <ns3:cad>69</ns3:cad>
          </ns3:TrackPointExtension>
        </extensions>
      </trkpt>
      <trkpt lat="44.71894833259284496307373046875" lon="6.73923128284513950347900390625">
        <ele>1601.199951171875</ele>
        <time>2026-09-03T05:34:44.000Z</time>
        <extensions>
          <ns3:TrackPointExtension>
            <ns3:hr>104</ns3:hr>
            <ns3:cad>69</ns3:cad>
          </ns3:TrackPointExtension>
        </extensions>
      </trkpt>
      <trkpt lat="44.718968532979488372802734375" lon="6.739243604242801666259765625">
        <ele>1601</ele>
        <time>2026-09-03T05:34:45.000Z</time>
        <extensions>
          <ns3:TrackPointExtension>
            <ns3:hr>104</ns3:hr>
            <ns3:cad>69</ns3:cad>
          </ns3:TrackPointExtension>
        </extensions>
      </trkpt>
      <trkpt lat="44.71898286603391170501708984375" lon="6.739254333078861236572265625">
        <ele>1600.5999755859375</ele>
        <time>2026-09-03T05:34:46.000Z</time>
        <extensions>
          <ns3:TrackPointExtension>
            <ns3:hr>104</ns3:hr>
            <ns3:cad>69</ns3:cad>
          </ns3:TrackPointExtension>
        </extensions>
      </trkpt>
      <trkpt lat="44.7190085984766483306884765625" lon="6.73925978131592273712158203125">
        <ele>1600.4000244140625</ele>
        <time>2026-09-03T05:34:47.000Z</time>
        <extensions>
          <ns3:TrackPointExtension>
            <ns3:hr>104</ns3:hr>
            <ns3:cad>69</ns3:cad>
          </ns3:TrackPointExtension>
        </extensions>
      </trkpt>
      <trkpt lat="44.71903366036713123321533203125" lon="6.739266403019428253173828125">
        <ele>1600</ele>
        <time>2026-09-03T05:34:48.000Z</time>
        <extensions>
          <ns3:TrackPointExtension>
            <ns3:hr>103</ns3:hr>
            <ns3:cad>69</ns3:cad>
          </ns3:TrackPointExtension>
        </extensions>
      </trkpt>
      <trkpt lat="44.7190506756305694580078125" lon="6.739281155169010162353515625">
        <ele>1599.5999755859375</ele>
        <time>2026-09-03T05:34:49.000Z</time>
        <extensions>
          <ns3:TrackPointExtension>
            <ns3:hr>103</ns3:hr>
            <ns3:cad>69</ns3:cad>
          </ns3:TrackPointExtension>
        </extensions>
      </trkpt>
      <trkpt lat="44.7190773300826549530029296875" lon="6.7392870225012302398681640625">
        <ele>1599.4000244140625</ele>
        <time>2026-09-03T05:34:50.000Z</time>
        <extensions>
          <ns3:TrackPointExtension>
            <ns3:hr>103</ns3:hr>
            <ns3:cad>80</ns3:cad>
          </ns3:TrackPointExtension>
        </extensions>
      </trkpt>
      <trkpt lat="44.71910767257213592529296875" lon="6.73930294811725616455078125">
        <ele>1599</ele>
        <time>2026-09-03T05:34:51.000Z</time>
        <extensions>
          <ns3:TrackPointExtension>
            <ns3:hr>103</ns3:hr>
            <ns3:cad>80</ns3:cad>
          </ns3:TrackPointExtension>
        </extensions>
      </trkpt>
      <trkpt lat="44.7191282920539379119873046875" lon="6.73930923454463481903076171875">
        <ele>1598.5999755859375</ele>
        <time>2026-09-03T05:34:52.000Z</time>
        <extensions>
          <ns3:TrackPointExtension>
            <ns3:hr>103</ns3:hr>
            <ns3:cad>82</ns3:cad>
          </ns3:TrackPointExtension>
        </extensions>
      </trkpt>
      <trkpt lat="44.7191541083157062530517578125" lon="6.7393178679049015045166015625">
        <ele>1598.4000244140625</ele>
        <time>2026-09-03T05:34:53.000Z</time>
        <extensions>
          <ns3:TrackPointExtension>
            <ns3:hr>103</ns3:hr>
            <ns3:cad>81</ns3:cad>
          </ns3:TrackPointExtension>
        </extensions>
      </trkpt>
      <trkpt lat="44.71917816437780857086181640625" lon="6.7393302731215953826904296875">
        <ele>1598.199951171875</ele>
        <time>2026-09-03T05:34:54.000Z</time>
        <extensions>
          <ns3:TrackPointExtension>
            <ns3:hr>104</ns3:hr>
            <ns3:cad>82</ns3:cad>
          </ns3:TrackPointExtension>
        </extensions>
      </trkpt>
      <trkpt lat="44.719200544059276580810546875" lon="6.73933320678770542144775390625">
        <ele>1598</ele>
        <time>2026-09-03T05:34:55.000Z</time>
        <extensions>
          <ns3:TrackPointExtension>
            <ns3:hr>105</ns3:hr>
            <ns3:cad>82</ns3:cad>
          </ns3:TrackPointExtension>
        </extensions>
      </trkpt>
      <trkpt lat="44.719229377806186676025390625" lon="6.7393493838608264923095703125">
        <ele>1597.800048828125</ele>
        <time>2026-09-03T05:34:56.000Z</time>
        <extensions>
          <ns3:TrackPointExtension>
            <ns3:hr>106</ns3:hr>
            <ns3:cad>83</ns3:cad>
          </ns3:TrackPointExtension>
        </extensions>
      </trkpt>
      <trkpt lat="44.71925360150635242462158203125" lon="6.73936187289655208587646484375">
        <ele>1597.4000244140625</ele>
        <time>2026-09-03T05:34:57.000Z</time>
        <extensions>
          <ns3:TrackPointExtension>
            <ns3:hr>108</ns3:hr>
            <ns3:cad>83</ns3:cad>
          </ns3:TrackPointExtension>
        </extensions>
      </trkpt>
      <trkpt lat="44.71927933394908905029296875" lon="6.739382408559322357177734375">
        <ele>1597.4000244140625</ele>
        <time>2026-09-03T05:34:58.000Z</time>
        <extensions>
          <ns3:TrackPointExtension>
            <ns3:hr>108</ns3:hr>
            <ns3:cad>84</ns3:cad>
          </ns3:TrackPointExtension>
        </extensions>
      </trkpt>
      <trkpt lat="44.71929433755576610565185546875" lon="6.73940311186015605926513671875">
        <ele>1597.199951171875</ele>
        <time>2026-09-03T05:34:59.000Z</time>
        <extensions>
          <ns3:TrackPointExtension>
            <ns3:hr>109</ns3:hr>
            <ns3:cad>85</ns3:cad>
          </ns3:TrackPointExtension>
        </extensions>
      </trkpt>
      <trkpt lat="44.7193180583417415618896484375" lon="6.739420630037784576416015625">
        <ele>1597.199951171875</ele>
        <time>2026-09-03T05:35:00.000Z</time>
        <extensions>
          <ns3:TrackPointExtension>
            <ns3:hr>109</ns3:hr>
            <ns3:cad>85</ns3:cad>
          </ns3:TrackPointExtension>
        </extensions>
      </trkpt>
      <trkpt lat="44.71933222375810146331787109375" lon="6.7394472844898700714111328125">
        <ele>1597</ele>
        <time>2026-09-03T05:35:01.000Z</time>
        <extensions>
          <ns3:TrackPointExtension>
            <ns3:hr>110</ns3:hr>
            <ns3:cad>85</ns3:cad>
          </ns3:TrackPointExtension>
        </extensions>
      </trkpt>
      <trkpt lat="44.71933406777679920196533203125" lon="6.73946782015264034271240234375">
        <ele>1597.199951171875</ele>
        <time>2026-09-03T05:35:02.000Z</time>
        <extensions>
          <ns3:TrackPointExtension>
            <ns3:hr>111</ns3:hr>
            <ns3:cad>85</ns3:cad>
          </ns3:TrackPointExtension>
        </extensions>
      </trkpt>
      <trkpt lat="44.7193376719951629638671875" lon="6.73948793672025203704833984375">
        <ele>1597.199951171875</ele>
        <time>2026-09-03T05:35:03.000Z</time>
        <extensions>
          <ns3:TrackPointExtension>
            <ns3:hr>111</ns3:hr>
            <ns3:cad>85</ns3:cad>
          </ns3:TrackPointExtension>
        </extensions>
      </trkpt>
      <trkpt lat="44.71933809109032154083251953125" lon="6.73950687982141971588134765625">
        <ele>1597.199951171875</ele>
        <time>2026-09-03T05:35:04.000Z</time>
        <extensions>
          <ns3:TrackPointExtension>
            <ns3:hr>112</ns3:hr>
            <ns3:cad>85</ns3:cad>
          </ns3:TrackPointExtension>
        </extensions>
      </trkpt>
      <trkpt lat="44.71934077329933643341064453125" lon="6.73952213488519191741943359375">
        <ele>1597.199951171875</ele>
        <time>2026-09-03T05:35:05.000Z</time>
        <extensions>
          <ns3:TrackPointExtension>
            <ns3:hr>112</ns3:hr>
            <ns3:cad>83</ns3:cad>
          </ns3:TrackPointExtension>
        </extensions>
      </trkpt>
      <trkpt lat="44.71934613771736621856689453125" lon="6.73954032361507415771484375">
        <ele>1597.199951171875</ele>
        <time>2026-09-03T05:35:06.000Z</time>
        <extensions>
          <ns3:TrackPointExtension>
            <ns3:hr>113</ns3:hr>
            <ns3:cad>83</ns3:cad>
          </ns3:TrackPointExtension>
        </extensions>
      </trkpt>
      <trkpt lat="44.7193489037454128265380859375" lon="6.7395492084324359893798828125">
        <ele>1597</ele>
        <time>2026-09-03T05:35:07.000Z</time>
        <extensions>
          <ns3:TrackPointExtension>
            <ns3:hr>114</ns3:hr>
            <ns3:cad>80</ns3:cad>
          </ns3:TrackPointExtension>
        </extensions>
      </trkpt>
      <trkpt lat="44.71934814937412738800048828125" lon="6.73955717124044895172119140625">
        <ele>1597</ele>
        <time>2026-09-03T05:35:08.000Z</time>
        <extensions>
          <ns3:TrackPointExtension>
            <ns3:hr>114</ns3:hr>
            <ns3:cad>80</ns3:cad>
          </ns3:TrackPointExtension>
        </extensions>
      </trkpt>
      <trkpt lat="44.719343371689319610595703125" lon="6.73957519233226776123046875">
        <ele>1597</ele>
        <time>2026-09-03T05:35:09.000Z</time>
        <extensions>
          <ns3:TrackPointExtension>
            <ns3:hr>114</ns3:hr>
            <ns3:cad>80</ns3:cad>
          </ns3:TrackPointExtension>
        </extensions>
      </trkpt>
      <trkpt lat="44.719339348375797271728515625" lon="6.73959019593894481658935546875">
        <ele>1596.800048828125</ele>
        <time>2026-09-03T05:35:10.000Z</time>
        <extensions>
          <ns3:TrackPointExtension>
            <ns3:hr>115</ns3:hr>
            <ns3:cad>80</ns3:cad>
          </ns3:TrackPointExtension>
        </extensions>
      </trkpt>
      <trkpt lat="44.7193378396332263946533203125" lon="6.739608384668827056884765625">
        <ele>1596.5999755859375</ele>
        <time>2026-09-03T05:35:11.000Z</time>
        <extensions>
          <ns3:TrackPointExtension>
            <ns3:hr>115</ns3:hr>
            <ns3:cad>80</ns3:cad>
          </ns3:TrackPointExtension>
        </extensions>
      </trkpt>
      <trkpt lat="44.7193277813494205474853515625" lon="6.7396206222474575042724609375">
        <ele>1596.4000244140625</ele>
        <time>2026-09-03T05:35:12.000Z</time>
        <extensions>
          <ns3:TrackPointExtension>
            <ns3:hr>114</ns3:hr>
            <ns3:cad>79</ns3:cad>
          </ns3:TrackPointExtension>
        </extensions>
      </trkpt>
      <trkpt lat="44.719325266778469085693359375" lon="6.7396353743970394134521484375">
        <ele>1596.199951171875</ele>
        <time>2026-09-03T05:35:13.000Z</time>
        <extensions>
          <ns3:TrackPointExtension>
            <ns3:hr>114</ns3:hr>
            <ns3:cad>68</ns3:cad>
          </ns3:TrackPointExtension>
        </extensions>
      </trkpt>
      <trkpt lat="44.7193254344165325164794921875" lon="6.73966043628752231597900390625">
        <ele>1596</ele>
        <time>2026-09-03T05:35:14.000Z</time>
        <extensions>
          <ns3:TrackPointExtension>
            <ns3:hr>114</ns3:hr>
            <ns3:cad>66</ns3:cad>
          </ns3:TrackPointExtension>
        </extensions>
      </trkpt>
      <trkpt lat="44.71932970918715000152587890625" lon="6.7396947182714939117431640625">
        <ele>1595.800048828125</ele>
        <time>2026-09-03T05:35:15.000Z</time>
        <extensions>
          <ns3:TrackPointExtension>
            <ns3:hr>114</ns3:hr>
            <ns3:cad>64</ns3:cad>
          </ns3:TrackPointExtension>
        </extensions>
      </trkpt>
      <trkpt lat="44.71933105029165744781494140625" lon="6.73972732387483119964599609375">
        <ele>1595.5999755859375</ele>
        <time>2026-09-03T05:35:16.000Z</time>
        <extensions>
          <ns3:TrackPointExtension>
            <ns3:hr>114</ns3:hr>
            <ns3:cad>64</ns3:cad>
          </ns3:TrackPointExtension>
        </extensions>
      </trkpt>
      <trkpt lat="44.71933406777679920196533203125" lon="6.73976906575262546539306640625">
        <ele>1595.4000244140625</ele>
        <time>2026-09-03T05:35:17.000Z</time>
        <extensions>
          <ns3:TrackPointExtension>
            <ns3:hr>114</ns3:hr>
            <ns3:cad>64</ns3:cad>
          </ns3:TrackPointExtension>
        </extensions>
      </trkpt>
      <trkpt lat="44.7193358279764652252197265625" lon="6.73980896361172199249267578125">
        <ele>1595.199951171875</ele>
        <time>2026-09-03T05:35:18.000Z</time>
        <extensions>
          <ns3:TrackPointExtension>
            <ns3:hr>114</ns3:hr>
            <ns3:cad>0</ns3:cad>
          </ns3:TrackPointExtension>
        </extensions>
      </trkpt>
      <trkpt lat="44.71934144385159015655517578125" lon="6.739845760166645050048828125">
        <ele>1594.800048828125</ele>
        <time>2026-09-03T05:35:19.000Z</time>
        <extensions>
          <ns3:TrackPointExtension>
            <ns3:hr>114</ns3:hr>
            <ns3:cad>0</ns3:cad>
          </ns3:TrackPointExtension>
        </extensions>
      </trkpt>
      <trkpt lat="44.71934831701219081878662109375" lon="6.73988171853125095367431640625">
        <ele>1594.5999755859375</ele>
        <time>2026-09-03T05:35:20.000Z</time>
        <extensions>
          <ns3:TrackPointExtension>
            <ns3:hr>113</ns3:hr>
            <ns3:cad>82</ns3:cad>
          </ns3:TrackPointExtension>
        </extensions>
      </trkpt>
      <trkpt lat="44.71935099922120571136474609375" lon="6.73991021700203418731689453125">
        <ele>1594.4000244140625</ele>
        <time>2026-09-03T05:35:21.000Z</time>
        <extensions>
          <ns3:TrackPointExtension>
            <ns3:hr>114</ns3:hr>
            <ns3:cad>82</ns3:cad>
          </ns3:TrackPointExtension>
        </extensions>
      </trkpt>
      <trkpt lat="44.71936575137078762054443359375" lon="6.739943660795688629150390625">
        <ele>1594.199951171875</ele>
        <time>2026-09-03T05:35:22.000Z</time>
        <extensions>
          <ns3:TrackPointExtension>
            <ns3:hr>114</ns3:hr>
            <ns3:cad>82</ns3:cad>
          </ns3:TrackPointExtension>
        </extensions>
      </trkpt>
      <trkpt lat="44.71937178634107112884521484375" lon="6.7399649508297443389892578125">
        <ele>1594.199951171875</ele>
        <time>2026-09-03T05:35:23.000Z</time>
        <extensions>
          <ns3:TrackPointExtension>
            <ns3:hr>115</ns3:hr>
            <ns3:cad>82</ns3:cad>
          </ns3:TrackPointExtension>
        </extensions>
      </trkpt>
      <trkpt lat="44.71937882713973522186279296875" lon="6.74000543542206287384033203125">
        <ele>1594</ele>
        <time>2026-09-03T05:35:24.000Z</time>
        <extensions>
          <ns3:TrackPointExtension>
            <ns3:hr>116</ns3:hr>
            <ns3:cad>83</ns3:cad>
          </ns3:TrackPointExtension>
        </extensions>
      </trkpt>
      <trkpt lat="44.71938620321452617645263671875" lon="6.74003519117832183837890625">
        <ele>1593.800048828125</ele>
        <time>2026-09-03T05:35:25.000Z</time>
        <extensions>
          <ns3:TrackPointExtension>
            <ns3:hr>116</ns3:hr>
            <ns3:cad>86</ns3:cad>
          </ns3:TrackPointExtension>
        </extensions>
      </trkpt>
      <trkpt lat="44.71939860843122005462646484375" lon="6.74005555920302867889404296875">
        <ele>1593.5999755859375</ele>
        <time>2026-09-03T05:35:26.000Z</time>
        <extensions>
          <ns3:TrackPointExtension>
            <ns3:hr>117</ns3:hr>
            <ns3:cad>86</ns3:cad>
          </ns3:TrackPointExtension>
        </extensions>
      </trkpt>
      <trkpt lat="44.7194136120378971099853515625" lon="6.74008757807314395904541015625">
        <ele>1593.4000244140625</ele>
        <time>2026-09-03T05:35:27.000Z</time>
        <extensions>
          <ns3:TrackPointExtension>
            <ns3:hr>118</ns3:hr>
            <ns3:cad>86</ns3:cad>
          </ns3:TrackPointExtension>
        </extensions>
      </trkpt>
      <trkpt lat="44.7194183059036731719970703125" lon="6.74010719172656536102294921875">
        <ele>1593.199951171875</ele>
        <time>2026-09-03T05:35:28.000Z</time>
        <extensions>
          <ns3:TrackPointExtension>
            <ns3:hr>118</ns3:hr>
            <ns3:cad>86</ns3:cad>
          </ns3:TrackPointExtension>
        </extensions>
      </trkpt>
      <trkpt lat="44.7194169647991657257080078125" lon="6.74013116396963596343994140625">
        <ele>1593.199951171875</ele>
        <time>2026-09-03T05:35:29.000Z</time>
        <extensions>
          <ns3:TrackPointExtension>
            <ns3:hr>119</ns3:hr>
            <ns3:cad>86</ns3:cad>
          </ns3:TrackPointExtension>
        </extensions>
      </trkpt>
      <trkpt lat="44.71942140720784664154052734375" lon="6.7401587404310703277587890625">
        <ele>1593</ele>
        <time>2026-09-03T05:35:30.000Z</time>
        <extensions>
          <ns3:TrackPointExtension>
            <ns3:hr>119</ns3:hr>
            <ns3:cad>86</ns3:cad>
          </ns3:TrackPointExtension>
        </extensions>
      </trkpt>
      <trkpt lat="44.71942551434040069580078125" lon="6.74018614925444126129150390625">
        <ele>1593</ele>
        <time>2026-09-03T05:35:31.000Z</time>
        <extensions>
          <ns3:TrackPointExtension>
            <ns3:hr>119</ns3:hr>
            <ns3:cad>86</ns3:cad>
          </ns3:TrackPointExtension>
        </extensions>
      </trkpt>
      <trkpt lat="44.71942392177879810333251953125" lon="6.7402036674320697784423828125">
        <ele>1592.800048828125</ele>
        <time>2026-09-03T05:35:32.000Z</time>
        <extensions>
          <ns3:TrackPointExtension>
            <ns3:hr>120</ns3:hr>
            <ns3:cad>83</ns3:cad>
          </ns3:TrackPointExtension>
        </extensions>
      </trkpt>
      <trkpt lat="44.7194233350455760955810546875" lon="6.74021917395293712615966796875">
        <ele>1592.5999755859375</ele>
        <time>2026-09-03T05:35:33.000Z</time>
        <extensions>
          <ns3:TrackPointExtension>
            <ns3:hr>120</ns3:hr>
            <ns3:cad>83</ns3:cad>
          </ns3:TrackPointExtension>
        </extensions>
      </trkpt>
      <trkpt lat="44.7194246761500835418701171875" lon="6.7402435652911663055419921875">
        <ele>1592.199951171875</ele>
        <time>2026-09-03T05:35:34.000Z</time>
        <extensions>
          <ns3:TrackPointExtension>
            <ns3:hr>120</ns3:hr>
            <ns3:cad>83</ns3:cad>
          </ns3:TrackPointExtension>
        </extensions>
      </trkpt>
      <trkpt lat="44.71943280659615993499755859375" lon="6.74026410095393657684326171875">
        <ele>1592</ele>
        <time>2026-09-03T05:35:35.000Z</time>
        <extensions>
          <ns3:TrackPointExtension>
            <ns3:hr>120</ns3:hr>
            <ns3:cad>72</ns3:cad>
          </ns3:TrackPointExtension>
        </extensions>
      </trkpt>
      <trkpt lat="44.71943029202520847320556640625" lon="6.74027633853256702423095703125">
        <ele>1591.800048828125</ele>
        <time>2026-09-03T05:35:36.000Z</time>
        <extensions>
          <ns3:TrackPointExtension>
            <ns3:hr>121</ns3:hr>
            <ns3:cad>72</ns3:cad>
          </ns3:TrackPointExtension>
        </extensions>
      </trkpt>
      <trkpt lat="44.71942610107362270355224609375" lon="6.740291006863117218017578125">
        <ele>1591.4000244140625</ele>
        <time>2026-09-03T05:35:37.000Z</time>
        <extensions>
          <ns3:TrackPointExtension>
            <ns3:hr>121</ns3:hr>
            <ns3:cad>72</ns3:cad>
          </ns3:TrackPointExtension>
        </extensions>
      </trkpt>
      <trkpt lat="44.71942375414073467254638671875" lon="6.74030617810785770416259765625">
        <ele>1591</ele>
        <time>2026-09-03T05:35:38.000Z</time>
        <extensions>
          <ns3:TrackPointExtension>
            <ns3:hr>121</ns3:hr>
            <ns3:cad>72</ns3:cad>
          </ns3:TrackPointExtension>
        </extensions>
      </trkpt>
      <trkpt lat="44.71941486932337284088134765625" lon="6.740321852266788482666015625">
        <ele>1590.800048828125</ele>
        <time>2026-09-03T05:35:39.000Z</time>
        <extensions>
          <ns3:TrackPointExtension>
            <ns3:hr>120</ns3:hr>
            <ns3:cad>72</ns3:cad>
          </ns3:TrackPointExtension>
        </extensions>
      </trkpt>
      <trkpt lat="44.71940598450601100921630859375" lon="6.7403287254273891448974609375">
        <ele>1590.4000244140625</ele>
        <time>2026-09-03T05:35:40.000Z</time>
        <extensions>
          <ns3:TrackPointExtension>
            <ns3:hr>120</ns3:hr>
            <ns3:cad>72</ns3:cad>
          </ns3:TrackPointExtension>
        </extensions>
      </trkpt>
      <trkpt lat="44.71939626149833202362060546875" lon="6.74033828079700469970703125">
        <ele>1590</ele>
        <time>2026-09-03T05:35:41.000Z</time>
        <extensions>
          <ns3:TrackPointExtension>
            <ns3:hr>120</ns3:hr>
            <ns3:cad>72</ns3:cad>
          </ns3:TrackPointExtension>
        </extensions>
      </trkpt>
      <trkpt lat="44.7193851135671138763427734375" lon="6.7403495125472545623779296875">
        <ele>1589.5999755859375</ele>
        <time>2026-09-03T05:35:42.000Z</time>
        <extensions>
          <ns3:TrackPointExtension>
            <ns3:hr>121</ns3:hr>
            <ns3:cad>72</ns3:cad>
          </ns3:TrackPointExtension>
        </extensions>
      </trkpt>
      <trkpt lat="44.7193777374923229217529296875" lon="6.740360744297504425048828125">
        <ele>1589.199951171875</ele>
        <time>2026-09-03T05:35:43.000Z</time>
        <extensions>
          <ns3:TrackPointExtension>
            <ns3:hr>120</ns3:hr>
            <ns3:cad>72</ns3:cad>
          </ns3:TrackPointExtension>
        </extensions>
      </trkpt>
      <trkpt lat="44.7193676792085170745849609375" lon="6.740367449820041656494140625">
        <ele>1589</ele>
        <time>2026-09-03T05:35:44.000Z</time>
        <extensions>
          <ns3:TrackPointExtension>
            <ns3:hr>120</ns3:hr>
            <ns3:cad>72</ns3:cad>
          </ns3:TrackPointExtension>
        </extensions>
      </trkpt>
      <trkpt lat="44.7193579562008380889892578125" lon="6.74037692137062549591064453125">
        <ele>1588.800048828125</ele>
        <time>2026-09-03T05:35:45.000Z</time>
        <extensions>
          <ns3:TrackPointExtension>
            <ns3:hr>120</ns3:hr>
            <ns3:cad>0</ns3:cad>
          </ns3:TrackPointExtension>
        </extensions>
      </trkpt>
      <trkpt lat="44.7193509154021739959716796875" lon="6.74038765020668506622314453125">
        <ele>1588.5999755859375</ele>
        <time>2026-09-03T05:35:46.000Z</time>
        <extensions>
          <ns3:TrackPointExtension>
            <ns3:hr>120</ns3:hr>
            <ns3:cad>0</ns3:cad>
          </ns3:TrackPointExtension>
        </extensions>
      </trkpt>
      <trkpt lat="44.719344042241573333740234375" lon="6.740396954119205474853515625">
        <ele>1588.199951171875</ele>
        <time>2026-09-03T05:35:47.000Z</time>
        <extensions>
          <ns3:TrackPointExtension>
            <ns3:hr>119</ns3:hr>
            <ns3:cad>0</ns3:cad>
          </ns3:TrackPointExtension>
        </extensions>
      </trkpt>
      <trkpt lat="44.71933624707162380218505859375" lon="6.74040709622204303741455078125">
        <ele>1588</ele>
        <time>2026-09-03T05:35:48.000Z</time>
        <extensions>
          <ns3:TrackPointExtension>
            <ns3:hr>119</ns3:hr>
            <ns3:cad>0</ns3:cad>
          </ns3:TrackPointExtension>
        </extensions>
      </trkpt>
      <trkpt lat="44.7193250991404056549072265625" lon="6.74042369239032268524169921875">
        <ele>1587.5999755859375</ele>
        <time>2026-09-03T05:35:49.000Z</time>
        <extensions>
          <ns3:TrackPointExtension>
            <ns3:hr>119</ns3:hr>
            <ns3:cad>0</ns3:cad>
          </ns3:TrackPointExtension>
        </extensions>
      </trkpt>
      <trkpt lat="44.7193140350282192230224609375" lon="6.74043643288314342498779296875">
        <ele>1587.199951171875</ele>
        <time>2026-09-03T05:35:50.000Z</time>
        <extensions>
          <ns3:TrackPointExtension>
            <ns3:hr>118</ns3:hr>
            <ns3:cad>0</ns3:cad>
          </ns3:TrackPointExtension>
        </extensions>
      </trkpt>
      <trkpt lat="44.7193073295056819915771484375" lon="6.740445904433727264404296875">
        <ele>1586.800048828125</ele>
        <time>2026-09-03T05:35:51.000Z</time>
        <extensions>
          <ns3:TrackPointExtension>
            <ns3:hr>116</ns3:hr>
            <ns3:cad>0</ns3:cad>
          </ns3:TrackPointExtension>
        </extensions>
      </trkpt>
      <trkpt lat="44.71930020488798618316650390625" lon="6.74045026302337646484375">
        <ele>1586.5999755859375</ele>
        <time>2026-09-03T05:35:52.000Z</time>
        <extensions>
          <ns3:TrackPointExtension>
            <ns3:hr>115</ns3:hr>
            <ns3:cad>0</ns3:cad>
          </ns3:TrackPointExtension>
        </extensions>
      </trkpt>
      <trkpt lat="44.71928629092872142791748046875" lon="6.74047314561903476715087890625">
        <ele>1586.199951171875</ele>
        <time>2026-09-03T05:35:53.000Z</time>
        <extensions>
          <ns3:TrackPointExtension>
            <ns3:hr>115</ns3:hr>
            <ns3:cad>0</ns3:cad>
          </ns3:TrackPointExtension>
        </extensions>
      </trkpt>
      <trkpt lat="44.7192701138556003570556640625" lon="6.74048622138798236846923828125">
        <ele>1586</ele>
        <time>2026-09-03T05:35:54.000Z</time>
        <extensions>
          <ns3:TrackPointExtension>
            <ns3:hr>115</ns3:hr>
            <ns3:cad>0</ns3:cad>
          </ns3:TrackPointExtension>
        </extensions>
      </trkpt>
      <trkpt lat="44.71925829537212848663330078125" lon="6.7404936812818050384521484375">
        <ele>1585.5999755859375</ele>
        <time>2026-09-03T05:35:55.000Z</time>
        <extensions>
          <ns3:TrackPointExtension>
            <ns3:hr>114</ns3:hr>
            <ns3:cad>0</ns3:cad>
          </ns3:TrackPointExtension>
        </extensions>
      </trkpt>
      <trkpt lat="44.7192503325641155242919921875" lon="6.7405091039836406707763671875">
        <ele>1585.199951171875</ele>
        <time>2026-09-03T05:35:56.000Z</time>
        <extensions>
          <ns3:TrackPointExtension>
            <ns3:hr>114</ns3:hr>
            <ns3:cad>0</ns3:cad>
          </ns3:TrackPointExtension>
        </extensions>
      </trkpt>
      <trkpt lat="44.7192419506609439849853515625" lon="6.74052226357161998748779296875">
        <ele>1585</ele>
        <time>2026-09-03T05:35:57.000Z</time>
        <extensions>
          <ns3:TrackPointExtension>
            <ns3:hr>114</ns3:hr>
            <ns3:cad>0</ns3:cad>
          </ns3:TrackPointExtension>
        </extensions>
      </trkpt>
      <trkpt lat="44.71923029981553554534912109375" lon="6.740538440644741058349609375">
        <ele>1584.5999755859375</ele>
        <time>2026-09-03T05:35:58.000Z</time>
        <extensions>
          <ns3:TrackPointExtension>
            <ns3:hr>114</ns3:hr>
            <ns3:cad>0</ns3:cad>
          </ns3:TrackPointExtension>
        </extensions>
      </trkpt>
      <trkpt lat="44.7192178107798099517822265625" lon="6.74054204486310482025146484375">
        <ele>1584.4000244140625</ele>
        <time>2026-09-03T05:35:59.000Z</time>
        <extensions>
          <ns3:TrackPointExtension>
            <ns3:hr>114</ns3:hr>
            <ns3:cad>0</ns3:cad>
          </ns3:TrackPointExtension>
        </extensions>
      </trkpt>
      <trkpt lat="44.71921185962855815887451171875" lon="6.74055143259465694427490234375">
        <ele>1584</ele>
        <time>2026-09-03T05:36:00.000Z</time>
        <extensions>
          <ns3:TrackPointExtension>
            <ns3:hr>114</ns3:hr>
            <ns3:cad>69</ns3:cad>
          </ns3:TrackPointExtension>
        </extensions>
      </trkpt>
      <trkpt lat="44.71920230425894260406494140625" lon="6.74056199379265308380126953125">
        <ele>1583.5999755859375</ele>
        <time>2026-09-03T05:36:01.000Z</time>
        <extensions>
          <ns3:TrackPointExtension>
            <ns3:hr>114</ns3:hr>
            <ns3:cad>69</ns3:cad>
          </ns3:TrackPointExtension>
        </extensions>
      </trkpt>
      <trkpt lat="44.719191156327724456787109375" lon="6.74057423137128353118896484375">
        <ele>1583.4000244140625</ele>
        <time>2026-09-03T05:36:02.000Z</time>
        <extensions>
          <ns3:TrackPointExtension>
            <ns3:hr>115</ns3:hr>
            <ns3:cad>0</ns3:cad>
          </ns3:TrackPointExtension>
        </extensions>
      </trkpt>
      <trkpt lat="44.719181768596172332763671875" lon="6.740589402616024017333984375">
        <ele>1583</ele>
        <time>2026-09-03T05:36:03.000Z</time>
        <extensions>
          <ns3:TrackPointExtension>
            <ns3:hr>116</ns3:hr>
            <ns3:cad>0</ns3:cad>
          </ns3:TrackPointExtension>
        </extensions>
      </trkpt>
      <trkpt lat="44.71916936337947845458984375" lon="6.7406049929559230804443359375">
        <ele>1582.5999755859375</ele>
        <time>2026-09-03T05:36:04.000Z</time>
        <extensions>
          <ns3:TrackPointExtension>
            <ns3:hr>116</ns3:hr>
            <ns3:cad>0</ns3:cad>
          </ns3:TrackPointExtension>
        </extensions>
      </trkpt>
      <trkpt lat="44.71916223876178264617919921875" lon="6.7406187392771244049072265625">
        <ele>1582.199951171875</ele>
        <time>2026-09-03T05:36:05.000Z</time>
        <extensions>
          <ns3:TrackPointExtension>
            <ns3:hr>115</ns3:hr>
            <ns3:cad>0</ns3:cad>
          </ns3:TrackPointExtension>
        </extensions>
      </trkpt>
      <trkpt lat="44.7191547788679599761962890625" lon="6.74063256941735744476318359375">
        <ele>1582</ele>
        <time>2026-09-03T05:36:06.000Z</time>
        <extensions>
          <ns3:TrackPointExtension>
            <ns3:hr>115</ns3:hr>
            <ns3:cad>0</ns3:cad>
          </ns3:TrackPointExtension>
        </extensions>
      </trkpt>
      <trkpt lat="44.71914933063089847564697265625" lon="6.7406408675014972686767578125">
        <ele>1581.5999755859375</ele>
        <time>2026-09-03T05:36:07.000Z</time>
        <extensions>
          <ns3:TrackPointExtension>
            <ns3:hr>115</ns3:hr>
            <ns3:cad>0</ns3:cad>
          </ns3:TrackPointExtension>
        </extensions>
      </trkpt>
      <trkpt lat="44.71913809888064861297607421875" lon="6.74065536819398403167724609375">
        <ele>1581.199951171875</ele>
        <time>2026-09-03T05:36:08.000Z</time>
        <extensions>
          <ns3:TrackPointExtension>
            <ns3:hr>115</ns3:hr>
            <ns3:cad>0</ns3:cad>
          </ns3:TrackPointExtension>
        </extensions>
      </trkpt>
      <trkpt lat="44.719128124415874481201171875" lon="6.7406666837632656097412109375">
        <ele>1580.800048828125</ele>
        <time>2026-09-03T05:36:09.000Z</time>
        <extensions>
          <ns3:TrackPointExtension>
            <ns3:hr>115</ns3:hr>
            <ns3:cad>0</ns3:cad>
          </ns3:TrackPointExtension>
        </extensions>
      </trkpt>
      <trkpt lat="44.71910608001053333282470703125" lon="6.74066710285842418670654296875">
        <ele>1580.4000244140625</ele>
        <time>2026-09-03T05:36:10.000Z</time>
        <extensions>
          <ns3:TrackPointExtension>
            <ns3:hr>115</ns3:hr>
            <ns3:cad>0</ns3:cad>
          </ns3:TrackPointExtension>
        </extensions>
      </trkpt>
      <trkpt lat="44.7190920822322368621826171875" lon="6.74067582003772258758544921875">
        <ele>1580.199951171875</ele>
        <time>2026-09-03T05:36:11.000Z</time>
        <extensions>
          <ns3:TrackPointExtension>
            <ns3:hr>115</ns3:hr>
            <ns3:cad>0</ns3:cad>
          </ns3:TrackPointExtension>
        </extensions>
      </trkpt>
      <trkpt lat="44.7190716303884983062744140625" lon="6.74070381559431552886962890625">
        <ele>1579.800048828125</ele>
        <time>2026-09-03T05:36:12.000Z</time>
        <extensions>
          <ns3:TrackPointExtension>
            <ns3:hr>114</ns3:hr>
            <ns3:cad>72</ns3:cad>
          </ns3:TrackPointExtension>
        </extensions>
      </trkpt>
      <trkpt lat="44.71905813552439212799072265625" lon="6.74072275869548320770263671875">
        <ele>1579.4000244140625</ele>
        <time>2026-09-03T05:36:13.000Z</time>
        <extensions>
          <ns3:TrackPointExtension>
            <ns3:hr>112</ns3:hr>
            <ns3:cad>72</ns3:cad>
          </ns3:TrackPointExtension>
        </extensions>
      </trkpt>
      <trkpt lat="44.7190468199551105499267578125" lon="6.7407424561679363250732421875">
        <ele>1579.199951171875</ele>
        <time>2026-09-03T05:36:14.000Z</time>
        <extensions>
          <ns3:TrackPointExtension>
            <ns3:hr>110</ns3:hr>
            <ns3:cad>72</ns3:cad>
          </ns3:TrackPointExtension>
        </extensions>
      </trkpt>
      <trkpt lat="44.719033576548099517822265625" lon="6.74076835624873638153076171875">
        <ele>1578.800048828125</ele>
        <time>2026-09-03T05:36:15.000Z</time>
        <extensions>
          <ns3:TrackPointExtension>
            <ns3:hr>107</ns3:hr>
            <ns3:cad>72</ns3:cad>
          </ns3:TrackPointExtension>
        </extensions>
      </trkpt>
      <trkpt lat="44.71902326680719852447509765625" lon="6.74079249612987041473388671875">
        <ele>1578.4000244140625</ele>
        <time>2026-09-03T05:36:16.000Z</time>
        <extensions>
          <ns3:TrackPointExtension>
            <ns3:hr>104</ns3:hr>
            <ns3:cad>79</ns3:cad>
          </ns3:TrackPointExtension>
        </extensions>
      </trkpt>
      <trkpt lat="44.7190206684172153472900390625" lon="6.74082049168646335601806640625">
        <ele>1578</ele>
        <time>2026-09-03T05:36:17.000Z</time>
        <extensions>
          <ns3:TrackPointExtension>
            <ns3:hr>103</ns3:hr>
            <ns3:cad>80</ns3:cad>
          </ns3:TrackPointExtension>
        </extensions>
      </trkpt>
      <trkpt lat="44.7190129570662975311279296875" lon="6.74085586331784725189208984375">
        <ele>1577.5999755859375</ele>
        <time>2026-09-03T05:36:18.000Z</time>
        <extensions>
          <ns3:TrackPointExtension>
            <ns3:hr>102</ns3:hr>
            <ns3:cad>81</ns3:cad>
          </ns3:TrackPointExtension>
        </extensions>
      </trkpt>
      <trkpt lat="44.71901253797113895416259765625" lon="6.74087262712419033050537109375">
        <ele>1577.4000244140625</ele>
        <time>2026-09-03T05:36:19.000Z</time>
        <extensions>
          <ns3:TrackPointExtension>
            <ns3:hr>102</ns3:hr>
            <ns3:cad>81</ns3:cad>
          </ns3:TrackPointExtension>
        </extensions>
      </trkpt>
      <trkpt lat="44.718998372554779052734375" lon="6.7408933304250240325927734375">
        <ele>1577</ele>
        <time>2026-09-03T05:36:20.000Z</time>
        <extensions>
          <ns3:TrackPointExtension>
            <ns3:hr>101</ns3:hr>
            <ns3:cad>81</ns3:cad>
          </ns3:TrackPointExtension>
        </extensions>
      </trkpt>
      <trkpt lat="44.71899761818349361419677734375" lon="6.74090598709881305694580078125">
        <ele>1576.800048828125</ele>
        <time>2026-09-03T05:36:21.000Z</time>
        <extensions>
          <ns3:TrackPointExtension>
            <ns3:hr>101</ns3:hr>
            <ns3:cad>81</ns3:cad>
          </ns3:TrackPointExtension>
        </extensions>
      </trkpt>
      <trkpt lat="44.7189925052225589752197265625" lon="6.7409218288958072662353515625">
        <ele>1576.800048828125</ele>
        <time>2026-09-03T05:36:22.000Z</time>
        <extensions>
          <ns3:TrackPointExtension>
            <ns3:hr>101</ns3:hr>
            <ns3:cad>82</ns3:cad>
          </ns3:TrackPointExtension>
        </extensions>
      </trkpt>
      <trkpt lat="44.71898202784359455108642578125" lon="6.74094471149146556854248046875">
        <ele>1576.5999755859375</ele>
        <time>2026-09-03T05:36:23.000Z</time>
        <extensions>
          <ns3:TrackPointExtension>
            <ns3:hr>102</ns3:hr>
            <ns3:cad>82</ns3:cad>
          </ns3:TrackPointExtension>
        </extensions>
      </trkpt>
      <trkpt lat="44.71897096373140811920166015625" lon="6.74096482805907726287841796875">
        <ele>1576.4000244140625</ele>
        <time>2026-09-03T05:36:24.000Z</time>
        <extensions>
          <ns3:TrackPointExtension>
            <ns3:hr>102</ns3:hr>
            <ns3:cad>82</ns3:cad>
          </ns3:TrackPointExtension>
        </extensions>
      </trkpt>
      <trkpt lat="44.718963168561458587646484375" lon="6.7409821785986423492431640625">
        <ele>1576</ele>
        <time>2026-09-03T05:36:25.000Z</time>
        <extensions>
          <ns3:TrackPointExtension>
            <ns3:hr>102</ns3:hr>
            <ns3:cad>82</ns3:cad>
          </ns3:TrackPointExtension>
        </extensions>
      </trkpt>
      <trkpt lat="44.7189619950950145721435546875" lon="6.74099517054855823516845703125">
        <ele>1575.5999755859375</ele>
        <time>2026-09-03T05:36:26.000Z</time>
        <extensions>
          <ns3:TrackPointExtension>
            <ns3:hr>102</ns3:hr>
            <ns3:cad>66</ns3:cad>
          </ns3:TrackPointExtension>
        </extensions>
      </trkpt>
      <trkpt lat="44.71896040253341197967529296875" lon="6.74100958742201328277587890625">
        <ele>1575.4000244140625</ele>
        <time>2026-09-03T05:36:27.000Z</time>
        <extensions>
          <ns3:TrackPointExtension>
            <ns3:hr>101</ns3:hr>
            <ns3:cad>66</ns3:cad>
          </ns3:TrackPointExtension>
        </extensions>
      </trkpt>
      <trkpt lat="44.7189609892666339874267578125" lon="6.74102601595222949981689453125">
        <ele>1575.199951171875</ele>
        <time>2026-09-03T05:36:28.000Z</time>
        <extensions>
          <ns3:TrackPointExtension>
            <ns3:hr>102</ns3:hr>
            <ns3:cad>66</ns3:cad>
          </ns3:TrackPointExtension>
        </extensions>
      </trkpt>
      <trkpt lat="44.7189512662589550018310546875" lon="6.74103741534054279327392578125">
        <ele>1575</ele>
        <time>2026-09-03T05:36:29.000Z</time>
        <extensions>
          <ns3:TrackPointExtension>
            <ns3:hr>102</ns3:hr>
            <ns3:cad>72</ns3:cad>
          </ns3:TrackPointExtension>
        </extensions>
      </trkpt>
      <trkpt lat="44.71894112415611743927001953125" lon="6.74103842116892337799072265625">
        <ele>1574.5999755859375</ele>
        <time>2026-09-03T05:36:30.000Z</time>
        <extensions>
          <ns3:TrackPointExtension>
            <ns3:hr>102</ns3:hr>
            <ns3:cad>72</ns3:cad>
          </ns3:TrackPointExtension>
        </extensions>
      </trkpt>
      <trkpt lat="44.71893131732940673828125" lon="6.7410428635776042938232421875">
        <ele>1574.4000244140625</ele>
        <time>2026-09-03T05:36:31.000Z</time>
        <extensions>
          <ns3:TrackPointExtension>
            <ns3:hr>102</ns3:hr>
            <ns3:cad>74</ns3:cad>
          </ns3:TrackPointExtension>
        </extensions>
      </trkpt>
      <trkpt lat="44.71891933120787143707275390625" lon="6.74105132929980754852294921875">
        <ele>1574.199951171875</ele>
        <time>2026-09-03T05:36:32.000Z</time>
        <extensions>
          <ns3:TrackPointExtension>
            <ns3:hr>101</ns3:hr>
            <ns3:cad>74</ns3:cad>
          </ns3:TrackPointExtension>
        </extensions>
      </trkpt>
      <trkpt lat="44.71890223212540149688720703125" lon="6.7410566098988056182861328125">
        <ele>1573.800048828125</ele>
        <time>2026-09-03T05:36:33.000Z</time>
        <extensions>
          <ns3:TrackPointExtension>
            <ns3:hr>102</ns3:hr>
            <ns3:cad>79</ns3:cad>
          </ns3:TrackPointExtension>
        </extensions>
      </trkpt>
      <trkpt lat="44.71888982690870761871337890625" lon="6.7410592921078205108642578125">
        <ele>1573.4000244140625</ele>
        <time>2026-09-03T05:36:34.000Z</time>
        <extensions>
          <ns3:TrackPointExtension>
            <ns3:hr>102</ns3:hr>
            <ns3:cad>79</ns3:cad>
          </ns3:TrackPointExtension>
        </extensions>
      </trkpt>
      <trkpt lat="44.7188825346529483795166015625" lon="6.7410716973245143890380859375">
        <ele>1573.199951171875</ele>
        <time>2026-09-03T05:36:35.000Z</time>
        <extensions>
          <ns3:TrackPointExtension>
            <ns3:hr>101</ns3:hr>
            <ns3:cad>79</ns3:cad>
          </ns3:TrackPointExtension>
        </extensions>
      </trkpt>
      <trkpt lat="44.7188677825033664703369140625" lon="6.74108100123703479766845703125">
        <ele>1572.800048828125</ele>
        <time>2026-09-03T05:36:36.000Z</time>
        <extensions>
          <ns3:TrackPointExtension>
            <ns3:hr>101</ns3:hr>
            <ns3:cad>79</ns3:cad>
          </ns3:TrackPointExtension>
        </extensions>
      </trkpt>
      <trkpt lat="44.71885420382022857666015625" lon="6.741088964045047760009765625">
        <ele>1572.5999755859375</ele>
        <time>2026-09-03T05:36:37.000Z</time>
        <extensions>
          <ns3:TrackPointExtension>
            <ns3:hr>101</ns3:hr>
            <ns3:cad>79</ns3:cad>
          </ns3:TrackPointExtension>
        </extensions>
      </trkpt>
      <trkpt lat="44.71884909085929393768310546875" lon="6.74109642393887042999267578125">
        <ele>1572</ele>
        <time>2026-09-03T05:36:38.000Z</time>
        <extensions>
          <ns3:TrackPointExtension>
            <ns3:hr>101</ns3:hr>
            <ns3:cad>79</ns3:cad>
          </ns3:TrackPointExtension>
        </extensions>
      </trkpt>
      <trkpt lat="44.7188372723758220672607421875" lon="6.74110111780464649200439453125">
        <ele>1571.5999755859375</ele>
        <time>2026-09-03T05:36:39.000Z</time>
        <extensions>
          <ns3:TrackPointExtension>
            <ns3:hr>101</ns3:hr>
            <ns3:cad>79</ns3:cad>
          </ns3:TrackPointExtension>
        </extensions>
      </trkpt>
      <trkpt lat="44.71881539560854434967041015625" lon="6.74111084081232547760009765625">
        <ele>1571.199951171875</ele>
        <time>2026-09-03T05:36:40.000Z</time>
        <extensions>
          <ns3:TrackPointExtension>
            <ns3:hr>101</ns3:hr>
            <ns3:cad>72</ns3:cad>
          </ns3:TrackPointExtension>
        </extensions>
      </trkpt>
      <trkpt lat="44.71880257129669189453125" lon="6.74111771397292613983154296875">
        <ele>1570.800048828125</ele>
        <time>2026-09-03T05:36:41.000Z</time>
        <extensions>
          <ns3:TrackPointExtension>
            <ns3:hr>101</ns3:hr>
            <ns3:cad>72</ns3:cad>
          </ns3:TrackPointExtension>
        </extensions>
      </trkpt>
      <trkpt lat="44.71879410557448863983154296875" lon="6.74112089909613132476806640625">
        <ele>1570.4000244140625</ele>
        <time>2026-09-03T05:36:42.000Z</time>
        <extensions>
          <ns3:TrackPointExtension>
            <ns3:hr>101</ns3:hr>
            <ns3:cad>72</ns3:cad>
          </ns3:TrackPointExtension>
        </extensions>
      </trkpt>
      <trkpt lat="44.7187806107103824615478515625" lon="6.74112592823803424835205078125">
        <ele>1570</ele>
        <time>2026-09-03T05:36:43.000Z</time>
        <extensions>
          <ns3:TrackPointExtension>
            <ns3:hr>101</ns3:hr>
            <ns3:cad>72</ns3:cad>
          </ns3:TrackPointExtension>
        </extensions>
      </trkpt>
      <trkpt lat="44.71876032650470733642578125" lon="6.741125844419002532958984375">
        <ele>1569.800048828125</ele>
        <time>2026-09-03T05:36:44.000Z</time>
        <extensions>
          <ns3:TrackPointExtension>
            <ns3:hr>101</ns3:hr>
            <ns3:cad>72</ns3:cad>
          </ns3:TrackPointExtension>
        </extensions>
      </trkpt>
      <trkpt lat="44.71872051246464252471923828125" lon="6.7411236651241779327392578125">
        <ele>1569.4000244140625</ele>
        <time>2026-09-03T05:36:45.000Z</time>
        <extensions>
          <ns3:TrackPointExtension>
            <ns3:hr>101</ns3:hr>
            <ns3:cad>72</ns3:cad>
          </ns3:TrackPointExtension>
        </extensions>
      </trkpt>
      <trkpt lat="44.71870223991572856903076171875" lon="6.74113380722701549530029296875">
        <ele>1569</ele>
        <time>2026-09-03T05:36:46.000Z</time>
        <extensions>
          <ns3:TrackPointExtension>
            <ns3:hr>101</ns3:hr>
            <ns3:cad>72</ns3:cad>
          </ns3:TrackPointExtension>
        </extensions>
      </trkpt>
      <trkpt lat="44.71868849359452724456787109375" lon="6.74116347916424274444580078125">
        <ele>1568.800048828125</ele>
        <time>2026-09-03T05:36:47.000Z</time>
        <extensions>
          <ns3:TrackPointExtension>
            <ns3:hr>101</ns3:hr>
            <ns3:cad>72</ns3:cad>
          </ns3:TrackPointExtension>
        </extensions>
      </trkpt>
      <trkpt lat="44.71868656575679779052734375" lon="6.74119985662400722503662109375">
        <ele>1568.4000244140625</ele>
        <time>2026-09-03T05:36:48.000Z</time>
        <extensions>
          <ns3:TrackPointExtension>
            <ns3:hr>101</ns3:hr>
            <ns3:cad>72</ns3:cad>
          </ns3:TrackPointExtension>
        </extensions>
      </trkpt>
      <trkpt lat="44.7186877392232418060302734375" lon="6.7412265948951244354248046875">
        <ele>1568.199951171875</ele>
        <time>2026-09-03T05:36:49.000Z</time>
        <extensions>
          <ns3:TrackPointExtension>
            <ns3:hr>101</ns3:hr>
            <ns3:cad>72</ns3:cad>
          </ns3:TrackPointExtension>
        </extensions>
      </trkpt>
      <trkpt lat="44.71869419328868389129638671875" lon="6.7412695102393627166748046875">
        <ele>1567.800048828125</ele>
        <time>2026-09-03T05:36:50.000Z</time>
        <extensions>
          <ns3:TrackPointExtension>
            <ns3:hr>101</ns3:hr>
            <ns3:cad>72</ns3:cad>
          </ns3:TrackPointExtension>
        </extensions>
      </trkpt>
      <trkpt lat="44.718698300421237945556640625" lon="6.74130077473819255828857421875">
        <ele>1567.800048828125</ele>
        <time>2026-09-03T05:36:51.000Z</time>
        <extensions>
          <ns3:TrackPointExtension>
            <ns3:hr>100</ns3:hr>
            <ns3:cad>72</ns3:cad>
          </ns3:TrackPointExtension>
        </extensions>
      </trkpt>
      <trkpt lat="44.7187081910669803619384765625" lon="6.74132801592350006103515625">
        <ele>1567.5999755859375</ele>
        <time>2026-09-03T05:36:52.000Z</time>
        <extensions>
          <ns3:TrackPointExtension>
            <ns3:hr>100</ns3:hr>
            <ns3:cad>81</ns3:cad>
          </ns3:TrackPointExtension>
        </extensions>
      </trkpt>
      <trkpt lat="44.71871632151305675506591796875" lon="6.74136514775454998016357421875">
        <ele>1567.4000244140625</ele>
        <time>2026-09-03T05:36:53.000Z</time>
        <extensions>
          <ns3:TrackPointExtension>
            <ns3:hr>100</ns3:hr>
            <ns3:cad>81</ns3:cad>
          </ns3:TrackPointExtension>
        </extensions>
      </trkpt>
      <trkpt lat="44.7187202610075473785400390625" lon="6.74138744361698627471923828125">
        <ele>1567.199951171875</ele>
        <time>2026-09-03T05:36:54.000Z</time>
        <extensions>
          <ns3:TrackPointExtension>
            <ns3:hr>101</ns3:hr>
            <ns3:cad>81</ns3:cad>
          </ns3:TrackPointExtension>
        </extensions>
      </trkpt>
      <trkpt lat="44.71872746944427490234375" lon="6.74142113886773586273193359375">
        <ele>1567</ele>
        <time>2026-09-03T05:36:55.000Z</time>
        <extensions>
          <ns3:TrackPointExtension>
            <ns3:hr>101</ns3:hr>
            <ns3:cad>82</ns3:cad>
          </ns3:TrackPointExtension>
        </extensions>
      </trkpt>
      <trkpt lat="44.7187383659183979034423828125" lon="6.74144997261464595794677734375">
        <ele>1567</ele>
        <time>2026-09-03T05:36:56.000Z</time>
        <extensions>
          <ns3:TrackPointExtension>
            <ns3:hr>101</ns3:hr>
            <ns3:cad>82</ns3:cad>
          </ns3:TrackPointExtension>
        </extensions>
      </trkpt>
      <trkpt lat="44.7187450714409351348876953125" lon="6.741469167172908782958984375">
        <ele>1566.800048828125</ele>
        <time>2026-09-03T05:36:57.000Z</time>
        <extensions>
          <ns3:TrackPointExtension>
            <ns3:hr>102</ns3:hr>
            <ns3:cad>82</ns3:cad>
          </ns3:TrackPointExtension>
        </extensions>
      </trkpt>
      <trkpt lat="44.71875487826764583587646484375" lon="6.741496659815311431884765625">
        <ele>1566.800048828125</ele>
        <time>2026-09-03T05:36:58.000Z</time>
        <extensions>
          <ns3:TrackPointExtension>
            <ns3:hr>102</ns3:hr>
            <ns3:cad>82</ns3:cad>
          </ns3:TrackPointExtension>
        </extensions>
      </trkpt>
      <trkpt lat="44.71876393072307109832763671875" lon="6.741524152457714080810546875">
        <ele>1566.5999755859375</ele>
        <time>2026-09-03T05:36:59.000Z</time>
        <extensions>
          <ns3:TrackPointExtension>
            <ns3:hr>102</ns3:hr>
            <ns3:cad>82</ns3:cad>
          </ns3:TrackPointExtension>
        </extensions>
      </trkpt>
      <trkpt lat="44.71877373754978179931640625" lon="6.7415410839021205902099609375">
        <ele>1566.5999755859375</ele>
        <time>2026-09-03T05:37:00.000Z</time>
        <extensions>
          <ns3:TrackPointExtension>
            <ns3:hr>103</ns3:hr>
            <ns3:cad>82</ns3:cad>
          </ns3:TrackPointExtension>
        </extensions>
      </trkpt>
      <trkpt lat="44.71877817995846271514892578125" lon="6.7415712587535381317138671875">
        <ele>1566.4000244140625</ele>
        <time>2026-09-03T05:37:01.000Z</time>
        <extensions>
          <ns3:TrackPointExtension>
            <ns3:hr>103</ns3:hr>
            <ns3:cad>82</ns3:cad>
          </ns3:TrackPointExtension>
        </extensions>
      </trkpt>
      <trkpt lat="44.71877784468233585357666015625" lon="6.74159280024468898773193359375">
        <ele>1566</ele>
        <time>2026-09-03T05:37:02.000Z</time>
        <extensions>
          <ns3:TrackPointExtension>
            <ns3:hr>103</ns3:hr>
            <ns3:cad>81</ns3:cad>
          </ns3:TrackPointExtension>
        </extensions>
      </trkpt>
      <trkpt lat="44.71878102980554103851318359375" lon="6.741605959832668304443359375">
        <ele>1565.5999755859375</ele>
        <time>2026-09-03T05:37:03.000Z</time>
        <extensions>
          <ns3:TrackPointExtension>
            <ns3:hr>104</ns3:hr>
            <ns3:cad>81</ns3:cad>
          </ns3:TrackPointExtension>
        </extensions>
      </trkpt>
      <trkpt lat="44.7187749110162258148193359375" lon="6.74161559902131557464599609375">
        <ele>1565.4000244140625</ele>
        <time>2026-09-03T05:37:04.000Z</time>
        <extensions>
          <ns3:TrackPointExtension>
            <ns3:hr>104</ns3:hr>
            <ns3:cad>81</ns3:cad>
          </ns3:TrackPointExtension>
        </extensions>
      </trkpt>
      <trkpt lat="44.71876024268567562103271484375" lon="6.74161140806972980499267578125">
        <ele>1565.199951171875</ele>
        <time>2026-09-03T05:37:05.000Z</time>
        <extensions>
          <ns3:TrackPointExtension>
            <ns3:hr>104</ns3:hr>
            <ns3:cad>80</ns3:cad>
          </ns3:TrackPointExtension>
        </extensions>
      </trkpt>
      <trkpt lat="44.71874431706964969635009765625" lon="6.74158978275954723358154296875">
        <ele>1565</ele>
        <time>2026-09-03T05:37:06.000Z</time>
        <extensions>
          <ns3:TrackPointExtension>
            <ns3:hr>104</ns3:hr>
            <ns3:cad>80</ns3:cad>
          </ns3:TrackPointExtension>
        </extensions>
      </trkpt>
      <trkpt lat="44.71873258240520954132080078125" lon="6.7415715940296649932861328125">
        <ele>1564.800048828125</ele>
        <time>2026-09-03T05:37:07.000Z</time>
        <extensions>
          <ns3:TrackPointExtension>
            <ns3:hr>104</ns3:hr>
            <ns3:cad>80</ns3:cad>
          </ns3:TrackPointExtension>
        </extensions>
      </trkpt>
      <trkpt lat="44.7187172435224056243896484375" lon="6.74155340529978275299072265625">
        <ele>1564.5999755859375</ele>
        <time>2026-09-03T05:37:08.000Z</time>
        <extensions>
          <ns3:TrackPointExtension>
            <ns3:hr>104</ns3:hr>
            <ns3:cad>80</ns3:cad>
          </ns3:TrackPointExtension>
        </extensions>
      </trkpt>
      <trkpt lat="44.71869838424026966094970703125" lon="6.7415280081331729888916015625">
        <ele>1564.4000244140625</ele>
        <time>2026-09-03T05:37:09.000Z</time>
        <extensions>
          <ns3:TrackPointExtension>
            <ns3:hr>104</ns3:hr>
            <ns3:cad>80</ns3:cad>
          </ns3:TrackPointExtension>
        </extensions>
      </trkpt>
      <trkpt lat="44.71868145279586315155029296875" lon="6.7415129207074642181396484375">
        <ele>1564.4000244140625</ele>
        <time>2026-09-03T05:37:10.000Z</time>
        <extensions>
          <ns3:TrackPointExtension>
            <ns3:hr>104</ns3:hr>
            <ns3:cad>0</ns3:cad>
          </ns3:TrackPointExtension>
        </extensions>
      </trkpt>
      <trkpt lat="44.71865815110504627227783203125" lon="6.74149657599627971649169921875">
        <ele>1564.199951171875</ele>
        <time>2026-09-03T05:37:11.000Z</time>
        <extensions>
          <ns3:TrackPointExtension>
            <ns3:hr>104</ns3:hr>
            <ns3:cad>0</ns3:cad>
          </ns3:TrackPointExtension>
        </extensions>
      </trkpt>
      <trkpt lat="44.7186347655951976776123046875" lon="6.7414887808263301849365234375">
        <ele>1564</ele>
        <time>2026-09-03T05:37:12.000Z</time>
        <extensions>
          <ns3:TrackPointExtension>
            <ns3:hr>103</ns3:hr>
            <ns3:cad>83</ns3:cad>
          </ns3:TrackPointExtension>
        </extensions>
      </trkpt>
      <trkpt lat="44.71861573867499828338623046875" lon="6.74149070866405963897705078125">
        <ele>1563.5999755859375</ele>
        <time>2026-09-03T05:37:13.000Z</time>
        <extensions>
          <ns3:TrackPointExtension>
            <ns3:hr>104</ns3:hr>
            <ns3:cad>83</ns3:cad>
          </ns3:TrackPointExtension>
        </extensions>
      </trkpt>
      <trkpt lat="44.718586988747119903564453125" lon="6.7414995096623897552490234375">
        <ele>1563.4000244140625</ele>
        <time>2026-09-03T05:37:14.000Z</time>
        <extensions>
          <ns3:TrackPointExtension>
            <ns3:hr>104</ns3:hr>
            <ns3:cad>83</ns3:cad>
          </ns3:TrackPointExtension>
        </extensions>
      </trkpt>
      <trkpt lat="44.71857265569269657135009765625" lon="6.7415135912597179412841796875">
        <ele>1563</ele>
        <time>2026-09-03T05:37:15.000Z</time>
        <extensions>
          <ns3:TrackPointExtension>
            <ns3:hr>104</ns3:hr>
            <ns3:cad>83</ns3:cad>
          </ns3:TrackPointExtension>
        </extensions>
      </trkpt>
      <trkpt lat="44.71855304203927516937255859375" lon="6.7415313608944416046142578125">
        <ele>1562.800048828125</ele>
        <time>2026-09-03T05:37:16.000Z</time>
        <extensions>
          <ns3:TrackPointExtension>
            <ns3:hr>104</ns3:hr>
            <ns3:cad>83</ns3:cad>
          </ns3:TrackPointExtension>
        </extensions>
      </trkpt>
      <trkpt lat="44.7185341827571392059326171875" lon="6.741546280682086944580078125">
        <ele>1562.4000244140625</ele>
        <time>2026-09-03T05:37:17.000Z</time>
        <extensions>
          <ns3:TrackPointExtension>
            <ns3:hr>104</ns3:hr>
            <ns3:cad>83</ns3:cad>
          </ns3:TrackPointExtension>
        </extensions>
      </trkpt>
      <trkpt lat="44.718522615730762481689453125" lon="6.74156363122165203094482421875">
        <ele>1562.199951171875</ele>
        <time>2026-09-03T05:37:18.000Z</time>
        <extensions>
          <ns3:TrackPointExtension>
            <ns3:hr>104</ns3:hr>
            <ns3:cad>83</ns3:cad>
          </ns3:TrackPointExtension>
        </extensions>
      </trkpt>
      <trkpt lat="44.7184976376593112945556640625" lon="6.74159095622599124908447265625">
        <ele>1561.800048828125</ele>
        <time>2026-09-03T05:37:19.000Z</time>
        <extensions>
          <ns3:TrackPointExtension>
            <ns3:hr>104</ns3:hr>
            <ns3:cad>83</ns3:cad>
          </ns3:TrackPointExtension>
        </extensions>
      </trkpt>
      <trkpt lat="44.71847676672041416168212890625" lon="6.74160637892782688140869140625">
        <ele>1561.5999755859375</ele>
        <time>2026-09-03T05:37:20.000Z</time>
        <extensions>
          <ns3:TrackPointExtension>
            <ns3:hr>104</ns3:hr>
            <ns3:cad>83</ns3:cad>
          </ns3:TrackPointExtension>
        </extensions>
      </trkpt>
      <trkpt lat="44.71845882944762706756591796875" lon="6.74162917770445346832275390625">
        <ele>1561.199951171875</ele>
        <time>2026-09-03T05:37:21.000Z</time>
        <extensions>
          <ns3:TrackPointExtension>
            <ns3:hr>105</ns3:hr>
            <ns3:cad>83</ns3:cad>
          </ns3:TrackPointExtension>
        </extensions>
      </trkpt>
      <trkpt lat="44.71843636594712734222412109375" lon="6.74164929427206516265869140625">
        <ele>1561</ele>
        <time>2026-09-03T05:37:22.000Z</time>
        <extensions>
          <ns3:TrackPointExtension>
            <ns3:hr>105</ns3:hr>
            <ns3:cad>83</ns3:cad>
          </ns3:TrackPointExtension>
        </extensions>
      </trkpt>
      <trkpt lat="44.71842027269303798675537109375" lon="6.7416746914386749267578125">
        <ele>1560.5999755859375</ele>
        <time>2026-09-03T05:37:23.000Z</time>
        <extensions>
          <ns3:TrackPointExtension>
            <ns3:hr>105</ns3:hr>
            <ns3:cad>83</ns3:cad>
          </ns3:TrackPointExtension>
        </extensions>
      </trkpt>
      <trkpt lat="44.71840065903961658477783203125" lon="6.7417006753385066986083984375">
        <ele>1560.4000244140625</ele>
        <time>2026-09-03T05:37:24.000Z</time>
        <extensions>
          <ns3:TrackPointExtension>
            <ns3:hr>106</ns3:hr>
            <ns3:cad>83</ns3:cad>
          </ns3:TrackPointExtension>
        </extensions>
      </trkpt>
      <trkpt lat="44.7183829732239246368408203125" lon="6.74172255210578441619873046875">
        <ele>1560.199951171875</ele>
        <time>2026-09-03T05:37:25.000Z</time>
        <extensions>
          <ns3:TrackPointExtension>
            <ns3:hr>107</ns3:hr>
            <ns3:cad>83</ns3:cad>
          </ns3:TrackPointExtension>
        </extensions>
      </trkpt>
      <trkpt lat="44.71836604177951812744140625" lon="6.741744093596935272216796875">
        <ele>1559.800048828125</ele>
        <time>2026-09-03T05:37:26.000Z</time>
        <extensions>
          <ns3:TrackPointExtension>
            <ns3:hr>107</ns3:hr>
            <ns3:cad>83</ns3:cad>
          </ns3:TrackPointExtension>
        </extensions>
      </trkpt>
      <trkpt lat="44.71834592521190643310546875" lon="6.74176513217389583587646484375">
        <ele>1559.5999755859375</ele>
        <time>2026-09-03T05:37:27.000Z</time>
        <extensions>
          <ns3:TrackPointExtension>
            <ns3:hr>108</ns3:hr>
            <ns3:cad>83</ns3:cad>
          </ns3:TrackPointExtension>
        </extensions>
      </trkpt>
      <trkpt lat="44.71833025105297565460205078125" lon="6.74178122542798519134521484375">
        <ele>1559.199951171875</ele>
        <time>2026-09-03T05:37:28.000Z</time>
        <extensions>
          <ns3:TrackPointExtension>
            <ns3:hr>110</ns3:hr>
            <ns3:cad>83</ns3:cad>
          </ns3:TrackPointExtension>
        </extensions>
      </trkpt>
      <trkpt lat="44.7183102183043956756591796875" lon="6.74180050380527973175048828125">
        <ele>1559</ele>
        <time>2026-09-03T05:37:29.000Z</time>
        <extensions>
          <ns3:TrackPointExtension>
            <ns3:hr>111</ns3:hr>
            <ns3:cad>84</ns3:cad>
          </ns3:TrackPointExtension>
        </extensions>
      </trkpt>
      <trkpt lat="44.718291275203227996826171875" lon="6.74181793816387653350830078125">
        <ele>1558.5999755859375</ele>
        <time>2026-09-03T05:37:30.000Z</time>
        <extensions>
          <ns3:TrackPointExtension>
            <ns3:hr>112</ns3:hr>
            <ns3:cad>84</ns3:cad>
          </ns3:TrackPointExtension>
        </extensions>
      </trkpt>
      <trkpt lat="44.71827744506299495697021484375" lon="6.741836629807949066162109375">
        <ele>1558.4000244140625</ele>
        <time>2026-09-03T05:37:31.000Z</time>
        <extensions>
          <ns3:TrackPointExtension>
            <ns3:hr>113</ns3:hr>
            <ns3:cad>84</ns3:cad>
          </ns3:TrackPointExtension>
        </extensions>
      </trkpt>
      <trkpt lat="44.7182538919150829315185546875" lon="6.74186169169843196868896484375">
        <ele>1558.199951171875</ele>
        <time>2026-09-03T05:37:32.000Z</time>
        <extensions>
          <ns3:TrackPointExtension>
            <ns3:hr>114</ns3:hr>
            <ns3:cad>84</ns3:cad>
          </ns3:TrackPointExtension>
        </extensions>
      </trkpt>
      <trkpt lat="44.71823670901358127593994140625" lon="6.7418837361037731170654296875">
        <ele>1557.800048828125</ele>
        <time>2026-09-03T05:37:33.000Z</time>
        <extensions>
          <ns3:TrackPointExtension>
            <ns3:hr>114</ns3:hr>
            <ns3:cad>83</ns3:cad>
          </ns3:TrackPointExtension>
        </extensions>
      </trkpt>
      <trkpt lat="44.718224219977855682373046875" lon="6.7419132404029369354248046875">
        <ele>1557.4000244140625</ele>
        <time>2026-09-03T05:37:34.000Z</time>
        <extensions>
          <ns3:TrackPointExtension>
            <ns3:hr>116</ns3:hr>
            <ns3:cad>82</ns3:cad>
          </ns3:TrackPointExtension>
        </extensions>
      </trkpt>
      <trkpt lat="44.7182166762650012969970703125" lon="6.741945929825305938720703125">
        <ele>1557</ele>
        <time>2026-09-03T05:37:35.000Z</time>
        <extensions>
          <ns3:TrackPointExtension>
            <ns3:hr>116</ns3:hr>
            <ns3:cad>82</ns3:cad>
          </ns3:TrackPointExtension>
        </extensions>
      </trkpt>
      <trkpt lat="44.71821910701692104339599609375" lon="6.74197711050510406494140625">
        <ele>1556.800048828125</ele>
        <time>2026-09-03T05:37:36.000Z</time>
        <extensions>
          <ns3:TrackPointExtension>
            <ns3:hr>117</ns3:hr>
            <ns3:cad>82</ns3:cad>
          </ns3:TrackPointExtension>
        </extensions>
      </trkpt>
      <trkpt lat="44.7182277403771877288818359375" lon="6.7420101352035999298095703125">
        <ele>1556.4000244140625</ele>
        <time>2026-09-03T05:37:37.000Z</time>
        <extensions>
          <ns3:TrackPointExtension>
            <ns3:hr>117</ns3:hr>
            <ns3:cad>82</ns3:cad>
          </ns3:TrackPointExtension>
        </extensions>
      </trkpt>
      <trkpt lat="44.718236625194549560546875" lon="6.74204139970242977142333984375">
        <ele>1556</ele>
        <time>2026-09-03T05:37:38.000Z</time>
        <extensions>
          <ns3:TrackPointExtension>
            <ns3:hr>117</ns3:hr>
            <ns3:cad>82</ns3:cad>
          </ns3:TrackPointExtension>
        </extensions>
      </trkpt>
      <trkpt lat="44.718258418142795562744140625" lon="6.74206587485969066619873046875">
        <ele>1555.5999755859375</ele>
        <time>2026-09-03T05:37:39.000Z</time>
        <extensions>
          <ns3:TrackPointExtension>
            <ns3:hr>118</ns3:hr>
            <ns3:cad>82</ns3:cad>
          </ns3:TrackPointExtension>
        </extensions>
      </trkpt>
      <trkpt lat="44.71828482113778591156005859375" lon="6.74208573997020721435546875">
        <ele>1555.4000244140625</ele>
        <time>2026-09-03T05:37:40.000Z</time>
        <extensions>
          <ns3:TrackPointExtension>
            <ns3:hr>118</ns3:hr>
            <ns3:cad>82</ns3:cad>
          </ns3:TrackPointExtension>
        </extensions>
      </trkpt>
      <trkpt lat="44.71830577589571475982666015625" lon="6.7420895956456661224365234375">
        <ele>1555</ele>
        <time>2026-09-03T05:37:41.000Z</time>
        <extensions>
          <ns3:TrackPointExtension>
            <ns3:hr>119</ns3:hr>
            <ns3:cad>83</ns3:cad>
          </ns3:TrackPointExtension>
        </extensions>
      </trkpt>
      <trkpt lat="44.7183303348720073699951171875" lon="6.74210158176720142364501953125">
        <ele>1554.5999755859375</ele>
        <time>2026-09-03T05:37:42.000Z</time>
        <extensions>
          <ns3:TrackPointExtension>
            <ns3:hr>119</ns3:hr>
            <ns3:cad>84</ns3:cad>
          </ns3:TrackPointExtension>
        </extensions>
      </trkpt>
      <trkpt lat="44.718350954353809356689453125" lon="6.742115914821624755859375">
        <ele>1554.199951171875</ele>
        <time>2026-09-03T05:37:43.000Z</time>
        <extensions>
          <ns3:TrackPointExtension>
            <ns3:hr>119</ns3:hr>
            <ns3:cad>85</ns3:cad>
          </ns3:TrackPointExtension>
        </extensions>
      </trkpt>
      <trkpt lat="44.7183796204626560211181640625" lon="6.74213460646569728851318359375">
        <ele>1553.800048828125</ele>
        <time>2026-09-03T05:37:44.000Z</time>
        <extensions>
          <ns3:TrackPointExtension>
            <ns3:hr>120</ns3:hr>
            <ns3:cad>85</ns3:cad>
          </ns3:TrackPointExtension>
        </extensions>
      </trkpt>
      <trkpt lat="44.71839864738285541534423828125" lon="6.74215681850910186767578125">
        <ele>1553.4000244140625</ele>
        <time>2026-09-03T05:37:45.000Z</time>
        <extensions>
          <ns3:TrackPointExtension>
            <ns3:hr>120</ns3:hr>
            <ns3:cad>85</ns3:cad>
          </ns3:TrackPointExtension>
        </extensions>
      </trkpt>
      <trkpt lat="44.71841658465564250946044921875" lon="6.74217584542930126190185546875">
        <ele>1553</ele>
        <time>2026-09-03T05:37:46.000Z</time>
        <extensions>
          <ns3:TrackPointExtension>
            <ns3:hr>120</ns3:hr>
            <ns3:cad>84</ns3:cad>
          </ns3:TrackPointExtension>
        </extensions>
      </trkpt>
      <trkpt lat="44.71843435429036617279052734375" lon="6.742208115756511688232421875">
        <ele>1552.800048828125</ele>
        <time>2026-09-03T05:37:47.000Z</time>
        <extensions>
          <ns3:TrackPointExtension>
            <ns3:hr>121</ns3:hr>
            <ns3:cad>84</ns3:cad>
          </ns3:TrackPointExtension>
        </extensions>
      </trkpt>
      <trkpt lat="44.71844491548836231231689453125" lon="6.74222764559090137481689453125">
        <ele>1552.5999755859375</ele>
        <time>2026-09-03T05:37:48.000Z</time>
        <extensions>
          <ns3:TrackPointExtension>
            <ns3:hr>121</ns3:hr>
            <ns3:cad>84</ns3:cad>
          </ns3:TrackPointExtension>
        </extensions>
      </trkpt>
      <trkpt lat="44.71845111809670925140380859375" lon="6.7422528751194477081298828125">
        <ele>1552.4000244140625</ele>
        <time>2026-09-03T05:37:49.000Z</time>
        <extensions>
          <ns3:TrackPointExtension>
            <ns3:hr>121</ns3:hr>
            <ns3:cad>85</ns3:cad>
          </ns3:TrackPointExtension>
        </extensions>
      </trkpt>
      <trkpt lat="44.7184654511511325836181640625" lon="6.74228313378989696502685546875">
        <ele>1552.199951171875</ele>
        <time>2026-09-03T05:37:50.000Z</time>
        <extensions>
          <ns3:TrackPointExtension>
            <ns3:hr>121</ns3:hr>
            <ns3:cad>85</ns3:cad>
          </ns3:TrackPointExtension>
        </extensions>
      </trkpt>
      <trkpt lat="44.71847726963460445404052734375" lon="6.74230727367103099822998046875">
        <ele>1552</ele>
        <time>2026-09-03T05:37:51.000Z</time>
        <extensions>
          <ns3:TrackPointExtension>
            <ns3:hr>122</ns3:hr>
            <ns3:cad>84</ns3:cad>
          </ns3:TrackPointExtension>
        </extensions>
      </trkpt>
      <trkpt lat="44.71848363988101482391357421875" lon="6.7423497699201107025146484375">
        <ele>1551.800048828125</ele>
        <time>2026-09-03T05:37:52.000Z</time>
        <extensions>
          <ns3:TrackPointExtension>
            <ns3:hr>122</ns3:hr>
            <ns3:cad>84</ns3:cad>
          </ns3:TrackPointExtension>
        </extensions>
      </trkpt>
      <trkpt lat="44.71848548389971256256103515625" lon="6.7423836328089237213134765625">
        <ele>1551.4000244140625</ele>
        <time>2026-09-03T05:37:53.000Z</time>
        <extensions>
          <ns3:TrackPointExtension>
            <ns3:hr>122</ns3:hr>
            <ns3:cad>84</ns3:cad>
          </ns3:TrackPointExtension>
        </extensions>
      </trkpt>
      <trkpt lat="44.7184912674129009246826171875" lon="6.74241322092711925506591796875">
        <ele>1551.199951171875</ele>
        <time>2026-09-03T05:37:54.000Z</time>
        <extensions>
          <ns3:TrackPointExtension>
            <ns3:hr>122</ns3:hr>
            <ns3:cad>84</ns3:cad>
          </ns3:TrackPointExtension>
        </extensions>
      </trkpt>
      <trkpt lat="44.7184983082115650177001953125" lon="6.7424449883401393890380859375">
        <ele>1550.800048828125</ele>
        <time>2026-09-03T05:37:55.000Z</time>
        <extensions>
          <ns3:TrackPointExtension>
            <ns3:hr>122</ns3:hr>
            <ns3:cad>84</ns3:cad>
          </ns3:TrackPointExtension>
        </extensions>
      </trkpt>
      <trkpt lat="44.7185060195624828338623046875" lon="6.742469631135463714599609375">
        <ele>1550.4000244140625</ele>
        <time>2026-09-03T05:37:56.000Z</time>
        <extensions>
          <ns3:TrackPointExtension>
            <ns3:hr>123</ns3:hr>
            <ns3:cad>84</ns3:cad>
          </ns3:TrackPointExtension>
        </extensions>
      </trkpt>
      <trkpt lat="44.71851062960922718048095703125" lon="6.742509193718433380126953125">
        <ele>1550.199951171875</ele>
        <time>2026-09-03T05:37:57.000Z</time>
        <extensions>
          <ns3:TrackPointExtension>
            <ns3:hr>123</ns3:hr>
            <ns3:cad>83</ns3:cad>
          </ns3:TrackPointExtension>
        </extensions>
      </trkpt>
      <trkpt lat="44.71850811503827571868896484375" lon="6.74254179932177066802978515625">
        <ele>1549.800048828125</ele>
        <time>2026-09-03T05:37:58.000Z</time>
        <extensions>
          <ns3:TrackPointExtension>
            <ns3:hr>123</ns3:hr>
            <ns3:cad>83</ns3:cad>
          </ns3:TrackPointExtension>
        </extensions>
      </trkpt>
      <trkpt lat="44.71851582638919353485107421875" lon="6.7425760813057422637939453125">
        <ele>1549.5999755859375</ele>
        <time>2026-09-03T05:37:59.000Z</time>
        <extensions>
          <ns3:TrackPointExtension>
            <ns3:hr>123</ns3:hr>
            <ns3:cad>83</ns3:cad>
          </ns3:TrackPointExtension>
        </extensions>
      </trkpt>
      <trkpt lat="44.718523956835269927978515625" lon="6.74261086620390415191650390625">
        <ele>1549.199951171875</ele>
        <time>2026-09-03T05:38:00.000Z</time>
        <extensions>
          <ns3:TrackPointExtension>
            <ns3:hr>123</ns3:hr>
            <ns3:cad>83</ns3:cad>
          </ns3:TrackPointExtension>
        </extensions>
      </trkpt>
      <trkpt lat="44.7185278125107288360595703125" lon="6.74263349734246730804443359375">
        <ele>1549</ele>
        <time>2026-09-03T05:38:01.000Z</time>
        <extensions>
          <ns3:TrackPointExtension>
            <ns3:hr>122</ns3:hr>
            <ns3:cad>83</ns3:cad>
          </ns3:TrackPointExtension>
        </extensions>
      </trkpt>
      <trkpt lat="44.7185338474810123443603515625" lon="6.74267507158219814300537109375">
        <ele>1548.800048828125</ele>
        <time>2026-09-03T05:38:02.000Z</time>
        <extensions>
          <ns3:TrackPointExtension>
            <ns3:hr>123</ns3:hr>
            <ns3:cad>83</ns3:cad>
          </ns3:TrackPointExtension>
        </extensions>
      </trkpt>
      <trkpt lat="44.7185351885855197906494140625" lon="6.742704324424266815185546875">
        <ele>1548.5999755859375</ele>
        <time>2026-09-03T05:38:03.000Z</time>
        <extensions>
          <ns3:TrackPointExtension>
            <ns3:hr>123</ns3:hr>
            <ns3:cad>83</ns3:cad>
          </ns3:TrackPointExtension>
        </extensions>
      </trkpt>
      <trkpt lat="44.7185439057648181915283203125" lon="6.7427368462085723876953125">
        <ele>1548.199951171875</ele>
        <time>2026-09-03T05:38:04.000Z</time>
        <extensions>
          <ns3:TrackPointExtension>
            <ns3:hr>123</ns3:hr>
            <ns3:cad>82</ns3:cad>
          </ns3:TrackPointExtension>
        </extensions>
      </trkpt>
      <trkpt lat="44.71854918636381626129150390625" lon="6.74277598969638347625732421875">
        <ele>1548</ele>
        <time>2026-09-03T05:38:05.000Z</time>
        <extensions>
          <ns3:TrackPointExtension>
            <ns3:hr>123</ns3:hr>
            <ns3:cad>82</ns3:cad>
          </ns3:TrackPointExtension>
        </extensions>
      </trkpt>
      <trkpt lat="44.718554131686687469482421875" lon="6.742802225053310394287109375">
        <ele>1547.5999755859375</ele>
        <time>2026-09-03T05:38:06.000Z</time>
        <extensions>
          <ns3:TrackPointExtension>
            <ns3:hr>123</ns3:hr>
            <ns3:cad>84</ns3:cad>
          </ns3:TrackPointExtension>
        </extensions>
      </trkpt>
      <trkpt lat="44.71855647861957550048828125" lon="6.74284505657851696014404296875">
        <ele>1547.4000244140625</ele>
        <time>2026-09-03T05:38:07.000Z</time>
        <extensions>
          <ns3:TrackPointExtension>
            <ns3:hr>123</ns3:hr>
            <ns3:cad>84</ns3:cad>
          </ns3:TrackPointExtension>
        </extensions>
      </trkpt>
      <trkpt lat="44.7185599990189075469970703125" lon="6.74288361333310604095458984375">
        <ele>1547.199951171875</ele>
        <time>2026-09-03T05:38:08.000Z</time>
        <extensions>
          <ns3:TrackPointExtension>
            <ns3:hr>123</ns3:hr>
            <ns3:cad>83</ns3:cad>
          </ns3:TrackPointExtension>
        </extensions>
      </trkpt>
      <trkpt lat="44.71856561489403247833251953125" lon="6.74291613511741161346435546875">
        <ele>1546.800048828125</ele>
        <time>2026-09-03T05:38:09.000Z</time>
        <extensions>
          <ns3:TrackPointExtension>
            <ns3:hr>123</ns3:hr>
            <ns3:cad>83</ns3:cad>
          </ns3:TrackPointExtension>
        </extensions>
      </trkpt>
      <trkpt lat="44.7185717336833477020263671875" lon="6.7429576255381107330322265625">
        <ele>1546.5999755859375</ele>
        <time>2026-09-03T05:38:10.000Z</time>
        <extensions>
          <ns3:TrackPointExtension>
            <ns3:hr>123</ns3:hr>
            <ns3:cad>82</ns3:cad>
          </ns3:TrackPointExtension>
        </extensions>
      </trkpt>
      <trkpt lat="44.71857885830104351043701171875" lon="6.74298562109470367431640625">
        <ele>1546.199951171875</ele>
        <time>2026-09-03T05:38:11.000Z</time>
        <extensions>
          <ns3:TrackPointExtension>
            <ns3:hr>124</ns3:hr>
            <ns3:cad>82</ns3:cad>
          </ns3:TrackPointExtension>
        </extensions>
      </trkpt>
      <trkpt lat="44.71858472563326358795166015625" lon="6.74302719533443450927734375">
        <ele>1546</ele>
        <time>2026-09-03T05:38:12.000Z</time>
        <extensions>
          <ns3:TrackPointExtension>
            <ns3:hr>124</ns3:hr>
            <ns3:cad>83</ns3:cad>
          </ns3:TrackPointExtension>
        </extensions>
      </trkpt>
      <trkpt lat="44.7185848094522953033447265625" lon="6.743057705461978912353515625">
        <ele>1545.800048828125</ele>
        <time>2026-09-03T05:38:13.000Z</time>
        <extensions>
          <ns3:TrackPointExtension>
            <ns3:hr>124</ns3:hr>
            <ns3:cad>83</ns3:cad>
          </ns3:TrackPointExtension>
        </extensions>
      </trkpt>
      <trkpt lat="44.7185915149748325347900390625" lon="6.7430900596082210540771484375">
        <ele>1545.4000244140625</ele>
        <time>2026-09-03T05:38:14.000Z</time>
        <extensions>
          <ns3:TrackPointExtension>
            <ns3:hr>124</ns3:hr>
            <ns3:cad>83</ns3:cad>
          </ns3:TrackPointExtension>
        </extensions>
      </trkpt>
      <trkpt lat="44.7186027467250823974609375" lon="6.7431252636015415191650390625">
        <ele>1545.199951171875</ele>
        <time>2026-09-03T05:38:15.000Z</time>
        <extensions>
          <ns3:TrackPointExtension>
            <ns3:hr>124</ns3:hr>
            <ns3:cad>83</ns3:cad>
          </ns3:TrackPointExtension>
        </extensions>
      </trkpt>
      <trkpt lat="44.718611128628253936767578125" lon="6.74314915202558040618896484375">
        <ele>1545</ele>
        <time>2026-09-03T05:38:16.000Z</time>
        <extensions>
          <ns3:TrackPointExtension>
            <ns3:hr>124</ns3:hr>
            <ns3:cad>84</ns3:cad>
          </ns3:TrackPointExtension>
        </extensions>
      </trkpt>
      <trkpt lat="44.7186226956546306610107421875" lon="6.743191145360469818115234375">
        <ele>1544.800048828125</ele>
        <time>2026-09-03T05:38:17.000Z</time>
        <extensions>
          <ns3:TrackPointExtension>
            <ns3:hr>124</ns3:hr>
            <ns3:cad>84</ns3:cad>
          </ns3:TrackPointExtension>
        </extensions>
      </trkpt>
      <trkpt lat="44.718627221882343292236328125" lon="6.74322140403091907501220703125">
        <ele>1544.5999755859375</ele>
        <time>2026-09-03T05:38:18.000Z</time>
        <extensions>
          <ns3:TrackPointExtension>
            <ns3:hr>124</ns3:hr>
            <ns3:cad>85</ns3:cad>
          </ns3:TrackPointExtension>
        </extensions>
      </trkpt>
      <trkpt lat="44.71864289604127407073974609375" lon="6.74325518310070037841796875">
        <ele>1544.4000244140625</ele>
        <time>2026-09-03T05:38:19.000Z</time>
        <extensions>
          <ns3:TrackPointExtension>
            <ns3:hr>124</ns3:hr>
            <ns3:cad>86</ns3:cad>
          </ns3:TrackPointExtension>
        </extensions>
      </trkpt>
      <trkpt lat="44.71865664236247539520263671875" lon="6.74328594468533992767333984375">
        <ele>1544</ele>
        <time>2026-09-03T05:38:20.000Z</time>
        <extensions>
          <ns3:TrackPointExtension>
            <ns3:hr>125</ns3:hr>
            <ns3:cad>86</ns3:cad>
          </ns3:TrackPointExtension>
        </extensions>
      </trkpt>
      <trkpt lat="44.71865965984761714935302734375" lon="6.74330941401422023773193359375">
        <ele>1543.800048828125</ele>
        <time>2026-09-03T05:38:21.000Z</time>
        <extensions>
          <ns3:TrackPointExtension>
            <ns3:hr>124</ns3:hr>
            <ns3:cad>84</ns3:cad>
          </ns3:TrackPointExtension>
        </extensions>
      </trkpt>
      <trkpt lat="44.7186686284840106964111328125" lon="6.743336655199527740478515625">
        <ele>1543.5999755859375</ele>
        <time>2026-09-03T05:38:22.000Z</time>
        <extensions>
          <ns3:TrackPointExtension>
            <ns3:hr>125</ns3:hr>
            <ns3:cad>84</ns3:cad>
          </ns3:TrackPointExtension>
        </extensions>
      </trkpt>
      <trkpt lat="44.71867877058684825897216796875" lon="6.74336540512740612030029296875">
        <ele>1543.4000244140625</ele>
        <time>2026-09-03T05:38:23.000Z</time>
        <extensions>
          <ns3:TrackPointExtension>
            <ns3:hr>125</ns3:hr>
            <ns3:cad>83</ns3:cad>
          </ns3:TrackPointExtension>
        </extensions>
      </trkpt>
      <trkpt lat="44.718684889376163482666015625" lon="6.74338183365762233734130859375">
        <ele>1543.199951171875</ele>
        <time>2026-09-03T05:38:24.000Z</time>
        <extensions>
          <ns3:TrackPointExtension>
            <ns3:hr>125</ns3:hr>
            <ns3:cad>83</ns3:cad>
          </ns3:TrackPointExtension>
        </extensions>
      </trkpt>
      <trkpt lat="44.7186885774135589599609375" lon="6.74339273013174533843994140625">
        <ele>1543.199951171875</ele>
        <time>2026-09-03T05:38:25.000Z</time>
        <extensions>
          <ns3:TrackPointExtension>
            <ns3:hr>125</ns3:hr>
            <ns3:cad>82</ns3:cad>
          </ns3:TrackPointExtension>
        </extensions>
      </trkpt>
      <trkpt lat="44.718687236309051513671875" lon="6.74340982921421527862548828125">
        <ele>1543.199951171875</ele>
        <time>2026-09-03T05:38:26.000Z</time>
        <extensions>
          <ns3:TrackPointExtension>
            <ns3:hr>125</ns3:hr>
            <ns3:cad>82</ns3:cad>
          </ns3:TrackPointExtension>
        </extensions>
      </trkpt>
      <trkpt lat="44.71867709420621395111083984375" lon="6.74342458136379718780517578125">
        <ele>1543</ele>
        <time>2026-09-03T05:38:27.000Z</time>
        <extensions>
          <ns3:TrackPointExtension>
            <ns3:hr>125</ns3:hr>
            <ns3:cad>82</ns3:cad>
          </ns3:TrackPointExtension>
        </extensions>
      </trkpt>
      <trkpt lat="44.7186644375324249267578125" lon="6.7434350587427616119384765625">
        <ele>1542.800048828125</ele>
        <time>2026-09-03T05:38:28.000Z</time>
        <extensions>
          <ns3:TrackPointExtension>
            <ns3:hr>125</ns3:hr>
            <ns3:cad>82</ns3:cad>
          </ns3:TrackPointExtension>
        </extensions>
      </trkpt>
      <trkpt lat="44.7186475060880184173583984375" lon="6.74344033934175968170166015625">
        <ele>1542.800048828125</ele>
        <time>2026-09-03T05:38:29.000Z</time>
        <extensions>
          <ns3:TrackPointExtension>
            <ns3:hr>125</ns3:hr>
            <ns3:cad>82</ns3:cad>
          </ns3:TrackPointExtension>
        </extensions>
      </trkpt>
      <trkpt lat="44.71862353384494781494140625" lon="6.7434374056756496429443359375">
        <ele>1542.5999755859375</ele>
        <time>2026-09-03T05:38:30.000Z</time>
        <extensions>
          <ns3:TrackPointExtension>
            <ns3:hr>125</ns3:hr>
            <ns3:cad>70</ns3:cad>
          </ns3:TrackPointExtension>
        </extensions>
      </trkpt>
      <trkpt lat="44.71860081888735294342041015625" lon="6.74342793412506580352783203125">
        <ele>1542.5999755859375</ele>
        <time>2026-09-03T05:38:31.000Z</time>
        <extensions>
          <ns3:TrackPointExtension>
            <ns3:hr>125</ns3:hr>
            <ns3:cad>65</ns3:cad>
          </ns3:TrackPointExtension>
        </extensions>
      </trkpt>
      <trkpt lat="44.71858606673777103424072265625" lon="6.7434181272983551025390625">
        <ele>1542.4000244140625</ele>
        <time>2026-09-03T05:38:32.000Z</time>
        <extensions>
          <ns3:TrackPointExtension>
            <ns3:hr>125</ns3:hr>
            <ns3:cad>63</ns3:cad>
          </ns3:TrackPointExtension>
        </extensions>
      </trkpt>
      <trkpt lat="44.71856628544628620147705078125" lon="6.74340362660586833953857421875">
        <ele>1542.199951171875</ele>
        <time>2026-09-03T05:38:33.000Z</time>
        <extensions>
          <ns3:TrackPointExtension>
            <ns3:hr>125</ns3:hr>
            <ns3:cad>63</ns3:cad>
          </ns3:TrackPointExtension>
        </extensions>
      </trkpt>
      <trkpt lat="44.71855035983026027679443359375" lon="6.743388958275318145751953125">
        <ele>1541.800048828125</ele>
        <time>2026-09-03T05:38:34.000Z</time>
        <extensions>
          <ns3:TrackPointExtension>
            <ns3:hr>125</ns3:hr>
            <ns3:cad>63</ns3:cad>
          </ns3:TrackPointExtension>
        </extensions>
      </trkpt>
      <trkpt lat="44.71854097209870815277099609375" lon="6.7433710210025310516357421875">
        <ele>1541.4000244140625</ele>
        <time>2026-09-03T05:38:35.000Z</time>
        <extensions>
          <ns3:TrackPointExtension>
            <ns3:hr>125</ns3:hr>
            <ns3:cad>63</ns3:cad>
          </ns3:TrackPointExtension>
        </extensions>
      </trkpt>
      <trkpt lat="44.718521945178508758544921875" lon="6.74334495328366756439208984375">
        <ele>1541</ele>
        <time>2026-09-03T05:38:36.000Z</time>
        <extensions>
          <ns3:TrackPointExtension>
            <ns3:hr>126</ns3:hr>
            <ns3:cad>81</ns3:cad>
          </ns3:TrackPointExtension>
        </extensions>
      </trkpt>
      <trkpt lat="44.7185097075998783111572265625" lon="6.74332785420119762420654296875">
        <ele>1540.5999755859375</ele>
        <time>2026-09-03T05:38:37.000Z</time>
        <extensions>
          <ns3:TrackPointExtension>
            <ns3:hr>124</ns3:hr>
            <ns3:cad>82</ns3:cad>
          </ns3:TrackPointExtension>
        </extensions>
      </trkpt>
      <trkpt lat="44.71849570982158184051513671875" lon="6.743309162557125091552734375">
        <ele>1540.199951171875</ele>
        <time>2026-09-03T05:38:38.000Z</time>
        <extensions>
          <ns3:TrackPointExtension>
            <ns3:hr>124</ns3:hr>
            <ns3:cad>82</ns3:cad>
          </ns3:TrackPointExtension>
        </extensions>
      </trkpt>
      <trkpt lat="44.71847827546298503875732421875" lon="6.74328477121889591217041015625">
        <ele>1540</ele>
        <time>2026-09-03T05:38:39.000Z</time>
        <extensions>
          <ns3:TrackPointExtension>
            <ns3:hr>123</ns3:hr>
            <ns3:cad>83</ns3:cad>
          </ns3:TrackPointExtension>
        </extensions>
      </trkpt>
      <trkpt lat="44.71846503205597400665283203125" lon="6.74326431937515735626220703125">
        <ele>1539.5999755859375</ele>
        <time>2026-09-03T05:38:40.000Z</time>
        <extensions>
          <ns3:TrackPointExtension>
            <ns3:hr>122</ns3:hr>
            <ns3:cad>83</ns3:cad>
          </ns3:TrackPointExtension>
        </extensions>
      </trkpt>
      <trkpt lat="44.71844223327934741973876953125" lon="6.74323531799018383026123046875">
        <ele>1539.4000244140625</ele>
        <time>2026-09-03T05:38:41.000Z</time>
        <extensions>
          <ns3:TrackPointExtension>
            <ns3:hr>121</ns3:hr>
            <ns3:cad>84</ns3:cad>
          </ns3:TrackPointExtension>
        </extensions>
      </trkpt>
      <trkpt lat="44.71842664293944835662841796875" lon="6.7432070709764957427978515625">
        <ele>1539</ele>
        <time>2026-09-03T05:38:42.000Z</time>
        <extensions>
          <ns3:TrackPointExtension>
            <ns3:hr>121</ns3:hr>
            <ns3:cad>84</ns3:cad>
          </ns3:TrackPointExtension>
        </extensions>
      </trkpt>
      <trkpt lat="44.71840300597250461578369140625" lon="6.74317379482090473175048828125">
        <ele>1538.800048828125</ele>
        <time>2026-09-03T05:38:43.000Z</time>
        <extensions>
          <ns3:TrackPointExtension>
            <ns3:hr>121</ns3:hr>
            <ns3:cad>84</ns3:cad>
          </ns3:TrackPointExtension>
        </extensions>
      </trkpt>
      <trkpt lat="44.71838808618485927581787109375" lon="6.74314345233142375946044921875">
        <ele>1538.4000244140625</ele>
        <time>2026-09-03T05:38:44.000Z</time>
        <extensions>
          <ns3:TrackPointExtension>
            <ns3:hr>122</ns3:hr>
            <ns3:cad>83</ns3:cad>
          </ns3:TrackPointExtension>
        </extensions>
      </trkpt>
      <trkpt lat="44.7183762677013874053955078125" lon="6.74311998300254344940185546875">
        <ele>1538.199951171875</ele>
        <time>2026-09-03T05:38:45.000Z</time>
        <extensions>
          <ns3:TrackPointExtension>
            <ns3:hr>122</ns3:hr>
            <ns3:cad>83</ns3:cad>
          </ns3:TrackPointExtension>
        </extensions>
      </trkpt>
      <trkpt lat="44.7183591686189174652099609375" lon="6.7430940829217433929443359375">
        <ele>1538</ele>
        <time>2026-09-03T05:38:46.000Z</time>
        <extensions>
          <ns3:TrackPointExtension>
            <ns3:hr>121</ns3:hr>
            <ns3:cad>83</ns3:cad>
          </ns3:TrackPointExtension>
        </extensions>
      </trkpt>
      <trkpt lat="44.71834466792643070220947265625" lon="6.7430692724883556365966796875">
        <ele>1537.800048828125</ele>
        <time>2026-09-03T05:38:47.000Z</time>
        <extensions>
          <ns3:TrackPointExtension>
            <ns3:hr>121</ns3:hr>
            <ns3:cad>83</ns3:cad>
          </ns3:TrackPointExtension>
        </extensions>
      </trkpt>
      <trkpt lat="44.71833117306232452392578125" lon="6.74304991029202938079833984375">
        <ele>1537.5999755859375</ele>
        <time>2026-09-03T05:38:48.000Z</time>
        <extensions>
          <ns3:TrackPointExtension>
            <ns3:hr>121</ns3:hr>
            <ns3:cad>83</ns3:cad>
          </ns3:TrackPointExtension>
        </extensions>
      </trkpt>
      <trkpt lat="44.718317426741123199462890625" lon="6.74301780760288238525390625">
        <ele>1537.4000244140625</ele>
        <time>2026-09-03T05:38:49.000Z</time>
        <extensions>
          <ns3:TrackPointExtension>
            <ns3:hr>121</ns3:hr>
            <ns3:cad>83</ns3:cad>
          </ns3:TrackPointExtension>
        </extensions>
      </trkpt>
      <trkpt lat="44.71830460242927074432373046875" lon="6.74299073405563831329345703125">
        <ele>1537.4000244140625</ele>
        <time>2026-09-03T05:38:50.000Z</time>
        <extensions>
          <ns3:TrackPointExtension>
            <ns3:hr>120</ns3:hr>
            <ns3:cad>83</ns3:cad>
          </ns3:TrackPointExtension>
        </extensions>
      </trkpt>
      <trkpt lat="44.7182880900800228118896484375" lon="6.7429566197097301483154296875">
        <ele>1537.199951171875</ele>
        <time>2026-09-03T05:38:51.000Z</time>
        <extensions>
          <ns3:TrackPointExtension>
            <ns3:hr>120</ns3:hr>
            <ns3:cad>82</ns3:cad>
          </ns3:TrackPointExtension>
        </extensions>
      </trkpt>
      <trkpt lat="44.7182723321020603179931640625" lon="6.74292217008769512176513671875">
        <ele>1537</ele>
        <time>2026-09-03T05:38:52.000Z</time>
        <extensions>
          <ns3:TrackPointExtension>
            <ns3:hr>119</ns3:hr>
            <ns3:cad>82</ns3:cad>
          </ns3:TrackPointExtension>
        </extensions>
      </trkpt>
      <trkpt lat="44.7182572446763515472412109375" lon="6.74290222115814685821533203125">
        <ele>1537</ele>
        <time>2026-09-03T05:38:53.000Z</time>
        <extensions>
          <ns3:TrackPointExtension>
            <ns3:hr>119</ns3:hr>
            <ns3:cad>82</ns3:cad>
          </ns3:TrackPointExtension>
        </extensions>
      </trkpt>
      <trkpt lat="44.7182384692132472991943359375" lon="6.74287020228803157806396484375">
        <ele>1536.800048828125</ele>
        <time>2026-09-03T05:38:54.000Z</time>
        <extensions>
          <ns3:TrackPointExtension>
            <ns3:hr>119</ns3:hr>
            <ns3:cad>82</ns3:cad>
          </ns3:TrackPointExtension>
        </extensions>
      </trkpt>
      <trkpt lat="44.7182233817875385284423828125" lon="6.74284338019788265228271484375">
        <ele>1536.800048828125</ele>
        <time>2026-09-03T05:38:55.000Z</time>
        <extensions>
          <ns3:TrackPointExtension>
            <ns3:hr>119</ns3:hr>
            <ns3:cad>83</ns3:cad>
          </ns3:TrackPointExtension>
        </extensions>
      </trkpt>
      <trkpt lat="44.71820804290473461151123046875" lon="6.74282041378319263458251953125">
        <ele>1536.5999755859375</ele>
        <time>2026-09-03T05:38:56.000Z</time>
        <extensions>
          <ns3:TrackPointExtension>
            <ns3:hr>118</ns3:hr>
            <ns3:cad>82</ns3:cad>
          </ns3:TrackPointExtension>
        </extensions>
      </trkpt>
      <trkpt lat="44.71819111146032810211181640625" lon="6.74279744736850261688232421875">
        <ele>1536.4000244140625</ele>
        <time>2026-09-03T05:38:57.000Z</time>
        <extensions>
          <ns3:TrackPointExtension>
            <ns3:hr>119</ns3:hr>
            <ns3:cad>81</ns3:cad>
          </ns3:TrackPointExtension>
        </extensions>
      </trkpt>
      <trkpt lat="44.71818172372877597808837890625" lon="6.74278185702860355377197265625">
        <ele>1536.199951171875</ele>
        <time>2026-09-03T05:38:58.000Z</time>
        <extensions>
          <ns3:TrackPointExtension>
            <ns3:hr>119</ns3:hr>
            <ns3:cad>81</ns3:cad>
          </ns3:TrackPointExtension>
        </extensions>
      </trkpt>
      <trkpt lat="44.71817267127335071563720703125" lon="6.7427725531160831451416015625">
        <ele>1536</ele>
        <time>2026-09-03T05:38:59.000Z</time>
        <extensions>
          <ns3:TrackPointExtension>
            <ns3:hr>120</ns3:hr>
            <ns3:cad>81</ns3:cad>
          </ns3:TrackPointExtension>
        </extensions>
      </trkpt>
      <trkpt lat="44.7181650437414646148681640625" lon="6.74276492558419704437255859375">
        <ele>1535.800048828125</ele>
        <time>2026-09-03T05:39:00.000Z</time>
        <extensions>
          <ns3:TrackPointExtension>
            <ns3:hr>120</ns3:hr>
            <ns3:cad>81</ns3:cad>
          </ns3:TrackPointExtension>
        </extensions>
      </trkpt>
      <trkpt lat="44.7181549854576587677001953125" lon="6.7427529394626617431640625">
        <ele>1535.5999755859375</ele>
        <time>2026-09-03T05:39:01.000Z</time>
        <extensions>
          <ns3:TrackPointExtension>
            <ns3:hr>120</ns3:hr>
            <ns3:cad>81</ns3:cad>
          </ns3:TrackPointExtension>
        </extensions>
      </trkpt>
      <trkpt lat="44.71814366988837718963623046875" lon="6.74274564720690250396728515625">
        <ele>1535.4000244140625</ele>
        <time>2026-09-03T05:39:02.000Z</time>
        <extensions>
          <ns3:TrackPointExtension>
            <ns3:hr>120</ns3:hr>
            <ns3:cad>81</ns3:cad>
          </ns3:TrackPointExtension>
        </extensions>
      </trkpt>
      <trkpt lat="44.71813294105231761932373046875" lon="6.7427336610853672027587890625">
        <ele>1535.199951171875</ele>
        <time>2026-09-03T05:39:03.000Z</time>
        <extensions>
          <ns3:TrackPointExtension>
            <ns3:hr>120</ns3:hr>
            <ns3:cad>81</ns3:cad>
          </ns3:TrackPointExtension>
        </extensions>
      </trkpt>
      <trkpt lat="44.7181181050837039947509765625" lon="6.74272737465798854827880859375">
        <ele>1535.199951171875</ele>
        <time>2026-09-03T05:39:04.000Z</time>
        <extensions>
          <ns3:TrackPointExtension>
            <ns3:hr>121</ns3:hr>
            <ns3:cad>81</ns3:cad>
          </ns3:TrackPointExtension>
        </extensions>
      </trkpt>
      <trkpt lat="44.71809446811676025390625" lon="6.74271077848970890045166015625">
        <ele>1535.199951171875</ele>
        <time>2026-09-03T05:39:05.000Z</time>
        <extensions>
          <ns3:TrackPointExtension>
            <ns3:hr>121</ns3:hr>
            <ns3:cad>71</ns3:cad>
          </ns3:TrackPointExtension>
        </extensions>
      </trkpt>
      <trkpt lat="44.71807904541492462158203125" lon="6.74269569106400012969970703125">
        <ele>1535</ele>
        <time>2026-09-03T05:39:06.000Z</time>
        <extensions>
          <ns3:TrackPointExtension>
            <ns3:hr>121</ns3:hr>
            <ns3:cad>71</ns3:cad>
          </ns3:TrackPointExtension>
        </extensions>
      </trkpt>
      <trkpt lat="44.71805624663829803466796875" lon="6.7426776699721813201904296875">
        <ele>1535</ele>
        <time>2026-09-03T05:39:07.000Z</time>
        <extensions>
          <ns3:TrackPointExtension>
            <ns3:hr>120</ns3:hr>
            <ns3:cad>71</ns3:cad>
          </ns3:TrackPointExtension>
        </extensions>
      </trkpt>
      <trkpt lat="44.71803118474781513214111328125" lon="6.742655374109745025634765625">
        <ele>1534.800048828125</ele>
        <time>2026-09-03T05:39:08.000Z</time>
        <extensions>
          <ns3:TrackPointExtension>
            <ns3:hr>120</ns3:hr>
            <ns3:cad>71</ns3:cad>
          </ns3:TrackPointExtension>
        </extensions>
      </trkpt>
      <trkpt lat="44.71800805069506168365478515625" lon="6.74264070577919483184814453125">
        <ele>1534.800048828125</ele>
        <time>2026-09-03T05:39:09.000Z</time>
        <extensions>
          <ns3:TrackPointExtension>
            <ns3:hr>119</ns3:hr>
            <ns3:cad>79</ns3:cad>
          </ns3:TrackPointExtension>
        </extensions>
      </trkpt>
      <trkpt lat="44.71797980368137359619140625" lon="6.74262109212577342987060546875">
        <ele>1534.5999755859375</ele>
        <time>2026-09-03T05:39:10.000Z</time>
        <extensions>
          <ns3:TrackPointExtension>
            <ns3:hr>118</ns3:hr>
            <ns3:cad>81</ns3:cad>
          </ns3:TrackPointExtension>
        </extensions>
      </trkpt>
      <trkpt lat="44.7179652191698551177978515625" lon="6.74260533414781093597412109375">
        <ele>1534.4000244140625</ele>
        <time>2026-09-03T05:39:11.000Z</time>
        <extensions>
          <ns3:TrackPointExtension>
            <ns3:hr>119</ns3:hr>
            <ns3:cad>82</ns3:cad>
          </ns3:TrackPointExtension>
        </extensions>
      </trkpt>
      <trkpt lat="44.71794451586902141571044921875" lon="6.74259108491241931915283203125">
        <ele>1534.199951171875</ele>
        <time>2026-09-03T05:39:12.000Z</time>
        <extensions>
          <ns3:TrackPointExtension>
            <ns3:hr>119</ns3:hr>
            <ns3:cad>82</ns3:cad>
          </ns3:TrackPointExtension>
        </extensions>
      </trkpt>
      <trkpt lat="44.7179199568927288055419921875" lon="6.74257314763963222503662109375">
        <ele>1534.199951171875</ele>
        <time>2026-09-03T05:39:13.000Z</time>
        <extensions>
          <ns3:TrackPointExtension>
            <ns3:hr>120</ns3:hr>
            <ns3:cad>82</ns3:cad>
          </ns3:TrackPointExtension>
        </extensions>
      </trkpt>
      <trkpt lat="44.71790143288671970367431640625" lon="6.7425626702606678009033203125">
        <ele>1534.199951171875</ele>
        <time>2026-09-03T05:39:14.000Z</time>
        <extensions>
          <ns3:TrackPointExtension>
            <ns3:hr>120</ns3:hr>
            <ns3:cad>83</ns3:cad>
          </ns3:TrackPointExtension>
        </extensions>
      </trkpt>
      <trkpt lat="44.7178763709962368011474609375" lon="6.7425465770065784454345703125">
        <ele>1534.199951171875</ele>
        <time>2026-09-03T05:39:15.000Z</time>
        <extensions>
          <ns3:TrackPointExtension>
            <ns3:hr>121</ns3:hr>
            <ns3:cad>83</ns3:cad>
          </ns3:TrackPointExtension>
        </extensions>
      </trkpt>
      <trkpt lat="44.71785902045667171478271484375" lon="6.74253023229539394378662109375">
        <ele>1534.199951171875</ele>
        <time>2026-09-03T05:39:16.000Z</time>
        <extensions>
          <ns3:TrackPointExtension>
            <ns3:hr>121</ns3:hr>
            <ns3:cad>82</ns3:cad>
          </ns3:TrackPointExtension>
        </extensions>
      </trkpt>
      <trkpt lat="44.71784611232578754425048828125" lon="6.74251581542193889617919921875">
        <ele>1534.199951171875</ele>
        <time>2026-09-03T05:39:17.000Z</time>
        <extensions>
          <ns3:TrackPointExtension>
            <ns3:hr>121</ns3:hr>
            <ns3:cad>82</ns3:cad>
          </ns3:TrackPointExtension>
        </extensions>
      </trkpt>
      <trkpt lat="44.71783890388906002044677734375" lon="6.74250978045165538787841796875">
        <ele>1534.199951171875</ele>
        <time>2026-09-03T05:39:18.000Z</time>
        <extensions>
          <ns3:TrackPointExtension>
            <ns3:hr>122</ns3:hr>
            <ns3:cad>82</ns3:cad>
          </ns3:TrackPointExtension>
        </extensions>
      </trkpt>
      <trkpt lat="44.7178307734429836273193359375" lon="6.7425048351287841796875">
        <ele>1534.199951171875</ele>
        <time>2026-09-03T05:39:19.000Z</time>
        <extensions>
          <ns3:TrackPointExtension>
            <ns3:hr>122</ns3:hr>
            <ns3:cad>82</ns3:cad>
          </ns3:TrackPointExtension>
        </extensions>
      </trkpt>
      <trkpt lat="44.7178233973681926727294921875" lon="6.74250148236751556396484375">
        <ele>1534.199951171875</ele>
        <time>2026-09-03T05:39:20.000Z</time>
        <extensions>
          <ns3:TrackPointExtension>
            <ns3:hr>122</ns3:hr>
            <ns3:cad>82</ns3:cad>
          </ns3:TrackPointExtension>
        </extensions>
      </trkpt>
      <trkpt lat="44.717813841998577117919921875" lon="6.7424972914159297943115234375">
        <ele>1534.199951171875</ele>
        <time>2026-09-03T05:39:21.000Z</time>
        <extensions>
          <ns3:TrackPointExtension>
            <ns3:hr>123</ns3:hr>
            <ns3:cad>82</ns3:cad>
          </ns3:TrackPointExtension>
        </extensions>
      </trkpt>
      <trkpt lat="44.71780738793313503265380859375" lon="6.74249167554080486297607421875">
        <ele>1534.4000244140625</ele>
        <time>2026-09-03T05:39:22.000Z</time>
        <extensions>
          <ns3:TrackPointExtension>
            <ns3:hr>123</ns3:hr>
            <ns3:cad>82</ns3:cad>
          </ns3:TrackPointExtension>
        </extensions>
      </trkpt>
      <trkpt lat="44.71779875457286834716796875" lon="6.7424868978559970855712890625">
        <ele>1534.5999755859375</ele>
        <time>2026-09-03T05:39:23.000Z</time>
        <extensions>
          <ns3:TrackPointExtension>
            <ns3:hr>123</ns3:hr>
            <ns3:cad>82</ns3:cad>
          </ns3:TrackPointExtension>
        </extensions>
      </trkpt>
      <trkpt lat="44.71779028885066509246826171875" lon="6.74248136579990386962890625">
        <ele>1534.800048828125</ele>
        <time>2026-09-03T05:39:24.000Z</time>
        <extensions>
          <ns3:TrackPointExtension>
            <ns3:hr>124</ns3:hr>
            <ns3:cad>82</ns3:cad>
          </ns3:TrackPointExtension>
        </extensions>
      </trkpt>
      <trkpt lat="44.71777939237654209136962890625" lon="6.7424758337438106536865234375">
        <ele>1535</ele>
        <time>2026-09-03T05:39:25.000Z</time>
        <extensions>
          <ns3:TrackPointExtension>
            <ns3:hr>124</ns3:hr>
            <ns3:cad>63</ns3:cad>
          </ns3:TrackPointExtension>
        </extensions>
      </trkpt>
      <trkpt lat="44.71776698715984821319580078125" lon="6.74247290007770061492919921875">
        <ele>1535.199951171875</ele>
        <time>2026-09-03T05:39:26.000Z</time>
        <extensions>
          <ns3:TrackPointExtension>
            <ns3:hr>124</ns3:hr>
            <ns3:cad>60</ns3:cad>
          </ns3:TrackPointExtension>
        </extensions>
      </trkpt>
      <trkpt lat="44.717753827571868896484375" lon="6.74246954731643199920654296875">
        <ele>1535.4000244140625</ele>
        <time>2026-09-03T05:39:27.000Z</time>
        <extensions>
          <ns3:TrackPointExtension>
            <ns3:hr>125</ns3:hr>
            <ns3:cad>60</ns3:cad>
          </ns3:TrackPointExtension>
        </extensions>
      </trkpt>
      <trkpt lat="44.71773899160325527191162109375" lon="6.74246921204030513763427734375">
        <ele>1535.5999755859375</ele>
        <time>2026-09-03T05:39:28.000Z</time>
        <extensions>
          <ns3:TrackPointExtension>
            <ns3:hr>125</ns3:hr>
            <ns3:cad>59</ns3:cad>
          </ns3:TrackPointExtension>
        </extensions>
      </trkpt>
      <trkpt lat="44.71773111261427402496337890625" lon="6.7424701340496540069580078125">
        <ele>1535.5999755859375</ele>
        <time>2026-09-03T05:39:29.000Z</time>
        <extensions>
          <ns3:TrackPointExtension>
            <ns3:hr>125</ns3:hr>
            <ns3:cad>59</ns3:cad>
          </ns3:TrackPointExtension>
        </extensions>
      </trkpt>
      <trkpt lat="44.7177211381494998931884765625" lon="6.7424739897251129150390625">
        <ele>1535.5999755859375</ele>
        <time>2026-09-03T05:39:30.000Z</time>
        <extensions>
          <ns3:TrackPointExtension>
            <ns3:hr>126</ns3:hr>
            <ns3:cad>59</ns3:cad>
          </ns3:TrackPointExtension>
        </extensions>
      </trkpt>
      <trkpt lat="44.7177117504179477691650390625" lon="6.7424775101244449615478515625">
        <ele>1535.5999755859375</ele>
        <time>2026-09-03T05:39:31.000Z</time>
        <extensions>
          <ns3:TrackPointExtension>
            <ns3:hr>126</ns3:hr>
            <ns3:cad>59</ns3:cad>
          </ns3:TrackPointExtension>
        </extensions>
      </trkpt>
      <trkpt lat="44.7176886163651943206787109375" lon="6.7424751631915569305419921875">
        <ele>1535.5999755859375</ele>
        <time>2026-09-03T05:39:32.000Z</time>
        <extensions>
          <ns3:TrackPointExtension>
            <ns3:hr>126</ns3:hr>
            <ns3:cad>60</ns3:cad>
          </ns3:TrackPointExtension>
        </extensions>
      </trkpt>
      <trkpt lat="44.71766422502696514129638671875" lon="6.742479018867015838623046875">
        <ele>1535.4000244140625</ele>
        <time>2026-09-03T05:39:33.000Z</time>
        <extensions>
          <ns3:TrackPointExtension>
            <ns3:hr>126</ns3:hr>
            <ns3:cad>61</ns3:cad>
          </ns3:TrackPointExtension>
        </extensions>
      </trkpt>
      <trkpt lat="44.71764720976352691650390625" lon="6.7424758337438106536865234375">
        <ele>1535.199951171875</ele>
        <time>2026-09-03T05:39:34.000Z</time>
        <extensions>
          <ns3:TrackPointExtension>
            <ns3:hr>126</ns3:hr>
            <ns3:cad>62</ns3:cad>
          </ns3:TrackPointExtension>
        </extensions>
      </trkpt>
      <trkpt lat="44.71762047149240970611572265625" lon="6.7424714751541614532470703125">
        <ele>1535</ele>
        <time>2026-09-03T05:39:35.000Z</time>
        <extensions>
          <ns3:TrackPointExtension>
            <ns3:hr>127</ns3:hr>
            <ns3:cad>62</ns3:cad>
          </ns3:TrackPointExtension>
        </extensions>
      </trkpt>
      <trkpt lat="44.71759247593581676483154296875" lon="6.7424657754600048065185546875">
        <ele>1534.800048828125</ele>
        <time>2026-09-03T05:39:36.000Z</time>
        <extensions>
          <ns3:TrackPointExtension>
            <ns3:hr>127</ns3:hr>
            <ns3:cad>62</ns3:cad>
          </ns3:TrackPointExtension>
        </extensions>
      </trkpt>
      <trkpt lat="44.71756431274116039276123046875" lon="6.742461584508419036865234375">
        <ele>1534.5999755859375</ele>
        <time>2026-09-03T05:39:37.000Z</time>
        <extensions>
          <ns3:TrackPointExtension>
            <ns3:hr>127</ns3:hr>
            <ns3:cad>62</ns3:cad>
          </ns3:TrackPointExtension>
        </extensions>
      </trkpt>
      <trkpt lat="44.71753455698490142822265625" lon="6.74245722591876983642578125">
        <ele>1534.5999755859375</ele>
        <time>2026-09-03T05:39:38.000Z</time>
        <extensions>
          <ns3:TrackPointExtension>
            <ns3:hr>127</ns3:hr>
            <ns3:cad>80</ns3:cad>
          </ns3:TrackPointExtension>
        </extensions>
      </trkpt>
      <trkpt lat="44.71750664524734020233154296875" lon="6.74245194531977176666259765625">
        <ele>1534.4000244140625</ele>
        <time>2026-09-03T05:39:39.000Z</time>
        <extensions>
          <ns3:TrackPointExtension>
            <ns3:hr>127</ns3:hr>
            <ns3:cad>83</ns3:cad>
          </ns3:TrackPointExtension>
        </extensions>
      </trkpt>
      <trkpt lat="44.71748166717588901519775390625" lon="6.74244691617786884307861328125">
        <ele>1534.4000244140625</ele>
        <time>2026-09-03T05:39:40.000Z</time>
        <extensions>
          <ns3:TrackPointExtension>
            <ns3:hr>127</ns3:hr>
            <ns3:cad>83</ns3:cad>
          </ns3:TrackPointExtension>
        </extensions>
      </trkpt>
      <trkpt lat="44.71745450980961322784423828125" lon="6.74242814071476459503173828125">
        <ele>1534.199951171875</ele>
        <time>2026-09-03T05:39:41.000Z</time>
        <extensions>
          <ns3:TrackPointExtension>
            <ns3:hr>128</ns3:hr>
            <ns3:cad>83</ns3:cad>
          </ns3:TrackPointExtension>
        </extensions>
      </trkpt>
      <trkpt lat="44.717431627213954925537109375" lon="6.7424203455448150634765625">
        <ele>1534.199951171875</ele>
        <time>2026-09-03T05:39:42.000Z</time>
        <extensions>
          <ns3:TrackPointExtension>
            <ns3:hr>128</ns3:hr>
            <ns3:cad>83</ns3:cad>
          </ns3:TrackPointExtension>
        </extensions>
      </trkpt>
      <trkpt lat="44.71740438602864742279052734375" lon="6.74240450374782085418701171875">
        <ele>1534</ele>
        <time>2026-09-03T05:39:43.000Z</time>
        <extensions>
          <ns3:TrackPointExtension>
            <ns3:hr>128</ns3:hr>
            <ns3:cad>83</ns3:cad>
          </ns3:TrackPointExtension>
        </extensions>
      </trkpt>
      <trkpt lat="44.71739214845001697540283203125" lon="6.74238472245633602142333984375">
        <ele>1534</ele>
        <time>2026-09-03T05:39:44.000Z</time>
        <extensions>
          <ns3:TrackPointExtension>
            <ns3:hr>129</ns3:hr>
            <ns3:cad>83</ns3:cad>
          </ns3:TrackPointExtension>
        </extensions>
      </trkpt>
      <trkpt lat="44.71737622283399105072021484375" lon="6.74237198196351528167724609375">
        <ele>1533.800048828125</ele>
        <time>2026-09-03T05:39:45.000Z</time>
        <extensions>
          <ns3:TrackPointExtension>
            <ns3:hr>130</ns3:hr>
            <ns3:cad>83</ns3:cad>
          </ns3:TrackPointExtension>
        </extensions>
      </trkpt>
      <trkpt lat="44.7173633985221385955810546875" lon="6.74236594699323177337646484375">
        <ele>1533.5999755859375</ele>
        <time>2026-09-03T05:39:46.000Z</time>
        <extensions>
          <ns3:TrackPointExtension>
            <ns3:hr>131</ns3:hr>
            <ns3:cad>83</ns3:cad>
          </ns3:TrackPointExtension>
        </extensions>
      </trkpt>
      <trkpt lat="44.71735090948641300201416015625" lon="6.742359660565853118896484375">
        <ele>1533.5999755859375</ele>
        <time>2026-09-03T05:39:47.000Z</time>
        <extensions>
          <ns3:TrackPointExtension>
            <ns3:hr>132</ns3:hr>
            <ns3:cad>83</ns3:cad>
          </ns3:TrackPointExtension>
        </extensions>
      </trkpt>
      <trkpt lat="44.71733598969876766204833984375" lon="6.7423531226813793182373046875">
        <ele>1533.4000244140625</ele>
        <time>2026-09-03T05:39:48.000Z</time>
        <extensions>
          <ns3:TrackPointExtension>
            <ns3:hr>132</ns3:hr>
            <ns3:cad>84</ns3:cad>
          </ns3:TrackPointExtension>
        </extensions>
      </trkpt>
      <trkpt lat="44.717323668301105499267578125" lon="6.74234482459723949432373046875">
        <ele>1533.4000244140625</ele>
        <time>2026-09-03T05:39:49.000Z</time>
        <extensions>
          <ns3:TrackPointExtension>
            <ns3:hr>132</ns3:hr>
            <ns3:cad>84</ns3:cad>
          </ns3:TrackPointExtension>
        </extensions>
      </trkpt>
      <trkpt lat="44.7173060663044452667236328125" lon="6.74233786761760711669921875">
        <ele>1533.199951171875</ele>
        <time>2026-09-03T05:39:50.000Z</time>
        <extensions>
          <ns3:TrackPointExtension>
            <ns3:hr>132</ns3:hr>
            <ns3:cad>73</ns3:cad>
          </ns3:TrackPointExtension>
        </extensions>
      </trkpt>
      <trkpt lat="44.7172933258116245269775390625" lon="6.74232722260057926177978515625">
        <ele>1533</ele>
        <time>2026-09-03T05:39:51.000Z</time>
        <extensions>
          <ns3:TrackPointExtension>
            <ns3:hr>132</ns3:hr>
            <ns3:cad>73</ns3:cad>
          </ns3:TrackPointExtension>
        </extensions>
      </trkpt>
      <trkpt lat="44.71728586591780185699462890625" lon="6.74232051707804203033447265625">
        <ele>1532.5999755859375</ele>
        <time>2026-09-03T05:39:52.000Z</time>
        <extensions>
          <ns3:TrackPointExtension>
            <ns3:hr>133</ns3:hr>
            <ns3:cad>73</ns3:cad>
          </ns3:TrackPointExtension>
        </extensions>
      </trkpt>
      <trkpt lat="44.71727480180561542510986328125" lon="6.74231448210775852203369140625">
        <ele>1532.199951171875</ele>
        <time>2026-09-03T05:39:53.000Z</time>
        <extensions>
          <ns3:TrackPointExtension>
            <ns3:hr>132</ns3:hr>
            <ns3:cad>65</ns3:cad>
          </ns3:TrackPointExtension>
        </extensions>
      </trkpt>
      <trkpt lat="44.71726658754050731658935546875" lon="6.742314733564853668212890625">
        <ele>1532</ele>
        <time>2026-09-03T05:39:54.000Z</time>
        <extensions>
          <ns3:TrackPointExtension>
            <ns3:hr>132</ns3:hr>
            <ns3:cad>61</ns3:cad>
          </ns3:TrackPointExtension>
        </extensions>
      </trkpt>
      <trkpt lat="44.717251248657703399658203125" lon="6.74230945296585559844970703125">
        <ele>1531.5999755859375</ele>
        <time>2026-09-03T05:39:55.000Z</time>
        <extensions>
          <ns3:TrackPointExtension>
            <ns3:hr>132</ns3:hr>
            <ns3:cad>61</ns3:cad>
          </ns3:TrackPointExtension>
        </extensions>
      </trkpt>
      <trkpt lat="44.71722953952848911285400390625" lon="6.74230031669139862060546875">
        <ele>1531.4000244140625</ele>
        <time>2026-09-03T05:39:56.000Z</time>
        <extensions>
          <ns3:TrackPointExtension>
            <ns3:hr>132</ns3:hr>
            <ns3:cad>61</ns3:cad>
          </ns3:TrackPointExtension>
        </extensions>
      </trkpt>
      <trkpt lat="44.717212021350860595703125" lon="6.74229788593947887420654296875">
        <ele>1531</ele>
        <time>2026-09-03T05:39:57.000Z</time>
        <extensions>
          <ns3:TrackPointExtension>
            <ns3:hr>132</ns3:hr>
            <ns3:cad>61</ns3:cad>
          </ns3:TrackPointExtension>
        </extensions>
      </trkpt>
      <trkpt lat="44.717195592820644378662109375" lon="6.74229436554014682769775390625">
        <ele>1530.5999755859375</ele>
        <time>2026-09-03T05:39:58.000Z</time>
        <extensions>
          <ns3:TrackPointExtension>
            <ns3:hr>131</ns3:hr>
            <ns3:cad>0</ns3:cad>
          </ns3:TrackPointExtension>
        </extensions>
      </trkpt>
      <trkpt lat="44.71718318760395050048828125" lon="6.74229302443563938140869140625">
        <ele>1530.199951171875</ele>
        <time>2026-09-03T05:39:59.000Z</time>
        <extensions>
          <ns3:TrackPointExtension>
            <ns3:hr>130</ns3:hr>
            <ns3:cad>0</ns3:cad>
          </ns3:TrackPointExtension>
        </extensions>
      </trkpt>
      <trkpt lat="44.717172123491764068603515625" lon="6.74229771830141544342041015625">
        <ele>1529.800048828125</ele>
        <time>2026-09-03T05:40:00.000Z</time>
        <extensions>
          <ns3:TrackPointExtension>
            <ns3:hr>130</ns3:hr>
            <ns3:cad>0</ns3:cad>
          </ns3:TrackPointExtension>
        </extensions>
      </trkpt>
      <trkpt lat="44.71715678460896015167236328125" lon="6.74229386262595653533935546875">
        <ele>1529.5999755859375</ele>
        <time>2026-09-03T05:40:01.000Z</time>
        <extensions>
          <ns3:TrackPointExtension>
            <ns3:hr>130</ns3:hr>
            <ns3:cad>0</ns3:cad>
          </ns3:TrackPointExtension>
        </extensions>
      </trkpt>
      <trkpt lat="44.7171424515545368194580078125" lon="6.74228967167437076568603515625">
        <ele>1529.4000244140625</ele>
        <time>2026-09-03T05:40:02.000Z</time>
        <extensions>
          <ns3:TrackPointExtension>
            <ns3:hr>130</ns3:hr>
            <ns3:cad>0</ns3:cad>
          </ns3:TrackPointExtension>
        </extensions>
      </trkpt>
      <trkpt lat="44.71713348291814327239990234375" lon="6.7422889173030853271484375">
        <ele>1529.199951171875</ele>
        <time>2026-09-03T05:40:03.000Z</time>
        <extensions>
          <ns3:TrackPointExtension>
            <ns3:hr>129</ns3:hr>
            <ns3:cad>0</ns3:cad>
          </ns3:TrackPointExtension>
        </extensions>
      </trkpt>
      <trkpt lat="44.717122502624988555908203125" lon="6.74228564836084842681884765625">
        <ele>1529</ele>
        <time>2026-09-03T05:40:04.000Z</time>
        <extensions>
          <ns3:TrackPointExtension>
            <ns3:hr>128</ns3:hr>
            <ns3:cad>81</ns3:cad>
          </ns3:TrackPointExtension>
        </extensions>
      </trkpt>
      <trkpt lat="44.7171146236360073089599609375" lon="6.742280535399913787841796875">
        <ele>1528.800048828125</ele>
        <time>2026-09-03T05:40:05.000Z</time>
        <extensions>
          <ns3:TrackPointExtension>
            <ns3:hr>128</ns3:hr>
            <ns3:cad>81</ns3:cad>
          </ns3:TrackPointExtension>
        </extensions>
      </trkpt>
      <trkpt lat="44.71710163168609142303466796875" lon="6.74227022565901279449462890625">
        <ele>1528.4000244140625</ele>
        <time>2026-09-03T05:40:06.000Z</time>
        <extensions>
          <ns3:TrackPointExtension>
            <ns3:hr>127</ns3:hr>
            <ns3:cad>81</ns3:cad>
          </ns3:TrackPointExtension>
        </extensions>
      </trkpt>
      <trkpt lat="44.71709241159260272979736328125" lon="6.742266118526458740234375">
        <ele>1528.199951171875</ele>
        <time>2026-09-03T05:40:07.000Z</time>
        <extensions>
          <ns3:TrackPointExtension>
            <ns3:hr>127</ns3:hr>
            <ns3:cad>81</ns3:cad>
          </ns3:TrackPointExtension>
        </extensions>
      </trkpt>
      <trkpt lat="44.7170871309936046600341796875" lon="6.742243655025959014892578125">
        <ele>1527.800048828125</ele>
        <time>2026-09-03T05:40:08.000Z</time>
        <extensions>
          <ns3:TrackPointExtension>
            <ns3:hr>126</ns3:hr>
            <ns3:cad>81</ns3:cad>
          </ns3:TrackPointExtension>
        </extensions>
      </trkpt>
      <trkpt lat="44.71707598306238651275634765625" lon="6.7422245442867279052734375">
        <ele>1527.5999755859375</ele>
        <time>2026-09-03T05:40:09.000Z</time>
        <extensions>
          <ns3:TrackPointExtension>
            <ns3:hr>126</ns3:hr>
            <ns3:cad>81</ns3:cad>
          </ns3:TrackPointExtension>
        </extensions>
      </trkpt>
      <trkpt lat="44.71706223674118518829345703125" lon="6.74220903776586055755615234375">
        <ele>1527.199951171875</ele>
        <time>2026-09-03T05:40:10.000Z</time>
        <extensions>
          <ns3:TrackPointExtension>
            <ns3:hr>126</ns3:hr>
            <ns3:cad>81</ns3:cad>
          </ns3:TrackPointExtension>
        </extensions>
      </trkpt>
      <trkpt lat="44.71704714931547641754150390625" lon="6.74219906330108642578125">
        <ele>1527</ele>
        <time>2026-09-03T05:40:11.000Z</time>
        <extensions>
          <ns3:TrackPointExtension>
            <ns3:hr>125</ns3:hr>
            <ns3:cad>81</ns3:cad>
          </ns3:TrackPointExtension>
        </extensions>
      </trkpt>
      <trkpt lat="44.71702636219561100006103515625" lon="6.74218632280826568603515625">
        <ele>1526.5999755859375</ele>
        <time>2026-09-03T05:40:12.000Z</time>
        <extensions>
          <ns3:TrackPointExtension>
            <ns3:hr>125</ns3:hr>
            <ns3:cad>81</ns3:cad>
          </ns3:TrackPointExtension>
        </extensions>
      </trkpt>
      <trkpt lat="44.71700071357190608978271484375" lon="6.74216796644032001495361328125">
        <ele>1526.4000244140625</ele>
        <time>2026-09-03T05:40:13.000Z</time>
        <extensions>
          <ns3:TrackPointExtension>
            <ns3:hr>125</ns3:hr>
            <ns3:cad>0</ns3:cad>
          </ns3:TrackPointExtension>
        </extensions>
      </trkpt>
      <trkpt lat="44.716989062726497650146484375" lon="6.7421506159007549285888671875">
        <ele>1526</ele>
        <time>2026-09-03T05:40:14.000Z</time>
        <extensions>
          <ns3:TrackPointExtension>
            <ns3:hr>125</ns3:hr>
            <ns3:cad>0</ns3:cad>
          </ns3:TrackPointExtension>
        </extensions>
      </trkpt>
      <trkpt lat="44.71697959117591381072998046875" lon="6.74214935861527919769287109375">
        <ele>1525.5999755859375</ele>
        <time>2026-09-03T05:40:15.000Z</time>
        <extensions>
          <ns3:TrackPointExtension>
            <ns3:hr>124</ns3:hr>
            <ns3:cad>0</ns3:cad>
          </ns3:TrackPointExtension>
        </extensions>
      </trkpt>
      <trkpt lat="44.71695813350379467010498046875" lon="6.7421405576169490814208984375">
        <ele>1525.199951171875</ele>
        <time>2026-09-03T05:40:16.000Z</time>
        <extensions>
          <ns3:TrackPointExtension>
            <ns3:hr>124</ns3:hr>
            <ns3:cad>0</ns3:cad>
          </ns3:TrackPointExtension>
        </extensions>
      </trkpt>
      <trkpt lat="44.716954194009304046630859375" lon="6.742143742740154266357421875">
        <ele>1524.800048828125</ele>
        <time>2026-09-03T05:40:17.000Z</time>
        <extensions>
          <ns3:TrackPointExtension>
            <ns3:hr>124</ns3:hr>
            <ns3:cad>0</ns3:cad>
          </ns3:TrackPointExtension>
        </extensions>
      </trkpt>
      <trkpt lat="44.71695109270513057708740234375" lon="6.74214416183531284332275390625">
        <ele>1524.4000244140625</ele>
        <time>2026-09-03T05:40:18.000Z</time>
        <extensions>
          <ns3:TrackPointExtension>
            <ns3:hr>124</ns3:hr>
            <ns3:cad>0</ns3:cad>
          </ns3:TrackPointExtension>
        </extensions>
      </trkpt>
      <trkpt lat="44.716938100755214691162109375" lon="6.7421479336917400360107421875">
        <ele>1524.199951171875</ele>
        <time>2026-09-03T05:40:19.000Z</time>
        <extensions>
          <ns3:TrackPointExtension>
            <ns3:hr>123</ns3:hr>
            <ns3:cad>0</ns3:cad>
          </ns3:TrackPointExtension>
        </extensions>
      </trkpt>
      <trkpt lat="44.7169263660907745361328125" lon="6.7421521246433258056640625">
        <ele>1523.800048828125</ele>
        <time>2026-09-03T05:40:20.000Z</time>
        <extensions>
          <ns3:TrackPointExtension>
            <ns3:hr>122</ns3:hr>
            <ns3:cad>0</ns3:cad>
          </ns3:TrackPointExtension>
        </extensions>
      </trkpt>
      <trkpt lat="44.71691505052149295806884765625" lon="6.742168553173542022705078125">
        <ele>1523.4000244140625</ele>
        <time>2026-09-03T05:40:21.000Z</time>
        <extensions>
          <ns3:TrackPointExtension>
            <ns3:hr>121</ns3:hr>
            <ns3:cad>0</ns3:cad>
          </ns3:TrackPointExtension>
        </extensions>
      </trkpt>
      <trkpt lat="44.7168983705341815948486328125" lon="6.7421814613044261932373046875">
        <ele>1523.199951171875</ele>
        <time>2026-09-03T05:40:22.000Z</time>
        <extensions>
          <ns3:TrackPointExtension>
            <ns3:hr>121</ns3:hr>
            <ns3:cad>0</ns3:cad>
          </ns3:TrackPointExtension>
        </extensions>
      </trkpt>
      <trkpt lat="44.7168889828026294708251953125" lon="6.74219227395951747894287109375">
        <ele>1522.800048828125</ele>
        <time>2026-09-03T05:40:23.000Z</time>
        <extensions>
          <ns3:TrackPointExtension>
            <ns3:hr>120</ns3:hr>
            <ns3:cad>0</ns3:cad>
          </ns3:TrackPointExtension>
        </extensions>
      </trkpt>
      <trkpt lat="44.7168742306530475616455078125" lon="6.74221046268939971923828125">
        <ele>1522.5999755859375</ele>
        <time>2026-09-03T05:40:24.000Z</time>
        <extensions>
          <ns3:TrackPointExtension>
            <ns3:hr>120</ns3:hr>
            <ns3:cad>0</ns3:cad>
          </ns3:TrackPointExtension>
        </extensions>
      </trkpt>
      <trkpt lat="44.7168695367872714996337890625" lon="6.7422183416783809661865234375">
        <ele>1522.4000244140625</ele>
        <time>2026-09-03T05:40:25.000Z</time>
        <extensions>
          <ns3:TrackPointExtension>
            <ns3:hr>120</ns3:hr>
            <ns3:cad>0</ns3:cad>
          </ns3:TrackPointExtension>
        </extensions>
      </trkpt>
      <trkpt lat="44.71686241216957569122314453125" lon="6.74222881905734539031982421875">
        <ele>1522</ele>
        <time>2026-09-03T05:40:26.000Z</time>
        <extensions>
          <ns3:TrackPointExtension>
            <ns3:hr>120</ns3:hr>
            <ns3:cad>0</ns3:cad>
          </ns3:TrackPointExtension>
        </extensions>
      </trkpt>
      <trkpt lat="44.71685805357992649078369140625" lon="6.7422454990446567535400390625">
        <ele>1521.800048828125</ele>
        <time>2026-09-03T05:40:27.000Z</time>
        <extensions>
          <ns3:TrackPointExtension>
            <ns3:hr>120</ns3:hr>
            <ns3:cad>0</ns3:cad>
          </ns3:TrackPointExtension>
        </extensions>
      </trkpt>
      <trkpt lat="44.7168457321822643280029296875" lon="6.74224399030208587646484375">
        <ele>1521.4000244140625</ele>
        <time>2026-09-03T05:40:28.000Z</time>
        <extensions>
          <ns3:TrackPointExtension>
            <ns3:hr>119</ns3:hr>
            <ns3:cad>0</ns3:cad>
          </ns3:TrackPointExtension>
        </extensions>
      </trkpt>
      <trkpt lat="44.71684145741164684295654296875" lon="6.74223870970308780670166015625">
        <ele>1521</ele>
        <time>2026-09-03T05:40:29.000Z</time>
        <extensions>
          <ns3:TrackPointExtension>
            <ns3:hr>119</ns3:hr>
            <ns3:cad>0</ns3:cad>
          </ns3:TrackPointExtension>
        </extensions>
      </trkpt>
      <trkpt lat="44.71684179268777370452880859375" lon="6.74223124980926513671875">
        <ele>1520.800048828125</ele>
        <time>2026-09-03T05:40:30.000Z</time>
        <extensions>
          <ns3:TrackPointExtension>
            <ns3:hr>118</ns3:hr>
            <ns3:cad>0</ns3:cad>
          </ns3:TrackPointExtension>
        </extensions>
      </trkpt>
      <trkpt lat="44.7168432176113128662109375" lon="6.742222867906093597412109375">
        <ele>1520.5999755859375</ele>
        <time>2026-09-03T05:40:31.000Z</time>
        <extensions>
          <ns3:TrackPointExtension>
            <ns3:hr>117</ns3:hr>
            <ns3:cad>0</ns3:cad>
          </ns3:TrackPointExtension>
        </extensions>
      </trkpt>
      <trkpt lat="44.716842211782932281494140625" lon="6.74221909604966640472412109375">
        <ele>1520.199951171875</ele>
        <time>2026-09-03T05:40:32.000Z</time>
        <extensions>
          <ns3:TrackPointExtension>
            <ns3:hr>117</ns3:hr>
            <ns3:cad>0</ns3:cad>
          </ns3:TrackPointExtension>
        </extensions>
      </trkpt>
      <trkpt lat="44.716847576200962066650390625" lon="6.7422059364616870880126953125">
        <ele>1519.800048828125</ele>
        <time>2026-09-03T05:40:33.000Z</time>
        <extensions>
          <ns3:TrackPointExtension>
            <ns3:hr>116</ns3:hr>
            <ns3:cad>0</ns3:cad>
          </ns3:TrackPointExtension>
        </extensions>
      </trkpt>
      <trkpt lat="44.7168433852493762969970703125" lon="6.74219680018723011016845703125">
        <ele>1519.4000244140625</ele>
        <time>2026-09-03T05:40:34.000Z</time>
        <extensions>
          <ns3:TrackPointExtension>
            <ns3:hr>115</ns3:hr>
            <ns3:cad>0</ns3:cad>
          </ns3:TrackPointExtension>
        </extensions>
      </trkpt>
      <trkpt lat="44.7168403677642345428466796875" lon="6.7421747557818889617919921875">
        <ele>1519</ele>
        <time>2026-09-03T05:40:35.000Z</time>
        <extensions>
          <ns3:TrackPointExtension>
            <ns3:hr>114</ns3:hr>
            <ns3:cad>0</ns3:cad>
          </ns3:TrackPointExtension>
        </extensions>
      </trkpt>
      <trkpt lat="44.7168423794209957122802734375" lon="6.74215472303330898284912109375">
        <ele>1518.5999755859375</ele>
        <time>2026-09-03T05:40:36.000Z</time>
        <extensions>
          <ns3:TrackPointExtension>
            <ns3:hr>114</ns3:hr>
            <ns3:cad>81</ns3:cad>
          </ns3:TrackPointExtension>
        </extensions>
      </trkpt>
      <trkpt lat="44.71684279851615428924560546875" lon="6.7421345226466655731201171875">
        <ele>1518.199951171875</ele>
        <time>2026-09-03T05:40:37.000Z</time>
        <extensions>
          <ns3:TrackPointExtension>
            <ns3:hr>114</ns3:hr>
            <ns3:cad>83</ns3:cad>
          </ns3:TrackPointExtension>
        </extensions>
      </trkpt>
      <trkpt lat="44.71684346906840801239013671875" lon="6.74211499281227588653564453125">
        <ele>1517.5999755859375</ele>
        <time>2026-09-03T05:40:38.000Z</time>
        <extensions>
          <ns3:TrackPointExtension>
            <ns3:hr>113</ns3:hr>
            <ns3:cad>83</ns3:cad>
          </ns3:TrackPointExtension>
        </extensions>
      </trkpt>
      <trkpt lat="44.71684028394520282745361328125" lon="6.74209387041628360748291015625">
        <ele>1517.199951171875</ele>
        <time>2026-09-03T05:40:39.000Z</time>
        <extensions>
          <ns3:TrackPointExtension>
            <ns3:hr>113</ns3:hr>
            <ns3:cad>83</ns3:cad>
          </ns3:TrackPointExtension>
        </extensions>
      </trkpt>
      <trkpt lat="44.7168430499732494354248046875" lon="6.74207224510610103607177734375">
        <ele>1516.800048828125</ele>
        <time>2026-09-03T05:40:40.000Z</time>
        <extensions>
          <ns3:TrackPointExtension>
            <ns3:hr>113</ns3:hr>
            <ns3:cad>83</ns3:cad>
          </ns3:TrackPointExtension>
        </extensions>
      </trkpt>
      <trkpt lat="44.7168464027345180511474609375" lon="6.74205011688172817230224609375">
        <ele>1516.4000244140625</ele>
        <time>2026-09-03T05:40:41.000Z</time>
        <extensions>
          <ns3:TrackPointExtension>
            <ns3:hr>113</ns3:hr>
            <ns3:cad>83</ns3:cad>
          </ns3:TrackPointExtension>
        </extensions>
      </trkpt>
      <trkpt lat="44.71683919429779052734375" lon="6.7420235462486743927001953125">
        <ele>1516.199951171875</ele>
        <time>2026-09-03T05:40:42.000Z</time>
        <extensions>
          <ns3:TrackPointExtension>
            <ns3:hr>112</ns3:hr>
            <ns3:cad>83</ns3:cad>
          </ns3:TrackPointExtension>
        </extensions>
      </trkpt>
      <trkpt lat="44.71682167612016201019287109375" lon="6.74202631227672100067138671875">
        <ele>1515.800048828125</ele>
        <time>2026-09-03T05:40:43.000Z</time>
        <extensions>
          <ns3:TrackPointExtension>
            <ns3:hr>112</ns3:hr>
            <ns3:cad>83</ns3:cad>
          </ns3:TrackPointExtension>
        </extensions>
      </trkpt>
      <trkpt lat="44.716807343065738677978515625" lon="6.742024719715118408203125">
        <ele>1515.4000244140625</ele>
        <time>2026-09-03T05:40:44.000Z</time>
        <extensions>
          <ns3:TrackPointExtension>
            <ns3:hr>112</ns3:hr>
            <ns3:cad>83</ns3:cad>
          </ns3:TrackPointExtension>
        </extensions>
      </trkpt>
      <trkpt lat="44.7168083488941192626953125" lon="6.742033101618289947509765625">
        <ele>1515</ele>
        <time>2026-09-03T05:40:45.000Z</time>
        <extensions>
          <ns3:TrackPointExtension>
            <ns3:hr>112</ns3:hr>
            <ns3:cad>83</ns3:cad>
          </ns3:TrackPointExtension>
        </extensions>
      </trkpt>
      <trkpt lat="44.7168008051812648773193359375" lon="6.742035113275051116943359375">
        <ele>1514.5999755859375</ele>
        <time>2026-09-03T05:40:46.000Z</time>
        <extensions>
          <ns3:TrackPointExtension>
            <ns3:hr>112</ns3:hr>
            <ns3:cad>83</ns3:cad>
          </ns3:TrackPointExtension>
        </extensions>
      </trkpt>
      <trkpt lat="44.71678529866039752960205078125" lon="6.74204609356820583343505859375">
        <ele>1514.199951171875</ele>
        <time>2026-09-03T05:40:47.000Z</time>
        <extensions>
          <ns3:TrackPointExtension>
            <ns3:hr>111</ns3:hr>
            <ns3:cad>83</ns3:cad>
          </ns3:TrackPointExtension>
        </extensions>
      </trkpt>
      <trkpt lat="44.71676409244537353515625" lon="6.74206520430743694305419921875">
        <ele>1513.800048828125</ele>
        <time>2026-09-03T05:40:48.000Z</time>
        <extensions>
          <ns3:TrackPointExtension>
            <ns3:hr>111</ns3:hr>
            <ns3:cad>83</ns3:cad>
          </ns3:TrackPointExtension>
        </extensions>
      </trkpt>
      <trkpt lat="44.71674623899161815643310546875" lon="6.7420838959515094757080078125">
        <ele>1513.4000244140625</ele>
        <time>2026-09-03T05:40:49.000Z</time>
        <extensions>
          <ns3:TrackPointExtension>
            <ns3:hr>111</ns3:hr>
            <ns3:cad>78</ns3:cad>
          </ns3:TrackPointExtension>
        </extensions>
      </trkpt>
      <trkpt lat="44.71672025509178638458251953125" lon="6.7421093769371509552001953125">
        <ele>1512.800048828125</ele>
        <time>2026-09-03T05:40:50.000Z</time>
        <extensions>
          <ns3:TrackPointExtension>
            <ns3:hr>110</ns3:hr>
            <ns3:cad>78</ns3:cad>
          </ns3:TrackPointExtension>
        </extensions>
      </trkpt>
      <trkpt lat="44.71669971942901611328125" lon="6.74212689511477947235107421875">
        <ele>1512.5999755859375</ele>
        <time>2026-09-03T05:40:51.000Z</time>
        <extensions>
          <ns3:TrackPointExtension>
            <ns3:hr>109</ns3:hr>
            <ns3:cad>78</ns3:cad>
          </ns3:TrackPointExtension>
        </extensions>
      </trkpt>
      <trkpt lat="44.71668287180364131927490234375" lon="6.74216109327971935272216796875">
        <ele>1512.4000244140625</ele>
        <time>2026-09-03T05:40:52.000Z</time>
        <extensions>
          <ns3:TrackPointExtension>
            <ns3:hr>108</ns3:hr>
            <ns3:cad>78</ns3:cad>
          </ns3:TrackPointExtension>
        </extensions>
      </trkpt>
      <trkpt lat="44.7166700474917888641357421875" lon="6.74218942411243915557861328125">
        <ele>1512.199951171875</ele>
        <time>2026-09-03T05:40:53.000Z</time>
        <extensions>
          <ns3:TrackPointExtension>
            <ns3:hr>108</ns3:hr>
            <ns3:cad>82</ns3:cad>
          </ns3:TrackPointExtension>
        </extensions>
      </trkpt>
      <trkpt lat="44.71666392870247364044189453125" lon="6.7422084510326385498046875">
        <ele>1512.4000244140625</ele>
        <time>2026-09-03T05:40:54.000Z</time>
        <extensions>
          <ns3:TrackPointExtension>
            <ns3:hr>107</ns3:hr>
            <ns3:cad>82</ns3:cad>
          </ns3:TrackPointExtension>
        </extensions>
      </trkpt>
      <trkpt lat="44.7166579775512218475341796875" lon="6.742222197353839874267578125">
        <ele>1512.4000244140625</ele>
        <time>2026-09-03T05:40:55.000Z</time>
        <extensions>
          <ns3:TrackPointExtension>
            <ns3:hr>107</ns3:hr>
            <ns3:cad>82</ns3:cad>
          </ns3:TrackPointExtension>
        </extensions>
      </trkpt>
      <trkpt lat="44.71665537916123867034912109375" lon="6.7422361113131046295166015625">
        <ele>1512.4000244140625</ele>
        <time>2026-09-03T05:40:56.000Z</time>
        <extensions>
          <ns3:TrackPointExtension>
            <ns3:hr>107</ns3:hr>
            <ns3:cad>82</ns3:cad>
          </ns3:TrackPointExtension>
        </extensions>
      </trkpt>
      <trkpt lat="44.7166512720286846160888671875" lon="6.74225145019590854644775390625">
        <ele>1512.199951171875</ele>
        <time>2026-09-03T05:40:57.000Z</time>
        <extensions>
          <ns3:TrackPointExtension>
            <ns3:hr>109</ns3:hr>
            <ns3:cad>83</ns3:cad>
          </ns3:TrackPointExtension>
        </extensions>
      </trkpt>
      <trkpt lat="44.71663995645940303802490234375" lon="6.7422696389257907867431640625">
        <ele>1512</ele>
        <time>2026-09-03T05:40:58.000Z</time>
        <extensions>
          <ns3:TrackPointExtension>
            <ns3:hr>109</ns3:hr>
            <ns3:cad>83</ns3:cad>
          </ns3:TrackPointExtension>
        </extensions>
      </trkpt>
      <trkpt lat="44.71663341857492923736572265625" lon="6.7422837205231189727783203125">
        <ele>1511.800048828125</ele>
        <time>2026-09-03T05:40:59.000Z</time>
        <extensions>
          <ns3:TrackPointExtension>
            <ns3:hr>109</ns3:hr>
            <ns3:cad>77</ns3:cad>
          </ns3:TrackPointExtension>
        </extensions>
      </trkpt>
      <trkpt lat="44.71662000752985477447509765625" lon="6.74229486845433712005615234375">
        <ele>1511.5999755859375</ele>
        <time>2026-09-03T05:41:00.000Z</time>
        <extensions>
          <ns3:TrackPointExtension>
            <ns3:hr>109</ns3:hr>
            <ns3:cad>77</ns3:cad>
          </ns3:TrackPointExtension>
        </extensions>
      </trkpt>
      <trkpt lat="44.7166098654270172119140625" lon="6.74230861477553844451904296875">
        <ele>1511.199951171875</ele>
        <time>2026-09-03T05:41:01.000Z</time>
        <extensions>
          <ns3:TrackPointExtension>
            <ns3:hr>108</ns3:hr>
            <ns3:cad>77</ns3:cad>
          </ns3:TrackPointExtension>
        </extensions>
      </trkpt>
      <trkpt lat="44.7165969572961330413818359375" lon="6.742324121296405792236328125">
        <ele>1511</ele>
        <time>2026-09-03T05:41:02.000Z</time>
        <extensions>
          <ns3:TrackPointExtension>
            <ns3:hr>109</ns3:hr>
            <ns3:cad>77</ns3:cad>
          </ns3:TrackPointExtension>
        </extensions>
      </trkpt>
      <trkpt lat="44.7165825404226779937744140625" lon="6.74233384430408477783203125">
        <ele>1510.800048828125</ele>
        <time>2026-09-03T05:41:03.000Z</time>
        <extensions>
          <ns3:TrackPointExtension>
            <ns3:hr>110</ns3:hr>
            <ns3:cad>77</ns3:cad>
          </ns3:TrackPointExtension>
        </extensions>
      </trkpt>
      <trkpt lat="44.71657055430114269256591796875" lon="6.74234650097787380218505859375">
        <ele>1510.800048828125</ele>
        <time>2026-09-03T05:41:04.000Z</time>
        <extensions>
          <ns3:TrackPointExtension>
            <ns3:hr>110</ns3:hr>
            <ns3:cad>66</ns3:cad>
          </ns3:TrackPointExtension>
        </extensions>
      </trkpt>
      <trkpt lat="44.7165610827505588531494140625" lon="6.7423625104129314422607421875">
        <ele>1510.800048828125</ele>
        <time>2026-09-03T05:41:05.000Z</time>
        <extensions>
          <ns3:TrackPointExtension>
            <ns3:hr>110</ns3:hr>
            <ns3:cad>66</ns3:cad>
          </ns3:TrackPointExtension>
        </extensions>
      </trkpt>
      <trkpt lat="44.71655345521867275238037109375" lon="6.742375753819942474365234375">
        <ele>1510.800048828125</ele>
        <time>2026-09-03T05:41:06.000Z</time>
        <extensions>
          <ns3:TrackPointExtension>
            <ns3:hr>111</ns3:hr>
            <ns3:cad>66</ns3:cad>
          </ns3:TrackPointExtension>
        </extensions>
      </trkpt>
      <trkpt lat="44.71654641442000865936279296875" lon="6.74238690175116062164306640625">
        <ele>1510.5999755859375</ele>
        <time>2026-09-03T05:41:07.000Z</time>
        <extensions>
          <ns3:TrackPointExtension>
            <ns3:hr>112</ns3:hr>
            <ns3:cad>66</ns3:cad>
          </ns3:TrackPointExtension>
        </extensions>
      </trkpt>
      <trkpt lat="44.71653752960264682769775390625" lon="6.7423936910927295684814453125">
        <ele>1510.5999755859375</ele>
        <time>2026-09-03T05:41:08.000Z</time>
        <extensions>
          <ns3:TrackPointExtension>
            <ns3:hr>113</ns3:hr>
            <ns3:cad>66</ns3:cad>
          </ns3:TrackPointExtension>
        </extensions>
      </trkpt>
      <trkpt lat="44.7165319137275218963623046875" lon="6.74238438718020915985107421875">
        <ele>1510.4000244140625</ele>
        <time>2026-09-03T05:41:09.000Z</time>
        <extensions>
          <ns3:TrackPointExtension>
            <ns3:hr>113</ns3:hr>
            <ns3:cad>66</ns3:cad>
          </ns3:TrackPointExtension>
        </extensions>
      </trkpt>
      <trkpt lat="44.716541804373264312744140625" lon="6.7423769272863864898681640625">
        <ele>1510.199951171875</ele>
        <time>2026-09-03T05:41:10.000Z</time>
        <extensions>
          <ns3:TrackPointExtension>
            <ns3:hr>113</ns3:hr>
            <ns3:cad>66</ns3:cad>
          </ns3:TrackPointExtension>
        </extensions>
      </trkpt>
      <trkpt lat="44.71654742024838924407958984375" lon="6.742373406887054443359375">
        <ele>1510</ele>
        <time>2026-09-03T05:41:11.000Z</time>
        <extensions>
          <ns3:TrackPointExtension>
            <ns3:hr>113</ns3:hr>
            <ns3:cad>63</ns3:cad>
          </ns3:TrackPointExtension>
        </extensions>
      </trkpt>
      <trkpt lat="44.71655311994254589080810546875" lon="6.74236309714615345001220703125">
        <ele>1509.5999755859375</ele>
        <time>2026-09-03T05:41:12.000Z</time>
        <extensions>
          <ns3:TrackPointExtension>
            <ns3:hr>113</ns3:hr>
            <ns3:cad>63</ns3:cad>
          </ns3:TrackPointExtension>
        </extensions>
      </trkpt>
      <trkpt lat="44.71655781380832195281982421875" lon="6.7423479259014129638671875">
        <ele>1509.4000244140625</ele>
        <time>2026-09-03T05:41:13.000Z</time>
        <extensions>
          <ns3:TrackPointExtension>
            <ns3:hr>112</ns3:hr>
            <ns3:cad>63</ns3:cad>
          </ns3:TrackPointExtension>
        </extensions>
      </trkpt>
      <trkpt lat="44.71655823290348052978515625" lon="6.7423316650092601776123046875">
        <ele>1509</ele>
        <time>2026-09-03T05:41:14.000Z</time>
        <extensions>
          <ns3:TrackPointExtension>
            <ns3:hr>111</ns3:hr>
            <ns3:cad>63</ns3:cad>
          </ns3:TrackPointExtension>
        </extensions>
      </trkpt>
      <trkpt lat="44.7165580652654170989990234375" lon="6.7423108778893947601318359375">
        <ele>1508.5999755859375</ele>
        <time>2026-09-03T05:41:15.000Z</time>
        <extensions>
          <ns3:TrackPointExtension>
            <ns3:hr>111</ns3:hr>
            <ns3:cad>70</ns3:cad>
          </ns3:TrackPointExtension>
        </extensions>
      </trkpt>
      <trkpt lat="44.71656032837927341461181640625" lon="6.742297299206256866455078125">
        <ele>1508.199951171875</ele>
        <time>2026-09-03T05:41:16.000Z</time>
        <extensions>
          <ns3:TrackPointExtension>
            <ns3:hr>110</ns3:hr>
            <ns3:cad>70</ns3:cad>
          </ns3:TrackPointExtension>
        </extensions>
      </trkpt>
      <trkpt lat="44.71656720153987407684326171875" lon="6.74228229559957981109619140625">
        <ele>1508</ele>
        <time>2026-09-03T05:41:17.000Z</time>
        <extensions>
          <ns3:TrackPointExtension>
            <ns3:hr>109</ns3:hr>
            <ns3:cad>70</ns3:cad>
          </ns3:TrackPointExtension>
        </extensions>
      </trkpt>
      <trkpt lat="44.71656971611082553863525390625" lon="6.742264442145824432373046875">
        <ele>1507.5999755859375</ele>
        <time>2026-09-03T05:41:18.000Z</time>
        <extensions>
          <ns3:TrackPointExtension>
            <ns3:hr>109</ns3:hr>
            <ns3:cad>70</ns3:cad>
          </ns3:TrackPointExtension>
        </extensions>
      </trkpt>
      <trkpt lat="44.71657306887209415435791015625" lon="6.74224239774048328399658203125">
        <ele>1507.199951171875</ele>
        <time>2026-09-03T05:41:19.000Z</time>
        <extensions>
          <ns3:TrackPointExtension>
            <ns3:hr>109</ns3:hr>
            <ns3:cad>70</ns3:cad>
          </ns3:TrackPointExtension>
        </extensions>
      </trkpt>
      <trkpt lat="44.7165721468627452850341796875" lon="6.74221624620258808135986328125">
        <ele>1506.800048828125</ele>
        <time>2026-09-03T05:41:20.000Z</time>
        <extensions>
          <ns3:TrackPointExtension>
            <ns3:hr>109</ns3:hr>
            <ns3:cad>70</ns3:cad>
          </ns3:TrackPointExtension>
        </extensions>
      </trkpt>
      <trkpt lat="44.7165731526911258697509765625" lon="6.7421999014914035797119140625">
        <ele>1506.4000244140625</ele>
        <time>2026-09-03T05:41:21.000Z</time>
        <extensions>
          <ns3:TrackPointExtension>
            <ns3:hr>109</ns3:hr>
            <ns3:cad>75</ns3:cad>
          </ns3:TrackPointExtension>
        </extensions>
      </trkpt>
      <trkpt lat="44.7165811993181705474853515625" lon="6.74218875356018543243408203125">
        <ele>1506.199951171875</ele>
        <time>2026-09-03T05:41:22.000Z</time>
        <extensions>
          <ns3:TrackPointExtension>
            <ns3:hr>108</ns3:hr>
            <ns3:cad>75</ns3:cad>
          </ns3:TrackPointExtension>
        </extensions>
      </trkpt>
      <trkpt lat="44.7165771760046482086181640625" lon="6.74218188039958477020263671875">
        <ele>1505.800048828125</ele>
        <time>2026-09-03T05:41:23.000Z</time>
        <extensions>
          <ns3:TrackPointExtension>
            <ns3:hr>108</ns3:hr>
            <ns3:cad>75</ns3:cad>
          </ns3:TrackPointExtension>
        </extensions>
      </trkpt>
      <trkpt lat="44.7165788523852825164794921875" lon="6.7421650327742099761962890625">
        <ele>1505.5999755859375</ele>
        <time>2026-09-03T05:41:24.000Z</time>
        <extensions>
          <ns3:TrackPointExtension>
            <ns3:hr>108</ns3:hr>
            <ns3:cad>75</ns3:cad>
          </ns3:TrackPointExtension>
        </extensions>
      </trkpt>
      <trkpt lat="44.71658312715590000152587890625" lon="6.74214131198823451995849609375">
        <ele>1505.199951171875</ele>
        <time>2026-09-03T05:41:25.000Z</time>
        <extensions>
          <ns3:TrackPointExtension>
            <ns3:hr>108</ns3:hr>
            <ns3:cad>75</ns3:cad>
          </ns3:TrackPointExtension>
        </extensions>
      </trkpt>
      <trkpt lat="44.716586060822010040283203125" lon="6.7421093769371509552001953125">
        <ele>1505</ele>
        <time>2026-09-03T05:41:26.000Z</time>
        <extensions>
          <ns3:TrackPointExtension>
            <ns3:hr>108</ns3:hr>
            <ns3:cad>72</ns3:cad>
          </ns3:TrackPointExtension>
        </extensions>
      </trkpt>
      <trkpt lat="44.71657969057559967041015625" lon="6.74209118820726871490478515625">
        <ele>1504.800048828125</ele>
        <time>2026-09-03T05:41:27.000Z</time>
        <extensions>
          <ns3:TrackPointExtension>
            <ns3:hr>108</ns3:hr>
            <ns3:cad>72</ns3:cad>
          </ns3:TrackPointExtension>
        </extensions>
      </trkpt>
      <trkpt lat="44.7165724821388721466064453125" lon="6.7420855723321437835693359375">
        <ele>1504.4000244140625</ele>
        <time>2026-09-03T05:41:28.000Z</time>
        <extensions>
          <ns3:TrackPointExtension>
            <ns3:hr>108</ns3:hr>
            <ns3:cad>72</ns3:cad>
          </ns3:TrackPointExtension>
        </extensions>
      </trkpt>
      <trkpt lat="44.71656384877860546112060546875" lon="6.742082051932811737060546875">
        <ele>1504</ele>
        <time>2026-09-03T05:41:29.000Z</time>
        <extensions>
          <ns3:TrackPointExtension>
            <ns3:hr>108</ns3:hr>
            <ns3:cad>75</ns3:cad>
          </ns3:TrackPointExtension>
        </extensions>
      </trkpt>
      <trkpt lat="44.716551862657070159912109375" lon="6.7420892603695392608642578125">
        <ele>1503.800048828125</ele>
        <time>2026-09-03T05:41:30.000Z</time>
        <extensions>
          <ns3:TrackPointExtension>
            <ns3:hr>108</ns3:hr>
            <ns3:cad>75</ns3:cad>
          </ns3:TrackPointExtension>
        </extensions>
      </trkpt>
      <trkpt lat="44.7165366075932979583740234375" lon="6.7420966364443302154541015625">
        <ele>1503.4000244140625</ele>
        <time>2026-09-03T05:41:31.000Z</time>
        <extensions>
          <ns3:TrackPointExtension>
            <ns3:hr>108</ns3:hr>
            <ns3:cad>75</ns3:cad>
          </ns3:TrackPointExtension>
        </extensions>
      </trkpt>
      <trkpt lat="44.71651204861700534820556640625" lon="6.74212153069674968719482421875">
        <ele>1503</ele>
        <time>2026-09-03T05:41:32.000Z</time>
        <extensions>
          <ns3:TrackPointExtension>
            <ns3:hr>108</ns3:hr>
            <ns3:cad>72</ns3:cad>
          </ns3:TrackPointExtension>
        </extensions>
      </trkpt>
      <trkpt lat="44.716498553752899169921875" lon="6.74213125370442867279052734375">
        <ele>1502.800048828125</ele>
        <time>2026-09-03T05:41:33.000Z</time>
        <extensions>
          <ns3:TrackPointExtension>
            <ns3:hr>108</ns3:hr>
            <ns3:cad>72</ns3:cad>
          </ns3:TrackPointExtension>
        </extensions>
      </trkpt>
      <trkpt lat="44.7164930216968059539794921875" lon="6.74214449711143970489501953125">
        <ele>1502.4000244140625</ele>
        <time>2026-09-03T05:41:34.000Z</time>
        <extensions>
          <ns3:TrackPointExtension>
            <ns3:hr>107</ns3:hr>
            <ns3:cad>72</ns3:cad>
          </ns3:TrackPointExtension>
        </extensions>
      </trkpt>
      <trkpt lat="44.71648170612752437591552734375" lon="6.74215237610042095184326171875">
        <ele>1502.199951171875</ele>
        <time>2026-09-03T05:41:35.000Z</time>
        <extensions>
          <ns3:TrackPointExtension>
            <ns3:hr>106</ns3:hr>
            <ns3:cad>72</ns3:cad>
          </ns3:TrackPointExtension>
        </extensions>
      </trkpt>
      <trkpt lat="44.71647642552852630615234375" lon="6.74216394312679767608642578125">
        <ele>1502</ele>
        <time>2026-09-03T05:41:36.000Z</time>
        <extensions>
          <ns3:TrackPointExtension>
            <ns3:hr>106</ns3:hr>
            <ns3:cad>72</ns3:cad>
          </ns3:TrackPointExtension>
        </extensions>
      </trkpt>
      <trkpt lat="44.716468714177608489990234375" lon="6.74217198975384235382080078125">
        <ele>1501.800048828125</ele>
        <time>2026-09-03T05:41:37.000Z</time>
        <extensions>
          <ns3:TrackPointExtension>
            <ns3:hr>106</ns3:hr>
            <ns3:cad>72</ns3:cad>
          </ns3:TrackPointExtension>
        </extensions>
      </trkpt>
      <trkpt lat="44.71646896563470363616943359375" lon="6.7421680502593517303466796875">
        <ele>1501.5999755859375</ele>
        <time>2026-09-03T05:41:38.000Z</time>
        <extensions>
          <ns3:TrackPointExtension>
            <ns3:hr>105</ns3:hr>
            <ns3:cad>0</ns3:cad>
          </ns3:TrackPointExtension>
        </extensions>
      </trkpt>
      <trkpt lat="44.71645857207477092742919921875" lon="6.74217064864933490753173828125">
        <ele>1501.199951171875</ele>
        <time>2026-09-03T05:41:39.000Z</time>
        <extensions>
          <ns3:TrackPointExtension>
            <ns3:hr>105</ns3:hr>
            <ns3:cad>0</ns3:cad>
          </ns3:TrackPointExtension>
        </extensions>
      </trkpt>
      <trkpt lat="44.7164434008300304412841796875" lon="6.74217986874282360076904296875">
        <ele>1501</ele>
        <time>2026-09-03T05:41:40.000Z</time>
        <extensions>
          <ns3:TrackPointExtension>
            <ns3:hr>105</ns3:hr>
            <ns3:cad>0</ns3:cad>
          </ns3:TrackPointExtension>
        </extensions>
      </trkpt>
      <trkpt lat="44.71642957068979740142822265625" lon="6.742186658084392547607421875">
        <ele>1500.5999755859375</ele>
        <time>2026-09-03T05:41:41.000Z</time>
        <extensions>
          <ns3:TrackPointExtension>
            <ns3:hr>105</ns3:hr>
            <ns3:cad>0</ns3:cad>
          </ns3:TrackPointExtension>
        </extensions>
      </trkpt>
      <trkpt lat="44.7164108790457248687744140625" lon="6.742197386920452117919921875">
        <ele>1500.4000244140625</ele>
        <time>2026-09-03T05:41:42.000Z</time>
        <extensions>
          <ns3:TrackPointExtension>
            <ns3:hr>105</ns3:hr>
            <ns3:cad>0</ns3:cad>
          </ns3:TrackPointExtension>
        </extensions>
      </trkpt>
      <trkpt lat="44.71639595925807952880859375" lon="6.74221205525100231170654296875">
        <ele>1500</ele>
        <time>2026-09-03T05:41:43.000Z</time>
        <extensions>
          <ns3:TrackPointExtension>
            <ns3:hr>104</ns3:hr>
            <ns3:cad>56</ns3:cad>
          </ns3:TrackPointExtension>
        </extensions>
      </trkpt>
      <trkpt lat="44.716385900974273681640625" lon="6.74222177825868129730224609375">
        <ele>1499.800048828125</ele>
        <time>2026-09-03T05:41:44.000Z</time>
        <extensions>
          <ns3:TrackPointExtension>
            <ns3:hr>104</ns3:hr>
            <ns3:cad>60</ns3:cad>
          </ns3:TrackPointExtension>
        </extensions>
      </trkpt>
      <trkpt lat="44.7163773514330387115478515625" lon="6.7422283999621868133544921875">
        <ele>1499.4000244140625</ele>
        <time>2026-09-03T05:41:45.000Z</time>
        <extensions>
          <ns3:TrackPointExtension>
            <ns3:hr>104</ns3:hr>
            <ns3:cad>60</ns3:cad>
          </ns3:TrackPointExtension>
        </extensions>
      </trkpt>
      <trkpt lat="44.71637441776692867279052734375" lon="6.74223267473280429840087890625">
        <ele>1499.199951171875</ele>
        <time>2026-09-03T05:41:46.000Z</time>
        <extensions>
          <ns3:TrackPointExtension>
            <ns3:hr>104</ns3:hr>
            <ns3:cad>79</ns3:cad>
          </ns3:TrackPointExtension>
        </extensions>
      </trkpt>
      <trkpt lat="44.71636821515858173370361328125" lon="6.7422421462833881378173828125">
        <ele>1498.800048828125</ele>
        <time>2026-09-03T05:41:47.000Z</time>
        <extensions>
          <ns3:TrackPointExtension>
            <ns3:hr>104</ns3:hr>
            <ns3:cad>79</ns3:cad>
          </ns3:TrackPointExtension>
        </extensions>
      </trkpt>
      <trkpt lat="44.7163656167685985565185546875" lon="6.7422478459775447845458984375">
        <ele>1498.5999755859375</ele>
        <time>2026-09-03T05:41:48.000Z</time>
        <extensions>
          <ns3:TrackPointExtension>
            <ns3:hr>104</ns3:hr>
            <ns3:cad>79</ns3:cad>
          </ns3:TrackPointExtension>
        </extensions>
      </trkpt>
      <trkpt lat="44.716355390846729278564453125" lon="6.74225798808038234710693359375">
        <ele>1498.4000244140625</ele>
        <time>2026-09-03T05:41:49.000Z</time>
        <extensions>
          <ns3:TrackPointExtension>
            <ns3:hr>104</ns3:hr>
            <ns3:cad>79</ns3:cad>
          </ns3:TrackPointExtension>
        </extensions>
      </trkpt>
      <trkpt lat="44.7163408063352108001708984375" lon="6.74226419068872928619384765625">
        <ele>1498.199951171875</ele>
        <time>2026-09-03T05:41:50.000Z</time>
        <extensions>
          <ns3:TrackPointExtension>
            <ns3:hr>104</ns3:hr>
            <ns3:cad>79</ns3:cad>
          </ns3:TrackPointExtension>
        </extensions>
      </trkpt>
      <trkpt lat="44.7163362801074981689453125" lon="6.74227156676352024078369140625">
        <ele>1497.800048828125</ele>
        <time>2026-09-03T05:41:51.000Z</time>
        <extensions>
          <ns3:TrackPointExtension>
            <ns3:hr>103</ns3:hr>
            <ns3:cad>79</ns3:cad>
          </ns3:TrackPointExtension>
        </extensions>
      </trkpt>
      <trkpt lat="44.7163260541856288909912109375" lon="6.7422850616276264190673828125">
        <ele>1497.4000244140625</ele>
        <time>2026-09-03T05:41:52.000Z</time>
        <extensions>
          <ns3:TrackPointExtension>
            <ns3:hr>103</ns3:hr>
            <ns3:cad>79</ns3:cad>
          </ns3:TrackPointExtension>
        </extensions>
      </trkpt>
      <trkpt lat="44.71631348133087158203125" lon="6.7423014901578426361083984375">
        <ele>1497</ele>
        <time>2026-09-03T05:41:53.000Z</time>
        <extensions>
          <ns3:TrackPointExtension>
            <ns3:hr>103</ns3:hr>
            <ns3:cad>79</ns3:cad>
          </ns3:TrackPointExtension>
        </extensions>
      </trkpt>
      <trkpt lat="44.71630250103771686553955078125" lon="6.74230836331844329833984375">
        <ele>1496.4000244140625</ele>
        <time>2026-09-03T05:41:54.000Z</time>
        <extensions>
          <ns3:TrackPointExtension>
            <ns3:hr>103</ns3:hr>
            <ns3:cad>74</ns3:cad>
          </ns3:TrackPointExtension>
        </extensions>
      </trkpt>
      <trkpt lat="44.7162962146103382110595703125" lon="6.7423182539641857147216796875">
        <ele>1496</ele>
        <time>2026-09-03T05:41:55.000Z</time>
        <extensions>
          <ns3:TrackPointExtension>
            <ns3:hr>103</ns3:hr>
            <ns3:cad>0</ns3:cad>
          </ns3:TrackPointExtension>
        </extensions>
      </trkpt>
      <trkpt lat="44.7162854857742786407470703125" lon="6.74233191646635532379150390625">
        <ele>1495.800048828125</ele>
        <time>2026-09-03T05:41:56.000Z</time>
        <extensions>
          <ns3:TrackPointExtension>
            <ns3:hr>102</ns3:hr>
            <ns3:cad>0</ns3:cad>
          </ns3:TrackPointExtension>
        </extensions>
      </trkpt>
      <trkpt lat="44.7162764333188533782958984375" lon="6.74234046600759029388427734375">
        <ele>1495.4000244140625</ele>
        <time>2026-09-03T05:41:57.000Z</time>
        <extensions>
          <ns3:TrackPointExtension>
            <ns3:hr>102</ns3:hr>
            <ns3:cad>40</ns3:cad>
          </ns3:TrackPointExtension>
        </extensions>
      </trkpt>
      <trkpt lat="44.71626721322536468505859375" lon="6.742345578968524932861328125">
        <ele>1495</ele>
        <time>2026-09-03T05:41:58.000Z</time>
        <extensions>
          <ns3:TrackPointExtension>
            <ns3:hr>102</ns3:hr>
            <ns3:cad>40</ns3:cad>
          </ns3:TrackPointExtension>
        </extensions>
      </trkpt>
      <trkpt lat="44.7162589989602565765380859375" lon="6.74235957674682140350341796875">
        <ele>1494.5999755859375</ele>
        <time>2026-09-03T05:41:59.000Z</time>
        <extensions>
          <ns3:TrackPointExtension>
            <ns3:hr>102</ns3:hr>
            <ns3:cad>71</ns3:cad>
          </ns3:TrackPointExtension>
        </extensions>
      </trkpt>
      <trkpt lat="44.71625455655157566070556640625" lon="6.7423720657825469970703125">
        <ele>1494.4000244140625</ele>
        <time>2026-09-03T05:42:00.000Z</time>
        <extensions>
          <ns3:TrackPointExtension>
            <ns3:hr>102</ns3:hr>
            <ns3:cad>71</ns3:cad>
          </ns3:TrackPointExtension>
        </extensions>
      </trkpt>
      <trkpt lat="44.71624332480132579803466796875" lon="6.74238522537052631378173828125">
        <ele>1494</ele>
        <time>2026-09-03T05:42:01.000Z</time>
        <extensions>
          <ns3:TrackPointExtension>
            <ns3:hr>103</ns3:hr>
            <ns3:cad>70</ns3:cad>
          </ns3:TrackPointExtension>
        </extensions>
      </trkpt>
      <trkpt lat="44.7162341885268688201904296875" lon="6.74239712767302989959716796875">
        <ele>1493.800048828125</ele>
        <time>2026-09-03T05:42:02.000Z</time>
        <extensions>
          <ns3:TrackPointExtension>
            <ns3:hr>102</ns3:hr>
            <ns3:cad>70</ns3:cad>
          </ns3:TrackPointExtension>
        </extensions>
      </trkpt>
      <trkpt lat="44.7162227891385555267333984375" lon="6.74241305328905582427978515625">
        <ele>1493.4000244140625</ele>
        <time>2026-09-03T05:42:03.000Z</time>
        <extensions>
          <ns3:TrackPointExtension>
            <ns3:hr>102</ns3:hr>
            <ns3:cad>70</ns3:cad>
          </ns3:TrackPointExtension>
        </extensions>
      </trkpt>
      <trkpt lat="44.7162093780934810638427734375" lon="6.7424392886459827423095703125">
        <ele>1493.199951171875</ele>
        <time>2026-09-03T05:42:04.000Z</time>
        <extensions>
          <ns3:TrackPointExtension>
            <ns3:hr>102</ns3:hr>
            <ns3:cad>70</ns3:cad>
          </ns3:TrackPointExtension>
        </extensions>
      </trkpt>
      <trkpt lat="44.71620108000934123992919921875" lon="6.7424540407955646514892578125">
        <ele>1492.800048828125</ele>
        <time>2026-09-03T05:42:05.000Z</time>
        <extensions>
          <ns3:TrackPointExtension>
            <ns3:hr>103</ns3:hr>
            <ns3:cad>0</ns3:cad>
          </ns3:TrackPointExtension>
        </extensions>
      </trkpt>
      <trkpt lat="44.7161966376006603240966796875" lon="6.74247122369706630706787109375">
        <ele>1492.4000244140625</ele>
        <time>2026-09-03T05:42:06.000Z</time>
        <extensions>
          <ns3:TrackPointExtension>
            <ns3:hr>102</ns3:hr>
            <ns3:cad>0</ns3:cad>
          </ns3:TrackPointExtension>
        </extensions>
      </trkpt>
      <trkpt lat="44.7161909379065036773681640625" lon="6.74248882569372653961181640625">
        <ele>1492.199951171875</ele>
        <time>2026-09-03T05:42:07.000Z</time>
        <extensions>
          <ns3:TrackPointExtension>
            <ns3:hr>102</ns3:hr>
            <ns3:cad>0</ns3:cad>
          </ns3:TrackPointExtension>
        </extensions>
      </trkpt>
      <trkpt lat="44.71618783660233020782470703125" lon="6.742501147091388702392578125">
        <ele>1492</ele>
        <time>2026-09-03T05:42:08.000Z</time>
        <extensions>
          <ns3:TrackPointExtension>
            <ns3:hr>102</ns3:hr>
            <ns3:cad>0</ns3:cad>
          </ns3:TrackPointExtension>
        </extensions>
      </trkpt>
      <trkpt lat="44.716181047260761260986328125" lon="6.74251832999289035797119140625">
        <ele>1491.5999755859375</ele>
        <time>2026-09-03T05:42:09.000Z</time>
        <extensions>
          <ns3:TrackPointExtension>
            <ns3:hr>102</ns3:hr>
            <ns3:cad>0</ns3:cad>
          </ns3:TrackPointExtension>
        </extensions>
      </trkpt>
      <trkpt lat="44.71617199480533599853515625" lon="6.742533333599567413330078125">
        <ele>1491.4000244140625</ele>
        <time>2026-09-03T05:42:10.000Z</time>
        <extensions>
          <ns3:TrackPointExtension>
            <ns3:hr>101</ns3:hr>
            <ns3:cad>64</ns3:cad>
          </ns3:TrackPointExtension>
        </extensions>
      </trkpt>
      <trkpt lat="44.7161634452641010284423828125" lon="6.7425428889691829681396484375">
        <ele>1491</ele>
        <time>2026-09-03T05:42:11.000Z</time>
        <extensions>
          <ns3:TrackPointExtension>
            <ns3:hr>101</ns3:hr>
            <ns3:cad>64</ns3:cad>
          </ns3:TrackPointExtension>
        </extensions>
      </trkpt>
      <trkpt lat="44.716159589588642120361328125" lon="6.742546074092388153076171875">
        <ele>1490.800048828125</ele>
        <time>2026-09-03T05:42:12.000Z</time>
        <extensions>
          <ns3:TrackPointExtension>
            <ns3:hr>101</ns3:hr>
            <ns3:cad>64</ns3:cad>
          </ns3:TrackPointExtension>
        </extensions>
      </trkpt>
      <trkpt lat="44.7161565721035003662109375" lon="6.74254900775849819183349609375">
        <ele>1490.4000244140625</ele>
        <time>2026-09-03T05:42:13.000Z</time>
        <extensions>
          <ns3:TrackPointExtension>
            <ns3:hr>101</ns3:hr>
            <ns3:cad>67</ns3:cad>
          </ns3:TrackPointExtension>
        </extensions>
      </trkpt>
      <trkpt lat="44.71614559181034564971923828125" lon="6.74256007187068462371826171875">
        <ele>1490.199951171875</ele>
        <time>2026-09-03T05:42:14.000Z</time>
        <extensions>
          <ns3:TrackPointExtension>
            <ns3:hr>100</ns3:hr>
            <ns3:cad>67</ns3:cad>
          </ns3:TrackPointExtension>
        </extensions>
      </trkpt>
      <trkpt lat="44.7161366231739521026611328125" lon="6.742568872869014739990234375">
        <ele>1489.800048828125</ele>
        <time>2026-09-03T05:42:15.000Z</time>
        <extensions>
          <ns3:TrackPointExtension>
            <ns3:hr>100</ns3:hr>
            <ns3:cad>67</ns3:cad>
          </ns3:TrackPointExtension>
        </extensions>
      </trkpt>
      <trkpt lat="44.71612731926143169403076171875" lon="6.74257884733378887176513671875">
        <ele>1489.5999755859375</ele>
        <time>2026-09-03T05:42:16.000Z</time>
        <extensions>
          <ns3:TrackPointExtension>
            <ns3:hr>100</ns3:hr>
            <ns3:cad>67</ns3:cad>
          </ns3:TrackPointExtension>
        </extensions>
      </trkpt>
      <trkpt lat="44.716117680072784423828125" lon="6.74258789978921413421630859375">
        <ele>1489.199951171875</ele>
        <time>2026-09-03T05:42:17.000Z</time>
        <extensions>
          <ns3:TrackPointExtension>
            <ns3:hr>100</ns3:hr>
            <ns3:cad>67</ns3:cad>
          </ns3:TrackPointExtension>
        </extensions>
      </trkpt>
      <trkpt lat="44.7161077894270420074462890625" lon="6.742593012750148773193359375">
        <ele>1489</ele>
        <time>2026-09-03T05:42:18.000Z</time>
        <extensions>
          <ns3:TrackPointExtension>
            <ns3:hr>100</ns3:hr>
            <ns3:cad>67</ns3:cad>
          </ns3:TrackPointExtension>
        </extensions>
      </trkpt>
      <trkpt lat="44.7161020897328853607177734375" lon="6.74259846098721027374267578125">
        <ele>1488.5999755859375</ele>
        <time>2026-09-03T05:42:19.000Z</time>
        <extensions>
          <ns3:TrackPointExtension>
            <ns3:hr>99</ns3:hr>
            <ns3:cad>67</ns3:cad>
          </ns3:TrackPointExtension>
        </extensions>
      </trkpt>
      <trkpt lat="44.71609312109649181365966796875" lon="6.74260918982326984405517578125">
        <ele>1488.4000244140625</ele>
        <time>2026-09-03T05:42:20.000Z</time>
        <extensions>
          <ns3:TrackPointExtension>
            <ns3:hr>99</ns3:hr>
            <ns3:cad>67</ns3:cad>
          </ns3:TrackPointExtension>
        </extensions>
      </trkpt>
      <trkpt lat="44.7160814702510833740234375" lon="6.7426210083067417144775390625">
        <ele>1488</ele>
        <time>2026-09-03T05:42:21.000Z</time>
        <extensions>
          <ns3:TrackPointExtension>
            <ns3:hr>99</ns3:hr>
            <ns3:cad>67</ns3:cad>
          </ns3:TrackPointExtension>
        </extensions>
      </trkpt>
      <trkpt lat="44.71606713719666004180908203125" lon="6.74263450317084789276123046875">
        <ele>1487.800048828125</ele>
        <time>2026-09-03T05:42:22.000Z</time>
        <extensions>
          <ns3:TrackPointExtension>
            <ns3:hr>98</ns3:hr>
            <ns3:cad>67</ns3:cad>
          </ns3:TrackPointExtension>
        </extensions>
      </trkpt>
      <trkpt lat="44.716055653989315032958984375" lon="6.74264975823462009429931640625">
        <ele>1487.4000244140625</ele>
        <time>2026-09-03T05:42:23.000Z</time>
        <extensions>
          <ns3:TrackPointExtension>
            <ns3:hr>98</ns3:hr>
            <ns3:cad>67</ns3:cad>
          </ns3:TrackPointExtension>
        </extensions>
      </trkpt>
      <trkpt lat="44.7160450927913188934326171875" lon="6.7426669411361217498779296875">
        <ele>1487.199951171875</ele>
        <time>2026-09-03T05:42:24.000Z</time>
        <extensions>
          <ns3:TrackPointExtension>
            <ns3:hr>98</ns3:hr>
            <ns3:cad>67</ns3:cad>
          </ns3:TrackPointExtension>
        </extensions>
      </trkpt>
      <trkpt lat="44.71603428013622760772705078125" lon="6.742676161229610443115234375">
        <ele>1486.800048828125</ele>
        <time>2026-09-03T05:42:25.000Z</time>
        <extensions>
          <ns3:TrackPointExtension>
            <ns3:hr>98</ns3:hr>
            <ns3:cad>67</ns3:cad>
          </ns3:TrackPointExtension>
        </extensions>
      </trkpt>
      <trkpt lat="44.7160232998430728912353515625" lon="6.74268387258052825927734375">
        <ele>1486.5999755859375</ele>
        <time>2026-09-03T05:42:26.000Z</time>
        <extensions>
          <ns3:TrackPointExtension>
            <ns3:hr>98</ns3:hr>
            <ns3:cad>67</ns3:cad>
          </ns3:TrackPointExtension>
        </extensions>
      </trkpt>
      <trkpt lat="44.71601567231118679046630859375" lon="6.74268730916082859039306640625">
        <ele>1486.199951171875</ele>
        <time>2026-09-03T05:42:27.000Z</time>
        <extensions>
          <ns3:TrackPointExtension>
            <ns3:hr>97</ns3:hr>
            <ns3:cad>67</ns3:cad>
          </ns3:TrackPointExtension>
        </extensions>
      </trkpt>
      <trkpt lat="44.716005362570285797119140625" lon="6.74269552342593669891357421875">
        <ele>1485.800048828125</ele>
        <time>2026-09-03T05:42:28.000Z</time>
        <extensions>
          <ns3:TrackPointExtension>
            <ns3:hr>98</ns3:hr>
            <ns3:cad>67</ns3:cad>
          </ns3:TrackPointExtension>
        </extensions>
      </trkpt>
      <trkpt lat="44.71599228680133819580078125" lon="6.7427088506519794464111328125">
        <ele>1485.4000244140625</ele>
        <time>2026-09-03T05:42:29.000Z</time>
        <extensions>
          <ns3:TrackPointExtension>
            <ns3:hr>98</ns3:hr>
            <ns3:cad>66</ns3:cad>
          </ns3:TrackPointExtension>
        </extensions>
      </trkpt>
      <trkpt lat="44.71597594209015369415283203125" lon="6.742723770439624786376953125">
        <ele>1485.199951171875</ele>
        <time>2026-09-03T05:42:30.000Z</time>
        <extensions>
          <ns3:TrackPointExtension>
            <ns3:hr>98</ns3:hr>
            <ns3:cad>66</ns3:cad>
          </ns3:TrackPointExtension>
        </extensions>
      </trkpt>
      <trkpt lat="44.71596219576895236968994140625" lon="6.7427343316376209259033203125">
        <ele>1484.800048828125</ele>
        <time>2026-09-03T05:42:31.000Z</time>
        <extensions>
          <ns3:TrackPointExtension>
            <ns3:hr>97</ns3:hr>
            <ns3:cad>66</ns3:cad>
          </ns3:TrackPointExtension>
        </extensions>
      </trkpt>
      <trkpt lat="44.7159500420093536376953125" lon="6.74274296499788761138916015625">
        <ele>1484.4000244140625</ele>
        <time>2026-09-03T05:42:32.000Z</time>
        <extensions>
          <ns3:TrackPointExtension>
            <ns3:hr>97</ns3:hr>
            <ns3:cad>66</ns3:cad>
          </ns3:TrackPointExtension>
        </extensions>
      </trkpt>
      <trkpt lat="44.7159394808113574981689453125" lon="6.742754615843296051025390625">
        <ele>1484.199951171875</ele>
        <time>2026-09-03T05:42:33.000Z</time>
        <extensions>
          <ns3:TrackPointExtension>
            <ns3:hr>97</ns3:hr>
            <ns3:cad>68</ns3:cad>
          </ns3:TrackPointExtension>
        </extensions>
      </trkpt>
      <trkpt lat="44.715929925441741943359375" lon="6.74276526086032390594482421875">
        <ele>1483.800048828125</ele>
        <time>2026-09-03T05:42:34.000Z</time>
        <extensions>
          <ns3:TrackPointExtension>
            <ns3:hr>97</ns3:hr>
            <ns3:cad>68</ns3:cad>
          </ns3:TrackPointExtension>
        </extensions>
      </trkpt>
      <trkpt lat="44.71591643057763576507568359375" lon="6.74278043210506439208984375">
        <ele>1483.5999755859375</ele>
        <time>2026-09-03T05:42:35.000Z</time>
        <extensions>
          <ns3:TrackPointExtension>
            <ns3:hr>96</ns3:hr>
            <ns3:cad>0</ns3:cad>
          </ns3:TrackPointExtension>
        </extensions>
      </trkpt>
      <trkpt lat="44.71590871922671794891357421875" lon="6.7427946813404560089111328125">
        <ele>1483.199951171875</ele>
        <time>2026-09-03T05:42:36.000Z</time>
        <extensions>
          <ns3:TrackPointExtension>
            <ns3:hr>96</ns3:hr>
            <ns3:cad>0</ns3:cad>
          </ns3:TrackPointExtension>
        </extensions>
      </trkpt>
      <trkpt lat="44.7159049473702907562255859375" lon="6.74280968494713306427001953125">
        <ele>1482.800048828125</ele>
        <time>2026-09-03T05:42:37.000Z</time>
        <extensions>
          <ns3:TrackPointExtension>
            <ns3:hr>96</ns3:hr>
            <ns3:cad>0</ns3:cad>
          </ns3:TrackPointExtension>
        </extensions>
      </trkpt>
      <trkpt lat="44.715905450284481048583984375" lon="6.7428265325725078582763671875">
        <ele>1482.5999755859375</ele>
        <time>2026-09-03T05:42:38.000Z</time>
        <extensions>
          <ns3:TrackPointExtension>
            <ns3:hr>96</ns3:hr>
            <ns3:cad>0</ns3:cad>
          </ns3:TrackPointExtension>
        </extensions>
      </trkpt>
      <trkpt lat="44.7159103117883205413818359375" lon="6.7428463138639926910400390625">
        <ele>1482.199951171875</ele>
        <time>2026-09-03T05:42:39.000Z</time>
        <extensions>
          <ns3:TrackPointExtension>
            <ns3:hr>96</ns3:hr>
            <ns3:cad>0</ns3:cad>
          </ns3:TrackPointExtension>
        </extensions>
      </trkpt>
      <trkpt lat="44.715921543538570404052734375" lon="6.74286986701190471649169921875">
        <ele>1482</ele>
        <time>2026-09-03T05:42:40.000Z</time>
        <extensions>
          <ns3:TrackPointExtension>
            <ns3:hr>97</ns3:hr>
            <ns3:cad>0</ns3:cad>
          </ns3:TrackPointExtension>
        </extensions>
      </trkpt>
      <trkpt lat="44.7159381397068500518798828125" lon="6.74288227222859859466552734375">
        <ele>1481.5999755859375</ele>
        <time>2026-09-03T05:42:41.000Z</time>
        <extensions>
          <ns3:TrackPointExtension>
            <ns3:hr>96</ns3:hr>
            <ns3:cad>0</ns3:cad>
          </ns3:TrackPointExtension>
        </extensions>
      </trkpt>
      <trkpt lat="44.71595582552254199981689453125" lon="6.7428959347307682037353515625">
        <ele>1481.4000244140625</ele>
        <time>2026-09-03T05:42:42.000Z</time>
        <extensions>
          <ns3:TrackPointExtension>
            <ns3:hr>96</ns3:hr>
            <ns3:cad>67</ns3:cad>
          </ns3:TrackPointExtension>
        </extensions>
      </trkpt>
      <trkpt lat="44.71596722491085529327392578125" lon="6.7429093457758426666259765625">
        <ele>1481.199951171875</ele>
        <time>2026-09-03T05:42:43.000Z</time>
        <extensions>
          <ns3:TrackPointExtension>
            <ns3:hr>96</ns3:hr>
            <ns3:cad>67</ns3:cad>
          </ns3:TrackPointExtension>
        </extensions>
      </trkpt>
      <trkpt lat="44.7159773670136928558349609375" lon="6.74291328527033329010009765625">
        <ele>1480.800048828125</ele>
        <time>2026-09-03T05:42:44.000Z</time>
        <extensions>
          <ns3:TrackPointExtension>
            <ns3:hr>96</ns3:hr>
            <ns3:cad>67</ns3:cad>
          </ns3:TrackPointExtension>
        </extensions>
      </trkpt>
      <trkpt lat="44.71599119715392589569091796875" lon="6.74291747622191905975341796875">
        <ele>1480.5999755859375</ele>
        <time>2026-09-03T05:42:45.000Z</time>
        <extensions>
          <ns3:TrackPointExtension>
            <ns3:hr>96</ns3:hr>
            <ns3:cad>67</ns3:cad>
          </ns3:TrackPointExtension>
        </extensions>
      </trkpt>
      <trkpt lat="44.71600058488547801971435546875" lon="6.742918901145458221435546875">
        <ele>1480.199951171875</ele>
        <time>2026-09-03T05:42:46.000Z</time>
        <extensions>
          <ns3:TrackPointExtension>
            <ns3:hr>96</ns3:hr>
            <ns3:cad>60</ns3:cad>
          </ns3:TrackPointExtension>
        </extensions>
      </trkpt>
      <trkpt lat="44.71601969562470912933349609375" lon="6.74292468465864658355712890625">
        <ele>1480</ele>
        <time>2026-09-03T05:42:47.000Z</time>
        <extensions>
          <ns3:TrackPointExtension>
            <ns3:hr>97</ns3:hr>
            <ns3:cad>60</ns3:cad>
          </ns3:TrackPointExtension>
        </extensions>
      </trkpt>
      <trkpt lat="44.7160340286791324615478515625" lon="6.74293725751340389251708984375">
        <ele>1479.800048828125</ele>
        <time>2026-09-03T05:42:48.000Z</time>
        <extensions>
          <ns3:TrackPointExtension>
            <ns3:hr>97</ns3:hr>
            <ns3:cad>62</ns3:cad>
          </ns3:TrackPointExtension>
        </extensions>
      </trkpt>
      <trkpt lat="44.71604417078197002410888671875" lon="6.7429536022245883941650390625">
        <ele>1479.5999755859375</ele>
        <time>2026-09-03T05:42:49.000Z</time>
        <extensions>
          <ns3:TrackPointExtension>
            <ns3:hr>97</ns3:hr>
            <ns3:cad>62</ns3:cad>
          </ns3:TrackPointExtension>
        </extensions>
      </trkpt>
      <trkpt lat="44.716056324541568756103515625" lon="6.7429743893444538116455078125">
        <ele>1479.4000244140625</ele>
        <time>2026-09-03T05:42:50.000Z</time>
        <extensions>
          <ns3:TrackPointExtension>
            <ns3:hr>97</ns3:hr>
            <ns3:cad>62</ns3:cad>
          </ns3:TrackPointExtension>
        </extensions>
      </trkpt>
      <trkpt lat="44.71607501618564128875732421875" lon="6.7430045641958713531494140625">
        <ele>1479</ele>
        <time>2026-09-03T05:42:51.000Z</time>
        <extensions>
          <ns3:TrackPointExtension>
            <ns3:hr>96</ns3:hr>
            <ns3:cad>62</ns3:cad>
          </ns3:TrackPointExtension>
        </extensions>
      </trkpt>
      <trkpt lat="44.7160883434116840362548828125" lon="6.7430280335247516632080078125">
        <ele>1478.5999755859375</ele>
        <time>2026-09-03T05:42:52.000Z</time>
        <extensions>
          <ns3:TrackPointExtension>
            <ns3:hr>97</ns3:hr>
            <ns3:cad>62</ns3:cad>
          </ns3:TrackPointExtension>
        </extensions>
      </trkpt>
      <trkpt lat="44.71610737033188343048095703125" lon="6.74305426888167858123779296875">
        <ele>1478.4000244140625</ele>
        <time>2026-09-03T05:42:53.000Z</time>
        <extensions>
          <ns3:TrackPointExtension>
            <ns3:hr>97</ns3:hr>
            <ns3:cad>62</ns3:cad>
          </ns3:TrackPointExtension>
        </extensions>
      </trkpt>
      <trkpt lat="44.71612581051886081695556640625" lon="6.74307706765830516815185546875">
        <ele>1478</ele>
        <time>2026-09-03T05:42:54.000Z</time>
        <extensions>
          <ns3:TrackPointExtension>
            <ns3:hr>96</ns3:hr>
            <ns3:cad>81</ns3:cad>
          </ns3:TrackPointExtension>
        </extensions>
      </trkpt>
      <trkpt lat="44.716142155230045318603515625" lon="6.7430987767875194549560546875">
        <ele>1477.800048828125</ele>
        <time>2026-09-03T05:42:55.000Z</time>
        <extensions>
          <ns3:TrackPointExtension>
            <ns3:hr>97</ns3:hr>
            <ns3:cad>83</ns3:cad>
          </ns3:TrackPointExtension>
        </extensions>
      </trkpt>
      <trkpt lat="44.7161631099879741668701171875" lon="6.7431339807808399200439453125">
        <ele>1477.800048828125</ele>
        <time>2026-09-03T05:42:56.000Z</time>
        <extensions>
          <ns3:TrackPointExtension>
            <ns3:hr>97</ns3:hr>
            <ns3:cad>83</ns3:cad>
          </ns3:TrackPointExtension>
        </extensions>
      </trkpt>
      <trkpt lat="44.71616528928279876708984375" lon="6.74316692166030406951904296875">
        <ele>1477.5999755859375</ele>
        <time>2026-09-03T05:42:57.000Z</time>
        <extensions>
          <ns3:TrackPointExtension>
            <ns3:hr>97</ns3:hr>
            <ns3:cad>83</ns3:cad>
          </ns3:TrackPointExtension>
        </extensions>
      </trkpt>
      <trkpt lat="44.716176353394985198974609375" lon="6.74318812787532806396484375">
        <ele>1477.4000244140625</ele>
        <time>2026-09-03T05:42:58.000Z</time>
        <extensions>
          <ns3:TrackPointExtension>
            <ns3:hr>98</ns3:hr>
            <ns3:cad>83</ns3:cad>
          </ns3:TrackPointExtension>
        </extensions>
      </trkpt>
      <trkpt lat="44.71618683077394962310791015625" lon="6.7432181350886821746826171875">
        <ele>1477.4000244140625</ele>
        <time>2026-09-03T05:42:59.000Z</time>
        <extensions>
          <ns3:TrackPointExtension>
            <ns3:hr>98</ns3:hr>
            <ns3:cad>83</ns3:cad>
          </ns3:TrackPointExtension>
        </extensions>
      </trkpt>
      <trkpt lat="44.71618548966944217681884765625" lon="6.74324051477015018463134765625">
        <ele>1477</ele>
        <time>2026-09-03T05:43:00.000Z</time>
        <extensions>
          <ns3:TrackPointExtension>
            <ns3:hr>99</ns3:hr>
            <ns3:cad>83</ns3:cad>
          </ns3:TrackPointExtension>
        </extensions>
      </trkpt>
      <trkpt lat="44.71619437448680400848388671875" lon="6.743280999362468719482421875">
        <ele>1476.800048828125</ele>
        <time>2026-09-03T05:43:01.000Z</time>
        <extensions>
          <ns3:TrackPointExtension>
            <ns3:hr>100</ns3:hr>
            <ns3:cad>83</ns3:cad>
          </ns3:TrackPointExtension>
        </extensions>
      </trkpt>
      <trkpt lat="44.7161959670484066009521484375" lon="6.7433136887848377227783203125">
        <ele>1476.5999755859375</ele>
        <time>2026-09-03T05:43:02.000Z</time>
        <extensions>
          <ns3:TrackPointExtension>
            <ns3:hr>101</ns3:hr>
            <ns3:cad>82</ns3:cad>
          </ns3:TrackPointExtension>
        </extensions>
      </trkpt>
      <trkpt lat="44.71619554795324802398681640625" lon="6.7433354817330837249755859375">
        <ele>1476.5999755859375</ele>
        <time>2026-09-03T05:43:03.000Z</time>
        <extensions>
          <ns3:TrackPointExtension>
            <ns3:hr>101</ns3:hr>
            <ns3:cad>83</ns3:cad>
          </ns3:TrackPointExtension>
        </extensions>
      </trkpt>
      <trkpt lat="44.71619923599064350128173828125" lon="6.74336456693708896636962890625">
        <ele>1476.5999755859375</ele>
        <time>2026-09-03T05:43:04.000Z</time>
        <extensions>
          <ns3:TrackPointExtension>
            <ns3:hr>102</ns3:hr>
            <ns3:cad>83</ns3:cad>
          </ns3:TrackPointExtension>
        </extensions>
      </trkpt>
      <trkpt lat="44.71619772724807262420654296875" lon="6.74339172430336475372314453125">
        <ele>1476.5999755859375</ele>
        <time>2026-09-03T05:43:05.000Z</time>
        <extensions>
          <ns3:TrackPointExtension>
            <ns3:hr>103</ns3:hr>
            <ns3:cad>84</ns3:cad>
          </ns3:TrackPointExtension>
        </extensions>
      </trkpt>
      <trkpt lat="44.71619806252419948577880859375" lon="6.74342273734509944915771484375">
        <ele>1476.4000244140625</ele>
        <time>2026-09-03T05:43:06.000Z</time>
        <extensions>
          <ns3:TrackPointExtension>
            <ns3:hr>104</ns3:hr>
            <ns3:cad>85</ns3:cad>
          </ns3:TrackPointExtension>
        </extensions>
      </trkpt>
      <trkpt lat="44.71620577387511730194091796875" lon="6.74345442093908786773681640625">
        <ele>1476.4000244140625</ele>
        <time>2026-09-03T05:43:07.000Z</time>
        <extensions>
          <ns3:TrackPointExtension>
            <ns3:hr>104</ns3:hr>
            <ns3:cad>85</ns3:cad>
          </ns3:TrackPointExtension>
        </extensions>
      </trkpt>
      <trkpt lat="44.716213904321193695068359375" lon="6.7434771358966827392578125">
        <ele>1476.4000244140625</ele>
        <time>2026-09-03T05:43:08.000Z</time>
        <extensions>
          <ns3:TrackPointExtension>
            <ns3:hr>105</ns3:hr>
            <ns3:cad>85</ns3:cad>
          </ns3:TrackPointExtension>
        </extensions>
      </trkpt>
      <trkpt lat="44.716213233768939971923828125" lon="6.74349599517881870269775390625">
        <ele>1476.199951171875</ele>
        <time>2026-09-03T05:43:09.000Z</time>
        <extensions>
          <ns3:TrackPointExtension>
            <ns3:hr>105</ns3:hr>
            <ns3:cad>83</ns3:cad>
          </ns3:TrackPointExtension>
        </extensions>
      </trkpt>
      <trkpt lat="44.71620895899832248687744140625" lon="6.7435151897370815277099609375">
        <ele>1476</ele>
        <time>2026-09-03T05:43:10.000Z</time>
        <extensions>
          <ns3:TrackPointExtension>
            <ns3:hr>106</ns3:hr>
            <ns3:cad>82</ns3:cad>
          </ns3:TrackPointExtension>
        </extensions>
      </trkpt>
      <trkpt lat="44.71619957126677036285400390625" lon="6.74352985806763172149658203125">
        <ele>1475.800048828125</ele>
        <time>2026-09-03T05:43:11.000Z</time>
        <extensions>
          <ns3:TrackPointExtension>
            <ns3:hr>106</ns3:hr>
            <ns3:cad>82</ns3:cad>
          </ns3:TrackPointExtension>
        </extensions>
      </trkpt>
      <trkpt lat="44.7162006609141826629638671875" lon="6.74353287555277347564697265625">
        <ele>1475.4000244140625</ele>
        <time>2026-09-03T05:43:12.000Z</time>
        <extensions>
          <ns3:TrackPointExtension>
            <ns3:hr>107</ns3:hr>
            <ns3:cad>82</ns3:cad>
          </ns3:TrackPointExtension>
        </extensions>
      </trkpt>
      <trkpt lat="44.7161952964961528778076171875" lon="6.7435400001704692840576171875">
        <ele>1475.199951171875</ele>
        <time>2026-09-03T05:43:13.000Z</time>
        <extensions>
          <ns3:TrackPointExtension>
            <ns3:hr>107</ns3:hr>
            <ns3:cad>75</ns3:cad>
          </ns3:TrackPointExtension>
        </extensions>
      </trkpt>
      <trkpt lat="44.71619118936359882354736328125" lon="6.743550561368465423583984375">
        <ele>1475</ele>
        <time>2026-09-03T05:43:14.000Z</time>
        <extensions>
          <ns3:TrackPointExtension>
            <ns3:hr>107</ns3:hr>
            <ns3:cad>75</ns3:cad>
          </ns3:TrackPointExtension>
        </extensions>
      </trkpt>
      <trkpt lat="44.716183729469776153564453125" lon="6.743568666279315948486328125">
        <ele>1474.800048828125</ele>
        <time>2026-09-03T05:43:15.000Z</time>
        <extensions>
          <ns3:TrackPointExtension>
            <ns3:hr>108</ns3:hr>
            <ns3:cad>67</ns3:cad>
          </ns3:TrackPointExtension>
        </extensions>
      </trkpt>
      <trkpt lat="44.71617140807211399078369140625" lon="6.7435829155147075653076171875">
        <ele>1474.5999755859375</ele>
        <time>2026-09-03T05:43:16.000Z</time>
        <extensions>
          <ns3:TrackPointExtension>
            <ns3:hr>107</ns3:hr>
            <ns3:cad>67</ns3:cad>
          </ns3:TrackPointExtension>
        </extensions>
      </trkpt>
      <trkpt lat="44.716154895722866058349609375" lon="6.7436005175113677978515625">
        <ele>1474.4000244140625</ele>
        <time>2026-09-03T05:43:17.000Z</time>
        <extensions>
          <ns3:TrackPointExtension>
            <ns3:hr>107</ns3:hr>
            <ns3:cad>67</ns3:cad>
          </ns3:TrackPointExtension>
        </extensions>
      </trkpt>
      <trkpt lat="44.71614860929548740386962890625" lon="6.743616275489330291748046875">
        <ele>1474</ele>
        <time>2026-09-03T05:43:18.000Z</time>
        <extensions>
          <ns3:TrackPointExtension>
            <ns3:hr>107</ns3:hr>
            <ns3:cad>70</ns3:cad>
          </ns3:TrackPointExtension>
        </extensions>
      </trkpt>
      <trkpt lat="44.71614743582904338836669921875" lon="6.74363203346729278564453125">
        <ele>1473.800048828125</ele>
        <time>2026-09-03T05:43:19.000Z</time>
        <extensions>
          <ns3:TrackPointExtension>
            <ns3:hr>107</ns3:hr>
            <ns3:cad>70</ns3:cad>
          </ns3:TrackPointExtension>
        </extensions>
      </trkpt>
      <trkpt lat="44.71615011803805828094482421875" lon="6.74365055747330188751220703125">
        <ele>1473.4000244140625</ele>
        <time>2026-09-03T05:43:20.000Z</time>
        <extensions>
          <ns3:TrackPointExtension>
            <ns3:hr>108</ns3:hr>
            <ns3:cad>65</ns3:cad>
          </ns3:TrackPointExtension>
        </extensions>
      </trkpt>
      <trkpt lat="44.7161564044654369354248046875" lon="6.74366195686161518096923828125">
        <ele>1473</ele>
        <time>2026-09-03T05:43:21.000Z</time>
        <extensions>
          <ns3:TrackPointExtension>
            <ns3:hr>108</ns3:hr>
            <ns3:cad>65</ns3:cad>
          </ns3:TrackPointExtension>
        </extensions>
      </trkpt>
      <trkpt lat="44.71616839058697223663330078125" lon="6.7436848394572734832763671875">
        <ele>1472.800048828125</ele>
        <time>2026-09-03T05:43:22.000Z</time>
        <extensions>
          <ns3:TrackPointExtension>
            <ns3:hr>108</ns3:hr>
            <ns3:cad>66</ns3:cad>
          </ns3:TrackPointExtension>
        </extensions>
      </trkpt>
      <trkpt lat="44.7161768563091754913330078125" lon="6.74369632266461849212646484375">
        <ele>1472.5999755859375</ele>
        <time>2026-09-03T05:43:23.000Z</time>
        <extensions>
          <ns3:TrackPointExtension>
            <ns3:hr>108</ns3:hr>
            <ns3:cad>66</ns3:cad>
          </ns3:TrackPointExtension>
        </extensions>
      </trkpt>
      <trkpt lat="44.7161838971078395843505859375" lon="6.74371115863323211669921875">
        <ele>1472.199951171875</ele>
        <time>2026-09-03T05:43:24.000Z</time>
        <extensions>
          <ns3:TrackPointExtension>
            <ns3:hr>107</ns3:hr>
            <ns3:cad>66</ns3:cad>
          </ns3:TrackPointExtension>
        </extensions>
      </trkpt>
      <trkpt lat="44.71619118936359882354736328125" lon="6.74373127520084381103515625">
        <ele>1472</ele>
        <time>2026-09-03T05:43:25.000Z</time>
        <extensions>
          <ns3:TrackPointExtension>
            <ns3:hr>107</ns3:hr>
            <ns3:cad>66</ns3:cad>
          </ns3:TrackPointExtension>
        </extensions>
      </trkpt>
      <trkpt lat="44.71619688905775547027587890625" lon="6.74375298433005809783935546875">
        <ele>1471.800048828125</ele>
        <time>2026-09-03T05:43:26.000Z</time>
        <extensions>
          <ns3:TrackPointExtension>
            <ns3:hr>107</ns3:hr>
            <ns3:cad>66</ns3:cad>
          </ns3:TrackPointExtension>
        </extensions>
      </trkpt>
      <trkpt lat="44.71620040945708751678466796875" lon="6.74377092160284519195556640625">
        <ele>1471.5999755859375</ele>
        <time>2026-09-03T05:43:27.000Z</time>
        <extensions>
          <ns3:TrackPointExtension>
            <ns3:hr>107</ns3:hr>
            <ns3:cad>68</ns3:cad>
          </ns3:TrackPointExtension>
        </extensions>
      </trkpt>
      <trkpt lat="44.71620208583772182464599609375" lon="6.7437860928475856781005859375">
        <ele>1471.199951171875</ele>
        <time>2026-09-03T05:43:28.000Z</time>
        <extensions>
          <ns3:TrackPointExtension>
            <ns3:hr>107</ns3:hr>
            <ns3:cad>68</ns3:cad>
          </ns3:TrackPointExtension>
        </extensions>
      </trkpt>
      <trkpt lat="44.71620560623705387115478515625" lon="6.74380780197679996490478515625">
        <ele>1471</ele>
        <time>2026-09-03T05:43:29.000Z</time>
        <extensions>
          <ns3:TrackPointExtension>
            <ns3:hr>107</ns3:hr>
            <ns3:cad>67</ns3:cad>
          </ns3:TrackPointExtension>
        </extensions>
      </trkpt>
      <trkpt lat="44.7162100486457347869873046875" lon="6.74383143894374370574951171875">
        <ele>1470.800048828125</ele>
        <time>2026-09-03T05:43:30.000Z</time>
        <extensions>
          <ns3:TrackPointExtension>
            <ns3:hr>106</ns3:hr>
            <ns3:cad>67</ns3:cad>
          </ns3:TrackPointExtension>
        </extensions>
      </trkpt>
      <trkpt lat="44.71621222794055938720703125" lon="6.7438635416328907012939453125">
        <ele>1470.5999755859375</ele>
        <time>2026-09-03T05:43:31.000Z</time>
        <extensions>
          <ns3:TrackPointExtension>
            <ns3:hr>107</ns3:hr>
            <ns3:cad>79</ns3:cad>
          </ns3:TrackPointExtension>
        </extensions>
      </trkpt>
      <trkpt lat="44.71622102893888950347900390625" lon="6.7438860051333904266357421875">
        <ele>1470.199951171875</ele>
        <time>2026-09-03T05:43:32.000Z</time>
        <extensions>
          <ns3:TrackPointExtension>
            <ns3:hr>107</ns3:hr>
            <ns3:cad>79</ns3:cad>
          </ns3:TrackPointExtension>
        </extensions>
      </trkpt>
      <trkpt lat="44.71622739918529987335205078125" lon="6.7439077980816364288330078125">
        <ele>1470</ele>
        <time>2026-09-03T05:43:33.000Z</time>
        <extensions>
          <ns3:TrackPointExtension>
            <ns3:hr>106</ns3:hr>
            <ns3:cad>75</ns3:cad>
          </ns3:TrackPointExtension>
        </extensions>
      </trkpt>
      <trkpt lat="44.71623242832720279693603515625" lon="6.7439195327460765838623046875">
        <ele>1469.800048828125</ele>
        <time>2026-09-03T05:43:34.000Z</time>
        <extensions>
          <ns3:TrackPointExtension>
            <ns3:hr>107</ns3:hr>
            <ns3:cad>75</ns3:cad>
          </ns3:TrackPointExtension>
        </extensions>
      </trkpt>
      <trkpt lat="44.71623863093554973602294921875" lon="6.7439379729330539703369140625">
        <ele>1469.5999755859375</ele>
        <time>2026-09-03T05:43:35.000Z</time>
        <extensions>
          <ns3:TrackPointExtension>
            <ns3:hr>107</ns3:hr>
            <ns3:cad>0</ns3:cad>
          </ns3:TrackPointExtension>
        </extensions>
      </trkpt>
      <trkpt lat="44.7162418998777866363525390625" lon="6.7439587600529193878173828125">
        <ele>1469.5999755859375</ele>
        <time>2026-09-03T05:43:36.000Z</time>
        <extensions>
          <ns3:TrackPointExtension>
            <ns3:hr>106</ns3:hr>
            <ns3:cad>0</ns3:cad>
          </ns3:TrackPointExtension>
        </extensions>
      </trkpt>
      <trkpt lat="44.7162462584674358367919921875" lon="6.74397359602153301239013671875">
        <ele>1469.4000244140625</ele>
        <time>2026-09-03T05:43:37.000Z</time>
        <extensions>
          <ns3:TrackPointExtension>
            <ns3:hr>107</ns3:hr>
            <ns3:cad>0</ns3:cad>
          </ns3:TrackPointExtension>
        </extensions>
      </trkpt>
      <trkpt lat="44.7162499465048313140869140625" lon="6.7439936287701129913330078125">
        <ele>1469.199951171875</ele>
        <time>2026-09-03T05:43:38.000Z</time>
        <extensions>
          <ns3:TrackPointExtension>
            <ns3:hr>107</ns3:hr>
            <ns3:cad>0</ns3:cad>
          </ns3:TrackPointExtension>
        </extensions>
      </trkpt>
      <trkpt lat="44.71625288017094135284423828125" lon="6.7440063692629337310791015625">
        <ele>1469</ele>
        <time>2026-09-03T05:43:39.000Z</time>
        <extensions>
          <ns3:TrackPointExtension>
            <ns3:hr>107</ns3:hr>
            <ns3:cad>64</ns3:cad>
          </ns3:TrackPointExtension>
        </extensions>
      </trkpt>
      <trkpt lat="44.71625514328479766845703125" lon="6.744014583528041839599609375">
        <ele>1468.800048828125</ele>
        <time>2026-09-03T05:43:40.000Z</time>
        <extensions>
          <ns3:TrackPointExtension>
            <ns3:hr>107</ns3:hr>
            <ns3:cad>64</ns3:cad>
          </ns3:TrackPointExtension>
        </extensions>
      </trkpt>
      <trkpt lat="44.7162593342363834381103515625" lon="6.7440308444201946258544921875">
        <ele>1468.5999755859375</ele>
        <time>2026-09-03T05:43:41.000Z</time>
        <extensions>
          <ns3:TrackPointExtension>
            <ns3:hr>107</ns3:hr>
            <ns3:cad>64</ns3:cad>
          </ns3:TrackPointExtension>
        </extensions>
      </trkpt>
      <trkpt lat="44.71626360900700092315673828125" lon="6.74405104480683803558349609375">
        <ele>1468.4000244140625</ele>
        <time>2026-09-03T05:43:42.000Z</time>
        <extensions>
          <ns3:TrackPointExtension>
            <ns3:hr>107</ns3:hr>
            <ns3:cad>64</ns3:cad>
          </ns3:TrackPointExtension>
        </extensions>
      </trkpt>
      <trkpt lat="44.71627525985240936279296875" lon="6.74407082609832286834716796875">
        <ele>1468</ele>
        <time>2026-09-03T05:43:43.000Z</time>
        <extensions>
          <ns3:TrackPointExtension>
            <ns3:hr>107</ns3:hr>
            <ns3:cad>63</ns3:cad>
          </ns3:TrackPointExtension>
        </extensions>
      </trkpt>
      <trkpt lat="44.71628825180232524871826171875" lon="6.74408943392336368560791015625">
        <ele>1467.800048828125</ele>
        <time>2026-09-03T05:43:44.000Z</time>
        <extensions>
          <ns3:TrackPointExtension>
            <ns3:hr>107</ns3:hr>
            <ns3:cad>63</ns3:cad>
          </ns3:TrackPointExtension>
        </extensions>
      </trkpt>
      <trkpt lat="44.71629780717194080352783203125" lon="6.744103096425533294677734375">
        <ele>1467.4000244140625</ele>
        <time>2026-09-03T05:43:45.000Z</time>
        <extensions>
          <ns3:TrackPointExtension>
            <ns3:hr>107</ns3:hr>
            <ns3:cad>63</ns3:cad>
          </ns3:TrackPointExtension>
        </extensions>
      </trkpt>
      <trkpt lat="44.7163123078644275665283203125" lon="6.7441196925938129425048828125">
        <ele>1467</ele>
        <time>2026-09-03T05:43:46.000Z</time>
        <extensions>
          <ns3:TrackPointExtension>
            <ns3:hr>107</ns3:hr>
            <ns3:cad>63</ns3:cad>
          </ns3:TrackPointExtension>
        </extensions>
      </trkpt>
      <trkpt lat="44.71632446162402629852294921875" lon="6.7441250570118427276611328125">
        <ele>1466.800048828125</ele>
        <time>2026-09-03T05:43:47.000Z</time>
        <extensions>
          <ns3:TrackPointExtension>
            <ns3:hr>106</ns3:hr>
            <ns3:cad>63</ns3:cad>
          </ns3:TrackPointExtension>
        </extensions>
      </trkpt>
      <trkpt lat="44.71634072251617908477783203125" lon="6.7441324330866336822509765625">
        <ele>1466.5999755859375</ele>
        <time>2026-09-03T05:43:48.000Z</time>
        <extensions>
          <ns3:TrackPointExtension>
            <ns3:hr>107</ns3:hr>
            <ns3:cad>63</ns3:cad>
          </ns3:TrackPointExtension>
        </extensions>
      </trkpt>
      <trkpt lat="44.71635765396058559417724609375" lon="6.7441391386091709136962890625">
        <ele>1466.4000244140625</ele>
        <time>2026-09-03T05:43:49.000Z</time>
        <extensions>
          <ns3:TrackPointExtension>
            <ns3:hr>107</ns3:hr>
            <ns3:cad>63</ns3:cad>
          </ns3:TrackPointExtension>
        </extensions>
      </trkpt>
      <trkpt lat="44.7163711488246917724609375" lon="6.744148023426532745361328125">
        <ele>1466</ele>
        <time>2026-09-03T05:43:50.000Z</time>
        <extensions>
          <ns3:TrackPointExtension>
            <ns3:hr>108</ns3:hr>
            <ns3:cad>63</ns3:cad>
          </ns3:TrackPointExtension>
        </extensions>
      </trkpt>
      <trkpt lat="44.71638296730816364288330078125" lon="6.74415774643421173095703125">
        <ele>1465.800048828125</ele>
        <time>2026-09-03T05:43:51.000Z</time>
        <extensions>
          <ns3:TrackPointExtension>
            <ns3:hr>107</ns3:hr>
            <ns3:cad>69</ns3:cad>
          </ns3:TrackPointExtension>
        </extensions>
      </trkpt>
      <trkpt lat="44.7163964621722698211669921875" lon="6.7441659606993198394775390625">
        <ele>1465.5999755859375</ele>
        <time>2026-09-03T05:43:52.000Z</time>
        <extensions>
          <ns3:TrackPointExtension>
            <ns3:hr>107</ns3:hr>
            <ns3:cad>69</ns3:cad>
          </ns3:TrackPointExtension>
        </extensions>
      </trkpt>
      <trkpt lat="44.71640744246542453765869140625" lon="6.74417207948863506317138671875">
        <ele>1465.199951171875</ele>
        <time>2026-09-03T05:43:53.000Z</time>
        <extensions>
          <ns3:TrackPointExtension>
            <ns3:hr>108</ns3:hr>
            <ns3:cad>69</ns3:cad>
          </ns3:TrackPointExtension>
        </extensions>
      </trkpt>
      <trkpt lat="44.71641900949180126190185546875" lon="6.744170151650905609130859375">
        <ele>1464.800048828125</ele>
        <time>2026-09-03T05:43:54.000Z</time>
        <extensions>
          <ns3:TrackPointExtension>
            <ns3:hr>108</ns3:hr>
            <ns3:cad>69</ns3:cad>
          </ns3:TrackPointExtension>
        </extensions>
      </trkpt>
      <trkpt lat="44.71643124707043170928955078125" lon="6.74417040310800075531005859375">
        <ele>1464.4000244140625</ele>
        <time>2026-09-03T05:43:55.000Z</time>
        <extensions>
          <ns3:TrackPointExtension>
            <ns3:hr>108</ns3:hr>
            <ns3:cad>69</ns3:cad>
          </ns3:TrackPointExtension>
        </extensions>
      </trkpt>
      <trkpt lat="44.716443233191967010498046875" lon="6.7441646195948123931884765625">
        <ele>1464.199951171875</ele>
        <time>2026-09-03T05:43:56.000Z</time>
        <extensions>
          <ns3:TrackPointExtension>
            <ns3:hr>109</ns3:hr>
            <ns3:cad>69</ns3:cad>
          </ns3:TrackPointExtension>
        </extensions>
      </trkpt>
      <trkpt lat="44.71645622514188289642333984375" lon="6.74416805617511272430419921875">
        <ele>1463.800048828125</ele>
        <time>2026-09-03T05:43:57.000Z</time>
        <extensions>
          <ns3:TrackPointExtension>
            <ns3:hr>109</ns3:hr>
            <ns3:cad>69</ns3:cad>
          </ns3:TrackPointExtension>
        </extensions>
      </trkpt>
      <trkpt lat="44.71646309830248355865478515625" lon="6.7441709898412227630615234375">
        <ele>1463.5999755859375</ele>
        <time>2026-09-03T05:43:58.000Z</time>
        <extensions>
          <ns3:TrackPointExtension>
            <ns3:hr>108</ns3:hr>
            <ns3:cad>69</ns3:cad>
          </ns3:TrackPointExtension>
        </extensions>
      </trkpt>
      <trkpt lat="44.7164675407111644744873046875" lon="6.74418264068663120269775390625">
        <ele>1463.199951171875</ele>
        <time>2026-09-03T05:43:59.000Z</time>
        <extensions>
          <ns3:TrackPointExtension>
            <ns3:hr>108</ns3:hr>
            <ns3:cad>69</ns3:cad>
          </ns3:TrackPointExtension>
        </extensions>
      </trkpt>
      <trkpt lat="44.7164806164801120758056640625" lon="6.74418867565691471099853515625">
        <ele>1463</ele>
        <time>2026-09-03T05:44:00.000Z</time>
        <extensions>
          <ns3:TrackPointExtension>
            <ns3:hr>108</ns3:hr>
            <ns3:cad>69</ns3:cad>
          </ns3:TrackPointExtension>
        </extensions>
      </trkpt>
      <trkpt lat="44.71649520099163055419921875" lon="6.74418683163821697235107421875">
        <ele>1462.5999755859375</ele>
        <time>2026-09-03T05:44:01.000Z</time>
        <extensions>
          <ns3:TrackPointExtension>
            <ns3:hr>107</ns3:hr>
            <ns3:cad>69</ns3:cad>
          </ns3:TrackPointExtension>
        </extensions>
      </trkpt>
      <trkpt lat="44.71651238389313220977783203125" lon="6.7441874183714389801025390625">
        <ele>1462.199951171875</ele>
        <time>2026-09-03T05:44:02.000Z</time>
        <extensions>
          <ns3:TrackPointExtension>
            <ns3:hr>107</ns3:hr>
            <ns3:cad>69</ns3:cad>
          </ns3:TrackPointExtension>
        </extensions>
      </trkpt>
      <trkpt lat="44.7165293991565704345703125" lon="6.7441864125430583953857421875">
        <ele>1461.800048828125</ele>
        <time>2026-09-03T05:44:03.000Z</time>
        <extensions>
          <ns3:TrackPointExtension>
            <ns3:hr>106</ns3:hr>
            <ns3:cad>69</ns3:cad>
          </ns3:TrackPointExtension>
        </extensions>
      </trkpt>
      <trkpt lat="44.71653836779296398162841796875" lon="6.74418247304856777191162109375">
        <ele>1461.4000244140625</ele>
        <time>2026-09-03T05:44:04.000Z</time>
        <extensions>
          <ns3:TrackPointExtension>
            <ns3:hr>106</ns3:hr>
            <ns3:cad>69</ns3:cad>
          </ns3:TrackPointExtension>
        </extensions>
      </trkpt>
      <trkpt lat="44.7165496833622455596923828125" lon="6.74417593516409397125244140625">
        <ele>1461.199951171875</ele>
        <time>2026-09-03T05:44:05.000Z</time>
        <extensions>
          <ns3:TrackPointExtension>
            <ns3:hr>105</ns3:hr>
            <ns3:cad>69</ns3:cad>
          </ns3:TrackPointExtension>
        </extensions>
      </trkpt>
      <trkpt lat="44.71656166948378086090087890625" lon="6.74416973255574703216552734375">
        <ele>1460.800048828125</ele>
        <time>2026-09-03T05:44:06.000Z</time>
        <extensions>
          <ns3:TrackPointExtension>
            <ns3:hr>105</ns3:hr>
            <ns3:cad>0</ns3:cad>
          </ns3:TrackPointExtension>
        </extensions>
      </trkpt>
      <trkpt lat="44.71656803973019123077392578125" lon="6.744162775576114654541015625">
        <ele>1460.4000244140625</ele>
        <time>2026-09-03T05:44:07.000Z</time>
        <extensions>
          <ns3:TrackPointExtension>
            <ns3:hr>105</ns3:hr>
            <ns3:cad>0</ns3:cad>
          </ns3:TrackPointExtension>
        </extensions>
      </trkpt>
      <trkpt lat="44.7165805287659168243408203125" lon="6.74415699206292629241943359375">
        <ele>1460.199951171875</ele>
        <time>2026-09-03T05:44:08.000Z</time>
        <extensions>
          <ns3:TrackPointExtension>
            <ns3:hr>105</ns3:hr>
            <ns3:cad>65</ns3:cad>
          </ns3:TrackPointExtension>
        </extensions>
      </trkpt>
      <trkpt lat="44.71659553237259387969970703125" lon="6.7441548965871334075927734375">
        <ele>1459.800048828125</ele>
        <time>2026-09-03T05:44:09.000Z</time>
        <extensions>
          <ns3:TrackPointExtension>
            <ns3:hr>104</ns3:hr>
            <ns3:cad>65</ns3:cad>
          </ns3:TrackPointExtension>
        </extensions>
      </trkpt>
      <trkpt lat="44.71661514602601528167724609375" lon="6.7441505379974842071533203125">
        <ele>1459.5999755859375</ele>
        <time>2026-09-03T05:44:10.000Z</time>
        <extensions>
          <ns3:TrackPointExtension>
            <ns3:hr>104</ns3:hr>
            <ns3:cad>65</ns3:cad>
          </ns3:TrackPointExtension>
        </extensions>
      </trkpt>
      <trkpt lat="44.716641046106815338134765625" lon="6.74414374865591526031494140625">
        <ele>1459.199951171875</ele>
        <time>2026-09-03T05:44:11.000Z</time>
        <extensions>
          <ns3:TrackPointExtension>
            <ns3:hr>104</ns3:hr>
            <ns3:cad>79</ns3:cad>
          </ns3:TrackPointExtension>
        </extensions>
      </trkpt>
      <trkpt lat="44.716659151017665863037109375" lon="6.74413352273404598236083984375">
        <ele>1458.800048828125</ele>
        <time>2026-09-03T05:44:12.000Z</time>
        <extensions>
          <ns3:TrackPointExtension>
            <ns3:hr>104</ns3:hr>
            <ns3:cad>79</ns3:cad>
          </ns3:TrackPointExtension>
        </extensions>
      </trkpt>
      <trkpt lat="44.7166666947305202484130859375" lon="6.74414207227528095245361328125">
        <ele>1458.5999755859375</ele>
        <time>2026-09-03T05:44:13.000Z</time>
        <extensions>
          <ns3:TrackPointExtension>
            <ns3:hr>104</ns3:hr>
            <ns3:cad>79</ns3:cad>
          </ns3:TrackPointExtension>
        </extensions>
      </trkpt>
      <trkpt lat="44.7166844643652439117431640625" lon="6.74413452856242656707763671875">
        <ele>1458.4000244140625</ele>
        <time>2026-09-03T05:44:14.000Z</time>
        <extensions>
          <ns3:TrackPointExtension>
            <ns3:hr>103</ns3:hr>
            <ns3:cad>79</ns3:cad>
          </ns3:TrackPointExtension>
        </extensions>
      </trkpt>
      <trkpt lat="44.7166935168206691741943359375" lon="6.74412145279347896575927734375">
        <ele>1458.199951171875</ele>
        <time>2026-09-03T05:44:15.000Z</time>
        <extensions>
          <ns3:TrackPointExtension>
            <ns3:hr>103</ns3:hr>
            <ns3:cad>80</ns3:cad>
          </ns3:TrackPointExtension>
        </extensions>
      </trkpt>
      <trkpt lat="44.7167092747986316680908203125" lon="6.74411323852837085723876953125">
        <ele>1458</ele>
        <time>2026-09-03T05:44:16.000Z</time>
        <extensions>
          <ns3:TrackPointExtension>
            <ns3:hr>103</ns3:hr>
            <ns3:cad>80</ns3:cad>
          </ns3:TrackPointExtension>
        </extensions>
      </trkpt>
      <trkpt lat="44.71672142855823040008544921875" lon="6.74410343170166015625">
        <ele>1457.5999755859375</ele>
        <time>2026-09-03T05:44:17.000Z</time>
        <extensions>
          <ns3:TrackPointExtension>
            <ns3:hr>104</ns3:hr>
            <ns3:cad>80</ns3:cad>
          </ns3:TrackPointExtension>
        </extensions>
      </trkpt>
      <trkpt lat="44.71674070693552494049072265625" lon="6.74409605562686920166015625">
        <ele>1457.199951171875</ele>
        <time>2026-09-03T05:44:18.000Z</time>
        <extensions>
          <ns3:TrackPointExtension>
            <ns3:hr>104</ns3:hr>
            <ns3:cad>81</ns3:cad>
          </ns3:TrackPointExtension>
        </extensions>
      </trkpt>
      <trkpt lat="44.71675478853285312652587890625" lon="6.744090020656585693359375">
        <ele>1456.800048828125</ele>
        <time>2026-09-03T05:44:19.000Z</time>
        <extensions>
          <ns3:TrackPointExtension>
            <ns3:hr>104</ns3:hr>
            <ns3:cad>81</ns3:cad>
          </ns3:TrackPointExtension>
        </extensions>
      </trkpt>
      <trkpt lat="44.71677524037659168243408203125" lon="6.74407920800149440765380859375">
        <ele>1456.4000244140625</ele>
        <time>2026-09-03T05:44:20.000Z</time>
        <extensions>
          <ns3:TrackPointExtension>
            <ns3:hr>104</ns3:hr>
            <ns3:cad>81</ns3:cad>
          </ns3:TrackPointExtension>
        </extensions>
      </trkpt>
      <trkpt lat="44.7167981229722499847412109375" lon="6.74407325685024261474609375">
        <ele>1456.199951171875</ele>
        <time>2026-09-03T05:44:21.000Z</time>
        <extensions>
          <ns3:TrackPointExtension>
            <ns3:hr>103</ns3:hr>
            <ns3:cad>81</ns3:cad>
          </ns3:TrackPointExtension>
        </extensions>
      </trkpt>
      <trkpt lat="44.71681706607341766357421875" lon="6.7440677247941493988037109375">
        <ele>1455.800048828125</ele>
        <time>2026-09-03T05:44:22.000Z</time>
        <extensions>
          <ns3:TrackPointExtension>
            <ns3:hr>104</ns3:hr>
            <ns3:cad>81</ns3:cad>
          </ns3:TrackPointExtension>
        </extensions>
      </trkpt>
      <trkpt lat="44.7168306447565555572509765625" lon="6.7440670542418956756591796875">
        <ele>1455.800048828125</ele>
        <time>2026-09-03T05:44:23.000Z</time>
        <extensions>
          <ns3:TrackPointExtension>
            <ns3:hr>104</ns3:hr>
            <ns3:cad>81</ns3:cad>
          </ns3:TrackPointExtension>
        </extensions>
      </trkpt>
      <trkpt lat="44.7168400324881076812744140625" lon="6.74406931735575199127197265625">
        <ele>1455.5999755859375</ele>
        <time>2026-09-03T05:44:24.000Z</time>
        <extensions>
          <ns3:TrackPointExtension>
            <ns3:hr>104</ns3:hr>
            <ns3:cad>81</ns3:cad>
          </ns3:TrackPointExtension>
        </extensions>
      </trkpt>
      <trkpt lat="44.71685118041932582855224609375" lon="6.7440804652869701385498046875">
        <ele>1455.4000244140625</ele>
        <time>2026-09-03T05:44:25.000Z</time>
        <extensions>
          <ns3:TrackPointExtension>
            <ns3:hr>105</ns3:hr>
            <ns3:cad>80</ns3:cad>
          </ns3:TrackPointExtension>
        </extensions>
      </trkpt>
      <trkpt lat="44.71686190925538539886474609375" lon="6.7440811358392238616943359375">
        <ele>1455.199951171875</ele>
        <time>2026-09-03T05:44:26.000Z</time>
        <extensions>
          <ns3:TrackPointExtension>
            <ns3:hr>105</ns3:hr>
            <ns3:cad>80</ns3:cad>
          </ns3:TrackPointExtension>
        </extensions>
      </trkpt>
      <trkpt lat="44.71687733195722103118896484375" lon="6.74407920800149440765380859375">
        <ele>1454.800048828125</ele>
        <time>2026-09-03T05:44:27.000Z</time>
        <extensions>
          <ns3:TrackPointExtension>
            <ns3:hr>106</ns3:hr>
            <ns3:cad>80</ns3:cad>
          </ns3:TrackPointExtension>
        </extensions>
      </trkpt>
      <trkpt lat="44.71689024008810520172119140625" lon="6.7440834827721118927001953125">
        <ele>1454.4000244140625</ele>
        <time>2026-09-03T05:44:28.000Z</time>
        <extensions>
          <ns3:TrackPointExtension>
            <ns3:hr>106</ns3:hr>
            <ns3:cad>77</ns3:cad>
          </ns3:TrackPointExtension>
        </extensions>
      </trkpt>
      <trkpt lat="44.71689526923000812530517578125" lon="6.7440730892121791839599609375">
        <ele>1454</ele>
        <time>2026-09-03T05:44:29.000Z</time>
        <extensions>
          <ns3:TrackPointExtension>
            <ns3:hr>106</ns3:hr>
            <ns3:cad>77</ns3:cad>
          </ns3:TrackPointExtension>
        </extensions>
      </trkpt>
      <trkpt lat="44.716911949217319488525390625" lon="6.74406789243221282958984375">
        <ele>1454</ele>
        <time>2026-09-03T05:44:30.000Z</time>
        <extensions>
          <ns3:TrackPointExtension>
            <ns3:hr>106</ns3:hr>
            <ns3:cad>77</ns3:cad>
          </ns3:TrackPointExtension>
        </extensions>
      </trkpt>
      <trkpt lat="44.71692410297691822052001953125" lon="6.74406311474740505218505859375">
        <ele>1453.800048828125</ele>
        <time>2026-09-03T05:44:31.000Z</time>
        <extensions>
          <ns3:TrackPointExtension>
            <ns3:hr>105</ns3:hr>
            <ns3:cad>77</ns3:cad>
          </ns3:TrackPointExtension>
        </extensions>
      </trkpt>
      <trkpt lat="44.71693508327007293701171875" lon="6.7440643720328807830810546875">
        <ele>1453.5999755859375</ele>
        <time>2026-09-03T05:44:32.000Z</time>
        <extensions>
          <ns3:TrackPointExtension>
            <ns3:hr>105</ns3:hr>
            <ns3:cad>77</ns3:cad>
          </ns3:TrackPointExtension>
        </extensions>
      </trkpt>
      <trkpt lat="44.71695075742900371551513671875" lon="6.74405037425458431243896484375">
        <ele>1453.5999755859375</ele>
        <time>2026-09-03T05:44:33.000Z</time>
        <extensions>
          <ns3:TrackPointExtension>
            <ns3:hr>104</ns3:hr>
            <ns3:cad>77</ns3:cad>
          </ns3:TrackPointExtension>
        </extensions>
      </trkpt>
      <trkpt lat="44.71696651540696620941162109375" lon="6.744031012058258056640625">
        <ele>1453.4000244140625</ele>
        <time>2026-09-03T05:44:34.000Z</time>
        <extensions>
          <ns3:TrackPointExtension>
            <ns3:hr>103</ns3:hr>
            <ns3:cad>77</ns3:cad>
          </ns3:TrackPointExtension>
        </extensions>
      </trkpt>
      <trkpt lat="44.71697757951915264129638671875" lon="6.74402439035475254058837890625">
        <ele>1453.199951171875</ele>
        <time>2026-09-03T05:44:35.000Z</time>
        <extensions>
          <ns3:TrackPointExtension>
            <ns3:hr>103</ns3:hr>
            <ns3:cad>62</ns3:cad>
          </ns3:TrackPointExtension>
        </extensions>
      </trkpt>
      <trkpt lat="44.71699249930679798126220703125" lon="6.74401567317545413970947265625">
        <ele>1452.800048828125</ele>
        <time>2026-09-03T05:44:36.000Z</time>
        <extensions>
          <ns3:TrackPointExtension>
            <ns3:hr>103</ns3:hr>
            <ns3:cad>62</ns3:cad>
          </ns3:TrackPointExtension>
        </extensions>
      </trkpt>
      <trkpt lat="44.71701630391180515289306640625" lon="6.7440100573003292083740234375">
        <ele>1452.4000244140625</ele>
        <time>2026-09-03T05:44:37.000Z</time>
        <extensions>
          <ns3:TrackPointExtension>
            <ns3:hr>103</ns3:hr>
            <ns3:cad>62</ns3:cad>
          </ns3:TrackPointExtension>
        </extensions>
      </trkpt>
      <trkpt lat="44.71703172661364078521728515625" lon="6.7440160922706127166748046875">
        <ele>1452</ele>
        <time>2026-09-03T05:44:38.000Z</time>
        <extensions>
          <ns3:TrackPointExtension>
            <ns3:hr>103</ns3:hr>
            <ns3:cad>62</ns3:cad>
          </ns3:TrackPointExtension>
        </extensions>
      </trkpt>
      <trkpt lat="44.71704664640128612518310546875" lon="6.74400896765291690826416015625">
        <ele>1451.4000244140625</ele>
        <time>2026-09-03T05:44:39.000Z</time>
        <extensions>
          <ns3:TrackPointExtension>
            <ns3:hr>102</ns3:hr>
            <ns3:cad>62</ns3:cad>
          </ns3:TrackPointExtension>
        </extensions>
      </trkpt>
      <trkpt lat="44.71705838106572628021240234375" lon="6.744009219110012054443359375">
        <ele>1451.199951171875</ele>
        <time>2026-09-03T05:44:40.000Z</time>
        <extensions>
          <ns3:TrackPointExtension>
            <ns3:hr>102</ns3:hr>
            <ns3:cad>62</ns3:cad>
          </ns3:TrackPointExtension>
        </extensions>
      </trkpt>
      <trkpt lat="44.71707061864435672760009765625" lon="6.7440108954906463623046875">
        <ele>1450.800048828125</ele>
        <time>2026-09-03T05:44:41.000Z</time>
        <extensions>
          <ns3:TrackPointExtension>
            <ns3:hr>102</ns3:hr>
            <ns3:cad>62</ns3:cad>
          </ns3:TrackPointExtension>
        </extensions>
      </trkpt>
      <trkpt lat="44.7170827724039554595947265625" lon="6.7440135776996612548828125">
        <ele>1450.4000244140625</ele>
        <time>2026-09-03T05:44:42.000Z</time>
        <extensions>
          <ns3:TrackPointExtension>
            <ns3:hr>102</ns3:hr>
            <ns3:cad>81</ns3:cad>
          </ns3:TrackPointExtension>
        </extensions>
      </trkpt>
      <trkpt lat="44.71709735691547393798828125" lon="6.74401818774640560150146484375">
        <ele>1450.199951171875</ele>
        <time>2026-09-03T05:44:43.000Z</time>
        <extensions>
          <ns3:TrackPointExtension>
            <ns3:hr>102</ns3:hr>
            <ns3:cad>82</ns3:cad>
          </ns3:TrackPointExtension>
        </extensions>
      </trkpt>
      <trkpt lat="44.71710884012281894683837890625" lon="6.7440221272408962249755859375">
        <ele>1449.800048828125</ele>
        <time>2026-09-03T05:44:44.000Z</time>
        <extensions>
          <ns3:TrackPointExtension>
            <ns3:hr>102</ns3:hr>
            <ns3:cad>82</ns3:cad>
          </ns3:TrackPointExtension>
        </extensions>
      </trkpt>
      <trkpt lat="44.7171387635171413421630859375" lon="6.744026653468608856201171875">
        <ele>1449.4000244140625</ele>
        <time>2026-09-03T05:44:45.000Z</time>
        <extensions>
          <ns3:TrackPointExtension>
            <ns3:hr>102</ns3:hr>
            <ns3:cad>82</ns3:cad>
          </ns3:TrackPointExtension>
        </extensions>
      </trkpt>
      <trkpt lat="44.717162065207958221435546875" lon="6.74402724020183086395263671875">
        <ele>1449</ele>
        <time>2026-09-03T05:44:46.000Z</time>
        <extensions>
          <ns3:TrackPointExtension>
            <ns3:hr>102</ns3:hr>
            <ns3:cad>82</ns3:cad>
          </ns3:TrackPointExtension>
        </extensions>
      </trkpt>
      <trkpt lat="44.7171776555478572845458984375" lon="6.7440271563827991485595703125">
        <ele>1448.5999755859375</ele>
        <time>2026-09-03T05:44:47.000Z</time>
        <extensions>
          <ns3:TrackPointExtension>
            <ns3:hr>103</ns3:hr>
            <ns3:cad>82</ns3:cad>
          </ns3:TrackPointExtension>
        </extensions>
      </trkpt>
      <trkpt lat="44.71720724366605281829833984375" lon="6.74402656964957714080810546875">
        <ele>1448.4000244140625</ele>
        <time>2026-09-03T05:44:48.000Z</time>
        <extensions>
          <ns3:TrackPointExtension>
            <ns3:hr>103</ns3:hr>
            <ns3:cad>82</ns3:cad>
          </ns3:TrackPointExtension>
        </extensions>
      </trkpt>
      <trkpt lat="44.71722752787172794342041015625" lon="6.74403260461986064910888671875">
        <ele>1448</ele>
        <time>2026-09-03T05:44:49.000Z</time>
        <extensions>
          <ns3:TrackPointExtension>
            <ns3:hr>103</ns3:hr>
            <ns3:cad>82</ns3:cad>
          </ns3:TrackPointExtension>
        </extensions>
      </trkpt>
      <trkpt lat="44.71724395640194416046142578125" lon="6.74404165707528591156005859375">
        <ele>1447.800048828125</ele>
        <time>2026-09-03T05:44:50.000Z</time>
        <extensions>
          <ns3:TrackPointExtension>
            <ns3:hr>104</ns3:hr>
            <ns3:cad>82</ns3:cad>
          </ns3:TrackPointExtension>
        </extensions>
      </trkpt>
      <trkpt lat="44.71726139076054096221923828125" lon="6.74406311474740505218505859375">
        <ele>1447.4000244140625</ele>
        <time>2026-09-03T05:44:51.000Z</time>
        <extensions>
          <ns3:TrackPointExtension>
            <ns3:hr>105</ns3:hr>
            <ns3:cad>81</ns3:cad>
          </ns3:TrackPointExtension>
        </extensions>
      </trkpt>
      <trkpt lat="44.7172691859304904937744140625" lon="6.74407602287828922271728515625">
        <ele>1447.199951171875</ele>
        <time>2026-09-03T05:44:52.000Z</time>
        <extensions>
          <ns3:TrackPointExtension>
            <ns3:hr>106</ns3:hr>
            <ns3:cad>82</ns3:cad>
          </ns3:TrackPointExtension>
        </extensions>
      </trkpt>
      <trkpt lat="44.71728645265102386474609375" lon="6.74408935010433197021484375">
        <ele>1447</ele>
        <time>2026-09-03T05:44:53.000Z</time>
        <extensions>
          <ns3:TrackPointExtension>
            <ns3:hr>107</ns3:hr>
            <ns3:cad>82</ns3:cad>
          </ns3:TrackPointExtension>
        </extensions>
      </trkpt>
      <trkpt lat="44.717296175658702850341796875" lon="6.74410385079681873321533203125">
        <ele>1447</ele>
        <time>2026-09-03T05:44:54.000Z</time>
        <extensions>
          <ns3:TrackPointExtension>
            <ns3:hr>108</ns3:hr>
            <ns3:cad>82</ns3:cad>
          </ns3:TrackPointExtension>
        </extensions>
      </trkpt>
      <trkpt lat="44.7172983549535274505615234375" lon="6.74411776475608348846435546875">
        <ele>1446.800048828125</ele>
        <time>2026-09-03T05:44:55.000Z</time>
        <extensions>
          <ns3:TrackPointExtension>
            <ns3:hr>108</ns3:hr>
            <ns3:cad>82</ns3:cad>
          </ns3:TrackPointExtension>
        </extensions>
      </trkpt>
      <trkpt lat="44.7173013724386692047119140625" lon="6.7441357858479022979736328125">
        <ele>1446.800048828125</ele>
        <time>2026-09-03T05:44:56.000Z</time>
        <extensions>
          <ns3:TrackPointExtension>
            <ns3:hr>109</ns3:hr>
            <ns3:cad>82</ns3:cad>
          </ns3:TrackPointExtension>
        </extensions>
      </trkpt>
      <trkpt lat="44.71730547957122325897216796875" lon="6.7441612668335437774658203125">
        <ele>1446.5999755859375</ele>
        <time>2026-09-03T05:44:57.000Z</time>
        <extensions>
          <ns3:TrackPointExtension>
            <ns3:hr>113</ns3:hr>
            <ns3:cad>0</ns3:cad>
          </ns3:TrackPointExtension>
        </extensions>
      </trkpt>
      <trkpt lat="44.717308580875396728515625" lon="6.7441852390766143798828125">
        <ele>1446.4000244140625</ele>
        <time>2026-09-03T05:44:58.000Z</time>
        <extensions>
          <ns3:TrackPointExtension>
            <ns3:hr>116</ns3:hr>
            <ns3:cad>0</ns3:cad>
          </ns3:TrackPointExtension>
        </extensions>
      </trkpt>
      <trkpt lat="44.71732056699693202972412109375" lon="6.74420870840549468994140625">
        <ele>1446</ele>
        <time>2026-09-03T05:44:59.000Z</time>
        <extensions>
          <ns3:TrackPointExtension>
            <ns3:hr>116</ns3:hr>
            <ns3:cad>0</ns3:cad>
          </ns3:TrackPointExtension>
        </extensions>
      </trkpt>
      <trkpt lat="44.7173367440700531005859375" lon="6.74423930235207080841064453125">
        <ele>1445.5999755859375</ele>
        <time>2026-09-03T05:45:00.000Z</time>
        <extensions>
          <ns3:TrackPointExtension>
            <ns3:hr>117</ns3:hr>
            <ns3:cad>0</ns3:cad>
          </ns3:TrackPointExtension>
        </extensions>
      </trkpt>
      <trkpt lat="44.7173473052680492401123046875" lon="6.74426830373704433441162109375">
        <ele>1445.199951171875</ele>
        <time>2026-09-03T05:45:01.000Z</time>
        <extensions>
          <ns3:TrackPointExtension>
            <ns3:hr>118</ns3:hr>
            <ns3:cad>83</ns3:cad>
          </ns3:TrackPointExtension>
        </extensions>
      </trkpt>
      <trkpt lat="44.71735677681863307952880859375" lon="6.74429722130298614501953125">
        <ele>1444.800048828125</ele>
        <time>2026-09-03T05:45:02.000Z</time>
        <extensions>
          <ns3:TrackPointExtension>
            <ns3:hr>119</ns3:hr>
            <ns3:cad>83</ns3:cad>
          </ns3:TrackPointExtension>
        </extensions>
      </trkpt>
      <trkpt lat="44.7173734568059444427490234375" lon="6.7443273961544036865234375">
        <ele>1444.5999755859375</ele>
        <time>2026-09-03T05:45:03.000Z</time>
        <extensions>
          <ns3:TrackPointExtension>
            <ns3:hr>119</ns3:hr>
            <ns3:cad>83</ns3:cad>
          </ns3:TrackPointExtension>
        </extensions>
      </trkpt>
      <trkpt lat="44.717391394078731536865234375" lon="6.74435715191066265106201171875">
        <ele>1444.199951171875</ele>
        <time>2026-09-03T05:45:04.000Z</time>
        <extensions>
          <ns3:TrackPointExtension>
            <ns3:hr>119</ns3:hr>
            <ns3:cad>83</ns3:cad>
          </ns3:TrackPointExtension>
        </extensions>
      </trkpt>
      <trkpt lat="44.7174113430082798004150390625" lon="6.74439319409430027008056640625">
        <ele>1443.800048828125</ele>
        <time>2026-09-03T05:45:05.000Z</time>
        <extensions>
          <ns3:TrackPointExtension>
            <ns3:hr>120</ns3:hr>
            <ns3:cad>83</ns3:cad>
          </ns3:TrackPointExtension>
        </extensions>
      </trkpt>
      <trkpt lat="44.71742969937622547149658203125" lon="6.74442588351666927337646484375">
        <ele>1443.5999755859375</ele>
        <time>2026-09-03T05:45:06.000Z</time>
        <extensions>
          <ns3:TrackPointExtension>
            <ns3:hr>120</ns3:hr>
            <ns3:cad>83</ns3:cad>
          </ns3:TrackPointExtension>
        </extensions>
      </trkpt>
      <trkpt lat="44.71744847483932971954345703125" lon="6.744463182985782623291015625">
        <ele>1443.4000244140625</ele>
        <time>2026-09-03T05:45:07.000Z</time>
        <extensions>
          <ns3:TrackPointExtension>
            <ns3:hr>120</ns3:hr>
            <ns3:cad>83</ns3:cad>
          </ns3:TrackPointExtension>
        </extensions>
      </trkpt>
      <trkpt lat="44.717459119856357574462890625" lon="6.74449260346591472625732421875">
        <ele>1443.4000244140625</ele>
        <time>2026-09-03T05:45:08.000Z</time>
        <extensions>
          <ns3:TrackPointExtension>
            <ns3:hr>121</ns3:hr>
            <ns3:cad>83</ns3:cad>
          </ns3:TrackPointExtension>
        </extensions>
      </trkpt>
      <trkpt lat="44.71746347844600677490234375" lon="6.744513809680938720703125">
        <ele>1443.199951171875</ele>
        <time>2026-09-03T05:45:09.000Z</time>
        <extensions>
          <ns3:TrackPointExtension>
            <ns3:hr>121</ns3:hr>
            <ns3:cad>83</ns3:cad>
          </ns3:TrackPointExtension>
        </extensions>
      </trkpt>
      <trkpt lat="44.71746523864567279815673828125" lon="6.7445347644388675689697265625">
        <ele>1443</ele>
        <time>2026-09-03T05:45:10.000Z</time>
        <extensions>
          <ns3:TrackPointExtension>
            <ns3:hr>122</ns3:hr>
            <ns3:cad>84</ns3:cad>
          </ns3:TrackPointExtension>
        </extensions>
      </trkpt>
      <trkpt lat="44.71746641211211681365966796875" lon="6.7445562221109867095947265625">
        <ele>1443</ele>
        <time>2026-09-03T05:45:11.000Z</time>
        <extensions>
          <ns3:TrackPointExtension>
            <ns3:hr>122</ns3:hr>
            <ns3:cad>84</ns3:cad>
          </ns3:TrackPointExtension>
        </extensions>
      </trkpt>
      <trkpt lat="44.71746406517922878265380859375" lon="6.74458111636340618133544921875">
        <ele>1442.800048828125</ele>
        <time>2026-09-03T05:45:12.000Z</time>
        <extensions>
          <ns3:TrackPointExtension>
            <ns3:hr>123</ns3:hr>
            <ns3:cad>83</ns3:cad>
          </ns3:TrackPointExtension>
        </extensions>
      </trkpt>
      <trkpt lat="44.71746004186570644378662109375" lon="6.74461464397609233856201171875">
        <ele>1442.800048828125</ele>
        <time>2026-09-03T05:45:13.000Z</time>
        <extensions>
          <ns3:TrackPointExtension>
            <ns3:hr>123</ns3:hr>
            <ns3:cad>83</ns3:cad>
          </ns3:TrackPointExtension>
        </extensions>
      </trkpt>
      <trkpt lat="44.71745853312313556671142578125" lon="6.7446430586278438568115234375">
        <ele>1442.800048828125</ele>
        <time>2026-09-03T05:45:14.000Z</time>
        <extensions>
          <ns3:TrackPointExtension>
            <ns3:hr>123</ns3:hr>
            <ns3:cad>83</ns3:cad>
          </ns3:TrackPointExtension>
        </extensions>
      </trkpt>
      <trkpt lat="44.7174532525241374969482421875" lon="6.7446745745837688446044921875">
        <ele>1442.5999755859375</ele>
        <time>2026-09-03T05:45:15.000Z</time>
        <extensions>
          <ns3:TrackPointExtension>
            <ns3:hr>123</ns3:hr>
            <ns3:cad>83</ns3:cad>
          </ns3:TrackPointExtension>
        </extensions>
      </trkpt>
      <trkpt lat="44.7174482233822345733642578125" lon="6.74470315687358379364013671875">
        <ele>1442.4000244140625</ele>
        <time>2026-09-03T05:45:16.000Z</time>
        <extensions>
          <ns3:TrackPointExtension>
            <ns3:hr>123</ns3:hr>
            <ns3:cad>83</ns3:cad>
          </ns3:TrackPointExtension>
        </extensions>
      </trkpt>
      <trkpt lat="44.71744537353515625" lon="6.74473735503852367401123046875">
        <ele>1442.199951171875</ele>
        <time>2026-09-03T05:45:17.000Z</time>
        <extensions>
          <ns3:TrackPointExtension>
            <ns3:hr>123</ns3:hr>
            <ns3:cad>81</ns3:cad>
          </ns3:TrackPointExtension>
        </extensions>
      </trkpt>
      <trkpt lat="44.71743933856487274169921875" lon="6.74477255903184413909912109375">
        <ele>1442</ele>
        <time>2026-09-03T05:45:18.000Z</time>
        <extensions>
          <ns3:TrackPointExtension>
            <ns3:hr>123</ns3:hr>
            <ns3:cad>81</ns3:cad>
          </ns3:TrackPointExtension>
        </extensions>
      </trkpt>
      <trkpt lat="44.71743171103298664093017578125" lon="6.74480524845421314239501953125">
        <ele>1441.800048828125</ele>
        <time>2026-09-03T05:45:19.000Z</time>
        <extensions>
          <ns3:TrackPointExtension>
            <ns3:hr>124</ns3:hr>
            <ns3:cad>82</ns3:cad>
          </ns3:TrackPointExtension>
        </extensions>
      </trkpt>
      <trkpt lat="44.7174267657101154327392578125" lon="6.744835674762725830078125">
        <ele>1441.800048828125</ele>
        <time>2026-09-03T05:45:20.000Z</time>
        <extensions>
          <ns3:TrackPointExtension>
            <ns3:hr>124</ns3:hr>
            <ns3:cad>83</ns3:cad>
          </ns3:TrackPointExtension>
        </extensions>
      </trkpt>
      <trkpt lat="44.71741796471178531646728515625" lon="6.7448673583567142486572265625">
        <ele>1441.800048828125</ele>
        <time>2026-09-03T05:45:21.000Z</time>
        <extensions>
          <ns3:TrackPointExtension>
            <ns3:hr>125</ns3:hr>
            <ns3:cad>83</ns3:cad>
          </ns3:TrackPointExtension>
        </extensions>
      </trkpt>
      <trkpt lat="44.71741494722664356231689453125" lon="6.74489535391330718994140625">
        <ele>1441.5999755859375</ele>
        <time>2026-09-03T05:45:22.000Z</time>
        <extensions>
          <ns3:TrackPointExtension>
            <ns3:hr>125</ns3:hr>
            <ns3:cad>82</ns3:cad>
          </ns3:TrackPointExtension>
        </extensions>
      </trkpt>
      <trkpt lat="44.71741863526403903961181640625" lon="6.744931899011135101318359375">
        <ele>1441.4000244140625</ele>
        <time>2026-09-03T05:45:23.000Z</time>
        <extensions>
          <ns3:TrackPointExtension>
            <ns3:hr>125</ns3:hr>
            <ns3:cad>82</ns3:cad>
          </ns3:TrackPointExtension>
        </extensions>
      </trkpt>
      <trkpt lat="44.71741829998791217803955078125" lon="6.74496349878609180450439453125">
        <ele>1441</ele>
        <time>2026-09-03T05:45:24.000Z</time>
        <extensions>
          <ns3:TrackPointExtension>
            <ns3:hr>126</ns3:hr>
            <ns3:cad>82</ns3:cad>
          </ns3:TrackPointExtension>
        </extensions>
      </trkpt>
      <trkpt lat="44.71741746179759502410888671875" lon="6.74498730339109897613525390625">
        <ele>1440.800048828125</ele>
        <time>2026-09-03T05:45:25.000Z</time>
        <extensions>
          <ns3:TrackPointExtension>
            <ns3:hr>126</ns3:hr>
            <ns3:cad>82</ns3:cad>
          </ns3:TrackPointExtension>
        </extensions>
      </trkpt>
      <trkpt lat="44.71742056310176849365234375" lon="6.74501630477607250213623046875">
        <ele>1440.4000244140625</ele>
        <time>2026-09-03T05:45:26.000Z</time>
        <extensions>
          <ns3:TrackPointExtension>
            <ns3:hr>127</ns3:hr>
            <ns3:cad>82</ns3:cad>
          </ns3:TrackPointExtension>
        </extensions>
      </trkpt>
      <trkpt lat="44.717426598072052001953125" lon="6.74504153430461883544921875">
        <ele>1440.199951171875</ele>
        <time>2026-09-03T05:45:27.000Z</time>
        <extensions>
          <ns3:TrackPointExtension>
            <ns3:hr>127</ns3:hr>
            <ns3:cad>82</ns3:cad>
          </ns3:TrackPointExtension>
        </extensions>
      </trkpt>
      <trkpt lat="44.717429615557193756103515625" lon="6.74507313407957553863525390625">
        <ele>1440</ele>
        <time>2026-09-03T05:45:28.000Z</time>
        <extensions>
          <ns3:TrackPointExtension>
            <ns3:hr>128</ns3:hr>
            <ns3:cad>83</ns3:cad>
          </ns3:TrackPointExtension>
        </extensions>
      </trkpt>
      <trkpt lat="44.71742995083332061767578125" lon="6.74510129727423191070556640625">
        <ele>1439.800048828125</ele>
        <time>2026-09-03T05:45:29.000Z</time>
        <extensions>
          <ns3:TrackPointExtension>
            <ns3:hr>128</ns3:hr>
            <ns3:cad>84</ns3:cad>
          </ns3:TrackPointExtension>
        </extensions>
      </trkpt>
      <trkpt lat="44.71743355505168437957763671875" lon="6.7451271973550319671630859375">
        <ele>1439.4000244140625</ele>
        <time>2026-09-03T05:45:30.000Z</time>
        <extensions>
          <ns3:TrackPointExtension>
            <ns3:hr>128</ns3:hr>
            <ns3:cad>84</ns3:cad>
          </ns3:TrackPointExtension>
        </extensions>
      </trkpt>
      <trkpt lat="44.71744076348841190338134765625" lon="6.745162904262542724609375">
        <ele>1439.199951171875</ele>
        <time>2026-09-03T05:45:31.000Z</time>
        <extensions>
          <ns3:TrackPointExtension>
            <ns3:hr>128</ns3:hr>
            <ns3:cad>84</ns3:cad>
          </ns3:TrackPointExtension>
        </extensions>
      </trkpt>
      <trkpt lat="44.71744327805936336517333984375" lon="6.7451883852481842041015625">
        <ele>1438.800048828125</ele>
        <time>2026-09-03T05:45:32.000Z</time>
        <extensions>
          <ns3:TrackPointExtension>
            <ns3:hr>129</ns3:hr>
            <ns3:cad>82</ns3:cad>
          </ns3:TrackPointExtension>
        </extensions>
      </trkpt>
      <trkpt lat="44.71745249815285205841064453125" lon="6.745228953659534454345703125">
        <ele>1438.4000244140625</ele>
        <time>2026-09-03T05:45:33.000Z</time>
        <extensions>
          <ns3:TrackPointExtension>
            <ns3:hr>129</ns3:hr>
            <ns3:cad>82</ns3:cad>
          </ns3:TrackPointExtension>
        </extensions>
      </trkpt>
      <trkpt lat="44.71745585091412067413330078125" lon="6.7452608048915863037109375">
        <ele>1438</ele>
        <time>2026-09-03T05:45:34.000Z</time>
        <extensions>
          <ns3:TrackPointExtension>
            <ns3:hr>129</ns3:hr>
            <ns3:cad>83</ns3:cad>
          </ns3:TrackPointExtension>
        </extensions>
      </trkpt>
      <trkpt lat="44.71746808849275112152099609375" lon="6.7452914826571941375732421875">
        <ele>1437.5999755859375</ele>
        <time>2026-09-03T05:45:35.000Z</time>
        <extensions>
          <ns3:TrackPointExtension>
            <ns3:hr>130</ns3:hr>
            <ns3:cad>86</ns3:cad>
          </ns3:TrackPointExtension>
        </extensions>
      </trkpt>
      <trkpt lat="44.7174743749201297760009765625" lon="6.74532576464116573333740234375">
        <ele>1437.4000244140625</ele>
        <time>2026-09-03T05:45:36.000Z</time>
        <extensions>
          <ns3:TrackPointExtension>
            <ns3:hr>130</ns3:hr>
            <ns3:cad>86</ns3:cad>
          </ns3:TrackPointExtension>
        </extensions>
      </trkpt>
      <trkpt lat="44.71747864969074726104736328125" lon="6.745356023311614990234375">
        <ele>1437</ele>
        <time>2026-09-03T05:45:37.000Z</time>
        <extensions>
          <ns3:TrackPointExtension>
            <ns3:hr>130</ns3:hr>
            <ns3:cad>83</ns3:cad>
          </ns3:TrackPointExtension>
        </extensions>
      </trkpt>
      <trkpt lat="44.7174797393381595611572265625" lon="6.74539231695234775543212890625">
        <ele>1436.800048828125</ele>
        <time>2026-09-03T05:45:38.000Z</time>
        <extensions>
          <ns3:TrackPointExtension>
            <ns3:hr>131</ns3:hr>
            <ns3:cad>83</ns3:cad>
          </ns3:TrackPointExtension>
        </extensions>
      </trkpt>
      <trkpt lat="44.71747957170009613037109375" lon="6.74543623812496662139892578125">
        <ele>1436.5999755859375</ele>
        <time>2026-09-03T05:45:39.000Z</time>
        <extensions>
          <ns3:TrackPointExtension>
            <ns3:hr>131</ns3:hr>
            <ns3:cad>83</ns3:cad>
          </ns3:TrackPointExtension>
        </extensions>
      </trkpt>
      <trkpt lat="44.71748250536620616912841796875" lon="6.7454700171947479248046875">
        <ele>1436.4000244140625</ele>
        <time>2026-09-03T05:45:40.000Z</time>
        <extensions>
          <ns3:TrackPointExtension>
            <ns3:hr>132</ns3:hr>
            <ns3:cad>83</ns3:cad>
          </ns3:TrackPointExtension>
        </extensions>
      </trkpt>
      <trkpt lat="44.71748619340360164642333984375" lon="6.7455131001770496368408203125">
        <ele>1436</ele>
        <time>2026-09-03T05:45:41.000Z</time>
        <extensions>
          <ns3:TrackPointExtension>
            <ns3:hr>132</ns3:hr>
            <ns3:cad>83</ns3:cad>
          </ns3:TrackPointExtension>
        </extensions>
      </trkpt>
      <trkpt lat="44.7174911387264728546142578125" lon="6.7455439455807209014892578125">
        <ele>1435.800048828125</ele>
        <time>2026-09-03T05:45:42.000Z</time>
        <extensions>
          <ns3:TrackPointExtension>
            <ns3:hr>132</ns3:hr>
            <ns3:cad>83</ns3:cad>
          </ns3:TrackPointExtension>
        </extensions>
      </trkpt>
      <trkpt lat="44.71749700605869293212890625" lon="6.7455717734992504119873046875">
        <ele>1435.5999755859375</ele>
        <time>2026-09-03T05:45:43.000Z</time>
        <extensions>
          <ns3:TrackPointExtension>
            <ns3:hr>133</ns3:hr>
            <ns3:cad>82</ns3:cad>
          </ns3:TrackPointExtension>
        </extensions>
      </trkpt>
      <trkpt lat="44.71749977208673954010009765625" lon="6.74560069106519222259521484375">
        <ele>1435.4000244140625</ele>
        <time>2026-09-03T05:45:44.000Z</time>
        <extensions>
          <ns3:TrackPointExtension>
            <ns3:hr>133</ns3:hr>
            <ns3:cad>81</ns3:cad>
          </ns3:TrackPointExtension>
        </extensions>
      </trkpt>
      <trkpt lat="44.71750765107572078704833984375" lon="6.74562851898372173309326171875">
        <ele>1435</ele>
        <time>2026-09-03T05:45:45.000Z</time>
        <extensions>
          <ns3:TrackPointExtension>
            <ns3:hr>133</ns3:hr>
            <ns3:cad>81</ns3:cad>
          </ns3:TrackPointExtension>
        </extensions>
      </trkpt>
      <trkpt lat="44.71751578152179718017578125" lon="6.7456562630832195281982421875">
        <ele>1434.800048828125</ele>
        <time>2026-09-03T05:45:46.000Z</time>
        <extensions>
          <ns3:TrackPointExtension>
            <ns3:hr>134</ns3:hr>
            <ns3:cad>82</ns3:cad>
          </ns3:TrackPointExtension>
        </extensions>
      </trkpt>
      <trkpt lat="44.717526845633983612060546875" lon="6.74567696638405323028564453125">
        <ele>1434.5999755859375</ele>
        <time>2026-09-03T05:45:47.000Z</time>
        <extensions>
          <ns3:TrackPointExtension>
            <ns3:hr>134</ns3:hr>
            <ns3:cad>83</ns3:cad>
          </ns3:TrackPointExtension>
        </extensions>
      </trkpt>
      <trkpt lat="44.71753899939358234405517578125" lon="6.74568124115467071533203125">
        <ele>1434.199951171875</ele>
        <time>2026-09-03T05:45:48.000Z</time>
        <extensions>
          <ns3:TrackPointExtension>
            <ns3:hr>136</ns3:hr>
            <ns3:cad>83</ns3:cad>
          </ns3:TrackPointExtension>
        </extensions>
      </trkpt>
      <trkpt lat="44.71754905767738819122314453125" lon="6.7457018606364727020263671875">
        <ele>1433.800048828125</ele>
        <time>2026-09-03T05:45:49.000Z</time>
        <extensions>
          <ns3:TrackPointExtension>
            <ns3:hr>136</ns3:hr>
            <ns3:cad>83</ns3:cad>
          </ns3:TrackPointExtension>
        </extensions>
      </trkpt>
      <trkpt lat="44.71756003797054290771484375" lon="6.7457248270511627197265625">
        <ele>1433.4000244140625</ele>
        <time>2026-09-03T05:45:50.000Z</time>
        <extensions>
          <ns3:TrackPointExtension>
            <ns3:hr>136</ns3:hr>
            <ns3:cad>84</ns3:cad>
          </ns3:TrackPointExtension>
        </extensions>
      </trkpt>
      <trkpt lat="44.71757386811077594757080078125" lon="6.745762713253498077392578125">
        <ele>1433</ele>
        <time>2026-09-03T05:45:51.000Z</time>
        <extensions>
          <ns3:TrackPointExtension>
            <ns3:hr>136</ns3:hr>
            <ns3:cad>84</ns3:cad>
          </ns3:TrackPointExtension>
        </extensions>
      </trkpt>
      <trkpt lat="44.71758744679391384124755859375" lon="6.7457970790565013885498046875">
        <ele>1432.5999755859375</ele>
        <time>2026-09-03T05:45:52.000Z</time>
        <extensions>
          <ns3:TrackPointExtension>
            <ns3:hr>137</ns3:hr>
            <ns3:cad>84</ns3:cad>
          </ns3:TrackPointExtension>
        </extensions>
      </trkpt>
      <trkpt lat="44.71760622225701808929443359375" lon="6.745818369090557098388671875">
        <ele>1432</ele>
        <time>2026-09-03T05:45:53.000Z</time>
        <extensions>
          <ns3:TrackPointExtension>
            <ns3:hr>137</ns3:hr>
            <ns3:cad>85</ns3:cad>
          </ns3:TrackPointExtension>
        </extensions>
      </trkpt>
      <trkpt lat="44.71762164495885372161865234375" lon="6.745835803449153900146484375">
        <ele>1431.5999755859375</ele>
        <time>2026-09-03T05:45:54.000Z</time>
        <extensions>
          <ns3:TrackPointExtension>
            <ns3:hr>137</ns3:hr>
            <ns3:cad>85</ns3:cad>
          </ns3:TrackPointExtension>
        </extensions>
      </trkpt>
      <trkpt lat="44.7176344692707061767578125" lon="6.745845191180706024169921875">
        <ele>1431.4000244140625</ele>
        <time>2026-09-03T05:45:55.000Z</time>
        <extensions>
          <ns3:TrackPointExtension>
            <ns3:hr>137</ns3:hr>
            <ns3:cad>85</ns3:cad>
          </ns3:TrackPointExtension>
        </extensions>
      </trkpt>
      <trkpt lat="44.71764461137354373931884765625" lon="6.74585214816033840179443359375">
        <ele>1431</ele>
        <time>2026-09-03T05:45:56.000Z</time>
        <extensions>
          <ns3:TrackPointExtension>
            <ns3:hr>137</ns3:hr>
            <ns3:cad>85</ns3:cad>
          </ns3:TrackPointExtension>
        </extensions>
      </trkpt>
      <trkpt lat="44.7176574356853961944580078125" lon="6.74586421810090541839599609375">
        <ele>1430.800048828125</ele>
        <time>2026-09-03T05:45:57.000Z</time>
        <extensions>
          <ns3:TrackPointExtension>
            <ns3:hr>137</ns3:hr>
            <ns3:cad>81</ns3:cad>
          </ns3:TrackPointExtension>
        </extensions>
      </trkpt>
      <trkpt lat="44.7176654823124408721923828125" lon="6.74587612040340900421142578125">
        <ele>1430.5999755859375</ele>
        <time>2026-09-03T05:45:58.000Z</time>
        <extensions>
          <ns3:TrackPointExtension>
            <ns3:hr>136</ns3:hr>
            <ns3:cad>81</ns3:cad>
          </ns3:TrackPointExtension>
        </extensions>
      </trkpt>
      <trkpt lat="44.71767193637788295745849609375" lon="6.7458792217075824737548828125">
        <ele>1430.199951171875</ele>
        <time>2026-09-03T05:45:59.000Z</time>
        <extensions>
          <ns3:TrackPointExtension>
            <ns3:hr>135</ns3:hr>
            <ns3:cad>81</ns3:cad>
          </ns3:TrackPointExtension>
        </extensions>
      </trkpt>
      <trkpt lat="44.71767914481461048126220703125" lon="6.74588936381042003631591796875">
        <ele>1429.800048828125</ele>
        <time>2026-09-03T05:46:00.000Z</time>
        <extensions>
          <ns3:TrackPointExtension>
            <ns3:hr>135</ns3:hr>
            <ns3:cad>77</ns3:cad>
          </ns3:TrackPointExtension>
        </extensions>
      </trkpt>
      <trkpt lat="44.71768048591911792755126953125" lon="6.7458990029990673065185546875">
        <ele>1429.4000244140625</ele>
        <time>2026-09-03T05:46:01.000Z</time>
        <extensions>
          <ns3:TrackPointExtension>
            <ns3:hr>134</ns3:hr>
            <ns3:cad>77</ns3:cad>
          </ns3:TrackPointExtension>
        </extensions>
      </trkpt>
      <trkpt lat="44.717683084309101104736328125" lon="6.74591819755733013153076171875">
        <ele>1429</ele>
        <time>2026-09-03T05:46:02.000Z</time>
        <extensions>
          <ns3:TrackPointExtension>
            <ns3:hr>133</ns3:hr>
            <ns3:cad>77</ns3:cad>
          </ns3:TrackPointExtension>
        </extensions>
      </trkpt>
      <trkpt lat="44.717692472040653228759765625" lon="6.745948456227779388427734375">
        <ele>1428.4000244140625</ele>
        <time>2026-09-03T05:46:03.000Z</time>
        <extensions>
          <ns3:TrackPointExtension>
            <ns3:hr>133</ns3:hr>
            <ns3:cad>83</ns3:cad>
          </ns3:TrackPointExtension>
        </extensions>
      </trkpt>
      <trkpt lat="44.7177000157535076141357421875" lon="6.74598676152527332305908203125">
        <ele>1427.800048828125</ele>
        <time>2026-09-03T05:46:04.000Z</time>
        <extensions>
          <ns3:TrackPointExtension>
            <ns3:hr>132</ns3:hr>
            <ns3:cad>83</ns3:cad>
          </ns3:TrackPointExtension>
        </extensions>
      </trkpt>
      <trkpt lat="44.71771099604666233062744140625" lon="6.74602129496634006500244140625">
        <ele>1427.4000244140625</ele>
        <time>2026-09-03T05:46:05.000Z</time>
        <extensions>
          <ns3:TrackPointExtension>
            <ns3:hr>132</ns3:hr>
            <ns3:cad>83</ns3:cad>
          </ns3:TrackPointExtension>
        </extensions>
      </trkpt>
      <trkpt lat="44.71771501936018466949462890625" lon="6.746048368513584136962890625">
        <ele>1427</ele>
        <time>2026-09-03T05:46:06.000Z</time>
        <extensions>
          <ns3:TrackPointExtension>
            <ns3:hr>132</ns3:hr>
            <ns3:cad>86</ns3:cad>
          </ns3:TrackPointExtension>
        </extensions>
      </trkpt>
      <trkpt lat="44.71771828830242156982421875" lon="6.7460864223539829254150390625">
        <ele>1426.5999755859375</ele>
        <time>2026-09-03T05:46:07.000Z</time>
        <extensions>
          <ns3:TrackPointExtension>
            <ns3:hr>131</ns3:hr>
            <ns3:cad>89</ns3:cad>
          </ns3:TrackPointExtension>
        </extensions>
      </trkpt>
      <trkpt lat="44.7177238203585147857666015625" lon="6.74612958915531635284423828125">
        <ele>1426.199951171875</ele>
        <time>2026-09-03T05:46:08.000Z</time>
        <extensions>
          <ns3:TrackPointExtension>
            <ns3:hr>131</ns3:hr>
            <ns3:cad>89</ns3:cad>
          </ns3:TrackPointExtension>
        </extensions>
      </trkpt>
      <trkpt lat="44.71772591583430767059326171875" lon="6.74616873264312744140625">
        <ele>1426</ele>
        <time>2026-09-03T05:46:09.000Z</time>
        <extensions>
          <ns3:TrackPointExtension>
            <ns3:hr>131</ns3:hr>
            <ns3:cad>89</ns3:cad>
          </ns3:TrackPointExtension>
        </extensions>
      </trkpt>
      <trkpt lat="44.717721976339817047119140625" lon="6.74621365964412689208984375">
        <ele>1425.800048828125</ele>
        <time>2026-09-03T05:46:10.000Z</time>
        <extensions>
          <ns3:TrackPointExtension>
            <ns3:hr>131</ns3:hr>
            <ns3:cad>85</ns3:cad>
          </ns3:TrackPointExtension>
        </extensions>
      </trkpt>
      <trkpt lat="44.71771837212145328521728515625" lon="6.7462480254471302032470703125">
        <ele>1425.4000244140625</ele>
        <time>2026-09-03T05:46:11.000Z</time>
        <extensions>
          <ns3:TrackPointExtension>
            <ns3:hr>132</ns3:hr>
            <ns3:cad>84</ns3:cad>
          </ns3:TrackPointExtension>
        </extensions>
      </trkpt>
      <trkpt lat="44.7177218087017536163330078125" lon="6.74627912230789661407470703125">
        <ele>1425.199951171875</ele>
        <time>2026-09-03T05:46:12.000Z</time>
        <extensions>
          <ns3:TrackPointExtension>
            <ns3:hr>132</ns3:hr>
            <ns3:cad>83</ns3:cad>
          </ns3:TrackPointExtension>
        </extensions>
      </trkpt>
      <trkpt lat="44.71772189252078533172607421875" lon="6.7463160865008831024169921875">
        <ele>1425</ele>
        <time>2026-09-03T05:46:13.000Z</time>
        <extensions>
          <ns3:TrackPointExtension>
            <ns3:hr>132</ns3:hr>
            <ns3:cad>82</ns3:cad>
          </ns3:TrackPointExtension>
        </extensions>
      </trkpt>
      <trkpt lat="44.71772407181560993194580078125" lon="6.74634701572358608245849609375">
        <ele>1424.800048828125</ele>
        <time>2026-09-03T05:46:14.000Z</time>
        <extensions>
          <ns3:TrackPointExtension>
            <ns3:hr>132</ns3:hr>
            <ns3:cad>82</ns3:cad>
          </ns3:TrackPointExtension>
        </extensions>
      </trkpt>
      <trkpt lat="44.71773362718522548675537109375" lon="6.746375598013401031494140625">
        <ele>1424.199951171875</ele>
        <time>2026-09-03T05:46:15.000Z</time>
        <extensions>
          <ns3:TrackPointExtension>
            <ns3:hr>132</ns3:hr>
            <ns3:cad>82</ns3:cad>
          </ns3:TrackPointExtension>
        </extensions>
      </trkpt>
      <trkpt lat="44.71774033270776271820068359375" lon="6.7464062757790088653564453125">
        <ele>1423.800048828125</ele>
        <time>2026-09-03T05:46:16.000Z</time>
        <extensions>
          <ns3:TrackPointExtension>
            <ns3:hr>131</ns3:hr>
            <ns3:cad>82</ns3:cad>
          </ns3:TrackPointExtension>
        </extensions>
      </trkpt>
      <trkpt lat="44.71774854697287082672119140625" lon="6.74643653444945812225341796875">
        <ele>1423.4000244140625</ele>
        <time>2026-09-03T05:46:17.000Z</time>
        <extensions>
          <ns3:TrackPointExtension>
            <ns3:hr>130</ns3:hr>
            <ns3:cad>82</ns3:cad>
          </ns3:TrackPointExtension>
        </extensions>
      </trkpt>
      <trkpt lat="44.71775625832378864288330078125" lon="6.74646318890154361724853515625">
        <ele>1423</ele>
        <time>2026-09-03T05:46:18.000Z</time>
        <extensions>
          <ns3:TrackPointExtension>
            <ns3:hr>130</ns3:hr>
            <ns3:cad>82</ns3:cad>
          </ns3:TrackPointExtension>
        </extensions>
      </trkpt>
      <trkpt lat="44.71776480786502361297607421875" lon="6.74648414365947246551513671875">
        <ele>1422.5999755859375</ele>
        <time>2026-09-03T05:46:19.000Z</time>
        <extensions>
          <ns3:TrackPointExtension>
            <ns3:hr>130</ns3:hr>
            <ns3:cad>82</ns3:cad>
          </ns3:TrackPointExtension>
        </extensions>
      </trkpt>
      <trkpt lat="44.71777905710041522979736328125" lon="6.7465189285576343536376953125">
        <ele>1422.199951171875</ele>
        <time>2026-09-03T05:46:20.000Z</time>
        <extensions>
          <ns3:TrackPointExtension>
            <ns3:hr>129</ns3:hr>
            <ns3:cad>83</ns3:cad>
          </ns3:TrackPointExtension>
        </extensions>
      </trkpt>
      <trkpt lat="44.7177861817181110382080078125" lon="6.746546588838100433349609375">
        <ele>1421.800048828125</ele>
        <time>2026-09-03T05:46:21.000Z</time>
        <extensions>
          <ns3:TrackPointExtension>
            <ns3:hr>129</ns3:hr>
            <ns3:cad>83</ns3:cad>
          </ns3:TrackPointExtension>
        </extensions>
      </trkpt>
      <trkpt lat="44.717795737087726593017578125" lon="6.746572069823741912841796875">
        <ele>1421.4000244140625</ele>
        <time>2026-09-03T05:46:22.000Z</time>
        <extensions>
          <ns3:TrackPointExtension>
            <ns3:hr>129</ns3:hr>
            <ns3:cad>84</ns3:cad>
          </ns3:TrackPointExtension>
        </extensions>
      </trkpt>
      <trkpt lat="44.7178034484386444091796875" lon="6.7466004006564617156982421875">
        <ele>1421</ele>
        <time>2026-09-03T05:46:23.000Z</time>
        <extensions>
          <ns3:TrackPointExtension>
            <ns3:hr>128</ns3:hr>
            <ns3:cad>84</ns3:cad>
          </ns3:TrackPointExtension>
        </extensions>
      </trkpt>
      <trkpt lat="44.7178136743605136871337890625" lon="6.7466302402317523956298828125">
        <ele>1420.5999755859375</ele>
        <time>2026-09-03T05:46:24.000Z</time>
        <extensions>
          <ns3:TrackPointExtension>
            <ns3:hr>129</ns3:hr>
            <ns3:cad>83</ns3:cad>
          </ns3:TrackPointExtension>
        </extensions>
      </trkpt>
      <trkpt lat="44.7178275883197784423828125" lon="6.74666318111121654510498046875">
        <ele>1420.199951171875</ele>
        <time>2026-09-03T05:46:25.000Z</time>
        <extensions>
          <ns3:TrackPointExtension>
            <ns3:hr>129</ns3:hr>
            <ns3:cad>83</ns3:cad>
          </ns3:TrackPointExtension>
        </extensions>
      </trkpt>
      <trkpt lat="44.71784091554582118988037109375" lon="6.74668841063976287841796875">
        <ele>1420</ele>
        <time>2026-09-03T05:46:26.000Z</time>
        <extensions>
          <ns3:TrackPointExtension>
            <ns3:hr>130</ns3:hr>
            <ns3:cad>84</ns3:cad>
          </ns3:TrackPointExtension>
        </extensions>
      </trkpt>
      <trkpt lat="44.71784703433513641357421875" lon="6.7467180825769901275634765625">
        <ele>1419.5999755859375</ele>
        <time>2026-09-03T05:46:27.000Z</time>
        <extensions>
          <ns3:TrackPointExtension>
            <ns3:hr>130</ns3:hr>
            <ns3:cad>84</ns3:cad>
          </ns3:TrackPointExtension>
        </extensions>
      </trkpt>
      <trkpt lat="44.71785985864698886871337890625" lon="6.7467640154063701629638671875">
        <ele>1419.4000244140625</ele>
        <time>2026-09-03T05:46:28.000Z</time>
        <extensions>
          <ns3:TrackPointExtension>
            <ns3:hr>130</ns3:hr>
            <ns3:cad>84</ns3:cad>
          </ns3:TrackPointExtension>
        </extensions>
      </trkpt>
      <trkpt lat="44.7178693301975727081298828125" lon="6.74679025076329708099365234375">
        <ele>1419</ele>
        <time>2026-09-03T05:46:29.000Z</time>
        <extensions>
          <ns3:TrackPointExtension>
            <ns3:hr>130</ns3:hr>
            <ns3:cad>84</ns3:cad>
          </ns3:TrackPointExtension>
        </extensions>
      </trkpt>
      <trkpt lat="44.7178814001381397247314453125" lon="6.74682696349918842315673828125">
        <ele>1418.800048828125</ele>
        <time>2026-09-03T05:46:30.000Z</time>
        <extensions>
          <ns3:TrackPointExtension>
            <ns3:hr>130</ns3:hr>
            <ns3:cad>83</ns3:cad>
          </ns3:TrackPointExtension>
        </extensions>
      </trkpt>
      <trkpt lat="44.71789808012545108795166015625" lon="6.74685613252222537994384765625">
        <ele>1418.5999755859375</ele>
        <time>2026-09-03T05:46:31.000Z</time>
        <extensions>
          <ns3:TrackPointExtension>
            <ns3:hr>130</ns3:hr>
            <ns3:cad>82</ns3:cad>
          </ns3:TrackPointExtension>
        </extensions>
      </trkpt>
      <trkpt lat="44.71790746785700321197509765625" lon="6.746878512203693389892578125">
        <ele>1418.199951171875</ele>
        <time>2026-09-03T05:46:32.000Z</time>
        <extensions>
          <ns3:TrackPointExtension>
            <ns3:hr>131</ns3:hr>
            <ns3:cad>81</ns3:cad>
          </ns3:TrackPointExtension>
        </extensions>
      </trkpt>
      <trkpt lat="44.71792624332010746002197265625" lon="6.74691396765410900115966796875">
        <ele>1418</ele>
        <time>2026-09-03T05:46:33.000Z</time>
        <extensions>
          <ns3:TrackPointExtension>
            <ns3:hr>131</ns3:hr>
            <ns3:cad>81</ns3:cad>
          </ns3:TrackPointExtension>
        </extensions>
      </trkpt>
      <trkpt lat="44.71794937737286090850830078125" lon="6.746938191354274749755859375">
        <ele>1417.800048828125</ele>
        <time>2026-09-03T05:46:34.000Z</time>
        <extensions>
          <ns3:TrackPointExtension>
            <ns3:hr>132</ns3:hr>
            <ns3:cad>82</ns3:cad>
          </ns3:TrackPointExtension>
        </extensions>
      </trkpt>
      <trkpt lat="44.7179689072072505950927734375" lon="6.74698253162205219268798828125">
        <ele>1417.4000244140625</ele>
        <time>2026-09-03T05:46:35.000Z</time>
        <extensions>
          <ns3:TrackPointExtension>
            <ns3:hr>132</ns3:hr>
            <ns3:cad>82</ns3:cad>
          </ns3:TrackPointExtension>
        </extensions>
      </trkpt>
      <trkpt lat="44.71798893995583057403564453125" lon="6.7470201663672924041748046875">
        <ele>1417.199951171875</ele>
        <time>2026-09-03T05:46:36.000Z</time>
        <extensions>
          <ns3:TrackPointExtension>
            <ns3:hr>132</ns3:hr>
            <ns3:cad>82</ns3:cad>
          </ns3:TrackPointExtension>
        </extensions>
      </trkpt>
      <trkpt lat="44.71800168044865131378173828125" lon="6.74704757519066333770751953125">
        <ele>1417</ele>
        <time>2026-09-03T05:46:37.000Z</time>
        <extensions>
          <ns3:TrackPointExtension>
            <ns3:hr>132</ns3:hr>
            <ns3:cad>83</ns3:cad>
          </ns3:TrackPointExtension>
        </extensions>
      </trkpt>
      <trkpt lat="44.718023054301738739013671875" lon="6.74708428792655467987060546875">
        <ele>1416.800048828125</ele>
        <time>2026-09-03T05:46:38.000Z</time>
        <extensions>
          <ns3:TrackPointExtension>
            <ns3:hr>131</ns3:hr>
            <ns3:cad>83</ns3:cad>
          </ns3:TrackPointExtension>
        </extensions>
      </trkpt>
      <trkpt lat="44.71802850253880023956298828125" lon="6.74711999483406543731689453125">
        <ele>1416.5999755859375</ele>
        <time>2026-09-03T05:46:39.000Z</time>
        <extensions>
          <ns3:TrackPointExtension>
            <ns3:hr>132</ns3:hr>
            <ns3:cad>83</ns3:cad>
          </ns3:TrackPointExtension>
        </extensions>
      </trkpt>
      <trkpt lat="44.71803906373679637908935546875" lon="6.7471542768180370330810546875">
        <ele>1416.199951171875</ele>
        <time>2026-09-03T05:46:40.000Z</time>
        <extensions>
          <ns3:TrackPointExtension>
            <ns3:hr>133</ns3:hr>
            <ns3:cad>83</ns3:cad>
          </ns3:TrackPointExtension>
        </extensions>
      </trkpt>
      <trkpt lat="44.71804928965866565704345703125" lon="6.7471921630203723907470703125">
        <ele>1416</ele>
        <time>2026-09-03T05:46:41.000Z</time>
        <extensions>
          <ns3:TrackPointExtension>
            <ns3:hr>133</ns3:hr>
            <ns3:cad>83</ns3:cad>
          </ns3:TrackPointExtension>
        </extensions>
      </trkpt>
      <trkpt lat="44.71805582754313945770263671875" lon="6.747220493853092193603515625">
        <ele>1415.800048828125</ele>
        <time>2026-09-03T05:46:42.000Z</time>
        <extensions>
          <ns3:TrackPointExtension>
            <ns3:hr>133</ns3:hr>
            <ns3:cad>83</ns3:cad>
          </ns3:TrackPointExtension>
        </extensions>
      </trkpt>
      <trkpt lat="44.7180601023137569427490234375" lon="6.74726332537829875946044921875">
        <ele>1415.4000244140625</ele>
        <time>2026-09-03T05:46:43.000Z</time>
        <extensions>
          <ns3:TrackPointExtension>
            <ns3:hr>134</ns3:hr>
            <ns3:cad>83</ns3:cad>
          </ns3:TrackPointExtension>
        </extensions>
      </trkpt>
      <trkpt lat="44.7180637903511524200439453125" lon="6.74729995429515838623046875">
        <ele>1415.199951171875</ele>
        <time>2026-09-03T05:46:44.000Z</time>
        <extensions>
          <ns3:TrackPointExtension>
            <ns3:hr>134</ns3:hr>
            <ns3:cad>83</ns3:cad>
          </ns3:TrackPointExtension>
        </extensions>
      </trkpt>
      <trkpt lat="44.7180627845227718353271484375" lon="6.7473339848220348358154296875">
        <ele>1415</ele>
        <time>2026-09-03T05:46:45.000Z</time>
        <extensions>
          <ns3:TrackPointExtension>
            <ns3:hr>134</ns3:hr>
            <ns3:cad>83</ns3:cad>
          </ns3:TrackPointExtension>
        </extensions>
      </trkpt>
      <trkpt lat="44.7180658020079135894775390625" lon="6.74736457876861095428466796875">
        <ele>1414.800048828125</ele>
        <time>2026-09-03T05:46:46.000Z</time>
        <extensions>
          <ns3:TrackPointExtension>
            <ns3:hr>134</ns3:hr>
            <ns3:cad>84</ns3:cad>
          </ns3:TrackPointExtension>
        </extensions>
      </trkpt>
      <trkpt lat="44.7180674783885478973388671875" lon="6.74738578498363494873046875">
        <ele>1414.800048828125</ele>
        <time>2026-09-03T05:46:47.000Z</time>
        <extensions>
          <ns3:TrackPointExtension>
            <ns3:hr>135</ns3:hr>
            <ns3:cad>84</ns3:cad>
          </ns3:TrackPointExtension>
        </extensions>
      </trkpt>
      <trkpt lat="44.71806052140891551971435546875" lon="6.74740632064640522003173828125">
        <ele>1414.5999755859375</ele>
        <time>2026-09-03T05:46:48.000Z</time>
        <extensions>
          <ns3:TrackPointExtension>
            <ns3:hr>135</ns3:hr>
            <ns3:cad>84</ns3:cad>
          </ns3:TrackPointExtension>
        </extensions>
      </trkpt>
      <trkpt lat="44.71805046312510967254638671875" lon="6.747434400022029876708984375">
        <ele>1414.5999755859375</ele>
        <time>2026-09-03T05:46:49.000Z</time>
        <extensions>
          <ns3:TrackPointExtension>
            <ns3:hr>135</ns3:hr>
            <ns3:cad>83</ns3:cad>
          </ns3:TrackPointExtension>
        </extensions>
      </trkpt>
      <trkpt lat="44.71804015338420867919921875" lon="6.747457198798656463623046875">
        <ele>1414.4000244140625</ele>
        <time>2026-09-03T05:46:50.000Z</time>
        <extensions>
          <ns3:TrackPointExtension>
            <ns3:hr>135</ns3:hr>
            <ns3:cad>83</ns3:cad>
          </ns3:TrackPointExtension>
        </extensions>
      </trkpt>
      <trkpt lat="44.718032442033290863037109375" lon="6.747484691441059112548828125">
        <ele>1414.199951171875</ele>
        <time>2026-09-03T05:46:51.000Z</time>
        <extensions>
          <ns3:TrackPointExtension>
            <ns3:hr>136</ns3:hr>
            <ns3:cad>83</ns3:cad>
          </ns3:TrackPointExtension>
        </extensions>
      </trkpt>
      <trkpt lat="44.71802062354981899261474609375" lon="6.7475192248821258544921875">
        <ele>1414</ele>
        <time>2026-09-03T05:46:52.000Z</time>
        <extensions>
          <ns3:TrackPointExtension>
            <ns3:hr>136</ns3:hr>
            <ns3:cad>83</ns3:cad>
          </ns3:TrackPointExtension>
        </extensions>
      </trkpt>
      <trkpt lat="44.71801458857953548431396484375" lon="6.74754537642002105712890625">
        <ele>1414</ele>
        <time>2026-09-03T05:46:53.000Z</time>
        <extensions>
          <ns3:TrackPointExtension>
            <ns3:hr>136</ns3:hr>
            <ns3:cad>83</ns3:cad>
          </ns3:TrackPointExtension>
        </extensions>
      </trkpt>
      <trkpt lat="44.71800318919122219085693359375" lon="6.74757890403270721435546875">
        <ele>1413.800048828125</ele>
        <time>2026-09-03T05:46:54.000Z</time>
        <extensions>
          <ns3:TrackPointExtension>
            <ns3:hr>136</ns3:hr>
            <ns3:cad>83</ns3:cad>
          </ns3:TrackPointExtension>
        </extensions>
      </trkpt>
      <trkpt lat="44.71799279563128948211669921875" lon="6.747609078884124755859375">
        <ele>1413.5999755859375</ele>
        <time>2026-09-03T05:46:55.000Z</time>
        <extensions>
          <ns3:TrackPointExtension>
            <ns3:hr>136</ns3:hr>
            <ns3:cad>83</ns3:cad>
          </ns3:TrackPointExtension>
        </extensions>
      </trkpt>
      <trkpt lat="44.71798575483262538909912109375" lon="6.74764084629714488983154296875">
        <ele>1413.5999755859375</ele>
        <time>2026-09-03T05:46:56.000Z</time>
        <extensions>
          <ns3:TrackPointExtension>
            <ns3:hr>136</ns3:hr>
            <ns3:cad>82</ns3:cad>
          </ns3:TrackPointExtension>
        </extensions>
      </trkpt>
      <trkpt lat="44.71797519363462924957275390625" lon="6.7476813308894634246826171875">
        <ele>1413.4000244140625</ele>
        <time>2026-09-03T05:46:57.000Z</time>
        <extensions>
          <ns3:TrackPointExtension>
            <ns3:hr>136</ns3:hr>
            <ns3:cad>82</ns3:cad>
          </ns3:TrackPointExtension>
        </extensions>
      </trkpt>
      <trkpt lat="44.71796614117920398712158203125" lon="6.74771125428378582000732421875">
        <ele>1413.199951171875</ele>
        <time>2026-09-03T05:46:58.000Z</time>
        <extensions>
          <ns3:TrackPointExtension>
            <ns3:hr>136</ns3:hr>
            <ns3:cad>82</ns3:cad>
          </ns3:TrackPointExtension>
        </extensions>
      </trkpt>
      <trkpt lat="44.7179538197815418243408203125" lon="6.74775366671383380889892578125">
        <ele>1413</ele>
        <time>2026-09-03T05:46:59.000Z</time>
        <extensions>
          <ns3:TrackPointExtension>
            <ns3:hr>137</ns3:hr>
            <ns3:cad>82</ns3:cad>
          </ns3:TrackPointExtension>
        </extensions>
      </trkpt>
      <trkpt lat="44.7179437614977359771728515625" lon="6.7477886192500591278076171875">
        <ele>1412.800048828125</ele>
        <time>2026-09-03T05:47:00.000Z</time>
        <extensions>
          <ns3:TrackPointExtension>
            <ns3:hr>137</ns3:hr>
            <ns3:cad>82</ns3:cad>
          </ns3:TrackPointExtension>
        </extensions>
      </trkpt>
      <trkpt lat="44.717934541404247283935546875" lon="6.747817955911159515380859375">
        <ele>1412.5999755859375</ele>
        <time>2026-09-03T05:47:01.000Z</time>
        <extensions>
          <ns3:TrackPointExtension>
            <ns3:hr>137</ns3:hr>
            <ns3:cad>82</ns3:cad>
          </ns3:TrackPointExtension>
        </extensions>
      </trkpt>
      <trkpt lat="44.71792842261493206024169921875" lon="6.74783932976424694061279296875">
        <ele>1412.4000244140625</ele>
        <time>2026-09-03T05:47:02.000Z</time>
        <extensions>
          <ns3:TrackPointExtension>
            <ns3:hr>137</ns3:hr>
            <ns3:cad>81</ns3:cad>
          </ns3:TrackPointExtension>
        </extensions>
      </trkpt>
      <trkpt lat="44.71792540512979030609130859375" lon="6.74785810522735118865966796875">
        <ele>1412.199951171875</ele>
        <time>2026-09-03T05:47:03.000Z</time>
        <extensions>
          <ns3:TrackPointExtension>
            <ns3:hr>137</ns3:hr>
            <ns3:cad>81</ns3:cad>
          </ns3:TrackPointExtension>
        </extensions>
      </trkpt>
      <trkpt lat="44.7179202921688556671142578125" lon="6.74787637777626514434814453125">
        <ele>1412</ele>
        <time>2026-09-03T05:47:04.000Z</time>
        <extensions>
          <ns3:TrackPointExtension>
            <ns3:hr>137</ns3:hr>
            <ns3:cad>81</ns3:cad>
          </ns3:TrackPointExtension>
        </extensions>
      </trkpt>
      <trkpt lat="44.71791517920792102813720703125" lon="6.74789783544838428497314453125">
        <ele>1411.800048828125</ele>
        <time>2026-09-03T05:47:05.000Z</time>
        <extensions>
          <ns3:TrackPointExtension>
            <ns3:hr>137</ns3:hr>
            <ns3:cad>81</ns3:cad>
          </ns3:TrackPointExtension>
        </extensions>
      </trkpt>
      <trkpt lat="44.71790579147636890411376953125" lon="6.747913844883441925048828125">
        <ele>1411.5999755859375</ele>
        <time>2026-09-03T05:47:06.000Z</time>
        <extensions>
          <ns3:TrackPointExtension>
            <ns3:hr>137</ns3:hr>
            <ns3:cad>81</ns3:cad>
          </ns3:TrackPointExtension>
        </extensions>
      </trkpt>
      <trkpt lat="44.7178927995264530181884765625" lon="6.74793270416557788848876953125">
        <ele>1411.5999755859375</ele>
        <time>2026-09-03T05:47:07.000Z</time>
        <extensions>
          <ns3:TrackPointExtension>
            <ns3:hr>137</ns3:hr>
            <ns3:cad>70</ns3:cad>
          </ns3:TrackPointExtension>
        </extensions>
      </trkpt>
      <trkpt lat="44.71788148395717144012451171875" lon="6.7479438520967960357666015625">
        <ele>1411.4000244140625</ele>
        <time>2026-09-03T05:47:08.000Z</time>
        <extensions>
          <ns3:TrackPointExtension>
            <ns3:hr>138</ns3:hr>
            <ns3:cad>67</ns3:cad>
          </ns3:TrackPointExtension>
        </extensions>
      </trkpt>
      <trkpt lat="44.71786715090274810791015625" lon="6.7479525692760944366455078125">
        <ele>1411.199951171875</ele>
        <time>2026-09-03T05:47:09.000Z</time>
        <extensions>
          <ns3:TrackPointExtension>
            <ns3:hr>137</ns3:hr>
            <ns3:cad>65</ns3:cad>
          </ns3:TrackPointExtension>
        </extensions>
      </trkpt>
      <trkpt lat="44.7178575955331325531005859375" lon="6.747961454093456268310546875">
        <ele>1411</ele>
        <time>2026-09-03T05:47:10.000Z</time>
        <extensions>
          <ns3:TrackPointExtension>
            <ns3:hr>137</ns3:hr>
            <ns3:cad>63</ns3:cad>
          </ns3:TrackPointExtension>
        </extensions>
      </trkpt>
      <trkpt lat="44.71784745343029499053955078125" lon="6.74797452986240386962890625">
        <ele>1411</ele>
        <time>2026-09-03T05:47:11.000Z</time>
        <extensions>
          <ns3:TrackPointExtension>
            <ns3:hr>136</ns3:hr>
            <ns3:cad>63</ns3:cad>
          </ns3:TrackPointExtension>
        </extensions>
      </trkpt>
      <trkpt lat="44.71783940680325031280517578125" lon="6.74798903055489063262939453125">
        <ele>1411</ele>
        <time>2026-09-03T05:47:12.000Z</time>
        <extensions>
          <ns3:TrackPointExtension>
            <ns3:hr>136</ns3:hr>
            <ns3:cad>63</ns3:cad>
          </ns3:TrackPointExtension>
        </extensions>
      </trkpt>
      <trkpt lat="44.71783152781426906585693359375" lon="6.748000681400299072265625">
        <ele>1411</ele>
        <time>2026-09-03T05:47:13.000Z</time>
        <extensions>
          <ns3:TrackPointExtension>
            <ns3:hr>136</ns3:hr>
            <ns3:cad>65</ns3:cad>
          </ns3:TrackPointExtension>
        </extensions>
      </trkpt>
      <trkpt lat="44.717827923595905303955078125" lon="6.74800403416156768798828125">
        <ele>1411</ele>
        <time>2026-09-03T05:47:14.000Z</time>
        <extensions>
          <ns3:TrackPointExtension>
            <ns3:hr>135</ns3:hr>
            <ns3:cad>65</ns3:cad>
          </ns3:TrackPointExtension>
        </extensions>
      </trkpt>
      <trkpt lat="44.7178287617862224578857421875" lon="6.7480058781802654266357421875">
        <ele>1411</ele>
        <time>2026-09-03T05:47:15.000Z</time>
        <extensions>
          <ns3:TrackPointExtension>
            <ns3:hr>135</ns3:hr>
            <ns3:cad>63</ns3:cad>
          </ns3:TrackPointExtension>
        </extensions>
      </trkpt>
      <trkpt lat="44.71783253364264965057373046875" lon="6.74800042994320392608642578125">
        <ele>1410.800048828125</ele>
        <time>2026-09-03T05:47:16.000Z</time>
        <extensions>
          <ns3:TrackPointExtension>
            <ns3:hr>134</ns3:hr>
            <ns3:cad>0</ns3:cad>
          </ns3:TrackPointExtension>
        </extensions>
      </trkpt>
      <trkpt lat="44.71783588640391826629638671875" lon="6.74799221567809581756591796875">
        <ele>1410.800048828125</ele>
        <time>2026-09-03T05:47:17.000Z</time>
        <extensions>
          <ns3:TrackPointExtension>
            <ns3:hr>134</ns3:hr>
            <ns3:cad>0</ns3:cad>
          </ns3:TrackPointExtension>
        </extensions>
      </trkpt>
      <trkpt lat="44.71784259192645549774169921875" lon="6.747980229556560516357421875">
        <ele>1410.5999755859375</ele>
        <time>2026-09-03T05:47:18.000Z</time>
        <extensions>
          <ns3:TrackPointExtension>
            <ns3:hr>133</ns3:hr>
            <ns3:cad>0</ns3:cad>
          </ns3:TrackPointExtension>
        </extensions>
      </trkpt>
      <trkpt lat="44.71784661523997783660888671875" lon="6.74796782433986663818359375">
        <ele>1410.5999755859375</ele>
        <time>2026-09-03T05:47:19.000Z</time>
        <extensions>
          <ns3:TrackPointExtension>
            <ns3:hr>133</ns3:hr>
            <ns3:cad>57</ns3:cad>
          </ns3:TrackPointExtension>
        </extensions>
      </trkpt>
      <trkpt lat="44.717849381268024444580078125" lon="6.74795164726674556732177734375">
        <ele>1410.4000244140625</ele>
        <time>2026-09-03T05:47:20.000Z</time>
        <extensions>
          <ns3:TrackPointExtension>
            <ns3:hr>132</ns3:hr>
            <ns3:cad>57</ns3:cad>
          </ns3:TrackPointExtension>
        </extensions>
      </trkpt>
      <trkpt lat="44.71785432659089565277099609375" lon="6.7479297704994678497314453125">
        <ele>1410.4000244140625</ele>
        <time>2026-09-03T05:47:21.000Z</time>
        <extensions>
          <ns3:TrackPointExtension>
            <ns3:hr>132</ns3:hr>
            <ns3:cad>57</ns3:cad>
          </ns3:TrackPointExtension>
        </extensions>
      </trkpt>
      <trkpt lat="44.7178589366376399993896484375" lon="6.74790789373219013214111328125">
        <ele>1410.4000244140625</ele>
        <time>2026-09-03T05:47:22.000Z</time>
        <extensions>
          <ns3:TrackPointExtension>
            <ns3:hr>131</ns3:hr>
            <ns3:cad>57</ns3:cad>
          </ns3:TrackPointExtension>
        </extensions>
      </trkpt>
      <trkpt lat="44.71786203794181346893310546875" lon="6.7478922195732593536376953125">
        <ele>1410.4000244140625</ele>
        <time>2026-09-03T05:47:23.000Z</time>
        <extensions>
          <ns3:TrackPointExtension>
            <ns3:hr>131</ns3:hr>
            <ns3:cad>59</ns3:cad>
          </ns3:TrackPointExtension>
        </extensions>
      </trkpt>
      <trkpt lat="44.717863462865352630615234375" lon="6.74787671305239200592041015625">
        <ele>1410.199951171875</ele>
        <time>2026-09-03T05:47:24.000Z</time>
        <extensions>
          <ns3:TrackPointExtension>
            <ns3:hr>130</ns3:hr>
            <ns3:cad>60</ns3:cad>
          </ns3:TrackPointExtension>
        </extensions>
      </trkpt>
      <trkpt lat="44.71786580979824066162109375" lon="6.74786196090281009674072265625">
        <ele>1410</ele>
        <time>2026-09-03T05:47:25.000Z</time>
        <extensions>
          <ns3:TrackPointExtension>
            <ns3:hr>130</ns3:hr>
            <ns3:cad>61</ns3:cad>
          </ns3:TrackPointExtension>
        </extensions>
      </trkpt>
      <trkpt lat="44.7178710065782070159912109375" lon="6.7478409223258495330810546875">
        <ele>1409.800048828125</ele>
        <time>2026-09-03T05:47:26.000Z</time>
        <extensions>
          <ns3:TrackPointExtension>
            <ns3:hr>129</ns3:hr>
            <ns3:cad>61</ns3:cad>
          </ns3:TrackPointExtension>
        </extensions>
      </trkpt>
      <trkpt lat="44.71787712536752223968505859375" lon="6.74782273359596729278564453125">
        <ele>1409.800048828125</ele>
        <time>2026-09-03T05:47:27.000Z</time>
        <extensions>
          <ns3:TrackPointExtension>
            <ns3:hr>129</ns3:hr>
            <ns3:cad>62</ns3:cad>
          </ns3:TrackPointExtension>
        </extensions>
      </trkpt>
      <trkpt lat="44.7178840823471546173095703125" lon="6.74780546687543392181396484375">
        <ele>1409.5999755859375</ele>
        <time>2026-09-03T05:47:28.000Z</time>
        <extensions>
          <ns3:TrackPointExtension>
            <ns3:hr>129</ns3:hr>
            <ns3:cad>62</ns3:cad>
          </ns3:TrackPointExtension>
        </extensions>
      </trkpt>
      <trkpt lat="44.71789053641259670257568359375" lon="6.7477852664887905120849609375">
        <ele>1409.5999755859375</ele>
        <time>2026-09-03T05:47:29.000Z</time>
        <extensions>
          <ns3:TrackPointExtension>
            <ns3:hr>129</ns3:hr>
            <ns3:cad>62</ns3:cad>
          </ns3:TrackPointExtension>
        </extensions>
      </trkpt>
      <trkpt lat="44.71789891831576824188232421875" lon="6.74776607193052768707275390625">
        <ele>1409.4000244140625</ele>
        <time>2026-09-03T05:47:30.000Z</time>
        <extensions>
          <ns3:TrackPointExtension>
            <ns3:hr>128</ns3:hr>
            <ns3:cad>62</ns3:cad>
          </ns3:TrackPointExtension>
        </extensions>
      </trkpt>
      <trkpt lat="44.7179045341908931732177734375" lon="6.7477510683238506317138671875">
        <ele>1409.199951171875</ele>
        <time>2026-09-03T05:47:31.000Z</time>
        <extensions>
          <ns3:TrackPointExtension>
            <ns3:hr>128</ns3:hr>
            <ns3:cad>62</ns3:cad>
          </ns3:TrackPointExtension>
        </extensions>
      </trkpt>
      <trkpt lat="44.71790964715182781219482421875" lon="6.747736148536205291748046875">
        <ele>1409</ele>
        <time>2026-09-03T05:47:32.000Z</time>
        <extensions>
          <ns3:TrackPointExtension>
            <ns3:hr>128</ns3:hr>
            <ns3:cad>62</ns3:cad>
          </ns3:TrackPointExtension>
        </extensions>
      </trkpt>
      <trkpt lat="44.71791274845600128173828125" lon="6.74772097729146480560302734375">
        <ele>1408.800048828125</ele>
        <time>2026-09-03T05:47:33.000Z</time>
        <extensions>
          <ns3:TrackPointExtension>
            <ns3:hr>127</ns3:hr>
            <ns3:cad>62</ns3:cad>
          </ns3:TrackPointExtension>
        </extensions>
      </trkpt>
      <trkpt lat="44.71791568212211132049560546875" lon="6.74770924262702465057373046875">
        <ele>1408.5999755859375</ele>
        <time>2026-09-03T05:47:34.000Z</time>
        <extensions>
          <ns3:TrackPointExtension>
            <ns3:hr>127</ns3:hr>
            <ns3:cad>62</ns3:cad>
          </ns3:TrackPointExtension>
        </extensions>
      </trkpt>
      <trkpt lat="44.7179196216166019439697265625" lon="6.74769516102969646453857421875">
        <ele>1408.4000244140625</ele>
        <time>2026-09-03T05:47:35.000Z</time>
        <extensions>
          <ns3:TrackPointExtension>
            <ns3:hr>127</ns3:hr>
            <ns3:cad>63</ns3:cad>
          </ns3:TrackPointExtension>
        </extensions>
      </trkpt>
      <trkpt lat="44.71792356111109256744384765625" lon="6.747678481042385101318359375">
        <ele>1408.199951171875</ele>
        <time>2026-09-03T05:47:36.000Z</time>
        <extensions>
          <ns3:TrackPointExtension>
            <ns3:hr>126</ns3:hr>
            <ns3:cad>64</ns3:cad>
          </ns3:TrackPointExtension>
        </extensions>
      </trkpt>
      <trkpt lat="44.71792423166334629058837890625" lon="6.7476709373295307159423828125">
        <ele>1408.199951171875</ele>
        <time>2026-09-03T05:47:37.000Z</time>
        <extensions>
          <ns3:TrackPointExtension>
            <ns3:hr>126</ns3:hr>
            <ns3:cad>64</ns3:cad>
          </ns3:TrackPointExtension>
        </extensions>
      </trkpt>
      <trkpt lat="44.717923812568187713623046875" lon="6.747667752206325531005859375">
        <ele>1408</ele>
        <time>2026-09-03T05:47:38.000Z</time>
        <extensions>
          <ns3:TrackPointExtension>
            <ns3:hr>126</ns3:hr>
            <ns3:cad>64</ns3:cad>
          </ns3:TrackPointExtension>
        </extensions>
      </trkpt>
      <trkpt lat="44.71792607568204402923583984375" lon="6.7476628907024860382080078125">
        <ele>1408</ele>
        <time>2026-09-03T05:47:39.000Z</time>
        <extensions>
          <ns3:TrackPointExtension>
            <ns3:hr>126</ns3:hr>
            <ns3:cad>0</ns3:cad>
          </ns3:TrackPointExtension>
        </extensions>
      </trkpt>
      <trkpt lat="44.71793026663362979888916015625" lon="6.74765492789447307586669921875">
        <ele>1407.800048828125</ele>
        <time>2026-09-03T05:47:40.000Z</time>
        <extensions>
          <ns3:TrackPointExtension>
            <ns3:hr>126</ns3:hr>
            <ns3:cad>0</ns3:cad>
          </ns3:TrackPointExtension>
        </extensions>
      </trkpt>
      <trkpt lat="44.7179370559751987457275390625" lon="6.74764201976358890533447265625">
        <ele>1407.800048828125</ele>
        <time>2026-09-03T05:47:41.000Z</time>
        <extensions>
          <ns3:TrackPointExtension>
            <ns3:hr>126</ns3:hr>
            <ns3:cad>0</ns3:cad>
          </ns3:TrackPointExtension>
        </extensions>
      </trkpt>
      <trkpt lat="44.71794451586902141571044921875" lon="6.74762911163270473480224609375">
        <ele>1407.800048828125</ele>
        <time>2026-09-03T05:47:42.000Z</time>
        <extensions>
          <ns3:TrackPointExtension>
            <ns3:hr>126</ns3:hr>
            <ns3:cad>62</ns3:cad>
          </ns3:TrackPointExtension>
        </extensions>
      </trkpt>
      <trkpt lat="44.717953987419605255126953125" lon="6.7476119287312030792236328125">
        <ele>1407.800048828125</ele>
        <time>2026-09-03T05:47:43.000Z</time>
        <extensions>
          <ns3:TrackPointExtension>
            <ns3:hr>125</ns3:hr>
            <ns3:cad>62</ns3:cad>
          </ns3:TrackPointExtension>
        </extensions>
      </trkpt>
      <trkpt lat="44.7179616987705230712890625" lon="6.74759843386709690093994140625">
        <ele>1407.5999755859375</ele>
        <time>2026-09-03T05:47:44.000Z</time>
        <extensions>
          <ns3:TrackPointExtension>
            <ns3:hr>126</ns3:hr>
            <ns3:cad>62</ns3:cad>
          </ns3:TrackPointExtension>
        </extensions>
      </trkpt>
      <trkpt lat="44.7179665602743625640869140625" lon="6.74758686684072017669677734375">
        <ele>1407.5999755859375</ele>
        <time>2026-09-03T05:47:45.000Z</time>
        <extensions>
          <ns3:TrackPointExtension>
            <ns3:hr>126</ns3:hr>
            <ns3:cad>61</ns3:cad>
          </ns3:TrackPointExtension>
        </extensions>
      </trkpt>
      <trkpt lat="44.71796932630240917205810546875" lon="6.7475770600140094757080078125">
        <ele>1407.4000244140625</ele>
        <time>2026-09-03T05:47:46.000Z</time>
        <extensions>
          <ns3:TrackPointExtension>
            <ns3:hr>127</ns3:hr>
            <ns3:cad>60</ns3:cad>
          </ns3:TrackPointExtension>
        </extensions>
      </trkpt>
      <trkpt lat="44.71797385253012180328369140625" lon="6.7475613020360469818115234375">
        <ele>1407.4000244140625</ele>
        <time>2026-09-03T05:47:47.000Z</time>
        <extensions>
          <ns3:TrackPointExtension>
            <ns3:hr>127</ns3:hr>
            <ns3:cad>61</ns3:cad>
          </ns3:TrackPointExtension>
        </extensions>
      </trkpt>
      <trkpt lat="44.7179772891104221343994140625" lon="6.74754881300032138824462890625">
        <ele>1407.199951171875</ele>
        <time>2026-09-03T05:47:48.000Z</time>
        <extensions>
          <ns3:TrackPointExtension>
            <ns3:hr>126</ns3:hr>
            <ns3:cad>60</ns3:cad>
          </ns3:TrackPointExtension>
        </extensions>
      </trkpt>
      <trkpt lat="44.7179796360433101654052734375" lon="6.7475338093936443328857421875">
        <ele>1407</ele>
        <time>2026-09-03T05:47:49.000Z</time>
        <extensions>
          <ns3:TrackPointExtension>
            <ns3:hr>126</ns3:hr>
            <ns3:cad>60</ns3:cad>
          </ns3:TrackPointExtension>
        </extensions>
      </trkpt>
      <trkpt lat="44.717980138957500457763671875" lon="6.74751897342503070831298828125">
        <ele>1406.800048828125</ele>
        <time>2026-09-03T05:47:50.000Z</time>
        <extensions>
          <ns3:TrackPointExtension>
            <ns3:hr>125</ns3:hr>
            <ns3:cad>60</ns3:cad>
          </ns3:TrackPointExtension>
        </extensions>
      </trkpt>
      <trkpt lat="44.71797854639589786529541015625" lon="6.7474996112287044525146484375">
        <ele>1406.5999755859375</ele>
        <time>2026-09-03T05:47:51.000Z</time>
        <extensions>
          <ns3:TrackPointExtension>
            <ns3:hr>124</ns3:hr>
            <ns3:cad>61</ns3:cad>
          </ns3:TrackPointExtension>
        </extensions>
      </trkpt>
      <trkpt lat="44.71797469072043895721435546875" lon="6.74747739918529987335205078125">
        <ele>1406.4000244140625</ele>
        <time>2026-09-03T05:47:52.000Z</time>
        <extensions>
          <ns3:TrackPointExtension>
            <ns3:hr>124</ns3:hr>
            <ns3:cad>62</ns3:cad>
          </ns3:TrackPointExtension>
        </extensions>
      </trkpt>
      <trkpt lat="44.717970080673694610595703125" lon="6.74744320102035999298095703125">
        <ele>1406.199951171875</ele>
        <time>2026-09-03T05:47:53.000Z</time>
        <extensions>
          <ns3:TrackPointExtension>
            <ns3:hr>123</ns3:hr>
            <ns3:cad>64</ns3:cad>
          </ns3:TrackPointExtension>
        </extensions>
      </trkpt>
      <trkpt lat="44.717961363494396209716796875" lon="6.747402884066104888916015625">
        <ele>1406</ele>
        <time>2026-09-03T05:47:54.000Z</time>
        <extensions>
          <ns3:TrackPointExtension>
            <ns3:hr>123</ns3:hr>
            <ns3:cad>64</ns3:cad>
          </ns3:TrackPointExtension>
        </extensions>
      </trkpt>
      <trkpt lat="44.7179528139531612396240234375" lon="6.74736994318664073944091796875">
        <ele>1405.800048828125</ele>
        <time>2026-09-03T05:47:55.000Z</time>
        <extensions>
          <ns3:TrackPointExtension>
            <ns3:hr>122</ns3:hr>
            <ns3:cad>64</ns3:cad>
          </ns3:TrackPointExtension>
        </extensions>
      </trkpt>
      <trkpt lat="44.7179387323558330535888671875" lon="6.74733524210751056671142578125">
        <ele>1405.5999755859375</ele>
        <time>2026-09-03T05:47:56.000Z</time>
        <extensions>
          <ns3:TrackPointExtension>
            <ns3:hr>122</ns3:hr>
            <ns3:cad>64</ns3:cad>
          </ns3:TrackPointExtension>
        </extensions>
      </trkpt>
      <trkpt lat="44.71792339347302913665771484375" lon="6.747297607362270355224609375">
        <ele>1405.199951171875</ele>
        <time>2026-09-03T05:47:57.000Z</time>
        <extensions>
          <ns3:TrackPointExtension>
            <ns3:hr>122</ns3:hr>
            <ns3:cad>80</ns3:cad>
          </ns3:TrackPointExtension>
        </extensions>
      </trkpt>
      <trkpt lat="44.717909060418605804443359375" lon="6.74726332537829875946044921875">
        <ele>1404.800048828125</ele>
        <time>2026-09-03T05:47:58.000Z</time>
        <extensions>
          <ns3:TrackPointExtension>
            <ns3:hr>121</ns3:hr>
            <ns3:cad>82</ns3:cad>
          </ns3:TrackPointExtension>
        </extensions>
      </trkpt>
      <trkpt lat="44.71788668073713779449462890625" lon="6.74723415635526180267333984375">
        <ele>1404.4000244140625</ele>
        <time>2026-09-03T05:47:59.000Z</time>
        <extensions>
          <ns3:TrackPointExtension>
            <ns3:hr>121</ns3:hr>
            <ns3:cad>82</ns3:cad>
          </ns3:TrackPointExtension>
        </extensions>
      </trkpt>
      <trkpt lat="44.71786790527403354644775390625" lon="6.74720766954123973846435546875">
        <ele>1404.199951171875</ele>
        <time>2026-09-03T05:48:00.000Z</time>
        <extensions>
          <ns3:TrackPointExtension>
            <ns3:hr>122</ns3:hr>
            <ns3:cad>82</ns3:cad>
          </ns3:TrackPointExtension>
        </extensions>
      </trkpt>
      <trkpt lat="44.71784812398254871368408203125" lon="6.74718067981302738189697265625">
        <ele>1403.800048828125</ele>
        <time>2026-09-03T05:48:01.000Z</time>
        <extensions>
          <ns3:TrackPointExtension>
            <ns3:hr>122</ns3:hr>
            <ns3:cad>82</ns3:cad>
          </ns3:TrackPointExtension>
        </extensions>
      </trkpt>
      <trkpt lat="44.71782851032912731170654296875" lon="6.74715704284608364105224609375">
        <ele>1403.5999755859375</ele>
        <time>2026-09-03T05:48:02.000Z</time>
        <extensions>
          <ns3:TrackPointExtension>
            <ns3:hr>123</ns3:hr>
            <ns3:cad>82</ns3:cad>
          </ns3:TrackPointExtension>
        </extensions>
      </trkpt>
      <trkpt lat="44.7178106568753719329833984375" lon="6.747133992612361907958984375">
        <ele>1403.4000244140625</ele>
        <time>2026-09-03T05:48:03.000Z</time>
        <extensions>
          <ns3:TrackPointExtension>
            <ns3:hr>123</ns3:hr>
            <ns3:cad>82</ns3:cad>
          </ns3:TrackPointExtension>
        </extensions>
      </trkpt>
      <trkpt lat="44.71779070794582366943359375" lon="6.7471170611679553985595703125">
        <ele>1403.199951171875</ele>
        <time>2026-09-03T05:48:04.000Z</time>
        <extensions>
          <ns3:TrackPointExtension>
            <ns3:hr>124</ns3:hr>
            <ns3:cad>82</ns3:cad>
          </ns3:TrackPointExtension>
        </extensions>
      </trkpt>
      <trkpt lat="44.717764556407928466796875" lon="6.74709451384842395782470703125">
        <ele>1402.800048828125</ele>
        <time>2026-09-03T05:48:05.000Z</time>
        <extensions>
          <ns3:TrackPointExtension>
            <ns3:hr>125</ns3:hr>
            <ns3:cad>82</ns3:cad>
          </ns3:TrackPointExtension>
        </extensions>
      </trkpt>
      <trkpt lat="44.717748127877712249755859375" lon="6.747074313461780548095703125">
        <ele>1402.5999755859375</ele>
        <time>2026-09-03T05:48:06.000Z</time>
        <extensions>
          <ns3:TrackPointExtension>
            <ns3:hr>126</ns3:hr>
            <ns3:cad>82</ns3:cad>
          </ns3:TrackPointExtension>
        </extensions>
      </trkpt>
      <trkpt lat="44.71772499382495880126953125" lon="6.7470540292561054229736328125">
        <ele>1402.199951171875</ele>
        <time>2026-09-03T05:48:07.000Z</time>
        <extensions>
          <ns3:TrackPointExtension>
            <ns3:hr>126</ns3:hr>
            <ns3:cad>82</ns3:cad>
          </ns3:TrackPointExtension>
        </extensions>
      </trkpt>
      <trkpt lat="44.71770412288606166839599609375" lon="6.74703785218298435211181640625">
        <ele>1401.800048828125</ele>
        <time>2026-09-03T05:48:08.000Z</time>
        <extensions>
          <ns3:TrackPointExtension>
            <ns3:hr>126</ns3:hr>
            <ns3:cad>83</ns3:cad>
          </ns3:TrackPointExtension>
        </extensions>
      </trkpt>
      <trkpt lat="44.71768341958522796630859375" lon="6.747024357318878173828125">
        <ele>1401.4000244140625</ele>
        <time>2026-09-03T05:48:09.000Z</time>
        <extensions>
          <ns3:TrackPointExtension>
            <ns3:hr>127</ns3:hr>
            <ns3:cad>83</ns3:cad>
          </ns3:TrackPointExtension>
        </extensions>
      </trkpt>
      <trkpt lat="44.71766321919858455657958984375" lon="6.74700633622705936431884765625">
        <ele>1401.199951171875</ele>
        <time>2026-09-03T05:48:10.000Z</time>
        <extensions>
          <ns3:TrackPointExtension>
            <ns3:hr>127</ns3:hr>
            <ns3:cad>83</ns3:cad>
          </ns3:TrackPointExtension>
        </extensions>
      </trkpt>
      <trkpt lat="44.71764578483998775482177734375" lon="6.74699141643941402435302734375">
        <ele>1401</ele>
        <time>2026-09-03T05:48:11.000Z</time>
        <extensions>
          <ns3:TrackPointExtension>
            <ns3:hr>128</ns3:hr>
            <ns3:cad>82</ns3:cad>
          </ns3:TrackPointExtension>
        </extensions>
      </trkpt>
      <trkpt lat="44.7176272608339786529541015625" lon="6.7469785921275615692138671875">
        <ele>1400.5999755859375</ele>
        <time>2026-09-03T05:48:12.000Z</time>
        <extensions>
          <ns3:TrackPointExtension>
            <ns3:hr>128</ns3:hr>
            <ns3:cad>82</ns3:cad>
          </ns3:TrackPointExtension>
        </extensions>
      </trkpt>
      <trkpt lat="44.7176047973334789276123046875" lon="6.7469641752541065216064453125">
        <ele>1400.4000244140625</ele>
        <time>2026-09-03T05:48:13.000Z</time>
        <extensions>
          <ns3:TrackPointExtension>
            <ns3:hr>128</ns3:hr>
            <ns3:cad>81</ns3:cad>
          </ns3:TrackPointExtension>
        </extensions>
      </trkpt>
      <trkpt lat="44.71758476458489894866943359375" lon="6.74694850109517574310302734375">
        <ele>1400</ele>
        <time>2026-09-03T05:48:14.000Z</time>
        <extensions>
          <ns3:TrackPointExtension>
            <ns3:hr>129</ns3:hr>
            <ns3:cad>81</ns3:cad>
          </ns3:TrackPointExtension>
        </extensions>
      </trkpt>
      <trkpt lat="44.71756548620760440826416015625" lon="6.74692821688950061798095703125">
        <ele>1399.800048828125</ele>
        <time>2026-09-03T05:48:15.000Z</time>
        <extensions>
          <ns3:TrackPointExtension>
            <ns3:hr>129</ns3:hr>
            <ns3:cad>82</ns3:cad>
          </ns3:TrackPointExtension>
        </extensions>
      </trkpt>
      <trkpt lat="44.71754754893481731414794921875" lon="6.74690541811287403106689453125">
        <ele>1399.5999755859375</ele>
        <time>2026-09-03T05:48:16.000Z</time>
        <extensions>
          <ns3:TrackPointExtension>
            <ns3:hr>129</ns3:hr>
            <ns3:cad>82</ns3:cad>
          </ns3:TrackPointExtension>
        </extensions>
      </trkpt>
      <trkpt lat="44.71753061749041080474853515625" lon="6.74689217470586299896240234375">
        <ele>1399.199951171875</ele>
        <time>2026-09-03T05:48:17.000Z</time>
        <extensions>
          <ns3:TrackPointExtension>
            <ns3:hr>129</ns3:hr>
            <ns3:cad>82</ns3:cad>
          </ns3:TrackPointExtension>
        </extensions>
      </trkpt>
      <trkpt lat="44.71751184202730655670166015625" lon="6.74687155522406101226806640625">
        <ele>1399</ele>
        <time>2026-09-03T05:48:18.000Z</time>
        <extensions>
          <ns3:TrackPointExtension>
            <ns3:hr>130</ns3:hr>
            <ns3:cad>82</ns3:cad>
          </ns3:TrackPointExtension>
        </extensions>
      </trkpt>
      <trkpt lat="44.71749876625835895538330078125" lon="6.7468515224754810333251953125">
        <ele>1398.800048828125</ele>
        <time>2026-09-03T05:48:19.000Z</time>
        <extensions>
          <ns3:TrackPointExtension>
            <ns3:hr>130</ns3:hr>
            <ns3:cad>81</ns3:cad>
          </ns3:TrackPointExtension>
        </extensions>
      </trkpt>
      <trkpt lat="44.71748149953782558441162109375" lon="6.74683056771755218505859375">
        <ele>1398.5999755859375</ele>
        <time>2026-09-03T05:48:20.000Z</time>
        <extensions>
          <ns3:TrackPointExtension>
            <ns3:hr>130</ns3:hr>
            <ns3:cad>81</ns3:cad>
          </ns3:TrackPointExtension>
        </extensions>
      </trkpt>
      <trkpt lat="44.71746322698891162872314453125" lon="6.74679511226713657379150390625">
        <ele>1398.4000244140625</ele>
        <time>2026-09-03T05:48:21.000Z</time>
        <extensions>
          <ns3:TrackPointExtension>
            <ns3:hr>130</ns3:hr>
            <ns3:cad>81</ns3:cad>
          </ns3:TrackPointExtension>
        </extensions>
      </trkpt>
      <trkpt lat="44.71745400689542293548583984375" lon="6.746762506663799285888671875">
        <ele>1398.199951171875</ele>
        <time>2026-09-03T05:48:22.000Z</time>
        <extensions>
          <ns3:TrackPointExtension>
            <ns3:hr>129</ns3:hr>
            <ns3:cad>81</ns3:cad>
          </ns3:TrackPointExtension>
        </extensions>
      </trkpt>
      <trkpt lat="44.717434979975223541259765625" lon="6.7467252910137176513671875">
        <ele>1398.199951171875</ele>
        <time>2026-09-03T05:48:23.000Z</time>
        <extensions>
          <ns3:TrackPointExtension>
            <ns3:hr>130</ns3:hr>
            <ns3:cad>81</ns3:cad>
          </ns3:TrackPointExtension>
        </extensions>
      </trkpt>
      <trkpt lat="44.71742684952914714813232421875" lon="6.746691428124904632568359375">
        <ele>1398</ele>
        <time>2026-09-03T05:48:24.000Z</time>
        <extensions>
          <ns3:TrackPointExtension>
            <ns3:hr>130</ns3:hr>
            <ns3:cad>81</ns3:cad>
          </ns3:TrackPointExtension>
        </extensions>
      </trkpt>
      <trkpt lat="44.717417545616626739501953125" lon="6.74666150473058223724365234375">
        <ele>1397.800048828125</ele>
        <time>2026-09-03T05:48:25.000Z</time>
        <extensions>
          <ns3:TrackPointExtension>
            <ns3:hr>129</ns3:hr>
            <ns3:cad>81</ns3:cad>
          </ns3:TrackPointExtension>
        </extensions>
      </trkpt>
      <trkpt lat="44.71741058863699436187744140625" lon="6.74662797711789608001708984375">
        <ele>1397.800048828125</ele>
        <time>2026-09-03T05:48:26.000Z</time>
        <extensions>
          <ns3:TrackPointExtension>
            <ns3:hr>130</ns3:hr>
            <ns3:cad>82</ns3:cad>
          </ns3:TrackPointExtension>
        </extensions>
      </trkpt>
      <trkpt lat="44.71740539185702800750732421875" lon="6.74659612588584423065185546875">
        <ele>1397.5999755859375</ele>
        <time>2026-09-03T05:48:27.000Z</time>
        <extensions>
          <ns3:TrackPointExtension>
            <ns3:hr>130</ns3:hr>
            <ns3:cad>82</ns3:cad>
          </ns3:TrackPointExtension>
        </extensions>
      </trkpt>
      <trkpt lat="44.717398099601268768310546875" lon="6.746563352644443511962890625">
        <ele>1397.4000244140625</ele>
        <time>2026-09-03T05:48:28.000Z</time>
        <extensions>
          <ns3:TrackPointExtension>
            <ns3:hr>129</ns3:hr>
            <ns3:cad>82</ns3:cad>
          </ns3:TrackPointExtension>
        </extensions>
      </trkpt>
      <trkpt lat="44.71739198081195354461669921875" lon="6.746523790061473846435546875">
        <ele>1397.199951171875</ele>
        <time>2026-09-03T05:48:29.000Z</time>
        <extensions>
          <ns3:TrackPointExtension>
            <ns3:hr>130</ns3:hr>
            <ns3:cad>82</ns3:cad>
          </ns3:TrackPointExtension>
        </extensions>
      </trkpt>
      <trkpt lat="44.71739030443131923675537109375" lon="6.746492274105548858642578125">
        <ele>1397</ele>
        <time>2026-09-03T05:48:30.000Z</time>
        <extensions>
          <ns3:TrackPointExtension>
            <ns3:hr>130</ns3:hr>
            <ns3:cad>81</ns3:cad>
          </ns3:TrackPointExtension>
        </extensions>
      </trkpt>
      <trkpt lat="44.717384688556194305419921875" lon="6.7464592494070529937744140625">
        <ele>1396.5999755859375</ele>
        <time>2026-09-03T05:48:31.000Z</time>
        <extensions>
          <ns3:TrackPointExtension>
            <ns3:hr>130</ns3:hr>
            <ns3:cad>81</ns3:cad>
          </ns3:TrackPointExtension>
        </extensions>
      </trkpt>
      <trkpt lat="44.71737764775753021240234375" lon="6.74641792662441730499267578125">
        <ele>1396.4000244140625</ele>
        <time>2026-09-03T05:48:32.000Z</time>
        <extensions>
          <ns3:TrackPointExtension>
            <ns3:hr>130</ns3:hr>
            <ns3:cad>82</ns3:cad>
          </ns3:TrackPointExtension>
        </extensions>
      </trkpt>
      <trkpt lat="44.71737136133015155792236328125" lon="6.7463878355920314788818359375">
        <ele>1396.199951171875</ele>
        <time>2026-09-03T05:48:33.000Z</time>
        <extensions>
          <ns3:TrackPointExtension>
            <ns3:hr>130</ns3:hr>
            <ns3:cad>82</ns3:cad>
          </ns3:TrackPointExtension>
        </extensions>
      </trkpt>
      <trkpt lat="44.71735660918056964874267578125" lon="6.74634802155196666717529296875">
        <ele>1396</ele>
        <time>2026-09-03T05:48:34.000Z</time>
        <extensions>
          <ns3:TrackPointExtension>
            <ns3:hr>131</ns3:hr>
            <ns3:cad>82</ns3:cad>
          </ns3:TrackPointExtension>
        </extensions>
      </trkpt>
      <trkpt lat="44.7173469699919223785400390625" lon="6.74631516449153423309326171875">
        <ele>1395.5999755859375</ele>
        <time>2026-09-03T05:48:35.000Z</time>
        <extensions>
          <ns3:TrackPointExtension>
            <ns3:hr>131</ns3:hr>
            <ns3:cad>82</ns3:cad>
          </ns3:TrackPointExtension>
        </extensions>
      </trkpt>
      <trkpt lat="44.71733867190778255462646484375" lon="6.74628314562141895294189453125">
        <ele>1395.4000244140625</ele>
        <time>2026-09-03T05:48:36.000Z</time>
        <extensions>
          <ns3:TrackPointExtension>
            <ns3:hr>131</ns3:hr>
            <ns3:cad>82</ns3:cad>
          </ns3:TrackPointExtension>
        </extensions>
      </trkpt>
      <trkpt lat="44.7173179686069488525390625" lon="6.7462473548948764801025390625">
        <ele>1395.199951171875</ele>
        <time>2026-09-03T05:48:37.000Z</time>
        <extensions>
          <ns3:TrackPointExtension>
            <ns3:hr>130</ns3:hr>
            <ns3:cad>81</ns3:cad>
          </ns3:TrackPointExtension>
        </extensions>
      </trkpt>
      <trkpt lat="44.717303551733493804931640625" lon="6.746222712099552154541015625">
        <ele>1395.199951171875</ele>
        <time>2026-09-03T05:48:38.000Z</time>
        <extensions>
          <ns3:TrackPointExtension>
            <ns3:hr>131</ns3:hr>
            <ns3:cad>81</ns3:cad>
          </ns3:TrackPointExtension>
        </extensions>
      </trkpt>
      <trkpt lat="44.717286117374897003173828125" lon="6.74619982950389385223388671875">
        <ele>1395</ele>
        <time>2026-09-03T05:48:39.000Z</time>
        <extensions>
          <ns3:TrackPointExtension>
            <ns3:hr>131</ns3:hr>
            <ns3:cad>81</ns3:cad>
          </ns3:TrackPointExtension>
        </extensions>
      </trkpt>
      <trkpt lat="44.71726222895085811614990234375" lon="6.7461700737476348876953125">
        <ele>1394.800048828125</ele>
        <time>2026-09-03T05:48:40.000Z</time>
        <extensions>
          <ns3:TrackPointExtension>
            <ns3:hr>132</ns3:hr>
            <ns3:cad>81</ns3:cad>
          </ns3:TrackPointExtension>
        </extensions>
      </trkpt>
      <trkpt lat="44.71724781207740306854248046875" lon="6.74615439958870410919189453125">
        <ele>1394.5999755859375</ele>
        <time>2026-09-03T05:48:41.000Z</time>
        <extensions>
          <ns3:TrackPointExtension>
            <ns3:hr>132</ns3:hr>
            <ns3:cad>81</ns3:cad>
          </ns3:TrackPointExtension>
        </extensions>
      </trkpt>
      <trkpt lat="44.71722618676722049713134765625" lon="6.7461286671459674835205078125">
        <ele>1394.4000244140625</ele>
        <time>2026-09-03T05:48:42.000Z</time>
        <extensions>
          <ns3:TrackPointExtension>
            <ns3:hr>132</ns3:hr>
            <ns3:cad>81</ns3:cad>
          </ns3:TrackPointExtension>
        </extensions>
      </trkpt>
      <trkpt lat="44.717206321656703948974609375" lon="6.74610435962677001953125">
        <ele>1394.199951171875</ele>
        <time>2026-09-03T05:48:43.000Z</time>
        <extensions>
          <ns3:TrackPointExtension>
            <ns3:hr>133</ns3:hr>
            <ns3:cad>82</ns3:cad>
          </ns3:TrackPointExtension>
        </extensions>
      </trkpt>
      <trkpt lat="44.71719014458358287811279296875" lon="6.74608432687819004058837890625">
        <ele>1394</ele>
        <time>2026-09-03T05:48:44.000Z</time>
        <extensions>
          <ns3:TrackPointExtension>
            <ns3:hr>133</ns3:hr>
            <ns3:cad>82</ns3:cad>
          </ns3:TrackPointExtension>
        </extensions>
      </trkpt>
      <trkpt lat="44.71716885454952716827392578125" lon="6.74605716951191425323486328125">
        <ele>1393.800048828125</ele>
        <time>2026-09-03T05:48:45.000Z</time>
        <extensions>
          <ns3:TrackPointExtension>
            <ns3:hr>133</ns3:hr>
            <ns3:cad>82</ns3:cad>
          </ns3:TrackPointExtension>
        </extensions>
      </trkpt>
      <trkpt lat="44.71715661697089672088623046875" lon="6.7460337840020656585693359375">
        <ele>1393.5999755859375</ele>
        <time>2026-09-03T05:48:46.000Z</time>
        <extensions>
          <ns3:TrackPointExtension>
            <ns3:hr>134</ns3:hr>
            <ns3:cad>82</ns3:cad>
          </ns3:TrackPointExtension>
        </extensions>
      </trkpt>
      <trkpt lat="44.71713960170745849609375" lon="6.7460062913596630096435546875">
        <ele>1393.199951171875</ele>
        <time>2026-09-03T05:48:47.000Z</time>
        <extensions>
          <ns3:TrackPointExtension>
            <ns3:hr>134</ns3:hr>
            <ns3:cad>81</ns3:cad>
          </ns3:TrackPointExtension>
        </extensions>
      </trkpt>
      <trkpt lat="44.71712258644402027130126953125" lon="6.7459690757095813751220703125">
        <ele>1393</ele>
        <time>2026-09-03T05:48:48.000Z</time>
        <extensions>
          <ns3:TrackPointExtension>
            <ns3:hr>134</ns3:hr>
            <ns3:cad>81</ns3:cad>
          </ns3:TrackPointExtension>
        </extensions>
      </trkpt>
      <trkpt lat="44.71711185760796070098876953125" lon="6.74593915231525897979736328125">
        <ele>1392.800048828125</ele>
        <time>2026-09-03T05:48:49.000Z</time>
        <extensions>
          <ns3:TrackPointExtension>
            <ns3:hr>135</ns3:hr>
            <ns3:cad>81</ns3:cad>
          </ns3:TrackPointExtension>
        </extensions>
      </trkpt>
      <trkpt lat="44.71708905883133411407470703125" lon="6.74591048620641231536865234375">
        <ele>1392.5999755859375</ele>
        <time>2026-09-03T05:48:50.000Z</time>
        <extensions>
          <ns3:TrackPointExtension>
            <ns3:hr>135</ns3:hr>
            <ns3:cad>81</ns3:cad>
          </ns3:TrackPointExtension>
        </extensions>
      </trkpt>
      <trkpt lat="44.7170700319111347198486328125" lon="6.74588450230658054351806640625">
        <ele>1392.4000244140625</ele>
        <time>2026-09-03T05:48:51.000Z</time>
        <extensions>
          <ns3:TrackPointExtension>
            <ns3:hr>135</ns3:hr>
            <ns3:cad>81</ns3:cad>
          </ns3:TrackPointExtension>
        </extensions>
      </trkpt>
      <trkpt lat="44.717056117951869964599609375" lon="6.74586773850023746490478515625">
        <ele>1392.199951171875</ele>
        <time>2026-09-03T05:48:52.000Z</time>
        <extensions>
          <ns3:TrackPointExtension>
            <ns3:hr>135</ns3:hr>
            <ns3:cad>82</ns3:cad>
          </ns3:TrackPointExtension>
        </extensions>
      </trkpt>
      <trkpt lat="44.71703474409878253936767578125" lon="6.74584208987653255462646484375">
        <ele>1392</ele>
        <time>2026-09-03T05:48:53.000Z</time>
        <extensions>
          <ns3:TrackPointExtension>
            <ns3:hr>135</ns3:hr>
            <ns3:cad>83</ns3:cad>
          </ns3:TrackPointExtension>
        </extensions>
      </trkpt>
      <trkpt lat="44.71702284179627895355224609375" lon="6.7458249069750308990478515625">
        <ele>1391.800048828125</ele>
        <time>2026-09-03T05:48:54.000Z</time>
        <extensions>
          <ns3:TrackPointExtension>
            <ns3:hr>135</ns3:hr>
            <ns3:cad>83</ns3:cad>
          </ns3:TrackPointExtension>
        </extensions>
      </trkpt>
      <trkpt lat="44.7170043177902698516845703125" lon="6.74580671824514865875244140625">
        <ele>1391.5999755859375</ele>
        <time>2026-09-03T05:48:55.000Z</time>
        <extensions>
          <ns3:TrackPointExtension>
            <ns3:hr>136</ns3:hr>
            <ns3:cad>83</ns3:cad>
          </ns3:TrackPointExtension>
        </extensions>
      </trkpt>
      <trkpt lat="44.71698646433651447296142578125" lon="6.74579079262912273406982421875">
        <ele>1391.4000244140625</ele>
        <time>2026-09-03T05:48:56.000Z</time>
        <extensions>
          <ns3:TrackPointExtension>
            <ns3:hr>136</ns3:hr>
            <ns3:cad>83</ns3:cad>
          </ns3:TrackPointExtension>
        </extensions>
      </trkpt>
      <trkpt lat="44.7169738076627254486083984375" lon="6.74576933495700359344482421875">
        <ele>1391.199951171875</ele>
        <time>2026-09-03T05:48:57.000Z</time>
        <extensions>
          <ns3:TrackPointExtension>
            <ns3:hr>136</ns3:hr>
            <ns3:cad>83</ns3:cad>
          </ns3:TrackPointExtension>
        </extensions>
      </trkpt>
      <trkpt lat="44.7169593907892704010009765625" lon="6.7457441054284572601318359375">
        <ele>1391</ele>
        <time>2026-09-03T05:48:58.000Z</time>
        <extensions>
          <ns3:TrackPointExtension>
            <ns3:hr>136</ns3:hr>
            <ns3:cad>83</ns3:cad>
          </ns3:TrackPointExtension>
        </extensions>
      </trkpt>
      <trkpt lat="44.71694841049611568450927734375" lon="6.7457156069576740264892578125">
        <ele>1390.800048828125</ele>
        <time>2026-09-03T05:48:59.000Z</time>
        <extensions>
          <ns3:TrackPointExtension>
            <ns3:hr>136</ns3:hr>
            <ns3:cad>83</ns3:cad>
          </ns3:TrackPointExtension>
        </extensions>
      </trkpt>
      <trkpt lat="44.71693466417491436004638671875" lon="6.7456911318004131317138671875">
        <ele>1390.4000244140625</ele>
        <time>2026-09-03T05:49:00.000Z</time>
        <extensions>
          <ns3:TrackPointExtension>
            <ns3:hr>136</ns3:hr>
            <ns3:cad>83</ns3:cad>
          </ns3:TrackPointExtension>
        </extensions>
      </trkpt>
      <trkpt lat="44.71692175604403018951416015625" lon="6.74565115012228488922119140625">
        <ele>1390</ele>
        <time>2026-09-03T05:49:01.000Z</time>
        <extensions>
          <ns3:TrackPointExtension>
            <ns3:hr>136</ns3:hr>
            <ns3:cad>83</ns3:cad>
          </ns3:TrackPointExtension>
        </extensions>
      </trkpt>
      <trkpt lat="44.71691488288342952728271484375" lon="6.74561812542378902435302734375">
        <ele>1389.5999755859375</ele>
        <time>2026-09-03T05:49:02.000Z</time>
        <extensions>
          <ns3:TrackPointExtension>
            <ns3:hr>136</ns3:hr>
            <ns3:cad>82</ns3:cad>
          </ns3:TrackPointExtension>
        </extensions>
      </trkpt>
      <trkpt lat="44.716904573142528533935546875" lon="6.745585687458515167236328125">
        <ele>1389.4000244140625</ele>
        <time>2026-09-03T05:49:03.000Z</time>
        <extensions>
          <ns3:TrackPointExtension>
            <ns3:hr>137</ns3:hr>
            <ns3:cad>81</ns3:cad>
          </ns3:TrackPointExtension>
        </extensions>
      </trkpt>
      <trkpt lat="44.716898538172245025634765625" lon="6.745545454323291778564453125">
        <ele>1389.199951171875</ele>
        <time>2026-09-03T05:49:04.000Z</time>
        <extensions>
          <ns3:TrackPointExtension>
            <ns3:hr>136</ns3:hr>
            <ns3:cad>81</ns3:cad>
          </ns3:TrackPointExtension>
        </extensions>
      </trkpt>
      <trkpt lat="44.7168936766684055328369140625" lon="6.7455114237964153289794921875">
        <ele>1389</ele>
        <time>2026-09-03T05:49:05.000Z</time>
        <extensions>
          <ns3:TrackPointExtension>
            <ns3:hr>136</ns3:hr>
            <ns3:cad>82</ns3:cad>
          </ns3:TrackPointExtension>
        </extensions>
      </trkpt>
      <trkpt lat="44.7168859653174877166748046875" lon="6.74547605216503143310546875">
        <ele>1388.800048828125</ele>
        <time>2026-09-03T05:49:06.000Z</time>
        <extensions>
          <ns3:TrackPointExtension>
            <ns3:hr>136</ns3:hr>
            <ns3:cad>82</ns3:cad>
          </ns3:TrackPointExtension>
        </extensions>
      </trkpt>
      <trkpt lat="44.71687473356723785400390625" lon="6.7454359866678714752197265625">
        <ele>1388.5999755859375</ele>
        <time>2026-09-03T05:49:07.000Z</time>
        <extensions>
          <ns3:TrackPointExtension>
            <ns3:hr>136</ns3:hr>
            <ns3:cad>81</ns3:cad>
          </ns3:TrackPointExtension>
        </extensions>
      </trkpt>
      <trkpt lat="44.716869033873081207275390625" lon="6.74540706910192966461181640625">
        <ele>1388.4000244140625</ele>
        <time>2026-09-03T05:49:08.000Z</time>
        <extensions>
          <ns3:TrackPointExtension>
            <ns3:hr>136</ns3:hr>
            <ns3:cad>81</ns3:cad>
          </ns3:TrackPointExtension>
        </extensions>
      </trkpt>
      <trkpt lat="44.71685218624770641326904296875" lon="6.7453820072114467620849609375">
        <ele>1388.199951171875</ele>
        <time>2026-09-03T05:49:09.000Z</time>
        <extensions>
          <ns3:TrackPointExtension>
            <ns3:hr>136</ns3:hr>
            <ns3:cad>80</ns3:cad>
          </ns3:TrackPointExtension>
        </extensions>
      </trkpt>
      <trkpt lat="44.7168324887752532958984375" lon="6.7453600466251373291015625">
        <ele>1388</ele>
        <time>2026-09-03T05:49:10.000Z</time>
        <extensions>
          <ns3:TrackPointExtension>
            <ns3:hr>136</ns3:hr>
            <ns3:cad>80</ns3:cad>
          </ns3:TrackPointExtension>
        </extensions>
      </trkpt>
      <trkpt lat="44.71681748516857624053955078125" lon="6.745351664721965789794921875">
        <ele>1387.800048828125</ele>
        <time>2026-09-03T05:49:11.000Z</time>
        <extensions>
          <ns3:TrackPointExtension>
            <ns3:hr>136</ns3:hr>
            <ns3:cad>80</ns3:cad>
          </ns3:TrackPointExtension>
        </extensions>
      </trkpt>
      <trkpt lat="44.71680239774286746978759765625" lon="6.74534202553331851959228515625">
        <ele>1387.5999755859375</ele>
        <time>2026-09-03T05:49:12.000Z</time>
        <extensions>
          <ns3:TrackPointExtension>
            <ns3:hr>136</ns3:hr>
            <ns3:cad>81</ns3:cad>
          </ns3:TrackPointExtension>
        </extensions>
      </trkpt>
      <trkpt lat="44.716789238154888153076171875" lon="6.74533397890627384185791015625">
        <ele>1387.4000244140625</ele>
        <time>2026-09-03T05:49:13.000Z</time>
        <extensions>
          <ns3:TrackPointExtension>
            <ns3:hr>136</ns3:hr>
            <ns3:cad>81</ns3:cad>
          </ns3:TrackPointExtension>
        </extensions>
      </trkpt>
      <trkpt lat="44.7167736478149890899658203125" lon="6.74532718956470489501953125">
        <ele>1387.4000244140625</ele>
        <time>2026-09-03T05:49:14.000Z</time>
        <extensions>
          <ns3:TrackPointExtension>
            <ns3:hr>136</ns3:hr>
            <ns3:cad>81</ns3:cad>
          </ns3:TrackPointExtension>
        </extensions>
      </trkpt>
      <trkpt lat="44.71676073968410491943359375" lon="6.74532408826053142547607421875">
        <ele>1387.4000244140625</ele>
        <time>2026-09-03T05:49:15.000Z</time>
        <extensions>
          <ns3:TrackPointExtension>
            <ns3:hr>136</ns3:hr>
            <ns3:cad>81</ns3:cad>
          </ns3:TrackPointExtension>
        </extensions>
      </trkpt>
      <trkpt lat="44.716752357780933380126953125" lon="6.74531537108123302459716796875">
        <ele>1387.5999755859375</ele>
        <time>2026-09-03T05:49:16.000Z</time>
        <extensions>
          <ns3:TrackPointExtension>
            <ns3:hr>136</ns3:hr>
            <ns3:cad>81</ns3:cad>
          </ns3:TrackPointExtension>
        </extensions>
      </trkpt>
      <trkpt lat="44.7167448140680789947509765625" lon="6.7453028820455074310302734375">
        <ele>1387.5999755859375</ele>
        <time>2026-09-03T05:49:17.000Z</time>
        <extensions>
          <ns3:TrackPointExtension>
            <ns3:hr>135</ns3:hr>
            <ns3:cad>81</ns3:cad>
          </ns3:TrackPointExtension>
        </extensions>
      </trkpt>
      <trkpt lat="44.71673391759395599365234375" lon="6.745289973914623260498046875">
        <ele>1387.800048828125</ele>
        <time>2026-09-03T05:49:18.000Z</time>
        <extensions>
          <ns3:TrackPointExtension>
            <ns3:hr>136</ns3:hr>
            <ns3:cad>60</ns3:cad>
          </ns3:TrackPointExtension>
        </extensions>
      </trkpt>
      <trkpt lat="44.71672394312918186187744140625" lon="6.7452849447727203369140625">
        <ele>1388</ele>
        <time>2026-09-03T05:49:19.000Z</time>
        <extensions>
          <ns3:TrackPointExtension>
            <ns3:hr>136</ns3:hr>
            <ns3:cad>60</ns3:cad>
          </ns3:TrackPointExtension>
        </extensions>
      </trkpt>
      <trkpt lat="44.71671841107308864593505859375" lon="6.74528067000210285186767578125">
        <ele>1388</ele>
        <time>2026-09-03T05:49:20.000Z</time>
        <extensions>
          <ns3:TrackPointExtension>
            <ns3:hr>135</ns3:hr>
            <ns3:cad>60</ns3:cad>
          </ns3:TrackPointExtension>
        </extensions>
      </trkpt>
      <trkpt lat="44.7167213447391986846923828125" lon="6.74528620205819606781005859375">
        <ele>1388.199951171875</ele>
        <time>2026-09-03T05:49:21.000Z</time>
        <extensions>
          <ns3:TrackPointExtension>
            <ns3:hr>135</ns3:hr>
            <ns3:cad>57</ns3:cad>
          </ns3:TrackPointExtension>
        </extensions>
      </trkpt>
      <trkpt lat="44.7167210094630718231201171875" lon="6.74528251402080059051513671875">
        <ele>1388.4000244140625</ele>
        <time>2026-09-03T05:49:22.000Z</time>
        <extensions>
          <ns3:TrackPointExtension>
            <ns3:hr>135</ns3:hr>
            <ns3:cad>56</ns3:cad>
          </ns3:TrackPointExtension>
        </extensions>
      </trkpt>
      <trkpt lat="44.7167230211198329925537109375" lon="6.745286285877227783203125">
        <ele>1388.4000244140625</ele>
        <time>2026-09-03T05:49:23.000Z</time>
        <extensions>
          <ns3:TrackPointExtension>
            <ns3:hr>135</ns3:hr>
            <ns3:cad>56</ns3:cad>
          </ns3:TrackPointExtension>
        </extensions>
      </trkpt>
      <trkpt lat="44.716726876795291900634765625" lon="6.74529056064784526824951171875">
        <ele>1388.4000244140625</ele>
        <time>2026-09-03T05:49:24.000Z</time>
        <extensions>
          <ns3:TrackPointExtension>
            <ns3:hr>135</ns3:hr>
            <ns3:cad>51</ns3:cad>
          </ns3:TrackPointExtension>
        </extensions>
      </trkpt>
      <trkpt lat="44.71673115156590938568115234375" lon="6.745297014713287353515625">
        <ele>1388.4000244140625</ele>
        <time>2026-09-03T05:49:25.000Z</time>
        <extensions>
          <ns3:TrackPointExtension>
            <ns3:hr>134</ns3:hr>
            <ns3:cad>51</ns3:cad>
          </ns3:TrackPointExtension>
        </extensions>
      </trkpt>
      <trkpt lat="44.716730900108814239501953125" lon="6.7453012056648731231689453125">
        <ele>1388.199951171875</ele>
        <time>2026-09-03T05:49:26.000Z</time>
        <extensions>
          <ns3:TrackPointExtension>
            <ns3:hr>134</ns3:hr>
            <ns3:cad>51</ns3:cad>
          </ns3:TrackPointExtension>
        </extensions>
      </trkpt>
      <trkpt lat="44.7167263738811016082763671875" lon="6.74530045129358768463134765625">
        <ele>1388.199951171875</ele>
        <time>2026-09-03T05:49:27.000Z</time>
        <extensions>
          <ns3:TrackPointExtension>
            <ns3:hr>133</ns3:hr>
            <ns3:cad>0</ns3:cad>
          </ns3:TrackPointExtension>
        </extensions>
      </trkpt>
      <trkpt lat="44.7167230211198329925537109375" lon="6.74529860727488994598388671875">
        <ele>1388.199951171875</ele>
        <time>2026-09-03T05:49:28.000Z</time>
        <extensions>
          <ns3:TrackPointExtension>
            <ns3:hr>133</ns3:hr>
            <ns3:cad>0</ns3:cad>
          </ns3:TrackPointExtension>
        </extensions>
      </trkpt>
      <trkpt lat="44.71672176383435726165771484375" lon="6.74529827199876308441162109375">
        <ele>1388</ele>
        <time>2026-09-03T05:49:29.000Z</time>
        <extensions>
          <ns3:TrackPointExtension>
            <ns3:hr>132</ns3:hr>
            <ns3:cad>53</ns3:cad>
          </ns3:TrackPointExtension>
        </extensions>
      </trkpt>
      <trkpt lat="44.71672092564404010772705078125" lon="6.74529709853231906890869140625">
        <ele>1388</ele>
        <time>2026-09-03T05:49:30.000Z</time>
        <extensions>
          <ns3:TrackPointExtension>
            <ns3:hr>131</ns3:hr>
            <ns3:cad>53</ns3:cad>
          </ns3:TrackPointExtension>
        </extensions>
      </trkpt>
      <trkpt lat="44.71672092564404010772705078125" lon="6.7452924884855747222900390625">
        <ele>1388</ele>
        <time>2026-09-03T05:49:31.000Z</time>
        <extensions>
          <ns3:TrackPointExtension>
            <ns3:hr>131</ns3:hr>
            <ns3:cad>0</ns3:cad>
          </ns3:TrackPointExtension>
        </extensions>
      </trkpt>
      <trkpt lat="44.7167216800153255462646484375" lon="6.7452928237617015838623046875">
        <ele>1388</ele>
        <time>2026-09-03T05:49:32.000Z</time>
        <extensions>
          <ns3:TrackPointExtension>
            <ns3:hr>130</ns3:hr>
            <ns3:cad>0</ns3:cad>
          </ns3:TrackPointExtension>
        </extensions>
      </trkpt>
      <trkpt lat="44.7167230211198329925537109375" lon="6.74529693089425563812255859375">
        <ele>1388</ele>
        <time>2026-09-03T05:49:33.000Z</time>
        <extensions>
          <ns3:TrackPointExtension>
            <ns3:hr>130</ns3:hr>
            <ns3:cad>0</ns3:cad>
          </ns3:TrackPointExtension>
        </extensions>
      </trkpt>
      <trkpt lat="44.71672444604337215423583984375" lon="6.7453038878738880157470703125">
        <ele>1388</ele>
        <time>2026-09-03T05:49:34.000Z</time>
        <extensions>
          <ns3:TrackPointExtension>
            <ns3:hr>129</ns3:hr>
            <ns3:cad>0</ns3:cad>
          </ns3:TrackPointExtension>
        </extensions>
      </trkpt>
      <trkpt lat="44.71672461368143558502197265625" lon="6.74531587399542331695556640625">
        <ele>1388</ele>
        <time>2026-09-03T05:49:35.000Z</time>
        <extensions>
          <ns3:TrackPointExtension>
            <ns3:hr>129</ns3:hr>
            <ns3:cad>0</ns3:cad>
          </ns3:TrackPointExtension>
        </extensions>
      </trkpt>
      <trkpt lat="44.7167252004146575927734375" lon="6.74532827921211719512939453125">
        <ele>1388.199951171875</ele>
        <time>2026-09-03T05:49:36.000Z</time>
        <extensions>
          <ns3:TrackPointExtension>
            <ns3:hr>128</ns3:hr>
            <ns3:cad>0</ns3:cad>
          </ns3:TrackPointExtension>
        </extensions>
      </trkpt>
      <trkpt lat="44.71672511659562587738037109375" lon="6.74533766694366931915283203125">
        <ele>1388.4000244140625</ele>
        <time>2026-09-03T05:49:37.000Z</time>
        <extensions>
          <ns3:TrackPointExtension>
            <ns3:hr>127</ns3:hr>
            <ns3:cad>0</ns3:cad>
          </ns3:TrackPointExtension>
        </extensions>
      </trkpt>
      <trkpt lat="44.71672511659562587738037109375" lon="6.7453457973897457122802734375">
        <ele>1388.4000244140625</ele>
        <time>2026-09-03T05:49:38.000Z</time>
        <extensions>
          <ns3:TrackPointExtension>
            <ns3:hr>127</ns3:hr>
            <ns3:cad>0</ns3:cad>
          </ns3:TrackPointExtension>
        </extensions>
      </trkpt>
      <trkpt lat="44.71672427840530872344970703125" lon="6.74535258673131465911865234375">
        <ele>1388.5999755859375</ele>
        <time>2026-09-03T05:49:39.000Z</time>
        <extensions>
          <ns3:TrackPointExtension>
            <ns3:hr>126</ns3:hr>
            <ns3:cad>0</ns3:cad>
          </ns3:TrackPointExtension>
        </extensions>
      </trkpt>
      <trkpt lat="44.716724194586277008056640625" lon="6.74535267055034637451171875">
        <ele>1388.5999755859375</ele>
        <time>2026-09-03T05:49:40.000Z</time>
        <extensions>
          <ns3:TrackPointExtension>
            <ns3:hr>126</ns3:hr>
            <ns3:cad>0</ns3:cad>
          </ns3:TrackPointExtension>
        </extensions>
      </trkpt>
      <trkpt lat="44.716724194586277008056640625" lon="6.74535267055034637451171875">
        <ele>1388.5999755859375</ele>
        <time>2026-09-03T05:49:41.000Z</time>
        <extensions>
          <ns3:TrackPointExtension>
            <ns3:hr>125</ns3:hr>
            <ns3:cad>0</ns3:cad>
          </ns3:TrackPointExtension>
        </extensions>
      </trkpt>
      <trkpt lat="44.716724194586277008056640625" lon="6.74535267055034637451171875">
        <ele>1388.5999755859375</ele>
        <time>2026-09-03T05:49:42.000Z</time>
        <extensions>
          <ns3:TrackPointExtension>
            <ns3:hr>124</ns3:hr>
            <ns3:cad>0</ns3:cad>
          </ns3:TrackPointExtension>
        </extensions>
      </trkpt>
      <trkpt lat="44.716724194586277008056640625" lon="6.74535267055034637451171875">
        <ele>1388.5999755859375</ele>
        <time>2026-09-03T05:49:43.000Z</time>
        <extensions>
          <ns3:TrackPointExtension>
            <ns3:hr>121</ns3:hr>
            <ns3:cad>0</ns3:cad>
          </ns3:TrackPointExtension>
        </extensions>
      </trkpt>
      <trkpt lat="44.716724194586277008056640625" lon="6.74535267055034637451171875">
        <ele>1388.5999755859375</ele>
        <time>2026-09-03T05:49:44.000Z</time>
        <extensions>
          <ns3:TrackPointExtension>
            <ns3:hr>118</ns3:hr>
            <ns3:cad>0</ns3:cad>
          </ns3:TrackPointExtension>
        </extensions>
      </trkpt>
      <trkpt lat="44.716724194586277008056640625" lon="6.74535267055034637451171875">
        <ele>1388.5999755859375</ele>
        <time>2026-09-03T05:49:45.000Z</time>
        <extensions>
          <ns3:TrackPointExtension>
            <ns3:hr>118</ns3:hr>
            <ns3:cad>0</ns3:cad>
          </ns3:TrackPointExtension>
        </extensions>
      </trkpt>
      <trkpt lat="44.716724194586277008056640625" lon="6.74535267055034637451171875">
        <ele>1388.5999755859375</ele>
        <time>2026-09-03T05:49:46.000Z</time>
        <extensions>
          <ns3:TrackPointExtension>
            <ns3:hr>117</ns3:hr>
            <ns3:cad>0</ns3:cad>
          </ns3:TrackPointExtension>
        </extensions>
      </trkpt>
      <trkpt lat="44.716724194586277008056640625" lon="6.74535267055034637451171875">
        <ele>1388.5999755859375</ele>
        <time>2026-09-03T05:49:47.000Z</time>
        <extensions>
          <ns3:TrackPointExtension>
            <ns3:hr>116</ns3:hr>
            <ns3:cad>0</ns3:cad>
          </ns3:TrackPointExtension>
        </extensions>
      </trkpt>
      <trkpt lat="44.716724194586277008056640625" lon="6.74535267055034637451171875">
        <ele>1388.5999755859375</ele>
        <time>2026-09-03T05:49:48.000Z</time>
        <extensions>
          <ns3:TrackPointExtension>
            <ns3:hr>115</ns3:hr>
            <ns3:cad>0</ns3:cad>
          </ns3:TrackPointExtension>
        </extensions>
      </trkpt>
      <trkpt lat="44.716724194586277008056640625" lon="6.74535267055034637451171875">
        <ele>1388.5999755859375</ele>
        <time>2026-09-03T05:49:49.000Z</time>
        <extensions>
          <ns3:TrackPointExtension>
            <ns3:hr>114</ns3:hr>
            <ns3:cad>0</ns3:cad>
          </ns3:TrackPointExtension>
        </extensions>
      </trkpt>
      <trkpt lat="44.716724194586277008056640625" lon="6.74535267055034637451171875">
        <ele>1388.5999755859375</ele>
        <time>2026-09-03T05:49:50.000Z</time>
        <extensions>
          <ns3:TrackPointExtension>
            <ns3:hr>113</ns3:hr>
            <ns3:cad>0</ns3:cad>
          </ns3:TrackPointExtension>
        </extensions>
      </trkpt>
      <trkpt lat="44.716724194586277008056640625" lon="6.74535267055034637451171875">
        <ele>1388.5999755859375</ele>
        <time>2026-09-03T05:49:51.000Z</time>
        <extensions>
          <ns3:TrackPointExtension>
            <ns3:hr>103</ns3:hr>
            <ns3:cad>0</ns3:cad>
          </ns3:TrackPointExtension>
        </extensions>
      </trkpt>
      <trkpt lat="44.716724194586277008056640625" lon="6.74535267055034637451171875">
        <ele>1388.5999755859375</ele>
        <time>2026-09-03T05:49:52.000Z</time>
        <extensions>
          <ns3:TrackPointExtension>
            <ns3:hr>99</ns3:hr>
            <ns3:cad>0</ns3:cad>
          </ns3:TrackPointExtension>
        </extensions>
      </trkpt>
      <trkpt lat="44.716724194586277008056640625" lon="6.74535267055034637451171875">
        <ele>1388.800048828125</ele>
        <time>2026-09-03T05:49:53.000Z</time>
        <extensions>
          <ns3:TrackPointExtension>
            <ns3:hr>97</ns3:hr>
            <ns3:cad>0</ns3:cad>
          </ns3:TrackPointExtension>
        </extensions>
      </trkpt>
      <trkpt lat="44.716724194586277008056640625" lon="6.74535267055034637451171875">
        <ele>1388.800048828125</ele>
        <time>2026-09-03T05:49:54.000Z</time>
        <extensions>
          <ns3:TrackPointExtension>
            <ns3:hr>97</ns3:hr>
            <ns3:cad>0</ns3:cad>
          </ns3:TrackPointExtension>
        </extensions>
      </trkpt>
      <trkpt lat="44.716724194586277008056640625" lon="6.74535267055034637451171875">
        <ele>1388.5999755859375</ele>
        <time>2026-09-03T05:49:55.000Z</time>
        <extensions>
          <ns3:TrackPointExtension>
            <ns3:hr>97</ns3:hr>
            <ns3:cad>0</ns3:cad>
          </ns3:TrackPointExtension>
        </extensions>
      </trkpt>
      <trkpt lat="44.716724194586277008056640625" lon="6.74535267055034637451171875">
        <ele>1388.5999755859375</ele>
        <time>2026-09-03T05:49:56.000Z</time>
        <extensions>
          <ns3:TrackPointExtension>
            <ns3:hr>97</ns3:hr>
            <ns3:cad>0</ns3:cad>
          </ns3:TrackPointExtension>
        </extensions>
      </trkpt>
      <trkpt lat="44.716724194586277008056640625" lon="6.74535267055034637451171875">
        <ele>1388.5999755859375</ele>
        <time>2026-09-03T05:49:57.000Z</time>
        <extensions>
          <ns3:TrackPointExtension>
            <ns3:hr>97</ns3:hr>
            <ns3:cad>0</ns3:cad>
          </ns3:TrackPointExtension>
        </extensions>
      </trkpt>
      <trkpt lat="44.716724194586277008056640625" lon="6.74535267055034637451171875">
        <ele>1388.5999755859375</ele>
        <time>2026-09-03T05:49:58.000Z</time>
        <extensions>
          <ns3:TrackPointExtension>
            <ns3:hr>97</ns3:hr>
            <ns3:cad>0</ns3:cad>
          </ns3:TrackPointExtension>
        </extensions>
      </trkpt>
      <trkpt lat="44.716724194586277008056640625" lon="6.74535267055034637451171875">
        <ele>1388.5999755859375</ele>
        <time>2026-09-03T05:49:59.000Z</time>
        <extensions>
          <ns3:TrackPointExtension>
            <ns3:hr>97</ns3:hr>
            <ns3:cad>0</ns3:cad>
          </ns3:TrackPointExtension>
        </extensions>
      </trkpt>
      <trkpt lat="44.716724194586277008056640625" lon="6.74535267055034637451171875">
        <ele>1388.5999755859375</ele>
        <time>2026-09-03T05:50:00.000Z</time>
        <extensions>
          <ns3:TrackPointExtension>
            <ns3:hr>97</ns3:hr>
            <ns3:cad>0</ns3:cad>
          </ns3:TrackPointExtension>
        </extensions>
      </trkpt>
      <trkpt lat="44.716724194586277008056640625" lon="6.74535267055034637451171875">
        <ele>1388.5999755859375</ele>
        <time>2026-09-03T05:50:01.000Z</time>
        <extensions>
          <ns3:TrackPointExtension>
            <ns3:hr>97</ns3:hr>
            <ns3:cad>0</ns3:cad>
          </ns3:TrackPointExtension>
        </extensions>
      </trkpt>
      <trkpt lat="44.716724194586277008056640625" lon="6.74535267055034637451171875">
        <ele>1388.5999755859375</ele>
        <time>2026-09-03T05:50:02.000Z</time>
        <extensions>
          <ns3:TrackPointExtension>
            <ns3:hr>96</ns3:hr>
            <ns3:cad>0</ns3:cad>
          </ns3:TrackPointExtension>
        </extensions>
      </trkpt>
      <trkpt lat="44.716724194586277008056640625" lon="6.74535267055034637451171875">
        <ele>1388.5999755859375</ele>
        <time>2026-09-03T05:50:03.000Z</time>
        <extensions>
          <ns3:TrackPointExtension>
            <ns3:hr>96</ns3:hr>
            <ns3:cad>0</ns3:cad>
          </ns3:TrackPointExtension>
        </extensions>
      </trkpt>
      <trkpt lat="44.716724194586277008056640625" lon="6.74535267055034637451171875">
        <ele>1388.5999755859375</ele>
        <time>2026-09-03T05:50:04.000Z</time>
        <extensions>
          <ns3:TrackPointExtension>
            <ns3:hr>96</ns3:hr>
            <ns3:cad>0</ns3:cad>
          </ns3:TrackPointExtension>
        </extensions>
      </trkpt>
      <trkpt lat="44.716724194586277008056640625" lon="6.74535267055034637451171875">
        <ele>1388.5999755859375</ele>
        <time>2026-09-03T05:50:05.000Z</time>
        <extensions>
          <ns3:TrackPointExtension>
            <ns3:hr>96</ns3:hr>
            <ns3:cad>0</ns3:cad>
          </ns3:TrackPointExtension>
        </extensions>
      </trkpt>
      <trkpt lat="44.716724194586277008056640625" lon="6.74535267055034637451171875">
        <ele>1388.5999755859375</ele>
        <time>2026-09-03T05:50:06.000Z</time>
        <extensions>
          <ns3:TrackPointExtension>
            <ns3:hr>96</ns3:hr>
            <ns3:cad>0</ns3:cad>
          </ns3:TrackPointExtension>
        </extensions>
      </trkpt>
      <trkpt lat="44.716724194586277008056640625" lon="6.74535267055034637451171875">
        <ele>1388.5999755859375</ele>
        <time>2026-09-03T05:50:07.000Z</time>
        <extensions>
          <ns3:TrackPointExtension>
            <ns3:hr>95</ns3:hr>
            <ns3:cad>0</ns3:cad>
          </ns3:TrackPointExtension>
        </extensions>
      </trkpt>
      <trkpt lat="44.716724194586277008056640625" lon="6.74535267055034637451171875">
        <ele>1388.5999755859375</ele>
        <time>2026-09-03T05:50:08.000Z</time>
        <extensions>
          <ns3:TrackPointExtension>
            <ns3:hr>95</ns3:hr>
            <ns3:cad>0</ns3:cad>
          </ns3:TrackPointExtension>
        </extensions>
      </trkpt>
      <trkpt lat="44.716724194586277008056640625" lon="6.74535267055034637451171875">
        <ele>1388.5999755859375</ele>
        <time>2026-09-03T05:50:09.000Z</time>
        <extensions>
          <ns3:TrackPointExtension>
            <ns3:hr>95</ns3:hr>
            <ns3:cad>0</ns3:cad>
          </ns3:TrackPointExtension>
        </extensions>
      </trkpt>
      <trkpt lat="44.716724194586277008056640625" lon="6.74535267055034637451171875">
        <ele>1388.5999755859375</ele>
        <time>2026-09-03T05:50:10.000Z</time>
        <extensions>
          <ns3:TrackPointExtension>
            <ns3:hr>95</ns3:hr>
            <ns3:cad>0</ns3:cad>
          </ns3:TrackPointExtension>
        </extensions>
      </trkpt>
      <trkpt lat="44.716724194586277008056640625" lon="6.74535267055034637451171875">
        <ele>1388.5999755859375</ele>
        <time>2026-09-03T05:50:11.000Z</time>
        <extensions>
          <ns3:TrackPointExtension>
            <ns3:hr>95</ns3:hr>
            <ns3:cad>0</ns3:cad>
          </ns3:TrackPointExtension>
        </extensions>
      </trkpt>
      <trkpt lat="44.716724194586277008056640625" lon="6.74535267055034637451171875">
        <ele>1388.5999755859375</ele>
        <time>2026-09-03T05:50:12.000Z</time>
        <extensions>
          <ns3:TrackPointExtension>
            <ns3:hr>95</ns3:hr>
            <ns3:cad>0</ns3:cad>
          </ns3:TrackPointExtension>
        </extensions>
      </trkpt>
      <trkpt lat="44.716724194586277008056640625" lon="6.74535267055034637451171875">
        <ele>1388.5999755859375</ele>
        <time>2026-09-03T05:50:13.000Z</time>
        <extensions>
          <ns3:TrackPointExtension>
            <ns3:hr>95</ns3:hr>
            <ns3:cad>0</ns3:cad>
          </ns3:TrackPointExtension>
        </extensions>
      </trkpt>
      <trkpt lat="44.716724194586277008056640625" lon="6.74535267055034637451171875">
        <ele>1388.5999755859375</ele>
        <time>2026-09-03T05:50:14.000Z</time>
        <extensions>
          <ns3:TrackPointExtension>
            <ns3:hr>95</ns3:hr>
            <ns3:cad>0</ns3:cad>
          </ns3:TrackPointExtension>
        </extensions>
      </trkpt>
      <trkpt lat="44.716724194586277008056640625" lon="6.74535267055034637451171875">
        <ele>1388.5999755859375</ele>
        <time>2026-09-03T05:50:15.000Z</time>
        <extensions>
          <ns3:TrackPointExtension>
            <ns3:hr>95</ns3:hr>
            <ns3:cad>0</ns3:cad>
          </ns3:TrackPointExtension>
        </extensions>
      </trkpt>
      <trkpt lat="44.716724194586277008056640625" lon="6.74535267055034637451171875">
        <ele>1388.5999755859375</ele>
        <time>2026-09-03T05:50:16.000Z</time>
        <extensions>
          <ns3:TrackPointExtension>
            <ns3:hr>95</ns3:hr>
            <ns3:cad>0</ns3:cad>
          </ns3:TrackPointExtension>
        </extensions>
      </trkpt>
      <trkpt lat="44.716724194586277008056640625" lon="6.74535267055034637451171875">
        <ele>1388.5999755859375</ele>
        <time>2026-09-03T05:50:17.000Z</time>
        <extensions>
          <ns3:TrackPointExtension>
            <ns3:hr>95</ns3:hr>
            <ns3:cad>0</ns3:cad>
          </ns3:TrackPointExtension>
        </extensions>
      </trkpt>
      <trkpt lat="44.716724194586277008056640625" lon="6.74535267055034637451171875">
        <ele>1388.5999755859375</ele>
        <time>2026-09-03T05:50:18.000Z</time>
        <extensions>
          <ns3:TrackPointExtension>
            <ns3:hr>95</ns3:hr>
            <ns3:cad>0</ns3:cad>
          </ns3:TrackPointExtension>
        </extensions>
      </trkpt>
      <trkpt lat="44.716724194586277008056640625" lon="6.74535267055034637451171875">
        <ele>1388.5999755859375</ele>
        <time>2026-09-03T05:50:19.000Z</time>
        <extensions>
          <ns3:TrackPointExtension>
            <ns3:hr>96</ns3:hr>
            <ns3:cad>0</ns3:cad>
          </ns3:TrackPointExtension>
        </extensions>
      </trkpt>
      <trkpt lat="44.716724194586277008056640625" lon="6.74535267055034637451171875">
        <ele>1388.4000244140625</ele>
        <time>2026-09-03T05:50:20.000Z</time>
        <extensions>
          <ns3:TrackPointExtension>
            <ns3:hr>97</ns3:hr>
            <ns3:cad>0</ns3:cad>
          </ns3:TrackPointExtension>
        </extensions>
      </trkpt>
      <trkpt lat="44.716724194586277008056640625" lon="6.74535267055034637451171875">
        <ele>1388.4000244140625</ele>
        <time>2026-09-03T05:50:21.000Z</time>
        <extensions>
          <ns3:TrackPointExtension>
            <ns3:hr>100</ns3:hr>
            <ns3:cad>0</ns3:cad>
          </ns3:TrackPointExtension>
        </extensions>
      </trkpt>
      <trkpt lat="44.716724194586277008056640625" lon="6.74535267055034637451171875">
        <ele>1388.4000244140625</ele>
        <time>2026-09-03T05:50:22.000Z</time>
        <extensions>
          <ns3:TrackPointExtension>
            <ns3:hr>102</ns3:hr>
            <ns3:cad>0</ns3:cad>
          </ns3:TrackPointExtension>
        </extensions>
      </trkpt>
      <trkpt lat="44.716724194586277008056640625" lon="6.74535267055034637451171875">
        <ele>1388.4000244140625</ele>
        <time>2026-09-03T05:50:23.000Z</time>
        <extensions>
          <ns3:TrackPointExtension>
            <ns3:hr>105</ns3:hr>
            <ns3:cad>0</ns3:cad>
          </ns3:TrackPointExtension>
        </extensions>
      </trkpt>
      <trkpt lat="44.716724194586277008056640625" lon="6.74535267055034637451171875">
        <ele>1388.4000244140625</ele>
        <time>2026-09-03T05:50:24.000Z</time>
        <extensions>
          <ns3:TrackPointExtension>
            <ns3:hr>106</ns3:hr>
            <ns3:cad>0</ns3:cad>
          </ns3:TrackPointExtension>
        </extensions>
      </trkpt>
      <trkpt lat="44.716724194586277008056640625" lon="6.74535267055034637451171875">
        <ele>1388.5999755859375</ele>
        <time>2026-09-03T05:50:25.000Z</time>
        <extensions>
          <ns3:TrackPointExtension>
            <ns3:hr>106</ns3:hr>
            <ns3:cad>0</ns3:cad>
          </ns3:TrackPointExtension>
        </extensions>
      </trkpt>
      <trkpt lat="44.716724194586277008056640625" lon="6.74535267055034637451171875">
        <ele>1388.5999755859375</ele>
        <time>2026-09-03T05:50:26.000Z</time>
        <extensions>
          <ns3:TrackPointExtension>
            <ns3:hr>106</ns3:hr>
            <ns3:cad>0</ns3:cad>
          </ns3:TrackPointExtension>
        </extensions>
      </trkpt>
      <trkpt lat="44.716724194586277008056640625" lon="6.74535267055034637451171875">
        <ele>1388.5999755859375</ele>
        <time>2026-09-03T05:50:27.000Z</time>
        <extensions>
          <ns3:TrackPointExtension>
            <ns3:hr>106</ns3:hr>
            <ns3:cad>0</ns3:cad>
          </ns3:TrackPointExtension>
        </extensions>
      </trkpt>
      <trkpt lat="44.716724194586277008056640625" lon="6.74535267055034637451171875">
        <ele>1388.5999755859375</ele>
        <time>2026-09-03T05:50:28.000Z</time>
        <extensions>
          <ns3:TrackPointExtension>
            <ns3:hr>105</ns3:hr>
            <ns3:cad>0</ns3:cad>
          </ns3:TrackPointExtension>
        </extensions>
      </trkpt>
      <trkpt lat="44.716724194586277008056640625" lon="6.74535267055034637451171875">
        <ele>1388.5999755859375</ele>
        <time>2026-09-03T05:50:29.000Z</time>
        <extensions>
          <ns3:TrackPointExtension>
            <ns3:hr>105</ns3:hr>
            <ns3:cad>0</ns3:cad>
          </ns3:TrackPointExtension>
        </extensions>
      </trkpt>
      <trkpt lat="44.716724194586277008056640625" lon="6.74535267055034637451171875">
        <ele>1388.5999755859375</ele>
        <time>2026-09-03T05:50:30.000Z</time>
        <extensions>
          <ns3:TrackPointExtension>
            <ns3:hr>105</ns3:hr>
            <ns3:cad>0</ns3:cad>
          </ns3:TrackPointExtension>
        </extensions>
      </trkpt>
      <trkpt lat="44.716724194586277008056640625" lon="6.74535267055034637451171875">
        <ele>1388.4000244140625</ele>
        <time>2026-09-03T05:50:31.000Z</time>
        <extensions>
          <ns3:TrackPointExtension>
            <ns3:hr>105</ns3:hr>
            <ns3:cad>0</ns3:cad>
          </ns3:TrackPointExtension>
        </extensions>
      </trkpt>
      <trkpt lat="44.716724194586277008056640625" lon="6.74535267055034637451171875">
        <ele>1388.4000244140625</ele>
        <time>2026-09-03T05:50:32.000Z</time>
        <extensions>
          <ns3:TrackPointExtension>
            <ns3:hr>104</ns3:hr>
            <ns3:cad>0</ns3:cad>
          </ns3:TrackPointExtension>
        </extensions>
      </trkpt>
      <trkpt lat="44.716724194586277008056640625" lon="6.74535267055034637451171875">
        <ele>1388.4000244140625</ele>
        <time>2026-09-03T05:50:33.000Z</time>
        <extensions>
          <ns3:TrackPointExtension>
            <ns3:hr>104</ns3:hr>
            <ns3:cad>0</ns3:cad>
          </ns3:TrackPointExtension>
        </extensions>
      </trkpt>
      <trkpt lat="44.716724194586277008056640625" lon="6.74535267055034637451171875">
        <ele>1388.5999755859375</ele>
        <time>2026-09-03T05:50:34.000Z</time>
        <extensions>
          <ns3:TrackPointExtension>
            <ns3:hr>104</ns3:hr>
            <ns3:cad>0</ns3:cad>
          </ns3:TrackPointExtension>
        </extensions>
      </trkpt>
      <trkpt lat="44.716724194586277008056640625" lon="6.74535267055034637451171875">
        <ele>1388.5999755859375</ele>
        <time>2026-09-03T05:50:35.000Z</time>
        <extensions>
          <ns3:TrackPointExtension>
            <ns3:hr>104</ns3:hr>
            <ns3:cad>0</ns3:cad>
          </ns3:TrackPointExtension>
        </extensions>
      </trkpt>
      <trkpt lat="44.716724194586277008056640625" lon="6.74535267055034637451171875">
        <ele>1388.5999755859375</ele>
        <time>2026-09-03T05:50:36.000Z</time>
        <extensions>
          <ns3:TrackPointExtension>
            <ns3:hr>104</ns3:hr>
            <ns3:cad>0</ns3:cad>
          </ns3:TrackPointExtension>
        </extensions>
      </trkpt>
      <trkpt lat="44.716724194586277008056640625" lon="6.74535267055034637451171875">
        <ele>1388.5999755859375</ele>
        <time>2026-09-03T05:50:37.000Z</time>
        <extensions>
          <ns3:TrackPointExtension>
            <ns3:hr>103</ns3:hr>
            <ns3:cad>0</ns3:cad>
          </ns3:TrackPointExtension>
        </extensions>
      </trkpt>
      <trkpt lat="44.716724194586277008056640625" lon="6.74535267055034637451171875">
        <ele>1388.5999755859375</ele>
        <time>2026-09-03T05:50:38.000Z</time>
        <extensions>
          <ns3:TrackPointExtension>
            <ns3:hr>103</ns3:hr>
            <ns3:cad>0</ns3:cad>
          </ns3:TrackPointExtension>
        </extensions>
      </trkpt>
      <trkpt lat="44.716724194586277008056640625" lon="6.74535267055034637451171875">
        <ele>1388.5999755859375</ele>
        <time>2026-09-03T05:50:39.000Z</time>
        <extensions>
          <ns3:TrackPointExtension>
            <ns3:hr>103</ns3:hr>
            <ns3:cad>0</ns3:cad>
          </ns3:TrackPointExtension>
        </extensions>
      </trkpt>
      <trkpt lat="44.716724194586277008056640625" lon="6.74535267055034637451171875">
        <ele>1388.800048828125</ele>
        <time>2026-09-03T05:50:40.000Z</time>
        <extensions>
          <ns3:TrackPointExtension>
            <ns3:hr>103</ns3:hr>
            <ns3:cad>0</ns3:cad>
          </ns3:TrackPointExtension>
        </extensions>
      </trkpt>
      <trkpt lat="44.716724194586277008056640625" lon="6.74535267055034637451171875">
        <ele>1388.5999755859375</ele>
        <time>2026-09-03T05:50:41.000Z</time>
        <extensions>
          <ns3:TrackPointExtension>
            <ns3:hr>103</ns3:hr>
            <ns3:cad>0</ns3:cad>
          </ns3:TrackPointExtension>
        </extensions>
      </trkpt>
      <trkpt lat="44.716724194586277008056640625" lon="6.74535267055034637451171875">
        <ele>1388.5999755859375</ele>
        <time>2026-09-03T05:50:42.000Z</time>
        <extensions>
          <ns3:TrackPointExtension>
            <ns3:hr>103</ns3:hr>
            <ns3:cad>0</ns3:cad>
          </ns3:TrackPointExtension>
        </extensions>
      </trkpt>
      <trkpt lat="44.716724194586277008056640625" lon="6.74535267055034637451171875">
        <ele>1388.5999755859375</ele>
        <time>2026-09-03T05:50:43.000Z</time>
        <extensions>
          <ns3:TrackPointExtension>
            <ns3:hr>103</ns3:hr>
            <ns3:cad>0</ns3:cad>
          </ns3:TrackPointExtension>
        </extensions>
      </trkpt>
      <trkpt lat="44.716724194586277008056640625" lon="6.74535267055034637451171875">
        <ele>1388.5999755859375</ele>
        <time>2026-09-03T05:50:44.000Z</time>
        <extensions>
          <ns3:TrackPointExtension>
            <ns3:hr>103</ns3:hr>
            <ns3:cad>0</ns3:cad>
          </ns3:TrackPointExtension>
        </extensions>
      </trkpt>
      <trkpt lat="44.71672662533819675445556640625" lon="6.74534185789525508880615234375">
        <ele>1388.5999755859375</ele>
        <time>2026-09-03T05:50:45.000Z</time>
        <extensions>
          <ns3:TrackPointExtension>
            <ns3:hr>102</ns3:hr>
            <ns3:cad>0</ns3:cad>
          </ns3:TrackPointExtension>
        </extensions>
      </trkpt>
      <trkpt lat="44.71672981046140193939208984375" lon="6.74533481709659099578857421875">
        <ele>1388.5999755859375</ele>
        <time>2026-09-03T05:50:46.000Z</time>
        <extensions>
          <ns3:TrackPointExtension>
            <ns3:hr>102</ns3:hr>
            <ns3:cad>0</ns3:cad>
          </ns3:TrackPointExtension>
        </extensions>
      </trkpt>
      <trkpt lat="44.716739952564239501953125" lon="6.74532157368957996368408203125">
        <ele>1388.5999755859375</ele>
        <time>2026-09-03T05:50:47.000Z</time>
        <extensions>
          <ns3:TrackPointExtension>
            <ns3:hr>101</ns3:hr>
            <ns3:cad>0</ns3:cad>
          </ns3:TrackPointExtension>
        </extensions>
      </trkpt>
      <trkpt lat="44.7167448140680789947509765625" lon="6.74532073549926280975341796875">
        <ele>1388.5999755859375</ele>
        <time>2026-09-03T05:50:48.000Z</time>
        <extensions>
          <ns3:TrackPointExtension>
            <ns3:hr>101</ns3:hr>
            <ns3:cad>0</ns3:cad>
          </ns3:TrackPointExtension>
        </extensions>
      </trkpt>
      <trkpt lat="44.71675135195255279541015625" lon="6.74531738273799419403076171875">
        <ele>1388.5999755859375</ele>
        <time>2026-09-03T05:50:49.000Z</time>
        <extensions>
          <ns3:TrackPointExtension>
            <ns3:hr>101</ns3:hr>
            <ns3:cad>0</ns3:cad>
          </ns3:TrackPointExtension>
        </extensions>
      </trkpt>
      <trkpt lat="44.71675629727542400360107421875" lon="6.745302379131317138671875">
        <ele>1388.800048828125</ele>
        <time>2026-09-03T05:50:50.000Z</time>
        <extensions>
          <ns3:TrackPointExtension>
            <ns3:hr>101</ns3:hr>
            <ns3:cad>0</ns3:cad>
          </ns3:TrackPointExtension>
        </extensions>
      </trkpt>
      <trkpt lat="44.71676115877926349639892578125" lon="6.74529441632330417633056640625">
        <ele>1388.800048828125</ele>
        <time>2026-09-03T05:50:51.000Z</time>
        <extensions>
          <ns3:TrackPointExtension>
            <ns3:hr>100</ns3:hr>
            <ns3:cad>0</ns3:cad>
          </ns3:TrackPointExtension>
        </extensions>
      </trkpt>
      <trkpt lat="44.71677054651081562042236328125" lon="6.7452867887914180755615234375">
        <ele>1388.800048828125</ele>
        <time>2026-09-03T05:50:52.000Z</time>
        <extensions>
          <ns3:TrackPointExtension>
            <ns3:hr>100</ns3:hr>
            <ns3:cad>0</ns3:cad>
          </ns3:TrackPointExtension>
        </extensions>
      </trkpt>
      <trkpt lat="44.71676887013018131256103515625" lon="6.74527782015502452850341796875">
        <ele>1388.800048828125</ele>
        <time>2026-09-03T05:50:53.000Z</time>
        <extensions>
          <ns3:TrackPointExtension>
            <ns3:hr>99</ns3:hr>
            <ns3:cad>0</ns3:cad>
          </ns3:TrackPointExtension>
        </extensions>
      </trkpt>
      <trkpt lat="44.71676702611148357391357421875" lon="6.74527396447956562042236328125">
        <ele>1389</ele>
        <time>2026-09-03T05:50:54.000Z</time>
        <extensions>
          <ns3:TrackPointExtension>
            <ns3:hr>99</ns3:hr>
            <ns3:cad>0</ns3:cad>
          </ns3:TrackPointExtension>
        </extensions>
      </trkpt>
      <trkpt lat="44.71676702611148357391357421875" lon="6.74527396447956562042236328125">
        <ele>1389</ele>
        <time>2026-09-03T05:50:55.000Z</time>
        <extensions>
          <ns3:TrackPointExtension>
            <ns3:hr>98</ns3:hr>
            <ns3:cad>0</ns3:cad>
          </ns3:TrackPointExtension>
        </extensions>
      </trkpt>
      <trkpt lat="44.71676702611148357391357421875" lon="6.74527396447956562042236328125">
        <ele>1389.199951171875</ele>
        <time>2026-09-03T05:50:56.000Z</time>
        <extensions>
          <ns3:TrackPointExtension>
            <ns3:hr>98</ns3:hr>
            <ns3:cad>0</ns3:cad>
          </ns3:TrackPointExtension>
        </extensions>
      </trkpt>
      <trkpt lat="44.71676702611148357391357421875" lon="6.74527396447956562042236328125">
        <ele>1389.199951171875</ele>
        <time>2026-09-03T05:50:57.000Z</time>
        <extensions>
          <ns3:TrackPointExtension>
            <ns3:hr>98</ns3:hr>
            <ns3:cad>0</ns3:cad>
          </ns3:TrackPointExtension>
        </extensions>
      </trkpt>
      <trkpt lat="44.71676702611148357391357421875" lon="6.74527396447956562042236328125">
        <ele>1389.199951171875</ele>
        <time>2026-09-03T05:50:58.000Z</time>
        <extensions>
          <ns3:TrackPointExtension>
            <ns3:hr>98</ns3:hr>
            <ns3:cad>0</ns3:cad>
          </ns3:TrackPointExtension>
        </extensions>
      </trkpt>
      <trkpt lat="44.71676702611148357391357421875" lon="6.74527396447956562042236328125">
        <ele>1389.199951171875</ele>
        <time>2026-09-03T05:50:59.000Z</time>
        <extensions>
          <ns3:TrackPointExtension>
            <ns3:hr>98</ns3:hr>
            <ns3:cad>0</ns3:cad>
          </ns3:TrackPointExtension>
        </extensions>
      </trkpt>
      <trkpt lat="44.71676702611148357391357421875" lon="6.74527396447956562042236328125">
        <ele>1389.199951171875</ele>
        <time>2026-09-03T05:51:00.000Z</time>
        <extensions>
          <ns3:TrackPointExtension>
            <ns3:hr>97</ns3:hr>
            <ns3:cad>0</ns3:cad>
          </ns3:TrackPointExtension>
        </extensions>
      </trkpt>
      <trkpt lat="44.71676702611148357391357421875" lon="6.74527396447956562042236328125">
        <ele>1389.199951171875</ele>
        <time>2026-09-03T05:51:01.000Z</time>
        <extensions>
          <ns3:TrackPointExtension>
            <ns3:hr>97</ns3:hr>
            <ns3:cad>0</ns3:cad>
          </ns3:TrackPointExtension>
        </extensions>
      </trkpt>
      <trkpt lat="44.71676702611148357391357421875" lon="6.74527396447956562042236328125">
        <ele>1389.199951171875</ele>
        <time>2026-09-03T05:51:02.000Z</time>
        <extensions>
          <ns3:TrackPointExtension>
            <ns3:hr>97</ns3:hr>
            <ns3:cad>0</ns3:cad>
          </ns3:TrackPointExtension>
        </extensions>
      </trkpt>
      <trkpt lat="44.71676702611148357391357421875" lon="6.74527396447956562042236328125">
        <ele>1389.199951171875</ele>
        <time>2026-09-03T05:51:03.000Z</time>
        <extensions>
          <ns3:TrackPointExtension>
            <ns3:hr>97</ns3:hr>
            <ns3:cad>0</ns3:cad>
          </ns3:TrackPointExtension>
        </extensions>
      </trkpt>
      <trkpt lat="44.71676702611148357391357421875" lon="6.74527396447956562042236328125">
        <ele>1389.199951171875</ele>
        <time>2026-09-03T05:51:04.000Z</time>
        <extensions>
          <ns3:TrackPointExtension>
            <ns3:hr>96</ns3:hr>
            <ns3:cad>0</ns3:cad>
          </ns3:TrackPointExtension>
        </extensions>
      </trkpt>
      <trkpt lat="44.71676702611148357391357421875" lon="6.74527396447956562042236328125">
        <ele>1389.4000244140625</ele>
        <time>2026-09-03T05:51:05.000Z</time>
        <extensions>
          <ns3:TrackPointExtension>
            <ns3:hr>96</ns3:hr>
            <ns3:cad>0</ns3:cad>
          </ns3:TrackPointExtension>
        </extensions>
      </trkpt>
      <trkpt lat="44.7167627513408660888671875" lon="6.74527312628924846649169921875">
        <ele>1389.4000244140625</ele>
        <time>2026-09-03T05:51:06.000Z</time>
        <extensions>
          <ns3:TrackPointExtension>
            <ns3:hr>96</ns3:hr>
            <ns3:cad>0</ns3:cad>
          </ns3:TrackPointExtension>
        </extensions>
      </trkpt>
      <trkpt lat="44.71675059758126735687255859375" lon="6.7452696897089481353759765625">
        <ele>1389.4000244140625</ele>
        <time>2026-09-03T05:51:07.000Z</time>
        <extensions>
          <ns3:TrackPointExtension>
            <ns3:hr>95</ns3:hr>
            <ns3:cad>0</ns3:cad>
          </ns3:TrackPointExtension>
        </extensions>
      </trkpt>
      <trkpt lat="44.7167386114597320556640625" lon="6.74527010880410671234130859375">
        <ele>1389.4000244140625</ele>
        <time>2026-09-03T05:51:08.000Z</time>
        <extensions>
          <ns3:TrackPointExtension>
            <ns3:hr>95</ns3:hr>
            <ns3:cad>0</ns3:cad>
          </ns3:TrackPointExtension>
        </extensions>
      </trkpt>
      <trkpt lat="44.71672545187175273895263671875" lon="6.7452673427760601043701171875">
        <ele>1389.4000244140625</ele>
        <time>2026-09-03T05:51:09.000Z</time>
        <extensions>
          <ns3:TrackPointExtension>
            <ns3:hr>95</ns3:hr>
            <ns3:cad>0</ns3:cad>
          </ns3:TrackPointExtension>
        </extensions>
      </trkpt>
      <trkpt lat="44.71671388484537601470947265625" lon="6.74526390619575977325439453125">
        <ele>1389.5999755859375</ele>
        <time>2026-09-03T05:51:10.000Z</time>
        <extensions>
          <ns3:TrackPointExtension>
            <ns3:hr>96</ns3:hr>
            <ns3:cad>0</ns3:cad>
          </ns3:TrackPointExtension>
        </extensions>
      </trkpt>
      <trkpt lat="44.71670080907642841339111328125" lon="6.74526222981512546539306640625">
        <ele>1389.5999755859375</ele>
        <time>2026-09-03T05:51:11.000Z</time>
        <extensions>
          <ns3:TrackPointExtension>
            <ns3:hr>96</ns3:hr>
            <ns3:cad>0</ns3:cad>
          </ns3:TrackPointExtension>
        </extensions>
      </trkpt>
      <trkpt lat="44.71668672747910022735595703125" lon="6.7452589608728885650634765625">
        <ele>1389.5999755859375</ele>
        <time>2026-09-03T05:51:12.000Z</time>
        <extensions>
          <ns3:TrackPointExtension>
            <ns3:hr>97</ns3:hr>
            <ns3:cad>0</ns3:cad>
          </ns3:TrackPointExtension>
        </extensions>
      </trkpt>
      <trkpt lat="44.71667834557592868804931640625" lon="6.74524898640811443328857421875">
        <ele>1389.4000244140625</ele>
        <time>2026-09-03T05:51:13.000Z</time>
        <extensions>
          <ns3:TrackPointExtension>
            <ns3:hr>98</ns3:hr>
            <ns3:cad>0</ns3:cad>
          </ns3:TrackPointExtension>
        </extensions>
      </trkpt>
      <trkpt lat="44.7166700474917888641357421875" lon="6.74524345435202121734619140625">
        <ele>1389.4000244140625</ele>
        <time>2026-09-03T05:51:14.000Z</time>
        <extensions>
          <ns3:TrackPointExtension>
            <ns3:hr>98</ns3:hr>
            <ns3:cad>0</ns3:cad>
          </ns3:TrackPointExtension>
        </extensions>
      </trkpt>
      <trkpt lat="44.7166599892079830169677734375" lon="6.7452435381710529327392578125">
        <ele>1389.5999755859375</ele>
        <time>2026-09-03T05:51:15.000Z</time>
        <extensions>
          <ns3:TrackPointExtension>
            <ns3:hr>99</ns3:hr>
            <ns3:cad>63</ns3:cad>
          </ns3:TrackPointExtension>
        </extensions>
      </trkpt>
      <trkpt lat="44.7166489250957965850830078125" lon="6.745239682495594024658203125">
        <ele>1389.5999755859375</ele>
        <time>2026-09-03T05:51:16.000Z</time>
        <extensions>
          <ns3:TrackPointExtension>
            <ns3:hr>99</ns3:hr>
            <ns3:cad>63</ns3:cad>
          </ns3:TrackPointExtension>
        </extensions>
      </trkpt>
      <trkpt lat="44.71664515323936939239501953125" lon="6.7452391795814037322998046875">
        <ele>1389.800048828125</ele>
        <time>2026-09-03T05:51:17.000Z</time>
        <extensions>
          <ns3:TrackPointExtension>
            <ns3:hr>99</ns3:hr>
            <ns3:cad>63</ns3:cad>
          </ns3:TrackPointExtension>
        </extensions>
      </trkpt>
      <trkpt lat="44.71663308329880237579345703125" lon="6.7452398501336574554443359375">
        <ele>1390</ele>
        <time>2026-09-03T05:51:18.000Z</time>
        <extensions>
          <ns3:TrackPointExtension>
            <ns3:hr>99</ns3:hr>
            <ns3:cad>63</ns3:cad>
          </ns3:TrackPointExtension>
        </extensions>
      </trkpt>
      <trkpt lat="44.71662126481533050537109375" lon="6.74523892812430858612060546875">
        <ele>1390</ele>
        <time>2026-09-03T05:51:19.000Z</time>
        <extensions>
          <ns3:TrackPointExtension>
            <ns3:hr>99</ns3:hr>
            <ns3:cad>63</ns3:cad>
          </ns3:TrackPointExtension>
        </extensions>
      </trkpt>
      <trkpt lat="44.7166073508560657501220703125" lon="6.7452445439994335174560546875">
        <ele>1389.800048828125</ele>
        <time>2026-09-03T05:51:20.000Z</time>
        <extensions>
          <ns3:TrackPointExtension>
            <ns3:hr>99</ns3:hr>
            <ns3:cad>59</ns3:cad>
          </ns3:TrackPointExtension>
        </extensions>
      </trkpt>
      <trkpt lat="44.71659385599195957183837890625" lon="6.74524605274200439453125">
        <ele>1389.5999755859375</ele>
        <time>2026-09-03T05:51:21.000Z</time>
        <extensions>
          <ns3:TrackPointExtension>
            <ns3:hr>98</ns3:hr>
            <ns3:cad>59</ns3:cad>
          </ns3:TrackPointExtension>
        </extensions>
      </trkpt>
      <trkpt lat="44.71657994203269481658935546875" lon="6.74524932168424129486083984375">
        <ele>1389.4000244140625</ele>
        <time>2026-09-03T05:51:22.000Z</time>
        <extensions>
          <ns3:TrackPointExtension>
            <ns3:hr>98</ns3:hr>
            <ns3:cad>59</ns3:cad>
          </ns3:TrackPointExtension>
        </extensions>
      </trkpt>
      <trkpt lat="44.71656502224504947662353515625" lon="6.74525133334100246429443359375">
        <ele>1389</ele>
        <time>2026-09-03T05:51:23.000Z</time>
        <extensions>
          <ns3:TrackPointExtension>
            <ns3:hr>98</ns3:hr>
            <ns3:cad>75</ns3:cad>
          </ns3:TrackPointExtension>
        </extensions>
      </trkpt>
      <trkpt lat="44.71654708497226238250732421875" lon="6.74525937996804714202880859375">
        <ele>1388.5999755859375</ele>
        <time>2026-09-03T05:51:24.000Z</time>
        <extensions>
          <ns3:TrackPointExtension>
            <ns3:hr>98</ns3:hr>
            <ns3:cad>79</ns3:cad>
          </ns3:TrackPointExtension>
        </extensions>
      </trkpt>
      <trkpt lat="44.71652336418628692626953125" lon="6.74526541493833065032958984375">
        <ele>1388.199951171875</ele>
        <time>2026-09-03T05:51:25.000Z</time>
        <extensions>
          <ns3:TrackPointExtension>
            <ns3:hr>98</ns3:hr>
            <ns3:cad>82</ns3:cad>
          </ns3:TrackPointExtension>
        </extensions>
      </trkpt>
      <trkpt lat="44.716498889029026031494140625" lon="6.74527111463248729705810546875">
        <ele>1387.800048828125</ele>
        <time>2026-09-03T05:51:26.000Z</time>
        <extensions>
          <ns3:TrackPointExtension>
            <ns3:hr>98</ns3:hr>
            <ns3:cad>82</ns3:cad>
          </ns3:TrackPointExtension>
        </extensions>
      </trkpt>
      <trkpt lat="44.71647416241466999053955078125" lon="6.74527480266988277435302734375">
        <ele>1387.5999755859375</ele>
        <time>2026-09-03T05:51:27.000Z</time>
        <extensions>
          <ns3:TrackPointExtension>
            <ns3:hr>99</ns3:hr>
            <ns3:cad>82</ns3:cad>
          </ns3:TrackPointExtension>
        </extensions>
      </trkpt>
      <trkpt lat="44.71645438112318515777587890625" lon="6.74528368748724460601806640625">
        <ele>1387.199951171875</ele>
        <time>2026-09-03T05:51:28.000Z</time>
        <extensions>
          <ns3:TrackPointExtension>
            <ns3:hr>99</ns3:hr>
            <ns3:cad>82</ns3:cad>
          </ns3:TrackPointExtension>
        </extensions>
      </trkpt>
      <trkpt lat="44.7164346836507320404052734375" lon="6.745291315019130706787109375">
        <ele>1387</ele>
        <time>2026-09-03T05:51:29.000Z</time>
        <extensions>
          <ns3:TrackPointExtension>
            <ns3:hr>99</ns3:hr>
            <ns3:cad>82</ns3:cad>
          </ns3:TrackPointExtension>
        </extensions>
      </trkpt>
      <trkpt lat="44.71641766838729381561279296875" lon="6.7452938295900821685791015625">
        <ele>1386.800048828125</ele>
        <time>2026-09-03T05:51:30.000Z</time>
        <extensions>
          <ns3:TrackPointExtension>
            <ns3:hr>100</ns3:hr>
            <ns3:cad>82</ns3:cad>
          </ns3:TrackPointExtension>
        </extensions>
      </trkpt>
      <trkpt lat="44.716401658952236175537109375" lon="6.74530447460711002349853515625">
        <ele>1386.5999755859375</ele>
        <time>2026-09-03T05:51:31.000Z</time>
        <extensions>
          <ns3:TrackPointExtension>
            <ns3:hr>100</ns3:hr>
            <ns3:cad>81</ns3:cad>
          </ns3:TrackPointExtension>
        </extensions>
      </trkpt>
      <trkpt lat="44.71638179384171962738037109375" lon="6.7453109286725521087646484375">
        <ele>1386.199951171875</ele>
        <time>2026-09-03T05:51:32.000Z</time>
        <extensions>
          <ns3:TrackPointExtension>
            <ns3:hr>101</ns3:hr>
            <ns3:cad>82</ns3:cad>
          </ns3:TrackPointExtension>
        </extensions>
      </trkpt>
      <trkpt lat="44.71635933034121990203857421875" lon="6.74531755037605762481689453125">
        <ele>1386</ele>
        <time>2026-09-03T05:51:33.000Z</time>
        <extensions>
          <ns3:TrackPointExtension>
            <ns3:hr>102</ns3:hr>
            <ns3:cad>82</ns3:cad>
          </ns3:TrackPointExtension>
        </extensions>
      </trkpt>
      <trkpt lat="44.71634097397327423095703125" lon="6.74532308243215084075927734375">
        <ele>1385.5999755859375</ele>
        <time>2026-09-03T05:51:34.000Z</time>
        <extensions>
          <ns3:TrackPointExtension>
            <ns3:hr>103</ns3:hr>
            <ns3:cad>82</ns3:cad>
          </ns3:TrackPointExtension>
        </extensions>
      </trkpt>
      <trkpt lat="44.7163190133869647979736328125" lon="6.74532987177371978759765625">
        <ele>1385.4000244140625</ele>
        <time>2026-09-03T05:51:35.000Z</time>
        <extensions>
          <ns3:TrackPointExtension>
            <ns3:hr>103</ns3:hr>
            <ns3:cad>82</ns3:cad>
          </ns3:TrackPointExtension>
        </extensions>
      </trkpt>
      <trkpt lat="44.71630074083805084228515625" lon="6.745339594781398773193359375">
        <ele>1385.199951171875</ele>
        <time>2026-09-03T05:51:36.000Z</time>
        <extensions>
          <ns3:TrackPointExtension>
            <ns3:hr>103</ns3:hr>
            <ns3:cad>82</ns3:cad>
          </ns3:TrackPointExtension>
        </extensions>
      </trkpt>
      <trkpt lat="44.71627970226109027862548828125" lon="6.74537203274667263031005859375">
        <ele>1385</ele>
        <time>2026-09-03T05:51:37.000Z</time>
        <extensions>
          <ns3:TrackPointExtension>
            <ns3:hr>104</ns3:hr>
            <ns3:cad>84</ns3:cad>
          </ns3:TrackPointExtension>
        </extensions>
      </trkpt>
      <trkpt lat="44.71625355072319507598876953125" lon="6.745383180677890777587890625">
        <ele>1385</ele>
        <time>2026-09-03T05:51:38.000Z</time>
        <extensions>
          <ns3:TrackPointExtension>
            <ns3:hr>104</ns3:hr>
            <ns3:cad>84</ns3:cad>
          </ns3:TrackPointExtension>
        </extensions>
      </trkpt>
      <trkpt lat="44.71622756682336330413818359375" lon="6.74539114348590373992919921875">
        <ele>1385</ele>
        <time>2026-09-03T05:51:39.000Z</time>
        <extensions>
          <ns3:TrackPointExtension>
            <ns3:hr>105</ns3:hr>
            <ns3:cad>84</ns3:cad>
          </ns3:TrackPointExtension>
        </extensions>
      </trkpt>
      <trkpt lat="44.71620057709515094757080078125" lon="6.74540002830326557159423828125">
        <ele>1384.800048828125</ele>
        <time>2026-09-03T05:51:40.000Z</time>
        <extensions>
          <ns3:TrackPointExtension>
            <ns3:hr>105</ns3:hr>
            <ns3:cad>84</ns3:cad>
          </ns3:TrackPointExtension>
        </extensions>
      </trkpt>
      <trkpt lat="44.71617392264306545257568359375" lon="6.745401956140995025634765625">
        <ele>1384.5999755859375</ele>
        <time>2026-09-03T05:51:41.000Z</time>
        <extensions>
          <ns3:TrackPointExtension>
            <ns3:hr>106</ns3:hr>
            <ns3:cad>83</ns3:cad>
          </ns3:TrackPointExtension>
        </extensions>
      </trkpt>
      <trkpt lat="44.716148860752582550048828125" lon="6.745405979454517364501953125">
        <ele>1384.4000244140625</ele>
        <time>2026-09-03T05:51:42.000Z</time>
        <extensions>
          <ns3:TrackPointExtension>
            <ns3:hr>106</ns3:hr>
            <ns3:cad>83</ns3:cad>
          </ns3:TrackPointExtension>
        </extensions>
      </trkpt>
      <trkpt lat="44.71612161956727504730224609375" lon="6.74540388397872447967529296875">
        <ele>1384</ele>
        <time>2026-09-03T05:51:43.000Z</time>
        <extensions>
          <ns3:TrackPointExtension>
            <ns3:hr>107</ns3:hr>
            <ns3:cad>83</ns3:cad>
          </ns3:TrackPointExtension>
        </extensions>
      </trkpt>
      <trkpt lat="44.71609965898096561431884765625" lon="6.74539466388523578643798828125">
        <ele>1383.800048828125</ele>
        <time>2026-09-03T05:51:44.000Z</time>
        <extensions>
          <ns3:TrackPointExtension>
            <ns3:hr>108</ns3:hr>
            <ns3:cad>83</ns3:cad>
          </ns3:TrackPointExtension>
        </extensions>
      </trkpt>
      <trkpt lat="44.71608205698430538177490234375" lon="6.7453890480101108551025390625">
        <ele>1383.5999755859375</ele>
        <time>2026-09-03T05:51:45.000Z</time>
        <extensions>
          <ns3:TrackPointExtension>
            <ns3:hr>108</ns3:hr>
            <ns3:cad>83</ns3:cad>
          </ns3:TrackPointExtension>
        </extensions>
      </trkpt>
      <trkpt lat="44.7160591743886470794677734375" lon="6.74538074992597103118896484375">
        <ele>1383.4000244140625</ele>
        <time>2026-09-03T05:51:46.000Z</time>
        <extensions>
          <ns3:TrackPointExtension>
            <ns3:hr>108</ns3:hr>
            <ns3:cad>83</ns3:cad>
          </ns3:TrackPointExtension>
        </extensions>
      </trkpt>
      <trkpt lat="44.7160460986196994781494140625" lon="6.74537035636603832244873046875">
        <ele>1383.199951171875</ele>
        <time>2026-09-03T05:51:47.000Z</time>
        <extensions>
          <ns3:TrackPointExtension>
            <ns3:hr>109</ns3:hr>
            <ns3:cad>84</ns3:cad>
          </ns3:TrackPointExtension>
        </extensions>
      </trkpt>
      <trkpt lat="44.71603059209883213043212890625" lon="6.74536549486219882965087890625">
        <ele>1383</ele>
        <time>2026-09-03T05:51:48.000Z</time>
        <extensions>
          <ns3:TrackPointExtension>
            <ns3:hr>108</ns3:hr>
            <ns3:cad>84</ns3:cad>
          </ns3:TrackPointExtension>
        </extensions>
      </trkpt>
      <trkpt lat="44.716010391712188720703125" lon="6.7453608848154544830322265625">
        <ele>1382.5999755859375</ele>
        <time>2026-09-03T05:51:49.000Z</time>
        <extensions>
          <ns3:TrackPointExtension>
            <ns3:hr>108</ns3:hr>
            <ns3:cad>83</ns3:cad>
          </ns3:TrackPointExtension>
        </extensions>
      </trkpt>
      <trkpt lat="44.71598935313522815704345703125" lon="6.74535761587321758270263671875">
        <ele>1382.199951171875</ele>
        <time>2026-09-03T05:51:50.000Z</time>
        <extensions>
          <ns3:TrackPointExtension>
            <ns3:hr>108</ns3:hr>
            <ns3:cad>82</ns3:cad>
          </ns3:TrackPointExtension>
        </extensions>
      </trkpt>
      <trkpt lat="44.71597208641469478607177734375" lon="6.74535132944583892822265625">
        <ele>1382</ele>
        <time>2026-09-03T05:51:51.000Z</time>
        <extensions>
          <ns3:TrackPointExtension>
            <ns3:hr>109</ns3:hr>
            <ns3:cad>80</ns3:cad>
          </ns3:TrackPointExtension>
        </extensions>
      </trkpt>
      <trkpt lat="44.7159569151699542999267578125" lon="6.7453642375767230987548828125">
        <ele>1381.5999755859375</ele>
        <time>2026-09-03T05:51:52.000Z</time>
        <extensions>
          <ns3:TrackPointExtension>
            <ns3:hr>109</ns3:hr>
            <ns3:cad>80</ns3:cad>
          </ns3:TrackPointExtension>
        </extensions>
      </trkpt>
      <trkpt lat="44.7159636206924915313720703125" lon="6.745383180677890777587890625">
        <ele>1381.199951171875</ele>
        <time>2026-09-03T05:51:53.000Z</time>
        <extensions>
          <ns3:TrackPointExtension>
            <ns3:hr>109</ns3:hr>
            <ns3:cad>82</ns3:cad>
          </ns3:TrackPointExtension>
        </extensions>
      </trkpt>
      <trkpt lat="44.71597493626177310943603515625" lon="6.74540254287421703338623046875">
        <ele>1380.800048828125</ele>
        <time>2026-09-03T05:51:54.000Z</time>
        <extensions>
          <ns3:TrackPointExtension>
            <ns3:hr>109</ns3:hr>
            <ns3:cad>82</ns3:cad>
          </ns3:TrackPointExtension>
        </extensions>
      </trkpt>
      <trkpt lat="44.715992622077465057373046875" lon="6.74541947431862354278564453125">
        <ele>1380.4000244140625</ele>
        <time>2026-09-03T05:51:55.000Z</time>
        <extensions>
          <ns3:TrackPointExtension>
            <ns3:hr>110</ns3:hr>
            <ns3:cad>71</ns3:cad>
          </ns3:TrackPointExtension>
        </extensions>
      </trkpt>
      <trkpt lat="44.71600645221769809722900390625" lon="6.745434142649173736572265625">
        <ele>1380.199951171875</ele>
        <time>2026-09-03T05:51:56.000Z</time>
        <extensions>
          <ns3:TrackPointExtension>
            <ns3:hr>109</ns3:hr>
            <ns3:cad>71</ns3:cad>
          </ns3:TrackPointExtension>
        </extensions>
      </trkpt>
      <trkpt lat="44.71601852215826511383056640625" lon="6.7454447038471698760986328125">
        <ele>1379.800048828125</ele>
        <time>2026-09-03T05:51:57.000Z</time>
        <extensions>
          <ns3:TrackPointExtension>
            <ns3:hr>109</ns3:hr>
            <ns3:cad>71</ns3:cad>
          </ns3:TrackPointExtension>
        </extensions>
      </trkpt>
      <trkpt lat="44.7160340286791324615478515625" lon="6.74546004272997379302978515625">
        <ele>1379.5999755859375</ele>
        <time>2026-09-03T05:51:58.000Z</time>
        <extensions>
          <ns3:TrackPointExtension>
            <ns3:hr>110</ns3:hr>
            <ns3:cad>71</ns3:cad>
          </ns3:TrackPointExtension>
        </extensions>
      </trkpt>
      <trkpt lat="44.7160474397242069244384765625" lon="6.7454725317656993865966796875">
        <ele>1379.4000244140625</ele>
        <time>2026-09-03T05:51:59.000Z</time>
        <extensions>
          <ns3:TrackPointExtension>
            <ns3:hr>110</ns3:hr>
            <ns3:cad>71</ns3:cad>
          </ns3:TrackPointExtension>
        </extensions>
      </trkpt>
      <trkpt lat="44.71605842001736164093017578125" lon="6.7454835958778858184814453125">
        <ele>1379.199951171875</ele>
        <time>2026-09-03T05:52:00.000Z</time>
        <extensions>
          <ns3:TrackPointExtension>
            <ns3:hr>110</ns3:hr>
            <ns3:cad>71</ns3:cad>
          </ns3:TrackPointExtension>
        </extensions>
      </trkpt>
      <trkpt lat="44.71607032231986522674560546875" lon="6.74549591727554798126220703125">
        <ele>1379</ele>
        <time>2026-09-03T05:52:01.000Z</time>
        <extensions>
          <ns3:TrackPointExtension>
            <ns3:hr>110</ns3:hr>
            <ns3:cad>81</ns3:cad>
          </ns3:TrackPointExtension>
        </extensions>
      </trkpt>
      <trkpt lat="44.7160883434116840362548828125" lon="6.74550429917871952056884765625">
        <ele>1378.800048828125</ele>
        <time>2026-09-03T05:52:02.000Z</time>
        <extensions>
          <ns3:TrackPointExtension>
            <ns3:hr>111</ns3:hr>
            <ns3:cad>81</ns3:cad>
          </ns3:TrackPointExtension>
        </extensions>
      </trkpt>
      <trkpt lat="44.71609831787645816802978515625" lon="6.7455208115279674530029296875">
        <ele>1378.4000244140625</ele>
        <time>2026-09-03T05:52:03.000Z</time>
        <extensions>
          <ns3:TrackPointExtension>
            <ns3:hr>111</ns3:hr>
            <ns3:cad>80</ns3:cad>
          </ns3:TrackPointExtension>
        </extensions>
      </trkpt>
      <trkpt lat="44.716104604303836822509765625" lon="6.7455312050879001617431640625">
        <ele>1378.199951171875</ele>
        <time>2026-09-03T05:52:04.000Z</time>
        <extensions>
          <ns3:TrackPointExtension>
            <ns3:hr>112</ns3:hr>
            <ns3:cad>80</ns3:cad>
          </ns3:TrackPointExtension>
        </extensions>
      </trkpt>
      <trkpt lat="44.71611642278730869293212890625" lon="6.74554721452295780181884765625">
        <ele>1377.800048828125</ele>
        <time>2026-09-03T05:52:05.000Z</time>
        <extensions>
          <ns3:TrackPointExtension>
            <ns3:hr>112</ns3:hr>
            <ns3:cad>80</ns3:cad>
          </ns3:TrackPointExtension>
        </extensions>
      </trkpt>
      <trkpt lat="44.71611843444406986236572265625" lon="6.7455597035586833953857421875">
        <ele>1377.4000244140625</ele>
        <time>2026-09-03T05:52:06.000Z</time>
        <extensions>
          <ns3:TrackPointExtension>
            <ns3:hr>113</ns3:hr>
            <ns3:cad>80</ns3:cad>
          </ns3:TrackPointExtension>
        </extensions>
      </trkpt>
      <trkpt lat="44.716117680072784423828125" lon="6.74556448124349117279052734375">
        <ele>1377.199951171875</ele>
        <time>2026-09-03T05:52:07.000Z</time>
        <extensions>
          <ns3:TrackPointExtension>
            <ns3:hr>113</ns3:hr>
            <ns3:cad>80</ns3:cad>
          </ns3:TrackPointExtension>
        </extensions>
      </trkpt>
      <trkpt lat="44.71611139364540576934814453125" lon="6.7455694265663623809814453125">
        <ele>1376.800048828125</ele>
        <time>2026-09-03T05:52:08.000Z</time>
        <extensions>
          <ns3:TrackPointExtension>
            <ns3:hr>114</ns3:hr>
            <ns3:cad>80</ns3:cad>
          </ns3:TrackPointExtension>
        </extensions>
      </trkpt>
      <trkpt lat="44.7161010839045047760009765625" lon="6.74557521007955074310302734375">
        <ele>1376.5999755859375</ele>
        <time>2026-09-03T05:52:09.000Z</time>
        <extensions>
          <ns3:TrackPointExtension>
            <ns3:hr>115</ns3:hr>
            <ns3:cad>80</ns3:cad>
          </ns3:TrackPointExtension>
        </extensions>
      </trkpt>
      <trkpt lat="44.71609697677195072174072265625" lon="6.745585016906261444091796875">
        <ele>1376.199951171875</ele>
        <time>2026-09-03T05:52:10.000Z</time>
        <extensions>
          <ns3:TrackPointExtension>
            <ns3:hr>115</ns3:hr>
            <ns3:cad>80</ns3:cad>
          </ns3:TrackPointExtension>
        </extensions>
      </trkpt>
      <trkpt lat="44.71607920713722705841064453125" lon="6.745587028563022613525390625">
        <ele>1376</ele>
        <time>2026-09-03T05:52:11.000Z</time>
        <extensions>
          <ns3:TrackPointExtension>
            <ns3:hr>115</ns3:hr>
            <ns3:cad>80</ns3:cad>
          </ns3:TrackPointExtension>
        </extensions>
      </trkpt>
      <trkpt lat="44.71606981940567493438720703125" lon="6.745578311383724212646484375">
        <ele>1375.5999755859375</ele>
        <time>2026-09-03T05:52:12.000Z</time>
        <extensions>
          <ns3:TrackPointExtension>
            <ns3:hr>115</ns3:hr>
            <ns3:cad>80</ns3:cad>
          </ns3:TrackPointExtension>
        </extensions>
      </trkpt>
      <trkpt lat="44.71605322323739528656005859375" lon="6.74558040685951709747314453125">
        <ele>1375.199951171875</ele>
        <time>2026-09-03T05:52:13.000Z</time>
        <extensions>
          <ns3:TrackPointExtension>
            <ns3:hr>114</ns3:hr>
            <ns3:cad>80</ns3:cad>
          </ns3:TrackPointExtension>
        </extensions>
      </trkpt>
      <trkpt lat="44.71603964455425739288330078125" lon="6.74558007158339023590087890625">
        <ele>1375</ele>
        <time>2026-09-03T05:52:14.000Z</time>
        <extensions>
          <ns3:TrackPointExtension>
            <ns3:hr>114</ns3:hr>
            <ns3:cad>80</ns3:cad>
          </ns3:TrackPointExtension>
        </extensions>
      </trkpt>
      <trkpt lat="44.71602606587111949920654296875" lon="6.74558627419173717498779296875">
        <ele>1374.5999755859375</ele>
        <time>2026-09-03T05:52:15.000Z</time>
        <extensions>
          <ns3:TrackPointExtension>
            <ns3:hr>113</ns3:hr>
            <ns3:cad>80</ns3:cad>
          </ns3:TrackPointExtension>
        </extensions>
      </trkpt>
      <trkpt lat="44.71600796096026897430419921875" lon="6.74558510072529315948486328125">
        <ele>1374.4000244140625</ele>
        <time>2026-09-03T05:52:16.000Z</time>
        <extensions>
          <ns3:TrackPointExtension>
            <ns3:hr>114</ns3:hr>
            <ns3:cad>80</ns3:cad>
          </ns3:TrackPointExtension>
        </extensions>
      </trkpt>
      <trkpt lat="44.7159983217716217041015625" lon="6.74559080041944980621337890625">
        <ele>1373.800048828125</ele>
        <time>2026-09-03T05:52:17.000Z</time>
        <extensions>
          <ns3:TrackPointExtension>
            <ns3:hr>113</ns3:hr>
            <ns3:cad>80</ns3:cad>
          </ns3:TrackPointExtension>
        </extensions>
      </trkpt>
      <trkpt lat="44.71597946248948574066162109375" lon="6.745593734085559844970703125">
        <ele>1373.4000244140625</ele>
        <time>2026-09-03T05:52:18.000Z</time>
        <extensions>
          <ns3:TrackPointExtension>
            <ns3:hr>113</ns3:hr>
            <ns3:cad>63</ns3:cad>
          </ns3:TrackPointExtension>
        </extensions>
      </trkpt>
      <trkpt lat="44.71595498733222484588623046875" lon="6.7455898784101009368896484375">
        <ele>1373</ele>
        <time>2026-09-03T05:52:19.000Z</time>
        <extensions>
          <ns3:TrackPointExtension>
            <ns3:hr>112</ns3:hr>
            <ns3:cad>63</ns3:cad>
          </ns3:TrackPointExtension>
        </extensions>
      </trkpt>
      <trkpt lat="44.71593864262104034423828125" lon="6.74558468163013458251953125">
        <ele>1372.4000244140625</ele>
        <time>2026-09-03T05:52:20.000Z</time>
        <extensions>
          <ns3:TrackPointExtension>
            <ns3:hr>112</ns3:hr>
            <ns3:cad>80</ns3:cad>
          </ns3:TrackPointExtension>
        </extensions>
      </trkpt>
      <trkpt lat="44.715920202434062957763671875" lon="6.745580323040485382080078125">
        <ele>1372</ele>
        <time>2026-09-03T05:52:21.000Z</time>
        <extensions>
          <ns3:TrackPointExtension>
            <ns3:hr>112</ns3:hr>
            <ns3:cad>81</ns3:cad>
          </ns3:TrackPointExtension>
        </extensions>
      </trkpt>
      <trkpt lat="44.7159002535045146942138671875" lon="6.74557772465050220489501953125">
        <ele>1371.800048828125</ele>
        <time>2026-09-03T05:52:22.000Z</time>
        <extensions>
          <ns3:TrackPointExtension>
            <ns3:hr>111</ns3:hr>
            <ns3:cad>81</ns3:cad>
          </ns3:TrackPointExtension>
        </extensions>
      </trkpt>
      <trkpt lat="44.715888686478137969970703125" lon="6.7455811612308025360107421875">
        <ele>1371.4000244140625</ele>
        <time>2026-09-03T05:52:23.000Z</time>
        <extensions>
          <ns3:TrackPointExtension>
            <ns3:hr>111</ns3:hr>
            <ns3:cad>81</ns3:cad>
          </ns3:TrackPointExtension>
        </extensions>
      </trkpt>
      <trkpt lat="44.71587217412889003753662109375" lon="6.7455831728875637054443359375">
        <ele>1371</ele>
        <time>2026-09-03T05:52:24.000Z</time>
        <extensions>
          <ns3:TrackPointExtension>
            <ns3:hr>111</ns3:hr>
            <ns3:cad>80</ns3:cad>
          </ns3:TrackPointExtension>
        </extensions>
      </trkpt>
      <trkpt lat="44.71586094237864017486572265625" lon="6.74558962695300579071044921875">
        <ele>1370.5999755859375</ele>
        <time>2026-09-03T05:52:25.000Z</time>
        <extensions>
          <ns3:TrackPointExtension>
            <ns3:hr>111</ns3:hr>
            <ns3:cad>80</ns3:cad>
          </ns3:TrackPointExtension>
        </extensions>
      </trkpt>
      <trkpt lat="44.71585038118064403533935546875" lon="6.7455935664474964141845703125">
        <ele>1370.199951171875</ele>
        <time>2026-09-03T05:52:26.000Z</time>
        <extensions>
          <ns3:TrackPointExtension>
            <ns3:hr>111</ns3:hr>
            <ns3:cad>80</ns3:cad>
          </ns3:TrackPointExtension>
        </extensions>
      </trkpt>
      <trkpt lat="44.71583671867847442626953125" lon="6.7455962486565113067626953125">
        <ele>1369.800048828125</ele>
        <time>2026-09-03T05:52:27.000Z</time>
        <extensions>
          <ns3:TrackPointExtension>
            <ns3:hr>111</ns3:hr>
            <ns3:cad>80</ns3:cad>
          </ns3:TrackPointExtension>
        </extensions>
      </trkpt>
      <trkpt lat="44.7158291749656200408935546875" lon="6.7455898784101009368896484375">
        <ele>1369.4000244140625</ele>
        <time>2026-09-03T05:52:28.000Z</time>
        <extensions>
          <ns3:TrackPointExtension>
            <ns3:hr>111</ns3:hr>
            <ns3:cad>83</ns3:cad>
          </ns3:TrackPointExtension>
        </extensions>
      </trkpt>
      <trkpt lat="44.71581098623573780059814453125" lon="6.7455825023353099822998046875">
        <ele>1368.800048828125</ele>
        <time>2026-09-03T05:52:29.000Z</time>
        <extensions>
          <ns3:TrackPointExtension>
            <ns3:hr>110</ns3:hr>
            <ns3:cad>83</ns3:cad>
          </ns3:TrackPointExtension>
        </extensions>
      </trkpt>
      <trkpt lat="44.71579539589583873748779296875" lon="6.74557420425117015838623046875">
        <ele>1368.4000244140625</ele>
        <time>2026-09-03T05:52:30.000Z</time>
        <extensions>
          <ns3:TrackPointExtension>
            <ns3:hr>110</ns3:hr>
            <ns3:cad>83</ns3:cad>
          </ns3:TrackPointExtension>
        </extensions>
      </trkpt>
      <trkpt lat="44.71578248776495456695556640625" lon="6.74556716345250606536865234375">
        <ele>1367.800048828125</ele>
        <time>2026-09-03T05:52:31.000Z</time>
        <extensions>
          <ns3:TrackPointExtension>
            <ns3:hr>109</ns3:hr>
            <ns3:cad>83</ns3:cad>
          </ns3:TrackPointExtension>
        </extensions>
      </trkpt>
      <trkpt lat="44.715761281549930572509765625" lon="6.74555559642612934112548828125">
        <ele>1367.4000244140625</ele>
        <time>2026-09-03T05:52:32.000Z</time>
        <extensions>
          <ns3:TrackPointExtension>
            <ns3:hr>109</ns3:hr>
            <ns3:cad>83</ns3:cad>
          </ns3:TrackPointExtension>
        </extensions>
      </trkpt>
      <trkpt lat="44.71573890186846256256103515625" lon="6.7455395869910717010498046875">
        <ele>1366.800048828125</ele>
        <time>2026-09-03T05:52:33.000Z</time>
        <extensions>
          <ns3:TrackPointExtension>
            <ns3:hr>108</ns3:hr>
            <ns3:cad>83</ns3:cad>
          </ns3:TrackPointExtension>
        </extensions>
      </trkpt>
      <trkpt lat="44.715715348720550537109375" lon="6.74552273936569690704345703125">
        <ele>1366.4000244140625</ele>
        <time>2026-09-03T05:52:34.000Z</time>
        <extensions>
          <ns3:TrackPointExtension>
            <ns3:hr>108</ns3:hr>
            <ns3:cad>83</ns3:cad>
          </ns3:TrackPointExtension>
        </extensions>
      </trkpt>
      <trkpt lat="44.71569950692355632781982421875" lon="6.74550287425518035888671875">
        <ele>1366</ele>
        <time>2026-09-03T05:52:35.000Z</time>
        <extensions>
          <ns3:TrackPointExtension>
            <ns3:hr>107</ns3:hr>
            <ns3:cad>83</ns3:cad>
          </ns3:TrackPointExtension>
        </extensions>
      </trkpt>
      <trkpt lat="44.71568785607814788818359375" lon="6.74548518843948841094970703125">
        <ele>1365.5999755859375</ele>
        <time>2026-09-03T05:52:36.000Z</time>
        <extensions>
          <ns3:TrackPointExtension>
            <ns3:hr>107</ns3:hr>
            <ns3:cad>83</ns3:cad>
          </ns3:TrackPointExtension>
        </extensions>
      </trkpt>
      <trkpt lat="44.71566430293023586273193359375" lon="6.74546507187187671661376953125">
        <ele>1365.4000244140625</ele>
        <time>2026-09-03T05:52:37.000Z</time>
        <extensions>
          <ns3:TrackPointExtension>
            <ns3:hr>107</ns3:hr>
            <ns3:cad>83</ns3:cad>
          </ns3:TrackPointExtension>
        </extensions>
      </trkpt>
      <trkpt lat="44.7156427614390850067138671875" lon="6.7454458773136138916015625">
        <ele>1365.4000244140625</ele>
        <time>2026-09-03T05:52:38.000Z</time>
        <extensions>
          <ns3:TrackPointExtension>
            <ns3:hr>107</ns3:hr>
            <ns3:cad>83</ns3:cad>
          </ns3:TrackPointExtension>
        </extensions>
      </trkpt>
      <trkpt lat="44.7156216390430927276611328125" lon="6.74542953260242938995361328125">
        <ele>1365.199951171875</ele>
        <time>2026-09-03T05:52:39.000Z</time>
        <extensions>
          <ns3:TrackPointExtension>
            <ns3:hr>107</ns3:hr>
            <ns3:cad>83</ns3:cad>
          </ns3:TrackPointExtension>
        </extensions>
      </trkpt>
      <trkpt lat="44.71559825353324413299560546875" lon="6.745404303073883056640625">
        <ele>1365</ele>
        <time>2026-09-03T05:52:40.000Z</time>
        <extensions>
          <ns3:TrackPointExtension>
            <ns3:hr>107</ns3:hr>
            <ns3:cad>83</ns3:cad>
          </ns3:TrackPointExtension>
        </extensions>
      </trkpt>
      <trkpt lat="44.715583585202693939208984375" lon="6.74538276158273220062255859375">
        <ele>1364.800048828125</ele>
        <time>2026-09-03T05:52:41.000Z</time>
        <extensions>
          <ns3:TrackPointExtension>
            <ns3:hr>107</ns3:hr>
            <ns3:cad>82</ns3:cad>
          </ns3:TrackPointExtension>
        </extensions>
      </trkpt>
      <trkpt lat="44.71556506119668483734130859375" lon="6.74536515958607196807861328125">
        <ele>1364.4000244140625</ele>
        <time>2026-09-03T05:52:42.000Z</time>
        <extensions>
          <ns3:TrackPointExtension>
            <ns3:hr>107</ns3:hr>
            <ns3:cad>82</ns3:cad>
          </ns3:TrackPointExtension>
        </extensions>
      </trkpt>
      <trkpt lat="44.71554846502840518951416015625" lon="6.74535577185451984405517578125">
        <ele>1364.199951171875</ele>
        <time>2026-09-03T05:52:43.000Z</time>
        <extensions>
          <ns3:TrackPointExtension>
            <ns3:hr>107</ns3:hr>
            <ns3:cad>82</ns3:cad>
          </ns3:TrackPointExtension>
        </extensions>
      </trkpt>
      <trkpt lat="44.71553170122206211090087890625" lon="6.74534973688423633575439453125">
        <ele>1363.800048828125</ele>
        <time>2026-09-03T05:52:44.000Z</time>
        <extensions>
          <ns3:TrackPointExtension>
            <ns3:hr>108</ns3:hr>
            <ns3:cad>82</ns3:cad>
          </ns3:TrackPointExtension>
        </extensions>
      </trkpt>
      <trkpt lat="44.7155237384140491485595703125" lon="6.7453494854271411895751953125">
        <ele>1363.5999755859375</ele>
        <time>2026-09-03T05:52:45.000Z</time>
        <extensions>
          <ns3:TrackPointExtension>
            <ns3:hr>109</ns3:hr>
            <ns3:cad>81</ns3:cad>
          </ns3:TrackPointExtension>
        </extensions>
      </trkpt>
      <trkpt lat="44.71551326103508472442626953125" lon="6.7453493177890777587890625">
        <ele>1363.199951171875</ele>
        <time>2026-09-03T05:52:46.000Z</time>
        <extensions>
          <ns3:TrackPointExtension>
            <ns3:hr>109</ns3:hr>
            <ns3:cad>80</ns3:cad>
          </ns3:TrackPointExtension>
        </extensions>
      </trkpt>
      <trkpt lat="44.7154967486858367919921875" lon="6.74534252844750881195068359375">
        <ele>1362.800048828125</ele>
        <time>2026-09-03T05:52:47.000Z</time>
        <extensions>
          <ns3:TrackPointExtension>
            <ns3:hr>110</ns3:hr>
            <ns3:cad>80</ns3:cad>
          </ns3:TrackPointExtension>
        </extensions>
      </trkpt>
      <trkpt lat="44.7154858522117137908935546875" lon="6.7453332245349884033203125">
        <ele>1362.4000244140625</ele>
        <time>2026-09-03T05:52:48.000Z</time>
        <extensions>
          <ns3:TrackPointExtension>
            <ns3:hr>110</ns3:hr>
            <ns3:cad>80</ns3:cad>
          </ns3:TrackPointExtension>
        </extensions>
      </trkpt>
      <trkpt lat="44.7154741175472736358642578125" lon="6.74532744102180004119873046875">
        <ele>1362</ele>
        <time>2026-09-03T05:52:49.000Z</time>
        <extensions>
          <ns3:TrackPointExtension>
            <ns3:hr>110</ns3:hr>
            <ns3:cad>75</ns3:cad>
          </ns3:TrackPointExtension>
        </extensions>
      </trkpt>
      <trkpt lat="44.7154553420841693878173828125" lon="6.745318807661533355712890625">
        <ele>1361.5999755859375</ele>
        <time>2026-09-03T05:52:50.000Z</time>
        <extensions>
          <ns3:TrackPointExtension>
            <ns3:hr>110</ns3:hr>
            <ns3:cad>75</ns3:cad>
          </ns3:TrackPointExtension>
        </extensions>
      </trkpt>
      <trkpt lat="44.7154305316507816314697265625" lon="6.74529843963682651519775390625">
        <ele>1361.199951171875</ele>
        <time>2026-09-03T05:52:51.000Z</time>
        <extensions>
          <ns3:TrackPointExtension>
            <ns3:hr>111</ns3:hr>
            <ns3:cad>75</ns3:cad>
          </ns3:TrackPointExtension>
        </extensions>
      </trkpt>
      <trkpt lat="44.71541519276797771453857421875" lon="6.7452834360301494598388671875">
        <ele>1360.800048828125</ele>
        <time>2026-09-03T05:52:52.000Z</time>
        <extensions>
          <ns3:TrackPointExtension>
            <ns3:hr>110</ns3:hr>
            <ns3:cad>75</ns3:cad>
          </ns3:TrackPointExtension>
        </extensions>
      </trkpt>
      <trkpt lat="44.71539239399135112762451171875" lon="6.74526222981512546539306640625">
        <ele>1360.5999755859375</ele>
        <time>2026-09-03T05:52:53.000Z</time>
        <extensions>
          <ns3:TrackPointExtension>
            <ns3:hr>110</ns3:hr>
            <ns3:cad>79</ns3:cad>
          </ns3:TrackPointExtension>
        </extensions>
      </trkpt>
      <trkpt lat="44.7153708525002002716064453125" lon="6.74524060450494289398193359375">
        <ele>1360.4000244140625</ele>
        <time>2026-09-03T05:52:54.000Z</time>
        <extensions>
          <ns3:TrackPointExtension>
            <ns3:hr>111</ns3:hr>
            <ns3:cad>79</ns3:cad>
          </ns3:TrackPointExtension>
        </extensions>
      </trkpt>
      <trkpt lat="44.71535048447549343109130859375" lon="6.74522660672664642333984375">
        <ele>1360.199951171875</ele>
        <time>2026-09-03T05:52:55.000Z</time>
        <extensions>
          <ns3:TrackPointExtension>
            <ns3:hr>110</ns3:hr>
            <ns3:cad>79</ns3:cad>
          </ns3:TrackPointExtension>
        </extensions>
      </trkpt>
      <trkpt lat="44.7153316251933574676513671875" lon="6.7452066577970981597900390625">
        <ele>1360.199951171875</ele>
        <time>2026-09-03T05:52:56.000Z</time>
        <extensions>
          <ns3:TrackPointExtension>
            <ns3:hr>110</ns3:hr>
            <ns3:cad>82</ns3:cad>
          </ns3:TrackPointExtension>
        </extensions>
      </trkpt>
      <trkpt lat="44.7153182141482830047607421875" lon="6.74518209882080554962158203125">
        <ele>1360</ele>
        <time>2026-09-03T05:52:57.000Z</time>
        <extensions>
          <ns3:TrackPointExtension>
            <ns3:hr>109</ns3:hr>
            <ns3:cad>82</ns3:cad>
          </ns3:TrackPointExtension>
        </extensions>
      </trkpt>
      <trkpt lat="44.71531008370220661163330078125" lon="6.74516416154801845550537109375">
        <ele>1360</ele>
        <time>2026-09-03T05:52:58.000Z</time>
        <extensions>
          <ns3:TrackPointExtension>
            <ns3:hr>108</ns3:hr>
            <ns3:cad>82</ns3:cad>
          </ns3:TrackPointExtension>
        </extensions>
      </trkpt>
      <trkpt lat="44.71529097296297550201416015625" lon="6.74513767473399639129638671875">
        <ele>1360</ele>
        <time>2026-09-03T05:52:59.000Z</time>
        <extensions>
          <ns3:TrackPointExtension>
            <ns3:hr>108</ns3:hr>
            <ns3:cad>81</ns3:cad>
          </ns3:TrackPointExtension>
        </extensions>
      </trkpt>
      <trkpt lat="44.71528175286948680877685546875" lon="6.74512200057506561279296875">
        <ele>1360</ele>
        <time>2026-09-03T05:53:00.000Z</time>
        <extensions>
          <ns3:TrackPointExtension>
            <ns3:hr>107</ns3:hr>
            <ns3:cad>81</ns3:cad>
          </ns3:TrackPointExtension>
        </extensions>
      </trkpt>
      <trkpt lat="44.71526700071990489959716796875" lon="6.74511454068124294281005859375">
        <ele>1360.199951171875</ele>
        <time>2026-09-03T05:53:01.000Z</time>
        <extensions>
          <ns3:TrackPointExtension>
            <ns3:hr>106</ns3:hr>
            <ns3:cad>81</ns3:cad>
          </ns3:TrackPointExtension>
        </extensions>
      </trkpt>
      <trkpt lat="44.71525736153125762939453125" lon="6.7451077513396739959716796875">
        <ele>1360</ele>
        <time>2026-09-03T05:53:02.000Z</time>
        <extensions>
          <ns3:TrackPointExtension>
            <ns3:hr>106</ns3:hr>
            <ns3:cad>81</ns3:cad>
          </ns3:TrackPointExtension>
        </extensions>
      </trkpt>
      <trkpt lat="44.71524621360003948211669921875" lon="6.74510858952999114990234375">
        <ele>1360</ele>
        <time>2026-09-03T05:53:03.000Z</time>
        <extensions>
          <ns3:TrackPointExtension>
            <ns3:hr>106</ns3:hr>
            <ns3:cad>81</ns3:cad>
          </ns3:TrackPointExtension>
        </extensions>
      </trkpt>
      <trkpt lat="44.7152310423552989959716796875" lon="6.7451017163693904876708984375">
        <ele>1359.800048828125</ele>
        <time>2026-09-03T05:53:04.000Z</time>
        <extensions>
          <ns3:TrackPointExtension>
            <ns3:hr>106</ns3:hr>
            <ns3:cad>81</ns3:cad>
          </ns3:TrackPointExtension>
        </extensions>
      </trkpt>
      <trkpt lat="44.71521520055830478668212890625" lon="6.74508386291563510894775390625">
        <ele>1359.5999755859375</ele>
        <time>2026-09-03T05:53:05.000Z</time>
        <extensions>
          <ns3:TrackPointExtension>
            <ns3:hr>106</ns3:hr>
            <ns3:cad>81</ns3:cad>
          </ns3:TrackPointExtension>
        </extensions>
      </trkpt>
      <trkpt lat="44.71519910730421543121337890625" lon="6.74506609328091144561767578125">
        <ele>1359.4000244140625</ele>
        <time>2026-09-03T05:53:06.000Z</time>
        <extensions>
          <ns3:TrackPointExtension>
            <ns3:hr>106</ns3:hr>
            <ns3:cad>80</ns3:cad>
          </ns3:TrackPointExtension>
        </extensions>
      </trkpt>
      <trkpt lat="44.71518494188785552978515625" lon="6.7450520955026149749755859375">
        <ele>1359.199951171875</ele>
        <time>2026-09-03T05:53:07.000Z</time>
        <extensions>
          <ns3:TrackPointExtension>
            <ns3:hr>106</ns3:hr>
            <ns3:cad>80</ns3:cad>
          </ns3:TrackPointExtension>
        </extensions>
      </trkpt>
      <trkpt lat="44.71517153084278106689453125" lon="6.74503616988658905029296875">
        <ele>1359.199951171875</ele>
        <time>2026-09-03T05:53:08.000Z</time>
        <extensions>
          <ns3:TrackPointExtension>
            <ns3:hr>106</ns3:hr>
            <ns3:cad>80</ns3:cad>
          </ns3:TrackPointExtension>
        </extensions>
      </trkpt>
      <trkpt lat="44.71515418030321598052978515625" lon="6.74501337110996246337890625">
        <ele>1359.199951171875</ele>
        <time>2026-09-03T05:53:09.000Z</time>
        <extensions>
          <ns3:TrackPointExtension>
            <ns3:hr>106</ns3:hr>
            <ns3:cad>81</ns3:cad>
          </ns3:TrackPointExtension>
        </extensions>
      </trkpt>
      <trkpt lat="44.71513657830655574798583984375" lon="6.74499367363750934600830078125">
        <ele>1359.199951171875</ele>
        <time>2026-09-03T05:53:10.000Z</time>
        <extensions>
          <ns3:TrackPointExtension>
            <ns3:hr>107</ns3:hr>
            <ns3:cad>81</ns3:cad>
          </ns3:TrackPointExtension>
        </extensions>
      </trkpt>
      <trkpt lat="44.71512056887149810791015625" lon="6.7449738085269927978515625">
        <ele>1359</ele>
        <time>2026-09-03T05:53:11.000Z</time>
        <extensions>
          <ns3:TrackPointExtension>
            <ns3:hr>106</ns3:hr>
            <ns3:cad>81</ns3:cad>
          </ns3:TrackPointExtension>
        </extensions>
      </trkpt>
      <trkpt lat="44.7151086665689945220947265625" lon="6.7449545301496982574462890625">
        <ele>1358.800048828125</ele>
        <time>2026-09-03T05:53:12.000Z</time>
        <extensions>
          <ns3:TrackPointExtension>
            <ns3:hr>107</ns3:hr>
            <ns3:cad>81</ns3:cad>
          </ns3:TrackPointExtension>
        </extensions>
      </trkpt>
      <trkpt lat="44.71510204486548900604248046875" lon="6.74494422040879726409912109375">
        <ele>1358.800048828125</ele>
        <time>2026-09-03T05:53:13.000Z</time>
        <extensions>
          <ns3:TrackPointExtension>
            <ns3:hr>107</ns3:hr>
            <ns3:cad>81</ns3:cad>
          </ns3:TrackPointExtension>
        </extensions>
      </trkpt>
      <trkpt lat="44.715094082057476043701171875" lon="6.744937263429164886474609375">
        <ele>1358.5999755859375</ele>
        <time>2026-09-03T05:53:14.000Z</time>
        <extensions>
          <ns3:TrackPointExtension>
            <ns3:hr>107</ns3:hr>
            <ns3:cad>81</ns3:cad>
          </ns3:TrackPointExtension>
        </extensions>
      </trkpt>
      <trkpt lat="44.7150851972401142120361328125" lon="6.74493231810629367828369140625">
        <ele>1358.4000244140625</ele>
        <time>2026-09-03T05:53:15.000Z</time>
        <extensions>
          <ns3:TrackPointExtension>
            <ns3:hr>107</ns3:hr>
            <ns3:cad>81</ns3:cad>
          </ns3:TrackPointExtension>
        </extensions>
      </trkpt>
      <trkpt lat="44.71508075483143329620361328125" lon="6.74492896534502506256103515625">
        <ele>1358.199951171875</ele>
        <time>2026-09-03T05:53:16.000Z</time>
        <extensions>
          <ns3:TrackPointExtension>
            <ns3:hr>108</ns3:hr>
            <ns3:cad>81</ns3:cad>
          </ns3:TrackPointExtension>
        </extensions>
      </trkpt>
      <trkpt lat="44.7150744684040546417236328125" lon="6.74492795951664447784423828125">
        <ele>1357.800048828125</ele>
        <time>2026-09-03T05:53:17.000Z</time>
        <extensions>
          <ns3:TrackPointExtension>
            <ns3:hr>108</ns3:hr>
            <ns3:cad>81</ns3:cad>
          </ns3:TrackPointExtension>
        </extensions>
      </trkpt>
      <trkpt lat="44.71506717614829540252685546875" lon="6.74492879770696163177490234375">
        <ele>1357.5999755859375</ele>
        <time>2026-09-03T05:53:18.000Z</time>
        <extensions>
          <ns3:TrackPointExtension>
            <ns3:hr>108</ns3:hr>
            <ns3:cad>81</ns3:cad>
          </ns3:TrackPointExtension>
        </extensions>
      </trkpt>
      <trkpt lat="44.71507555805146694183349609375" lon="6.74494589678943157196044921875">
        <ele>1357.199951171875</ele>
        <time>2026-09-03T05:53:19.000Z</time>
        <extensions>
          <ns3:TrackPointExtension>
            <ns3:hr>108</ns3:hr>
            <ns3:cad>83</ns3:cad>
          </ns3:TrackPointExtension>
        </extensions>
      </trkpt>
      <trkpt lat="44.7150788269937038421630859375" lon="6.74496299587190151214599609375">
        <ele>1356.800048828125</ele>
        <time>2026-09-03T05:53:20.000Z</time>
        <extensions>
          <ns3:TrackPointExtension>
            <ns3:hr>107</ns3:hr>
            <ns3:cad>83</ns3:cad>
          </ns3:TrackPointExtension>
        </extensions>
      </trkpt>
      <trkpt lat="44.7150858677923679351806640625" lon="6.74497741274535655975341796875">
        <ele>1356.4000244140625</ele>
        <time>2026-09-03T05:53:21.000Z</time>
        <extensions>
          <ns3:TrackPointExtension>
            <ns3:hr>106</ns3:hr>
            <ns3:cad>70</ns3:cad>
          </ns3:TrackPointExtension>
        </extensions>
      </trkpt>
      <trkpt lat="44.7150952555239200592041015625" lon="6.7449872195720672607421875">
        <ele>1356.199951171875</ele>
        <time>2026-09-03T05:53:22.000Z</time>
        <extensions>
          <ns3:TrackPointExtension>
            <ns3:hr>106</ns3:hr>
            <ns3:cad>70</ns3:cad>
          </ns3:TrackPointExtension>
        </extensions>
      </trkpt>
      <trkpt lat="44.715093411505222320556640625" lon="6.7450058273971080780029296875">
        <ele>1355.800048828125</ele>
        <time>2026-09-03T05:53:23.000Z</time>
        <extensions>
          <ns3:TrackPointExtension>
            <ns3:hr>105</ns3:hr>
            <ns3:cad>70</ns3:cad>
          </ns3:TrackPointExtension>
        </extensions>
      </trkpt>
      <trkpt lat="44.7150875441730022430419921875" lon="6.74501496367156505584716796875">
        <ele>1355.4000244140625</ele>
        <time>2026-09-03T05:53:24.000Z</time>
        <extensions>
          <ns3:TrackPointExtension>
            <ns3:hr>104</ns3:hr>
            <ns3:cad>71</ns3:cad>
          </ns3:TrackPointExtension>
        </extensions>
      </trkpt>
      <trkpt lat="44.7150821797549724578857421875" lon="6.74501462839543819427490234375">
        <ele>1355.199951171875</ele>
        <time>2026-09-03T05:53:25.000Z</time>
        <extensions>
          <ns3:TrackPointExtension>
            <ns3:hr>103</ns3:hr>
            <ns3:cad>75</ns3:cad>
          </ns3:TrackPointExtension>
        </extensions>
      </trkpt>
      <trkpt lat="44.7150670923292636871337890625" lon="6.74501043744385242462158203125">
        <ele>1354.800048828125</ele>
        <time>2026-09-03T05:53:26.000Z</time>
        <extensions>
          <ns3:TrackPointExtension>
            <ns3:hr>103</ns3:hr>
            <ns3:cad>75</ns3:cad>
          </ns3:TrackPointExtension>
        </extensions>
      </trkpt>
      <trkpt lat="44.7150593809783458709716796875" lon="6.74500339664518833160400390625">
        <ele>1354.5999755859375</ele>
        <time>2026-09-03T05:53:27.000Z</time>
        <extensions>
          <ns3:TrackPointExtension>
            <ns3:hr>103</ns3:hr>
            <ns3:cad>75</ns3:cad>
          </ns3:TrackPointExtension>
        </extensions>
      </trkpt>
      <trkpt lat="44.71504404209554195404052734375" lon="6.74499593675136566162109375">
        <ele>1354</ele>
        <time>2026-09-03T05:53:28.000Z</time>
        <extensions>
          <ns3:TrackPointExtension>
            <ns3:hr>102</ns3:hr>
            <ns3:cad>75</ns3:cad>
          </ns3:TrackPointExtension>
        </extensions>
      </trkpt>
      <trkpt lat="44.71502644009888172149658203125" lon="6.74498428590595722198486328125">
        <ele>1353.5999755859375</ele>
        <time>2026-09-03T05:53:29.000Z</time>
        <extensions>
          <ns3:TrackPointExtension>
            <ns3:hr>102</ns3:hr>
            <ns3:cad>75</ns3:cad>
          </ns3:TrackPointExtension>
        </extensions>
      </trkpt>
      <trkpt lat="44.7150178067386150360107421875" lon="6.74497657455503940582275390625">
        <ele>1353</ele>
        <time>2026-09-03T05:53:30.000Z</time>
        <extensions>
          <ns3:TrackPointExtension>
            <ns3:hr>102</ns3:hr>
            <ns3:cad>77</ns3:cad>
          </ns3:TrackPointExtension>
        </extensions>
      </trkpt>
      <trkpt lat="44.715010263025760650634765625" lon="6.74497020430862903594970703125">
        <ele>1352.5999755859375</ele>
        <time>2026-09-03T05:53:31.000Z</time>
        <extensions>
          <ns3:TrackPointExtension>
            <ns3:hr>102</ns3:hr>
            <ns3:cad>79</ns3:cad>
          </ns3:TrackPointExtension>
        </extensions>
      </trkpt>
      <trkpt lat="44.7150047309696674346923828125" lon="6.74496768973767757415771484375">
        <ele>1352.199951171875</ele>
        <time>2026-09-03T05:53:32.000Z</time>
        <extensions>
          <ns3:TrackPointExtension>
            <ns3:hr>101</ns3:hr>
            <ns3:cad>79</ns3:cad>
          </ns3:TrackPointExtension>
        </extensions>
      </trkpt>
      <trkpt lat="44.71499852836132049560546875" lon="6.744966097176074981689453125">
        <ele>1352</ele>
        <time>2026-09-03T05:53:33.000Z</time>
        <extensions>
          <ns3:TrackPointExtension>
            <ns3:hr>102</ns3:hr>
            <ns3:cad>79</ns3:cad>
          </ns3:TrackPointExtension>
        </extensions>
      </trkpt>
      <trkpt lat="44.71498536877334117889404296875" lon="6.7449619062244892120361328125">
        <ele>1351.5999755859375</ele>
        <time>2026-09-03T05:53:34.000Z</time>
        <extensions>
          <ns3:TrackPointExtension>
            <ns3:hr>102</ns3:hr>
            <ns3:cad>79</ns3:cad>
          </ns3:TrackPointExtension>
        </extensions>
      </trkpt>
      <trkpt lat="44.714986793696880340576171875" lon="6.74495310522615909576416015625">
        <ele>1351.4000244140625</ele>
        <time>2026-09-03T05:53:35.000Z</time>
        <extensions>
          <ns3:TrackPointExtension>
            <ns3:hr>102</ns3:hr>
            <ns3:cad>81</ns3:cad>
          </ns3:TrackPointExtension>
        </extensions>
      </trkpt>
      <trkpt lat="44.7149765677750110626220703125" lon="6.74493248574435710906982421875">
        <ele>1350.800048828125</ele>
        <time>2026-09-03T05:53:36.000Z</time>
        <extensions>
          <ns3:TrackPointExtension>
            <ns3:hr>102</ns3:hr>
            <ns3:cad>81</ns3:cad>
          </ns3:TrackPointExtension>
        </extensions>
      </trkpt>
      <trkpt lat="44.71496927551925182342529296875" lon="6.74490901641547679901123046875">
        <ele>1350.4000244140625</ele>
        <time>2026-09-03T05:53:37.000Z</time>
        <extensions>
          <ns3:TrackPointExtension>
            <ns3:hr>101</ns3:hr>
            <ns3:cad>81</ns3:cad>
          </ns3:TrackPointExtension>
        </extensions>
      </trkpt>
      <trkpt lat="44.71495687030255794525146484375" lon="6.74488873220980167388916015625">
        <ele>1349.800048828125</ele>
        <time>2026-09-03T05:53:38.000Z</time>
        <extensions>
          <ns3:TrackPointExtension>
            <ns3:hr>101</ns3:hr>
            <ns3:cad>81</ns3:cad>
          </ns3:TrackPointExtension>
        </extensions>
      </trkpt>
      <trkpt lat="44.71494899131357669830322265625" lon="6.74488102085888385772705078125">
        <ele>1349.4000244140625</ele>
        <time>2026-09-03T05:53:39.000Z</time>
        <extensions>
          <ns3:TrackPointExtension>
            <ns3:hr>101</ns3:hr>
            <ns3:cad>81</ns3:cad>
          </ns3:TrackPointExtension>
        </extensions>
      </trkpt>
      <trkpt lat="44.71495016478002071380615234375" lon="6.7448928393423557281494140625">
        <ele>1349.199951171875</ele>
        <time>2026-09-03T05:53:40.000Z</time>
        <extensions>
          <ns3:TrackPointExtension>
            <ns3:hr>101</ns3:hr>
            <ns3:cad>81</ns3:cad>
          </ns3:TrackPointExtension>
        </extensions>
      </trkpt>
      <trkpt lat="44.7149524278938770294189453125" lon="6.7449055798351764678955078125">
        <ele>1349</ele>
        <time>2026-09-03T05:53:41.000Z</time>
        <extensions>
          <ns3:TrackPointExtension>
            <ns3:hr>101</ns3:hr>
            <ns3:cad>88</ns3:cad>
          </ns3:TrackPointExtension>
        </extensions>
      </trkpt>
      <trkpt lat="44.714951924979686737060546875" lon="6.744922511279582977294921875">
        <ele>1348.5999755859375</ele>
        <time>2026-09-03T05:53:42.000Z</time>
        <extensions>
          <ns3:TrackPointExtension>
            <ns3:hr>101</ns3:hr>
            <ns3:cad>88</ns3:cad>
          </ns3:TrackPointExtension>
        </extensions>
      </trkpt>
      <trkpt lat="44.714951924979686737060546875" lon="6.7449471540749073028564453125">
        <ele>1348.4000244140625</ele>
        <time>2026-09-03T05:53:43.000Z</time>
        <extensions>
          <ns3:TrackPointExtension>
            <ns3:hr>101</ns3:hr>
            <ns3:cad>88</ns3:cad>
          </ns3:TrackPointExtension>
        </extensions>
      </trkpt>
      <trkpt lat="44.714951924979686737060546875" lon="6.74496643245220184326171875">
        <ele>1348</ele>
        <time>2026-09-03T05:53:44.000Z</time>
        <extensions>
          <ns3:TrackPointExtension>
            <ns3:hr>101</ns3:hr>
            <ns3:cad>88</ns3:cad>
          </ns3:TrackPointExtension>
        </extensions>
      </trkpt>
      <trkpt lat="44.71495133824646472930908203125" lon="6.744994260370731353759765625">
        <ele>1347.4000244140625</ele>
        <time>2026-09-03T05:53:45.000Z</time>
        <extensions>
          <ns3:TrackPointExtension>
            <ns3:hr>101</ns3:hr>
            <ns3:cad>88</ns3:cad>
          </ns3:TrackPointExtension>
        </extensions>
      </trkpt>
      <trkpt lat="44.71495167352259159088134765625" lon="6.7450138740241527557373046875">
        <ele>1347</ele>
        <time>2026-09-03T05:53:46.000Z</time>
        <extensions>
          <ns3:TrackPointExtension>
            <ns3:hr>100</ns3:hr>
            <ns3:cad>79</ns3:cad>
          </ns3:TrackPointExtension>
        </extensions>
      </trkpt>
      <trkpt lat="44.71495636738836765289306640625" lon="6.7450289614498615264892578125">
        <ele>1346.5999755859375</ele>
        <time>2026-09-03T05:53:47.000Z</time>
        <extensions>
          <ns3:TrackPointExtension>
            <ns3:hr>100</ns3:hr>
            <ns3:cad>79</ns3:cad>
          </ns3:TrackPointExtension>
        </extensions>
      </trkpt>
      <trkpt lat="44.7149587981402873992919921875" lon="6.74504228867590427398681640625">
        <ele>1346.4000244140625</ele>
        <time>2026-09-03T05:53:48.000Z</time>
        <extensions>
          <ns3:TrackPointExtension>
            <ns3:hr>99</ns3:hr>
            <ns3:cad>79</ns3:cad>
          </ns3:TrackPointExtension>
        </extensions>
      </trkpt>
      <trkpt lat="44.7149629890918731689453125" lon="6.74506366252899169921875">
        <ele>1346</ele>
        <time>2026-09-03T05:53:49.000Z</time>
        <extensions>
          <ns3:TrackPointExtension>
            <ns3:hr>99</ns3:hr>
            <ns3:cad>75</ns3:cad>
          </ns3:TrackPointExtension>
        </extensions>
      </trkpt>
      <trkpt lat="44.7149688564240932464599609375" lon="6.74508604221045970916748046875">
        <ele>1345.800048828125</ele>
        <time>2026-09-03T05:53:50.000Z</time>
        <extensions>
          <ns3:TrackPointExtension>
            <ns3:hr>99</ns3:hr>
            <ns3:cad>75</ns3:cad>
          </ns3:TrackPointExtension>
        </extensions>
      </trkpt>
      <trkpt lat="44.71498201601207256317138671875" lon="6.74510666169226169586181640625">
        <ele>1345.4000244140625</ele>
        <time>2026-09-03T05:53:51.000Z</time>
        <extensions>
          <ns3:TrackPointExtension>
            <ns3:hr>98</ns3:hr>
            <ns3:cad>83</ns3:cad>
          </ns3:TrackPointExtension>
        </extensions>
      </trkpt>
      <trkpt lat="44.71499592997133731842041015625" lon="6.74512577243149280548095703125">
        <ele>1345.199951171875</ele>
        <time>2026-09-03T05:53:52.000Z</time>
        <extensions>
          <ns3:TrackPointExtension>
            <ns3:hr>97</ns3:hr>
            <ns3:cad>83</ns3:cad>
          </ns3:TrackPointExtension>
        </extensions>
      </trkpt>
      <trkpt lat="44.7150094248354434967041015625" lon="6.74512962810695171356201171875">
        <ele>1345</ele>
        <time>2026-09-03T05:53:53.000Z</time>
        <extensions>
          <ns3:TrackPointExtension>
            <ns3:hr>96</ns3:hr>
            <ns3:cad>83</ns3:cad>
          </ns3:TrackPointExtension>
        </extensions>
      </trkpt>
      <trkpt lat="44.71502392552793025970458984375" lon="6.74514119513332843780517578125">
        <ele>1345</ele>
        <time>2026-09-03T05:53:54.000Z</time>
        <extensions>
          <ns3:TrackPointExtension>
            <ns3:hr>96</ns3:hr>
            <ns3:cad>83</ns3:cad>
          </ns3:TrackPointExtension>
        </extensions>
      </trkpt>
      <trkpt lat="44.71502644009888172149658203125" lon="6.74515779130160808563232421875">
        <ele>1344.800048828125</ele>
        <time>2026-09-03T05:53:55.000Z</time>
        <extensions>
          <ns3:TrackPointExtension>
            <ns3:hr>96</ns3:hr>
            <ns3:cad>83</ns3:cad>
          </ns3:TrackPointExtension>
        </extensions>
      </trkpt>
      <trkpt lat="44.71502023749053478240966796875" lon="6.74516416154801845550537109375">
        <ele>1344.800048828125</ele>
        <time>2026-09-03T05:53:56.000Z</time>
        <extensions>
          <ns3:TrackPointExtension>
            <ns3:hr>96</ns3:hr>
            <ns3:cad>0</ns3:cad>
          </ns3:TrackPointExtension>
        </extensions>
      </trkpt>
      <trkpt lat="44.7150141187012195587158203125" lon="6.7451664246618747711181640625">
        <ele>1344.5999755859375</ele>
        <time>2026-09-03T05:53:57.000Z</time>
        <extensions>
          <ns3:TrackPointExtension>
            <ns3:hr>96</ns3:hr>
            <ns3:cad>0</ns3:cad>
          </ns3:TrackPointExtension>
        </extensions>
      </trkpt>
      <trkpt lat="44.7150057367980480194091796875" lon="6.7451642453670501708984375">
        <ele>1344.199951171875</ele>
        <time>2026-09-03T05:53:58.000Z</time>
        <extensions>
          <ns3:TrackPointExtension>
            <ns3:hr>96</ns3:hr>
            <ns3:cad>79</ns3:cad>
          </ns3:TrackPointExtension>
        </extensions>
      </trkpt>
      <trkpt lat="44.71499383449554443359375" lon="6.74516030587255954742431640625">
        <ele>1343.800048828125</ele>
        <time>2026-09-03T05:53:59.000Z</time>
        <extensions>
          <ns3:TrackPointExtension>
            <ns3:hr>95</ns3:hr>
            <ns3:cad>79</ns3:cad>
          </ns3:TrackPointExtension>
        </extensions>
      </trkpt>
      <trkpt lat="44.7149758972227573394775390625" lon="6.74514345824718475341796875">
        <ele>1343.4000244140625</ele>
        <time>2026-09-03T05:54:00.000Z</time>
        <extensions>
          <ns3:TrackPointExtension>
            <ns3:hr>96</ns3:hr>
            <ns3:cad>79</ns3:cad>
          </ns3:TrackPointExtension>
        </extensions>
      </trkpt>
      <trkpt lat="44.71495963633060455322265625" lon="6.7451235093176364898681640625">
        <ele>1343</ele>
        <time>2026-09-03T05:54:01.000Z</time>
        <extensions>
          <ns3:TrackPointExtension>
            <ns3:hr>96</ns3:hr>
            <ns3:cad>69</ns3:cad>
          </ns3:TrackPointExtension>
        </extensions>
      </trkpt>
      <trkpt lat="44.7149470634758472442626953125" lon="6.745115630328655242919921875">
        <ele>1342.5999755859375</ele>
        <time>2026-09-03T05:54:02.000Z</time>
        <extensions>
          <ns3:TrackPointExtension>
            <ns3:hr>96</ns3:hr>
            <ns3:cad>69</ns3:cad>
          </ns3:TrackPointExtension>
        </extensions>
      </trkpt>
      <trkpt lat="44.714933820068836212158203125" lon="6.7451070807874202728271484375">
        <ele>1342.199951171875</ele>
        <time>2026-09-03T05:54:03.000Z</time>
        <extensions>
          <ns3:TrackPointExtension>
            <ns3:hr>95</ns3:hr>
            <ns3:cad>69</ns3:cad>
          </ns3:TrackPointExtension>
        </extensions>
      </trkpt>
      <trkpt lat="44.71492267213761806488037109375" lon="6.74510012380778789520263671875">
        <ele>1341.800048828125</ele>
        <time>2026-09-03T05:54:04.000Z</time>
        <extensions>
          <ns3:TrackPointExtension>
            <ns3:hr>95</ns3:hr>
            <ns3:cad>69</ns3:cad>
          </ns3:TrackPointExtension>
        </extensions>
      </trkpt>
      <trkpt lat="44.71491697244346141815185546875" lon="6.7450876347720623016357421875">
        <ele>1341.4000244140625</ele>
        <time>2026-09-03T05:54:05.000Z</time>
        <extensions>
          <ns3:TrackPointExtension>
            <ns3:hr>94</ns3:hr>
            <ns3:cad>69</ns3:cad>
          </ns3:TrackPointExtension>
        </extensions>
      </trkpt>
      <trkpt lat="44.714911021292209625244140625" lon="6.74507296644151210784912109375">
        <ele>1341</ele>
        <time>2026-09-03T05:54:06.000Z</time>
        <extensions>
          <ns3:TrackPointExtension>
            <ns3:hr>93</ns3:hr>
            <ns3:cad>69</ns3:cad>
          </ns3:TrackPointExtension>
        </extensions>
      </trkpt>
      <trkpt lat="44.71490574069321155548095703125" lon="6.7450715415179729461669921875">
        <ele>1340.5999755859375</ele>
        <time>2026-09-03T05:54:07.000Z</time>
        <extensions>
          <ns3:TrackPointExtension>
            <ns3:hr>94</ns3:hr>
            <ns3:cad>0</ns3:cad>
          </ns3:TrackPointExtension>
        </extensions>
      </trkpt>
      <trkpt lat="44.714904986321926116943359375" lon="6.74508755095303058624267578125">
        <ele>1340.199951171875</ele>
        <time>2026-09-03T05:54:08.000Z</time>
        <extensions>
          <ns3:TrackPointExtension>
            <ns3:hr>94</ns3:hr>
            <ns3:cad>0</ns3:cad>
          </ns3:TrackPointExtension>
        </extensions>
      </trkpt>
      <trkpt lat="44.71490775234997272491455078125" lon="6.745112948119640350341796875">
        <ele>1339.800048828125</ele>
        <time>2026-09-03T05:54:09.000Z</time>
        <extensions>
          <ns3:TrackPointExtension>
            <ns3:hr>93</ns3:hr>
            <ns3:cad>81</ns3:cad>
          </ns3:TrackPointExtension>
        </extensions>
      </trkpt>
      <trkpt lat="44.714915715157985687255859375" lon="6.74514303915202617645263671875">
        <ele>1339.4000244140625</ele>
        <time>2026-09-03T05:54:10.000Z</time>
        <extensions>
          <ns3:TrackPointExtension>
            <ns3:hr>93</ns3:hr>
            <ns3:cad>81</ns3:cad>
          </ns3:TrackPointExtension>
        </extensions>
      </trkpt>
      <trkpt lat="44.7149299643933773040771484375" lon="6.74517455510795116424560546875">
        <ele>1339</ele>
        <time>2026-09-03T05:54:11.000Z</time>
        <extensions>
          <ns3:TrackPointExtension>
            <ns3:hr>92</ns3:hr>
            <ns3:cad>81</ns3:cad>
          </ns3:TrackPointExtension>
        </extensions>
      </trkpt>
      <trkpt lat="44.71493415534496307373046875" lon="6.74519852735102176666259765625">
        <ele>1338.800048828125</ele>
        <time>2026-09-03T05:54:12.000Z</time>
        <extensions>
          <ns3:TrackPointExtension>
            <ns3:hr>91</ns3:hr>
            <ns3:cad>82</ns3:cad>
          </ns3:TrackPointExtension>
        </extensions>
      </trkpt>
      <trkpt lat="44.7149373404681682586669921875" lon="6.7452147044241428375244140625">
        <ele>1338.4000244140625</ele>
        <time>2026-09-03T05:54:13.000Z</time>
        <extensions>
          <ns3:TrackPointExtension>
            <ns3:hr>90</ns3:hr>
            <ns3:cad>82</ns3:cad>
          </ns3:TrackPointExtension>
        </extensions>
      </trkpt>
      <trkpt lat="44.71494245342910289764404296875" lon="6.74522786401212215423583984375">
        <ele>1338.199951171875</ele>
        <time>2026-09-03T05:54:14.000Z</time>
        <extensions>
          <ns3:TrackPointExtension>
            <ns3:hr>90</ns3:hr>
            <ns3:cad>82</ns3:cad>
          </ns3:TrackPointExtension>
        </extensions>
      </trkpt>
      <trkpt lat="44.71493817865848541259765625" lon="6.745238006114959716796875">
        <ele>1338</ele>
        <time>2026-09-03T05:54:15.000Z</time>
        <extensions>
          <ns3:TrackPointExtension>
            <ns3:hr>90</ns3:hr>
            <ns3:cad>70</ns3:cad>
          </ns3:TrackPointExtension>
        </extensions>
      </trkpt>
      <trkpt lat="44.714929796755313873291015625" lon="6.745232306420803070068359375">
        <ele>1337.5999755859375</ele>
        <time>2026-09-03T05:54:16.000Z</time>
        <extensions>
          <ns3:TrackPointExtension>
            <ns3:hr>89</ns3:hr>
            <ns3:cad>70</ns3:cad>
          </ns3:TrackPointExtension>
        </extensions>
      </trkpt>
      <trkpt lat="44.71492200158536434173583984375" lon="6.74522660672664642333984375">
        <ele>1337.4000244140625</ele>
        <time>2026-09-03T05:54:17.000Z</time>
        <extensions>
          <ns3:TrackPointExtension>
            <ns3:hr>89</ns3:hr>
            <ns3:cad>79</ns3:cad>
          </ns3:TrackPointExtension>
        </extensions>
      </trkpt>
      <trkpt lat="44.7149145416915416717529296875" lon="6.74522937275469303131103515625">
        <ele>1337.199951171875</ele>
        <time>2026-09-03T05:54:18.000Z</time>
        <extensions>
          <ns3:TrackPointExtension>
            <ns3:hr>88</ns3:hr>
            <ns3:cad>79</ns3:cad>
          </ns3:TrackPointExtension>
        </extensions>
      </trkpt>
      <trkpt lat="44.7149024717509746551513671875" lon="6.74522702582180500030517578125">
        <ele>1336.800048828125</ele>
        <time>2026-09-03T05:54:19.000Z</time>
        <extensions>
          <ns3:TrackPointExtension>
            <ns3:hr>88</ns3:hr>
            <ns3:cad>71</ns3:cad>
          </ns3:TrackPointExtension>
        </extensions>
      </trkpt>
      <trkpt lat="44.71488319337368011474609375" lon="6.745219565927982330322265625">
        <ele>1336.4000244140625</ele>
        <time>2026-09-03T05:54:20.000Z</time>
        <extensions>
          <ns3:TrackPointExtension>
            <ns3:hr>87</ns3:hr>
            <ns3:cad>68</ns3:cad>
          </ns3:TrackPointExtension>
        </extensions>
      </trkpt>
      <trkpt lat="44.714872129261493682861328125" lon="6.745211519300937652587890625">
        <ele>1336</ele>
        <time>2026-09-03T05:54:21.000Z</time>
        <extensions>
          <ns3:TrackPointExtension>
            <ns3:hr>87</ns3:hr>
            <ns3:cad>68</ns3:cad>
          </ns3:TrackPointExtension>
        </extensions>
      </trkpt>
      <trkpt lat="44.7148664295673370361328125" lon="6.74519400112330913543701171875">
        <ele>1335.5999755859375</ele>
        <time>2026-09-03T05:54:22.000Z</time>
        <extensions>
          <ns3:TrackPointExtension>
            <ns3:hr>87</ns3:hr>
            <ns3:cad>68</ns3:cad>
          </ns3:TrackPointExtension>
        </extensions>
      </trkpt>
      <trkpt lat="44.71486307680606842041015625" lon="6.7451848648488521575927734375">
        <ele>1335.199951171875</ele>
        <time>2026-09-03T05:54:23.000Z</time>
        <extensions>
          <ns3:TrackPointExtension>
            <ns3:hr>87</ns3:hr>
            <ns3:cad>68</ns3:cad>
          </ns3:TrackPointExtension>
        </extensions>
      </trkpt>
      <trkpt lat="44.7148558683693408966064453125" lon="6.74517438746988773345947265625">
        <ele>1335</ele>
        <time>2026-09-03T05:54:24.000Z</time>
        <extensions>
          <ns3:TrackPointExtension>
            <ns3:hr>87</ns3:hr>
            <ns3:cad>68</ns3:cad>
          </ns3:TrackPointExtension>
        </extensions>
      </trkpt>
      <trkpt lat="44.71484673209488391876220703125" lon="6.7451597191393375396728515625">
        <ele>1334.5999755859375</ele>
        <time>2026-09-03T05:54:25.000Z</time>
        <extensions>
          <ns3:TrackPointExtension>
            <ns3:hr>86</ns3:hr>
            <ns3:cad>66</ns3:cad>
          </ns3:TrackPointExtension>
        </extensions>
      </trkpt>
      <trkpt lat="44.71483533270657062530517578125" lon="6.74514739774167537689208984375">
        <ele>1334.4000244140625</ele>
        <time>2026-09-03T05:54:26.000Z</time>
        <extensions>
          <ns3:TrackPointExtension>
            <ns3:hr>87</ns3:hr>
            <ns3:cad>66</ns3:cad>
          </ns3:TrackPointExtension>
        </extensions>
      </trkpt>
      <trkpt lat="44.71482292748987674713134765625" lon="6.74513834528625011444091796875">
        <ele>1334</ele>
        <time>2026-09-03T05:54:27.000Z</time>
        <extensions>
          <ns3:TrackPointExtension>
            <ns3:hr>87</ns3:hr>
            <ns3:cad>66</ns3:cad>
          </ns3:TrackPointExtension>
        </extensions>
      </trkpt>
      <trkpt lat="44.71481236629188060760498046875" lon="6.745129711925983428955078125">
        <ele>1333.5999755859375</ele>
        <time>2026-09-03T05:54:28.000Z</time>
        <extensions>
          <ns3:TrackPointExtension>
            <ns3:hr>86</ns3:hr>
            <ns3:cad>77</ns3:cad>
          </ns3:TrackPointExtension>
        </extensions>
      </trkpt>
      <trkpt lat="44.71479744650423526763916015625" lon="6.7451094277203083038330078125">
        <ele>1333</ele>
        <time>2026-09-03T05:54:29.000Z</time>
        <extensions>
          <ns3:TrackPointExtension>
            <ns3:hr>86</ns3:hr>
            <ns3:cad>77</ns3:cad>
          </ns3:TrackPointExtension>
        </extensions>
      </trkpt>
      <trkpt lat="44.7147888131439685821533203125" lon="6.7450945079326629638671875">
        <ele>1332.4000244140625</ele>
        <time>2026-09-03T05:54:30.000Z</time>
        <extensions>
          <ns3:TrackPointExtension>
            <ns3:hr>86</ns3:hr>
            <ns3:cad>77</ns3:cad>
          </ns3:TrackPointExtension>
        </extensions>
      </trkpt>
      <trkpt lat="44.714784957468509674072265625" lon="6.74508905969560146331787109375">
        <ele>1332</ele>
        <time>2026-09-03T05:54:31.000Z</time>
        <extensions>
          <ns3:TrackPointExtension>
            <ns3:hr>86</ns3:hr>
            <ns3:cad>77</ns3:cad>
          </ns3:TrackPointExtension>
        </extensions>
      </trkpt>
      <trkpt lat="44.7147837840020656585693359375" lon="6.745083443820476531982421875">
        <ele>1331.5999755859375</ele>
        <time>2026-09-03T05:54:32.000Z</time>
        <extensions>
          <ns3:TrackPointExtension>
            <ns3:hr>85</ns3:hr>
            <ns3:cad>81</ns3:cad>
          </ns3:TrackPointExtension>
        </extensions>
      </trkpt>
      <trkpt lat="44.71478001214563846588134765625" lon="6.74507103860378265380859375">
        <ele>1331.4000244140625</ele>
        <time>2026-09-03T05:54:33.000Z</time>
        <extensions>
          <ns3:TrackPointExtension>
            <ns3:hr>85</ns3:hr>
            <ns3:cad>81</ns3:cad>
          </ns3:TrackPointExtension>
        </extensions>
      </trkpt>
      <trkpt lat="44.71477515064179897308349609375" lon="6.74506542272865772247314453125">
        <ele>1331.199951171875</ele>
        <time>2026-09-03T05:54:34.000Z</time>
        <extensions>
          <ns3:TrackPointExtension>
            <ns3:hr>85</ns3:hr>
            <ns3:cad>81</ns3:cad>
          </ns3:TrackPointExtension>
        </extensions>
      </trkpt>
      <trkpt lat="44.71476643346250057220458984375" lon="6.74505569972097873687744140625">
        <ele>1331</ele>
        <time>2026-09-03T05:54:35.000Z</time>
        <extensions>
          <ns3:TrackPointExtension>
            <ns3:hr>86</ns3:hr>
            <ns3:cad>81</ns3:cad>
          </ns3:TrackPointExtension>
        </extensions>
      </trkpt>
      <trkpt lat="44.71475704573094844818115234375" lon="6.745041199028491973876953125">
        <ele>1330.800048828125</ele>
        <time>2026-09-03T05:54:36.000Z</time>
        <extensions>
          <ns3:TrackPointExtension>
            <ns3:hr>85</ns3:hr>
            <ns3:cad>82</ns3:cad>
          </ns3:TrackPointExtension>
        </extensions>
      </trkpt>
      <trkpt lat="44.7147495858371257781982421875" lon="6.7450306378304958343505859375">
        <ele>1330.5999755859375</ele>
        <time>2026-09-03T05:54:37.000Z</time>
        <extensions>
          <ns3:TrackPointExtension>
            <ns3:hr>85</ns3:hr>
            <ns3:cad>82</ns3:cad>
          </ns3:TrackPointExtension>
        </extensions>
      </trkpt>
      <trkpt lat="44.71474447287619113922119140625" lon="6.745026111602783203125">
        <ele>1330.199951171875</ele>
        <time>2026-09-03T05:54:38.000Z</time>
        <extensions>
          <ns3:TrackPointExtension>
            <ns3:hr>85</ns3:hr>
            <ns3:cad>79</ns3:cad>
          </ns3:TrackPointExtension>
        </extensions>
      </trkpt>
      <trkpt lat="44.71473676152527332305908203125" lon="6.745010353624820709228515625">
        <ele>1330</ele>
        <time>2026-09-03T05:54:39.000Z</time>
        <extensions>
          <ns3:TrackPointExtension>
            <ns3:hr>85</ns3:hr>
            <ns3:cad>66</ns3:cad>
          </ns3:TrackPointExtension>
        </extensions>
      </trkpt>
      <trkpt lat="44.7147224284708499908447265625" lon="6.74498981796205043792724609375">
        <ele>1329.800048828125</ele>
        <time>2026-09-03T05:54:40.000Z</time>
        <extensions>
          <ns3:TrackPointExtension>
            <ns3:hr>85</ns3:hr>
            <ns3:cad>66</ns3:cad>
          </ns3:TrackPointExtension>
        </extensions>
      </trkpt>
      <trkpt lat="44.71471832133829593658447265625" lon="6.74499032087624073028564453125">
        <ele>1329.4000244140625</ele>
        <time>2026-09-03T05:54:41.000Z</time>
        <extensions>
          <ns3:TrackPointExtension>
            <ns3:hr>85</ns3:hr>
            <ns3:cad>66</ns3:cad>
          </ns3:TrackPointExtension>
        </extensions>
      </trkpt>
      <trkpt lat="44.71472435630857944488525390625" lon="6.7449950985610485076904296875">
        <ele>1329.199951171875</ele>
        <time>2026-09-03T05:54:42.000Z</time>
        <extensions>
          <ns3:TrackPointExtension>
            <ns3:hr>85</ns3:hr>
            <ns3:cad>66</ns3:cad>
          </ns3:TrackPointExtension>
        </extensions>
      </trkpt>
      <trkpt lat="44.71472670324146747589111328125" lon="6.74499920569360256195068359375">
        <ele>1328.800048828125</ele>
        <time>2026-09-03T05:54:43.000Z</time>
        <extensions>
          <ns3:TrackPointExtension>
            <ns3:hr>84</ns3:hr>
            <ns3:cad>66</ns3:cad>
          </ns3:TrackPointExtension>
        </extensions>
      </trkpt>
      <trkpt lat="44.71472938545048236846923828125" lon="6.7449997924268245697021484375">
        <ele>1328.5999755859375</ele>
        <time>2026-09-03T05:54:44.000Z</time>
        <extensions>
          <ns3:TrackPointExtension>
            <ns3:hr>84</ns3:hr>
            <ns3:cad>69</ns3:cad>
          </ns3:TrackPointExtension>
        </extensions>
      </trkpt>
      <trkpt lat="44.71473257057368755340576171875" lon="6.74501110799610614776611328125">
        <ele>1328.4000244140625</ele>
        <time>2026-09-03T05:54:45.000Z</time>
        <extensions>
          <ns3:TrackPointExtension>
            <ns3:hr>84</ns3:hr>
            <ns3:cad>69</ns3:cad>
          </ns3:TrackPointExtension>
        </extensions>
      </trkpt>
      <trkpt lat="44.71473324112594127655029296875" lon="6.74503407441079616546630859375">
        <ele>1328.199951171875</ele>
        <time>2026-09-03T05:54:46.000Z</time>
        <extensions>
          <ns3:TrackPointExtension>
            <ns3:hr>84</ns3:hr>
            <ns3:cad>72</ns3:cad>
          </ns3:TrackPointExtension>
        </extensions>
      </trkpt>
      <trkpt lat="44.714731313288211822509765625" lon="6.74505016766488552093505859375">
        <ele>1327.800048828125</ele>
        <time>2026-09-03T05:54:47.000Z</time>
        <extensions>
          <ns3:TrackPointExtension>
            <ns3:hr>84</ns3:hr>
            <ns3:cad>73</ns3:cad>
          </ns3:TrackPointExtension>
        </extensions>
      </trkpt>
      <trkpt lat="44.714723266661167144775390625" lon="6.7450527660548686981201171875">
        <ele>1327.5999755859375</ele>
        <time>2026-09-03T05:54:48.000Z</time>
        <extensions>
          <ns3:TrackPointExtension>
            <ns3:hr>84</ns3:hr>
            <ns3:cad>75</ns3:cad>
          </ns3:TrackPointExtension>
        </extensions>
      </trkpt>
      <trkpt lat="44.7147200815379619598388671875" lon="6.74505201168358325958251953125">
        <ele>1327.4000244140625</ele>
        <time>2026-09-03T05:54:49.000Z</time>
        <extensions>
          <ns3:TrackPointExtension>
            <ns3:hr>83</ns3:hr>
            <ns3:cad>75</ns3:cad>
          </ns3:TrackPointExtension>
        </extensions>
      </trkpt>
      <trkpt lat="44.71471882425248622894287109375" lon="6.745041869580745697021484375">
        <ele>1327</ele>
        <time>2026-09-03T05:54:50.000Z</time>
        <extensions>
          <ns3:TrackPointExtension>
            <ns3:hr>83</ns3:hr>
            <ns3:cad>74</ns3:cad>
          </ns3:TrackPointExtension>
        </extensions>
      </trkpt>
      <trkpt lat="44.71471345983445644378662109375" lon="6.74503273330628871917724609375">
        <ele>1326.800048828125</ele>
        <time>2026-09-03T05:54:51.000Z</time>
        <extensions>
          <ns3:TrackPointExtension>
            <ns3:hr>84</ns3:hr>
            <ns3:cad>74</ns3:cad>
          </ns3:TrackPointExtension>
        </extensions>
      </trkpt>
      <trkpt lat="44.7147093527019023895263671875" lon="6.745030470192432403564453125">
        <ele>1326.5999755859375</ele>
        <time>2026-09-03T05:54:52.000Z</time>
        <extensions>
          <ns3:TrackPointExtension>
            <ns3:hr>86</ns3:hr>
            <ns3:cad>74</ns3:cad>
          </ns3:TrackPointExtension>
        </extensions>
      </trkpt>
      <trkpt lat="44.71470004878938198089599609375" lon="6.74502334557473659515380859375">
        <ele>1326.199951171875</ele>
        <time>2026-09-03T05:54:53.000Z</time>
        <extensions>
          <ns3:TrackPointExtension>
            <ns3:hr>87</ns3:hr>
            <ns3:cad>74</ns3:cad>
          </ns3:TrackPointExtension>
        </extensions>
      </trkpt>
      <trkpt lat="44.71469317562878131866455078125" lon="6.74501873552799224853515625">
        <ele>1326</ele>
        <time>2026-09-03T05:54:54.000Z</time>
        <extensions>
          <ns3:TrackPointExtension>
            <ns3:hr>88</ns3:hr>
            <ns3:cad>83</ns3:cad>
          </ns3:TrackPointExtension>
        </extensions>
      </trkpt>
      <trkpt lat="44.7146835364401340484619140625" lon="6.7450078390538692474365234375">
        <ele>1325.800048828125</ele>
        <time>2026-09-03T05:54:55.000Z</time>
        <extensions>
          <ns3:TrackPointExtension>
            <ns3:hr>91</ns3:hr>
            <ns3:cad>83</ns3:cad>
          </ns3:TrackPointExtension>
        </extensions>
      </trkpt>
      <trkpt lat="44.71467557363212108612060546875" lon="6.74499803222715854644775390625">
        <ele>1325.4000244140625</ele>
        <time>2026-09-03T05:54:56.000Z</time>
        <extensions>
          <ns3:TrackPointExtension>
            <ns3:hr>93</ns3:hr>
            <ns3:cad>83</ns3:cad>
          </ns3:TrackPointExtension>
        </extensions>
      </trkpt>
      <trkpt lat="44.714667610824108123779296875" lon="6.7449877224862575531005859375">
        <ele>1325.199951171875</ele>
        <time>2026-09-03T05:54:57.000Z</time>
        <extensions>
          <ns3:TrackPointExtension>
            <ns3:hr>93</ns3:hr>
            <ns3:cad>64</ns3:cad>
          </ns3:TrackPointExtension>
        </extensions>
      </trkpt>
      <trkpt lat="44.714659564197063446044921875" lon="6.7449800111353397369384765625">
        <ele>1324.800048828125</ele>
        <time>2026-09-03T05:54:58.000Z</time>
        <extensions>
          <ns3:TrackPointExtension>
            <ns3:hr>93</ns3:hr>
            <ns3:cad>64</ns3:cad>
          </ns3:TrackPointExtension>
        </extensions>
      </trkpt>
      <trkpt lat="44.71464606933295726776123046875" lon="6.74496349878609180450439453125">
        <ele>1324.5999755859375</ele>
        <time>2026-09-03T05:54:59.000Z</time>
        <extensions>
          <ns3:TrackPointExtension>
            <ns3:hr>93</ns3:hr>
            <ns3:cad>64</ns3:cad>
          </ns3:TrackPointExtension>
        </extensions>
      </trkpt>
      <trkpt lat="44.71463835798203945159912109375" lon="6.74494891427457332611083984375">
        <ele>1324.199951171875</ele>
        <time>2026-09-03T05:55:00.000Z</time>
        <extensions>
          <ns3:TrackPointExtension>
            <ns3:hr>94</ns3:hr>
            <ns3:cad>71</ns3:cad>
          </ns3:TrackPointExtension>
        </extensions>
      </trkpt>
      <trkpt lat="44.71463282592594623565673828125" lon="6.7449391074478626251220703125">
        <ele>1323.5999755859375</ele>
        <time>2026-09-03T05:55:01.000Z</time>
        <extensions>
          <ns3:TrackPointExtension>
            <ns3:hr>93</ns3:hr>
            <ns3:cad>71</ns3:cad>
          </ns3:TrackPointExtension>
        </extensions>
      </trkpt>
      <trkpt lat="44.714630059897899627685546875" lon="6.74492695368826389312744140625">
        <ele>1323.199951171875</ele>
        <time>2026-09-03T05:55:02.000Z</time>
        <extensions>
          <ns3:TrackPointExtension>
            <ns3:hr>93</ns3:hr>
            <ns3:cad>72</ns3:cad>
          </ns3:TrackPointExtension>
        </extensions>
      </trkpt>
      <trkpt lat="44.71461824141442775726318359375" lon="6.7449122853577136993408203125">
        <ele>1323</ele>
        <time>2026-09-03T05:55:03.000Z</time>
        <extensions>
          <ns3:TrackPointExtension>
            <ns3:hr>94</ns3:hr>
            <ns3:cad>72</ns3:cad>
          </ns3:TrackPointExtension>
        </extensions>
      </trkpt>
      <trkpt lat="44.71460499800741672515869140625" lon="6.74489946104586124420166015625">
        <ele>1322.5999755859375</ele>
        <time>2026-09-03T05:55:04.000Z</time>
        <extensions>
          <ns3:TrackPointExtension>
            <ns3:hr>93</ns3:hr>
            <ns3:cad>74</ns3:cad>
          </ns3:TrackPointExtension>
        </extensions>
      </trkpt>
      <trkpt lat="44.714594185352325439453125" lon="6.74488688819110393524169921875">
        <ele>1322.4000244140625</ele>
        <time>2026-09-03T05:55:05.000Z</time>
        <extensions>
          <ns3:TrackPointExtension>
            <ns3:hr>92</ns3:hr>
            <ns3:cad>75</ns3:cad>
          </ns3:TrackPointExtension>
        </extensions>
      </trkpt>
      <trkpt lat="44.71459276042878627777099609375" lon="6.7448727227747440338134765625">
        <ele>1322.199951171875</ele>
        <time>2026-09-03T05:55:06.000Z</time>
        <extensions>
          <ns3:TrackPointExtension>
            <ns3:hr>92</ns3:hr>
            <ns3:cad>75</ns3:cad>
          </ns3:TrackPointExtension>
        </extensions>
      </trkpt>
      <trkpt lat="44.71458706073462963104248046875" lon="6.74485906027257442474365234375">
        <ele>1322</ele>
        <time>2026-09-03T05:55:07.000Z</time>
        <extensions>
          <ns3:TrackPointExtension>
            <ns3:hr>91</ns3:hr>
            <ns3:cad>75</ns3:cad>
          </ns3:TrackPointExtension>
        </extensions>
      </trkpt>
      <trkpt lat="44.7145785950124263763427734375" lon="6.74484900198876857757568359375">
        <ele>1321.800048828125</ele>
        <time>2026-09-03T05:55:08.000Z</time>
        <extensions>
          <ns3:TrackPointExtension>
            <ns3:hr>91</ns3:hr>
            <ns3:cad>75</ns3:cad>
          </ns3:TrackPointExtension>
        </extensions>
      </trkpt>
      <trkpt lat="44.7145712189376354217529296875" lon="6.7448448948562145233154296875">
        <ele>1321.5999755859375</ele>
        <time>2026-09-03T05:55:09.000Z</time>
        <extensions>
          <ns3:TrackPointExtension>
            <ns3:hr>91</ns3:hr>
            <ns3:cad>75</ns3:cad>
          </ns3:TrackPointExtension>
        </extensions>
      </trkpt>
      <trkpt lat="44.7145635075867176055908203125" lon="6.7448375187814235687255859375">
        <ele>1321.4000244140625</ele>
        <time>2026-09-03T05:55:10.000Z</time>
        <extensions>
          <ns3:TrackPointExtension>
            <ns3:hr>91</ns3:hr>
            <ns3:cad>65</ns3:cad>
          </ns3:TrackPointExtension>
        </extensions>
      </trkpt>
      <trkpt lat="44.71454665996134281158447265625" lon="6.7448321543633937835693359375">
        <ele>1321</ele>
        <time>2026-09-03T05:55:11.000Z</time>
        <extensions>
          <ns3:TrackPointExtension>
            <ns3:hr>90</ns3:hr>
            <ns3:cad>65</ns3:cad>
          </ns3:TrackPointExtension>
        </extensions>
      </trkpt>
      <trkpt lat="44.7145338356494903564453125" lon="6.74482536502182483673095703125">
        <ele>1320.800048828125</ele>
        <time>2026-09-03T05:55:12.000Z</time>
        <extensions>
          <ns3:TrackPointExtension>
            <ns3:hr>89</ns3:hr>
            <ns3:cad>68</ns3:cad>
          </ns3:TrackPointExtension>
        </extensions>
      </trkpt>
      <trkpt lat="44.71452319063246250152587890625" lon="6.74481715075671672821044921875">
        <ele>1320.199951171875</ele>
        <time>2026-09-03T05:55:13.000Z</time>
        <extensions>
          <ns3:TrackPointExtension>
            <ns3:hr>89</ns3:hr>
            <ns3:cad>68</ns3:cad>
          </ns3:TrackPointExtension>
        </extensions>
      </trkpt>
      <trkpt lat="44.71450768411159515380859375" lon="6.7447994649410247802734375">
        <ele>1319.800048828125</ele>
        <time>2026-09-03T05:55:14.000Z</time>
        <extensions>
          <ns3:TrackPointExtension>
            <ns3:hr>89</ns3:hr>
            <ns3:cad>68</ns3:cad>
          </ns3:TrackPointExtension>
        </extensions>
      </trkpt>
      <trkpt lat="44.71449829638004302978515625" lon="6.74478529952466487884521484375">
        <ele>1319.4000244140625</ele>
        <time>2026-09-03T05:55:15.000Z</time>
        <extensions>
          <ns3:TrackPointExtension>
            <ns3:hr>88</ns3:hr>
            <ns3:cad>68</ns3:cad>
          </ns3:TrackPointExtension>
        </extensions>
      </trkpt>
      <trkpt lat="44.71448597498238086700439453125" lon="6.74477725289762020111083984375">
        <ele>1319</ele>
        <time>2026-09-03T05:55:16.000Z</time>
        <extensions>
          <ns3:TrackPointExtension>
            <ns3:hr>88</ns3:hr>
            <ns3:cad>69</ns3:cad>
          </ns3:TrackPointExtension>
        </extensions>
      </trkpt>
      <trkpt lat="44.71447256393730640411376953125" lon="6.74477322958409786224365234375">
        <ele>1318.5999755859375</ele>
        <time>2026-09-03T05:55:17.000Z</time>
        <extensions>
          <ns3:TrackPointExtension>
            <ns3:hr>88</ns3:hr>
            <ns3:cad>69</ns3:cad>
          </ns3:TrackPointExtension>
        </extensions>
      </trkpt>
      <trkpt lat="44.71445663832128047943115234375" lon="6.74476794898509979248046875">
        <ele>1318.5999755859375</ele>
        <time>2026-09-03T05:55:18.000Z</time>
        <extensions>
          <ns3:TrackPointExtension>
            <ns3:hr>88</ns3:hr>
            <ns3:cad>69</ns3:cad>
          </ns3:TrackPointExtension>
        </extensions>
      </trkpt>
      <trkpt lat="44.71444624476134777069091796875" lon="6.74476903863251209259033203125">
        <ele>1318.4000244140625</ele>
        <time>2026-09-03T05:55:19.000Z</time>
        <extensions>
          <ns3:TrackPointExtension>
            <ns3:hr>89</ns3:hr>
            <ns3:cad>69</ns3:cad>
          </ns3:TrackPointExtension>
        </extensions>
      </trkpt>
      <trkpt lat="44.71443300135433673858642578125" lon="6.74476853571832180023193359375">
        <ele>1318.199951171875</ele>
        <time>2026-09-03T05:55:20.000Z</time>
        <extensions>
          <ns3:TrackPointExtension>
            <ns3:hr>88</ns3:hr>
            <ns3:cad>69</ns3:cad>
          </ns3:TrackPointExtension>
        </extensions>
      </trkpt>
      <trkpt lat="44.71441908739507198333740234375" lon="6.744760572910308837890625">
        <ele>1317.800048828125</ele>
        <time>2026-09-03T05:55:21.000Z</time>
        <extensions>
          <ns3:TrackPointExtension>
            <ns3:hr>88</ns3:hr>
            <ns3:cad>69</ns3:cad>
          </ns3:TrackPointExtension>
        </extensions>
      </trkpt>
      <trkpt lat="44.71440651454031467437744140625" lon="6.74475696869194507598876953125">
        <ele>1317.4000244140625</ele>
        <time>2026-09-03T05:55:22.000Z</time>
        <extensions>
          <ns3:TrackPointExtension>
            <ns3:hr>88</ns3:hr>
            <ns3:cad>0</ns3:cad>
          </ns3:TrackPointExtension>
        </extensions>
      </trkpt>
      <trkpt lat="44.71439762972295284271240234375" lon="6.74475319683551788330078125">
        <ele>1317.199951171875</ele>
        <time>2026-09-03T05:55:23.000Z</time>
        <extensions>
          <ns3:TrackPointExtension>
            <ns3:hr>87</ns3:hr>
            <ns3:cad>0</ns3:cad>
          </ns3:TrackPointExtension>
        </extensions>
      </trkpt>
      <trkpt lat="44.71438966691493988037109375" lon="6.7447480000555515289306640625">
        <ele>1316.800048828125</ele>
        <time>2026-09-03T05:55:24.000Z</time>
        <extensions>
          <ns3:TrackPointExtension>
            <ns3:hr>86</ns3:hr>
            <ns3:cad>75</ns3:cad>
          </ns3:TrackPointExtension>
        </extensions>
      </trkpt>
      <trkpt lat="44.71437466330826282501220703125" lon="6.744739450514316558837890625">
        <ele>1316.4000244140625</ele>
        <time>2026-09-03T05:55:25.000Z</time>
        <extensions>
          <ns3:TrackPointExtension>
            <ns3:hr>86</ns3:hr>
            <ns3:cad>75</ns3:cad>
          </ns3:TrackPointExtension>
        </extensions>
      </trkpt>
      <trkpt lat="44.7143640182912349700927734375" lon="6.74474112689495086669921875">
        <ele>1316.199951171875</ele>
        <time>2026-09-03T05:55:26.000Z</time>
        <extensions>
          <ns3:TrackPointExtension>
            <ns3:hr>86</ns3:hr>
            <ns3:cad>75</ns3:cad>
          </ns3:TrackPointExtension>
        </extensions>
      </trkpt>
      <trkpt lat="44.7143542952835559844970703125" lon="6.74473986960947513580322265625">
        <ele>1316</ele>
        <time>2026-09-03T05:55:27.000Z</time>
        <extensions>
          <ns3:TrackPointExtension>
            <ns3:hr>86</ns3:hr>
            <ns3:cad>75</ns3:cad>
          </ns3:TrackPointExtension>
        </extensions>
      </trkpt>
      <trkpt lat="44.71433510072529315948486328125" lon="6.74472411163151264190673828125">
        <ele>1315.800048828125</ele>
        <time>2026-09-03T05:55:28.000Z</time>
        <extensions>
          <ns3:TrackPointExtension>
            <ns3:hr>85</ns3:hr>
            <ns3:cad>69</ns3:cad>
          </ns3:TrackPointExtension>
        </extensions>
      </trkpt>
      <trkpt lat="44.71431867219507694244384765625" lon="6.7447074316442012786865234375">
        <ele>1315.800048828125</ele>
        <time>2026-09-03T05:55:29.000Z</time>
        <extensions>
          <ns3:TrackPointExtension>
            <ns3:hr>86</ns3:hr>
            <ns3:cad>67</ns3:cad>
          </ns3:TrackPointExtension>
        </extensions>
      </trkpt>
      <trkpt lat="44.71430274657905101776123046875" lon="6.744688488543033599853515625">
        <ele>1315.5999755859375</ele>
        <time>2026-09-03T05:55:30.000Z</time>
        <extensions>
          <ns3:TrackPointExtension>
            <ns3:hr>86</ns3:hr>
            <ns3:cad>67</ns3:cad>
          </ns3:TrackPointExtension>
        </extensions>
      </trkpt>
      <trkpt lat="44.71428447403013706207275390625" lon="6.744675077497959136962890625">
        <ele>1315.4000244140625</ele>
        <time>2026-09-03T05:55:31.000Z</time>
        <extensions>
          <ns3:TrackPointExtension>
            <ns3:hr>86</ns3:hr>
            <ns3:cad>65</ns3:cad>
          </ns3:TrackPointExtension>
        </extensions>
      </trkpt>
      <trkpt lat="44.71427173353731632232666015625" lon="6.74466946162283420562744140625">
        <ele>1315.4000244140625</ele>
        <time>2026-09-03T05:55:32.000Z</time>
        <extensions>
          <ns3:TrackPointExtension>
            <ns3:hr>86</ns3:hr>
            <ns3:cad>64</ns3:cad>
          </ns3:TrackPointExtension>
        </extensions>
      </trkpt>
      <trkpt lat="44.71425966359674930572509765625" lon="6.74467013217508792877197265625">
        <ele>1315.199951171875</ele>
        <time>2026-09-03T05:55:33.000Z</time>
        <extensions>
          <ns3:TrackPointExtension>
            <ns3:hr>86</ns3:hr>
            <ns3:cad>64</ns3:cad>
          </ns3:TrackPointExtension>
        </extensions>
      </trkpt>
      <trkpt lat="44.7142414748668670654296875" lon="6.74466443248093128204345703125">
        <ele>1315</ele>
        <time>2026-09-03T05:55:34.000Z</time>
        <extensions>
          <ns3:TrackPointExtension>
            <ns3:hr>86</ns3:hr>
            <ns3:cad>64</ns3:cad>
          </ns3:TrackPointExtension>
        </extensions>
      </trkpt>
      <trkpt lat="44.71422412432730197906494140625" lon="6.7446581460535526275634765625">
        <ele>1315</ele>
        <time>2026-09-03T05:55:35.000Z</time>
        <extensions>
          <ns3:TrackPointExtension>
            <ns3:hr>86</ns3:hr>
            <ns3:cad>66</ns3:cad>
          </ns3:TrackPointExtension>
        </extensions>
      </trkpt>
      <trkpt lat="44.71420870162546634674072265625" lon="6.74465336836874485015869140625">
        <ele>1314.5999755859375</ele>
        <time>2026-09-03T05:55:36.000Z</time>
        <extensions>
          <ns3:TrackPointExtension>
            <ns3:hr>86</ns3:hr>
            <ns3:cad>66</ns3:cad>
          </ns3:TrackPointExtension>
        </extensions>
      </trkpt>
      <trkpt lat="44.7141910158097743988037109375" lon="6.74464615993201732635498046875">
        <ele>1314.4000244140625</ele>
        <time>2026-09-03T05:55:37.000Z</time>
        <extensions>
          <ns3:TrackPointExtension>
            <ns3:hr>87</ns3:hr>
            <ns3:cad>66</ns3:cad>
          </ns3:TrackPointExtension>
        </extensions>
      </trkpt>
      <trkpt lat="44.7141771018505096435546875" lon="6.74464180134236812591552734375">
        <ele>1314</ele>
        <time>2026-09-03T05:55:38.000Z</time>
        <extensions>
          <ns3:TrackPointExtension>
            <ns3:hr>87</ns3:hr>
            <ns3:cad>66</ns3:cad>
          </ns3:TrackPointExtension>
        </extensions>
      </trkpt>
      <trkpt lat="44.71416008658707141876220703125" lon="6.7446343414485454559326171875">
        <ele>1313.800048828125</ele>
        <time>2026-09-03T05:55:39.000Z</time>
        <extensions>
          <ns3:TrackPointExtension>
            <ns3:hr>87</ns3:hr>
            <ns3:cad>79</ns3:cad>
          </ns3:TrackPointExtension>
        </extensions>
      </trkpt>
      <trkpt lat="44.71414332278072834014892578125" lon="6.74463107250630855560302734375">
        <ele>1313.4000244140625</ele>
        <time>2026-09-03T05:55:40.000Z</time>
        <extensions>
          <ns3:TrackPointExtension>
            <ns3:hr>87</ns3:hr>
            <ns3:cad>80</ns3:cad>
          </ns3:TrackPointExtension>
        </extensions>
      </trkpt>
      <trkpt lat="44.7141373716294765472412109375" lon="6.7446170747280120849609375">
        <ele>1313</ele>
        <time>2026-09-03T05:55:41.000Z</time>
        <extensions>
          <ns3:TrackPointExtension>
            <ns3:hr>87</ns3:hr>
            <ns3:cad>81</ns3:cad>
          </ns3:TrackPointExtension>
        </extensions>
      </trkpt>
      <trkpt lat="44.7141341865062713623046875" lon="6.7445974610745906829833984375">
        <ele>1313</ele>
        <time>2026-09-03T05:55:42.000Z</time>
        <extensions>
          <ns3:TrackPointExtension>
            <ns3:hr>87</ns3:hr>
            <ns3:cad>80</ns3:cad>
          </ns3:TrackPointExtension>
        </extensions>
      </trkpt>
      <trkpt lat="44.714127816259860992431640625" lon="6.74458027817308902740478515625">
        <ele>1313</ele>
        <time>2026-09-03T05:55:43.000Z</time>
        <extensions>
          <ns3:TrackPointExtension>
            <ns3:hr>87</ns3:hr>
            <ns3:cad>80</ns3:cad>
          </ns3:TrackPointExtension>
        </extensions>
      </trkpt>
      <trkpt lat="44.71411884762346744537353515625" lon="6.744567453861236572265625">
        <ele>1313.199951171875</ele>
        <time>2026-09-03T05:55:44.000Z</time>
        <extensions>
          <ns3:TrackPointExtension>
            <ns3:hr>88</ns3:hr>
            <ns3:cad>80</ns3:cad>
          </ns3:TrackPointExtension>
        </extensions>
      </trkpt>
      <trkpt lat="44.71411205828189849853515625" lon="6.74455295316874980926513671875">
        <ele>1313.4000244140625</ele>
        <time>2026-09-03T05:55:45.000Z</time>
        <extensions>
          <ns3:TrackPointExtension>
            <ns3:hr>88</ns3:hr>
            <ns3:cad>80</ns3:cad>
          </ns3:TrackPointExtension>
        </extensions>
      </trkpt>
      <trkpt lat="44.71410526894032955169677734375" lon="6.74454071559011936187744140625">
        <ele>1313.5999755859375</ele>
        <time>2026-09-03T05:55:46.000Z</time>
        <extensions>
          <ns3:TrackPointExtension>
            <ns3:hr>88</ns3:hr>
            <ns3:cad>80</ns3:cad>
          </ns3:TrackPointExtension>
        </extensions>
      </trkpt>
      <trkpt lat="44.7140921093523502349853515625" lon="6.7445350997149944305419921875">
        <ele>1313.800048828125</ele>
        <time>2026-09-03T05:55:47.000Z</time>
        <extensions>
          <ns3:TrackPointExtension>
            <ns3:hr>87</ns3:hr>
            <ns3:cad>80</ns3:cad>
          </ns3:TrackPointExtension>
        </extensions>
      </trkpt>
      <trkpt lat="44.71407325007021427154541015625" lon="6.744525544345378875732421875">
        <ele>1313.800048828125</ele>
        <time>2026-09-03T05:55:48.000Z</time>
        <extensions>
          <ns3:TrackPointExtension>
            <ns3:hr>88</ns3:hr>
            <ns3:cad>80</ns3:cad>
          </ns3:TrackPointExtension>
        </extensions>
      </trkpt>
      <trkpt lat="44.71406436525285243988037109375" lon="6.74451355822384357452392578125">
        <ele>1313.800048828125</ele>
        <time>2026-09-03T05:55:49.000Z</time>
        <extensions>
          <ns3:TrackPointExtension>
            <ns3:hr>88</ns3:hr>
            <ns3:cad>80</ns3:cad>
          </ns3:TrackPointExtension>
        </extensions>
      </trkpt>
      <trkpt lat="44.71405833028256893157958984375" lon="6.74449495039880275726318359375">
        <ele>1313.5999755859375</ele>
        <time>2026-09-03T05:55:50.000Z</time>
        <extensions>
          <ns3:TrackPointExtension>
            <ns3:hr>88</ns3:hr>
            <ns3:cad>83</ns3:cad>
          </ns3:TrackPointExtension>
        </extensions>
      </trkpt>
      <trkpt lat="44.71405765973031520843505859375" lon="6.744480617344379425048828125">
        <ele>1313.4000244140625</ele>
        <time>2026-09-03T05:55:51.000Z</time>
        <extensions>
          <ns3:TrackPointExtension>
            <ns3:hr>89</ns3:hr>
            <ns3:cad>83</ns3:cad>
          </ns3:TrackPointExtension>
        </extensions>
      </trkpt>
      <trkpt lat="44.714059419929981231689453125" lon="6.74446729011833667755126953125">
        <ele>1313.199951171875</ele>
        <time>2026-09-03T05:55:52.000Z</time>
        <extensions>
          <ns3:TrackPointExtension>
            <ns3:hr>89</ns3:hr>
            <ns3:cad>83</ns3:cad>
          </ns3:TrackPointExtension>
        </extensions>
      </trkpt>
      <trkpt lat="44.71405615098774433135986328125" lon="6.74445136450231075286865234375">
        <ele>1313</ele>
        <time>2026-09-03T05:55:53.000Z</time>
        <extensions>
          <ns3:TrackPointExtension>
            <ns3:hr>90</ns3:hr>
            <ns3:cad>74</ns3:cad>
          </ns3:TrackPointExtension>
        </extensions>
      </trkpt>
      <trkpt lat="44.7140488587319850921630859375" lon="6.7444408871233463287353515625">
        <ele>1312.800048828125</ele>
        <time>2026-09-03T05:55:54.000Z</time>
        <extensions>
          <ns3:TrackPointExtension>
            <ns3:hr>91</ns3:hr>
            <ns3:cad>74</ns3:cad>
          </ns3:TrackPointExtension>
        </extensions>
      </trkpt>
      <trkpt lat="44.71404374577105045318603515625" lon="6.74443275667726993560791015625">
        <ele>1312.800048828125</ele>
        <time>2026-09-03T05:55:55.000Z</time>
        <extensions>
          <ns3:TrackPointExtension>
            <ns3:hr>91</ns3:hr>
            <ns3:cad>74</ns3:cad>
          </ns3:TrackPointExtension>
        </extensions>
      </trkpt>
      <trkpt lat="44.714033268392086029052734375" lon="6.74442387185990810394287109375">
        <ele>1312.5999755859375</ele>
        <time>2026-09-03T05:55:56.000Z</time>
        <extensions>
          <ns3:TrackPointExtension>
            <ns3:hr>91</ns3:hr>
            <ns3:cad>74</ns3:cad>
          </ns3:TrackPointExtension>
        </extensions>
      </trkpt>
      <trkpt lat="44.7140215337276458740234375" lon="6.74442018382251262664794921875">
        <ele>1312.199951171875</ele>
        <time>2026-09-03T05:55:57.000Z</time>
        <extensions>
          <ns3:TrackPointExtension>
            <ns3:hr>91</ns3:hr>
            <ns3:cad>74</ns3:cad>
          </ns3:TrackPointExtension>
        </extensions>
      </trkpt>
      <trkpt lat="44.71400619484484195709228515625" lon="6.74441230483353137969970703125">
        <ele>1311.800048828125</ele>
        <time>2026-09-03T05:55:58.000Z</time>
        <extensions>
          <ns3:TrackPointExtension>
            <ns3:hr>90</ns3:hr>
            <ns3:cad>74</ns3:cad>
          </ns3:TrackPointExtension>
        </extensions>
      </trkpt>
      <trkpt lat="44.713996388018131256103515625" lon="6.7444087006151676177978515625">
        <ele>1311.4000244140625</ele>
        <time>2026-09-03T05:55:59.000Z</time>
        <extensions>
          <ns3:TrackPointExtension>
            <ns3:hr>88</ns3:hr>
            <ns3:cad>74</ns3:cad>
          </ns3:TrackPointExtension>
        </extensions>
      </trkpt>
      <trkpt lat="44.71398892812430858612060546875" lon="6.7444076947867870330810546875">
        <ele>1311</ele>
        <time>2026-09-03T05:56:00.000Z</time>
        <extensions>
          <ns3:TrackPointExtension>
            <ns3:hr>88</ns3:hr>
            <ns3:cad>74</ns3:cad>
          </ns3:TrackPointExtension>
        </extensions>
      </trkpt>
      <trkpt lat="44.7139813005924224853515625" lon="6.74440928734838962554931640625">
        <ele>1310.5999755859375</ele>
        <time>2026-09-03T05:56:01.000Z</time>
        <extensions>
          <ns3:TrackPointExtension>
            <ns3:hr>88</ns3:hr>
            <ns3:cad>74</ns3:cad>
          </ns3:TrackPointExtension>
        </extensions>
      </trkpt>
      <trkpt lat="44.71397568471729755401611328125" lon="6.74441012553870677947998046875">
        <ele>1310.199951171875</ele>
        <time>2026-09-03T05:56:02.000Z</time>
        <extensions>
          <ns3:TrackPointExtension>
            <ns3:hr>88</ns3:hr>
            <ns3:cad>71</ns3:cad>
          </ns3:TrackPointExtension>
        </extensions>
      </trkpt>
      <trkpt lat="44.713970236480236053466796875" lon="6.74440610222518444061279296875">
        <ele>1309.800048828125</ele>
        <time>2026-09-03T05:56:03.000Z</time>
        <extensions>
          <ns3:TrackPointExtension>
            <ns3:hr>87</ns3:hr>
            <ns3:cad>71</ns3:cad>
          </ns3:TrackPointExtension>
        </extensions>
      </trkpt>
      <trkpt lat="44.7139553166925907135009765625" lon="6.74439654685556888580322265625">
        <ele>1309.5999755859375</ele>
        <time>2026-09-03T05:56:04.000Z</time>
        <extensions>
          <ns3:TrackPointExtension>
            <ns3:hr>88</ns3:hr>
            <ns3:cad>71</ns3:cad>
          </ns3:TrackPointExtension>
        </extensions>
      </trkpt>
      <trkpt lat="44.7139372117817401885986328125" lon="6.74439243972301483154296875">
        <ele>1309</ele>
        <time>2026-09-03T05:56:05.000Z</time>
        <extensions>
          <ns3:TrackPointExtension>
            <ns3:hr>88</ns3:hr>
            <ns3:cad>71</ns3:cad>
          </ns3:TrackPointExtension>
        </extensions>
      </trkpt>
      <trkpt lat="44.7139248065650463104248046875" lon="6.74439185298979282379150390625">
        <ele>1308.5999755859375</ele>
        <time>2026-09-03T05:56:06.000Z</time>
        <extensions>
          <ns3:TrackPointExtension>
            <ns3:hr>87</ns3:hr>
            <ns3:cad>85</ns3:cad>
          </ns3:TrackPointExtension>
        </extensions>
      </trkpt>
      <trkpt lat="44.7139110602438449859619140625" lon="6.74438648857176303863525390625">
        <ele>1308.199951171875</ele>
        <time>2026-09-03T05:56:07.000Z</time>
        <extensions>
          <ns3:TrackPointExtension>
            <ns3:hr>88</ns3:hr>
            <ns3:cad>85</ns3:cad>
          </ns3:TrackPointExtension>
        </extensions>
      </trkpt>
      <trkpt lat="44.71390175633132457733154296875" lon="6.7443778552114963531494140625">
        <ele>1307.800048828125</ele>
        <time>2026-09-03T05:56:08.000Z</time>
        <extensions>
          <ns3:TrackPointExtension>
            <ns3:hr>87</ns3:hr>
            <ns3:cad>88</ns3:cad>
          </ns3:TrackPointExtension>
        </extensions>
      </trkpt>
      <trkpt lat="44.71389438025653362274169921875" lon="6.7443691380321979522705078125">
        <ele>1307.4000244140625</ele>
        <time>2026-09-03T05:56:09.000Z</time>
        <extensions>
          <ns3:TrackPointExtension>
            <ns3:hr>88</ns3:hr>
            <ns3:cad>88</ns3:cad>
          </ns3:TrackPointExtension>
        </extensions>
      </trkpt>
      <trkpt lat="44.71389085985720157623291015625" lon="6.74434893764555454254150390625">
        <ele>1307</ele>
        <time>2026-09-03T05:56:10.000Z</time>
        <extensions>
          <ns3:TrackPointExtension>
            <ns3:hr>87</ns3:hr>
            <ns3:cad>88</ns3:cad>
          </ns3:TrackPointExtension>
        </extensions>
      </trkpt>
      <trkpt lat="44.71388465724885463714599609375" lon="6.7443295754492282867431640625">
        <ele>1306.800048828125</ele>
        <time>2026-09-03T05:56:11.000Z</time>
        <extensions>
          <ns3:TrackPointExtension>
            <ns3:hr>87</ns3:hr>
            <ns3:cad>88</ns3:cad>
          </ns3:TrackPointExtension>
        </extensions>
      </trkpt>
      <trkpt lat="44.71387644298374652862548828125" lon="6.74431138671934604644775390625">
        <ele>1306.4000244140625</ele>
        <time>2026-09-03T05:56:12.000Z</time>
        <extensions>
          <ns3:TrackPointExtension>
            <ns3:hr>88</ns3:hr>
            <ns3:cad>88</ns3:cad>
          </ns3:TrackPointExtension>
        </extensions>
      </trkpt>
      <trkpt lat="44.713868983089923858642578125" lon="6.74429378472268581390380859375">
        <ele>1306.199951171875</ele>
        <time>2026-09-03T05:56:13.000Z</time>
        <extensions>
          <ns3:TrackPointExtension>
            <ns3:hr>88</ns3:hr>
            <ns3:cad>88</ns3:cad>
          </ns3:TrackPointExtension>
        </extensions>
      </trkpt>
      <trkpt lat="44.71385733224451541900634765625" lon="6.7442812956869602203369140625">
        <ele>1306</ele>
        <time>2026-09-03T05:56:14.000Z</time>
        <extensions>
          <ns3:TrackPointExtension>
            <ns3:hr>88</ns3:hr>
            <ns3:cad>88</ns3:cad>
          </ns3:TrackPointExtension>
        </extensions>
      </trkpt>
      <trkpt lat="44.713848531246185302734375" lon="6.74427333287894725799560546875">
        <ele>1306</ele>
        <time>2026-09-03T05:56:15.000Z</time>
        <extensions>
          <ns3:TrackPointExtension>
            <ns3:hr>87</ns3:hr>
            <ns3:cad>88</ns3:cad>
          </ns3:TrackPointExtension>
        </extensions>
      </trkpt>
      <trkpt lat="44.71384542994201183319091796875" lon="6.744271405041217803955078125">
        <ele>1306</ele>
        <time>2026-09-03T05:56:16.000Z</time>
        <extensions>
          <ns3:TrackPointExtension>
            <ns3:hr>86</ns3:hr>
            <ns3:cad>64</ns3:cad>
          </ns3:TrackPointExtension>
        </extensions>
      </trkpt>
      <trkpt lat="44.713835455477237701416015625" lon="6.74426830373704433441162109375">
        <ele>1305.800048828125</ele>
        <time>2026-09-03T05:56:17.000Z</time>
        <extensions>
          <ns3:TrackPointExtension>
            <ns3:hr>86</ns3:hr>
            <ns3:cad>64</ns3:cad>
          </ns3:TrackPointExtension>
        </extensions>
      </trkpt>
      <trkpt lat="44.71381994895637035369873046875" lon="6.74424818716943264007568359375">
        <ele>1305.5999755859375</ele>
        <time>2026-09-03T05:56:18.000Z</time>
        <extensions>
          <ns3:TrackPointExtension>
            <ns3:hr>86</ns3:hr>
            <ns3:cad>65</ns3:cad>
          </ns3:TrackPointExtension>
        </extensions>
      </trkpt>
      <trkpt lat="44.71381139941513538360595703125" lon="6.74423460848629474639892578125">
        <ele>1305.4000244140625</ele>
        <time>2026-09-03T05:56:19.000Z</time>
        <extensions>
          <ns3:TrackPointExtension>
            <ns3:hr>87</ns3:hr>
            <ns3:cad>65</ns3:cad>
          </ns3:TrackPointExtension>
        </extensions>
      </trkpt>
      <trkpt lat="44.71380050294101238250732421875" lon="6.74421616829931735992431640625">
        <ele>1305</ele>
        <time>2026-09-03T05:56:20.000Z</time>
        <extensions>
          <ns3:TrackPointExtension>
            <ns3:hr>87</ns3:hr>
            <ns3:cad>65</ns3:cad>
          </ns3:TrackPointExtension>
        </extensions>
      </trkpt>
      <trkpt lat="44.71379195339977741241455078125" lon="6.74420091323554515838623046875">
        <ele>1304.800048828125</ele>
        <time>2026-09-03T05:56:21.000Z</time>
        <extensions>
          <ns3:TrackPointExtension>
            <ns3:hr>87</ns3:hr>
            <ns3:cad>66</ns3:cad>
          </ns3:TrackPointExtension>
        </extensions>
      </trkpt>
      <trkpt lat="44.71378306858241558074951171875" lon="6.74418599344789981842041015625">
        <ele>1304.5999755859375</ele>
        <time>2026-09-03T05:56:22.000Z</time>
        <extensions>
          <ns3:TrackPointExtension>
            <ns3:hr>87</ns3:hr>
            <ns3:cad>66</ns3:cad>
          </ns3:TrackPointExtension>
        </extensions>
      </trkpt>
      <trkpt lat="44.71377074718475341796875" lon="6.74417392350733280181884765625">
        <ele>1304.4000244140625</ele>
        <time>2026-09-03T05:56:23.000Z</time>
        <extensions>
          <ns3:TrackPointExtension>
            <ns3:hr>87</ns3:hr>
            <ns3:cad>66</ns3:cad>
          </ns3:TrackPointExtension>
        </extensions>
      </trkpt>
      <trkpt lat="44.7137544862926006317138671875" lon="6.744156740605831146240234375">
        <ele>1304.199951171875</ele>
        <time>2026-09-03T05:56:24.000Z</time>
        <extensions>
          <ns3:TrackPointExtension>
            <ns3:hr>86</ns3:hr>
            <ns3:cad>75</ns3:cad>
          </ns3:TrackPointExtension>
        </extensions>
      </trkpt>
      <trkpt lat="44.71374250017106533050537109375" lon="6.74414307810366153717041015625">
        <ele>1303.800048828125</ele>
        <time>2026-09-03T05:56:25.000Z</time>
        <extensions>
          <ns3:TrackPointExtension>
            <ns3:hr>86</ns3:hr>
            <ns3:cad>75</ns3:cad>
          </ns3:TrackPointExtension>
        </extensions>
      </trkpt>
      <trkpt lat="44.71373344771564006805419921875" lon="6.74413218162953853607177734375">
        <ele>1303.4000244140625</ele>
        <time>2026-09-03T05:56:26.000Z</time>
        <extensions>
          <ns3:TrackPointExtension>
            <ns3:hr>86</ns3:hr>
            <ns3:cad>0</ns3:cad>
          </ns3:TrackPointExtension>
        </extensions>
      </trkpt>
      <trkpt lat="44.71372137777507305145263671875" lon="6.7441176809370517730712890625">
        <ele>1303</ele>
        <time>2026-09-03T05:56:27.000Z</time>
        <extensions>
          <ns3:TrackPointExtension>
            <ns3:hr>86</ns3:hr>
            <ns3:cad>0</ns3:cad>
          </ns3:TrackPointExtension>
        </extensions>
      </trkpt>
      <trkpt lat="44.7137088887393474578857421875" lon="6.7441096343100070953369140625">
        <ele>1302.5999755859375</ele>
        <time>2026-09-03T05:56:28.000Z</time>
        <extensions>
          <ns3:TrackPointExtension>
            <ns3:hr>86</ns3:hr>
            <ns3:cad>67</ns3:cad>
          </ns3:TrackPointExtension>
        </extensions>
      </trkpt>
      <trkpt lat="44.71370260231196880340576171875" lon="6.74411122687160968780517578125">
        <ele>1302.199951171875</ele>
        <time>2026-09-03T05:56:29.000Z</time>
        <extensions>
          <ns3:TrackPointExtension>
            <ns3:hr>86</ns3:hr>
            <ns3:cad>67</ns3:cad>
          </ns3:TrackPointExtension>
        </extensions>
      </trkpt>
      <trkpt lat="44.7137015126645565032958984375" lon="6.74411726184189319610595703125">
        <ele>1301.5999755859375</ele>
        <time>2026-09-03T05:56:30.000Z</time>
        <extensions>
          <ns3:TrackPointExtension>
            <ns3:hr>86</ns3:hr>
            <ns3:cad>67</ns3:cad>
          </ns3:TrackPointExtension>
        </extensions>
      </trkpt>
      <trkpt lat="44.7137023508548736572265625" lon="6.74412748776376247406005859375">
        <ele>1301.199951171875</ele>
        <time>2026-09-03T05:56:31.000Z</time>
        <extensions>
          <ns3:TrackPointExtension>
            <ns3:hr>86</ns3:hr>
            <ns3:cad>76</ns3:cad>
          </ns3:TrackPointExtension>
        </extensions>
      </trkpt>
      <trkpt lat="44.71371282823383808135986328125" lon="6.7441528849303722381591796875">
        <ele>1300.800048828125</ele>
        <time>2026-09-03T05:56:32.000Z</time>
        <extensions>
          <ns3:TrackPointExtension>
            <ns3:hr>86</ns3:hr>
            <ns3:cad>76</ns3:cad>
          </ns3:TrackPointExtension>
        </extensions>
      </trkpt>
      <trkpt lat="44.713713414967060089111328125" lon="6.74416311085224151611328125">
        <ele>1300.199951171875</ele>
        <time>2026-09-03T05:56:33.000Z</time>
        <extensions>
          <ns3:TrackPointExtension>
            <ns3:hr>86</ns3:hr>
            <ns3:cad>76</ns3:cad>
          </ns3:TrackPointExtension>
        </extensions>
      </trkpt>
      <trkpt lat="44.71371215768158435821533203125" lon="6.7441726662218570709228515625">
        <ele>1299.800048828125</ele>
        <time>2026-09-03T05:56:34.000Z</time>
        <extensions>
          <ns3:TrackPointExtension>
            <ns3:hr>86</ns3:hr>
            <ns3:cad>74</ns3:cad>
          </ns3:TrackPointExtension>
        </extensions>
      </trkpt>
      <trkpt lat="44.71370528452098369598388671875" lon="6.7441827245056629180908203125">
        <ele>1299.4000244140625</ele>
        <time>2026-09-03T05:56:35.000Z</time>
        <extensions>
          <ns3:TrackPointExtension>
            <ns3:hr>86</ns3:hr>
            <ns3:cad>74</ns3:cad>
          </ns3:TrackPointExtension>
        </extensions>
      </trkpt>
      <trkpt lat="44.7137001715600490570068359375" lon="6.7441837303340435028076171875">
        <ele>1299.199951171875</ele>
        <time>2026-09-03T05:56:36.000Z</time>
        <extensions>
          <ns3:TrackPointExtension>
            <ns3:hr>85</ns3:hr>
            <ns3:cad>74</ns3:cad>
          </ns3:TrackPointExtension>
        </extensions>
      </trkpt>
      <trkpt lat="44.7136996686458587646484375" lon="6.74417392350733280181884765625">
        <ele>1299</ele>
        <time>2026-09-03T05:56:37.000Z</time>
        <extensions>
          <ns3:TrackPointExtension>
            <ns3:hr>85</ns3:hr>
            <ns3:cad>78</ns3:cad>
          </ns3:TrackPointExtension>
        </extensions>
      </trkpt>
      <trkpt lat="44.7136934660375118255615234375" lon="6.7441686429083347320556640625">
        <ele>1298.800048828125</ele>
        <time>2026-09-03T05:56:38.000Z</time>
        <extensions>
          <ns3:TrackPointExtension>
            <ns3:hr>85</ns3:hr>
            <ns3:cad>78</ns3:cad>
          </ns3:TrackPointExtension>
        </extensions>
      </trkpt>
      <trkpt lat="44.71368332393467426300048828125" lon="6.74415917135775089263916015625">
        <ele>1298.5999755859375</ele>
        <time>2026-09-03T05:56:39.000Z</time>
        <extensions>
          <ns3:TrackPointExtension>
            <ns3:hr>85</ns3:hr>
            <ns3:cad>75</ns3:cad>
          </ns3:TrackPointExtension>
        </extensions>
      </trkpt>
      <trkpt lat="44.71367309801280498504638671875" lon="6.7441488616168498992919921875">
        <ele>1298.199951171875</ele>
        <time>2026-09-03T05:56:40.000Z</time>
        <extensions>
          <ns3:TrackPointExtension>
            <ns3:hr>85</ns3:hr>
            <ns3:cad>75</ns3:cad>
          </ns3:TrackPointExtension>
        </extensions>
      </trkpt>
      <trkpt lat="44.71367008052766323089599609375" lon="6.744150035083293914794921875">
        <ele>1297.800048828125</ele>
        <time>2026-09-03T05:56:41.000Z</time>
        <extensions>
          <ns3:TrackPointExtension>
            <ns3:hr>84</ns3:hr>
            <ns3:cad>75</ns3:cad>
          </ns3:TrackPointExtension>
        </extensions>
      </trkpt>
      <trkpt lat="44.7136760316789150238037109375" lon="6.7441666312515735626220703125">
        <ele>1297.5999755859375</ele>
        <time>2026-09-03T05:56:42.000Z</time>
        <extensions>
          <ns3:TrackPointExtension>
            <ns3:hr>84</ns3:hr>
            <ns3:cad>75</ns3:cad>
          </ns3:TrackPointExtension>
        </extensions>
      </trkpt>
      <trkpt lat="44.71368231810629367828369140625" lon="6.74418414942920207977294921875">
        <ele>1297.199951171875</ele>
        <time>2026-09-03T05:56:43.000Z</time>
        <extensions>
          <ns3:TrackPointExtension>
            <ns3:hr>84</ns3:hr>
            <ns3:cad>75</ns3:cad>
          </ns3:TrackPointExtension>
        </extensions>
      </trkpt>
      <trkpt lat="44.71368567086756229400634765625" lon="6.7441984824836254119873046875">
        <ele>1296.800048828125</ele>
        <time>2026-09-03T05:56:44.000Z</time>
        <extensions>
          <ns3:TrackPointExtension>
            <ns3:hr>84</ns3:hr>
            <ns3:cad>75</ns3:cad>
          </ns3:TrackPointExtension>
        </extensions>
      </trkpt>
      <trkpt lat="44.71368617378175258636474609375" lon="6.744213402271270751953125">
        <ele>1296.4000244140625</ele>
        <time>2026-09-03T05:56:45.000Z</time>
        <extensions>
          <ns3:TrackPointExtension>
            <ns3:hr>84</ns3:hr>
            <ns3:cad>69</ns3:cad>
          </ns3:TrackPointExtension>
        </extensions>
      </trkpt>
      <trkpt lat="44.71368717961013317108154296875" lon="6.74422304145991802215576171875">
        <ele>1296</ele>
        <time>2026-09-03T05:56:46.000Z</time>
        <extensions>
          <ns3:TrackPointExtension>
            <ns3:hr>84</ns3:hr>
            <ns3:cad>69</ns3:cad>
          </ns3:TrackPointExtension>
        </extensions>
      </trkpt>
      <trkpt lat="44.71368751488626003265380859375" lon="6.74423343501985073089599609375">
        <ele>1295.5999755859375</ele>
        <time>2026-09-03T05:56:47.000Z</time>
        <extensions>
          <ns3:TrackPointExtension>
            <ns3:hr>84</ns3:hr>
            <ns3:cad>69</ns3:cad>
          </ns3:TrackPointExtension>
        </extensions>
      </trkpt>
      <trkpt lat="44.71368785016238689422607421875" lon="6.7442522943019866943359375">
        <ele>1295.4000244140625</ele>
        <time>2026-09-03T05:56:48.000Z</time>
        <extensions>
          <ns3:TrackPointExtension>
            <ns3:hr>84</ns3:hr>
            <ns3:cad>69</ns3:cad>
          </ns3:TrackPointExtension>
        </extensions>
      </trkpt>
      <trkpt lat="44.7136934660375118255615234375" lon="6.744272410869598388671875">
        <ele>1295</ele>
        <time>2026-09-03T05:56:49.000Z</time>
        <extensions>
          <ns3:TrackPointExtension>
            <ns3:hr>84</ns3:hr>
            <ns3:cad>69</ns3:cad>
          </ns3:TrackPointExtension>
        </extensions>
      </trkpt>
      <trkpt lat="44.71369002945721149444580078125" lon="6.7442839778959751129150390625">
        <ele>1294.800048828125</ele>
        <time>2026-09-03T05:56:50.000Z</time>
        <extensions>
          <ns3:TrackPointExtension>
            <ns3:hr>84</ns3:hr>
            <ns3:cad>69</ns3:cad>
          </ns3:TrackPointExtension>
        </extensions>
      </trkpt>
      <trkpt lat="44.71368365921080112457275390625" lon="6.7442806251347064971923828125">
        <ele>1294.4000244140625</ele>
        <time>2026-09-03T05:56:51.000Z</time>
        <extensions>
          <ns3:TrackPointExtension>
            <ns3:hr>84</ns3:hr>
            <ns3:cad>74</ns3:cad>
          </ns3:TrackPointExtension>
        </extensions>
      </trkpt>
      <trkpt lat="44.71367795951664447784423828125" lon="6.74427400343120098114013671875">
        <ele>1294.199951171875</ele>
        <time>2026-09-03T05:56:52.000Z</time>
        <extensions>
          <ns3:TrackPointExtension>
            <ns3:hr>84</ns3:hr>
            <ns3:cad>75</ns3:cad>
          </ns3:TrackPointExtension>
        </extensions>
      </trkpt>
      <trkpt lat="44.71366873942315578460693359375" lon="6.74426369369029998779296875">
        <ele>1294</ele>
        <time>2026-09-03T05:56:53.000Z</time>
        <extensions>
          <ns3:TrackPointExtension>
            <ns3:hr>85</ns3:hr>
            <ns3:cad>76</ns3:cad>
          </ns3:TrackPointExtension>
        </extensions>
      </trkpt>
      <trkpt lat="44.713661111891269683837890625" lon="6.74425690434873104095458984375">
        <ele>1293.5999755859375</ele>
        <time>2026-09-03T05:56:54.000Z</time>
        <extensions>
          <ns3:TrackPointExtension>
            <ns3:hr>85</ns3:hr>
            <ns3:cad>76</ns3:cad>
          </ns3:TrackPointExtension>
        </extensions>
      </trkpt>
      <trkpt lat="44.713648371398448944091796875" lon="6.7442444153130054473876953125">
        <ele>1293.199951171875</ele>
        <time>2026-09-03T05:56:55.000Z</time>
        <extensions>
          <ns3:TrackPointExtension>
            <ns3:hr>85</ns3:hr>
            <ns3:cad>76</ns3:cad>
          </ns3:TrackPointExtension>
        </extensions>
      </trkpt>
      <trkpt lat="44.71364141441881656646728515625" lon="6.744234859943389892578125">
        <ele>1293</ele>
        <time>2026-09-03T05:56:56.000Z</time>
        <extensions>
          <ns3:TrackPointExtension>
            <ns3:hr>85</ns3:hr>
            <ns3:cad>76</ns3:cad>
          </ns3:TrackPointExtension>
        </extensions>
      </trkpt>
      <trkpt lat="44.713635630905628204345703125" lon="6.7442303337156772613525390625">
        <ele>1292.5999755859375</ele>
        <time>2026-09-03T05:56:57.000Z</time>
        <extensions>
          <ns3:TrackPointExtension>
            <ns3:hr>86</ns3:hr>
            <ns3:cad>76</ns3:cad>
          </ns3:TrackPointExtension>
        </extensions>
      </trkpt>
      <trkpt lat="44.7136287577450275421142578125" lon="6.7442227900028228759765625">
        <ele>1292.199951171875</ele>
        <time>2026-09-03T05:56:58.000Z</time>
        <extensions>
          <ns3:TrackPointExtension>
            <ns3:hr>86</ns3:hr>
            <ns3:cad>76</ns3:cad>
          </ns3:TrackPointExtension>
        </extensions>
      </trkpt>
      <trkpt lat="44.713624902069568634033203125" lon="6.74422438256442546844482421875">
        <ele>1292</ele>
        <time>2026-09-03T05:56:59.000Z</time>
        <extensions>
          <ns3:TrackPointExtension>
            <ns3:hr>86</ns3:hr>
            <ns3:cad>76</ns3:cad>
          </ns3:TrackPointExtension>
        </extensions>
      </trkpt>
      <trkpt lat="44.71360771916806697845458984375" lon="6.74421583302319049835205078125">
        <ele>1291.5999755859375</ele>
        <time>2026-09-03T05:57:00.000Z</time>
        <extensions>
          <ns3:TrackPointExtension>
            <ns3:hr>86</ns3:hr>
            <ns3:cad>76</ns3:cad>
          </ns3:TrackPointExtension>
        </extensions>
      </trkpt>
      <trkpt lat="44.71359715797007083892822265625" lon="6.7442001588642597198486328125">
        <ele>1291.4000244140625</ele>
        <time>2026-09-03T05:57:01.000Z</time>
        <extensions>
          <ns3:TrackPointExtension>
            <ns3:hr>86</ns3:hr>
            <ns3:cad>76</ns3:cad>
          </ns3:TrackPointExtension>
        </extensions>
      </trkpt>
      <trkpt lat="44.71359179355204105377197265625" lon="6.7441877536475658416748046875">
        <ele>1291</ele>
        <time>2026-09-03T05:57:02.000Z</time>
        <extensions>
          <ns3:TrackPointExtension>
            <ns3:hr>86</ns3:hr>
            <ns3:cad>76</ns3:cad>
          </ns3:TrackPointExtension>
        </extensions>
      </trkpt>
      <trkpt lat="44.71358877606689929962158203125" lon="6.7441713251173496246337890625">
        <ele>1290.800048828125</ele>
        <time>2026-09-03T05:57:03.000Z</time>
        <extensions>
          <ns3:TrackPointExtension>
            <ns3:hr>86</ns3:hr>
            <ns3:cad>76</ns3:cad>
          </ns3:TrackPointExtension>
        </extensions>
      </trkpt>
      <trkpt lat="44.7135868482291698455810546875" lon="6.7441584169864654541015625">
        <ele>1290.4000244140625</ele>
        <time>2026-09-03T05:57:04.000Z</time>
        <extensions>
          <ns3:TrackPointExtension>
            <ns3:hr>86</ns3:hr>
            <ns3:cad>76</ns3:cad>
          </ns3:TrackPointExtension>
        </extensions>
      </trkpt>
      <trkpt lat="44.71358374692499637603759765625" lon="6.74414441920816898345947265625">
        <ele>1290.199951171875</ele>
        <time>2026-09-03T05:57:05.000Z</time>
        <extensions>
          <ns3:TrackPointExtension>
            <ns3:hr>87</ns3:hr>
            <ns3:cad>76</ns3:cad>
          </ns3:TrackPointExtension>
        </extensions>
      </trkpt>
      <trkpt lat="44.7135794721543788909912109375" lon="6.744135282933712005615234375">
        <ele>1290.199951171875</ele>
        <time>2026-09-03T05:57:06.000Z</time>
        <extensions>
          <ns3:TrackPointExtension>
            <ns3:hr>87</ns3:hr>
            <ns3:cad>76</ns3:cad>
          </ns3:TrackPointExtension>
        </extensions>
      </trkpt>
      <trkpt lat="44.7135747782886028289794921875" lon="6.74413100816309452056884765625">
        <ele>1290</ele>
        <time>2026-09-03T05:57:07.000Z</time>
        <extensions>
          <ns3:TrackPointExtension>
            <ns3:hr>87</ns3:hr>
            <ns3:cad>76</ns3:cad>
          </ns3:TrackPointExtension>
        </extensions>
      </trkpt>
      <trkpt lat="44.71356782130897045135498046875" lon="6.7441331036388874053955078125">
        <ele>1289.800048828125</ele>
        <time>2026-09-03T05:57:08.000Z</time>
        <extensions>
          <ns3:TrackPointExtension>
            <ns3:hr>88</ns3:hr>
            <ns3:cad>76</ns3:cad>
          </ns3:TrackPointExtension>
        </extensions>
      </trkpt>
      <trkpt lat="44.7135637141764163970947265625" lon="6.74412866123020648956298828125">
        <ele>1289.5999755859375</ele>
        <time>2026-09-03T05:57:09.000Z</time>
        <extensions>
          <ns3:TrackPointExtension>
            <ns3:hr>88</ns3:hr>
            <ns3:cad>76</ns3:cad>
          </ns3:TrackPointExtension>
        </extensions>
      </trkpt>
      <trkpt lat="44.71355960704386234283447265625" lon="6.744132936000823974609375">
        <ele>1289.199951171875</ele>
        <time>2026-09-03T05:57:10.000Z</time>
        <extensions>
          <ns3:TrackPointExtension>
            <ns3:hr>88</ns3:hr>
            <ns3:cad>79</ns3:cad>
          </ns3:TrackPointExtension>
        </extensions>
      </trkpt>
      <trkpt lat="44.7135529853403568267822265625" lon="6.7441438324749469757080078125">
        <ele>1289</ele>
        <time>2026-09-03T05:57:11.000Z</time>
        <extensions>
          <ns3:TrackPointExtension>
            <ns3:hr>88</ns3:hr>
            <ns3:cad>79</ns3:cad>
          </ns3:TrackPointExtension>
        </extensions>
      </trkpt>
      <trkpt lat="44.71354535780847072601318359375" lon="6.74414123408496379852294921875">
        <ele>1288.5999755859375</ele>
        <time>2026-09-03T05:57:12.000Z</time>
        <extensions>
          <ns3:TrackPointExtension>
            <ns3:hr>88</ns3:hr>
            <ns3:cad>0</ns3:cad>
          </ns3:TrackPointExtension>
        </extensions>
      </trkpt>
      <trkpt lat="44.71354208886623382568359375" lon="6.74412958323955535888671875">
        <ele>1288.4000244140625</ele>
        <time>2026-09-03T05:57:13.000Z</time>
        <extensions>
          <ns3:TrackPointExtension>
            <ns3:hr>88</ns3:hr>
            <ns3:cad>0</ns3:cad>
          </ns3:TrackPointExtension>
        </extensions>
      </trkpt>
      <trkpt lat="44.7135335393249988555908203125" lon="6.74410653300583362579345703125">
        <ele>1288.199951171875</ele>
        <time>2026-09-03T05:57:14.000Z</time>
        <extensions>
          <ns3:TrackPointExtension>
            <ns3:hr>89</ns3:hr>
            <ns3:cad>0</ns3:cad>
          </ns3:TrackPointExtension>
        </extensions>
      </trkpt>
      <trkpt lat="44.713529013097286224365234375" lon="6.7440908588469028472900390625">
        <ele>1287.800048828125</ele>
        <time>2026-09-03T05:57:15.000Z</time>
        <extensions>
          <ns3:TrackPointExtension>
            <ns3:hr>88</ns3:hr>
            <ns3:cad>78</ns3:cad>
          </ns3:TrackPointExtension>
        </extensions>
      </trkpt>
      <trkpt lat="44.7135258279740810394287109375" lon="6.7440791241824626922607421875">
        <ele>1287.5999755859375</ele>
        <time>2026-09-03T05:57:16.000Z</time>
        <extensions>
          <ns3:TrackPointExtension>
            <ns3:hr>87</ns3:hr>
            <ns3:cad>79</ns3:cad>
          </ns3:TrackPointExtension>
        </extensions>
      </trkpt>
      <trkpt lat="44.71352775581181049346923828125" lon="6.7440710775554180145263671875">
        <ele>1287.4000244140625</ele>
        <time>2026-09-03T05:57:17.000Z</time>
        <extensions>
          <ns3:TrackPointExtension>
            <ns3:hr>87</ns3:hr>
            <ns3:cad>79</ns3:cad>
          </ns3:TrackPointExtension>
        </extensions>
      </trkpt>
      <trkpt lat="44.7135308571159839630126953125" lon="6.7440700717270374298095703125">
        <ele>1287</ele>
        <time>2026-09-03T05:57:18.000Z</time>
        <extensions>
          <ns3:TrackPointExtension>
            <ns3:hr>86</ns3:hr>
            <ns3:cad>79</ns3:cad>
          </ns3:TrackPointExtension>
        </extensions>
      </trkpt>
      <trkpt lat="44.71352733671665191650390625" lon="6.744068562984466552734375">
        <ele>1286.5999755859375</ele>
        <time>2026-09-03T05:57:19.000Z</time>
        <extensions>
          <ns3:TrackPointExtension>
            <ns3:hr>86</ns3:hr>
            <ns3:cad>79</ns3:cad>
          </ns3:TrackPointExtension>
        </extensions>
      </trkpt>
      <trkpt lat="44.71352021209895610809326171875" lon="6.7440650425851345062255859375">
        <ele>1286.4000244140625</ele>
        <time>2026-09-03T05:57:20.000Z</time>
        <extensions>
          <ns3:TrackPointExtension>
            <ns3:hr>86</ns3:hr>
            <ns3:cad>79</ns3:cad>
          </ns3:TrackPointExtension>
        </extensions>
      </trkpt>
      <trkpt lat="44.71351400949060916900634765625" lon="6.744076944887638092041015625">
        <ele>1286</ele>
        <time>2026-09-03T05:57:21.000Z</time>
        <extensions>
          <ns3:TrackPointExtension>
            <ns3:hr>86</ns3:hr>
            <ns3:cad>79</ns3:cad>
          </ns3:TrackPointExtension>
        </extensions>
      </trkpt>
      <trkpt lat="44.7135145962238311767578125" lon="6.74408306367695331573486328125">
        <ele>1285.5999755859375</ele>
        <time>2026-09-03T05:57:22.000Z</time>
        <extensions>
          <ns3:TrackPointExtension>
            <ns3:hr>86</ns3:hr>
            <ns3:cad>79</ns3:cad>
          </ns3:TrackPointExtension>
        </extensions>
      </trkpt>
      <trkpt lat="44.7135191224515438079833984375" lon="6.74408457241952419281005859375">
        <ele>1285.199951171875</ele>
        <time>2026-09-03T05:57:23.000Z</time>
        <extensions>
          <ns3:TrackPointExtension>
            <ns3:hr>86</ns3:hr>
            <ns3:cad>62</ns3:cad>
          </ns3:TrackPointExtension>
        </extensions>
      </trkpt>
      <trkpt lat="44.71351635642349720001220703125" lon="6.74408532679080963134765625">
        <ele>1284.800048828125</ele>
        <time>2026-09-03T05:57:24.000Z</time>
        <extensions>
          <ns3:TrackPointExtension>
            <ns3:hr>86</ns3:hr>
            <ns3:cad>0</ns3:cad>
          </ns3:TrackPointExtension>
        </extensions>
      </trkpt>
      <trkpt lat="44.71351266838610172271728515625" lon="6.74408624880015850067138671875">
        <ele>1284.5999755859375</ele>
        <time>2026-09-03T05:57:25.000Z</time>
        <extensions>
          <ns3:TrackPointExtension>
            <ns3:hr>87</ns3:hr>
            <ns3:cad>0</ns3:cad>
          </ns3:TrackPointExtension>
        </extensions>
      </trkpt>
      <trkpt lat="44.7135107405483722686767578125" lon="6.74406479112803936004638671875">
        <ele>1284.4000244140625</ele>
        <time>2026-09-03T05:57:26.000Z</time>
        <extensions>
          <ns3:TrackPointExtension>
            <ns3:hr>87</ns3:hr>
            <ns3:cad>0</ns3:cad>
          </ns3:TrackPointExtension>
        </extensions>
      </trkpt>
      <trkpt lat="44.713506214320659637451171875" lon="6.74405355937778949737548828125">
        <ele>1284.4000244140625</ele>
        <time>2026-09-03T05:57:27.000Z</time>
        <extensions>
          <ns3:TrackPointExtension>
            <ns3:hr>87</ns3:hr>
            <ns3:cad>0</ns3:cad>
          </ns3:TrackPointExtension>
        </extensions>
      </trkpt>
      <trkpt lat="44.71350261010229587554931640625" lon="6.7440429143607616424560546875">
        <ele>1284.199951171875</ele>
        <time>2026-09-03T05:57:28.000Z</time>
        <extensions>
          <ns3:TrackPointExtension>
            <ns3:hr>88</ns3:hr>
            <ns3:cad>0</ns3:cad>
          </ns3:TrackPointExtension>
        </extensions>
      </trkpt>
      <trkpt lat="44.71349515020847320556640625" lon="6.74403009004890918731689453125">
        <ele>1284</ele>
        <time>2026-09-03T05:57:29.000Z</time>
        <extensions>
          <ns3:TrackPointExtension>
            <ns3:hr>88</ns3:hr>
            <ns3:cad>0</ns3:cad>
          </ns3:TrackPointExtension>
        </extensions>
      </trkpt>
      <trkpt lat="44.71348710358142852783203125" lon="6.74401424825191497802734375">
        <ele>1283.800048828125</ele>
        <time>2026-09-03T05:57:30.000Z</time>
        <extensions>
          <ns3:TrackPointExtension>
            <ns3:hr>88</ns3:hr>
            <ns3:cad>0</ns3:cad>
          </ns3:TrackPointExtension>
        </extensions>
      </trkpt>
      <trkpt lat="44.71347981132566928863525390625" lon="6.743999160826206207275390625">
        <ele>1283.5999755859375</ele>
        <time>2026-09-03T05:57:31.000Z</time>
        <extensions>
          <ns3:TrackPointExtension>
            <ns3:hr>88</ns3:hr>
            <ns3:cad>0</ns3:cad>
          </ns3:TrackPointExtension>
        </extensions>
      </trkpt>
      <trkpt lat="44.7134765423834323883056640625" lon="6.7439839057624340057373046875">
        <ele>1283.199951171875</ele>
        <time>2026-09-03T05:57:32.000Z</time>
        <extensions>
          <ns3:TrackPointExtension>
            <ns3:hr>88</ns3:hr>
            <ns3:cad>0</ns3:cad>
          </ns3:TrackPointExtension>
        </extensions>
      </trkpt>
      <trkpt lat="44.7134678252041339874267578125" lon="6.7439731769263744354248046875">
        <ele>1282.800048828125</ele>
        <time>2026-09-03T05:57:33.000Z</time>
        <extensions>
          <ns3:TrackPointExtension>
            <ns3:hr>89</ns3:hr>
            <ns3:cad>0</ns3:cad>
          </ns3:TrackPointExtension>
        </extensions>
      </trkpt>
      <trkpt lat="44.71346120350062847137451171875" lon="6.743981055915355682373046875">
        <ele>1282.5999755859375</ele>
        <time>2026-09-03T05:57:34.000Z</time>
        <extensions>
          <ns3:TrackPointExtension>
            <ns3:hr>89</ns3:hr>
            <ns3:cad>0</ns3:cad>
          </ns3:TrackPointExtension>
        </extensions>
      </trkpt>
      <trkpt lat="44.71346170641481876373291015625" lon="6.74398566596210002899169921875">
        <ele>1282.199951171875</ele>
        <time>2026-09-03T05:57:35.000Z</time>
        <extensions>
          <ns3:TrackPointExtension>
            <ns3:hr>89</ns3:hr>
            <ns3:cad>0</ns3:cad>
          </ns3:TrackPointExtension>
        </extensions>
      </trkpt>
      <trkpt lat="44.71345902420580387115478515625" lon="6.7440010048449039459228515625">
        <ele>1281.800048828125</ele>
        <time>2026-09-03T05:57:36.000Z</time>
        <extensions>
          <ns3:TrackPointExtension>
            <ns3:hr>89</ns3:hr>
            <ns3:cad>0</ns3:cad>
          </ns3:TrackPointExtension>
        </extensions>
      </trkpt>
      <trkpt lat="44.71345885656774044036865234375" lon="6.7440117336809635162353515625">
        <ele>1281.4000244140625</ele>
        <time>2026-09-03T05:57:37.000Z</time>
        <extensions>
          <ns3:TrackPointExtension>
            <ns3:hr>89</ns3:hr>
            <ns3:cad>0</ns3:cad>
          </ns3:TrackPointExtension>
        </extensions>
      </trkpt>
      <trkpt lat="44.71345449797809123992919921875" lon="6.7440295033156871795654296875">
        <ele>1280.800048828125</ele>
        <time>2026-09-03T05:57:38.000Z</time>
        <extensions>
          <ns3:TrackPointExtension>
            <ns3:hr>90</ns3:hr>
            <ns3:cad>0</ns3:cad>
          </ns3:TrackPointExtension>
        </extensions>
      </trkpt>
      <trkpt lat="44.71345399506390094757080078125" lon="6.74404241144657135009765625">
        <ele>1280.4000244140625</ele>
        <time>2026-09-03T05:57:39.000Z</time>
        <extensions>
          <ns3:TrackPointExtension>
            <ns3:hr>90</ns3:hr>
            <ns3:cad>0</ns3:cad>
          </ns3:TrackPointExtension>
        </extensions>
      </trkpt>
      <trkpt lat="44.71345667727291584014892578125" lon="6.74405372701585292816162109375">
        <ele>1280</ele>
        <time>2026-09-03T05:57:40.000Z</time>
        <extensions>
          <ns3:TrackPointExtension>
            <ns3:hr>91</ns3:hr>
            <ns3:cad>0</ns3:cad>
          </ns3:TrackPointExtension>
        </extensions>
      </trkpt>
      <trkpt lat="44.71345483325421810150146484375" lon="6.744066886603832244873046875">
        <ele>1279.5999755859375</ele>
        <time>2026-09-03T05:57:41.000Z</time>
        <extensions>
          <ns3:TrackPointExtension>
            <ns3:hr>91</ns3:hr>
            <ns3:cad>0</ns3:cad>
          </ns3:TrackPointExtension>
        </extensions>
      </trkpt>
      <trkpt lat="44.71345231868326663970947265625" lon="6.74408339895308017730712890625">
        <ele>1279.4000244140625</ele>
        <time>2026-09-03T05:57:42.000Z</time>
        <extensions>
          <ns3:TrackPointExtension>
            <ns3:hr>91</ns3:hr>
            <ns3:cad>0</ns3:cad>
          </ns3:TrackPointExtension>
        </extensions>
      </trkpt>
      <trkpt lat="44.71344980411231517791748046875" lon="6.7440948821604251861572265625">
        <ele>1279</ele>
        <time>2026-09-03T05:57:43.000Z</time>
        <extensions>
          <ns3:TrackPointExtension>
            <ns3:hr>92</ns3:hr>
            <ns3:cad>0</ns3:cad>
          </ns3:TrackPointExtension>
        </extensions>
      </trkpt>
      <trkpt lat="44.713439159095287322998046875" lon="6.744105108082294464111328125">
        <ele>1278.5999755859375</ele>
        <time>2026-09-03T05:57:44.000Z</time>
        <extensions>
          <ns3:TrackPointExtension>
            <ns3:hr>93</ns3:hr>
            <ns3:cad>78</ns3:cad>
          </ns3:TrackPointExtension>
        </extensions>
      </trkpt>
      <trkpt lat="44.71343304030597209930419921875" lon="6.74411374144256114959716796875">
        <ele>1278.199951171875</ele>
        <time>2026-09-03T05:57:45.000Z</time>
        <extensions>
          <ns3:TrackPointExtension>
            <ns3:hr>93</ns3:hr>
            <ns3:cad>78</ns3:cad>
          </ns3:TrackPointExtension>
        </extensions>
      </trkpt>
      <trkpt lat="44.71342801116406917572021484375" lon="6.74410921521484851837158203125">
        <ele>1277.800048828125</ele>
        <time>2026-09-03T05:57:46.000Z</time>
        <extensions>
          <ns3:TrackPointExtension>
            <ns3:hr>93</ns3:hr>
            <ns3:cad>69</ns3:cad>
          </ns3:TrackPointExtension>
        </extensions>
      </trkpt>
      <trkpt lat="44.71342365257441997528076171875" lon="6.74410167150199413299560546875">
        <ele>1277.5999755859375</ele>
        <time>2026-09-03T05:57:47.000Z</time>
        <extensions>
          <ns3:TrackPointExtension>
            <ns3:hr>93</ns3:hr>
            <ns3:cad>69</ns3:cad>
          </ns3:TrackPointExtension>
        </extensions>
      </trkpt>
      <trkpt lat="44.7134202159941196441650390625" lon="6.74409429542720317840576171875">
        <ele>1277.199951171875</ele>
        <time>2026-09-03T05:57:48.000Z</time>
        <extensions>
          <ns3:TrackPointExtension>
            <ns3:hr>93</ns3:hr>
            <ns3:cad>69</ns3:cad>
          </ns3:TrackPointExtension>
        </extensions>
      </trkpt>
      <trkpt lat="44.7134111635386943817138671875" lon="6.74407987855374813079833984375">
        <ele>1277</ele>
        <time>2026-09-03T05:57:49.000Z</time>
        <extensions>
          <ns3:TrackPointExtension>
            <ns3:hr>92</ns3:hr>
            <ns3:cad>69</ns3:cad>
          </ns3:TrackPointExtension>
        </extensions>
      </trkpt>
      <trkpt lat="44.7133997641503810882568359375" lon="6.74406680278480052947998046875">
        <ele>1276.5999755859375</ele>
        <time>2026-09-03T05:57:50.000Z</time>
        <extensions>
          <ns3:TrackPointExtension>
            <ns3:hr>91</ns3:hr>
            <ns3:cad>69</ns3:cad>
          </ns3:TrackPointExtension>
        </extensions>
      </trkpt>
      <trkpt lat="44.71338543109595775604248046875" lon="6.74403947778046131134033203125">
        <ele>1276.199951171875</ele>
        <time>2026-09-03T05:57:51.000Z</time>
        <extensions>
          <ns3:TrackPointExtension>
            <ns3:hr>90</ns3:hr>
            <ns3:cad>69</ns3:cad>
          </ns3:TrackPointExtension>
        </extensions>
      </trkpt>
      <trkpt lat="44.71337604336440563201904296875" lon="6.744026653468608856201171875">
        <ele>1276</ele>
        <time>2026-09-03T05:57:52.000Z</time>
        <extensions>
          <ns3:TrackPointExtension>
            <ns3:hr>90</ns3:hr>
            <ns3:cad>69</ns3:cad>
          </ns3:TrackPointExtension>
        </extensions>
      </trkpt>
      <trkpt lat="44.71337202005088329315185546875" lon="6.74402154050767421722412109375">
        <ele>1275.5999755859375</ele>
        <time>2026-09-03T05:57:53.000Z</time>
        <extensions>
          <ns3:TrackPointExtension>
            <ns3:hr>89</ns3:hr>
            <ns3:cad>74</ns3:cad>
          </ns3:TrackPointExtension>
        </extensions>
      </trkpt>
      <trkpt lat="44.713364727795124053955078125" lon="6.74401156604290008544921875">
        <ele>1275.199951171875</ele>
        <time>2026-09-03T05:57:54.000Z</time>
        <extensions>
          <ns3:TrackPointExtension>
            <ns3:hr>89</ns3:hr>
            <ns3:cad>74</ns3:cad>
          </ns3:TrackPointExtension>
        </extensions>
      </trkpt>
      <trkpt lat="44.71336263231933116912841796875" lon="6.74400427378714084625244140625">
        <ele>1274.800048828125</ele>
        <time>2026-09-03T05:57:55.000Z</time>
        <extensions>
          <ns3:TrackPointExtension>
            <ns3:hr>88</ns3:hr>
            <ns3:cad>74</ns3:cad>
          </ns3:TrackPointExtension>
        </extensions>
      </trkpt>
      <trkpt lat="44.71336212940514087677001953125" lon="6.743998825550079345703125">
        <ele>1274.5999755859375</ele>
        <time>2026-09-03T05:57:56.000Z</time>
        <extensions>
          <ns3:TrackPointExtension>
            <ns3:hr>88</ns3:hr>
            <ns3:cad>74</ns3:cad>
          </ns3:TrackPointExtension>
        </extensions>
      </trkpt>
      <trkpt lat="44.7133581899106502532958984375" lon="6.74399488605558872222900390625">
        <ele>1274.199951171875</ele>
        <time>2026-09-03T05:57:57.000Z</time>
        <extensions>
          <ns3:TrackPointExtension>
            <ns3:hr>87</ns3:hr>
            <ns3:cad>74</ns3:cad>
          </ns3:TrackPointExtension>
        </extensions>
      </trkpt>
      <trkpt lat="44.713356010615825653076171875" lon="6.74398382194340229034423828125">
        <ele>1274</ele>
        <time>2026-09-03T05:57:58.000Z</time>
        <extensions>
          <ns3:TrackPointExtension>
            <ns3:hr>87</ns3:hr>
            <ns3:cad>0</ns3:cad>
          </ns3:TrackPointExtension>
        </extensions>
      </trkpt>
      <trkpt lat="44.713350646197795867919921875" lon="6.743962280452251434326171875">
        <ele>1273.5999755859375</ele>
        <time>2026-09-03T05:57:59.000Z</time>
        <extensions>
          <ns3:TrackPointExtension>
            <ns3:hr>86</ns3:hr>
            <ns3:cad>0</ns3:cad>
          </ns3:TrackPointExtension>
        </extensions>
      </trkpt>
      <trkpt lat="44.7133424319326877593994140625" lon="6.74394182860851287841796875">
        <ele>1273.199951171875</ele>
        <time>2026-09-03T05:58:00.000Z</time>
        <extensions>
          <ns3:TrackPointExtension>
            <ns3:hr>85</ns3:hr>
            <ns3:cad>0</ns3:cad>
          </ns3:TrackPointExtension>
        </extensions>
      </trkpt>
      <trkpt lat="44.7133343853056430816650390625" lon="6.74392129294574260711669921875">
        <ele>1272.800048828125</ele>
        <time>2026-09-03T05:58:01.000Z</time>
        <extensions>
          <ns3:TrackPointExtension>
            <ns3:hr>85</ns3:hr>
            <ns3:cad>0</ns3:cad>
          </ns3:TrackPointExtension>
        </extensions>
      </trkpt>
      <trkpt lat="44.7133256681263446807861328125" lon="6.7438980750739574432373046875">
        <ele>1272.4000244140625</ele>
        <time>2026-09-03T05:58:02.000Z</time>
        <extensions>
          <ns3:TrackPointExtension>
            <ns3:hr>85</ns3:hr>
            <ns3:cad>0</ns3:cad>
          </ns3:TrackPointExtension>
        </extensions>
      </trkpt>
      <trkpt lat="44.71332021988928318023681640625" lon="6.74388550221920013427734375">
        <ele>1272</ele>
        <time>2026-09-03T05:58:03.000Z</time>
        <extensions>
          <ns3:TrackPointExtension>
            <ns3:hr>85</ns3:hr>
            <ns3:cad>0</ns3:cad>
          </ns3:TrackPointExtension>
        </extensions>
      </trkpt>
      <trkpt lat="44.713317789137363433837890625" lon="6.74387904815375804901123046875">
        <ele>1271.5999755859375</ele>
        <time>2026-09-03T05:58:04.000Z</time>
        <extensions>
          <ns3:TrackPointExtension>
            <ns3:hr>84</ns3:hr>
            <ns3:cad>0</ns3:cad>
          </ns3:TrackPointExtension>
        </extensions>
      </trkpt>
      <trkpt lat="44.713312089443206787109375" lon="6.74387745559215545654296875">
        <ele>1271.4000244140625</ele>
        <time>2026-09-03T05:58:05.000Z</time>
        <extensions>
          <ns3:TrackPointExtension>
            <ns3:hr>84</ns3:hr>
            <ns3:cad>0</ns3:cad>
          </ns3:TrackPointExtension>
        </extensions>
      </trkpt>
      <trkpt lat="44.71330203115940093994140625" lon="6.7438943870365619659423828125">
        <ele>1271</ele>
        <time>2026-09-03T05:58:06.000Z</time>
        <extensions>
          <ns3:TrackPointExtension>
            <ns3:hr>84</ns3:hr>
            <ns3:cad>0</ns3:cad>
          </ns3:TrackPointExtension>
        </extensions>
      </trkpt>
      <trkpt lat="44.7133055515587329864501953125" lon="6.74390117637813091278076171875">
        <ele>1270.800048828125</ele>
        <time>2026-09-03T05:58:07.000Z</time>
        <extensions>
          <ns3:TrackPointExtension>
            <ns3:hr>85</ns3:hr>
            <ns3:cad>0</ns3:cad>
          </ns3:TrackPointExtension>
        </extensions>
      </trkpt>
      <trkpt lat="44.71330630593001842498779296875" lon="6.743918024003505706787109375">
        <ele>1270.4000244140625</ele>
        <time>2026-09-03T05:58:08.000Z</time>
        <extensions>
          <ns3:TrackPointExtension>
            <ns3:hr>85</ns3:hr>
            <ns3:cad>0</ns3:cad>
          </ns3:TrackPointExtension>
        </extensions>
      </trkpt>
      <trkpt lat="44.7133048810064792633056640625" lon="6.7439250648021697998046875">
        <ele>1270</ele>
        <time>2026-09-03T05:58:09.000Z</time>
        <extensions>
          <ns3:TrackPointExtension>
            <ns3:hr>85</ns3:hr>
            <ns3:cad>0</ns3:cad>
          </ns3:TrackPointExtension>
        </extensions>
      </trkpt>
      <trkpt lat="44.71330077387392520904541015625" lon="6.7439319379627704620361328125">
        <ele>1269.800048828125</ele>
        <time>2026-09-03T05:58:10.000Z</time>
        <extensions>
          <ns3:TrackPointExtension>
            <ns3:hr>84</ns3:hr>
            <ns3:cad>0</ns3:cad>
          </ns3:TrackPointExtension>
        </extensions>
      </trkpt>
      <trkpt lat="44.71329071559011936187744140625" lon="6.74394912086427211761474609375">
        <ele>1269.4000244140625</ele>
        <time>2026-09-03T05:58:11.000Z</time>
        <extensions>
          <ns3:TrackPointExtension>
            <ns3:hr>85</ns3:hr>
            <ns3:cad>0</ns3:cad>
          </ns3:TrackPointExtension>
        </extensions>
      </trkpt>
      <trkpt lat="44.71328602172434329986572265625" lon="6.74395699985325336456298828125">
        <ele>1269</ele>
        <time>2026-09-03T05:58:12.000Z</time>
        <extensions>
          <ns3:TrackPointExtension>
            <ns3:hr>85</ns3:hr>
            <ns3:cad>0</ns3:cad>
          </ns3:TrackPointExtension>
        </extensions>
      </trkpt>
      <trkpt lat="44.71327864564955234527587890625" lon="6.74397091381251811981201171875">
        <ele>1268.5999755859375</ele>
        <time>2026-09-03T05:58:13.000Z</time>
        <extensions>
          <ns3:TrackPointExtension>
            <ns3:hr>84</ns3:hr>
            <ns3:cad>0</ns3:cad>
          </ns3:TrackPointExtension>
        </extensions>
      </trkpt>
      <trkpt lat="44.71328283660113811492919921875" lon="6.74397828988730907440185546875">
        <ele>1268.4000244140625</ele>
        <time>2026-09-03T05:58:14.000Z</time>
        <extensions>
          <ns3:TrackPointExtension>
            <ns3:hr>85</ns3:hr>
            <ns3:cad>0</ns3:cad>
          </ns3:TrackPointExtension>
        </extensions>
      </trkpt>
      <trkpt lat="44.713280238211154937744140625" lon="6.7440036870539188385009765625">
        <ele>1268</ele>
        <time>2026-09-03T05:58:15.000Z</time>
        <extensions>
          <ns3:TrackPointExtension>
            <ns3:hr>85</ns3:hr>
            <ns3:cad>73</ns3:cad>
          </ns3:TrackPointExtension>
        </extensions>
      </trkpt>
      <trkpt lat="44.71327713690698146820068359375" lon="6.74402204342186450958251953125">
        <ele>1267.5999755859375</ele>
        <time>2026-09-03T05:58:16.000Z</time>
        <extensions>
          <ns3:TrackPointExtension>
            <ns3:hr>84</ns3:hr>
            <ns3:cad>73</ns3:cad>
          </ns3:TrackPointExtension>
        </extensions>
      </trkpt>
      <trkpt lat="44.7132716886699199676513671875" lon="6.744042746722698211669921875">
        <ele>1267.199951171875</ele>
        <time>2026-09-03T05:58:17.000Z</time>
        <extensions>
          <ns3:TrackPointExtension>
            <ns3:hr>85</ns3:hr>
            <ns3:cad>73</ns3:cad>
          </ns3:TrackPointExtension>
        </extensions>
      </trkpt>
      <trkpt lat="44.713266156613826751708984375" lon="6.744047440588474273681640625">
        <ele>1266.800048828125</ele>
        <time>2026-09-03T05:58:18.000Z</time>
        <extensions>
          <ns3:TrackPointExtension>
            <ns3:hr>85</ns3:hr>
            <ns3:cad>73</ns3:cad>
          </ns3:TrackPointExtension>
        </extensions>
      </trkpt>
      <trkpt lat="44.71326154656708240509033203125" lon="6.74406110309064388275146484375">
        <ele>1266.4000244140625</ele>
        <time>2026-09-03T05:58:19.000Z</time>
        <extensions>
          <ns3:TrackPointExtension>
            <ns3:hr>84</ns3:hr>
            <ns3:cad>73</ns3:cad>
          </ns3:TrackPointExtension>
        </extensions>
      </trkpt>
      <trkpt lat="44.71325886435806751251220703125" lon="6.74407367594540119171142578125">
        <ele>1266</ele>
        <time>2026-09-03T05:58:20.000Z</time>
        <extensions>
          <ns3:TrackPointExtension>
            <ns3:hr>84</ns3:hr>
            <ns3:cad>73</ns3:cad>
          </ns3:TrackPointExtension>
        </extensions>
      </trkpt>
      <trkpt lat="44.71326456405222415924072265625" lon="6.7440982349216938018798828125">
        <ele>1265.5999755859375</ele>
        <time>2026-09-03T05:58:21.000Z</time>
        <extensions>
          <ns3:TrackPointExtension>
            <ns3:hr>84</ns3:hr>
            <ns3:cad>73</ns3:cad>
          </ns3:TrackPointExtension>
        </extensions>
      </trkpt>
      <trkpt lat="44.71326607279479503631591796875" lon="6.7441146634519100189208984375">
        <ele>1265.199951171875</ele>
        <time>2026-09-03T05:58:22.000Z</time>
        <extensions>
          <ns3:TrackPointExtension>
            <ns3:hr>84</ns3:hr>
            <ns3:cad>86</ns3:cad>
          </ns3:TrackPointExtension>
        </extensions>
      </trkpt>
      <trkpt lat="44.71327277831733226776123046875" lon="6.74413385801017284393310546875">
        <ele>1264.800048828125</ele>
        <time>2026-09-03T05:58:23.000Z</time>
        <extensions>
          <ns3:TrackPointExtension>
            <ns3:hr>84</ns3:hr>
            <ns3:cad>86</ns3:cad>
          </ns3:TrackPointExtension>
        </extensions>
      </trkpt>
      <trkpt lat="44.71326204948127269744873046875" lon="6.7441478557884693145751953125">
        <ele>1264.4000244140625</ele>
        <time>2026-09-03T05:58:24.000Z</time>
        <extensions>
          <ns3:TrackPointExtension>
            <ns3:hr>84</ns3:hr>
            <ns3:cad>86</ns3:cad>
          </ns3:TrackPointExtension>
        </extensions>
      </trkpt>
      <trkpt lat="44.7132571041584014892578125" lon="6.74414190463721752166748046875">
        <ele>1264</ele>
        <time>2026-09-03T05:58:25.000Z</time>
        <extensions>
          <ns3:TrackPointExtension>
            <ns3:hr>84</ns3:hr>
            <ns3:cad>70</ns3:cad>
          </ns3:TrackPointExtension>
        </extensions>
      </trkpt>
      <trkpt lat="44.71325132064521312713623046875" lon="6.7441290803253650665283203125">
        <ele>1263.800048828125</ele>
        <time>2026-09-03T05:58:26.000Z</time>
        <extensions>
          <ns3:TrackPointExtension>
            <ns3:hr>83</ns3:hr>
            <ns3:cad>70</ns3:cad>
          </ns3:TrackPointExtension>
        </extensions>
      </trkpt>
      <trkpt lat="44.713244698941707611083984375" lon="6.7441186867654323577880859375">
        <ele>1263.5999755859375</ele>
        <time>2026-09-03T05:58:27.000Z</time>
        <extensions>
          <ns3:TrackPointExtension>
            <ns3:hr>83</ns3:hr>
            <ns3:cad>0</ns3:cad>
          </ns3:TrackPointExtension>
        </extensions>
      </trkpt>
      <trkpt lat="44.71323790960013866424560546875" lon="6.744099743664264678955078125">
        <ele>1263.199951171875</ele>
        <time>2026-09-03T05:58:28.000Z</time>
        <extensions>
          <ns3:TrackPointExtension>
            <ns3:hr>83</ns3:hr>
            <ns3:cad>0</ns3:cad>
          </ns3:TrackPointExtension>
        </extensions>
      </trkpt>
      <trkpt lat="44.713231623172760009765625" lon="6.7440854944288730621337890625">
        <ele>1263</ele>
        <time>2026-09-03T05:58:29.000Z</time>
        <extensions>
          <ns3:TrackPointExtension>
            <ns3:hr>83</ns3:hr>
            <ns3:cad>79</ns3:cad>
          </ns3:TrackPointExtension>
        </extensions>
      </trkpt>
      <trkpt lat="44.71322751604020595550537109375" lon="6.74406495876610279083251953125">
        <ele>1263</ele>
        <time>2026-09-03T05:58:30.000Z</time>
        <extensions>
          <ns3:TrackPointExtension>
            <ns3:hr>83</ns3:hr>
            <ns3:cad>79</ns3:cad>
          </ns3:TrackPointExtension>
        </extensions>
      </trkpt>
      <trkpt lat="44.7132302820682525634765625" lon="6.7440519668161869049072265625">
        <ele>1262.800048828125</ele>
        <time>2026-09-03T05:58:31.000Z</time>
        <extensions>
          <ns3:TrackPointExtension>
            <ns3:hr>83</ns3:hr>
            <ns3:cad>79</ns3:cad>
          </ns3:TrackPointExtension>
        </extensions>
      </trkpt>
      <trkpt lat="44.71322986297309398651123046875" lon="6.74403478391468524932861328125">
        <ele>1262.800048828125</ele>
        <time>2026-09-03T05:58:32.000Z</time>
        <extensions>
          <ns3:TrackPointExtension>
            <ns3:hr>84</ns3:hr>
            <ns3:cad>79</ns3:cad>
          </ns3:TrackPointExtension>
        </extensions>
      </trkpt>
      <trkpt lat="44.7132291086018085479736328125" lon="6.74401684664189815521240234375">
        <ele>1262.800048828125</ele>
        <time>2026-09-03T05:58:33.000Z</time>
        <extensions>
          <ns3:TrackPointExtension>
            <ns3:hr>84</ns3:hr>
            <ns3:cad>82</ns3:cad>
          </ns3:TrackPointExtension>
        </extensions>
      </trkpt>
      <trkpt lat="44.7132270969450473785400390625" lon="6.7439956404268741607666015625">
        <ele>1262.5999755859375</ele>
        <time>2026-09-03T05:58:34.000Z</time>
        <extensions>
          <ns3:TrackPointExtension>
            <ns3:hr>84</ns3:hr>
            <ns3:cad>82</ns3:cad>
          </ns3:TrackPointExtension>
        </extensions>
      </trkpt>
      <trkpt lat="44.71322198398411273956298828125" lon="6.74397074617445468902587890625">
        <ele>1262.5999755859375</ele>
        <time>2026-09-03T05:58:35.000Z</time>
        <extensions>
          <ns3:TrackPointExtension>
            <ns3:hr>84</ns3:hr>
            <ns3:cad>80</ns3:cad>
          </ns3:TrackPointExtension>
        </extensions>
      </trkpt>
      <trkpt lat="44.71321041695773601531982421875" lon="6.7439684830605983734130859375">
        <ele>1262.4000244140625</ele>
        <time>2026-09-03T05:58:36.000Z</time>
        <extensions>
          <ns3:TrackPointExtension>
            <ns3:hr>84</ns3:hr>
            <ns3:cad>80</ns3:cad>
          </ns3:TrackPointExtension>
        </extensions>
      </trkpt>
      <trkpt lat="44.71320454962551593780517578125" lon="6.7439738474786281585693359375">
        <ele>1262</ele>
        <time>2026-09-03T05:58:37.000Z</time>
        <extensions>
          <ns3:TrackPointExtension>
            <ns3:hr>84</ns3:hr>
            <ns3:cad>80</ns3:cad>
          </ns3:TrackPointExtension>
        </extensions>
      </trkpt>
      <trkpt lat="44.713201113045215606689453125" lon="6.74397896043956279754638671875">
        <ele>1261.5999755859375</ele>
        <time>2026-09-03T05:58:38.000Z</time>
        <extensions>
          <ns3:TrackPointExtension>
            <ns3:hr>84</ns3:hr>
            <ns3:cad>80</ns3:cad>
          </ns3:TrackPointExtension>
        </extensions>
      </trkpt>
      <trkpt lat="44.71320287324488162994384765625" lon="6.7439832352101802825927734375">
        <ele>1261.199951171875</ele>
        <time>2026-09-03T05:58:39.000Z</time>
        <extensions>
          <ns3:TrackPointExtension>
            <ns3:hr>84</ns3:hr>
            <ns3:cad>80</ns3:cad>
          </ns3:TrackPointExtension>
        </extensions>
      </trkpt>
      <trkpt lat="44.71319734118878841400146484375" lon="6.744004189968109130859375">
        <ele>1261</ele>
        <time>2026-09-03T05:58:40.000Z</time>
        <extensions>
          <ns3:TrackPointExtension>
            <ns3:hr>84</ns3:hr>
            <ns3:cad>66</ns3:cad>
          </ns3:TrackPointExtension>
        </extensions>
      </trkpt>
      <trkpt lat="44.71319608390331268310546875" lon="6.74401600845158100128173828125">
        <ele>1260.5999755859375</ele>
        <time>2026-09-03T05:58:41.000Z</time>
        <extensions>
          <ns3:TrackPointExtension>
            <ns3:hr>84</ns3:hr>
            <ns3:cad>66</ns3:cad>
          </ns3:TrackPointExtension>
        </extensions>
      </trkpt>
      <trkpt lat="44.713193736970424652099609375" lon="6.744042746722698211669921875">
        <ele>1260.4000244140625</ele>
        <time>2026-09-03T05:58:42.000Z</time>
        <extensions>
          <ns3:TrackPointExtension>
            <ns3:hr>84</ns3:hr>
            <ns3:cad>66</ns3:cad>
          </ns3:TrackPointExtension>
        </extensions>
      </trkpt>
      <trkpt lat="44.7131905518472194671630859375" lon="6.74406261183321475982666015625">
        <ele>1260.199951171875</ele>
        <time>2026-09-03T05:58:43.000Z</time>
        <extensions>
          <ns3:TrackPointExtension>
            <ns3:hr>83</ns3:hr>
            <ns3:cad>66</ns3:cad>
          </ns3:TrackPointExtension>
        </extensions>
      </trkpt>
      <trkpt lat="44.7131871990859508514404296875" lon="6.74408591352403163909912109375">
        <ele>1259.800048828125</ele>
        <time>2026-09-03T05:58:44.000Z</time>
        <extensions>
          <ns3:TrackPointExtension>
            <ns3:hr>83</ns3:hr>
            <ns3:cad>75</ns3:cad>
          </ns3:TrackPointExtension>
        </extensions>
      </trkpt>
      <trkpt lat="44.71318426541984081268310546875" lon="6.7440995760262012481689453125">
        <ele>1259.4000244140625</ele>
        <time>2026-09-03T05:58:45.000Z</time>
        <extensions>
          <ns3:TrackPointExtension>
            <ns3:hr>83</ns3:hr>
            <ns3:cad>75</ns3:cad>
          </ns3:TrackPointExtension>
        </extensions>
      </trkpt>
      <trkpt lat="44.71317873336374759674072265625" lon="6.74410854466259479522705078125">
        <ele>1259</ele>
        <time>2026-09-03T05:58:46.000Z</time>
        <extensions>
          <ns3:TrackPointExtension>
            <ns3:hr>82</ns3:hr>
            <ns3:cad>74</ns3:cad>
          </ns3:TrackPointExtension>
        </extensions>
      </trkpt>
      <trkpt lat="44.71317454241216182708740234375" lon="6.7441160045564174652099609375">
        <ele>1258.5999755859375</ele>
        <time>2026-09-03T05:58:47.000Z</time>
        <extensions>
          <ns3:TrackPointExtension>
            <ns3:hr>83</ns3:hr>
            <ns3:cad>74</ns3:cad>
          </ns3:TrackPointExtension>
        </extensions>
      </trkpt>
      <trkpt lat="44.71317353658378124237060546875" lon="6.744127906858921051025390625">
        <ele>1258.199951171875</ele>
        <time>2026-09-03T05:58:48.000Z</time>
        <extensions>
          <ns3:TrackPointExtension>
            <ns3:hr>84</ns3:hr>
            <ns3:cad>74</ns3:cad>
          </ns3:TrackPointExtension>
        </extensions>
      </trkpt>
      <trkpt lat="44.713173620402812957763671875" lon="6.7441377975046634674072265625">
        <ele>1258</ele>
        <time>2026-09-03T05:58:49.000Z</time>
        <extensions>
          <ns3:TrackPointExtension>
            <ns3:hr>84</ns3:hr>
            <ns3:cad>74</ns3:cad>
          </ns3:TrackPointExtension>
        </extensions>
      </trkpt>
      <trkpt lat="44.71317253075540065765380859375" lon="6.74415380693972110748291015625">
        <ele>1257.5999755859375</ele>
        <time>2026-09-03T05:58:50.000Z</time>
        <extensions>
          <ns3:TrackPointExtension>
            <ns3:hr>85</ns3:hr>
            <ns3:cad>74</ns3:cad>
          </ns3:TrackPointExtension>
        </extensions>
      </trkpt>
      <trkpt lat="44.7131768055260181427001953125" lon="6.74417115747928619384765625">
        <ele>1257.199951171875</ele>
        <time>2026-09-03T05:58:51.000Z</time>
        <extensions>
          <ns3:TrackPointExtension>
            <ns3:hr>85</ns3:hr>
            <ns3:cad>74</ns3:cad>
          </ns3:TrackPointExtension>
        </extensions>
      </trkpt>
      <trkpt lat="44.713175632059574127197265625" lon="6.7441854067146778106689453125">
        <ele>1256.800048828125</ele>
        <time>2026-09-03T05:58:52.000Z</time>
        <extensions>
          <ns3:TrackPointExtension>
            <ns3:hr>85</ns3:hr>
            <ns3:cad>81</ns3:cad>
          </ns3:TrackPointExtension>
        </extensions>
      </trkpt>
      <trkpt lat="44.71317320130765438079833984375" lon="6.74420468509197235107421875">
        <ele>1256.4000244140625</ele>
        <time>2026-09-03T05:58:53.000Z</time>
        <extensions>
          <ns3:TrackPointExtension>
            <ns3:hr>85</ns3:hr>
            <ns3:cad>81</ns3:cad>
          </ns3:TrackPointExtension>
        </extensions>
      </trkpt>
      <trkpt lat="44.71316934563219547271728515625" lon="6.74422203563153743743896484375">
        <ele>1255.800048828125</ele>
        <time>2026-09-03T05:58:54.000Z</time>
        <extensions>
          <ns3:TrackPointExtension>
            <ns3:hr>85</ns3:hr>
            <ns3:cad>81</ns3:cad>
          </ns3:TrackPointExtension>
        </extensions>
      </trkpt>
      <trkpt lat="44.7131674177944660186767578125" lon="6.74424223601818084716796875">
        <ele>1255.4000244140625</ele>
        <time>2026-09-03T05:58:55.000Z</time>
        <extensions>
          <ns3:TrackPointExtension>
            <ns3:hr>85</ns3:hr>
            <ns3:cad>81</ns3:cad>
          </ns3:TrackPointExtension>
        </extensions>
      </trkpt>
      <trkpt lat="44.7131576947867870330810546875" lon="6.74424299038946628570556640625">
        <ele>1254.800048828125</ele>
        <time>2026-09-03T05:58:56.000Z</time>
        <extensions>
          <ns3:TrackPointExtension>
            <ns3:hr>86</ns3:hr>
            <ns3:cad>81</ns3:cad>
          </ns3:TrackPointExtension>
        </extensions>
      </trkpt>
      <trkpt lat="44.71314855851233005523681640625" lon="6.7442335188388824462890625">
        <ele>1254.5999755859375</ele>
        <time>2026-09-03T05:58:57.000Z</time>
        <extensions>
          <ns3:TrackPointExtension>
            <ns3:hr>85</ns3:hr>
            <ns3:cad>83</ns3:cad>
          </ns3:TrackPointExtension>
        </extensions>
      </trkpt>
      <trkpt lat="44.7131422720849514007568359375" lon="6.74422681331634521484375">
        <ele>1254.199951171875</ele>
        <time>2026-09-03T05:58:58.000Z</time>
        <extensions>
          <ns3:TrackPointExtension>
            <ns3:hr>85</ns3:hr>
            <ns3:cad>83</ns3:cad>
          </ns3:TrackPointExtension>
        </extensions>
      </trkpt>
      <trkpt lat="44.71313447691500186920166015625" lon="6.7442206107079982757568359375">
        <ele>1253.800048828125</ele>
        <time>2026-09-03T05:58:59.000Z</time>
        <extensions>
          <ns3:TrackPointExtension>
            <ns3:hr>86</ns3:hr>
            <ns3:cad>83</ns3:cad>
          </ns3:TrackPointExtension>
        </extensions>
      </trkpt>
      <trkpt lat="44.71312542445957660675048828125" lon="6.7442061938345432281494140625">
        <ele>1253.5999755859375</ele>
        <time>2026-09-03T05:59:00.000Z</time>
        <extensions>
          <ns3:TrackPointExtension>
            <ns3:hr>86</ns3:hr>
            <ns3:cad>41</ns3:cad>
          </ns3:TrackPointExtension>
        </extensions>
      </trkpt>
      <trkpt lat="44.71311855129897594451904296875" lon="6.74418431706726551055908203125">
        <ele>1253.199951171875</ele>
        <time>2026-09-03T05:59:01.000Z</time>
        <extensions>
          <ns3:TrackPointExtension>
            <ns3:hr>86</ns3:hr>
            <ns3:cad>41</ns3:cad>
          </ns3:TrackPointExtension>
        </extensions>
      </trkpt>
      <trkpt lat="44.71311067230999469757080078125" lon="6.744164116680622100830078125">
        <ele>1253</ele>
        <time>2026-09-03T05:59:02.000Z</time>
        <extensions>
          <ns3:TrackPointExtension>
            <ns3:hr>87</ns3:hr>
            <ns3:cad>0</ns3:cad>
          </ns3:TrackPointExtension>
        </extensions>
      </trkpt>
      <trkpt lat="44.71310799010097980499267578125" lon="6.74414659850299358367919921875">
        <ele>1252.5999755859375</ele>
        <time>2026-09-03T05:59:03.000Z</time>
        <extensions>
          <ns3:TrackPointExtension>
            <ns3:hr>87</ns3:hr>
            <ns3:cad>0</ns3:cad>
          </ns3:TrackPointExtension>
        </extensions>
      </trkpt>
      <trkpt lat="44.713098518550395965576171875" lon="6.74412555992603302001953125">
        <ele>1252.199951171875</ele>
        <time>2026-09-03T05:59:04.000Z</time>
        <extensions>
          <ns3:TrackPointExtension>
            <ns3:hr>87</ns3:hr>
            <ns3:cad>0</ns3:cad>
          </ns3:TrackPointExtension>
        </extensions>
      </trkpt>
      <trkpt lat="44.71309281885623931884765625" lon="6.7441086284816265106201171875">
        <ele>1252</ele>
        <time>2026-09-03T05:59:05.000Z</time>
        <extensions>
          <ns3:TrackPointExtension>
            <ns3:hr>86</ns3:hr>
            <ns3:cad>77</ns3:cad>
          </ns3:TrackPointExtension>
        </extensions>
      </trkpt>
      <trkpt lat="44.71308670006692409515380859375" lon="6.744095385074615478515625">
        <ele>1251.5999755859375</ele>
        <time>2026-09-03T05:59:06.000Z</time>
        <extensions>
          <ns3:TrackPointExtension>
            <ns3:hr>86</ns3:hr>
            <ns3:cad>77</ns3:cad>
          </ns3:TrackPointExtension>
        </extensions>
      </trkpt>
      <trkpt lat="44.71308334730565547943115234375" lon="6.7440697364509105682373046875">
        <ele>1251.199951171875</ele>
        <time>2026-09-03T05:59:07.000Z</time>
        <extensions>
          <ns3:TrackPointExtension>
            <ns3:hr>86</ns3:hr>
            <ns3:cad>83</ns3:cad>
          </ns3:TrackPointExtension>
        </extensions>
      </trkpt>
      <trkpt lat="44.71307932399213314056396484375" lon="6.7440492846071720123291015625">
        <ele>1250.800048828125</ele>
        <time>2026-09-03T05:59:08.000Z</time>
        <extensions>
          <ns3:TrackPointExtension>
            <ns3:hr>86</ns3:hr>
            <ns3:cad>83</ns3:cad>
          </ns3:TrackPointExtension>
        </extensions>
      </trkpt>
      <trkpt lat="44.71307404339313507080078125" lon="6.74403361044824123382568359375">
        <ele>1250.5999755859375</ele>
        <time>2026-09-03T05:59:09.000Z</time>
        <extensions>
          <ns3:TrackPointExtension>
            <ns3:hr>85</ns3:hr>
            <ns3:cad>83</ns3:cad>
          </ns3:TrackPointExtension>
        </extensions>
      </trkpt>
      <trkpt lat="44.71306943334639072418212890625" lon="6.74402304925024509429931640625">
        <ele>1250.4000244140625</ele>
        <time>2026-09-03T05:59:10.000Z</time>
        <extensions>
          <ns3:TrackPointExtension>
            <ns3:hr>86</ns3:hr>
            <ns3:cad>83</ns3:cad>
          </ns3:TrackPointExtension>
        </extensions>
      </trkpt>
      <trkpt lat="44.71306197345256805419921875" lon="6.74400444142520427703857421875">
        <ele>1250</ele>
        <time>2026-09-03T05:59:11.000Z</time>
        <extensions>
          <ns3:TrackPointExtension>
            <ns3:hr>86</ns3:hr>
            <ns3:cad>80</ns3:cad>
          </ns3:TrackPointExtension>
        </extensions>
      </trkpt>
      <trkpt lat="44.71305535174906253814697265625" lon="6.74398801289498805999755859375">
        <ele>1249.800048828125</ele>
        <time>2026-09-03T05:59:12.000Z</time>
        <extensions>
          <ns3:TrackPointExtension>
            <ns3:hr>87</ns3:hr>
            <ns3:cad>80</ns3:cad>
          </ns3:TrackPointExtension>
        </extensions>
      </trkpt>
      <trkpt lat="44.7130500711500644683837890625" lon="6.74397979862987995147705078125">
        <ele>1249.4000244140625</ele>
        <time>2026-09-03T05:59:13.000Z</time>
        <extensions>
          <ns3:TrackPointExtension>
            <ns3:hr>87</ns3:hr>
            <ns3:cad>80</ns3:cad>
          </ns3:TrackPointExtension>
        </extensions>
      </trkpt>
      <trkpt lat="44.71304546110332012176513671875" lon="6.74397124908864498138427734375">
        <ele>1249</ele>
        <time>2026-09-03T05:59:14.000Z</time>
        <extensions>
          <ns3:TrackPointExtension>
            <ns3:hr>87</ns3:hr>
            <ns3:cad>81</ns3:cad>
          </ns3:TrackPointExtension>
        </extensions>
      </trkpt>
      <trkpt lat="44.71304185688495635986328125" lon="6.74396068789064884185791015625">
        <ele>1248.5999755859375</ele>
        <time>2026-09-03T05:59:15.000Z</time>
        <extensions>
          <ns3:TrackPointExtension>
            <ns3:hr>88</ns3:hr>
            <ns3:cad>81</ns3:cad>
          </ns3:TrackPointExtension>
        </extensions>
      </trkpt>
      <trkpt lat="44.71303573809564113616943359375" lon="6.74394451081752777099609375">
        <ele>1248.199951171875</ele>
        <time>2026-09-03T05:59:16.000Z</time>
        <extensions>
          <ns3:TrackPointExtension>
            <ns3:hr>88</ns3:hr>
            <ns3:cad>81</ns3:cad>
          </ns3:TrackPointExtension>
        </extensions>
      </trkpt>
      <trkpt lat="44.71303288824856281280517578125" lon="6.74393151886761188507080078125">
        <ele>1247.800048828125</ele>
        <time>2026-09-03T05:59:17.000Z</time>
        <extensions>
          <ns3:TrackPointExtension>
            <ns3:hr>88</ns3:hr>
            <ns3:cad>81</ns3:cad>
          </ns3:TrackPointExtension>
        </extensions>
      </trkpt>
      <trkpt lat="44.71302953548729419708251953125" lon="6.74391458742320537567138671875">
        <ele>1247.4000244140625</ele>
        <time>2026-09-03T05:59:18.000Z</time>
        <extensions>
          <ns3:TrackPointExtension>
            <ns3:hr>88</ns3:hr>
            <ns3:cad>81</ns3:cad>
          </ns3:TrackPointExtension>
        </extensions>
      </trkpt>
      <trkpt lat="44.713024757802486419677734375" lon="6.74389581196010112762451171875">
        <ele>1247</ele>
        <time>2026-09-03T05:59:19.000Z</time>
        <extensions>
          <ns3:TrackPointExtension>
            <ns3:hr>88</ns3:hr>
            <ns3:cad>85</ns3:cad>
          </ns3:TrackPointExtension>
        </extensions>
      </trkpt>
      <trkpt lat="44.7130178846418857574462890625" lon="6.74388592131435871124267578125">
        <ele>1246.4000244140625</ele>
        <time>2026-09-03T05:59:20.000Z</time>
        <extensions>
          <ns3:TrackPointExtension>
            <ns3:hr>89</ns3:hr>
            <ns3:cad>85</ns3:cad>
          </ns3:TrackPointExtension>
        </extensions>
      </trkpt>
      <trkpt lat="44.7130128554999828338623046875" lon="6.7438756115734577178955078125">
        <ele>1246</ele>
        <time>2026-09-03T05:59:21.000Z</time>
        <extensions>
          <ns3:TrackPointExtension>
            <ns3:hr>89</ns3:hr>
            <ns3:cad>85</ns3:cad>
          </ns3:TrackPointExtension>
        </extensions>
      </trkpt>
      <trkpt lat="44.7130044735968112945556640625" lon="6.74386513419449329376220703125">
        <ele>1245.5999755859375</ele>
        <time>2026-09-03T05:59:22.000Z</time>
        <extensions>
          <ns3:TrackPointExtension>
            <ns3:hr>89</ns3:hr>
            <ns3:cad>83</ns3:cad>
          </ns3:TrackPointExtension>
        </extensions>
      </trkpt>
      <trkpt lat="44.71299936063587665557861328125" lon="6.74386479891836643218994140625">
        <ele>1245.199951171875</ele>
        <time>2026-09-03T05:59:23.000Z</time>
        <extensions>
          <ns3:TrackPointExtension>
            <ns3:hr>88</ns3:hr>
            <ns3:cad>83</ns3:cad>
          </ns3:TrackPointExtension>
        </extensions>
      </trkpt>
      <trkpt lat="44.71299751661717891693115234375" lon="6.743875779211521148681640625">
        <ele>1245</ele>
        <time>2026-09-03T05:59:24.000Z</time>
        <extensions>
          <ns3:TrackPointExtension>
            <ns3:hr>89</ns3:hr>
            <ns3:cad>85</ns3:cad>
          </ns3:TrackPointExtension>
        </extensions>
      </trkpt>
      <trkpt lat="44.71299491822719573974609375" lon="6.74389614723622798919677734375">
        <ele>1244.5999755859375</ele>
        <time>2026-09-03T05:59:25.000Z</time>
        <extensions>
          <ns3:TrackPointExtension>
            <ns3:hr>89</ns3:hr>
            <ns3:cad>85</ns3:cad>
          </ns3:TrackPointExtension>
        </extensions>
      </trkpt>
      <trkpt lat="44.7129890508949756622314453125" lon="6.74391257576644420623779296875">
        <ele>1244.199951171875</ele>
        <time>2026-09-03T05:59:26.000Z</time>
        <extensions>
          <ns3:TrackPointExtension>
            <ns3:hr>90</ns3:hr>
            <ns3:cad>85</ns3:cad>
          </ns3:TrackPointExtension>
        </extensions>
      </trkpt>
      <trkpt lat="44.71298477612435817718505859375" lon="6.74392581917345523834228515625">
        <ele>1243.800048828125</ele>
        <time>2026-09-03T05:59:27.000Z</time>
        <extensions>
          <ns3:TrackPointExtension>
            <ns3:hr>91</ns3:hr>
            <ns3:cad>85</ns3:cad>
          </ns3:TrackPointExtension>
        </extensions>
      </trkpt>
      <trkpt lat="44.71298611722886562347412109375" lon="6.74393839202821254730224609375">
        <ele>1243.5999755859375</ele>
        <time>2026-09-03T05:59:28.000Z</time>
        <extensions>
          <ns3:TrackPointExtension>
            <ns3:hr>91</ns3:hr>
            <ns3:cad>85</ns3:cad>
          </ns3:TrackPointExtension>
        </extensions>
      </trkpt>
      <trkpt lat="44.71298309974372386932373046875" lon="6.74395917914807796478271484375">
        <ele>1243.199951171875</ele>
        <time>2026-09-03T05:59:29.000Z</time>
        <extensions>
          <ns3:TrackPointExtension>
            <ns3:hr>91</ns3:hr>
            <ns3:cad>85</ns3:cad>
          </ns3:TrackPointExtension>
        </extensions>
      </trkpt>
      <trkpt lat="44.712985865771770477294921875" lon="6.7439788766205310821533203125">
        <ele>1242.800048828125</ele>
        <time>2026-09-03T05:59:30.000Z</time>
        <extensions>
          <ns3:TrackPointExtension>
            <ns3:hr>92</ns3:hr>
            <ns3:cad>85</ns3:cad>
          </ns3:TrackPointExtension>
        </extensions>
      </trkpt>
      <trkpt lat="44.71298821270465850830078125" lon="6.74399790354073047637939453125">
        <ele>1242.5999755859375</ele>
        <time>2026-09-03T05:59:31.000Z</time>
        <extensions>
          <ns3:TrackPointExtension>
            <ns3:hr>91</ns3:hr>
            <ns3:cad>85</ns3:cad>
          </ns3:TrackPointExtension>
        </extensions>
      </trkpt>
      <trkpt lat="44.7129917331039905548095703125" lon="6.74402053467929363250732421875">
        <ele>1242.4000244140625</ele>
        <time>2026-09-03T05:59:32.000Z</time>
        <extensions>
          <ns3:TrackPointExtension>
            <ns3:hr>91</ns3:hr>
            <ns3:cad>85</ns3:cad>
          </ns3:TrackPointExtension>
        </extensions>
      </trkpt>
      <trkpt lat="44.7129860334098339080810546875" lon="6.74403729848563671112060546875">
        <ele>1242</ele>
        <time>2026-09-03T05:59:33.000Z</time>
        <extensions>
          <ns3:TrackPointExtension>
            <ns3:hr>91</ns3:hr>
            <ns3:cad>85</ns3:cad>
          </ns3:TrackPointExtension>
        </extensions>
      </trkpt>
      <trkpt lat="44.7129783220589160919189453125" lon="6.74404132179915904998779296875">
        <ele>1241.800048828125</ele>
        <time>2026-09-03T05:59:34.000Z</time>
        <extensions>
          <ns3:TrackPointExtension>
            <ns3:hr>91</ns3:hr>
            <ns3:cad>85</ns3:cad>
          </ns3:TrackPointExtension>
        </extensions>
      </trkpt>
      <trkpt lat="44.712975136935710906982421875" lon="6.74402765929698944091796875">
        <ele>1241.5999755859375</ele>
        <time>2026-09-03T05:59:35.000Z</time>
        <extensions>
          <ns3:TrackPointExtension>
            <ns3:hr>91</ns3:hr>
            <ns3:cad>85</ns3:cad>
          </ns3:TrackPointExtension>
        </extensions>
      </trkpt>
      <trkpt lat="44.71297304145991802215576171875" lon="6.74401382915675640106201171875">
        <ele>1241.4000244140625</ele>
        <time>2026-09-03T05:59:36.000Z</time>
        <extensions>
          <ns3:TrackPointExtension>
            <ns3:hr>91</ns3:hr>
            <ns3:cad>85</ns3:cad>
          </ns3:TrackPointExtension>
        </extensions>
      </trkpt>
      <trkpt lat="44.712968431413173675537109375" lon="6.7439948022365570068359375">
        <ele>1241.199951171875</ele>
        <time>2026-09-03T05:59:37.000Z</time>
        <extensions>
          <ns3:TrackPointExtension>
            <ns3:hr>90</ns3:hr>
            <ns3:cad>85</ns3:cad>
          </ns3:TrackPointExtension>
        </extensions>
      </trkpt>
      <trkpt lat="44.71296348609030246734619140625" lon="6.7439768649637699127197265625">
        <ele>1241</ele>
        <time>2026-09-03T05:59:38.000Z</time>
        <extensions>
          <ns3:TrackPointExtension>
            <ns3:hr>91</ns3:hr>
            <ns3:cad>85</ns3:cad>
          </ns3:TrackPointExtension>
        </extensions>
      </trkpt>
      <trkpt lat="44.71295678056776523590087890625" lon="6.743961274623870849609375">
        <ele>1240.800048828125</ele>
        <time>2026-09-03T05:59:39.000Z</time>
        <extensions>
          <ns3:TrackPointExtension>
            <ns3:hr>90</ns3:hr>
            <ns3:cad>71</ns3:cad>
          </ns3:TrackPointExtension>
        </extensions>
      </trkpt>
      <trkpt lat="44.71295560710132122039794921875" lon="6.74394425936043262481689453125">
        <ele>1240.4000244140625</ele>
        <time>2026-09-03T05:59:40.000Z</time>
        <extensions>
          <ns3:TrackPointExtension>
            <ns3:hr>90</ns3:hr>
            <ns3:cad>71</ns3:cad>
          </ns3:TrackPointExtension>
        </extensions>
      </trkpt>
      <trkpt lat="44.712950997054576873779296875" lon="6.74392933957278728485107421875">
        <ele>1240.199951171875</ele>
        <time>2026-09-03T05:59:41.000Z</time>
        <extensions>
          <ns3:TrackPointExtension>
            <ns3:hr>90</ns3:hr>
            <ns3:cad>75</ns3:cad>
          </ns3:TrackPointExtension>
        </extensions>
      </trkpt>
      <trkpt lat="44.7129447944462299346923828125" lon="6.7439170181751251220703125">
        <ele>1239.800048828125</ele>
        <time>2026-09-03T05:59:42.000Z</time>
        <extensions>
          <ns3:TrackPointExtension>
            <ns3:hr>90</ns3:hr>
            <ns3:cad>75</ns3:cad>
          </ns3:TrackPointExtension>
        </extensions>
      </trkpt>
      <trkpt lat="44.71293834038078784942626953125" lon="6.74389178864657878875732421875">
        <ele>1239.5999755859375</ele>
        <time>2026-09-03T05:59:43.000Z</time>
        <extensions>
          <ns3:TrackPointExtension>
            <ns3:hr>90</ns3:hr>
            <ns3:cad>75</ns3:cad>
          </ns3:TrackPointExtension>
        </extensions>
      </trkpt>
      <trkpt lat="44.71293850801885128021240234375" lon="6.74386731348931789398193359375">
        <ele>1239.199951171875</ele>
        <time>2026-09-03T05:59:44.000Z</time>
        <extensions>
          <ns3:TrackPointExtension>
            <ns3:hr>90</ns3:hr>
            <ns3:cad>75</ns3:cad>
          </ns3:TrackPointExtension>
        </extensions>
      </trkpt>
      <trkpt lat="44.71293565817177295684814453125" lon="6.743841581046581268310546875">
        <ele>1239</ele>
        <time>2026-09-03T05:59:45.000Z</time>
        <extensions>
          <ns3:TrackPointExtension>
            <ns3:hr>89</ns3:hr>
            <ns3:cad>77</ns3:cad>
          </ns3:TrackPointExtension>
        </extensions>
      </trkpt>
      <trkpt lat="44.7129233367741107940673828125" lon="6.74381383694708347320556640625">
        <ele>1238.5999755859375</ele>
        <time>2026-09-03T05:59:46.000Z</time>
        <extensions>
          <ns3:TrackPointExtension>
            <ns3:hr>89</ns3:hr>
            <ns3:cad>77</ns3:cad>
          </ns3:TrackPointExtension>
        </extensions>
      </trkpt>
      <trkpt lat="44.7129230014979839324951171875" lon="6.743784584105014801025390625">
        <ele>1238.4000244140625</ele>
        <time>2026-09-03T05:59:47.000Z</time>
        <extensions>
          <ns3:TrackPointExtension>
            <ns3:hr>88</ns3:hr>
            <ns3:cad>77</ns3:cad>
          </ns3:TrackPointExtension>
        </extensions>
      </trkpt>
      <trkpt lat="44.71291604451835155487060546875" lon="6.74375885166227817535400390625">
        <ele>1238</ele>
        <time>2026-09-03T05:59:48.000Z</time>
        <extensions>
          <ns3:TrackPointExtension>
            <ns3:hr>87</ns3:hr>
            <ns3:cad>81</ns3:cad>
          </ns3:TrackPointExtension>
        </extensions>
      </trkpt>
      <trkpt lat="44.712903387844562530517578125" lon="6.74372934736311435699462890625">
        <ele>1237.5999755859375</ele>
        <time>2026-09-03T05:59:49.000Z</time>
        <extensions>
          <ns3:TrackPointExtension>
            <ns3:hr>86</ns3:hr>
            <ns3:cad>81</ns3:cad>
          </ns3:TrackPointExtension>
        </extensions>
      </trkpt>
      <trkpt lat="44.7128931619226932525634765625" lon="6.7437024414539337158203125">
        <ele>1237.4000244140625</ele>
        <time>2026-09-03T05:59:50.000Z</time>
        <extensions>
          <ns3:TrackPointExtension>
            <ns3:hr>86</ns3:hr>
            <ns3:cad>81</ns3:cad>
          </ns3:TrackPointExtension>
        </extensions>
      </trkpt>
      <trkpt lat="44.7128884680569171905517578125" lon="6.7436791397631168365478515625">
        <ele>1236.800048828125</ele>
        <time>2026-09-03T05:59:51.000Z</time>
        <extensions>
          <ns3:TrackPointExtension>
            <ns3:hr>86</ns3:hr>
            <ns3:cad>82</ns3:cad>
          </ns3:TrackPointExtension>
        </extensions>
      </trkpt>
      <trkpt lat="44.7128851152956485748291015625" lon="6.7436576820909976959228515625">
        <ele>1236.5999755859375</ele>
        <time>2026-09-03T05:59:52.000Z</time>
        <extensions>
          <ns3:TrackPointExtension>
            <ns3:hr>87</ns3:hr>
            <ns3:cad>82</ns3:cad>
          </ns3:TrackPointExtension>
        </extensions>
      </trkpt>
      <trkpt lat="44.71288268454372882843017578125" lon="6.74366598017513751983642578125">
        <ele>1236.199951171875</ele>
        <time>2026-09-03T05:59:53.000Z</time>
        <extensions>
          <ns3:TrackPointExtension>
            <ns3:hr>87</ns3:hr>
            <ns3:cad>82</ns3:cad>
          </ns3:TrackPointExtension>
        </extensions>
      </trkpt>
      <trkpt lat="44.7128790803253650665283203125" lon="6.74368442036211490631103515625">
        <ele>1235.800048828125</ele>
        <time>2026-09-03T05:59:54.000Z</time>
        <extensions>
          <ns3:TrackPointExtension>
            <ns3:hr>88</ns3:hr>
            <ns3:cad>79</ns3:cad>
          </ns3:TrackPointExtension>
        </extensions>
      </trkpt>
      <trkpt lat="44.71287690103054046630859375" lon="6.74370302818715572357177734375">
        <ele>1235.5999755859375</ele>
        <time>2026-09-03T05:59:55.000Z</time>
        <extensions>
          <ns3:TrackPointExtension>
            <ns3:hr>89</ns3:hr>
            <ns3:cad>79</ns3:cad>
          </ns3:TrackPointExtension>
        </extensions>
      </trkpt>
      <trkpt lat="44.712874554097652435302734375" lon="6.7437153495848178863525390625">
        <ele>1235.199951171875</ele>
        <time>2026-09-03T05:59:56.000Z</time>
        <extensions>
          <ns3:TrackPointExtension>
            <ns3:hr>90</ns3:hr>
            <ns3:cad>79</ns3:cad>
          </ns3:TrackPointExtension>
        </extensions>
      </trkpt>
      <trkpt lat="44.71286843530833721160888671875" lon="6.7437445186078548431396484375">
        <ele>1234.800048828125</ele>
        <time>2026-09-03T05:59:57.000Z</time>
        <extensions>
          <ns3:TrackPointExtension>
            <ns3:hr>90</ns3:hr>
            <ns3:cad>79</ns3:cad>
          </ns3:TrackPointExtension>
        </extensions>
      </trkpt>
      <trkpt lat="44.7128641605377197265625" lon="6.74376522190868854522705078125">
        <ele>1234.5999755859375</ele>
        <time>2026-09-03T05:59:58.000Z</time>
        <extensions>
          <ns3:TrackPointExtension>
            <ns3:hr>90</ns3:hr>
            <ns3:cad>79</ns3:cad>
          </ns3:TrackPointExtension>
        </extensions>
      </trkpt>
      <trkpt lat="44.71285904757678508758544921875" lon="6.743777878582477569580078125">
        <ele>1234.199951171875</ele>
        <time>2026-09-03T05:59:59.000Z</time>
        <extensions>
          <ns3:TrackPointExtension>
            <ns3:hr>90</ns3:hr>
            <ns3:cad>79</ns3:cad>
          </ns3:TrackPointExtension>
        </extensions>
      </trkpt>
      <trkpt lat="44.7128529287874698638916015625" lon="6.74378952942788600921630859375">
        <ele>1233.800048828125</ele>
        <time>2026-09-03T06:00:00.000Z</time>
        <extensions>
          <ns3:TrackPointExtension>
            <ns3:hr>90</ns3:hr>
            <ns3:cad>77</ns3:cad>
          </ns3:TrackPointExtension>
        </extensions>
      </trkpt>
      <trkpt lat="44.7128492407500743865966796875" lon="6.74380109645426273345947265625">
        <ele>1233.4000244140625</ele>
        <time>2026-09-03T06:00:01.000Z</time>
        <extensions>
          <ns3:TrackPointExtension>
            <ns3:hr>90</ns3:hr>
            <ns3:cad>77</ns3:cad>
          </ns3:TrackPointExtension>
        </extensions>
      </trkpt>
      <trkpt lat="44.71284429542720317840576171875" lon="6.7438149265944957733154296875">
        <ele>1233.199951171875</ele>
        <time>2026-09-03T06:00:02.000Z</time>
        <extensions>
          <ns3:TrackPointExtension>
            <ns3:hr>90</ns3:hr>
            <ns3:cad>78</ns3:cad>
          </ns3:TrackPointExtension>
        </extensions>
      </trkpt>
      <trkpt lat="44.71284069120883941650390625" lon="6.7438176088035106658935546875">
        <ele>1232.800048828125</ele>
        <time>2026-09-03T06:00:03.000Z</time>
        <extensions>
          <ns3:TrackPointExtension>
            <ns3:hr>91</ns3:hr>
            <ns3:cad>78</ns3:cad>
          </ns3:TrackPointExtension>
        </extensions>
      </trkpt>
      <trkpt lat="44.71283742226660251617431640625" lon="6.7438135854899883270263671875">
        <ele>1232.4000244140625</ele>
        <time>2026-09-03T06:00:04.000Z</time>
        <extensions>
          <ns3:TrackPointExtension>
            <ns3:hr>90</ns3:hr>
            <ns3:cad>75</ns3:cad>
          </ns3:TrackPointExtension>
        </extensions>
      </trkpt>
      <trkpt lat="44.712834991514682769775390625" lon="6.7437995038926601409912109375">
        <ele>1232.199951171875</ele>
        <time>2026-09-03T06:00:05.000Z</time>
        <extensions>
          <ns3:TrackPointExtension>
            <ns3:hr>90</ns3:hr>
            <ns3:cad>75</ns3:cad>
          </ns3:TrackPointExtension>
        </extensions>
      </trkpt>
      <trkpt lat="44.71283021382987499237060546875" lon="6.74378651194274425506591796875">
        <ele>1231.800048828125</ele>
        <time>2026-09-03T06:00:06.000Z</time>
        <extensions>
          <ns3:TrackPointExtension>
            <ns3:hr>90</ns3:hr>
            <ns3:cad>75</ns3:cad>
          </ns3:TrackPointExtension>
        </extensions>
      </trkpt>
      <trkpt lat="44.7128284536302089691162109375" lon="6.74378466792404651641845703125">
        <ele>1231.4000244140625</ele>
        <time>2026-09-03T06:00:07.000Z</time>
        <extensions>
          <ns3:TrackPointExtension>
            <ns3:hr>90</ns3:hr>
            <ns3:cad>78</ns3:cad>
          </ns3:TrackPointExtension>
        </extensions>
      </trkpt>
      <trkpt lat="44.7128244303166866302490234375" lon="6.74377762712538242340087890625">
        <ele>1231.199951171875</ele>
        <time>2026-09-03T06:00:08.000Z</time>
        <extensions>
          <ns3:TrackPointExtension>
            <ns3:hr>90</ns3:hr>
            <ns3:cad>78</ns3:cad>
          </ns3:TrackPointExtension>
        </extensions>
      </trkpt>
      <trkpt lat="44.71281831152737140655517578125" lon="6.7437606118619441986083984375">
        <ele>1230.800048828125</ele>
        <time>2026-09-03T06:00:09.000Z</time>
        <extensions>
          <ns3:TrackPointExtension>
            <ns3:hr>90</ns3:hr>
            <ns3:cad>78</ns3:cad>
          </ns3:TrackPointExtension>
        </extensions>
      </trkpt>
      <trkpt lat="44.71281386911869049072265625" lon="6.74374761991202831268310546875">
        <ele>1230.199951171875</ele>
        <time>2026-09-03T06:00:10.000Z</time>
        <extensions>
          <ns3:TrackPointExtension>
            <ns3:hr>91</ns3:hr>
            <ns3:cad>78</ns3:cad>
          </ns3:TrackPointExtension>
        </extensions>
      </trkpt>
      <trkpt lat="44.7128091752529144287109375" lon="6.7437319457530975341796875">
        <ele>1229.800048828125</ele>
        <time>2026-09-03T06:00:11.000Z</time>
        <extensions>
          <ns3:TrackPointExtension>
            <ns3:hr>90</ns3:hr>
            <ns3:cad>78</ns3:cad>
          </ns3:TrackPointExtension>
        </extensions>
      </trkpt>
      <trkpt lat="44.71280154772102832794189453125" lon="6.74371786415576934814453125">
        <ele>1229.4000244140625</ele>
        <time>2026-09-03T06:00:12.000Z</time>
        <extensions>
          <ns3:TrackPointExtension>
            <ns3:hr>90</ns3:hr>
            <ns3:cad>83</ns3:cad>
          </ns3:TrackPointExtension>
        </extensions>
      </trkpt>
      <trkpt lat="44.71279568038880825042724609375" lon="6.743702106177806854248046875">
        <ele>1229</ele>
        <time>2026-09-03T06:00:13.000Z</time>
        <extensions>
          <ns3:TrackPointExtension>
            <ns3:hr>89</ns3:hr>
            <ns3:cad>83</ns3:cad>
          </ns3:TrackPointExtension>
        </extensions>
      </trkpt>
      <trkpt lat="44.71279215998947620391845703125" lon="6.74368408508598804473876953125">
        <ele>1228.5999755859375</ele>
        <time>2026-09-03T06:00:14.000Z</time>
        <extensions>
          <ns3:TrackPointExtension>
            <ns3:hr>89</ns3:hr>
            <ns3:cad>83</ns3:cad>
          </ns3:TrackPointExtension>
        </extensions>
      </trkpt>
      <trkpt lat="44.7127805091440677642822265625" lon="6.7436702549457550048828125">
        <ele>1228.199951171875</ele>
        <time>2026-09-03T06:00:15.000Z</time>
        <extensions>
          <ns3:TrackPointExtension>
            <ns3:hr>89</ns3:hr>
            <ns3:cad>81</ns3:cad>
          </ns3:TrackPointExtension>
        </extensions>
      </trkpt>
      <trkpt lat="44.71277363598346710205078125" lon="6.7436596937477588653564453125">
        <ele>1227.800048828125</ele>
        <time>2026-09-03T06:00:16.000Z</time>
        <extensions>
          <ns3:TrackPointExtension>
            <ns3:hr>89</ns3:hr>
            <ns3:cad>81</ns3:cad>
          </ns3:TrackPointExtension>
        </extensions>
      </trkpt>
      <trkpt lat="44.71276734955608844757080078125" lon="6.74365223385393619537353515625">
        <ele>1227.4000244140625</ele>
        <time>2026-09-03T06:00:17.000Z</time>
        <extensions>
          <ns3:TrackPointExtension>
            <ns3:hr>89</ns3:hr>
            <ns3:cad>81</ns3:cad>
          </ns3:TrackPointExtension>
        </extensions>
      </trkpt>
      <trkpt lat="44.712761901319026947021484375" lon="6.7436358891427516937255859375">
        <ele>1227</ele>
        <time>2026-09-03T06:00:18.000Z</time>
        <extensions>
          <ns3:TrackPointExtension>
            <ns3:hr>89</ns3:hr>
            <ns3:cad>81</ns3:cad>
          </ns3:TrackPointExtension>
        </extensions>
      </trkpt>
      <trkpt lat="44.7127590514719486236572265625" lon="6.7436164431273937225341796875">
        <ele>1226.5999755859375</ele>
        <time>2026-09-03T06:00:19.000Z</time>
        <extensions>
          <ns3:TrackPointExtension>
            <ns3:hr>89</ns3:hr>
            <ns3:cad>81</ns3:cad>
          </ns3:TrackPointExtension>
        </extensions>
      </trkpt>
      <trkpt lat="44.71275310032069683074951171875" lon="6.7436023615300655364990234375">
        <ele>1226.199951171875</ele>
        <time>2026-09-03T06:00:20.000Z</time>
        <extensions>
          <ns3:TrackPointExtension>
            <ns3:hr>89</ns3:hr>
            <ns3:cad>80</ns3:cad>
          </ns3:TrackPointExtension>
        </extensions>
      </trkpt>
      <trkpt lat="44.7127476520836353302001953125" lon="6.74358886666595935821533203125">
        <ele>1225.800048828125</ele>
        <time>2026-09-03T06:00:21.000Z</time>
        <extensions>
          <ns3:TrackPointExtension>
            <ns3:hr>89</ns3:hr>
            <ns3:cad>80</ns3:cad>
          </ns3:TrackPointExtension>
        </extensions>
      </trkpt>
      <trkpt lat="44.7127419523894786834716796875" lon="6.74357176758348941802978515625">
        <ele>1225.4000244140625</ele>
        <time>2026-09-03T06:00:22.000Z</time>
        <extensions>
          <ns3:TrackPointExtension>
            <ns3:hr>89</ns3:hr>
            <ns3:cad>80</ns3:cad>
          </ns3:TrackPointExtension>
        </extensions>
      </trkpt>
      <trkpt lat="44.7127389349043369293212890625" lon="6.74355869181454181671142578125">
        <ele>1225</ele>
        <time>2026-09-03T06:00:23.000Z</time>
        <extensions>
          <ns3:TrackPointExtension>
            <ns3:hr>89</ns3:hr>
            <ns3:cad>72</ns3:cad>
          </ns3:TrackPointExtension>
        </extensions>
      </trkpt>
      <trkpt lat="44.712735079228878021240234375" lon="6.74355114810168743133544921875">
        <ele>1224.800048828125</ele>
        <time>2026-09-03T06:00:24.000Z</time>
        <extensions>
          <ns3:TrackPointExtension>
            <ns3:hr>90</ns3:hr>
            <ns3:cad>71</ns3:cad>
          </ns3:TrackPointExtension>
        </extensions>
      </trkpt>
      <trkpt lat="44.71272535622119903564453125" lon="6.74354142509400844573974609375">
        <ele>1224.800048828125</ele>
        <time>2026-09-03T06:00:25.000Z</time>
        <extensions>
          <ns3:TrackPointExtension>
            <ns3:hr>90</ns3:hr>
            <ns3:cad>71</ns3:cad>
          </ns3:TrackPointExtension>
        </extensions>
      </trkpt>
      <trkpt lat="44.71272191964089870452880859375" lon="6.74353279173374176025390625">
        <ele>1224.5999755859375</ele>
        <time>2026-09-03T06:00:26.000Z</time>
        <extensions>
          <ns3:TrackPointExtension>
            <ns3:hr>89</ns3:hr>
            <ns3:cad>71</ns3:cad>
          </ns3:TrackPointExtension>
        </extensions>
      </trkpt>
      <trkpt lat="44.71272275783121585845947265625" lon="6.7435212247073650360107421875">
        <ele>1224.199951171875</ele>
        <time>2026-09-03T06:00:27.000Z</time>
        <extensions>
          <ns3:TrackPointExtension>
            <ns3:hr>89</ns3:hr>
            <ns3:cad>71</ns3:cad>
          </ns3:TrackPointExtension>
        </extensions>
      </trkpt>
      <trkpt lat="44.7127154655754566192626953125" lon="6.7435151897370815277099609375">
        <ele>1224</ele>
        <time>2026-09-03T06:00:28.000Z</time>
        <extensions>
          <ns3:TrackPointExtension>
            <ns3:hr>89</ns3:hr>
            <ns3:cad>71</ns3:cad>
          </ns3:TrackPointExtension>
        </extensions>
      </trkpt>
      <trkpt lat="44.712706245481967926025390625" lon="6.74350236542522907257080078125">
        <ele>1223.5999755859375</ele>
        <time>2026-09-03T06:00:29.000Z</time>
        <extensions>
          <ns3:TrackPointExtension>
            <ns3:hr>89</ns3:hr>
            <ns3:cad>72</ns3:cad>
          </ns3:TrackPointExtension>
        </extensions>
      </trkpt>
      <trkpt lat="44.71270062960684299468994140625" lon="6.74348727799952030181884765625">
        <ele>1223.199951171875</ele>
        <time>2026-09-03T06:00:30.000Z</time>
        <extensions>
          <ns3:TrackPointExtension>
            <ns3:hr>89</ns3:hr>
            <ns3:cad>73</ns3:cad>
          </ns3:TrackPointExtension>
        </extensions>
      </trkpt>
      <trkpt lat="44.712694846093654632568359375" lon="6.7434749566018581390380859375">
        <ele>1222.800048828125</ele>
        <time>2026-09-03T06:00:31.000Z</time>
        <extensions>
          <ns3:TrackPointExtension>
            <ns3:hr>91</ns3:hr>
            <ns3:cad>74</ns3:cad>
          </ns3:TrackPointExtension>
        </extensions>
      </trkpt>
      <trkpt lat="44.71268705092370510101318359375" lon="6.74345442093908786773681640625">
        <ele>1222.5999755859375</ele>
        <time>2026-09-03T06:00:32.000Z</time>
        <extensions>
          <ns3:TrackPointExtension>
            <ns3:hr>92</ns3:hr>
            <ns3:cad>74</ns3:cad>
          </ns3:TrackPointExtension>
        </extensions>
      </trkpt>
      <trkpt lat="44.71267841756343841552734375" lon="6.7434343881905078887939453125">
        <ele>1222.199951171875</ele>
        <time>2026-09-03T06:00:33.000Z</time>
        <extensions>
          <ns3:TrackPointExtension>
            <ns3:hr>93</ns3:hr>
            <ns3:cad>74</ns3:cad>
          </ns3:TrackPointExtension>
        </extensions>
      </trkpt>
      <trkpt lat="44.71266710199415683746337890625" lon="6.74341016449034214019775390625">
        <ele>1221.800048828125</ele>
        <time>2026-09-03T06:00:34.000Z</time>
        <extensions>
          <ns3:TrackPointExtension>
            <ns3:hr>93</ns3:hr>
            <ns3:cad>0</ns3:cad>
          </ns3:TrackPointExtension>
        </extensions>
      </trkpt>
      <trkpt lat="44.71265017054975032806396484375" lon="6.7434028722345829010009765625">
        <ele>1221.5999755859375</ele>
        <time>2026-09-03T06:00:35.000Z</time>
        <extensions>
          <ns3:TrackPointExtension>
            <ns3:hr>92</ns3:hr>
            <ns3:cad>0</ns3:cad>
          </ns3:TrackPointExtension>
        </extensions>
      </trkpt>
      <trkpt lat="44.71263189800083637237548828125" lon="6.7434011958539485931396484375">
        <ele>1221.199951171875</ele>
        <time>2026-09-03T06:00:36.000Z</time>
        <extensions>
          <ns3:TrackPointExtension>
            <ns3:hr>92</ns3:hr>
            <ns3:cad>0</ns3:cad>
          </ns3:TrackPointExtension>
        </extensions>
      </trkpt>
      <trkpt lat="44.71262049861252307891845703125" lon="6.74340002238750457763671875">
        <ele>1221</ele>
        <time>2026-09-03T06:00:37.000Z</time>
        <extensions>
          <ns3:TrackPointExtension>
            <ns3:hr>92</ns3:hr>
            <ns3:cad>0</ns3:cad>
          </ns3:TrackPointExtension>
        </extensions>
      </trkpt>
      <trkpt lat="44.7126105241477489471435546875" lon="6.7433995194733142852783203125">
        <ele>1220.5999755859375</ele>
        <time>2026-09-03T06:00:38.000Z</time>
        <extensions>
          <ns3:TrackPointExtension>
            <ns3:hr>92</ns3:hr>
            <ns3:cad>0</ns3:cad>
          </ns3:TrackPointExtension>
        </extensions>
      </trkpt>
      <trkpt lat="44.7126021422445774078369140625" lon="6.7434015311300754547119140625">
        <ele>1220.4000244140625</ele>
        <time>2026-09-03T06:00:39.000Z</time>
        <extensions>
          <ns3:TrackPointExtension>
            <ns3:hr>92</ns3:hr>
            <ns3:cad>0</ns3:cad>
          </ns3:TrackPointExtension>
        </extensions>
      </trkpt>
      <trkpt lat="44.71259619109332561492919921875" lon="6.74340681172907352447509765625">
        <ele>1220.199951171875</ele>
        <time>2026-09-03T06:00:40.000Z</time>
        <extensions>
          <ns3:TrackPointExtension>
            <ns3:hr>93</ns3:hr>
            <ns3:cad>0</ns3:cad>
          </ns3:TrackPointExtension>
        </extensions>
      </trkpt>
      <trkpt lat="44.7125927545130252838134765625" lon="6.74341435544192790985107421875">
        <ele>1220</ele>
        <time>2026-09-03T06:00:41.000Z</time>
        <extensions>
          <ns3:TrackPointExtension>
            <ns3:hr>93</ns3:hr>
            <ns3:cad>66</ns3:cad>
          </ns3:TrackPointExtension>
        </extensions>
      </trkpt>
      <trkpt lat="44.712591581046581268310546875" lon="6.74342072568833827972412109375">
        <ele>1219.800048828125</ele>
        <time>2026-09-03T06:00:42.000Z</time>
        <extensions>
          <ns3:TrackPointExtension>
            <ns3:hr>93</ns3:hr>
            <ns3:cad>66</ns3:cad>
          </ns3:TrackPointExtension>
        </extensions>
      </trkpt>
      <trkpt lat="44.7125944308936595916748046875" lon="6.7434189654886722564697265625">
        <ele>1219.4000244140625</ele>
        <time>2026-09-03T06:00:43.000Z</time>
        <extensions>
          <ns3:TrackPointExtension>
            <ns3:hr>93</ns3:hr>
            <ns3:cad>68</ns3:cad>
          </ns3:TrackPointExtension>
        </extensions>
      </trkpt>
      <trkpt lat="44.7125964425504207611083984375" lon="6.74342818558216094970703125">
        <ele>1219</ele>
        <time>2026-09-03T06:00:44.000Z</time>
        <extensions>
          <ns3:TrackPointExtension>
            <ns3:hr>93</ns3:hr>
            <ns3:cad>68</ns3:cad>
          </ns3:TrackPointExtension>
        </extensions>
      </trkpt>
      <trkpt lat="44.71259635873138904571533203125" lon="6.74344201572239398956298828125">
        <ele>1218.5999755859375</ele>
        <time>2026-09-03T06:00:45.000Z</time>
        <extensions>
          <ns3:TrackPointExtension>
            <ns3:hr>93</ns3:hr>
            <ns3:cad>68</ns3:cad>
          </ns3:TrackPointExtension>
        </extensions>
      </trkpt>
      <trkpt lat="44.71259451471269130706787109375" lon="6.74345559440553188323974609375">
        <ele>1218.4000244140625</ele>
        <time>2026-09-03T06:00:46.000Z</time>
        <extensions>
          <ns3:TrackPointExtension>
            <ns3:hr>93</ns3:hr>
            <ns3:cad>68</ns3:cad>
          </ns3:TrackPointExtension>
        </extensions>
      </trkpt>
      <trkpt lat="44.71259233541786670684814453125" lon="6.7434705980122089385986328125">
        <ele>1218</ele>
        <time>2026-09-03T06:00:47.000Z</time>
        <extensions>
          <ns3:TrackPointExtension>
            <ns3:hr>92</ns3:hr>
            <ns3:cad>68</ns3:cad>
          </ns3:TrackPointExtension>
        </extensions>
      </trkpt>
      <trkpt lat="44.71258898265659809112548828125" lon="6.74348811618983745574951171875">
        <ele>1217.5999755859375</ele>
        <time>2026-09-03T06:00:48.000Z</time>
        <extensions>
          <ns3:TrackPointExtension>
            <ns3:hr>93</ns3:hr>
            <ns3:cad>68</ns3:cad>
          </ns3:TrackPointExtension>
        </extensions>
      </trkpt>
      <trkpt lat="44.7125852108001708984375" lon="6.7435093224048614501953125">
        <ele>1217.4000244140625</ele>
        <time>2026-09-03T06:00:49.000Z</time>
        <extensions>
          <ns3:TrackPointExtension>
            <ns3:hr>92</ns3:hr>
            <ns3:cad>68</ns3:cad>
          </ns3:TrackPointExtension>
        </extensions>
      </trkpt>
      <trkpt lat="44.7125816904008388519287109375" lon="6.74352801404893398284912109375">
        <ele>1217.199951171875</ele>
        <time>2026-09-03T06:00:50.000Z</time>
        <extensions>
          <ns3:TrackPointExtension>
            <ns3:hr>92</ns3:hr>
            <ns3:cad>68</ns3:cad>
          </ns3:TrackPointExtension>
        </extensions>
      </trkpt>
      <trkpt lat="44.71257322467863559722900390625" lon="6.7435497231781482696533203125">
        <ele>1217</ele>
        <time>2026-09-03T06:00:51.000Z</time>
        <extensions>
          <ns3:TrackPointExtension>
            <ns3:hr>91</ns3:hr>
            <ns3:cad>68</ns3:cad>
          </ns3:TrackPointExtension>
        </extensions>
      </trkpt>
      <trkpt lat="44.7125602327287197113037109375" lon="6.74356020055711269378662109375">
        <ele>1216.800048828125</ele>
        <time>2026-09-03T06:00:52.000Z</time>
        <extensions>
          <ns3:TrackPointExtension>
            <ns3:hr>90</ns3:hr>
            <ns3:cad>68</ns3:cad>
          </ns3:TrackPointExtension>
        </extensions>
      </trkpt>
      <trkpt lat="44.71254606731235980987548828125" lon="6.74356891773641109466552734375">
        <ele>1216.5999755859375</ele>
        <time>2026-09-03T06:00:53.000Z</time>
        <extensions>
          <ns3:TrackPointExtension>
            <ns3:hr>89</ns3:hr>
            <ns3:cad>68</ns3:cad>
          </ns3:TrackPointExtension>
        </extensions>
      </trkpt>
      <trkpt lat="44.7125287167727947235107421875" lon="6.74356355331838130950927734375">
        <ele>1216.4000244140625</ele>
        <time>2026-09-03T06:00:54.000Z</time>
        <extensions>
          <ns3:TrackPointExtension>
            <ns3:hr>89</ns3:hr>
            <ns3:cad>64</ns3:cad>
          </ns3:TrackPointExtension>
        </extensions>
      </trkpt>
      <trkpt lat="44.71251606009900569915771484375" lon="6.74355424940586090087890625">
        <ele>1216.199951171875</ele>
        <time>2026-09-03T06:00:55.000Z</time>
        <extensions>
          <ns3:TrackPointExtension>
            <ns3:hr>89</ns3:hr>
            <ns3:cad>64</ns3:cad>
          </ns3:TrackPointExtension>
        </extensions>
      </trkpt>
      <trkpt lat="44.712497703731060028076171875" lon="6.74354293383657932281494140625">
        <ele>1215.800048828125</ele>
        <time>2026-09-03T06:00:56.000Z</time>
        <extensions>
          <ns3:TrackPointExtension>
            <ns3:hr>89</ns3:hr>
            <ns3:cad>64</ns3:cad>
          </ns3:TrackPointExtension>
        </extensions>
      </trkpt>
      <trkpt lat="44.71247800625860691070556640625" lon="6.74352583475410938262939453125">
        <ele>1215.4000244140625</ele>
        <time>2026-09-03T06:00:57.000Z</time>
        <extensions>
          <ns3:TrackPointExtension>
            <ns3:hr>89</ns3:hr>
            <ns3:cad>64</ns3:cad>
          </ns3:TrackPointExtension>
        </extensions>
      </trkpt>
      <trkpt lat="44.712463505566120147705078125" lon="6.7435108311474323272705078125">
        <ele>1215.199951171875</ele>
        <time>2026-09-03T06:00:58.000Z</time>
        <extensions>
          <ns3:TrackPointExtension>
            <ns3:hr>89</ns3:hr>
            <ns3:cad>64</ns3:cad>
          </ns3:TrackPointExtension>
        </extensions>
      </trkpt>
      <trkpt lat="44.712441377341747283935546875" lon="6.74348794855177402496337890625">
        <ele>1214.800048828125</ele>
        <time>2026-09-03T06:00:59.000Z</time>
        <extensions>
          <ns3:TrackPointExtension>
            <ns3:hr>88</ns3:hr>
            <ns3:cad>64</ns3:cad>
          </ns3:TrackPointExtension>
        </extensions>
      </trkpt>
      <trkpt lat="44.712423942983150482177734375" lon="6.74347219057381153106689453125">
        <ele>1214.4000244140625</ele>
        <time>2026-09-03T06:01:00.000Z</time>
        <extensions>
          <ns3:TrackPointExtension>
            <ns3:hr>88</ns3:hr>
            <ns3:cad>79</ns3:cad>
          </ns3:TrackPointExtension>
        </extensions>
      </trkpt>
      <trkpt lat="44.712401814758777618408203125" lon="6.7434545047581195831298828125">
        <ele>1214</ele>
        <time>2026-09-03T06:01:01.000Z</time>
        <extensions>
          <ns3:TrackPointExtension>
            <ns3:hr>88</ns3:hr>
            <ns3:cad>79</ns3:cad>
          </ns3:TrackPointExtension>
        </extensions>
      </trkpt>
      <trkpt lat="44.712414555251598358154296875" lon="6.74342156387865543365478515625">
        <ele>1213.5999755859375</ele>
        <time>2026-09-03T06:01:02.000Z</time>
        <extensions>
          <ns3:TrackPointExtension>
            <ns3:hr>88</ns3:hr>
            <ns3:cad>77</ns3:cad>
          </ns3:TrackPointExtension>
        </extensions>
      </trkpt>
      <trkpt lat="44.71242670901119709014892578125" lon="6.743393652141094207763671875">
        <ele>1213.4000244140625</ele>
        <time>2026-09-03T06:01:03.000Z</time>
        <extensions>
          <ns3:TrackPointExtension>
            <ns3:hr>88</ns3:hr>
            <ns3:cad>77</ns3:cad>
          </ns3:TrackPointExtension>
        </extensions>
      </trkpt>
      <trkpt lat="44.712440706789493560791015625" lon="6.74338887445628643035888671875">
        <ele>1213.199951171875</ele>
        <time>2026-09-03T06:01:04.000Z</time>
        <extensions>
          <ns3:TrackPointExtension>
            <ns3:hr>89</ns3:hr>
            <ns3:cad>81</ns3:cad>
          </ns3:TrackPointExtension>
        </extensions>
      </trkpt>
      <trkpt lat="44.712456129491329193115234375" lon="6.74338418059051036834716796875">
        <ele>1213</ele>
        <time>2026-09-03T06:01:05.000Z</time>
        <extensions>
          <ns3:TrackPointExtension>
            <ns3:hr>90</ns3:hr>
            <ns3:cad>81</ns3:cad>
          </ns3:TrackPointExtension>
        </extensions>
      </trkpt>
      <trkpt lat="44.71246392466127872467041015625" lon="6.74337747506797313690185546875">
        <ele>1213</ele>
        <time>2026-09-03T06:01:06.000Z</time>
        <extensions>
          <ns3:TrackPointExtension>
            <ns3:hr>90</ns3:hr>
            <ns3:cad>81</ns3:cad>
          </ns3:TrackPointExtension>
        </extensions>
      </trkpt>
      <trkpt lat="44.71246928907930850982666015625" lon="6.74336506985127925872802734375">
        <ele>1212.800048828125</ele>
        <time>2026-09-03T06:01:07.000Z</time>
        <extensions>
          <ns3:TrackPointExtension>
            <ns3:hr>91</ns3:hr>
            <ns3:cad>64</ns3:cad>
          </ns3:TrackPointExtension>
        </extensions>
      </trkpt>
      <trkpt lat="44.7124707140028476715087890625" lon="6.7433512397110462188720703125">
        <ele>1212.5999755859375</ele>
        <time>2026-09-03T06:01:08.000Z</time>
        <extensions>
          <ns3:TrackPointExtension>
            <ns3:hr>92</ns3:hr>
            <ns3:cad>64</ns3:cad>
          </ns3:TrackPointExtension>
        </extensions>
      </trkpt>
      <trkpt lat="44.71247180365025997161865234375" lon="6.743346042931079864501953125">
        <ele>1212.4000244140625</ele>
        <time>2026-09-03T06:01:09.000Z</time>
        <extensions>
          <ns3:TrackPointExtension>
            <ns3:hr>92</ns3:hr>
            <ns3:cad>64</ns3:cad>
          </ns3:TrackPointExtension>
        </extensions>
      </trkpt>
      <trkpt lat="44.71247515641152858734130859375" lon="6.7433294467628002166748046875">
        <ele>1212.4000244140625</ele>
        <time>2026-09-03T06:01:10.000Z</time>
        <extensions>
          <ns3:TrackPointExtension>
            <ns3:hr>92</ns3:hr>
            <ns3:cad>0</ns3:cad>
          </ns3:TrackPointExtension>
        </extensions>
      </trkpt>
      <trkpt lat="44.7124747373163700103759765625" lon="6.74331259913742542266845703125">
        <ele>1212.199951171875</ele>
        <time>2026-09-03T06:01:11.000Z</time>
        <extensions>
          <ns3:TrackPointExtension>
            <ns3:hr>92</ns3:hr>
            <ns3:cad>0</ns3:cad>
          </ns3:TrackPointExtension>
        </extensions>
      </trkpt>
      <trkpt lat="44.712475240230560302734375" lon="6.74330413341522216796875">
        <ele>1211.800048828125</ele>
        <time>2026-09-03T06:01:12.000Z</time>
        <extensions>
          <ns3:TrackPointExtension>
            <ns3:hr>91</ns3:hr>
            <ns3:cad>0</ns3:cad>
          </ns3:TrackPointExtension>
        </extensions>
      </trkpt>
      <trkpt lat="44.7124744020402431488037109375" lon="6.74328845925629138946533203125">
        <ele>1211.5999755859375</ele>
        <time>2026-09-03T06:01:13.000Z</time>
        <extensions>
          <ns3:TrackPointExtension>
            <ns3:hr>91</ns3:hr>
            <ns3:cad>0</ns3:cad>
          </ns3:TrackPointExtension>
        </extensions>
      </trkpt>
      <trkpt lat="44.71247448585927486419677734375" lon="6.74327689222991466522216796875">
        <ele>1211.4000244140625</ele>
        <time>2026-09-03T06:01:14.000Z</time>
        <extensions>
          <ns3:TrackPointExtension>
            <ns3:hr>90</ns3:hr>
            <ns3:cad>0</ns3:cad>
          </ns3:TrackPointExtension>
        </extensions>
      </trkpt>
      <trkpt lat="44.7124738991260528564453125" lon="6.7432667501270771026611328125">
        <ele>1211</ele>
        <time>2026-09-03T06:01:15.000Z</time>
        <extensions>
          <ns3:TrackPointExtension>
            <ns3:hr>90</ns3:hr>
            <ns3:cad>0</ns3:cad>
          </ns3:TrackPointExtension>
        </extensions>
      </trkpt>
      <trkpt lat="44.71246928907930850982666015625" lon="6.743267588317394256591796875">
        <ele>1210.800048828125</ele>
        <time>2026-09-03T06:01:16.000Z</time>
        <extensions>
          <ns3:TrackPointExtension>
            <ns3:hr>89</ns3:hr>
            <ns3:cad>0</ns3:cad>
          </ns3:TrackPointExtension>
        </extensions>
      </trkpt>
      <trkpt lat="44.71246526576578617095947265625" lon="6.74327018670737743377685546875">
        <ele>1210.5999755859375</ele>
        <time>2026-09-03T06:01:17.000Z</time>
        <extensions>
          <ns3:TrackPointExtension>
            <ns3:hr>89</ns3:hr>
            <ns3:cad>0</ns3:cad>
          </ns3:TrackPointExtension>
        </extensions>
      </trkpt>
      <trkpt lat="44.712456129491329193115234375" lon="6.74326716922223567962646484375">
        <ele>1210.4000244140625</ele>
        <time>2026-09-03T06:01:18.000Z</time>
        <extensions>
          <ns3:TrackPointExtension>
            <ns3:hr>88</ns3:hr>
            <ns3:cad>0</ns3:cad>
          </ns3:TrackPointExtension>
        </extensions>
      </trkpt>
      <trkpt lat="44.71245068125426769256591796875" lon="6.74327622167766094207763671875">
        <ele>1210.199951171875</ele>
        <time>2026-09-03T06:01:19.000Z</time>
        <extensions>
          <ns3:TrackPointExtension>
            <ns3:hr>88</ns3:hr>
            <ns3:cad>0</ns3:cad>
          </ns3:TrackPointExtension>
        </extensions>
      </trkpt>
      <trkpt lat="44.71244514919817447662353515625" lon="6.7432893812656402587890625">
        <ele>1210</ele>
        <time>2026-09-03T06:01:20.000Z</time>
        <extensions>
          <ns3:TrackPointExtension>
            <ns3:hr>89</ns3:hr>
            <ns3:cad>0</ns3:cad>
          </ns3:TrackPointExtension>
        </extensions>
      </trkpt>
      <trkpt lat="44.71244397573173046112060546875" lon="6.7432939074933528900146484375">
        <ele>1209.5999755859375</ele>
        <time>2026-09-03T06:01:21.000Z</time>
        <extensions>
          <ns3:TrackPointExtension>
            <ns3:hr>89</ns3:hr>
            <ns3:cad>0</ns3:cad>
          </ns3:TrackPointExtension>
        </extensions>
      </trkpt>
      <trkpt lat="44.71243710257112979888916015625" lon="6.7432974278926849365234375">
        <ele>1209.4000244140625</ele>
        <time>2026-09-03T06:01:22.000Z</time>
        <extensions>
          <ns3:TrackPointExtension>
            <ns3:hr>89</ns3:hr>
            <ns3:cad>0</ns3:cad>
          </ns3:TrackPointExtension>
        </extensions>
      </trkpt>
      <trkpt lat="44.71242888830602169036865234375" lon="6.74330069683492183685302734375">
        <ele>1209</ele>
        <time>2026-09-03T06:01:23.000Z</time>
        <extensions>
          <ns3:TrackPointExtension>
            <ns3:hr>88</ns3:hr>
            <ns3:cad>0</ns3:cad>
          </ns3:TrackPointExtension>
        </extensions>
      </trkpt>
      <trkpt lat="44.7124264575541019439697265625" lon="6.743297763168811798095703125">
        <ele>1208.800048828125</ele>
        <time>2026-09-03T06:01:24.000Z</time>
        <extensions>
          <ns3:TrackPointExtension>
            <ns3:hr>88</ns3:hr>
            <ns3:cad>66</ns3:cad>
          </ns3:TrackPointExtension>
        </extensions>
      </trkpt>
      <trkpt lat="44.71242151223123073577880859375" lon="6.7432965897023677825927734375">
        <ele>1208.5999755859375</ele>
        <time>2026-09-03T06:01:25.000Z</time>
        <extensions>
          <ns3:TrackPointExtension>
            <ns3:hr>88</ns3:hr>
            <ns3:cad>66</ns3:cad>
          </ns3:TrackPointExtension>
        </extensions>
      </trkpt>
      <trkpt lat="44.71241665072739124298095703125" lon="6.743297092616558074951171875">
        <ele>1208.199951171875</ele>
        <time>2026-09-03T06:01:26.000Z</time>
        <extensions>
          <ns3:TrackPointExtension>
            <ns3:hr>88</ns3:hr>
            <ns3:cad>66</ns3:cad>
          </ns3:TrackPointExtension>
        </extensions>
      </trkpt>
      <trkpt lat="44.71240391023457050323486328125" lon="6.7432922311127185821533203125">
        <ele>1208</ele>
        <time>2026-09-03T06:01:27.000Z</time>
        <extensions>
          <ns3:TrackPointExtension>
            <ns3:hr>87</ns3:hr>
            <ns3:cad>69</ns3:cad>
          </ns3:TrackPointExtension>
        </extensions>
      </trkpt>
      <trkpt lat="44.7123946063220500946044921875" lon="6.7432912252843379974365234375">
        <ele>1207.800048828125</ele>
        <time>2026-09-03T06:01:28.000Z</time>
        <extensions>
          <ns3:TrackPointExtension>
            <ns3:hr>88</ns3:hr>
            <ns3:cad>69</ns3:cad>
          </ns3:TrackPointExtension>
        </extensions>
      </trkpt>
      <trkpt lat="44.7123832069337368011474609375" lon="6.74328661523759365081787109375">
        <ele>1207.4000244140625</ele>
        <time>2026-09-03T06:01:29.000Z</time>
        <extensions>
          <ns3:TrackPointExtension>
            <ns3:hr>88</ns3:hr>
            <ns3:cad>69</ns3:cad>
          </ns3:TrackPointExtension>
        </extensions>
      </trkpt>
      <trkpt lat="44.7123734839260578155517578125" lon="6.7432858608663082122802734375">
        <ele>1207.199951171875</ele>
        <time>2026-09-03T06:01:30.000Z</time>
        <extensions>
          <ns3:TrackPointExtension>
            <ns3:hr>89</ns3:hr>
            <ns3:cad>69</ns3:cad>
          </ns3:TrackPointExtension>
        </extensions>
      </trkpt>
      <trkpt lat="44.7123637609183788299560546875" lon="6.74328527413308620452880859375">
        <ele>1207</ele>
        <time>2026-09-03T06:01:31.000Z</time>
        <extensions>
          <ns3:TrackPointExtension>
            <ns3:hr>88</ns3:hr>
            <ns3:cad>68</ns3:cad>
          </ns3:TrackPointExtension>
        </extensions>
      </trkpt>
      <trkpt lat="44.7123617492616176605224609375" lon="6.74328493885695934295654296875">
        <ele>1206.800048828125</ele>
        <time>2026-09-03T06:01:32.000Z</time>
        <extensions>
          <ns3:TrackPointExtension>
            <ns3:hr>88</ns3:hr>
            <ns3:cad>68</ns3:cad>
          </ns3:TrackPointExtension>
        </extensions>
      </trkpt>
      <trkpt lat="44.71235931850969791412353515625" lon="6.7432831786572933197021484375">
        <ele>1206.5999755859375</ele>
        <time>2026-09-03T06:01:33.000Z</time>
        <extensions>
          <ns3:TrackPointExtension>
            <ns3:hr>88</ns3:hr>
            <ns3:cad>68</ns3:cad>
          </ns3:TrackPointExtension>
        </extensions>
      </trkpt>
      <trkpt lat="44.7123585641384124755859375" lon="6.743279993534088134765625">
        <ele>1206.4000244140625</ele>
        <time>2026-09-03T06:01:34.000Z</time>
        <extensions>
          <ns3:TrackPointExtension>
            <ns3:hr>87</ns3:hr>
            <ns3:cad>68</ns3:cad>
          </ns3:TrackPointExtension>
        </extensions>
      </trkpt>
      <trkpt lat="44.7123433090746402740478515625" lon="6.7432758025825023651123046875">
        <ele>1206.199951171875</ele>
        <time>2026-09-03T06:01:35.000Z</time>
        <extensions>
          <ns3:TrackPointExtension>
            <ns3:hr>87</ns3:hr>
            <ns3:cad>70</ns3:cad>
          </ns3:TrackPointExtension>
        </extensions>
      </trkpt>
      <trkpt lat="44.712337441742420196533203125" lon="6.743283011019229888916015625">
        <ele>1205.800048828125</ele>
        <time>2026-09-03T06:01:36.000Z</time>
        <extensions>
          <ns3:TrackPointExtension>
            <ns3:hr>86</ns3:hr>
            <ns3:cad>70</ns3:cad>
          </ns3:TrackPointExtension>
        </extensions>
      </trkpt>
      <trkpt lat="44.712326042354106903076171875" lon="6.7432818375527858734130859375">
        <ele>1205.5999755859375</ele>
        <time>2026-09-03T06:01:37.000Z</time>
        <extensions>
          <ns3:TrackPointExtension>
            <ns3:hr>86</ns3:hr>
            <ns3:cad>70</ns3:cad>
          </ns3:TrackPointExtension>
        </extensions>
      </trkpt>
      <trkpt lat="44.712317325174808502197265625" lon="6.74328359775245189666748046875">
        <ele>1205.199951171875</ele>
        <time>2026-09-03T06:01:38.000Z</time>
        <extensions>
          <ns3:TrackPointExtension>
            <ns3:hr>86</ns3:hr>
            <ns3:cad>70</ns3:cad>
          </ns3:TrackPointExtension>
        </extensions>
      </trkpt>
      <trkpt lat="44.7123102843761444091796875" lon="6.74328661523759365081787109375">
        <ele>1204.800048828125</ele>
        <time>2026-09-03T06:01:39.000Z</time>
        <extensions>
          <ns3:TrackPointExtension>
            <ns3:hr>87</ns3:hr>
            <ns3:cad>75</ns3:cad>
          </ns3:TrackPointExtension>
        </extensions>
      </trkpt>
      <trkpt lat="44.712300561368465423583984375" lon="6.7432845197618007659912109375">
        <ele>1204.5999755859375</ele>
        <time>2026-09-03T06:01:40.000Z</time>
        <extensions>
          <ns3:TrackPointExtension>
            <ns3:hr>87</ns3:hr>
            <ns3:cad>75</ns3:cad>
          </ns3:TrackPointExtension>
        </extensions>
      </trkpt>
      <trkpt lat="44.71229016780853271484375" lon="6.74328091554343700408935546875">
        <ele>1204.199951171875</ele>
        <time>2026-09-03T06:01:41.000Z</time>
        <extensions>
          <ns3:TrackPointExtension>
            <ns3:hr>87</ns3:hr>
            <ns3:cad>75</ns3:cad>
          </ns3:TrackPointExtension>
        </extensions>
      </trkpt>
      <trkpt lat="44.7122786007821559906005859375" lon="6.74327638931572437286376953125">
        <ele>1204</ele>
        <time>2026-09-03T06:01:42.000Z</time>
        <extensions>
          <ns3:TrackPointExtension>
            <ns3:hr>88</ns3:hr>
            <ns3:cad>61</ns3:cad>
          </ns3:TrackPointExtension>
        </extensions>
      </trkpt>
      <trkpt lat="44.7122752480208873748779296875" lon="6.74327890388667583465576171875">
        <ele>1203.800048828125</ele>
        <time>2026-09-03T06:01:43.000Z</time>
        <extensions>
          <ns3:TrackPointExtension>
            <ns3:hr>88</ns3:hr>
            <ns3:cad>60</ns3:cad>
          </ns3:TrackPointExtension>
        </extensions>
      </trkpt>
      <trkpt lat="44.71226879395544528961181640625" lon="6.74327437765896320343017578125">
        <ele>1203.5999755859375</ele>
        <time>2026-09-03T06:01:44.000Z</time>
        <extensions>
          <ns3:TrackPointExtension>
            <ns3:hr>88</ns3:hr>
            <ns3:cad>0</ns3:cad>
          </ns3:TrackPointExtension>
        </extensions>
      </trkpt>
      <trkpt lat="44.7122618369758129119873046875" lon="6.74326968379318714141845703125">
        <ele>1203.4000244140625</ele>
        <time>2026-09-03T06:01:45.000Z</time>
        <extensions>
          <ns3:TrackPointExtension>
            <ns3:hr>88</ns3:hr>
            <ns3:cad>0</ns3:cad>
          </ns3:TrackPointExtension>
        </extensions>
      </trkpt>
      <trkpt lat="44.71225655637681484222412109375" lon="6.74326364882290363311767578125">
        <ele>1203</ele>
        <time>2026-09-03T06:01:46.000Z</time>
        <extensions>
          <ns3:TrackPointExtension>
            <ns3:hr>88</ns3:hr>
            <ns3:cad>0</ns3:cad>
          </ns3:TrackPointExtension>
        </extensions>
      </trkpt>
      <trkpt lat="44.7122593224048614501953125" lon="6.7432593740522861480712890625">
        <ele>1202.5999755859375</ele>
        <time>2026-09-03T06:01:47.000Z</time>
        <extensions>
          <ns3:TrackPointExtension>
            <ns3:hr>88</ns3:hr>
            <ns3:cad>0</ns3:cad>
          </ns3:TrackPointExtension>
        </extensions>
      </trkpt>
      <trkpt lat="44.7122645191848278045654296875" lon="6.74325660802423954010009765625">
        <ele>1202.4000244140625</ele>
        <time>2026-09-03T06:01:48.000Z</time>
        <extensions>
          <ns3:TrackPointExtension>
            <ns3:hr>88</ns3:hr>
            <ns3:cad>0</ns3:cad>
          </ns3:TrackPointExtension>
        </extensions>
      </trkpt>
      <trkpt lat="44.71226678229868412017822265625" lon="6.74325593747198581695556640625">
        <ele>1202</ele>
        <time>2026-09-03T06:01:49.000Z</time>
        <extensions>
          <ns3:TrackPointExtension>
            <ns3:hr>89</ns3:hr>
            <ns3:cad>0</ns3:cad>
          </ns3:TrackPointExtension>
        </extensions>
      </trkpt>
      <trkpt lat="44.71226812340319156646728515625" lon="6.74325543455779552459716796875">
        <ele>1201.800048828125</ele>
        <time>2026-09-03T06:01:50.000Z</time>
        <extensions>
          <ns3:TrackPointExtension>
            <ns3:hr>89</ns3:hr>
            <ns3:cad>71</ns3:cad>
          </ns3:TrackPointExtension>
        </extensions>
      </trkpt>
      <trkpt lat="44.712265022099018096923828125" lon="6.7432518303394317626953125">
        <ele>1201.5999755859375</ele>
        <time>2026-09-03T06:01:51.000Z</time>
        <extensions>
          <ns3:TrackPointExtension>
            <ns3:hr>90</ns3:hr>
            <ns3:cad>71</ns3:cad>
          </ns3:TrackPointExtension>
        </extensions>
      </trkpt>
      <trkpt lat="44.71226024441421031951904296875" lon="6.74324654974043369293212890625">
        <ele>1201.199951171875</ele>
        <time>2026-09-03T06:01:52.000Z</time>
        <extensions>
          <ns3:TrackPointExtension>
            <ns3:hr>91</ns3:hr>
            <ns3:cad>71</ns3:cad>
          </ns3:TrackPointExtension>
        </extensions>
      </trkpt>
      <trkpt lat="44.7122527845203876495361328125" lon="6.74324571155011653900146484375">
        <ele>1200.800048828125</ele>
        <time>2026-09-03T06:01:53.000Z</time>
        <extensions>
          <ns3:TrackPointExtension>
            <ns3:hr>92</ns3:hr>
            <ns3:cad>0</ns3:cad>
          </ns3:TrackPointExtension>
        </extensions>
      </trkpt>
      <trkpt lat="44.7122420556843280792236328125" lon="6.74324269406497478485107421875">
        <ele>1200.4000244140625</ele>
        <time>2026-09-03T06:01:54.000Z</time>
        <extensions>
          <ns3:TrackPointExtension>
            <ns3:hr>93</ns3:hr>
            <ns3:cad>0</ns3:cad>
          </ns3:TrackPointExtension>
        </extensions>
      </trkpt>
      <trkpt lat="44.712229482829570770263671875" lon="6.74323976039886474609375">
        <ele>1200</ele>
        <time>2026-09-03T06:01:55.000Z</time>
        <extensions>
          <ns3:TrackPointExtension>
            <ns3:hr>92</ns3:hr>
            <ns3:cad>51</ns3:cad>
          </ns3:TrackPointExtension>
        </extensions>
      </trkpt>
      <trkpt lat="44.71222101710736751556396484375" lon="6.74324177205562591552734375">
        <ele>1199.800048828125</ele>
        <time>2026-09-03T06:01:56.000Z</time>
        <extensions>
          <ns3:TrackPointExtension>
            <ns3:hr>92</ns3:hr>
            <ns3:cad>51</ns3:cad>
          </ns3:TrackPointExtension>
        </extensions>
      </trkpt>
      <trkpt lat="44.7122128866612911224365234375" lon="6.743243448436260223388671875">
        <ele>1199.5999755859375</ele>
        <time>2026-09-03T06:01:57.000Z</time>
        <extensions>
          <ns3:TrackPointExtension>
            <ns3:hr>91</ns3:hr>
            <ns3:cad>51</ns3:cad>
          </ns3:TrackPointExtension>
        </extensions>
      </trkpt>
      <trkpt lat="44.71220903098583221435546875" lon="6.74324579536914825439453125">
        <ele>1199.4000244140625</ele>
        <time>2026-09-03T06:01:58.000Z</time>
        <extensions>
          <ns3:TrackPointExtension>
            <ns3:hr>91</ns3:hr>
            <ns3:cad>51</ns3:cad>
          </ns3:TrackPointExtension>
        </extensions>
      </trkpt>
      <trkpt lat="44.7121981345117092132568359375" lon="6.7432412691414356231689453125">
        <ele>1199.199951171875</ele>
        <time>2026-09-03T06:01:59.000Z</time>
        <extensions>
          <ns3:TrackPointExtension>
            <ns3:hr>92</ns3:hr>
            <ns3:cad>59</ns3:cad>
          </ns3:TrackPointExtension>
        </extensions>
      </trkpt>
      <trkpt lat="44.71219427883625030517578125" lon="6.7432375811040401458740234375">
        <ele>1199.199951171875</ele>
        <time>2026-09-03T06:02:00.000Z</time>
        <extensions>
          <ns3:TrackPointExtension>
            <ns3:hr>91</ns3:hr>
            <ns3:cad>59</ns3:cad>
          </ns3:TrackPointExtension>
        </extensions>
      </trkpt>
      <trkpt lat="44.71219134517014026641845703125" lon="6.74323028884828090667724609375">
        <ele>1199</ele>
        <time>2026-09-03T06:02:01.000Z</time>
        <extensions>
          <ns3:TrackPointExtension>
            <ns3:hr>91</ns3:hr>
            <ns3:cad>59</ns3:cad>
          </ns3:TrackPointExtension>
        </extensions>
      </trkpt>
      <trkpt lat="44.7121843881905078887939453125" lon="6.74321788363158702850341796875">
        <ele>1199</ele>
        <time>2026-09-03T06:02:02.000Z</time>
        <extensions>
          <ns3:TrackPointExtension>
            <ns3:hr>90</ns3:hr>
            <ns3:cad>0</ns3:cad>
          </ns3:TrackPointExtension>
        </extensions>
      </trkpt>
      <trkpt lat="44.71217416226863861083984375" lon="6.743196509778499603271484375">
        <ele>1199</ele>
        <time>2026-09-03T06:02:03.000Z</time>
        <extensions>
          <ns3:TrackPointExtension>
            <ns3:hr>90</ns3:hr>
            <ns3:cad>0</ns3:cad>
          </ns3:TrackPointExtension>
        </extensions>
      </trkpt>
      <trkpt lat="44.712169133126735687255859375" lon="6.74317697994410991668701171875">
        <ele>1199</ele>
        <time>2026-09-03T06:02:04.000Z</time>
        <extensions>
          <ns3:TrackPointExtension>
            <ns3:hr>90</ns3:hr>
            <ns3:cad>0</ns3:cad>
          </ns3:TrackPointExtension>
        </extensions>
      </trkpt>
      <trkpt lat="44.71216402016580104827880859375" lon="6.7431577853858470916748046875">
        <ele>1199</ele>
        <time>2026-09-03T06:02:05.000Z</time>
        <extensions>
          <ns3:TrackPointExtension>
            <ns3:hr>90</ns3:hr>
            <ns3:cad>0</ns3:cad>
          </ns3:TrackPointExtension>
        </extensions>
      </trkpt>
      <trkpt lat="44.7121600806713104248046875" lon="6.74313691444694995880126953125">
        <ele>1199</ele>
        <time>2026-09-03T06:02:06.000Z</time>
        <extensions>
          <ns3:TrackPointExtension>
            <ns3:hr>90</ns3:hr>
            <ns3:cad>0</ns3:cad>
          </ns3:TrackPointExtension>
        </extensions>
      </trkpt>
      <trkpt lat="44.7121585719287395477294921875" lon="6.74312031827867031097412109375">
        <ele>1199</ele>
        <time>2026-09-03T06:02:07.000Z</time>
        <extensions>
          <ns3:TrackPointExtension>
            <ns3:hr>90</ns3:hr>
            <ns3:cad>0</ns3:cad>
          </ns3:TrackPointExtension>
        </extensions>
      </trkpt>
      <trkpt lat="44.712156392633914947509765625" lon="6.7431011237204074859619140625">
        <ele>1199</ele>
        <time>2026-09-03T06:02:08.000Z</time>
        <extensions>
          <ns3:TrackPointExtension>
            <ns3:hr>90</ns3:hr>
            <ns3:cad>0</ns3:cad>
          </ns3:TrackPointExtension>
        </extensions>
      </trkpt>
      <trkpt lat="44.71215404570102691650390625" lon="6.743079163134098052978515625">
        <ele>1198.800048828125</ele>
        <time>2026-09-03T06:02:09.000Z</time>
        <extensions>
          <ns3:TrackPointExtension>
            <ns3:hr>91</ns3:hr>
            <ns3:cad>0</ns3:cad>
          </ns3:TrackPointExtension>
        </extensions>
      </trkpt>
      <trkpt lat="44.712150357663631439208984375" lon="6.743054687976837158203125">
        <ele>1198.800048828125</ele>
        <time>2026-09-03T06:02:10.000Z</time>
        <extensions>
          <ns3:TrackPointExtension>
            <ns3:hr>91</ns3:hr>
            <ns3:cad>62</ns3:cad>
          </ns3:TrackPointExtension>
        </extensions>
      </trkpt>
      <trkpt lat="44.71214608289301395416259765625" lon="6.7430387623608112335205078125">
        <ele>1198.800048828125</ele>
        <time>2026-09-03T06:02:11.000Z</time>
        <extensions>
          <ns3:TrackPointExtension>
            <ns3:hr>91</ns3:hr>
            <ns3:cad>62</ns3:cad>
          </ns3:TrackPointExtension>
        </extensions>
      </trkpt>
      <trkpt lat="44.71213568933308124542236328125" lon="6.74302442930638790130615234375">
        <ele>1198.800048828125</ele>
        <time>2026-09-03T06:02:12.000Z</time>
        <extensions>
          <ns3:TrackPointExtension>
            <ns3:hr>91</ns3:hr>
            <ns3:cad>62</ns3:cad>
          </ns3:TrackPointExtension>
        </extensions>
      </trkpt>
      <trkpt lat="44.71212127245962619781494140625" lon="6.74300716258585453033447265625">
        <ele>1198.800048828125</ele>
        <time>2026-09-03T06:02:13.000Z</time>
        <extensions>
          <ns3:TrackPointExtension>
            <ns3:hr>92</ns3:hr>
            <ns3:cad>62</ns3:cad>
          </ns3:TrackPointExtension>
        </extensions>
      </trkpt>
      <trkpt lat="44.71210618503391742706298828125" lon="6.74298738129436969757080078125">
        <ele>1198.800048828125</ele>
        <time>2026-09-03T06:02:14.000Z</time>
        <extensions>
          <ns3:TrackPointExtension>
            <ns3:hr>92</ns3:hr>
            <ns3:cad>62</ns3:cad>
          </ns3:TrackPointExtension>
        </extensions>
      </trkpt>
      <trkpt lat="44.7120888344943523406982421875" lon="6.742965839803218841552734375">
        <ele>1198.800048828125</ele>
        <time>2026-09-03T06:02:15.000Z</time>
        <extensions>
          <ns3:TrackPointExtension>
            <ns3:hr>92</ns3:hr>
            <ns3:cad>63</ns3:cad>
          </ns3:TrackPointExtension>
        </extensions>
      </trkpt>
      <trkpt lat="44.712064526975154876708984375" lon="6.74293524585664272308349609375">
        <ele>1198.800048828125</ele>
        <time>2026-09-03T06:02:16.000Z</time>
        <extensions>
          <ns3:TrackPointExtension>
            <ns3:hr>92</ns3:hr>
            <ns3:cad>63</ns3:cad>
          </ns3:TrackPointExtension>
        </extensions>
      </trkpt>
      <trkpt lat="44.71204181201756000518798828125" lon="6.74291999079287052154541015625">
        <ele>1198.5999755859375</ele>
        <time>2026-09-03T06:02:17.000Z</time>
        <extensions>
          <ns3:TrackPointExtension>
            <ns3:hr>91</ns3:hr>
            <ns3:cad>61</ns3:cad>
          </ns3:TrackPointExtension>
        </extensions>
      </trkpt>
      <trkpt lat="44.71202186308801174163818359375" lon="6.74290305934846401214599609375">
        <ele>1198.5999755859375</ele>
        <time>2026-09-03T06:02:18.000Z</time>
        <extensions>
          <ns3:TrackPointExtension>
            <ns3:hr>92</ns3:hr>
            <ns3:cad>61</ns3:cad>
          </ns3:TrackPointExtension>
        </extensions>
      </trkpt>
      <trkpt lat="44.71200325526297092437744140625" lon="6.742889396846294403076171875">
        <ele>1198.4000244140625</ele>
        <time>2026-09-03T06:02:19.000Z</time>
        <extensions>
          <ns3:TrackPointExtension>
            <ns3:hr>92</ns3:hr>
            <ns3:cad>62</ns3:cad>
          </ns3:TrackPointExtension>
        </extensions>
      </trkpt>
      <trkpt lat="44.7119872458279132843017578125" lon="6.7428778298199176788330078125">
        <ele>1198.4000244140625</ele>
        <time>2026-09-03T06:02:20.000Z</time>
        <extensions>
          <ns3:TrackPointExtension>
            <ns3:hr>92</ns3:hr>
            <ns3:cad>64</ns3:cad>
          </ns3:TrackPointExtension>
        </extensions>
      </trkpt>
      <trkpt lat="44.71197299659252166748046875" lon="6.74286768771708011627197265625">
        <ele>1198.199951171875</ele>
        <time>2026-09-03T06:02:21.000Z</time>
        <extensions>
          <ns3:TrackPointExtension>
            <ns3:hr>93</ns3:hr>
            <ns3:cad>66</ns3:cad>
          </ns3:TrackPointExtension>
        </extensions>
      </trkpt>
      <trkpt lat="44.71196033991873264312744140625" lon="6.74286131747066974639892578125">
        <ele>1198.199951171875</ele>
        <time>2026-09-03T06:02:22.000Z</time>
        <extensions>
          <ns3:TrackPointExtension>
            <ns3:hr>94</ns3:hr>
            <ns3:cad>66</ns3:cad>
          </ns3:TrackPointExtension>
        </extensions>
      </trkpt>
      <trkpt lat="44.71195044927299022674560546875" lon="6.7428602278232574462890625">
        <ele>1198</ele>
        <time>2026-09-03T06:02:23.000Z</time>
        <extensions>
          <ns3:TrackPointExtension>
            <ns3:hr>95</ns3:hr>
            <ns3:cad>66</ns3:cad>
          </ns3:TrackPointExtension>
        </extensions>
      </trkpt>
      <trkpt lat="44.71194257028400897979736328125" lon="6.742861233651638031005859375">
        <ele>1198</ele>
        <time>2026-09-03T06:02:24.000Z</time>
        <extensions>
          <ns3:TrackPointExtension>
            <ns3:hr>96</ns3:hr>
            <ns3:cad>65</ns3:cad>
          </ns3:TrackPointExtension>
        </extensions>
      </trkpt>
      <trkpt lat="44.7119315899908542633056640625" lon="6.74286081455647945404052734375">
        <ele>1198</ele>
        <time>2026-09-03T06:02:25.000Z</time>
        <extensions>
          <ns3:TrackPointExtension>
            <ns3:hr>96</ns3:hr>
            <ns3:cad>65</ns3:cad>
          </ns3:TrackPointExtension>
        </extensions>
      </trkpt>
      <trkpt lat="44.71191667020320892333984375" lon="6.742865927517414093017578125">
        <ele>1198.199951171875</ele>
        <time>2026-09-03T06:02:26.000Z</time>
        <extensions>
          <ns3:TrackPointExtension>
            <ns3:hr>96</ns3:hr>
            <ns3:cad>64</ns3:cad>
          </ns3:TrackPointExtension>
        </extensions>
      </trkpt>
      <trkpt lat="44.71190535463392734527587890625" lon="6.74286500550806522369384765625">
        <ele>1198.199951171875</ele>
        <time>2026-09-03T06:02:27.000Z</time>
        <extensions>
          <ns3:TrackPointExtension>
            <ns3:hr>97</ns3:hr>
            <ns3:cad>64</ns3:cad>
          </ns3:TrackPointExtension>
        </extensions>
      </trkpt>
      <trkpt lat="44.71189328469336032867431640625" lon="6.7428644187748432159423828125">
        <ele>1198.199951171875</ele>
        <time>2026-09-03T06:02:28.000Z</time>
        <extensions>
          <ns3:TrackPointExtension>
            <ns3:hr>97</ns3:hr>
            <ns3:cad>64</ns3:cad>
          </ns3:TrackPointExtension>
        </extensions>
      </trkpt>
      <trkpt lat="44.71188180148601531982421875" lon="6.74286425113677978515625">
        <ele>1198.199951171875</ele>
        <time>2026-09-03T06:02:29.000Z</time>
        <extensions>
          <ns3:TrackPointExtension>
            <ns3:hr>96</ns3:hr>
            <ns3:cad>64</ns3:cad>
          </ns3:TrackPointExtension>
        </extensions>
      </trkpt>
      <trkpt lat="44.71186763606965541839599609375" lon="6.74286383204162120819091796875">
        <ele>1198.199951171875</ele>
        <time>2026-09-03T06:02:30.000Z</time>
        <extensions>
          <ns3:TrackPointExtension>
            <ns3:hr>96</ns3:hr>
            <ns3:cad>64</ns3:cad>
          </ns3:TrackPointExtension>
        </extensions>
      </trkpt>
      <trkpt lat="44.7118507884442806243896484375" lon="6.7428664304316043853759765625">
        <ele>1198.199951171875</ele>
        <time>2026-09-03T06:02:31.000Z</time>
        <extensions>
          <ns3:TrackPointExtension>
            <ns3:hr>96</ns3:hr>
            <ns3:cad>64</ns3:cad>
          </ns3:TrackPointExtension>
        </extensions>
      </trkpt>
      <trkpt lat="44.7118360362946987152099609375" lon="6.7428674362599849700927734375">
        <ele>1198.199951171875</ele>
        <time>2026-09-03T06:02:32.000Z</time>
        <extensions>
          <ns3:TrackPointExtension>
            <ns3:hr>95</ns3:hr>
            <ns3:cad>64</ns3:cad>
          </ns3:TrackPointExtension>
        </extensions>
      </trkpt>
      <trkpt lat="44.71182145178318023681640625" lon="6.74286567606031894683837890625">
        <ele>1198.199951171875</ele>
        <time>2026-09-03T06:02:33.000Z</time>
        <extensions>
          <ns3:TrackPointExtension>
            <ns3:hr>95</ns3:hr>
            <ns3:cad>64</ns3:cad>
          </ns3:TrackPointExtension>
        </extensions>
      </trkpt>
      <trkpt lat="44.71180644817650318145751953125" lon="6.74286358058452606201171875">
        <ele>1198.199951171875</ele>
        <time>2026-09-03T06:02:34.000Z</time>
        <extensions>
          <ns3:TrackPointExtension>
            <ns3:hr>94</ns3:hr>
            <ns3:cad>64</ns3:cad>
          </ns3:TrackPointExtension>
        </extensions>
      </trkpt>
      <trkpt lat="44.711792953312397003173828125" lon="6.74286483787000179290771484375">
        <ele>1198.199951171875</ele>
        <time>2026-09-03T06:02:35.000Z</time>
        <extensions>
          <ns3:TrackPointExtension>
            <ns3:hr>94</ns3:hr>
            <ns3:cad>62</ns3:cad>
          </ns3:TrackPointExtension>
        </extensions>
      </trkpt>
      <trkpt lat="44.71177610568702220916748046875" lon="6.74287003464996814727783203125">
        <ele>1198.199951171875</ele>
        <time>2026-09-03T06:02:36.000Z</time>
        <extensions>
          <ns3:TrackPointExtension>
            <ns3:hr>94</ns3:hr>
            <ns3:cad>61</ns3:cad>
          </ns3:TrackPointExtension>
        </extensions>
      </trkpt>
      <trkpt lat="44.71176604740321636199951171875" lon="6.74288076348602771759033203125">
        <ele>1198</ele>
        <time>2026-09-03T06:02:37.000Z</time>
        <extensions>
          <ns3:TrackPointExtension>
            <ns3:hr>94</ns3:hr>
            <ns3:cad>61</ns3:cad>
          </ns3:TrackPointExtension>
        </extensions>
      </trkpt>
      <trkpt lat="44.7117523849010467529296875" lon="6.7428892292082309722900390625">
        <ele>1198</ele>
        <time>2026-09-03T06:02:38.000Z</time>
        <extensions>
          <ns3:TrackPointExtension>
            <ns3:hr>94</ns3:hr>
            <ns3:cad>62</ns3:cad>
          </ns3:TrackPointExtension>
        </extensions>
      </trkpt>
      <trkpt lat="44.7117367945611476898193359375" lon="6.742901466786861419677734375">
        <ele>1198</ele>
        <time>2026-09-03T06:02:39.000Z</time>
        <extensions>
          <ns3:TrackPointExtension>
            <ns3:hr>95</ns3:hr>
            <ns3:cad>62</ns3:cad>
          </ns3:TrackPointExtension>
        </extensions>
      </trkpt>
      <trkpt lat="44.71172397024929523468017578125" lon="6.7429130338132381439208984375">
        <ele>1198</ele>
        <time>2026-09-03T06:02:40.000Z</time>
        <extensions>
          <ns3:TrackPointExtension>
            <ns3:hr>94</ns3:hr>
            <ns3:cad>63</ns3:cad>
          </ns3:TrackPointExtension>
        </extensions>
      </trkpt>
      <trkpt lat="44.71171072684228420257568359375" lon="6.74292334355413913726806640625">
        <ele>1198</ele>
        <time>2026-09-03T06:02:41.000Z</time>
        <extensions>
          <ns3:TrackPointExtension>
            <ns3:hr>95</ns3:hr>
            <ns3:cad>63</ns3:cad>
          </ns3:TrackPointExtension>
        </extensions>
      </trkpt>
      <trkpt lat="44.71170066855847835540771484375" lon="6.742931306362152099609375">
        <ele>1198</ele>
        <time>2026-09-03T06:02:42.000Z</time>
        <extensions>
          <ns3:TrackPointExtension>
            <ns3:hr>95</ns3:hr>
            <ns3:cad>62</ns3:cad>
          </ns3:TrackPointExtension>
        </extensions>
      </trkpt>
      <trkpt lat="44.711681306362152099609375" lon="6.74295485951006412506103515625">
        <ele>1198.199951171875</ele>
        <time>2026-09-03T06:02:43.000Z</time>
        <extensions>
          <ns3:TrackPointExtension>
            <ns3:hr>95</ns3:hr>
            <ns3:cad>62</ns3:cad>
          </ns3:TrackPointExtension>
        </extensions>
      </trkpt>
      <trkpt lat="44.71166864968836307525634765625" lon="6.74297598190605640411376953125">
        <ele>1198.199951171875</ele>
        <time>2026-09-03T06:02:44.000Z</time>
        <extensions>
          <ns3:TrackPointExtension>
            <ns3:hr>95</ns3:hr>
            <ns3:cad>62</ns3:cad>
          </ns3:TrackPointExtension>
        </extensions>
      </trkpt>
      <trkpt lat="44.7116583399474620819091796875" lon="6.74299559555947780609130859375">
        <ele>1198.199951171875</ele>
        <time>2026-09-03T06:02:45.000Z</time>
        <extensions>
          <ns3:TrackPointExtension>
            <ns3:hr>95</ns3:hr>
            <ns3:cad>61</ns3:cad>
          </ns3:TrackPointExtension>
        </extensions>
      </trkpt>
      <trkpt lat="44.71164979040622711181640625" lon="6.743014790117740631103515625">
        <ele>1198.4000244140625</ele>
        <time>2026-09-03T06:02:46.000Z</time>
        <extensions>
          <ns3:TrackPointExtension>
            <ns3:hr>96</ns3:hr>
            <ns3:cad>61</ns3:cad>
          </ns3:TrackPointExtension>
        </extensions>
      </trkpt>
      <trkpt lat="44.711642079055309295654296875" lon="6.74303314648568630218505859375">
        <ele>1198.4000244140625</ele>
        <time>2026-09-03T06:02:47.000Z</time>
        <extensions>
          <ns3:TrackPointExtension>
            <ns3:hr>96</ns3:hr>
            <ns3:cad>61</ns3:cad>
          </ns3:TrackPointExtension>
        </extensions>
      </trkpt>
      <trkpt lat="44.71163562498986721038818359375" lon="6.7430511675775051116943359375">
        <ele>1198.5999755859375</ele>
        <time>2026-09-03T06:02:48.000Z</time>
        <extensions>
          <ns3:TrackPointExtension>
            <ns3:hr>96</ns3:hr>
            <ns3:cad>61</ns3:cad>
          </ns3:TrackPointExtension>
        </extensions>
      </trkpt>
      <trkpt lat="44.7116301767528057098388671875" lon="6.7430672608315944671630859375">
        <ele>1198.5999755859375</ele>
        <time>2026-09-03T06:02:49.000Z</time>
        <extensions>
          <ns3:TrackPointExtension>
            <ns3:hr>96</ns3:hr>
            <ns3:cad>61</ns3:cad>
          </ns3:TrackPointExtension>
        </extensions>
      </trkpt>
      <trkpt lat="44.71162439323961734771728515625" lon="6.74308695830404758453369140625">
        <ele>1198.5999755859375</ele>
        <time>2026-09-03T06:02:50.000Z</time>
        <extensions>
          <ns3:TrackPointExtension>
            <ns3:hr>97</ns3:hr>
            <ns3:cad>61</ns3:cad>
          </ns3:TrackPointExtension>
        </extensions>
      </trkpt>
      <trkpt lat="44.7116196155548095703125" lon="6.74310640431940555572509765625">
        <ele>1198.5999755859375</ele>
        <time>2026-09-03T06:02:51.000Z</time>
        <extensions>
          <ns3:TrackPointExtension>
            <ns3:hr>98</ns3:hr>
            <ns3:cad>61</ns3:cad>
          </ns3:TrackPointExtension>
        </extensions>
      </trkpt>
      <trkpt lat="44.71161399967968463897705078125" lon="6.74312735907733440399169921875">
        <ele>1198.5999755859375</ele>
        <time>2026-09-03T06:02:52.000Z</time>
        <extensions>
          <ns3:TrackPointExtension>
            <ns3:hr>99</ns3:hr>
            <ns3:cad>61</ns3:cad>
          </ns3:TrackPointExtension>
        </extensions>
      </trkpt>
      <trkpt lat="44.7116087190806865692138671875" lon="6.74314646981656551361083984375">
        <ele>1198.5999755859375</ele>
        <time>2026-09-03T06:02:53.000Z</time>
        <extensions>
          <ns3:TrackPointExtension>
            <ns3:hr>101</ns3:hr>
            <ns3:cad>64</ns3:cad>
          </ns3:TrackPointExtension>
        </extensions>
      </trkpt>
      <trkpt lat="44.71160285174846649169921875" lon="6.74316591583192348480224609375">
        <ele>1198.800048828125</ele>
        <time>2026-09-03T06:02:54.000Z</time>
        <extensions>
          <ns3:TrackPointExtension>
            <ns3:hr>102</ns3:hr>
            <ns3:cad>64</ns3:cad>
          </ns3:TrackPointExtension>
        </extensions>
      </trkpt>
      <trkpt lat="44.71160008572041988372802734375" lon="6.7431829310953617095947265625">
        <ele>1198.800048828125</ele>
        <time>2026-09-03T06:02:55.000Z</time>
        <extensions>
          <ns3:TrackPointExtension>
            <ns3:hr>102</ns3:hr>
            <ns3:cad>64</ns3:cad>
          </ns3:TrackPointExtension>
        </extensions>
      </trkpt>
      <trkpt lat="44.71158541738986968994140625" lon="6.743199191987514495849609375">
        <ele>1198.800048828125</ele>
        <time>2026-09-03T06:02:56.000Z</time>
        <extensions>
          <ns3:TrackPointExtension>
            <ns3:hr>103</ns3:hr>
            <ns3:cad>64</ns3:cad>
          </ns3:TrackPointExtension>
        </extensions>
      </trkpt>
      <trkpt lat="44.7115755267441272735595703125" lon="6.74321905709803104400634765625">
        <ele>1198.800048828125</ele>
        <time>2026-09-03T06:02:57.000Z</time>
        <extensions>
          <ns3:TrackPointExtension>
            <ns3:hr>103</ns3:hr>
            <ns3:cad>64</ns3:cad>
          </ns3:TrackPointExtension>
        </extensions>
      </trkpt>
      <trkpt lat="44.71156773157417774200439453125" lon="6.74323531799018383026123046875">
        <ele>1198.800048828125</ele>
        <time>2026-09-03T06:02:58.000Z</time>
        <extensions>
          <ns3:TrackPointExtension>
            <ns3:hr>104</ns3:hr>
            <ns3:cad>62</ns3:cad>
          </ns3:TrackPointExtension>
        </extensions>
      </trkpt>
      <trkpt lat="44.71156119368970394134521484375" lon="6.743251495063304901123046875">
        <ele>1198.800048828125</ele>
        <time>2026-09-03T06:02:59.000Z</time>
        <extensions>
          <ns3:TrackPointExtension>
            <ns3:hr>104</ns3:hr>
            <ns3:cad>62</ns3:cad>
          </ns3:TrackPointExtension>
        </extensions>
      </trkpt>
      <trkpt lat="44.7115547396242618560791015625" lon="6.74326918087899684906005859375">
        <ele>1198.800048828125</ele>
        <time>2026-09-03T06:03:00.000Z</time>
        <extensions>
          <ns3:TrackPointExtension>
            <ns3:hr>105</ns3:hr>
            <ns3:cad>62</ns3:cad>
          </ns3:TrackPointExtension>
        </extensions>
      </trkpt>
      <trkpt lat="44.71154929138720035552978515625" lon="6.74328443594276905059814453125">
        <ele>1198.800048828125</ele>
        <time>2026-09-03T06:03:01.000Z</time>
        <extensions>
          <ns3:TrackPointExtension>
            <ns3:hr>105</ns3:hr>
            <ns3:cad>63</ns3:cad>
          </ns3:TrackPointExtension>
        </extensions>
      </trkpt>
      <trkpt lat="44.71154610626399517059326171875" lon="6.74329918809235095977783203125">
        <ele>1198.800048828125</ele>
        <time>2026-09-03T06:03:02.000Z</time>
        <extensions>
          <ns3:TrackPointExtension>
            <ns3:hr>106</ns3:hr>
            <ns3:cad>63</ns3:cad>
          </ns3:TrackPointExtension>
        </extensions>
      </trkpt>
      <trkpt lat="44.71154090948402881622314453125" lon="6.74331762827932834625244140625">
        <ele>1198.800048828125</ele>
        <time>2026-09-03T06:03:03.000Z</time>
        <extensions>
          <ns3:TrackPointExtension>
            <ns3:hr>106</ns3:hr>
            <ns3:cad>63</ns3:cad>
          </ns3:TrackPointExtension>
        </extensions>
      </trkpt>
      <trkpt lat="44.7115378081798553466796875" lon="6.7433327995240688323974609375">
        <ele>1198.800048828125</ele>
        <time>2026-09-03T06:03:04.000Z</time>
        <extensions>
          <ns3:TrackPointExtension>
            <ns3:hr>107</ns3:hr>
            <ns3:cad>63</ns3:cad>
          </ns3:TrackPointExtension>
        </extensions>
      </trkpt>
      <trkpt lat="44.711534790694713592529296875" lon="6.74334746785461902618408203125">
        <ele>1198.800048828125</ele>
        <time>2026-09-03T06:03:05.000Z</time>
        <extensions>
          <ns3:TrackPointExtension>
            <ns3:hr>107</ns3:hr>
            <ns3:cad>62</ns3:cad>
          </ns3:TrackPointExtension>
        </extensions>
      </trkpt>
      <trkpt lat="44.7115329466760158538818359375" lon="6.74335953779518604278564453125">
        <ele>1198.800048828125</ele>
        <time>2026-09-03T06:03:06.000Z</time>
        <extensions>
          <ns3:TrackPointExtension>
            <ns3:hr>108</ns3:hr>
            <ns3:cad>62</ns3:cad>
          </ns3:TrackPointExtension>
        </extensions>
      </trkpt>
      <trkpt lat="44.71153034828603267669677734375" lon="6.7433726973831653594970703125">
        <ele>1198.800048828125</ele>
        <time>2026-09-03T06:03:07.000Z</time>
        <extensions>
          <ns3:TrackPointExtension>
            <ns3:hr>108</ns3:hr>
            <ns3:cad>61</ns3:cad>
          </ns3:TrackPointExtension>
        </extensions>
      </trkpt>
      <trkpt lat="44.71152909100055694580078125" lon="6.7433886229991912841796875">
        <ele>1198.800048828125</ele>
        <time>2026-09-03T06:03:08.000Z</time>
        <extensions>
          <ns3:TrackPointExtension>
            <ns3:hr>109</ns3:hr>
            <ns3:cad>60</ns3:cad>
          </ns3:TrackPointExtension>
        </extensions>
      </trkpt>
      <trkpt lat="44.71152640879154205322265625" lon="6.74340832047164440155029296875">
        <ele>1199</ele>
        <time>2026-09-03T06:03:09.000Z</time>
        <extensions>
          <ns3:TrackPointExtension>
            <ns3:hr>109</ns3:hr>
            <ns3:cad>60</ns3:cad>
          </ns3:TrackPointExtension>
        </extensions>
      </trkpt>
      <trkpt lat="44.71152330748736858367919921875" lon="6.74342558719217777252197265625">
        <ele>1199</ele>
        <time>2026-09-03T06:03:10.000Z</time>
        <extensions>
          <ns3:TrackPointExtension>
            <ns3:hr>110</ns3:hr>
            <ns3:cad>59</ns3:cad>
          </ns3:TrackPointExtension>
        </extensions>
      </trkpt>
      <trkpt lat="44.71151995472609996795654296875" lon="6.74343832768499851226806640625">
        <ele>1199</ele>
        <time>2026-09-03T06:03:11.000Z</time>
        <extensions>
          <ns3:TrackPointExtension>
            <ns3:hr>110</ns3:hr>
            <ns3:cad>59</ns3:cad>
          </ns3:TrackPointExtension>
        </extensions>
      </trkpt>
      <trkpt lat="44.71151836216449737548828125" lon="6.74344620667397975921630859375">
        <ele>1199</ele>
        <time>2026-09-03T06:03:12.000Z</time>
        <extensions>
          <ns3:TrackPointExtension>
            <ns3:hr>110</ns3:hr>
            <ns3:cad>59</ns3:cad>
          </ns3:TrackPointExtension>
        </extensions>
      </trkpt>
      <trkpt lat="44.711515344679355621337890625" lon="6.7434571869671344757080078125">
        <ele>1199</ele>
        <time>2026-09-03T06:03:13.000Z</time>
        <extensions>
          <ns3:TrackPointExtension>
            <ns3:hr>110</ns3:hr>
            <ns3:cad>59</ns3:cad>
          </ns3:TrackPointExtension>
        </extensions>
      </trkpt>
      <trkpt lat="44.71151274628937244415283203125" lon="6.7434695921838283538818359375">
        <ele>1199</ele>
        <time>2026-09-03T06:03:14.000Z</time>
        <extensions>
          <ns3:TrackPointExtension>
            <ns3:hr>109</ns3:hr>
            <ns3:cad>0</ns3:cad>
          </ns3:TrackPointExtension>
        </extensions>
      </trkpt>
      <trkpt lat="44.7115114890038967132568359375" lon="6.74347244203090667724609375">
        <ele>1199</ele>
        <time>2026-09-03T06:03:15.000Z</time>
        <extensions>
          <ns3:TrackPointExtension>
            <ns3:hr>109</ns3:hr>
            <ns3:cad>0</ns3:cad>
          </ns3:TrackPointExtension>
        </extensions>
      </trkpt>
      <trkpt lat="44.71151299774646759033203125" lon="6.7434771358966827392578125">
        <ele>1199.199951171875</ele>
        <time>2026-09-03T06:03:16.000Z</time>
        <extensions>
          <ns3:TrackPointExtension>
            <ns3:hr>108</ns3:hr>
            <ns3:cad>0</ns3:cad>
          </ns3:TrackPointExtension>
        </extensions>
      </trkpt>
      <trkpt lat="44.7115168534219264984130859375" lon="6.7434830032289028167724609375">
        <ele>1199.199951171875</ele>
        <time>2026-09-03T06:03:17.000Z</time>
        <extensions>
          <ns3:TrackPointExtension>
            <ns3:hr>108</ns3:hr>
            <ns3:cad>0</ns3:cad>
          </ns3:TrackPointExtension>
        </extensions>
      </trkpt>
      <trkpt lat="44.71151526086032390594482421875" lon="6.7434994317591190338134765625">
        <ele>1199.199951171875</ele>
        <time>2026-09-03T06:03:18.000Z</time>
        <extensions>
          <ns3:TrackPointExtension>
            <ns3:hr>108</ns3:hr>
            <ns3:cad>0</ns3:cad>
          </ns3:TrackPointExtension>
        </extensions>
      </trkpt>
      <trkpt lat="44.71151442267000675201416015625" lon="6.74351577647030353546142578125">
        <ele>1199.199951171875</ele>
        <time>2026-09-03T06:03:19.000Z</time>
        <extensions>
          <ns3:TrackPointExtension>
            <ns3:hr>107</ns3:hr>
            <ns3:cad>0</ns3:cad>
          </ns3:TrackPointExtension>
        </extensions>
      </trkpt>
      <trkpt lat="44.7115136682987213134765625" lon="6.7435319535434246063232421875">
        <ele>1199.199951171875</ele>
        <time>2026-09-03T06:03:20.000Z</time>
        <extensions>
          <ns3:TrackPointExtension>
            <ns3:hr>108</ns3:hr>
            <ns3:cad>0</ns3:cad>
          </ns3:TrackPointExtension>
        </extensions>
      </trkpt>
      <trkpt lat="44.7115136682987213134765625" lon="6.7435455322265625">
        <ele>1199.199951171875</ele>
        <time>2026-09-03T06:03:21.000Z</time>
        <extensions>
          <ns3:TrackPointExtension>
            <ns3:hr>108</ns3:hr>
            <ns3:cad>0</ns3:cad>
          </ns3:TrackPointExtension>
        </extensions>
      </trkpt>
      <trkpt lat="44.71150872297585010528564453125" lon="6.7435658164322376251220703125">
        <ele>1199.199951171875</ele>
        <time>2026-09-03T06:03:22.000Z</time>
        <extensions>
          <ns3:TrackPointExtension>
            <ns3:hr>108</ns3:hr>
            <ns3:cad>0</ns3:cad>
          </ns3:TrackPointExtension>
        </extensions>
      </trkpt>
      <trkpt lat="44.71150687895715236663818359375" lon="6.743583418428897857666015625">
        <ele>1199.199951171875</ele>
        <time>2026-09-03T06:03:23.000Z</time>
        <extensions>
          <ns3:TrackPointExtension>
            <ns3:hr>108</ns3:hr>
            <ns3:cad>52</ns3:cad>
          </ns3:TrackPointExtension>
        </extensions>
      </trkpt>
      <trkpt lat="44.711505286395549774169921875" lon="6.74359741620719432830810546875">
        <ele>1199.4000244140625</ele>
        <time>2026-09-03T06:03:24.000Z</time>
        <extensions>
          <ns3:TrackPointExtension>
            <ns3:hr>108</ns3:hr>
            <ns3:cad>53</ns3:cad>
          </ns3:TrackPointExtension>
        </extensions>
      </trkpt>
      <trkpt lat="44.71150352619588375091552734375" lon="6.7436104081571102142333984375">
        <ele>1199.4000244140625</ele>
        <time>2026-09-03T06:03:25.000Z</time>
        <extensions>
          <ns3:TrackPointExtension>
            <ns3:hr>108</ns3:hr>
            <ns3:cad>53</ns3:cad>
          </ns3:TrackPointExtension>
        </extensions>
      </trkpt>
      <trkpt lat="44.71150034107267856597900390625" lon="6.74362398684024810791015625">
        <ele>1199.4000244140625</ele>
        <time>2026-09-03T06:03:26.000Z</time>
        <extensions>
          <ns3:TrackPointExtension>
            <ns3:hr>108</ns3:hr>
            <ns3:cad>54</ns3:cad>
          </ns3:TrackPointExtension>
        </extensions>
      </trkpt>
      <trkpt lat="44.71149832941591739654541015625" lon="6.74363429658114910125732421875">
        <ele>1199.5999755859375</ele>
        <time>2026-09-03T06:03:27.000Z</time>
        <extensions>
          <ns3:TrackPointExtension>
            <ns3:hr>108</ns3:hr>
            <ns3:cad>56</ns3:cad>
          </ns3:TrackPointExtension>
        </extensions>
      </trkpt>
      <trkpt lat="44.71149564720690250396728515625" lon="6.74364401958882808685302734375">
        <ele>1199.5999755859375</ele>
        <time>2026-09-03T06:03:28.000Z</time>
        <extensions>
          <ns3:TrackPointExtension>
            <ns3:hr>108</ns3:hr>
            <ns3:cad>57</ns3:cad>
          </ns3:TrackPointExtension>
        </extensions>
      </trkpt>
      <trkpt lat="44.71149397082626819610595703125" lon="6.74365122802555561065673828125">
        <ele>1199.800048828125</ele>
        <time>2026-09-03T06:03:29.000Z</time>
        <extensions>
          <ns3:TrackPointExtension>
            <ns3:hr>108</ns3:hr>
            <ns3:cad>57</ns3:cad>
          </ns3:TrackPointExtension>
        </extensions>
      </trkpt>
      <trkpt lat="44.711491875350475311279296875" lon="6.74365340732038021087646484375">
        <ele>1199.800048828125</ele>
        <time>2026-09-03T06:03:30.000Z</time>
        <extensions>
          <ns3:TrackPointExtension>
            <ns3:hr>108</ns3:hr>
            <ns3:cad>57</ns3:cad>
          </ns3:TrackPointExtension>
        </extensions>
      </trkpt>
      <trkpt lat="44.71149154007434844970703125" lon="6.743651814758777618408203125">
        <ele>1199.800048828125</ele>
        <time>2026-09-03T06:03:31.000Z</time>
        <extensions>
          <ns3:TrackPointExtension>
            <ns3:hr>108</ns3:hr>
            <ns3:cad>0</ns3:cad>
          </ns3:TrackPointExtension>
        </extensions>
      </trkpt>
      <trkpt lat="44.71149045042693614959716796875" lon="6.7436503060162067413330078125">
        <ele>1199.800048828125</ele>
        <time>2026-09-03T06:03:32.000Z</time>
        <extensions>
          <ns3:TrackPointExtension>
            <ns3:hr>108</ns3:hr>
            <ns3:cad>0</ns3:cad>
          </ns3:TrackPointExtension>
        </extensions>
      </trkpt>
      <trkpt lat="44.71149045042693614959716796875" lon="6.7436476238071918487548828125">
        <ele>1199.800048828125</ele>
        <time>2026-09-03T06:03:33.000Z</time>
        <extensions>
          <ns3:TrackPointExtension>
            <ns3:hr>109</ns3:hr>
            <ns3:cad>54</ns3:cad>
          </ns3:TrackPointExtension>
        </extensions>
      </trkpt>
      <trkpt lat="44.711489863693714141845703125" lon="6.74364619888365268707275390625">
        <ele>1199.800048828125</ele>
        <time>2026-09-03T06:03:34.000Z</time>
        <extensions>
          <ns3:TrackPointExtension>
            <ns3:hr>109</ns3:hr>
            <ns3:cad>54</ns3:cad>
          </ns3:TrackPointExtension>
        </extensions>
      </trkpt>
      <trkpt lat="44.7114893607795238494873046875" lon="6.7436436004936695098876953125">
        <ele>1199.800048828125</ele>
        <time>2026-09-03T06:03:35.000Z</time>
        <extensions>
          <ns3:TrackPointExtension>
            <ns3:hr>109</ns3:hr>
            <ns3:cad>0</ns3:cad>
          </ns3:TrackPointExtension>
        </extensions>
      </trkpt>
      <trkpt lat="44.71148810349404811859130859375" lon="6.7436407506465911865234375">
        <ele>1199.800048828125</ele>
        <time>2026-09-03T06:03:36.000Z</time>
        <extensions>
          <ns3:TrackPointExtension>
            <ns3:hr>108</ns3:hr>
            <ns3:cad>0</ns3:cad>
          </ns3:TrackPointExtension>
        </extensions>
      </trkpt>
      <trkpt lat="44.7114839963614940643310546875" lon="6.7436519823968410491943359375">
        <ele>1199.800048828125</ele>
        <time>2026-09-03T06:03:37.000Z</time>
        <extensions>
          <ns3:TrackPointExtension>
            <ns3:hr>107</ns3:hr>
            <ns3:cad>0</ns3:cad>
          </ns3:TrackPointExtension>
        </extensions>
      </trkpt>
      <trkpt lat="44.71148693002760410308837890625" lon="6.7436499707400798797607421875">
        <ele>1199.800048828125</ele>
        <time>2026-09-03T06:03:38.000Z</time>
        <extensions>
          <ns3:TrackPointExtension>
            <ns3:hr>103</ns3:hr>
            <ns3:cad>0</ns3:cad>
          </ns3:TrackPointExtension>
        </extensions>
      </trkpt>
      <trkpt lat="44.71148776821792125701904296875" lon="6.74364938400685787200927734375">
        <ele>1199.800048828125</ele>
        <time>2026-09-03T06:03:39.000Z</time>
        <extensions>
          <ns3:TrackPointExtension>
            <ns3:hr>97</ns3:hr>
            <ns3:cad>0</ns3:cad>
          </ns3:TrackPointExtension>
        </extensions>
      </trkpt>
      <trkpt lat="44.711489193141460418701171875" lon="6.74364888109266757965087890625">
        <ele>1199.800048828125</ele>
        <time>2026-09-03T06:03:40.000Z</time>
        <extensions>
          <ns3:TrackPointExtension>
            <ns3:hr>91</ns3:hr>
            <ns3:cad>0</ns3:cad>
          </ns3:TrackPointExtension>
        </extensions>
      </trkpt>
      <trkpt lat="44.7114895284175872802734375" lon="6.7436516471207141876220703125">
        <ele>1199.800048828125</ele>
        <time>2026-09-03T06:03:41.000Z</time>
        <extensions>
          <ns3:TrackPointExtension>
            <ns3:hr>87</ns3:hr>
            <ns3:cad>0</ns3:cad>
          </ns3:TrackPointExtension>
        </extensions>
      </trkpt>
      <trkpt lat="44.71148961223661899566650390625" lon="6.74365458078682422637939453125">
        <ele>1199.800048828125</ele>
        <time>2026-09-03T06:03:42.000Z</time>
        <extensions>
          <ns3:TrackPointExtension>
            <ns3:hr>85</ns3:hr>
            <ns3:cad>0</ns3:cad>
          </ns3:TrackPointExtension>
        </extensions>
      </trkpt>
      <trkpt lat="44.71149195916950702667236328125" lon="6.7436523176729679107666015625">
        <ele>1199.800048828125</ele>
        <time>2026-09-03T06:03:43.000Z</time>
        <extensions>
          <ns3:TrackPointExtension>
            <ns3:hr>83</ns3:hr>
            <ns3:cad>0</ns3:cad>
          </ns3:TrackPointExtension>
        </extensions>
      </trkpt>
      <trkpt lat="44.71149212680757045745849609375" lon="6.74364946782588958740234375">
        <ele>1200</ele>
        <time>2026-09-03T06:03:44.000Z</time>
        <extensions>
          <ns3:TrackPointExtension>
            <ns3:hr>82</ns3:hr>
            <ns3:cad>0</ns3:cad>
          </ns3:TrackPointExtension>
        </extensions>
      </trkpt>
      <trkpt lat="44.71149179153144359588623046875" lon="6.743650473654270172119140625">
        <ele>1200</ele>
        <time>2026-09-03T06:03:45.000Z</time>
        <extensions>
          <ns3:TrackPointExtension>
            <ns3:hr>81</ns3:hr>
            <ns3:cad>0</ns3:cad>
          </ns3:TrackPointExtension>
        </extensions>
      </trkpt>
      <trkpt lat="44.7114917077124118804931640625" lon="6.74365391023457050323486328125">
        <ele>1200</ele>
        <time>2026-09-03T06:03:46.000Z</time>
        <extensions>
          <ns3:TrackPointExtension>
            <ns3:hr>81</ns3:hr>
            <ns3:cad>0</ns3:cad>
          </ns3:TrackPointExtension>
        </extensions>
      </trkpt>
      <trkpt lat="44.7114895284175872802734375" lon="6.7436563409864902496337890625">
        <ele>1200</ele>
        <time>2026-09-03T06:03:47.000Z</time>
        <extensions>
          <ns3:TrackPointExtension>
            <ns3:hr>81</ns3:hr>
            <ns3:cad>0</ns3:cad>
          </ns3:TrackPointExtension>
        </extensions>
      </trkpt>
      <trkpt lat="44.71148625947535037994384765625" lon="6.74366815946996212005615234375">
        <ele>1200</ele>
        <time>2026-09-03T06:03:48.000Z</time>
        <extensions>
          <ns3:TrackPointExtension>
            <ns3:hr>81</ns3:hr>
            <ns3:cad>0</ns3:cad>
          </ns3:TrackPointExtension>
        </extensions>
      </trkpt>
      <trkpt lat="44.71148340962827205657958984375" lon="6.74367637373507022857666015625">
        <ele>1200.199951171875</ele>
        <time>2026-09-03T06:03:49.000Z</time>
        <extensions>
          <ns3:TrackPointExtension>
            <ns3:hr>80</ns3:hr>
            <ns3:cad>0</ns3:cad>
          </ns3:TrackPointExtension>
        </extensions>
      </trkpt>
      <trkpt lat="44.71147770993411540985107421875" lon="6.7436888627707958221435546875">
        <ele>1200.199951171875</ele>
        <time>2026-09-03T06:03:50.000Z</time>
        <extensions>
          <ns3:TrackPointExtension>
            <ns3:hr>80</ns3:hr>
            <ns3:cad>0</ns3:cad>
          </ns3:TrackPointExtension>
        </extensions>
      </trkpt>
      <trkpt lat="44.7114739380776882171630859375" lon="6.74369548447430133819580078125">
        <ele>1200.4000244140625</ele>
        <time>2026-09-03T06:03:51.000Z</time>
        <extensions>
          <ns3:TrackPointExtension>
            <ns3:hr>80</ns3:hr>
            <ns3:cad>0</ns3:cad>
          </ns3:TrackPointExtension>
        </extensions>
      </trkpt>
      <trkpt lat="44.71147469244897365570068359375" lon="6.74370688386261463165283203125">
        <ele>1200.5999755859375</ele>
        <time>2026-09-03T06:03:52.000Z</time>
        <extensions>
          <ns3:TrackPointExtension>
            <ns3:hr>81</ns3:hr>
            <ns3:cad>0</ns3:cad>
          </ns3:TrackPointExtension>
        </extensions>
      </trkpt>
      <trkpt lat="44.71147016622126102447509765625" lon="6.743718869984149932861328125">
        <ele>1201</ele>
        <time>2026-09-03T06:03:53.000Z</time>
        <extensions>
          <ns3:TrackPointExtension>
            <ns3:hr>80</ns3:hr>
            <ns3:cad>0</ns3:cad>
          </ns3:TrackPointExtension>
        </extensions>
      </trkpt>
      <trkpt lat="44.7114694118499755859375" lon="6.74372456967830657958984375">
        <ele>1201.199951171875</ele>
        <time>2026-09-03T06:03:54.000Z</time>
        <extensions>
          <ns3:TrackPointExtension>
            <ns3:hr>80</ns3:hr>
            <ns3:cad>0</ns3:cad>
          </ns3:TrackPointExtension>
        </extensions>
      </trkpt>
      <trkpt lat="44.7114709205925464630126953125" lon="6.7437227256596088409423828125">
        <ele>1201.4000244140625</ele>
        <time>2026-09-03T06:03:55.000Z</time>
        <extensions>
          <ns3:TrackPointExtension>
            <ns3:hr>80</ns3:hr>
            <ns3:cad>0</ns3:cad>
          </ns3:TrackPointExtension>
        </extensions>
      </trkpt>
      <trkpt lat="44.71146899275481700897216796875" lon="6.7437230609357357025146484375">
        <ele>1201.5999755859375</ele>
        <time>2026-09-03T06:03:56.000Z</time>
        <extensions>
          <ns3:TrackPointExtension>
            <ns3:hr>80</ns3:hr>
            <ns3:cad>0</ns3:cad>
          </ns3:TrackPointExtension>
        </extensions>
      </trkpt>
      <trkpt lat="44.71147142350673675537109375" lon="6.74372180365025997161865234375">
        <ele>1201.5999755859375</ele>
        <time>2026-09-03T06:03:57.000Z</time>
        <extensions>
          <ns3:TrackPointExtension>
            <ns3:hr>80</ns3:hr>
            <ns3:cad>0</ns3:cad>
          </ns3:TrackPointExtension>
        </extensions>
      </trkpt>
      <trkpt lat="44.711473770439624786376953125" lon="6.7437217198312282562255859375">
        <ele>1201.5999755859375</ele>
        <time>2026-09-03T06:03:58.000Z</time>
        <extensions>
          <ns3:TrackPointExtension>
            <ns3:hr>80</ns3:hr>
            <ns3:cad>0</ns3:cad>
          </ns3:TrackPointExtension>
        </extensions>
      </trkpt>
      <trkpt lat="44.7114709205925464630126953125" lon="6.74372264184057712554931640625">
        <ele>1201.5999755859375</ele>
        <time>2026-09-03T06:03:59.000Z</time>
        <extensions>
          <ns3:TrackPointExtension>
            <ns3:hr>80</ns3:hr>
            <ns3:cad>0</ns3:cad>
          </ns3:TrackPointExtension>
        </extensions>
      </trkpt>
      <trkpt lat="44.71147251315414905548095703125" lon="6.74371928907930850982666015625">
        <ele>1201.5999755859375</ele>
        <time>2026-09-03T06:04:00.000Z</time>
        <extensions>
          <ns3:TrackPointExtension>
            <ns3:hr>80</ns3:hr>
            <ns3:cad>0</ns3:cad>
          </ns3:TrackPointExtension>
        </extensions>
      </trkpt>
      <trkpt lat="44.711471758782863616943359375" lon="6.743717528879642486572265625">
        <ele>1201.5999755859375</ele>
        <time>2026-09-03T06:04:01.000Z</time>
        <extensions>
          <ns3:TrackPointExtension>
            <ns3:hr>79</ns3:hr>
            <ns3:cad>0</ns3:cad>
          </ns3:TrackPointExtension>
        </extensions>
      </trkpt>
      <trkpt lat="44.71146949566900730133056640625" lon="6.74372130073606967926025390625">
        <ele>1201.5999755859375</ele>
        <time>2026-09-03T06:04:02.000Z</time>
        <extensions>
          <ns3:TrackPointExtension>
            <ns3:hr>79</ns3:hr>
            <ns3:cad>0</ns3:cad>
          </ns3:TrackPointExtension>
        </extensions>
      </trkpt>
      <trkpt lat="44.71146815456449985504150390625" lon="6.74372197128832340240478515625">
        <ele>1201.5999755859375</ele>
        <time>2026-09-03T06:04:03.000Z</time>
        <extensions>
          <ns3:TrackPointExtension>
            <ns3:hr>79</ns3:hr>
            <ns3:cad>0</ns3:cad>
          </ns3:TrackPointExtension>
        </extensions>
      </trkpt>
      <trkpt lat="44.7114685736596584320068359375" lon="6.74372063018381595611572265625">
        <ele>1201.5999755859375</ele>
        <time>2026-09-03T06:04:04.000Z</time>
        <extensions>
          <ns3:TrackPointExtension>
            <ns3:hr>79</ns3:hr>
            <ns3:cad>0</ns3:cad>
          </ns3:TrackPointExtension>
        </extensions>
      </trkpt>
      <trkpt lat="44.71147100441157817840576171875" lon="6.7437190376222133636474609375">
        <ele>1201.5999755859375</ele>
        <time>2026-09-03T06:04:05.000Z</time>
        <extensions>
          <ns3:TrackPointExtension>
            <ns3:hr>80</ns3:hr>
            <ns3:cad>0</ns3:cad>
          </ns3:TrackPointExtension>
        </extensions>
      </trkpt>
      <trkpt lat="44.711471088230609893798828125" lon="6.743722893297672271728515625">
        <ele>1201.5999755859375</ele>
        <time>2026-09-03T06:04:06.000Z</time>
        <extensions>
          <ns3:TrackPointExtension>
            <ns3:hr>79</ns3:hr>
            <ns3:cad>0</ns3:cad>
          </ns3:TrackPointExtension>
        </extensions>
      </trkpt>
      <trkpt lat="44.711475111544132232666015625" lon="6.7437210492789745330810546875">
        <ele>1201.4000244140625</ele>
        <time>2026-09-03T06:04:07.000Z</time>
        <extensions>
          <ns3:TrackPointExtension>
            <ns3:hr>79</ns3:hr>
            <ns3:cad>0</ns3:cad>
          </ns3:TrackPointExtension>
        </extensions>
      </trkpt>
      <trkpt lat="44.71147477626800537109375" lon="6.7437244020402431488037109375">
        <ele>1201.4000244140625</ele>
        <time>2026-09-03T06:04:08.000Z</time>
        <extensions>
          <ns3:TrackPointExtension>
            <ns3:hr>79</ns3:hr>
            <ns3:cad>0</ns3:cad>
          </ns3:TrackPointExtension>
        </extensions>
      </trkpt>
      <trkpt lat="44.71147477626800537109375" lon="6.74372348003089427947998046875">
        <ele>1201.4000244140625</ele>
        <time>2026-09-03T06:04:09.000Z</time>
        <extensions>
          <ns3:TrackPointExtension>
            <ns3:hr>80</ns3:hr>
            <ns3:cad>0</ns3:cad>
          </ns3:TrackPointExtension>
        </extensions>
      </trkpt>
      <trkpt lat="44.711475782096385955810546875" lon="6.7437244020402431488037109375">
        <ele>1201.4000244140625</ele>
        <time>2026-09-03T06:04:10.000Z</time>
        <extensions>
          <ns3:TrackPointExtension>
            <ns3:hr>79</ns3:hr>
            <ns3:cad>0</ns3:cad>
          </ns3:TrackPointExtension>
        </extensions>
      </trkpt>
      <trkpt lat="44.71147469244897365570068359375" lon="6.7437260784208774566650390625">
        <ele>1201.4000244140625</ele>
        <time>2026-09-03T06:04:11.000Z</time>
        <extensions>
          <ns3:TrackPointExtension>
            <ns3:hr>79</ns3:hr>
            <ns3:cad>0</ns3:cad>
          </ns3:TrackPointExtension>
        </extensions>
      </trkpt>
      <trkpt lat="44.71147234551608562469482421875" lon="6.74372465349733829498291015625">
        <ele>1201.4000244140625</ele>
        <time>2026-09-03T06:04:12.000Z</time>
        <extensions>
          <ns3:TrackPointExtension>
            <ns3:hr>79</ns3:hr>
            <ns3:cad>0</ns3:cad>
          </ns3:TrackPointExtension>
        </extensions>
      </trkpt>
      <trkpt lat="44.7114722616970539093017578125" lon="6.74372549168765544891357421875">
        <ele>1201.4000244140625</ele>
        <time>2026-09-03T06:04:13.000Z</time>
        <extensions>
          <ns3:TrackPointExtension>
            <ns3:hr>78</ns3:hr>
            <ns3:cad>0</ns3:cad>
          </ns3:TrackPointExtension>
        </extensions>
      </trkpt>
      <trkpt lat="44.71147268079221248626708984375" lon="6.74372649751603603363037109375">
        <ele>1201.4000244140625</ele>
        <time>2026-09-03T06:04:14.000Z</time>
        <extensions>
          <ns3:TrackPointExtension>
            <ns3:hr>78</ns3:hr>
            <ns3:cad>0</ns3:cad>
          </ns3:TrackPointExtension>
        </extensions>
      </trkpt>
      <trkpt lat="44.71147301606833934783935546875" lon="6.7437244020402431488037109375">
        <ele>1201.4000244140625</ele>
        <time>2026-09-03T06:04:15.000Z</time>
        <extensions>
          <ns3:TrackPointExtension>
            <ns3:hr>77</ns3:hr>
            <ns3:cad>0</ns3:cad>
          </ns3:TrackPointExtension>
        </extensions>
      </trkpt>
      <trkpt lat="44.71147284843027591705322265625" lon="6.74372348003089427947998046875">
        <ele>1201.4000244140625</ele>
        <time>2026-09-03T06:04:16.000Z</time>
        <extensions>
          <ns3:TrackPointExtension>
            <ns3:hr>77</ns3:hr>
            <ns3:cad>0</ns3:cad>
          </ns3:TrackPointExtension>
        </extensions>
      </trkpt>
      <trkpt lat="44.71147452481091022491455078125" lon="6.74372632987797260284423828125">
        <ele>1201.4000244140625</ele>
        <time>2026-09-03T06:04:17.000Z</time>
        <extensions>
          <ns3:TrackPointExtension>
            <ns3:hr>78</ns3:hr>
            <ns3:cad>0</ns3:cad>
          </ns3:TrackPointExtension>
        </extensions>
      </trkpt>
      <trkpt lat="44.7114742733538150787353515625" lon="6.7437287606298923492431640625">
        <ele>1201.4000244140625</ele>
        <time>2026-09-03T06:04:18.000Z</time>
        <extensions>
          <ns3:TrackPointExtension>
            <ns3:hr>78</ns3:hr>
            <ns3:cad>0</ns3:cad>
          </ns3:TrackPointExtension>
        </extensions>
      </trkpt>
      <trkpt lat="44.71147988922894001007080078125" lon="6.74372649751603603363037109375">
        <ele>1201.4000244140625</ele>
        <time>2026-09-03T06:04:19.000Z</time>
        <extensions>
          <ns3:TrackPointExtension>
            <ns3:hr>78</ns3:hr>
            <ns3:cad>0</ns3:cad>
          </ns3:TrackPointExtension>
        </extensions>
      </trkpt>
      <trkpt lat="44.71148307435214519500732421875" lon="6.74372750334441661834716796875">
        <ele>1201.4000244140625</ele>
        <time>2026-09-03T06:04:20.000Z</time>
        <extensions>
          <ns3:TrackPointExtension>
            <ns3:hr>77</ns3:hr>
            <ns3:cad>0</ns3:cad>
          </ns3:TrackPointExtension>
        </extensions>
      </trkpt>
      <trkpt lat="44.711487181484699249267578125" lon="6.74373152665793895721435546875">
        <ele>1201.4000244140625</ele>
        <time>2026-09-03T06:04:21.000Z</time>
        <extensions>
          <ns3:TrackPointExtension>
            <ns3:hr>78</ns3:hr>
            <ns3:cad>0</ns3:cad>
          </ns3:TrackPointExtension>
        </extensions>
      </trkpt>
      <trkpt lat="44.71149363555014133453369140625" lon="6.74373471178114414215087890625">
        <ele>1201.4000244140625</ele>
        <time>2026-09-03T06:04:22.000Z</time>
        <extensions>
          <ns3:TrackPointExtension>
            <ns3:hr>78</ns3:hr>
            <ns3:cad>0</ns3:cad>
          </ns3:TrackPointExtension>
        </extensions>
      </trkpt>
      <trkpt lat="44.71149824559688568115234375" lon="6.743738315999507904052734375">
        <ele>1201.5999755859375</ele>
        <time>2026-09-03T06:04:23.000Z</time>
        <extensions>
          <ns3:TrackPointExtension>
            <ns3:hr>77</ns3:hr>
            <ns3:cad>0</ns3:cad>
          </ns3:TrackPointExtension>
        </extensions>
      </trkpt>
      <trkpt lat="44.71150696277618408203125" lon="6.74374426715075969696044921875">
        <ele>1201.5999755859375</ele>
        <time>2026-09-03T06:04:24.000Z</time>
        <extensions>
          <ns3:TrackPointExtension>
            <ns3:hr>78</ns3:hr>
            <ns3:cad>0</ns3:cad>
          </ns3:TrackPointExtension>
        </extensions>
      </trkpt>
      <trkpt lat="44.71151291392743587493896484375" lon="6.74374862574040889739990234375">
        <ele>1201.800048828125</ele>
        <time>2026-09-03T06:04:25.000Z</time>
        <extensions>
          <ns3:TrackPointExtension>
            <ns3:hr>78</ns3:hr>
            <ns3:cad>0</ns3:cad>
          </ns3:TrackPointExtension>
        </extensions>
      </trkpt>
      <trkpt lat="44.7115135006606578826904296875" lon="6.74374342896044254302978515625">
        <ele>1202.199951171875</ele>
        <time>2026-09-03T06:04:26.000Z</time>
        <extensions>
          <ns3:TrackPointExtension>
            <ns3:hr>78</ns3:hr>
            <ns3:cad>0</ns3:cad>
          </ns3:TrackPointExtension>
        </extensions>
      </trkpt>
      <trkpt lat="44.7115081362426280975341796875" lon="6.74373923800885677337646484375">
        <ele>1202.4000244140625</ele>
        <time>2026-09-03T06:04:27.000Z</time>
        <extensions>
          <ns3:TrackPointExtension>
            <ns3:hr>78</ns3:hr>
            <ns3:cad>0</ns3:cad>
          </ns3:TrackPointExtension>
        </extensions>
      </trkpt>
      <trkpt lat="44.7115078009665012359619140625" lon="6.74373437650501728057861328125">
        <ele>1202.5999755859375</ele>
        <time>2026-09-03T06:04:28.000Z</time>
        <extensions>
          <ns3:TrackPointExtension>
            <ns3:hr>78</ns3:hr>
            <ns3:cad>0</ns3:cad>
          </ns3:TrackPointExtension>
        </extensions>
      </trkpt>
      <trkpt lat="44.71151174046099185943603515625" lon="6.74374334514141082763671875">
        <ele>1203</ele>
        <time>2026-09-03T06:04:29.000Z</time>
        <extensions>
          <ns3:TrackPointExtension>
            <ns3:hr>79</ns3:hr>
            <ns3:cad>0</ns3:cad>
          </ns3:TrackPointExtension>
        </extensions>
      </trkpt>
      <trkpt lat="44.71151961944997310638427734375" lon="6.7437482066452503204345703125">
        <ele>1203.199951171875</ele>
        <time>2026-09-03T06:04:30.000Z</time>
        <extensions>
          <ns3:TrackPointExtension>
            <ns3:hr>78</ns3:hr>
            <ns3:cad>0</ns3:cad>
          </ns3:TrackPointExtension>
        </extensions>
      </trkpt>
      <trkpt lat="44.7115230560302734375" lon="6.7437629587948322296142578125">
        <ele>1203.4000244140625</ele>
        <time>2026-09-03T06:04:31.000Z</time>
        <extensions>
          <ns3:TrackPointExtension>
            <ns3:hr>78</ns3:hr>
            <ns3:cad>0</ns3:cad>
          </ns3:TrackPointExtension>
        </extensions>
      </trkpt>
      <trkpt lat="44.71152774989604949951171875" lon="6.74377377144992351531982421875">
        <ele>1203.5999755859375</ele>
        <time>2026-09-03T06:04:32.000Z</time>
        <extensions>
          <ns3:TrackPointExtension>
            <ns3:hr>78</ns3:hr>
            <ns3:cad>0</ns3:cad>
          </ns3:TrackPointExtension>
        </extensions>
      </trkpt>
      <trkpt lat="44.7115339525043964385986328125" lon="6.743782572448253631591796875">
        <ele>1203.800048828125</ele>
        <time>2026-09-03T06:04:33.000Z</time>
        <extensions>
          <ns3:TrackPointExtension>
            <ns3:hr>79</ns3:hr>
            <ns3:cad>0</ns3:cad>
          </ns3:TrackPointExtension>
        </extensions>
      </trkpt>
      <trkpt lat="44.71154308877885341644287109375" lon="6.74379455856978893280029296875">
        <ele>1204.199951171875</ele>
        <time>2026-09-03T06:04:34.000Z</time>
        <extensions>
          <ns3:TrackPointExtension>
            <ns3:hr>79</ns3:hr>
            <ns3:cad>0</ns3:cad>
          </ns3:TrackPointExtension>
        </extensions>
      </trkpt>
      <trkpt lat="44.71154510043561458587646484375" lon="6.74379774369299411773681640625">
        <ele>1204.4000244140625</ele>
        <time>2026-09-03T06:04:35.000Z</time>
        <extensions>
          <ns3:TrackPointExtension>
            <ns3:hr>79</ns3:hr>
            <ns3:cad>18</ns3:cad>
          </ns3:TrackPointExtension>
        </extensions>
      </trkpt>
      <trkpt lat="44.71154375933110713958740234375" lon="6.74379338510334491729736328125">
        <ele>1204.5999755859375</ele>
        <time>2026-09-03T06:04:36.000Z</time>
        <extensions>
          <ns3:TrackPointExtension>
            <ns3:hr>79</ns3:hr>
            <ns3:cad>18</ns3:cad>
          </ns3:TrackPointExtension>
        </extensions>
      </trkpt>
      <trkpt lat="44.7115456871688365936279296875" lon="6.7438011802732944488525390625">
        <ele>1205</ele>
        <time>2026-09-03T06:04:37.000Z</time>
        <extensions>
          <ns3:TrackPointExtension>
            <ns3:hr>81</ns3:hr>
            <ns3:cad>0</ns3:cad>
          </ns3:TrackPointExtension>
        </extensions>
      </trkpt>
      <trkpt lat="44.71154878847301006317138671875" lon="6.7438132502138614654541015625">
        <ele>1205.199951171875</ele>
        <time>2026-09-03T06:04:38.000Z</time>
        <extensions>
          <ns3:TrackPointExtension>
            <ns3:hr>82</ns3:hr>
            <ns3:cad>0</ns3:cad>
          </ns3:TrackPointExtension>
        </extensions>
      </trkpt>
      <trkpt lat="44.71155591309070587158203125" lon="6.74381844699382781982421875">
        <ele>1205.4000244140625</ele>
        <time>2026-09-03T06:04:39.000Z</time>
        <extensions>
          <ns3:TrackPointExtension>
            <ns3:hr>84</ns3:hr>
            <ns3:cad>0</ns3:cad>
          </ns3:TrackPointExtension>
        </extensions>
      </trkpt>
      <trkpt lat="44.71156119368970394134521484375" lon="6.7438263259828090667724609375">
        <ele>1205.5999755859375</ele>
        <time>2026-09-03T06:04:40.000Z</time>
        <extensions>
          <ns3:TrackPointExtension>
            <ns3:hr>85</ns3:hr>
            <ns3:cad>0</ns3:cad>
          </ns3:TrackPointExtension>
        </extensions>
      </trkpt>
      <trkpt lat="44.71155993640422821044921875" lon="6.74383378587663173675537109375">
        <ele>1205.800048828125</ele>
        <time>2026-09-03T06:04:41.000Z</time>
        <extensions>
          <ns3:TrackPointExtension>
            <ns3:hr>86</ns3:hr>
            <ns3:cad>0</ns3:cad>
          </ns3:TrackPointExtension>
        </extensions>
      </trkpt>
      <trkpt lat="44.7115658037364482879638671875" lon="6.74385197460651397705078125">
        <ele>1206.199951171875</ele>
        <time>2026-09-03T06:04:42.000Z</time>
        <extensions>
          <ns3:TrackPointExtension>
            <ns3:hr>87</ns3:hr>
            <ns3:cad>0</ns3:cad>
          </ns3:TrackPointExtension>
        </extensions>
      </trkpt>
      <trkpt lat="44.71156639046967029571533203125" lon="6.74386614002287387847900390625">
        <ele>1206.4000244140625</ele>
        <time>2026-09-03T06:04:43.000Z</time>
        <extensions>
          <ns3:TrackPointExtension>
            <ns3:hr>88</ns3:hr>
            <ns3:cad>0</ns3:cad>
          </ns3:TrackPointExtension>
        </extensions>
      </trkpt>
      <trkpt lat="44.71156404353678226470947265625" lon="6.743881143629550933837890625">
        <ele>1206.5999755859375</ele>
        <time>2026-09-03T06:04:44.000Z</time>
        <extensions>
          <ns3:TrackPointExtension>
            <ns3:hr>90</ns3:hr>
            <ns3:cad>0</ns3:cad>
          </ns3:TrackPointExtension>
        </extensions>
      </trkpt>
      <trkpt lat="44.71156672574579715728759765625" lon="6.7438953928649425506591796875">
        <ele>1206.800048828125</ele>
        <time>2026-09-03T06:04:45.000Z</time>
        <extensions>
          <ns3:TrackPointExtension>
            <ns3:hr>91</ns3:hr>
            <ns3:cad>0</ns3:cad>
          </ns3:TrackPointExtension>
        </extensions>
      </trkpt>
      <trkpt lat="44.71157007850706577301025390625" lon="6.743901930749416351318359375">
        <ele>1207</ele>
        <time>2026-09-03T06:04:46.000Z</time>
        <extensions>
          <ns3:TrackPointExtension>
            <ns3:hr>92</ns3:hr>
            <ns3:cad>0</ns3:cad>
          </ns3:TrackPointExtension>
        </extensions>
      </trkpt>
      <trkpt lat="44.71157879568636417388916015625" lon="6.74391291104257106781005859375">
        <ele>1207.199951171875</ele>
        <time>2026-09-03T06:04:47.000Z</time>
        <extensions>
          <ns3:TrackPointExtension>
            <ns3:hr>94</ns3:hr>
            <ns3:cad>0</ns3:cad>
          </ns3:TrackPointExtension>
        </extensions>
      </trkpt>
      <trkpt lat="44.71158206462860107421875" lon="6.74392347224056720733642578125">
        <ele>1207.4000244140625</ele>
        <time>2026-09-03T06:04:48.000Z</time>
        <extensions>
          <ns3:TrackPointExtension>
            <ns3:hr>96</ns3:hr>
            <ns3:cad>0</ns3:cad>
          </ns3:TrackPointExtension>
        </extensions>
      </trkpt>
      <trkpt lat="44.71158667467534542083740234375" lon="6.74393688328564167022705078125">
        <ele>1207.4000244140625</ele>
        <time>2026-09-03T06:04:49.000Z</time>
        <extensions>
          <ns3:TrackPointExtension>
            <ns3:hr>98</ns3:hr>
            <ns3:cad>0</ns3:cad>
          </ns3:TrackPointExtension>
        </extensions>
      </trkpt>
      <trkpt lat="44.71159120090305805206298828125" lon="6.7439530603587627410888671875">
        <ele>1207.5999755859375</ele>
        <time>2026-09-03T06:04:50.000Z</time>
        <extensions>
          <ns3:TrackPointExtension>
            <ns3:hr>98</ns3:hr>
            <ns3:cad>0</ns3:cad>
          </ns3:TrackPointExtension>
        </extensions>
      </trkpt>
      <trkpt lat="44.71159673295915126800537109375" lon="6.7439584247767925262451171875">
        <ele>1207.800048828125</ele>
        <time>2026-09-03T06:04:51.000Z</time>
        <extensions>
          <ns3:TrackPointExtension>
            <ns3:hr>98</ns3:hr>
            <ns3:cad>0</ns3:cad>
          </ns3:TrackPointExtension>
        </extensions>
      </trkpt>
      <trkpt lat="44.71159757114946842193603515625" lon="6.74397393129765987396240234375">
        <ele>1208</ele>
        <time>2026-09-03T06:04:52.000Z</time>
        <extensions>
          <ns3:TrackPointExtension>
            <ns3:hr>98</ns3:hr>
            <ns3:cad>0</ns3:cad>
          </ns3:TrackPointExtension>
        </extensions>
      </trkpt>
      <trkpt lat="44.7115943022072315216064453125" lon="6.74398549832403659820556640625">
        <ele>1208.199951171875</ele>
        <time>2026-09-03T06:04:53.000Z</time>
        <extensions>
          <ns3:TrackPointExtension>
            <ns3:hr>98</ns3:hr>
            <ns3:cad>0</ns3:cad>
          </ns3:TrackPointExtension>
        </extensions>
      </trkpt>
      <trkpt lat="44.7115914523601531982421875" lon="6.74399840645492076873779296875">
        <ele>1208.4000244140625</ele>
        <time>2026-09-03T06:04:54.000Z</time>
        <extensions>
          <ns3:TrackPointExtension>
            <ns3:hr>98</ns3:hr>
            <ns3:cad>0</ns3:cad>
          </ns3:TrackPointExtension>
        </extensions>
      </trkpt>
      <trkpt lat="44.7115949727594852447509765625" lon="6.7440103925764560699462890625">
        <ele>1208.4000244140625</ele>
        <time>2026-09-03T06:04:55.000Z</time>
        <extensions>
          <ns3:TrackPointExtension>
            <ns3:hr>98</ns3:hr>
            <ns3:cad>0</ns3:cad>
          </ns3:TrackPointExtension>
        </extensions>
      </trkpt>
      <trkpt lat="44.71158734522759914398193359375" lon="6.74401818774640560150146484375">
        <ele>1208.5999755859375</ele>
        <time>2026-09-03T06:04:56.000Z</time>
        <extensions>
          <ns3:TrackPointExtension>
            <ns3:hr>99</ns3:hr>
            <ns3:cad>0</ns3:cad>
          </ns3:TrackPointExtension>
        </extensions>
      </trkpt>
      <trkpt lat="44.71159002743661403656005859375" lon="6.7440264858305454254150390625">
        <ele>1208.800048828125</ele>
        <time>2026-09-03T06:04:57.000Z</time>
        <extensions>
          <ns3:TrackPointExtension>
            <ns3:hr>99</ns3:hr>
            <ns3:cad>0</ns3:cad>
          </ns3:TrackPointExtension>
        </extensions>
      </trkpt>
      <trkpt lat="44.71159279346466064453125" lon="6.7440345324575901031494140625">
        <ele>1209</ele>
        <time>2026-09-03T06:04:58.000Z</time>
        <extensions>
          <ns3:TrackPointExtension>
            <ns3:hr>99</ns3:hr>
            <ns3:cad>0</ns3:cad>
          </ns3:TrackPointExtension>
        </extensions>
      </trkpt>
      <trkpt lat="44.71158684231340885162353515625" lon="6.7440402321517467498779296875">
        <ele>1209.199951171875</ele>
        <time>2026-09-03T06:04:59.000Z</time>
        <extensions>
          <ns3:TrackPointExtension>
            <ns3:hr>100</ns3:hr>
            <ns3:cad>0</ns3:cad>
          </ns3:TrackPointExtension>
        </extensions>
      </trkpt>
      <trkpt lat="44.71157829277217388153076171875" lon="6.744049452245235443115234375">
        <ele>1209.4000244140625</ele>
        <time>2026-09-03T06:05:00.000Z</time>
        <extensions>
          <ns3:TrackPointExtension>
            <ns3:hr>101</ns3:hr>
            <ns3:cad>0</ns3:cad>
          </ns3:TrackPointExtension>
        </extensions>
      </trkpt>
      <trkpt lat="44.71157259307801723480224609375" lon="6.74404987134039402008056640625">
        <ele>1209.5999755859375</ele>
        <time>2026-09-03T06:05:01.000Z</time>
        <extensions>
          <ns3:TrackPointExtension>
            <ns3:hr>101</ns3:hr>
            <ns3:cad>0</ns3:cad>
          </ns3:TrackPointExtension>
        </extensions>
      </trkpt>
      <trkpt lat="44.7115661390125751495361328125" lon="6.74405188299715518951416015625">
        <ele>1209.800048828125</ele>
        <time>2026-09-03T06:05:02.000Z</time>
        <extensions>
          <ns3:TrackPointExtension>
            <ns3:hr>102</ns3:hr>
            <ns3:cad>0</ns3:cad>
          </ns3:TrackPointExtension>
        </extensions>
      </trkpt>
      <trkpt lat="44.71155800856649875640869140625" lon="6.74405238591134548187255859375">
        <ele>1210</ele>
        <time>2026-09-03T06:05:03.000Z</time>
        <extensions>
          <ns3:TrackPointExtension>
            <ns3:hr>103</ns3:hr>
            <ns3:cad>0</ns3:cad>
          </ns3:TrackPointExtension>
        </extensions>
      </trkpt>
      <trkpt lat="44.71154996193945407867431640625" lon="6.7440432496368885040283203125">
        <ele>1210.199951171875</ele>
        <time>2026-09-03T06:05:04.000Z</time>
        <extensions>
          <ns3:TrackPointExtension>
            <ns3:hr>104</ns3:hr>
            <ns3:cad>0</ns3:cad>
          </ns3:TrackPointExtension>
        </extensions>
      </trkpt>
      <trkpt lat="44.71154459752142429351806640625" lon="6.7440350353717803955078125">
        <ele>1210.4000244140625</ele>
        <time>2026-09-03T06:05:05.000Z</time>
        <extensions>
          <ns3:TrackPointExtension>
            <ns3:hr>105</ns3:hr>
            <ns3:cad>0</ns3:cad>
          </ns3:TrackPointExtension>
        </extensions>
      </trkpt>
      <trkpt lat="44.7115446813404560089111328125" lon="6.7440321855247020721435546875">
        <ele>1210.5999755859375</ele>
        <time>2026-09-03T06:05:06.000Z</time>
        <extensions>
          <ns3:TrackPointExtension>
            <ns3:hr>106</ns3:hr>
            <ns3:cad>0</ns3:cad>
          </ns3:TrackPointExtension>
        </extensions>
      </trkpt>
      <trkpt lat="44.7115356288850307464599609375" lon="6.7440207861363887786865234375">
        <ele>1210.800048828125</ele>
        <time>2026-09-03T06:05:07.000Z</time>
        <extensions>
          <ns3:TrackPointExtension>
            <ns3:hr>107</ns3:hr>
            <ns3:cad>0</ns3:cad>
          </ns3:TrackPointExtension>
        </extensions>
      </trkpt>
      <trkpt lat="44.71152666024863719940185546875" lon="6.74402095377445220947265625">
        <ele>1211</ele>
        <time>2026-09-03T06:05:08.000Z</time>
        <extensions>
          <ns3:TrackPointExtension>
            <ns3:hr>108</ns3:hr>
            <ns3:cad>0</ns3:cad>
          </ns3:TrackPointExtension>
        </extensions>
      </trkpt>
      <trkpt lat="44.7115285880863666534423828125" lon="6.7440211214125156402587890625">
        <ele>1211.199951171875</ele>
        <time>2026-09-03T06:05:09.000Z</time>
        <extensions>
          <ns3:TrackPointExtension>
            <ns3:hr>109</ns3:hr>
            <ns3:cad>0</ns3:cad>
          </ns3:TrackPointExtension>
        </extensions>
      </trkpt>
      <trkpt lat="44.7115192003548145294189453125" lon="6.74402103759348392486572265625">
        <ele>1211.4000244140625</ele>
        <time>2026-09-03T06:05:10.000Z</time>
        <extensions>
          <ns3:TrackPointExtension>
            <ns3:hr>110</ns3:hr>
            <ns3:cad>0</ns3:cad>
          </ns3:TrackPointExtension>
        </extensions>
      </trkpt>
      <trkpt lat="44.711513333022594451904296875" lon="6.7440224625170230865478515625">
        <ele>1211.5999755859375</ele>
        <time>2026-09-03T06:05:11.000Z</time>
        <extensions>
          <ns3:TrackPointExtension>
            <ns3:hr>110</ns3:hr>
            <ns3:cad>0</ns3:cad>
          </ns3:TrackPointExtension>
        </extensions>
      </trkpt>
      <trkpt lat="44.71150520257651805877685546875" lon="6.7440241388976573944091796875">
        <ele>1211.800048828125</ele>
        <time>2026-09-03T06:05:12.000Z</time>
        <extensions>
          <ns3:TrackPointExtension>
            <ns3:hr>111</ns3:hr>
            <ns3:cad>0</ns3:cad>
          </ns3:TrackPointExtension>
        </extensions>
      </trkpt>
      <trkpt lat="44.7114987485110759735107421875" lon="6.74402229487895965576171875">
        <ele>1212</ele>
        <time>2026-09-03T06:05:13.000Z</time>
        <extensions>
          <ns3:TrackPointExtension>
            <ns3:hr>112</ns3:hr>
            <ns3:cad>0</ns3:cad>
          </ns3:TrackPointExtension>
        </extensions>
      </trkpt>
      <trkpt lat="44.7115056216716766357421875" lon="6.74402338452637195587158203125">
        <ele>1212.199951171875</ele>
        <time>2026-09-03T06:05:14.000Z</time>
        <extensions>
          <ns3:TrackPointExtension>
            <ns3:hr>113</ns3:hr>
            <ns3:cad>0</ns3:cad>
          </ns3:TrackPointExtension>
        </extensions>
      </trkpt>
      <trkpt lat="44.71150034107267856597900390625" lon="6.744022630155086517333984375">
        <ele>1212.4000244140625</ele>
        <time>2026-09-03T06:05:15.000Z</time>
        <extensions>
          <ns3:TrackPointExtension>
            <ns3:hr>113</ns3:hr>
            <ns3:cad>0</ns3:cad>
          </ns3:TrackPointExtension>
        </extensions>
      </trkpt>
      <trkpt lat="44.71149623394012451171875" lon="6.7440251447260379791259765625">
        <ele>1212.5999755859375</ele>
        <time>2026-09-03T06:05:16.000Z</time>
        <extensions>
          <ns3:TrackPointExtension>
            <ns3:hr>114</ns3:hr>
            <ns3:cad>0</ns3:cad>
          </ns3:TrackPointExtension>
        </extensions>
      </trkpt>
      <trkpt lat="44.71148810349404811859130859375" lon="6.74402422271668910980224609375">
        <ele>1212.800048828125</ele>
        <time>2026-09-03T06:05:17.000Z</time>
        <extensions>
          <ns3:TrackPointExtension>
            <ns3:hr>115</ns3:hr>
            <ns3:cad>0</ns3:cad>
          </ns3:TrackPointExtension>
        </extensions>
      </trkpt>
      <trkpt lat="44.711478464305400848388671875" lon="6.74402623437345027923583984375">
        <ele>1213</ele>
        <time>2026-09-03T06:05:18.000Z</time>
        <extensions>
          <ns3:TrackPointExtension>
            <ns3:hr>116</ns3:hr>
            <ns3:cad>0</ns3:cad>
          </ns3:TrackPointExtension>
        </extensions>
      </trkpt>
      <trkpt lat="44.71147544682025909423828125" lon="6.74402254633605480194091796875">
        <ele>1213.199951171875</ele>
        <time>2026-09-03T06:05:19.000Z</time>
        <extensions>
          <ns3:TrackPointExtension>
            <ns3:hr>117</ns3:hr>
            <ns3:cad>0</ns3:cad>
          </ns3:TrackPointExtension>
        </extensions>
      </trkpt>
      <trkpt lat="44.71146614290773868560791015625" lon="6.74401885829865932464599609375">
        <ele>1213.4000244140625</ele>
        <time>2026-09-03T06:05:20.000Z</time>
        <extensions>
          <ns3:TrackPointExtension>
            <ns3:hr>118</ns3:hr>
            <ns3:cad>0</ns3:cad>
          </ns3:TrackPointExtension>
        </extensions>
      </trkpt>
      <trkpt lat="44.711459018290042877197265625" lon="6.7440191097557544708251953125">
        <ele>1213.5999755859375</ele>
        <time>2026-09-03T06:05:21.000Z</time>
        <extensions>
          <ns3:TrackPointExtension>
            <ns3:hr>118</ns3:hr>
            <ns3:cad>0</ns3:cad>
          </ns3:TrackPointExtension>
        </extensions>
      </trkpt>
      <trkpt lat="44.7114575095474720001220703125" lon="6.7440227977931499481201171875">
        <ele>1213.800048828125</ele>
        <time>2026-09-03T06:05:22.000Z</time>
        <extensions>
          <ns3:TrackPointExtension>
            <ns3:hr>119</ns3:hr>
            <ns3:cad>0</ns3:cad>
          </ns3:TrackPointExtension>
        </extensions>
      </trkpt>
      <trkpt lat="44.71144996583461761474609375" lon="6.7440241388976573944091796875">
        <ele>1214</ele>
        <time>2026-09-03T06:05:23.000Z</time>
        <extensions>
          <ns3:TrackPointExtension>
            <ns3:hr>119</ns3:hr>
            <ns3:cad>0</ns3:cad>
          </ns3:TrackPointExtension>
        </extensions>
      </trkpt>
      <trkpt lat="44.7114414162933826446533203125" lon="6.74402791075408458709716796875">
        <ele>1214.199951171875</ele>
        <time>2026-09-03T06:05:24.000Z</time>
        <extensions>
          <ns3:TrackPointExtension>
            <ns3:hr>120</ns3:hr>
            <ns3:cad>0</ns3:cad>
          </ns3:TrackPointExtension>
        </extensions>
      </trkpt>
      <trkpt lat="44.71142875961959362030029296875" lon="6.7440341971814632415771484375">
        <ele>1214.4000244140625</ele>
        <time>2026-09-03T06:05:25.000Z</time>
        <extensions>
          <ns3:TrackPointExtension>
            <ns3:hr>121</ns3:hr>
            <ns3:cad>0</ns3:cad>
          </ns3:TrackPointExtension>
        </extensions>
      </trkpt>
      <trkpt lat="44.71141987480223178863525390625" lon="6.74403168261051177978515625">
        <ele>1214.5999755859375</ele>
        <time>2026-09-03T06:05:26.000Z</time>
        <extensions>
          <ns3:TrackPointExtension>
            <ns3:hr>121</ns3:hr>
            <ns3:cad>0</ns3:cad>
          </ns3:TrackPointExtension>
        </extensions>
      </trkpt>
      <trkpt lat="44.71140746958553791046142578125" lon="6.74403436481952667236328125">
        <ele>1214.5999755859375</ele>
        <time>2026-09-03T06:05:27.000Z</time>
        <extensions>
          <ns3:TrackPointExtension>
            <ns3:hr>122</ns3:hr>
            <ns3:cad>0</ns3:cad>
          </ns3:TrackPointExtension>
        </extensions>
      </trkpt>
      <trkpt lat="44.71139808185398578643798828125" lon="6.74403981305658817291259765625">
        <ele>1214.800048828125</ele>
        <time>2026-09-03T06:05:28.000Z</time>
        <extensions>
          <ns3:TrackPointExtension>
            <ns3:hr>123</ns3:hr>
            <ns3:cad>0</ns3:cad>
          </ns3:TrackPointExtension>
        </extensions>
      </trkpt>
      <trkpt lat="44.7113958187401294708251953125" lon="6.7440425790846347808837890625">
        <ele>1215</ele>
        <time>2026-09-03T06:05:29.000Z</time>
        <extensions>
          <ns3:TrackPointExtension>
            <ns3:hr>124</ns3:hr>
            <ns3:cad>0</ns3:cad>
          </ns3:TrackPointExtension>
        </extensions>
      </trkpt>
      <trkpt lat="44.71139875240623950958251953125" lon="6.744048781692981719970703125">
        <ele>1215.199951171875</ele>
        <time>2026-09-03T06:05:30.000Z</time>
        <extensions>
          <ns3:TrackPointExtension>
            <ns3:hr>125</ns3:hr>
            <ns3:cad>0</ns3:cad>
          </ns3:TrackPointExtension>
        </extensions>
      </trkpt>
      <trkpt lat="44.711400009691715240478515625" lon="6.7440516315400600433349609375">
        <ele>1215.4000244140625</ele>
        <time>2026-09-03T06:05:31.000Z</time>
        <extensions>
          <ns3:TrackPointExtension>
            <ns3:hr>126</ns3:hr>
            <ns3:cad>0</ns3:cad>
          </ns3:TrackPointExtension>
        </extensions>
      </trkpt>
      <trkpt lat="44.71141031943261623382568359375" lon="6.74405582249164581298828125">
        <ele>1215.5999755859375</ele>
        <time>2026-09-03T06:05:32.000Z</time>
        <extensions>
          <ns3:TrackPointExtension>
            <ns3:hr>126</ns3:hr>
            <ns3:cad>0</ns3:cad>
          </ns3:TrackPointExtension>
        </extensions>
      </trkpt>
      <trkpt lat="44.711421467363834381103515625" lon="6.74406261183321475982666015625">
        <ele>1216</ele>
        <time>2026-09-03T06:05:33.000Z</time>
        <extensions>
          <ns3:TrackPointExtension>
            <ns3:hr>126</ns3:hr>
            <ns3:cad>0</ns3:cad>
          </ns3:TrackPointExtension>
        </extensions>
      </trkpt>
      <trkpt lat="44.711423814296722412109375" lon="6.7440620250999927520751953125">
        <ele>1216.199951171875</ele>
        <time>2026-09-03T06:05:34.000Z</time>
        <extensions>
          <ns3:TrackPointExtension>
            <ns3:hr>126</ns3:hr>
            <ns3:cad>0</ns3:cad>
          </ns3:TrackPointExtension>
        </extensions>
      </trkpt>
      <trkpt lat="44.71144133247435092926025390625" lon="6.7440643720328807830810546875">
        <ele>1216.4000244140625</ele>
        <time>2026-09-03T06:05:35.000Z</time>
        <extensions>
          <ns3:TrackPointExtension>
            <ns3:hr>126</ns3:hr>
            <ns3:cad>0</ns3:cad>
          </ns3:TrackPointExtension>
        </extensions>
      </trkpt>
      <trkpt lat="44.711448289453983306884765625" lon="6.74407132901251316070556640625">
        <ele>1216.5999755859375</ele>
        <time>2026-09-03T06:05:36.000Z</time>
        <extensions>
          <ns3:TrackPointExtension>
            <ns3:hr>126</ns3:hr>
            <ns3:cad>49</ns3:cad>
          </ns3:TrackPointExtension>
        </extensions>
      </trkpt>
      <trkpt lat="44.71144862473011016845703125" lon="6.74407585524022579193115234375">
        <ele>1216.800048828125</ele>
        <time>2026-09-03T06:05:37.000Z</time>
        <extensions>
          <ns3:TrackPointExtension>
            <ns3:hr>126</ns3:hr>
            <ns3:cad>49</ns3:cad>
          </ns3:TrackPointExtension>
        </extensions>
      </trkpt>
      <trkpt lat="44.7114511393010616302490234375" lon="6.744082309305667877197265625">
        <ele>1216.800048828125</ele>
        <time>2026-09-03T06:05:38.000Z</time>
        <extensions>
          <ns3:TrackPointExtension>
            <ns3:hr>126</ns3:hr>
            <ns3:cad>49</ns3:cad>
          </ns3:TrackPointExtension>
        </extensions>
      </trkpt>
      <trkpt lat="44.71145072020590305328369140625" lon="6.744088344275951385498046875">
        <ele>1217</ele>
        <time>2026-09-03T06:05:39.000Z</time>
        <extensions>
          <ns3:TrackPointExtension>
            <ns3:hr>126</ns3:hr>
            <ns3:cad>0</ns3:cad>
          </ns3:TrackPointExtension>
        </extensions>
      </trkpt>
      <trkpt lat="44.7114461101591587066650390625" lon="6.74409345723688602447509765625">
        <ele>1217.199951171875</ele>
        <time>2026-09-03T06:05:40.000Z</time>
        <extensions>
          <ns3:TrackPointExtension>
            <ns3:hr>126</ns3:hr>
            <ns3:cad>0</ns3:cad>
          </ns3:TrackPointExtension>
        </extensions>
      </trkpt>
      <trkpt lat="44.7114410810172557830810546875" lon="6.74409714527428150177001953125">
        <ele>1217.4000244140625</ele>
        <time>2026-09-03T06:05:41.000Z</time>
        <extensions>
          <ns3:TrackPointExtension>
            <ns3:hr>126</ns3:hr>
            <ns3:cad>0</ns3:cad>
          </ns3:TrackPointExtension>
        </extensions>
      </trkpt>
      <trkpt lat="44.71143093891441822052001953125" lon="6.74409261904656887054443359375">
        <ele>1217.5999755859375</ele>
        <time>2026-09-03T06:05:42.000Z</time>
        <extensions>
          <ns3:TrackPointExtension>
            <ns3:hr>127</ns3:hr>
            <ns3:cad>0</ns3:cad>
          </ns3:TrackPointExtension>
        </extensions>
      </trkpt>
      <trkpt lat="44.7114206291735172271728515625" lon="6.74408826045691967010498046875">
        <ele>1217.800048828125</ele>
        <time>2026-09-03T06:05:43.000Z</time>
        <extensions>
          <ns3:TrackPointExtension>
            <ns3:hr>127</ns3:hr>
            <ns3:cad>0</ns3:cad>
          </ns3:TrackPointExtension>
        </extensions>
      </trkpt>
      <trkpt lat="44.711412750184535980224609375" lon="6.74408976919949054718017578125">
        <ele>1218</ele>
        <time>2026-09-03T06:05:44.000Z</time>
        <extensions>
          <ns3:TrackPointExtension>
            <ns3:hr>127</ns3:hr>
            <ns3:cad>0</ns3:cad>
          </ns3:TrackPointExtension>
        </extensions>
      </trkpt>
      <trkpt lat="44.71140679903328418731689453125" lon="6.74408842809498310089111328125">
        <ele>1218.199951171875</ele>
        <time>2026-09-03T06:05:45.000Z</time>
        <extensions>
          <ns3:TrackPointExtension>
            <ns3:hr>127</ns3:hr>
            <ns3:cad>0</ns3:cad>
          </ns3:TrackPointExtension>
        </extensions>
      </trkpt>
      <trkpt lat="44.7114036977291107177734375" lon="6.74407954327762126922607421875">
        <ele>1218.199951171875</ele>
        <time>2026-09-03T06:05:46.000Z</time>
        <extensions>
          <ns3:TrackPointExtension>
            <ns3:hr>127</ns3:hr>
            <ns3:cad>0</ns3:cad>
          </ns3:TrackPointExtension>
        </extensions>
      </trkpt>
      <trkpt lat="44.71139405854046344757080078125" lon="6.74408993683755397796630859375">
        <ele>1218.4000244140625</ele>
        <time>2026-09-03T06:05:47.000Z</time>
        <extensions>
          <ns3:TrackPointExtension>
            <ns3:hr>127</ns3:hr>
            <ns3:cad>0</ns3:cad>
          </ns3:TrackPointExtension>
        </extensions>
      </trkpt>
      <trkpt lat="44.71138685010373592376708984375" lon="6.7440948821604251861572265625">
        <ele>1218.5999755859375</ele>
        <time>2026-09-03T06:05:48.000Z</time>
        <extensions>
          <ns3:TrackPointExtension>
            <ns3:hr>127</ns3:hr>
            <ns3:cad>0</ns3:cad>
          </ns3:TrackPointExtension>
        </extensions>
      </trkpt>
      <trkpt lat="44.71137478016316890716552734375" lon="6.74409781582653522491455078125">
        <ele>1218.800048828125</ele>
        <time>2026-09-03T06:05:49.000Z</time>
        <extensions>
          <ns3:TrackPointExtension>
            <ns3:hr>127</ns3:hr>
            <ns3:cad>0</ns3:cad>
          </ns3:TrackPointExtension>
        </extensions>
      </trkpt>
      <trkpt lat="44.71137193031609058380126953125" lon="6.74410276114940643310546875">
        <ele>1219</ele>
        <time>2026-09-03T06:05:50.000Z</time>
        <extensions>
          <ns3:TrackPointExtension>
            <ns3:hr>127</ns3:hr>
            <ns3:cad>0</ns3:cad>
          </ns3:TrackPointExtension>
        </extensions>
      </trkpt>
      <trkpt lat="44.7113639675080776214599609375" lon="6.7441082932054996490478515625">
        <ele>1219.199951171875</ele>
        <time>2026-09-03T06:05:51.000Z</time>
        <extensions>
          <ns3:TrackPointExtension>
            <ns3:hr>127</ns3:hr>
            <ns3:cad>0</ns3:cad>
          </ns3:TrackPointExtension>
        </extensions>
      </trkpt>
      <trkpt lat="44.711356423795223236083984375" lon="6.74411340616643428802490234375">
        <ele>1219.4000244140625</ele>
        <time>2026-09-03T06:05:52.000Z</time>
        <extensions>
          <ns3:TrackPointExtension>
            <ns3:hr>128</ns3:hr>
            <ns3:cad>0</ns3:cad>
          </ns3:TrackPointExtension>
        </extensions>
      </trkpt>
      <trkpt lat="44.71135675907135009765625" lon="6.7441183514893054962158203125">
        <ele>1219.5999755859375</ele>
        <time>2026-09-03T06:05:53.000Z</time>
        <extensions>
          <ns3:TrackPointExtension>
            <ns3:hr>127</ns3:hr>
            <ns3:cad>0</ns3:cad>
          </ns3:TrackPointExtension>
        </extensions>
      </trkpt>
      <trkpt lat="44.7113485448062419891357421875" lon="6.7441287450492382049560546875">
        <ele>1219.800048828125</ele>
        <time>2026-09-03T06:05:54.000Z</time>
        <extensions>
          <ns3:TrackPointExtension>
            <ns3:hr>127</ns3:hr>
            <ns3:cad>0</ns3:cad>
          </ns3:TrackPointExtension>
        </extensions>
      </trkpt>
      <trkpt lat="44.71134292893111705780029296875" lon="6.74413419328629970550537109375">
        <ele>1220</ele>
        <time>2026-09-03T06:05:55.000Z</time>
        <extensions>
          <ns3:TrackPointExtension>
            <ns3:hr>127</ns3:hr>
            <ns3:cad>0</ns3:cad>
          </ns3:TrackPointExtension>
        </extensions>
      </trkpt>
      <trkpt lat="44.71134142018854618072509765625" lon="6.7441357858479022979736328125">
        <ele>1220.4000244140625</ele>
        <time>2026-09-03T06:05:56.000Z</time>
        <extensions>
          <ns3:TrackPointExtension>
            <ns3:hr>126</ns3:hr>
            <ns3:cad>0</ns3:cad>
          </ns3:TrackPointExtension>
        </extensions>
      </trkpt>
      <trkpt lat="44.7113361395895481109619140625" lon="6.74414156936109066009521484375">
        <ele>1220.5999755859375</ele>
        <time>2026-09-03T06:05:57.000Z</time>
        <extensions>
          <ns3:TrackPointExtension>
            <ns3:hr>127</ns3:hr>
            <ns3:cad>0</ns3:cad>
          </ns3:TrackPointExtension>
        </extensions>
      </trkpt>
      <trkpt lat="44.71134108491241931915283203125" lon="6.744144000113010406494140625">
        <ele>1220.800048828125</ele>
        <time>2026-09-03T06:05:58.000Z</time>
        <extensions>
          <ns3:TrackPointExtension>
            <ns3:hr>127</ns3:hr>
            <ns3:cad>0</ns3:cad>
          </ns3:TrackPointExtension>
        </extensions>
      </trkpt>
      <trkpt lat="44.7113398276269435882568359375" lon="6.7441505379974842071533203125">
        <ele>1221</ele>
        <time>2026-09-03T06:05:59.000Z</time>
        <extensions>
          <ns3:TrackPointExtension>
            <ns3:hr>127</ns3:hr>
            <ns3:cad>0</ns3:cad>
          </ns3:TrackPointExtension>
        </extensions>
      </trkpt>
      <trkpt lat="44.711341671645641326904296875" lon="6.7441646195948123931884765625">
        <ele>1221.199951171875</ele>
        <time>2026-09-03T06:06:00.000Z</time>
        <extensions>
          <ns3:TrackPointExtension>
            <ns3:hr>126</ns3:hr>
            <ns3:cad>0</ns3:cad>
          </ns3:TrackPointExtension>
        </extensions>
      </trkpt>
      <trkpt lat="44.7113374806940555572509765625" lon="6.74416470341384410858154296875">
        <ele>1221.4000244140625</ele>
        <time>2026-09-03T06:06:01.000Z</time>
        <extensions>
          <ns3:TrackPointExtension>
            <ns3:hr>126</ns3:hr>
            <ns3:cad>0</ns3:cad>
          </ns3:TrackPointExtension>
        </extensions>
      </trkpt>
      <trkpt lat="44.71133731305599212646484375" lon="6.74416084773838520050048828125">
        <ele>1221.5999755859375</ele>
        <time>2026-09-03T06:06:02.000Z</time>
        <extensions>
          <ns3:TrackPointExtension>
            <ns3:hr>126</ns3:hr>
            <ns3:cad>0</ns3:cad>
          </ns3:TrackPointExtension>
        </extensions>
      </trkpt>
      <trkpt lat="44.71132926642894744873046875" lon="6.74416420049965381622314453125">
        <ele>1221.800048828125</ele>
        <time>2026-09-03T06:06:03.000Z</time>
        <extensions>
          <ns3:TrackPointExtension>
            <ns3:hr>126</ns3:hr>
            <ns3:cad>0</ns3:cad>
          </ns3:TrackPointExtension>
        </extensions>
      </trkpt>
      <trkpt lat="44.7113173641264438629150390625" lon="6.74416554160416126251220703125">
        <ele>1222</ele>
        <time>2026-09-03T06:06:04.000Z</time>
        <extensions>
          <ns3:TrackPointExtension>
            <ns3:hr>125</ns3:hr>
            <ns3:cad>0</ns3:cad>
          </ns3:TrackPointExtension>
        </extensions>
      </trkpt>
      <trkpt lat="44.71130973659455776214599609375" lon="6.74416805617511272430419921875">
        <ele>1222.199951171875</ele>
        <time>2026-09-03T06:06:05.000Z</time>
        <extensions>
          <ns3:TrackPointExtension>
            <ns3:hr>125</ns3:hr>
            <ns3:cad>0</ns3:cad>
          </ns3:TrackPointExtension>
        </extensions>
      </trkpt>
      <trkpt lat="44.71130336634814739227294921875" lon="6.74417115747928619384765625">
        <ele>1222.4000244140625</ele>
        <time>2026-09-03T06:06:06.000Z</time>
        <extensions>
          <ns3:TrackPointExtension>
            <ns3:hr>125</ns3:hr>
            <ns3:cad>0</ns3:cad>
          </ns3:TrackPointExtension>
        </extensions>
      </trkpt>
      <trkpt lat="44.71129716373980045318603515625" lon="6.7441716603934764862060546875">
        <ele>1222.5999755859375</ele>
        <time>2026-09-03T06:06:07.000Z</time>
        <extensions>
          <ns3:TrackPointExtension>
            <ns3:hr>124</ns3:hr>
            <ns3:cad>0</ns3:cad>
          </ns3:TrackPointExtension>
        </extensions>
      </trkpt>
      <trkpt lat="44.71129666082561016082763671875" lon="6.744170486927032470703125">
        <ele>1222.800048828125</ele>
        <time>2026-09-03T06:06:08.000Z</time>
        <extensions>
          <ns3:TrackPointExtension>
            <ns3:hr>124</ns3:hr>
            <ns3:cad>0</ns3:cad>
          </ns3:TrackPointExtension>
        </extensions>
      </trkpt>
      <trkpt lat="44.7112845070660114288330078125" lon="6.74417107366025447845458984375">
        <ele>1222.800048828125</ele>
        <time>2026-09-03T06:06:09.000Z</time>
        <extensions>
          <ns3:TrackPointExtension>
            <ns3:hr>123</ns3:hr>
            <ns3:cad>0</ns3:cad>
          </ns3:TrackPointExtension>
        </extensions>
      </trkpt>
      <trkpt lat="44.7112835012376308441162109375" lon="6.74416939727962017059326171875">
        <ele>1223</ele>
        <time>2026-09-03T06:06:10.000Z</time>
        <extensions>
          <ns3:TrackPointExtension>
            <ns3:hr>123</ns3:hr>
            <ns3:cad>0</ns3:cad>
          </ns3:TrackPointExtension>
        </extensions>
      </trkpt>
      <trkpt lat="44.7112878598272800445556640625" lon="6.7441642843186855316162109375">
        <ele>1223.199951171875</ele>
        <time>2026-09-03T06:06:11.000Z</time>
        <extensions>
          <ns3:TrackPointExtension>
            <ns3:hr>123</ns3:hr>
            <ns3:cad>0</ns3:cad>
          </ns3:TrackPointExtension>
        </extensions>
      </trkpt>
      <trkpt lat="44.71128475852310657501220703125" lon="6.74415866844356060028076171875">
        <ele>1223.4000244140625</ele>
        <time>2026-09-03T06:06:12.000Z</time>
        <extensions>
          <ns3:TrackPointExtension>
            <ns3:hr>122</ns3:hr>
            <ns3:cad>49</ns3:cad>
          </ns3:TrackPointExtension>
        </extensions>
      </trkpt>
      <trkpt lat="44.71128693781793117523193359375" lon="6.74415213055908679962158203125">
        <ele>1223.5999755859375</ele>
        <time>2026-09-03T06:06:13.000Z</time>
        <extensions>
          <ns3:TrackPointExtension>
            <ns3:hr>122</ns3:hr>
            <ns3:cad>49</ns3:cad>
          </ns3:TrackPointExtension>
        </extensions>
      </trkpt>
      <trkpt lat="44.711284004151821136474609375" lon="6.74414525739848613739013671875">
        <ele>1223.800048828125</ele>
        <time>2026-09-03T06:06:14.000Z</time>
        <extensions>
          <ns3:TrackPointExtension>
            <ns3:hr>122</ns3:hr>
            <ns3:cad>0</ns3:cad>
          </ns3:TrackPointExtension>
        </extensions>
      </trkpt>
      <trkpt lat="44.71128190867602825164794921875" lon="6.744138300418853759765625">
        <ele>1224</ele>
        <time>2026-09-03T06:06:15.000Z</time>
        <extensions>
          <ns3:TrackPointExtension>
            <ns3:hr>121</ns3:hr>
            <ns3:cad>0</ns3:cad>
          </ns3:TrackPointExtension>
        </extensions>
      </trkpt>
      <trkpt lat="44.711276628077030181884765625" lon="6.74413318745791912078857421875">
        <ele>1224.199951171875</ele>
        <time>2026-09-03T06:06:16.000Z</time>
        <extensions>
          <ns3:TrackPointExtension>
            <ns3:hr>121</ns3:hr>
            <ns3:cad>0</ns3:cad>
          </ns3:TrackPointExtension>
        </extensions>
      </trkpt>
      <trkpt lat="44.71127159893512725830078125" lon="6.7441233806312084197998046875">
        <ele>1224.4000244140625</ele>
        <time>2026-09-03T06:06:17.000Z</time>
        <extensions>
          <ns3:TrackPointExtension>
            <ns3:hr>121</ns3:hr>
            <ns3:cad>0</ns3:cad>
          </ns3:TrackPointExtension>
        </extensions>
      </trkpt>
      <trkpt lat="44.7112610377371311187744140625" lon="6.7441106401383876800537109375">
        <ele>1224.5999755859375</ele>
        <time>2026-09-03T06:06:18.000Z</time>
        <extensions>
          <ns3:TrackPointExtension>
            <ns3:hr>120</ns3:hr>
            <ns3:cad>0</ns3:cad>
          </ns3:TrackPointExtension>
        </extensions>
      </trkpt>
      <trkpt lat="44.7112534940242767333984375" lon="6.74410418607294559478759765625">
        <ele>1224.800048828125</ele>
        <time>2026-09-03T06:06:19.000Z</time>
        <extensions>
          <ns3:TrackPointExtension>
            <ns3:hr>120</ns3:hr>
            <ns3:cad>0</ns3:cad>
          </ns3:TrackPointExtension>
        </extensions>
      </trkpt>
      <trkpt lat="44.7112486325204372406005859375" lon="6.74409580416977405548095703125">
        <ele>1225</ele>
        <time>2026-09-03T06:06:20.000Z</time>
        <extensions>
          <ns3:TrackPointExtension>
            <ns3:hr>121</ns3:hr>
            <ns3:cad>0</ns3:cad>
          </ns3:TrackPointExtension>
        </extensions>
      </trkpt>
      <trkpt lat="44.71123614348471164703369140625" lon="6.74408398568630218505859375">
        <ele>1225.199951171875</ele>
        <time>2026-09-03T06:06:21.000Z</time>
        <extensions>
          <ns3:TrackPointExtension>
            <ns3:hr>122</ns3:hr>
            <ns3:cad>0</ns3:cad>
          </ns3:TrackPointExtension>
        </extensions>
      </trkpt>
      <trkpt lat="44.71123429946601390838623046875" lon="6.74408021382987499237060546875">
        <ele>1225.4000244140625</ele>
        <time>2026-09-03T06:06:22.000Z</time>
        <extensions>
          <ns3:TrackPointExtension>
            <ns3:hr>122</ns3:hr>
            <ns3:cad>0</ns3:cad>
          </ns3:TrackPointExtension>
        </extensions>
      </trkpt>
      <trkpt lat="44.7112224809825420379638671875" lon="6.7440777830779552459716796875">
        <ele>1225.5999755859375</ele>
        <time>2026-09-03T06:06:23.000Z</time>
        <extensions>
          <ns3:TrackPointExtension>
            <ns3:hr>123</ns3:hr>
            <ns3:cad>0</ns3:cad>
          </ns3:TrackPointExtension>
        </extensions>
      </trkpt>
      <trkpt lat="44.7112107463181018829345703125" lon="6.74406965263187885284423828125">
        <ele>1225.800048828125</ele>
        <time>2026-09-03T06:06:24.000Z</time>
        <extensions>
          <ns3:TrackPointExtension>
            <ns3:hr>123</ns3:hr>
            <ns3:cad>0</ns3:cad>
          </ns3:TrackPointExtension>
        </extensions>
      </trkpt>
      <trkpt lat="44.71119859255850315093994140625" lon="6.74406521022319793701171875">
        <ele>1226</ele>
        <time>2026-09-03T06:06:25.000Z</time>
        <extensions>
          <ns3:TrackPointExtension>
            <ns3:hr>123</ns3:hr>
            <ns3:cad>0</ns3:cad>
          </ns3:TrackPointExtension>
        </extensions>
      </trkpt>
      <trkpt lat="44.71118601970374584197998046875" lon="6.74405590631067752838134765625">
        <ele>1226.199951171875</ele>
        <time>2026-09-03T06:06:26.000Z</time>
        <extensions>
          <ns3:TrackPointExtension>
            <ns3:hr>124</ns3:hr>
            <ns3:cad>0</ns3:cad>
          </ns3:TrackPointExtension>
        </extensions>
      </trkpt>
      <trkpt lat="44.7111758776009082794189453125" lon="6.744045428931713104248046875">
        <ele>1226.4000244140625</ele>
        <time>2026-09-03T06:06:27.000Z</time>
        <extensions>
          <ns3:TrackPointExtension>
            <ns3:hr>124</ns3:hr>
            <ns3:cad>0</ns3:cad>
          </ns3:TrackPointExtension>
        </extensions>
      </trkpt>
      <trkpt lat="44.71116456203162670135498046875" lon="6.74403361044824123382568359375">
        <ele>1226.5999755859375</ele>
        <time>2026-09-03T06:06:28.000Z</time>
        <extensions>
          <ns3:TrackPointExtension>
            <ns3:hr>124</ns3:hr>
            <ns3:cad>0</ns3:cad>
          </ns3:TrackPointExtension>
        </extensions>
      </trkpt>
      <trkpt lat="44.711160957813262939453125" lon="6.7440345324575901031494140625">
        <ele>1226.800048828125</ele>
        <time>2026-09-03T06:06:29.000Z</time>
        <extensions>
          <ns3:TrackPointExtension>
            <ns3:hr>124</ns3:hr>
            <ns3:cad>0</ns3:cad>
          </ns3:TrackPointExtension>
        </extensions>
      </trkpt>
      <trkpt lat="44.711157269775867462158203125" lon="6.74403679557144641876220703125">
        <ele>1227</ele>
        <time>2026-09-03T06:06:30.000Z</time>
        <extensions>
          <ns3:TrackPointExtension>
            <ns3:hr>125</ns3:hr>
            <ns3:cad>0</ns3:cad>
          </ns3:TrackPointExtension>
        </extensions>
      </trkpt>
      <trkpt lat="44.711155928671360015869140625" lon="6.7440341971814632415771484375">
        <ele>1227.4000244140625</ele>
        <time>2026-09-03T06:06:31.000Z</time>
        <extensions>
          <ns3:TrackPointExtension>
            <ns3:hr>126</ns3:hr>
            <ns3:cad>0</ns3:cad>
          </ns3:TrackPointExtension>
        </extensions>
      </trkpt>
      <trkpt lat="44.71114947460591793060302734375" lon="6.74402740783989429473876953125">
        <ele>1227.5999755859375</ele>
        <time>2026-09-03T06:06:32.000Z</time>
        <extensions>
          <ns3:TrackPointExtension>
            <ns3:hr>126</ns3:hr>
            <ns3:cad>0</ns3:cad>
          </ns3:TrackPointExtension>
        </extensions>
      </trkpt>
      <trkpt lat="44.71114427782595157623291015625" lon="6.744025982916355133056640625">
        <ele>1227.800048828125</ele>
        <time>2026-09-03T06:06:33.000Z</time>
        <extensions>
          <ns3:TrackPointExtension>
            <ns3:hr>127</ns3:hr>
            <ns3:cad>0</ns3:cad>
          </ns3:TrackPointExtension>
        </extensions>
      </trkpt>
      <trkpt lat="44.71113421954214572906494140625" lon="6.74401869066059589385986328125">
        <ele>1228</ele>
        <time>2026-09-03T06:06:34.000Z</time>
        <extensions>
          <ns3:TrackPointExtension>
            <ns3:hr>127</ns3:hr>
            <ns3:cad>0</ns3:cad>
          </ns3:TrackPointExtension>
        </extensions>
      </trkpt>
      <trkpt lat="44.71112734638154506683349609375" lon="6.74401718191802501678466796875">
        <ele>1228.199951171875</ele>
        <time>2026-09-03T06:06:35.000Z</time>
        <extensions>
          <ns3:TrackPointExtension>
            <ns3:hr>128</ns3:hr>
            <ns3:cad>0</ns3:cad>
          </ns3:TrackPointExtension>
        </extensions>
      </trkpt>
      <trkpt lat="44.71112550236284732818603515625" lon="6.744014918804168701171875">
        <ele>1228.4000244140625</ele>
        <time>2026-09-03T06:06:36.000Z</time>
        <extensions>
          <ns3:TrackPointExtension>
            <ns3:hr>129</ns3:hr>
            <ns3:cad>0</ns3:cad>
          </ns3:TrackPointExtension>
        </extensions>
      </trkpt>
      <trkpt lat="44.7111182101070880889892578125" lon="6.744009554386138916015625">
        <ele>1228.5999755859375</ele>
        <time>2026-09-03T06:06:37.000Z</time>
        <extensions>
          <ns3:TrackPointExtension>
            <ns3:hr>130</ns3:hr>
            <ns3:cad>0</ns3:cad>
          </ns3:TrackPointExtension>
        </extensions>
      </trkpt>
      <trkpt lat="44.71111477352678775787353515625" lon="6.74400829710066318511962890625">
        <ele>1228.800048828125</ele>
        <time>2026-09-03T06:06:38.000Z</time>
        <extensions>
          <ns3:TrackPointExtension>
            <ns3:hr>130</ns3:hr>
            <ns3:cad>0</ns3:cad>
          </ns3:TrackPointExtension>
        </extensions>
      </trkpt>
      <trkpt lat="44.71110873855650424957275390625" lon="6.74399949610233306884765625">
        <ele>1229</ele>
        <time>2026-09-03T06:06:39.000Z</time>
        <extensions>
          <ns3:TrackPointExtension>
            <ns3:hr>130</ns3:hr>
            <ns3:cad>0</ns3:cad>
          </ns3:TrackPointExtension>
        </extensions>
      </trkpt>
      <trkpt lat="44.71109985373914241790771484375" lon="6.74399949610233306884765625">
        <ele>1229.199951171875</ele>
        <time>2026-09-03T06:06:40.000Z</time>
        <extensions>
          <ns3:TrackPointExtension>
            <ns3:hr>131</ns3:hr>
            <ns3:cad>0</ns3:cad>
          </ns3:TrackPointExtension>
        </extensions>
      </trkpt>
      <trkpt lat="44.7110984288156032562255859375" lon="6.7439939640462398529052734375">
        <ele>1229.4000244140625</ele>
        <time>2026-09-03T06:06:41.000Z</time>
        <extensions>
          <ns3:TrackPointExtension>
            <ns3:hr>131</ns3:hr>
            <ns3:cad>0</ns3:cad>
          </ns3:TrackPointExtension>
        </extensions>
      </trkpt>
      <trkpt lat="44.7110937349498271942138671875" lon="6.74398901872336864471435546875">
        <ele>1229.5999755859375</ele>
        <time>2026-09-03T06:06:42.000Z</time>
        <extensions>
          <ns3:TrackPointExtension>
            <ns3:hr>131</ns3:hr>
            <ns3:cad>0</ns3:cad>
          </ns3:TrackPointExtension>
        </extensions>
      </trkpt>
      <trkpt lat="44.711093902587890625" lon="6.74398248083889484405517578125">
        <ele>1229.800048828125</ele>
        <time>2026-09-03T06:06:43.000Z</time>
        <extensions>
          <ns3:TrackPointExtension>
            <ns3:hr>132</ns3:hr>
            <ns3:cad>0</ns3:cad>
          </ns3:TrackPointExtension>
        </extensions>
      </trkpt>
      <trkpt lat="44.71109197475016117095947265625" lon="6.7439761944115161895751953125">
        <ele>1230</ele>
        <time>2026-09-03T06:06:44.000Z</time>
        <extensions>
          <ns3:TrackPointExtension>
            <ns3:hr>132</ns3:hr>
            <ns3:cad>0</ns3:cad>
          </ns3:TrackPointExtension>
        </extensions>
      </trkpt>
      <trkpt lat="44.7110940702259540557861328125" lon="6.74397493712604045867919921875">
        <ele>1230.199951171875</ele>
        <time>2026-09-03T06:06:45.000Z</time>
        <extensions>
          <ns3:TrackPointExtension>
            <ns3:hr>133</ns3:hr>
            <ns3:cad>0</ns3:cad>
          </ns3:TrackPointExtension>
        </extensions>
      </trkpt>
      <trkpt lat="44.71108627505600452423095703125" lon="6.7439691536128520965576171875">
        <ele>1230.4000244140625</ele>
        <time>2026-09-03T06:06:46.000Z</time>
        <extensions>
          <ns3:TrackPointExtension>
            <ns3:hr>133</ns3:hr>
            <ns3:cad>0</ns3:cad>
          </ns3:TrackPointExtension>
        </extensions>
      </trkpt>
      <trkpt lat="44.71107973717153072357177734375" lon="6.7439671419560909271240234375">
        <ele>1230.5999755859375</ele>
        <time>2026-09-03T06:06:47.000Z</time>
        <extensions>
          <ns3:TrackPointExtension>
            <ns3:hr>134</ns3:hr>
            <ns3:cad>0</ns3:cad>
          </ns3:TrackPointExtension>
        </extensions>
      </trkpt>
      <trkpt lat="44.7110729478299617767333984375" lon="6.74396052025258541107177734375">
        <ele>1230.800048828125</ele>
        <time>2026-09-03T06:06:48.000Z</time>
        <extensions>
          <ns3:TrackPointExtension>
            <ns3:hr>140</ns3:hr>
            <ns3:cad>0</ns3:cad>
          </ns3:TrackPointExtension>
        </extensions>
      </trkpt>
      <trkpt lat="44.71106280572712421417236328125" lon="6.7439533956348896026611328125">
        <ele>1231</ele>
        <time>2026-09-03T06:06:49.000Z</time>
        <extensions>
          <ns3:TrackPointExtension>
            <ns3:hr>142</ns3:hr>
            <ns3:cad>0</ns3:cad>
          </ns3:TrackPointExtension>
        </extensions>
      </trkpt>
      <trkpt lat="44.71105299890041351318359375" lon="6.7439493723213672637939453125">
        <ele>1231.199951171875</ele>
        <time>2026-09-03T06:06:50.000Z</time>
        <extensions>
          <ns3:TrackPointExtension>
            <ns3:hr>143</ns3:hr>
            <ns3:cad>0</ns3:cad>
          </ns3:TrackPointExtension>
        </extensions>
      </trkpt>
      <trkpt lat="44.711042605340480804443359375" lon="6.74394375644624233245849609375">
        <ele>1231.4000244140625</ele>
        <time>2026-09-03T06:06:51.000Z</time>
        <extensions>
          <ns3:TrackPointExtension>
            <ns3:hr>143</ns3:hr>
            <ns3:cad>0</ns3:cad>
          </ns3:TrackPointExtension>
        </extensions>
      </trkpt>
      <trkpt lat="44.71103556454181671142578125" lon="6.743928752839565277099609375">
        <ele>1231.5999755859375</ele>
        <time>2026-09-03T06:06:52.000Z</time>
        <extensions>
          <ns3:TrackPointExtension>
            <ns3:hr>143</ns3:hr>
            <ns3:cad>0</ns3:cad>
          </ns3:TrackPointExtension>
        </extensions>
      </trkpt>
      <trkpt lat="44.7110290266573429107666015625" lon="6.7439242266118526458740234375">
        <ele>1231.800048828125</ele>
        <time>2026-09-03T06:06:53.000Z</time>
        <extensions>
          <ns3:TrackPointExtension>
            <ns3:hr>143</ns3:hr>
            <ns3:cad>0</ns3:cad>
          </ns3:TrackPointExtension>
        </extensions>
      </trkpt>
      <trkpt lat="44.71102542243897914886474609375" lon="6.74392146058380603790283203125">
        <ele>1232</ele>
        <time>2026-09-03T06:06:54.000Z</time>
        <extensions>
          <ns3:TrackPointExtension>
            <ns3:hr>143</ns3:hr>
            <ns3:cad>0</ns3:cad>
          </ns3:TrackPointExtension>
        </extensions>
      </trkpt>
      <trkpt lat="44.7110193036496639251708984375" lon="6.7439178563654422760009765625">
        <ele>1232.199951171875</ele>
        <time>2026-09-03T06:06:55.000Z</time>
        <extensions>
          <ns3:TrackPointExtension>
            <ns3:hr>143</ns3:hr>
            <ns3:cad>0</ns3:cad>
          </ns3:TrackPointExtension>
        </extensions>
      </trkpt>
      <trkpt lat="44.71100999973714351654052734375" lon="6.74391089938580989837646484375">
        <ele>1232.4000244140625</ele>
        <time>2026-09-03T06:06:56.000Z</time>
        <extensions>
          <ns3:TrackPointExtension>
            <ns3:hr>142</ns3:hr>
            <ns3:cad>0</ns3:cad>
          </ns3:TrackPointExtension>
        </extensions>
      </trkpt>
      <trkpt lat="44.7110055573284626007080078125" lon="6.7439081333577632904052734375">
        <ele>1232.5999755859375</ele>
        <time>2026-09-03T06:06:57.000Z</time>
        <extensions>
          <ns3:TrackPointExtension>
            <ns3:hr>143</ns3:hr>
            <ns3:cad>0</ns3:cad>
          </ns3:TrackPointExtension>
        </extensions>
      </trkpt>
      <trkpt lat="44.71099155955016613006591796875" lon="6.7439141683280467987060546875">
        <ele>1232.800048828125</ele>
        <time>2026-09-03T06:06:58.000Z</time>
        <extensions>
          <ns3:TrackPointExtension>
            <ns3:hr>143</ns3:hr>
            <ns3:cad>0</ns3:cad>
          </ns3:TrackPointExtension>
        </extensions>
      </trkpt>
      <trkpt lat="44.71098368056118488311767578125" lon="6.74391089938580989837646484375">
        <ele>1233</ele>
        <time>2026-09-03T06:06:59.000Z</time>
        <extensions>
          <ns3:TrackPointExtension>
            <ns3:hr>143</ns3:hr>
            <ns3:cad>0</ns3:cad>
          </ns3:TrackPointExtension>
        </extensions>
      </trkpt>
      <trkpt lat="44.71098535694181919097900390625" lon="6.74391190521419048309326171875">
        <ele>1233.199951171875</ele>
        <time>2026-09-03T06:07:00.000Z</time>
        <extensions>
          <ns3:TrackPointExtension>
            <ns3:hr>143</ns3:hr>
            <ns3:cad>0</ns3:cad>
          </ns3:TrackPointExtension>
        </extensions>
      </trkpt>
      <trkpt lat="44.71097932197153568267822265625" lon="6.74390704371035099029541015625">
        <ele>1233.4000244140625</ele>
        <time>2026-09-03T06:07:01.000Z</time>
        <extensions>
          <ns3:TrackPointExtension>
            <ns3:hr>143</ns3:hr>
            <ns3:cad>0</ns3:cad>
          </ns3:TrackPointExtension>
        </extensions>
      </trkpt>
      <trkpt lat="44.71097311936318874359130859375" lon="6.743905283510684967041015625">
        <ele>1233.5999755859375</ele>
        <time>2026-09-03T06:07:02.000Z</time>
        <extensions>
          <ns3:TrackPointExtension>
            <ns3:hr>142</ns3:hr>
            <ns3:cad>0</ns3:cad>
          </ns3:TrackPointExtension>
        </extensions>
      </trkpt>
      <trkpt lat="44.71097563393414020538330078125" lon="6.7439027689397335052490234375">
        <ele>1233.800048828125</ele>
        <time>2026-09-03T06:07:03.000Z</time>
        <extensions>
          <ns3:TrackPointExtension>
            <ns3:hr>142</ns3:hr>
            <ns3:cad>0</ns3:cad>
          </ns3:TrackPointExtension>
        </extensions>
      </trkpt>
      <trkpt lat="44.71096985042095184326171875" lon="6.7438930459320545196533203125">
        <ele>1234</ele>
        <time>2026-09-03T06:07:04.000Z</time>
        <extensions>
          <ns3:TrackPointExtension>
            <ns3:hr>142</ns3:hr>
            <ns3:cad>0</ns3:cad>
          </ns3:TrackPointExtension>
        </extensions>
      </trkpt>
      <trkpt lat="44.7109680064022541046142578125" lon="6.7438863404095172882080078125">
        <ele>1234.4000244140625</ele>
        <time>2026-09-03T06:07:05.000Z</time>
        <extensions>
          <ns3:TrackPointExtension>
            <ns3:hr>143</ns3:hr>
            <ns3:cad>0</ns3:cad>
          </ns3:TrackPointExtension>
        </extensions>
      </trkpt>
      <trkpt lat="44.710962139070034027099609375" lon="6.7438794672489166259765625">
        <ele>1234.5999755859375</ele>
        <time>2026-09-03T06:07:06.000Z</time>
        <extensions>
          <ns3:TrackPointExtension>
            <ns3:hr>142</ns3:hr>
            <ns3:cad>0</ns3:cad>
          </ns3:TrackPointExtension>
        </extensions>
      </trkpt>
      <trkpt lat="44.71095970831811428070068359375" lon="6.74387468956410884857177734375">
        <ele>1234.5999755859375</ele>
        <time>2026-09-03T06:07:07.000Z</time>
        <extensions>
          <ns3:TrackPointExtension>
            <ns3:hr>142</ns3:hr>
            <ns3:cad>0</ns3:cad>
          </ns3:TrackPointExtension>
        </extensions>
      </trkpt>
      <trkpt lat="44.7109572775661945343017578125" lon="6.74387217499315738677978515625">
        <ele>1234.800048828125</ele>
        <time>2026-09-03T06:07:08.000Z</time>
        <extensions>
          <ns3:TrackPointExtension>
            <ns3:hr>143</ns3:hr>
            <ns3:cad>0</ns3:cad>
          </ns3:TrackPointExtension>
        </extensions>
      </trkpt>
      <trkpt lat="44.7109504044055938720703125" lon="6.74386144615709781646728515625">
        <ele>1235</ele>
        <time>2026-09-03T06:07:09.000Z</time>
        <extensions>
          <ns3:TrackPointExtension>
            <ns3:hr>142</ns3:hr>
            <ns3:cad>0</ns3:cad>
          </ns3:TrackPointExtension>
        </extensions>
      </trkpt>
      <trkpt lat="44.710948057472705841064453125" lon="6.74385574646294116973876953125">
        <ele>1235.199951171875</ele>
        <time>2026-09-03T06:07:10.000Z</time>
        <extensions>
          <ns3:TrackPointExtension>
            <ns3:hr>142</ns3:hr>
            <ns3:cad>0</ns3:cad>
          </ns3:TrackPointExtension>
        </extensions>
      </trkpt>
      <trkpt lat="44.71093498170375823974609375" lon="6.74384669400751590728759765625">
        <ele>1235.4000244140625</ele>
        <time>2026-09-03T06:07:11.000Z</time>
        <extensions>
          <ns3:TrackPointExtension>
            <ns3:hr>142</ns3:hr>
            <ns3:cad>0</ns3:cad>
          </ns3:TrackPointExtension>
        </extensions>
      </trkpt>
      <trkpt lat="44.71092802472412586212158203125" lon="6.7438420839607715606689453125">
        <ele>1235.5999755859375</ele>
        <time>2026-09-03T06:07:12.000Z</time>
        <extensions>
          <ns3:TrackPointExtension>
            <ns3:hr>142</ns3:hr>
            <ns3:cad>0</ns3:cad>
          </ns3:TrackPointExtension>
        </extensions>
      </trkpt>
      <trkpt lat="44.71091863699257373809814453125" lon="6.74384032376110553741455078125">
        <ele>1235.800048828125</ele>
        <time>2026-09-03T06:07:13.000Z</time>
        <extensions>
          <ns3:TrackPointExtension>
            <ns3:hr>142</ns3:hr>
            <ns3:cad>0</ns3:cad>
          </ns3:TrackPointExtension>
        </extensions>
      </trkpt>
      <trkpt lat="44.71091042272746562957763671875" lon="6.74384392797946929931640625">
        <ele>1236</ele>
        <time>2026-09-03T06:07:14.000Z</time>
        <extensions>
          <ns3:TrackPointExtension>
            <ns3:hr>141</ns3:hr>
            <ns3:cad>0</ns3:cad>
          </ns3:TrackPointExtension>
        </extensions>
      </trkpt>
      <trkpt lat="44.71090790815651416778564453125" lon="6.74384652636945247650146484375">
        <ele>1236.199951171875</ele>
        <time>2026-09-03T06:07:15.000Z</time>
        <extensions>
          <ns3:TrackPointExtension>
            <ns3:hr>140</ns3:hr>
            <ns3:cad>0</ns3:cad>
          </ns3:TrackPointExtension>
        </extensions>
      </trkpt>
      <trkpt lat="44.71090086735785007476806640625" lon="6.74385130405426025390625">
        <ele>1236.5999755859375</ele>
        <time>2026-09-03T06:07:16.000Z</time>
        <extensions>
          <ns3:TrackPointExtension>
            <ns3:hr>140</ns3:hr>
            <ns3:cad>0</ns3:cad>
          </ns3:TrackPointExtension>
        </extensions>
      </trkpt>
      <trkpt lat="44.71089969389140605926513671875" lon="6.74385256133973598480224609375">
        <ele>1236.800048828125</ele>
        <time>2026-09-03T06:07:17.000Z</time>
        <extensions>
          <ns3:TrackPointExtension>
            <ns3:hr>140</ns3:hr>
            <ns3:cad>0</ns3:cad>
          </ns3:TrackPointExtension>
        </extensions>
      </trkpt>
      <trkpt lat="44.71088879741728305816650390625" lon="6.743859685957431793212890625">
        <ele>1237</ele>
        <time>2026-09-03T06:07:18.000Z</time>
        <extensions>
          <ns3:TrackPointExtension>
            <ns3:hr>139</ns3:hr>
            <ns3:cad>0</ns3:cad>
          </ns3:TrackPointExtension>
        </extensions>
      </trkpt>
      <trkpt lat="44.71088645048439502716064453125" lon="6.7438601888716220855712890625">
        <ele>1237.199951171875</ele>
        <time>2026-09-03T06:07:19.000Z</time>
        <extensions>
          <ns3:TrackPointExtension>
            <ns3:hr>139</ns3:hr>
            <ns3:cad>0</ns3:cad>
          </ns3:TrackPointExtension>
        </extensions>
      </trkpt>
      <trkpt lat="44.71087572164833545684814453125" lon="6.74385541118681430816650390625">
        <ele>1237.4000244140625</ele>
        <time>2026-09-03T06:07:20.000Z</time>
        <extensions>
          <ns3:TrackPointExtension>
            <ns3:hr>139</ns3:hr>
            <ns3:cad>0</ns3:cad>
          </ns3:TrackPointExtension>
        </extensions>
      </trkpt>
      <trkpt lat="44.7108637355268001556396484375" lon="6.74386111088097095489501953125">
        <ele>1237.5999755859375</ele>
        <time>2026-09-03T06:07:21.000Z</time>
        <extensions>
          <ns3:TrackPointExtension>
            <ns3:hr>139</ns3:hr>
            <ns3:cad>0</ns3:cad>
          </ns3:TrackPointExtension>
        </extensions>
      </trkpt>
      <trkpt lat="44.71085661090910434722900390625" lon="6.7438645474612712860107421875">
        <ele>1237.800048828125</ele>
        <time>2026-09-03T06:07:22.000Z</time>
        <extensions>
          <ns3:TrackPointExtension>
            <ns3:hr>139</ns3:hr>
            <ns3:cad>0</ns3:cad>
          </ns3:TrackPointExtension>
        </extensions>
      </trkpt>
      <trkpt lat="44.7108469717204570770263671875" lon="6.74386429600417613983154296875">
        <ele>1238</ele>
        <time>2026-09-03T06:07:23.000Z</time>
        <extensions>
          <ns3:TrackPointExtension>
            <ns3:hr>138</ns3:hr>
            <ns3:cad>0</ns3:cad>
          </ns3:TrackPointExtension>
        </extensions>
      </trkpt>
      <trkpt lat="44.710846133530139923095703125" lon="6.74385306425392627716064453125">
        <ele>1238.199951171875</ele>
        <time>2026-09-03T06:07:24.000Z</time>
        <extensions>
          <ns3:TrackPointExtension>
            <ns3:hr>138</ns3:hr>
            <ns3:cad>0</ns3:cad>
          </ns3:TrackPointExtension>
        </extensions>
      </trkpt>
      <trkpt lat="44.71084068529307842254638671875" lon="6.74384258687496185302734375">
        <ele>1238.4000244140625</ele>
        <time>2026-09-03T06:07:25.000Z</time>
        <extensions>
          <ns3:TrackPointExtension>
            <ns3:hr>138</ns3:hr>
            <ns3:cad>0</ns3:cad>
          </ns3:TrackPointExtension>
        </extensions>
      </trkpt>
      <trkpt lat="44.7108352370560169219970703125" lon="6.74382858909666538238525390625">
        <ele>1238.5999755859375</ele>
        <time>2026-09-03T06:07:26.000Z</time>
        <extensions>
          <ns3:TrackPointExtension>
            <ns3:hr>138</ns3:hr>
            <ns3:cad>0</ns3:cad>
          </ns3:TrackPointExtension>
        </extensions>
      </trkpt>
      <trkpt lat="44.7108265198767185211181640625" lon="6.74380931071937084197998046875">
        <ele>1238.800048828125</ele>
        <time>2026-09-03T06:07:27.000Z</time>
        <extensions>
          <ns3:TrackPointExtension>
            <ns3:hr>137</ns3:hr>
            <ns3:cad>0</ns3:cad>
          </ns3:TrackPointExtension>
        </extensions>
      </trkpt>
      <trkpt lat="44.71082073636353015899658203125" lon="6.74379791133105754852294921875">
        <ele>1238.800048828125</ele>
        <time>2026-09-03T06:07:28.000Z</time>
        <extensions>
          <ns3:TrackPointExtension>
            <ns3:hr>137</ns3:hr>
            <ns3:cad>0</ns3:cad>
          </ns3:TrackPointExtension>
        </extensions>
      </trkpt>
      <trkpt lat="44.71081369556486606597900390625" lon="6.74378894269466400146484375">
        <ele>1239</ele>
        <time>2026-09-03T06:07:29.000Z</time>
        <extensions>
          <ns3:TrackPointExtension>
            <ns3:hr>137</ns3:hr>
            <ns3:cad>0</ns3:cad>
          </ns3:TrackPointExtension>
        </extensions>
      </trkpt>
      <trkpt lat="44.710808582603931427001953125" lon="6.74378064461052417755126953125">
        <ele>1239</ele>
        <time>2026-09-03T06:07:30.000Z</time>
        <extensions>
          <ns3:TrackPointExtension>
            <ns3:hr>137</ns3:hr>
            <ns3:cad>52</ns3:cad>
          </ns3:TrackPointExtension>
        </extensions>
      </trkpt>
      <trkpt lat="44.71080313436686992645263671875" lon="6.74377092160284519195556640625">
        <ele>1239.199951171875</ele>
        <time>2026-09-03T06:07:31.000Z</time>
        <extensions>
          <ns3:TrackPointExtension>
            <ns3:hr>136</ns3:hr>
            <ns3:cad>52</ns3:cad>
          </ns3:TrackPointExtension>
        </extensions>
      </trkpt>
      <trkpt lat="44.710797853767871856689453125" lon="6.7437619529664516448974609375">
        <ele>1239.199951171875</ele>
        <time>2026-09-03T06:07:32.000Z</time>
        <extensions>
          <ns3:TrackPointExtension>
            <ns3:hr>136</ns3:hr>
            <ns3:cad>53</ns3:cad>
          </ns3:TrackPointExtension>
        </extensions>
      </trkpt>
      <trkpt lat="44.7107939980924129486083984375" lon="6.74375541508197784423828125">
        <ele>1239.4000244140625</ele>
        <time>2026-09-03T06:07:33.000Z</time>
        <extensions>
          <ns3:TrackPointExtension>
            <ns3:hr>136</ns3:hr>
            <ns3:cad>53</ns3:cad>
          </ns3:TrackPointExtension>
        </extensions>
      </trkpt>
      <trkpt lat="44.71078989095985889434814453125" lon="6.74374728463590145111083984375">
        <ele>1239.4000244140625</ele>
        <time>2026-09-03T06:07:34.000Z</time>
        <extensions>
          <ns3:TrackPointExtension>
            <ns3:hr>135</ns3:hr>
            <ns3:cad>55</ns3:cad>
          </ns3:TrackPointExtension>
        </extensions>
      </trkpt>
      <trkpt lat="44.710786454379558563232421875" lon="6.7437399923801422119140625">
        <ele>1239.5999755859375</ele>
        <time>2026-09-03T06:07:35.000Z</time>
        <extensions>
          <ns3:TrackPointExtension>
            <ns3:hr>135</ns3:hr>
            <ns3:cad>55</ns3:cad>
          </ns3:TrackPointExtension>
        </extensions>
      </trkpt>
      <trkpt lat="44.71078117378056049346923828125" lon="6.74373202957212924957275390625">
        <ele>1239.5999755859375</ele>
        <time>2026-09-03T06:07:36.000Z</time>
        <extensions>
          <ns3:TrackPointExtension>
            <ns3:hr>134</ns3:hr>
            <ns3:cad>55</ns3:cad>
          </ns3:TrackPointExtension>
        </extensions>
      </trkpt>
      <trkpt lat="44.71077748574316501617431640625" lon="6.7437244020402431488037109375">
        <ele>1239.800048828125</ele>
        <time>2026-09-03T06:07:37.000Z</time>
        <extensions>
          <ns3:TrackPointExtension>
            <ns3:hr>133</ns3:hr>
            <ns3:cad>55</ns3:cad>
          </ns3:TrackPointExtension>
        </extensions>
      </trkpt>
      <trkpt lat="44.7107745520770549774169921875" lon="6.74372012726962566375732421875">
        <ele>1239.800048828125</ele>
        <time>2026-09-03T06:07:38.000Z</time>
        <extensions>
          <ns3:TrackPointExtension>
            <ns3:hr>133</ns3:hr>
            <ns3:cad>55</ns3:cad>
          </ns3:TrackPointExtension>
        </extensions>
      </trkpt>
      <trkpt lat="44.7107701934874057769775390625" lon="6.74371384084224700927734375">
        <ele>1240</ele>
        <time>2026-09-03T06:07:39.000Z</time>
        <extensions>
          <ns3:TrackPointExtension>
            <ns3:hr>133</ns3:hr>
            <ns3:cad>55</ns3:cad>
          </ns3:TrackPointExtension>
        </extensions>
      </trkpt>
      <trkpt lat="44.71076667308807373046875" lon="6.74370738677680492401123046875">
        <ele>1240.199951171875</ele>
        <time>2026-09-03T06:07:40.000Z</time>
        <extensions>
          <ns3:TrackPointExtension>
            <ns3:hr>134</ns3:hr>
            <ns3:cad>55</ns3:cad>
          </ns3:TrackPointExtension>
        </extensions>
      </trkpt>
      <trkpt lat="44.7107626497745513916015625" lon="6.743699423968791961669921875">
        <ele>1240.4000244140625</ele>
        <time>2026-09-03T06:07:41.000Z</time>
        <extensions>
          <ns3:TrackPointExtension>
            <ns3:hr>133</ns3:hr>
            <ns3:cad>54</ns3:cad>
          </ns3:TrackPointExtension>
        </extensions>
      </trkpt>
      <trkpt lat="44.710756950080394744873046875" lon="6.74369179643690586090087890625">
        <ele>1240.5999755859375</ele>
        <time>2026-09-03T06:07:42.000Z</time>
        <extensions>
          <ns3:TrackPointExtension>
            <ns3:hr>132</ns3:hr>
            <ns3:cad>53</ns3:cad>
          </ns3:TrackPointExtension>
        </extensions>
      </trkpt>
      <trkpt lat="44.7107534296810626983642578125" lon="6.7436845041811466217041015625">
        <ele>1240.5999755859375</ele>
        <time>2026-09-03T06:07:43.000Z</time>
        <extensions>
          <ns3:TrackPointExtension>
            <ns3:hr>132</ns3:hr>
            <ns3:cad>52</ns3:cad>
          </ns3:TrackPointExtension>
        </extensions>
      </trkpt>
      <trkpt lat="44.71074949018657207489013671875" lon="6.74367067404091358184814453125">
        <ele>1240.800048828125</ele>
        <time>2026-09-03T06:07:44.000Z</time>
        <extensions>
          <ns3:TrackPointExtension>
            <ns3:hr>133</ns3:hr>
            <ns3:cad>52</ns3:cad>
          </ns3:TrackPointExtension>
        </extensions>
      </trkpt>
      <trkpt lat="44.7107411921024322509765625" lon="6.7436553351581096649169921875">
        <ele>1241</ele>
        <time>2026-09-03T06:07:45.000Z</time>
        <extensions>
          <ns3:TrackPointExtension>
            <ns3:hr>133</ns3:hr>
            <ns3:cad>52</ns3:cad>
          </ns3:TrackPointExtension>
        </extensions>
      </trkpt>
      <trkpt lat="44.710734151303768157958984375" lon="6.743641085922718048095703125">
        <ele>1241.199951171875</ele>
        <time>2026-09-03T06:07:46.000Z</time>
        <extensions>
          <ns3:TrackPointExtension>
            <ns3:hr>133</ns3:hr>
            <ns3:cad>53</ns3:cad>
          </ns3:TrackPointExtension>
        </extensions>
      </trkpt>
      <trkpt lat="44.710727445781230926513671875" lon="6.7436278425157070159912109375">
        <ele>1241.199951171875</ele>
        <time>2026-09-03T06:07:47.000Z</time>
        <extensions>
          <ns3:TrackPointExtension>
            <ns3:hr>133</ns3:hr>
            <ns3:cad>53</ns3:cad>
          </ns3:TrackPointExtension>
        </extensions>
      </trkpt>
      <trkpt lat="44.71072300337255001068115234375" lon="6.74361434765160083770751953125">
        <ele>1241.4000244140625</ele>
        <time>2026-09-03T06:07:48.000Z</time>
        <extensions>
          <ns3:TrackPointExtension>
            <ns3:hr>133</ns3:hr>
            <ns3:cad>53</ns3:cad>
          </ns3:TrackPointExtension>
        </extensions>
      </trkpt>
      <trkpt lat="44.71071948297321796417236328125" lon="6.74360445700585842132568359375">
        <ele>1241.5999755859375</ele>
        <time>2026-09-03T06:07:49.000Z</time>
        <extensions>
          <ns3:TrackPointExtension>
            <ns3:hr>133</ns3:hr>
            <ns3:cad>53</ns3:cad>
          </ns3:TrackPointExtension>
        </extensions>
      </trkpt>
      <trkpt lat="44.71071495674550533294677734375" lon="6.74359356053173542022705078125">
        <ele>1241.5999755859375</ele>
        <time>2026-09-03T06:07:50.000Z</time>
        <extensions>
          <ns3:TrackPointExtension>
            <ns3:hr>133</ns3:hr>
            <ns3:cad>53</ns3:cad>
          </ns3:TrackPointExtension>
        </extensions>
      </trkpt>
      <trkpt lat="44.71070959232747554779052734375" lon="6.74358232878148555755615234375">
        <ele>1241.800048828125</ele>
        <time>2026-09-03T06:07:51.000Z</time>
        <extensions>
          <ns3:TrackPointExtension>
            <ns3:hr>133</ns3:hr>
            <ns3:cad>53</ns3:cad>
          </ns3:TrackPointExtension>
        </extensions>
      </trkpt>
      <trkpt lat="44.71070028841495513916015625" lon="6.74356154166162014007568359375">
        <ele>1242</ele>
        <time>2026-09-03T06:07:52.000Z</time>
        <extensions>
          <ns3:TrackPointExtension>
            <ns3:hr>133</ns3:hr>
            <ns3:cad>52</ns3:cad>
          </ns3:TrackPointExtension>
        </extensions>
      </trkpt>
      <trkpt lat="44.71069450490176677703857421875" lon="6.74355232156813144683837890625">
        <ele>1242</ele>
        <time>2026-09-03T06:07:53.000Z</time>
        <extensions>
          <ns3:TrackPointExtension>
            <ns3:hr>133</ns3:hr>
            <ns3:cad>51</ns3:cad>
          </ns3:TrackPointExtension>
        </extensions>
      </trkpt>
      <trkpt lat="44.7106903977692127227783203125" lon="6.74354058690369129180908203125">
        <ele>1242.199951171875</ele>
        <time>2026-09-03T06:07:54.000Z</time>
        <extensions>
          <ns3:TrackPointExtension>
            <ns3:hr>133</ns3:hr>
            <ns3:cad>51</ns3:cad>
          </ns3:TrackPointExtension>
        </extensions>
      </trkpt>
      <trkpt lat="44.71068411134183406829833984375" lon="6.74353254027664661407470703125">
        <ele>1242.4000244140625</ele>
        <time>2026-09-03T06:07:55.000Z</time>
        <extensions>
          <ns3:TrackPointExtension>
            <ns3:hr>133</ns3:hr>
            <ns3:cad>51</ns3:cad>
          </ns3:TrackPointExtension>
        </extensions>
      </trkpt>
      <trkpt lat="44.71068075858056545257568359375" lon="6.743526421487331390380859375">
        <ele>1242.5999755859375</ele>
        <time>2026-09-03T06:07:56.000Z</time>
        <extensions>
          <ns3:TrackPointExtension>
            <ns3:hr>132</ns3:hr>
            <ns3:cad>0</ns3:cad>
          </ns3:TrackPointExtension>
        </extensions>
      </trkpt>
      <trkpt lat="44.7106754779815673828125" lon="6.74351694993674755096435546875">
        <ele>1242.800048828125</ele>
        <time>2026-09-03T06:07:57.000Z</time>
        <extensions>
          <ns3:TrackPointExtension>
            <ns3:hr>132</ns3:hr>
            <ns3:cad>0</ns3:cad>
          </ns3:TrackPointExtension>
        </extensions>
      </trkpt>
      <trkpt lat="44.71066835336387157440185546875" lon="6.743505299091339111328125">
        <ele>1243</ele>
        <time>2026-09-03T06:07:58.000Z</time>
        <extensions>
          <ns3:TrackPointExtension>
            <ns3:hr>132</ns3:hr>
            <ns3:cad>0</ns3:cad>
          </ns3:TrackPointExtension>
        </extensions>
      </trkpt>
      <trkpt lat="44.71066164784133434295654296875" lon="6.74349532462656497955322265625">
        <ele>1243.199951171875</ele>
        <time>2026-09-03T06:07:59.000Z</time>
        <extensions>
          <ns3:TrackPointExtension>
            <ns3:hr>132</ns3:hr>
            <ns3:cad>0</ns3:cad>
          </ns3:TrackPointExtension>
        </extensions>
      </trkpt>
      <trkpt lat="44.71065611578524112701416015625" lon="6.7434836737811565399169921875">
        <ele>1243.4000244140625</ele>
        <time>2026-09-03T06:08:00.000Z</time>
        <extensions>
          <ns3:TrackPointExtension>
            <ns3:hr>132</ns3:hr>
            <ns3:cad>0</ns3:cad>
          </ns3:TrackPointExtension>
        </extensions>
      </trkpt>
      <trkpt lat="44.710649661719799041748046875" lon="6.74347118474543094635009765625">
        <ele>1243.5999755859375</ele>
        <time>2026-09-03T06:08:01.000Z</time>
        <extensions>
          <ns3:TrackPointExtension>
            <ns3:hr>133</ns3:hr>
            <ns3:cad>0</ns3:cad>
          </ns3:TrackPointExtension>
        </extensions>
      </trkpt>
      <trkpt lat="44.71064605750143527984619140625" lon="6.74346229992806911468505859375">
        <ele>1243.5999755859375</ele>
        <time>2026-09-03T06:08:02.000Z</time>
        <extensions>
          <ns3:TrackPointExtension>
            <ns3:hr>132</ns3:hr>
            <ns3:cad>0</ns3:cad>
          </ns3:TrackPointExtension>
        </extensions>
      </trkpt>
      <trkpt lat="44.7106391005218029022216796875" lon="6.74345098435878753662109375">
        <ele>1243.800048828125</ele>
        <time>2026-09-03T06:08:03.000Z</time>
        <extensions>
          <ns3:TrackPointExtension>
            <ns3:hr>132</ns3:hr>
            <ns3:cad>0</ns3:cad>
          </ns3:TrackPointExtension>
        </extensions>
      </trkpt>
      <trkpt lat="44.7106283716857433319091796875" lon="6.7434414289891719818115234375">
        <ele>1244</ele>
        <time>2026-09-03T06:08:04.000Z</time>
        <extensions>
          <ns3:TrackPointExtension>
            <ns3:hr>132</ns3:hr>
            <ns3:cad>0</ns3:cad>
          </ns3:TrackPointExtension>
        </extensions>
      </trkpt>
      <trkpt lat="44.7106226719915866851806640625" lon="6.7434395849704742431640625">
        <ele>1244.199951171875</ele>
        <time>2026-09-03T06:08:05.000Z</time>
        <extensions>
          <ns3:TrackPointExtension>
            <ns3:hr>132</ns3:hr>
            <ns3:cad>0</ns3:cad>
          </ns3:TrackPointExtension>
        </extensions>
      </trkpt>
      <trkpt lat="44.71061504445970058441162109375" lon="6.74343346618115901947021484375">
        <ele>1244.199951171875</ele>
        <time>2026-09-03T06:08:06.000Z</time>
        <extensions>
          <ns3:TrackPointExtension>
            <ns3:hr>132</ns3:hr>
            <ns3:cad>0</ns3:cad>
          </ns3:TrackPointExtension>
        </extensions>
      </trkpt>
      <trkpt lat="44.7106072492897510528564453125" lon="6.7434300296008586883544921875">
        <ele>1244.4000244140625</ele>
        <time>2026-09-03T06:08:07.000Z</time>
        <extensions>
          <ns3:TrackPointExtension>
            <ns3:hr>131</ns3:hr>
            <ns3:cad>0</ns3:cad>
          </ns3:TrackPointExtension>
        </extensions>
      </trkpt>
      <trkpt lat="44.71059568226337432861328125" lon="6.74342039041221141815185546875">
        <ele>1244.5999755859375</ele>
        <time>2026-09-03T06:08:08.000Z</time>
        <extensions>
          <ns3:TrackPointExtension>
            <ns3:hr>130</ns3:hr>
            <ns3:cad>0</ns3:cad>
          </ns3:TrackPointExtension>
        </extensions>
      </trkpt>
      <trkpt lat="44.7105881385505199432373046875" lon="6.74340999685227870941162109375">
        <ele>1244.800048828125</ele>
        <time>2026-09-03T06:08:09.000Z</time>
        <extensions>
          <ns3:TrackPointExtension>
            <ns3:hr>129</ns3:hr>
            <ns3:cad>0</ns3:cad>
          </ns3:TrackPointExtension>
        </extensions>
      </trkpt>
      <trkpt lat="44.7105810977518558502197265625" lon="6.743403375148773193359375">
        <ele>1245</ele>
        <time>2026-09-03T06:08:10.000Z</time>
        <extensions>
          <ns3:TrackPointExtension>
            <ns3:hr>129</ns3:hr>
            <ns3:cad>0</ns3:cad>
          </ns3:TrackPointExtension>
        </extensions>
      </trkpt>
      <trkpt lat="44.71057380549609661102294921875" lon="6.74339692108333110809326171875">
        <ele>1245.199951171875</ele>
        <time>2026-09-03T06:08:11.000Z</time>
        <extensions>
          <ns3:TrackPointExtension>
            <ns3:hr>129</ns3:hr>
            <ns3:cad>0</ns3:cad>
          </ns3:TrackPointExtension>
        </extensions>
      </trkpt>
      <trkpt lat="44.7105722129344940185546875" lon="6.74338652752339839935302734375">
        <ele>1245.4000244140625</ele>
        <time>2026-09-03T06:08:12.000Z</time>
        <extensions>
          <ns3:TrackPointExtension>
            <ns3:hr>129</ns3:hr>
            <ns3:cad>0</ns3:cad>
          </ns3:TrackPointExtension>
        </extensions>
      </trkpt>
      <trkpt lat="44.7105690278112888336181640625" lon="6.74337965436279773712158203125">
        <ele>1245.4000244140625</ele>
        <time>2026-09-03T06:08:13.000Z</time>
        <extensions>
          <ns3:TrackPointExtension>
            <ns3:hr>129</ns3:hr>
            <ns3:cad>0</ns3:cad>
          </ns3:TrackPointExtension>
        </extensions>
      </trkpt>
      <trkpt lat="44.7105740569531917572021484375" lon="6.74337831325829029083251953125">
        <ele>1245.5999755859375</ele>
        <time>2026-09-03T06:08:14.000Z</time>
        <extensions>
          <ns3:TrackPointExtension>
            <ns3:hr>129</ns3:hr>
            <ns3:cad>0</ns3:cad>
          </ns3:TrackPointExtension>
        </extensions>
      </trkpt>
      <trkpt lat="44.71057481132447719573974609375" lon="6.74337412230670452117919921875">
        <ele>1245.800048828125</ele>
        <time>2026-09-03T06:08:15.000Z</time>
        <extensions>
          <ns3:TrackPointExtension>
            <ns3:hr>129</ns3:hr>
            <ns3:cad>0</ns3:cad>
          </ns3:TrackPointExtension>
        </extensions>
      </trkpt>
      <trkpt lat="44.71057347021996974945068359375" lon="6.7433690093457698822021484375">
        <ele>1246</ele>
        <time>2026-09-03T06:08:16.000Z</time>
        <extensions>
          <ns3:TrackPointExtension>
            <ns3:hr>129</ns3:hr>
            <ns3:cad>0</ns3:cad>
          </ns3:TrackPointExtension>
        </extensions>
      </trkpt>
      <trkpt lat="44.710574559867382049560546875" lon="6.74335517920553684234619140625">
        <ele>1246.4000244140625</ele>
        <time>2026-09-03T06:08:17.000Z</time>
        <extensions>
          <ns3:TrackPointExtension>
            <ns3:hr>128</ns3:hr>
            <ns3:cad>0</ns3:cad>
          </ns3:TrackPointExtension>
        </extensions>
      </trkpt>
      <trkpt lat="44.7105713747441768646240234375" lon="6.743348054587841033935546875">
        <ele>1246.5999755859375</ele>
        <time>2026-09-03T06:08:18.000Z</time>
        <extensions>
          <ns3:TrackPointExtension>
            <ns3:hr>128</ns3:hr>
            <ns3:cad>0</ns3:cad>
          </ns3:TrackPointExtension>
        </extensions>
      </trkpt>
      <trkpt lat="44.710567183792591094970703125" lon="6.7433358170092105865478515625">
        <ele>1246.800048828125</ele>
        <time>2026-09-03T06:08:19.000Z</time>
        <extensions>
          <ns3:TrackPointExtension>
            <ns3:hr>128</ns3:hr>
            <ns3:cad>53</ns3:cad>
          </ns3:TrackPointExtension>
        </extensions>
      </trkpt>
      <trkpt lat="44.71056341193616390228271484375" lon="6.743325926363468170166015625">
        <ele>1247</ele>
        <time>2026-09-03T06:08:20.000Z</time>
        <extensions>
          <ns3:TrackPointExtension>
            <ns3:hr>128</ns3:hr>
            <ns3:cad>53</ns3:cad>
          </ns3:TrackPointExtension>
        </extensions>
      </trkpt>
      <trkpt lat="44.710559137165546417236328125" lon="6.74331553280353546142578125">
        <ele>1247.199951171875</ele>
        <time>2026-09-03T06:08:21.000Z</time>
        <extensions>
          <ns3:TrackPointExtension>
            <ns3:hr>128</ns3:hr>
            <ns3:cad>53</ns3:cad>
          </ns3:TrackPointExtension>
        </extensions>
      </trkpt>
      <trkpt lat="44.71055704168975353240966796875" lon="6.7432952485978603363037109375">
        <ele>1247.4000244140625</ele>
        <time>2026-09-03T06:08:22.000Z</time>
        <extensions>
          <ns3:TrackPointExtension>
            <ns3:hr>128</ns3:hr>
            <ns3:cad>53</ns3:cad>
          </ns3:TrackPointExtension>
        </extensions>
      </trkpt>
      <trkpt lat="44.71055251546204090118408203125" lon="6.7432801611721515655517578125">
        <ele>1247.4000244140625</ele>
        <time>2026-09-03T06:08:23.000Z</time>
        <extensions>
          <ns3:TrackPointExtension>
            <ns3:hr>128</ns3:hr>
            <ns3:cad>53</ns3:cad>
          </ns3:TrackPointExtension>
        </extensions>
      </trkpt>
      <trkpt lat="44.710547737777233123779296875" lon="6.74325979314744472503662109375">
        <ele>1247.4000244140625</ele>
        <time>2026-09-03T06:08:24.000Z</time>
        <extensions>
          <ns3:TrackPointExtension>
            <ns3:hr>128</ns3:hr>
            <ns3:cad>0</ns3:cad>
          </ns3:TrackPointExtension>
        </extensions>
      </trkpt>
      <trkpt lat="44.71054212190210819244384765625" lon="6.743244118988513946533203125">
        <ele>1247.5999755859375</ele>
        <time>2026-09-03T06:08:25.000Z</time>
        <extensions>
          <ns3:TrackPointExtension>
            <ns3:hr>128</ns3:hr>
            <ns3:cad>0</ns3:cad>
          </ns3:TrackPointExtension>
        </extensions>
      </trkpt>
      <trkpt lat="44.7105378471314907073974609375" lon="6.743227355182170867919921875">
        <ele>1247.5999755859375</ele>
        <time>2026-09-03T06:08:26.000Z</time>
        <extensions>
          <ns3:TrackPointExtension>
            <ns3:hr>127</ns3:hr>
            <ns3:cad>0</ns3:cad>
          </ns3:TrackPointExtension>
        </extensions>
      </trkpt>
      <trkpt lat="44.71053591929376125335693359375" lon="6.7432129383087158203125">
        <ele>1247.5999755859375</ele>
        <time>2026-09-03T06:08:27.000Z</time>
        <extensions>
          <ns3:TrackPointExtension>
            <ns3:hr>127</ns3:hr>
            <ns3:cad>0</ns3:cad>
          </ns3:TrackPointExtension>
        </extensions>
      </trkpt>
      <trkpt lat="44.7105338238179683685302734375" lon="6.74319977872073650360107421875">
        <ele>1247.5999755859375</ele>
        <time>2026-09-03T06:08:28.000Z</time>
        <extensions>
          <ns3:TrackPointExtension>
            <ns3:hr>127</ns3:hr>
            <ns3:cad>0</ns3:cad>
          </ns3:TrackPointExtension>
        </extensions>
      </trkpt>
      <trkpt lat="44.71053424291312694549560546875" lon="6.743184439837932586669921875">
        <ele>1247.5999755859375</ele>
        <time>2026-09-03T06:08:29.000Z</time>
        <extensions>
          <ns3:TrackPointExtension>
            <ns3:hr>127</ns3:hr>
            <ns3:cad>0</ns3:cad>
          </ns3:TrackPointExtension>
        </extensions>
      </trkpt>
      <trkpt lat="44.710535667836666107177734375" lon="6.743169687688350677490234375">
        <ele>1247.5999755859375</ele>
        <time>2026-09-03T06:08:30.000Z</time>
        <extensions>
          <ns3:TrackPointExtension>
            <ns3:hr>127</ns3:hr>
            <ns3:cad>0</ns3:cad>
          </ns3:TrackPointExtension>
        </extensions>
      </trkpt>
      <trkpt lat="44.7105358354747295379638671875" lon="6.743152923882007598876953125">
        <ele>1247.5999755859375</ele>
        <time>2026-09-03T06:08:31.000Z</time>
        <extensions>
          <ns3:TrackPointExtension>
            <ns3:hr>126</ns3:hr>
            <ns3:cad>0</ns3:cad>
          </ns3:TrackPointExtension>
        </extensions>
      </trkpt>
      <trkpt lat="44.7105365060269832611083984375" lon="6.743127442896366119384765625">
        <ele>1247.5999755859375</ele>
        <time>2026-09-03T06:08:32.000Z</time>
        <extensions>
          <ns3:TrackPointExtension>
            <ns3:hr>126</ns3:hr>
            <ns3:cad>0</ns3:cad>
          </ns3:TrackPointExtension>
        </extensions>
      </trkpt>
      <trkpt lat="44.710536338388919830322265625" lon="6.743110008537769317626953125">
        <ele>1247.4000244140625</ele>
        <time>2026-09-03T06:08:33.000Z</time>
        <extensions>
          <ns3:TrackPointExtension>
            <ns3:hr>126</ns3:hr>
            <ns3:cad>0</ns3:cad>
          </ns3:TrackPointExtension>
        </extensions>
      </trkpt>
      <trkpt lat="44.710533320903778076171875" lon="6.7430967651307582855224609375">
        <ele>1247.4000244140625</ele>
        <time>2026-09-03T06:08:34.000Z</time>
        <extensions>
          <ns3:TrackPointExtension>
            <ns3:hr>126</ns3:hr>
            <ns3:cad>0</ns3:cad>
          </ns3:TrackPointExtension>
        </extensions>
      </trkpt>
      <trkpt lat="44.71053273417055606842041015625" lon="6.74308360554277896881103515625">
        <ele>1247.4000244140625</ele>
        <time>2026-09-03T06:08:35.000Z</time>
        <extensions>
          <ns3:TrackPointExtension>
            <ns3:hr>126</ns3:hr>
            <ns3:cad>0</ns3:cad>
          </ns3:TrackPointExtension>
        </extensions>
      </trkpt>
      <trkpt lat="44.71053223125636577606201171875" lon="6.74307589419186115264892578125">
        <ele>1247.5999755859375</ele>
        <time>2026-09-03T06:08:36.000Z</time>
        <extensions>
          <ns3:TrackPointExtension>
            <ns3:hr>126</ns3:hr>
            <ns3:cad>0</ns3:cad>
          </ns3:TrackPointExtension>
        </extensions>
      </trkpt>
      <trkpt lat="44.71053306944668292999267578125" lon="6.743066422641277313232421875">
        <ele>1247.5999755859375</ele>
        <time>2026-09-03T06:08:37.000Z</time>
        <extensions>
          <ns3:TrackPointExtension>
            <ns3:hr>126</ns3:hr>
            <ns3:cad>0</ns3:cad>
          </ns3:TrackPointExtension>
        </extensions>
      </trkpt>
      <trkpt lat="44.71053290180861949920654296875" lon="6.743060387670993804931640625">
        <ele>1247.800048828125</ele>
        <time>2026-09-03T06:08:38.000Z</time>
        <extensions>
          <ns3:TrackPointExtension>
            <ns3:hr>125</ns3:hr>
            <ns3:cad>0</ns3:cad>
          </ns3:TrackPointExtension>
        </extensions>
      </trkpt>
      <trkpt lat="44.7105314768850803375244140625" lon="6.74305259250104427337646484375">
        <ele>1248</ele>
        <time>2026-09-03T06:08:39.000Z</time>
        <extensions>
          <ns3:TrackPointExtension>
            <ns3:hr>125</ns3:hr>
            <ns3:cad>0</ns3:cad>
          </ns3:TrackPointExtension>
        </extensions>
      </trkpt>
      <trkpt lat="44.7105341590940952301025390625" lon="6.74304605461657047271728515625">
        <ele>1248.199951171875</ele>
        <time>2026-09-03T06:08:40.000Z</time>
        <extensions>
          <ns3:TrackPointExtension>
            <ns3:hr>125</ns3:hr>
            <ns3:cad>0</ns3:cad>
          </ns3:TrackPointExtension>
        </extensions>
      </trkpt>
      <trkpt lat="44.710534326732158660888671875" lon="6.74303230829536914825439453125">
        <ele>1248.4000244140625</ele>
        <time>2026-09-03T06:08:41.000Z</time>
        <extensions>
          <ns3:TrackPointExtension>
            <ns3:hr>125</ns3:hr>
            <ns3:cad>54</ns3:cad>
          </ns3:TrackPointExtension>
        </extensions>
      </trkpt>
      <trkpt lat="44.71053491346538066864013671875" lon="6.74302040599286556243896484375">
        <ele>1248.5999755859375</ele>
        <time>2026-09-03T06:08:42.000Z</time>
        <extensions>
          <ns3:TrackPointExtension>
            <ns3:hr>125</ns3:hr>
            <ns3:cad>54</ns3:cad>
          </ns3:TrackPointExtension>
        </extensions>
      </trkpt>
      <trkpt lat="44.71053491346538066864013671875" lon="6.7430109344422817230224609375">
        <ele>1248.5999755859375</ele>
        <time>2026-09-03T06:08:43.000Z</time>
        <extensions>
          <ns3:TrackPointExtension>
            <ns3:hr>125</ns3:hr>
            <ns3:cad>54</ns3:cad>
          </ns3:TrackPointExtension>
        </extensions>
      </trkpt>
      <trkpt lat="44.71053457818925380706787109375" lon="6.74299903213977813720703125">
        <ele>1249</ele>
        <time>2026-09-03T06:08:44.000Z</time>
        <extensions>
          <ns3:TrackPointExtension>
            <ns3:hr>124</ns3:hr>
            <ns3:cad>54</ns3:cad>
          </ns3:TrackPointExtension>
        </extensions>
      </trkpt>
      <trkpt lat="44.71053306944668292999267578125" lon="6.7429864592850208282470703125">
        <ele>1249.199951171875</ele>
        <time>2026-09-03T06:08:45.000Z</time>
        <extensions>
          <ns3:TrackPointExtension>
            <ns3:hr>123</ns3:hr>
            <ns3:cad>54</ns3:cad>
          </ns3:TrackPointExtension>
        </extensions>
      </trkpt>
      <trkpt lat="44.710532315075397491455078125" lon="6.74297816120088100433349609375">
        <ele>1249.4000244140625</ele>
        <time>2026-09-03T06:08:46.000Z</time>
        <extensions>
          <ns3:TrackPointExtension>
            <ns3:hr>123</ns3:hr>
            <ns3:cad>0</ns3:cad>
          </ns3:TrackPointExtension>
        </extensions>
      </trkpt>
      <trkpt lat="44.7105319797992706298828125" lon="6.74297212623059749603271484375">
        <ele>1249.5999755859375</ele>
        <time>2026-09-03T06:08:47.000Z</time>
        <extensions>
          <ns3:TrackPointExtension>
            <ns3:hr>122</ns3:hr>
            <ns3:cad>0</ns3:cad>
          </ns3:TrackPointExtension>
        </extensions>
      </trkpt>
      <trkpt lat="44.71053089015185832977294921875" lon="6.74296810291707515716552734375">
        <ele>1249.800048828125</ele>
        <time>2026-09-03T06:08:48.000Z</time>
        <extensions>
          <ns3:TrackPointExtension>
            <ns3:hr>121</ns3:hr>
            <ns3:cad>0</ns3:cad>
          </ns3:TrackPointExtension>
        </extensions>
      </trkpt>
      <trkpt lat="44.71053063869476318359375" lon="6.74296156503260135650634765625">
        <ele>1250</ele>
        <time>2026-09-03T06:08:49.000Z</time>
        <extensions>
          <ns3:TrackPointExtension>
            <ns3:hr>119</ns3:hr>
            <ns3:cad>0</ns3:cad>
          </ns3:TrackPointExtension>
        </extensions>
      </trkpt>
      <trkpt lat="44.71052753739058971405029296875" lon="6.742953099310398101806640625">
        <ele>1250.4000244140625</ele>
        <time>2026-09-03T06:08:50.000Z</time>
        <extensions>
          <ns3:TrackPointExtension>
            <ns3:hr>117</ns3:hr>
            <ns3:cad>0</ns3:cad>
          </ns3:TrackPointExtension>
        </extensions>
      </trkpt>
      <trkpt lat="44.710526280105113983154296875" lon="6.74294563941657543182373046875">
        <ele>1250.5999755859375</ele>
        <time>2026-09-03T06:08:51.000Z</time>
        <extensions>
          <ns3:TrackPointExtension>
            <ns3:hr>116</ns3:hr>
            <ns3:cad>0</ns3:cad>
          </ns3:TrackPointExtension>
        </extensions>
      </trkpt>
      <trkpt lat="44.71052133478224277496337890625" lon="6.74293256364762783050537109375">
        <ele>1250.800048828125</ele>
        <time>2026-09-03T06:08:52.000Z</time>
        <extensions>
          <ns3:TrackPointExtension>
            <ns3:hr>115</ns3:hr>
            <ns3:cad>0</ns3:cad>
          </ns3:TrackPointExtension>
        </extensions>
      </trkpt>
      <trkpt lat="44.71051664091646671295166015625" lon="6.74291982315480709075927734375">
        <ele>1250.800048828125</ele>
        <time>2026-09-03T06:08:53.000Z</time>
        <extensions>
          <ns3:TrackPointExtension>
            <ns3:hr>114</ns3:hr>
            <ns3:cad>0</ns3:cad>
          </ns3:TrackPointExtension>
        </extensions>
      </trkpt>
      <trkpt lat="44.710502810776233673095703125" lon="6.74290674738585948944091796875">
        <ele>1251</ele>
        <time>2026-09-03T06:08:54.000Z</time>
        <extensions>
          <ns3:TrackPointExtension>
            <ns3:hr>114</ns3:hr>
            <ns3:cad>0</ns3:cad>
          </ns3:TrackPointExtension>
        </extensions>
      </trkpt>
      <trkpt lat="44.71049585379660129547119140625" lon="6.74289836548268795013427734375">
        <ele>1251.199951171875</ele>
        <time>2026-09-03T06:08:55.000Z</time>
        <extensions>
          <ns3:TrackPointExtension>
            <ns3:hr>114</ns3:hr>
            <ns3:cad>0</ns3:cad>
          </ns3:TrackPointExtension>
        </extensions>
      </trkpt>
      <trkpt lat="44.71048462204635143280029296875" lon="6.74289040267467498779296875">
        <ele>1251.4000244140625</ele>
        <time>2026-09-03T06:08:56.000Z</time>
        <extensions>
          <ns3:TrackPointExtension>
            <ns3:hr>113</ns3:hr>
            <ns3:cad>0</ns3:cad>
          </ns3:TrackPointExtension>
        </extensions>
      </trkpt>
      <trkpt lat="44.71047498285770416259765625" lon="6.742884702980518341064453125">
        <ele>1251.5999755859375</ele>
        <time>2026-09-03T06:08:57.000Z</time>
        <extensions>
          <ns3:TrackPointExtension>
            <ns3:hr>113</ns3:hr>
            <ns3:cad>0</ns3:cad>
          </ns3:TrackPointExtension>
        </extensions>
      </trkpt>
      <trkpt lat="44.71046735532581806182861328125" lon="6.742878668010234832763671875">
        <ele>1251.800048828125</ele>
        <time>2026-09-03T06:08:58.000Z</time>
        <extensions>
          <ns3:TrackPointExtension>
            <ns3:hr>113</ns3:hr>
            <ns3:cad>0</ns3:cad>
          </ns3:TrackPointExtension>
        </extensions>
      </trkpt>
      <trkpt lat="44.710457213222980499267578125" lon="6.74287506379187107086181640625">
        <ele>1252</ele>
        <time>2026-09-03T06:08:59.000Z</time>
        <extensions>
          <ns3:TrackPointExtension>
            <ns3:hr>112</ns3:hr>
            <ns3:cad>0</ns3:cad>
          </ns3:TrackPointExtension>
        </extensions>
      </trkpt>
      <trkpt lat="44.710451178252696990966796875" lon="6.7428697831928730010986328125">
        <ele>1252.199951171875</ele>
        <time>2026-09-03T06:09:00.000Z</time>
        <extensions>
          <ns3:TrackPointExtension>
            <ns3:hr>112</ns3:hr>
            <ns3:cad>0</ns3:cad>
          </ns3:TrackPointExtension>
        </extensions>
      </trkpt>
      <trkpt lat="44.7104412876069545745849609375" lon="6.74286433495581150054931640625">
        <ele>1252.4000244140625</ele>
        <time>2026-09-03T06:09:01.000Z</time>
        <extensions>
          <ns3:TrackPointExtension>
            <ns3:hr>112</ns3:hr>
            <ns3:cad>0</ns3:cad>
          </ns3:TrackPointExtension>
        </extensions>
      </trkpt>
      <trkpt lat="44.71043064258992671966552734375" lon="6.74286098219454288482666015625">
        <ele>1252.800048828125</ele>
        <time>2026-09-03T06:09:02.000Z</time>
        <extensions>
          <ns3:TrackPointExtension>
            <ns3:hr>112</ns3:hr>
            <ns3:cad>0</ns3:cad>
          </ns3:TrackPointExtension>
        </extensions>
      </trkpt>
      <trkpt lat="44.710425026714801788330078125" lon="6.7428546957671642303466796875">
        <ele>1252.800048828125</ele>
        <time>2026-09-03T06:09:03.000Z</time>
        <extensions>
          <ns3:TrackPointExtension>
            <ns3:hr>113</ns3:hr>
            <ns3:cad>0</ns3:cad>
          </ns3:TrackPointExtension>
        </extensions>
      </trkpt>
      <trkpt lat="44.7104191593825817108154296875" lon="6.7428506724536418914794921875">
        <ele>1253</ele>
        <time>2026-09-03T06:09:04.000Z</time>
        <extensions>
          <ns3:TrackPointExtension>
            <ns3:hr>112</ns3:hr>
            <ns3:cad>0</ns3:cad>
          </ns3:TrackPointExtension>
        </extensions>
      </trkpt>
      <trkpt lat="44.71041941083967685699462890625" lon="6.74285285174846649169921875">
        <ele>1253.199951171875</ele>
        <time>2026-09-03T06:09:05.000Z</time>
        <extensions>
          <ns3:TrackPointExtension>
            <ns3:hr>113</ns3:hr>
            <ns3:cad>0</ns3:cad>
          </ns3:TrackPointExtension>
        </extensions>
      </trkpt>
      <trkpt lat="44.71041731536388397216796875" lon="6.74285612069070339202880859375">
        <ele>1253.4000244140625</ele>
        <time>2026-09-03T06:09:06.000Z</time>
        <extensions>
          <ns3:TrackPointExtension>
            <ns3:hr>113</ns3:hr>
            <ns3:cad>0</ns3:cad>
          </ns3:TrackPointExtension>
        </extensions>
      </trkpt>
      <trkpt lat="44.71041287295520305633544921875" lon="6.74286986701190471649169921875">
        <ele>1253.5999755859375</ele>
        <time>2026-09-03T06:09:07.000Z</time>
        <extensions>
          <ns3:TrackPointExtension>
            <ns3:hr>113</ns3:hr>
            <ns3:cad>0</ns3:cad>
          </ns3:TrackPointExtension>
        </extensions>
      </trkpt>
      <trkpt lat="44.7104164771735668182373046875" lon="6.74287355504930019378662109375">
        <ele>1253.800048828125</ele>
        <time>2026-09-03T06:09:08.000Z</time>
        <extensions>
          <ns3:TrackPointExtension>
            <ns3:hr>113</ns3:hr>
            <ns3:cad>0</ns3:cad>
          </ns3:TrackPointExtension>
        </extensions>
      </trkpt>
      <trkpt lat="44.71041488461196422576904296875" lon="6.7428808473050594329833984375">
        <ele>1254</ele>
        <time>2026-09-03T06:09:09.000Z</time>
        <extensions>
          <ns3:TrackPointExtension>
            <ns3:hr>114</ns3:hr>
            <ns3:cad>0</ns3:cad>
          </ns3:TrackPointExtension>
        </extensions>
      </trkpt>
      <trkpt lat="44.71041555516421794891357421875" lon="6.74288378097116947174072265625">
        <ele>1254.199951171875</ele>
        <time>2026-09-03T06:09:10.000Z</time>
        <extensions>
          <ns3:TrackPointExtension>
            <ns3:hr>114</ns3:hr>
            <ns3:cad>0</ns3:cad>
          </ns3:TrackPointExtension>
        </extensions>
      </trkpt>
      <trkpt lat="44.71041756682097911834716796875" lon="6.74288327805697917938232421875">
        <ele>1254.5999755859375</ele>
        <time>2026-09-03T06:09:11.000Z</time>
        <extensions>
          <ns3:TrackPointExtension>
            <ns3:hr>114</ns3:hr>
            <ns3:cad>0</ns3:cad>
          </ns3:TrackPointExtension>
        </extensions>
      </trkpt>
      <trkpt lat="44.71041656099259853363037109375" lon="6.74289098940789699554443359375">
        <ele>1254.800048828125</ele>
        <time>2026-09-03T06:09:12.000Z</time>
        <extensions>
          <ns3:TrackPointExtension>
            <ns3:hr>114</ns3:hr>
            <ns3:cad>0</ns3:cad>
          </ns3:TrackPointExtension>
        </extensions>
      </trkpt>
      <trkpt lat="44.7104148007929325103759765625" lon="6.7428989522159099578857421875">
        <ele>1255</ele>
        <time>2026-09-03T06:09:13.000Z</time>
        <extensions>
          <ns3:TrackPointExtension>
            <ns3:hr>114</ns3:hr>
            <ns3:cad>0</ns3:cad>
          </ns3:TrackPointExtension>
        </extensions>
      </trkpt>
      <trkpt lat="44.71042142249643802642822265625" lon="6.7429090104997158050537109375">
        <ele>1255.199951171875</ele>
        <time>2026-09-03T06:09:14.000Z</time>
        <extensions>
          <ns3:TrackPointExtension>
            <ns3:hr>114</ns3:hr>
            <ns3:cad>0</ns3:cad>
          </ns3:TrackPointExtension>
        </extensions>
      </trkpt>
      <trkpt lat="44.71042267978191375732421875" lon="6.74291990697383880615234375">
        <ele>1255.4000244140625</ele>
        <time>2026-09-03T06:09:15.000Z</time>
        <extensions>
          <ns3:TrackPointExtension>
            <ns3:hr>115</ns3:hr>
            <ns3:cad>0</ns3:cad>
          </ns3:TrackPointExtension>
        </extensions>
      </trkpt>
      <trkpt lat="44.7104248590767383575439453125" lon="6.7429291270673274993896484375">
        <ele>1255.4000244140625</ele>
        <time>2026-09-03T06:09:16.000Z</time>
        <extensions>
          <ns3:TrackPointExtension>
            <ns3:hr>115</ns3:hr>
            <ns3:cad>0</ns3:cad>
          </ns3:TrackPointExtension>
        </extensions>
      </trkpt>
      <trkpt lat="44.71042267978191375732421875" lon="6.7429411970078945159912109375">
        <ele>1255.5999755859375</ele>
        <time>2026-09-03T06:09:17.000Z</time>
        <extensions>
          <ns3:TrackPointExtension>
            <ns3:hr>115</ns3:hr>
            <ns3:cad>0</ns3:cad>
          </ns3:TrackPointExtension>
        </extensions>
      </trkpt>
      <trkpt lat="44.71042360179126262664794921875" lon="6.74294765107333660125732421875">
        <ele>1255.800048828125</ele>
        <time>2026-09-03T06:09:18.000Z</time>
        <extensions>
          <ns3:TrackPointExtension>
            <ns3:hr>115</ns3:hr>
            <ns3:cad>0</ns3:cad>
          </ns3:TrackPointExtension>
        </extensions>
      </trkpt>
      <trkpt lat="44.710425026714801788330078125" lon="6.742961816489696502685546875">
        <ele>1256</ele>
        <time>2026-09-03T06:09:19.000Z</time>
        <extensions>
          <ns3:TrackPointExtension>
            <ns3:hr>116</ns3:hr>
            <ns3:cad>0</ns3:cad>
          </ns3:TrackPointExtension>
        </extensions>
      </trkpt>
      <trkpt lat="44.71041941083967685699462890625" lon="6.74297221004962921142578125">
        <ele>1256.199951171875</ele>
        <time>2026-09-03T06:09:20.000Z</time>
        <extensions>
          <ns3:TrackPointExtension>
            <ns3:hr>116</ns3:hr>
            <ns3:cad>0</ns3:cad>
          </ns3:TrackPointExtension>
        </extensions>
      </trkpt>
      <trkpt lat="44.71041102893650531768798828125" lon="6.7429831065237522125244140625">
        <ele>1256.4000244140625</ele>
        <time>2026-09-03T06:09:21.000Z</time>
        <extensions>
          <ns3:TrackPointExtension>
            <ns3:hr>116</ns3:hr>
            <ns3:cad>0</ns3:cad>
          </ns3:TrackPointExtension>
        </extensions>
      </trkpt>
      <trkpt lat="44.7104050777852535247802734375" lon="6.74298553727567195892333984375">
        <ele>1256.4000244140625</ele>
        <time>2026-09-03T06:09:22.000Z</time>
        <extensions>
          <ns3:TrackPointExtension>
            <ns3:hr>116</ns3:hr>
            <ns3:cad>0</ns3:cad>
          </ns3:TrackPointExtension>
        </extensions>
      </trkpt>
      <trkpt lat="44.7103963606059551239013671875" lon="6.74298754893243312835693359375">
        <ele>1256.5999755859375</ele>
        <time>2026-09-03T06:09:23.000Z</time>
        <extensions>
          <ns3:TrackPointExtension>
            <ns3:hr>117</ns3:hr>
            <ns3:cad>0</ns3:cad>
          </ns3:TrackPointExtension>
        </extensions>
      </trkpt>
      <trkpt lat="44.7103866375982761383056640625" lon="6.74298101104795932769775390625">
        <ele>1256.800048828125</ele>
        <time>2026-09-03T06:09:24.000Z</time>
        <extensions>
          <ns3:TrackPointExtension>
            <ns3:hr>117</ns3:hr>
            <ns3:cad>0</ns3:cad>
          </ns3:TrackPointExtension>
        </extensions>
      </trkpt>
      <trkpt lat="44.71038890071213245391845703125" lon="6.74297447316348552703857421875">
        <ele>1257</ele>
        <time>2026-09-03T06:09:25.000Z</time>
        <extensions>
          <ns3:TrackPointExtension>
            <ns3:hr>118</ns3:hr>
            <ns3:cad>0</ns3:cad>
          </ns3:TrackPointExtension>
        </extensions>
      </trkpt>
      <trkpt lat="44.7103893198072910308837890625" lon="6.7429713718593120574951171875">
        <ele>1257.199951171875</ele>
        <time>2026-09-03T06:09:26.000Z</time>
        <extensions>
          <ns3:TrackPointExtension>
            <ns3:hr>119</ns3:hr>
            <ns3:cad>0</ns3:cad>
          </ns3:TrackPointExtension>
        </extensions>
      </trkpt>
      <trkpt lat="44.71038906835019588470458984375" lon="6.74296525306999683380126953125">
        <ele>1257.4000244140625</ele>
        <time>2026-09-03T06:09:27.000Z</time>
        <extensions>
          <ns3:TrackPointExtension>
            <ns3:hr>120</ns3:hr>
            <ns3:cad>0</ns3:cad>
          </ns3:TrackPointExtension>
        </extensions>
      </trkpt>
      <trkpt lat="44.71039451658725738525390625" lon="6.74295804463326930999755859375">
        <ele>1257.5999755859375</ele>
        <time>2026-09-03T06:09:28.000Z</time>
        <extensions>
          <ns3:TrackPointExtension>
            <ns3:hr>121</ns3:hr>
            <ns3:cad>0</ns3:cad>
          </ns3:TrackPointExtension>
        </extensions>
      </trkpt>
      <trkpt lat="44.71039242111146450042724609375" lon="6.742947064340114593505859375">
        <ele>1257.800048828125</ele>
        <time>2026-09-03T06:09:29.000Z</time>
        <extensions>
          <ns3:TrackPointExtension>
            <ns3:hr>122</ns3:hr>
            <ns3:cad>0</ns3:cad>
          </ns3:TrackPointExtension>
        </extensions>
      </trkpt>
      <trkpt lat="44.71038638614118099212646484375" lon="6.742946393787860870361328125">
        <ele>1257.800048828125</ele>
        <time>2026-09-03T06:09:30.000Z</time>
        <extensions>
          <ns3:TrackPointExtension>
            <ns3:hr>122</ns3:hr>
            <ns3:cad>0</ns3:cad>
          </ns3:TrackPointExtension>
        </extensions>
      </trkpt>
      <trkpt lat="44.710381440818309783935546875" lon="6.742937006056308746337890625">
        <ele>1258</ele>
        <time>2026-09-03T06:09:31.000Z</time>
        <extensions>
          <ns3:TrackPointExtension>
            <ns3:hr>123</ns3:hr>
            <ns3:cad>0</ns3:cad>
          </ns3:TrackPointExtension>
        </extensions>
      </trkpt>
      <trkpt lat="44.7103732265532016754150390625" lon="6.7429284565150737762451171875">
        <ele>1258.199951171875</ele>
        <time>2026-09-03T06:09:32.000Z</time>
        <extensions>
          <ns3:TrackPointExtension>
            <ns3:hr>123</ns3:hr>
            <ns3:cad>0</ns3:cad>
          </ns3:TrackPointExtension>
        </extensions>
      </trkpt>
      <trkpt lat="44.71037213690578937530517578125" lon="6.7429261095821857452392578125">
        <ele>1258.4000244140625</ele>
        <time>2026-09-03T06:09:33.000Z</time>
        <extensions>
          <ns3:TrackPointExtension>
            <ns3:hr>124</ns3:hr>
            <ns3:cad>51</ns3:cad>
          </ns3:TrackPointExtension>
        </extensions>
      </trkpt>
      <trkpt lat="44.71036694012582302093505859375" lon="6.74292233772575855255126953125">
        <ele>1258.5999755859375</ele>
        <time>2026-09-03T06:09:34.000Z</time>
        <extensions>
          <ns3:TrackPointExtension>
            <ns3:hr>124</ns3:hr>
            <ns3:cad>51</ns3:cad>
          </ns3:TrackPointExtension>
        </extensions>
      </trkpt>
      <trkpt lat="44.71036207862198352813720703125" lon="6.74291579984128475189208984375">
        <ele>1258.5999755859375</ele>
        <time>2026-09-03T06:09:35.000Z</time>
        <extensions>
          <ns3:TrackPointExtension>
            <ns3:hr>125</ns3:hr>
            <ns3:cad>0</ns3:cad>
          </ns3:TrackPointExtension>
        </extensions>
      </trkpt>
      <trkpt lat="44.71035436727106571197509765625" lon="6.74290624447166919708251953125">
        <ele>1258.800048828125</ele>
        <time>2026-09-03T06:09:36.000Z</time>
        <extensions>
          <ns3:TrackPointExtension>
            <ns3:hr>125</ns3:hr>
            <ns3:cad>0</ns3:cad>
          </ns3:TrackPointExtension>
        </extensions>
      </trkpt>
      <trkpt lat="44.71034950576722621917724609375" lon="6.7428992874920368194580078125">
        <ele>1259</ele>
        <time>2026-09-03T06:09:37.000Z</time>
        <extensions>
          <ns3:TrackPointExtension>
            <ns3:hr>125</ns3:hr>
            <ns3:cad>51</ns3:cad>
          </ns3:TrackPointExtension>
        </extensions>
      </trkpt>
      <trkpt lat="44.7103477455675601959228515625" lon="6.74289383925497531890869140625">
        <ele>1259.199951171875</ele>
        <time>2026-09-03T06:09:38.000Z</time>
        <extensions>
          <ns3:TrackPointExtension>
            <ns3:hr>126</ns3:hr>
            <ns3:cad>51</ns3:cad>
          </ns3:TrackPointExtension>
        </extensions>
      </trkpt>
      <trkpt lat="44.7103443928062915802001953125" lon="6.7428878881037235260009765625">
        <ele>1259.4000244140625</ele>
        <time>2026-09-03T06:09:39.000Z</time>
        <extensions>
          <ns3:TrackPointExtension>
            <ns3:hr>127</ns3:hr>
            <ns3:cad>0</ns3:cad>
          </ns3:TrackPointExtension>
        </extensions>
      </trkpt>
      <trkpt lat="44.71034263260662555694580078125" lon="6.74288394860923290252685546875">
        <ele>1259.5999755859375</ele>
        <time>2026-09-03T06:09:40.000Z</time>
        <extensions>
          <ns3:TrackPointExtension>
            <ns3:hr>128</ns3:hr>
            <ns3:cad>0</ns3:cad>
          </ns3:TrackPointExtension>
        </extensions>
      </trkpt>
      <trkpt lat="44.710341878235340118408203125" lon="6.7428816854953765869140625">
        <ele>1259.5999755859375</ele>
        <time>2026-09-03T06:09:41.000Z</time>
        <extensions>
          <ns3:TrackPointExtension>
            <ns3:hr>128</ns3:hr>
            <ns3:cad>0</ns3:cad>
          </ns3:TrackPointExtension>
        </extensions>
      </trkpt>
      <trkpt lat="44.71033693291246891021728515625" lon="6.74287942238152027130126953125">
        <ele>1259.800048828125</ele>
        <time>2026-09-03T06:09:42.000Z</time>
        <extensions>
          <ns3:TrackPointExtension>
            <ns3:hr>129</ns3:hr>
            <ns3:cad>0</ns3:cad>
          </ns3:TrackPointExtension>
        </extensions>
      </trkpt>
      <trkpt lat="44.71033391542732715606689453125" lon="6.742873974144458770751953125">
        <ele>1260</ele>
        <time>2026-09-03T06:09:43.000Z</time>
        <extensions>
          <ns3:TrackPointExtension>
            <ns3:hr>129</ns3:hr>
            <ns3:cad>0</ns3:cad>
          </ns3:TrackPointExtension>
        </extensions>
      </trkpt>
      <trkpt lat="44.7103279642760753631591796875" lon="6.74286651425063610076904296875">
        <ele>1260.199951171875</ele>
        <time>2026-09-03T06:09:44.000Z</time>
        <extensions>
          <ns3:TrackPointExtension>
            <ns3:hr>130</ns3:hr>
            <ns3:cad>0</ns3:cad>
          </ns3:TrackPointExtension>
        </extensions>
      </trkpt>
      <trkpt lat="44.7103225998580455780029296875" lon="6.7428603954613208770751953125">
        <ele>1260.4000244140625</ele>
        <time>2026-09-03T06:09:45.000Z</time>
        <extensions>
          <ns3:TrackPointExtension>
            <ns3:hr>130</ns3:hr>
            <ns3:cad>0</ns3:cad>
          </ns3:TrackPointExtension>
        </extensions>
      </trkpt>
      <trkpt lat="44.71031748689711093902587890625" lon="6.742859892547130584716796875">
        <ele>1260.5999755859375</ele>
        <time>2026-09-03T06:09:46.000Z</time>
        <extensions>
          <ns3:TrackPointExtension>
            <ns3:hr>130</ns3:hr>
            <ns3:cad>0</ns3:cad>
          </ns3:TrackPointExtension>
        </extensions>
      </trkpt>
      <trkpt lat="44.71030793152749538421630859375" lon="6.74286567606031894683837890625">
        <ele>1260.5999755859375</ele>
        <time>2026-09-03T06:09:47.000Z</time>
        <extensions>
          <ns3:TrackPointExtension>
            <ns3:hr>131</ns3:hr>
            <ns3:cad>0</ns3:cad>
          </ns3:TrackPointExtension>
        </extensions>
      </trkpt>
      <trkpt lat="44.71030407585203647613525390625" lon="6.74286785535514354705810546875">
        <ele>1260.800048828125</ele>
        <time>2026-09-03T06:09:48.000Z</time>
        <extensions>
          <ns3:TrackPointExtension>
            <ns3:hr>131</ns3:hr>
            <ns3:cad>0</ns3:cad>
          </ns3:TrackPointExtension>
        </extensions>
      </trkpt>
      <trkpt lat="44.71030273474752902984619140625" lon="6.74287137575447559356689453125">
        <ele>1261</ele>
        <time>2026-09-03T06:09:49.000Z</time>
        <extensions>
          <ns3:TrackPointExtension>
            <ns3:hr>131</ns3:hr>
            <ns3:cad>0</ns3:cad>
          </ns3:TrackPointExtension>
        </extensions>
      </trkpt>
      <trkpt lat="44.71030533313751220703125" lon="6.742884032428264617919921875">
        <ele>1261.199951171875</ele>
        <time>2026-09-03T06:09:50.000Z</time>
        <extensions>
          <ns3:TrackPointExtension>
            <ns3:hr>131</ns3:hr>
            <ns3:cad>0</ns3:cad>
          </ns3:TrackPointExtension>
        </extensions>
      </trkpt>
      <trkpt lat="44.710305668413639068603515625" lon="6.74288914538919925689697265625">
        <ele>1261.4000244140625</ele>
        <time>2026-09-03T06:09:51.000Z</time>
        <extensions>
          <ns3:TrackPointExtension>
            <ns3:hr>131</ns3:hr>
            <ns3:cad>0</ns3:cad>
          </ns3:TrackPointExtension>
        </extensions>
      </trkpt>
      <trkpt lat="44.71030608750879764556884765625" lon="6.74289844930171966552734375">
        <ele>1261.5999755859375</ele>
        <time>2026-09-03T06:09:52.000Z</time>
        <extensions>
          <ns3:TrackPointExtension>
            <ns3:hr>132</ns3:hr>
            <ns3:cad>0</ns3:cad>
          </ns3:TrackPointExtension>
        </extensions>
      </trkpt>
      <trkpt lat="44.7103068418800830841064453125" lon="6.74290247261524200439453125">
        <ele>1261.800048828125</ele>
        <time>2026-09-03T06:09:53.000Z</time>
        <extensions>
          <ns3:TrackPointExtension>
            <ns3:hr>133</ns3:hr>
            <ns3:cad>0</ns3:cad>
          </ns3:TrackPointExtension>
        </extensions>
      </trkpt>
      <trkpt lat="44.7103085182607173919677734375" lon="6.74291026778519153594970703125">
        <ele>1261.800048828125</ele>
        <time>2026-09-03T06:09:54.000Z</time>
        <extensions>
          <ns3:TrackPointExtension>
            <ns3:hr>134</ns3:hr>
            <ns3:cad>0</ns3:cad>
          </ns3:TrackPointExtension>
        </extensions>
      </trkpt>
      <trkpt lat="44.71031229011714458465576171875" lon="6.7429167218506336212158203125">
        <ele>1262</ele>
        <time>2026-09-03T06:09:55.000Z</time>
        <extensions>
          <ns3:TrackPointExtension>
            <ns3:hr>135</ns3:hr>
            <ns3:cad>0</ns3:cad>
          </ns3:TrackPointExtension>
        </extensions>
      </trkpt>
      <trkpt lat="44.7103128768503665924072265625" lon="6.7429251037538051605224609375">
        <ele>1262.199951171875</ele>
        <time>2026-09-03T06:09:56.000Z</time>
        <extensions>
          <ns3:TrackPointExtension>
            <ns3:hr>136</ns3:hr>
            <ns3:cad>0</ns3:cad>
          </ns3:TrackPointExtension>
        </extensions>
      </trkpt>
      <trkpt lat="44.7103125415742397308349609375" lon="6.742940358817577362060546875">
        <ele>1262.4000244140625</ele>
        <time>2026-09-03T06:09:57.000Z</time>
        <extensions>
          <ns3:TrackPointExtension>
            <ns3:hr>136</ns3:hr>
            <ns3:cad>0</ns3:cad>
          </ns3:TrackPointExtension>
        </extensions>
      </trkpt>
      <trkpt lat="44.71030960790812969207763671875" lon="6.7429512552917003631591796875">
        <ele>1262.5999755859375</ele>
        <time>2026-09-03T06:09:58.000Z</time>
        <extensions>
          <ns3:TrackPointExtension>
            <ns3:hr>136</ns3:hr>
            <ns3:cad>0</ns3:cad>
          </ns3:TrackPointExtension>
        </extensions>
      </trkpt>
      <trkpt lat="44.710307009518146514892578125" lon="6.742958463728427886962890625">
        <ele>1262.800048828125</ele>
        <time>2026-09-03T06:09:59.000Z</time>
        <extensions>
          <ns3:TrackPointExtension>
            <ns3:hr>135</ns3:hr>
            <ns3:cad>0</ns3:cad>
          </ns3:TrackPointExtension>
        </extensions>
      </trkpt>
      <trkpt lat="44.710307009518146514892578125" lon="6.7429680190980434417724609375">
        <ele>1263</ele>
        <time>2026-09-03T06:10:00.000Z</time>
        <extensions>
          <ns3:TrackPointExtension>
            <ns3:hr>134</ns3:hr>
            <ns3:cad>0</ns3:cad>
          </ns3:TrackPointExtension>
        </extensions>
      </trkpt>
      <trkpt lat="44.7103065066039562225341796875" lon="6.74297581426799297332763671875">
        <ele>1263</ele>
        <time>2026-09-03T06:10:01.000Z</time>
        <extensions>
          <ns3:TrackPointExtension>
            <ns3:hr>133</ns3:hr>
            <ns3:cad>0</ns3:cad>
          </ns3:TrackPointExtension>
        </extensions>
      </trkpt>
      <trkpt lat="44.71029737032949924468994140625" lon="6.74298168160021305084228515625">
        <ele>1263.199951171875</ele>
        <time>2026-09-03T06:10:02.000Z</time>
        <extensions>
          <ns3:TrackPointExtension>
            <ns3:hr>132</ns3:hr>
            <ns3:cad>0</ns3:cad>
          </ns3:TrackPointExtension>
        </extensions>
      </trkpt>
      <trkpt lat="44.7102971188724040985107421875" lon="6.74297765828669071197509765625">
        <ele>1263.4000244140625</ele>
        <time>2026-09-03T06:10:03.000Z</time>
        <extensions>
          <ns3:TrackPointExtension>
            <ns3:hr>131</ns3:hr>
            <ns3:cad>0</ns3:cad>
          </ns3:TrackPointExtension>
        </extensions>
      </trkpt>
      <trkpt lat="44.71028530038893222808837890625" lon="6.74297682009637355804443359375">
        <ele>1263.5999755859375</ele>
        <time>2026-09-03T06:10:04.000Z</time>
        <extensions>
          <ns3:TrackPointExtension>
            <ns3:hr>130</ns3:hr>
            <ns3:cad>0</ns3:cad>
          </ns3:TrackPointExtension>
        </extensions>
      </trkpt>
      <trkpt lat="44.7102820314466953277587890625" lon="6.742968522012233734130859375">
        <ele>1263.800048828125</ele>
        <time>2026-09-03T06:10:05.000Z</time>
        <extensions>
          <ns3:TrackPointExtension>
            <ns3:hr>129</ns3:hr>
            <ns3:cad>0</ns3:cad>
          </ns3:TrackPointExtension>
        </extensions>
      </trkpt>
      <trkpt lat="44.7102713026106357574462890625" lon="6.74296407960355281829833984375">
        <ele>1264</ele>
        <time>2026-09-03T06:10:06.000Z</time>
        <extensions>
          <ns3:TrackPointExtension>
            <ns3:hr>129</ns3:hr>
            <ns3:cad>0</ns3:cad>
          </ns3:TrackPointExtension>
        </extensions>
      </trkpt>
      <trkpt lat="44.7102642618119716644287109375" lon="6.74295620061457157135009765625">
        <ele>1264</ele>
        <time>2026-09-03T06:10:07.000Z</time>
        <extensions>
          <ns3:TrackPointExtension>
            <ns3:hr>129</ns3:hr>
            <ns3:cad>0</ns3:cad>
          </ns3:TrackPointExtension>
        </extensions>
      </trkpt>
      <trkpt lat="44.71026241779327392578125" lon="6.7429475672543048858642578125">
        <ele>1264.199951171875</ele>
        <time>2026-09-03T06:10:08.000Z</time>
        <extensions>
          <ns3:TrackPointExtension>
            <ns3:hr>129</ns3:hr>
            <ns3:cad>0</ns3:cad>
          </ns3:TrackPointExtension>
        </extensions>
      </trkpt>
      <trkpt lat="44.71025613136589527130126953125" lon="6.74293759278953075408935546875">
        <ele>1264.4000244140625</ele>
        <time>2026-09-03T06:10:09.000Z</time>
        <extensions>
          <ns3:TrackPointExtension>
            <ns3:hr>129</ns3:hr>
            <ns3:cad>0</ns3:cad>
          </ns3:TrackPointExtension>
        </extensions>
      </trkpt>
      <trkpt lat="44.71025059930980205535888671875" lon="6.74293088726699352264404296875">
        <ele>1264.4000244140625</ele>
        <time>2026-09-03T06:10:10.000Z</time>
        <extensions>
          <ns3:TrackPointExtension>
            <ns3:hr>128</ns3:hr>
            <ns3:cad>0</ns3:cad>
          </ns3:TrackPointExtension>
        </extensions>
      </trkpt>
      <trkpt lat="44.7102468274533748626708984375" lon="6.74292393028736114501953125">
        <ele>1264.5999755859375</ele>
        <time>2026-09-03T06:10:11.000Z</time>
        <extensions>
          <ns3:TrackPointExtension>
            <ns3:hr>129</ns3:hr>
            <ns3:cad>0</ns3:cad>
          </ns3:TrackPointExtension>
        </extensions>
      </trkpt>
      <trkpt lat="44.71024573780596256256103515625" lon="6.74291647039353847503662109375">
        <ele>1264.800048828125</ele>
        <time>2026-09-03T06:10:12.000Z</time>
        <extensions>
          <ns3:TrackPointExtension>
            <ns3:hr>128</ns3:hr>
            <ns3:cad>0</ns3:cad>
          </ns3:TrackPointExtension>
        </extensions>
      </trkpt>
      <trkpt lat="44.710238613188266754150390625" lon="6.7429056577384471893310546875">
        <ele>1265</ele>
        <time>2026-09-03T06:10:13.000Z</time>
        <extensions>
          <ns3:TrackPointExtension>
            <ns3:hr>128</ns3:hr>
            <ns3:cad>0</ns3:cad>
          </ns3:TrackPointExtension>
        </extensions>
      </trkpt>
      <trkpt lat="44.71023534424602985382080078125" lon="6.742896102368831634521484375">
        <ele>1265.199951171875</ele>
        <time>2026-09-03T06:10:14.000Z</time>
        <extensions>
          <ns3:TrackPointExtension>
            <ns3:hr>128</ns3:hr>
            <ns3:cad>0</ns3:cad>
          </ns3:TrackPointExtension>
        </extensions>
      </trkpt>
      <trkpt lat="44.71022981218993663787841796875" lon="6.742888726294040679931640625">
        <ele>1265.199951171875</ele>
        <time>2026-09-03T06:10:15.000Z</time>
        <extensions>
          <ns3:TrackPointExtension>
            <ns3:hr>128</ns3:hr>
            <ns3:cad>0</ns3:cad>
          </ns3:TrackPointExtension>
        </extensions>
      </trkpt>
      <trkpt lat="44.7102270461618900299072265625" lon="6.7428848706185817718505859375">
        <ele>1265.4000244140625</ele>
        <time>2026-09-03T06:10:16.000Z</time>
        <extensions>
          <ns3:TrackPointExtension>
            <ns3:hr>128</ns3:hr>
            <ns3:cad>0</ns3:cad>
          </ns3:TrackPointExtension>
        </extensions>
      </trkpt>
      <trkpt lat="44.710217826068401336669921875" lon="6.742872297763824462890625">
        <ele>1265.5999755859375</ele>
        <time>2026-09-03T06:10:17.000Z</time>
        <extensions>
          <ns3:TrackPointExtension>
            <ns3:hr>128</ns3:hr>
            <ns3:cad>0</ns3:cad>
          </ns3:TrackPointExtension>
        </extensions>
      </trkpt>
      <trkpt lat="44.7102132998406887054443359375" lon="6.74287539906799793243408203125">
        <ele>1265.5999755859375</ele>
        <time>2026-09-03T06:10:18.000Z</time>
        <extensions>
          <ns3:TrackPointExtension>
            <ns3:hr>128</ns3:hr>
            <ns3:cad>0</ns3:cad>
          </ns3:TrackPointExtension>
        </extensions>
      </trkpt>
      <trkpt lat="44.7102022357285022735595703125" lon="6.74286953173577785491943359375">
        <ele>1265.800048828125</ele>
        <time>2026-09-03T06:10:19.000Z</time>
        <extensions>
          <ns3:TrackPointExtension>
            <ns3:hr>128</ns3:hr>
            <ns3:cad>0</ns3:cad>
          </ns3:TrackPointExtension>
        </extensions>
      </trkpt>
      <trkpt lat="44.710194356739521026611328125" lon="6.74286718480288982391357421875">
        <ele>1266</ele>
        <time>2026-09-03T06:10:20.000Z</time>
        <extensions>
          <ns3:TrackPointExtension>
            <ns3:hr>128</ns3:hr>
            <ns3:cad>0</ns3:cad>
          </ns3:TrackPointExtension>
        </extensions>
      </trkpt>
      <trkpt lat="44.71018907614052295684814453125" lon="6.7428687773644924163818359375">
        <ele>1266.199951171875</ele>
        <time>2026-09-03T06:10:21.000Z</time>
        <extensions>
          <ns3:TrackPointExtension>
            <ns3:hr>127</ns3:hr>
            <ns3:cad>0</ns3:cad>
          </ns3:TrackPointExtension>
        </extensions>
      </trkpt>
      <trkpt lat="44.71018530428409576416015625" lon="6.74288176931440830230712890625">
        <ele>1266.199951171875</ele>
        <time>2026-09-03T06:10:22.000Z</time>
        <extensions>
          <ns3:TrackPointExtension>
            <ns3:hr>126</ns3:hr>
            <ns3:cad>0</ns3:cad>
          </ns3:TrackPointExtension>
        </extensions>
      </trkpt>
      <trkpt lat="44.710186980664730072021484375" lon="6.74288596026599407196044921875">
        <ele>1266.4000244140625</ele>
        <time>2026-09-03T06:10:23.000Z</time>
        <extensions>
          <ns3:TrackPointExtension>
            <ns3:hr>125</ns3:hr>
            <ns3:cad>0</ns3:cad>
          </ns3:TrackPointExtension>
        </extensions>
      </trkpt>
      <trkpt lat="44.71018622629344463348388671875" lon="6.74289534799754619598388671875">
        <ele>1266.5999755859375</ele>
        <time>2026-09-03T06:10:24.000Z</time>
        <extensions>
          <ns3:TrackPointExtension>
            <ns3:hr>125</ns3:hr>
            <ns3:cad>0</ns3:cad>
          </ns3:TrackPointExtension>
        </extensions>
      </trkpt>
      <trkpt lat="44.71018622629344463348388671875" lon="6.742898114025592803955078125">
        <ele>1266.800048828125</ele>
        <time>2026-09-03T06:10:25.000Z</time>
        <extensions>
          <ns3:TrackPointExtension>
            <ns3:hr>124</ns3:hr>
            <ns3:cad>0</ns3:cad>
          </ns3:TrackPointExtension>
        </extensions>
      </trkpt>
      <trkpt lat="44.71018589101731777191162109375" lon="6.74290389753878116607666015625">
        <ele>1267</ele>
        <time>2026-09-03T06:10:26.000Z</time>
        <extensions>
          <ns3:TrackPointExtension>
            <ns3:hr>123</ns3:hr>
            <ns3:cad>0</ns3:cad>
          </ns3:TrackPointExtension>
        </extensions>
      </trkpt>
      <trkpt lat="44.71018807031214237213134765625" lon="6.74291512928903102874755859375">
        <ele>1267.199951171875</ele>
        <time>2026-09-03T06:10:27.000Z</time>
        <extensions>
          <ns3:TrackPointExtension>
            <ns3:hr>123</ns3:hr>
            <ns3:cad>0</ns3:cad>
          </ns3:TrackPointExtension>
        </extensions>
      </trkpt>
      <trkpt lat="44.7101881541311740875244140625" lon="6.742920912802219390869140625">
        <ele>1267.4000244140625</ele>
        <time>2026-09-03T06:10:28.000Z</time>
        <extensions>
          <ns3:TrackPointExtension>
            <ns3:hr>123</ns3:hr>
            <ns3:cad>0</ns3:cad>
          </ns3:TrackPointExtension>
        </extensions>
      </trkpt>
      <trkpt lat="44.71018622629344463348388671875" lon="6.74293809570372104644775390625">
        <ele>1267.5999755859375</ele>
        <time>2026-09-03T06:10:29.000Z</time>
        <extensions>
          <ns3:TrackPointExtension>
            <ns3:hr>122</ns3:hr>
            <ns3:cad>0</ns3:cad>
          </ns3:TrackPointExtension>
        </extensions>
      </trkpt>
      <trkpt lat="44.71018404699862003326416015625" lon="6.74294848926365375518798828125">
        <ele>1267.800048828125</ele>
        <time>2026-09-03T06:10:30.000Z</time>
        <extensions>
          <ns3:TrackPointExtension>
            <ns3:hr>122</ns3:hr>
            <ns3:cad>0</ns3:cad>
          </ns3:TrackPointExtension>
        </extensions>
      </trkpt>
      <trkpt lat="44.71018304117023944854736328125" lon="6.7429539375007152557373046875">
        <ele>1267.800048828125</ele>
        <time>2026-09-03T06:10:31.000Z</time>
        <extensions>
          <ns3:TrackPointExtension>
            <ns3:hr>122</ns3:hr>
            <ns3:cad>0</ns3:cad>
          </ns3:TrackPointExtension>
        </extensions>
      </trkpt>
      <trkpt lat="44.71018739975988864898681640625" lon="6.74296139739453792572021484375">
        <ele>1268</ele>
        <time>2026-09-03T06:10:32.000Z</time>
        <extensions>
          <ns3:TrackPointExtension>
            <ns3:hr>122</ns3:hr>
            <ns3:cad>0</ns3:cad>
          </ns3:TrackPointExtension>
        </extensions>
      </trkpt>
      <trkpt lat="44.71018731594085693359375" lon="6.7429673485457897186279296875">
        <ele>1268.199951171875</ele>
        <time>2026-09-03T06:10:33.000Z</time>
        <extensions>
          <ns3:TrackPointExtension>
            <ns3:hr>123</ns3:hr>
            <ns3:cad>0</ns3:cad>
          </ns3:TrackPointExtension>
        </extensions>
      </trkpt>
      <trkpt lat="44.71019192598760128021240234375" lon="6.74297313205897808074951171875">
        <ele>1268.4000244140625</ele>
        <time>2026-09-03T06:10:34.000Z</time>
        <extensions>
          <ns3:TrackPointExtension>
            <ns3:hr>123</ns3:hr>
            <ns3:cad>0</ns3:cad>
          </ns3:TrackPointExtension>
        </extensions>
      </trkpt>
      <trkpt lat="44.710188992321491241455078125" lon="6.7429817654192447662353515625">
        <ele>1268.5999755859375</ele>
        <time>2026-09-03T06:10:35.000Z</time>
        <extensions>
          <ns3:TrackPointExtension>
            <ns3:hr>123</ns3:hr>
            <ns3:cad>0</ns3:cad>
          </ns3:TrackPointExtension>
        </extensions>
      </trkpt>
      <trkpt lat="44.71018262207508087158203125" lon="6.74297866411507129669189453125">
        <ele>1268.800048828125</ele>
        <time>2026-09-03T06:10:36.000Z</time>
        <extensions>
          <ns3:TrackPointExtension>
            <ns3:hr>123</ns3:hr>
            <ns3:cad>0</ns3:cad>
          </ns3:TrackPointExtension>
        </extensions>
      </trkpt>
      <trkpt lat="44.7101770900189876556396484375" lon="6.7429713718593120574951171875">
        <ele>1269</ele>
        <time>2026-09-03T06:10:37.000Z</time>
        <extensions>
          <ns3:TrackPointExtension>
            <ns3:hr>124</ns3:hr>
            <ns3:cad>0</ns3:cad>
          </ns3:TrackPointExtension>
        </extensions>
      </trkpt>
      <trkpt lat="44.710174910724163055419921875" lon="6.74296709708869457244873046875">
        <ele>1269.199951171875</ele>
        <time>2026-09-03T06:10:38.000Z</time>
        <extensions>
          <ns3:TrackPointExtension>
            <ns3:hr>124</ns3:hr>
            <ns3:cad>0</ns3:cad>
          </ns3:TrackPointExtension>
        </extensions>
      </trkpt>
      <trkpt lat="44.71017046831548213958740234375" lon="6.74296491779386997222900390625">
        <ele>1269.199951171875</ele>
        <time>2026-09-03T06:10:39.000Z</time>
        <extensions>
          <ns3:TrackPointExtension>
            <ns3:hr>124</ns3:hr>
            <ns3:cad>0</ns3:cad>
          </ns3:TrackPointExtension>
        </extensions>
      </trkpt>
      <trkpt lat="44.71016493625938892364501953125" lon="6.742960475385189056396484375">
        <ele>1269.4000244140625</ele>
        <time>2026-09-03T06:10:40.000Z</time>
        <extensions>
          <ns3:TrackPointExtension>
            <ns3:hr>124</ns3:hr>
            <ns3:cad>0</ns3:cad>
          </ns3:TrackPointExtension>
        </extensions>
      </trkpt>
      <trkpt lat="44.7101579792797565460205078125" lon="6.7429621517658233642578125">
        <ele>1269.5999755859375</ele>
        <time>2026-09-03T06:10:41.000Z</time>
        <extensions>
          <ns3:TrackPointExtension>
            <ns3:hr>124</ns3:hr>
            <ns3:cad>0</ns3:cad>
          </ns3:TrackPointExtension>
        </extensions>
      </trkpt>
      <trkpt lat="44.71014775335788726806640625" lon="6.74295452423393726348876953125">
        <ele>1269.800048828125</ele>
        <time>2026-09-03T06:10:42.000Z</time>
        <extensions>
          <ns3:TrackPointExtension>
            <ns3:hr>124</ns3:hr>
            <ns3:cad>0</ns3:cad>
          </ns3:TrackPointExtension>
        </extensions>
      </trkpt>
      <trkpt lat="44.71013593487441539764404296875" lon="6.74294672906398773193359375">
        <ele>1270</ele>
        <time>2026-09-03T06:10:43.000Z</time>
        <extensions>
          <ns3:TrackPointExtension>
            <ns3:hr>124</ns3:hr>
            <ns3:cad>0</ns3:cad>
          </ns3:TrackPointExtension>
        </extensions>
      </trkpt>
      <trkpt lat="44.71012361347675323486328125" lon="6.74293926917016506195068359375">
        <ele>1270.199951171875</ele>
        <time>2026-09-03T06:10:44.000Z</time>
        <extensions>
          <ns3:TrackPointExtension>
            <ns3:hr>124</ns3:hr>
            <ns3:cad>0</ns3:cad>
          </ns3:TrackPointExtension>
        </extensions>
      </trkpt>
      <trkpt lat="44.710121937096118927001953125" lon="6.74293155781924724578857421875">
        <ele>1270.4000244140625</ele>
        <time>2026-09-03T06:10:45.000Z</time>
        <extensions>
          <ns3:TrackPointExtension>
            <ns3:hr>124</ns3:hr>
            <ns3:cad>0</ns3:cad>
          </ns3:TrackPointExtension>
        </extensions>
      </trkpt>
      <trkpt lat="44.71011380665004253387451171875" lon="6.7429200746119022369384765625">
        <ele>1270.5999755859375</ele>
        <time>2026-09-03T06:10:46.000Z</time>
        <extensions>
          <ns3:TrackPointExtension>
            <ns3:hr>124</ns3:hr>
            <ns3:cad>0</ns3:cad>
          </ns3:TrackPointExtension>
        </extensions>
      </trkpt>
      <trkpt lat="44.7101073525846004486083984375" lon="6.74291596747934818267822265625">
        <ele>1270.800048828125</ele>
        <time>2026-09-03T06:10:47.000Z</time>
        <extensions>
          <ns3:TrackPointExtension>
            <ns3:hr>124</ns3:hr>
            <ns3:cad>0</ns3:cad>
          </ns3:TrackPointExtension>
        </extensions>
      </trkpt>
      <trkpt lat="44.71010081470012664794921875" lon="6.7429106868803501129150390625">
        <ele>1271</ele>
        <time>2026-09-03T06:10:48.000Z</time>
        <extensions>
          <ns3:TrackPointExtension>
            <ns3:hr>125</ns3:hr>
            <ns3:cad>0</ns3:cad>
          </ns3:TrackPointExtension>
        </extensions>
      </trkpt>
      <trkpt lat="44.71009821631014347076416015625" lon="6.74290716648101806640625">
        <ele>1271</ele>
        <time>2026-09-03T06:10:49.000Z</time>
        <extensions>
          <ns3:TrackPointExtension>
            <ns3:hr>127</ns3:hr>
            <ns3:cad>0</ns3:cad>
          </ns3:TrackPointExtension>
        </extensions>
      </trkpt>
      <trkpt lat="44.7100889123976230621337890625" lon="6.74289710819721221923828125">
        <ele>1271.199951171875</ele>
        <time>2026-09-03T06:10:50.000Z</time>
        <extensions>
          <ns3:TrackPointExtension>
            <ns3:hr>128</ns3:hr>
            <ns3:cad>0</ns3:cad>
          </ns3:TrackPointExtension>
        </extensions>
      </trkpt>
      <trkpt lat="44.710083715617656707763671875" lon="6.74289040267467498779296875">
        <ele>1271.4000244140625</ele>
        <time>2026-09-03T06:10:51.000Z</time>
        <extensions>
          <ns3:TrackPointExtension>
            <ns3:hr>128</ns3:hr>
            <ns3:cad>0</ns3:cad>
          </ns3:TrackPointExtension>
        </extensions>
      </trkpt>
      <trkpt lat="44.71007793210446834564208984375" lon="6.74288503825664520263671875">
        <ele>1271.5999755859375</ele>
        <time>2026-09-03T06:10:52.000Z</time>
        <extensions>
          <ns3:TrackPointExtension>
            <ns3:hr>128</ns3:hr>
            <ns3:cad>0</ns3:cad>
          </ns3:TrackPointExtension>
        </extensions>
      </trkpt>
      <trkpt lat="44.7100741602480411529541015625" lon="6.7428855411708354949951171875">
        <ele>1271.800048828125</ele>
        <time>2026-09-03T06:10:53.000Z</time>
        <extensions>
          <ns3:TrackPointExtension>
            <ns3:hr>128</ns3:hr>
            <ns3:cad>0</ns3:cad>
          </ns3:TrackPointExtension>
        </extensions>
      </trkpt>
      <trkpt lat="44.7100751660764217376708984375" lon="6.7428925819694995880126953125">
        <ele>1272</ele>
        <time>2026-09-03T06:10:54.000Z</time>
        <extensions>
          <ns3:TrackPointExtension>
            <ns3:hr>128</ns3:hr>
            <ns3:cad>49</ns3:cad>
          </ns3:TrackPointExtension>
        </extensions>
      </trkpt>
      <trkpt lat="44.7100785188376903533935546875" lon="6.74289643764495849609375">
        <ele>1272.199951171875</ele>
        <time>2026-09-03T06:10:55.000Z</time>
        <extensions>
          <ns3:TrackPointExtension>
            <ns3:hr>128</ns3:hr>
            <ns3:cad>49</ns3:cad>
          </ns3:TrackPointExtension>
        </extensions>
      </trkpt>
      <trkpt lat="44.7100765071809291839599609375" lon="6.74289836548268795013427734375">
        <ele>1272.4000244140625</ele>
        <time>2026-09-03T06:10:56.000Z</time>
        <extensions>
          <ns3:TrackPointExtension>
            <ns3:hr>128</ns3:hr>
            <ns3:cad>0</ns3:cad>
          </ns3:TrackPointExtension>
        </extensions>
      </trkpt>
      <trkpt lat="44.7100835479795932769775390625" lon="6.742909513413906097412109375">
        <ele>1272.4000244140625</ele>
        <time>2026-09-03T06:10:57.000Z</time>
        <extensions>
          <ns3:TrackPointExtension>
            <ns3:hr>129</ns3:hr>
            <ns3:cad>0</ns3:cad>
          </ns3:TrackPointExtension>
        </extensions>
      </trkpt>
      <trkpt lat="44.7100882418453693389892578125" lon="6.7429167218506336212158203125">
        <ele>1272.5999755859375</ele>
        <time>2026-09-03T06:10:58.000Z</time>
        <extensions>
          <ns3:TrackPointExtension>
            <ns3:hr>129</ns3:hr>
            <ns3:cad>0</ns3:cad>
          </ns3:TrackPointExtension>
        </extensions>
      </trkpt>
      <trkpt lat="44.71009419299662113189697265625" lon="6.74292686395347118377685546875">
        <ele>1272.800048828125</ele>
        <time>2026-09-03T06:10:59.000Z</time>
        <extensions>
          <ns3:TrackPointExtension>
            <ns3:hr>129</ns3:hr>
            <ns3:cad>0</ns3:cad>
          </ns3:TrackPointExtension>
        </extensions>
      </trkpt>
      <trkpt lat="44.7100961208343505859375" lon="6.74293658696115016937255859375">
        <ele>1272.800048828125</ele>
        <time>2026-09-03T06:11:00.000Z</time>
        <extensions>
          <ns3:TrackPointExtension>
            <ns3:hr>129</ns3:hr>
            <ns3:cad>0</ns3:cad>
          </ns3:TrackPointExtension>
        </extensions>
      </trkpt>
      <trkpt lat="44.710103161633014678955078125" lon="6.742952428758144378662109375">
        <ele>1273</ele>
        <time>2026-09-03T06:11:01.000Z</time>
        <extensions>
          <ns3:TrackPointExtension>
            <ns3:hr>129</ns3:hr>
            <ns3:cad>0</ns3:cad>
          </ns3:TrackPointExtension>
        </extensions>
      </trkpt>
      <trkpt lat="44.7101080231368541717529296875" lon="6.7429619841277599334716796875">
        <ele>1273.199951171875</ele>
        <time>2026-09-03T06:11:02.000Z</time>
        <extensions>
          <ns3:TrackPointExtension>
            <ns3:hr>129</ns3:hr>
            <ns3:cad>0</ns3:cad>
          </ns3:TrackPointExtension>
        </extensions>
      </trkpt>
      <trkpt lat="44.7101113758981227874755859375" lon="6.742975227534770965576171875">
        <ele>1273.4000244140625</ele>
        <time>2026-09-03T06:11:03.000Z</time>
        <extensions>
          <ns3:TrackPointExtension>
            <ns3:hr>129</ns3:hr>
            <ns3:cad>0</ns3:cad>
          </ns3:TrackPointExtension>
        </extensions>
      </trkpt>
      <trkpt lat="44.710115902125835418701171875" lon="6.7429864592850208282470703125">
        <ele>1273.5999755859375</ele>
        <time>2026-09-03T06:11:04.000Z</time>
        <extensions>
          <ns3:TrackPointExtension>
            <ns3:hr>129</ns3:hr>
            <ns3:cad>0</ns3:cad>
          </ns3:TrackPointExtension>
        </extensions>
      </trkpt>
      <trkpt lat="44.71011749468743801116943359375" lon="6.7430028878152370452880859375">
        <ele>1273.800048828125</ele>
        <time>2026-09-03T06:11:05.000Z</time>
        <extensions>
          <ns3:TrackPointExtension>
            <ns3:hr>129</ns3:hr>
            <ns3:cad>0</ns3:cad>
          </ns3:TrackPointExtension>
        </extensions>
      </trkpt>
      <trkpt lat="44.7101190872490406036376953125" lon="6.7430173046886920928955078125">
        <ele>1274</ele>
        <time>2026-09-03T06:11:06.000Z</time>
        <extensions>
          <ns3:TrackPointExtension>
            <ns3:hr>129</ns3:hr>
            <ns3:cad>0</ns3:cad>
          </ns3:TrackPointExtension>
        </extensions>
      </trkpt>
      <trkpt lat="44.71011548303067684173583984375" lon="6.743032895028591156005859375">
        <ele>1274.199951171875</ele>
        <time>2026-09-03T06:11:07.000Z</time>
        <extensions>
          <ns3:TrackPointExtension>
            <ns3:hr>130</ns3:hr>
            <ns3:cad>43</ns3:cad>
          </ns3:TrackPointExtension>
        </extensions>
      </trkpt>
      <trkpt lat="44.71010995097458362579345703125" lon="6.74304462969303131103515625">
        <ele>1274.199951171875</ele>
        <time>2026-09-03T06:11:08.000Z</time>
        <extensions>
          <ns3:TrackPointExtension>
            <ns3:hr>129</ns3:hr>
            <ns3:cad>43</ns3:cad>
          </ns3:TrackPointExtension>
        </extensions>
      </trkpt>
      <trkpt lat="44.7101076878607273101806640625" lon="6.74305477179586887359619140625">
        <ele>1274.4000244140625</ele>
        <time>2026-09-03T06:11:09.000Z</time>
        <extensions>
          <ns3:TrackPointExtension>
            <ns3:hr>129</ns3:hr>
            <ns3:cad>0</ns3:cad>
          </ns3:TrackPointExtension>
        </extensions>
      </trkpt>
      <trkpt lat="44.7101053409278392791748046875" lon="6.74306700937449932098388671875">
        <ele>1274.5999755859375</ele>
        <time>2026-09-03T06:11:10.000Z</time>
        <extensions>
          <ns3:TrackPointExtension>
            <ns3:hr>129</ns3:hr>
            <ns3:cad>0</ns3:cad>
          </ns3:TrackPointExtension>
        </extensions>
      </trkpt>
      <trkpt lat="44.71010492183268070220947265625" lon="6.74307321198284626007080078125">
        <ele>1274.800048828125</ele>
        <time>2026-09-03T06:11:11.000Z</time>
        <extensions>
          <ns3:TrackPointExtension>
            <ns3:hr>129</ns3:hr>
            <ns3:cad>0</ns3:cad>
          </ns3:TrackPointExtension>
        </extensions>
      </trkpt>
      <trkpt lat="44.71010190434753894805908203125" lon="6.74308846704661846160888671875">
        <ele>1275</ele>
        <time>2026-09-03T06:11:12.000Z</time>
        <extensions>
          <ns3:TrackPointExtension>
            <ns3:hr>130</ns3:hr>
            <ns3:cad>0</ns3:cad>
          </ns3:TrackPointExtension>
        </extensions>
      </trkpt>
      <trkpt lat="44.71010215580463409423828125" lon="6.74308955669403076171875">
        <ele>1275.199951171875</ele>
        <time>2026-09-03T06:11:13.000Z</time>
        <extensions>
          <ns3:TrackPointExtension>
            <ns3:hr>129</ns3:hr>
            <ns3:cad>0</ns3:cad>
          </ns3:TrackPointExtension>
        </extensions>
      </trkpt>
      <trkpt lat="44.71009670756757259368896484375" lon="6.74310087226331233978271484375">
        <ele>1275.4000244140625</ele>
        <time>2026-09-03T06:11:14.000Z</time>
        <extensions>
          <ns3:TrackPointExtension>
            <ns3:hr>129</ns3:hr>
            <ns3:cad>0</ns3:cad>
          </ns3:TrackPointExtension>
        </extensions>
      </trkpt>
      <trkpt lat="44.7100952826440334320068359375" lon="6.7431088350713253021240234375">
        <ele>1275.5999755859375</ele>
        <time>2026-09-03T06:11:15.000Z</time>
        <extensions>
          <ns3:TrackPointExtension>
            <ns3:hr>129</ns3:hr>
            <ns3:cad>0</ns3:cad>
          </ns3:TrackPointExtension>
        </extensions>
      </trkpt>
      <trkpt lat="44.710093103349208831787109375" lon="6.74311897717416286468505859375">
        <ele>1275.800048828125</ele>
        <time>2026-09-03T06:11:16.000Z</time>
        <extensions>
          <ns3:TrackPointExtension>
            <ns3:hr>128</ns3:hr>
            <ns3:cad>0</ns3:cad>
          </ns3:TrackPointExtension>
        </extensions>
      </trkpt>
      <trkpt lat="44.71009167842566967010498046875" lon="6.74312786199152469635009765625">
        <ele>1276</ele>
        <time>2026-09-03T06:11:17.000Z</time>
        <extensions>
          <ns3:TrackPointExtension>
            <ns3:hr>128</ns3:hr>
            <ns3:cad>0</ns3:cad>
          </ns3:TrackPointExtension>
        </extensions>
      </trkpt>
      <trkpt lat="44.71008606255054473876953125" lon="6.7431338131427764892578125">
        <ele>1276.199951171875</ele>
        <time>2026-09-03T06:11:18.000Z</time>
        <extensions>
          <ns3:TrackPointExtension>
            <ns3:hr>128</ns3:hr>
            <ns3:cad>0</ns3:cad>
          </ns3:TrackPointExtension>
        </extensions>
      </trkpt>
      <trkpt lat="44.71008245833218097686767578125" lon="6.74314479343593120574951171875">
        <ele>1276.4000244140625</ele>
        <time>2026-09-03T06:11:19.000Z</time>
        <extensions>
          <ns3:TrackPointExtension>
            <ns3:hr>127</ns3:hr>
            <ns3:cad>0</ns3:cad>
          </ns3:TrackPointExtension>
        </extensions>
      </trkpt>
      <trkpt lat="44.71008262597024440765380859375" lon="6.74315200187265872955322265625">
        <ele>1276.4000244140625</ele>
        <time>2026-09-03T06:11:20.000Z</time>
        <extensions>
          <ns3:TrackPointExtension>
            <ns3:hr>127</ns3:hr>
            <ns3:cad>0</ns3:cad>
          </ns3:TrackPointExtension>
        </extensions>
      </trkpt>
      <trkpt lat="44.71008748747408390045166015625" lon="6.74316088669002056121826171875">
        <ele>1276.5999755859375</ele>
        <time>2026-09-03T06:11:21.000Z</time>
        <extensions>
          <ns3:TrackPointExtension>
            <ns3:hr>127</ns3:hr>
            <ns3:cad>0</ns3:cad>
          </ns3:TrackPointExtension>
        </extensions>
      </trkpt>
      <trkpt lat="44.7100852243602275848388671875" lon="6.74316532909870147705078125">
        <ele>1276.800048828125</ele>
        <time>2026-09-03T06:11:22.000Z</time>
        <extensions>
          <ns3:TrackPointExtension>
            <ns3:hr>128</ns3:hr>
            <ns3:cad>0</ns3:cad>
          </ns3:TrackPointExtension>
        </extensions>
      </trkpt>
      <trkpt lat="44.710082709789276123046875" lon="6.74317739903926849365234375">
        <ele>1277</ele>
        <time>2026-09-03T06:11:23.000Z</time>
        <extensions>
          <ns3:TrackPointExtension>
            <ns3:hr>127</ns3:hr>
            <ns3:cad>0</ns3:cad>
          </ns3:TrackPointExtension>
        </extensions>
      </trkpt>
      <trkpt lat="44.710083715617656707763671875" lon="6.74318670295178890228271484375">
        <ele>1277.199951171875</ele>
        <time>2026-09-03T06:11:24.000Z</time>
        <extensions>
          <ns3:TrackPointExtension>
            <ns3:hr>127</ns3:hr>
            <ns3:cad>0</ns3:cad>
          </ns3:TrackPointExtension>
        </extensions>
      </trkpt>
      <trkpt lat="44.71008765511214733123779296875" lon="6.74320028163492679595947265625">
        <ele>1277.4000244140625</ele>
        <time>2026-09-03T06:11:25.000Z</time>
        <extensions>
          <ns3:TrackPointExtension>
            <ns3:hr>126</ns3:hr>
            <ns3:cad>0</ns3:cad>
          </ns3:TrackPointExtension>
        </extensions>
      </trkpt>
      <trkpt lat="44.71009704284369945526123046875" lon="6.7432060651481151580810546875">
        <ele>1277.5999755859375</ele>
        <time>2026-09-03T06:11:26.000Z</time>
        <extensions>
          <ns3:TrackPointExtension>
            <ns3:hr>125</ns3:hr>
            <ns3:cad>0</ns3:cad>
          </ns3:TrackPointExtension>
        </extensions>
      </trkpt>
      <trkpt lat="44.71010223962366580963134765625" lon="6.74321494996547698974609375">
        <ele>1277.800048828125</ele>
        <time>2026-09-03T06:11:27.000Z</time>
        <extensions>
          <ns3:TrackPointExtension>
            <ns3:hr>124</ns3:hr>
            <ns3:cad>0</ns3:cad>
          </ns3:TrackPointExtension>
        </extensions>
      </trkpt>
      <trkpt lat="44.71011129207909107208251953125" lon="6.74323179759085178375244140625">
        <ele>1277.800048828125</ele>
        <time>2026-09-03T06:11:28.000Z</time>
        <extensions>
          <ns3:TrackPointExtension>
            <ns3:hr>124</ns3:hr>
            <ns3:cad>0</ns3:cad>
          </ns3:TrackPointExtension>
        </extensions>
      </trkpt>
      <trkpt lat="44.7101170755922794342041015625" lon="6.7432426102459430694580078125">
        <ele>1278</ele>
        <time>2026-09-03T06:11:29.000Z</time>
        <extensions>
          <ns3:TrackPointExtension>
            <ns3:hr>124</ns3:hr>
            <ns3:cad>0</ns3:cad>
          </ns3:TrackPointExtension>
        </extensions>
      </trkpt>
      <trkpt lat="44.71012285910546779632568359375" lon="6.7432603798806667327880859375">
        <ele>1278</ele>
        <time>2026-09-03T06:11:30.000Z</time>
        <extensions>
          <ns3:TrackPointExtension>
            <ns3:hr>125</ns3:hr>
            <ns3:cad>0</ns3:cad>
          </ns3:TrackPointExtension>
        </extensions>
      </trkpt>
      <trkpt lat="44.710127301514148712158203125" lon="6.74326884560286998748779296875">
        <ele>1278.199951171875</ele>
        <time>2026-09-03T06:11:31.000Z</time>
        <extensions>
          <ns3:TrackPointExtension>
            <ns3:hr>125</ns3:hr>
            <ns3:cad>0</ns3:cad>
          </ns3:TrackPointExtension>
        </extensions>
      </trkpt>
      <trkpt lat="44.710125289857387542724609375" lon="6.7432808317244052886962890625">
        <ele>1278.199951171875</ele>
        <time>2026-09-03T06:11:32.000Z</time>
        <extensions>
          <ns3:TrackPointExtension>
            <ns3:hr>125</ns3:hr>
            <ns3:cad>0</ns3:cad>
          </ns3:TrackPointExtension>
        </extensions>
      </trkpt>
      <trkpt lat="44.7101216018199920654296875" lon="6.74329281784594058990478515625">
        <ele>1278.4000244140625</ele>
        <time>2026-09-03T06:11:33.000Z</time>
        <extensions>
          <ns3:TrackPointExtension>
            <ns3:hr>125</ns3:hr>
            <ns3:cad>0</ns3:cad>
          </ns3:TrackPointExtension>
        </extensions>
      </trkpt>
      <trkpt lat="44.71011799760162830352783203125" lon="6.7433086596429347991943359375">
        <ele>1278.4000244140625</ele>
        <time>2026-09-03T06:11:34.000Z</time>
        <extensions>
          <ns3:TrackPointExtension>
            <ns3:hr>125</ns3:hr>
            <ns3:cad>0</ns3:cad>
          </ns3:TrackPointExtension>
        </extensions>
      </trkpt>
      <trkpt lat="44.7101174108684062957763671875" lon="6.743320561945438385009765625">
        <ele>1278.5999755859375</ele>
        <time>2026-09-03T06:11:35.000Z</time>
        <extensions>
          <ns3:TrackPointExtension>
            <ns3:hr>125</ns3:hr>
            <ns3:cad>0</ns3:cad>
          </ns3:TrackPointExtension>
        </extensions>
      </trkpt>
      <trkpt lat="44.71011422574520111083984375" lon="6.7433307878673076629638671875">
        <ele>1278.800048828125</ele>
        <time>2026-09-03T06:11:36.000Z</time>
        <extensions>
          <ns3:TrackPointExtension>
            <ns3:hr>125</ns3:hr>
            <ns3:cad>0</ns3:cad>
          </ns3:TrackPointExtension>
        </extensions>
      </trkpt>
      <trkpt lat="44.71011095680296421051025390625" lon="6.743341349065303802490234375">
        <ele>1278.800048828125</ele>
        <time>2026-09-03T06:11:37.000Z</time>
        <extensions>
          <ns3:TrackPointExtension>
            <ns3:hr>125</ns3:hr>
            <ns3:cad>0</ns3:cad>
          </ns3:TrackPointExtension>
        </extensions>
      </trkpt>
      <trkpt lat="44.71010408364236354827880859375" lon="6.74334830604493618011474609375">
        <ele>1279</ele>
        <time>2026-09-03T06:11:38.000Z</time>
        <extensions>
          <ns3:TrackPointExtension>
            <ns3:hr>125</ns3:hr>
            <ns3:cad>0</ns3:cad>
          </ns3:TrackPointExtension>
        </extensions>
      </trkpt>
      <trkpt lat="44.71009452827274799346923828125" lon="6.7433589510619640350341796875">
        <ele>1279.199951171875</ele>
        <time>2026-09-03T06:11:39.000Z</time>
        <extensions>
          <ns3:TrackPointExtension>
            <ns3:hr>125</ns3:hr>
            <ns3:cad>0</ns3:cad>
          </ns3:TrackPointExtension>
        </extensions>
      </trkpt>
      <trkpt lat="44.7100920975208282470703125" lon="6.74336850643157958984375">
        <ele>1279.4000244140625</ele>
        <time>2026-09-03T06:11:40.000Z</time>
        <extensions>
          <ns3:TrackPointExtension>
            <ns3:hr>125</ns3:hr>
            <ns3:cad>0</ns3:cad>
          </ns3:TrackPointExtension>
        </extensions>
      </trkpt>
      <trkpt lat="44.7100869007408618927001953125" lon="6.7433797381818294525146484375">
        <ele>1279.4000244140625</ele>
        <time>2026-09-03T06:11:41.000Z</time>
        <extensions>
          <ns3:TrackPointExtension>
            <ns3:hr>125</ns3:hr>
            <ns3:cad>0</ns3:cad>
          </ns3:TrackPointExtension>
        </extensions>
      </trkpt>
      <trkpt lat="44.7100813686847686767578125" lon="6.74339658580720424652099609375">
        <ele>1279.5999755859375</ele>
        <time>2026-09-03T06:11:42.000Z</time>
        <extensions>
          <ns3:TrackPointExtension>
            <ns3:hr>125</ns3:hr>
            <ns3:cad>0</ns3:cad>
          </ns3:TrackPointExtension>
        </extensions>
      </trkpt>
      <trkpt lat="44.71007809974253177642822265625" lon="6.74340932630002498626708984375">
        <ele>1279.800048828125</ele>
        <time>2026-09-03T06:11:43.000Z</time>
        <extensions>
          <ns3:TrackPointExtension>
            <ns3:hr>125</ns3:hr>
            <ns3:cad>0</ns3:cad>
          </ns3:TrackPointExtension>
        </extensions>
      </trkpt>
      <trkpt lat="44.71007935702800750732421875" lon="6.74342055805027484893798828125">
        <ele>1280</ele>
        <time>2026-09-03T06:11:44.000Z</time>
        <extensions>
          <ns3:TrackPointExtension>
            <ns3:hr>125</ns3:hr>
            <ns3:cad>0</ns3:cad>
          </ns3:TrackPointExtension>
        </extensions>
      </trkpt>
      <trkpt lat="44.710077680647373199462890625" lon="6.74343145452439785003662109375">
        <ele>1280.199951171875</ele>
        <time>2026-09-03T06:11:45.000Z</time>
        <extensions>
          <ns3:TrackPointExtension>
            <ns3:hr>125</ns3:hr>
            <ns3:cad>0</ns3:cad>
          </ns3:TrackPointExtension>
        </extensions>
      </trkpt>
      <trkpt lat="44.71007826738059520721435546875" lon="6.7434374056756496429443359375">
        <ele>1280.199951171875</ele>
        <time>2026-09-03T06:11:46.000Z</time>
        <extensions>
          <ns3:TrackPointExtension>
            <ns3:hr>126</ns3:hr>
            <ns3:cad>0</ns3:cad>
          </ns3:TrackPointExtension>
        </extensions>
      </trkpt>
      <trkpt lat="44.71007072366774082183837890625" lon="6.7434461228549480438232421875">
        <ele>1280.4000244140625</ele>
        <time>2026-09-03T06:11:47.000Z</time>
        <extensions>
          <ns3:TrackPointExtension>
            <ns3:hr>126</ns3:hr>
            <ns3:cad>0</ns3:cad>
          </ns3:TrackPointExtension>
        </extensions>
      </trkpt>
      <trkpt lat="44.71006703563034534454345703125" lon="6.74344855360686779022216796875">
        <ele>1280.5999755859375</ele>
        <time>2026-09-03T06:11:48.000Z</time>
        <extensions>
          <ns3:TrackPointExtension>
            <ns3:hr>127</ns3:hr>
            <ns3:cad>0</ns3:cad>
          </ns3:TrackPointExtension>
        </extensions>
      </trkpt>
      <trkpt lat="44.71006083302199840545654296875" lon="6.7434578575193881988525390625">
        <ele>1280.800048828125</ele>
        <time>2026-09-03T06:11:49.000Z</time>
        <extensions>
          <ns3:TrackPointExtension>
            <ns3:hr>127</ns3:hr>
            <ns3:cad>0</ns3:cad>
          </ns3:TrackPointExtension>
        </extensions>
      </trkpt>
      <trkpt lat="44.7100518643856048583984375" lon="6.74345945008099079132080078125">
        <ele>1281</ele>
        <time>2026-09-03T06:11:50.000Z</time>
        <extensions>
          <ns3:TrackPointExtension>
            <ns3:hr>128</ns3:hr>
            <ns3:cad>0</ns3:cad>
          </ns3:TrackPointExtension>
        </extensions>
      </trkpt>
      <trkpt lat="44.71004155464470386505126953125" lon="6.74347286112606525421142578125">
        <ele>1281.199951171875</ele>
        <time>2026-09-03T06:11:51.000Z</time>
        <extensions>
          <ns3:TrackPointExtension>
            <ns3:hr>128</ns3:hr>
            <ns3:cad>0</ns3:cad>
          </ns3:TrackPointExtension>
        </extensions>
      </trkpt>
      <trkpt lat="44.71003719605505466461181640625" lon="6.743486188352108001708984375">
        <ele>1281.4000244140625</ele>
        <time>2026-09-03T06:11:52.000Z</time>
        <extensions>
          <ns3:TrackPointExtension>
            <ns3:hr>129</ns3:hr>
            <ns3:cad>0</ns3:cad>
          </ns3:TrackPointExtension>
        </extensions>
      </trkpt>
      <trkpt lat="44.71002965234220027923583984375" lon="6.74349264241755008697509765625">
        <ele>1281.5999755859375</ele>
        <time>2026-09-03T06:11:53.000Z</time>
        <extensions>
          <ns3:TrackPointExtension>
            <ns3:hr>129</ns3:hr>
            <ns3:cad>0</ns3:cad>
          </ns3:TrackPointExtension>
        </extensions>
      </trkpt>
      <trkpt lat="44.71002093516290187835693359375" lon="6.743503622710704803466796875">
        <ele>1282</ele>
        <time>2026-09-03T06:11:54.000Z</time>
        <extensions>
          <ns3:TrackPointExtension>
            <ns3:hr>129</ns3:hr>
            <ns3:cad>0</ns3:cad>
          </ns3:TrackPointExtension>
        </extensions>
      </trkpt>
      <trkpt lat="44.71001707948744297027587890625" lon="6.74350303597748279571533203125">
        <ele>1282.199951171875</ele>
        <time>2026-09-03T06:11:55.000Z</time>
        <extensions>
          <ns3:TrackPointExtension>
            <ns3:hr>130</ns3:hr>
            <ns3:cad>0</ns3:cad>
          </ns3:TrackPointExtension>
        </extensions>
      </trkpt>
      <trkpt lat="44.7100074402987957000732421875" lon="6.7435178719460964202880859375">
        <ele>1282.4000244140625</ele>
        <time>2026-09-03T06:11:56.000Z</time>
        <extensions>
          <ns3:TrackPointExtension>
            <ns3:hr>130</ns3:hr>
            <ns3:cad>0</ns3:cad>
          </ns3:TrackPointExtension>
        </extensions>
      </trkpt>
      <trkpt lat="44.7100034169852733612060546875" lon="6.74352130852639675140380859375">
        <ele>1282.5999755859375</ele>
        <time>2026-09-03T06:11:57.000Z</time>
        <extensions>
          <ns3:TrackPointExtension>
            <ns3:hr>130</ns3:hr>
            <ns3:cad>0</ns3:cad>
          </ns3:TrackPointExtension>
        </extensions>
      </trkpt>
      <trkpt lat="44.70999126322567462921142578125" lon="6.743533127009868621826171875">
        <ele>1282.800048828125</ele>
        <time>2026-09-03T06:11:58.000Z</time>
        <extensions>
          <ns3:TrackPointExtension>
            <ns3:hr>131</ns3:hr>
            <ns3:cad>0</ns3:cad>
          </ns3:TrackPointExtension>
        </extensions>
      </trkpt>
      <trkpt lat="44.709981121122837066650390625" lon="6.74353807233273983001708984375">
        <ele>1283</ele>
        <time>2026-09-03T06:11:59.000Z</time>
        <extensions>
          <ns3:TrackPointExtension>
            <ns3:hr>131</ns3:hr>
            <ns3:cad>0</ns3:cad>
          </ns3:TrackPointExtension>
        </extensions>
      </trkpt>
      <trkpt lat="44.7099725715816020965576171875" lon="6.74355483613908290863037109375">
        <ele>1283.199951171875</ele>
        <time>2026-09-03T06:12:00.000Z</time>
        <extensions>
          <ns3:TrackPointExtension>
            <ns3:hr>131</ns3:hr>
            <ns3:cad>0</ns3:cad>
          </ns3:TrackPointExtension>
        </extensions>
      </trkpt>
      <trkpt lat="44.70996393822133541107177734375" lon="6.74356900155544281005859375">
        <ele>1283.4000244140625</ele>
        <time>2026-09-03T06:12:01.000Z</time>
        <extensions>
          <ns3:TrackPointExtension>
            <ns3:hr>131</ns3:hr>
            <ns3:cad>0</ns3:cad>
          </ns3:TrackPointExtension>
        </extensions>
      </trkpt>
      <trkpt lat="44.70996125601232051849365234375" lon="6.74357210285961627960205078125">
        <ele>1283.5999755859375</ele>
        <time>2026-09-03T06:12:02.000Z</time>
        <extensions>
          <ns3:TrackPointExtension>
            <ns3:hr>132</ns3:hr>
            <ns3:cad>0</ns3:cad>
          </ns3:TrackPointExtension>
        </extensions>
      </trkpt>
      <trkpt lat="44.7099507786333560943603515625" lon="6.7435845918953418731689453125">
        <ele>1283.800048828125</ele>
        <time>2026-09-03T06:12:03.000Z</time>
        <extensions>
          <ns3:TrackPointExtension>
            <ns3:hr>132</ns3:hr>
            <ns3:cad>0</ns3:cad>
          </ns3:TrackPointExtension>
        </extensions>
      </trkpt>
      <trkpt lat="44.70995253883302211761474609375" lon="6.74358936958014965057373046875">
        <ele>1284</ele>
        <time>2026-09-03T06:12:04.000Z</time>
        <extensions>
          <ns3:TrackPointExtension>
            <ns3:hr>133</ns3:hr>
            <ns3:cad>0</ns3:cad>
          </ns3:TrackPointExtension>
        </extensions>
      </trkpt>
      <trkpt lat="44.70994700677692890167236328125" lon="6.74359993077814579010009765625">
        <ele>1284.199951171875</ele>
        <time>2026-09-03T06:12:05.000Z</time>
        <extensions>
          <ns3:TrackPointExtension>
            <ns3:hr>133</ns3:hr>
            <ns3:cad>0</ns3:cad>
          </ns3:TrackPointExtension>
        </extensions>
      </trkpt>
      <trkpt lat="44.70994667150080204010009765625" lon="6.74360630102455615997314453125">
        <ele>1284.4000244140625</ele>
        <time>2026-09-03T06:12:06.000Z</time>
        <extensions>
          <ns3:TrackPointExtension>
            <ns3:hr>133</ns3:hr>
            <ns3:cad>51</ns3:cad>
          </ns3:TrackPointExtension>
        </extensions>
      </trkpt>
      <trkpt lat="44.7099447436630725860595703125" lon="6.7436124198138713836669921875">
        <ele>1284.5999755859375</ele>
        <time>2026-09-03T06:12:07.000Z</time>
        <extensions>
          <ns3:TrackPointExtension>
            <ns3:hr>133</ns3:hr>
            <ns3:cad>51</ns3:cad>
          </ns3:TrackPointExtension>
        </extensions>
      </trkpt>
      <trkpt lat="44.70994113944470882415771484375" lon="6.74361971206963062286376953125">
        <ele>1284.5999755859375</ele>
        <time>2026-09-03T06:12:08.000Z</time>
        <extensions>
          <ns3:TrackPointExtension>
            <ns3:hr>134</ns3:hr>
            <ns3:cad>0</ns3:cad>
          </ns3:TrackPointExtension>
        </extensions>
      </trkpt>
      <trkpt lat="44.70993929542601108551025390625" lon="6.74362599849700927734375">
        <ele>1284.800048828125</ele>
        <time>2026-09-03T06:12:09.000Z</time>
        <extensions>
          <ns3:TrackPointExtension>
            <ns3:hr>134</ns3:hr>
            <ns3:cad>0</ns3:cad>
          </ns3:TrackPointExtension>
        </extensions>
      </trkpt>
      <trkpt lat="44.709934853017330169677734375" lon="6.7436355538666248321533203125">
        <ele>1285</ele>
        <time>2026-09-03T06:12:10.000Z</time>
        <extensions>
          <ns3:TrackPointExtension>
            <ns3:hr>134</ns3:hr>
            <ns3:cad>0</ns3:cad>
          </ns3:TrackPointExtension>
        </extensions>
      </trkpt>
      <trkpt lat="44.70993124879896640777587890625" lon="6.74364351667463779449462890625">
        <ele>1285.199951171875</ele>
        <time>2026-09-03T06:12:11.000Z</time>
        <extensions>
          <ns3:TrackPointExtension>
            <ns3:hr>134</ns3:hr>
            <ns3:cad>0</ns3:cad>
          </ns3:TrackPointExtension>
        </extensions>
      </trkpt>
      <trkpt lat="44.70992940478026866912841796875" lon="6.743654496967792510986328125">
        <ele>1285.4000244140625</ele>
        <time>2026-09-03T06:12:12.000Z</time>
        <extensions>
          <ns3:TrackPointExtension>
            <ns3:hr>134</ns3:hr>
            <ns3:cad>0</ns3:cad>
          </ns3:TrackPointExtension>
        </extensions>
      </trkpt>
      <trkpt lat="44.709927476942539215087890625" lon="6.7436617054045200347900390625">
        <ele>1285.5999755859375</ele>
        <time>2026-09-03T06:12:13.000Z</time>
        <extensions>
          <ns3:TrackPointExtension>
            <ns3:hr>134</ns3:hr>
            <ns3:cad>0</ns3:cad>
          </ns3:TrackPointExtension>
        </extensions>
      </trkpt>
      <trkpt lat="44.70992538146674633026123046875" lon="6.74367226660251617431640625">
        <ele>1285.800048828125</ele>
        <time>2026-09-03T06:12:14.000Z</time>
        <extensions>
          <ns3:TrackPointExtension>
            <ns3:hr>134</ns3:hr>
            <ns3:cad>0</ns3:cad>
          </ns3:TrackPointExtension>
        </extensions>
      </trkpt>
      <trkpt lat="44.70991976559162139892578125" lon="6.7436821572482585906982421875">
        <ele>1286</ele>
        <time>2026-09-03T06:12:15.000Z</time>
        <extensions>
          <ns3:TrackPointExtension>
            <ns3:hr>134</ns3:hr>
            <ns3:cad>0</ns3:cad>
          </ns3:TrackPointExtension>
        </extensions>
      </trkpt>
      <trkpt lat="44.70992471091449260711669921875" lon="6.74368190579116344451904296875">
        <ele>1286</ele>
        <time>2026-09-03T06:12:16.000Z</time>
        <extensions>
          <ns3:TrackPointExtension>
            <ns3:hr>133</ns3:hr>
            <ns3:cad>0</ns3:cad>
          </ns3:TrackPointExtension>
        </extensions>
      </trkpt>
      <trkpt lat="44.70991834066808223724365234375" lon="6.7436965741217136383056640625">
        <ele>1286.199951171875</ele>
        <time>2026-09-03T06:12:17.000Z</time>
        <extensions>
          <ns3:TrackPointExtension>
            <ns3:hr>133</ns3:hr>
            <ns3:cad>0</ns3:cad>
          </ns3:TrackPointExtension>
        </extensions>
      </trkpt>
      <trkpt lat="44.709919430315494537353515625" lon="6.74370906315743923187255859375">
        <ele>1286.4000244140625</ele>
        <time>2026-09-03T06:12:18.000Z</time>
        <extensions>
          <ns3:TrackPointExtension>
            <ns3:hr>133</ns3:hr>
            <ns3:cad>0</ns3:cad>
          </ns3:TrackPointExtension>
        </extensions>
      </trkpt>
      <trkpt lat="44.7099102102220058441162109375" lon="6.74372348003089427947998046875">
        <ele>1286.5999755859375</ele>
        <time>2026-09-03T06:12:19.000Z</time>
        <extensions>
          <ns3:TrackPointExtension>
            <ns3:hr>133</ns3:hr>
            <ns3:cad>0</ns3:cad>
          </ns3:TrackPointExtension>
        </extensions>
      </trkpt>
      <trkpt lat="44.70990677364170551300048828125" lon="6.743731610476970672607421875">
        <ele>1286.800048828125</ele>
        <time>2026-09-03T06:12:20.000Z</time>
        <extensions>
          <ns3:TrackPointExtension>
            <ns3:hr>133</ns3:hr>
            <ns3:cad>0</ns3:cad>
          </ns3:TrackPointExtension>
        </extensions>
      </trkpt>
      <trkpt lat="44.7099008224904537200927734375" lon="6.7437472008168697357177734375">
        <ele>1287</ele>
        <time>2026-09-03T06:12:21.000Z</time>
        <extensions>
          <ns3:TrackPointExtension>
            <ns3:hr>133</ns3:hr>
            <ns3:cad>0</ns3:cad>
          </ns3:TrackPointExtension>
        </extensions>
      </trkpt>
      <trkpt lat="44.70989990048110485076904296875" lon="6.74375063739717006683349609375">
        <ele>1287.199951171875</ele>
        <time>2026-09-03T06:12:22.000Z</time>
        <extensions>
          <ns3:TrackPointExtension>
            <ns3:hr>133</ns3:hr>
            <ns3:cad>0</ns3:cad>
          </ns3:TrackPointExtension>
        </extensions>
      </trkpt>
      <trkpt lat="44.7098914347589015960693359375" lon="6.7437622882425785064697265625">
        <ele>1287.199951171875</ele>
        <time>2026-09-03T06:12:23.000Z</time>
        <extensions>
          <ns3:TrackPointExtension>
            <ns3:hr>132</ns3:hr>
            <ns3:cad>0</ns3:cad>
          </ns3:TrackPointExtension>
        </extensions>
      </trkpt>
      <trkpt lat="44.70988682471215724945068359375" lon="6.743769831955432891845703125">
        <ele>1287.4000244140625</ele>
        <time>2026-09-03T06:12:24.000Z</time>
        <extensions>
          <ns3:TrackPointExtension>
            <ns3:hr>132</ns3:hr>
            <ns3:cad>0</ns3:cad>
          </ns3:TrackPointExtension>
        </extensions>
      </trkpt>
      <trkpt lat="44.709883891046047210693359375" lon="6.74377226270735263824462890625">
        <ele>1287.5999755859375</ele>
        <time>2026-09-03T06:12:25.000Z</time>
        <extensions>
          <ns3:TrackPointExtension>
            <ns3:hr>132</ns3:hr>
            <ns3:cad>0</ns3:cad>
          </ns3:TrackPointExtension>
        </extensions>
      </trkpt>
      <trkpt lat="44.709873832762241363525390625" lon="6.74378047697246074676513671875">
        <ele>1287.800048828125</ele>
        <time>2026-09-03T06:12:26.000Z</time>
        <extensions>
          <ns3:TrackPointExtension>
            <ns3:hr>132</ns3:hr>
            <ns3:cad>0</ns3:cad>
          </ns3:TrackPointExtension>
        </extensions>
      </trkpt>
      <trkpt lat="44.7098689712584018707275390625" lon="6.74378735013306140899658203125">
        <ele>1288</ele>
        <time>2026-09-03T06:12:27.000Z</time>
        <extensions>
          <ns3:TrackPointExtension>
            <ns3:hr>132</ns3:hr>
            <ns3:cad>0</ns3:cad>
          </ns3:TrackPointExtension>
        </extensions>
      </trkpt>
      <trkpt lat="44.70986905507743358612060546875" lon="6.74379489384591579437255859375">
        <ele>1288.199951171875</ele>
        <time>2026-09-03T06:12:28.000Z</time>
        <extensions>
          <ns3:TrackPointExtension>
            <ns3:hr>132</ns3:hr>
            <ns3:cad>0</ns3:cad>
          </ns3:TrackPointExtension>
        </extensions>
      </trkpt>
      <trkpt lat="44.70986687578260898590087890625" lon="6.74380637705326080322265625">
        <ele>1288.4000244140625</ele>
        <time>2026-09-03T06:12:29.000Z</time>
        <extensions>
          <ns3:TrackPointExtension>
            <ns3:hr>130</ns3:hr>
            <ns3:cad>0</ns3:cad>
          </ns3:TrackPointExtension>
        </extensions>
      </trkpt>
      <trkpt lat="44.7098659537732601165771484375" lon="6.74381433986127376556396484375">
        <ele>1288.5999755859375</ele>
        <time>2026-09-03T06:12:30.000Z</time>
        <extensions>
          <ns3:TrackPointExtension>
            <ns3:hr>130</ns3:hr>
            <ns3:cad>0</ns3:cad>
          </ns3:TrackPointExtension>
        </extensions>
      </trkpt>
      <trkpt lat="44.70986075699329376220703125" lon="6.743824481964111328125">
        <ele>1288.800048828125</ele>
        <time>2026-09-03T06:12:31.000Z</time>
        <extensions>
          <ns3:TrackPointExtension>
            <ns3:hr>130</ns3:hr>
            <ns3:cad>0</ns3:cad>
          </ns3:TrackPointExtension>
        </extensions>
      </trkpt>
      <trkpt lat="44.70985941588878631591796875" lon="6.743829511106014251708984375">
        <ele>1289</ele>
        <time>2026-09-03T06:12:32.000Z</time>
        <extensions>
          <ns3:TrackPointExtension>
            <ns3:hr>129</ns3:hr>
            <ns3:cad>0</ns3:cad>
          </ns3:TrackPointExtension>
        </extensions>
      </trkpt>
      <trkpt lat="44.7098545543849468231201171875" lon="6.7438474483788013458251953125">
        <ele>1289</ele>
        <time>2026-09-03T06:12:33.000Z</time>
        <extensions>
          <ns3:TrackPointExtension>
            <ns3:hr>129</ns3:hr>
            <ns3:cad>0</ns3:cad>
          </ns3:TrackPointExtension>
        </extensions>
      </trkpt>
      <trkpt lat="44.7098525427281856536865234375" lon="6.74385407008230686187744140625">
        <ele>1289.199951171875</ele>
        <time>2026-09-03T06:12:34.000Z</time>
        <extensions>
          <ns3:TrackPointExtension>
            <ns3:hr>129</ns3:hr>
            <ns3:cad>0</ns3:cad>
          </ns3:TrackPointExtension>
        </extensions>
      </trkpt>
      <trkpt lat="44.70983921550214290618896484375" lon="6.74385507591068744659423828125">
        <ele>1289.4000244140625</ele>
        <time>2026-09-03T06:12:35.000Z</time>
        <extensions>
          <ns3:TrackPointExtension>
            <ns3:hr>129</ns3:hr>
            <ns3:cad>0</ns3:cad>
          </ns3:TrackPointExtension>
        </extensions>
      </trkpt>
      <trkpt lat="44.70982898958027362823486328125" lon="6.74386111088097095489501953125">
        <ele>1289.5999755859375</ele>
        <time>2026-09-03T06:12:36.000Z</time>
        <extensions>
          <ns3:TrackPointExtension>
            <ns3:hr>130</ns3:hr>
            <ns3:cad>0</ns3:cad>
          </ns3:TrackPointExtension>
        </extensions>
      </trkpt>
      <trkpt lat="44.70982178114354610443115234375" lon="6.7438648827373981475830078125">
        <ele>1289.800048828125</ele>
        <time>2026-09-03T06:12:37.000Z</time>
        <extensions>
          <ns3:TrackPointExtension>
            <ns3:hr>130</ns3:hr>
            <ns3:cad>0</ns3:cad>
          </ns3:TrackPointExtension>
        </extensions>
      </trkpt>
      <trkpt lat="44.70981608144938945770263671875" lon="6.74387100152671337127685546875">
        <ele>1290</ele>
        <time>2026-09-03T06:12:38.000Z</time>
        <extensions>
          <ns3:TrackPointExtension>
            <ns3:hr>130</ns3:hr>
            <ns3:cad>0</ns3:cad>
          </ns3:TrackPointExtension>
        </extensions>
      </trkpt>
      <trkpt lat="44.7098133154213428497314453125" lon="6.74387854523956775665283203125">
        <ele>1290.199951171875</ele>
        <time>2026-09-03T06:12:39.000Z</time>
        <extensions>
          <ns3:TrackPointExtension>
            <ns3:hr>130</ns3:hr>
            <ns3:cad>0</ns3:cad>
          </ns3:TrackPointExtension>
        </extensions>
      </trkpt>
      <trkpt lat="44.7098045982420444488525390625" lon="6.74388776533305644989013671875">
        <ele>1290.4000244140625</ele>
        <time>2026-09-03T06:12:40.000Z</time>
        <extensions>
          <ns3:TrackPointExtension>
            <ns3:hr>130</ns3:hr>
            <ns3:cad>0</ns3:cad>
          </ns3:TrackPointExtension>
        </extensions>
      </trkpt>
      <trkpt lat="44.70979906618595123291015625" lon="6.7438947223126888275146484375">
        <ele>1290.5999755859375</ele>
        <time>2026-09-03T06:12:41.000Z</time>
        <extensions>
          <ns3:TrackPointExtension>
            <ns3:hr>130</ns3:hr>
            <ns3:cad>0</ns3:cad>
          </ns3:TrackPointExtension>
        </extensions>
      </trkpt>
      <trkpt lat="44.70979445613920688629150390625" lon="6.7439000867307186126708984375">
        <ele>1290.800048828125</ele>
        <time>2026-09-03T06:12:42.000Z</time>
        <extensions>
          <ns3:TrackPointExtension>
            <ns3:hr>130</ns3:hr>
            <ns3:cad>0</ns3:cad>
          </ns3:TrackPointExtension>
        </extensions>
      </trkpt>
      <trkpt lat="44.709788672626018524169921875" lon="6.743905954062938690185546875">
        <ele>1291</ele>
        <time>2026-09-03T06:12:43.000Z</time>
        <extensions>
          <ns3:TrackPointExtension>
            <ns3:hr>131</ns3:hr>
            <ns3:cad>0</ns3:cad>
          </ns3:TrackPointExtension>
        </extensions>
      </trkpt>
      <trkpt lat="44.7097871638834476470947265625" lon="6.74390251748263835906982421875">
        <ele>1291.199951171875</ele>
        <time>2026-09-03T06:12:44.000Z</time>
        <extensions>
          <ns3:TrackPointExtension>
            <ns3:hr>131</ns3:hr>
            <ns3:cad>0</ns3:cad>
          </ns3:TrackPointExtension>
        </extensions>
      </trkpt>
      <trkpt lat="44.7097821347415447235107421875" lon="6.743899248540401458740234375">
        <ele>1291.5999755859375</ele>
        <time>2026-09-03T06:12:45.000Z</time>
        <extensions>
          <ns3:TrackPointExtension>
            <ns3:hr>131</ns3:hr>
            <ns3:cad>0</ns3:cad>
          </ns3:TrackPointExtension>
        </extensions>
      </trkpt>
      <trkpt lat="44.70978297293186187744140625" lon="6.74389162100851535797119140625">
        <ele>1291.800048828125</ele>
        <time>2026-09-03T06:12:46.000Z</time>
        <extensions>
          <ns3:TrackPointExtension>
            <ns3:hr>131</ns3:hr>
            <ns3:cad>0</ns3:cad>
          </ns3:TrackPointExtension>
        </extensions>
      </trkpt>
      <trkpt lat="44.7097841463983058929443359375" lon="6.7438848316669464111328125">
        <ele>1292</ele>
        <time>2026-09-03T06:12:47.000Z</time>
        <extensions>
          <ns3:TrackPointExtension>
            <ns3:hr>131</ns3:hr>
            <ns3:cad>0</ns3:cad>
          </ns3:TrackPointExtension>
        </extensions>
      </trkpt>
      <trkpt lat="44.7097821347415447235107421875" lon="6.74387787468731403350830078125">
        <ele>1292</ele>
        <time>2026-09-03T06:12:48.000Z</time>
        <extensions>
          <ns3:TrackPointExtension>
            <ns3:hr>131</ns3:hr>
            <ns3:cad>0</ns3:cad>
          </ns3:TrackPointExtension>
        </extensions>
      </trkpt>
      <trkpt lat="44.709777273237705230712890625" lon="6.74386966042220592498779296875">
        <ele>1292.199951171875</ele>
        <time>2026-09-03T06:12:49.000Z</time>
        <extensions>
          <ns3:TrackPointExtension>
            <ns3:hr>131</ns3:hr>
            <ns3:cad>0</ns3:cad>
          </ns3:TrackPointExtension>
        </extensions>
      </trkpt>
      <trkpt lat="44.7097737528383731842041015625" lon="6.74386194907128810882568359375">
        <ele>1292.4000244140625</ele>
        <time>2026-09-03T06:12:50.000Z</time>
        <extensions>
          <ns3:TrackPointExtension>
            <ns3:hr>131</ns3:hr>
            <ns3:cad>0</ns3:cad>
          </ns3:TrackPointExtension>
        </extensions>
      </trkpt>
      <trkpt lat="44.70977048389613628387451171875" lon="6.74384987913072109222412109375">
        <ele>1292.5999755859375</ele>
        <time>2026-09-03T06:12:51.000Z</time>
        <extensions>
          <ns3:TrackPointExtension>
            <ns3:hr>131</ns3:hr>
            <ns3:cad>0</ns3:cad>
          </ns3:TrackPointExtension>
        </extensions>
      </trkpt>
      <trkpt lat="44.7097653709352016448974609375" lon="6.7438352108001708984375">
        <ele>1292.800048828125</ele>
        <time>2026-09-03T06:12:52.000Z</time>
        <extensions>
          <ns3:TrackPointExtension>
            <ns3:hr>131</ns3:hr>
            <ns3:cad>0</ns3:cad>
          </ns3:TrackPointExtension>
        </extensions>
      </trkpt>
      <trkpt lat="44.70976419746875762939453125" lon="6.74382272176444530487060546875">
        <ele>1293</ele>
        <time>2026-09-03T06:12:53.000Z</time>
        <extensions>
          <ns3:TrackPointExtension>
            <ns3:hr>131</ns3:hr>
            <ns3:cad>52</ns3:cad>
          </ns3:TrackPointExtension>
        </extensions>
      </trkpt>
      <trkpt lat="44.70976285636425018310546875" lon="6.7438135854899883270263671875">
        <ele>1293.199951171875</ele>
        <time>2026-09-03T06:12:54.000Z</time>
        <extensions>
          <ns3:TrackPointExtension>
            <ns3:hr>131</ns3:hr>
            <ns3:cad>52</ns3:cad>
          </ns3:TrackPointExtension>
        </extensions>
      </trkpt>
      <trkpt lat="44.70975858159363269805908203125" lon="6.74380545504391193389892578125">
        <ele>1293.4000244140625</ele>
        <time>2026-09-03T06:12:55.000Z</time>
        <extensions>
          <ns3:TrackPointExtension>
            <ns3:hr>132</ns3:hr>
            <ns3:cad>52</ns3:cad>
          </ns3:TrackPointExtension>
        </extensions>
      </trkpt>
      <trkpt lat="44.7097539715468883514404296875" lon="6.74379405565559864044189453125">
        <ele>1293.5999755859375</ele>
        <time>2026-09-03T06:12:56.000Z</time>
        <extensions>
          <ns3:TrackPointExtension>
            <ns3:hr>132</ns3:hr>
            <ns3:cad>0</ns3:cad>
          </ns3:TrackPointExtension>
        </extensions>
      </trkpt>
      <trkpt lat="44.709750451147556304931640625" lon="6.743785254657268524169921875">
        <ele>1293.800048828125</ele>
        <time>2026-09-03T06:12:57.000Z</time>
        <extensions>
          <ns3:TrackPointExtension>
            <ns3:hr>133</ns3:hr>
            <ns3:cad>0</ns3:cad>
          </ns3:TrackPointExtension>
        </extensions>
      </trkpt>
      <trkpt lat="44.70974902622401714324951171875" lon="6.7437777109444141387939453125">
        <ele>1294</ele>
        <time>2026-09-03T06:12:58.000Z</time>
        <extensions>
          <ns3:TrackPointExtension>
            <ns3:hr>133</ns3:hr>
            <ns3:cad>0</ns3:cad>
          </ns3:TrackPointExtension>
        </extensions>
      </trkpt>
      <trkpt lat="44.709749110043048858642578125" lon="6.743769161403179168701171875">
        <ele>1294</ele>
        <time>2026-09-03T06:12:59.000Z</time>
        <extensions>
          <ns3:TrackPointExtension>
            <ns3:hr>133</ns3:hr>
            <ns3:cad>0</ns3:cad>
          </ns3:TrackPointExtension>
        </extensions>
      </trkpt>
      <trkpt lat="44.709744416177272796630859375" lon="6.74376186914741992950439453125">
        <ele>1294.199951171875</ele>
        <time>2026-09-03T06:13:00.000Z</time>
        <extensions>
          <ns3:TrackPointExtension>
            <ns3:hr>133</ns3:hr>
            <ns3:cad>0</ns3:cad>
          </ns3:TrackPointExtension>
        </extensions>
      </trkpt>
      <trkpt lat="44.70974215306341648101806640625" lon="6.74374946393072605133056640625">
        <ele>1294.4000244140625</ele>
        <time>2026-09-03T06:13:01.000Z</time>
        <extensions>
          <ns3:TrackPointExtension>
            <ns3:hr>133</ns3:hr>
            <ns3:cad>0</ns3:cad>
          </ns3:TrackPointExtension>
        </extensions>
      </trkpt>
      <trkpt lat="44.70973737537860870361328125" lon="6.74373663961887359619140625">
        <ele>1294.5999755859375</ele>
        <time>2026-09-03T06:13:02.000Z</time>
        <extensions>
          <ns3:TrackPointExtension>
            <ns3:hr>133</ns3:hr>
            <ns3:cad>0</ns3:cad>
          </ns3:TrackPointExtension>
        </extensions>
      </trkpt>
      <trkpt lat="44.70973175950348377227783203125" lon="6.74372381530702114105224609375">
        <ele>1294.800048828125</ele>
        <time>2026-09-03T06:13:03.000Z</time>
        <extensions>
          <ns3:TrackPointExtension>
            <ns3:hr>133</ns3:hr>
            <ns3:cad>0</ns3:cad>
          </ns3:TrackPointExtension>
        </extensions>
      </trkpt>
      <trkpt lat="44.7097331844270229339599609375" lon="6.7437123320996761322021484375">
        <ele>1294.800048828125</ele>
        <time>2026-09-03T06:13:04.000Z</time>
        <extensions>
          <ns3:TrackPointExtension>
            <ns3:hr>133</ns3:hr>
            <ns3:cad>0</ns3:cad>
          </ns3:TrackPointExtension>
        </extensions>
      </trkpt>
      <trkpt lat="44.70972388051450252532958984375" lon="6.74370168708264827728271484375">
        <ele>1295</ele>
        <time>2026-09-03T06:13:05.000Z</time>
        <extensions>
          <ns3:TrackPointExtension>
            <ns3:hr>132</ns3:hr>
            <ns3:cad>0</ns3:cad>
          </ns3:TrackPointExtension>
        </extensions>
      </trkpt>
      <trkpt lat="44.7097221203148365020751953125" lon="6.74369380809366703033447265625">
        <ele>1295.199951171875</ele>
        <time>2026-09-03T06:13:06.000Z</time>
        <extensions>
          <ns3:TrackPointExtension>
            <ns3:hr>132</ns3:hr>
            <ns3:cad>0</ns3:cad>
          </ns3:TrackPointExtension>
        </extensions>
      </trkpt>
      <trkpt lat="44.7097211144864559173583984375" lon="6.74368190579116344451904296875">
        <ele>1295.4000244140625</ele>
        <time>2026-09-03T06:13:07.000Z</time>
        <extensions>
          <ns3:TrackPointExtension>
            <ns3:hr>132</ns3:hr>
            <ns3:cad>0</ns3:cad>
          </ns3:TrackPointExtension>
        </extensions>
      </trkpt>
      <trkpt lat="44.7097214497625827789306640625" lon="6.7436684109270572662353515625">
        <ele>1295.5999755859375</ele>
        <time>2026-09-03T06:13:08.000Z</time>
        <extensions>
          <ns3:TrackPointExtension>
            <ns3:hr>132</ns3:hr>
            <ns3:cad>0</ns3:cad>
          </ns3:TrackPointExtension>
        </extensions>
      </trkpt>
      <trkpt lat="44.7097217850387096405029296875" lon="6.743655167520046234130859375">
        <ele>1295.800048828125</ele>
        <time>2026-09-03T06:13:09.000Z</time>
        <extensions>
          <ns3:TrackPointExtension>
            <ns3:hr>132</ns3:hr>
            <ns3:cad>0</ns3:cad>
          </ns3:TrackPointExtension>
        </extensions>
      </trkpt>
      <trkpt lat="44.70972036011517047882080078125" lon="6.74363999627530574798583984375">
        <ele>1296</ele>
        <time>2026-09-03T06:13:10.000Z</time>
        <extensions>
          <ns3:TrackPointExtension>
            <ns3:hr>132</ns3:hr>
            <ns3:cad>0</ns3:cad>
          </ns3:TrackPointExtension>
        </extensions>
      </trkpt>
      <trkpt lat="44.7097160853445529937744140625" lon="6.74362373538315296173095703125">
        <ele>1296.199951171875</ele>
        <time>2026-09-03T06:13:11.000Z</time>
        <extensions>
          <ns3:TrackPointExtension>
            <ns3:hr>132</ns3:hr>
            <ns3:cad>0</ns3:cad>
          </ns3:TrackPointExtension>
        </extensions>
      </trkpt>
      <trkpt lat="44.7097098827362060546875" lon="6.743609569966793060302734375">
        <ele>1296.4000244140625</ele>
        <time>2026-09-03T06:13:12.000Z</time>
        <extensions>
          <ns3:TrackPointExtension>
            <ns3:hr>132</ns3:hr>
            <ns3:cad>0</ns3:cad>
          </ns3:TrackPointExtension>
        </extensions>
      </trkpt>
      <trkpt lat="44.70970644615590572357177734375" lon="6.743603534996509552001953125">
        <ele>1296.5999755859375</ele>
        <time>2026-09-03T06:13:13.000Z</time>
        <extensions>
          <ns3:TrackPointExtension>
            <ns3:hr>132</ns3:hr>
            <ns3:cad>0</ns3:cad>
          </ns3:TrackPointExtension>
        </extensions>
      </trkpt>
      <trkpt lat="44.709706194698810577392578125" lon="6.74358836375176906585693359375">
        <ele>1296.800048828125</ele>
        <time>2026-09-03T06:13:14.000Z</time>
        <extensions>
          <ns3:TrackPointExtension>
            <ns3:hr>132</ns3:hr>
            <ns3:cad>0</ns3:cad>
          </ns3:TrackPointExtension>
        </extensions>
      </trkpt>
      <trkpt lat="44.70970510505139827728271484375" lon="6.74357713200151920318603515625">
        <ele>1297</ele>
        <time>2026-09-03T06:13:15.000Z</time>
        <extensions>
          <ns3:TrackPointExtension>
            <ns3:hr>132</ns3:hr>
            <ns3:cad>0</ns3:cad>
          </ns3:TrackPointExtension>
        </extensions>
      </trkpt>
      <trkpt lat="44.70971457660198211669921875" lon="6.743570007383823394775390625">
        <ele>1297.199951171875</ele>
        <time>2026-09-03T06:13:16.000Z</time>
        <extensions>
          <ns3:TrackPointExtension>
            <ns3:hr>132</ns3:hr>
            <ns3:cad>0</ns3:cad>
          </ns3:TrackPointExtension>
        </extensions>
      </trkpt>
      <trkpt lat="44.70971859991550445556640625" lon="6.74355634488165378570556640625">
        <ele>1297.4000244140625</ele>
        <time>2026-09-03T06:13:17.000Z</time>
        <extensions>
          <ns3:TrackPointExtension>
            <ns3:hr>132</ns3:hr>
            <ns3:cad>0</ns3:cad>
          </ns3:TrackPointExtension>
        </extensions>
      </trkpt>
      <trkpt lat="44.70971918664872646331787109375" lon="6.74354754388332366943359375">
        <ele>1297.5999755859375</ele>
        <time>2026-09-03T06:13:18.000Z</time>
        <extensions>
          <ns3:TrackPointExtension>
            <ns3:hr>132</ns3:hr>
            <ns3:cad>0</ns3:cad>
          </ns3:TrackPointExtension>
        </extensions>
      </trkpt>
      <trkpt lat="44.70971901901066303253173828125" lon="6.743536479771137237548828125">
        <ele>1297.800048828125</ele>
        <time>2026-09-03T06:13:19.000Z</time>
        <extensions>
          <ns3:TrackPointExtension>
            <ns3:hr>132</ns3:hr>
            <ns3:cad>0</ns3:cad>
          </ns3:TrackPointExtension>
        </extensions>
      </trkpt>
      <trkpt lat="44.709718935191631317138671875" lon="6.74353321082890033721923828125">
        <ele>1298</ele>
        <time>2026-09-03T06:13:20.000Z</time>
        <extensions>
          <ns3:TrackPointExtension>
            <ns3:hr>132</ns3:hr>
            <ns3:cad>0</ns3:cad>
          </ns3:TrackPointExtension>
        </extensions>
      </trkpt>
      <trkpt lat="44.7097184322774410247802734375" lon="6.7435225658118724822998046875">
        <ele>1298.199951171875</ele>
        <time>2026-09-03T06:13:21.000Z</time>
        <extensions>
          <ns3:TrackPointExtension>
            <ns3:hr>132</ns3:hr>
            <ns3:cad>0</ns3:cad>
          </ns3:TrackPointExtension>
        </extensions>
      </trkpt>
      <trkpt lat="44.70971868373453617095947265625" lon="6.74351493827998638153076171875">
        <ele>1298.4000244140625</ele>
        <time>2026-09-03T06:13:22.000Z</time>
        <extensions>
          <ns3:TrackPointExtension>
            <ns3:hr>131</ns3:hr>
            <ns3:cad>0</ns3:cad>
          </ns3:TrackPointExtension>
        </extensions>
      </trkpt>
      <trkpt lat="44.70972605980932712554931640625" lon="6.7435084842145442962646484375">
        <ele>1298.4000244140625</ele>
        <time>2026-09-03T06:13:23.000Z</time>
        <extensions>
          <ns3:TrackPointExtension>
            <ns3:hr>132</ns3:hr>
            <ns3:cad>0</ns3:cad>
          </ns3:TrackPointExtension>
        </extensions>
      </trkpt>
      <trkpt lat="44.7097308374941349029541015625" lon="6.743498928844928741455078125">
        <ele>1298.5999755859375</ele>
        <time>2026-09-03T06:13:24.000Z</time>
        <extensions>
          <ns3:TrackPointExtension>
            <ns3:hr>132</ns3:hr>
            <ns3:cad>0</ns3:cad>
          </ns3:TrackPointExtension>
        </extensions>
      </trkpt>
      <trkpt lat="44.709733687341213226318359375" lon="6.74349381588399410247802734375">
        <ele>1298.800048828125</ele>
        <time>2026-09-03T06:13:25.000Z</time>
        <extensions>
          <ns3:TrackPointExtension>
            <ns3:hr>131</ns3:hr>
            <ns3:cad>0</ns3:cad>
          </ns3:TrackPointExtension>
        </extensions>
      </trkpt>
      <trkpt lat="44.70973695628345012664794921875" lon="6.7434826679527759552001953125">
        <ele>1299</ele>
        <time>2026-09-03T06:13:26.000Z</time>
        <extensions>
          <ns3:TrackPointExtension>
            <ns3:hr>132</ns3:hr>
            <ns3:cad>0</ns3:cad>
          </ns3:TrackPointExtension>
        </extensions>
      </trkpt>
      <trkpt lat="44.70973670482635498046875" lon="6.743473447859287261962890625">
        <ele>1299.199951171875</ele>
        <time>2026-09-03T06:13:27.000Z</time>
        <extensions>
          <ns3:TrackPointExtension>
            <ns3:hr>131</ns3:hr>
            <ns3:cad>0</ns3:cad>
          </ns3:TrackPointExtension>
        </extensions>
      </trkpt>
      <trkpt lat="44.7097380459308624267578125" lon="6.7434565164148807525634765625">
        <ele>1299.4000244140625</ele>
        <time>2026-09-03T06:13:28.000Z</time>
        <extensions>
          <ns3:TrackPointExtension>
            <ns3:hr>131</ns3:hr>
            <ns3:cad>0</ns3:cad>
          </ns3:TrackPointExtension>
        </extensions>
      </trkpt>
      <trkpt lat="44.7097382135689258575439453125" lon="6.74344453029334545135498046875">
        <ele>1299.5999755859375</ele>
        <time>2026-09-03T06:13:29.000Z</time>
        <extensions>
          <ns3:TrackPointExtension>
            <ns3:hr>131</ns3:hr>
            <ns3:cad>0</ns3:cad>
          </ns3:TrackPointExtension>
        </extensions>
      </trkpt>
      <trkpt lat="44.7097353637218475341796875" lon="6.74342776648700237274169921875">
        <ele>1299.800048828125</ele>
        <time>2026-09-03T06:13:30.000Z</time>
        <extensions>
          <ns3:TrackPointExtension>
            <ns3:hr>132</ns3:hr>
            <ns3:cad>0</ns3:cad>
          </ns3:TrackPointExtension>
        </extensions>
      </trkpt>
      <trkpt lat="44.70973293296992778778076171875" lon="6.7434154450893402099609375">
        <ele>1300</ele>
        <time>2026-09-03T06:13:31.000Z</time>
        <extensions>
          <ns3:TrackPointExtension>
            <ns3:hr>131</ns3:hr>
            <ns3:cad>0</ns3:cad>
          </ns3:TrackPointExtension>
        </extensions>
      </trkpt>
      <trkpt lat="44.70972932875156402587890625" lon="6.74340530298650264739990234375">
        <ele>1300.199951171875</ele>
        <time>2026-09-03T06:13:32.000Z</time>
        <extensions>
          <ns3:TrackPointExtension>
            <ns3:hr>131</ns3:hr>
            <ns3:cad>0</ns3:cad>
          </ns3:TrackPointExtension>
        </extensions>
      </trkpt>
      <trkpt lat="44.70972932875156402587890625" lon="6.7433904670178890228271484375">
        <ele>1300.4000244140625</ele>
        <time>2026-09-03T06:13:33.000Z</time>
        <extensions>
          <ns3:TrackPointExtension>
            <ns3:hr>132</ns3:hr>
            <ns3:cad>0</ns3:cad>
          </ns3:TrackPointExtension>
        </extensions>
      </trkpt>
      <trkpt lat="44.7097299993038177490234375" lon="6.74337982200086116790771484375">
        <ele>1300.5999755859375</ele>
        <time>2026-09-03T06:13:34.000Z</time>
        <extensions>
          <ns3:TrackPointExtension>
            <ns3:hr>131</ns3:hr>
            <ns3:cad>0</ns3:cad>
          </ns3:TrackPointExtension>
        </extensions>
      </trkpt>
      <trkpt lat="44.7097315080463886260986328125" lon="6.74336624331772327423095703125">
        <ele>1300.800048828125</ele>
        <time>2026-09-03T06:13:35.000Z</time>
        <extensions>
          <ns3:TrackPointExtension>
            <ns3:hr>132</ns3:hr>
            <ns3:cad>0</ns3:cad>
          </ns3:TrackPointExtension>
        </extensions>
      </trkpt>
      <trkpt lat="44.70973192714154720306396484375" lon="6.74335702322423458099365234375">
        <ele>1301</ele>
        <time>2026-09-03T06:13:36.000Z</time>
        <extensions>
          <ns3:TrackPointExtension>
            <ns3:hr>132</ns3:hr>
            <ns3:cad>0</ns3:cad>
          </ns3:TrackPointExtension>
        </extensions>
      </trkpt>
      <trkpt lat="44.70972622744739055633544921875" lon="6.74333573319017887115478515625">
        <ele>1301</ele>
        <time>2026-09-03T06:13:37.000Z</time>
        <extensions>
          <ns3:TrackPointExtension>
            <ns3:hr>132</ns3:hr>
            <ns3:cad>0</ns3:cad>
          </ns3:TrackPointExtension>
        </extensions>
      </trkpt>
      <trkpt lat="44.70972471870481967926025390625" lon="6.743324585258960723876953125">
        <ele>1301.199951171875</ele>
        <time>2026-09-03T06:13:38.000Z</time>
        <extensions>
          <ns3:TrackPointExtension>
            <ns3:hr>131</ns3:hr>
            <ns3:cad>0</ns3:cad>
          </ns3:TrackPointExtension>
        </extensions>
      </trkpt>
      <trkpt lat="44.7097281552851200103759765625" lon="6.7433120124042034149169921875">
        <ele>1301.4000244140625</ele>
        <time>2026-09-03T06:13:39.000Z</time>
        <extensions>
          <ns3:TrackPointExtension>
            <ns3:hr>132</ns3:hr>
            <ns3:cad>0</ns3:cad>
          </ns3:TrackPointExtension>
        </extensions>
      </trkpt>
      <trkpt lat="44.70972388051450252532958984375" lon="6.74330614507198333740234375">
        <ele>1301.5999755859375</ele>
        <time>2026-09-03T06:13:40.000Z</time>
        <extensions>
          <ns3:TrackPointExtension>
            <ns3:hr>132</ns3:hr>
            <ns3:cad>0</ns3:cad>
          </ns3:TrackPointExtension>
        </extensions>
      </trkpt>
      <trkpt lat="44.7097194381058216094970703125" lon="6.743294410407543182373046875">
        <ele>1301.800048828125</ele>
        <time>2026-09-03T06:13:41.000Z</time>
        <extensions>
          <ns3:TrackPointExtension>
            <ns3:hr>131</ns3:hr>
            <ns3:cad>0</ns3:cad>
          </ns3:TrackPointExtension>
        </extensions>
      </trkpt>
      <trkpt lat="44.70971130765974521636962890625" lon="6.743291057646274566650390625">
        <ele>1302</ele>
        <time>2026-09-03T06:13:42.000Z</time>
        <extensions>
          <ns3:TrackPointExtension>
            <ns3:hr>131</ns3:hr>
            <ns3:cad>0</ns3:cad>
          </ns3:TrackPointExtension>
        </extensions>
      </trkpt>
      <trkpt lat="44.709708876907825469970703125" lon="6.74329466186463832855224609375">
        <ele>1302</ele>
        <time>2026-09-03T06:13:43.000Z</time>
        <extensions>
          <ns3:TrackPointExtension>
            <ns3:hr>132</ns3:hr>
            <ns3:cad>0</ns3:cad>
          </ns3:TrackPointExtension>
        </extensions>
      </trkpt>
      <trkpt lat="44.709704853594303131103515625" lon="6.74330740235745906829833984375">
        <ele>1302.199951171875</ele>
        <time>2026-09-03T06:13:44.000Z</time>
        <extensions>
          <ns3:TrackPointExtension>
            <ns3:hr>132</ns3:hr>
            <ns3:cad>0</ns3:cad>
          </ns3:TrackPointExtension>
        </extensions>
      </trkpt>
      <trkpt lat="44.7097020037472248077392578125" lon="6.74331662245094776153564453125">
        <ele>1302.4000244140625</ele>
        <time>2026-09-03T06:13:45.000Z</time>
        <extensions>
          <ns3:TrackPointExtension>
            <ns3:hr>131</ns3:hr>
            <ns3:cad>0</ns3:cad>
          </ns3:TrackPointExtension>
        </extensions>
      </trkpt>
      <trkpt lat="44.7096978127956390380859375" lon="6.74332886002957820892333984375">
        <ele>1302.5999755859375</ele>
        <time>2026-09-03T06:13:46.000Z</time>
        <extensions>
          <ns3:TrackPointExtension>
            <ns3:hr>131</ns3:hr>
            <ns3:cad>0</ns3:cad>
          </ns3:TrackPointExtension>
        </extensions>
      </trkpt>
      <trkpt lat="44.70969454385340213775634765625" lon="6.74334059469401836395263671875">
        <ele>1302.800048828125</ele>
        <time>2026-09-03T06:13:47.000Z</time>
        <extensions>
          <ns3:TrackPointExtension>
            <ns3:hr>131</ns3:hr>
            <ns3:cad>0</ns3:cad>
          </ns3:TrackPointExtension>
        </extensions>
      </trkpt>
      <trkpt lat="44.70969890244305133819580078125" lon="6.743349730968475341796875">
        <ele>1303</ele>
        <time>2026-09-03T06:13:48.000Z</time>
        <extensions>
          <ns3:TrackPointExtension>
            <ns3:hr>132</ns3:hr>
            <ns3:cad>0</ns3:cad>
          </ns3:TrackPointExtension>
        </extensions>
      </trkpt>
      <trkpt lat="44.70969655551016330718994140625" lon="6.7433626390993595123291015625">
        <ele>1303.199951171875</ele>
        <time>2026-09-03T06:13:49.000Z</time>
        <extensions>
          <ns3:TrackPointExtension>
            <ns3:hr>131</ns3:hr>
            <ns3:cad>0</ns3:cad>
          </ns3:TrackPointExtension>
        </extensions>
      </trkpt>
      <trkpt lat="44.70969806425273418426513671875" lon="6.7433649860322475433349609375">
        <ele>1303.4000244140625</ele>
        <time>2026-09-03T06:13:50.000Z</time>
        <extensions>
          <ns3:TrackPointExtension>
            <ns3:hr>131</ns3:hr>
            <ns3:cad>0</ns3:cad>
          </ns3:TrackPointExtension>
        </extensions>
      </trkpt>
      <trkpt lat="44.7096916101872920989990234375" lon="6.74337579868733882904052734375">
        <ele>1303.5999755859375</ele>
        <time>2026-09-03T06:13:51.000Z</time>
        <extensions>
          <ns3:TrackPointExtension>
            <ns3:hr>131</ns3:hr>
            <ns3:cad>0</ns3:cad>
          </ns3:TrackPointExtension>
        </extensions>
      </trkpt>
      <trkpt lat="44.7096909396350383758544921875" lon="6.74338485114276409149169921875">
        <ele>1303.800048828125</ele>
        <time>2026-09-03T06:13:52.000Z</time>
        <extensions>
          <ns3:TrackPointExtension>
            <ns3:hr>131</ns3:hr>
            <ns3:cad>0</ns3:cad>
          </ns3:TrackPointExtension>
        </extensions>
      </trkpt>
      <trkpt lat="44.7096845693886280059814453125" lon="6.74340597353875637054443359375">
        <ele>1303.800048828125</ele>
        <time>2026-09-03T06:13:53.000Z</time>
        <extensions>
          <ns3:TrackPointExtension>
            <ns3:hr>131</ns3:hr>
            <ns3:cad>0</ns3:cad>
          </ns3:TrackPointExtension>
        </extensions>
      </trkpt>
      <trkpt lat="44.70967945642769336700439453125" lon="6.74341536127030849456787109375">
        <ele>1304</ele>
        <time>2026-09-03T06:13:54.000Z</time>
        <extensions>
          <ns3:TrackPointExtension>
            <ns3:hr>132</ns3:hr>
            <ns3:cad>0</ns3:cad>
          </ns3:TrackPointExtension>
        </extensions>
      </trkpt>
      <trkpt lat="44.7096768580377101898193359375" lon="6.74342843703925609588623046875">
        <ele>1304.199951171875</ele>
        <time>2026-09-03T06:13:55.000Z</time>
        <extensions>
          <ns3:TrackPointExtension>
            <ns3:hr>132</ns3:hr>
            <ns3:cad>0</ns3:cad>
          </ns3:TrackPointExtension>
        </extensions>
      </trkpt>
      <trkpt lat="44.70967409200966358184814453125" lon="6.74343681894242763519287109375">
        <ele>1304.4000244140625</ele>
        <time>2026-09-03T06:13:56.000Z</time>
        <extensions>
          <ns3:TrackPointExtension>
            <ns3:hr>132</ns3:hr>
            <ns3:cad>0</ns3:cad>
          </ns3:TrackPointExtension>
        </extensions>
      </trkpt>
      <trkpt lat="44.709670655429363250732421875" lon="6.74345098435878753662109375">
        <ele>1304.4000244140625</ele>
        <time>2026-09-03T06:13:57.000Z</time>
        <extensions>
          <ns3:TrackPointExtension>
            <ns3:hr>132</ns3:hr>
            <ns3:cad>0</ns3:cad>
          </ns3:TrackPointExtension>
        </extensions>
      </trkpt>
      <trkpt lat="44.70966503955423831939697265625" lon="6.74346297048032283782958984375">
        <ele>1304.5999755859375</ele>
        <time>2026-09-03T06:13:58.000Z</time>
        <extensions>
          <ns3:TrackPointExtension>
            <ns3:hr>131</ns3:hr>
            <ns3:cad>0</ns3:cad>
          </ns3:TrackPointExtension>
        </extensions>
      </trkpt>
      <trkpt lat="44.70966319553554058074951171875" lon="6.7434719391167163848876953125">
        <ele>1304.800048828125</ele>
        <time>2026-09-03T06:13:59.000Z</time>
        <extensions>
          <ns3:TrackPointExtension>
            <ns3:hr>131</ns3:hr>
            <ns3:cad>0</ns3:cad>
          </ns3:TrackPointExtension>
        </extensions>
      </trkpt>
      <trkpt lat="44.70965690910816192626953125" lon="6.74347721971571445465087890625">
        <ele>1305</ele>
        <time>2026-09-03T06:14:00.000Z</time>
        <extensions>
          <ns3:TrackPointExtension>
            <ns3:hr>130</ns3:hr>
            <ns3:cad>0</ns3:cad>
          </ns3:TrackPointExtension>
        </extensions>
      </trkpt>
      <trkpt lat="44.7096483595669269561767578125" lon="6.7434816621243953704833984375">
        <ele>1305.199951171875</ele>
        <time>2026-09-03T06:14:01.000Z</time>
        <extensions>
          <ns3:TrackPointExtension>
            <ns3:hr>129</ns3:hr>
            <ns3:cad>0</ns3:cad>
          </ns3:TrackPointExtension>
        </extensions>
      </trkpt>
      <trkpt lat="44.7096282429993152618408203125" lon="6.74350068904459476470947265625">
        <ele>1305.4000244140625</ele>
        <time>2026-09-03T06:14:02.000Z</time>
        <extensions>
          <ns3:TrackPointExtension>
            <ns3:hr>128</ns3:hr>
            <ns3:cad>0</ns3:cad>
          </ns3:TrackPointExtension>
        </extensions>
      </trkpt>
      <trkpt lat="44.70961608923971652984619140625" lon="6.7435104958713054656982421875">
        <ele>1305.5999755859375</ele>
        <time>2026-09-03T06:14:03.000Z</time>
        <extensions>
          <ns3:TrackPointExtension>
            <ns3:hr>128</ns3:hr>
            <ns3:cad>0</ns3:cad>
          </ns3:TrackPointExtension>
        </extensions>
      </trkpt>
      <trkpt lat="44.709605611860752105712890625" lon="6.7435198836028575897216796875">
        <ele>1305.800048828125</ele>
        <time>2026-09-03T06:14:04.000Z</time>
        <extensions>
          <ns3:TrackPointExtension>
            <ns3:hr>128</ns3:hr>
            <ns3:cad>0</ns3:cad>
          </ns3:TrackPointExtension>
        </extensions>
      </trkpt>
      <trkpt lat="44.709593541920185089111328125" lon="6.743529103696346282958984375">
        <ele>1306.199951171875</ele>
        <time>2026-09-03T06:14:05.000Z</time>
        <extensions>
          <ns3:TrackPointExtension>
            <ns3:hr>128</ns3:hr>
            <ns3:cad>0</ns3:cad>
          </ns3:TrackPointExtension>
        </extensions>
      </trkpt>
      <trkpt lat="44.70958977006375789642333984375" lon="6.74353019334375858306884765625">
        <ele>1306.4000244140625</ele>
        <time>2026-09-03T06:14:06.000Z</time>
        <extensions>
          <ns3:TrackPointExtension>
            <ns3:hr>128</ns3:hr>
            <ns3:cad>0</ns3:cad>
          </ns3:TrackPointExtension>
        </extensions>
      </trkpt>
      <trkpt lat="44.70958356745541095733642578125" lon="6.74353974871337413787841796875">
        <ele>1306.4000244140625</ele>
        <time>2026-09-03T06:14:07.000Z</time>
        <extensions>
          <ns3:TrackPointExtension>
            <ns3:hr>129</ns3:hr>
            <ns3:cad>0</ns3:cad>
          </ns3:TrackPointExtension>
        </extensions>
      </trkpt>
      <trkpt lat="44.70958356745541095733642578125" lon="6.74354511313140392303466796875">
        <ele>1306.5999755859375</ele>
        <time>2026-09-03T06:14:08.000Z</time>
        <extensions>
          <ns3:TrackPointExtension>
            <ns3:hr>128</ns3:hr>
            <ns3:cad>0</ns3:cad>
          </ns3:TrackPointExtension>
        </extensions>
      </trkpt>
      <trkpt lat="44.70957577228546142578125" lon="6.74355668015778064727783203125">
        <ele>1306.800048828125</ele>
        <time>2026-09-03T06:14:09.000Z</time>
        <extensions>
          <ns3:TrackPointExtension>
            <ns3:hr>128</ns3:hr>
            <ns3:cad>0</ns3:cad>
          </ns3:TrackPointExtension>
        </extensions>
      </trkpt>
      <trkpt lat="44.709573425352573394775390625" lon="6.74356271512806415557861328125">
        <ele>1307</ele>
        <time>2026-09-03T06:14:10.000Z</time>
        <extensions>
          <ns3:TrackPointExtension>
            <ns3:hr>128</ns3:hr>
            <ns3:cad>0</ns3:cad>
          </ns3:TrackPointExtension>
        </extensions>
      </trkpt>
      <trkpt lat="44.709565378725528717041015625" lon="6.74357662908732891082763671875">
        <ele>1307.199951171875</ele>
        <time>2026-09-03T06:14:11.000Z</time>
        <extensions>
          <ns3:TrackPointExtension>
            <ns3:hr>128</ns3:hr>
            <ns3:cad>0</ns3:cad>
          </ns3:TrackPointExtension>
        </extensions>
      </trkpt>
      <trkpt lat="44.70955858938395977020263671875" lon="6.743584759533405303955078125">
        <ele>1307.5999755859375</ele>
        <time>2026-09-03T06:14:12.000Z</time>
        <extensions>
          <ns3:TrackPointExtension>
            <ns3:hr>128</ns3:hr>
            <ns3:cad>0</ns3:cad>
          </ns3:TrackPointExtension>
        </extensions>
      </trkpt>
      <trkpt lat="44.709549285471439361572265625" lon="6.74360445700585842132568359375">
        <ele>1307.800048828125</ele>
        <time>2026-09-03T06:14:13.000Z</time>
        <extensions>
          <ns3:TrackPointExtension>
            <ns3:hr>129</ns3:hr>
            <ns3:cad>0</ns3:cad>
          </ns3:TrackPointExtension>
        </extensions>
      </trkpt>
      <trkpt lat="44.7095464356243610382080078125" lon="6.74361568875610828399658203125">
        <ele>1308</ele>
        <time>2026-09-03T06:14:14.000Z</time>
        <extensions>
          <ns3:TrackPointExtension>
            <ns3:hr>129</ns3:hr>
            <ns3:cad>0</ns3:cad>
          </ns3:TrackPointExtension>
        </extensions>
      </trkpt>
      <trkpt lat="44.709547944366931915283203125" lon="6.7436221428215503692626953125">
        <ele>1308.199951171875</ele>
        <time>2026-09-03T06:14:15.000Z</time>
        <extensions>
          <ns3:TrackPointExtension>
            <ns3:hr>129</ns3:hr>
            <ns3:cad>0</ns3:cad>
          </ns3:TrackPointExtension>
        </extensions>
      </trkpt>
      <trkpt lat="44.70954199321568012237548828125" lon="6.74363362602889537811279296875">
        <ele>1308.4000244140625</ele>
        <time>2026-09-03T06:14:16.000Z</time>
        <extensions>
          <ns3:TrackPointExtension>
            <ns3:hr>130</ns3:hr>
            <ns3:cad>0</ns3:cad>
          </ns3:TrackPointExtension>
        </extensions>
      </trkpt>
      <trkpt lat="44.70954182557761669158935546875" lon="6.74363831989467144012451171875">
        <ele>1308.5999755859375</ele>
        <time>2026-09-03T06:14:17.000Z</time>
        <extensions>
          <ns3:TrackPointExtension>
            <ns3:hr>130</ns3:hr>
            <ns3:cad>0</ns3:cad>
          </ns3:TrackPointExtension>
        </extensions>
      </trkpt>
      <trkpt lat="44.70953796990215778350830078125" lon="6.743652485311031341552734375">
        <ele>1308.800048828125</ele>
        <time>2026-09-03T06:14:18.000Z</time>
        <extensions>
          <ns3:TrackPointExtension>
            <ns3:hr>130</ns3:hr>
            <ns3:cad>0</ns3:cad>
          </ns3:TrackPointExtension>
        </extensions>
      </trkpt>
      <trkpt lat="44.70953813754022121429443359375" lon="6.743657849729061126708984375">
        <ele>1308.800048828125</ele>
        <time>2026-09-03T06:14:19.000Z</time>
        <extensions>
          <ns3:TrackPointExtension>
            <ns3:hr>131</ns3:hr>
            <ns3:cad>0</ns3:cad>
          </ns3:TrackPointExtension>
        </extensions>
      </trkpt>
      <trkpt lat="44.70953729934990406036376953125" lon="6.7436717636883258819580078125">
        <ele>1309</ele>
        <time>2026-09-03T06:14:20.000Z</time>
        <extensions>
          <ns3:TrackPointExtension>
            <ns3:hr>131</ns3:hr>
            <ns3:cad>0</ns3:cad>
          </ns3:TrackPointExtension>
        </extensions>
      </trkpt>
      <trkpt lat="44.709535874426364898681640625" lon="6.74368567764759063720703125">
        <ele>1309.199951171875</ele>
        <time>2026-09-03T06:14:21.000Z</time>
        <extensions>
          <ns3:TrackPointExtension>
            <ns3:hr>132</ns3:hr>
            <ns3:cad>0</ns3:cad>
          </ns3:TrackPointExtension>
        </extensions>
      </trkpt>
      <trkpt lat="44.70954182557761669158935546875" lon="6.7437078058719635009765625">
        <ele>1309.4000244140625</ele>
        <time>2026-09-03T06:14:22.000Z</time>
        <extensions>
          <ns3:TrackPointExtension>
            <ns3:hr>133</ns3:hr>
            <ns3:cad>0</ns3:cad>
          </ns3:TrackPointExtension>
        </extensions>
      </trkpt>
      <trkpt lat="44.70954216085374355316162109375" lon="6.74372113309800624847412109375">
        <ele>1309.4000244140625</ele>
        <time>2026-09-03T06:14:23.000Z</time>
        <extensions>
          <ns3:TrackPointExtension>
            <ns3:hr>133</ns3:hr>
            <ns3:cad>0</ns3:cad>
          </ns3:TrackPointExtension>
        </extensions>
      </trkpt>
      <trkpt lat="44.7095484472811222076416015625" lon="6.743747703731060028076171875">
        <ele>1309.5999755859375</ele>
        <time>2026-09-03T06:14:24.000Z</time>
        <extensions>
          <ns3:TrackPointExtension>
            <ns3:hr>134</ns3:hr>
            <ns3:cad>0</ns3:cad>
          </ns3:TrackPointExtension>
        </extensions>
      </trkpt>
      <trkpt lat="44.70955121330916881561279296875" lon="6.74376572482287883758544921875">
        <ele>1309.800048828125</ele>
        <time>2026-09-03T06:14:25.000Z</time>
        <extensions>
          <ns3:TrackPointExtension>
            <ns3:hr>135</ns3:hr>
            <ns3:cad>0</ns3:cad>
          </ns3:TrackPointExtension>
        </extensions>
      </trkpt>
      <trkpt lat="44.7095574997365474700927734375" lon="6.74378081224858760833740234375">
        <ele>1310</ele>
        <time>2026-09-03T06:14:26.000Z</time>
        <extensions>
          <ns3:TrackPointExtension>
            <ns3:hr>135</ns3:hr>
            <ns3:cad>0</ns3:cad>
          </ns3:TrackPointExtension>
        </extensions>
      </trkpt>
      <trkpt lat="44.70956043340265750885009765625" lon="6.74379606731235980987548828125">
        <ele>1310.199951171875</ele>
        <time>2026-09-03T06:14:27.000Z</time>
        <extensions>
          <ns3:TrackPointExtension>
            <ns3:hr>136</ns3:hr>
            <ns3:cad>0</ns3:cad>
          </ns3:TrackPointExtension>
        </extensions>
      </trkpt>
      <trkpt lat="44.70955875702202320098876953125" lon="6.7438028566539287567138671875">
        <ele>1310.199951171875</ele>
        <time>2026-09-03T06:14:28.000Z</time>
        <extensions>
          <ns3:TrackPointExtension>
            <ns3:hr>136</ns3:hr>
            <ns3:cad>0</ns3:cad>
          </ns3:TrackPointExtension>
        </extensions>
      </trkpt>
      <trkpt lat="44.709553979337215423583984375" lon="6.743821464478969573974609375">
        <ele>1310.4000244140625</ele>
        <time>2026-09-03T06:14:29.000Z</time>
        <extensions>
          <ns3:TrackPointExtension>
            <ns3:hr>137</ns3:hr>
            <ns3:cad>0</ns3:cad>
          </ns3:TrackPointExtension>
        </extensions>
      </trkpt>
      <trkpt lat="44.70955071039497852325439453125" lon="6.74382942728698253631591796875">
        <ele>1310.5999755859375</ele>
        <time>2026-09-03T06:14:30.000Z</time>
        <extensions>
          <ns3:TrackPointExtension>
            <ns3:hr>137</ns3:hr>
            <ns3:cad>0</ns3:cad>
          </ns3:TrackPointExtension>
        </extensions>
      </trkpt>
      <trkpt lat="44.7095471061766147613525390625" lon="6.74384602345526218414306640625">
        <ele>1310.800048828125</ele>
        <time>2026-09-03T06:14:31.000Z</time>
        <extensions>
          <ns3:TrackPointExtension>
            <ns3:hr>137</ns3:hr>
            <ns3:cad>0</ns3:cad>
          </ns3:TrackPointExtension>
        </extensions>
      </trkpt>
      <trkpt lat="44.70954853110015392303466796875" lon="6.743857003748416900634765625">
        <ele>1311.199951171875</ele>
        <time>2026-09-03T06:14:32.000Z</time>
        <extensions>
          <ns3:TrackPointExtension>
            <ns3:hr>137</ns3:hr>
            <ns3:cad>41</ns3:cad>
          </ns3:TrackPointExtension>
        </extensions>
      </trkpt>
      <trkpt lat="44.70954936929047107696533203125" lon="6.7438652180135250091552734375">
        <ele>1311.4000244140625</ele>
        <time>2026-09-03T06:14:33.000Z</time>
        <extensions>
          <ns3:TrackPointExtension>
            <ns3:hr>137</ns3:hr>
            <ns3:cad>79</ns3:cad>
          </ns3:TrackPointExtension>
        </extensions>
      </trkpt>
      <trkpt lat="44.709546267986297607421875" lon="6.74388357438147068023681640625">
        <ele>1311.5999755859375</ele>
        <time>2026-09-03T06:14:34.000Z</time>
        <extensions>
          <ns3:TrackPointExtension>
            <ns3:hr>136</ns3:hr>
            <ns3:cad>79</ns3:cad>
          </ns3:TrackPointExtension>
        </extensions>
      </trkpt>
      <trkpt lat="44.70954517833888530731201171875" lon="6.743895225226879119873046875">
        <ele>1311.5999755859375</ele>
        <time>2026-09-03T06:14:35.000Z</time>
        <extensions>
          <ns3:TrackPointExtension>
            <ns3:hr>136</ns3:hr>
            <ns3:cad>79</ns3:cad>
          </ns3:TrackPointExtension>
        </extensions>
      </trkpt>
      <trkpt lat="44.70954903401434421539306640625" lon="6.74391475506126880645751953125">
        <ele>1311.800048828125</ele>
        <time>2026-09-03T06:14:36.000Z</time>
        <extensions>
          <ns3:TrackPointExtension>
            <ns3:hr>136</ns3:hr>
            <ns3:cad>79</ns3:cad>
          </ns3:TrackPointExtension>
        </extensions>
      </trkpt>
      <trkpt lat="44.709552638232707977294921875" lon="6.74391844309866428375244140625">
        <ele>1312</ele>
        <time>2026-09-03T06:14:37.000Z</time>
        <extensions>
          <ns3:TrackPointExtension>
            <ns3:hr>135</ns3:hr>
            <ns3:cad>79</ns3:cad>
          </ns3:TrackPointExtension>
        </extensions>
      </trkpt>
      <trkpt lat="44.709551967680454254150390625" lon="6.7439393140375614166259765625">
        <ele>1312.199951171875</ele>
        <time>2026-09-03T06:14:38.000Z</time>
        <extensions>
          <ns3:TrackPointExtension>
            <ns3:hr>135</ns3:hr>
            <ns3:cad>79</ns3:cad>
          </ns3:TrackPointExtension>
        </extensions>
      </trkpt>
      <trkpt lat="44.7095514647662639617919921875" lon="6.74395012669265270233154296875">
        <ele>1312.4000244140625</ele>
        <time>2026-09-03T06:14:39.000Z</time>
        <extensions>
          <ns3:TrackPointExtension>
            <ns3:hr>134</ns3:hr>
            <ns3:cad>79</ns3:cad>
          </ns3:TrackPointExtension>
        </extensions>
      </trkpt>
      <trkpt lat="44.7095457650721073150634765625" lon="6.74395934678614139556884765625">
        <ele>1312.5999755859375</ele>
        <time>2026-09-03T06:14:40.000Z</time>
        <extensions>
          <ns3:TrackPointExtension>
            <ns3:hr>134</ns3:hr>
            <ns3:cad>79</ns3:cad>
          </ns3:TrackPointExtension>
        </extensions>
      </trkpt>
      <trkpt lat="44.70954350195825099945068359375" lon="6.74397158436477184295654296875">
        <ele>1312.5999755859375</ele>
        <time>2026-09-03T06:14:41.000Z</time>
        <extensions>
          <ns3:TrackPointExtension>
            <ns3:hr>134</ns3:hr>
            <ns3:cad>0</ns3:cad>
          </ns3:TrackPointExtension>
        </extensions>
      </trkpt>
      <trkpt lat="44.709538556635379791259765625" lon="6.74399136565625667572021484375">
        <ele>1312.800048828125</ele>
        <time>2026-09-03T06:14:42.000Z</time>
        <extensions>
          <ns3:TrackPointExtension>
            <ns3:hr>133</ns3:hr>
            <ns3:cad>0</ns3:cad>
          </ns3:TrackPointExtension>
        </extensions>
      </trkpt>
      <trkpt lat="44.709534533321857452392578125" lon="6.7440050281584262847900390625">
        <ele>1313</ele>
        <time>2026-09-03T06:14:43.000Z</time>
        <extensions>
          <ns3:TrackPointExtension>
            <ns3:hr>133</ns3:hr>
            <ns3:cad>0</ns3:cad>
          </ns3:TrackPointExtension>
        </extensions>
      </trkpt>
      <trkpt lat="44.7095333598554134368896484375" lon="6.74401869066059589385986328125">
        <ele>1313.199951171875</ele>
        <time>2026-09-03T06:14:44.000Z</time>
        <extensions>
          <ns3:TrackPointExtension>
            <ns3:hr>133</ns3:hr>
            <ns3:cad>0</ns3:cad>
          </ns3:TrackPointExtension>
        </extensions>
      </trkpt>
      <trkpt lat="44.70953620970249176025390625" lon="6.74403034150600433349609375">
        <ele>1313.4000244140625</ele>
        <time>2026-09-03T06:14:45.000Z</time>
        <extensions>
          <ns3:TrackPointExtension>
            <ns3:hr>133</ns3:hr>
            <ns3:cad>0</ns3:cad>
          </ns3:TrackPointExtension>
        </extensions>
      </trkpt>
      <trkpt lat="44.709537215530872344970703125" lon="6.7440388910472393035888671875">
        <ele>1313.5999755859375</ele>
        <time>2026-09-03T06:14:46.000Z</time>
        <extensions>
          <ns3:TrackPointExtension>
            <ns3:hr>133</ns3:hr>
            <ns3:cad>0</ns3:cad>
          </ns3:TrackPointExtension>
        </extensions>
      </trkpt>
      <trkpt lat="44.709537215530872344970703125" lon="6.7440484464168548583984375">
        <ele>1313.800048828125</ele>
        <time>2026-09-03T06:14:47.000Z</time>
        <extensions>
          <ns3:TrackPointExtension>
            <ns3:hr>133</ns3:hr>
            <ns3:cad>0</ns3:cad>
          </ns3:TrackPointExtension>
        </extensions>
      </trkpt>
      <trkpt lat="44.7095357067883014678955078125" lon="6.74405976198613643646240234375">
        <ele>1314</ele>
        <time>2026-09-03T06:14:48.000Z</time>
        <extensions>
          <ns3:TrackPointExtension>
            <ns3:hr>132</ns3:hr>
            <ns3:cad>0</ns3:cad>
          </ns3:TrackPointExtension>
        </extensions>
      </trkpt>
      <trkpt lat="44.70953277312219142913818359375" lon="6.744068227708339691162109375">
        <ele>1314.199951171875</ele>
        <time>2026-09-03T06:14:49.000Z</time>
        <extensions>
          <ns3:TrackPointExtension>
            <ns3:hr>132</ns3:hr>
            <ns3:cad>0</ns3:cad>
          </ns3:TrackPointExtension>
        </extensions>
      </trkpt>
      <trkpt lat="44.70952816307544708251953125" lon="6.74408591352403163909912109375">
        <ele>1314.5999755859375</ele>
        <time>2026-09-03T06:14:50.000Z</time>
        <extensions>
          <ns3:TrackPointExtension>
            <ns3:hr>132</ns3:hr>
            <ns3:cad>0</ns3:cad>
          </ns3:TrackPointExtension>
        </extensions>
      </trkpt>
      <trkpt lat="44.7095256485044956207275390625" lon="6.744099743664264678955078125">
        <ele>1314.800048828125</ele>
        <time>2026-09-03T06:14:51.000Z</time>
        <extensions>
          <ns3:TrackPointExtension>
            <ns3:hr>132</ns3:hr>
            <ns3:cad>0</ns3:cad>
          </ns3:TrackPointExtension>
        </extensions>
      </trkpt>
      <trkpt lat="44.709523804485797882080078125" lon="6.74411558546125888824462890625">
        <ele>1315</ele>
        <time>2026-09-03T06:14:52.000Z</time>
        <extensions>
          <ns3:TrackPointExtension>
            <ns3:hr>132</ns3:hr>
            <ns3:cad>0</ns3:cad>
          </ns3:TrackPointExtension>
        </extensions>
      </trkpt>
      <trkpt lat="44.7095253132283687591552734375" lon="6.74412715248763561248779296875">
        <ele>1315.199951171875</ele>
        <time>2026-09-03T06:14:53.000Z</time>
        <extensions>
          <ns3:TrackPointExtension>
            <ns3:hr>132</ns3:hr>
            <ns3:cad>0</ns3:cad>
          </ns3:TrackPointExtension>
        </extensions>
      </trkpt>
      <trkpt lat="44.7095192782580852508544921875" lon="6.74413871951401233673095703125">
        <ele>1315.4000244140625</ele>
        <time>2026-09-03T06:14:54.000Z</time>
        <extensions>
          <ns3:TrackPointExtension>
            <ns3:hr>132</ns3:hr>
            <ns3:cad>0</ns3:cad>
          </ns3:TrackPointExtension>
        </extensions>
      </trkpt>
      <trkpt lat="44.70952145755290985107421875" lon="6.74415045417845249176025390625">
        <ele>1315.800048828125</ele>
        <time>2026-09-03T06:14:55.000Z</time>
        <extensions>
          <ns3:TrackPointExtension>
            <ns3:hr>132</ns3:hr>
            <ns3:cad>0</ns3:cad>
          </ns3:TrackPointExtension>
        </extensions>
      </trkpt>
      <trkpt lat="44.7095222957432270050048828125" lon="6.74416185356676578521728515625">
        <ele>1316</ele>
        <time>2026-09-03T06:14:56.000Z</time>
        <extensions>
          <ns3:TrackPointExtension>
            <ns3:hr>132</ns3:hr>
            <ns3:cad>0</ns3:cad>
          </ns3:TrackPointExtension>
        </extensions>
      </trkpt>
      <trkpt lat="44.70952053554356098175048828125" lon="6.744172163307666778564453125">
        <ele>1316.199951171875</ele>
        <time>2026-09-03T06:14:57.000Z</time>
        <extensions>
          <ns3:TrackPointExtension>
            <ns3:hr>131</ns3:hr>
            <ns3:cad>0</ns3:cad>
          </ns3:TrackPointExtension>
        </extensions>
      </trkpt>
      <trkpt lat="44.7095179371535778045654296875" lon="6.74418414942920207977294921875">
        <ele>1316.4000244140625</ele>
        <time>2026-09-03T06:14:58.000Z</time>
        <extensions>
          <ns3:TrackPointExtension>
            <ns3:hr>132</ns3:hr>
            <ns3:cad>0</ns3:cad>
          </ns3:TrackPointExtension>
        </extensions>
      </trkpt>
      <trkpt lat="44.709514081478118896484375" lon="6.74420091323554515838623046875">
        <ele>1316.5999755859375</ele>
        <time>2026-09-03T06:14:59.000Z</time>
        <extensions>
          <ns3:TrackPointExtension>
            <ns3:hr>132</ns3:hr>
            <ns3:cad>0</ns3:cad>
          </ns3:TrackPointExtension>
        </extensions>
      </trkpt>
      <trkpt lat="44.7095105610787868499755859375" lon="6.74421549774706363677978515625">
        <ele>1316.5999755859375</ele>
        <time>2026-09-03T06:15:00.000Z</time>
        <extensions>
          <ns3:TrackPointExtension>
            <ns3:hr>131</ns3:hr>
            <ns3:cad>0</ns3:cad>
          </ns3:TrackPointExtension>
        </extensions>
      </trkpt>
      <trkpt lat="44.7095045261085033416748046875" lon="6.74422790296375751495361328125">
        <ele>1316.800048828125</ele>
        <time>2026-09-03T06:15:01.000Z</time>
        <extensions>
          <ns3:TrackPointExtension>
            <ns3:hr>132</ns3:hr>
            <ns3:cad>51</ns3:cad>
          </ns3:TrackPointExtension>
        </extensions>
      </trkpt>
      <trkpt lat="44.70950108952820301055908203125" lon="6.74424089491367340087890625">
        <ele>1317</ele>
        <time>2026-09-03T06:15:02.000Z</time>
        <extensions>
          <ns3:TrackPointExtension>
            <ns3:hr>132</ns3:hr>
            <ns3:cad>51</ns3:cad>
          </ns3:TrackPointExtension>
        </extensions>
      </trkpt>
      <trkpt lat="44.7094981558620929718017578125" lon="6.744247265160083770751953125">
        <ele>1317</ele>
        <time>2026-09-03T06:15:03.000Z</time>
        <extensions>
          <ns3:TrackPointExtension>
            <ns3:hr>132</ns3:hr>
            <ns3:cad>51</ns3:cad>
          </ns3:TrackPointExtension>
        </extensions>
      </trkpt>
      <trkpt lat="44.70949455164372920989990234375" lon="6.74425891600549221038818359375">
        <ele>1317.199951171875</ele>
        <time>2026-09-03T06:15:04.000Z</time>
        <extensions>
          <ns3:TrackPointExtension>
            <ns3:hr>133</ns3:hr>
            <ns3:cad>51</ns3:cad>
          </ns3:TrackPointExtension>
        </extensions>
      </trkpt>
      <trkpt lat="44.70949153415858745574951171875" lon="6.74426981247961521148681640625">
        <ele>1317.4000244140625</ele>
        <time>2026-09-03T06:15:05.000Z</time>
        <extensions>
          <ns3:TrackPointExtension>
            <ns3:hr>133</ns3:hr>
            <ns3:cad>51</ns3:cad>
          </ns3:TrackPointExtension>
        </extensions>
      </trkpt>
      <trkpt lat="44.709487259387969970703125" lon="6.74428372643887996673583984375">
        <ele>1317.5999755859375</ele>
        <time>2026-09-03T06:15:06.000Z</time>
        <extensions>
          <ns3:TrackPointExtension>
            <ns3:hr>133</ns3:hr>
            <ns3:cad>51</ns3:cad>
          </ns3:TrackPointExtension>
        </extensions>
      </trkpt>
      <trkpt lat="44.70948415808379650115966796875" lon="6.7443000711500644683837890625">
        <ele>1317.800048828125</ele>
        <time>2026-09-03T06:15:07.000Z</time>
        <extensions>
          <ns3:TrackPointExtension>
            <ns3:hr>133</ns3:hr>
            <ns3:cad>51</ns3:cad>
          </ns3:TrackPointExtension>
        </extensions>
      </trkpt>
      <trkpt lat="44.7094827331602573394775390625" lon="6.74431859515607357025146484375">
        <ele>1317.800048828125</ele>
        <time>2026-09-03T06:15:08.000Z</time>
        <extensions>
          <ns3:TrackPointExtension>
            <ns3:hr>132</ns3:hr>
            <ns3:cad>51</ns3:cad>
          </ns3:TrackPointExtension>
        </extensions>
      </trkpt>
      <trkpt lat="44.70948013477027416229248046875" lon="6.744336448609828948974609375">
        <ele>1318</ele>
        <time>2026-09-03T06:15:09.000Z</time>
        <extensions>
          <ns3:TrackPointExtension>
            <ns3:hr>132</ns3:hr>
            <ns3:cad>52</ns3:cad>
          </ns3:TrackPointExtension>
        </extensions>
      </trkpt>
      <trkpt lat="44.70947745256125926971435546875" lon="6.74434826709330081939697265625">
        <ele>1318</ele>
        <time>2026-09-03T06:15:10.000Z</time>
        <extensions>
          <ns3:TrackPointExtension>
            <ns3:hr>132</ns3:hr>
            <ns3:cad>52</ns3:cad>
          </ns3:TrackPointExtension>
        </extensions>
      </trkpt>
      <trkpt lat="44.7094753570854663848876953125" lon="6.74436218105256557464599609375">
        <ele>1318.199951171875</ele>
        <time>2026-09-03T06:15:11.000Z</time>
        <extensions>
          <ns3:TrackPointExtension>
            <ns3:hr>132</ns3:hr>
            <ns3:cad>52</ns3:cad>
          </ns3:TrackPointExtension>
        </extensions>
      </trkpt>
      <trkpt lat="44.70947661437094211578369140625" lon="6.74437793903052806854248046875">
        <ele>1318.199951171875</ele>
        <time>2026-09-03T06:15:12.000Z</time>
        <extensions>
          <ns3:TrackPointExtension>
            <ns3:hr>131</ns3:hr>
            <ns3:cad>52</ns3:cad>
          </ns3:TrackPointExtension>
        </extensions>
      </trkpt>
      <trkpt lat="44.70947929657995700836181640625" lon="6.74438984133303165435791015625">
        <ele>1318.4000244140625</ele>
        <time>2026-09-03T06:15:13.000Z</time>
        <extensions>
          <ns3:TrackPointExtension>
            <ns3:hr>131</ns3:hr>
            <ns3:cad>52</ns3:cad>
          </ns3:TrackPointExtension>
        </extensions>
      </trkpt>
      <trkpt lat="44.70948047004640102386474609375" lon="6.74440325237810611724853515625">
        <ele>1318.5999755859375</ele>
        <time>2026-09-03T06:15:14.000Z</time>
        <extensions>
          <ns3:TrackPointExtension>
            <ns3:hr>131</ns3:hr>
            <ns3:cad>52</ns3:cad>
          </ns3:TrackPointExtension>
        </extensions>
      </trkpt>
      <trkpt lat="44.7094810567796230316162109375" lon="6.7444180883467197418212890625">
        <ele>1318.800048828125</ele>
        <time>2026-09-03T06:15:15.000Z</time>
        <extensions>
          <ns3:TrackPointExtension>
            <ns3:hr>131</ns3:hr>
            <ns3:cad>52</ns3:cad>
          </ns3:TrackPointExtension>
        </extensions>
      </trkpt>
      <trkpt lat="44.7094810567796230316162109375" lon="6.7444291524589061737060546875">
        <ele>1319</ele>
        <time>2026-09-03T06:15:16.000Z</time>
        <extensions>
          <ns3:TrackPointExtension>
            <ns3:hr>131</ns3:hr>
            <ns3:cad>52</ns3:cad>
          </ns3:TrackPointExtension>
        </extensions>
      </trkpt>
      <trkpt lat="44.7094800509512424468994140625" lon="6.74444474279880523681640625">
        <ele>1319.199951171875</ele>
        <time>2026-09-03T06:15:17.000Z</time>
        <extensions>
          <ns3:TrackPointExtension>
            <ns3:hr>131</ns3:hr>
            <ns3:cad>52</ns3:cad>
          </ns3:TrackPointExtension>
        </extensions>
      </trkpt>
      <trkpt lat="44.7094800509512424468994140625" lon="6.7444586567580699920654296875">
        <ele>1319.4000244140625</ele>
        <time>2026-09-03T06:15:18.000Z</time>
        <extensions>
          <ns3:TrackPointExtension>
            <ns3:hr>130</ns3:hr>
            <ns3:cad>52</ns3:cad>
          </ns3:TrackPointExtension>
        </extensions>
      </trkpt>
      <trkpt lat="44.709477536380290985107421875" lon="6.74447156488895416259765625">
        <ele>1319.5999755859375</ele>
        <time>2026-09-03T06:15:19.000Z</time>
        <extensions>
          <ns3:TrackPointExtension>
            <ns3:hr>130</ns3:hr>
            <ns3:cad>52</ns3:cad>
          </ns3:TrackPointExtension>
        </extensions>
      </trkpt>
      <trkpt lat="44.70947795547544956207275390625" lon="6.744482629001140594482421875">
        <ele>1319.5999755859375</ele>
        <time>2026-09-03T06:15:20.000Z</time>
        <extensions>
          <ns3:TrackPointExtension>
            <ns3:hr>130</ns3:hr>
            <ns3:cad>53</ns3:cad>
          </ns3:TrackPointExtension>
        </extensions>
      </trkpt>
      <trkpt lat="44.709476195275783538818359375" lon="6.74449444748461246490478515625">
        <ele>1319.800048828125</ele>
        <time>2026-09-03T06:15:21.000Z</time>
        <extensions>
          <ns3:TrackPointExtension>
            <ns3:hr>130</ns3:hr>
            <ns3:cad>53</ns3:cad>
          </ns3:TrackPointExtension>
        </extensions>
      </trkpt>
      <trkpt lat="44.7094746865332126617431640625" lon="6.7445029132068157196044921875">
        <ele>1320</ele>
        <time>2026-09-03T06:15:22.000Z</time>
        <extensions>
          <ns3:TrackPointExtension>
            <ns3:hr>129</ns3:hr>
            <ns3:cad>0</ns3:cad>
          </ns3:TrackPointExtension>
        </extensions>
      </trkpt>
      <trkpt lat="44.70947510562837123870849609375" lon="6.7445022426545619964599609375">
        <ele>1320.199951171875</ele>
        <time>2026-09-03T06:15:23.000Z</time>
        <extensions>
          <ns3:TrackPointExtension>
            <ns3:hr>129</ns3:hr>
            <ns3:cad>0</ns3:cad>
          </ns3:TrackPointExtension>
        </extensions>
      </trkpt>
      <trkpt lat="44.70947275869548320770263671875" lon="6.74450970254838466644287109375">
        <ele>1320.5999755859375</ele>
        <time>2026-09-03T06:15:24.000Z</time>
        <extensions>
          <ns3:TrackPointExtension>
            <ns3:hr>128</ns3:hr>
            <ns3:cad>0</ns3:cad>
          </ns3:TrackPointExtension>
        </extensions>
      </trkpt>
      <trkpt lat="44.70947192050516605377197265625" lon="6.7445156536996364593505859375">
        <ele>1320.800048828125</ele>
        <time>2026-09-03T06:15:25.000Z</time>
        <extensions>
          <ns3:TrackPointExtension>
            <ns3:hr>128</ns3:hr>
            <ns3:cad>0</ns3:cad>
          </ns3:TrackPointExtension>
        </extensions>
      </trkpt>
      <trkpt lat="44.7094683162868022918701171875" lon="6.74452244304120540618896484375">
        <ele>1321.199951171875</ele>
        <time>2026-09-03T06:15:26.000Z</time>
        <extensions>
          <ns3:TrackPointExtension>
            <ns3:hr>128</ns3:hr>
            <ns3:cad>0</ns3:cad>
          </ns3:TrackPointExtension>
        </extensions>
      </trkpt>
      <trkpt lat="44.7094666399061679840087890625" lon="6.744530908763408660888671875">
        <ele>1321.4000244140625</ele>
        <time>2026-09-03T06:15:27.000Z</time>
        <extensions>
          <ns3:TrackPointExtension>
            <ns3:hr>128</ns3:hr>
            <ns3:cad>0</ns3:cad>
          </ns3:TrackPointExtension>
        </extensions>
      </trkpt>
      <trkpt lat="44.70946521498262882232666015625" lon="6.74453954212367534637451171875">
        <ele>1321.800048828125</ele>
        <time>2026-09-03T06:15:28.000Z</time>
        <extensions>
          <ns3:TrackPointExtension>
            <ns3:hr>127</ns3:hr>
            <ns3:cad>0</ns3:cad>
          </ns3:TrackPointExtension>
        </extensions>
      </trkpt>
      <trkpt lat="44.7094632871448993682861328125" lon="6.74455110915005207061767578125">
        <ele>1322</ele>
        <time>2026-09-03T06:15:29.000Z</time>
        <extensions>
          <ns3:TrackPointExtension>
            <ns3:hr>128</ns3:hr>
            <ns3:cad>0</ns3:cad>
          </ns3:TrackPointExtension>
        </extensions>
      </trkpt>
      <trkpt lat="44.7094663046300411224365234375" lon="6.74456351436674594879150390625">
        <ele>1322.199951171875</ele>
        <time>2026-09-03T06:15:30.000Z</time>
        <extensions>
          <ns3:TrackPointExtension>
            <ns3:hr>128</ns3:hr>
            <ns3:cad>0</ns3:cad>
          </ns3:TrackPointExtension>
        </extensions>
      </trkpt>
      <trkpt lat="44.709469489753246307373046875" lon="6.744573824107646942138671875">
        <ele>1322.4000244140625</ele>
        <time>2026-09-03T06:15:31.000Z</time>
        <extensions>
          <ns3:TrackPointExtension>
            <ns3:hr>128</ns3:hr>
            <ns3:cad>0</ns3:cad>
          </ns3:TrackPointExtension>
        </extensions>
      </trkpt>
      <trkpt lat="44.709467478096485137939453125" lon="6.744590587913990020751953125">
        <ele>1322.5999755859375</ele>
        <time>2026-09-03T06:15:32.000Z</time>
        <extensions>
          <ns3:TrackPointExtension>
            <ns3:hr>128</ns3:hr>
            <ns3:cad>49</ns3:cad>
          </ns3:TrackPointExtension>
        </extensions>
      </trkpt>
      <trkpt lat="44.70946856774389743804931640625" lon="6.74459972418844699859619140625">
        <ele>1322.800048828125</ele>
        <time>2026-09-03T06:15:33.000Z</time>
        <extensions>
          <ns3:TrackPointExtension>
            <ns3:hr>128</ns3:hr>
            <ns3:cad>49</ns3:cad>
          </ns3:TrackPointExtension>
        </extensions>
      </trkpt>
      <trkpt lat="44.70946940593421459197998046875" lon="6.74461103975772857666015625">
        <ele>1323</ele>
        <time>2026-09-03T06:15:34.000Z</time>
        <extensions>
          <ns3:TrackPointExtension>
            <ns3:hr>128</ns3:hr>
            <ns3:cad>49</ns3:cad>
          </ns3:TrackPointExtension>
        </extensions>
      </trkpt>
      <trkpt lat="44.70946990884840488433837890625" lon="6.74462151713669300079345703125">
        <ele>1323.199951171875</ele>
        <time>2026-09-03T06:15:35.000Z</time>
        <extensions>
          <ns3:TrackPointExtension>
            <ns3:hr>129</ns3:hr>
            <ns3:cad>49</ns3:cad>
          </ns3:TrackPointExtension>
        </extensions>
      </trkpt>
      <trkpt lat="44.70947049558162689208984375" lon="6.74463828094303607940673828125">
        <ele>1323.4000244140625</ele>
        <time>2026-09-03T06:15:36.000Z</time>
        <extensions>
          <ns3:TrackPointExtension>
            <ns3:hr>129</ns3:hr>
            <ns3:cad>49</ns3:cad>
          </ns3:TrackPointExtension>
        </extensions>
      </trkpt>
      <trkpt lat="44.70947158522903919219970703125" lon="6.74464934505522251129150390625">
        <ele>1323.5999755859375</ele>
        <time>2026-09-03T06:15:37.000Z</time>
        <extensions>
          <ns3:TrackPointExtension>
            <ns3:hr>130</ns3:hr>
            <ns3:cad>49</ns3:cad>
          </ns3:TrackPointExtension>
        </extensions>
      </trkpt>
      <trkpt lat="44.70947443507611751556396484375" lon="6.74465856514871120452880859375">
        <ele>1323.800048828125</ele>
        <time>2026-09-03T06:15:38.000Z</time>
        <extensions>
          <ns3:TrackPointExtension>
            <ns3:hr>131</ns3:hr>
            <ns3:cad>49</ns3:cad>
          </ns3:TrackPointExtension>
        </extensions>
      </trkpt>
      <trkpt lat="44.70948315225541591644287109375" lon="6.74467097036540508270263671875">
        <ele>1324</ele>
        <time>2026-09-03T06:15:39.000Z</time>
        <extensions>
          <ns3:TrackPointExtension>
            <ns3:hr>131</ns3:hr>
            <ns3:cad>49</ns3:cad>
          </ns3:TrackPointExtension>
        </extensions>
      </trkpt>
      <trkpt lat="44.70949656330049037933349609375" lon="6.744679100811481475830078125">
        <ele>1324.199951171875</ele>
        <time>2026-09-03T06:15:40.000Z</time>
        <extensions>
          <ns3:TrackPointExtension>
            <ns3:hr>133</ns3:hr>
            <ns3:cad>49</ns3:cad>
          </ns3:TrackPointExtension>
        </extensions>
      </trkpt>
      <trkpt lat="44.70950796268880367279052734375" lon="6.74468823708593845367431640625">
        <ele>1324.4000244140625</ele>
        <time>2026-09-03T06:15:41.000Z</time>
        <extensions>
          <ns3:TrackPointExtension>
            <ns3:hr>134</ns3:hr>
            <ns3:cad>49</ns3:cad>
          </ns3:TrackPointExtension>
        </extensions>
      </trkpt>
      <trkpt lat="44.7095189429819583892822265625" lon="6.74469678662717342376708984375">
        <ele>1324.5999755859375</ele>
        <time>2026-09-03T06:15:42.000Z</time>
        <extensions>
          <ns3:TrackPointExtension>
            <ns3:hr>135</ns3:hr>
            <ns3:cad>49</ns3:cad>
          </ns3:TrackPointExtension>
        </extensions>
      </trkpt>
      <trkpt lat="44.70952548086643218994140625" lon="6.74470500089228153228759765625">
        <ele>1324.5999755859375</ele>
        <time>2026-09-03T06:15:43.000Z</time>
        <extensions>
          <ns3:TrackPointExtension>
            <ns3:hr>135</ns3:hr>
            <ns3:cad>49</ns3:cad>
          </ns3:TrackPointExtension>
        </extensions>
      </trkpt>
      <trkpt lat="44.709533862769603729248046875" lon="6.74470952711999416351318359375">
        <ele>1324.800048828125</ele>
        <time>2026-09-03T06:15:44.000Z</time>
        <extensions>
          <ns3:TrackPointExtension>
            <ns3:hr>136</ns3:hr>
            <ns3:cad>49</ns3:cad>
          </ns3:TrackPointExtension>
        </extensions>
      </trkpt>
      <trkpt lat="44.70954157412052154541015625" lon="6.74471690319478511810302734375">
        <ele>1324.800048828125</ele>
        <time>2026-09-03T06:15:45.000Z</time>
        <extensions>
          <ns3:TrackPointExtension>
            <ns3:hr>136</ns3:hr>
            <ns3:cad>0</ns3:cad>
          </ns3:TrackPointExtension>
        </extensions>
      </trkpt>
      <trkpt lat="44.709547273814678192138671875" lon="6.744728721678256988525390625">
        <ele>1324.800048828125</ele>
        <time>2026-09-03T06:15:46.000Z</time>
        <extensions>
          <ns3:TrackPointExtension>
            <ns3:hr>137</ns3:hr>
            <ns3:cad>0</ns3:cad>
          </ns3:TrackPointExtension>
        </extensions>
      </trkpt>
      <trkpt lat="44.70955523662269115447998046875" lon="6.74474003724753856658935546875">
        <ele>1325</ele>
        <time>2026-09-03T06:15:47.000Z</time>
        <extensions>
          <ns3:TrackPointExtension>
            <ns3:hr>137</ns3:hr>
            <ns3:cad>60</ns3:cad>
          </ns3:TrackPointExtension>
        </extensions>
      </trkpt>
      <trkpt lat="44.70956462435424327850341796875" lon="6.7447536997497081756591796875">
        <ele>1325</ele>
        <time>2026-09-03T06:15:48.000Z</time>
        <extensions>
          <ns3:TrackPointExtension>
            <ns3:hr>137</ns3:hr>
            <ns3:cad>60</ns3:cad>
          </ns3:TrackPointExtension>
        </extensions>
      </trkpt>
      <trkpt lat="44.7095752693712711334228515625" lon="6.744766943156719207763671875">
        <ele>1325.199951171875</ele>
        <time>2026-09-03T06:15:49.000Z</time>
        <extensions>
          <ns3:TrackPointExtension>
            <ns3:hr>137</ns3:hr>
            <ns3:cad>0</ns3:cad>
          </ns3:TrackPointExtension>
        </extensions>
      </trkpt>
      <trkpt lat="44.7095836512744426727294921875" lon="6.7447821982204914093017578125">
        <ele>1325.199951171875</ele>
        <time>2026-09-03T06:15:50.000Z</time>
        <extensions>
          <ns3:TrackPointExtension>
            <ns3:hr>137</ns3:hr>
            <ns3:cad>0</ns3:cad>
          </ns3:TrackPointExtension>
        </extensions>
      </trkpt>
      <trkpt lat="44.709592871367931365966796875" lon="6.7447976209223270416259765625">
        <ele>1325.4000244140625</ele>
        <time>2026-09-03T06:15:51.000Z</time>
        <extensions>
          <ns3:TrackPointExtension>
            <ns3:hr>138</ns3:hr>
            <ns3:cad>0</ns3:cad>
          </ns3:TrackPointExtension>
        </extensions>
      </trkpt>
      <trkpt lat="44.709601588547229766845703125" lon="6.7448128759860992431640625">
        <ele>1325.4000244140625</ele>
        <time>2026-09-03T06:15:52.000Z</time>
        <extensions>
          <ns3:TrackPointExtension>
            <ns3:hr>138</ns3:hr>
            <ns3:cad>0</ns3:cad>
          </ns3:TrackPointExtension>
        </extensions>
      </trkpt>
      <trkpt lat="44.7096119821071624755859375" lon="6.74483022652566432952880859375">
        <ele>1325.5999755859375</ele>
        <time>2026-09-03T06:15:53.000Z</time>
        <extensions>
          <ns3:TrackPointExtension>
            <ns3:hr>138</ns3:hr>
            <ns3:cad>0</ns3:cad>
          </ns3:TrackPointExtension>
        </extensions>
      </trkpt>
      <trkpt lat="44.70962028019130229949951171875" lon="6.744843386113643646240234375">
        <ele>1325.5999755859375</ele>
        <time>2026-09-03T06:15:54.000Z</time>
        <extensions>
          <ns3:TrackPointExtension>
            <ns3:hr>139</ns3:hr>
            <ns3:cad>0</ns3:cad>
          </ns3:TrackPointExtension>
        </extensions>
      </trkpt>
      <trkpt lat="44.70962765626609325408935546875" lon="6.74485386349260807037353515625">
        <ele>1325.800048828125</ele>
        <time>2026-09-03T06:15:55.000Z</time>
        <extensions>
          <ns3:TrackPointExtension>
            <ns3:hr>139</ns3:hr>
            <ns3:cad>0</ns3:cad>
          </ns3:TrackPointExtension>
        </extensions>
      </trkpt>
      <trkpt lat="44.7096302546560764312744140625" lon="6.7448611557483673095703125">
        <ele>1326</ele>
        <time>2026-09-03T06:15:56.000Z</time>
        <extensions>
          <ns3:TrackPointExtension>
            <ns3:hr>139</ns3:hr>
            <ns3:cad>57</ns3:cad>
          </ns3:TrackPointExtension>
        </extensions>
      </trkpt>
      <trkpt lat="44.7096347808837890625" lon="6.7448673583567142486572265625">
        <ele>1326.199951171875</ele>
        <time>2026-09-03T06:15:57.000Z</time>
        <extensions>
          <ns3:TrackPointExtension>
            <ns3:hr>140</ns3:hr>
            <ns3:cad>57</ns3:cad>
          </ns3:TrackPointExtension>
        </extensions>
      </trkpt>
      <trkpt lat="44.7096359543502330780029296875" lon="6.7448767460882663726806640625">
        <ele>1326.5999755859375</ele>
        <time>2026-09-03T06:15:58.000Z</time>
        <extensions>
          <ns3:TrackPointExtension>
            <ns3:hr>142</ns3:hr>
            <ns3:cad>57</ns3:cad>
          </ns3:TrackPointExtension>
        </extensions>
      </trkpt>
      <trkpt lat="44.709637463092803955078125" lon="6.74488152377307415008544921875">
        <ele>1326.800048828125</ele>
        <time>2026-09-03T06:15:59.000Z</time>
        <extensions>
          <ns3:TrackPointExtension>
            <ns3:hr>142</ns3:hr>
            <ns3:cad>57</ns3:cad>
          </ns3:TrackPointExtension>
        </extensions>
      </trkpt>
      <trkpt lat="44.70964123494923114776611328125" lon="6.744884960353374481201171875">
        <ele>1326.800048828125</ele>
        <time>2026-09-03T06:16:00.000Z</time>
        <extensions>
          <ns3:TrackPointExtension>
            <ns3:hr>143</ns3:hr>
            <ns3:cad>57</ns3:cad>
          </ns3:TrackPointExtension>
        </extensions>
      </trkpt>
      <trkpt lat="44.70964592881500720977783203125" lon="6.744887642562389373779296875">
        <ele>1327</ele>
        <time>2026-09-03T06:16:01.000Z</time>
        <extensions>
          <ns3:TrackPointExtension>
            <ns3:hr>143</ns3:hr>
            <ns3:cad>57</ns3:cad>
          </ns3:TrackPointExtension>
        </extensions>
      </trkpt>
      <trkpt lat="44.70965162850916385650634765625" lon="6.74489107914268970489501953125">
        <ele>1327.199951171875</ele>
        <time>2026-09-03T06:16:02.000Z</time>
        <extensions>
          <ns3:TrackPointExtension>
            <ns3:hr>142</ns3:hr>
            <ns3:cad>57</ns3:cad>
          </ns3:TrackPointExtension>
        </extensions>
      </trkpt>
      <trkpt lat="44.70965833403170108795166015625" lon="6.74489443190395832061767578125">
        <ele>1327.199951171875</ele>
        <time>2026-09-03T06:16:03.000Z</time>
        <extensions>
          <ns3:TrackPointExtension>
            <ns3:hr>142</ns3:hr>
            <ns3:cad>57</ns3:cad>
          </ns3:TrackPointExtension>
        </extensions>
      </trkpt>
      <trkpt lat="44.70966855995357036590576171875" lon="6.74489929340779781341552734375">
        <ele>1327.4000244140625</ele>
        <time>2026-09-03T06:16:04.000Z</time>
        <extensions>
          <ns3:TrackPointExtension>
            <ns3:hr>142</ns3:hr>
            <ns3:cad>57</ns3:cad>
          </ns3:TrackPointExtension>
        </extensions>
      </trkpt>
      <trkpt lat="44.70967509783804416656494140625" lon="6.7449025623500347137451171875">
        <ele>1327.4000244140625</ele>
        <time>2026-09-03T06:16:05.000Z</time>
        <extensions>
          <ns3:TrackPointExtension>
            <ns3:hr>142</ns3:hr>
            <ns3:cad>57</ns3:cad>
          </ns3:TrackPointExtension>
        </extensions>
      </trkpt>
      <trkpt lat="44.709690101444721221923828125" lon="6.74491136334836483001708984375">
        <ele>1327.4000244140625</ele>
        <time>2026-09-03T06:16:06.000Z</time>
        <extensions>
          <ns3:TrackPointExtension>
            <ns3:hr>143</ns3:hr>
            <ns3:cad>57</ns3:cad>
          </ns3:TrackPointExtension>
        </extensions>
      </trkpt>
      <trkpt lat="44.7096993215382099151611328125" lon="6.744916476309299468994140625">
        <ele>1327.4000244140625</ele>
        <time>2026-09-03T06:16:07.000Z</time>
        <extensions>
          <ns3:TrackPointExtension>
            <ns3:hr>143</ns3:hr>
            <ns3:cad>57</ns3:cad>
          </ns3:TrackPointExtension>
        </extensions>
      </trkpt>
      <trkpt lat="44.7097112238407135009765625" lon="6.744925864040851593017578125">
        <ele>1327.4000244140625</ele>
        <time>2026-09-03T06:16:08.000Z</time>
        <extensions>
          <ns3:TrackPointExtension>
            <ns3:hr>144</ns3:hr>
            <ns3:cad>57</ns3:cad>
          </ns3:TrackPointExtension>
        </extensions>
      </trkpt>
      <trkpt lat="44.70972253940999507904052734375" lon="6.74493600614368915557861328125">
        <ele>1327.199951171875</ele>
        <time>2026-09-03T06:16:09.000Z</time>
        <extensions>
          <ns3:TrackPointExtension>
            <ns3:hr>144</ns3:hr>
            <ns3:cad>0</ns3:cad>
          </ns3:TrackPointExtension>
        </extensions>
      </trkpt>
      <trkpt lat="44.70973469316959381103515625" lon="6.74494656734168529510498046875">
        <ele>1327.199951171875</ele>
        <time>2026-09-03T06:16:10.000Z</time>
        <extensions>
          <ns3:TrackPointExtension>
            <ns3:hr>146</ns3:hr>
            <ns3:cad>0</ns3:cad>
          </ns3:TrackPointExtension>
        </extensions>
      </trkpt>
      <trkpt lat="44.7097449190914630889892578125" lon="6.7449565418064594268798828125">
        <ele>1327.199951171875</ele>
        <time>2026-09-03T06:16:11.000Z</time>
        <extensions>
          <ns3:TrackPointExtension>
            <ns3:hr>146</ns3:hr>
            <ns3:cad>0</ns3:cad>
          </ns3:TrackPointExtension>
        </extensions>
      </trkpt>
      <trkpt lat="44.70975472591817378997802734375" lon="6.74496634863317012786865234375">
        <ele>1327.199951171875</ele>
        <time>2026-09-03T06:16:12.000Z</time>
        <extensions>
          <ns3:TrackPointExtension>
            <ns3:hr>146</ns3:hr>
            <ns3:cad>0</ns3:cad>
          </ns3:TrackPointExtension>
        </extensions>
      </trkpt>
      <trkpt lat="44.70976428128778934478759765625" lon="6.74497657455503940582275390625">
        <ele>1327.199951171875</ele>
        <time>2026-09-03T06:16:13.000Z</time>
        <extensions>
          <ns3:TrackPointExtension>
            <ns3:hr>146</ns3:hr>
            <ns3:cad>0</ns3:cad>
          </ns3:TrackPointExtension>
        </extensions>
      </trkpt>
      <trkpt lat="44.7097724117338657379150390625" lon="6.74498680047690868377685546875">
        <ele>1327.199951171875</ele>
        <time>2026-09-03T06:16:14.000Z</time>
        <extensions>
          <ns3:TrackPointExtension>
            <ns3:hr>144</ns3:hr>
            <ns3:cad>0</ns3:cad>
          </ns3:TrackPointExtension>
        </extensions>
      </trkpt>
      <trkpt lat="44.70977970398962497711181640625" lon="6.74499618820846080780029296875">
        <ele>1327.199951171875</ele>
        <time>2026-09-03T06:16:15.000Z</time>
        <extensions>
          <ns3:TrackPointExtension>
            <ns3:hr>143</ns3:hr>
            <ns3:cad>0</ns3:cad>
          </ns3:TrackPointExtension>
        </extensions>
      </trkpt>
      <trkpt lat="44.70978557132184505462646484375" lon="6.74500356428325176239013671875">
        <ele>1327.199951171875</ele>
        <time>2026-09-03T06:16:16.000Z</time>
        <extensions>
          <ns3:TrackPointExtension>
            <ns3:hr>136</ns3:hr>
            <ns3:cad>0</ns3:cad>
          </ns3:TrackPointExtension>
        </extensions>
      </trkpt>
      <trkpt lat="44.7097836434841156005859375" lon="6.74500758759677410125732421875">
        <ele>1327</ele>
        <time>2026-09-03T06:16:17.000Z</time>
        <extensions>
          <ns3:TrackPointExtension>
            <ns3:hr>133</ns3:hr>
            <ns3:cad>0</ns3:cad>
          </ns3:TrackPointExtension>
        </extensions>
      </trkpt>
      <trkpt lat="44.70978640951216220855712890625" lon="6.74501144327223300933837890625">
        <ele>1327</ele>
        <time>2026-09-03T06:16:18.000Z</time>
        <extensions>
          <ns3:TrackPointExtension>
            <ns3:hr>132</ns3:hr>
            <ns3:cad>0</ns3:cad>
          </ns3:TrackPointExtension>
        </extensions>
      </trkpt>
      <trkpt lat="44.70978892408311367034912109375" lon="6.74501412548124790191650390625">
        <ele>1327</ele>
        <time>2026-09-03T06:16:19.000Z</time>
        <extensions>
          <ns3:TrackPointExtension>
            <ns3:hr>132</ns3:hr>
            <ns3:cad>0</ns3:cad>
          </ns3:TrackPointExtension>
        </extensions>
      </trkpt>
      <trkpt lat="44.7097890079021453857421875" lon="6.74501345492899417877197265625">
        <ele>1327</ele>
        <time>2026-09-03T06:16:20.000Z</time>
        <extensions>
          <ns3:TrackPointExtension>
            <ns3:hr>132</ns3:hr>
            <ns3:cad>0</ns3:cad>
          </ns3:TrackPointExtension>
        </extensions>
      </trkpt>
      <trkpt lat="44.70979127101600170135498046875" lon="6.7450113594532012939453125">
        <ele>1327</ele>
        <time>2026-09-03T06:16:21.000Z</time>
        <extensions>
          <ns3:TrackPointExtension>
            <ns3:hr>131</ns3:hr>
            <ns3:cad>0</ns3:cad>
          </ns3:TrackPointExtension>
        </extensions>
      </trkpt>
      <trkpt lat="44.70979613251984119415283203125" lon="6.74501060508191585540771484375">
        <ele>1327</ele>
        <time>2026-09-03T06:16:22.000Z</time>
        <extensions>
          <ns3:TrackPointExtension>
            <ns3:hr>131</ns3:hr>
            <ns3:cad>0</ns3:cad>
          </ns3:TrackPointExtension>
        </extensions>
      </trkpt>
      <trkpt lat="44.7098062746226787567138671875" lon="6.7450078390538692474365234375">
        <ele>1327</ele>
        <time>2026-09-03T06:16:23.000Z</time>
        <extensions>
          <ns3:TrackPointExtension>
            <ns3:hr>130</ns3:hr>
            <ns3:cad>0</ns3:cad>
          </ns3:TrackPointExtension>
        </extensions>
      </trkpt>
      <trkpt lat="44.709815494716167449951171875" lon="6.74500507302582263946533203125">
        <ele>1327</ele>
        <time>2026-09-03T06:16:24.000Z</time>
        <extensions>
          <ns3:TrackPointExtension>
            <ns3:hr>130</ns3:hr>
            <ns3:cad>0</ns3:cad>
          </ns3:TrackPointExtension>
        </extensions>
      </trkpt>
      <trkpt lat="44.70982580445706844329833984375" lon="6.74500792287290096282958984375">
        <ele>1327</ele>
        <time>2026-09-03T06:16:25.000Z</time>
        <extensions>
          <ns3:TrackPointExtension>
            <ns3:hr>129</ns3:hr>
            <ns3:cad>0</ns3:cad>
          </ns3:TrackPointExtension>
        </extensions>
      </trkpt>
      <trkpt lat="44.70983737148344516754150390625" lon="6.74500959925353527069091796875">
        <ele>1327.199951171875</ele>
        <time>2026-09-03T06:16:26.000Z</time>
        <extensions>
          <ns3:TrackPointExtension>
            <ns3:hr>129</ns3:hr>
            <ns3:cad>0</ns3:cad>
          </ns3:TrackPointExtension>
        </extensions>
      </trkpt>
      <trkpt lat="44.7098506987094879150390625" lon="6.745003648102283477783203125">
        <ele>1327.199951171875</ele>
        <time>2026-09-03T06:16:27.000Z</time>
        <extensions>
          <ns3:TrackPointExtension>
            <ns3:hr>128</ns3:hr>
            <ns3:cad>0</ns3:cad>
          </ns3:TrackPointExtension>
        </extensions>
      </trkpt>
      <trkpt lat="44.709860421717166900634765625" lon="6.74499752931296825408935546875">
        <ele>1327.4000244140625</ele>
        <time>2026-09-03T06:16:28.000Z</time>
        <extensions>
          <ns3:TrackPointExtension>
            <ns3:hr>128</ns3:hr>
            <ns3:cad>0</ns3:cad>
          </ns3:TrackPointExtension>
        </extensions>
      </trkpt>
      <trkpt lat="44.70987156964838504791259765625" lon="6.74498654901981353759765625">
        <ele>1327.4000244140625</ele>
        <time>2026-09-03T06:16:29.000Z</time>
        <extensions>
          <ns3:TrackPointExtension>
            <ns3:hr>128</ns3:hr>
            <ns3:cad>55</ns3:cad>
          </ns3:TrackPointExtension>
        </extensions>
      </trkpt>
      <trkpt lat="44.70987953245639801025390625" lon="6.74498126842081546783447265625">
        <ele>1327.5999755859375</ele>
        <time>2026-09-03T06:16:30.000Z</time>
        <extensions>
          <ns3:TrackPointExtension>
            <ns3:hr>127</ns3:hr>
            <ns3:cad>55</ns3:cad>
          </ns3:TrackPointExtension>
        </extensions>
      </trkpt>
      <trkpt lat="44.70988095737993717193603515625" lon="6.7449749819934368133544921875">
        <ele>1327.5999755859375</ele>
        <time>2026-09-03T06:16:31.000Z</time>
        <extensions>
          <ns3:TrackPointExtension>
            <ns3:hr>127</ns3:hr>
            <ns3:cad>55</ns3:cad>
          </ns3:TrackPointExtension>
        </extensions>
      </trkpt>
      <trkpt lat="44.70988489687442779541015625" lon="6.74497389234602451324462890625">
        <ele>1328</ele>
        <time>2026-09-03T06:16:32.000Z</time>
        <extensions>
          <ns3:TrackPointExtension>
            <ns3:hr>126</ns3:hr>
            <ns3:cad>55</ns3:cad>
          </ns3:TrackPointExtension>
        </extensions>
      </trkpt>
      <trkpt lat="44.7098936140537261962890625" lon="6.744976155459880828857421875">
        <ele>1328.199951171875</ele>
        <time>2026-09-03T06:16:33.000Z</time>
        <extensions>
          <ns3:TrackPointExtension>
            <ns3:hr>126</ns3:hr>
            <ns3:cad>55</ns3:cad>
          </ns3:TrackPointExtension>
        </extensions>
      </trkpt>
      <trkpt lat="44.70989403314888477325439453125" lon="6.744976826012134552001953125">
        <ele>1328.4000244140625</ele>
        <time>2026-09-03T06:16:34.000Z</time>
        <extensions>
          <ns3:TrackPointExtension>
            <ns3:hr>126</ns3:hr>
            <ns3:cad>55</ns3:cad>
          </ns3:TrackPointExtension>
        </extensions>
      </trkpt>
      <trkpt lat="44.70990023575723171234130859375" lon="6.744986213743686676025390625">
        <ele>1328.5999755859375</ele>
        <time>2026-09-03T06:16:35.000Z</time>
        <extensions>
          <ns3:TrackPointExtension>
            <ns3:hr>126</ns3:hr>
            <ns3:cad>55</ns3:cad>
          </ns3:TrackPointExtension>
        </extensions>
      </trkpt>
      <trkpt lat="44.7099035046994686126708984375" lon="6.7449897341430187225341796875">
        <ele>1328.800048828125</ele>
        <time>2026-09-03T06:16:36.000Z</time>
        <extensions>
          <ns3:TrackPointExtension>
            <ns3:hr>125</ns3:hr>
            <ns3:cad>55</ns3:cad>
          </ns3:TrackPointExtension>
        </extensions>
      </trkpt>
      <trkpt lat="44.70990928821265697479248046875" lon="6.7450018040835857391357421875">
        <ele>1329</ele>
        <time>2026-09-03T06:16:37.000Z</time>
        <extensions>
          <ns3:TrackPointExtension>
            <ns3:hr>125</ns3:hr>
            <ns3:cad>55</ns3:cad>
          </ns3:TrackPointExtension>
        </extensions>
      </trkpt>
      <trkpt lat="44.70991163514554500579833984375" lon="6.74501479603350162506103515625">
        <ele>1329.199951171875</ele>
        <time>2026-09-03T06:16:38.000Z</time>
        <extensions>
          <ns3:TrackPointExtension>
            <ns3:hr>125</ns3:hr>
            <ns3:cad>55</ns3:cad>
          </ns3:TrackPointExtension>
        </extensions>
      </trkpt>
      <trkpt lat="44.709915407001972198486328125" lon="6.74502971582114696502685546875">
        <ele>1329.199951171875</ele>
        <time>2026-09-03T06:16:39.000Z</time>
        <extensions>
          <ns3:TrackPointExtension>
            <ns3:hr>124</ns3:hr>
            <ns3:cad>55</ns3:cad>
          </ns3:TrackPointExtension>
        </extensions>
      </trkpt>
      <trkpt lat="44.70991616137325763702392578125" lon="6.74504094757139682769775390625">
        <ele>1329.4000244140625</ele>
        <time>2026-09-03T06:16:40.000Z</time>
        <extensions>
          <ns3:TrackPointExtension>
            <ns3:hr>124</ns3:hr>
            <ns3:cad>55</ns3:cad>
          </ns3:TrackPointExtension>
        </extensions>
      </trkpt>
      <trkpt lat="44.70991817303001880645751953125" lon="6.745057962834835052490234375">
        <ele>1329.5999755859375</ele>
        <time>2026-09-03T06:16:41.000Z</time>
        <extensions>
          <ns3:TrackPointExtension>
            <ns3:hr>124</ns3:hr>
            <ns3:cad>55</ns3:cad>
          </ns3:TrackPointExtension>
        </extensions>
      </trkpt>
      <trkpt lat="44.70991867594420909881591796875" lon="6.74507439136505126953125">
        <ele>1329.5999755859375</ele>
        <time>2026-09-03T06:16:42.000Z</time>
        <extensions>
          <ns3:TrackPointExtension>
            <ns3:hr>124</ns3:hr>
            <ns3:cad>55</ns3:cad>
          </ns3:TrackPointExtension>
        </extensions>
      </trkpt>
      <trkpt lat="44.7099177539348602294921875" lon="6.7450856231153011322021484375">
        <ele>1329.800048828125</ele>
        <time>2026-09-03T06:16:43.000Z</time>
        <extensions>
          <ns3:TrackPointExtension>
            <ns3:hr>124</ns3:hr>
            <ns3:cad>0</ns3:cad>
          </ns3:TrackPointExtension>
        </extensions>
      </trkpt>
      <trkpt lat="44.70991532318294048309326171875" lon="6.7450956813991069793701171875">
        <ele>1330</ele>
        <time>2026-09-03T06:16:44.000Z</time>
        <extensions>
          <ns3:TrackPointExtension>
            <ns3:hr>124</ns3:hr>
            <ns3:cad>0</ns3:cad>
          </ns3:TrackPointExtension>
        </extensions>
      </trkpt>
      <trkpt lat="44.70991381444036960601806640625" lon="6.74510817043483257293701171875">
        <ele>1330.199951171875</ele>
        <time>2026-09-03T06:16:45.000Z</time>
        <extensions>
          <ns3:TrackPointExtension>
            <ns3:hr>125</ns3:hr>
            <ns3:cad>52</ns3:cad>
          </ns3:TrackPointExtension>
        </extensions>
      </trkpt>
      <trkpt lat="44.7099115513265132904052734375" lon="6.74511806108057498931884765625">
        <ele>1330.4000244140625</ele>
        <time>2026-09-03T06:16:46.000Z</time>
        <extensions>
          <ns3:TrackPointExtension>
            <ns3:hr>124</ns3:hr>
            <ns3:cad>52</ns3:cad>
          </ns3:TrackPointExtension>
        </extensions>
      </trkpt>
      <trkpt lat="44.70990727655589580535888671875" lon="6.74513264559209346771240234375">
        <ele>1330.800048828125</ele>
        <time>2026-09-03T06:16:47.000Z</time>
        <extensions>
          <ns3:TrackPointExtension>
            <ns3:hr>124</ns3:hr>
            <ns3:cad>52</ns3:cad>
          </ns3:TrackPointExtension>
        </extensions>
      </trkpt>
      <trkpt lat="44.70990291796624660491943359375" lon="6.74514723010361194610595703125">
        <ele>1331</ele>
        <time>2026-09-03T06:16:48.000Z</time>
        <extensions>
          <ns3:TrackPointExtension>
            <ns3:hr>124</ns3:hr>
            <ns3:cad>52</ns3:cad>
          </ns3:TrackPointExtension>
        </extensions>
      </trkpt>
      <trkpt lat="44.709900654852390289306640625" lon="6.74515980295836925506591796875">
        <ele>1331.199951171875</ele>
        <time>2026-09-03T06:16:49.000Z</time>
        <extensions>
          <ns3:TrackPointExtension>
            <ns3:hr>124</ns3:hr>
            <ns3:cad>52</ns3:cad>
          </ns3:TrackPointExtension>
        </extensions>
      </trkpt>
      <trkpt lat="44.70989537425339221954345703125" lon="6.7451754771173000335693359375">
        <ele>1331.4000244140625</ele>
        <time>2026-09-03T06:16:50.000Z</time>
        <extensions>
          <ns3:TrackPointExtension>
            <ns3:hr>124</ns3:hr>
            <ns3:cad>52</ns3:cad>
          </ns3:TrackPointExtension>
        </extensions>
      </trkpt>
      <trkpt lat="44.70989269204437732696533203125" lon="6.74519148655235767364501953125">
        <ele>1331.5999755859375</ele>
        <time>2026-09-03T06:16:51.000Z</time>
        <extensions>
          <ns3:TrackPointExtension>
            <ns3:hr>125</ns3:hr>
            <ns3:cad>52</ns3:cad>
          </ns3:TrackPointExtension>
        </extensions>
      </trkpt>
      <trkpt lat="44.709889590740203857421875" lon="6.74521160311996936798095703125">
        <ele>1331.5999755859375</ele>
        <time>2026-09-03T06:16:52.000Z</time>
        <extensions>
          <ns3:TrackPointExtension>
            <ns3:hr>125</ns3:hr>
            <ns3:cad>52</ns3:cad>
          </ns3:TrackPointExtension>
        </extensions>
      </trkpt>
      <trkpt lat="44.709887914359569549560546875" lon="6.74522736109793186187744140625">
        <ele>1331.800048828125</ele>
        <time>2026-09-03T06:16:53.000Z</time>
        <extensions>
          <ns3:TrackPointExtension>
            <ns3:hr>125</ns3:hr>
            <ns3:cad>52</ns3:cad>
          </ns3:TrackPointExtension>
        </extensions>
      </trkpt>
      <trkpt lat="44.7098867408931255340576171875" lon="6.74524814821779727935791015625">
        <ele>1332</ele>
        <time>2026-09-03T06:16:54.000Z</time>
        <extensions>
          <ns3:TrackPointExtension>
            <ns3:hr>125</ns3:hr>
            <ns3:cad>52</ns3:cad>
          </ns3:TrackPointExtension>
        </extensions>
      </trkpt>
      <trkpt lat="44.7098853997886180877685546875" lon="6.74526373855769634246826171875">
        <ele>1332</ele>
        <time>2026-09-03T06:16:55.000Z</time>
        <extensions>
          <ns3:TrackPointExtension>
            <ns3:hr>126</ns3:hr>
            <ns3:cad>52</ns3:cad>
          </ns3:TrackPointExtension>
        </extensions>
      </trkpt>
      <trkpt lat="44.70988581888377666473388671875" lon="6.74527362920343875885009765625">
        <ele>1332.199951171875</ele>
        <time>2026-09-03T06:16:56.000Z</time>
        <extensions>
          <ns3:TrackPointExtension>
            <ns3:hr>126</ns3:hr>
            <ns3:cad>52</ns3:cad>
          </ns3:TrackPointExtension>
        </extensions>
      </trkpt>
      <trkpt lat="44.70988757908344268798828125" lon="6.745283938944339752197265625">
        <ele>1332.4000244140625</ele>
        <time>2026-09-03T06:16:57.000Z</time>
        <extensions>
          <ns3:TrackPointExtension>
            <ns3:hr>126</ns3:hr>
            <ns3:cad>0</ns3:cad>
          </ns3:TrackPointExtension>
        </extensions>
      </trkpt>
      <trkpt lat="44.709889255464076995849609375" lon="6.74529190175235271453857421875">
        <ele>1332.5999755859375</ele>
        <time>2026-09-03T06:16:58.000Z</time>
        <extensions>
          <ns3:TrackPointExtension>
            <ns3:hr>127</ns3:hr>
            <ns3:cad>0</ns3:cad>
          </ns3:TrackPointExtension>
        </extensions>
      </trkpt>
      <trkpt lat="44.709889926016330718994140625" lon="6.745309419929981231689453125">
        <ele>1332.800048828125</ele>
        <time>2026-09-03T06:16:59.000Z</time>
        <extensions>
          <ns3:TrackPointExtension>
            <ns3:hr>128</ns3:hr>
            <ns3:cad>0</ns3:cad>
          </ns3:TrackPointExtension>
        </extensions>
      </trkpt>
      <trkpt lat="44.70989218913018703460693359375" lon="6.74532056786119937896728515625">
        <ele>1333</ele>
        <time>2026-09-03T06:17:00.000Z</time>
        <extensions>
          <ns3:TrackPointExtension>
            <ns3:hr>128</ns3:hr>
            <ns3:cad>0</ns3:cad>
          </ns3:TrackPointExtension>
        </extensions>
      </trkpt>
      <trkpt lat="44.70989570952951908111572265625" lon="6.74534068442881107330322265625">
        <ele>1333.199951171875</ele>
        <time>2026-09-03T06:17:01.000Z</time>
        <extensions>
          <ns3:TrackPointExtension>
            <ns3:hr>128</ns3:hr>
            <ns3:cad>0</ns3:cad>
          </ns3:TrackPointExtension>
        </extensions>
      </trkpt>
      <trkpt lat="44.7098964639008045196533203125" lon="6.74535459838807582855224609375">
        <ele>1333.199951171875</ele>
        <time>2026-09-03T06:17:02.000Z</time>
        <extensions>
          <ns3:TrackPointExtension>
            <ns3:hr>129</ns3:hr>
            <ns3:cad>0</ns3:cad>
          </ns3:TrackPointExtension>
        </extensions>
      </trkpt>
      <trkpt lat="44.70989763736724853515625" lon="6.7453696019947528839111328125">
        <ele>1333.4000244140625</ele>
        <time>2026-09-03T06:17:03.000Z</time>
        <extensions>
          <ns3:TrackPointExtension>
            <ns3:hr>129</ns3:hr>
            <ns3:cad>0</ns3:cad>
          </ns3:TrackPointExtension>
        </extensions>
      </trkpt>
      <trkpt lat="44.70990073867142200469970703125" lon="6.7453810013830661773681640625">
        <ele>1333.4000244140625</ele>
        <time>2026-09-03T06:17:04.000Z</time>
        <extensions>
          <ns3:TrackPointExtension>
            <ns3:hr>129</ns3:hr>
            <ns3:cad>0</ns3:cad>
          </ns3:TrackPointExtension>
        </extensions>
      </trkpt>
      <trkpt lat="44.70990643836557865142822265625" lon="6.7453900538384914398193359375">
        <ele>1333.4000244140625</ele>
        <time>2026-09-03T06:17:05.000Z</time>
        <extensions>
          <ns3:TrackPointExtension>
            <ns3:hr>129</ns3:hr>
            <ns3:cad>0</ns3:cad>
          </ns3:TrackPointExtension>
        </extensions>
      </trkpt>
      <trkpt lat="44.70991867594420909881591796875" lon="6.745410002768039703369140625">
        <ele>1333.5999755859375</ele>
        <time>2026-09-03T06:17:06.000Z</time>
        <extensions>
          <ns3:TrackPointExtension>
            <ns3:hr>129</ns3:hr>
            <ns3:cad>0</ns3:cad>
          </ns3:TrackPointExtension>
        </extensions>
      </trkpt>
      <trkpt lat="44.7099239565432071685791015625" lon="6.7454148642718791961669921875">
        <ele>1333.5999755859375</ele>
        <time>2026-09-03T06:17:07.000Z</time>
        <extensions>
          <ns3:TrackPointExtension>
            <ns3:hr>129</ns3:hr>
            <ns3:cad>0</ns3:cad>
          </ns3:TrackPointExtension>
        </extensions>
      </trkpt>
      <trkpt lat="44.7099296562373638153076171875" lon="6.74542819149792194366455078125">
        <ele>1333.800048828125</ele>
        <time>2026-09-03T06:17:08.000Z</time>
        <extensions>
          <ns3:TrackPointExtension>
            <ns3:hr>129</ns3:hr>
            <ns3:cad>0</ns3:cad>
          </ns3:TrackPointExtension>
        </extensions>
      </trkpt>
      <trkpt lat="44.70993359573185443878173828125" lon="6.74543305300176143646240234375">
        <ele>1334</ele>
        <time>2026-09-03T06:17:09.000Z</time>
        <extensions>
          <ns3:TrackPointExtension>
            <ns3:hr>129</ns3:hr>
            <ns3:cad>0</ns3:cad>
          </ns3:TrackPointExtension>
        </extensions>
      </trkpt>
      <trkpt lat="44.70993912778794765472412109375" lon="6.74544713459908962249755859375">
        <ele>1334.199951171875</ele>
        <time>2026-09-03T06:17:10.000Z</time>
        <extensions>
          <ns3:TrackPointExtension>
            <ns3:hr>129</ns3:hr>
            <ns3:cad>0</ns3:cad>
          </ns3:TrackPointExtension>
        </extensions>
      </trkpt>
      <trkpt lat="44.709939546883106231689453125" lon="6.745452247560024261474609375">
        <ele>1334.4000244140625</ele>
        <time>2026-09-03T06:17:11.000Z</time>
        <extensions>
          <ns3:TrackPointExtension>
            <ns3:hr>129</ns3:hr>
            <ns3:cad>0</ns3:cad>
          </ns3:TrackPointExtension>
        </extensions>
      </trkpt>
      <trkpt lat="44.7099454142153263092041015625" lon="6.74546607770025730133056640625">
        <ele>1334.5999755859375</ele>
        <time>2026-09-03T06:17:12.000Z</time>
        <extensions>
          <ns3:TrackPointExtension>
            <ns3:hr>129</ns3:hr>
            <ns3:cad>0</ns3:cad>
          </ns3:TrackPointExtension>
        </extensions>
      </trkpt>
      <trkpt lat="44.70994968898594379425048828125" lon="6.74547060392796993255615234375">
        <ele>1334.800048828125</ele>
        <time>2026-09-03T06:17:13.000Z</time>
        <extensions>
          <ns3:TrackPointExtension>
            <ns3:hr>130</ns3:hr>
            <ns3:cad>0</ns3:cad>
          </ns3:TrackPointExtension>
        </extensions>
      </trkpt>
      <trkpt lat="44.7099534608423709869384765625" lon="6.74548166804015636444091796875">
        <ele>1335</ele>
        <time>2026-09-03T06:17:14.000Z</time>
        <extensions>
          <ns3:TrackPointExtension>
            <ns3:hr>130</ns3:hr>
            <ns3:cad>0</ns3:cad>
          </ns3:TrackPointExtension>
        </extensions>
      </trkpt>
      <trkpt lat="44.70995538868010044097900390625" lon="6.74548954702913761138916015625">
        <ele>1335.199951171875</ele>
        <time>2026-09-03T06:17:15.000Z</time>
        <extensions>
          <ns3:TrackPointExtension>
            <ns3:hr>130</ns3:hr>
            <ns3:cad>0</ns3:cad>
          </ns3:TrackPointExtension>
        </extensions>
      </trkpt>
      <trkpt lat="44.70996578224003314971923828125" lon="6.74549440853297710418701171875">
        <ele>1335.4000244140625</ele>
        <time>2026-09-03T06:17:16.000Z</time>
        <extensions>
          <ns3:TrackPointExtension>
            <ns3:hr>130</ns3:hr>
            <ns3:cad>0</ns3:cad>
          </ns3:TrackPointExtension>
        </extensions>
      </trkpt>
      <trkpt lat="44.70997206866741180419921875" lon="6.74549885094165802001953125">
        <ele>1335.5999755859375</ele>
        <time>2026-09-03T06:17:17.000Z</time>
        <extensions>
          <ns3:TrackPointExtension>
            <ns3:hr>131</ns3:hr>
            <ns3:cad>0</ns3:cad>
          </ns3:TrackPointExtension>
        </extensions>
      </trkpt>
      <trkpt lat="44.70997952856123447418212890625" lon="6.74551201052963733673095703125">
        <ele>1335.800048828125</ele>
        <time>2026-09-03T06:17:18.000Z</time>
        <extensions>
          <ns3:TrackPointExtension>
            <ns3:hr>131</ns3:hr>
            <ns3:cad>0</ns3:cad>
          </ns3:TrackPointExtension>
        </extensions>
      </trkpt>
      <trkpt lat="44.7099903412163257598876953125" lon="6.7455290257930755615234375">
        <ele>1336</ele>
        <time>2026-09-03T06:17:19.000Z</time>
        <extensions>
          <ns3:TrackPointExtension>
            <ns3:hr>132</ns3:hr>
            <ns3:cad>0</ns3:cad>
          </ns3:TrackPointExtension>
        </extensions>
      </trkpt>
      <trkpt lat="44.71000601537525653839111328125" lon="6.74552910961210727691650390625">
        <ele>1336.199951171875</ele>
        <time>2026-09-03T06:17:20.000Z</time>
        <extensions>
          <ns3:TrackPointExtension>
            <ns3:hr>133</ns3:hr>
            <ns3:cad>53</ns3:cad>
          </ns3:TrackPointExtension>
        </extensions>
      </trkpt>
      <trkpt lat="44.71001657657325267791748046875" lon="6.7455382458865642547607421875">
        <ele>1336.199951171875</ele>
        <time>2026-09-03T06:17:21.000Z</time>
        <extensions>
          <ns3:TrackPointExtension>
            <ns3:hr>134</ns3:hr>
            <ns3:cad>54</ns3:cad>
          </ns3:TrackPointExtension>
        </extensions>
      </trkpt>
      <trkpt lat="44.71002705395221710205078125" lon="6.74554989673197269439697265625">
        <ele>1336.4000244140625</ele>
        <time>2026-09-03T06:17:22.000Z</time>
        <extensions>
          <ns3:TrackPointExtension>
            <ns3:hr>135</ns3:hr>
            <ns3:cad>54</ns3:cad>
          </ns3:TrackPointExtension>
        </extensions>
      </trkpt>
      <trkpt lat="44.7100352682173252105712890625" lon="6.74556230194866657257080078125">
        <ele>1336.4000244140625</ele>
        <time>2026-09-03T06:17:23.000Z</time>
        <extensions>
          <ns3:TrackPointExtension>
            <ns3:hr>135</ns3:hr>
            <ns3:cad>54</ns3:cad>
          </ns3:TrackPointExtension>
        </extensions>
      </trkpt>
      <trkpt lat="44.71004289574921131134033203125" lon="6.74557504244148731231689453125">
        <ele>1336.5999755859375</ele>
        <time>2026-09-03T06:17:24.000Z</time>
        <extensions>
          <ns3:TrackPointExtension>
            <ns3:hr>135</ns3:hr>
            <ns3:cad>54</ns3:cad>
          </ns3:TrackPointExtension>
        </extensions>
      </trkpt>
      <trkpt lat="44.71004909835755825042724609375" lon="6.7455808259546756744384765625">
        <ele>1336.5999755859375</ele>
        <time>2026-09-03T06:17:25.000Z</time>
        <extensions>
          <ns3:TrackPointExtension>
            <ns3:hr>136</ns3:hr>
            <ns3:cad>54</ns3:cad>
          </ns3:TrackPointExtension>
        </extensions>
      </trkpt>
      <trkpt lat="44.71005655825138092041015625" lon="6.74559432081878185272216796875">
        <ele>1336.800048828125</ele>
        <time>2026-09-03T06:17:26.000Z</time>
        <extensions>
          <ns3:TrackPointExtension>
            <ns3:hr>136</ns3:hr>
            <ns3:cad>54</ns3:cad>
          </ns3:TrackPointExtension>
        </extensions>
      </trkpt>
      <trkpt lat="44.71005932427942752838134765625" lon="6.74560085870325565338134765625">
        <ele>1337</ele>
        <time>2026-09-03T06:17:27.000Z</time>
        <extensions>
          <ns3:TrackPointExtension>
            <ns3:hr>136</ns3:hr>
            <ns3:cad>51</ns3:cad>
          </ns3:TrackPointExtension>
        </extensions>
      </trkpt>
      <trkpt lat="44.7100624255836009979248046875" lon="6.7456110008060932159423828125">
        <ele>1337</ele>
        <time>2026-09-03T06:17:28.000Z</time>
        <extensions>
          <ns3:TrackPointExtension>
            <ns3:hr>136</ns3:hr>
            <ns3:cad>0</ns3:cad>
          </ns3:TrackPointExtension>
        </extensions>
      </trkpt>
      <trkpt lat="44.7100652754306793212890625" lon="6.74562365747988224029541015625">
        <ele>1337.199951171875</ele>
        <time>2026-09-03T06:17:29.000Z</time>
        <extensions>
          <ns3:TrackPointExtension>
            <ns3:hr>137</ns3:hr>
            <ns3:cad>0</ns3:cad>
          </ns3:TrackPointExtension>
        </extensions>
      </trkpt>
      <trkpt lat="44.71006854437291622161865234375" lon="6.74564125947654247283935546875">
        <ele>1337.4000244140625</ele>
        <time>2026-09-03T06:17:30.000Z</time>
        <extensions>
          <ns3:TrackPointExtension>
            <ns3:hr>137</ns3:hr>
            <ns3:cad>0</ns3:cad>
          </ns3:TrackPointExtension>
        </extensions>
      </trkpt>
      <trkpt lat="44.710068963468074798583984375" lon="6.7456552572548389434814453125">
        <ele>1337.5999755859375</ele>
        <time>2026-09-03T06:17:31.000Z</time>
        <extensions>
          <ns3:TrackPointExtension>
            <ns3:hr>137</ns3:hr>
            <ns3:cad>0</ns3:cad>
          </ns3:TrackPointExtension>
        </extensions>
      </trkpt>
      <trkpt lat="44.7100708074867725372314453125" lon="6.74567445181310176849365234375">
        <ele>1337.800048828125</ele>
        <time>2026-09-03T06:17:32.000Z</time>
        <extensions>
          <ns3:TrackPointExtension>
            <ns3:hr>137</ns3:hr>
            <ns3:cad>0</ns3:cad>
          </ns3:TrackPointExtension>
        </extensions>
      </trkpt>
      <trkpt lat="44.710070975124835968017578125" lon="6.745692975819110870361328125">
        <ele>1337.800048828125</ele>
        <time>2026-09-03T06:17:33.000Z</time>
        <extensions>
          <ns3:TrackPointExtension>
            <ns3:hr>137</ns3:hr>
            <ns3:cad>0</ns3:cad>
          </ns3:TrackPointExtension>
        </extensions>
      </trkpt>
      <trkpt lat="44.71006921492516994476318359375" lon="6.74571166746318340301513671875">
        <ele>1338</ele>
        <time>2026-09-03T06:17:34.000Z</time>
        <extensions>
          <ns3:TrackPointExtension>
            <ns3:hr>137</ns3:hr>
            <ns3:cad>0</ns3:cad>
          </ns3:TrackPointExtension>
        </extensions>
      </trkpt>
      <trkpt lat="44.710066951811313629150390625" lon="6.745733208954334259033203125">
        <ele>1338.199951171875</ele>
        <time>2026-09-03T06:17:35.000Z</time>
        <extensions>
          <ns3:TrackPointExtension>
            <ns3:hr>137</ns3:hr>
            <ns3:cad>0</ns3:cad>
          </ns3:TrackPointExtension>
        </extensions>
      </trkpt>
      <trkpt lat="44.7100607492029666900634765625" lon="6.7457337118685245513916015625">
        <ele>1338.4000244140625</ele>
        <time>2026-09-03T06:17:36.000Z</time>
        <extensions>
          <ns3:TrackPointExtension>
            <ns3:hr>137</ns3:hr>
            <ns3:cad>0</ns3:cad>
          </ns3:TrackPointExtension>
        </extensions>
      </trkpt>
      <trkpt lat="44.71005161292850971221923828125" lon="6.745749972760677337646484375">
        <ele>1338.5999755859375</ele>
        <time>2026-09-03T06:17:37.000Z</time>
        <extensions>
          <ns3:TrackPointExtension>
            <ns3:hr>136</ns3:hr>
            <ns3:cad>0</ns3:cad>
          </ns3:TrackPointExtension>
        </extensions>
      </trkpt>
      <trkpt lat="44.71004909835755825042724609375" lon="6.74576112069189548492431640625">
        <ele>1338.800048828125</ele>
        <time>2026-09-03T06:17:38.000Z</time>
        <extensions>
          <ns3:TrackPointExtension>
            <ns3:hr>136</ns3:hr>
            <ns3:cad>0</ns3:cad>
          </ns3:TrackPointExtension>
        </extensions>
      </trkpt>
      <trkpt lat="44.71004155464470386505126953125" lon="6.74577184952795505523681640625">
        <ele>1339.199951171875</ele>
        <time>2026-09-03T06:17:39.000Z</time>
        <extensions>
          <ns3:TrackPointExtension>
            <ns3:hr>136</ns3:hr>
            <ns3:cad>0</ns3:cad>
          </ns3:TrackPointExtension>
        </extensions>
      </trkpt>
      <trkpt lat="44.71003971062600612640380859375" lon="6.74578224308788776397705078125">
        <ele>1339.4000244140625</ele>
        <time>2026-09-03T06:17:40.000Z</time>
        <extensions>
          <ns3:TrackPointExtension>
            <ns3:hr>137</ns3:hr>
            <ns3:cad>0</ns3:cad>
          </ns3:TrackPointExtension>
        </extensions>
      </trkpt>
      <trkpt lat="44.7100369445979595184326171875" lon="6.745801270008087158203125">
        <ele>1339.5999755859375</ele>
        <time>2026-09-03T06:17:41.000Z</time>
        <extensions>
          <ns3:TrackPointExtension>
            <ns3:hr>137</ns3:hr>
            <ns3:cad>0</ns3:cad>
          </ns3:TrackPointExtension>
        </extensions>
      </trkpt>
      <trkpt lat="44.71003417856991291046142578125" lon="6.74581468105316162109375">
        <ele>1339.800048828125</ele>
        <time>2026-09-03T06:17:42.000Z</time>
        <extensions>
          <ns3:TrackPointExtension>
            <ns3:hr>137</ns3:hr>
            <ns3:cad>0</ns3:cad>
          </ns3:TrackPointExtension>
        </extensions>
      </trkpt>
      <trkpt lat="44.7100357711315155029296875" lon="6.7458342947065830230712890625">
        <ele>1340</ele>
        <time>2026-09-03T06:17:43.000Z</time>
        <extensions>
          <ns3:TrackPointExtension>
            <ns3:hr>137</ns3:hr>
            <ns3:cad>0</ns3:cad>
          </ns3:TrackPointExtension>
        </extensions>
      </trkpt>
      <trkpt lat="44.710034430027008056640625" lon="6.74584913067519664764404296875">
        <ele>1340</ele>
        <time>2026-09-03T06:17:44.000Z</time>
        <extensions>
          <ns3:TrackPointExtension>
            <ns3:hr>137</ns3:hr>
            <ns3:cad>0</ns3:cad>
          </ns3:TrackPointExtension>
        </extensions>
      </trkpt>
      <trkpt lat="44.71003568731248378753662109375" lon="6.7458617873489856719970703125">
        <ele>1340.199951171875</ele>
        <time>2026-09-03T06:17:45.000Z</time>
        <extensions>
          <ns3:TrackPointExtension>
            <ns3:hr>137</ns3:hr>
            <ns3:cad>0</ns3:cad>
          </ns3:TrackPointExtension>
        </extensions>
      </trkpt>
      <trkpt lat="44.71003484912216663360595703125" lon="6.7458808980882167816162109375">
        <ele>1340.199951171875</ele>
        <time>2026-09-03T06:17:46.000Z</time>
        <extensions>
          <ns3:TrackPointExtension>
            <ns3:hr>137</ns3:hr>
            <ns3:cad>0</ns3:cad>
          </ns3:TrackPointExtension>
        </extensions>
      </trkpt>
      <trkpt lat="44.7100299037992954254150390625" lon="6.7458882741630077362060546875">
        <ele>1340.4000244140625</ele>
        <time>2026-09-03T06:17:47.000Z</time>
        <extensions>
          <ns3:TrackPointExtension>
            <ns3:hr>137</ns3:hr>
            <ns3:cad>0</ns3:cad>
          </ns3:TrackPointExtension>
        </extensions>
      </trkpt>
      <trkpt lat="44.710026718676090240478515625" lon="6.7459036968648433685302734375">
        <ele>1340.4000244140625</ele>
        <time>2026-09-03T06:17:48.000Z</time>
        <extensions>
          <ns3:TrackPointExtension>
            <ns3:hr>137</ns3:hr>
            <ns3:cad>0</ns3:cad>
          </ns3:TrackPointExtension>
        </extensions>
      </trkpt>
      <trkpt lat="44.71002713777124881744384765625" lon="6.7459120787680149078369140625">
        <ele>1340.5999755859375</ele>
        <time>2026-09-03T06:17:49.000Z</time>
        <extensions>
          <ns3:TrackPointExtension>
            <ns3:hr>137</ns3:hr>
            <ns3:cad>0</ns3:cad>
          </ns3:TrackPointExtension>
        </extensions>
      </trkpt>
      <trkpt lat="44.7100258804857730865478515625" lon="6.74592372961342334747314453125">
        <ele>1340.800048828125</ele>
        <time>2026-09-03T06:17:50.000Z</time>
        <extensions>
          <ns3:TrackPointExtension>
            <ns3:hr>137</ns3:hr>
            <ns3:cad>0</ns3:cad>
          </ns3:TrackPointExtension>
        </extensions>
      </trkpt>
      <trkpt lat="44.71002026461064815521240234375" lon="6.74593931995332241058349609375">
        <ele>1341</ele>
        <time>2026-09-03T06:17:51.000Z</time>
        <extensions>
          <ns3:TrackPointExtension>
            <ns3:hr>137</ns3:hr>
            <ns3:cad>0</ns3:cad>
          </ns3:TrackPointExtension>
        </extensions>
      </trkpt>
      <trkpt lat="44.71002562902867794036865234375" lon="6.7459570057690143585205078125">
        <ele>1341.199951171875</ele>
        <time>2026-09-03T06:17:52.000Z</time>
        <extensions>
          <ns3:TrackPointExtension>
            <ns3:hr>137</ns3:hr>
            <ns3:cad>0</ns3:cad>
          </ns3:TrackPointExtension>
        </extensions>
      </trkpt>
      <trkpt lat="44.71002428792417049407958984375" lon="6.74596421420574188232421875">
        <ele>1341.4000244140625</ele>
        <time>2026-09-03T06:17:53.000Z</time>
        <extensions>
          <ns3:TrackPointExtension>
            <ns3:hr>137</ns3:hr>
            <ns3:cad>0</ns3:cad>
          </ns3:TrackPointExtension>
        </extensions>
      </trkpt>
      <trkpt lat="44.710023365914821624755859375" lon="6.7459824867546558380126953125">
        <ele>1341.5999755859375</ele>
        <time>2026-09-03T06:17:54.000Z</time>
        <extensions>
          <ns3:TrackPointExtension>
            <ns3:hr>138</ns3:hr>
            <ns3:cad>0</ns3:cad>
          </ns3:TrackPointExtension>
        </extensions>
      </trkpt>
      <trkpt lat="44.71002797596156597137451171875" lon="6.745997406542301177978515625">
        <ele>1341.800048828125</ele>
        <time>2026-09-03T06:17:55.000Z</time>
        <extensions>
          <ns3:TrackPointExtension>
            <ns3:hr>138</ns3:hr>
            <ns3:cad>0</ns3:cad>
          </ns3:TrackPointExtension>
        </extensions>
      </trkpt>
      <trkpt lat="44.71002814359962940216064453125" lon="6.746016182005405426025390625">
        <ele>1342</ele>
        <time>2026-09-03T06:17:56.000Z</time>
        <extensions>
          <ns3:TrackPointExtension>
            <ns3:hr>138</ns3:hr>
            <ns3:cad>0</ns3:cad>
          </ns3:TrackPointExtension>
        </extensions>
      </trkpt>
      <trkpt lat="44.7100288979709148406982421875" lon="6.74603437073528766632080078125">
        <ele>1342</ele>
        <time>2026-09-03T06:17:57.000Z</time>
        <extensions>
          <ns3:TrackPointExtension>
            <ns3:hr>138</ns3:hr>
            <ns3:cad>0</ns3:cad>
          </ns3:TrackPointExtension>
        </extensions>
      </trkpt>
      <trkpt lat="44.7100275568664073944091796875" lon="6.74604308791458606719970703125">
        <ele>1342.199951171875</ele>
        <time>2026-09-03T06:17:58.000Z</time>
        <extensions>
          <ns3:TrackPointExtension>
            <ns3:hr>138</ns3:hr>
            <ns3:cad>0</ns3:cad>
          </ns3:TrackPointExtension>
        </extensions>
      </trkpt>
      <trkpt lat="44.71002613194286823272705078125" lon="6.7460601031780242919921875">
        <ele>1342.4000244140625</ele>
        <time>2026-09-03T06:17:59.000Z</time>
        <extensions>
          <ns3:TrackPointExtension>
            <ns3:hr>138</ns3:hr>
            <ns3:cad>0</ns3:cad>
          </ns3:TrackPointExtension>
        </extensions>
      </trkpt>
      <trkpt lat="44.71003166399896144866943359375" lon="6.74606923945248126983642578125">
        <ele>1342.4000244140625</ele>
        <time>2026-09-03T06:18:00.000Z</time>
        <extensions>
          <ns3:TrackPointExtension>
            <ns3:hr>137</ns3:hr>
            <ns3:cad>0</ns3:cad>
          </ns3:TrackPointExtension>
        </extensions>
      </trkpt>
      <trkpt lat="44.71003015525639057159423828125" lon="6.74608466215431690216064453125">
        <ele>1342.5999755859375</ele>
        <time>2026-09-03T06:18:01.000Z</time>
        <extensions>
          <ns3:TrackPointExtension>
            <ns3:hr>138</ns3:hr>
            <ns3:cad>0</ns3:cad>
          </ns3:TrackPointExtension>
        </extensions>
      </trkpt>
      <trkpt lat="44.71003082580864429473876953125" lon="6.74609757028520107269287109375">
        <ele>1342.800048828125</ele>
        <time>2026-09-03T06:18:02.000Z</time>
        <extensions>
          <ns3:TrackPointExtension>
            <ns3:hr>138</ns3:hr>
            <ns3:cad>0</ns3:cad>
          </ns3:TrackPointExtension>
        </extensions>
      </trkpt>
      <trkpt lat="44.71003049053251743316650390625" lon="6.7461152561008930206298828125">
        <ele>1343</ele>
        <time>2026-09-03T06:18:03.000Z</time>
        <extensions>
          <ns3:TrackPointExtension>
            <ns3:hr>137</ns3:hr>
            <ns3:cad>0</ns3:cad>
          </ns3:TrackPointExtension>
        </extensions>
      </trkpt>
      <trkpt lat="44.71003099344670772552490234375" lon="6.7461286671459674835205078125">
        <ele>1343.199951171875</ele>
        <time>2026-09-03T06:18:04.000Z</time>
        <extensions>
          <ns3:TrackPointExtension>
            <ns3:hr>138</ns3:hr>
            <ns3:cad>0</ns3:cad>
          </ns3:TrackPointExtension>
        </extensions>
      </trkpt>
      <trkpt lat="44.7100349329411983489990234375" lon="6.74614752642810344696044921875">
        <ele>1343.4000244140625</ele>
        <time>2026-09-03T06:18:05.000Z</time>
        <extensions>
          <ns3:TrackPointExtension>
            <ns3:hr>138</ns3:hr>
            <ns3:cad>0</ns3:cad>
          </ns3:TrackPointExtension>
        </extensions>
      </trkpt>
      <trkpt lat="44.7100376151502132415771484375" lon="6.74616135656833648681640625">
        <ele>1343.5999755859375</ele>
        <time>2026-09-03T06:18:06.000Z</time>
        <extensions>
          <ns3:TrackPointExtension>
            <ns3:hr>137</ns3:hr>
            <ns3:cad>40</ns3:cad>
          </ns3:TrackPointExtension>
        </extensions>
      </trkpt>
      <trkpt lat="44.71004289574921131134033203125" lon="6.7461742646992206573486328125">
        <ele>1343.800048828125</ele>
        <time>2026-09-03T06:18:07.000Z</time>
        <extensions>
          <ns3:TrackPointExtension>
            <ns3:hr>138</ns3:hr>
            <ns3:cad>40</ns3:cad>
          </ns3:TrackPointExtension>
        </extensions>
      </trkpt>
      <trkpt lat="44.71004541032016277313232421875" lon="6.7461930401623249053955078125">
        <ele>1344</ele>
        <time>2026-09-03T06:18:08.000Z</time>
        <extensions>
          <ns3:TrackPointExtension>
            <ns3:hr>137</ns3:hr>
            <ns3:cad>40</ns3:cad>
          </ns3:TrackPointExtension>
        </extensions>
      </trkpt>
      <trkpt lat="44.71004742197692394256591796875" lon="6.74620502628386020660400390625">
        <ele>1344.199951171875</ele>
        <time>2026-09-03T06:18:09.000Z</time>
        <extensions>
          <ns3:TrackPointExtension>
            <ns3:hr>137</ns3:hr>
            <ns3:cad>40</ns3:cad>
          </ns3:TrackPointExtension>
        </extensions>
      </trkpt>
      <trkpt lat="44.7100543789565563201904296875" lon="6.74622304737567901611328125">
        <ele>1344.199951171875</ele>
        <time>2026-09-03T06:18:10.000Z</time>
        <extensions>
          <ns3:TrackPointExtension>
            <ns3:hr>137</ns3:hr>
            <ns3:cad>41</ns3:cad>
          </ns3:TrackPointExtension>
        </extensions>
      </trkpt>
      <trkpt lat="44.71006183885037899017333984375" lon="6.74623268656432628631591796875">
        <ele>1344.4000244140625</ele>
        <time>2026-09-03T06:18:11.000Z</time>
        <extensions>
          <ns3:TrackPointExtension>
            <ns3:hr>137</ns3:hr>
            <ns3:cad>41</ns3:cad>
          </ns3:TrackPointExtension>
        </extensions>
      </trkpt>
      <trkpt lat="44.71006653271615505218505859375" lon="6.74625447951257228851318359375">
        <ele>1344.5999755859375</ele>
        <time>2026-09-03T06:18:12.000Z</time>
        <extensions>
          <ns3:TrackPointExtension>
            <ns3:hr>138</ns3:hr>
            <ns3:cad>41</ns3:cad>
          </ns3:TrackPointExtension>
        </extensions>
      </trkpt>
      <trkpt lat="44.710067622363567352294921875" lon="6.74626571126282215118408203125">
        <ele>1344.800048828125</ele>
        <time>2026-09-03T06:18:13.000Z</time>
        <extensions>
          <ns3:TrackPointExtension>
            <ns3:hr>137</ns3:hr>
            <ns3:cad>41</ns3:cad>
          </ns3:TrackPointExtension>
        </extensions>
      </trkpt>
      <trkpt lat="44.71006192266941070556640625" lon="6.746287755668163299560546875">
        <ele>1344.800048828125</ele>
        <time>2026-09-03T06:18:14.000Z</time>
        <extensions>
          <ns3:TrackPointExtension>
            <ns3:hr>138</ns3:hr>
            <ns3:cad>41</ns3:cad>
          </ns3:TrackPointExtension>
        </extensions>
      </trkpt>
      <trkpt lat="44.71006058156490325927734375" lon="6.74629940651357173919677734375">
        <ele>1345</ele>
        <time>2026-09-03T06:18:15.000Z</time>
        <extensions>
          <ns3:TrackPointExtension>
            <ns3:hr>138</ns3:hr>
            <ns3:cad>41</ns3:cad>
          </ns3:TrackPointExtension>
        </extensions>
      </trkpt>
      <trkpt lat="44.7100610844790935516357421875" lon="6.7463217861950397491455078125">
        <ele>1345.199951171875</ele>
        <time>2026-09-03T06:18:16.000Z</time>
        <extensions>
          <ns3:TrackPointExtension>
            <ns3:hr>139</ns3:hr>
            <ns3:cad>41</ns3:cad>
          </ns3:TrackPointExtension>
        </extensions>
      </trkpt>
      <trkpt lat="44.710064269602298736572265625" lon="6.74633611924946308135986328125">
        <ele>1345.4000244140625</ele>
        <time>2026-09-03T06:18:17.000Z</time>
        <extensions>
          <ns3:TrackPointExtension>
            <ns3:hr>139</ns3:hr>
            <ns3:cad>41</ns3:cad>
          </ns3:TrackPointExtension>
        </extensions>
      </trkpt>
      <trkpt lat="44.7100674547255039215087890625" lon="6.74634349532425403594970703125">
        <ele>1345.5999755859375</ele>
        <time>2026-09-03T06:18:18.000Z</time>
        <extensions>
          <ns3:TrackPointExtension>
            <ns3:hr>139</ns3:hr>
            <ns3:cad>0</ns3:cad>
          </ns3:TrackPointExtension>
        </extensions>
      </trkpt>
      <trkpt lat="44.71006837673485279083251953125" lon="6.746362857520580291748046875">
        <ele>1345.800048828125</ele>
        <time>2026-09-03T06:18:19.000Z</time>
        <extensions>
          <ns3:TrackPointExtension>
            <ns3:hr>139</ns3:hr>
            <ns3:cad>0</ns3:cad>
          </ns3:TrackPointExtension>
        </extensions>
      </trkpt>
      <trkpt lat="44.7100684605538845062255859375" lon="6.746366210281848907470703125">
        <ele>1346.199951171875</ele>
        <time>2026-09-03T06:18:20.000Z</time>
        <extensions>
          <ns3:TrackPointExtension>
            <ns3:hr>139</ns3:hr>
            <ns3:cad>0</ns3:cad>
          </ns3:TrackPointExtension>
        </extensions>
      </trkpt>
      <trkpt lat="44.710064269602298736572265625" lon="6.74637869931757450103759765625">
        <ele>1346.4000244140625</ele>
        <time>2026-09-03T06:18:21.000Z</time>
        <extensions>
          <ns3:TrackPointExtension>
            <ns3:hr>139</ns3:hr>
            <ns3:cad>0</ns3:cad>
          </ns3:TrackPointExtension>
        </extensions>
      </trkpt>
      <trkpt lat="44.71006535924971103668212890625" lon="6.74638255499303340911865234375">
        <ele>1346.5999755859375</ele>
        <time>2026-09-03T06:18:22.000Z</time>
        <extensions>
          <ns3:TrackPointExtension>
            <ns3:hr>139</ns3:hr>
            <ns3:cad>0</ns3:cad>
          </ns3:TrackPointExtension>
        </extensions>
      </trkpt>
      <trkpt lat="44.7100652754306793212890625" lon="6.7463911883533000946044921875">
        <ele>1347</ele>
        <time>2026-09-03T06:18:23.000Z</time>
        <extensions>
          <ns3:TrackPointExtension>
            <ns3:hr>139</ns3:hr>
            <ns3:cad>0</ns3:cad>
          </ns3:TrackPointExtension>
        </extensions>
      </trkpt>
      <trkpt lat="44.7100641019642353057861328125" lon="6.74640166573226451873779296875">
        <ele>1347.4000244140625</ele>
        <time>2026-09-03T06:18:24.000Z</time>
        <extensions>
          <ns3:TrackPointExtension>
            <ns3:hr>139</ns3:hr>
            <ns3:cad>0</ns3:cad>
          </ns3:TrackPointExtension>
        </extensions>
      </trkpt>
      <trkpt lat="44.71005253493785858154296875" lon="6.7464243806898593902587890625">
        <ele>1347.5999755859375</ele>
        <time>2026-09-03T06:18:25.000Z</time>
        <extensions>
          <ns3:TrackPointExtension>
            <ns3:hr>140</ns3:hr>
            <ns3:cad>0</ns3:cad>
          </ns3:TrackPointExtension>
        </extensions>
      </trkpt>
      <trkpt lat="44.710050858557224273681640625" lon="6.74643368460237979888916015625">
        <ele>1347.800048828125</ele>
        <time>2026-09-03T06:18:26.000Z</time>
        <extensions>
          <ns3:TrackPointExtension>
            <ns3:hr>139</ns3:hr>
            <ns3:cad>0</ns3:cad>
          </ns3:TrackPointExtension>
        </extensions>
      </trkpt>
      <trkpt lat="44.71004507504403591156005859375" lon="6.7464461736381053924560546875">
        <ele>1348</ele>
        <time>2026-09-03T06:18:27.000Z</time>
        <extensions>
          <ns3:TrackPointExtension>
            <ns3:hr>139</ns3:hr>
            <ns3:cad>0</ns3:cad>
          </ns3:TrackPointExtension>
        </extensions>
      </trkpt>
      <trkpt lat="44.7100416384637355804443359375" lon="6.74646017141640186309814453125">
        <ele>1348.199951171875</ele>
        <time>2026-09-03T06:18:28.000Z</time>
        <extensions>
          <ns3:TrackPointExtension>
            <ns3:hr>138</ns3:hr>
            <ns3:cad>0</ns3:cad>
          </ns3:TrackPointExtension>
        </extensions>
      </trkpt>
      <trkpt lat="44.71004172228276729583740234375" lon="6.746471486985683441162109375">
        <ele>1348.4000244140625</ele>
        <time>2026-09-03T06:18:29.000Z</time>
        <extensions>
          <ns3:TrackPointExtension>
            <ns3:hr>138</ns3:hr>
            <ns3:cad>0</ns3:cad>
          </ns3:TrackPointExtension>
        </extensions>
      </trkpt>
      <trkpt lat="44.71004172228276729583740234375" lon="6.74648498184978961944580078125">
        <ele>1348.5999755859375</ele>
        <time>2026-09-03T06:18:30.000Z</time>
        <extensions>
          <ns3:TrackPointExtension>
            <ns3:hr>137</ns3:hr>
            <ns3:cad>0</ns3:cad>
          </ns3:TrackPointExtension>
        </extensions>
      </trkpt>
      <trkpt lat="44.71004155464470386505126953125" lon="6.74648850224912166595458984375">
        <ele>1348.800048828125</ele>
        <time>2026-09-03T06:18:31.000Z</time>
        <extensions>
          <ns3:TrackPointExtension>
            <ns3:hr>137</ns3:hr>
            <ns3:cad>0</ns3:cad>
          </ns3:TrackPointExtension>
        </extensions>
      </trkpt>
      <trkpt lat="44.71003954298794269561767578125" lon="6.74650325439870357513427734375">
        <ele>1348.800048828125</ele>
        <time>2026-09-03T06:18:32.000Z</time>
        <extensions>
          <ns3:TrackPointExtension>
            <ns3:hr>137</ns3:hr>
            <ns3:cad>0</ns3:cad>
          </ns3:TrackPointExtension>
        </extensions>
      </trkpt>
      <trkpt lat="44.71003937534987926483154296875" lon="6.7465122230350971221923828125">
        <ele>1349</ele>
        <time>2026-09-03T06:18:33.000Z</time>
        <extensions>
          <ns3:TrackPointExtension>
            <ns3:hr>138</ns3:hr>
            <ns3:cad>42</ns3:cad>
          </ns3:TrackPointExtension>
        </extensions>
      </trkpt>
      <trkpt lat="44.710036106407642364501953125" lon="6.74652345478534698486328125">
        <ele>1349.199951171875</ele>
        <time>2026-09-03T06:18:34.000Z</time>
        <extensions>
          <ns3:TrackPointExtension>
            <ns3:hr>138</ns3:hr>
            <ns3:cad>42</ns3:cad>
          </ns3:TrackPointExtension>
        </extensions>
      </trkpt>
      <trkpt lat="44.71003233455121517181396484375" lon="6.7465336807072162628173828125">
        <ele>1349.4000244140625</ele>
        <time>2026-09-03T06:18:35.000Z</time>
        <extensions>
          <ns3:TrackPointExtension>
            <ns3:hr>138</ns3:hr>
            <ns3:cad>42</ns3:cad>
          </ns3:TrackPointExtension>
        </extensions>
      </trkpt>
      <trkpt lat="44.7100282274186611175537109375" lon="6.74654625356197357177734375">
        <ele>1349.5999755859375</ele>
        <time>2026-09-03T06:18:36.000Z</time>
        <extensions>
          <ns3:TrackPointExtension>
            <ns3:hr>138</ns3:hr>
            <ns3:cad>42</ns3:cad>
          </ns3:TrackPointExtension>
        </extensions>
      </trkpt>
      <trkpt lat="44.7100208513438701629638671875" lon="6.746548600494861602783203125">
        <ele>1349.5999755859375</ele>
        <time>2026-09-03T06:18:37.000Z</time>
        <extensions>
          <ns3:TrackPointExtension>
            <ns3:hr>138</ns3:hr>
            <ns3:cad>42</ns3:cad>
          </ns3:TrackPointExtension>
        </extensions>
      </trkpt>
      <trkpt lat="44.710010625422000885009765625" lon="6.74655622802674770355224609375">
        <ele>1349.800048828125</ele>
        <time>2026-09-03T06:18:38.000Z</time>
        <extensions>
          <ns3:TrackPointExtension>
            <ns3:hr>138</ns3:hr>
            <ns3:cad>0</ns3:cad>
          </ns3:TrackPointExtension>
        </extensions>
      </trkpt>
      <trkpt lat="44.7100014053285121917724609375" lon="6.7465675435960292816162109375">
        <ele>1350</ele>
        <time>2026-09-03T06:18:39.000Z</time>
        <extensions>
          <ns3:TrackPointExtension>
            <ns3:hr>137</ns3:hr>
            <ns3:cad>0</ns3:cad>
          </ns3:TrackPointExtension>
        </extensions>
      </trkpt>
      <trkpt lat="44.70999562181532382965087890625" lon="6.746574081480503082275390625">
        <ele>1350.199951171875</ele>
        <time>2026-09-03T06:18:40.000Z</time>
        <extensions>
          <ns3:TrackPointExtension>
            <ns3:hr>138</ns3:hr>
            <ns3:cad>0</ns3:cad>
          </ns3:TrackPointExtension>
        </extensions>
      </trkpt>
      <trkpt lat="44.70998774282634258270263671875" lon="6.74658204428851604461669921875">
        <ele>1350.199951171875</ele>
        <time>2026-09-03T06:18:41.000Z</time>
        <extensions>
          <ns3:TrackPointExtension>
            <ns3:hr>137</ns3:hr>
            <ns3:cad>0</ns3:cad>
          </ns3:TrackPointExtension>
        </extensions>
      </trkpt>
      <trkpt lat="44.70999025739729404449462890625" lon="6.746580787003040313720703125">
        <ele>1350.4000244140625</ele>
        <time>2026-09-03T06:18:42.000Z</time>
        <extensions>
          <ns3:TrackPointExtension>
            <ns3:hr>137</ns3:hr>
            <ns3:cad>0</ns3:cad>
          </ns3:TrackPointExtension>
        </extensions>
      </trkpt>
      <trkpt lat="44.70998824574053287506103515625" lon="6.74658355303108692169189453125">
        <ele>1350.800048828125</ele>
        <time>2026-09-03T06:18:43.000Z</time>
        <extensions>
          <ns3:TrackPointExtension>
            <ns3:hr>137</ns3:hr>
            <ns3:cad>0</ns3:cad>
          </ns3:TrackPointExtension>
        </extensions>
      </trkpt>
      <trkpt lat="44.709987156093120574951171875" lon="6.74658774398267269134521484375">
        <ele>1351</ele>
        <time>2026-09-03T06:18:44.000Z</time>
        <extensions>
          <ns3:TrackPointExtension>
            <ns3:hr>138</ns3:hr>
            <ns3:cad>0</ns3:cad>
          </ns3:TrackPointExtension>
        </extensions>
      </trkpt>
      <trkpt lat="44.70997500233352184295654296875" lon="6.74660400487482547760009765625">
        <ele>1351.199951171875</ele>
        <time>2026-09-03T06:18:45.000Z</time>
        <extensions>
          <ns3:TrackPointExtension>
            <ns3:hr>137</ns3:hr>
            <ns3:cad>0</ns3:cad>
          </ns3:TrackPointExtension>
        </extensions>
      </trkpt>
      <trkpt lat="44.7099705599248409271240234375" lon="6.7466047592461109161376953125">
        <ele>1351.4000244140625</ele>
        <time>2026-09-03T06:18:46.000Z</time>
        <extensions>
          <ns3:TrackPointExtension>
            <ns3:hr>137</ns3:hr>
            <ns3:cad>0</ns3:cad>
          </ns3:TrackPointExtension>
        </extensions>
      </trkpt>
      <trkpt lat="44.7099618427455425262451171875" lon="6.7466198466718196868896484375">
        <ele>1351.800048828125</ele>
        <time>2026-09-03T06:18:47.000Z</time>
        <extensions>
          <ns3:TrackPointExtension>
            <ns3:hr>138</ns3:hr>
            <ns3:cad>0</ns3:cad>
          </ns3:TrackPointExtension>
        </extensions>
      </trkpt>
      <trkpt lat="44.7099553048610687255859375" lon="6.74663216806948184967041015625">
        <ele>1352</ele>
        <time>2026-09-03T06:18:48.000Z</time>
        <extensions>
          <ns3:TrackPointExtension>
            <ns3:hr>137</ns3:hr>
            <ns3:cad>0</ns3:cad>
          </ns3:TrackPointExtension>
        </extensions>
      </trkpt>
      <trkpt lat="44.70995270647108554840087890625" lon="6.74664054997265338897705078125">
        <ele>1352.199951171875</ele>
        <time>2026-09-03T06:18:49.000Z</time>
        <extensions>
          <ns3:TrackPointExtension>
            <ns3:hr>137</ns3:hr>
            <ns3:cad>0</ns3:cad>
          </ns3:TrackPointExtension>
        </extensions>
      </trkpt>
      <trkpt lat="44.7099450789391994476318359375" lon="6.74665161408483982086181640625">
        <ele>1352.4000244140625</ele>
        <time>2026-09-03T06:18:50.000Z</time>
        <extensions>
          <ns3:TrackPointExtension>
            <ns3:hr>137</ns3:hr>
            <ns3:cad>0</ns3:cad>
          </ns3:TrackPointExtension>
        </extensions>
      </trkpt>
      <trkpt lat="44.70994348637759685516357421875" lon="6.74665429629385471343994140625">
        <ele>1352.5999755859375</ele>
        <time>2026-09-03T06:18:51.000Z</time>
        <extensions>
          <ns3:TrackPointExtension>
            <ns3:hr>137</ns3:hr>
            <ns3:cad>0</ns3:cad>
          </ns3:TrackPointExtension>
        </extensions>
      </trkpt>
      <trkpt lat="44.70993988215923309326171875" lon="6.7466657795011997222900390625">
        <ele>1352.800048828125</ele>
        <time>2026-09-03T06:18:52.000Z</time>
        <extensions>
          <ns3:TrackPointExtension>
            <ns3:hr>137</ns3:hr>
            <ns3:cad>0</ns3:cad>
          </ns3:TrackPointExtension>
        </extensions>
      </trkpt>
      <trkpt lat="44.70994214527308940887451171875" lon="6.7466765083372592926025390625">
        <ele>1353.199951171875</ele>
        <time>2026-09-03T06:18:53.000Z</time>
        <extensions>
          <ns3:TrackPointExtension>
            <ns3:hr>137</ns3:hr>
            <ns3:cad>0</ns3:cad>
          </ns3:TrackPointExtension>
        </extensions>
      </trkpt>
      <trkpt lat="44.70994801260530948638916015625" lon="6.74669235013425350189208984375">
        <ele>1353.4000244140625</ele>
        <time>2026-09-03T06:18:54.000Z</time>
        <extensions>
          <ns3:TrackPointExtension>
            <ns3:hr>137</ns3:hr>
            <ns3:cad>0</ns3:cad>
          </ns3:TrackPointExtension>
        </extensions>
      </trkpt>
      <trkpt lat="44.70994918607175350189208984375" lon="6.74670425243675708770751953125">
        <ele>1353.5999755859375</ele>
        <time>2026-09-03T06:18:55.000Z</time>
        <extensions>
          <ns3:TrackPointExtension>
            <ns3:hr>136</ns3:hr>
            <ns3:cad>0</ns3:cad>
          </ns3:TrackPointExtension>
        </extensions>
      </trkpt>
      <trkpt lat="44.70995195209980010986328125" lon="6.7467137239873409271240234375">
        <ele>1353.800048828125</ele>
        <time>2026-09-03T06:18:56.000Z</time>
        <extensions>
          <ns3:TrackPointExtension>
            <ns3:hr>136</ns3:hr>
            <ns3:cad>0</ns3:cad>
          </ns3:TrackPointExtension>
        </extensions>
      </trkpt>
      <trkpt lat="44.70995505340397357940673828125" lon="6.74672403372824192047119140625">
        <ele>1354</ele>
        <time>2026-09-03T06:18:57.000Z</time>
        <extensions>
          <ns3:TrackPointExtension>
            <ns3:hr>136</ns3:hr>
            <ns3:cad>0</ns3:cad>
          </ns3:TrackPointExtension>
        </extensions>
      </trkpt>
      <trkpt lat="44.70995639450848102569580078125" lon="6.74673107452690601348876953125">
        <ele>1354</ele>
        <time>2026-09-03T06:18:58.000Z</time>
        <extensions>
          <ns3:TrackPointExtension>
            <ns3:hr>136</ns3:hr>
            <ns3:cad>0</ns3:cad>
          </ns3:TrackPointExtension>
        </extensions>
      </trkpt>
      <trkpt lat="44.709955640137195587158203125" lon="6.74675018526613712310791015625">
        <ele>1354.4000244140625</ele>
        <time>2026-09-03T06:18:59.000Z</time>
        <extensions>
          <ns3:TrackPointExtension>
            <ns3:hr>136</ns3:hr>
            <ns3:cad>0</ns3:cad>
          </ns3:TrackPointExtension>
        </extensions>
      </trkpt>
      <trkpt lat="44.7099558077752590179443359375" lon="6.7467586509883403778076171875">
        <ele>1354.5999755859375</ele>
        <time>2026-09-03T06:19:00.000Z</time>
        <extensions>
          <ns3:TrackPointExtension>
            <ns3:hr>135</ns3:hr>
            <ns3:cad>0</ns3:cad>
          </ns3:TrackPointExtension>
        </extensions>
      </trkpt>
      <trkpt lat="44.70994985662400722503662109375" lon="6.74677348695695400238037109375">
        <ele>1354.800048828125</ele>
        <time>2026-09-03T06:19:01.000Z</time>
        <extensions>
          <ns3:TrackPointExtension>
            <ns3:hr>135</ns3:hr>
            <ns3:cad>0</ns3:cad>
          </ns3:TrackPointExtension>
        </extensions>
      </trkpt>
      <trkpt lat="44.7099548019468784332275390625" lon="6.74678237177431583404541015625">
        <ele>1355</ele>
        <time>2026-09-03T06:19:02.000Z</time>
        <extensions>
          <ns3:TrackPointExtension>
            <ns3:hr>135</ns3:hr>
            <ns3:cad>0</ns3:cad>
          </ns3:TrackPointExtension>
        </extensions>
      </trkpt>
      <trkpt lat="44.7099464200437068939208984375" lon="6.74679360352456569671630859375">
        <ele>1355.199951171875</ele>
        <time>2026-09-03T06:19:03.000Z</time>
        <extensions>
          <ns3:TrackPointExtension>
            <ns3:hr>135</ns3:hr>
            <ns3:cad>0</ns3:cad>
          </ns3:TrackPointExtension>
        </extensions>
      </trkpt>
      <trkpt lat="44.70994180999696254730224609375" lon="6.74679142422974109649658203125">
        <ele>1355.4000244140625</ele>
        <time>2026-09-03T06:19:04.000Z</time>
        <extensions>
          <ns3:TrackPointExtension>
            <ns3:hr>135</ns3:hr>
            <ns3:cad>0</ns3:cad>
          </ns3:TrackPointExtension>
        </extensions>
      </trkpt>
      <trkpt lat="44.70993711613118648529052734375" lon="6.74678572453558444976806640625">
        <ele>1355.5999755859375</ele>
        <time>2026-09-03T06:19:05.000Z</time>
        <extensions>
          <ns3:TrackPointExtension>
            <ns3:hr>135</ns3:hr>
            <ns3:cad>0</ns3:cad>
          </ns3:TrackPointExtension>
        </extensions>
      </trkpt>
      <trkpt lat="44.709931500256061553955078125" lon="6.74678019247949123382568359375">
        <ele>1355.800048828125</ele>
        <time>2026-09-03T06:19:06.000Z</time>
        <extensions>
          <ns3:TrackPointExtension>
            <ns3:hr>135</ns3:hr>
            <ns3:cad>0</ns3:cad>
          </ns3:TrackPointExtension>
        </extensions>
      </trkpt>
      <trkpt lat="44.70992253161966800689697265625" lon="6.7467837966978549957275390625">
        <ele>1356</ele>
        <time>2026-09-03T06:19:07.000Z</time>
        <extensions>
          <ns3:TrackPointExtension>
            <ns3:hr>134</ns3:hr>
            <ns3:cad>0</ns3:cad>
          </ns3:TrackPointExtension>
        </extensions>
      </trkpt>
      <trkpt lat="44.70991398207843303680419921875" lon="6.7467814497649669647216796875">
        <ele>1356.199951171875</ele>
        <time>2026-09-03T06:19:08.000Z</time>
        <extensions>
          <ns3:TrackPointExtension>
            <ns3:hr>135</ns3:hr>
            <ns3:cad>0</ns3:cad>
          </ns3:TrackPointExtension>
        </extensions>
      </trkpt>
      <trkpt lat="44.70990895293653011322021484375" lon="6.7467804439365863800048828125">
        <ele>1356.4000244140625</ele>
        <time>2026-09-03T06:19:09.000Z</time>
        <extensions>
          <ns3:TrackPointExtension>
            <ns3:hr>135</ns3:hr>
            <ns3:cad>0</ns3:cad>
          </ns3:TrackPointExtension>
        </extensions>
      </trkpt>
      <trkpt lat="44.70990425907075405120849609375" lon="6.74677700735628604888916015625">
        <ele>1356.5999755859375</ele>
        <time>2026-09-03T06:19:10.000Z</time>
        <extensions>
          <ns3:TrackPointExtension>
            <ns3:hr>135</ns3:hr>
            <ns3:cad>0</ns3:cad>
          </ns3:TrackPointExtension>
        </extensions>
      </trkpt>
      <trkpt lat="44.70989654771983623504638671875" lon="6.7467700503766536712646484375">
        <ele>1356.800048828125</ele>
        <time>2026-09-03T06:19:11.000Z</time>
        <extensions>
          <ns3:TrackPointExtension>
            <ns3:hr>135</ns3:hr>
            <ns3:cad>0</ns3:cad>
          </ns3:TrackPointExtension>
        </extensions>
      </trkpt>
      <trkpt lat="44.7098887525498867034912109375" lon="6.74676275812089443206787109375">
        <ele>1357</ele>
        <time>2026-09-03T06:19:12.000Z</time>
        <extensions>
          <ns3:TrackPointExtension>
            <ns3:hr>135</ns3:hr>
            <ns3:cad>0</ns3:cad>
          </ns3:TrackPointExtension>
        </extensions>
      </trkpt>
      <trkpt lat="44.70988162793219089508056640625" lon="6.74675471149384975433349609375">
        <ele>1357.199951171875</ele>
        <time>2026-09-03T06:19:13.000Z</time>
        <extensions>
          <ns3:TrackPointExtension>
            <ns3:hr>136</ns3:hr>
            <ns3:cad>0</ns3:cad>
          </ns3:TrackPointExtension>
        </extensions>
      </trkpt>
      <trkpt lat="44.70987844280898571014404296875" lon="6.7467506043612957000732421875">
        <ele>1357.4000244140625</ele>
        <time>2026-09-03T06:19:14.000Z</time>
        <extensions>
          <ns3:TrackPointExtension>
            <ns3:hr>136</ns3:hr>
            <ns3:cad>0</ns3:cad>
          </ns3:TrackPointExtension>
        </extensions>
      </trkpt>
      <trkpt lat="44.709868133068084716796875" lon="6.7467495985329151153564453125">
        <ele>1357.5999755859375</ele>
        <time>2026-09-03T06:19:15.000Z</time>
        <extensions>
          <ns3:TrackPointExtension>
            <ns3:hr>136</ns3:hr>
            <ns3:cad>0</ns3:cad>
          </ns3:TrackPointExtension>
        </extensions>
      </trkpt>
      <trkpt lat="44.7098626010119915008544921875" lon="6.746750771999359130859375">
        <ele>1357.800048828125</ele>
        <time>2026-09-03T06:19:16.000Z</time>
        <extensions>
          <ns3:TrackPointExtension>
            <ns3:hr>135</ns3:hr>
            <ns3:cad>0</ns3:cad>
          </ns3:TrackPointExtension>
        </extensions>
      </trkpt>
      <trkpt lat="44.7098475135862827301025390625" lon="6.74674582667648792266845703125">
        <ele>1358</ele>
        <time>2026-09-03T06:19:17.000Z</time>
        <extensions>
          <ns3:TrackPointExtension>
            <ns3:hr>136</ns3:hr>
            <ns3:cad>0</ns3:cad>
          </ns3:TrackPointExtension>
        </extensions>
      </trkpt>
      <trkpt lat="44.709838964045047760009765625" lon="6.74674205482006072998046875">
        <ele>1358.199951171875</ele>
        <time>2026-09-03T06:19:18.000Z</time>
        <extensions>
          <ns3:TrackPointExtension>
            <ns3:hr>136</ns3:hr>
            <ns3:cad>0</ns3:cad>
          </ns3:TrackPointExtension>
        </extensions>
      </trkpt>
      <trkpt lat="44.709832258522510528564453125" lon="6.7467333376407623291015625">
        <ele>1358.4000244140625</ele>
        <time>2026-09-03T06:19:19.000Z</time>
        <extensions>
          <ns3:TrackPointExtension>
            <ns3:hr>135</ns3:hr>
            <ns3:cad>0</ns3:cad>
          </ns3:TrackPointExtension>
        </extensions>
      </trkpt>
      <trkpt lat="44.709822870790958404541015625" lon="6.74672705121338367462158203125">
        <ele>1358.5999755859375</ele>
        <time>2026-09-03T06:19:20.000Z</time>
        <extensions>
          <ns3:TrackPointExtension>
            <ns3:hr>136</ns3:hr>
            <ns3:cad>0</ns3:cad>
          </ns3:TrackPointExtension>
        </extensions>
      </trkpt>
      <trkpt lat="44.70981926657259464263916015625" lon="6.7467194236814975738525390625">
        <ele>1359</ele>
        <time>2026-09-03T06:19:21.000Z</time>
        <extensions>
          <ns3:TrackPointExtension>
            <ns3:hr>136</ns3:hr>
            <ns3:cad>0</ns3:cad>
          </ns3:TrackPointExtension>
        </extensions>
      </trkpt>
      <trkpt lat="44.709815494716167449951171875" lon="6.746715568006038665771484375">
        <ele>1359</ele>
        <time>2026-09-03T06:19:22.000Z</time>
        <extensions>
          <ns3:TrackPointExtension>
            <ns3:hr>136</ns3:hr>
            <ns3:cad>0</ns3:cad>
          </ns3:TrackPointExtension>
        </extensions>
      </trkpt>
      <trkpt lat="44.70981205813586711883544921875" lon="6.746713556349277496337890625">
        <ele>1359.199951171875</ele>
        <time>2026-09-03T06:19:23.000Z</time>
        <extensions>
          <ns3:TrackPointExtension>
            <ns3:hr>136</ns3:hr>
            <ns3:cad>0</ns3:cad>
          </ns3:TrackPointExtension>
        </extensions>
      </trkpt>
      <trkpt lat="44.70980669371783733367919921875" lon="6.74671866931021213531494140625">
        <ele>1359.4000244140625</ele>
        <time>2026-09-03T06:19:24.000Z</time>
        <extensions>
          <ns3:TrackPointExtension>
            <ns3:hr>135</ns3:hr>
            <ns3:cad>0</ns3:cad>
          </ns3:TrackPointExtension>
        </extensions>
      </trkpt>
      <trkpt lat="44.7097985632717609405517578125" lon="6.74672487191855907440185546875">
        <ele>1359.5999755859375</ele>
        <time>2026-09-03T06:19:25.000Z</time>
        <extensions>
          <ns3:TrackPointExtension>
            <ns3:hr>135</ns3:hr>
            <ns3:cad>51</ns3:cad>
          </ns3:TrackPointExtension>
        </extensions>
      </trkpt>
      <trkpt lat="44.7097942046821117401123046875" lon="6.7467279732227325439453125">
        <ele>1359.800048828125</ele>
        <time>2026-09-03T06:19:26.000Z</time>
        <extensions>
          <ns3:TrackPointExtension>
            <ns3:hr>135</ns3:hr>
            <ns3:cad>51</ns3:cad>
          </ns3:TrackPointExtension>
        </extensions>
      </trkpt>
      <trkpt lat="44.7097905166447162628173828125" lon="6.74673208035528659820556640625">
        <ele>1360</ele>
        <time>2026-09-03T06:19:27.000Z</time>
        <extensions>
          <ns3:TrackPointExtension>
            <ns3:hr>135</ns3:hr>
            <ns3:cad>0</ns3:cad>
          </ns3:TrackPointExtension>
        </extensions>
      </trkpt>
      <trkpt lat="44.709790013730525970458984375" lon="6.74673493020236492156982421875">
        <ele>1360.199951171875</ele>
        <time>2026-09-03T06:19:28.000Z</time>
        <extensions>
          <ns3:TrackPointExtension>
            <ns3:hr>135</ns3:hr>
            <ns3:cad>0</ns3:cad>
          </ns3:TrackPointExtension>
        </extensions>
      </trkpt>
      <trkpt lat="44.70979445613920688629150390625" lon="6.74674113281071186065673828125">
        <ele>1360.4000244140625</ele>
        <time>2026-09-03T06:19:29.000Z</time>
        <extensions>
          <ns3:TrackPointExtension>
            <ns3:hr>135</ns3:hr>
            <ns3:cad>0</ns3:cad>
          </ns3:TrackPointExtension>
        </extensions>
      </trkpt>
      <trkpt lat="44.70979831181466579437255859375" lon="6.74675018526613712310791015625">
        <ele>1360.5999755859375</ele>
        <time>2026-09-03T06:19:30.000Z</time>
        <extensions>
          <ns3:TrackPointExtension>
            <ns3:hr>136</ns3:hr>
            <ns3:cad>0</ns3:cad>
          </ns3:TrackPointExtension>
        </extensions>
      </trkpt>
      <trkpt lat="44.7098062746226787567138671875" lon="6.7467563040554523468017578125">
        <ele>1360.800048828125</ele>
        <time>2026-09-03T06:19:31.000Z</time>
        <extensions>
          <ns3:TrackPointExtension>
            <ns3:hr>136</ns3:hr>
            <ns3:cad>0</ns3:cad>
          </ns3:TrackPointExtension>
        </extensions>
      </trkpt>
      <trkpt lat="44.70980803482234477996826171875" lon="6.746763177216053009033203125">
        <ele>1360.800048828125</ele>
        <time>2026-09-03T06:19:32.000Z</time>
        <extensions>
          <ns3:TrackPointExtension>
            <ns3:hr>136</ns3:hr>
            <ns3:cad>0</ns3:cad>
          </ns3:TrackPointExtension>
        </extensions>
      </trkpt>
      <trkpt lat="44.70981339924037456512451171875" lon="6.74677248112857341766357421875">
        <ele>1361</ele>
        <time>2026-09-03T06:19:33.000Z</time>
        <extensions>
          <ns3:TrackPointExtension>
            <ns3:hr>136</ns3:hr>
            <ns3:cad>0</ns3:cad>
          </ns3:TrackPointExtension>
        </extensions>
      </trkpt>
      <trkpt lat="44.709818176925182342529296875" lon="6.746785305440425872802734375">
        <ele>1361.199951171875</ele>
        <time>2026-09-03T06:19:34.000Z</time>
        <extensions>
          <ns3:TrackPointExtension>
            <ns3:hr>136</ns3:hr>
            <ns3:cad>0</ns3:cad>
          </ns3:TrackPointExtension>
        </extensions>
      </trkpt>
      <trkpt lat="44.70981624908745288848876953125" lon="6.74679527990520000457763671875">
        <ele>1361.4000244140625</ele>
        <time>2026-09-03T06:19:35.000Z</time>
        <extensions>
          <ns3:TrackPointExtension>
            <ns3:hr>137</ns3:hr>
            <ns3:cad>0</ns3:cad>
          </ns3:TrackPointExtension>
        </extensions>
      </trkpt>
      <trkpt lat="44.70982999540865421295166015625" lon="6.7468109540641307830810546875">
        <ele>1361.4000244140625</ele>
        <time>2026-09-03T06:19:36.000Z</time>
        <extensions>
          <ns3:TrackPointExtension>
            <ns3:hr>137</ns3:hr>
            <ns3:cad>0</ns3:cad>
          </ns3:TrackPointExtension>
        </extensions>
      </trkpt>
      <trkpt lat="44.70983737148344516754150390625" lon="6.74681791104376316070556640625">
        <ele>1361.800048828125</ele>
        <time>2026-09-03T06:19:37.000Z</time>
        <extensions>
          <ns3:TrackPointExtension>
            <ns3:hr>136</ns3:hr>
            <ns3:cad>0</ns3:cad>
          </ns3:TrackPointExtension>
        </extensions>
      </trkpt>
      <trkpt lat="44.70984323881566524505615234375" lon="6.74682478420436382293701171875">
        <ele>1361.800048828125</ele>
        <time>2026-09-03T06:19:38.000Z</time>
        <extensions>
          <ns3:TrackPointExtension>
            <ns3:hr>136</ns3:hr>
            <ns3:cad>0</ns3:cad>
          </ns3:TrackPointExtension>
        </extensions>
      </trkpt>
      <trkpt lat="44.70984994433820247650146484375" lon="6.74682931043207645416259765625">
        <ele>1362</ele>
        <time>2026-09-03T06:19:39.000Z</time>
        <extensions>
          <ns3:TrackPointExtension>
            <ns3:hr>136</ns3:hr>
            <ns3:cad>0</ns3:cad>
          </ns3:TrackPointExtension>
        </extensions>
      </trkpt>
      <trkpt lat="44.709851033985614776611328125" lon="6.74683031626045703887939453125">
        <ele>1362.199951171875</ele>
        <time>2026-09-03T06:19:40.000Z</time>
        <extensions>
          <ns3:TrackPointExtension>
            <ns3:hr>135</ns3:hr>
            <ns3:cad>0</ns3:cad>
          </ns3:TrackPointExtension>
        </extensions>
      </trkpt>
      <trkpt lat="44.7098589129745960235595703125" lon="6.7468459904193878173828125">
        <ele>1362.4000244140625</ele>
        <time>2026-09-03T06:19:41.000Z</time>
        <extensions>
          <ns3:TrackPointExtension>
            <ns3:hr>135</ns3:hr>
            <ns3:cad>0</ns3:cad>
          </ns3:TrackPointExtension>
        </extensions>
      </trkpt>
      <trkpt lat="44.709861762821674346923828125" lon="6.7468468286097049713134765625">
        <ele>1362.5999755859375</ele>
        <time>2026-09-03T06:19:42.000Z</time>
        <extensions>
          <ns3:TrackPointExtension>
            <ns3:hr>134</ns3:hr>
            <ns3:cad>0</ns3:cad>
          </ns3:TrackPointExtension>
        </extensions>
      </trkpt>
      <trkpt lat="44.7098666243255138397216796875" lon="6.74685680307447910308837890625">
        <ele>1362.800048828125</ele>
        <time>2026-09-03T06:19:43.000Z</time>
        <extensions>
          <ns3:TrackPointExtension>
            <ns3:hr>134</ns3:hr>
            <ns3:cad>0</ns3:cad>
          </ns3:TrackPointExtension>
        </extensions>
      </trkpt>
      <trkpt lat="44.7098679654300212860107421875" lon="6.74686468206346035003662109375">
        <ele>1363</ele>
        <time>2026-09-03T06:19:44.000Z</time>
        <extensions>
          <ns3:TrackPointExtension>
            <ns3:hr>133</ns3:hr>
            <ns3:cad>0</ns3:cad>
          </ns3:TrackPointExtension>
        </extensions>
      </trkpt>
      <trkpt lat="44.70987073145806789398193359375" lon="6.7468743212521076202392578125">
        <ele>1363.199951171875</ele>
        <time>2026-09-03T06:19:45.000Z</time>
        <extensions>
          <ns3:TrackPointExtension>
            <ns3:hr>133</ns3:hr>
            <ns3:cad>0</ns3:cad>
          </ns3:TrackPointExtension>
        </extensions>
      </trkpt>
      <trkpt lat="44.70987685024738311767578125" lon="6.746884547173976898193359375">
        <ele>1363.4000244140625</ele>
        <time>2026-09-03T06:19:46.000Z</time>
        <extensions>
          <ns3:TrackPointExtension>
            <ns3:hr>133</ns3:hr>
            <ns3:cad>0</ns3:cad>
          </ns3:TrackPointExtension>
        </extensions>
      </trkpt>
      <trkpt lat="44.7098770178854465484619140625" lon="6.74689318053424358367919921875">
        <ele>1363.5999755859375</ele>
        <time>2026-09-03T06:19:47.000Z</time>
        <extensions>
          <ns3:TrackPointExtension>
            <ns3:hr>132</ns3:hr>
            <ns3:cad>0</ns3:cad>
          </ns3:TrackPointExtension>
        </extensions>
      </trkpt>
      <trkpt lat="44.709879197180271148681640625" lon="6.7469023168087005615234375">
        <ele>1363.800048828125</ele>
        <time>2026-09-03T06:19:48.000Z</time>
        <extensions>
          <ns3:TrackPointExtension>
            <ns3:hr>132</ns3:hr>
            <ns3:cad>0</ns3:cad>
          </ns3:TrackPointExtension>
        </extensions>
      </trkpt>
      <trkpt lat="44.70987928099930286407470703125" lon="6.74690927378833293914794921875">
        <ele>1364</ele>
        <time>2026-09-03T06:19:49.000Z</time>
        <extensions>
          <ns3:TrackPointExtension>
            <ns3:hr>132</ns3:hr>
            <ns3:cad>0</ns3:cad>
          </ns3:TrackPointExtension>
        </extensions>
      </trkpt>
      <trkpt lat="44.70987861044704914093017578125" lon="6.746920086443424224853515625">
        <ele>1364.4000244140625</ele>
        <time>2026-09-03T06:19:50.000Z</time>
        <extensions>
          <ns3:TrackPointExtension>
            <ns3:hr>132</ns3:hr>
            <ns3:cad>0</ns3:cad>
          </ns3:TrackPointExtension>
        </extensions>
      </trkpt>
      <trkpt lat="44.709881879389286041259765625" lon="6.7469256184995174407958984375">
        <ele>1364.5999755859375</ele>
        <time>2026-09-03T06:19:51.000Z</time>
        <extensions>
          <ns3:TrackPointExtension>
            <ns3:hr>132</ns3:hr>
            <ns3:cad>0</ns3:cad>
          </ns3:TrackPointExtension>
        </extensions>
      </trkpt>
      <trkpt lat="44.70987894572317600250244140625" lon="6.746930815279483795166015625">
        <ele>1364.800048828125</ele>
        <time>2026-09-03T06:19:52.000Z</time>
        <extensions>
          <ns3:TrackPointExtension>
            <ns3:hr>132</ns3:hr>
            <ns3:cad>0</ns3:cad>
          </ns3:TrackPointExtension>
        </extensions>
      </trkpt>
      <trkpt lat="44.709878526628017425537109375" lon="6.74694514833390712738037109375">
        <ele>1365</ele>
        <time>2026-09-03T06:19:53.000Z</time>
        <extensions>
          <ns3:TrackPointExtension>
            <ns3:hr>132</ns3:hr>
            <ns3:cad>0</ns3:cad>
          </ns3:TrackPointExtension>
        </extensions>
      </trkpt>
      <trkpt lat="44.70987844280898571014404296875" lon="6.74694950692355632781982421875">
        <ele>1365.199951171875</ele>
        <time>2026-09-03T06:19:54.000Z</time>
        <extensions>
          <ns3:TrackPointExtension>
            <ns3:hr>132</ns3:hr>
            <ns3:cad>0</ns3:cad>
          </ns3:TrackPointExtension>
        </extensions>
      </trkpt>
      <trkpt lat="44.709878861904144287109375" lon="6.74696375615894794464111328125">
        <ele>1365.5999755859375</ele>
        <time>2026-09-03T06:19:55.000Z</time>
        <extensions>
          <ns3:TrackPointExtension>
            <ns3:hr>132</ns3:hr>
            <ns3:cad>0</ns3:cad>
          </ns3:TrackPointExtension>
        </extensions>
      </trkpt>
      <trkpt lat="44.7098760120570659637451171875" lon="6.746977753937244415283203125">
        <ele>1365.800048828125</ele>
        <time>2026-09-03T06:19:56.000Z</time>
        <extensions>
          <ns3:TrackPointExtension>
            <ns3:hr>132</ns3:hr>
            <ns3:cad>0</ns3:cad>
          </ns3:TrackPointExtension>
        </extensions>
      </trkpt>
      <trkpt lat="44.70987995155155658721923828125" lon="6.7469782568514347076416015625">
        <ele>1366</ele>
        <time>2026-09-03T06:19:57.000Z</time>
        <extensions>
          <ns3:TrackPointExtension>
            <ns3:hr>132</ns3:hr>
            <ns3:cad>0</ns3:cad>
          </ns3:TrackPointExtension>
        </extensions>
      </trkpt>
      <trkpt lat="44.709881879389286041259765625" lon="6.74699258990585803985595703125">
        <ele>1366.4000244140625</ele>
        <time>2026-09-03T06:19:58.000Z</time>
        <extensions>
          <ns3:TrackPointExtension>
            <ns3:hr>132</ns3:hr>
            <ns3:cad>0</ns3:cad>
          </ns3:TrackPointExtension>
        </extensions>
      </trkpt>
      <trkpt lat="44.70988246612250804901123046875" lon="6.74700113944709300994873046875">
        <ele>1366.5999755859375</ele>
        <time>2026-09-03T06:19:59.000Z</time>
        <extensions>
          <ns3:TrackPointExtension>
            <ns3:hr>132</ns3:hr>
            <ns3:cad>0</ns3:cad>
          </ns3:TrackPointExtension>
        </extensions>
      </trkpt>
      <trkpt lat="44.7098748385906219482421875" lon="6.747017316520214080810546875">
        <ele>1366.800048828125</ele>
        <time>2026-09-03T06:20:00.000Z</time>
        <extensions>
          <ns3:TrackPointExtension>
            <ns3:hr>132</ns3:hr>
            <ns3:cad>0</ns3:cad>
          </ns3:TrackPointExtension>
        </extensions>
      </trkpt>
      <trkpt lat="44.709874503314495086669921875" lon="6.74702703952789306640625">
        <ele>1367.199951171875</ele>
        <time>2026-09-03T06:20:01.000Z</time>
        <extensions>
          <ns3:TrackPointExtension>
            <ns3:hr>132</ns3:hr>
            <ns3:cad>0</ns3:cad>
          </ns3:TrackPointExtension>
        </extensions>
      </trkpt>
      <trkpt lat="44.70987140201032161712646484375" lon="6.7470305599272251129150390625">
        <ele>1367.4000244140625</ele>
        <time>2026-09-03T06:20:02.000Z</time>
        <extensions>
          <ns3:TrackPointExtension>
            <ns3:hr>133</ns3:hr>
            <ns3:cad>0</ns3:cad>
          </ns3:TrackPointExtension>
        </extensions>
      </trkpt>
      <trkpt lat="44.70986788161098957061767578125" lon="6.74703936092555522918701171875">
        <ele>1367.5999755859375</ele>
        <time>2026-09-03T06:20:03.000Z</time>
        <extensions>
          <ns3:TrackPointExtension>
            <ns3:hr>133</ns3:hr>
            <ns3:cad>0</ns3:cad>
          </ns3:TrackPointExtension>
        </extensions>
      </trkpt>
      <trkpt lat="44.70986804924905300140380859375" lon="6.7470493353903293609619140625">
        <ele>1367.800048828125</ele>
        <time>2026-09-03T06:20:04.000Z</time>
        <extensions>
          <ns3:TrackPointExtension>
            <ns3:hr>133</ns3:hr>
            <ns3:cad>75</ns3:cad>
          </ns3:TrackPointExtension>
        </extensions>
      </trkpt>
      <trkpt lat="44.7098667919635772705078125" lon="6.74705453217029571533203125">
        <ele>1368</ele>
        <time>2026-09-03T06:20:05.000Z</time>
        <extensions>
          <ns3:TrackPointExtension>
            <ns3:hr>134</ns3:hr>
            <ns3:cad>75</ns3:cad>
          </ns3:TrackPointExtension>
        </extensions>
      </trkpt>
      <trkpt lat="44.70986737869679927825927734375" lon="6.7470563761889934539794921875">
        <ele>1368.199951171875</ele>
        <time>2026-09-03T06:20:06.000Z</time>
        <extensions>
          <ns3:TrackPointExtension>
            <ns3:hr>134</ns3:hr>
            <ns3:cad>0</ns3:cad>
          </ns3:TrackPointExtension>
        </extensions>
      </trkpt>
      <trkpt lat="44.7098667919635772705078125" lon="6.74706785939633846282958984375">
        <ele>1368.5999755859375</ele>
        <time>2026-09-03T06:20:07.000Z</time>
        <extensions>
          <ns3:TrackPointExtension>
            <ns3:hr>135</ns3:hr>
            <ns3:cad>0</ns3:cad>
          </ns3:TrackPointExtension>
        </extensions>
      </trkpt>
      <trkpt lat="44.70986603759229183197021484375" lon="6.747076325118541717529296875">
        <ele>1368.800048828125</ele>
        <time>2026-09-03T06:20:08.000Z</time>
        <extensions>
          <ns3:TrackPointExtension>
            <ns3:hr>135</ns3:hr>
            <ns3:cad>0</ns3:cad>
          </ns3:TrackPointExtension>
        </extensions>
      </trkpt>
      <trkpt lat="44.70987039618194103240966796875" lon="6.7470848746597766876220703125">
        <ele>1368.800048828125</ele>
        <time>2026-09-03T06:20:09.000Z</time>
        <extensions>
          <ns3:TrackPointExtension>
            <ns3:hr>135</ns3:hr>
            <ns3:cad>0</ns3:cad>
          </ns3:TrackPointExtension>
        </extensions>
      </trkpt>
      <trkpt lat="44.70987358130514621734619140625" lon="6.74709535203874111175537109375">
        <ele>1369</ele>
        <time>2026-09-03T06:20:10.000Z</time>
        <extensions>
          <ns3:TrackPointExtension>
            <ns3:hr>135</ns3:hr>
            <ns3:cad>59</ns3:cad>
          </ns3:TrackPointExtension>
        </extensions>
      </trkpt>
      <trkpt lat="44.70987894572317600250244140625" lon="6.74710591323673725128173828125">
        <ele>1369.199951171875</ele>
        <time>2026-09-03T06:20:11.000Z</time>
        <extensions>
          <ns3:TrackPointExtension>
            <ns3:hr>136</ns3:hr>
            <ns3:cad>59</ns3:cad>
          </ns3:TrackPointExtension>
        </extensions>
      </trkpt>
      <trkpt lat="44.70988280139863491058349609375" lon="6.7471190728247165679931640625">
        <ele>1369.199951171875</ele>
        <time>2026-09-03T06:20:12.000Z</time>
        <extensions>
          <ns3:TrackPointExtension>
            <ns3:hr>136</ns3:hr>
            <ns3:cad>0</ns3:cad>
          </ns3:TrackPointExtension>
        </extensions>
      </trkpt>
      <trkpt lat="44.7098874114453792572021484375" lon="6.7471308074891567230224609375">
        <ele>1369.199951171875</ele>
        <time>2026-09-03T06:20:13.000Z</time>
        <extensions>
          <ns3:TrackPointExtension>
            <ns3:hr>136</ns3:hr>
            <ns3:cad>0</ns3:cad>
          </ns3:TrackPointExtension>
        </extensions>
      </trkpt>
      <trkpt lat="44.7098941169679164886474609375" lon="6.74714480526745319366455078125">
        <ele>1369.199951171875</ele>
        <time>2026-09-03T06:20:14.000Z</time>
        <extensions>
          <ns3:TrackPointExtension>
            <ns3:hr>136</ns3:hr>
            <ns3:cad>0</ns3:cad>
          </ns3:TrackPointExtension>
        </extensions>
      </trkpt>
      <trkpt lat="44.7098967991769313812255859375" lon="6.7471552826464176177978515625">
        <ele>1369.199951171875</ele>
        <time>2026-09-03T06:20:15.000Z</time>
        <extensions>
          <ns3:TrackPointExtension>
            <ns3:hr>137</ns3:hr>
            <ns3:cad>0</ns3:cad>
          </ns3:TrackPointExtension>
        </extensions>
      </trkpt>
      <trkpt lat="44.70989922992885112762451171875" lon="6.7471566237509250640869140625">
        <ele>1369</ele>
        <time>2026-09-03T06:20:16.000Z</time>
        <extensions>
          <ns3:TrackPointExtension>
            <ns3:hr>137</ns3:hr>
            <ns3:cad>0</ns3:cad>
          </ns3:TrackPointExtension>
        </extensions>
      </trkpt>
      <trkpt lat="44.70989906229078769683837890625" lon="6.7471603117883205413818359375">
        <ele>1369</ele>
        <time>2026-09-03T06:20:17.000Z</time>
        <extensions>
          <ns3:TrackPointExtension>
            <ns3:hr>138</ns3:hr>
            <ns3:cad>0</ns3:cad>
          </ns3:TrackPointExtension>
        </extensions>
      </trkpt>
      <trkpt lat="44.70989805646240711212158203125" lon="6.747160144150257110595703125">
        <ele>1369</ele>
        <time>2026-09-03T06:20:18.000Z</time>
        <extensions>
          <ns3:TrackPointExtension>
            <ns3:hr>140</ns3:hr>
            <ns3:cad>0</ns3:cad>
          </ns3:TrackPointExtension>
        </extensions>
      </trkpt>
      <trkpt lat="44.7098981402814388275146484375" lon="6.747169531881809234619140625">
        <ele>1369</ele>
        <time>2026-09-03T06:20:19.000Z</time>
        <extensions>
          <ns3:TrackPointExtension>
            <ns3:hr>141</ns3:hr>
            <ns3:cad>0</ns3:cad>
          </ns3:TrackPointExtension>
        </extensions>
      </trkpt>
      <trkpt lat="44.7098917700350284576416015625" lon="6.74718369729816913604736328125">
        <ele>1369</ele>
        <time>2026-09-03T06:20:20.000Z</time>
        <extensions>
          <ns3:TrackPointExtension>
            <ns3:hr>142</ns3:hr>
            <ns3:cad>0</ns3:cad>
          </ns3:TrackPointExtension>
        </extensions>
      </trkpt>
      <trkpt lat="44.709887914359569549560546875" lon="6.74719811417162418365478515625">
        <ele>1369.199951171875</ele>
        <time>2026-09-03T06:20:21.000Z</time>
        <extensions>
          <ns3:TrackPointExtension>
            <ns3:hr>142</ns3:hr>
            <ns3:cad>0</ns3:cad>
          </ns3:TrackPointExtension>
        </extensions>
      </trkpt>
      <trkpt lat="44.70988766290247440338134765625" lon="6.7472027242183685302734375">
        <ele>1369.199951171875</ele>
        <time>2026-09-03T06:20:22.000Z</time>
        <extensions>
          <ns3:TrackPointExtension>
            <ns3:hr>142</ns3:hr>
            <ns3:cad>0</ns3:cad>
          </ns3:TrackPointExtension>
        </extensions>
      </trkpt>
      <trkpt lat="44.70988062210381031036376953125" lon="6.74721571616828441619873046875">
        <ele>1369.4000244140625</ele>
        <time>2026-09-03T06:20:23.000Z</time>
        <extensions>
          <ns3:TrackPointExtension>
            <ns3:hr>142</ns3:hr>
            <ns3:cad>0</ns3:cad>
          </ns3:TrackPointExtension>
        </extensions>
      </trkpt>
      <trkpt lat="44.70988280139863491058349609375" lon="6.74722191877663135528564453125">
        <ele>1369.5999755859375</ele>
        <time>2026-09-03T06:20:24.000Z</time>
        <extensions>
          <ns3:TrackPointExtension>
            <ns3:hr>142</ns3:hr>
            <ns3:cad>0</ns3:cad>
          </ns3:TrackPointExtension>
        </extensions>
      </trkpt>
      <trkpt lat="44.7098790295422077178955078125" lon="6.747226528823375701904296875">
        <ele>1369.800048828125</ele>
        <time>2026-09-03T06:20:25.000Z</time>
        <extensions>
          <ns3:TrackPointExtension>
            <ns3:hr>142</ns3:hr>
            <ns3:cad>0</ns3:cad>
          </ns3:TrackPointExtension>
        </extensions>
      </trkpt>
      <trkpt lat="44.7098773531615734100341796875" lon="6.747233904898166656494140625">
        <ele>1370</ele>
        <time>2026-09-03T06:20:26.000Z</time>
        <extensions>
          <ns3:TrackPointExtension>
            <ns3:hr>142</ns3:hr>
            <ns3:cad>47</ns3:cad>
          </ns3:TrackPointExtension>
        </extensions>
      </trkpt>
      <trkpt lat="44.70987617969512939453125" lon="6.747229881584644317626953125">
        <ele>1370.199951171875</ele>
        <time>2026-09-03T06:20:27.000Z</time>
        <extensions>
          <ns3:TrackPointExtension>
            <ns3:hr>142</ns3:hr>
            <ns3:cad>47</ns3:cad>
          </ns3:TrackPointExtension>
        </extensions>
      </trkpt>
      <trkpt lat="44.7098656184971332550048828125" lon="6.7472344078123569488525390625">
        <ele>1370.5999755859375</ele>
        <time>2026-09-03T06:20:28.000Z</time>
        <extensions>
          <ns3:TrackPointExtension>
            <ns3:hr>142</ns3:hr>
            <ns3:cad>0</ns3:cad>
          </ns3:TrackPointExtension>
        </extensions>
      </trkpt>
      <trkpt lat="44.709859080612659454345703125" lon="6.74724052660167217254638671875">
        <ele>1370.800048828125</ele>
        <time>2026-09-03T06:20:29.000Z</time>
        <extensions>
          <ns3:TrackPointExtension>
            <ns3:hr>141</ns3:hr>
            <ns3:cad>0</ns3:cad>
          </ns3:TrackPointExtension>
        </extensions>
      </trkpt>
      <trkpt lat="44.7098505310714244842529296875" lon="6.74724765121936798095703125">
        <ele>1371</ele>
        <time>2026-09-03T06:20:30.000Z</time>
        <extensions>
          <ns3:TrackPointExtension>
            <ns3:hr>140</ns3:hr>
            <ns3:cad>0</ns3:cad>
          </ns3:TrackPointExtension>
        </extensions>
      </trkpt>
      <trkpt lat="44.70985312946140766143798828125" lon="6.74725544638931751251220703125">
        <ele>1371.4000244140625</ele>
        <time>2026-09-03T06:20:31.000Z</time>
        <extensions>
          <ns3:TrackPointExtension>
            <ns3:hr>139</ns3:hr>
            <ns3:cad>0</ns3:cad>
          </ns3:TrackPointExtension>
        </extensions>
      </trkpt>
      <trkpt lat="44.7098488546907901763916015625" lon="6.74726307392120361328125">
        <ele>1371.5999755859375</ele>
        <time>2026-09-03T06:20:32.000Z</time>
        <extensions>
          <ns3:TrackPointExtension>
            <ns3:hr>139</ns3:hr>
            <ns3:cad>0</ns3:cad>
          </ns3:TrackPointExtension>
        </extensions>
      </trkpt>
      <trkpt lat="44.7098424844443798065185546875" lon="6.7472712881863117218017578125">
        <ele>1371.800048828125</ele>
        <time>2026-09-03T06:20:33.000Z</time>
        <extensions>
          <ns3:TrackPointExtension>
            <ns3:hr>138</ns3:hr>
            <ns3:cad>0</ns3:cad>
          </ns3:TrackPointExtension>
        </extensions>
      </trkpt>
      <trkpt lat="44.70983988605439662933349609375" lon="6.7472766526043415069580078125">
        <ele>1372</ele>
        <time>2026-09-03T06:20:34.000Z</time>
        <extensions>
          <ns3:TrackPointExtension>
            <ns3:hr>138</ns3:hr>
            <ns3:cad>0</ns3:cad>
          </ns3:TrackPointExtension>
        </extensions>
      </trkpt>
      <trkpt lat="44.7098324261605739593505859375" lon="6.747283525764942169189453125">
        <ele>1372.199951171875</ele>
        <time>2026-09-03T06:20:35.000Z</time>
        <extensions>
          <ns3:TrackPointExtension>
            <ns3:hr>137</ns3:hr>
            <ns3:cad>0</ns3:cad>
          </ns3:TrackPointExtension>
        </extensions>
      </trkpt>
      <trkpt lat="44.70982412807643413543701171875" lon="6.747291572391986846923828125">
        <ele>1372.4000244140625</ele>
        <time>2026-09-03T06:20:36.000Z</time>
        <extensions>
          <ns3:TrackPointExtension>
            <ns3:hr>138</ns3:hr>
            <ns3:cad>0</ns3:cad>
          </ns3:TrackPointExtension>
        </extensions>
      </trkpt>
      <trkpt lat="44.70981926657259464263916015625" lon="6.74729316495358943939208984375">
        <ele>1372.5999755859375</ele>
        <time>2026-09-03T06:20:37.000Z</time>
        <extensions>
          <ns3:TrackPointExtension>
            <ns3:hr>138</ns3:hr>
            <ns3:cad>0</ns3:cad>
          </ns3:TrackPointExtension>
        </extensions>
      </trkpt>
      <trkpt lat="44.70980954356491565704345703125" lon="6.7473017983138561248779296875">
        <ele>1372.800048828125</ele>
        <time>2026-09-03T06:20:38.000Z</time>
        <extensions>
          <ns3:TrackPointExtension>
            <ns3:hr>139</ns3:hr>
            <ns3:cad>0</ns3:cad>
          </ns3:TrackPointExtension>
        </extensions>
      </trkpt>
      <trkpt lat="44.7097997367382049560546875" lon="6.747312359511852264404296875">
        <ele>1373</ele>
        <time>2026-09-03T06:20:39.000Z</time>
        <extensions>
          <ns3:TrackPointExtension>
            <ns3:hr>140</ns3:hr>
            <ns3:cad>0</ns3:cad>
          </ns3:TrackPointExtension>
        </extensions>
      </trkpt>
      <trkpt lat="44.70979546196758747100830078125" lon="6.74731068313121795654296875">
        <ele>1373.199951171875</ele>
        <time>2026-09-03T06:20:40.000Z</time>
        <extensions>
          <ns3:TrackPointExtension>
            <ns3:hr>140</ns3:hr>
            <ns3:cad>49</ns3:cad>
          </ns3:TrackPointExtension>
        </extensions>
      </trkpt>
      <trkpt lat="44.70979060046374797821044921875" lon="6.74732409417629241943359375">
        <ele>1373.4000244140625</ele>
        <time>2026-09-03T06:20:41.000Z</time>
        <extensions>
          <ns3:TrackPointExtension>
            <ns3:hr>140</ns3:hr>
            <ns3:cad>49</ns3:cad>
          </ns3:TrackPointExtension>
        </extensions>
      </trkpt>
      <trkpt lat="44.70978791825473308563232421875" lon="6.74732618965208530426025390625">
        <ele>1373.800048828125</ele>
        <time>2026-09-03T06:20:42.000Z</time>
        <extensions>
          <ns3:TrackPointExtension>
            <ns3:hr>141</ns3:hr>
            <ns3:cad>0</ns3:cad>
          </ns3:TrackPointExtension>
        </extensions>
      </trkpt>
      <trkpt lat="44.7097757644951343536376953125" lon="6.7473386786878108978271484375">
        <ele>1374</ele>
        <time>2026-09-03T06:20:43.000Z</time>
        <extensions>
          <ns3:TrackPointExtension>
            <ns3:hr>141</ns3:hr>
            <ns3:cad>0</ns3:cad>
          </ns3:TrackPointExtension>
        </extensions>
      </trkpt>
      <trkpt lat="44.7097660414874553680419921875" lon="6.747345887124538421630859375">
        <ele>1374.199951171875</ele>
        <time>2026-09-03T06:20:44.000Z</time>
        <extensions>
          <ns3:TrackPointExtension>
            <ns3:hr>141</ns3:hr>
            <ns3:cad>0</ns3:cad>
          </ns3:TrackPointExtension>
        </extensions>
      </trkpt>
      <trkpt lat="44.7097596712410449981689453125" lon="6.74735091626644134521484375">
        <ele>1374.5999755859375</ele>
        <time>2026-09-03T06:20:45.000Z</time>
        <extensions>
          <ns3:TrackPointExtension>
            <ns3:hr>140</ns3:hr>
            <ns3:cad>0</ns3:cad>
          </ns3:TrackPointExtension>
        </extensions>
      </trkpt>
      <trkpt lat="44.70975556410849094390869140625" lon="6.74735904671251773834228515625">
        <ele>1374.5999755859375</ele>
        <time>2026-09-03T06:20:46.000Z</time>
        <extensions>
          <ns3:TrackPointExtension>
            <ns3:hr>140</ns3:hr>
            <ns3:cad>0</ns3:cad>
          </ns3:TrackPointExtension>
        </extensions>
      </trkpt>
      <trkpt lat="44.70975372008979320526123046875" lon="6.7473577894270420074462890625">
        <ele>1374.800048828125</ele>
        <time>2026-09-03T06:20:47.000Z</time>
        <extensions>
          <ns3:TrackPointExtension>
            <ns3:hr>140</ns3:hr>
            <ns3:cad>0</ns3:cad>
          </ns3:TrackPointExtension>
        </extensions>
      </trkpt>
      <trkpt lat="44.70975170843303203582763671875" lon="6.747361980378627777099609375">
        <ele>1375</ele>
        <time>2026-09-03T06:20:48.000Z</time>
        <extensions>
          <ns3:TrackPointExtension>
            <ns3:hr>140</ns3:hr>
            <ns3:cad>0</ns3:cad>
          </ns3:TrackPointExtension>
        </extensions>
      </trkpt>
      <trkpt lat="44.70975372008979320526123046875" lon="6.747368015348911285400390625">
        <ele>1375</ele>
        <time>2026-09-03T06:20:49.000Z</time>
        <extensions>
          <ns3:TrackPointExtension>
            <ns3:hr>139</ns3:hr>
            <ns3:cad>0</ns3:cad>
          </ns3:TrackPointExtension>
        </extensions>
      </trkpt>
      <trkpt lat="44.70975422300398349761962890625" lon="6.7473832704126834869384765625">
        <ele>1375.199951171875</ele>
        <time>2026-09-03T06:20:50.000Z</time>
        <extensions>
          <ns3:TrackPointExtension>
            <ns3:hr>139</ns3:hr>
            <ns3:cad>0</ns3:cad>
          </ns3:TrackPointExtension>
        </extensions>
      </trkpt>
      <trkpt lat="44.7097616828978061676025390625" lon="6.74739425070583820343017578125">
        <ele>1375.4000244140625</ele>
        <time>2026-09-03T06:20:51.000Z</time>
        <extensions>
          <ns3:TrackPointExtension>
            <ns3:hr>139</ns3:hr>
            <ns3:cad>0</ns3:cad>
          </ns3:TrackPointExtension>
        </extensions>
      </trkpt>
      <trkpt lat="44.70976914279162883758544921875" lon="6.7474030517041683197021484375">
        <ele>1375.5999755859375</ele>
        <time>2026-09-03T06:20:52.000Z</time>
        <extensions>
          <ns3:TrackPointExtension>
            <ns3:hr>139</ns3:hr>
            <ns3:cad>0</ns3:cad>
          </ns3:TrackPointExtension>
        </extensions>
      </trkpt>
      <trkpt lat="44.7097754292190074920654296875" lon="6.74741101451218128204345703125">
        <ele>1375.800048828125</ele>
        <time>2026-09-03T06:20:53.000Z</time>
        <extensions>
          <ns3:TrackPointExtension>
            <ns3:hr>139</ns3:hr>
            <ns3:cad>0</ns3:cad>
          </ns3:TrackPointExtension>
        </extensions>
      </trkpt>
      <trkpt lat="44.70977735705673694610595703125" lon="6.74741218797862529754638671875">
        <ele>1376.199951171875</ele>
        <time>2026-09-03T06:20:54.000Z</time>
        <extensions>
          <ns3:TrackPointExtension>
            <ns3:hr>139</ns3:hr>
            <ns3:cad>0</ns3:cad>
          </ns3:TrackPointExtension>
        </extensions>
      </trkpt>
      <trkpt lat="44.70977718941867351531982421875" lon="6.74741637893021106719970703125">
        <ele>1376.4000244140625</ele>
        <time>2026-09-03T06:20:55.000Z</time>
        <extensions>
          <ns3:TrackPointExtension>
            <ns3:hr>138</ns3:hr>
            <ns3:cad>76</ns3:cad>
          </ns3:TrackPointExtension>
        </extensions>
      </trkpt>
      <trkpt lat="44.70977450720965862274169921875" lon="6.747423671185970306396484375">
        <ele>1376.5999755859375</ele>
        <time>2026-09-03T06:20:56.000Z</time>
        <extensions>
          <ns3:TrackPointExtension>
            <ns3:hr>138</ns3:hr>
            <ns3:cad>76</ns3:cad>
          </ns3:TrackPointExtension>
        </extensions>
      </trkpt>
      <trkpt lat="44.70977366901934146881103515625" lon="6.74742828123271465301513671875">
        <ele>1377</ele>
        <time>2026-09-03T06:20:57.000Z</time>
        <extensions>
          <ns3:TrackPointExtension>
            <ns3:hr>138</ns3:hr>
            <ns3:cad>0</ns3:cad>
          </ns3:TrackPointExtension>
        </extensions>
      </trkpt>
      <trkpt lat="44.7097702324390411376953125" lon="6.74743716605007648468017578125">
        <ele>1377.199951171875</ele>
        <time>2026-09-03T06:20:58.000Z</time>
        <extensions>
          <ns3:TrackPointExtension>
            <ns3:hr>137</ns3:hr>
            <ns3:cad>0</ns3:cad>
          </ns3:TrackPointExtension>
        </extensions>
      </trkpt>
      <trkpt lat="44.7097675502300262451171875" lon="6.74744303338229656219482421875">
        <ele>1377.5999755859375</ele>
        <time>2026-09-03T06:20:59.000Z</time>
        <extensions>
          <ns3:TrackPointExtension>
            <ns3:hr>137</ns3:hr>
            <ns3:cad>0</ns3:cad>
          </ns3:TrackPointExtension>
        </extensions>
      </trkpt>
      <trkpt lat="44.70976428128778934478759765625" lon="6.74744973890483379364013671875">
        <ele>1377.800048828125</ele>
        <time>2026-09-03T06:21:00.000Z</time>
        <extensions>
          <ns3:TrackPointExtension>
            <ns3:hr>135</ns3:hr>
            <ns3:cad>0</ns3:cad>
          </ns3:TrackPointExtension>
        </extensions>
      </trkpt>
      <trkpt lat="44.709761850535869598388671875" lon="6.74745996482670307159423828125">
        <ele>1378</ele>
        <time>2026-09-03T06:21:01.000Z</time>
        <extensions>
          <ns3:TrackPointExtension>
            <ns3:hr>132</ns3:hr>
            <ns3:cad>0</ns3:cad>
          </ns3:TrackPointExtension>
        </extensions>
      </trkpt>
      <trkpt lat="44.7097579948604106903076171875" lon="6.7474630661308765411376953125">
        <ele>1378.199951171875</ele>
        <time>2026-09-03T06:21:02.000Z</time>
        <extensions>
          <ns3:TrackPointExtension>
            <ns3:hr>132</ns3:hr>
            <ns3:cad>0</ns3:cad>
          </ns3:TrackPointExtension>
        </extensions>
      </trkpt>
      <trkpt lat="44.7097529657185077667236328125" lon="6.74746314994990825653076171875">
        <ele>1378.4000244140625</ele>
        <time>2026-09-03T06:21:03.000Z</time>
        <extensions>
          <ns3:TrackPointExtension>
            <ns3:hr>133</ns3:hr>
            <ns3:cad>0</ns3:cad>
          </ns3:TrackPointExtension>
        </extensions>
      </trkpt>
      <trkpt lat="44.709747768938541412353515625" lon="6.747464574873447418212890625">
        <ele>1378.5999755859375</ele>
        <time>2026-09-03T06:21:04.000Z</time>
        <extensions>
          <ns3:TrackPointExtension>
            <ns3:hr>133</ns3:hr>
            <ns3:cad>0</ns3:cad>
          </ns3:TrackPointExtension>
        </extensions>
      </trkpt>
      <trkpt lat="44.70973662100732326507568359375" lon="6.74745946191251277923583984375">
        <ele>1378.800048828125</ele>
        <time>2026-09-03T06:21:05.000Z</time>
        <extensions>
          <ns3:TrackPointExtension>
            <ns3:hr>133</ns3:hr>
            <ns3:cad>0</ns3:cad>
          </ns3:TrackPointExtension>
        </extensions>
      </trkpt>
      <trkpt lat="44.70972740091383457183837890625" lon="6.74746465869247913360595703125">
        <ele>1379</ele>
        <time>2026-09-03T06:21:06.000Z</time>
        <extensions>
          <ns3:TrackPointExtension>
            <ns3:hr>134</ns3:hr>
            <ns3:cad>0</ns3:cad>
          </ns3:TrackPointExtension>
        </extensions>
      </trkpt>
      <trkpt lat="44.70972086302936077117919921875" lon="6.74746851436793804168701171875">
        <ele>1379.199951171875</ele>
        <time>2026-09-03T06:21:07.000Z</time>
        <extensions>
          <ns3:TrackPointExtension>
            <ns3:hr>134</ns3:hr>
            <ns3:cad>0</ns3:cad>
          </ns3:TrackPointExtension>
        </extensions>
      </trkpt>
      <trkpt lat="44.70971901901066303253173828125" lon="6.7474677599966526031494140625">
        <ele>1379.4000244140625</ele>
        <time>2026-09-03T06:21:08.000Z</time>
        <extensions>
          <ns3:TrackPointExtension>
            <ns3:hr>136</ns3:hr>
            <ns3:cad>0</ns3:cad>
          </ns3:TrackPointExtension>
        </extensions>
      </trkpt>
      <trkpt lat="44.7097085416316986083984375" lon="6.74747102893888950347900390625">
        <ele>1379.5999755859375</ele>
        <time>2026-09-03T06:21:09.000Z</time>
        <extensions>
          <ns3:TrackPointExtension>
            <ns3:hr>138</ns3:hr>
            <ns3:cad>0</ns3:cad>
          </ns3:TrackPointExtension>
        </extensions>
      </trkpt>
      <trkpt lat="44.70970158465206623077392578125" lon="6.74747622571885585784912109375">
        <ele>1379.800048828125</ele>
        <time>2026-09-03T06:21:10.000Z</time>
        <extensions>
          <ns3:TrackPointExtension>
            <ns3:hr>138</ns3:hr>
            <ns3:cad>0</ns3:cad>
          </ns3:TrackPointExtension>
        </extensions>
      </trkpt>
      <trkpt lat="44.7096976451575756072998046875" lon="6.7474784888327121734619140625">
        <ele>1380</ele>
        <time>2026-09-03T06:21:11.000Z</time>
        <extensions>
          <ns3:TrackPointExtension>
            <ns3:hr>138</ns3:hr>
            <ns3:cad>0</ns3:cad>
          </ns3:TrackPointExtension>
        </extensions>
      </trkpt>
      <trkpt lat="44.7096897661685943603515625" lon="6.74748041667044162750244140625">
        <ele>1380.199951171875</ele>
        <time>2026-09-03T06:21:12.000Z</time>
        <extensions>
          <ns3:TrackPointExtension>
            <ns3:hr>139</ns3:hr>
            <ns3:cad>0</ns3:cad>
          </ns3:TrackPointExtension>
        </extensions>
      </trkpt>
      <trkpt lat="44.7096897661685943603515625" lon="6.74748427234590053558349609375">
        <ele>1380.4000244140625</ele>
        <time>2026-09-03T06:21:13.000Z</time>
        <extensions>
          <ns3:TrackPointExtension>
            <ns3:hr>139</ns3:hr>
            <ns3:cad>0</ns3:cad>
          </ns3:TrackPointExtension>
        </extensions>
      </trkpt>
      <trkpt lat="44.7096842341125011444091796875" lon="6.74748645164072513580322265625">
        <ele>1380.5999755859375</ele>
        <time>2026-09-03T06:21:14.000Z</time>
        <extensions>
          <ns3:TrackPointExtension>
            <ns3:hr>139</ns3:hr>
            <ns3:cad>0</ns3:cad>
          </ns3:TrackPointExtension>
        </extensions>
      </trkpt>
      <trkpt lat="44.70967191271483898162841796875" lon="6.74748460762202739715576171875">
        <ele>1380.800048828125</ele>
        <time>2026-09-03T06:21:15.000Z</time>
        <extensions>
          <ns3:TrackPointExtension>
            <ns3:hr>139</ns3:hr>
            <ns3:cad>0</ns3:cad>
          </ns3:TrackPointExtension>
        </extensions>
      </trkpt>
      <trkpt lat="44.70966470427811145782470703125" lon="6.74748645164072513580322265625">
        <ele>1381</ele>
        <time>2026-09-03T06:21:16.000Z</time>
        <extensions>
          <ns3:TrackPointExtension>
            <ns3:hr>139</ns3:hr>
            <ns3:cad>0</ns3:cad>
          </ns3:TrackPointExtension>
        </extensions>
      </trkpt>
      <trkpt lat="44.70965581946074962615966796875" lon="6.74749039113521575927734375">
        <ele>1381.199951171875</ele>
        <time>2026-09-03T06:21:17.000Z</time>
        <extensions>
          <ns3:TrackPointExtension>
            <ns3:hr>138</ns3:hr>
            <ns3:cad>0</ns3:cad>
          </ns3:TrackPointExtension>
        </extensions>
      </trkpt>
      <trkpt lat="44.70965087413787841796875" lon="6.7474942468106746673583984375">
        <ele>1381.4000244140625</ele>
        <time>2026-09-03T06:21:18.000Z</time>
        <extensions>
          <ns3:TrackPointExtension>
            <ns3:hr>137</ns3:hr>
            <ns3:cad>0</ns3:cad>
          </ns3:TrackPointExtension>
        </extensions>
      </trkpt>
      <trkpt lat="44.70963536761701107025146484375" lon="6.7474915646016597747802734375">
        <ele>1381.5999755859375</ele>
        <time>2026-09-03T06:21:19.000Z</time>
        <extensions>
          <ns3:TrackPointExtension>
            <ns3:hr>136</ns3:hr>
            <ns3:cad>0</ns3:cad>
          </ns3:TrackPointExtension>
        </extensions>
      </trkpt>
      <trkpt lat="44.70962681807577610015869140625" lon="6.7474945820868015289306640625">
        <ele>1382</ele>
        <time>2026-09-03T06:21:20.000Z</time>
        <extensions>
          <ns3:TrackPointExtension>
            <ns3:hr>135</ns3:hr>
            <ns3:cad>0</ns3:cad>
          </ns3:TrackPointExtension>
        </extensions>
      </trkpt>
      <trkpt lat="44.7096225433051586151123046875" lon="6.7474912293255329132080078125">
        <ele>1382.199951171875</ele>
        <time>2026-09-03T06:21:21.000Z</time>
        <extensions>
          <ns3:TrackPointExtension>
            <ns3:hr>135</ns3:hr>
            <ns3:cad>0</ns3:cad>
          </ns3:TrackPointExtension>
        </extensions>
      </trkpt>
      <trkpt lat="44.7096151672303676605224609375" lon="6.7474962584674358367919921875">
        <ele>1382.4000244140625</ele>
        <time>2026-09-03T06:21:22.000Z</time>
        <extensions>
          <ns3:TrackPointExtension>
            <ns3:hr>135</ns3:hr>
            <ns3:cad>0</ns3:cad>
          </ns3:TrackPointExtension>
        </extensions>
      </trkpt>
      <trkpt lat="44.7096128202974796295166015625" lon="6.74749667756259441375732421875">
        <ele>1382.5999755859375</ele>
        <time>2026-09-03T06:21:23.000Z</time>
        <extensions>
          <ns3:TrackPointExtension>
            <ns3:hr>134</ns3:hr>
            <ns3:cad>0</ns3:cad>
          </ns3:TrackPointExtension>
        </extensions>
      </trkpt>
      <trkpt lat="44.709602259099483489990234375" lon="6.74749315716326236724853515625">
        <ele>1382.800048828125</ele>
        <time>2026-09-03T06:21:24.000Z</time>
        <extensions>
          <ns3:TrackPointExtension>
            <ns3:hr>134</ns3:hr>
            <ns3:cad>0</ns3:cad>
          </ns3:TrackPointExtension>
        </extensions>
      </trkpt>
      <trkpt lat="44.709592200815677642822265625" lon="6.74749248661100864410400390625">
        <ele>1383</ele>
        <time>2026-09-03T06:21:25.000Z</time>
        <extensions>
          <ns3:TrackPointExtension>
            <ns3:hr>135</ns3:hr>
            <ns3:cad>0</ns3:cad>
          </ns3:TrackPointExtension>
        </extensions>
      </trkpt>
      <trkpt lat="44.70958574675023555755615234375" lon="6.74748494289815425872802734375">
        <ele>1383.199951171875</ele>
        <time>2026-09-03T06:21:26.000Z</time>
        <extensions>
          <ns3:TrackPointExtension>
            <ns3:hr>135</ns3:hr>
            <ns3:cad>0</ns3:cad>
          </ns3:TrackPointExtension>
        </extensions>
      </trkpt>
      <trkpt lat="44.70957250334322452545166015625" lon="6.7474892176687717437744140625">
        <ele>1383.4000244140625</ele>
        <time>2026-09-03T06:21:27.000Z</time>
        <extensions>
          <ns3:TrackPointExtension>
            <ns3:hr>135</ns3:hr>
            <ns3:cad>0</ns3:cad>
          </ns3:TrackPointExtension>
        </extensions>
      </trkpt>
      <trkpt lat="44.709565378725528717041015625" lon="6.74748594872653484344482421875">
        <ele>1383.5999755859375</ele>
        <time>2026-09-03T06:21:28.000Z</time>
        <extensions>
          <ns3:TrackPointExtension>
            <ns3:hr>134</ns3:hr>
            <ns3:cad>0</ns3:cad>
          </ns3:TrackPointExtension>
        </extensions>
      </trkpt>
      <trkpt lat="44.70955624245107173919677734375" lon="6.74748100340366363525390625">
        <ele>1383.800048828125</ele>
        <time>2026-09-03T06:21:29.000Z</time>
        <extensions>
          <ns3:TrackPointExtension>
            <ns3:hr>134</ns3:hr>
            <ns3:cad>0</ns3:cad>
          </ns3:TrackPointExtension>
        </extensions>
      </trkpt>
      <trkpt lat="44.70955020748078823089599609375" lon="6.74747823737561702728271484375">
        <ele>1384</ele>
        <time>2026-09-03T06:21:30.000Z</time>
        <extensions>
          <ns3:TrackPointExtension>
            <ns3:hr>134</ns3:hr>
            <ns3:cad>0</ns3:cad>
          </ns3:TrackPointExtension>
        </extensions>
      </trkpt>
      <trkpt lat="44.70953998155891895294189453125" lon="6.74747689627110958099365234375">
        <ele>1384.199951171875</ele>
        <time>2026-09-03T06:21:31.000Z</time>
        <extensions>
          <ns3:TrackPointExtension>
            <ns3:hr>134</ns3:hr>
            <ns3:cad>0</ns3:cad>
          </ns3:TrackPointExtension>
        </extensions>
      </trkpt>
      <trkpt lat="44.7095347009599208831787109375" lon="6.7474737949669361114501953125">
        <ele>1384.4000244140625</ele>
        <time>2026-09-03T06:21:32.000Z</time>
        <extensions>
          <ns3:TrackPointExtension>
            <ns3:hr>134</ns3:hr>
            <ns3:cad>0</ns3:cad>
          </ns3:TrackPointExtension>
        </extensions>
      </trkpt>
      <trkpt lat="44.70952388830482959747314453125" lon="6.74747253768146038055419921875">
        <ele>1384.5999755859375</ele>
        <time>2026-09-03T06:21:33.000Z</time>
        <extensions>
          <ns3:TrackPointExtension>
            <ns3:hr>134</ns3:hr>
            <ns3:cad>0</ns3:cad>
          </ns3:TrackPointExtension>
        </extensions>
      </trkpt>
      <trkpt lat="44.7095196135342121124267578125" lon="6.74747622571885585784912109375">
        <ele>1384.800048828125</ele>
        <time>2026-09-03T06:21:34.000Z</time>
        <extensions>
          <ns3:TrackPointExtension>
            <ns3:hr>134</ns3:hr>
            <ns3:cad>0</ns3:cad>
          </ns3:TrackPointExtension>
        </extensions>
      </trkpt>
      <trkpt lat="44.70951735042035579681396484375" lon="6.74747966229915618896484375">
        <ele>1385</ele>
        <time>2026-09-03T06:21:35.000Z</time>
        <extensions>
          <ns3:TrackPointExtension>
            <ns3:hr>135</ns3:hr>
            <ns3:cad>0</ns3:cad>
          </ns3:TrackPointExtension>
        </extensions>
      </trkpt>
      <trkpt lat="44.7095092199742794036865234375" lon="6.7474784888327121734619140625">
        <ele>1385.199951171875</ele>
        <time>2026-09-03T06:21:36.000Z</time>
        <extensions>
          <ns3:TrackPointExtension>
            <ns3:hr>134</ns3:hr>
            <ns3:cad>0</ns3:cad>
          </ns3:TrackPointExtension>
        </extensions>
      </trkpt>
      <trkpt lat="44.7095058672130107879638671875" lon="6.7474794946610927581787109375">
        <ele>1385.4000244140625</ele>
        <time>2026-09-03T06:21:37.000Z</time>
        <extensions>
          <ns3:TrackPointExtension>
            <ns3:hr>134</ns3:hr>
            <ns3:cad>0</ns3:cad>
          </ns3:TrackPointExtension>
        </extensions>
      </trkpt>
      <trkpt lat="44.709501005709171295166015625" lon="6.74747806973755359649658203125">
        <ele>1385.5999755859375</ele>
        <time>2026-09-03T06:21:38.000Z</time>
        <extensions>
          <ns3:TrackPointExtension>
            <ns3:hr>133</ns3:hr>
            <ns3:cad>0</ns3:cad>
          </ns3:TrackPointExtension>
        </extensions>
      </trkpt>
      <trkpt lat="44.70949756912887096405029296875" lon="6.74748041667044162750244140625">
        <ele>1385.800048828125</ele>
        <time>2026-09-03T06:21:39.000Z</time>
        <extensions>
          <ns3:TrackPointExtension>
            <ns3:hr>133</ns3:hr>
            <ns3:cad>0</ns3:cad>
          </ns3:TrackPointExtension>
        </extensions>
      </trkpt>
      <trkpt lat="44.70949136652052402496337890625" lon="6.7474838532507419586181640625">
        <ele>1386</ele>
        <time>2026-09-03T06:21:40.000Z</time>
        <extensions>
          <ns3:TrackPointExtension>
            <ns3:hr>133</ns3:hr>
            <ns3:cad>0</ns3:cad>
          </ns3:TrackPointExtension>
        </extensions>
      </trkpt>
      <trkpt lat="44.70948449335992336273193359375" lon="6.74748460762202739715576171875">
        <ele>1386.199951171875</ele>
        <time>2026-09-03T06:21:41.000Z</time>
        <extensions>
          <ns3:TrackPointExtension>
            <ns3:hr>133</ns3:hr>
            <ns3:cad>0</ns3:cad>
          </ns3:TrackPointExtension>
        </extensions>
      </trkpt>
      <trkpt lat="44.7094837389886379241943359375" lon="6.74748024903237819671630859375">
        <ele>1386.4000244140625</ele>
        <time>2026-09-03T06:21:42.000Z</time>
        <extensions>
          <ns3:TrackPointExtension>
            <ns3:hr>133</ns3:hr>
            <ns3:cad>0</ns3:cad>
          </ns3:TrackPointExtension>
        </extensions>
      </trkpt>
      <trkpt lat="44.7094783745706081390380859375" lon="6.747479997575283050537109375">
        <ele>1386.5999755859375</ele>
        <time>2026-09-03T06:21:43.000Z</time>
        <extensions>
          <ns3:TrackPointExtension>
            <ns3:hr>132</ns3:hr>
            <ns3:cad>0</ns3:cad>
          </ns3:TrackPointExtension>
        </extensions>
      </trkpt>
      <trkpt lat="44.70947544090449810028076171875" lon="6.74747756682336330413818359375">
        <ele>1386.800048828125</ele>
        <time>2026-09-03T06:21:44.000Z</time>
        <extensions>
          <ns3:TrackPointExtension>
            <ns3:hr>132</ns3:hr>
            <ns3:cad>49</ns3:cad>
          </ns3:TrackPointExtension>
        </extensions>
      </trkpt>
      <trkpt lat="44.70946370624005794525146484375" lon="6.74747790209949016571044921875">
        <ele>1387</ele>
        <time>2026-09-03T06:21:45.000Z</time>
        <extensions>
          <ns3:TrackPointExtension>
            <ns3:hr>132</ns3:hr>
            <ns3:cad>49</ns3:cad>
          </ns3:TrackPointExtension>
        </extensions>
      </trkpt>
      <trkpt lat="44.70945683307945728302001953125" lon="6.74747739918529987335205078125">
        <ele>1387.199951171875</ele>
        <time>2026-09-03T06:21:46.000Z</time>
        <extensions>
          <ns3:TrackPointExtension>
            <ns3:hr>132</ns3:hr>
            <ns3:cad>49</ns3:cad>
          </ns3:TrackPointExtension>
        </extensions>
      </trkpt>
      <trkpt lat="44.70945063047111034393310546875" lon="6.74747706390917301177978515625">
        <ele>1387.4000244140625</ele>
        <time>2026-09-03T06:21:47.000Z</time>
        <extensions>
          <ns3:TrackPointExtension>
            <ns3:hr>132</ns3:hr>
            <ns3:cad>0</ns3:cad>
          </ns3:TrackPointExtension>
        </extensions>
      </trkpt>
      <trkpt lat="44.7094435058534145355224609375" lon="6.74747765064239501953125">
        <ele>1387.5999755859375</ele>
        <time>2026-09-03T06:21:48.000Z</time>
        <extensions>
          <ns3:TrackPointExtension>
            <ns3:hr>132</ns3:hr>
            <ns3:cad>0</ns3:cad>
          </ns3:TrackPointExtension>
        </extensions>
      </trkpt>
      <trkpt lat="44.70943696796894073486328125" lon="6.7474798299372196197509765625">
        <ele>1387.800048828125</ele>
        <time>2026-09-03T06:21:49.000Z</time>
        <extensions>
          <ns3:TrackPointExtension>
            <ns3:hr>132</ns3:hr>
            <ns3:cad>0</ns3:cad>
          </ns3:TrackPointExtension>
        </extensions>
      </trkpt>
      <trkpt lat="44.7094309329986572265625" lon="6.74748209305107593536376953125">
        <ele>1388</ele>
        <time>2026-09-03T06:21:50.000Z</time>
        <extensions>
          <ns3:TrackPointExtension>
            <ns3:hr>133</ns3:hr>
            <ns3:cad>0</ns3:cad>
          </ns3:TrackPointExtension>
        </extensions>
      </trkpt>
      <trkpt lat="44.7094237245619297027587890625" lon="6.7474862001836299896240234375">
        <ele>1388.199951171875</ele>
        <time>2026-09-03T06:21:51.000Z</time>
        <extensions>
          <ns3:TrackPointExtension>
            <ns3:hr>134</ns3:hr>
            <ns3:cad>0</ns3:cad>
          </ns3:TrackPointExtension>
        </extensions>
      </trkpt>
      <trkpt lat="44.70941995270550251007080078125" lon="6.74748946912586688995361328125">
        <ele>1388.4000244140625</ele>
        <time>2026-09-03T06:21:52.000Z</time>
        <extensions>
          <ns3:TrackPointExtension>
            <ns3:hr>135</ns3:hr>
            <ns3:cad>0</ns3:cad>
          </ns3:TrackPointExtension>
        </extensions>
      </trkpt>
      <trkpt lat="44.70941492356359958648681640625" lon="6.7474959231913089752197265625">
        <ele>1388.4000244140625</ele>
        <time>2026-09-03T06:21:53.000Z</time>
        <extensions>
          <ns3:TrackPointExtension>
            <ns3:hr>135</ns3:hr>
            <ns3:cad>0</ns3:cad>
          </ns3:TrackPointExtension>
        </extensions>
      </trkpt>
      <trkpt lat="44.70942464657127857208251953125" lon="6.7475031316280364990234375">
        <ele>1388.5999755859375</ele>
        <time>2026-09-03T06:21:54.000Z</time>
        <extensions>
          <ns3:TrackPointExtension>
            <ns3:hr>135</ns3:hr>
            <ns3:cad>0</ns3:cad>
          </ns3:TrackPointExtension>
        </extensions>
      </trkpt>
      <trkpt lat="44.70942397601902484893798828125" lon="6.74750656820833683013916015625">
        <ele>1388.800048828125</ele>
        <time>2026-09-03T06:21:55.000Z</time>
        <extensions>
          <ns3:TrackPointExtension>
            <ns3:hr>136</ns3:hr>
            <ns3:cad>0</ns3:cad>
          </ns3:TrackPointExtension>
        </extensions>
      </trkpt>
      <trkpt lat="44.70942548476159572601318359375" lon="6.74751964397728443145751953125">
        <ele>1389.199951171875</ele>
        <time>2026-09-03T06:21:56.000Z</time>
        <extensions>
          <ns3:TrackPointExtension>
            <ns3:hr>136</ns3:hr>
            <ns3:cad>0</ns3:cad>
          </ns3:TrackPointExtension>
        </extensions>
      </trkpt>
      <trkpt lat="44.709427244961261749267578125" lon="6.74752249382436275482177734375">
        <ele>1389.4000244140625</ele>
        <time>2026-09-03T06:21:57.000Z</time>
        <extensions>
          <ns3:TrackPointExtension>
            <ns3:hr>136</ns3:hr>
            <ns3:cad>0</ns3:cad>
          </ns3:TrackPointExtension>
        </extensions>
      </trkpt>
      <trkpt lat="44.709424562752246856689453125" lon="6.74753322266042232513427734375">
        <ele>1389.4000244140625</ele>
        <time>2026-09-03T06:21:58.000Z</time>
        <extensions>
          <ns3:TrackPointExtension>
            <ns3:hr>136</ns3:hr>
            <ns3:cad>0</ns3:cad>
          </ns3:TrackPointExtension>
        </extensions>
      </trkpt>
      <trkpt lat="44.70942313782870769500732421875" lon="6.74753875471651554107666015625">
        <ele>1389.5999755859375</ele>
        <time>2026-09-03T06:21:59.000Z</time>
        <extensions>
          <ns3:TrackPointExtension>
            <ns3:hr>136</ns3:hr>
            <ns3:cad>0</ns3:cad>
          </ns3:TrackPointExtension>
        </extensions>
      </trkpt>
      <trkpt lat="44.70942112617194652557373046875" lon="6.7475358210504055023193359375">
        <ele>1389.800048828125</ele>
        <time>2026-09-03T06:22:00.000Z</time>
        <extensions>
          <ns3:TrackPointExtension>
            <ns3:hr>136</ns3:hr>
            <ns3:cad>0</ns3:cad>
          </ns3:TrackPointExtension>
        </extensions>
      </trkpt>
      <trkpt lat="44.70941861160099506378173828125" lon="6.74753976054489612579345703125">
        <ele>1390</ele>
        <time>2026-09-03T06:22:01.000Z</time>
        <extensions>
          <ns3:TrackPointExtension>
            <ns3:hr>137</ns3:hr>
            <ns3:cad>0</ns3:cad>
          </ns3:TrackPointExtension>
        </extensions>
      </trkpt>
      <trkpt lat="44.7094106487929821014404296875" lon="6.747539341449737548828125">
        <ele>1390.199951171875</ele>
        <time>2026-09-03T06:22:02.000Z</time>
        <extensions>
          <ns3:TrackPointExtension>
            <ns3:hr>137</ns3:hr>
            <ns3:cad>0</ns3:cad>
          </ns3:TrackPointExtension>
        </extensions>
      </trkpt>
      <trkpt lat="44.70940603874623775482177734375" lon="6.74753129482269287109375">
        <ele>1390.5999755859375</ele>
        <time>2026-09-03T06:22:03.000Z</time>
        <extensions>
          <ns3:TrackPointExtension>
            <ns3:hr>137</ns3:hr>
            <ns3:cad>0</ns3:cad>
          </ns3:TrackPointExtension>
        </extensions>
      </trkpt>
      <trkpt lat="44.7094005905091762542724609375" lon="6.7475230805575847625732421875">
        <ele>1390.800048828125</ele>
        <time>2026-09-03T06:22:04.000Z</time>
        <extensions>
          <ns3:TrackPointExtension>
            <ns3:hr>137</ns3:hr>
            <ns3:cad>0</ns3:cad>
          </ns3:TrackPointExtension>
        </extensions>
      </trkpt>
      <trkpt lat="44.70939497463405132293701171875" lon="6.747518219053745269775390625">
        <ele>1391</ele>
        <time>2026-09-03T06:22:05.000Z</time>
        <extensions>
          <ns3:TrackPointExtension>
            <ns3:hr>137</ns3:hr>
            <ns3:cad>0</ns3:cad>
          </ns3:TrackPointExtension>
        </extensions>
      </trkpt>
      <trkpt lat="44.7093818150460720062255859375" lon="6.74750891514122486114501953125">
        <ele>1391.199951171875</ele>
        <time>2026-09-03T06:22:06.000Z</time>
        <extensions>
          <ns3:TrackPointExtension>
            <ns3:hr>137</ns3:hr>
            <ns3:cad>0</ns3:cad>
          </ns3:TrackPointExtension>
        </extensions>
      </trkpt>
      <trkpt lat="44.70937393605709075927734375" lon="6.7475029639899730682373046875">
        <ele>1391.4000244140625</ele>
        <time>2026-09-03T06:22:07.000Z</time>
        <extensions>
          <ns3:TrackPointExtension>
            <ns3:hr>138</ns3:hr>
            <ns3:cad>0</ns3:cad>
          </ns3:TrackPointExtension>
        </extensions>
      </trkpt>
      <trkpt lat="44.70936681143939495086669921875" lon="6.74749575555324554443359375">
        <ele>1391.4000244140625</ele>
        <time>2026-09-03T06:22:08.000Z</time>
        <extensions>
          <ns3:TrackPointExtension>
            <ns3:hr>138</ns3:hr>
            <ns3:cad>0</ns3:cad>
          </ns3:TrackPointExtension>
        </extensions>
      </trkpt>
      <trkpt lat="44.7093516401946544647216796875" lon="6.74748309887945652008056640625">
        <ele>1391.5999755859375</ele>
        <time>2026-09-03T06:22:09.000Z</time>
        <extensions>
          <ns3:TrackPointExtension>
            <ns3:hr>139</ns3:hr>
            <ns3:cad>0</ns3:cad>
          </ns3:TrackPointExtension>
        </extensions>
      </trkpt>
      <trkpt lat="44.70933797769248485565185546875" lon="6.7474727891385555267333984375">
        <ele>1391.800048828125</ele>
        <time>2026-09-03T06:22:10.000Z</time>
        <extensions>
          <ns3:TrackPointExtension>
            <ns3:hr>139</ns3:hr>
            <ns3:cad>0</ns3:cad>
          </ns3:TrackPointExtension>
        </extensions>
      </trkpt>
      <trkpt lat="44.7093330323696136474609375" lon="6.74746516160666942596435546875">
        <ele>1392</ele>
        <time>2026-09-03T06:22:11.000Z</time>
        <extensions>
          <ns3:TrackPointExtension>
            <ns3:hr>139</ns3:hr>
            <ns3:cad>0</ns3:cad>
          </ns3:TrackPointExtension>
        </extensions>
      </trkpt>
      <trkpt lat="44.7093214653432369232177734375" lon="6.7474593780934810638427734375">
        <ele>1392.199951171875</ele>
        <time>2026-09-03T06:22:12.000Z</time>
        <extensions>
          <ns3:TrackPointExtension>
            <ns3:hr>140</ns3:hr>
            <ns3:cad>0</ns3:cad>
          </ns3:TrackPointExtension>
        </extensions>
      </trkpt>
      <trkpt lat="44.70931450836360454559326171875" lon="6.7474600486457347869873046875">
        <ele>1392.4000244140625</ele>
        <time>2026-09-03T06:22:13.000Z</time>
        <extensions>
          <ns3:TrackPointExtension>
            <ns3:hr>140</ns3:hr>
            <ns3:cad>0</ns3:cad>
          </ns3:TrackPointExtension>
        </extensions>
      </trkpt>
      <trkpt lat="44.7093120776116847991943359375" lon="6.74746616743505001068115234375">
        <ele>1392.4000244140625</ele>
        <time>2026-09-03T06:22:14.000Z</time>
        <extensions>
          <ns3:TrackPointExtension>
            <ns3:hr>140</ns3:hr>
            <ns3:cad>0</ns3:cad>
          </ns3:TrackPointExtension>
        </extensions>
      </trkpt>
      <trkpt lat="44.709311909973621368408203125" lon="6.74747555516660213470458984375">
        <ele>1392.5999755859375</ele>
        <time>2026-09-03T06:22:15.000Z</time>
        <extensions>
          <ns3:TrackPointExtension>
            <ns3:hr>140</ns3:hr>
            <ns3:cad>0</ns3:cad>
          </ns3:TrackPointExtension>
        </extensions>
      </trkpt>
      <trkpt lat="44.7093184478580951690673828125" lon="6.7474895529448986053466796875">
        <ele>1392.800048828125</ele>
        <time>2026-09-03T06:22:16.000Z</time>
        <extensions>
          <ns3:TrackPointExtension>
            <ns3:hr>139</ns3:hr>
            <ns3:cad>0</ns3:cad>
          </ns3:TrackPointExtension>
        </extensions>
      </trkpt>
      <trkpt lat="44.709328003227710723876953125" lon="6.74749952740967273712158203125">
        <ele>1392.800048828125</ele>
        <time>2026-09-03T06:22:17.000Z</time>
        <extensions>
          <ns3:TrackPointExtension>
            <ns3:hr>140</ns3:hr>
            <ns3:cad>51</ns3:cad>
          </ns3:TrackPointExtension>
        </extensions>
      </trkpt>
      <trkpt lat="44.7093352116644382476806640625" lon="6.74750757403671741485595703125">
        <ele>1393</ele>
        <time>2026-09-03T06:22:18.000Z</time>
        <extensions>
          <ns3:TrackPointExtension>
            <ns3:hr>140</ns3:hr>
            <ns3:cad>51</ns3:cad>
          </ns3:TrackPointExtension>
        </extensions>
      </trkpt>
      <trkpt lat="44.70933781005442142486572265625" lon="6.747510172426700592041015625">
        <ele>1393.199951171875</ele>
        <time>2026-09-03T06:22:19.000Z</time>
        <extensions>
          <ns3:TrackPointExtension>
            <ns3:hr>141</ns3:hr>
            <ns3:cad>0</ns3:cad>
          </ns3:TrackPointExtension>
        </extensions>
      </trkpt>
      <trkpt lat="44.7093402408063411712646484375" lon="6.74751109443604946136474609375">
        <ele>1393.199951171875</ele>
        <time>2026-09-03T06:22:20.000Z</time>
        <extensions>
          <ns3:TrackPointExtension>
            <ns3:hr>141</ns3:hr>
            <ns3:cad>0</ns3:cad>
          </ns3:TrackPointExtension>
        </extensions>
      </trkpt>
      <trkpt lat="44.70933998934924602508544921875" lon="6.74750983715057373046875">
        <ele>1393.4000244140625</ele>
        <time>2026-09-03T06:22:21.000Z</time>
        <extensions>
          <ns3:TrackPointExtension>
            <ns3:hr>141</ns3:hr>
            <ns3:cad>0</ns3:cad>
          </ns3:TrackPointExtension>
        </extensions>
      </trkpt>
      <trkpt lat="44.70933848060667514801025390625" lon="6.74750656820833683013916015625">
        <ele>1393.4000244140625</ele>
        <time>2026-09-03T06:22:22.000Z</time>
        <extensions>
          <ns3:TrackPointExtension>
            <ns3:hr>140</ns3:hr>
            <ns3:cad>0</ns3:cad>
          </ns3:TrackPointExtension>
        </extensions>
      </trkpt>
      <trkpt lat="44.709339402616024017333984375" lon="6.7475066520273685455322265625">
        <ele>1393.4000244140625</ele>
        <time>2026-09-03T06:22:23.000Z</time>
        <extensions>
          <ns3:TrackPointExtension>
            <ns3:hr>141</ns3:hr>
            <ns3:cad>0</ns3:cad>
          </ns3:TrackPointExtension>
        </extensions>
      </trkpt>
      <trkpt lat="44.709342084825038909912109375" lon="6.74751411192119121551513671875">
        <ele>1393.4000244140625</ele>
        <time>2026-09-03T06:22:24.000Z</time>
        <extensions>
          <ns3:TrackPointExtension>
            <ns3:hr>141</ns3:hr>
            <ns3:cad>0</ns3:cad>
          </ns3:TrackPointExtension>
        </extensions>
      </trkpt>
      <trkpt lat="44.7093445993959903717041015625" lon="6.7475247569382190704345703125">
        <ele>1393.4000244140625</ele>
        <time>2026-09-03T06:22:25.000Z</time>
        <extensions>
          <ns3:TrackPointExtension>
            <ns3:hr>141</ns3:hr>
            <ns3:cad>0</ns3:cad>
          </ns3:TrackPointExtension>
        </extensions>
      </trkpt>
      <trkpt lat="44.70934920944273471832275390625" lon="6.74753640778362751007080078125">
        <ele>1393.5999755859375</ele>
        <time>2026-09-03T06:22:26.000Z</time>
        <extensions>
          <ns3:TrackPointExtension>
            <ns3:hr>141</ns3:hr>
            <ns3:cad>0</ns3:cad>
          </ns3:TrackPointExtension>
        </extensions>
      </trkpt>
      <trkpt lat="44.7093539871275424957275390625" lon="6.7475452087819576263427734375">
        <ele>1393.5999755859375</ele>
        <time>2026-09-03T06:22:27.000Z</time>
        <extensions>
          <ns3:TrackPointExtension>
            <ns3:hr>140</ns3:hr>
            <ns3:cad>0</ns3:cad>
          </ns3:TrackPointExtension>
        </extensions>
      </trkpt>
      <trkpt lat="44.70936010591685771942138671875" lon="6.74756306223571300506591796875">
        <ele>1393.800048828125</ele>
        <time>2026-09-03T06:22:28.000Z</time>
        <extensions>
          <ns3:TrackPointExtension>
            <ns3:hr>140</ns3:hr>
            <ns3:cad>0</ns3:cad>
          </ns3:TrackPointExtension>
        </extensions>
      </trkpt>
      <trkpt lat="44.7093652188777923583984375" lon="6.74757697619497776031494140625">
        <ele>1393.800048828125</ele>
        <time>2026-09-03T06:22:29.000Z</time>
        <extensions>
          <ns3:TrackPointExtension>
            <ns3:hr>139</ns3:hr>
            <ns3:cad>47</ns3:cad>
          </ns3:TrackPointExtension>
        </extensions>
      </trkpt>
      <trkpt lat="44.70937217585742473602294921875" lon="6.74759189598262310028076171875">
        <ele>1394</ele>
        <time>2026-09-03T06:22:30.000Z</time>
        <extensions>
          <ns3:TrackPointExtension>
            <ns3:hr>139</ns3:hr>
            <ns3:cad>47</ns3:cad>
          </ns3:TrackPointExtension>
        </extensions>
      </trkpt>
      <trkpt lat="44.70938022248446941375732421875" lon="6.74760614521801471710205078125">
        <ele>1394</ele>
        <time>2026-09-03T06:22:31.000Z</time>
        <extensions>
          <ns3:TrackPointExtension>
            <ns3:hr>139</ns3:hr>
            <ns3:cad>0</ns3:cad>
          </ns3:TrackPointExtension>
        </extensions>
      </trkpt>
      <trkpt lat="44.70938793383538722991943359375" lon="6.74761955626308917999267578125">
        <ele>1394.199951171875</ele>
        <time>2026-09-03T06:22:32.000Z</time>
        <extensions>
          <ns3:TrackPointExtension>
            <ns3:hr>138</ns3:hr>
            <ns3:cad>0</ns3:cad>
          </ns3:TrackPointExtension>
        </extensions>
      </trkpt>
      <trkpt lat="44.7093947231769561767578125" lon="6.7476317100226879119873046875">
        <ele>1394.199951171875</ele>
        <time>2026-09-03T06:22:33.000Z</time>
        <extensions>
          <ns3:TrackPointExtension>
            <ns3:hr>138</ns3:hr>
            <ns3:cad>0</ns3:cad>
          </ns3:TrackPointExtension>
        </extensions>
      </trkpt>
      <trkpt lat="44.70939539372920989990234375" lon="6.747637577354907989501953125">
        <ele>1394</ele>
        <time>2026-09-03T06:22:34.000Z</time>
        <extensions>
          <ns3:TrackPointExtension>
            <ns3:hr>139</ns3:hr>
            <ns3:cad>0</ns3:cad>
          </ns3:TrackPointExtension>
        </extensions>
      </trkpt>
      <trkpt lat="44.7094015963375568389892578125" lon="6.7476506531238555908203125">
        <ele>1394</ele>
        <time>2026-09-03T06:22:35.000Z</time>
        <extensions>
          <ns3:TrackPointExtension>
            <ns3:hr>139</ns3:hr>
            <ns3:cad>0</ns3:cad>
          </ns3:TrackPointExtension>
        </extensions>
      </trkpt>
      <trkpt lat="44.709406457841396331787109375" lon="6.7476605437695980072021484375">
        <ele>1394.199951171875</ele>
        <time>2026-09-03T06:22:36.000Z</time>
        <extensions>
          <ns3:TrackPointExtension>
            <ns3:hr>139</ns3:hr>
            <ns3:cad>0</ns3:cad>
          </ns3:TrackPointExtension>
        </extensions>
      </trkpt>
      <trkpt lat="44.70940888859331607818603515625" lon="6.7476716078817844390869140625">
        <ele>1394.199951171875</ele>
        <time>2026-09-03T06:22:37.000Z</time>
        <extensions>
          <ns3:TrackPointExtension>
            <ns3:hr>139</ns3:hr>
            <ns3:cad>0</ns3:cad>
          </ns3:TrackPointExtension>
        </extensions>
      </trkpt>
      <trkpt lat="44.70941240899264812469482421875" lon="6.747670434415340423583984375">
        <ele>1394.199951171875</ele>
        <time>2026-09-03T06:22:38.000Z</time>
        <extensions>
          <ns3:TrackPointExtension>
            <ns3:hr>139</ns3:hr>
            <ns3:cad>0</ns3:cad>
          </ns3:TrackPointExtension>
        </extensions>
      </trkpt>
      <trkpt lat="44.70941307954490184783935546875" lon="6.74767269752919673919677734375">
        <ele>1394.4000244140625</ele>
        <time>2026-09-03T06:22:39.000Z</time>
        <extensions>
          <ns3:TrackPointExtension>
            <ns3:hr>139</ns3:hr>
            <ns3:cad>0</ns3:cad>
          </ns3:TrackPointExtension>
        </extensions>
      </trkpt>
      <trkpt lat="44.70941307954490184783935546875" lon="6.74767269752919673919677734375">
        <ele>1394.4000244140625</ele>
        <time>2026-09-03T06:22:40.000Z</time>
        <extensions>
          <ns3:TrackPointExtension>
            <ns3:hr>139</ns3:hr>
            <ns3:cad>0</ns3:cad>
          </ns3:TrackPointExtension>
        </extensions>
      </trkpt>
      <trkpt lat="44.70941307954490184783935546875" lon="6.74767269752919673919677734375">
        <ele>1394.5999755859375</ele>
        <time>2026-09-03T06:22:41.000Z</time>
        <extensions>
          <ns3:TrackPointExtension>
            <ns3:hr>139</ns3:hr>
            <ns3:cad>0</ns3:cad>
          </ns3:TrackPointExtension>
        </extensions>
      </trkpt>
      <trkpt lat="44.70941307954490184783935546875" lon="6.74767269752919673919677734375">
        <ele>1394.5999755859375</ele>
        <time>2026-09-03T06:22:42.000Z</time>
        <extensions>
          <ns3:TrackPointExtension>
            <ns3:hr>138</ns3:hr>
            <ns3:cad>0</ns3:cad>
          </ns3:TrackPointExtension>
        </extensions>
      </trkpt>
      <trkpt lat="44.70941307954490184783935546875" lon="6.74767269752919673919677734375">
        <ele>1394.4000244140625</ele>
        <time>2026-09-03T06:22:43.000Z</time>
        <extensions>
          <ns3:TrackPointExtension>
            <ns3:hr>137</ns3:hr>
            <ns3:cad>0</ns3:cad>
          </ns3:TrackPointExtension>
        </extensions>
      </trkpt>
      <trkpt lat="44.70941307954490184783935546875" lon="6.74767269752919673919677734375">
        <ele>1394.4000244140625</ele>
        <time>2026-09-03T06:22:44.000Z</time>
        <extensions>
          <ns3:TrackPointExtension>
            <ns3:hr>137</ns3:hr>
            <ns3:cad>0</ns3:cad>
          </ns3:TrackPointExtension>
        </extensions>
      </trkpt>
      <trkpt lat="44.70941307954490184783935546875" lon="6.74767269752919673919677734375">
        <ele>1394.4000244140625</ele>
        <time>2026-09-03T06:22:45.000Z</time>
        <extensions>
          <ns3:TrackPointExtension>
            <ns3:hr>137</ns3:hr>
            <ns3:cad>0</ns3:cad>
          </ns3:TrackPointExtension>
        </extensions>
      </trkpt>
      <trkpt lat="44.70941307954490184783935546875" lon="6.74767269752919673919677734375">
        <ele>1394.5999755859375</ele>
        <time>2026-09-03T06:22:46.000Z</time>
        <extensions>
          <ns3:TrackPointExtension>
            <ns3:hr>137</ns3:hr>
            <ns3:cad>0</ns3:cad>
          </ns3:TrackPointExtension>
        </extensions>
      </trkpt>
      <trkpt lat="44.70941307954490184783935546875" lon="6.74767269752919673919677734375">
        <ele>1394.5999755859375</ele>
        <time>2026-09-03T06:22:47.000Z</time>
        <extensions>
          <ns3:TrackPointExtension>
            <ns3:hr>137</ns3:hr>
            <ns3:cad>0</ns3:cad>
          </ns3:TrackPointExtension>
        </extensions>
      </trkpt>
      <trkpt lat="44.70941307954490184783935546875" lon="6.74767269752919673919677734375">
        <ele>1394.5999755859375</ele>
        <time>2026-09-03T06:22:48.000Z</time>
        <extensions>
          <ns3:TrackPointExtension>
            <ns3:hr>137</ns3:hr>
            <ns3:cad>0</ns3:cad>
          </ns3:TrackPointExtension>
        </extensions>
      </trkpt>
      <trkpt lat="44.70941307954490184783935546875" lon="6.74767269752919673919677734375">
        <ele>1394.5999755859375</ele>
        <time>2026-09-03T06:22:49.000Z</time>
        <extensions>
          <ns3:TrackPointExtension>
            <ns3:hr>137</ns3:hr>
            <ns3:cad>0</ns3:cad>
          </ns3:TrackPointExtension>
        </extensions>
      </trkpt>
      <trkpt lat="44.70941307954490184783935546875" lon="6.74767269752919673919677734375">
        <ele>1394.5999755859375</ele>
        <time>2026-09-03T06:22:50.000Z</time>
        <extensions>
          <ns3:TrackPointExtension>
            <ns3:hr>136</ns3:hr>
            <ns3:cad>0</ns3:cad>
          </ns3:TrackPointExtension>
        </extensions>
      </trkpt>
      <trkpt lat="44.70941307954490184783935546875" lon="6.74767269752919673919677734375">
        <ele>1394.5999755859375</ele>
        <time>2026-09-03T06:22:51.000Z</time>
        <extensions>
          <ns3:TrackPointExtension>
            <ns3:hr>135</ns3:hr>
            <ns3:cad>0</ns3:cad>
          </ns3:TrackPointExtension>
        </extensions>
      </trkpt>
      <trkpt lat="44.70941307954490184783935546875" lon="6.74767269752919673919677734375">
        <ele>1394.5999755859375</ele>
        <time>2026-09-03T06:22:52.000Z</time>
        <extensions>
          <ns3:TrackPointExtension>
            <ns3:hr>135</ns3:hr>
            <ns3:cad>0</ns3:cad>
          </ns3:TrackPointExtension>
        </extensions>
      </trkpt>
      <trkpt lat="44.70941307954490184783935546875" lon="6.74767269752919673919677734375">
        <ele>1394.5999755859375</ele>
        <time>2026-09-03T06:22:53.000Z</time>
        <extensions>
          <ns3:TrackPointExtension>
            <ns3:hr>134</ns3:hr>
            <ns3:cad>0</ns3:cad>
          </ns3:TrackPointExtension>
        </extensions>
      </trkpt>
      <trkpt lat="44.70941307954490184783935546875" lon="6.74767269752919673919677734375">
        <ele>1394.5999755859375</ele>
        <time>2026-09-03T06:22:54.000Z</time>
        <extensions>
          <ns3:TrackPointExtension>
            <ns3:hr>134</ns3:hr>
            <ns3:cad>0</ns3:cad>
          </ns3:TrackPointExtension>
        </extensions>
      </trkpt>
      <trkpt lat="44.70941307954490184783935546875" lon="6.74767269752919673919677734375">
        <ele>1394.5999755859375</ele>
        <time>2026-09-03T06:22:55.000Z</time>
        <extensions>
          <ns3:TrackPointExtension>
            <ns3:hr>133</ns3:hr>
            <ns3:cad>0</ns3:cad>
          </ns3:TrackPointExtension>
        </extensions>
      </trkpt>
      <trkpt lat="44.70941307954490184783935546875" lon="6.74767269752919673919677734375">
        <ele>1394.5999755859375</ele>
        <time>2026-09-03T06:22:56.000Z</time>
        <extensions>
          <ns3:TrackPointExtension>
            <ns3:hr>133</ns3:hr>
            <ns3:cad>0</ns3:cad>
          </ns3:TrackPointExtension>
        </extensions>
      </trkpt>
      <trkpt lat="44.70941307954490184783935546875" lon="6.74767269752919673919677734375">
        <ele>1394.5999755859375</ele>
        <time>2026-09-03T06:22:57.000Z</time>
        <extensions>
          <ns3:TrackPointExtension>
            <ns3:hr>132</ns3:hr>
            <ns3:cad>0</ns3:cad>
          </ns3:TrackPointExtension>
        </extensions>
      </trkpt>
      <trkpt lat="44.70941307954490184783935546875" lon="6.74767269752919673919677734375">
        <ele>1394.5999755859375</ele>
        <time>2026-09-03T06:22:58.000Z</time>
        <extensions>
          <ns3:TrackPointExtension>
            <ns3:hr>131</ns3:hr>
            <ns3:cad>0</ns3:cad>
          </ns3:TrackPointExtension>
        </extensions>
      </trkpt>
      <trkpt lat="44.70941307954490184783935546875" lon="6.74767269752919673919677734375">
        <ele>1394.800048828125</ele>
        <time>2026-09-03T06:22:59.000Z</time>
        <extensions>
          <ns3:TrackPointExtension>
            <ns3:hr>130</ns3:hr>
            <ns3:cad>0</ns3:cad>
          </ns3:TrackPointExtension>
        </extensions>
      </trkpt>
      <trkpt lat="44.7094150073826313018798828125" lon="6.74767940305173397064208984375">
        <ele>1394.800048828125</ele>
        <time>2026-09-03T06:23:00.000Z</time>
        <extensions>
          <ns3:TrackPointExtension>
            <ns3:hr>130</ns3:hr>
            <ns3:cad>0</ns3:cad>
          </ns3:TrackPointExtension>
        </extensions>
      </trkpt>
      <trkpt lat="44.709424562752246856689453125" lon="6.747710667550563812255859375">
        <ele>1394.800048828125</ele>
        <time>2026-09-03T06:23:01.000Z</time>
        <extensions>
          <ns3:TrackPointExtension>
            <ns3:hr>130</ns3:hr>
            <ns3:cad>0</ns3:cad>
          </ns3:TrackPointExtension>
        </extensions>
      </trkpt>
      <trkpt lat="44.7094264067709445953369140625" lon="6.7477205581963062286376953125">
        <ele>1394.800048828125</ele>
        <time>2026-09-03T06:23:02.000Z</time>
        <extensions>
          <ns3:TrackPointExtension>
            <ns3:hr>130</ns3:hr>
            <ns3:cad>0</ns3:cad>
          </ns3:TrackPointExtension>
        </extensions>
      </trkpt>
      <trkpt lat="44.7094257362186908721923828125" lon="6.74771896563470363616943359375">
        <ele>1394.800048828125</ele>
        <time>2026-09-03T06:23:03.000Z</time>
        <extensions>
          <ns3:TrackPointExtension>
            <ns3:hr>131</ns3:hr>
            <ns3:cad>0</ns3:cad>
          </ns3:TrackPointExtension>
        </extensions>
      </trkpt>
      <trkpt lat="44.70942548476159572601318359375" lon="6.747718714177608489990234375">
        <ele>1395</ele>
        <time>2026-09-03T06:23:04.000Z</time>
        <extensions>
          <ns3:TrackPointExtension>
            <ns3:hr>131</ns3:hr>
            <ns3:cad>0</ns3:cad>
          </ns3:TrackPointExtension>
        </extensions>
      </trkpt>
      <trkpt lat="44.70942556858062744140625" lon="6.7477188818156719207763671875">
        <ele>1395</ele>
        <time>2026-09-03T06:23:05.000Z</time>
        <extensions>
          <ns3:TrackPointExtension>
            <ns3:hr>130</ns3:hr>
            <ns3:cad>0</ns3:cad>
          </ns3:TrackPointExtension>
        </extensions>
      </trkpt>
      <trkpt lat="44.70941727049648761749267578125" lon="6.7477185465395450592041015625">
        <ele>1395</ele>
        <time>2026-09-03T06:23:06.000Z</time>
        <extensions>
          <ns3:TrackPointExtension>
            <ns3:hr>130</ns3:hr>
            <ns3:cad>0</ns3:cad>
          </ns3:TrackPointExtension>
        </extensions>
      </trkpt>
      <trkpt lat="44.7094081342220306396484375" lon="6.74772298894822597503662109375">
        <ele>1395</ele>
        <time>2026-09-03T06:23:07.000Z</time>
        <extensions>
          <ns3:TrackPointExtension>
            <ns3:hr>127</ns3:hr>
            <ns3:cad>51</ns3:cad>
          </ns3:TrackPointExtension>
        </extensions>
      </trkpt>
      <trkpt lat="44.709397740662097930908203125" lon="6.74772952683269977569580078125">
        <ele>1395</ele>
        <time>2026-09-03T06:23:08.000Z</time>
        <extensions>
          <ns3:TrackPointExtension>
            <ns3:hr>124</ns3:hr>
            <ns3:cad>51</ns3:cad>
          </ns3:TrackPointExtension>
        </extensions>
      </trkpt>
      <trkpt lat="44.70938734710216522216796875" lon="6.747738830745220184326171875">
        <ele>1395.199951171875</ele>
        <time>2026-09-03T06:23:09.000Z</time>
        <extensions>
          <ns3:TrackPointExtension>
            <ns3:hr>123</ns3:hr>
            <ns3:cad>0</ns3:cad>
          </ns3:TrackPointExtension>
        </extensions>
      </trkpt>
      <trkpt lat="44.70937653444707393646240234375" lon="6.74774520099163055419921875">
        <ele>1395.199951171875</ele>
        <time>2026-09-03T06:23:10.000Z</time>
        <extensions>
          <ns3:TrackPointExtension>
            <ns3:hr>121</ns3:hr>
            <ns3:cad>0</ns3:cad>
          </ns3:TrackPointExtension>
        </extensions>
      </trkpt>
      <trkpt lat="44.70936731435358524322509765625" lon="6.74775064922869205474853515625">
        <ele>1395.4000244140625</ele>
        <time>2026-09-03T06:23:11.000Z</time>
        <extensions>
          <ns3:TrackPointExtension>
            <ns3:hr>120</ns3:hr>
            <ns3:cad>51</ns3:cad>
          </ns3:TrackPointExtension>
        </extensions>
      </trkpt>
      <trkpt lat="44.7093593515455722808837890625" lon="6.7477557621896266937255859375">
        <ele>1395.4000244140625</ele>
        <time>2026-09-03T06:23:12.000Z</time>
        <extensions>
          <ns3:TrackPointExtension>
            <ns3:hr>119</ns3:hr>
            <ns3:cad>52</ns3:cad>
          </ns3:TrackPointExtension>
        </extensions>
      </trkpt>
      <trkpt lat="44.7093533165752887725830078125" lon="6.74775995314121246337890625">
        <ele>1395.4000244140625</ele>
        <time>2026-09-03T06:23:13.000Z</time>
        <extensions>
          <ns3:TrackPointExtension>
            <ns3:hr>118</ns3:hr>
            <ns3:cad>52</ns3:cad>
          </ns3:TrackPointExtension>
        </extensions>
      </trkpt>
      <trkpt lat="44.7093445993959903717041015625" lon="6.74776825122535228729248046875">
        <ele>1395.4000244140625</ele>
        <time>2026-09-03T06:23:14.000Z</time>
        <extensions>
          <ns3:TrackPointExtension>
            <ns3:hr>118</ns3:hr>
            <ns3:cad>52</ns3:cad>
          </ns3:TrackPointExtension>
        </extensions>
      </trkpt>
      <trkpt lat="44.7093395702540874481201171875" lon="6.7477701790630817413330078125">
        <ele>1395.5999755859375</ele>
        <time>2026-09-03T06:23:15.000Z</time>
        <extensions>
          <ns3:TrackPointExtension>
            <ns3:hr>119</ns3:hr>
            <ns3:cad>0</ns3:cad>
          </ns3:TrackPointExtension>
        </extensions>
      </trkpt>
      <trkpt lat="44.70933713950216770172119140625" lon="6.74777059815824031829833984375">
        <ele>1395.5999755859375</ele>
        <time>2026-09-03T06:23:16.000Z</time>
        <extensions>
          <ns3:TrackPointExtension>
            <ns3:hr>119</ns3:hr>
            <ns3:cad>0</ns3:cad>
          </ns3:TrackPointExtension>
        </extensions>
      </trkpt>
      <trkpt lat="44.7093409113585948944091796875" lon="6.7477705143392086029052734375">
        <ele>1395.800048828125</ele>
        <time>2026-09-03T06:23:17.000Z</time>
        <extensions>
          <ns3:TrackPointExtension>
            <ns3:hr>119</ns3:hr>
            <ns3:cad>0</ns3:cad>
          </ns3:TrackPointExtension>
        </extensions>
      </trkpt>
      <trkpt lat="44.70934418030083179473876953125" lon="6.74777328036725521087646484375">
        <ele>1395.800048828125</ele>
        <time>2026-09-03T06:23:18.000Z</time>
        <extensions>
          <ns3:TrackPointExtension>
            <ns3:hr>118</ns3:hr>
            <ns3:cad>0</ns3:cad>
          </ns3:TrackPointExtension>
        </extensions>
      </trkpt>
      <trkpt lat="44.70934937708079814910888671875" lon="6.74778048880398273468017578125">
        <ele>1396</ele>
        <time>2026-09-03T06:23:19.000Z</time>
        <extensions>
          <ns3:TrackPointExtension>
            <ns3:hr>118</ns3:hr>
            <ns3:cad>0</ns3:cad>
          </ns3:TrackPointExtension>
        </extensions>
      </trkpt>
      <trkpt lat="44.709348119795322418212890625" lon="6.74778182990849018096923828125">
        <ele>1396</ele>
        <time>2026-09-03T06:23:20.000Z</time>
        <extensions>
          <ns3:TrackPointExtension>
            <ns3:hr>118</ns3:hr>
            <ns3:cad>0</ns3:cad>
          </ns3:TrackPointExtension>
        </extensions>
      </trkpt>
      <trkpt lat="44.70934753306210041046142578125" lon="6.7477820813655853271484375">
        <ele>1396</ele>
        <time>2026-09-03T06:23:21.000Z</time>
        <extensions>
          <ns3:TrackPointExtension>
            <ns3:hr>117</ns3:hr>
            <ns3:cad>0</ns3:cad>
          </ns3:TrackPointExtension>
        </extensions>
      </trkpt>
      <trkpt lat="44.7093482874333858489990234375" lon="6.74778006970882415771484375">
        <ele>1396</ele>
        <time>2026-09-03T06:23:22.000Z</time>
        <extensions>
          <ns3:TrackPointExtension>
            <ns3:hr>117</ns3:hr>
            <ns3:cad>0</ns3:cad>
          </ns3:TrackPointExtension>
        </extensions>
      </trkpt>
      <trkpt lat="44.709348790347576141357421875" lon="6.74777478910982608795166015625">
        <ele>1396</ele>
        <time>2026-09-03T06:23:23.000Z</time>
        <extensions>
          <ns3:TrackPointExtension>
            <ns3:hr>116</ns3:hr>
            <ns3:cad>0</ns3:cad>
          </ns3:TrackPointExtension>
        </extensions>
      </trkpt>
      <trkpt lat="44.7093509696424007415771484375" lon="6.7477725259959697723388671875">
        <ele>1396</ele>
        <time>2026-09-03T06:23:24.000Z</time>
        <extensions>
          <ns3:TrackPointExtension>
            <ns3:hr>116</ns3:hr>
            <ns3:cad>0</ns3:cad>
          </ns3:TrackPointExtension>
        </extensions>
      </trkpt>
      <trkpt lat="44.7093519754707813262939453125" lon="6.74777143634855747222900390625">
        <ele>1395.800048828125</ele>
        <time>2026-09-03T06:23:25.000Z</time>
        <extensions>
          <ns3:TrackPointExtension>
            <ns3:hr>116</ns3:hr>
            <ns3:cad>0</ns3:cad>
          </ns3:TrackPointExtension>
        </extensions>
      </trkpt>
      <trkpt lat="44.7093516401946544647216796875" lon="6.7477701790630817413330078125">
        <ele>1395.800048828125</ele>
        <time>2026-09-03T06:23:26.000Z</time>
        <extensions>
          <ns3:TrackPointExtension>
            <ns3:hr>115</ns3:hr>
            <ns3:cad>0</ns3:cad>
          </ns3:TrackPointExtension>
        </extensions>
      </trkpt>
      <trkpt lat="44.7093533165752887725830078125" lon="6.7477674968540668487548828125">
        <ele>1395.800048828125</ele>
        <time>2026-09-03T06:23:27.000Z</time>
        <extensions>
          <ns3:TrackPointExtension>
            <ns3:hr>115</ns3:hr>
            <ns3:cad>0</ns3:cad>
          </ns3:TrackPointExtension>
        </extensions>
      </trkpt>
      <trkpt lat="44.70935490913689136505126953125" lon="6.7477674968540668487548828125">
        <ele>1395.800048828125</ele>
        <time>2026-09-03T06:23:28.000Z</time>
        <extensions>
          <ns3:TrackPointExtension>
            <ns3:hr>115</ns3:hr>
            <ns3:cad>0</ns3:cad>
          </ns3:TrackPointExtension>
        </extensions>
      </trkpt>
      <trkpt lat="44.709356166422367095947265625" lon="6.747767664492130279541015625">
        <ele>1395.800048828125</ele>
        <time>2026-09-03T06:23:29.000Z</time>
        <extensions>
          <ns3:TrackPointExtension>
            <ns3:hr>116</ns3:hr>
            <ns3:cad>0</ns3:cad>
          </ns3:TrackPointExtension>
        </extensions>
      </trkpt>
      <trkpt lat="44.7093563340604305267333984375" lon="6.74776791594922542572021484375">
        <ele>1395.800048828125</ele>
        <time>2026-09-03T06:23:30.000Z</time>
        <extensions>
          <ns3:TrackPointExtension>
            <ns3:hr>115</ns3:hr>
            <ns3:cad>0</ns3:cad>
          </ns3:TrackPointExtension>
        </extensions>
      </trkpt>
      <trkpt lat="44.70935675315558910369873046875" lon="6.747769005596637725830078125">
        <ele>1395.5999755859375</ele>
        <time>2026-09-03T06:23:31.000Z</time>
        <extensions>
          <ns3:TrackPointExtension>
            <ns3:hr>115</ns3:hr>
            <ns3:cad>0</ns3:cad>
          </ns3:TrackPointExtension>
        </extensions>
      </trkpt>
      <trkpt lat="44.70935608260333538055419921875" lon="6.747769676148891448974609375">
        <ele>1395.5999755859375</ele>
        <time>2026-09-03T06:23:32.000Z</time>
        <extensions>
          <ns3:TrackPointExtension>
            <ns3:hr>114</ns3:hr>
            <ns3:cad>0</ns3:cad>
          </ns3:TrackPointExtension>
        </extensions>
      </trkpt>
      <trkpt lat="44.70935423858463764190673828125" lon="6.747768335044384002685546875">
        <ele>1395.5999755859375</ele>
        <time>2026-09-03T06:23:33.000Z</time>
        <extensions>
          <ns3:TrackPointExtension>
            <ns3:hr>113</ns3:hr>
            <ns3:cad>0</ns3:cad>
          </ns3:TrackPointExtension>
        </extensions>
      </trkpt>
      <trkpt lat="44.709352143108844757080078125" lon="6.74776934087276458740234375">
        <ele>1395.5999755859375</ele>
        <time>2026-09-03T06:23:34.000Z</time>
        <extensions>
          <ns3:TrackPointExtension>
            <ns3:hr>113</ns3:hr>
            <ns3:cad>0</ns3:cad>
          </ns3:TrackPointExtension>
        </extensions>
      </trkpt>
      <trkpt lat="44.709352143108844757080078125" lon="6.74777093343436717987060546875">
        <ele>1395.5999755859375</ele>
        <time>2026-09-03T06:23:35.000Z</time>
        <extensions>
          <ns3:TrackPointExtension>
            <ns3:hr>112</ns3:hr>
            <ns3:cad>0</ns3:cad>
          </ns3:TrackPointExtension>
        </extensions>
      </trkpt>
      <trkpt lat="44.70935407094657421112060546875" lon="6.7477691732347011566162109375">
        <ele>1395.5999755859375</ele>
        <time>2026-09-03T06:23:36.000Z</time>
        <extensions>
          <ns3:TrackPointExtension>
            <ns3:hr>112</ns3:hr>
            <ns3:cad>0</ns3:cad>
          </ns3:TrackPointExtension>
        </extensions>
      </trkpt>
      <trkpt lat="44.70935340039432048797607421875" lon="6.74776758067309856414794921875">
        <ele>1395.5999755859375</ele>
        <time>2026-09-03T06:23:37.000Z</time>
        <extensions>
          <ns3:TrackPointExtension>
            <ns3:hr>113</ns3:hr>
            <ns3:cad>0</ns3:cad>
          </ns3:TrackPointExtension>
        </extensions>
      </trkpt>
      <trkpt lat="44.709350802004337310791015625" lon="6.7477678321301937103271484375">
        <ele>1395.5999755859375</ele>
        <time>2026-09-03T06:23:38.000Z</time>
        <extensions>
          <ns3:TrackPointExtension>
            <ns3:hr>113</ns3:hr>
            <ns3:cad>0</ns3:cad>
          </ns3:TrackPointExtension>
        </extensions>
      </trkpt>
      <trkpt lat="44.70934920944273471832275390625" lon="6.747768335044384002685546875">
        <ele>1395.5999755859375</ele>
        <time>2026-09-03T06:23:39.000Z</time>
        <extensions>
          <ns3:TrackPointExtension>
            <ns3:hr>112</ns3:hr>
            <ns3:cad>0</ns3:cad>
          </ns3:TrackPointExtension>
        </extensions>
      </trkpt>
      <trkpt lat="44.7093496285378932952880859375" lon="6.7477695085108280181884765625">
        <ele>1395.4000244140625</ele>
        <time>2026-09-03T06:23:40.000Z</time>
        <extensions>
          <ns3:TrackPointExtension>
            <ns3:hr>112</ns3:hr>
            <ns3:cad>0</ns3:cad>
          </ns3:TrackPointExtension>
        </extensions>
      </trkpt>
      <trkpt lat="44.70934845507144927978515625" lon="6.74777780659496784210205078125">
        <ele>1395.4000244140625</ele>
        <time>2026-09-03T06:23:41.000Z</time>
        <extensions>
          <ns3:TrackPointExtension>
            <ns3:hr>112</ns3:hr>
            <ns3:cad>0</ns3:cad>
          </ns3:TrackPointExtension>
        </extensions>
      </trkpt>
      <trkpt lat="44.70934568904340267181396484375" lon="6.74777579493820667266845703125">
        <ele>1395.5999755859375</ele>
        <time>2026-09-03T06:23:42.000Z</time>
        <extensions>
          <ns3:TrackPointExtension>
            <ns3:hr>112</ns3:hr>
            <ns3:cad>0</ns3:cad>
          </ns3:TrackPointExtension>
        </extensions>
      </trkpt>
      <trkpt lat="44.70935155637562274932861328125" lon="6.74778350628912448883056640625">
        <ele>1395.5999755859375</ele>
        <time>2026-09-03T06:23:43.000Z</time>
        <extensions>
          <ns3:TrackPointExtension>
            <ns3:hr>111</ns3:hr>
            <ns3:cad>0</ns3:cad>
          </ns3:TrackPointExtension>
        </extensions>
      </trkpt>
      <trkpt lat="44.70936295576393604278564453125" lon="6.747781075537204742431640625">
        <ele>1395.4000244140625</ele>
        <time>2026-09-03T06:23:44.000Z</time>
        <extensions>
          <ns3:TrackPointExtension>
            <ns3:hr>111</ns3:hr>
            <ns3:cad>0</ns3:cad>
          </ns3:TrackPointExtension>
        </extensions>
      </trkpt>
      <trkpt lat="44.70937686972320079803466796875" lon="6.7477849312126636505126953125">
        <ele>1395.4000244140625</ele>
        <time>2026-09-03T06:23:45.000Z</time>
        <extensions>
          <ns3:TrackPointExtension>
            <ns3:hr>111</ns3:hr>
            <ns3:cad>0</ns3:cad>
          </ns3:TrackPointExtension>
        </extensions>
      </trkpt>
      <trkpt lat="44.7093861736357212066650390625" lon="6.74779138527810573577880859375">
        <ele>1395.199951171875</ele>
        <time>2026-09-03T06:23:46.000Z</time>
        <extensions>
          <ns3:TrackPointExtension>
            <ns3:hr>113</ns3:hr>
            <ns3:cad>0</ns3:cad>
          </ns3:TrackPointExtension>
        </extensions>
      </trkpt>
      <trkpt lat="44.70939547754824161529541015625" lon="6.7478020302951335906982421875">
        <ele>1395.199951171875</ele>
        <time>2026-09-03T06:23:47.000Z</time>
        <extensions>
          <ns3:TrackPointExtension>
            <ns3:hr>113</ns3:hr>
            <ns3:cad>57</ns3:cad>
          </ns3:TrackPointExtension>
        </extensions>
      </trkpt>
      <trkpt lat="44.7094056196510791778564453125" lon="6.7478120885789394378662109375">
        <ele>1395</ele>
        <time>2026-09-03T06:23:48.000Z</time>
        <extensions>
          <ns3:TrackPointExtension>
            <ns3:hr>113</ns3:hr>
            <ns3:cad>57</ns3:cad>
          </ns3:TrackPointExtension>
        </extensions>
      </trkpt>
      <trkpt lat="44.70941576175391674041748046875" lon="6.7478261701762676239013671875">
        <ele>1395.199951171875</ele>
        <time>2026-09-03T06:23:49.000Z</time>
        <extensions>
          <ns3:TrackPointExtension>
            <ns3:hr>114</ns3:hr>
            <ns3:cad>57</ns3:cad>
          </ns3:TrackPointExtension>
        </extensions>
      </trkpt>
      <trkpt lat="44.70942380838096141815185546875" lon="6.74784067086875438690185546875">
        <ele>1395.199951171875</ele>
        <time>2026-09-03T06:23:50.000Z</time>
        <extensions>
          <ns3:TrackPointExtension>
            <ns3:hr>114</ns3:hr>
            <ns3:cad>57</ns3:cad>
          </ns3:TrackPointExtension>
        </extensions>
      </trkpt>
      <trkpt lat="44.709426574409008026123046875" lon="6.747854836285114288330078125">
        <ele>1395.4000244140625</ele>
        <time>2026-09-03T06:23:51.000Z</time>
        <extensions>
          <ns3:TrackPointExtension>
            <ns3:hr>114</ns3:hr>
            <ns3:cad>57</ns3:cad>
          </ns3:TrackPointExtension>
        </extensions>
      </trkpt>
      <trkpt lat="44.709423892199993133544921875" lon="6.74786531366407871246337890625">
        <ele>1395.5999755859375</ele>
        <time>2026-09-03T06:23:52.000Z</time>
        <extensions>
          <ns3:TrackPointExtension>
            <ns3:hr>115</ns3:hr>
            <ns3:cad>57</ns3:cad>
          </ns3:TrackPointExtension>
        </extensions>
      </trkpt>
      <trkpt lat="44.70942020416259765625" lon="6.74787704832851886749267578125">
        <ele>1395.800048828125</ele>
        <time>2026-09-03T06:23:53.000Z</time>
        <extensions>
          <ns3:TrackPointExtension>
            <ns3:hr>114</ns3:hr>
            <ns3:cad>56</ns3:cad>
          </ns3:TrackPointExtension>
        </extensions>
      </trkpt>
      <trkpt lat="44.7094161808490753173828125" lon="6.7478949017822742462158203125">
        <ele>1395.800048828125</ele>
        <time>2026-09-03T06:23:54.000Z</time>
        <extensions>
          <ns3:TrackPointExtension>
            <ns3:hr>114</ns3:hr>
            <ns3:cad>56</ns3:cad>
          </ns3:TrackPointExtension>
        </extensions>
      </trkpt>
      <trkpt lat="44.709407128393650054931640625" lon="6.747906468808650970458984375">
        <ele>1396</ele>
        <time>2026-09-03T06:23:55.000Z</time>
        <extensions>
          <ns3:TrackPointExtension>
            <ns3:hr>114</ns3:hr>
            <ns3:cad>56</ns3:cad>
          </ns3:TrackPointExtension>
        </extensions>
      </trkpt>
      <trkpt lat="44.709396399557590484619140625" lon="6.7479099892079830169677734375">
        <ele>1396.199951171875</ele>
        <time>2026-09-03T06:23:56.000Z</time>
        <extensions>
          <ns3:TrackPointExtension>
            <ns3:hr>113</ns3:hr>
            <ns3:cad>56</ns3:cad>
          </ns3:TrackPointExtension>
        </extensions>
      </trkpt>
      <trkpt lat="44.70938240177929401397705078125" lon="6.74791191704571247100830078125">
        <ele>1396.4000244140625</ele>
        <time>2026-09-03T06:23:57.000Z</time>
        <extensions>
          <ns3:TrackPointExtension>
            <ns3:hr>112</ns3:hr>
            <ns3:cad>56</ns3:cad>
          </ns3:TrackPointExtension>
        </extensions>
      </trkpt>
      <trkpt lat="44.70936412923038005828857421875" lon="6.74790353514254093170166015625">
        <ele>1396.5999755859375</ele>
        <time>2026-09-03T06:23:58.000Z</time>
        <extensions>
          <ns3:TrackPointExtension>
            <ns3:hr>112</ns3:hr>
            <ns3:cad>56</ns3:cad>
          </ns3:TrackPointExtension>
        </extensions>
      </trkpt>
      <trkpt lat="44.7093506343662738800048828125" lon="6.74789733253419399261474609375">
        <ele>1396.800048828125</ele>
        <time>2026-09-03T06:23:59.000Z</time>
        <extensions>
          <ns3:TrackPointExtension>
            <ns3:hr>111</ns3:hr>
            <ns3:cad>56</ns3:cad>
          </ns3:TrackPointExtension>
        </extensions>
      </trkpt>
      <trkpt lat="44.70933638513088226318359375" lon="6.7478885315358638763427734375">
        <ele>1397</ele>
        <time>2026-09-03T06:24:00.000Z</time>
        <extensions>
          <ns3:TrackPointExtension>
            <ns3:hr>111</ns3:hr>
            <ns3:cad>56</ns3:cad>
          </ns3:TrackPointExtension>
        </extensions>
      </trkpt>
      <trkpt lat="44.70932833850383758544921875" lon="6.74788157455623149871826171875">
        <ele>1397.199951171875</ele>
        <time>2026-09-03T06:24:01.000Z</time>
        <extensions>
          <ns3:TrackPointExtension>
            <ns3:hr>110</ns3:hr>
            <ns3:cad>0</ns3:cad>
          </ns3:TrackPointExtension>
        </extensions>
      </trkpt>
      <trkpt lat="44.709315933287143707275390625" lon="6.74786950461566448211669921875">
        <ele>1397.4000244140625</ele>
        <time>2026-09-03T06:24:02.000Z</time>
        <extensions>
          <ns3:TrackPointExtension>
            <ns3:hr>110</ns3:hr>
            <ns3:cad>0</ns3:cad>
          </ns3:TrackPointExtension>
        </extensions>
      </trkpt>
      <trkpt lat="44.709306545555591583251953125" lon="6.74785810522735118865966796875">
        <ele>1397.5999755859375</ele>
        <time>2026-09-03T06:24:03.000Z</time>
        <extensions>
          <ns3:TrackPointExtension>
            <ns3:hr>109</ns3:hr>
            <ns3:cad>0</ns3:cad>
          </ns3:TrackPointExtension>
        </extensions>
      </trkpt>
      <trkpt lat="44.70929807983338832855224609375" lon="6.74784737639129161834716796875">
        <ele>1397.5999755859375</ele>
        <time>2026-09-03T06:24:04.000Z</time>
        <extensions>
          <ns3:TrackPointExtension>
            <ns3:hr>109</ns3:hr>
            <ns3:cad>0</ns3:cad>
          </ns3:TrackPointExtension>
        </extensions>
      </trkpt>
      <trkpt lat="44.709289111196994781494140625" lon="6.74783798865973949432373046875">
        <ele>1397.800048828125</ele>
        <time>2026-09-03T06:24:05.000Z</time>
        <extensions>
          <ns3:TrackPointExtension>
            <ns3:hr>109</ns3:hr>
            <ns3:cad>0</ns3:cad>
          </ns3:TrackPointExtension>
        </extensions>
      </trkpt>
      <trkpt lat="44.7092778794467449188232421875" lon="6.7478258349001407623291015625">
        <ele>1397.800048828125</ele>
        <time>2026-09-03T06:24:06.000Z</time>
        <extensions>
          <ns3:TrackPointExtension>
            <ns3:hr>110</ns3:hr>
            <ns3:cad>0</ns3:cad>
          </ns3:TrackPointExtension>
        </extensions>
      </trkpt>
      <trkpt lat="44.70926773734390735626220703125" lon="6.74781787209212779998779296875">
        <ele>1397.800048828125</ele>
        <time>2026-09-03T06:24:07.000Z</time>
        <extensions>
          <ns3:TrackPointExtension>
            <ns3:hr>110</ns3:hr>
            <ns3:cad>0</ns3:cad>
          </ns3:TrackPointExtension>
        </extensions>
      </trkpt>
      <trkpt lat="44.7092606127262115478515625" lon="6.74781787209212779998779296875">
        <ele>1397.800048828125</ele>
        <time>2026-09-03T06:24:08.000Z</time>
        <extensions>
          <ns3:TrackPointExtension>
            <ns3:hr>110</ns3:hr>
            <ns3:cad>0</ns3:cad>
          </ns3:TrackPointExtension>
        </extensions>
      </trkpt>
      <trkpt lat="44.709249548614025115966796875" lon="6.74782625399529933929443359375">
        <ele>1398</ele>
        <time>2026-09-03T06:24:09.000Z</time>
        <extensions>
          <ns3:TrackPointExtension>
            <ns3:hr>110</ns3:hr>
            <ns3:cad>0</ns3:cad>
          </ns3:TrackPointExtension>
        </extensions>
      </trkpt>
      <trkpt lat="44.70923555083572864532470703125" lon="6.74783446826040744781494140625">
        <ele>1398.199951171875</ele>
        <time>2026-09-03T06:24:10.000Z</time>
        <extensions>
          <ns3:TrackPointExtension>
            <ns3:hr>111</ns3:hr>
            <ns3:cad>0</ns3:cad>
          </ns3:TrackPointExtension>
        </extensions>
      </trkpt>
      <trkpt lat="44.70923102460801601409912109375" lon="6.7478410899639129638671875">
        <ele>1398.4000244140625</ele>
        <time>2026-09-03T06:24:11.000Z</time>
        <extensions>
          <ns3:TrackPointExtension>
            <ns3:hr>111</ns3:hr>
            <ns3:cad>0</ns3:cad>
          </ns3:TrackPointExtension>
        </extensions>
      </trkpt>
      <trkpt lat="44.70922700129449367523193359375" lon="6.7478348873555660247802734375">
        <ele>1398.5999755859375</ele>
        <time>2026-09-03T06:24:12.000Z</time>
        <extensions>
          <ns3:TrackPointExtension>
            <ns3:hr>111</ns3:hr>
            <ns3:cad>0</ns3:cad>
          </ns3:TrackPointExtension>
        </extensions>
      </trkpt>
      <trkpt lat="44.7092165239155292510986328125" lon="6.74783631227910518646240234375">
        <ele>1398.800048828125</ele>
        <time>2026-09-03T06:24:13.000Z</time>
        <extensions>
          <ns3:TrackPointExtension>
            <ns3:hr>112</ns3:hr>
            <ns3:cad>0</ns3:cad>
          </ns3:TrackPointExtension>
        </extensions>
      </trkpt>
      <trkpt lat="44.70921099185943603515625" lon="6.747840754687786102294921875">
        <ele>1399.199951171875</ele>
        <time>2026-09-03T06:24:14.000Z</time>
        <extensions>
          <ns3:TrackPointExtension>
            <ns3:hr>112</ns3:hr>
            <ns3:cad>0</ns3:cad>
          </ns3:TrackPointExtension>
        </extensions>
      </trkpt>
      <trkpt lat="44.70920504070818424224853515625" lon="6.74783815629780292510986328125">
        <ele>1399.4000244140625</ele>
        <time>2026-09-03T06:24:15.000Z</time>
        <extensions>
          <ns3:TrackPointExtension>
            <ns3:hr>113</ns3:hr>
            <ns3:cad>0</ns3:cad>
          </ns3:TrackPointExtension>
        </extensions>
      </trkpt>
      <trkpt lat="44.70919959247112274169921875" lon="6.747842766344547271728515625">
        <ele>1399.5999755859375</ele>
        <time>2026-09-03T06:24:16.000Z</time>
        <extensions>
          <ns3:TrackPointExtension>
            <ns3:hr>114</ns3:hr>
            <ns3:cad>0</ns3:cad>
          </ns3:TrackPointExtension>
        </extensions>
      </trkpt>
      <trkpt lat="44.7091907076537609100341796875" lon="6.74784653820097446441650390625">
        <ele>1400</ele>
        <time>2026-09-03T06:24:17.000Z</time>
        <extensions>
          <ns3:TrackPointExtension>
            <ns3:hr>114</ns3:hr>
            <ns3:cad>0</ns3:cad>
          </ns3:TrackPointExtension>
        </extensions>
      </trkpt>
      <trkpt lat="44.70918760634958744049072265625" lon="6.74784804694354534149169921875">
        <ele>1400.199951171875</ele>
        <time>2026-09-03T06:24:18.000Z</time>
        <extensions>
          <ns3:TrackPointExtension>
            <ns3:hr>115</ns3:hr>
            <ns3:cad>0</ns3:cad>
          </ns3:TrackPointExtension>
        </extensions>
      </trkpt>
      <trkpt lat="44.70918375067412853240966796875" lon="6.74785039387643337249755859375">
        <ele>1400.4000244140625</ele>
        <time>2026-09-03T06:24:19.000Z</time>
        <extensions>
          <ns3:TrackPointExtension>
            <ns3:hr>116</ns3:hr>
            <ns3:cad>0</ns3:cad>
          </ns3:TrackPointExtension>
        </extensions>
      </trkpt>
      <trkpt lat="44.7091772966086864471435546875" lon="6.7478506453335285186767578125">
        <ele>1400.5999755859375</ele>
        <time>2026-09-03T06:24:20.000Z</time>
        <extensions>
          <ns3:TrackPointExtension>
            <ns3:hr>117</ns3:hr>
            <ns3:cad>0</ns3:cad>
          </ns3:TrackPointExtension>
        </extensions>
      </trkpt>
      <trkpt lat="44.7091722674667835235595703125" lon="6.74785274080932140350341796875">
        <ele>1401</ele>
        <time>2026-09-03T06:24:21.000Z</time>
        <extensions>
          <ns3:TrackPointExtension>
            <ns3:hr>117</ns3:hr>
            <ns3:cad>0</ns3:cad>
          </ns3:TrackPointExtension>
        </extensions>
      </trkpt>
      <trkpt lat="44.7091675736010074615478515625" lon="6.74785139970481395721435546875">
        <ele>1401.199951171875</ele>
        <time>2026-09-03T06:24:22.000Z</time>
        <extensions>
          <ns3:TrackPointExtension>
            <ns3:hr>118</ns3:hr>
            <ns3:cad>0</ns3:cad>
          </ns3:TrackPointExtension>
        </extensions>
      </trkpt>
      <trkpt lat="44.70916204154491424560546875" lon="6.747855506837368011474609375">
        <ele>1401.4000244140625</ele>
        <time>2026-09-03T06:24:23.000Z</time>
        <extensions>
          <ns3:TrackPointExtension>
            <ns3:hr>119</ns3:hr>
            <ns3:cad>0</ns3:cad>
          </ns3:TrackPointExtension>
        </extensions>
      </trkpt>
      <trkpt lat="44.7091585211455821990966796875" lon="6.747857518494129180908203125">
        <ele>1401.5999755859375</ele>
        <time>2026-09-03T06:24:24.000Z</time>
        <extensions>
          <ns3:TrackPointExtension>
            <ns3:hr>120</ns3:hr>
            <ns3:cad>0</ns3:cad>
          </ns3:TrackPointExtension>
        </extensions>
      </trkpt>
      <trkpt lat="44.7091531567275524139404296875" lon="6.74786028452217578887939453125">
        <ele>1401.800048828125</ele>
        <time>2026-09-03T06:24:25.000Z</time>
        <extensions>
          <ns3:TrackPointExtension>
            <ns3:hr>120</ns3:hr>
            <ns3:cad>0</ns3:cad>
          </ns3:TrackPointExtension>
        </extensions>
      </trkpt>
      <trkpt lat="44.70914804376661777496337890625" lon="6.74786447547376155853271484375">
        <ele>1402</ele>
        <time>2026-09-03T06:24:26.000Z</time>
        <extensions>
          <ns3:TrackPointExtension>
            <ns3:hr>121</ns3:hr>
            <ns3:cad>0</ns3:cad>
          </ns3:TrackPointExtension>
        </extensions>
      </trkpt>
      <trkpt lat="44.70913999713957309722900390625" lon="6.7478607036173343658447265625">
        <ele>1402</ele>
        <time>2026-09-03T06:24:27.000Z</time>
        <extensions>
          <ns3:TrackPointExtension>
            <ns3:hr>122</ns3:hr>
            <ns3:cad>0</ns3:cad>
          </ns3:TrackPointExtension>
        </extensions>
      </trkpt>
      <trkpt lat="44.70912658609449863433837890625" lon="6.747858189046382904052734375">
        <ele>1402.4000244140625</ele>
        <time>2026-09-03T06:24:28.000Z</time>
        <extensions>
          <ns3:TrackPointExtension>
            <ns3:hr>123</ns3:hr>
            <ns3:cad>0</ns3:cad>
          </ns3:TrackPointExtension>
        </extensions>
      </trkpt>
      <trkpt lat="44.7091184556484222412109375" lon="6.74785860814154148101806640625">
        <ele>1402.5999755859375</ele>
        <time>2026-09-03T06:24:29.000Z</time>
        <extensions>
          <ns3:TrackPointExtension>
            <ns3:hr>123</ns3:hr>
            <ns3:cad>0</ns3:cad>
          </ns3:TrackPointExtension>
        </extensions>
      </trkpt>
      <trkpt lat="44.70911418087780475616455078125" lon="6.74786179326474666595458984375">
        <ele>1402.800048828125</ele>
        <time>2026-09-03T06:24:30.000Z</time>
        <extensions>
          <ns3:TrackPointExtension>
            <ns3:hr>124</ns3:hr>
            <ns3:cad>0</ns3:cad>
          </ns3:TrackPointExtension>
        </extensions>
      </trkpt>
      <trkpt lat="44.70910705626010894775390625" lon="6.7478674091398715972900390625">
        <ele>1403</ele>
        <time>2026-09-03T06:24:31.000Z</time>
        <extensions>
          <ns3:TrackPointExtension>
            <ns3:hr>125</ns3:hr>
            <ns3:cad>0</ns3:cad>
          </ns3:TrackPointExtension>
        </extensions>
      </trkpt>
      <trkpt lat="44.709102697670459747314453125" lon="6.7478710971772670745849609375">
        <ele>1403.4000244140625</ele>
        <time>2026-09-03T06:24:32.000Z</time>
        <extensions>
          <ns3:TrackPointExtension>
            <ns3:hr>126</ns3:hr>
            <ns3:cad>0</ns3:cad>
          </ns3:TrackPointExtension>
        </extensions>
      </trkpt>
      <trkpt lat="44.70909708179533481597900390625" lon="6.74788107164204120635986328125">
        <ele>1403.5999755859375</ele>
        <time>2026-09-03T06:24:33.000Z</time>
        <extensions>
          <ns3:TrackPointExtension>
            <ns3:hr>127</ns3:hr>
            <ns3:cad>0</ns3:cad>
          </ns3:TrackPointExtension>
        </extensions>
      </trkpt>
      <trkpt lat="44.7090948186814785003662109375" lon="6.74787998199462890625">
        <ele>1403.800048828125</ele>
        <time>2026-09-03T06:24:34.000Z</time>
        <extensions>
          <ns3:TrackPointExtension>
            <ns3:hr>127</ns3:hr>
            <ns3:cad>0</ns3:cad>
          </ns3:TrackPointExtension>
        </extensions>
      </trkpt>
      <trkpt lat="44.70908450894057750701904296875" lon="6.74788844771683216094970703125">
        <ele>1404</ele>
        <time>2026-09-03T06:24:35.000Z</time>
        <extensions>
          <ns3:TrackPointExtension>
            <ns3:hr>128</ns3:hr>
            <ns3:cad>0</ns3:cad>
          </ns3:TrackPointExtension>
        </extensions>
      </trkpt>
      <trkpt lat="44.7090782225131988525390625" lon="6.7478989250957965850830078125">
        <ele>1404.199951171875</ele>
        <time>2026-09-03T06:24:36.000Z</time>
        <extensions>
          <ns3:TrackPointExtension>
            <ns3:hr>128</ns3:hr>
            <ns3:cad>0</ns3:cad>
          </ns3:TrackPointExtension>
        </extensions>
      </trkpt>
      <trkpt lat="44.7090733610093593597412109375" lon="6.74790537916123867034912109375">
        <ele>1404.4000244140625</ele>
        <time>2026-09-03T06:24:37.000Z</time>
        <extensions>
          <ns3:TrackPointExtension>
            <ns3:hr>129</ns3:hr>
            <ns3:cad>0</ns3:cad>
          </ns3:TrackPointExtension>
        </extensions>
      </trkpt>
      <trkpt lat="44.70907243900001049041748046875" lon="6.74791057594120502471923828125">
        <ele>1404.5999755859375</ele>
        <time>2026-09-03T06:24:38.000Z</time>
        <extensions>
          <ns3:TrackPointExtension>
            <ns3:hr>130</ns3:hr>
            <ns3:cad>0</ns3:cad>
          </ns3:TrackPointExtension>
        </extensions>
      </trkpt>
      <trkpt lat="44.70906791277229785919189453125" lon="6.74791778437793254852294921875">
        <ele>1405</ele>
        <time>2026-09-03T06:24:39.000Z</time>
        <extensions>
          <ns3:TrackPointExtension>
            <ns3:hr>130</ns3:hr>
            <ns3:cad>0</ns3:cad>
          </ns3:TrackPointExtension>
        </extensions>
      </trkpt>
      <trkpt lat="44.70906321890652179718017578125" lon="6.747926585376262664794921875">
        <ele>1405.199951171875</ele>
        <time>2026-09-03T06:24:40.000Z</time>
        <extensions>
          <ns3:TrackPointExtension>
            <ns3:hr>131</ns3:hr>
            <ns3:cad>0</ns3:cad>
          </ns3:TrackPointExtension>
        </extensions>
      </trkpt>
      <trkpt lat="44.70905701629817485809326171875" lon="6.74793857149779796600341796875">
        <ele>1405.199951171875</ele>
        <time>2026-09-03T06:24:41.000Z</time>
        <extensions>
          <ns3:TrackPointExtension>
            <ns3:hr>132</ns3:hr>
            <ns3:cad>0</ns3:cad>
          </ns3:TrackPointExtension>
        </extensions>
      </trkpt>
      <trkpt lat="44.70905450172722339630126953125" lon="6.7479435168206691741943359375">
        <ele>1405.4000244140625</ele>
        <time>2026-09-03T06:24:42.000Z</time>
        <extensions>
          <ns3:TrackPointExtension>
            <ns3:hr>133</ns3:hr>
            <ns3:cad>0</ns3:cad>
          </ns3:TrackPointExtension>
        </extensions>
      </trkpt>
      <trkpt lat="44.7090542502701282501220703125" lon="6.74794360063970088958740234375">
        <ele>1405.5999755859375</ele>
        <time>2026-09-03T06:24:43.000Z</time>
        <extensions>
          <ns3:TrackPointExtension>
            <ns3:hr>133</ns3:hr>
            <ns3:cad>0</ns3:cad>
          </ns3:TrackPointExtension>
        </extensions>
      </trkpt>
      <trkpt lat="44.7090485505759716033935546875" lon="6.74795441329479217529296875">
        <ele>1405.800048828125</ele>
        <time>2026-09-03T06:24:44.000Z</time>
        <extensions>
          <ns3:TrackPointExtension>
            <ns3:hr>134</ns3:hr>
            <ns3:cad>52</ns3:cad>
          </ns3:TrackPointExtension>
        </extensions>
      </trkpt>
      <trkpt lat="44.7090418450534343719482421875" lon="6.74796572886407375335693359375">
        <ele>1406</ele>
        <time>2026-09-03T06:24:45.000Z</time>
        <extensions>
          <ns3:TrackPointExtension>
            <ns3:hr>135</ns3:hr>
            <ns3:cad>52</ns3:cad>
          </ns3:TrackPointExtension>
        </extensions>
      </trkpt>
      <trkpt lat="44.7090364806354045867919921875" lon="6.74797629006206989288330078125">
        <ele>1406.199951171875</ele>
        <time>2026-09-03T06:24:46.000Z</time>
        <extensions>
          <ns3:TrackPointExtension>
            <ns3:hr>136</ns3:hr>
            <ns3:cad>52</ns3:cad>
          </ns3:TrackPointExtension>
        </extensions>
      </trkpt>
      <trkpt lat="44.709031619131565093994140625" lon="6.747984923422336578369140625">
        <ele>1406.4000244140625</ele>
        <time>2026-09-03T06:24:47.000Z</time>
        <extensions>
          <ns3:TrackPointExtension>
            <ns3:hr>138</ns3:hr>
            <ns3:cad>52</ns3:cad>
          </ns3:TrackPointExtension>
        </extensions>
      </trkpt>
      <trkpt lat="44.70902533270418643951416015625" lon="6.74799774773418903350830078125">
        <ele>1406.5999755859375</ele>
        <time>2026-09-03T06:24:48.000Z</time>
        <extensions>
          <ns3:TrackPointExtension>
            <ns3:hr>140</ns3:hr>
            <ns3:cad>0</ns3:cad>
          </ns3:TrackPointExtension>
        </extensions>
      </trkpt>
      <trkpt lat="44.709020219743251800537109375" lon="6.74800663255155086517333984375">
        <ele>1406.800048828125</ele>
        <time>2026-09-03T06:24:49.000Z</time>
        <extensions>
          <ns3:TrackPointExtension>
            <ns3:hr>141</ns3:hr>
            <ns3:cad>0</ns3:cad>
          </ns3:TrackPointExtension>
        </extensions>
      </trkpt>
      <trkpt lat="44.70901711843907833099365234375" lon="6.74801476299762725830078125">
        <ele>1407</ele>
        <time>2026-09-03T06:24:50.000Z</time>
        <extensions>
          <ns3:TrackPointExtension>
            <ns3:hr>142</ns3:hr>
            <ns3:cad>0</ns3:cad>
          </ns3:TrackPointExtension>
        </extensions>
      </trkpt>
      <trkpt lat="44.70901343040168285369873046875" lon="6.74802540801465511322021484375">
        <ele>1407.199951171875</ele>
        <time>2026-09-03T06:24:51.000Z</time>
        <extensions>
          <ns3:TrackPointExtension>
            <ns3:hr>144</ns3:hr>
            <ns3:cad>0</ns3:cad>
          </ns3:TrackPointExtension>
        </extensions>
      </trkpt>
      <trkpt lat="44.70901125110685825347900390625" lon="6.7480303533375263214111328125">
        <ele>1407.4000244140625</ele>
        <time>2026-09-03T06:24:52.000Z</time>
        <extensions>
          <ns3:TrackPointExtension>
            <ns3:hr>145</ns3:hr>
            <ns3:cad>0</ns3:cad>
          </ns3:TrackPointExtension>
        </extensions>
      </trkpt>
      <trkpt lat="44.7090069763362407684326171875" lon="6.74803948961198329925537109375">
        <ele>1407.5999755859375</ele>
        <time>2026-09-03T06:24:53.000Z</time>
        <extensions>
          <ns3:TrackPointExtension>
            <ns3:hr>145</ns3:hr>
            <ns3:cad>0</ns3:cad>
          </ns3:TrackPointExtension>
        </extensions>
      </trkpt>
      <trkpt lat="44.70900421030819416046142578125" lon="6.74804720096290111541748046875">
        <ele>1407.5999755859375</ele>
        <time>2026-09-03T06:24:54.000Z</time>
        <extensions>
          <ns3:TrackPointExtension>
            <ns3:hr>146</ns3:hr>
            <ns3:cad>0</ns3:cad>
          </ns3:TrackPointExtension>
        </extensions>
      </trkpt>
      <trkpt lat="44.708999097347259521484375" lon="6.74805826507508754730224609375">
        <ele>1407.800048828125</ele>
        <time>2026-09-03T06:24:55.000Z</time>
        <extensions>
          <ns3:TrackPointExtension>
            <ns3:hr>146</ns3:hr>
            <ns3:cad>0</ns3:cad>
          </ns3:TrackPointExtension>
        </extensions>
      </trkpt>
      <trkpt lat="44.7089985944330692291259765625" lon="6.7480715923011302947998046875">
        <ele>1408</ele>
        <time>2026-09-03T06:24:56.000Z</time>
        <extensions>
          <ns3:TrackPointExtension>
            <ns3:hr>146</ns3:hr>
            <ns3:cad>0</ns3:cad>
          </ns3:TrackPointExtension>
        </extensions>
      </trkpt>
      <trkpt lat="44.708994068205356597900390625" lon="6.74806597642600536346435546875">
        <ele>1408.199951171875</ele>
        <time>2026-09-03T06:24:57.000Z</time>
        <extensions>
          <ns3:TrackPointExtension>
            <ns3:hr>146</ns3:hr>
            <ns3:cad>0</ns3:cad>
          </ns3:TrackPointExtension>
        </extensions>
      </trkpt>
      <trkpt lat="44.70899096690118312835693359375" lon="6.7480813153088092803955078125">
        <ele>1408.4000244140625</ele>
        <time>2026-09-03T06:24:58.000Z</time>
        <extensions>
          <ns3:TrackPointExtension>
            <ns3:hr>146</ns3:hr>
            <ns3:cad>0</ns3:cad>
          </ns3:TrackPointExtension>
        </extensions>
      </trkpt>
      <trkpt lat="44.70898778177797794342041015625" lon="6.74809120595455169677734375">
        <ele>1408.4000244140625</ele>
        <time>2026-09-03T06:24:59.000Z</time>
        <extensions>
          <ns3:TrackPointExtension>
            <ns3:hr>146</ns3:hr>
            <ns3:cad>0</ns3:cad>
          </ns3:TrackPointExtension>
        </extensions>
      </trkpt>
      <trkpt lat="44.70898325555026531219482421875" lon="6.74809615127742290496826171875">
        <ele>1408.5999755859375</ele>
        <time>2026-09-03T06:25:00.000Z</time>
        <extensions>
          <ns3:TrackPointExtension>
            <ns3:hr>146</ns3:hr>
            <ns3:cad>0</ns3:cad>
          </ns3:TrackPointExtension>
        </extensions>
      </trkpt>
      <trkpt lat="44.7089814953505992889404296875" lon="6.7481064610183238983154296875">
        <ele>1408.800048828125</ele>
        <time>2026-09-03T06:25:01.000Z</time>
        <extensions>
          <ns3:TrackPointExtension>
            <ns3:hr>146</ns3:hr>
            <ns3:cad>0</ns3:cad>
          </ns3:TrackPointExtension>
        </extensions>
      </trkpt>
      <trkpt lat="44.7089838422834873199462890625" lon="6.748116016387939453125">
        <ele>1409</ele>
        <time>2026-09-03T06:25:02.000Z</time>
        <extensions>
          <ns3:TrackPointExtension>
            <ns3:hr>146</ns3:hr>
            <ns3:cad>0</ns3:cad>
          </ns3:TrackPointExtension>
        </extensions>
      </trkpt>
      <trkpt lat="44.7089871950447559356689453125" lon="6.7481245659291744232177734375">
        <ele>1409.199951171875</ele>
        <time>2026-09-03T06:25:03.000Z</time>
        <extensions>
          <ns3:TrackPointExtension>
            <ns3:hr>145</ns3:hr>
            <ns3:cad>0</ns3:cad>
          </ns3:TrackPointExtension>
        </extensions>
      </trkpt>
      <trkpt lat="44.708983339369297027587890625" lon="6.7481309361755847930908203125">
        <ele>1409.4000244140625</ele>
        <time>2026-09-03T06:25:04.000Z</time>
        <extensions>
          <ns3:TrackPointExtension>
            <ns3:hr>144</ns3:hr>
            <ns3:cad>0</ns3:cad>
          </ns3:TrackPointExtension>
        </extensions>
      </trkpt>
      <trkpt lat="44.7089828364551067352294921875" lon="6.74814275465905666351318359375">
        <ele>1409.5999755859375</ele>
        <time>2026-09-03T06:25:05.000Z</time>
        <extensions>
          <ns3:TrackPointExtension>
            <ns3:hr>144</ns3:hr>
            <ns3:cad>0</ns3:cad>
          </ns3:TrackPointExtension>
        </extensions>
      </trkpt>
      <trkpt lat="44.708982668817043304443359375" lon="6.74815163947641849517822265625">
        <ele>1409.800048828125</ele>
        <time>2026-09-03T06:25:06.000Z</time>
        <extensions>
          <ns3:TrackPointExtension>
            <ns3:hr>145</ns3:hr>
            <ns3:cad>0</ns3:cad>
          </ns3:TrackPointExtension>
        </extensions>
      </trkpt>
      <trkpt lat="44.70898476429283618927001953125" lon="6.74816320650279521942138671875">
        <ele>1410</ele>
        <time>2026-09-03T06:25:07.000Z</time>
        <extensions>
          <ns3:TrackPointExtension>
            <ns3:hr>145</ns3:hr>
            <ns3:cad>0</ns3:cad>
          </ns3:TrackPointExtension>
        </extensions>
      </trkpt>
      <trkpt lat="44.70898543484508991241455078125" lon="6.74817225895822048187255859375">
        <ele>1410.199951171875</ele>
        <time>2026-09-03T06:25:08.000Z</time>
        <extensions>
          <ns3:TrackPointExtension>
            <ns3:hr>145</ns3:hr>
            <ns3:cad>0</ns3:cad>
          </ns3:TrackPointExtension>
        </extensions>
      </trkpt>
      <trkpt lat="44.7089858539402484893798828125" lon="6.748183071613311767578125">
        <ele>1410.4000244140625</ele>
        <time>2026-09-03T06:25:09.000Z</time>
        <extensions>
          <ns3:TrackPointExtension>
            <ns3:hr>145</ns3:hr>
            <ns3:cad>0</ns3:cad>
          </ns3:TrackPointExtension>
        </extensions>
      </trkpt>
      <trkpt lat="44.70898878760635852813720703125" lon="6.74818935804069042205810546875">
        <ele>1410.4000244140625</ele>
        <time>2026-09-03T06:25:10.000Z</time>
        <extensions>
          <ns3:TrackPointExtension>
            <ns3:hr>145</ns3:hr>
            <ns3:cad>0</ns3:cad>
          </ns3:TrackPointExtension>
        </extensions>
      </trkpt>
      <trkpt lat="44.708988703787326812744140625" lon="6.74820226617157459259033203125">
        <ele>1410.5999755859375</ele>
        <time>2026-09-03T06:25:11.000Z</time>
        <extensions>
          <ns3:TrackPointExtension>
            <ns3:hr>145</ns3:hr>
            <ns3:cad>0</ns3:cad>
          </ns3:TrackPointExtension>
        </extensions>
      </trkpt>
      <trkpt lat="44.7089870274066925048828125" lon="6.74821400083601474761962890625">
        <ele>1410.800048828125</ele>
        <time>2026-09-03T06:25:12.000Z</time>
        <extensions>
          <ns3:TrackPointExtension>
            <ns3:hr>146</ns3:hr>
            <ns3:cad>0</ns3:cad>
          </ns3:TrackPointExtension>
        </extensions>
      </trkpt>
      <trkpt lat="44.70899113453924655914306640625" lon="6.74822858534753322601318359375">
        <ele>1411</ele>
        <time>2026-09-03T06:25:13.000Z</time>
        <extensions>
          <ns3:TrackPointExtension>
            <ns3:hr>145</ns3:hr>
            <ns3:cad>0</ns3:cad>
          </ns3:TrackPointExtension>
        </extensions>
      </trkpt>
      <trkpt lat="44.7089908830821514129638671875" lon="6.7482375539839267730712890625">
        <ele>1411.199951171875</ele>
        <time>2026-09-03T06:25:14.000Z</time>
        <extensions>
          <ns3:TrackPointExtension>
            <ns3:hr>145</ns3:hr>
            <ns3:cad>0</ns3:cad>
          </ns3:TrackPointExtension>
        </extensions>
      </trkpt>
      <trkpt lat="44.7089939005672931671142578125" lon="6.7482549883425235748291015625">
        <ele>1411.4000244140625</ele>
        <time>2026-09-03T06:25:15.000Z</time>
        <extensions>
          <ns3:TrackPointExtension>
            <ns3:hr>146</ns3:hr>
            <ns3:cad>0</ns3:cad>
          </ns3:TrackPointExtension>
        </extensions>
      </trkpt>
      <trkpt lat="44.708993397653102874755859375" lon="6.74826630391180515289306640625">
        <ele>1411.5999755859375</ele>
        <time>2026-09-03T06:25:16.000Z</time>
        <extensions>
          <ns3:TrackPointExtension>
            <ns3:hr>145</ns3:hr>
            <ns3:cad>0</ns3:cad>
          </ns3:TrackPointExtension>
        </extensions>
      </trkpt>
      <trkpt lat="44.70899348147213459014892578125" lon="6.74827703274786472320556640625">
        <ele>1411.800048828125</ele>
        <time>2026-09-03T06:25:17.000Z</time>
        <extensions>
          <ns3:TrackPointExtension>
            <ns3:hr>145</ns3:hr>
            <ns3:cad>0</ns3:cad>
          </ns3:TrackPointExtension>
        </extensions>
      </trkpt>
      <trkpt lat="44.70899264328181743621826171875" lon="6.74828658811748027801513671875">
        <ele>1412</ele>
        <time>2026-09-03T06:25:18.000Z</time>
        <extensions>
          <ns3:TrackPointExtension>
            <ns3:hr>145</ns3:hr>
            <ns3:cad>0</ns3:cad>
          </ns3:TrackPointExtension>
        </extensions>
      </trkpt>
      <trkpt lat="44.7089928947389125823974609375" lon="6.7482891865074634552001953125">
        <ele>1412.199951171875</ele>
        <time>2026-09-03T06:25:19.000Z</time>
        <extensions>
          <ns3:TrackPointExtension>
            <ns3:hr>145</ns3:hr>
            <ns3:cad>0</ns3:cad>
          </ns3:TrackPointExtension>
        </extensions>
      </trkpt>
      <trkpt lat="44.708992727100849151611328125" lon="6.74830016680061817169189453125">
        <ele>1412.4000244140625</ele>
        <time>2026-09-03T06:25:20.000Z</time>
        <extensions>
          <ns3:TrackPointExtension>
            <ns3:hr>146</ns3:hr>
            <ns3:cad>0</ns3:cad>
          </ns3:TrackPointExtension>
        </extensions>
      </trkpt>
      <trkpt lat="44.70899314619600772857666015625" lon="6.7483069561421871185302734375">
        <ele>1412.5999755859375</ele>
        <time>2026-09-03T06:25:21.000Z</time>
        <extensions>
          <ns3:TrackPointExtension>
            <ns3:hr>145</ns3:hr>
            <ns3:cad>0</ns3:cad>
          </ns3:TrackPointExtension>
        </extensions>
      </trkpt>
      <trkpt lat="44.70899331383407115936279296875" lon="6.74831525422632694244384765625">
        <ele>1412.5999755859375</ele>
        <time>2026-09-03T06:25:22.000Z</time>
        <extensions>
          <ns3:TrackPointExtension>
            <ns3:hr>145</ns3:hr>
            <ns3:cad>0</ns3:cad>
          </ns3:TrackPointExtension>
        </extensions>
      </trkpt>
      <trkpt lat="44.70899415202438831329345703125" lon="6.7483331076800823211669921875">
        <ele>1412.800048828125</ele>
        <time>2026-09-03T06:25:23.000Z</time>
        <extensions>
          <ns3:TrackPointExtension>
            <ns3:hr>145</ns3:hr>
            <ns3:cad>0</ns3:cad>
          </ns3:TrackPointExtension>
        </extensions>
      </trkpt>
      <trkpt lat="44.708993732929229736328125" lon="6.74834710545837879180908203125">
        <ele>1413</ele>
        <time>2026-09-03T06:25:24.000Z</time>
        <extensions>
          <ns3:TrackPointExtension>
            <ns3:hr>145</ns3:hr>
            <ns3:cad>0</ns3:cad>
          </ns3:TrackPointExtension>
        </extensions>
      </trkpt>
      <trkpt lat="44.70899884589016437530517578125" lon="6.748365797102451324462890625">
        <ele>1413.199951171875</ele>
        <time>2026-09-03T06:25:25.000Z</time>
        <extensions>
          <ns3:TrackPointExtension>
            <ns3:hr>145</ns3:hr>
            <ns3:cad>0</ns3:cad>
          </ns3:TrackPointExtension>
        </extensions>
      </trkpt>
      <trkpt lat="44.70900236628949642181396484375" lon="6.74837711267173290252685546875">
        <ele>1413.4000244140625</ele>
        <time>2026-09-03T06:25:26.000Z</time>
        <extensions>
          <ns3:TrackPointExtension>
            <ns3:hr>145</ns3:hr>
            <ns3:cad>0</ns3:cad>
          </ns3:TrackPointExtension>
        </extensions>
      </trkpt>
      <trkpt lat="44.7090036235749721527099609375" lon="6.74838599748909473419189453125">
        <ele>1413.5999755859375</ele>
        <time>2026-09-03T06:25:27.000Z</time>
        <extensions>
          <ns3:TrackPointExtension>
            <ns3:hr>145</ns3:hr>
            <ns3:cad>0</ns3:cad>
          </ns3:TrackPointExtension>
        </extensions>
      </trkpt>
      <trkpt lat="44.70900706015527248382568359375" lon="6.74839605577290058135986328125">
        <ele>1414</ele>
        <time>2026-09-03T06:25:28.000Z</time>
        <extensions>
          <ns3:TrackPointExtension>
            <ns3:hr>145</ns3:hr>
            <ns3:cad>0</ns3:cad>
          </ns3:TrackPointExtension>
        </extensions>
      </trkpt>
      <trkpt lat="44.70900714397430419921875" lon="6.748409382998943328857421875">
        <ele>1414.199951171875</ele>
        <time>2026-09-03T06:25:29.000Z</time>
        <extensions>
          <ns3:TrackPointExtension>
            <ns3:hr>145</ns3:hr>
            <ns3:cad>0</ns3:cad>
          </ns3:TrackPointExtension>
        </extensions>
      </trkpt>
      <trkpt lat="44.709009490907192230224609375" lon="6.74842153675854206085205078125">
        <ele>1414.4000244140625</ele>
        <time>2026-09-03T06:25:30.000Z</time>
        <extensions>
          <ns3:TrackPointExtension>
            <ns3:hr>145</ns3:hr>
            <ns3:cad>0</ns3:cad>
          </ns3:TrackPointExtension>
        </extensions>
      </trkpt>
      <trkpt lat="44.7090093232691287994384765625" lon="6.7484323494136333465576171875">
        <ele>1414.5999755859375</ele>
        <time>2026-09-03T06:25:31.000Z</time>
        <extensions>
          <ns3:TrackPointExtension>
            <ns3:hr>144</ns3:hr>
            <ns3:cad>0</ns3:cad>
          </ns3:TrackPointExtension>
        </extensions>
      </trkpt>
      <trkpt lat="44.70901359803974628448486328125" lon="6.74844835884869098663330078125">
        <ele>1414.800048828125</ele>
        <time>2026-09-03T06:25:32.000Z</time>
        <extensions>
          <ns3:TrackPointExtension>
            <ns3:hr>143</ns3:hr>
            <ns3:cad>0</ns3:cad>
          </ns3:TrackPointExtension>
        </extensions>
      </trkpt>
      <trkpt lat="44.70901661552488803863525390625" lon="6.74845925532281398773193359375">
        <ele>1415</ele>
        <time>2026-09-03T06:25:33.000Z</time>
        <extensions>
          <ns3:TrackPointExtension>
            <ns3:hr>143</ns3:hr>
            <ns3:cad>0</ns3:cad>
          </ns3:TrackPointExtension>
        </extensions>
      </trkpt>
      <trkpt lat="44.70901762135326862335205078125" lon="6.748467721045017242431640625">
        <ele>1415.199951171875</ele>
        <time>2026-09-03T06:25:34.000Z</time>
        <extensions>
          <ns3:TrackPointExtension>
            <ns3:hr>142</ns3:hr>
            <ns3:cad>0</ns3:cad>
          </ns3:TrackPointExtension>
        </extensions>
      </trkpt>
      <trkpt lat="44.709022231400012969970703125" lon="6.74847484566271305084228515625">
        <ele>1415.4000244140625</ele>
        <time>2026-09-03T06:25:35.000Z</time>
        <extensions>
          <ns3:TrackPointExtension>
            <ns3:hr>142</ns3:hr>
            <ns3:cad>0</ns3:cad>
          </ns3:TrackPointExtension>
        </extensions>
      </trkpt>
      <trkpt lat="44.7090260870754718780517578125" lon="6.74849228002130985260009765625">
        <ele>1415.4000244140625</ele>
        <time>2026-09-03T06:25:36.000Z</time>
        <extensions>
          <ns3:TrackPointExtension>
            <ns3:hr>142</ns3:hr>
            <ns3:cad>0</ns3:cad>
          </ns3:TrackPointExtension>
        </extensions>
      </trkpt>
      <trkpt lat="44.70903036184608936309814453125" lon="6.7485044337809085845947265625">
        <ele>1415.5999755859375</ele>
        <time>2026-09-03T06:25:37.000Z</time>
        <extensions>
          <ns3:TrackPointExtension>
            <ns3:hr>142</ns3:hr>
            <ns3:cad>0</ns3:cad>
          </ns3:TrackPointExtension>
        </extensions>
      </trkpt>
      <trkpt lat="44.7090307809412479400634765625" lon="6.74851323477923870086669921875">
        <ele>1415.800048828125</ele>
        <time>2026-09-03T06:25:38.000Z</time>
        <extensions>
          <ns3:TrackPointExtension>
            <ns3:hr>142</ns3:hr>
            <ns3:cad>0</ns3:cad>
          </ns3:TrackPointExtension>
        </extensions>
      </trkpt>
      <trkpt lat="44.70903388224542140960693359375" lon="6.74852907657623291015625">
        <ele>1416</ele>
        <time>2026-09-03T06:25:39.000Z</time>
        <extensions>
          <ns3:TrackPointExtension>
            <ns3:hr>141</ns3:hr>
            <ns3:cad>0</ns3:cad>
          </ns3:TrackPointExtension>
        </extensions>
      </trkpt>
      <trkpt lat="44.709035642445087432861328125" lon="6.74854047596454620361328125">
        <ele>1416</ele>
        <time>2026-09-03T06:25:40.000Z</time>
        <extensions>
          <ns3:TrackPointExtension>
            <ns3:hr>141</ns3:hr>
            <ns3:cad>0</ns3:cad>
          </ns3:TrackPointExtension>
        </extensions>
      </trkpt>
      <trkpt lat="44.70903673209249973297119140625" lon="6.7485513724386692047119140625">
        <ele>1416.199951171875</ele>
        <time>2026-09-03T06:25:41.000Z</time>
        <extensions>
          <ns3:TrackPointExtension>
            <ns3:hr>141</ns3:hr>
            <ns3:cad>0</ns3:cad>
          </ns3:TrackPointExtension>
        </extensions>
      </trkpt>
      <trkpt lat="44.70903874374926090240478515625" lon="6.74856268800795078277587890625">
        <ele>1416.4000244140625</ele>
        <time>2026-09-03T06:25:42.000Z</time>
        <extensions>
          <ns3:TrackPointExtension>
            <ns3:hr>142</ns3:hr>
            <ns3:cad>0</ns3:cad>
          </ns3:TrackPointExtension>
        </extensions>
      </trkpt>
      <trkpt lat="44.70903991721570491790771484375" lon="6.74858246929943561553955078125">
        <ele>1416.5999755859375</ele>
        <time>2026-09-03T06:25:43.000Z</time>
        <extensions>
          <ns3:TrackPointExtension>
            <ns3:hr>141</ns3:hr>
            <ns3:cad>0</ns3:cad>
          </ns3:TrackPointExtension>
        </extensions>
      </trkpt>
      <trkpt lat="44.70903891138732433319091796875" lon="6.748596131801605224609375">
        <ele>1416.5999755859375</ele>
        <time>2026-09-03T06:25:44.000Z</time>
        <extensions>
          <ns3:TrackPointExtension>
            <ns3:hr>141</ns3:hr>
            <ns3:cad>0</ns3:cad>
          </ns3:TrackPointExtension>
        </extensions>
      </trkpt>
      <trkpt lat="44.70903069712221622467041015625" lon="6.74861197359859943389892578125">
        <ele>1416.800048828125</ele>
        <time>2026-09-03T06:25:45.000Z</time>
        <extensions>
          <ns3:TrackPointExtension>
            <ns3:hr>142</ns3:hr>
            <ns3:cad>0</ns3:cad>
          </ns3:TrackPointExtension>
        </extensions>
      </trkpt>
      <trkpt lat="44.70902902074158191680908203125" lon="6.74862739630043506622314453125">
        <ele>1416.800048828125</ele>
        <time>2026-09-03T06:25:46.000Z</time>
        <extensions>
          <ns3:TrackPointExtension>
            <ns3:hr>141</ns3:hr>
            <ns3:cad>0</ns3:cad>
          </ns3:TrackPointExtension>
        </extensions>
      </trkpt>
      <trkpt lat="44.70902265049517154693603515625" lon="6.74864650703966617584228515625">
        <ele>1416.800048828125</ele>
        <time>2026-09-03T06:25:47.000Z</time>
        <extensions>
          <ns3:TrackPointExtension>
            <ns3:hr>141</ns3:hr>
            <ns3:cad>0</ns3:cad>
          </ns3:TrackPointExtension>
        </extensions>
      </trkpt>
      <trkpt lat="44.70901988446712493896484375" lon="6.74865857698023319244384765625">
        <ele>1417</ele>
        <time>2026-09-03T06:25:48.000Z</time>
        <extensions>
          <ns3:TrackPointExtension>
            <ns3:hr>141</ns3:hr>
            <ns3:cad>0</ns3:cad>
          </ns3:TrackPointExtension>
        </extensions>
      </trkpt>
      <trkpt lat="44.709017537534236907958984375" lon="6.74867458641529083251953125">
        <ele>1417</ele>
        <time>2026-09-03T06:25:49.000Z</time>
        <extensions>
          <ns3:TrackPointExtension>
            <ns3:hr>141</ns3:hr>
            <ns3:cad>0</ns3:cad>
          </ns3:TrackPointExtension>
        </extensions>
      </trkpt>
      <trkpt lat="44.70901359803974628448486328125" lon="6.74868808127939701080322265625">
        <ele>1417</ele>
        <time>2026-09-03T06:25:50.000Z</time>
        <extensions>
          <ns3:TrackPointExtension>
            <ns3:hr>143</ns3:hr>
            <ns3:cad>0</ns3:cad>
          </ns3:TrackPointExtension>
        </extensions>
      </trkpt>
      <trkpt lat="44.70900739543139934539794921875" lon="6.74870283342897891998291015625">
        <ele>1417.199951171875</ele>
        <time>2026-09-03T06:25:51.000Z</time>
        <extensions>
          <ns3:TrackPointExtension>
            <ns3:hr>144</ns3:hr>
            <ns3:cad>0</ns3:cad>
          </ns3:TrackPointExtension>
        </extensions>
      </trkpt>
      <trkpt lat="44.70900320447981357574462890625" lon="6.7487183399498462677001953125">
        <ele>1417.199951171875</ele>
        <time>2026-09-03T06:25:52.000Z</time>
        <extensions>
          <ns3:TrackPointExtension>
            <ns3:hr>145</ns3:hr>
            <ns3:cad>0</ns3:cad>
          </ns3:TrackPointExtension>
        </extensions>
      </trkpt>
      <trkpt lat="44.709001444280147552490234375" lon="6.74873703159391880035400390625">
        <ele>1417.199951171875</ele>
        <time>2026-09-03T06:25:53.000Z</time>
        <extensions>
          <ns3:TrackPointExtension>
            <ns3:hr>146</ns3:hr>
            <ns3:cad>0</ns3:cad>
          </ns3:TrackPointExtension>
        </extensions>
      </trkpt>
      <trkpt lat="44.70899951644241809844970703125" lon="6.7487491853535175323486328125">
        <ele>1417.4000244140625</ele>
        <time>2026-09-03T06:25:54.000Z</time>
        <extensions>
          <ns3:TrackPointExtension>
            <ns3:hr>147</ns3:hr>
            <ns3:cad>18</ns3:cad>
          </ns3:TrackPointExtension>
        </extensions>
      </trkpt>
      <trkpt lat="44.70899314619600772857666015625" lon="6.74876653589308261871337890625">
        <ele>1417.4000244140625</ele>
        <time>2026-09-03T06:25:55.000Z</time>
        <extensions>
          <ns3:TrackPointExtension>
            <ns3:hr>146</ns3:hr>
            <ns3:cad>18</ns3:cad>
          </ns3:TrackPointExtension>
        </extensions>
      </trkpt>
      <trkpt lat="44.70898912288248538970947265625" lon="6.74877743236720561981201171875">
        <ele>1417.4000244140625</ele>
        <time>2026-09-03T06:25:56.000Z</time>
        <extensions>
          <ns3:TrackPointExtension>
            <ns3:hr>146</ns3:hr>
            <ns3:cad>18</ns3:cad>
          </ns3:TrackPointExtension>
        </extensions>
      </trkpt>
      <trkpt lat="44.70898224972188472747802734375" lon="6.748794279992580413818359375">
        <ele>1417.4000244140625</ele>
        <time>2026-09-03T06:25:57.000Z</time>
        <extensions>
          <ns3:TrackPointExtension>
            <ns3:hr>146</ns3:hr>
            <ns3:cad>18</ns3:cad>
          </ns3:TrackPointExtension>
        </extensions>
      </trkpt>
      <trkpt lat="44.70897906459867954254150390625" lon="6.74880442209541797637939453125">
        <ele>1417.4000244140625</ele>
        <time>2026-09-03T06:25:58.000Z</time>
        <extensions>
          <ns3:TrackPointExtension>
            <ns3:hr>146</ns3:hr>
            <ns3:cad>0</ns3:cad>
          </ns3:TrackPointExtension>
        </extensions>
      </trkpt>
      <trkpt lat="44.708972275257110595703125" lon="6.748821772634983062744140625">
        <ele>1417.4000244140625</ele>
        <time>2026-09-03T06:25:59.000Z</time>
        <extensions>
          <ns3:TrackPointExtension>
            <ns3:hr>145</ns3:hr>
            <ns3:cad>0</ns3:cad>
          </ns3:TrackPointExtension>
        </extensions>
      </trkpt>
      <trkpt lat="44.7089680843055248260498046875" lon="6.74883543513715267181396484375">
        <ele>1417.4000244140625</ele>
        <time>2026-09-03T06:26:00.000Z</time>
        <extensions>
          <ns3:TrackPointExtension>
            <ns3:hr>145</ns3:hr>
            <ns3:cad>0</ns3:cad>
          </ns3:TrackPointExtension>
        </extensions>
      </trkpt>
      <trkpt lat="44.70895911566913127899169921875" lon="6.748848594725131988525390625">
        <ele>1417.5999755859375</ele>
        <time>2026-09-03T06:26:01.000Z</time>
        <extensions>
          <ns3:TrackPointExtension>
            <ns3:hr>144</ns3:hr>
            <ns3:cad>0</ns3:cad>
          </ns3:TrackPointExtension>
        </extensions>
      </trkpt>
      <trkpt lat="44.70895324833691120147705078125" lon="6.748857311904430389404296875">
        <ele>1417.5999755859375</ele>
        <time>2026-09-03T06:26:02.000Z</time>
        <extensions>
          <ns3:TrackPointExtension>
            <ns3:hr>144</ns3:hr>
            <ns3:cad>0</ns3:cad>
          </ns3:TrackPointExtension>
        </extensions>
      </trkpt>
      <trkpt lat="44.70894319005310535430908203125" lon="6.74887399189174175262451171875">
        <ele>1417.800048828125</ele>
        <time>2026-09-03T06:26:03.000Z</time>
        <extensions>
          <ns3:TrackPointExtension>
            <ns3:hr>144</ns3:hr>
            <ns3:cad>0</ns3:cad>
          </ns3:TrackPointExtension>
        </extensions>
      </trkpt>
      <trkpt lat="44.70893782563507556915283203125" lon="6.74888555891811847686767578125">
        <ele>1418</ele>
        <time>2026-09-03T06:26:04.000Z</time>
        <extensions>
          <ns3:TrackPointExtension>
            <ns3:hr>144</ns3:hr>
            <ns3:cad>0</ns3:cad>
          </ns3:TrackPointExtension>
        </extensions>
      </trkpt>
      <trkpt lat="44.70893405377864837646484375" lon="6.748903580009937286376953125">
        <ele>1418.199951171875</ele>
        <time>2026-09-03T06:26:05.000Z</time>
        <extensions>
          <ns3:TrackPointExtension>
            <ns3:hr>143</ns3:hr>
            <ns3:cad>0</ns3:cad>
          </ns3:TrackPointExtension>
        </extensions>
      </trkpt>
      <trkpt lat="44.70893145538866519927978515625" lon="6.7489181645214557647705078125">
        <ele>1418.199951171875</ele>
        <time>2026-09-03T06:26:06.000Z</time>
        <extensions>
          <ns3:TrackPointExtension>
            <ns3:hr>143</ns3:hr>
            <ns3:cad>0</ns3:cad>
          </ns3:TrackPointExtension>
        </extensions>
      </trkpt>
      <trkpt lat="44.708928354084491729736328125" lon="6.7489272169768810272216796875">
        <ele>1418.4000244140625</ele>
        <time>2026-09-03T06:26:07.000Z</time>
        <extensions>
          <ns3:TrackPointExtension>
            <ns3:hr>143</ns3:hr>
            <ns3:cad>0</ns3:cad>
          </ns3:TrackPointExtension>
        </extensions>
      </trkpt>
      <trkpt lat="44.70892558805644512176513671875" lon="6.74894272349774837493896484375">
        <ele>1418.4000244140625</ele>
        <time>2026-09-03T06:26:08.000Z</time>
        <extensions>
          <ns3:TrackPointExtension>
            <ns3:hr>142</ns3:hr>
            <ns3:cad>41</ns3:cad>
          </ns3:TrackPointExtension>
        </extensions>
      </trkpt>
      <trkpt lat="44.70892424695193767547607421875" lon="6.74895219504833221435546875">
        <ele>1418.4000244140625</ele>
        <time>2026-09-03T06:26:09.000Z</time>
        <extensions>
          <ns3:TrackPointExtension>
            <ns3:hr>142</ns3:hr>
            <ns3:cad>41</ns3:cad>
          </ns3:TrackPointExtension>
        </extensions>
      </trkpt>
      <trkpt lat="44.7089224867522716522216796875" lon="6.74896133132278919219970703125">
        <ele>1418.4000244140625</ele>
        <time>2026-09-03T06:26:10.000Z</time>
        <extensions>
          <ns3:TrackPointExtension>
            <ns3:hr>142</ns3:hr>
            <ns3:cad>41</ns3:cad>
          </ns3:TrackPointExtension>
        </extensions>
      </trkpt>
      <trkpt lat="44.708918966352939605712890625" lon="6.74896837212145328521728515625">
        <ele>1418.5999755859375</ele>
        <time>2026-09-03T06:26:11.000Z</time>
        <extensions>
          <ns3:TrackPointExtension>
            <ns3:hr>141</ns3:hr>
            <ns3:cad>41</ns3:cad>
          </ns3:TrackPointExtension>
        </extensions>
      </trkpt>
      <trkpt lat="44.70891284756362438201904296875" lon="6.74897993914783000946044921875">
        <ele>1418.800048828125</ele>
        <time>2026-09-03T06:26:12.000Z</time>
        <extensions>
          <ns3:TrackPointExtension>
            <ns3:hr>141</ns3:hr>
            <ns3:cad>0</ns3:cad>
          </ns3:TrackPointExtension>
        </extensions>
      </trkpt>
      <trkpt lat="44.70890698023140430450439453125" lon="6.74898781813681125640869140625">
        <ele>1419</ele>
        <time>2026-09-03T06:26:13.000Z</time>
        <extensions>
          <ns3:TrackPointExtension>
            <ns3:hr>141</ns3:hr>
            <ns3:cad>0</ns3:cad>
          </ns3:TrackPointExtension>
        </extensions>
      </trkpt>
      <trkpt lat="44.70890077762305736541748046875" lon="6.74899904988706111907958984375">
        <ele>1419.4000244140625</ele>
        <time>2026-09-03T06:26:14.000Z</time>
        <extensions>
          <ns3:TrackPointExtension>
            <ns3:hr>141</ns3:hr>
            <ns3:cad>0</ns3:cad>
          </ns3:TrackPointExtension>
        </extensions>
      </trkpt>
      <trkpt lat="44.7088949941098690032958984375" lon="6.74900977872312068939208984375">
        <ele>1419.5999755859375</ele>
        <time>2026-09-03T06:26:15.000Z</time>
        <extensions>
          <ns3:TrackPointExtension>
            <ns3:hr>141</ns3:hr>
            <ns3:cad>0</ns3:cad>
          </ns3:TrackPointExtension>
        </extensions>
      </trkpt>
      <trkpt lat="44.7088869474828243255615234375" lon="6.74901631660759449005126953125">
        <ele>1419.5999755859375</ele>
        <time>2026-09-03T06:26:16.000Z</time>
        <extensions>
          <ns3:TrackPointExtension>
            <ns3:hr>142</ns3:hr>
            <ns3:cad>0</ns3:cad>
          </ns3:TrackPointExtension>
        </extensions>
      </trkpt>
      <trkpt lat="44.70887906849384307861328125" lon="6.749025620520114898681640625">
        <ele>1419.5999755859375</ele>
        <time>2026-09-03T06:26:17.000Z</time>
        <extensions>
          <ns3:TrackPointExtension>
            <ns3:hr>142</ns3:hr>
            <ns3:cad>0</ns3:cad>
          </ns3:TrackPointExtension>
        </extensions>
      </trkpt>
      <trkpt lat="44.7088738717138767242431640625" lon="6.74903090111911296844482421875">
        <ele>1419.800048828125</ele>
        <time>2026-09-03T06:26:18.000Z</time>
        <extensions>
          <ns3:TrackPointExtension>
            <ns3:hr>143</ns3:hr>
            <ns3:cad>0</ns3:cad>
          </ns3:TrackPointExtension>
        </extensions>
      </trkpt>
      <trkpt lat="44.708876051008701324462890625" lon="6.74905135296285152435302734375">
        <ele>1420</ele>
        <time>2026-09-03T06:26:19.000Z</time>
        <extensions>
          <ns3:TrackPointExtension>
            <ns3:hr>143</ns3:hr>
            <ns3:cad>0</ns3:cad>
          </ns3:TrackPointExtension>
        </extensions>
      </trkpt>
      <trkpt lat="44.7088765539228916168212890625" lon="6.749054454267024993896484375">
        <ele>1420.199951171875</ele>
        <time>2026-09-03T06:26:20.000Z</time>
        <extensions>
          <ns3:TrackPointExtension>
            <ns3:hr>144</ns3:hr>
            <ns3:cad>0</ns3:cad>
          </ns3:TrackPointExtension>
        </extensions>
      </trkpt>
      <trkpt lat="44.708875715732574462890625" lon="6.74905420280992984771728515625">
        <ele>1420.4000244140625</ele>
        <time>2026-09-03T06:26:21.000Z</time>
        <extensions>
          <ns3:TrackPointExtension>
            <ns3:hr>144</ns3:hr>
            <ns3:cad>0</ns3:cad>
          </ns3:TrackPointExtension>
        </extensions>
      </trkpt>
      <trkpt lat="44.70887160860002040863037109375" lon="6.7490606568753719329833984375">
        <ele>1420.5999755859375</ele>
        <time>2026-09-03T06:26:22.000Z</time>
        <extensions>
          <ns3:TrackPointExtension>
            <ns3:hr>145</ns3:hr>
            <ns3:cad>0</ns3:cad>
          </ns3:TrackPointExtension>
        </extensions>
      </trkpt>
      <trkpt lat="44.7088648192584514617919921875" lon="6.7490710504353046417236328125">
        <ele>1421</ele>
        <time>2026-09-03T06:26:23.000Z</time>
        <extensions>
          <ns3:TrackPointExtension>
            <ns3:hr>145</ns3:hr>
            <ns3:cad>0</ns3:cad>
          </ns3:TrackPointExtension>
        </extensions>
      </trkpt>
      <trkpt lat="44.7088591195642948150634765625" lon="6.7490831203758716583251953125">
        <ele>1421.199951171875</ele>
        <time>2026-09-03T06:26:24.000Z</time>
        <extensions>
          <ns3:TrackPointExtension>
            <ns3:hr>145</ns3:hr>
            <ns3:cad>0</ns3:cad>
          </ns3:TrackPointExtension>
        </extensions>
      </trkpt>
      <trkpt lat="44.7088470496237277984619140625" lon="6.74909435212612152099609375">
        <ele>1421.5999755859375</ele>
        <time>2026-09-03T06:26:25.000Z</time>
        <extensions>
          <ns3:TrackPointExtension>
            <ns3:hr>145</ns3:hr>
            <ns3:cad>0</ns3:cad>
          </ns3:TrackPointExtension>
        </extensions>
      </trkpt>
      <trkpt lat="44.7088396735489368438720703125" lon="6.74910499714314937591552734375">
        <ele>1421.800048828125</ele>
        <time>2026-09-03T06:26:26.000Z</time>
        <extensions>
          <ns3:TrackPointExtension>
            <ns3:hr>144</ns3:hr>
            <ns3:cad>0</ns3:cad>
          </ns3:TrackPointExtension>
        </extensions>
      </trkpt>
      <trkpt lat="44.70883120782673358917236328125" lon="6.74911312758922576904296875">
        <ele>1422.199951171875</ele>
        <time>2026-09-03T06:26:27.000Z</time>
        <extensions>
          <ns3:TrackPointExtension>
            <ns3:hr>144</ns3:hr>
            <ns3:cad>0</ns3:cad>
          </ns3:TrackPointExtension>
        </extensions>
      </trkpt>
      <trkpt lat="44.70882668159902095794677734375" lon="6.74912276677787303924560546875">
        <ele>1422.4000244140625</ele>
        <time>2026-09-03T06:26:28.000Z</time>
        <extensions>
          <ns3:TrackPointExtension>
            <ns3:hr>144</ns3:hr>
            <ns3:cad>0</ns3:cad>
          </ns3:TrackPointExtension>
        </extensions>
      </trkpt>
      <trkpt lat="44.70882802270352840423583984375" lon="6.749121844768524169921875">
        <ele>1422.5999755859375</ele>
        <time>2026-09-03T06:26:29.000Z</time>
        <extensions>
          <ns3:TrackPointExtension>
            <ns3:hr>144</ns3:hr>
            <ns3:cad>0</ns3:cad>
          </ns3:TrackPointExtension>
        </extensions>
      </trkpt>
      <trkpt lat="44.708827771246433258056640625" lon="6.749121844768524169921875">
        <ele>1422.800048828125</ele>
        <time>2026-09-03T06:26:30.000Z</time>
        <extensions>
          <ns3:TrackPointExtension>
            <ns3:hr>145</ns3:hr>
            <ns3:cad>0</ns3:cad>
          </ns3:TrackPointExtension>
        </extensions>
      </trkpt>
      <trkpt lat="44.7088245861232280731201171875" lon="6.7491283826529979705810546875">
        <ele>1423</ele>
        <time>2026-09-03T06:26:31.000Z</time>
        <extensions>
          <ns3:TrackPointExtension>
            <ns3:hr>144</ns3:hr>
            <ns3:cad>0</ns3:cad>
          </ns3:TrackPointExtension>
        </extensions>
      </trkpt>
      <trkpt lat="44.70881461165845394134521484375" lon="6.74913852475583553314208984375">
        <ele>1423.4000244140625</ele>
        <time>2026-09-03T06:26:32.000Z</time>
        <extensions>
          <ns3:TrackPointExtension>
            <ns3:hr>144</ns3:hr>
            <ns3:cad>0</ns3:cad>
          </ns3:TrackPointExtension>
        </extensions>
      </trkpt>
      <trkpt lat="44.70880933105945587158203125" lon="6.7491448111832141876220703125">
        <ele>1423.4000244140625</ele>
        <time>2026-09-03T06:26:33.000Z</time>
        <extensions>
          <ns3:TrackPointExtension>
            <ns3:hr>144</ns3:hr>
            <ns3:cad>0</ns3:cad>
          </ns3:TrackPointExtension>
        </extensions>
      </trkpt>
      <trkpt lat="44.70879399217665195465087890625" lon="6.74915696494281291961669921875">
        <ele>1423.5999755859375</ele>
        <time>2026-09-03T06:26:34.000Z</time>
        <extensions>
          <ns3:TrackPointExtension>
            <ns3:hr>144</ns3:hr>
            <ns3:cad>0</ns3:cad>
          </ns3:TrackPointExtension>
        </extensions>
      </trkpt>
      <trkpt lat="44.70878787338733673095703125" lon="6.7491622455418109893798828125">
        <ele>1423.800048828125</ele>
        <time>2026-09-03T06:26:35.000Z</time>
        <extensions>
          <ns3:TrackPointExtension>
            <ns3:hr>144</ns3:hr>
            <ns3:cad>0</ns3:cad>
          </ns3:TrackPointExtension>
        </extensions>
      </trkpt>
      <trkpt lat="44.70878225751221179962158203125" lon="6.74916853196918964385986328125">
        <ele>1424</ele>
        <time>2026-09-03T06:26:36.000Z</time>
        <extensions>
          <ns3:TrackPointExtension>
            <ns3:hr>144</ns3:hr>
            <ns3:cad>0</ns3:cad>
          </ns3:TrackPointExtension>
        </extensions>
      </trkpt>
      <trkpt lat="44.70877974294126033782958984375" lon="6.74917741678655147552490234375">
        <ele>1424</ele>
        <time>2026-09-03T06:26:37.000Z</time>
        <extensions>
          <ns3:TrackPointExtension>
            <ns3:hr>143</ns3:hr>
            <ns3:cad>0</ns3:cad>
          </ns3:TrackPointExtension>
        </extensions>
      </trkpt>
      <trkpt lat="44.70877504907548427581787109375" lon="6.74918412230908870697021484375">
        <ele>1424.199951171875</ele>
        <time>2026-09-03T06:26:38.000Z</time>
        <extensions>
          <ns3:TrackPointExtension>
            <ns3:hr>141</ns3:hr>
            <ns3:cad>0</ns3:cad>
          </ns3:TrackPointExtension>
        </extensions>
      </trkpt>
      <trkpt lat="44.70877169631421566009521484375" lon="6.74919091165065765380859375">
        <ele>1424.4000244140625</ele>
        <time>2026-09-03T06:26:39.000Z</time>
        <extensions>
          <ns3:TrackPointExtension>
            <ns3:hr>140</ns3:hr>
            <ns3:cad>0</ns3:cad>
          </ns3:TrackPointExtension>
        </extensions>
      </trkpt>
      <trkpt lat="44.70876683481037616729736328125" lon="6.7491961084306240081787109375">
        <ele>1424.5999755859375</ele>
        <time>2026-09-03T06:26:40.000Z</time>
        <extensions>
          <ns3:TrackPointExtension>
            <ns3:hr>139</ns3:hr>
            <ns3:cad>41</ns3:cad>
          </ns3:TrackPointExtension>
        </extensions>
      </trkpt>
      <trkpt lat="44.7087622247636318206787109375" lon="6.74920574761927127838134765625">
        <ele>1424.800048828125</ele>
        <time>2026-09-03T06:26:41.000Z</time>
        <extensions>
          <ns3:TrackPointExtension>
            <ns3:hr>138</ns3:hr>
            <ns3:cad>41</ns3:cad>
          </ns3:TrackPointExtension>
        </extensions>
      </trkpt>
      <trkpt lat="44.70875577069818973541259765625" lon="6.749216727912425994873046875">
        <ele>1425</ele>
        <time>2026-09-03T06:26:42.000Z</time>
        <extensions>
          <ns3:TrackPointExtension>
            <ns3:hr>139</ns3:hr>
            <ns3:cad>41</ns3:cad>
          </ns3:TrackPointExtension>
        </extensions>
      </trkpt>
      <trkpt lat="44.70875007100403308868408203125" lon="6.74922469072043895721435546875">
        <ele>1425.4000244140625</ele>
        <time>2026-09-03T06:26:43.000Z</time>
        <extensions>
          <ns3:TrackPointExtension>
            <ns3:hr>139</ns3:hr>
            <ns3:cad>41</ns3:cad>
          </ns3:TrackPointExtension>
        </extensions>
      </trkpt>
      <trkpt lat="44.70874738879501819610595703125" lon="6.7492323182523250579833984375">
        <ele>1425.800048828125</ele>
        <time>2026-09-03T06:26:44.000Z</time>
        <extensions>
          <ns3:TrackPointExtension>
            <ns3:hr>139</ns3:hr>
            <ns3:cad>41</ns3:cad>
          </ns3:TrackPointExtension>
        </extensions>
      </trkpt>
      <trkpt lat="44.70874495804309844970703125" lon="6.7492353357374668121337890625">
        <ele>1426</ele>
        <time>2026-09-03T06:26:45.000Z</time>
        <extensions>
          <ns3:TrackPointExtension>
            <ns3:hr>140</ns3:hr>
            <ns3:cad>0</ns3:cad>
          </ns3:TrackPointExtension>
        </extensions>
      </trkpt>
      <trkpt lat="44.70874319784343242645263671875" lon="6.749235503375530242919921875">
        <ele>1426.4000244140625</ele>
        <time>2026-09-03T06:26:46.000Z</time>
        <extensions>
          <ns3:TrackPointExtension>
            <ns3:hr>140</ns3:hr>
            <ns3:cad>0</ns3:cad>
          </ns3:TrackPointExtension>
        </extensions>
      </trkpt>
      <trkpt lat="44.7087380848824977874755859375" lon="6.74924363382160663604736328125">
        <ele>1426.5999755859375</ele>
        <time>2026-09-03T06:26:47.000Z</time>
        <extensions>
          <ns3:TrackPointExtension>
            <ns3:hr>140</ns3:hr>
            <ns3:cad>0</ns3:cad>
          </ns3:TrackPointExtension>
        </extensions>
      </trkpt>
      <trkpt lat="44.70873900689184665679931640625" lon="6.7492420412600040435791015625">
        <ele>1427</ele>
        <time>2026-09-03T06:26:48.000Z</time>
        <extensions>
          <ns3:TrackPointExtension>
            <ns3:hr>140</ns3:hr>
            <ns3:cad>0</ns3:cad>
          </ns3:TrackPointExtension>
        </extensions>
      </trkpt>
      <trkpt lat="44.70873967744410037994384765625" lon="6.74924681894481182098388671875">
        <ele>1427.199951171875</ele>
        <time>2026-09-03T06:26:49.000Z</time>
        <extensions>
          <ns3:TrackPointExtension>
            <ns3:hr>140</ns3:hr>
            <ns3:cad>0</ns3:cad>
          </ns3:TrackPointExtension>
        </extensions>
      </trkpt>
      <trkpt lat="44.708735905587673187255859375" lon="6.749254949390888214111328125">
        <ele>1427.5999755859375</ele>
        <time>2026-09-03T06:26:50.000Z</time>
        <extensions>
          <ns3:TrackPointExtension>
            <ns3:hr>141</ns3:hr>
            <ns3:cad>0</ns3:cad>
          </ns3:TrackPointExtension>
        </extensions>
      </trkpt>
      <trkpt lat="44.70873431302607059478759765625" lon="6.7492581345140933990478515625">
        <ele>1427.800048828125</ele>
        <time>2026-09-03T06:26:51.000Z</time>
        <extensions>
          <ns3:TrackPointExtension>
            <ns3:hr>141</ns3:hr>
            <ns3:cad>0</ns3:cad>
          </ns3:TrackPointExtension>
        </extensions>
      </trkpt>
      <trkpt lat="44.70872676931321620941162109375" lon="6.7492628283798694610595703125">
        <ele>1428.199951171875</ele>
        <time>2026-09-03T06:26:52.000Z</time>
        <extensions>
          <ns3:TrackPointExtension>
            <ns3:hr>141</ns3:hr>
            <ns3:cad>0</ns3:cad>
          </ns3:TrackPointExtension>
        </extensions>
      </trkpt>
      <trkpt lat="44.7087189741432666778564453125" lon="6.74926509149372577667236328125">
        <ele>1428.4000244140625</ele>
        <time>2026-09-03T06:26:53.000Z</time>
        <extensions>
          <ns3:TrackPointExtension>
            <ns3:hr>140</ns3:hr>
            <ns3:cad>0</ns3:cad>
          </ns3:TrackPointExtension>
        </extensions>
      </trkpt>
      <trkpt lat="44.70871453173458576202392578125" lon="6.74926727078855037689208984375">
        <ele>1428.4000244140625</ele>
        <time>2026-09-03T06:26:54.000Z</time>
        <extensions>
          <ns3:TrackPointExtension>
            <ns3:hr>140</ns3:hr>
            <ns3:cad>0</ns3:cad>
          </ns3:TrackPointExtension>
        </extensions>
      </trkpt>
      <trkpt lat="44.708704389631748199462890625" lon="6.74927682615816593170166015625">
        <ele>1428.4000244140625</ele>
        <time>2026-09-03T06:26:55.000Z</time>
        <extensions>
          <ns3:TrackPointExtension>
            <ns3:hr>139</ns3:hr>
            <ns3:cad>0</ns3:cad>
          </ns3:TrackPointExtension>
        </extensions>
      </trkpt>
      <trkpt lat="44.70869407989084720611572265625" lon="6.7492896504700183868408203125">
        <ele>1428.4000244140625</ele>
        <time>2026-09-03T06:26:56.000Z</time>
        <extensions>
          <ns3:TrackPointExtension>
            <ns3:hr>135</ns3:hr>
            <ns3:cad>0</ns3:cad>
          </ns3:TrackPointExtension>
        </extensions>
      </trkpt>
      <trkpt lat="44.708689637482166290283203125" lon="6.74929660744965076446533203125">
        <ele>1428.5999755859375</ele>
        <time>2026-09-03T06:26:57.000Z</time>
        <extensions>
          <ns3:TrackPointExtension>
            <ns3:hr>133</ns3:hr>
            <ns3:cad>0</ns3:cad>
          </ns3:TrackPointExtension>
        </extensions>
      </trkpt>
      <trkpt lat="44.70868284814059734344482421875" lon="6.749304570257663726806640625">
        <ele>1428.5999755859375</ele>
        <time>2026-09-03T06:26:58.000Z</time>
        <extensions>
          <ns3:TrackPointExtension>
            <ns3:hr>132</ns3:hr>
            <ns3:cad>0</ns3:cad>
          </ns3:TrackPointExtension>
        </extensions>
      </trkpt>
      <trkpt lat="44.70867647789418697357177734375" lon="6.749312616884708404541015625">
        <ele>1428.800048828125</ele>
        <time>2026-09-03T06:26:59.000Z</time>
        <extensions>
          <ns3:TrackPointExtension>
            <ns3:hr>132</ns3:hr>
            <ns3:cad>0</ns3:cad>
          </ns3:TrackPointExtension>
        </extensions>
      </trkpt>
      <trkpt lat="44.70867312513291835784912109375" lon="6.74932477064430713653564453125">
        <ele>1429.199951171875</ele>
        <time>2026-09-03T06:27:00.000Z</time>
        <extensions>
          <ns3:TrackPointExtension>
            <ns3:hr>132</ns3:hr>
            <ns3:cad>0</ns3:cad>
          </ns3:TrackPointExtension>
        </extensions>
      </trkpt>
      <trkpt lat="44.70866474322974681854248046875" lon="6.74933583475649356842041015625">
        <ele>1429.5999755859375</ele>
        <time>2026-09-03T06:27:01.000Z</time>
        <extensions>
          <ns3:TrackPointExtension>
            <ns3:hr>131</ns3:hr>
            <ns3:cad>0</ns3:cad>
          </ns3:TrackPointExtension>
        </extensions>
      </trkpt>
      <trkpt lat="44.70865770243108272552490234375" lon="6.74934203736484050750732421875">
        <ele>1429.800048828125</ele>
        <time>2026-09-03T06:27:02.000Z</time>
        <extensions>
          <ns3:TrackPointExtension>
            <ns3:hr>131</ns3:hr>
            <ns3:cad>0</ns3:cad>
          </ns3:TrackPointExtension>
        </extensions>
      </trkpt>
      <trkpt lat="44.7086499072611331939697265625" lon="6.74935452640056610107421875">
        <ele>1430</ele>
        <time>2026-09-03T06:27:03.000Z</time>
        <extensions>
          <ns3:TrackPointExtension>
            <ns3:hr>131</ns3:hr>
            <ns3:cad>0</ns3:cad>
          </ns3:TrackPointExtension>
        </extensions>
      </trkpt>
      <trkpt lat="44.70864395610988140106201171875" lon="6.74936232157051563262939453125">
        <ele>1430.199951171875</ele>
        <time>2026-09-03T06:27:04.000Z</time>
        <extensions>
          <ns3:TrackPointExtension>
            <ns3:hr>131</ns3:hr>
            <ns3:cad>0</ns3:cad>
          </ns3:TrackPointExtension>
        </extensions>
      </trkpt>
      <trkpt lat="44.70863339491188526153564453125" lon="6.74937439151108264923095703125">
        <ele>1430.199951171875</ele>
        <time>2026-09-03T06:27:05.000Z</time>
        <extensions>
          <ns3:TrackPointExtension>
            <ns3:hr>131</ns3:hr>
            <ns3:cad>0</ns3:cad>
          </ns3:TrackPointExtension>
        </extensions>
      </trkpt>
      <trkpt lat="44.70863020978868007659912109375" lon="6.749383695423603057861328125">
        <ele>1430.199951171875</ele>
        <time>2026-09-03T06:27:06.000Z</time>
        <extensions>
          <ns3:TrackPointExtension>
            <ns3:hr>131</ns3:hr>
            <ns3:cad>0</ns3:cad>
          </ns3:TrackPointExtension>
        </extensions>
      </trkpt>
      <trkpt lat="44.70862199552357196807861328125" lon="6.749393753707408905029296875">
        <ele>1430.4000244140625</ele>
        <time>2026-09-03T06:27:07.000Z</time>
        <extensions>
          <ns3:TrackPointExtension>
            <ns3:hr>131</ns3:hr>
            <ns3:cad>0</ns3:cad>
          </ns3:TrackPointExtension>
        </extensions>
      </trkpt>
      <trkpt lat="44.70861889421939849853515625" lon="6.74940071068704128265380859375">
        <ele>1430.4000244140625</ele>
        <time>2026-09-03T06:27:08.000Z</time>
        <extensions>
          <ns3:TrackPointExtension>
            <ns3:hr>132</ns3:hr>
            <ns3:cad>53</ns3:cad>
          </ns3:TrackPointExtension>
        </extensions>
      </trkpt>
      <trkpt lat="44.70861352980136871337890625" lon="6.74941043369472026824951171875">
        <ele>1430.5999755859375</ele>
        <time>2026-09-03T06:27:09.000Z</time>
        <extensions>
          <ns3:TrackPointExtension>
            <ns3:hr>132</ns3:hr>
            <ns3:cad>53</ns3:cad>
          </ns3:TrackPointExtension>
        </extensions>
      </trkpt>
      <trkpt lat="44.70860724337399005889892578125" lon="6.74941915087401866912841796875">
        <ele>1430.5999755859375</ele>
        <time>2026-09-03T06:27:10.000Z</time>
        <extensions>
          <ns3:TrackPointExtension>
            <ns3:hr>132</ns3:hr>
            <ns3:cad>53</ns3:cad>
          </ns3:TrackPointExtension>
        </extensions>
      </trkpt>
      <trkpt lat="44.70859743654727935791015625" lon="6.74943071790039539337158203125">
        <ele>1430.800048828125</ele>
        <time>2026-09-03T06:27:11.000Z</time>
        <extensions>
          <ns3:TrackPointExtension>
            <ns3:hr>132</ns3:hr>
            <ns3:cad>53</ns3:cad>
          </ns3:TrackPointExtension>
        </extensions>
      </trkpt>
      <trkpt lat="44.708588384091854095458984375" lon="6.74944194965064525604248046875">
        <ele>1431</ele>
        <time>2026-09-03T06:27:12.000Z</time>
        <extensions>
          <ns3:TrackPointExtension>
            <ns3:hr>133</ns3:hr>
            <ns3:cad>53</ns3:cad>
          </ns3:TrackPointExtension>
        </extensions>
      </trkpt>
      <trkpt lat="44.7085793316364288330078125" lon="6.749454438686370849609375">
        <ele>1431.199951171875</ele>
        <time>2026-09-03T06:27:13.000Z</time>
        <extensions>
          <ns3:TrackPointExtension>
            <ns3:hr>133</ns3:hr>
            <ns3:cad>0</ns3:cad>
          </ns3:TrackPointExtension>
        </extensions>
      </trkpt>
      <trkpt lat="44.708571620285511016845703125" lon="6.7494638264179229736328125">
        <ele>1431.4000244140625</ele>
        <time>2026-09-03T06:27:14.000Z</time>
        <extensions>
          <ns3:TrackPointExtension>
            <ns3:hr>133</ns3:hr>
            <ns3:cad>0</ns3:cad>
          </ns3:TrackPointExtension>
        </extensions>
      </trkpt>
      <trkpt lat="44.70856793224811553955078125" lon="6.74946709536015987396240234375">
        <ele>1431.5999755859375</ele>
        <time>2026-09-03T06:27:15.000Z</time>
        <extensions>
          <ns3:TrackPointExtension>
            <ns3:hr>134</ns3:hr>
            <ns3:cad>0</ns3:cad>
          </ns3:TrackPointExtension>
        </extensions>
      </trkpt>
      <trkpt lat="44.70856214873492717742919921875" lon="6.7494737170636653900146484375">
        <ele>1431.5999755859375</ele>
        <time>2026-09-03T06:27:16.000Z</time>
        <extensions>
          <ns3:TrackPointExtension>
            <ns3:hr>134</ns3:hr>
            <ns3:cad>0</ns3:cad>
          </ns3:TrackPointExtension>
        </extensions>
      </trkpt>
      <trkpt lat="44.70855661667883396148681640625" lon="6.7494831047952175140380859375">
        <ele>1431.800048828125</ele>
        <time>2026-09-03T06:27:17.000Z</time>
        <extensions>
          <ns3:TrackPointExtension>
            <ns3:hr>134</ns3:hr>
            <ns3:cad>0</ns3:cad>
          </ns3:TrackPointExtension>
        </extensions>
      </trkpt>
      <trkpt lat="44.70855074934661388397216796875" lon="6.74949190579354763031005859375">
        <ele>1432</ele>
        <time>2026-09-03T06:27:18.000Z</time>
        <extensions>
          <ns3:TrackPointExtension>
            <ns3:hr>135</ns3:hr>
            <ns3:cad>0</ns3:cad>
          </ns3:TrackPointExtension>
        </extensions>
      </trkpt>
      <trkpt lat="44.7085446305572986602783203125" lon="6.74950146116316318511962890625">
        <ele>1432.199951171875</ele>
        <time>2026-09-03T06:27:19.000Z</time>
        <extensions>
          <ns3:TrackPointExtension>
            <ns3:hr>136</ns3:hr>
            <ns3:cad>0</ns3:cad>
          </ns3:TrackPointExtension>
        </extensions>
      </trkpt>
      <trkpt lat="44.70853440463542938232421875" lon="6.74951554276049137115478515625">
        <ele>1432.4000244140625</ele>
        <time>2026-09-03T06:27:20.000Z</time>
        <extensions>
          <ns3:TrackPointExtension>
            <ns3:hr>136</ns3:hr>
            <ns3:cad>0</ns3:cad>
          </ns3:TrackPointExtension>
        </extensions>
      </trkpt>
      <trkpt lat="44.70852795056998729705810546875" lon="6.7495260201394557952880859375">
        <ele>1432.4000244140625</ele>
        <time>2026-09-03T06:27:21.000Z</time>
        <extensions>
          <ns3:TrackPointExtension>
            <ns3:hr>137</ns3:hr>
            <ns3:cad>0</ns3:cad>
          </ns3:TrackPointExtension>
        </extensions>
      </trkpt>
      <trkpt lat="44.7085201554000377655029296875" lon="6.7495340667665004730224609375">
        <ele>1432.5999755859375</ele>
        <time>2026-09-03T06:27:22.000Z</time>
        <extensions>
          <ns3:TrackPointExtension>
            <ns3:hr>137</ns3:hr>
            <ns3:cad>0</ns3:cad>
          </ns3:TrackPointExtension>
        </extensions>
      </trkpt>
      <trkpt lat="44.7085107676684856414794921875" lon="6.74954052083194255828857421875">
        <ele>1432.5999755859375</ele>
        <time>2026-09-03T06:27:23.000Z</time>
        <extensions>
          <ns3:TrackPointExtension>
            <ns3:hr>137</ns3:hr>
            <ns3:cad>0</ns3:cad>
          </ns3:TrackPointExtension>
        </extensions>
      </trkpt>
      <trkpt lat="44.7085060738027095794677734375" lon="6.74954672344028949737548828125">
        <ele>1432.5999755859375</ele>
        <time>2026-09-03T06:27:24.000Z</time>
        <extensions>
          <ns3:TrackPointExtension>
            <ns3:hr>138</ns3:hr>
            <ns3:cad>0</ns3:cad>
          </ns3:TrackPointExtension>
        </extensions>
      </trkpt>
      <trkpt lat="44.70849744044244289398193359375" lon="6.749556362628936767578125">
        <ele>1432.800048828125</ele>
        <time>2026-09-03T06:27:25.000Z</time>
        <extensions>
          <ns3:TrackPointExtension>
            <ns3:hr>138</ns3:hr>
            <ns3:cad>0</ns3:cad>
          </ns3:TrackPointExtension>
        </extensions>
      </trkpt>
      <trkpt lat="44.7084926627576351165771484375" lon="6.749565415084362030029296875">
        <ele>1432.800048828125</ele>
        <time>2026-09-03T06:27:26.000Z</time>
        <extensions>
          <ns3:TrackPointExtension>
            <ns3:hr>138</ns3:hr>
            <ns3:cad>0</ns3:cad>
          </ns3:TrackPointExtension>
        </extensions>
      </trkpt>
      <trkpt lat="44.7084822691977024078369140625" lon="6.74957086332142353057861328125">
        <ele>1433</ele>
        <time>2026-09-03T06:27:27.000Z</time>
        <extensions>
          <ns3:TrackPointExtension>
            <ns3:hr>138</ns3:hr>
            <ns3:cad>0</ns3:cad>
          </ns3:TrackPointExtension>
        </extensions>
      </trkpt>
      <trkpt lat="44.708473384380340576171875" lon="6.74957714974880218505859375">
        <ele>1433.199951171875</ele>
        <time>2026-09-03T06:27:28.000Z</time>
        <extensions>
          <ns3:TrackPointExtension>
            <ns3:hr>138</ns3:hr>
            <ns3:cad>0</ns3:cad>
          </ns3:TrackPointExtension>
        </extensions>
      </trkpt>
      <trkpt lat="44.70846332609653472900390625" lon="6.7495853640139102935791015625">
        <ele>1433.199951171875</ele>
        <time>2026-09-03T06:27:29.000Z</time>
        <extensions>
          <ns3:TrackPointExtension>
            <ns3:hr>138</ns3:hr>
            <ns3:cad>0</ns3:cad>
          </ns3:TrackPointExtension>
        </extensions>
      </trkpt>
      <trkpt lat="44.70845435746014118194580078125" lon="6.7495947517454624176025390625">
        <ele>1433.4000244140625</ele>
        <time>2026-09-03T06:27:30.000Z</time>
        <extensions>
          <ns3:TrackPointExtension>
            <ns3:hr>139</ns3:hr>
            <ns3:cad>0</ns3:cad>
          </ns3:TrackPointExtension>
        </extensions>
      </trkpt>
      <trkpt lat="44.70844429917633533477783203125" lon="6.7496073246002197265625">
        <ele>1433.5999755859375</ele>
        <time>2026-09-03T06:27:31.000Z</time>
        <extensions>
          <ns3:TrackPointExtension>
            <ns3:hr>139</ns3:hr>
            <ns3:cad>0</ns3:cad>
          </ns3:TrackPointExtension>
        </extensions>
      </trkpt>
      <trkpt lat="44.70843474380671977996826171875" lon="6.74961947835981845855712890625">
        <ele>1433.5999755859375</ele>
        <time>2026-09-03T06:27:32.000Z</time>
        <extensions>
          <ns3:TrackPointExtension>
            <ns3:hr>139</ns3:hr>
            <ns3:cad>0</ns3:cad>
          </ns3:TrackPointExtension>
        </extensions>
      </trkpt>
      <trkpt lat="44.70842686481773853302001953125" lon="6.7496282793581485748291015625">
        <ele>1433.800048828125</ele>
        <time>2026-09-03T06:27:33.000Z</time>
        <extensions>
          <ns3:TrackPointExtension>
            <ns3:hr>139</ns3:hr>
            <ns3:cad>0</ns3:cad>
          </ns3:TrackPointExtension>
        </extensions>
      </trkpt>
      <trkpt lat="44.7084175609052181243896484375" lon="6.7496400140225887298583984375">
        <ele>1433.800048828125</ele>
        <time>2026-09-03T06:27:34.000Z</time>
        <extensions>
          <ns3:TrackPointExtension>
            <ns3:hr>139</ns3:hr>
            <ns3:cad>0</ns3:cad>
          </ns3:TrackPointExtension>
        </extensions>
      </trkpt>
      <trkpt lat="44.70841295085847377777099609375" lon="6.74964562989771366119384765625">
        <ele>1434</ele>
        <time>2026-09-03T06:27:35.000Z</time>
        <extensions>
          <ns3:TrackPointExtension>
            <ns3:hr>140</ns3:hr>
            <ns3:cad>0</ns3:cad>
          </ns3:TrackPointExtension>
        </extensions>
      </trkpt>
      <trkpt lat="44.70840406604111194610595703125" lon="6.74965761601924896240234375">
        <ele>1434.199951171875</ele>
        <time>2026-09-03T06:27:36.000Z</time>
        <extensions>
          <ns3:TrackPointExtension>
            <ns3:hr>140</ns3:hr>
            <ns3:cad>0</ns3:cad>
          </ns3:TrackPointExtension>
        </extensions>
      </trkpt>
      <trkpt lat="44.70840222202241420745849609375" lon="6.74967111088335514068603515625">
        <ele>1434.199951171875</ele>
        <time>2026-09-03T06:27:37.000Z</time>
        <extensions>
          <ns3:TrackPointExtension>
            <ns3:hr>140</ns3:hr>
            <ns3:cad>0</ns3:cad>
          </ns3:TrackPointExtension>
        </extensions>
      </trkpt>
      <trkpt lat="44.70839233137667179107666015625" lon="6.74968368373811244964599609375">
        <ele>1434.4000244140625</ele>
        <time>2026-09-03T06:27:38.000Z</time>
        <extensions>
          <ns3:TrackPointExtension>
            <ns3:hr>140</ns3:hr>
            <ns3:cad>0</ns3:cad>
          </ns3:TrackPointExtension>
        </extensions>
      </trkpt>
      <trkpt lat="44.708385877311229705810546875" lon="6.74969977699220180511474609375">
        <ele>1434.4000244140625</ele>
        <time>2026-09-03T06:27:39.000Z</time>
        <extensions>
          <ns3:TrackPointExtension>
            <ns3:hr>140</ns3:hr>
            <ns3:cad>0</ns3:cad>
          </ns3:TrackPointExtension>
        </extensions>
      </trkpt>
      <trkpt lat="44.70837724395096302032470703125" lon="6.74971302039921283721923828125">
        <ele>1434.5999755859375</ele>
        <time>2026-09-03T06:27:40.000Z</time>
        <extensions>
          <ns3:TrackPointExtension>
            <ns3:hr>141</ns3:hr>
            <ns3:cad>0</ns3:cad>
          </ns3:TrackPointExtension>
        </extensions>
      </trkpt>
      <trkpt lat="44.7083702869713306427001953125" lon="6.7497275210916996002197265625">
        <ele>1434.5999755859375</ele>
        <time>2026-09-03T06:27:41.000Z</time>
        <extensions>
          <ns3:TrackPointExtension>
            <ns3:hr>140</ns3:hr>
            <ns3:cad>0</ns3:cad>
          </ns3:TrackPointExtension>
        </extensions>
      </trkpt>
      <trkpt lat="44.70836048014461994171142578125" lon="6.74974068067967891693115234375">
        <ele>1434.5999755859375</ele>
        <time>2026-09-03T06:27:42.000Z</time>
        <extensions>
          <ns3:TrackPointExtension>
            <ns3:hr>140</ns3:hr>
            <ns3:cad>0</ns3:cad>
          </ns3:TrackPointExtension>
        </extensions>
      </trkpt>
      <trkpt lat="44.70835310406982898712158203125" lon="6.74975006841123104095458984375">
        <ele>1434.800048828125</ele>
        <time>2026-09-03T06:27:43.000Z</time>
        <extensions>
          <ns3:TrackPointExtension>
            <ns3:hr>140</ns3:hr>
            <ns3:cad>0</ns3:cad>
          </ns3:TrackPointExtension>
        </extensions>
      </trkpt>
      <trkpt lat="44.70834136940538883209228515625" lon="6.74976356327533721923828125">
        <ele>1434.800048828125</ele>
        <time>2026-09-03T06:27:44.000Z</time>
        <extensions>
          <ns3:TrackPointExtension>
            <ns3:hr>139</ns3:hr>
            <ns3:cad>0</ns3:cad>
          </ns3:TrackPointExtension>
        </extensions>
      </trkpt>
      <trkpt lat="44.70833248458802700042724609375" lon="6.74977429211139678955078125">
        <ele>1434.800048828125</ele>
        <time>2026-09-03T06:27:45.000Z</time>
        <extensions>
          <ns3:TrackPointExtension>
            <ns3:hr>139</ns3:hr>
            <ns3:cad>0</ns3:cad>
          </ns3:TrackPointExtension>
        </extensions>
      </trkpt>
      <trkpt lat="44.7083210013806819915771484375" lon="6.74978862516582012176513671875">
        <ele>1434.800048828125</ele>
        <time>2026-09-03T06:27:46.000Z</time>
        <extensions>
          <ns3:TrackPointExtension>
            <ns3:hr>139</ns3:hr>
            <ns3:cad>0</ns3:cad>
          </ns3:TrackPointExtension>
        </extensions>
      </trkpt>
      <trkpt lat="44.70831303857266902923583984375" lon="6.749796085059642791748046875">
        <ele>1435</ele>
        <time>2026-09-03T06:27:47.000Z</time>
        <extensions>
          <ns3:TrackPointExtension>
            <ns3:hr>139</ns3:hr>
            <ns3:cad>0</ns3:cad>
          </ns3:TrackPointExtension>
        </extensions>
      </trkpt>
      <trkpt lat="44.70830381847918033599853515625" lon="6.74980421550571918487548828125">
        <ele>1435</ele>
        <time>2026-09-03T06:27:48.000Z</time>
        <extensions>
          <ns3:TrackPointExtension>
            <ns3:hr>140</ns3:hr>
            <ns3:cad>0</ns3:cad>
          </ns3:TrackPointExtension>
        </extensions>
      </trkpt>
      <trkpt lat="44.70829526893794536590576171875" lon="6.7498111724853515625">
        <ele>1435</ele>
        <time>2026-09-03T06:27:49.000Z</time>
        <extensions>
          <ns3:TrackPointExtension>
            <ns3:hr>139</ns3:hr>
            <ns3:cad>0</ns3:cad>
          </ns3:TrackPointExtension>
        </extensions>
      </trkpt>
      <trkpt lat="44.708286635577678680419921875" lon="6.74982064403593540191650390625">
        <ele>1435</ele>
        <time>2026-09-03T06:27:50.000Z</time>
        <extensions>
          <ns3:TrackPointExtension>
            <ns3:hr>139</ns3:hr>
            <ns3:cad>0</ns3:cad>
          </ns3:TrackPointExtension>
        </extensions>
      </trkpt>
      <trkpt lat="44.70827615819871425628662109375" lon="6.74983053468167781829833984375">
        <ele>1435</ele>
        <time>2026-09-03T06:27:51.000Z</time>
        <extensions>
          <ns3:TrackPointExtension>
            <ns3:hr>140</ns3:hr>
            <ns3:cad>0</ns3:cad>
          </ns3:TrackPointExtension>
        </extensions>
      </trkpt>
      <trkpt lat="44.70826023258268833160400390625" lon="6.74983439035713672637939453125">
        <ele>1435</ele>
        <time>2026-09-03T06:27:52.000Z</time>
        <extensions>
          <ns3:TrackPointExtension>
            <ns3:hr>140</ns3:hr>
            <ns3:cad>0</ns3:cad>
          </ns3:TrackPointExtension>
        </extensions>
      </trkpt>
      <trkpt lat="44.708248414099216461181640625" lon="6.7498368211090564727783203125">
        <ele>1434.800048828125</ele>
        <time>2026-09-03T06:27:53.000Z</time>
        <extensions>
          <ns3:TrackPointExtension>
            <ns3:hr>140</ns3:hr>
            <ns3:cad>0</ns3:cad>
          </ns3:TrackPointExtension>
        </extensions>
      </trkpt>
      <trkpt lat="44.70823693089187145233154296875" lon="6.749837659299373626708984375">
        <ele>1435</ele>
        <time>2026-09-03T06:27:54.000Z</time>
        <extensions>
          <ns3:TrackPointExtension>
            <ns3:hr>140</ns3:hr>
            <ns3:cad>0</ns3:cad>
          </ns3:TrackPointExtension>
        </extensions>
      </trkpt>
      <trkpt lat="44.70822569914162158966064453125" lon="6.7498393356800079345703125">
        <ele>1435</ele>
        <time>2026-09-03T06:27:55.000Z</time>
        <extensions>
          <ns3:TrackPointExtension>
            <ns3:hr>139</ns3:hr>
            <ns3:cad>0</ns3:cad>
          </ns3:TrackPointExtension>
        </extensions>
      </trkpt>
      <trkpt lat="44.70822301693260669708251953125" lon="6.74984009005129337310791015625">
        <ele>1435</ele>
        <time>2026-09-03T06:27:56.000Z</time>
        <extensions>
          <ns3:TrackPointExtension>
            <ns3:hr>140</ns3:hr>
            <ns3:cad>0</ns3:cad>
          </ns3:TrackPointExtension>
        </extensions>
      </trkpt>
      <trkpt lat="44.70821253955364227294921875" lon="6.74983975477516651153564453125">
        <ele>1435.199951171875</ele>
        <time>2026-09-03T06:27:57.000Z</time>
        <extensions>
          <ns3:TrackPointExtension>
            <ns3:hr>140</ns3:hr>
            <ns3:cad>0</ns3:cad>
          </ns3:TrackPointExtension>
        </extensions>
      </trkpt>
      <trkpt lat="44.70820575021207332611083984375" lon="6.749841682612895965576171875">
        <ele>1435.4000244140625</ele>
        <time>2026-09-03T06:27:58.000Z</time>
        <extensions>
          <ns3:TrackPointExtension>
            <ns3:hr>140</ns3:hr>
            <ns3:cad>0</ns3:cad>
          </ns3:TrackPointExtension>
        </extensions>
      </trkpt>
      <trkpt lat="44.70819284208118915557861328125" lon="6.74983958713710308074951171875">
        <ele>1435.5999755859375</ele>
        <time>2026-09-03T06:27:59.000Z</time>
        <extensions>
          <ns3:TrackPointExtension>
            <ns3:hr>139</ns3:hr>
            <ns3:cad>0</ns3:cad>
          </ns3:TrackPointExtension>
        </extensions>
      </trkpt>
      <trkpt lat="44.708182029426097869873046875" lon="6.74983690492808818817138671875">
        <ele>1435.5999755859375</ele>
        <time>2026-09-03T06:28:00.000Z</time>
        <extensions>
          <ns3:TrackPointExtension>
            <ns3:hr>139</ns3:hr>
            <ns3:cad>0</ns3:cad>
          </ns3:TrackPointExtension>
        </extensions>
      </trkpt>
      <trkpt lat="44.708178676664829254150390625" lon="6.7498344741761684417724609375">
        <ele>1435.5999755859375</ele>
        <time>2026-09-03T06:28:01.000Z</time>
        <extensions>
          <ns3:TrackPointExtension>
            <ns3:hr>139</ns3:hr>
            <ns3:cad>0</ns3:cad>
          </ns3:TrackPointExtension>
        </extensions>
      </trkpt>
      <trkpt lat="44.7081795148551464080810546875" lon="6.7498304508626461029052734375">
        <ele>1435.5999755859375</ele>
        <time>2026-09-03T06:28:02.000Z</time>
        <extensions>
          <ns3:TrackPointExtension>
            <ns3:hr>138</ns3:hr>
            <ns3:cad>0</ns3:cad>
          </ns3:TrackPointExtension>
        </extensions>
      </trkpt>
      <trkpt lat="44.70817926339805126190185546875" lon="6.74982768483459949493408203125">
        <ele>1435.5999755859375</ele>
        <time>2026-09-03T06:28:03.000Z</time>
        <extensions>
          <ns3:TrackPointExtension>
            <ns3:hr>138</ns3:hr>
            <ns3:cad>0</ns3:cad>
          </ns3:TrackPointExtension>
        </extensions>
      </trkpt>
      <trkpt lat="44.708175323903560638427734375" lon="6.7498257569968700408935546875">
        <ele>1435.5999755859375</ele>
        <time>2026-09-03T06:28:04.000Z</time>
        <extensions>
          <ns3:TrackPointExtension>
            <ns3:hr>137</ns3:hr>
            <ns3:cad>0</ns3:cad>
          </ns3:TrackPointExtension>
        </extensions>
      </trkpt>
      <trkpt lat="44.70817440189421176910400390625" lon="6.7498281039297580718994140625">
        <ele>1435.5999755859375</ele>
        <time>2026-09-03T06:28:05.000Z</time>
        <extensions>
          <ns3:TrackPointExtension>
            <ns3:hr>137</ns3:hr>
            <ns3:cad>0</ns3:cad>
          </ns3:TrackPointExtension>
        </extensions>
      </trkpt>
      <trkpt lat="44.7081718035042285919189453125" lon="6.7498291097581386566162109375">
        <ele>1435.5999755859375</ele>
        <time>2026-09-03T06:28:06.000Z</time>
        <extensions>
          <ns3:TrackPointExtension>
            <ns3:hr>137</ns3:hr>
            <ns3:cad>0</ns3:cad>
          </ns3:TrackPointExtension>
        </extensions>
      </trkpt>
      <trkpt lat="44.70817088149487972259521484375" lon="6.74982751719653606414794921875">
        <ele>1435.5999755859375</ele>
        <time>2026-09-03T06:28:07.000Z</time>
        <extensions>
          <ns3:TrackPointExtension>
            <ns3:hr>136</ns3:hr>
            <ns3:cad>0</ns3:cad>
          </ns3:TrackPointExtension>
        </extensions>
      </trkpt>
      <trkpt lat="44.70816987566649913787841796875" lon="6.74982802011072635650634765625">
        <ele>1435.5999755859375</ele>
        <time>2026-09-03T06:28:08.000Z</time>
        <extensions>
          <ns3:TrackPointExtension>
            <ns3:hr>136</ns3:hr>
            <ns3:cad>0</ns3:cad>
          </ns3:TrackPointExtension>
        </extensions>
      </trkpt>
      <trkpt lat="44.708170630037784576416015625" lon="6.749826930463314056396484375">
        <ele>1435.5999755859375</ele>
        <time>2026-09-03T06:28:09.000Z</time>
        <extensions>
          <ns3:TrackPointExtension>
            <ns3:hr>136</ns3:hr>
            <ns3:cad>0</ns3:cad>
          </ns3:TrackPointExtension>
        </extensions>
      </trkpt>
      <trkpt lat="44.70817356370389461517333984375" lon="6.74982567317783832550048828125">
        <ele>1435.5999755859375</ele>
        <time>2026-09-03T06:28:10.000Z</time>
        <extensions>
          <ns3:TrackPointExtension>
            <ns3:hr>135</ns3:hr>
            <ns3:cad>0</ns3:cad>
          </ns3:TrackPointExtension>
        </extensions>
      </trkpt>
      <trkpt lat="44.70817356370389461517333984375" lon="6.7498230747878551483154296875">
        <ele>1435.5999755859375</ele>
        <time>2026-09-03T06:28:11.000Z</time>
        <extensions>
          <ns3:TrackPointExtension>
            <ns3:hr>135</ns3:hr>
            <ns3:cad>0</ns3:cad>
          </ns3:TrackPointExtension>
        </extensions>
      </trkpt>
      <trkpt lat="44.70817507244646549224853515625" lon="6.74982181750237941741943359375">
        <ele>1435.5999755859375</ele>
        <time>2026-09-03T06:28:12.000Z</time>
        <extensions>
          <ns3:TrackPointExtension>
            <ns3:hr>135</ns3:hr>
            <ns3:cad>0</ns3:cad>
          </ns3:TrackPointExtension>
        </extensions>
      </trkpt>
      <trkpt lat="44.7081744857132434844970703125" lon="6.74982215277850627899169921875">
        <ele>1435.5999755859375</ele>
        <time>2026-09-03T06:28:13.000Z</time>
        <extensions>
          <ns3:TrackPointExtension>
            <ns3:hr>134</ns3:hr>
            <ns3:cad>0</ns3:cad>
          </ns3:TrackPointExtension>
        </extensions>
      </trkpt>
      <trkpt lat="44.70817498862743377685546875" lon="6.74982181750237941741943359375">
        <ele>1435.5999755859375</ele>
        <time>2026-09-03T06:28:14.000Z</time>
        <extensions>
          <ns3:TrackPointExtension>
            <ns3:hr>134</ns3:hr>
            <ns3:cad>0</ns3:cad>
          </ns3:TrackPointExtension>
        </extensions>
      </trkpt>
      <trkpt lat="44.70817490480840206146240234375" lon="6.74982181750237941741943359375">
        <ele>1435.5999755859375</ele>
        <time>2026-09-03T06:28:15.000Z</time>
        <extensions>
          <ns3:TrackPointExtension>
            <ns3:hr>133</ns3:hr>
            <ns3:cad>0</ns3:cad>
          </ns3:TrackPointExtension>
        </extensions>
      </trkpt>
      <trkpt lat="44.70817490480840206146240234375" lon="6.74982181750237941741943359375">
        <ele>1435.5999755859375</ele>
        <time>2026-09-03T06:28:16.000Z</time>
        <extensions>
          <ns3:TrackPointExtension>
            <ns3:hr>133</ns3:hr>
            <ns3:cad>0</ns3:cad>
          </ns3:TrackPointExtension>
        </extensions>
      </trkpt>
      <trkpt lat="44.70817490480840206146240234375" lon="6.74982181750237941741943359375">
        <ele>1435.5999755859375</ele>
        <time>2026-09-03T06:28:17.000Z</time>
        <extensions>
          <ns3:TrackPointExtension>
            <ns3:hr>133</ns3:hr>
            <ns3:cad>0</ns3:cad>
          </ns3:TrackPointExtension>
        </extensions>
      </trkpt>
      <trkpt lat="44.70817490480840206146240234375" lon="6.74982181750237941741943359375">
        <ele>1435.4000244140625</ele>
        <time>2026-09-03T06:28:18.000Z</time>
        <extensions>
          <ns3:TrackPointExtension>
            <ns3:hr>133</ns3:hr>
            <ns3:cad>0</ns3:cad>
          </ns3:TrackPointExtension>
        </extensions>
      </trkpt>
      <trkpt lat="44.70817490480840206146240234375" lon="6.74982181750237941741943359375">
        <ele>1435.4000244140625</ele>
        <time>2026-09-03T06:28:19.000Z</time>
        <extensions>
          <ns3:TrackPointExtension>
            <ns3:hr>133</ns3:hr>
            <ns3:cad>0</ns3:cad>
          </ns3:TrackPointExtension>
        </extensions>
      </trkpt>
      <trkpt lat="44.70817490480840206146240234375" lon="6.74982181750237941741943359375">
        <ele>1435.4000244140625</ele>
        <time>2026-09-03T06:28:20.000Z</time>
        <extensions>
          <ns3:TrackPointExtension>
            <ns3:hr>132</ns3:hr>
            <ns3:cad>0</ns3:cad>
          </ns3:TrackPointExtension>
        </extensions>
      </trkpt>
      <trkpt lat="44.70817490480840206146240234375" lon="6.74982181750237941741943359375">
        <ele>1435.4000244140625</ele>
        <time>2026-09-03T06:28:21.000Z</time>
        <extensions>
          <ns3:TrackPointExtension>
            <ns3:hr>132</ns3:hr>
            <ns3:cad>0</ns3:cad>
          </ns3:TrackPointExtension>
        </extensions>
      </trkpt>
      <trkpt lat="44.70817490480840206146240234375" lon="6.74982181750237941741943359375">
        <ele>1435.4000244140625</ele>
        <time>2026-09-03T06:28:22.000Z</time>
        <extensions>
          <ns3:TrackPointExtension>
            <ns3:hr>132</ns3:hr>
            <ns3:cad>0</ns3:cad>
          </ns3:TrackPointExtension>
        </extensions>
      </trkpt>
      <trkpt lat="44.70817490480840206146240234375" lon="6.74982181750237941741943359375">
        <ele>1435.4000244140625</ele>
        <time>2026-09-03T06:28:23.000Z</time>
        <extensions>
          <ns3:TrackPointExtension>
            <ns3:hr>131</ns3:hr>
            <ns3:cad>0</ns3:cad>
          </ns3:TrackPointExtension>
        </extensions>
      </trkpt>
      <trkpt lat="44.70817490480840206146240234375" lon="6.74982181750237941741943359375">
        <ele>1435.4000244140625</ele>
        <time>2026-09-03T06:28:24.000Z</time>
        <extensions>
          <ns3:TrackPointExtension>
            <ns3:hr>132</ns3:hr>
            <ns3:cad>0</ns3:cad>
          </ns3:TrackPointExtension>
        </extensions>
      </trkpt>
      <trkpt lat="44.70817490480840206146240234375" lon="6.74982181750237941741943359375">
        <ele>1435.4000244140625</ele>
        <time>2026-09-03T06:28:25.000Z</time>
        <extensions>
          <ns3:TrackPointExtension>
            <ns3:hr>132</ns3:hr>
            <ns3:cad>0</ns3:cad>
          </ns3:TrackPointExtension>
        </extensions>
      </trkpt>
      <trkpt lat="44.70817490480840206146240234375" lon="6.74982181750237941741943359375">
        <ele>1435.4000244140625</ele>
        <time>2026-09-03T06:28:26.000Z</time>
        <extensions>
          <ns3:TrackPointExtension>
            <ns3:hr>132</ns3:hr>
            <ns3:cad>0</ns3:cad>
          </ns3:TrackPointExtension>
        </extensions>
      </trkpt>
      <trkpt lat="44.70817490480840206146240234375" lon="6.74982181750237941741943359375">
        <ele>1435.4000244140625</ele>
        <time>2026-09-03T06:28:27.000Z</time>
        <extensions>
          <ns3:TrackPointExtension>
            <ns3:hr>132</ns3:hr>
            <ns3:cad>0</ns3:cad>
          </ns3:TrackPointExtension>
        </extensions>
      </trkpt>
      <trkpt lat="44.70817490480840206146240234375" lon="6.74982181750237941741943359375">
        <ele>1435.4000244140625</ele>
        <time>2026-09-03T06:28:28.000Z</time>
        <extensions>
          <ns3:TrackPointExtension>
            <ns3:hr>131</ns3:hr>
            <ns3:cad>0</ns3:cad>
          </ns3:TrackPointExtension>
        </extensions>
      </trkpt>
      <trkpt lat="44.70817490480840206146240234375" lon="6.74982181750237941741943359375">
        <ele>1435.4000244140625</ele>
        <time>2026-09-03T06:28:29.000Z</time>
        <extensions>
          <ns3:TrackPointExtension>
            <ns3:hr>131</ns3:hr>
            <ns3:cad>0</ns3:cad>
          </ns3:TrackPointExtension>
        </extensions>
      </trkpt>
      <trkpt lat="44.70817490480840206146240234375" lon="6.74982181750237941741943359375">
        <ele>1435.4000244140625</ele>
        <time>2026-09-03T06:28:30.000Z</time>
        <extensions>
          <ns3:TrackPointExtension>
            <ns3:hr>131</ns3:hr>
            <ns3:cad>0</ns3:cad>
          </ns3:TrackPointExtension>
        </extensions>
      </trkpt>
      <trkpt lat="44.70817490480840206146240234375" lon="6.74982181750237941741943359375">
        <ele>1435.4000244140625</ele>
        <time>2026-09-03T06:28:31.000Z</time>
        <extensions>
          <ns3:TrackPointExtension>
            <ns3:hr>130</ns3:hr>
            <ns3:cad>0</ns3:cad>
          </ns3:TrackPointExtension>
        </extensions>
      </trkpt>
      <trkpt lat="44.70817490480840206146240234375" lon="6.74982181750237941741943359375">
        <ele>1435.5999755859375</ele>
        <time>2026-09-03T06:28:32.000Z</time>
        <extensions>
          <ns3:TrackPointExtension>
            <ns3:hr>129</ns3:hr>
            <ns3:cad>0</ns3:cad>
          </ns3:TrackPointExtension>
        </extensions>
      </trkpt>
      <trkpt lat="44.70817490480840206146240234375" lon="6.74982181750237941741943359375">
        <ele>1435.5999755859375</ele>
        <time>2026-09-03T06:28:33.000Z</time>
        <extensions>
          <ns3:TrackPointExtension>
            <ns3:hr>129</ns3:hr>
            <ns3:cad>0</ns3:cad>
          </ns3:TrackPointExtension>
        </extensions>
      </trkpt>
      <trkpt lat="44.70817490480840206146240234375" lon="6.74982181750237941741943359375">
        <ele>1435.5999755859375</ele>
        <time>2026-09-03T06:28:34.000Z</time>
        <extensions>
          <ns3:TrackPointExtension>
            <ns3:hr>127</ns3:hr>
            <ns3:cad>0</ns3:cad>
          </ns3:TrackPointExtension>
        </extensions>
      </trkpt>
      <trkpt lat="44.70817490480840206146240234375" lon="6.74982181750237941741943359375">
        <ele>1435.5999755859375</ele>
        <time>2026-09-03T06:28:35.000Z</time>
        <extensions>
          <ns3:TrackPointExtension>
            <ns3:hr>126</ns3:hr>
            <ns3:cad>0</ns3:cad>
          </ns3:TrackPointExtension>
        </extensions>
      </trkpt>
      <trkpt lat="44.70817490480840206146240234375" lon="6.74982181750237941741943359375">
        <ele>1435.5999755859375</ele>
        <time>2026-09-03T06:28:36.000Z</time>
        <extensions>
          <ns3:TrackPointExtension>
            <ns3:hr>125</ns3:hr>
            <ns3:cad>0</ns3:cad>
          </ns3:TrackPointExtension>
        </extensions>
      </trkpt>
      <trkpt lat="44.70817490480840206146240234375" lon="6.74982181750237941741943359375">
        <ele>1435.5999755859375</ele>
        <time>2026-09-03T06:28:37.000Z</time>
        <extensions>
          <ns3:TrackPointExtension>
            <ns3:hr>125</ns3:hr>
            <ns3:cad>0</ns3:cad>
          </ns3:TrackPointExtension>
        </extensions>
      </trkpt>
      <trkpt lat="44.70817490480840206146240234375" lon="6.74982181750237941741943359375">
        <ele>1435.5999755859375</ele>
        <time>2026-09-03T06:28:38.000Z</time>
        <extensions>
          <ns3:TrackPointExtension>
            <ns3:hr>125</ns3:hr>
            <ns3:cad>0</ns3:cad>
          </ns3:TrackPointExtension>
        </extensions>
      </trkpt>
      <trkpt lat="44.70817490480840206146240234375" lon="6.74982181750237941741943359375">
        <ele>1435.5999755859375</ele>
        <time>2026-09-03T06:28:39.000Z</time>
        <extensions>
          <ns3:TrackPointExtension>
            <ns3:hr>125</ns3:hr>
            <ns3:cad>0</ns3:cad>
          </ns3:TrackPointExtension>
        </extensions>
      </trkpt>
      <trkpt lat="44.70817490480840206146240234375" lon="6.74982181750237941741943359375">
        <ele>1435.5999755859375</ele>
        <time>2026-09-03T06:28:40.000Z</time>
        <extensions>
          <ns3:TrackPointExtension>
            <ns3:hr>124</ns3:hr>
            <ns3:cad>0</ns3:cad>
          </ns3:TrackPointExtension>
        </extensions>
      </trkpt>
      <trkpt lat="44.70817490480840206146240234375" lon="6.74982181750237941741943359375">
        <ele>1435.4000244140625</ele>
        <time>2026-09-03T06:28:41.000Z</time>
        <extensions>
          <ns3:TrackPointExtension>
            <ns3:hr>124</ns3:hr>
            <ns3:cad>0</ns3:cad>
          </ns3:TrackPointExtension>
        </extensions>
      </trkpt>
      <trkpt lat="44.70817490480840206146240234375" lon="6.74982181750237941741943359375">
        <ele>1435.4000244140625</ele>
        <time>2026-09-03T06:28:42.000Z</time>
        <extensions>
          <ns3:TrackPointExtension>
            <ns3:hr>123</ns3:hr>
            <ns3:cad>0</ns3:cad>
          </ns3:TrackPointExtension>
        </extensions>
      </trkpt>
      <trkpt lat="44.70817490480840206146240234375" lon="6.74982181750237941741943359375">
        <ele>1435.4000244140625</ele>
        <time>2026-09-03T06:28:43.000Z</time>
        <extensions>
          <ns3:TrackPointExtension>
            <ns3:hr>121</ns3:hr>
            <ns3:cad>0</ns3:cad>
          </ns3:TrackPointExtension>
        </extensions>
      </trkpt>
      <trkpt lat="44.70817490480840206146240234375" lon="6.74982181750237941741943359375">
        <ele>1435.4000244140625</ele>
        <time>2026-09-03T06:28:44.000Z</time>
        <extensions>
          <ns3:TrackPointExtension>
            <ns3:hr>118</ns3:hr>
            <ns3:cad>0</ns3:cad>
          </ns3:TrackPointExtension>
        </extensions>
      </trkpt>
      <trkpt lat="44.70817490480840206146240234375" lon="6.74982181750237941741943359375">
        <ele>1435.4000244140625</ele>
        <time>2026-09-03T06:28:45.000Z</time>
        <extensions>
          <ns3:TrackPointExtension>
            <ns3:hr>117</ns3:hr>
            <ns3:cad>0</ns3:cad>
          </ns3:TrackPointExtension>
        </extensions>
      </trkpt>
      <trkpt lat="44.70817490480840206146240234375" lon="6.74982181750237941741943359375">
        <ele>1435.5999755859375</ele>
        <time>2026-09-03T06:28:46.000Z</time>
        <extensions>
          <ns3:TrackPointExtension>
            <ns3:hr>116</ns3:hr>
            <ns3:cad>0</ns3:cad>
          </ns3:TrackPointExtension>
        </extensions>
      </trkpt>
      <trkpt lat="44.70817490480840206146240234375" lon="6.74982181750237941741943359375">
        <ele>1435.5999755859375</ele>
        <time>2026-09-03T06:28:47.000Z</time>
        <extensions>
          <ns3:TrackPointExtension>
            <ns3:hr>116</ns3:hr>
            <ns3:cad>0</ns3:cad>
          </ns3:TrackPointExtension>
        </extensions>
      </trkpt>
      <trkpt lat="44.70817490480840206146240234375" lon="6.74982181750237941741943359375">
        <ele>1435.5999755859375</ele>
        <time>2026-09-03T06:28:48.000Z</time>
        <extensions>
          <ns3:TrackPointExtension>
            <ns3:hr>115</ns3:hr>
            <ns3:cad>0</ns3:cad>
          </ns3:TrackPointExtension>
        </extensions>
      </trkpt>
      <trkpt lat="44.70817490480840206146240234375" lon="6.74982181750237941741943359375">
        <ele>1435.4000244140625</ele>
        <time>2026-09-03T06:28:49.000Z</time>
        <extensions>
          <ns3:TrackPointExtension>
            <ns3:hr>115</ns3:hr>
            <ns3:cad>0</ns3:cad>
          </ns3:TrackPointExtension>
        </extensions>
      </trkpt>
      <trkpt lat="44.70817490480840206146240234375" lon="6.74982181750237941741943359375">
        <ele>1435.4000244140625</ele>
        <time>2026-09-03T06:28:50.000Z</time>
        <extensions>
          <ns3:TrackPointExtension>
            <ns3:hr>115</ns3:hr>
            <ns3:cad>0</ns3:cad>
          </ns3:TrackPointExtension>
        </extensions>
      </trkpt>
      <trkpt lat="44.70817490480840206146240234375" lon="6.74982181750237941741943359375">
        <ele>1435.4000244140625</ele>
        <time>2026-09-03T06:28:51.000Z</time>
        <extensions>
          <ns3:TrackPointExtension>
            <ns3:hr>116</ns3:hr>
            <ns3:cad>0</ns3:cad>
          </ns3:TrackPointExtension>
        </extensions>
      </trkpt>
      <trkpt lat="44.70817490480840206146240234375" lon="6.74982181750237941741943359375">
        <ele>1435.4000244140625</ele>
        <time>2026-09-03T06:28:52.000Z</time>
        <extensions>
          <ns3:TrackPointExtension>
            <ns3:hr>116</ns3:hr>
            <ns3:cad>0</ns3:cad>
          </ns3:TrackPointExtension>
        </extensions>
      </trkpt>
      <trkpt lat="44.70817490480840206146240234375" lon="6.74982181750237941741943359375">
        <ele>1435.4000244140625</ele>
        <time>2026-09-03T06:28:53.000Z</time>
        <extensions>
          <ns3:TrackPointExtension>
            <ns3:hr>115</ns3:hr>
            <ns3:cad>0</ns3:cad>
          </ns3:TrackPointExtension>
        </extensions>
      </trkpt>
      <trkpt lat="44.70817490480840206146240234375" lon="6.74982181750237941741943359375">
        <ele>1435.4000244140625</ele>
        <time>2026-09-03T06:28:54.000Z</time>
        <extensions>
          <ns3:TrackPointExtension>
            <ns3:hr>115</ns3:hr>
            <ns3:cad>0</ns3:cad>
          </ns3:TrackPointExtension>
        </extensions>
      </trkpt>
      <trkpt lat="44.70817490480840206146240234375" lon="6.74982181750237941741943359375">
        <ele>1435.4000244140625</ele>
        <time>2026-09-03T06:28:55.000Z</time>
        <extensions>
          <ns3:TrackPointExtension>
            <ns3:hr>116</ns3:hr>
            <ns3:cad>0</ns3:cad>
          </ns3:TrackPointExtension>
        </extensions>
      </trkpt>
      <trkpt lat="44.70817490480840206146240234375" lon="6.74982181750237941741943359375">
        <ele>1435.4000244140625</ele>
        <time>2026-09-03T06:28:56.000Z</time>
        <extensions>
          <ns3:TrackPointExtension>
            <ns3:hr>115</ns3:hr>
            <ns3:cad>0</ns3:cad>
          </ns3:TrackPointExtension>
        </extensions>
      </trkpt>
      <trkpt lat="44.70817490480840206146240234375" lon="6.74982181750237941741943359375">
        <ele>1435.4000244140625</ele>
        <time>2026-09-03T06:28:57.000Z</time>
        <extensions>
          <ns3:TrackPointExtension>
            <ns3:hr>116</ns3:hr>
            <ns3:cad>0</ns3:cad>
          </ns3:TrackPointExtension>
        </extensions>
      </trkpt>
      <trkpt lat="44.70817490480840206146240234375" lon="6.74982181750237941741943359375">
        <ele>1435.4000244140625</ele>
        <time>2026-09-03T06:28:58.000Z</time>
        <extensions>
          <ns3:TrackPointExtension>
            <ns3:hr>117</ns3:hr>
            <ns3:cad>0</ns3:cad>
          </ns3:TrackPointExtension>
        </extensions>
      </trkpt>
      <trkpt lat="44.70817490480840206146240234375" lon="6.74982181750237941741943359375">
        <ele>1435.4000244140625</ele>
        <time>2026-09-03T06:28:59.000Z</time>
        <extensions>
          <ns3:TrackPointExtension>
            <ns3:hr>117</ns3:hr>
            <ns3:cad>0</ns3:cad>
          </ns3:TrackPointExtension>
        </extensions>
      </trkpt>
      <trkpt lat="44.70817490480840206146240234375" lon="6.74982181750237941741943359375">
        <ele>1435.4000244140625</ele>
        <time>2026-09-03T06:29:00.000Z</time>
        <extensions>
          <ns3:TrackPointExtension>
            <ns3:hr>117</ns3:hr>
            <ns3:cad>0</ns3:cad>
          </ns3:TrackPointExtension>
        </extensions>
      </trkpt>
      <trkpt lat="44.70817490480840206146240234375" lon="6.74982181750237941741943359375">
        <ele>1435.4000244140625</ele>
        <time>2026-09-03T06:29:01.000Z</time>
        <extensions>
          <ns3:TrackPointExtension>
            <ns3:hr>117</ns3:hr>
            <ns3:cad>0</ns3:cad>
          </ns3:TrackPointExtension>
        </extensions>
      </trkpt>
      <trkpt lat="44.70817490480840206146240234375" lon="6.74982181750237941741943359375">
        <ele>1435.4000244140625</ele>
        <time>2026-09-03T06:29:02.000Z</time>
        <extensions>
          <ns3:TrackPointExtension>
            <ns3:hr>117</ns3:hr>
            <ns3:cad>0</ns3:cad>
          </ns3:TrackPointExtension>
        </extensions>
      </trkpt>
      <trkpt lat="44.70817490480840206146240234375" lon="6.74982181750237941741943359375">
        <ele>1435.4000244140625</ele>
        <time>2026-09-03T06:29:03.000Z</time>
        <extensions>
          <ns3:TrackPointExtension>
            <ns3:hr>116</ns3:hr>
            <ns3:cad>0</ns3:cad>
          </ns3:TrackPointExtension>
        </extensions>
      </trkpt>
      <trkpt lat="44.70817490480840206146240234375" lon="6.74982181750237941741943359375">
        <ele>1435.4000244140625</ele>
        <time>2026-09-03T06:29:04.000Z</time>
        <extensions>
          <ns3:TrackPointExtension>
            <ns3:hr>116</ns3:hr>
            <ns3:cad>0</ns3:cad>
          </ns3:TrackPointExtension>
        </extensions>
      </trkpt>
      <trkpt lat="44.70817490480840206146240234375" lon="6.74982181750237941741943359375">
        <ele>1435.4000244140625</ele>
        <time>2026-09-03T06:29:05.000Z</time>
        <extensions>
          <ns3:TrackPointExtension>
            <ns3:hr>116</ns3:hr>
            <ns3:cad>0</ns3:cad>
          </ns3:TrackPointExtension>
        </extensions>
      </trkpt>
      <trkpt lat="44.70817490480840206146240234375" lon="6.74982181750237941741943359375">
        <ele>1435.199951171875</ele>
        <time>2026-09-03T06:29:06.000Z</time>
        <extensions>
          <ns3:TrackPointExtension>
            <ns3:hr>116</ns3:hr>
            <ns3:cad>0</ns3:cad>
          </ns3:TrackPointExtension>
        </extensions>
      </trkpt>
      <trkpt lat="44.70817490480840206146240234375" lon="6.74982181750237941741943359375">
        <ele>1435.4000244140625</ele>
        <time>2026-09-03T06:29:07.000Z</time>
        <extensions>
          <ns3:TrackPointExtension>
            <ns3:hr>116</ns3:hr>
            <ns3:cad>0</ns3:cad>
          </ns3:TrackPointExtension>
        </extensions>
      </trkpt>
      <trkpt lat="44.70817490480840206146240234375" lon="6.74982181750237941741943359375">
        <ele>1435.4000244140625</ele>
        <time>2026-09-03T06:29:08.000Z</time>
        <extensions>
          <ns3:TrackPointExtension>
            <ns3:hr>115</ns3:hr>
            <ns3:cad>0</ns3:cad>
          </ns3:TrackPointExtension>
        </extensions>
      </trkpt>
      <trkpt lat="44.70817490480840206146240234375" lon="6.74982181750237941741943359375">
        <ele>1435.4000244140625</ele>
        <time>2026-09-03T06:29:09.000Z</time>
        <extensions>
          <ns3:TrackPointExtension>
            <ns3:hr>114</ns3:hr>
            <ns3:cad>0</ns3:cad>
          </ns3:TrackPointExtension>
        </extensions>
      </trkpt>
      <trkpt lat="44.70817490480840206146240234375" lon="6.74982181750237941741943359375">
        <ele>1435.4000244140625</ele>
        <time>2026-09-03T06:29:10.000Z</time>
        <extensions>
          <ns3:TrackPointExtension>
            <ns3:hr>112</ns3:hr>
            <ns3:cad>0</ns3:cad>
          </ns3:TrackPointExtension>
        </extensions>
      </trkpt>
      <trkpt lat="44.70817490480840206146240234375" lon="6.74982181750237941741943359375">
        <ele>1435.4000244140625</ele>
        <time>2026-09-03T06:29:11.000Z</time>
        <extensions>
          <ns3:TrackPointExtension>
            <ns3:hr>112</ns3:hr>
            <ns3:cad>0</ns3:cad>
          </ns3:TrackPointExtension>
        </extensions>
      </trkpt>
      <trkpt lat="44.70817490480840206146240234375" lon="6.74982181750237941741943359375">
        <ele>1435.199951171875</ele>
        <time>2026-09-03T06:29:12.000Z</time>
        <extensions>
          <ns3:TrackPointExtension>
            <ns3:hr>111</ns3:hr>
            <ns3:cad>0</ns3:cad>
          </ns3:TrackPointExtension>
        </extensions>
      </trkpt>
      <trkpt lat="44.70817490480840206146240234375" lon="6.74982181750237941741943359375">
        <ele>1435.199951171875</ele>
        <time>2026-09-03T06:29:13.000Z</time>
        <extensions>
          <ns3:TrackPointExtension>
            <ns3:hr>110</ns3:hr>
            <ns3:cad>0</ns3:cad>
          </ns3:TrackPointExtension>
        </extensions>
      </trkpt>
      <trkpt lat="44.70817490480840206146240234375" lon="6.74982181750237941741943359375">
        <ele>1435.199951171875</ele>
        <time>2026-09-03T06:29:14.000Z</time>
        <extensions>
          <ns3:TrackPointExtension>
            <ns3:hr>110</ns3:hr>
            <ns3:cad>0</ns3:cad>
          </ns3:TrackPointExtension>
        </extensions>
      </trkpt>
      <trkpt lat="44.70817490480840206146240234375" lon="6.74982181750237941741943359375">
        <ele>1435.4000244140625</ele>
        <time>2026-09-03T06:29:15.000Z</time>
        <extensions>
          <ns3:TrackPointExtension>
            <ns3:hr>110</ns3:hr>
            <ns3:cad>0</ns3:cad>
          </ns3:TrackPointExtension>
        </extensions>
      </trkpt>
      <trkpt lat="44.70816970802843570709228515625" lon="6.74983070231974124908447265625">
        <ele>1435.4000244140625</ele>
        <time>2026-09-03T06:29:16.000Z</time>
        <extensions>
          <ns3:TrackPointExtension>
            <ns3:hr>109</ns3:hr>
            <ns3:cad>0</ns3:cad>
          </ns3:TrackPointExtension>
        </extensions>
      </trkpt>
      <trkpt lat="44.708162583410739898681640625" lon="6.74984076060354709625244140625">
        <ele>1435.4000244140625</ele>
        <time>2026-09-03T06:29:17.000Z</time>
        <extensions>
          <ns3:TrackPointExtension>
            <ns3:hr>109</ns3:hr>
            <ns3:cad>0</ns3:cad>
          </ns3:TrackPointExtension>
        </extensions>
      </trkpt>
      <trkpt lat="44.70816233195364475250244140625" lon="6.7498408444225788116455078125">
        <ele>1435.199951171875</ele>
        <time>2026-09-03T06:29:18.000Z</time>
        <extensions>
          <ns3:TrackPointExtension>
            <ns3:hr>109</ns3:hr>
            <ns3:cad>0</ns3:cad>
          </ns3:TrackPointExtension>
        </extensions>
      </trkpt>
      <trkpt lat="44.70816182903945446014404296875" lon="6.74984344281256198883056640625">
        <ele>1435.199951171875</ele>
        <time>2026-09-03T06:29:19.000Z</time>
        <extensions>
          <ns3:TrackPointExtension>
            <ns3:hr>109</ns3:hr>
            <ns3:cad>0</ns3:cad>
          </ns3:TrackPointExtension>
        </extensions>
      </trkpt>
      <trkpt lat="44.70816560089588165283203125" lon="6.74984746612608432769775390625">
        <ele>1435.199951171875</ele>
        <time>2026-09-03T06:29:20.000Z</time>
        <extensions>
          <ns3:TrackPointExtension>
            <ns3:hr>108</ns3:hr>
            <ns3:cad>0</ns3:cad>
          </ns3:TrackPointExtension>
        </extensions>
      </trkpt>
      <trkpt lat="44.708162248134613037109375" lon="6.749847717583179473876953125">
        <ele>1435.199951171875</ele>
        <time>2026-09-03T06:29:21.000Z</time>
        <extensions>
          <ns3:TrackPointExtension>
            <ns3:hr>108</ns3:hr>
            <ns3:cad>0</ns3:cad>
          </ns3:TrackPointExtension>
        </extensions>
      </trkpt>
      <trkpt lat="44.708157218992710113525390625" lon="6.74984746612608432769775390625">
        <ele>1435.199951171875</ele>
        <time>2026-09-03T06:29:22.000Z</time>
        <extensions>
          <ns3:TrackPointExtension>
            <ns3:hr>108</ns3:hr>
            <ns3:cad>0</ns3:cad>
          </ns3:TrackPointExtension>
        </extensions>
      </trkpt>
      <trkpt lat="44.7081476636230945587158203125" lon="6.74984428100287914276123046875">
        <ele>1435.199951171875</ele>
        <time>2026-09-03T06:29:23.000Z</time>
        <extensions>
          <ns3:TrackPointExtension>
            <ns3:hr>108</ns3:hr>
            <ns3:cad>0</ns3:cad>
          </ns3:TrackPointExtension>
        </extensions>
      </trkpt>
      <trkpt lat="44.708140790462493896484375" lon="6.74984260462224483489990234375">
        <ele>1435.199951171875</ele>
        <time>2026-09-03T06:29:24.000Z</time>
        <extensions>
          <ns3:TrackPointExtension>
            <ns3:hr>109</ns3:hr>
            <ns3:cad>0</ns3:cad>
          </ns3:TrackPointExtension>
        </extensions>
      </trkpt>
      <trkpt lat="44.70812930725514888763427734375" lon="6.74983866512775421142578125">
        <ele>1435.4000244140625</ele>
        <time>2026-09-03T06:29:25.000Z</time>
        <extensions>
          <ns3:TrackPointExtension>
            <ns3:hr>109</ns3:hr>
            <ns3:cad>0</ns3:cad>
          </ns3:TrackPointExtension>
        </extensions>
      </trkpt>
      <trkpt lat="44.70811841078102588653564453125" lon="6.7498374916613101959228515625">
        <ele>1435.5999755859375</ele>
        <time>2026-09-03T06:29:26.000Z</time>
        <extensions>
          <ns3:TrackPointExtension>
            <ns3:hr>109</ns3:hr>
            <ns3:cad>47</ns3:cad>
          </ns3:TrackPointExtension>
        </extensions>
      </trkpt>
      <trkpt lat="44.708106927573680877685546875" lon="6.74983195960521697998046875">
        <ele>1435.800048828125</ele>
        <time>2026-09-03T06:29:27.000Z</time>
        <extensions>
          <ns3:TrackPointExtension>
            <ns3:hr>110</ns3:hr>
            <ns3:cad>52</ns3:cad>
          </ns3:TrackPointExtension>
        </extensions>
      </trkpt>
      <trkpt lat="44.70809645019471645355224609375" lon="6.74982651136815547943115234375">
        <ele>1436.199951171875</ele>
        <time>2026-09-03T06:29:28.000Z</time>
        <extensions>
          <ns3:TrackPointExtension>
            <ns3:hr>110</ns3:hr>
            <ns3:cad>52</ns3:cad>
          </ns3:TrackPointExtension>
        </extensions>
      </trkpt>
      <trkpt lat="44.7080873139202594757080078125" lon="6.74982198514044284820556640625">
        <ele>1436.4000244140625</ele>
        <time>2026-09-03T06:29:29.000Z</time>
        <extensions>
          <ns3:TrackPointExtension>
            <ns3:hr>110</ns3:hr>
            <ns3:cad>51</ns3:cad>
          </ns3:TrackPointExtension>
        </extensions>
      </trkpt>
      <trkpt lat="44.708076082170009613037109375" lon="6.7498197220265865325927734375">
        <ele>1436.800048828125</ele>
        <time>2026-09-03T06:29:30.000Z</time>
        <extensions>
          <ns3:TrackPointExtension>
            <ns3:hr>109</ns3:hr>
            <ns3:cad>0</ns3:cad>
          </ns3:TrackPointExtension>
        </extensions>
      </trkpt>
      <trkpt lat="44.7080638445913791656494140625" lon="6.74981712363660335540771484375">
        <ele>1437</ele>
        <time>2026-09-03T06:29:31.000Z</time>
        <extensions>
          <ns3:TrackPointExtension>
            <ns3:hr>110</ns3:hr>
            <ns3:cad>0</ns3:cad>
          </ns3:TrackPointExtension>
        </extensions>
      </trkpt>
      <trkpt lat="44.70805227756500244140625" lon="6.74981595017015933990478515625">
        <ele>1437.199951171875</ele>
        <time>2026-09-03T06:29:32.000Z</time>
        <extensions>
          <ns3:TrackPointExtension>
            <ns3:hr>109</ns3:hr>
            <ns3:cad>0</ns3:cad>
          </ns3:TrackPointExtension>
        </extensions>
      </trkpt>
      <trkpt lat="44.7080440632998943328857421875" lon="6.749810837209224700927734375">
        <ele>1437.4000244140625</ele>
        <time>2026-09-03T06:29:33.000Z</time>
        <extensions>
          <ns3:TrackPointExtension>
            <ns3:hr>109</ns3:hr>
            <ns3:cad>0</ns3:cad>
          </ns3:TrackPointExtension>
        </extensions>
      </trkpt>
      <trkpt lat="44.70803392119705677032470703125" lon="6.74980781972408294677734375">
        <ele>1437.5999755859375</ele>
        <time>2026-09-03T06:29:34.000Z</time>
        <extensions>
          <ns3:TrackPointExtension>
            <ns3:hr>109</ns3:hr>
            <ns3:cad>0</ns3:cad>
          </ns3:TrackPointExtension>
        </extensions>
      </trkpt>
      <trkpt lat="44.70802880823612213134765625" lon="6.7498071491718292236328125">
        <ele>1437.800048828125</ele>
        <time>2026-09-03T06:29:35.000Z</time>
        <extensions>
          <ns3:TrackPointExtension>
            <ns3:hr>109</ns3:hr>
            <ns3:cad>0</ns3:cad>
          </ns3:TrackPointExtension>
        </extensions>
      </trkpt>
      <trkpt lat="44.70802051015198230743408203125" lon="6.7498044669628143310546875">
        <ele>1438.199951171875</ele>
        <time>2026-09-03T06:29:36.000Z</time>
        <extensions>
          <ns3:TrackPointExtension>
            <ns3:hr>110</ns3:hr>
            <ns3:cad>0</ns3:cad>
          </ns3:TrackPointExtension>
        </extensions>
      </trkpt>
      <trkpt lat="44.708013050258159637451171875" lon="6.74980245530605316162109375">
        <ele>1438.4000244140625</ele>
        <time>2026-09-03T06:29:37.000Z</time>
        <extensions>
          <ns3:TrackPointExtension>
            <ns3:hr>111</ns3:hr>
            <ns3:cad>0</ns3:cad>
          </ns3:TrackPointExtension>
        </extensions>
      </trkpt>
      <trkpt lat="44.70800542272627353668212890625" lon="6.74978292547166347503662109375">
        <ele>1438.800048828125</ele>
        <time>2026-09-03T06:29:38.000Z</time>
        <extensions>
          <ns3:TrackPointExtension>
            <ns3:hr>112</ns3:hr>
            <ns3:cad>0</ns3:cad>
          </ns3:TrackPointExtension>
        </extensions>
      </trkpt>
      <trkpt lat="44.70799519680440425872802734375" lon="6.749776639044284820556640625">
        <ele>1439</ele>
        <time>2026-09-03T06:29:39.000Z</time>
        <extensions>
          <ns3:TrackPointExtension>
            <ns3:hr>112</ns3:hr>
            <ns3:cad>0</ns3:cad>
          </ns3:TrackPointExtension>
        </extensions>
      </trkpt>
      <trkpt lat="44.70798798836767673492431640625" lon="6.74976498819887638092041015625">
        <ele>1439.199951171875</ele>
        <time>2026-09-03T06:29:40.000Z</time>
        <extensions>
          <ns3:TrackPointExtension>
            <ns3:hr>113</ns3:hr>
            <ns3:cad>0</ns3:cad>
          </ns3:TrackPointExtension>
        </extensions>
      </trkpt>
      <trkpt lat="44.7079786844551563262939453125" lon="6.7497587017714977264404296875">
        <ele>1439.4000244140625</ele>
        <time>2026-09-03T06:29:41.000Z</time>
        <extensions>
          <ns3:TrackPointExtension>
            <ns3:hr>114</ns3:hr>
            <ns3:cad>0</ns3:cad>
          </ns3:TrackPointExtension>
        </extensions>
      </trkpt>
      <trkpt lat="44.70797114074230194091796875" lon="6.74975425936281681060791015625">
        <ele>1439.5999755859375</ele>
        <time>2026-09-03T06:29:42.000Z</time>
        <extensions>
          <ns3:TrackPointExtension>
            <ns3:hr>114</ns3:hr>
            <ns3:cad>0</ns3:cad>
          </ns3:TrackPointExtension>
        </extensions>
      </trkpt>
      <trkpt lat="44.7079624235630035400390625" lon="6.7497506551444530487060546875">
        <ele>1439.800048828125</ele>
        <time>2026-09-03T06:29:43.000Z</time>
        <extensions>
          <ns3:TrackPointExtension>
            <ns3:hr>115</ns3:hr>
            <ns3:cad>0</ns3:cad>
          </ns3:TrackPointExtension>
        </extensions>
      </trkpt>
      <trkpt lat="44.7079625912010669708251953125" lon="6.74974939785897731781005859375">
        <ele>1440</ele>
        <time>2026-09-03T06:29:44.000Z</time>
        <extensions>
          <ns3:TrackPointExtension>
            <ns3:hr>115</ns3:hr>
            <ns3:cad>0</ns3:cad>
          </ns3:TrackPointExtension>
        </extensions>
      </trkpt>
      <trkpt lat="44.7079625912010669708251953125" lon="6.74974973313510417938232421875">
        <ele>1440.199951171875</ele>
        <time>2026-09-03T06:29:45.000Z</time>
        <extensions>
          <ns3:TrackPointExtension>
            <ns3:hr>116</ns3:hr>
            <ns3:cad>0</ns3:cad>
          </ns3:TrackPointExtension>
        </extensions>
      </trkpt>
      <trkpt lat="44.70796166919171810150146484375" lon="6.749745793640613555908203125">
        <ele>1440.4000244140625</ele>
        <time>2026-09-03T06:29:46.000Z</time>
        <extensions>
          <ns3:TrackPointExtension>
            <ns3:hr>116</ns3:hr>
            <ns3:cad>0</ns3:cad>
          </ns3:TrackPointExtension>
        </extensions>
      </trkpt>
      <trkpt lat="44.7079602442681789398193359375" lon="6.74974604509770870208740234375">
        <ele>1440.4000244140625</ele>
        <time>2026-09-03T06:29:47.000Z</time>
        <extensions>
          <ns3:TrackPointExtension>
            <ns3:hr>117</ns3:hr>
            <ns3:cad>0</ns3:cad>
          </ns3:TrackPointExtension>
        </extensions>
      </trkpt>
      <trkpt lat="44.707961417734622955322265625" lon="6.74974822439253330230712890625">
        <ele>1440.5999755859375</ele>
        <time>2026-09-03T06:29:48.000Z</time>
        <extensions>
          <ns3:TrackPointExtension>
            <ns3:hr>117</ns3:hr>
            <ns3:cad>0</ns3:cad>
          </ns3:TrackPointExtension>
        </extensions>
      </trkpt>
      <trkpt lat="44.707960076630115509033203125" lon="6.749757863581180572509765625">
        <ele>1440.5999755859375</ele>
        <time>2026-09-03T06:29:49.000Z</time>
        <extensions>
          <ns3:TrackPointExtension>
            <ns3:hr>118</ns3:hr>
            <ns3:cad>0</ns3:cad>
          </ns3:TrackPointExtension>
        </extensions>
      </trkpt>
      <trkpt lat="44.7079548798501491546630859375" lon="6.74975945614278316497802734375">
        <ele>1440.5999755859375</ele>
        <time>2026-09-03T06:29:50.000Z</time>
        <extensions>
          <ns3:TrackPointExtension>
            <ns3:hr>118</ns3:hr>
            <ns3:cad>0</ns3:cad>
          </ns3:TrackPointExtension>
        </extensions>
      </trkpt>
      <trkpt lat="44.70794834196567535400390625" lon="6.749756522476673126220703125">
        <ele>1440.5999755859375</ele>
        <time>2026-09-03T06:29:51.000Z</time>
        <extensions>
          <ns3:TrackPointExtension>
            <ns3:hr>118</ns3:hr>
            <ns3:cad>0</ns3:cad>
          </ns3:TrackPointExtension>
        </extensions>
      </trkpt>
      <trkpt lat="44.707945995032787322998046875" lon="6.74975208006799221038818359375">
        <ele>1440.5999755859375</ele>
        <time>2026-09-03T06:29:52.000Z</time>
        <extensions>
          <ns3:TrackPointExtension>
            <ns3:hr>118</ns3:hr>
            <ns3:cad>0</ns3:cad>
          </ns3:TrackPointExtension>
        </extensions>
      </trkpt>
      <trkpt lat="44.707931578159332275390625" lon="6.74974403344094753265380859375">
        <ele>1440.800048828125</ele>
        <time>2026-09-03T06:29:53.000Z</time>
        <extensions>
          <ns3:TrackPointExtension>
            <ns3:hr>119</ns3:hr>
            <ns3:cad>0</ns3:cad>
          </ns3:TrackPointExtension>
        </extensions>
      </trkpt>
      <trkpt lat="44.707925878465175628662109375" lon="6.74973967485129833221435546875">
        <ele>1441</ele>
        <time>2026-09-03T06:29:54.000Z</time>
        <extensions>
          <ns3:TrackPointExtension>
            <ns3:hr>119</ns3:hr>
            <ns3:cad>0</ns3:cad>
          </ns3:TrackPointExtension>
        </extensions>
      </trkpt>
      <trkpt lat="44.70791389234364032745361328125" lon="6.74973213113844394683837890625">
        <ele>1441.199951171875</ele>
        <time>2026-09-03T06:29:55.000Z</time>
        <extensions>
          <ns3:TrackPointExtension>
            <ns3:hr>119</ns3:hr>
            <ns3:cad>0</ns3:cad>
          </ns3:TrackPointExtension>
        </extensions>
      </trkpt>
      <trkpt lat="44.70790249295532703399658203125" lon="6.74972869455814361572265625">
        <ele>1441.5999755859375</ele>
        <time>2026-09-03T06:29:56.000Z</time>
        <extensions>
          <ns3:TrackPointExtension>
            <ns3:hr>119</ns3:hr>
            <ns3:cad>0</ns3:cad>
          </ns3:TrackPointExtension>
        </extensions>
      </trkpt>
      <trkpt lat="44.70789712853729724884033203125" lon="6.7497240006923675537109375">
        <ele>1441.800048828125</ele>
        <time>2026-09-03T06:29:57.000Z</time>
        <extensions>
          <ns3:TrackPointExtension>
            <ns3:hr>119</ns3:hr>
            <ns3:cad>47</ns3:cad>
          </ns3:TrackPointExtension>
        </extensions>
      </trkpt>
      <trkpt lat="44.70788505859673023223876953125" lon="6.74971737898886203765869140625">
        <ele>1442</ele>
        <time>2026-09-03T06:29:58.000Z</time>
        <extensions>
          <ns3:TrackPointExtension>
            <ns3:hr>118</ns3:hr>
            <ns3:cad>47</ns3:cad>
          </ns3:TrackPointExtension>
        </extensions>
      </trkpt>
      <trkpt lat="44.7078747488558292388916015625" lon="6.7497117631137371063232421875">
        <ele>1442.199951171875</ele>
        <time>2026-09-03T06:29:59.000Z</time>
        <extensions>
          <ns3:TrackPointExtension>
            <ns3:hr>118</ns3:hr>
            <ns3:cad>47</ns3:cad>
          </ns3:TrackPointExtension>
        </extensions>
      </trkpt>
      <trkpt lat="44.70786443911492824554443359375" lon="6.74970497377216815948486328125">
        <ele>1442.199951171875</ele>
        <time>2026-09-03T06:30:00.000Z</time>
        <extensions>
          <ns3:TrackPointExtension>
            <ns3:hr>118</ns3:hr>
            <ns3:cad>47</ns3:cad>
          </ns3:TrackPointExtension>
        </extensions>
      </trkpt>
      <trkpt lat="44.7078563086688518524169921875" lon="6.7496963404119014739990234375">
        <ele>1442.4000244140625</ele>
        <time>2026-09-03T06:30:01.000Z</time>
        <extensions>
          <ns3:TrackPointExtension>
            <ns3:hr>118</ns3:hr>
            <ns3:cad>47</ns3:cad>
          </ns3:TrackPointExtension>
        </extensions>
      </trkpt>
      <trkpt lat="44.7078485973179340362548828125" lon="6.74968577921390533447265625">
        <ele>1442.4000244140625</ele>
        <time>2026-09-03T06:30:02.000Z</time>
        <extensions>
          <ns3:TrackPointExtension>
            <ns3:hr>118</ns3:hr>
            <ns3:cad>47</ns3:cad>
          </ns3:TrackPointExtension>
        </extensions>
      </trkpt>
      <trkpt lat="44.70785086043179035186767578125" lon="6.7496768943965435028076171875">
        <ele>1442.5999755859375</ele>
        <time>2026-09-03T06:30:03.000Z</time>
        <extensions>
          <ns3:TrackPointExtension>
            <ns3:hr>118</ns3:hr>
            <ns3:cad>47</ns3:cad>
          </ns3:TrackPointExtension>
        </extensions>
      </trkpt>
      <trkpt lat="44.70784683711826801300048828125" lon="6.74965853802859783172607421875">
        <ele>1442.800048828125</ele>
        <time>2026-09-03T06:30:04.000Z</time>
        <extensions>
          <ns3:TrackPointExtension>
            <ns3:hr>118</ns3:hr>
            <ns3:cad>47</ns3:cad>
          </ns3:TrackPointExtension>
        </extensions>
      </trkpt>
      <trkpt lat="44.70784130506217479705810546875" lon="6.7496504075825214385986328125">
        <ele>1443</ele>
        <time>2026-09-03T06:30:05.000Z</time>
        <extensions>
          <ns3:TrackPointExtension>
            <ns3:hr>118</ns3:hr>
            <ns3:cad>47</ns3:cad>
          </ns3:TrackPointExtension>
        </extensions>
      </trkpt>
      <trkpt lat="44.70783845521509647369384765625" lon="6.7496395111083984375">
        <ele>1443.199951171875</ele>
        <time>2026-09-03T06:30:06.000Z</time>
        <extensions>
          <ns3:TrackPointExtension>
            <ns3:hr>119</ns3:hr>
            <ns3:cad>47</ns3:cad>
          </ns3:TrackPointExtension>
        </extensions>
      </trkpt>
      <trkpt lat="44.70783409662544727325439453125" lon="6.74962417222559452056884765625">
        <ele>1443.4000244140625</ele>
        <time>2026-09-03T06:30:07.000Z</time>
        <extensions>
          <ns3:TrackPointExtension>
            <ns3:hr>119</ns3:hr>
            <ns3:cad>0</ns3:cad>
          </ns3:TrackPointExtension>
        </extensions>
      </trkpt>
      <trkpt lat="44.707829318940639495849609375" lon="6.749604977667331695556640625">
        <ele>1443.5999755859375</ele>
        <time>2026-09-03T06:30:08.000Z</time>
        <extensions>
          <ns3:TrackPointExtension>
            <ns3:hr>120</ns3:hr>
            <ns3:cad>0</ns3:cad>
          </ns3:TrackPointExtension>
        </extensions>
      </trkpt>
      <trkpt lat="44.70782604999840259552001953125" lon="6.749590225517749786376953125">
        <ele>1443.800048828125</ele>
        <time>2026-09-03T06:30:09.000Z</time>
        <extensions>
          <ns3:TrackPointExtension>
            <ns3:hr>120</ns3:hr>
            <ns3:cad>0</ns3:cad>
          </ns3:TrackPointExtension>
        </extensions>
      </trkpt>
      <trkpt lat="44.70782135613262653350830078125" lon="6.7495722882449626922607421875">
        <ele>1444</ele>
        <time>2026-09-03T06:30:10.000Z</time>
        <extensions>
          <ns3:TrackPointExtension>
            <ns3:hr>121</ns3:hr>
            <ns3:cad>0</ns3:cad>
          </ns3:TrackPointExtension>
        </extensions>
      </trkpt>
      <trkpt lat="44.70781699754297733306884765625" lon="6.749557368457317352294921875">
        <ele>1444.199951171875</ele>
        <time>2026-09-03T06:30:11.000Z</time>
        <extensions>
          <ns3:TrackPointExtension>
            <ns3:hr>122</ns3:hr>
            <ns3:cad>0</ns3:cad>
          </ns3:TrackPointExtension>
        </extensions>
      </trkpt>
      <trkpt lat="44.7078143991529941558837890625" lon="6.74954722635447978973388671875">
        <ele>1444.4000244140625</ele>
        <time>2026-09-03T06:30:12.000Z</time>
        <extensions>
          <ns3:TrackPointExtension>
            <ns3:hr>123</ns3:hr>
            <ns3:cad>0</ns3:cad>
          </ns3:TrackPointExtension>
        </extensions>
      </trkpt>
      <trkpt lat="44.70780911855399608612060546875" lon="6.74953415058553218841552734375">
        <ele>1444.5999755859375</ele>
        <time>2026-09-03T06:30:13.000Z</time>
        <extensions>
          <ns3:TrackPointExtension>
            <ns3:hr>123</ns3:hr>
            <ns3:cad>0</ns3:cad>
          </ns3:TrackPointExtension>
        </extensions>
      </trkpt>
      <trkpt lat="44.7078083641827106475830078125" lon="6.7495307140052318572998046875">
        <ele>1444.800048828125</ele>
        <time>2026-09-03T06:30:14.000Z</time>
        <extensions>
          <ns3:TrackPointExtension>
            <ns3:hr>125</ns3:hr>
            <ns3:cad>0</ns3:cad>
          </ns3:TrackPointExtension>
        </extensions>
      </trkpt>
      <trkpt lat="44.70780073665082454681396484375" lon="6.7495159618556499481201171875">
        <ele>1445</ele>
        <time>2026-09-03T06:30:15.000Z</time>
        <extensions>
          <ns3:TrackPointExtension>
            <ns3:hr>128</ns3:hr>
            <ns3:cad>0</ns3:cad>
          </ns3:TrackPointExtension>
        </extensions>
      </trkpt>
      <trkpt lat="44.70779704861342906951904296875" lon="6.7495082505047321319580078125">
        <ele>1445.199951171875</ele>
        <time>2026-09-03T06:30:16.000Z</time>
        <extensions>
          <ns3:TrackPointExtension>
            <ns3:hr>131</ns3:hr>
            <ns3:cad>0</ns3:cad>
          </ns3:TrackPointExtension>
        </extensions>
      </trkpt>
      <trkpt lat="44.70779118128120899200439453125" lon="6.74949266016483306884765625">
        <ele>1445.4000244140625</ele>
        <time>2026-09-03T06:30:17.000Z</time>
        <extensions>
          <ns3:TrackPointExtension>
            <ns3:hr>132</ns3:hr>
            <ns3:cad>0</ns3:cad>
          </ns3:TrackPointExtension>
        </extensions>
      </trkpt>
      <trkpt lat="44.70778833143413066864013671875" lon="6.7494770698249340057373046875">
        <ele>1445.5999755859375</ele>
        <time>2026-09-03T06:30:18.000Z</time>
        <extensions>
          <ns3:TrackPointExtension>
            <ns3:hr>133</ns3:hr>
            <ns3:cad>0</ns3:cad>
          </ns3:TrackPointExtension>
        </extensions>
      </trkpt>
      <trkpt lat="44.70778749324381351470947265625" lon="6.74946642480790615081787109375">
        <ele>1446</ele>
        <time>2026-09-03T06:30:19.000Z</time>
        <extensions>
          <ns3:TrackPointExtension>
            <ns3:hr>134</ns3:hr>
            <ns3:cad>0</ns3:cad>
          </ns3:TrackPointExtension>
        </extensions>
      </trkpt>
      <trkpt lat="44.707785062491893768310546875" lon="6.7494559474289417266845703125">
        <ele>1446.199951171875</ele>
        <time>2026-09-03T06:30:20.000Z</time>
        <extensions>
          <ns3:TrackPointExtension>
            <ns3:hr>135</ns3:hr>
            <ns3:cad>0</ns3:cad>
          </ns3:TrackPointExtension>
        </extensions>
      </trkpt>
      <trkpt lat="44.7077832184731960296630859375" lon="6.749452091753482818603515625">
        <ele>1446.4000244140625</ele>
        <time>2026-09-03T06:30:21.000Z</time>
        <extensions>
          <ns3:TrackPointExtension>
            <ns3:hr>136</ns3:hr>
            <ns3:cad>0</ns3:cad>
          </ns3:TrackPointExtension>
        </extensions>
      </trkpt>
      <trkpt lat="44.7077822126448154449462890625" lon="6.74944580532610416412353515625">
        <ele>1446.800048828125</ele>
        <time>2026-09-03T06:30:22.000Z</time>
        <extensions>
          <ns3:TrackPointExtension>
            <ns3:hr>137</ns3:hr>
            <ns3:cad>0</ns3:cad>
          </ns3:TrackPointExtension>
        </extensions>
      </trkpt>
      <trkpt lat="44.70778279937803745269775390625" lon="6.7494385130703449249267578125">
        <ele>1447</ele>
        <time>2026-09-03T06:30:23.000Z</time>
        <extensions>
          <ns3:TrackPointExtension>
            <ns3:hr>137</ns3:hr>
            <ns3:cad>0</ns3:cad>
          </ns3:TrackPointExtension>
        </extensions>
      </trkpt>
      <trkpt lat="44.70778397284448146820068359375" lon="6.74943222664296627044677734375">
        <ele>1447.199951171875</ele>
        <time>2026-09-03T06:30:24.000Z</time>
        <extensions>
          <ns3:TrackPointExtension>
            <ns3:hr>138</ns3:hr>
            <ns3:cad>0</ns3:cad>
          </ns3:TrackPointExtension>
        </extensions>
      </trkpt>
      <trkpt lat="44.70777927897870540618896484375" lon="6.7494182288646697998046875">
        <ele>1447.4000244140625</ele>
        <time>2026-09-03T06:30:25.000Z</time>
        <extensions>
          <ns3:TrackPointExtension>
            <ns3:hr>138</ns3:hr>
            <ns3:cad>0</ns3:cad>
          </ns3:TrackPointExtension>
        </extensions>
      </trkpt>
      <trkpt lat="44.70777391456067562103271484375" lon="6.74940506927669048309326171875">
        <ele>1447.5999755859375</ele>
        <time>2026-09-03T06:30:26.000Z</time>
        <extensions>
          <ns3:TrackPointExtension>
            <ns3:hr>137</ns3:hr>
            <ns3:cad>0</ns3:cad>
          </ns3:TrackPointExtension>
        </extensions>
      </trkpt>
      <trkpt lat="44.70777005888521671295166015625" lon="6.7493939213454723358154296875">
        <ele>1447.800048828125</ele>
        <time>2026-09-03T06:30:27.000Z</time>
        <extensions>
          <ns3:TrackPointExtension>
            <ns3:hr>136</ns3:hr>
            <ns3:cad>0</ns3:cad>
          </ns3:TrackPointExtension>
        </extensions>
      </trkpt>
      <trkpt lat="44.70777324400842189788818359375" lon="6.74939149059355258941650390625">
        <ele>1448</ele>
        <time>2026-09-03T06:30:28.000Z</time>
        <extensions>
          <ns3:TrackPointExtension>
            <ns3:hr>137</ns3:hr>
            <ns3:cad>0</ns3:cad>
          </ns3:TrackPointExtension>
        </extensions>
      </trkpt>
      <trkpt lat="44.70777332782745361328125" lon="6.7493912391364574432373046875">
        <ele>1448.4000244140625</ele>
        <time>2026-09-03T06:30:29.000Z</time>
        <extensions>
          <ns3:TrackPointExtension>
            <ns3:hr>137</ns3:hr>
            <ns3:cad>0</ns3:cad>
          </ns3:TrackPointExtension>
        </extensions>
      </trkpt>
      <trkpt lat="44.70777374692261219024658203125" lon="6.7493805103003978729248046875">
        <ele>1448.5999755859375</ele>
        <time>2026-09-03T06:30:30.000Z</time>
        <extensions>
          <ns3:TrackPointExtension>
            <ns3:hr>138</ns3:hr>
            <ns3:cad>0</ns3:cad>
          </ns3:TrackPointExtension>
        </extensions>
      </trkpt>
      <trkpt lat="44.70777693204581737518310546875" lon="6.7493637464940547943115234375">
        <ele>1448.800048828125</ele>
        <time>2026-09-03T06:30:31.000Z</time>
        <extensions>
          <ns3:TrackPointExtension>
            <ns3:hr>139</ns3:hr>
            <ns3:cad>0</ns3:cad>
          </ns3:TrackPointExtension>
        </extensions>
      </trkpt>
      <trkpt lat="44.707777015864849090576171875" lon="6.749349497258663177490234375">
        <ele>1449</ele>
        <time>2026-09-03T06:30:32.000Z</time>
        <extensions>
          <ns3:TrackPointExtension>
            <ns3:hr>139</ns3:hr>
            <ns3:cad>0</ns3:cad>
          </ns3:TrackPointExtension>
        </extensions>
      </trkpt>
      <trkpt lat="44.70777542330324649810791015625" lon="6.74933784641325473785400390625">
        <ele>1449.199951171875</ele>
        <time>2026-09-03T06:30:33.000Z</time>
        <extensions>
          <ns3:TrackPointExtension>
            <ns3:hr>140</ns3:hr>
            <ns3:cad>0</ns3:cad>
          </ns3:TrackPointExtension>
        </extensions>
      </trkpt>
      <trkpt lat="44.70777173526585102081298828125" lon="6.74932527355849742889404296875">
        <ele>1449.4000244140625</ele>
        <time>2026-09-03T06:30:34.000Z</time>
        <extensions>
          <ns3:TrackPointExtension>
            <ns3:hr>140</ns3:hr>
            <ns3:cad>0</ns3:cad>
          </ns3:TrackPointExtension>
        </extensions>
      </trkpt>
      <trkpt lat="44.70776838250458240509033203125" lon="6.74931789748370647430419921875">
        <ele>1449.5999755859375</ele>
        <time>2026-09-03T06:30:35.000Z</time>
        <extensions>
          <ns3:TrackPointExtension>
            <ns3:hr>140</ns3:hr>
            <ns3:cad>0</ns3:cad>
          </ns3:TrackPointExtension>
        </extensions>
      </trkpt>
      <trkpt lat="44.707762263715267181396484375" lon="6.74931429326534271240234375">
        <ele>1449.800048828125</ele>
        <time>2026-09-03T06:30:36.000Z</time>
        <extensions>
          <ns3:TrackPointExtension>
            <ns3:hr>140</ns3:hr>
            <ns3:cad>0</ns3:cad>
          </ns3:TrackPointExtension>
        </extensions>
      </trkpt>
      <trkpt lat="44.7077563963830471038818359375" lon="6.749316640198230743408203125">
        <ele>1449.800048828125</ele>
        <time>2026-09-03T06:30:37.000Z</time>
        <extensions>
          <ns3:TrackPointExtension>
            <ns3:hr>141</ns3:hr>
            <ns3:cad>0</ns3:cad>
          </ns3:TrackPointExtension>
        </extensions>
      </trkpt>
      <trkpt lat="44.7077506966888904571533203125" lon="6.749315299093723297119140625">
        <ele>1450.199951171875</ele>
        <time>2026-09-03T06:30:38.000Z</time>
        <extensions>
          <ns3:TrackPointExtension>
            <ns3:hr>140</ns3:hr>
            <ns3:cad>0</ns3:cad>
          </ns3:TrackPointExtension>
        </extensions>
      </trkpt>
      <trkpt lat="44.7077398002147674560546875" lon="6.74930951558053493499755859375">
        <ele>1450.199951171875</ele>
        <time>2026-09-03T06:30:39.000Z</time>
        <extensions>
          <ns3:TrackPointExtension>
            <ns3:hr>141</ns3:hr>
            <ns3:cad>0</ns3:cad>
          </ns3:TrackPointExtension>
        </extensions>
      </trkpt>
      <trkpt lat="44.70773049630224704742431640625" lon="6.7493013851344585418701171875">
        <ele>1450.5999755859375</ele>
        <time>2026-09-03T06:30:40.000Z</time>
        <extensions>
          <ns3:TrackPointExtension>
            <ns3:hr>141</ns3:hr>
            <ns3:cad>0</ns3:cad>
          </ns3:TrackPointExtension>
        </extensions>
      </trkpt>
      <trkpt lat="44.70772379077970981597900390625" lon="6.749292500317096710205078125">
        <ele>1450.800048828125</ele>
        <time>2026-09-03T06:30:41.000Z</time>
        <extensions>
          <ns3:TrackPointExtension>
            <ns3:hr>142</ns3:hr>
            <ns3:cad>0</ns3:cad>
          </ns3:TrackPointExtension>
        </extensions>
      </trkpt>
      <trkpt lat="44.70772043801844120025634765625" lon="6.74928286112844944000244140625">
        <ele>1451</ele>
        <time>2026-09-03T06:30:42.000Z</time>
        <extensions>
          <ns3:TrackPointExtension>
            <ns3:hr>142</ns3:hr>
            <ns3:cad>0</ns3:cad>
          </ns3:TrackPointExtension>
        </extensions>
      </trkpt>
      <trkpt lat="44.7077185101807117462158203125" lon="6.74927095882594585418701171875">
        <ele>1451.199951171875</ele>
        <time>2026-09-03T06:30:43.000Z</time>
        <extensions>
          <ns3:TrackPointExtension>
            <ns3:hr>142</ns3:hr>
            <ns3:cad>0</ns3:cad>
          </ns3:TrackPointExtension>
        </extensions>
      </trkpt>
      <trkpt lat="44.70771943219006061553955078125" lon="6.7492668516933917999267578125">
        <ele>1451.4000244140625</ele>
        <time>2026-09-03T06:30:44.000Z</time>
        <extensions>
          <ns3:TrackPointExtension>
            <ns3:hr>142</ns3:hr>
            <ns3:cad>0</ns3:cad>
          </ns3:TrackPointExtension>
        </extensions>
      </trkpt>
      <trkpt lat="44.70772529952228069305419921875" lon="6.7492599785327911376953125">
        <ele>1451.5999755859375</ele>
        <time>2026-09-03T06:30:45.000Z</time>
        <extensions>
          <ns3:TrackPointExtension>
            <ns3:hr>142</ns3:hr>
            <ns3:cad>0</ns3:cad>
          </ns3:TrackPointExtension>
        </extensions>
      </trkpt>
      <trkpt lat="44.70772974193096160888671875" lon="6.7492537759244441986083984375">
        <ele>1451.800048828125</ele>
        <time>2026-09-03T06:30:46.000Z</time>
        <extensions>
          <ns3:TrackPointExtension>
            <ns3:hr>143</ns3:hr>
            <ns3:cad>0</ns3:cad>
          </ns3:TrackPointExtension>
        </extensions>
      </trkpt>
      <trkpt lat="44.7077342681586742401123046875" lon="6.74924723803997039794921875">
        <ele>1452</ele>
        <time>2026-09-03T06:30:47.000Z</time>
        <extensions>
          <ns3:TrackPointExtension>
            <ns3:hr>142</ns3:hr>
            <ns3:cad>0</ns3:cad>
          </ns3:TrackPointExtension>
        </extensions>
      </trkpt>
      <trkpt lat="44.707738794386386871337890625" lon="6.74923977814614772796630859375">
        <ele>1452.199951171875</ele>
        <time>2026-09-03T06:30:48.000Z</time>
        <extensions>
          <ns3:TrackPointExtension>
            <ns3:hr>142</ns3:hr>
            <ns3:cad>0</ns3:cad>
          </ns3:TrackPointExtension>
        </extensions>
      </trkpt>
      <trkpt lat="44.70774156041443347930908203125" lon="6.74922712147235870361328125">
        <ele>1452.4000244140625</ele>
        <time>2026-09-03T06:30:49.000Z</time>
        <extensions>
          <ns3:TrackPointExtension>
            <ns3:hr>141</ns3:hr>
            <ns3:cad>0</ns3:cad>
          </ns3:TrackPointExtension>
        </extensions>
      </trkpt>
      <trkpt lat="44.70774424262344837188720703125" lon="6.7492212541401386260986328125">
        <ele>1452.5999755859375</ele>
        <time>2026-09-03T06:30:50.000Z</time>
        <extensions>
          <ns3:TrackPointExtension>
            <ns3:hr>141</ns3:hr>
            <ns3:cad>51</ns3:cad>
          </ns3:TrackPointExtension>
        </extensions>
      </trkpt>
      <trkpt lat="44.7077490203082561492919921875" lon="6.749208010733127593994140625">
        <ele>1453</ele>
        <time>2026-09-03T06:30:51.000Z</time>
        <extensions>
          <ns3:TrackPointExtension>
            <ns3:hr>141</ns3:hr>
            <ns3:cad>54</ns3:cad>
          </ns3:TrackPointExtension>
        </extensions>
      </trkpt>
      <trkpt lat="44.70775329507887363433837890625" lon="6.74919770099222660064697265625">
        <ele>1453.199951171875</ele>
        <time>2026-09-03T06:30:52.000Z</time>
        <extensions>
          <ns3:TrackPointExtension>
            <ns3:hr>141</ns3:hr>
            <ns3:cad>54</ns3:cad>
          </ns3:TrackPointExtension>
        </extensions>
      </trkpt>
      <trkpt lat="44.70776000060141086578369140625" lon="6.74918688833713531494140625">
        <ele>1453.4000244140625</ele>
        <time>2026-09-03T06:30:53.000Z</time>
        <extensions>
          <ns3:TrackPointExtension>
            <ns3:hr>142</ns3:hr>
            <ns3:cad>54</ns3:cad>
          </ns3:TrackPointExtension>
        </extensions>
      </trkpt>
      <trkpt lat="44.70776461064815521240234375" lon="6.74917657859623432159423828125">
        <ele>1453.5999755859375</ele>
        <time>2026-09-03T06:30:54.000Z</time>
        <extensions>
          <ns3:TrackPointExtension>
            <ns3:hr>142</ns3:hr>
            <ns3:cad>48</ns3:cad>
          </ns3:TrackPointExtension>
        </extensions>
      </trkpt>
      <trkpt lat="44.70776720903813838958740234375" lon="6.74917222000658512115478515625">
        <ele>1453.800048828125</ele>
        <time>2026-09-03T06:30:55.000Z</time>
        <extensions>
          <ns3:TrackPointExtension>
            <ns3:hr>142</ns3:hr>
            <ns3:cad>48</ns3:cad>
          </ns3:TrackPointExtension>
        </extensions>
      </trkpt>
      <trkpt lat="44.7077708132565021514892578125" lon="6.74916333518922328948974609375">
        <ele>1454</ele>
        <time>2026-09-03T06:30:56.000Z</time>
        <extensions>
          <ns3:TrackPointExtension>
            <ns3:hr>142</ns3:hr>
            <ns3:cad>48</ns3:cad>
          </ns3:TrackPointExtension>
        </extensions>
      </trkpt>
      <trkpt lat="44.70777441747486591339111328125" lon="6.749159060418605804443359375">
        <ele>1454.199951171875</ele>
        <time>2026-09-03T06:30:57.000Z</time>
        <extensions>
          <ns3:TrackPointExtension>
            <ns3:hr>143</ns3:hr>
            <ns3:cad>48</ns3:cad>
          </ns3:TrackPointExtension>
        </extensions>
      </trkpt>
      <trkpt lat="44.7077798657119274139404296875" lon="6.749151013791561126708984375">
        <ele>1454.199951171875</ele>
        <time>2026-09-03T06:30:58.000Z</time>
        <extensions>
          <ns3:TrackPointExtension>
            <ns3:hr>143</ns3:hr>
            <ns3:cad>48</ns3:cad>
          </ns3:TrackPointExtension>
        </extensions>
      </trkpt>
      <trkpt lat="44.70778263173997402191162109375" lon="6.74914187751710414886474609375">
        <ele>1454.4000244140625</ele>
        <time>2026-09-03T06:30:59.000Z</time>
        <extensions>
          <ns3:TrackPointExtension>
            <ns3:hr>143</ns3:hr>
            <ns3:cad>48</ns3:cad>
          </ns3:TrackPointExtension>
        </extensions>
      </trkpt>
      <trkpt lat="44.707787744700908660888671875" lon="6.7491317354142665863037109375">
        <ele>1454.5999755859375</ele>
        <time>2026-09-03T06:31:00.000Z</time>
        <extensions>
          <ns3:TrackPointExtension>
            <ns3:hr>143</ns3:hr>
            <ns3:cad>48</ns3:cad>
          </ns3:TrackPointExtension>
        </extensions>
      </trkpt>
      <trkpt lat="44.70779084600508213043212890625" lon="6.749121844768524169921875">
        <ele>1454.800048828125</ele>
        <time>2026-09-03T06:31:01.000Z</time>
        <extensions>
          <ns3:TrackPointExtension>
            <ns3:hr>143</ns3:hr>
            <ns3:cad>78</ns3:cad>
          </ns3:TrackPointExtension>
        </extensions>
      </trkpt>
      <trkpt lat="44.7077949531376361846923828125" lon="6.749116145074367523193359375">
        <ele>1455</ele>
        <time>2026-09-03T06:31:02.000Z</time>
        <extensions>
          <ns3:TrackPointExtension>
            <ns3:hr>144</ns3:hr>
            <ns3:cad>78</ns3:cad>
          </ns3:TrackPointExtension>
        </extensions>
      </trkpt>
      <trkpt lat="44.707800485193729400634765625" lon="6.7491089366376399993896484375">
        <ele>1455.199951171875</ele>
        <time>2026-09-03T06:31:03.000Z</time>
        <extensions>
          <ns3:TrackPointExtension>
            <ns3:hr>144</ns3:hr>
            <ns3:cad>78</ns3:cad>
          </ns3:TrackPointExtension>
        </extensions>
      </trkpt>
      <trkpt lat="44.707802832126617431640625" lon="6.749103069305419921875">
        <ele>1455.4000244140625</ele>
        <time>2026-09-03T06:31:04.000Z</time>
        <extensions>
          <ns3:TrackPointExtension>
            <ns3:hr>143</ns3:hr>
            <ns3:cad>78</ns3:cad>
          </ns3:TrackPointExtension>
        </extensions>
      </trkpt>
      <trkpt lat="44.70780911855399608612060546875" lon="6.749094687402248382568359375">
        <ele>1455.5999755859375</ele>
        <time>2026-09-03T06:31:05.000Z</time>
        <extensions>
          <ns3:TrackPointExtension>
            <ns3:hr>143</ns3:hr>
            <ns3:cad>78</ns3:cad>
          </ns3:TrackPointExtension>
        </extensions>
      </trkpt>
      <trkpt lat="44.707813896238803863525390625" lon="6.74908571876585483551025390625">
        <ele>1455.800048828125</ele>
        <time>2026-09-03T06:31:06.000Z</time>
        <extensions>
          <ns3:TrackPointExtension>
            <ns3:hr>144</ns3:hr>
            <ns3:cad>78</ns3:cad>
          </ns3:TrackPointExtension>
        </extensions>
      </trkpt>
      <trkpt lat="44.70781934447586536407470703125" lon="6.74907113425433635711669921875">
        <ele>1456</ele>
        <time>2026-09-03T06:31:07.000Z</time>
        <extensions>
          <ns3:TrackPointExtension>
            <ns3:hr>144</ns3:hr>
            <ns3:cad>78</ns3:cad>
          </ns3:TrackPointExtension>
        </extensions>
      </trkpt>
      <trkpt lat="44.70782236196100711822509765625" lon="6.7490586452186107635498046875">
        <ele>1456.199951171875</ele>
        <time>2026-09-03T06:31:08.000Z</time>
        <extensions>
          <ns3:TrackPointExtension>
            <ns3:hr>145</ns3:hr>
            <ns3:cad>78</ns3:cad>
          </ns3:TrackPointExtension>
        </extensions>
      </trkpt>
      <trkpt lat="44.7078221105039119720458984375" lon="6.749047748744487762451171875">
        <ele>1456.4000244140625</ele>
        <time>2026-09-03T06:31:09.000Z</time>
        <extensions>
          <ns3:TrackPointExtension>
            <ns3:hr>145</ns3:hr>
            <ns3:cad>0</ns3:cad>
          </ns3:TrackPointExtension>
        </extensions>
      </trkpt>
      <trkpt lat="44.70781649462878704071044921875" lon="6.74904095940291881561279296875">
        <ele>1456.5999755859375</ele>
        <time>2026-09-03T06:31:10.000Z</time>
        <extensions>
          <ns3:TrackPointExtension>
            <ns3:hr>145</ns3:hr>
            <ns3:cad>0</ns3:cad>
          </ns3:TrackPointExtension>
        </extensions>
      </trkpt>
      <trkpt lat="44.7078147344291210174560546875" lon="6.7490381933748722076416015625">
        <ele>1456.800048828125</ele>
        <time>2026-09-03T06:31:11.000Z</time>
        <extensions>
          <ns3:TrackPointExtension>
            <ns3:hr>146</ns3:hr>
            <ns3:cad>0</ns3:cad>
          </ns3:TrackPointExtension>
        </extensions>
      </trkpt>
      <trkpt lat="44.7078149020671844482421875" lon="6.74903802573680877685546875">
        <ele>1457</ele>
        <time>2026-09-03T06:31:12.000Z</time>
        <extensions>
          <ns3:TrackPointExtension>
            <ns3:hr>146</ns3:hr>
            <ns3:cad>0</ns3:cad>
          </ns3:TrackPointExtension>
        </extensions>
      </trkpt>
      <trkpt lat="44.70781029202044010162353515625" lon="6.7490271292626857757568359375">
        <ele>1457.199951171875</ele>
        <time>2026-09-03T06:31:13.000Z</time>
        <extensions>
          <ns3:TrackPointExtension>
            <ns3:hr>146</ns3:hr>
            <ns3:cad>0</ns3:cad>
          </ns3:TrackPointExtension>
        </extensions>
      </trkpt>
      <trkpt lat="44.7078056819736957550048828125" lon="6.7490177415311336517333984375">
        <ele>1457.4000244140625</ele>
        <time>2026-09-03T06:31:14.000Z</time>
        <extensions>
          <ns3:TrackPointExtension>
            <ns3:hr>146</ns3:hr>
            <ns3:cad>0</ns3:cad>
          </ns3:TrackPointExtension>
        </extensions>
      </trkpt>
      <trkpt lat="44.70780090428888797760009765625" lon="6.7490073479712009429931640625">
        <ele>1457.5999755859375</ele>
        <time>2026-09-03T06:31:15.000Z</time>
        <extensions>
          <ns3:TrackPointExtension>
            <ns3:hr>146</ns3:hr>
            <ns3:cad>0</ns3:cad>
          </ns3:TrackPointExtension>
        </extensions>
      </trkpt>
      <trkpt lat="44.70779486931860446929931640625" lon="6.74899871461093425750732421875">
        <ele>1457.800048828125</ele>
        <time>2026-09-03T06:31:16.000Z</time>
        <extensions>
          <ns3:TrackPointExtension>
            <ns3:hr>146</ns3:hr>
            <ns3:cad>0</ns3:cad>
          </ns3:TrackPointExtension>
        </extensions>
      </trkpt>
      <trkpt lat="44.707792438566684722900390625" lon="6.7489999718964099884033203125">
        <ele>1458</ele>
        <time>2026-09-03T06:31:17.000Z</time>
        <extensions>
          <ns3:TrackPointExtension>
            <ns3:hr>146</ns3:hr>
            <ns3:cad>0</ns3:cad>
          </ns3:TrackPointExtension>
        </extensions>
      </trkpt>
      <trkpt lat="44.7077838890254497528076171875" lon="6.74899284727871417999267578125">
        <ele>1458.199951171875</ele>
        <time>2026-09-03T06:31:18.000Z</time>
        <extensions>
          <ns3:TrackPointExtension>
            <ns3:hr>147</ns3:hr>
            <ns3:cad>0</ns3:cad>
          </ns3:TrackPointExtension>
        </extensions>
      </trkpt>
      <trkpt lat="44.70777860842645168304443359375" lon="6.74899100326001644134521484375">
        <ele>1458.4000244140625</ele>
        <time>2026-09-03T06:31:19.000Z</time>
        <extensions>
          <ns3:TrackPointExtension>
            <ns3:hr>146</ns3:hr>
            <ns3:cad>47</ns3:cad>
          </ns3:TrackPointExtension>
        </extensions>
      </trkpt>
      <trkpt lat="44.70777005888521671295166015625" lon="6.7489845491945743560791015625">
        <ele>1458.4000244140625</ele>
        <time>2026-09-03T06:31:20.000Z</time>
        <extensions>
          <ns3:TrackPointExtension>
            <ns3:hr>146</ns3:hr>
            <ns3:cad>47</ns3:cad>
          </ns3:TrackPointExtension>
        </extensions>
      </trkpt>
      <trkpt lat="44.70776268281042575836181640625" lon="6.7489798553287982940673828125">
        <ele>1458.5999755859375</ele>
        <time>2026-09-03T06:31:21.000Z</time>
        <extensions>
          <ns3:TrackPointExtension>
            <ns3:hr>146</ns3:hr>
            <ns3:cad>47</ns3:cad>
          </ns3:TrackPointExtension>
        </extensions>
      </trkpt>
      <trkpt lat="44.7077580727636814117431640625" lon="6.7489771731197834014892578125">
        <ele>1458.800048828125</ele>
        <time>2026-09-03T06:31:22.000Z</time>
        <extensions>
          <ns3:TrackPointExtension>
            <ns3:hr>145</ns3:hr>
            <ns3:cad>0</ns3:cad>
          </ns3:TrackPointExtension>
        </extensions>
      </trkpt>
      <trkpt lat="44.7077478468418121337890625" lon="6.74897591583430767059326171875">
        <ele>1459</ele>
        <time>2026-09-03T06:31:23.000Z</time>
        <extensions>
          <ns3:TrackPointExtension>
            <ns3:hr>145</ns3:hr>
            <ns3:cad>0</ns3:cad>
          </ns3:TrackPointExtension>
        </extensions>
      </trkpt>
      <trkpt lat="44.70773871056735515594482421875" lon="6.7489756643772125244140625">
        <ele>1459.199951171875</ele>
        <time>2026-09-03T06:31:24.000Z</time>
        <extensions>
          <ns3:TrackPointExtension>
            <ns3:hr>145</ns3:hr>
            <ns3:cad>0</ns3:cad>
          </ns3:TrackPointExtension>
        </extensions>
      </trkpt>
      <trkpt lat="44.70772747881710529327392578125" lon="6.74897390417754650115966796875">
        <ele>1459.4000244140625</ele>
        <time>2026-09-03T06:31:25.000Z</time>
        <extensions>
          <ns3:TrackPointExtension>
            <ns3:hr>145</ns3:hr>
            <ns3:cad>0</ns3:cad>
          </ns3:TrackPointExtension>
        </extensions>
      </trkpt>
      <trkpt lat="44.7077191807329654693603515625" lon="6.74897474236786365509033203125">
        <ele>1459.4000244140625</ele>
        <time>2026-09-03T06:31:26.000Z</time>
        <extensions>
          <ns3:TrackPointExtension>
            <ns3:hr>144</ns3:hr>
            <ns3:cad>0</ns3:cad>
          </ns3:TrackPointExtension>
        </extensions>
      </trkpt>
      <trkpt lat="44.70771306194365024566650390625" lon="6.7489738203585147857666015625">
        <ele>1459.5999755859375</ele>
        <time>2026-09-03T06:31:27.000Z</time>
        <extensions>
          <ns3:TrackPointExtension>
            <ns3:hr>144</ns3:hr>
            <ns3:cad>0</ns3:cad>
          </ns3:TrackPointExtension>
        </extensions>
      </trkpt>
      <trkpt lat="44.70770266838371753692626953125" lon="6.74897356890141963958740234375">
        <ele>1459.800048828125</ele>
        <time>2026-09-03T06:31:28.000Z</time>
        <extensions>
          <ns3:TrackPointExtension>
            <ns3:hr>143</ns3:hr>
            <ns3:cad>0</ns3:cad>
          </ns3:TrackPointExtension>
        </extensions>
      </trkpt>
      <trkpt lat="44.70770183019340038299560546875" lon="6.748970635235309600830078125">
        <ele>1460</ele>
        <time>2026-09-03T06:31:29.000Z</time>
        <extensions>
          <ns3:TrackPointExtension>
            <ns3:hr>143</ns3:hr>
            <ns3:cad>0</ns3:cad>
          </ns3:TrackPointExtension>
        </extensions>
      </trkpt>
      <trkpt lat="44.70769311301410198211669921875" lon="6.74897088669240474700927734375">
        <ele>1460.199951171875</ele>
        <time>2026-09-03T06:31:30.000Z</time>
        <extensions>
          <ns3:TrackPointExtension>
            <ns3:hr>143</ns3:hr>
            <ns3:cad>0</ns3:cad>
          </ns3:TrackPointExtension>
        </extensions>
      </trkpt>
      <trkpt lat="44.707687832415103912353515625" lon="6.7489697970449924468994140625">
        <ele>1460.199951171875</ele>
        <time>2026-09-03T06:31:31.000Z</time>
        <extensions>
          <ns3:TrackPointExtension>
            <ns3:hr>142</ns3:hr>
            <ns3:cad>0</ns3:cad>
          </ns3:TrackPointExtension>
        </extensions>
      </trkpt>
      <trkpt lat="44.70768623985350131988525390625" lon="6.7489714734256267547607421875">
        <ele>1460.4000244140625</ele>
        <time>2026-09-03T06:31:32.000Z</time>
        <extensions>
          <ns3:TrackPointExtension>
            <ns3:hr>141</ns3:hr>
            <ns3:cad>0</ns3:cad>
          </ns3:TrackPointExtension>
        </extensions>
      </trkpt>
      <trkpt lat="44.7076863236725330352783203125" lon="6.74897105433046817779541015625">
        <ele>1460.5999755859375</ele>
        <time>2026-09-03T06:31:33.000Z</time>
        <extensions>
          <ns3:TrackPointExtension>
            <ns3:hr>141</ns3:hr>
            <ns3:cad>0</ns3:cad>
          </ns3:TrackPointExtension>
        </extensions>
      </trkpt>
      <trkpt lat="44.7076863236725330352783203125" lon="6.74897105433046817779541015625">
        <ele>1460.800048828125</ele>
        <time>2026-09-03T06:31:34.000Z</time>
        <extensions>
          <ns3:TrackPointExtension>
            <ns3:hr>141</ns3:hr>
            <ns3:cad>0</ns3:cad>
          </ns3:TrackPointExtension>
        </extensions>
      </trkpt>
      <trkpt lat="44.7076861560344696044921875" lon="6.74897088669240474700927734375">
        <ele>1460.800048828125</ele>
        <time>2026-09-03T06:31:35.000Z</time>
        <extensions>
          <ns3:TrackPointExtension>
            <ns3:hr>140</ns3:hr>
            <ns3:cad>0</ns3:cad>
          </ns3:TrackPointExtension>
        </extensions>
      </trkpt>
      <trkpt lat="44.707678444683551788330078125" lon="6.74896971322596073150634765625">
        <ele>1461</ele>
        <time>2026-09-03T06:31:36.000Z</time>
        <extensions>
          <ns3:TrackPointExtension>
            <ns3:hr>140</ns3:hr>
            <ns3:cad>0</ns3:cad>
          </ns3:TrackPointExtension>
        </extensions>
      </trkpt>
      <trkpt lat="44.70767232589423656463623046875" lon="6.7489728145301342010498046875">
        <ele>1461</ele>
        <time>2026-09-03T06:31:37.000Z</time>
        <extensions>
          <ns3:TrackPointExtension>
            <ns3:hr>139</ns3:hr>
            <ns3:cad>0</ns3:cad>
          </ns3:TrackPointExtension>
        </extensions>
      </trkpt>
      <trkpt lat="44.70766595564782619476318359375" lon="6.7489765025675296783447265625">
        <ele>1461</ele>
        <time>2026-09-03T06:31:38.000Z</time>
        <extensions>
          <ns3:TrackPointExtension>
            <ns3:hr>139</ns3:hr>
            <ns3:cad>0</ns3:cad>
          </ns3:TrackPointExtension>
        </extensions>
      </trkpt>
      <trkpt lat="44.70766000449657440185546875" lon="6.7489785142242908477783203125">
        <ele>1461.199951171875</ele>
        <time>2026-09-03T06:31:39.000Z</time>
        <extensions>
          <ns3:TrackPointExtension>
            <ns3:hr>139</ns3:hr>
            <ns3:cad>0</ns3:cad>
          </ns3:TrackPointExtension>
        </extensions>
      </trkpt>
      <trkpt lat="44.7076539695262908935546875" lon="6.748976670205593109130859375">
        <ele>1461.4000244140625</ele>
        <time>2026-09-03T06:31:40.000Z</time>
        <extensions>
          <ns3:TrackPointExtension>
            <ns3:hr>139</ns3:hr>
            <ns3:cad>0</ns3:cad>
          </ns3:TrackPointExtension>
        </extensions>
      </trkpt>
      <trkpt lat="44.70764852128922939300537109375" lon="6.7489775083959102630615234375">
        <ele>1461.5999755859375</ele>
        <time>2026-09-03T06:31:41.000Z</time>
        <extensions>
          <ns3:TrackPointExtension>
            <ns3:hr>140</ns3:hr>
            <ns3:cad>47</ns3:cad>
          </ns3:TrackPointExtension>
        </extensions>
      </trkpt>
      <trkpt lat="44.70764265395700931549072265625" lon="6.74897893331944942474365234375">
        <ele>1461.800048828125</ele>
        <time>2026-09-03T06:31:42.000Z</time>
        <extensions>
          <ns3:TrackPointExtension>
            <ns3:hr>141</ns3:hr>
            <ns3:cad>48</ns3:cad>
          </ns3:TrackPointExtension>
        </extensions>
      </trkpt>
      <trkpt lat="44.7076363675296306610107421875" lon="6.748979352414608001708984375">
        <ele>1462</ele>
        <time>2026-09-03T06:31:43.000Z</time>
        <extensions>
          <ns3:TrackPointExtension>
            <ns3:hr>142</ns3:hr>
            <ns3:cad>48</ns3:cad>
          </ns3:TrackPointExtension>
        </extensions>
      </trkpt>
      <trkpt lat="44.70763091929256916046142578125" lon="6.74897826276719570159912109375">
        <ele>1462.199951171875</ele>
        <time>2026-09-03T06:31:44.000Z</time>
        <extensions>
          <ns3:TrackPointExtension>
            <ns3:hr>142</ns3:hr>
            <ns3:cad>49</ns3:cad>
          </ns3:TrackPointExtension>
        </extensions>
      </trkpt>
      <trkpt lat="44.70762488432228565216064453125" lon="6.748977340757846832275390625">
        <ele>1462.199951171875</ele>
        <time>2026-09-03T06:31:45.000Z</time>
        <extensions>
          <ns3:TrackPointExtension>
            <ns3:hr>142</ns3:hr>
            <ns3:cad>49</ns3:cad>
          </ns3:TrackPointExtension>
        </extensions>
      </trkpt>
      <trkpt lat="44.70761985518038272857666015625" lon="6.7489785142242908477783203125">
        <ele>1462.4000244140625</ele>
        <time>2026-09-03T06:31:46.000Z</time>
        <extensions>
          <ns3:TrackPointExtension>
            <ns3:hr>142</ns3:hr>
            <ns3:cad>49</ns3:cad>
          </ns3:TrackPointExtension>
        </extensions>
      </trkpt>
      <trkpt lat="44.70761432312428951263427734375" lon="6.74898144789040088653564453125">
        <ele>1462.5999755859375</ele>
        <time>2026-09-03T06:31:47.000Z</time>
        <extensions>
          <ns3:TrackPointExtension>
            <ns3:hr>143</ns3:hr>
            <ns3:cad>49</ns3:cad>
          </ns3:TrackPointExtension>
        </extensions>
      </trkpt>
      <trkpt lat="44.7076098807156085968017578125" lon="6.74898580648005008697509765625">
        <ele>1462.800048828125</ele>
        <time>2026-09-03T06:31:48.000Z</time>
        <extensions>
          <ns3:TrackPointExtension>
            <ns3:hr>143</ns3:hr>
            <ns3:cad>47</ns3:cad>
          </ns3:TrackPointExtension>
        </extensions>
      </trkpt>
      <trkpt lat="44.7076028399169445037841796875" lon="6.74899267964065074920654296875">
        <ele>1463</ele>
        <time>2026-09-03T06:31:49.000Z</time>
        <extensions>
          <ns3:TrackPointExtension>
            <ns3:hr>143</ns3:hr>
            <ns3:cad>0</ns3:cad>
          </ns3:TrackPointExtension>
        </extensions>
      </trkpt>
      <trkpt lat="44.707598648965358734130859375" lon="6.748994104564189910888671875">
        <ele>1463.199951171875</ele>
        <time>2026-09-03T06:31:50.000Z</time>
        <extensions>
          <ns3:TrackPointExtension>
            <ns3:hr>143</ns3:hr>
            <ns3:cad>0</ns3:cad>
          </ns3:TrackPointExtension>
        </extensions>
      </trkpt>
      <trkpt lat="44.7075904347002506256103515625" lon="6.7489979602396488189697265625">
        <ele>1463.4000244140625</ele>
        <time>2026-09-03T06:31:51.000Z</time>
        <extensions>
          <ns3:TrackPointExtension>
            <ns3:hr>144</ns3:hr>
            <ns3:cad>0</ns3:cad>
          </ns3:TrackPointExtension>
        </extensions>
      </trkpt>
      <trkpt lat="44.70758381299674510955810546875" lon="6.74900139681994915008544921875">
        <ele>1463.4000244140625</ele>
        <time>2026-09-03T06:31:52.000Z</time>
        <extensions>
          <ns3:TrackPointExtension>
            <ns3:hr>144</ns3:hr>
            <ns3:cad>0</ns3:cad>
          </ns3:TrackPointExtension>
        </extensions>
      </trkpt>
      <trkpt lat="44.70757124014198780059814453125" lon="6.74900458194315433502197265625">
        <ele>1463.5999755859375</ele>
        <time>2026-09-03T06:31:53.000Z</time>
        <extensions>
          <ns3:TrackPointExtension>
            <ns3:hr>144</ns3:hr>
            <ns3:cad>0</ns3:cad>
          </ns3:TrackPointExtension>
        </extensions>
      </trkpt>
      <trkpt lat="44.7075639478862285614013671875" lon="6.749004162847995758056640625">
        <ele>1463.800048828125</ele>
        <time>2026-09-03T06:31:54.000Z</time>
        <extensions>
          <ns3:TrackPointExtension>
            <ns3:hr>144</ns3:hr>
            <ns3:cad>0</ns3:cad>
          </ns3:TrackPointExtension>
        </extensions>
      </trkpt>
      <trkpt lat="44.7075545601546764373779296875" lon="6.74900324083864688873291015625">
        <ele>1464</ele>
        <time>2026-09-03T06:31:55.000Z</time>
        <extensions>
          <ns3:TrackPointExtension>
            <ns3:hr>144</ns3:hr>
            <ns3:cad>0</ns3:cad>
          </ns3:TrackPointExtension>
        </extensions>
      </trkpt>
      <trkpt lat="44.70754626207053661346435546875" lon="6.749009527266025543212890625">
        <ele>1464.199951171875</ele>
        <time>2026-09-03T06:31:56.000Z</time>
        <extensions>
          <ns3:TrackPointExtension>
            <ns3:hr>144</ns3:hr>
            <ns3:cad>0</ns3:cad>
          </ns3:TrackPointExtension>
        </extensions>
      </trkpt>
      <trkpt lat="44.7075438313186168670654296875" lon="6.74901254475116729736328125">
        <ele>1464.4000244140625</ele>
        <time>2026-09-03T06:31:57.000Z</time>
        <extensions>
          <ns3:TrackPointExtension>
            <ns3:hr>144</ns3:hr>
            <ns3:cad>0</ns3:cad>
          </ns3:TrackPointExtension>
        </extensions>
      </trkpt>
      <trkpt lat="44.70753435976803302764892578125" lon="6.74901698715984821319580078125">
        <ele>1464.4000244140625</ele>
        <time>2026-09-03T06:31:58.000Z</time>
        <extensions>
          <ns3:TrackPointExtension>
            <ns3:hr>144</ns3:hr>
            <ns3:cad>0</ns3:cad>
          </ns3:TrackPointExtension>
        </extensions>
      </trkpt>
      <trkpt lat="44.70752782188355922698974609375" lon="6.74901790916919708251953125">
        <ele>1464.5999755859375</ele>
        <time>2026-09-03T06:31:59.000Z</time>
        <extensions>
          <ns3:TrackPointExtension>
            <ns3:hr>144</ns3:hr>
            <ns3:cad>0</ns3:cad>
          </ns3:TrackPointExtension>
        </extensions>
      </trkpt>
      <trkpt lat="44.70751441083848476409912109375" lon="6.749018244445323944091796875">
        <ele>1464.800048828125</ele>
        <time>2026-09-03T06:32:00.000Z</time>
        <extensions>
          <ns3:TrackPointExtension>
            <ns3:hr>144</ns3:hr>
            <ns3:cad>0</ns3:cad>
          </ns3:TrackPointExtension>
        </extensions>
      </trkpt>
      <trkpt lat="44.70751139335334300994873046875" lon="6.74900927580893039703369140625">
        <ele>1465</ele>
        <time>2026-09-03T06:32:01.000Z</time>
        <extensions>
          <ns3:TrackPointExtension>
            <ns3:hr>145</ns3:hr>
            <ns3:cad>0</ns3:cad>
          </ns3:TrackPointExtension>
        </extensions>
      </trkpt>
      <trkpt lat="44.70751357264816761016845703125" lon="6.7490096949040889739990234375">
        <ele>1465</ele>
        <time>2026-09-03T06:32:02.000Z</time>
        <extensions>
          <ns3:TrackPointExtension>
            <ns3:hr>144</ns3:hr>
            <ns3:cad>0</ns3:cad>
          </ns3:TrackPointExtension>
        </extensions>
      </trkpt>
      <trkpt lat="44.70751357264816761016845703125" lon="6.74900994636118412017822265625">
        <ele>1465.199951171875</ele>
        <time>2026-09-03T06:32:03.000Z</time>
        <extensions>
          <ns3:TrackPointExtension>
            <ns3:hr>144</ns3:hr>
            <ns3:cad>0</ns3:cad>
          </ns3:TrackPointExtension>
        </extensions>
      </trkpt>
      <trkpt lat="44.70751357264816761016845703125" lon="6.74900994636118412017822265625">
        <ele>1465.199951171875</ele>
        <time>2026-09-03T06:32:04.000Z</time>
        <extensions>
          <ns3:TrackPointExtension>
            <ns3:hr>144</ns3:hr>
            <ns3:cad>0</ns3:cad>
          </ns3:TrackPointExtension>
        </extensions>
      </trkpt>
      <trkpt lat="44.70751357264816761016845703125" lon="6.7490100301802158355712890625">
        <ele>1465.199951171875</ele>
        <time>2026-09-03T06:32:05.000Z</time>
        <extensions>
          <ns3:TrackPointExtension>
            <ns3:hr>145</ns3:hr>
            <ns3:cad>0</ns3:cad>
          </ns3:TrackPointExtension>
        </extensions>
      </trkpt>
      <trkpt lat="44.7075089626014232635498046875" lon="6.74900877289474010467529296875">
        <ele>1465.199951171875</ele>
        <time>2026-09-03T06:32:06.000Z</time>
        <extensions>
          <ns3:TrackPointExtension>
            <ns3:hr>144</ns3:hr>
            <ns3:cad>0</ns3:cad>
          </ns3:TrackPointExtension>
        </extensions>
      </trkpt>
      <trkpt lat="44.7074997425079345703125" lon="6.74900324083864688873291015625">
        <ele>1465.4000244140625</ele>
        <time>2026-09-03T06:32:07.000Z</time>
        <extensions>
          <ns3:TrackPointExtension>
            <ns3:hr>144</ns3:hr>
            <ns3:cad>0</ns3:cad>
          </ns3:TrackPointExtension>
        </extensions>
      </trkpt>
      <trkpt lat="44.7074925340712070465087890625" lon="6.74899552948772907257080078125">
        <ele>1465.4000244140625</ele>
        <time>2026-09-03T06:32:08.000Z</time>
        <extensions>
          <ns3:TrackPointExtension>
            <ns3:hr>144</ns3:hr>
            <ns3:cad>0</ns3:cad>
          </ns3:TrackPointExtension>
        </extensions>
      </trkpt>
      <trkpt lat="44.707482643425464630126953125" lon="6.74899150617420673370361328125">
        <ele>1465.5999755859375</ele>
        <time>2026-09-03T06:32:09.000Z</time>
        <extensions>
          <ns3:TrackPointExtension>
            <ns3:hr>144</ns3:hr>
            <ns3:cad>0</ns3:cad>
          </ns3:TrackPointExtension>
        </extensions>
      </trkpt>
      <trkpt lat="44.70747300423681735992431640625" lon="6.74899368546903133392333984375">
        <ele>1465.800048828125</ele>
        <time>2026-09-03T06:32:10.000Z</time>
        <extensions>
          <ns3:TrackPointExtension>
            <ns3:hr>144</ns3:hr>
            <ns3:cad>0</ns3:cad>
          </ns3:TrackPointExtension>
        </extensions>
      </trkpt>
      <trkpt lat="44.70746152102947235107421875" lon="6.74899938516318798065185546875">
        <ele>1466</ele>
        <time>2026-09-03T06:32:11.000Z</time>
        <extensions>
          <ns3:TrackPointExtension>
            <ns3:hr>144</ns3:hr>
            <ns3:cad>0</ns3:cad>
          </ns3:TrackPointExtension>
        </extensions>
      </trkpt>
      <trkpt lat="44.7074526362121105194091796875" lon="6.7490026541054248809814453125">
        <ele>1466.199951171875</ele>
        <time>2026-09-03T06:32:12.000Z</time>
        <extensions>
          <ns3:TrackPointExtension>
            <ns3:hr>145</ns3:hr>
            <ns3:cad>0</ns3:cad>
          </ns3:TrackPointExtension>
        </extensions>
      </trkpt>
      <trkpt lat="44.7074499540030956268310546875" lon="6.74900324083864688873291015625">
        <ele>1466.4000244140625</ele>
        <time>2026-09-03T06:32:13.000Z</time>
        <extensions>
          <ns3:TrackPointExtension>
            <ns3:hr>145</ns3:hr>
            <ns3:cad>0</ns3:cad>
          </ns3:TrackPointExtension>
        </extensions>
      </trkpt>
      <trkpt lat="44.7074452601373195648193359375" lon="6.7490036599338054656982421875">
        <ele>1466.4000244140625</ele>
        <time>2026-09-03T06:32:14.000Z</time>
        <extensions>
          <ns3:TrackPointExtension>
            <ns3:hr>145</ns3:hr>
            <ns3:cad>0</ns3:cad>
          </ns3:TrackPointExtension>
        </extensions>
      </trkpt>
      <trkpt lat="44.70744417048990726470947265625" lon="6.74900315701961517333984375">
        <ele>1466.5999755859375</ele>
        <time>2026-09-03T06:32:15.000Z</time>
        <extensions>
          <ns3:TrackPointExtension>
            <ns3:hr>145</ns3:hr>
            <ns3:cad>0</ns3:cad>
          </ns3:TrackPointExtension>
        </extensions>
      </trkpt>
      <trkpt lat="44.707444421947002410888671875" lon="6.74900315701961517333984375">
        <ele>1466.5999755859375</ele>
        <time>2026-09-03T06:32:16.000Z</time>
        <extensions>
          <ns3:TrackPointExtension>
            <ns3:hr>145</ns3:hr>
            <ns3:cad>0</ns3:cad>
          </ns3:TrackPointExtension>
        </extensions>
      </trkpt>
      <trkpt lat="44.707444421947002410888671875" lon="6.74900315701961517333984375">
        <ele>1466.800048828125</ele>
        <time>2026-09-03T06:32:17.000Z</time>
        <extensions>
          <ns3:TrackPointExtension>
            <ns3:hr>145</ns3:hr>
            <ns3:cad>0</ns3:cad>
          </ns3:TrackPointExtension>
        </extensions>
      </trkpt>
      <trkpt lat="44.7074447572231292724609375" lon="6.74900324083864688873291015625">
        <ele>1466.800048828125</ele>
        <time>2026-09-03T06:32:18.000Z</time>
        <extensions>
          <ns3:TrackPointExtension>
            <ns3:hr>146</ns3:hr>
            <ns3:cad>0</ns3:cad>
          </ns3:TrackPointExtension>
        </extensions>
      </trkpt>
      <trkpt lat="44.70743930898606777191162109375" lon="6.7490100301802158355712890625">
        <ele>1466.800048828125</ele>
        <time>2026-09-03T06:32:19.000Z</time>
        <extensions>
          <ns3:TrackPointExtension>
            <ns3:hr>146</ns3:hr>
            <ns3:cad>0</ns3:cad>
          </ns3:TrackPointExtension>
        </extensions>
      </trkpt>
      <trkpt lat="44.70742858015000820159912109375" lon="6.74901514314115047454833984375">
        <ele>1466.800048828125</ele>
        <time>2026-09-03T06:32:20.000Z</time>
        <extensions>
          <ns3:TrackPointExtension>
            <ns3:hr>146</ns3:hr>
            <ns3:cad>0</ns3:cad>
          </ns3:TrackPointExtension>
        </extensions>
      </trkpt>
      <trkpt lat="44.70741852186620235443115234375" lon="6.7490212619304656982421875">
        <ele>1467</ele>
        <time>2026-09-03T06:32:21.000Z</time>
        <extensions>
          <ns3:TrackPointExtension>
            <ns3:hr>145</ns3:hr>
            <ns3:cad>0</ns3:cad>
          </ns3:TrackPointExtension>
        </extensions>
      </trkpt>
      <trkpt lat="44.7074124030768871307373046875" lon="6.7490214295685291290283203125">
        <ele>1467</ele>
        <time>2026-09-03T06:32:22.000Z</time>
        <extensions>
          <ns3:TrackPointExtension>
            <ns3:hr>145</ns3:hr>
            <ns3:cad>0</ns3:cad>
          </ns3:TrackPointExtension>
        </extensions>
      </trkpt>
      <trkpt lat="44.70740226097404956817626953125" lon="6.7490264587104320526123046875">
        <ele>1467.199951171875</ele>
        <time>2026-09-03T06:32:23.000Z</time>
        <extensions>
          <ns3:TrackPointExtension>
            <ns3:hr>145</ns3:hr>
            <ns3:cad>0</ns3:cad>
          </ns3:TrackPointExtension>
        </extensions>
      </trkpt>
      <trkpt lat="44.7073989920318126678466796875" lon="6.7490314878523349761962890625">
        <ele>1467.4000244140625</ele>
        <time>2026-09-03T06:32:24.000Z</time>
        <extensions>
          <ns3:TrackPointExtension>
            <ns3:hr>144</ns3:hr>
            <ns3:cad>0</ns3:cad>
          </ns3:TrackPointExtension>
        </extensions>
      </trkpt>
      <trkpt lat="44.707386083900928497314453125" lon="6.7490334995090961456298828125">
        <ele>1467.5999755859375</ele>
        <time>2026-09-03T06:32:25.000Z</time>
        <extensions>
          <ns3:TrackPointExtension>
            <ns3:hr>144</ns3:hr>
            <ns3:cad>0</ns3:cad>
          </ns3:TrackPointExtension>
        </extensions>
      </trkpt>
      <trkpt lat="44.707380719482898712158203125" lon="6.7490361817181110382080078125">
        <ele>1467.800048828125</ele>
        <time>2026-09-03T06:32:26.000Z</time>
        <extensions>
          <ns3:TrackPointExtension>
            <ns3:hr>142</ns3:hr>
            <ns3:cad>0</ns3:cad>
          </ns3:TrackPointExtension>
        </extensions>
      </trkpt>
      <trkpt lat="44.70736672170460224151611328125" lon="6.74903760664165019989013671875">
        <ele>1468</ele>
        <time>2026-09-03T06:32:27.000Z</time>
        <extensions>
          <ns3:TrackPointExtension>
            <ns3:hr>141</ns3:hr>
            <ns3:cad>0</ns3:cad>
          </ns3:TrackPointExtension>
        </extensions>
      </trkpt>
      <trkpt lat="44.70735557377338409423828125" lon="6.74904330633580684661865234375">
        <ele>1468.199951171875</ele>
        <time>2026-09-03T06:32:28.000Z</time>
        <extensions>
          <ns3:TrackPointExtension>
            <ns3:hr>139</ns3:hr>
            <ns3:cad>0</ns3:cad>
          </ns3:TrackPointExtension>
        </extensions>
      </trkpt>
      <trkpt lat="44.70734484493732452392578125" lon="6.7490479163825511932373046875">
        <ele>1468.4000244140625</ele>
        <time>2026-09-03T06:32:29.000Z</time>
        <extensions>
          <ns3:TrackPointExtension>
            <ns3:hr>138</ns3:hr>
            <ns3:cad>0</ns3:cad>
          </ns3:TrackPointExtension>
        </extensions>
      </trkpt>
      <trkpt lat="44.70733419992029666900634765625" lon="6.74905168823897838592529296875">
        <ele>1468.5999755859375</ele>
        <time>2026-09-03T06:32:30.000Z</time>
        <extensions>
          <ns3:TrackPointExtension>
            <ns3:hr>136</ns3:hr>
            <ns3:cad>0</ns3:cad>
          </ns3:TrackPointExtension>
        </extensions>
      </trkpt>
      <trkpt lat="44.70732581801712512969970703125" lon="6.74905277788639068603515625">
        <ele>1468.5999755859375</ele>
        <time>2026-09-03T06:32:31.000Z</time>
        <extensions>
          <ns3:TrackPointExtension>
            <ns3:hr>135</ns3:hr>
            <ns3:cad>0</ns3:cad>
          </ns3:TrackPointExtension>
        </extensions>
      </trkpt>
      <trkpt lat="44.70731190405786037445068359375" lon="6.74905403517186641693115234375">
        <ele>1468.800048828125</ele>
        <time>2026-09-03T06:32:32.000Z</time>
        <extensions>
          <ns3:TrackPointExtension>
            <ns3:hr>134</ns3:hr>
            <ns3:cad>0</ns3:cad>
          </ns3:TrackPointExtension>
        </extensions>
      </trkpt>
      <trkpt lat="44.70730871893465518951416015625" lon="6.74905856139957904815673828125">
        <ele>1469</ele>
        <time>2026-09-03T06:32:33.000Z</time>
        <extensions>
          <ns3:TrackPointExtension>
            <ns3:hr>133</ns3:hr>
            <ns3:cad>0</ns3:cad>
          </ns3:TrackPointExtension>
        </extensions>
      </trkpt>
      <trkpt lat="44.70729715190827846527099609375" lon="6.7490599863231182098388671875">
        <ele>1469.199951171875</ele>
        <time>2026-09-03T06:32:34.000Z</time>
        <extensions>
          <ns3:TrackPointExtension>
            <ns3:hr>133</ns3:hr>
            <ns3:cad>0</ns3:cad>
          </ns3:TrackPointExtension>
        </extensions>
      </trkpt>
      <trkpt lat="44.70728994347155094146728515625" lon="6.74906208179891109466552734375">
        <ele>1469.4000244140625</ele>
        <time>2026-09-03T06:32:35.000Z</time>
        <extensions>
          <ns3:TrackPointExtension>
            <ns3:hr>133</ns3:hr>
            <ns3:cad>0</ns3:cad>
          </ns3:TrackPointExtension>
        </extensions>
      </trkpt>
      <trkpt lat="44.70727720297873020172119140625" lon="6.74905789084732532501220703125">
        <ele>1469.5999755859375</ele>
        <time>2026-09-03T06:32:36.000Z</time>
        <extensions>
          <ns3:TrackPointExtension>
            <ns3:hr>133</ns3:hr>
            <ns3:cad>0</ns3:cad>
          </ns3:TrackPointExtension>
        </extensions>
      </trkpt>
      <trkpt lat="44.7072677314281463623046875" lon="6.74905889667570590972900390625">
        <ele>1469.800048828125</ele>
        <time>2026-09-03T06:32:37.000Z</time>
        <extensions>
          <ns3:TrackPointExtension>
            <ns3:hr>132</ns3:hr>
            <ns3:cad>0</ns3:cad>
          </ns3:TrackPointExtension>
        </extensions>
      </trkpt>
      <trkpt lat="44.70725205726921558380126953125" lon="6.74906325526535511016845703125">
        <ele>1470</ele>
        <time>2026-09-03T06:32:38.000Z</time>
        <extensions>
          <ns3:TrackPointExtension>
            <ns3:hr>133</ns3:hr>
            <ns3:cad>0</ns3:cad>
          </ns3:TrackPointExtension>
        </extensions>
      </trkpt>
      <trkpt lat="44.70723965205252170562744140625" lon="6.74906912259757518768310546875">
        <ele>1470.199951171875</ele>
        <time>2026-09-03T06:32:39.000Z</time>
        <extensions>
          <ns3:TrackPointExtension>
            <ns3:hr>133</ns3:hr>
            <ns3:cad>0</ns3:cad>
          </ns3:TrackPointExtension>
        </extensions>
      </trkpt>
      <trkpt lat="44.7072290070354938507080078125" lon="6.74907364882528781890869140625">
        <ele>1470.199951171875</ele>
        <time>2026-09-03T06:32:40.000Z</time>
        <extensions>
          <ns3:TrackPointExtension>
            <ns3:hr>132</ns3:hr>
            <ns3:cad>0</ns3:cad>
          </ns3:TrackPointExtension>
        </extensions>
      </trkpt>
      <trkpt lat="44.7072152607142925262451171875" lon="6.74907364882528781890869140625">
        <ele>1470.4000244140625</ele>
        <time>2026-09-03T06:32:41.000Z</time>
        <extensions>
          <ns3:TrackPointExtension>
            <ns3:hr>133</ns3:hr>
            <ns3:cad>0</ns3:cad>
          </ns3:TrackPointExtension>
        </extensions>
      </trkpt>
      <trkpt lat="44.70721207559108734130859375" lon="6.749073565006256103515625">
        <ele>1470.5999755859375</ele>
        <time>2026-09-03T06:32:42.000Z</time>
        <extensions>
          <ns3:TrackPointExtension>
            <ns3:hr>133</ns3:hr>
            <ns3:cad>0</ns3:cad>
          </ns3:TrackPointExtension>
        </extensions>
      </trkpt>
      <trkpt lat="44.7071981616318225860595703125" lon="6.74907616339623928070068359375">
        <ele>1470.800048828125</ele>
        <time>2026-09-03T06:32:43.000Z</time>
        <extensions>
          <ns3:TrackPointExtension>
            <ns3:hr>132</ns3:hr>
            <ns3:cad>0</ns3:cad>
          </ns3:TrackPointExtension>
        </extensions>
      </trkpt>
      <trkpt lat="44.7071924619376659393310546875" lon="6.749079935252666473388671875">
        <ele>1471</ele>
        <time>2026-09-03T06:32:44.000Z</time>
        <extensions>
          <ns3:TrackPointExtension>
            <ns3:hr>132</ns3:hr>
            <ns3:cad>0</ns3:cad>
          </ns3:TrackPointExtension>
        </extensions>
      </trkpt>
      <trkpt lat="44.7071793861687183380126953125" lon="6.7490794323384761810302734375">
        <ele>1471.199951171875</ele>
        <time>2026-09-03T06:32:45.000Z</time>
        <extensions>
          <ns3:TrackPointExtension>
            <ns3:hr>132</ns3:hr>
            <ns3:cad>0</ns3:cad>
          </ns3:TrackPointExtension>
        </extensions>
      </trkpt>
      <trkpt lat="44.70716991461813449859619140625" lon="6.749081276357173919677734375">
        <ele>1471.4000244140625</ele>
        <time>2026-09-03T06:32:46.000Z</time>
        <extensions>
          <ns3:TrackPointExtension>
            <ns3:hr>133</ns3:hr>
            <ns3:cad>0</ns3:cad>
          </ns3:TrackPointExtension>
        </extensions>
      </trkpt>
      <trkpt lat="44.7071539051830768585205078125" lon="6.74907649867236614227294921875">
        <ele>1471.4000244140625</ele>
        <time>2026-09-03T06:32:47.000Z</time>
        <extensions>
          <ns3:TrackPointExtension>
            <ns3:hr>132</ns3:hr>
            <ns3:cad>0</ns3:cad>
          </ns3:TrackPointExtension>
        </extensions>
      </trkpt>
      <trkpt lat="44.70714208669960498809814453125" lon="6.74907934851944446563720703125">
        <ele>1471.5999755859375</ele>
        <time>2026-09-03T06:32:48.000Z</time>
        <extensions>
          <ns3:TrackPointExtension>
            <ns3:hr>132</ns3:hr>
            <ns3:cad>0</ns3:cad>
          </ns3:TrackPointExtension>
        </extensions>
      </trkpt>
      <trkpt lat="44.70713135786354541778564453125" lon="6.74908454529941082000732421875">
        <ele>1471.800048828125</ele>
        <time>2026-09-03T06:32:49.000Z</time>
        <extensions>
          <ns3:TrackPointExtension>
            <ns3:hr>133</ns3:hr>
            <ns3:cad>0</ns3:cad>
          </ns3:TrackPointExtension>
        </extensions>
      </trkpt>
      <trkpt lat="44.70711945556104183197021484375" lon="6.749087981879711151123046875">
        <ele>1472</ele>
        <time>2026-09-03T06:32:50.000Z</time>
        <extensions>
          <ns3:TrackPointExtension>
            <ns3:hr>134</ns3:hr>
            <ns3:cad>0</ns3:cad>
          </ns3:TrackPointExtension>
        </extensions>
      </trkpt>
      <trkpt lat="44.7071163542568683624267578125" lon="6.74908622168004512786865234375">
        <ele>1472.199951171875</ele>
        <time>2026-09-03T06:32:51.000Z</time>
        <extensions>
          <ns3:TrackPointExtension>
            <ns3:hr>135</ns3:hr>
            <ns3:cad>0</ns3:cad>
          </ns3:TrackPointExtension>
        </extensions>
      </trkpt>
      <trkpt lat="44.7071056254208087921142578125" lon="6.749087311327457427978515625">
        <ele>1472.4000244140625</ele>
        <time>2026-09-03T06:32:52.000Z</time>
        <extensions>
          <ns3:TrackPointExtension>
            <ns3:hr>136</ns3:hr>
            <ns3:cad>0</ns3:cad>
          </ns3:TrackPointExtension>
        </extensions>
      </trkpt>
      <trkpt lat="44.707100093364715576171875" lon="6.7490918375551700592041015625">
        <ele>1472.5999755859375</ele>
        <time>2026-09-03T06:32:53.000Z</time>
        <extensions>
          <ns3:TrackPointExtension>
            <ns3:hr>136</ns3:hr>
            <ns3:cad>0</ns3:cad>
          </ns3:TrackPointExtension>
        </extensions>
      </trkpt>
      <trkpt lat="44.70708760432898998260498046875" lon="6.74909166991710662841796875">
        <ele>1472.5999755859375</ele>
        <time>2026-09-03T06:32:54.000Z</time>
        <extensions>
          <ns3:TrackPointExtension>
            <ns3:hr>136</ns3:hr>
            <ns3:cad>0</ns3:cad>
          </ns3:TrackPointExtension>
        </extensions>
      </trkpt>
      <trkpt lat="44.70707888714969158172607421875" lon="6.74909376539289951324462890625">
        <ele>1472.800048828125</ele>
        <time>2026-09-03T06:32:55.000Z</time>
        <extensions>
          <ns3:TrackPointExtension>
            <ns3:hr>136</ns3:hr>
            <ns3:cad>0</ns3:cad>
          </ns3:TrackPointExtension>
        </extensions>
      </trkpt>
      <trkpt lat="44.70706187188625335693359375" lon="6.74909259192645549774169921875">
        <ele>1473</ele>
        <time>2026-09-03T06:32:56.000Z</time>
        <extensions>
          <ns3:TrackPointExtension>
            <ns3:hr>136</ns3:hr>
            <ns3:cad>0</ns3:cad>
          </ns3:TrackPointExtension>
        </extensions>
      </trkpt>
      <trkpt lat="44.7070504724979400634765625" lon="6.74909544177353382110595703125">
        <ele>1473.199951171875</ele>
        <time>2026-09-03T06:32:57.000Z</time>
        <extensions>
          <ns3:TrackPointExtension>
            <ns3:hr>136</ns3:hr>
            <ns3:cad>0</ns3:cad>
          </ns3:TrackPointExtension>
        </extensions>
      </trkpt>
      <trkpt lat="44.70704183913767337799072265625" lon="6.74909896217286586761474609375">
        <ele>1473.199951171875</ele>
        <time>2026-09-03T06:32:58.000Z</time>
        <extensions>
          <ns3:TrackPointExtension>
            <ns3:hr>136</ns3:hr>
            <ns3:cad>0</ns3:cad>
          </ns3:TrackPointExtension>
        </extensions>
      </trkpt>
      <trkpt lat="44.70703362487256526947021484375" lon="6.74910373985767364501953125">
        <ele>1473.4000244140625</ele>
        <time>2026-09-03T06:32:59.000Z</time>
        <extensions>
          <ns3:TrackPointExtension>
            <ns3:hr>136</ns3:hr>
            <ns3:cad>0</ns3:cad>
          </ns3:TrackPointExtension>
        </extensions>
      </trkpt>
      <trkpt lat="44.7070311941206455230712890625" lon="6.749100722372531890869140625">
        <ele>1473.5999755859375</ele>
        <time>2026-09-03T06:33:00.000Z</time>
        <extensions>
          <ns3:TrackPointExtension>
            <ns3:hr>136</ns3:hr>
            <ns3:cad>0</ns3:cad>
          </ns3:TrackPointExtension>
        </extensions>
      </trkpt>
      <trkpt lat="44.70701920799911022186279296875" lon="6.749103069305419921875">
        <ele>1473.800048828125</ele>
        <time>2026-09-03T06:33:01.000Z</time>
        <extensions>
          <ns3:TrackPointExtension>
            <ns3:hr>135</ns3:hr>
            <ns3:cad>0</ns3:cad>
          </ns3:TrackPointExtension>
        </extensions>
      </trkpt>
      <trkpt lat="44.70701149664819240570068359375" lon="6.74910734407603740692138671875">
        <ele>1474</ele>
        <time>2026-09-03T06:33:02.000Z</time>
        <extensions>
          <ns3:TrackPointExtension>
            <ns3:hr>135</ns3:hr>
            <ns3:cad>0</ns3:cad>
          </ns3:TrackPointExtension>
        </extensions>
      </trkpt>
      <trkpt lat="44.70699858851730823516845703125" lon="6.74910734407603740692138671875">
        <ele>1474.199951171875</ele>
        <time>2026-09-03T06:33:03.000Z</time>
        <extensions>
          <ns3:TrackPointExtension>
            <ns3:hr>135</ns3:hr>
            <ns3:cad>0</ns3:cad>
          </ns3:TrackPointExtension>
        </extensions>
      </trkpt>
      <trkpt lat="44.7069899551570415496826171875" lon="6.74911086447536945343017578125">
        <ele>1474.4000244140625</ele>
        <time>2026-09-03T06:33:04.000Z</time>
        <extensions>
          <ns3:TrackPointExtension>
            <ns3:hr>136</ns3:hr>
            <ns3:cad>0</ns3:cad>
          </ns3:TrackPointExtension>
        </extensions>
      </trkpt>
      <trkpt lat="44.70697713084518909454345703125" lon="6.7491166479885578155517578125">
        <ele>1474.5999755859375</ele>
        <time>2026-09-03T06:33:05.000Z</time>
        <extensions>
          <ns3:TrackPointExtension>
            <ns3:hr>136</ns3:hr>
            <ns3:cad>0</ns3:cad>
          </ns3:TrackPointExtension>
        </extensions>
      </trkpt>
      <trkpt lat="44.70696355216205120086669921875" lon="6.74912159331142902374267578125">
        <ele>1474.5999755859375</ele>
        <time>2026-09-03T06:33:06.000Z</time>
        <extensions>
          <ns3:TrackPointExtension>
            <ns3:hr>136</ns3:hr>
            <ns3:cad>0</ns3:cad>
          </ns3:TrackPointExtension>
        </extensions>
      </trkpt>
      <trkpt lat="44.70695349387824535369873046875" lon="6.749125532805919647216796875">
        <ele>1474.800048828125</ele>
        <time>2026-09-03T06:33:07.000Z</time>
        <extensions>
          <ns3:TrackPointExtension>
            <ns3:hr>135</ns3:hr>
            <ns3:cad>0</ns3:cad>
          </ns3:TrackPointExtension>
        </extensions>
      </trkpt>
      <trkpt lat="44.7069418430328369140625" lon="6.7491303943097591400146484375">
        <ele>1475</ele>
        <time>2026-09-03T06:33:08.000Z</time>
        <extensions>
          <ns3:TrackPointExtension>
            <ns3:hr>135</ns3:hr>
            <ns3:cad>0</ns3:cad>
          </ns3:TrackPointExtension>
        </extensions>
      </trkpt>
      <trkpt lat="44.706937484443187713623046875" lon="6.74913248978555202484130859375">
        <ele>1475</ele>
        <time>2026-09-03T06:33:09.000Z</time>
        <extensions>
          <ns3:TrackPointExtension>
            <ns3:hr>135</ns3:hr>
            <ns3:cad>0</ns3:cad>
          </ns3:TrackPointExtension>
        </extensions>
      </trkpt>
      <trkpt lat="44.70692734234035015106201171875" lon="6.7491334117949008941650390625">
        <ele>1475.199951171875</ele>
        <time>2026-09-03T06:33:10.000Z</time>
        <extensions>
          <ns3:TrackPointExtension>
            <ns3:hr>135</ns3:hr>
            <ns3:cad>0</ns3:cad>
          </ns3:TrackPointExtension>
        </extensions>
      </trkpt>
      <trkpt lat="44.706920050084590911865234375" lon="6.74913668073713779449462890625">
        <ele>1475.4000244140625</ele>
        <time>2026-09-03T06:33:11.000Z</time>
        <extensions>
          <ns3:TrackPointExtension>
            <ns3:hr>136</ns3:hr>
            <ns3:cad>0</ns3:cad>
          </ns3:TrackPointExtension>
        </extensions>
      </trkpt>
      <trkpt lat="44.70690605230629444122314453125" lon="6.749134249985218048095703125">
        <ele>1475.5999755859375</ele>
        <time>2026-09-03T06:33:12.000Z</time>
        <extensions>
          <ns3:TrackPointExtension>
            <ns3:hr>135</ns3:hr>
            <ns3:cad>0</ns3:cad>
          </ns3:TrackPointExtension>
        </extensions>
      </trkpt>
      <trkpt lat="44.70689632929861545562744140625" lon="6.749137938022613525390625">
        <ele>1475.800048828125</ele>
        <time>2026-09-03T06:33:13.000Z</time>
        <extensions>
          <ns3:TrackPointExtension>
            <ns3:hr>135</ns3:hr>
            <ns3:cad>0</ns3:cad>
          </ns3:TrackPointExtension>
        </extensions>
      </trkpt>
      <trkpt lat="44.70688476227223873138427734375" lon="6.74914020113646984100341796875">
        <ele>1476.199951171875</ele>
        <time>2026-09-03T06:33:14.000Z</time>
        <extensions>
          <ns3:TrackPointExtension>
            <ns3:hr>135</ns3:hr>
            <ns3:cad>0</ns3:cad>
          </ns3:TrackPointExtension>
        </extensions>
      </trkpt>
      <trkpt lat="44.70687285996973514556884765625" lon="6.74914271570742130279541015625">
        <ele>1476.199951171875</ele>
        <time>2026-09-03T06:33:15.000Z</time>
        <extensions>
          <ns3:TrackPointExtension>
            <ns3:hr>135</ns3:hr>
            <ns3:cad>0</ns3:cad>
          </ns3:TrackPointExtension>
        </extensions>
      </trkpt>
      <trkpt lat="44.70686607062816619873046875" lon="6.74914120696485042572021484375">
        <ele>1476.5999755859375</ele>
        <time>2026-09-03T06:33:16.000Z</time>
        <extensions>
          <ns3:TrackPointExtension>
            <ns3:hr>135</ns3:hr>
            <ns3:cad>0</ns3:cad>
          </ns3:TrackPointExtension>
        </extensions>
      </trkpt>
      <trkpt lat="44.70685274340212345123291015625" lon="6.74914053641259670257568359375">
        <ele>1476.800048828125</ele>
        <time>2026-09-03T06:33:17.000Z</time>
        <extensions>
          <ns3:TrackPointExtension>
            <ns3:hr>135</ns3:hr>
            <ns3:cad>0</ns3:cad>
          </ns3:TrackPointExtension>
        </extensions>
      </trkpt>
      <trkpt lat="44.706846959888935089111328125" lon="6.74913886003196239471435546875">
        <ele>1476.800048828125</ele>
        <time>2026-09-03T06:33:18.000Z</time>
        <extensions>
          <ns3:TrackPointExtension>
            <ns3:hr>134</ns3:hr>
            <ns3:cad>0</ns3:cad>
          </ns3:TrackPointExtension>
        </extensions>
      </trkpt>
      <trkpt lat="44.70683597959578037261962890625" lon="6.7491324059665203094482421875">
        <ele>1477</ele>
        <time>2026-09-03T06:33:19.000Z</time>
        <extensions>
          <ns3:TrackPointExtension>
            <ns3:hr>134</ns3:hr>
            <ns3:cad>0</ns3:cad>
          </ns3:TrackPointExtension>
        </extensions>
      </trkpt>
      <trkpt lat="44.706826843321323394775390625" lon="6.7491324059665203094482421875">
        <ele>1477.199951171875</ele>
        <time>2026-09-03T06:33:20.000Z</time>
        <extensions>
          <ns3:TrackPointExtension>
            <ns3:hr>134</ns3:hr>
            <ns3:cad>0</ns3:cad>
          </ns3:TrackPointExtension>
        </extensions>
      </trkpt>
      <trkpt lat="44.7068146057426929473876953125" lon="6.74912645481526851654052734375">
        <ele>1477.4000244140625</ele>
        <time>2026-09-03T06:33:21.000Z</time>
        <extensions>
          <ns3:TrackPointExtension>
            <ns3:hr>134</ns3:hr>
            <ns3:cad>0</ns3:cad>
          </ns3:TrackPointExtension>
        </extensions>
      </trkpt>
      <trkpt lat="44.70680362544953823089599609375" lon="6.74912922084331512451171875">
        <ele>1477.5999755859375</ele>
        <time>2026-09-03T06:33:22.000Z</time>
        <extensions>
          <ns3:TrackPointExtension>
            <ns3:hr>133</ns3:hr>
            <ns3:cad>0</ns3:cad>
          </ns3:TrackPointExtension>
        </extensions>
      </trkpt>
      <trkpt lat="44.7067928127944469451904296875" lon="6.7491270415484905242919921875">
        <ele>1477.800048828125</ele>
        <time>2026-09-03T06:33:23.000Z</time>
        <extensions>
          <ns3:TrackPointExtension>
            <ns3:hr>133</ns3:hr>
            <ns3:cad>0</ns3:cad>
          </ns3:TrackPointExtension>
        </extensions>
      </trkpt>
      <trkpt lat="44.70678317360579967498779296875" lon="6.74912519752979278564453125">
        <ele>1477.800048828125</ele>
        <time>2026-09-03T06:33:24.000Z</time>
        <extensions>
          <ns3:TrackPointExtension>
            <ns3:hr>133</ns3:hr>
            <ns3:cad>0</ns3:cad>
          </ns3:TrackPointExtension>
        </extensions>
      </trkpt>
      <trkpt lat="44.70677579753100872039794921875" lon="6.74912444315850734710693359375">
        <ele>1478</ele>
        <time>2026-09-03T06:33:25.000Z</time>
        <extensions>
          <ns3:TrackPointExtension>
            <ns3:hr>134</ns3:hr>
            <ns3:cad>0</ns3:cad>
          </ns3:TrackPointExtension>
        </extensions>
      </trkpt>
      <trkpt lat="44.7067643143236637115478515625" lon="6.749120168387889862060546875">
        <ele>1478.199951171875</ele>
        <time>2026-09-03T06:33:26.000Z</time>
        <extensions>
          <ns3:TrackPointExtension>
            <ns3:hr>134</ns3:hr>
            <ns3:cad>0</ns3:cad>
          </ns3:TrackPointExtension>
        </extensions>
      </trkpt>
      <trkpt lat="44.70676020719110965728759765625" lon="6.7491169832646846771240234375">
        <ele>1478.4000244140625</ele>
        <time>2026-09-03T06:33:27.000Z</time>
        <extensions>
          <ns3:TrackPointExtension>
            <ns3:hr>134</ns3:hr>
            <ns3:cad>0</ns3:cad>
          </ns3:TrackPointExtension>
        </extensions>
      </trkpt>
      <trkpt lat="44.706749729812145233154296875" lon="6.74910617060959339141845703125">
        <ele>1478.4000244140625</ele>
        <time>2026-09-03T06:33:28.000Z</time>
        <extensions>
          <ns3:TrackPointExtension>
            <ns3:hr>133</ns3:hr>
            <ns3:cad>0</ns3:cad>
          </ns3:TrackPointExtension>
        </extensions>
      </trkpt>
      <trkpt lat="44.70674394629895687103271484375" lon="6.74910080619156360626220703125">
        <ele>1478.5999755859375</ele>
        <time>2026-09-03T06:33:29.000Z</time>
        <extensions>
          <ns3:TrackPointExtension>
            <ns3:hr>134</ns3:hr>
            <ns3:cad>0</ns3:cad>
          </ns3:TrackPointExtension>
        </extensions>
      </trkpt>
      <trkpt lat="44.7067334689199924468994140625" lon="6.74908898770809173583984375">
        <ele>1478.800048828125</ele>
        <time>2026-09-03T06:33:30.000Z</time>
        <extensions>
          <ns3:TrackPointExtension>
            <ns3:hr>134</ns3:hr>
            <ns3:cad>0</ns3:cad>
          </ns3:TrackPointExtension>
        </extensions>
      </trkpt>
      <trkpt lat="44.7067264281213283538818359375" lon="6.74908236600458621978759765625">
        <ele>1478.800048828125</ele>
        <time>2026-09-03T06:33:31.000Z</time>
        <extensions>
          <ns3:TrackPointExtension>
            <ns3:hr>135</ns3:hr>
            <ns3:cad>0</ns3:cad>
          </ns3:TrackPointExtension>
        </extensions>
      </trkpt>
      <trkpt lat="44.706710167229175567626953125" lon="6.74906644038856029510498046875">
        <ele>1479</ele>
        <time>2026-09-03T06:33:32.000Z</time>
        <extensions>
          <ns3:TrackPointExtension>
            <ns3:hr>136</ns3:hr>
            <ns3:cad>0</ns3:cad>
          </ns3:TrackPointExtension>
        </extensions>
      </trkpt>
      <trkpt lat="44.70670455135405063629150390625" lon="6.7490593157708644866943359375">
        <ele>1479</ele>
        <time>2026-09-03T06:33:33.000Z</time>
        <extensions>
          <ns3:TrackPointExtension>
            <ns3:hr>137</ns3:hr>
            <ns3:cad>0</ns3:cad>
          </ns3:TrackPointExtension>
        </extensions>
      </trkpt>
      <trkpt lat="44.7066959179937839508056640625" lon="6.74904330633580684661865234375">
        <ele>1479.199951171875</ele>
        <time>2026-09-03T06:33:34.000Z</time>
        <extensions>
          <ns3:TrackPointExtension>
            <ns3:hr>137</ns3:hr>
            <ns3:cad>0</ns3:cad>
          </ns3:TrackPointExtension>
        </extensions>
      </trkpt>
      <trkpt lat="44.70668678171932697296142578125" lon="6.74903324805200099945068359375">
        <ele>1479.4000244140625</ele>
        <time>2026-09-03T06:33:35.000Z</time>
        <extensions>
          <ns3:TrackPointExtension>
            <ns3:hr>137</ns3:hr>
            <ns3:cad>0</ns3:cad>
          </ns3:TrackPointExtension>
        </extensions>
      </trkpt>
      <trkpt lat="44.7066788189113140106201171875" lon="6.74902201630175113677978515625">
        <ele>1479.4000244140625</ele>
        <time>2026-09-03T06:33:36.000Z</time>
        <extensions>
          <ns3:TrackPointExtension>
            <ns3:hr>137</ns3:hr>
            <ns3:cad>0</ns3:cad>
          </ns3:TrackPointExtension>
        </extensions>
      </trkpt>
      <trkpt lat="44.706669934093952178955078125" lon="6.74901028163731098175048828125">
        <ele>1479.5999755859375</ele>
        <time>2026-09-03T06:33:37.000Z</time>
        <extensions>
          <ns3:TrackPointExtension>
            <ns3:hr>137</ns3:hr>
            <ns3:cad>0</ns3:cad>
          </ns3:TrackPointExtension>
        </extensions>
      </trkpt>
      <trkpt lat="44.70666431821882724761962890625" lon="6.74899888224899768829345703125">
        <ele>1479.5999755859375</ele>
        <time>2026-09-03T06:33:38.000Z</time>
        <extensions>
          <ns3:TrackPointExtension>
            <ns3:hr>136</ns3:hr>
            <ns3:cad>0</ns3:cad>
          </ns3:TrackPointExtension>
        </extensions>
      </trkpt>
      <trkpt lat="44.70665526576340198516845703125" lon="6.74898714758455753326416015625">
        <ele>1479.800048828125</ele>
        <time>2026-09-03T06:33:39.000Z</time>
        <extensions>
          <ns3:TrackPointExtension>
            <ns3:hr>136</ns3:hr>
            <ns3:cad>0</ns3:cad>
          </ns3:TrackPointExtension>
        </extensions>
      </trkpt>
      <trkpt lat="44.70665006898343563079833984375" lon="6.74897558055818080902099609375">
        <ele>1480</ele>
        <time>2026-09-03T06:33:40.000Z</time>
        <extensions>
          <ns3:TrackPointExtension>
            <ns3:hr>136</ns3:hr>
            <ns3:cad>0</ns3:cad>
          </ns3:TrackPointExtension>
        </extensions>
      </trkpt>
      <trkpt lat="44.70664151944220066070556640625" lon="6.7489635944366455078125">
        <ele>1480</ele>
        <time>2026-09-03T06:33:41.000Z</time>
        <extensions>
          <ns3:TrackPointExtension>
            <ns3:hr>136</ns3:hr>
            <ns3:cad>0</ns3:cad>
          </ns3:TrackPointExtension>
        </extensions>
      </trkpt>
      <trkpt lat="44.70663540065288543701171875" lon="6.74895621836185455322265625">
        <ele>1480.199951171875</ele>
        <time>2026-09-03T06:33:42.000Z</time>
        <extensions>
          <ns3:TrackPointExtension>
            <ns3:hr>136</ns3:hr>
            <ns3:cad>0</ns3:cad>
          </ns3:TrackPointExtension>
        </extensions>
      </trkpt>
      <trkpt lat="44.706626348197460174560546875" lon="6.748941801488399505615234375">
        <ele>1480.199951171875</ele>
        <time>2026-09-03T06:33:43.000Z</time>
        <extensions>
          <ns3:TrackPointExtension>
            <ns3:hr>136</ns3:hr>
            <ns3:cad>0</ns3:cad>
          </ns3:TrackPointExtension>
        </extensions>
      </trkpt>
      <trkpt lat="44.70661989413201808929443359375" lon="6.74893300049006938934326171875">
        <ele>1480.4000244140625</ele>
        <time>2026-09-03T06:33:44.000Z</time>
        <extensions>
          <ns3:TrackPointExtension>
            <ns3:hr>135</ns3:hr>
            <ns3:cad>0</ns3:cad>
          </ns3:TrackPointExtension>
        </extensions>
      </trkpt>
      <trkpt lat="44.70661050640046596527099609375" lon="6.74891724251210689544677734375">
        <ele>1480.4000244140625</ele>
        <time>2026-09-03T06:33:45.000Z</time>
        <extensions>
          <ns3:TrackPointExtension>
            <ns3:hr>135</ns3:hr>
            <ns3:cad>0</ns3:cad>
          </ns3:TrackPointExtension>
        </extensions>
      </trkpt>
      <trkpt lat="44.70660229213535785675048828125" lon="6.7489087767899036407470703125">
        <ele>1480.4000244140625</ele>
        <time>2026-09-03T06:33:46.000Z</time>
        <extensions>
          <ns3:TrackPointExtension>
            <ns3:hr>135</ns3:hr>
            <ns3:cad>0</ns3:cad>
          </ns3:TrackPointExtension>
        </extensions>
      </trkpt>
      <trkpt lat="44.70659256912767887115478515625" lon="6.74889377318322658538818359375">
        <ele>1480.5999755859375</ele>
        <time>2026-09-03T06:33:47.000Z</time>
        <extensions>
          <ns3:TrackPointExtension>
            <ns3:hr>136</ns3:hr>
            <ns3:cad>0</ns3:cad>
          </ns3:TrackPointExtension>
        </extensions>
      </trkpt>
      <trkpt lat="44.70658502541482448577880859375" lon="6.7488849721848964691162109375">
        <ele>1480.5999755859375</ele>
        <time>2026-09-03T06:33:48.000Z</time>
        <extensions>
          <ns3:TrackPointExtension>
            <ns3:hr>136</ns3:hr>
            <ns3:cad>0</ns3:cad>
          </ns3:TrackPointExtension>
        </extensions>
      </trkpt>
      <trkpt lat="44.70657362602651119232177734375" lon="6.7488661967217922210693359375">
        <ele>1480.5999755859375</ele>
        <time>2026-09-03T06:33:49.000Z</time>
        <extensions>
          <ns3:TrackPointExtension>
            <ns3:hr>137</ns3:hr>
            <ns3:cad>0</ns3:cad>
          </ns3:TrackPointExtension>
        </extensions>
      </trkpt>
      <trkpt lat="44.70656775869429111480712890625" lon="6.74885538406670093536376953125">
        <ele>1480.800048828125</ele>
        <time>2026-09-03T06:33:50.000Z</time>
        <extensions>
          <ns3:TrackPointExtension>
            <ns3:hr>137</ns3:hr>
            <ns3:cad>0</ns3:cad>
          </ns3:TrackPointExtension>
        </extensions>
      </trkpt>
      <trkpt lat="44.70655627548694610595703125" lon="6.748838536441326141357421875">
        <ele>1480.800048828125</ele>
        <time>2026-09-03T06:33:51.000Z</time>
        <extensions>
          <ns3:TrackPointExtension>
            <ns3:hr>137</ns3:hr>
            <ns3:cad>0</ns3:cad>
          </ns3:TrackPointExtension>
        </extensions>
      </trkpt>
      <trkpt lat="44.7065490670502185821533203125" lon="6.74882655031979084014892578125">
        <ele>1481</ele>
        <time>2026-09-03T06:33:52.000Z</time>
        <extensions>
          <ns3:TrackPointExtension>
            <ns3:hr>137</ns3:hr>
            <ns3:cad>0</ns3:cad>
          </ns3:TrackPointExtension>
        </extensions>
      </trkpt>
      <trkpt lat="44.70653875730931758880615234375" lon="6.7488065175712108612060546875">
        <ele>1481</ele>
        <time>2026-09-03T06:33:53.000Z</time>
        <extensions>
          <ns3:TrackPointExtension>
            <ns3:hr>137</ns3:hr>
            <ns3:cad>0</ns3:cad>
          </ns3:TrackPointExtension>
        </extensions>
      </trkpt>
      <trkpt lat="44.7065333090722560882568359375" lon="6.7487897537648677825927734375">
        <ele>1481</ele>
        <time>2026-09-03T06:33:54.000Z</time>
        <extensions>
          <ns3:TrackPointExtension>
            <ns3:hr>137</ns3:hr>
            <ns3:cad>0</ns3:cad>
          </ns3:TrackPointExtension>
        </extensions>
      </trkpt>
      <trkpt lat="44.7065274417400360107421875" lon="6.74877206794917583465576171875">
        <ele>1481.199951171875</ele>
        <time>2026-09-03T06:33:55.000Z</time>
        <extensions>
          <ns3:TrackPointExtension>
            <ns3:hr>137</ns3:hr>
            <ns3:cad>0</ns3:cad>
          </ns3:TrackPointExtension>
        </extensions>
      </trkpt>
      <trkpt lat="44.70652182586491107940673828125" lon="6.74875262193381786346435546875">
        <ele>1481.4000244140625</ele>
        <time>2026-09-03T06:33:56.000Z</time>
        <extensions>
          <ns3:TrackPointExtension>
            <ns3:hr>137</ns3:hr>
            <ns3:cad>0</ns3:cad>
          </ns3:TrackPointExtension>
        </extensions>
      </trkpt>
      <trkpt lat="44.70651696436107158660888671875" lon="6.7487394623458385467529296875">
        <ele>1481.4000244140625</ele>
        <time>2026-09-03T06:33:57.000Z</time>
        <extensions>
          <ns3:TrackPointExtension>
            <ns3:hr>137</ns3:hr>
            <ns3:cad>0</ns3:cad>
          </ns3:TrackPointExtension>
        </extensions>
      </trkpt>
      <trkpt lat="44.7065141983330249786376953125" lon="6.74872412346303462982177734375">
        <ele>1481.5999755859375</ele>
        <time>2026-09-03T06:33:58.000Z</time>
        <extensions>
          <ns3:TrackPointExtension>
            <ns3:hr>138</ns3:hr>
            <ns3:cad>0</ns3:cad>
          </ns3:TrackPointExtension>
        </extensions>
      </trkpt>
      <trkpt lat="44.706513695418834686279296875" lon="6.74871523864567279815673828125">
        <ele>1481.800048828125</ele>
        <time>2026-09-03T06:33:59.000Z</time>
        <extensions>
          <ns3:TrackPointExtension>
            <ns3:hr>138</ns3:hr>
            <ns3:cad>0</ns3:cad>
          </ns3:TrackPointExtension>
        </extensions>
      </trkpt>
      <trkpt lat="44.70651394687592983245849609375" lon="6.74870031885802745819091796875">
        <ele>1481.800048828125</ele>
        <time>2026-09-03T06:34:00.000Z</time>
        <extensions>
          <ns3:TrackPointExtension>
            <ns3:hr>139</ns3:hr>
            <ns3:cad>0</ns3:cad>
          </ns3:TrackPointExtension>
        </extensions>
      </trkpt>
      <trkpt lat="44.7065125219523906707763671875" lon="6.7486942000687122344970703125">
        <ele>1482</ele>
        <time>2026-09-03T06:34:01.000Z</time>
        <extensions>
          <ns3:TrackPointExtension>
            <ns3:hr>139</ns3:hr>
            <ns3:cad>0</ns3:cad>
          </ns3:TrackPointExtension>
        </extensions>
      </trkpt>
      <trkpt lat="44.706510007381439208984375" lon="6.74868070520460605621337890625">
        <ele>1482</ele>
        <time>2026-09-03T06:34:02.000Z</time>
        <extensions>
          <ns3:TrackPointExtension>
            <ns3:hr>139</ns3:hr>
            <ns3:cad>0</ns3:cad>
          </ns3:TrackPointExtension>
        </extensions>
      </trkpt>
      <trkpt lat="44.70651109702885150909423828125" lon="6.74866930581629276275634765625">
        <ele>1482.199951171875</ele>
        <time>2026-09-03T06:34:03.000Z</time>
        <extensions>
          <ns3:TrackPointExtension>
            <ns3:hr>139</ns3:hr>
            <ns3:cad>0</ns3:cad>
          </ns3:TrackPointExtension>
        </extensions>
      </trkpt>
      <trkpt lat="44.7065084986388683319091796875" lon="6.74865790642797946929931640625">
        <ele>1482.4000244140625</ele>
        <time>2026-09-03T06:34:04.000Z</time>
        <extensions>
          <ns3:TrackPointExtension>
            <ns3:hr>139</ns3:hr>
            <ns3:cad>0</ns3:cad>
          </ns3:TrackPointExtension>
        </extensions>
      </trkpt>
      <trkpt lat="44.70651076175272464752197265625" lon="6.74864566884934902191162109375">
        <ele>1482.5999755859375</ele>
        <time>2026-09-03T06:34:05.000Z</time>
        <extensions>
          <ns3:TrackPointExtension>
            <ns3:hr>139</ns3:hr>
            <ns3:cad>0</ns3:cad>
          </ns3:TrackPointExtension>
        </extensions>
      </trkpt>
      <trkpt lat="44.70650590024888515472412109375" lon="6.7486244626343250274658203125">
        <ele>1482.800048828125</ele>
        <time>2026-09-03T06:34:06.000Z</time>
        <extensions>
          <ns3:TrackPointExtension>
            <ns3:hr>139</ns3:hr>
            <ns3:cad>0</ns3:cad>
          </ns3:TrackPointExtension>
        </extensions>
      </trkpt>
      <trkpt lat="44.7065024636685848236083984375" lon="6.7486070282757282257080078125">
        <ele>1483</ele>
        <time>2026-09-03T06:34:07.000Z</time>
        <extensions>
          <ns3:TrackPointExtension>
            <ns3:hr>140</ns3:hr>
            <ns3:cad>0</ns3:cad>
          </ns3:TrackPointExtension>
        </extensions>
      </trkpt>
      <trkpt lat="44.70649668015539646148681640625" lon="6.748585067689418792724609375">
        <ele>1483.199951171875</ele>
        <time>2026-09-03T06:34:08.000Z</time>
        <extensions>
          <ns3:TrackPointExtension>
            <ns3:hr>140</ns3:hr>
            <ns3:cad>0</ns3:cad>
          </ns3:TrackPointExtension>
        </extensions>
      </trkpt>
      <trkpt lat="44.70649718306958675384521484375" lon="6.748568974435329437255859375">
        <ele>1483.4000244140625</ele>
        <time>2026-09-03T06:34:09.000Z</time>
        <extensions>
          <ns3:TrackPointExtension>
            <ns3:hr>140</ns3:hr>
            <ns3:cad>41</ns3:cad>
          </ns3:TrackPointExtension>
        </extensions>
      </trkpt>
      <trkpt lat="44.706495590507984161376953125" lon="6.74855514429509639739990234375">
        <ele>1483.5999755859375</ele>
        <time>2026-09-03T06:34:10.000Z</time>
        <extensions>
          <ns3:TrackPointExtension>
            <ns3:hr>140</ns3:hr>
            <ns3:cad>41</ns3:cad>
          </ns3:TrackPointExtension>
        </extensions>
      </trkpt>
      <trkpt lat="44.70649533905088901519775390625" lon="6.7485399730503559112548828125">
        <ele>1483.800048828125</ele>
        <time>2026-09-03T06:34:11.000Z</time>
        <extensions>
          <ns3:TrackPointExtension>
            <ns3:hr>139</ns3:hr>
            <ns3:cad>41</ns3:cad>
          </ns3:TrackPointExtension>
        </extensions>
      </trkpt>
      <trkpt lat="44.7064944170415401458740234375" lon="6.748528070747852325439453125">
        <ele>1483.800048828125</ele>
        <time>2026-09-03T06:34:12.000Z</time>
        <extensions>
          <ns3:TrackPointExtension>
            <ns3:hr>140</ns3:hr>
            <ns3:cad>0</ns3:cad>
          </ns3:TrackPointExtension>
        </extensions>
      </trkpt>
      <trkpt lat="44.7064944170415401458740234375" lon="6.74850988201797008514404296875">
        <ele>1484</ele>
        <time>2026-09-03T06:34:13.000Z</time>
        <extensions>
          <ns3:TrackPointExtension>
            <ns3:hr>140</ns3:hr>
            <ns3:cad>0</ns3:cad>
          </ns3:TrackPointExtension>
        </extensions>
      </trkpt>
      <trkpt lat="44.70649433322250843048095703125" lon="6.7484915256500244140625">
        <ele>1484.199951171875</ele>
        <time>2026-09-03T06:34:14.000Z</time>
        <extensions>
          <ns3:TrackPointExtension>
            <ns3:hr>139</ns3:hr>
            <ns3:cad>0</ns3:cad>
          </ns3:TrackPointExtension>
        </extensions>
      </trkpt>
      <trkpt lat="44.7064957581460475921630859375" lon="6.7484732531011104583740234375">
        <ele>1484.4000244140625</ele>
        <time>2026-09-03T06:34:15.000Z</time>
        <extensions>
          <ns3:TrackPointExtension>
            <ns3:hr>139</ns3:hr>
            <ns3:cad>0</ns3:cad>
          </ns3:TrackPointExtension>
        </extensions>
      </trkpt>
      <trkpt lat="44.706496931612491607666015625" lon="6.7484571598470211029052734375">
        <ele>1484.4000244140625</ele>
        <time>2026-09-03T06:34:16.000Z</time>
        <extensions>
          <ns3:TrackPointExtension>
            <ns3:hr>139</ns3:hr>
            <ns3:cad>0</ns3:cad>
          </ns3:TrackPointExtension>
        </extensions>
      </trkpt>
      <trkpt lat="44.7065011225640773773193359375" lon="6.74844131805002689361572265625">
        <ele>1484.5999755859375</ele>
        <time>2026-09-03T06:34:17.000Z</time>
        <extensions>
          <ns3:TrackPointExtension>
            <ns3:hr>139</ns3:hr>
            <ns3:cad>0</ns3:cad>
          </ns3:TrackPointExtension>
        </extensions>
      </trkpt>
      <trkpt lat="44.706503637135028839111328125" lon="6.7484258115291595458984375">
        <ele>1484.800048828125</ele>
        <time>2026-09-03T06:34:18.000Z</time>
        <extensions>
          <ns3:TrackPointExtension>
            <ns3:hr>139</ns3:hr>
            <ns3:cad>0</ns3:cad>
          </ns3:TrackPointExtension>
        </extensions>
      </trkpt>
      <trkpt lat="44.7064984403550624847412109375" lon="6.74839220009744167327880859375">
        <ele>1484.800048828125</ele>
        <time>2026-09-03T06:34:19.000Z</time>
        <extensions>
          <ns3:TrackPointExtension>
            <ns3:hr>139</ns3:hr>
            <ns3:cad>0</ns3:cad>
          </ns3:TrackPointExtension>
        </extensions>
      </trkpt>
      <trkpt lat="44.7064964286983013153076171875" lon="6.74837887287139892578125">
        <ele>1485</ele>
        <time>2026-09-03T06:34:20.000Z</time>
        <extensions>
          <ns3:TrackPointExtension>
            <ns3:hr>139</ns3:hr>
            <ns3:cad>0</ns3:cad>
          </ns3:TrackPointExtension>
        </extensions>
      </trkpt>
      <trkpt lat="44.70649885945022106170654296875" lon="6.74836345016956329345703125">
        <ele>1485.199951171875</ele>
        <time>2026-09-03T06:34:21.000Z</time>
        <extensions>
          <ns3:TrackPointExtension>
            <ns3:hr>139</ns3:hr>
            <ns3:cad>55</ns3:cad>
          </ns3:TrackPointExtension>
        </extensions>
      </trkpt>
      <trkpt lat="44.70649953000247478485107421875" lon="6.748352386057376861572265625">
        <ele>1485.4000244140625</ele>
        <time>2026-09-03T06:34:22.000Z</time>
        <extensions>
          <ns3:TrackPointExtension>
            <ns3:hr>139</ns3:hr>
            <ns3:cad>56</ns3:cad>
          </ns3:TrackPointExtension>
        </extensions>
      </trkpt>
      <trkpt lat="44.7065004520118236541748046875" lon="6.7483411543071269989013671875">
        <ele>1485.5999755859375</ele>
        <time>2026-09-03T06:34:23.000Z</time>
        <extensions>
          <ns3:TrackPointExtension>
            <ns3:hr>139</ns3:hr>
            <ns3:cad>56</ns3:cad>
          </ns3:TrackPointExtension>
        </extensions>
      </trkpt>
      <trkpt lat="44.7065017931163311004638671875" lon="6.7483304254710674285888671875">
        <ele>1485.800048828125</ele>
        <time>2026-09-03T06:34:24.000Z</time>
        <extensions>
          <ns3:TrackPointExtension>
            <ns3:hr>139</ns3:hr>
            <ns3:cad>56</ns3:cad>
          </ns3:TrackPointExtension>
        </extensions>
      </trkpt>
      <trkpt lat="44.706503637135028839111328125" lon="6.748321540653705596923828125">
        <ele>1485.800048828125</ele>
        <time>2026-09-03T06:34:25.000Z</time>
        <extensions>
          <ns3:TrackPointExtension>
            <ns3:hr>138</ns3:hr>
            <ns3:cad>53</ns3:cad>
          </ns3:TrackPointExtension>
        </extensions>
      </trkpt>
      <trkpt lat="44.70650556497275829315185546875" lon="6.74831123091280460357666015625">
        <ele>1486</ele>
        <time>2026-09-03T06:34:26.000Z</time>
        <extensions>
          <ns3:TrackPointExtension>
            <ns3:hr>138</ns3:hr>
            <ns3:cad>52</ns3:cad>
          </ns3:TrackPointExtension>
        </extensions>
      </trkpt>
      <trkpt lat="44.70651159994304180145263671875" lon="6.7482915334403514862060546875">
        <ele>1486</ele>
        <time>2026-09-03T06:34:27.000Z</time>
        <extensions>
          <ns3:TrackPointExtension>
            <ns3:hr>138</ns3:hr>
            <ns3:cad>52</ns3:cad>
          </ns3:TrackPointExtension>
        </extensions>
      </trkpt>
      <trkpt lat="44.70651931129395961761474609375" lon="6.74827468581497669219970703125">
        <ele>1486.199951171875</ele>
        <time>2026-09-03T06:34:28.000Z</time>
        <extensions>
          <ns3:TrackPointExtension>
            <ns3:hr>138</ns3:hr>
            <ns3:cad>51</ns3:cad>
          </ns3:TrackPointExtension>
        </extensions>
      </trkpt>
      <trkpt lat="44.70652517862617969512939453125" lon="6.74825943075120449066162109375">
        <ele>1486.199951171875</ele>
        <time>2026-09-03T06:34:29.000Z</time>
        <extensions>
          <ns3:TrackPointExtension>
            <ns3:hr>138</ns3:hr>
            <ns3:cad>51</ns3:cad>
          </ns3:TrackPointExtension>
        </extensions>
      </trkpt>
      <trkpt lat="44.7065316326916217803955078125" lon="6.74824434332549571990966796875">
        <ele>1486.4000244140625</ele>
        <time>2026-09-03T06:34:30.000Z</time>
        <extensions>
          <ns3:TrackPointExtension>
            <ns3:hr>137</ns3:hr>
            <ns3:cad>49</ns3:cad>
          </ns3:TrackPointExtension>
        </extensions>
      </trkpt>
      <trkpt lat="44.7065381705760955810546875" lon="6.74823177047073841094970703125">
        <ele>1486.5999755859375</ele>
        <time>2026-09-03T06:34:31.000Z</time>
        <extensions>
          <ns3:TrackPointExtension>
            <ns3:hr>137</ns3:hr>
            <ns3:cad>49</ns3:cad>
          </ns3:TrackPointExtension>
        </extensions>
      </trkpt>
      <trkpt lat="44.70654563046991825103759765625" lon="6.7482219636440277099609375">
        <ele>1486.800048828125</ele>
        <time>2026-09-03T06:34:32.000Z</time>
        <extensions>
          <ns3:TrackPointExtension>
            <ns3:hr>137</ns3:hr>
            <ns3:cad>49</ns3:cad>
          </ns3:TrackPointExtension>
        </extensions>
      </trkpt>
      <trkpt lat="44.70655585639178752899169921875" lon="6.748212911188602447509765625">
        <ele>1486.800048828125</ele>
        <time>2026-09-03T06:34:33.000Z</time>
        <extensions>
          <ns3:TrackPointExtension>
            <ns3:hr>137</ns3:hr>
            <ns3:cad>49</ns3:cad>
          </ns3:TrackPointExtension>
        </extensions>
      </trkpt>
      <trkpt lat="44.706556610763072967529296875" lon="6.74820394255220890045166015625">
        <ele>1487</ele>
        <time>2026-09-03T06:34:34.000Z</time>
        <extensions>
          <ns3:TrackPointExtension>
            <ns3:hr>137</ns3:hr>
            <ns3:cad>49</ns3:cad>
          </ns3:TrackPointExtension>
        </extensions>
      </trkpt>
      <trkpt lat="44.70657111145555973052978515625" lon="6.74818818457424640655517578125">
        <ele>1487.199951171875</ele>
        <time>2026-09-03T06:34:35.000Z</time>
        <extensions>
          <ns3:TrackPointExtension>
            <ns3:hr>137</ns3:hr>
            <ns3:cad>49</ns3:cad>
          </ns3:TrackPointExtension>
        </extensions>
      </trkpt>
      <trkpt lat="44.7065789066255092620849609375" lon="6.74817561171948909759521484375">
        <ele>1487.199951171875</ele>
        <time>2026-09-03T06:34:36.000Z</time>
        <extensions>
          <ns3:TrackPointExtension>
            <ns3:hr>137</ns3:hr>
            <ns3:cad>0</ns3:cad>
          </ns3:TrackPointExtension>
        </extensions>
      </trkpt>
      <trkpt lat="44.70659022219479084014892578125" lon="6.74815650098025798797607421875">
        <ele>1487.4000244140625</ele>
        <time>2026-09-03T06:34:37.000Z</time>
        <extensions>
          <ns3:TrackPointExtension>
            <ns3:hr>137</ns3:hr>
            <ns3:cad>0</ns3:cad>
          </ns3:TrackPointExtension>
        </extensions>
      </trkpt>
      <trkpt lat="44.7066000290215015411376953125" lon="6.74814283847808837890625">
        <ele>1487.5999755859375</ele>
        <time>2026-09-03T06:34:38.000Z</time>
        <extensions>
          <ns3:TrackPointExtension>
            <ns3:hr>137</ns3:hr>
            <ns3:cad>0</ns3:cad>
          </ns3:TrackPointExtension>
        </extensions>
      </trkpt>
      <trkpt lat="44.70660916529595851898193359375" lon="6.7481316067278385162353515625">
        <ele>1487.800048828125</ele>
        <time>2026-09-03T06:34:39.000Z</time>
        <extensions>
          <ns3:TrackPointExtension>
            <ns3:hr>136</ns3:hr>
            <ns3:cad>0</ns3:cad>
          </ns3:TrackPointExtension>
        </extensions>
      </trkpt>
      <trkpt lat="44.7066154517233371734619140625" lon="6.74812263809144496917724609375">
        <ele>1487.800048828125</ele>
        <time>2026-09-03T06:34:40.000Z</time>
        <extensions>
          <ns3:TrackPointExtension>
            <ns3:hr>136</ns3:hr>
            <ns3:cad>0</ns3:cad>
          </ns3:TrackPointExtension>
        </extensions>
      </trkpt>
      <trkpt lat="44.70661905594170093536376953125" lon="6.74811643548309803009033203125">
        <ele>1488</ele>
        <time>2026-09-03T06:34:41.000Z</time>
        <extensions>
          <ns3:TrackPointExtension>
            <ns3:hr>136</ns3:hr>
            <ns3:cad>55</ns3:cad>
          </ns3:TrackPointExtension>
        </extensions>
      </trkpt>
      <trkpt lat="44.7066224925220012664794921875" lon="6.7481104843318462371826171875">
        <ele>1488.199951171875</ele>
        <time>2026-09-03T06:34:42.000Z</time>
        <extensions>
          <ns3:TrackPointExtension>
            <ns3:hr>136</ns3:hr>
            <ns3:cad>55</ns3:cad>
          </ns3:TrackPointExtension>
        </extensions>
      </trkpt>
      <trkpt lat="44.70662693493068218231201171875" lon="6.748104281723499298095703125">
        <ele>1488.199951171875</ele>
        <time>2026-09-03T06:34:43.000Z</time>
        <extensions>
          <ns3:TrackPointExtension>
            <ns3:hr>136</ns3:hr>
            <ns3:cad>55</ns3:cad>
          </ns3:TrackPointExtension>
        </extensions>
      </trkpt>
      <trkpt lat="44.70663330517709255218505859375" lon="6.7480970732867717742919921875">
        <ele>1488.4000244140625</ele>
        <time>2026-09-03T06:34:44.000Z</time>
        <extensions>
          <ns3:TrackPointExtension>
            <ns3:hr>136</ns3:hr>
            <ns3:cad>55</ns3:cad>
          </ns3:TrackPointExtension>
        </extensions>
      </trkpt>
      <trkpt lat="44.70663942396640777587890625" lon="6.7480890266597270965576171875">
        <ele>1488.5999755859375</ele>
        <time>2026-09-03T06:34:45.000Z</time>
        <extensions>
          <ns3:TrackPointExtension>
            <ns3:hr>136</ns3:hr>
            <ns3:cad>54</ns3:cad>
          </ns3:TrackPointExtension>
        </extensions>
      </trkpt>
      <trkpt lat="44.7066454589366912841796875" lon="6.7480823211371898651123046875">
        <ele>1488.5999755859375</ele>
        <time>2026-09-03T06:34:46.000Z</time>
        <extensions>
          <ns3:TrackPointExtension>
            <ns3:hr>135</ns3:hr>
            <ns3:cad>54</ns3:cad>
          </ns3:TrackPointExtension>
        </extensions>
      </trkpt>
      <trkpt lat="44.706652499735355377197265625" lon="6.7480746097862720489501953125">
        <ele>1488.800048828125</ele>
        <time>2026-09-03T06:34:47.000Z</time>
        <extensions>
          <ns3:TrackPointExtension>
            <ns3:hr>134</ns3:hr>
            <ns3:cad>54</ns3:cad>
          </ns3:TrackPointExtension>
        </extensions>
      </trkpt>
      <trkpt lat="44.7066600434482097625732421875" lon="6.7480648867785930633544921875">
        <ele>1489</ele>
        <time>2026-09-03T06:34:48.000Z</time>
        <extensions>
          <ns3:TrackPointExtension>
            <ns3:hr>134</ns3:hr>
            <ns3:cad>54</ns3:cad>
          </ns3:TrackPointExtension>
        </extensions>
      </trkpt>
      <trkpt lat="44.7066722810268402099609375" lon="6.7480521462857723236083984375">
        <ele>1489.199951171875</ele>
        <time>2026-09-03T06:34:49.000Z</time>
        <extensions>
          <ns3:TrackPointExtension>
            <ns3:hr>133</ns3:hr>
            <ns3:cad>54</ns3:cad>
          </ns3:TrackPointExtension>
        </extensions>
      </trkpt>
      <trkpt lat="44.7066804952919483184814453125" lon="6.74803982488811016082763671875">
        <ele>1489.4000244140625</ele>
        <time>2026-09-03T06:34:50.000Z</time>
        <extensions>
          <ns3:TrackPointExtension>
            <ns3:hr>133</ns3:hr>
            <ns3:cad>54</ns3:cad>
          </ns3:TrackPointExtension>
        </extensions>
      </trkpt>
      <trkpt lat="44.706690721213817596435546875" lon="6.7480276711285114288330078125">
        <ele>1489.5999755859375</ele>
        <time>2026-09-03T06:34:51.000Z</time>
        <extensions>
          <ns3:TrackPointExtension>
            <ns3:hr>132</ns3:hr>
            <ns3:cad>54</ns3:cad>
          </ns3:TrackPointExtension>
        </extensions>
      </trkpt>
      <trkpt lat="44.70669952221214771270751953125" lon="6.748017780482769012451171875">
        <ele>1489.800048828125</ele>
        <time>2026-09-03T06:34:52.000Z</time>
        <extensions>
          <ns3:TrackPointExtension>
            <ns3:hr>131</ns3:hr>
            <ns3:cad>0</ns3:cad>
          </ns3:TrackPointExtension>
        </extensions>
      </trkpt>
      <trkpt lat="44.70670740120112895965576171875" lon="6.74800780601799488067626953125">
        <ele>1490</ele>
        <time>2026-09-03T06:34:53.000Z</time>
        <extensions>
          <ns3:TrackPointExtension>
            <ns3:hr>130</ns3:hr>
            <ns3:cad>0</ns3:cad>
          </ns3:TrackPointExtension>
        </extensions>
      </trkpt>
      <trkpt lat="44.7067133523523807525634765625" lon="6.74799908883869647979736328125">
        <ele>1490.199951171875</ele>
        <time>2026-09-03T06:34:54.000Z</time>
        <extensions>
          <ns3:TrackPointExtension>
            <ns3:hr>130</ns3:hr>
            <ns3:cad>0</ns3:cad>
          </ns3:TrackPointExtension>
        </extensions>
      </trkpt>
      <trkpt lat="44.706722237169742584228515625" lon="6.74798525869846343994140625">
        <ele>1490.199951171875</ele>
        <time>2026-09-03T06:34:55.000Z</time>
        <extensions>
          <ns3:TrackPointExtension>
            <ns3:hr>129</ns3:hr>
            <ns3:cad>0</ns3:cad>
          </ns3:TrackPointExtension>
        </extensions>
      </trkpt>
      <trkpt lat="44.70672793686389923095703125" lon="6.74797612242400646209716796875">
        <ele>1490.4000244140625</ele>
        <time>2026-09-03T06:34:56.000Z</time>
        <extensions>
          <ns3:TrackPointExtension>
            <ns3:hr>129</ns3:hr>
            <ns3:cad>0</ns3:cad>
          </ns3:TrackPointExtension>
        </extensions>
      </trkpt>
      <trkpt lat="44.706736318767070770263671875" lon="6.74796237610280513763427734375">
        <ele>1490.800048828125</ele>
        <time>2026-09-03T06:34:57.000Z</time>
        <extensions>
          <ns3:TrackPointExtension>
            <ns3:hr>129</ns3:hr>
            <ns3:cad>0</ns3:cad>
          </ns3:TrackPointExtension>
        </extensions>
      </trkpt>
      <trkpt lat="44.7067441977560520172119140625" lon="6.7479522339999675750732421875">
        <ele>1491</ele>
        <time>2026-09-03T06:34:58.000Z</time>
        <extensions>
          <ns3:TrackPointExtension>
            <ns3:hr>130</ns3:hr>
            <ns3:cad>0</ns3:cad>
          </ns3:TrackPointExtension>
        </extensions>
      </trkpt>
      <trkpt lat="44.7067502327263355255126953125" lon="6.74794443883001804351806640625">
        <ele>1491.199951171875</ele>
        <time>2026-09-03T06:34:59.000Z</time>
        <extensions>
          <ns3:TrackPointExtension>
            <ns3:hr>130</ns3:hr>
            <ns3:cad>0</ns3:cad>
          </ns3:TrackPointExtension>
        </extensions>
      </trkpt>
      <trkpt lat="44.70676138065755367279052734375" lon="6.747933290898799896240234375">
        <ele>1491.199951171875</ele>
        <time>2026-09-03T06:35:00.000Z</time>
        <extensions>
          <ns3:TrackPointExtension>
            <ns3:hr>130</ns3:hr>
            <ns3:cad>0</ns3:cad>
          </ns3:TrackPointExtension>
        </extensions>
      </trkpt>
      <trkpt lat="44.70676942728459835052490234375" lon="6.74792432226240634918212890625">
        <ele>1491.4000244140625</ele>
        <time>2026-09-03T06:35:01.000Z</time>
        <extensions>
          <ns3:TrackPointExtension>
            <ns3:hr>130</ns3:hr>
            <ns3:cad>0</ns3:cad>
          </ns3:TrackPointExtension>
        </extensions>
      </trkpt>
      <trkpt lat="44.70677889883518218994140625" lon="6.74791946075856685638427734375">
        <ele>1491.5999755859375</ele>
        <time>2026-09-03T06:35:02.000Z</time>
        <extensions>
          <ns3:TrackPointExtension>
            <ns3:hr>130</ns3:hr>
            <ns3:cad>0</ns3:cad>
          </ns3:TrackPointExtension>
        </extensions>
      </trkpt>
      <trkpt lat="44.7067908011376857757568359375" lon="6.7479086481034755706787109375">
        <ele>1491.800048828125</ele>
        <time>2026-09-03T06:35:03.000Z</time>
        <extensions>
          <ns3:TrackPointExtension>
            <ns3:hr>130</ns3:hr>
            <ns3:cad>53</ns3:cad>
          </ns3:TrackPointExtension>
        </extensions>
      </trkpt>
      <trkpt lat="44.70680035650730133056640625" lon="6.7478979192674160003662109375">
        <ele>1492</ele>
        <time>2026-09-03T06:35:04.000Z</time>
        <extensions>
          <ns3:TrackPointExtension>
            <ns3:hr>127</ns3:hr>
            <ns3:cad>53</ns3:cad>
          </ns3:TrackPointExtension>
        </extensions>
      </trkpt>
      <trkpt lat="44.706812761723995208740234375" lon="6.74788408912718296051025390625">
        <ele>1492.199951171875</ele>
        <time>2026-09-03T06:35:05.000Z</time>
        <extensions>
          <ns3:TrackPointExtension>
            <ns3:hr>125</ns3:hr>
            <ns3:cad>53</ns3:cad>
          </ns3:TrackPointExtension>
        </extensions>
      </trkpt>
      <trkpt lat="44.7068224847316741943359375" lon="6.7478737793862819671630859375">
        <ele>1492.199951171875</ele>
        <time>2026-09-03T06:35:06.000Z</time>
        <extensions>
          <ns3:TrackPointExtension>
            <ns3:hr>125</ns3:hr>
            <ns3:cad>53</ns3:cad>
          </ns3:TrackPointExtension>
        </extensions>
      </trkpt>
      <trkpt lat="44.70682851970195770263671875" lon="6.74786414019763469696044921875">
        <ele>1492.4000244140625</ele>
        <time>2026-09-03T06:35:07.000Z</time>
        <extensions>
          <ns3:TrackPointExtension>
            <ns3:hr>123</ns3:hr>
            <ns3:cad>52</ns3:cad>
          </ns3:TrackPointExtension>
        </extensions>
      </trkpt>
      <trkpt lat="44.70683597959578037261962890625" lon="6.747852824628353118896484375">
        <ele>1492.5999755859375</ele>
        <time>2026-09-03T06:35:08.000Z</time>
        <extensions>
          <ns3:TrackPointExtension>
            <ns3:hr>123</ns3:hr>
            <ns3:cad>52</ns3:cad>
          </ns3:TrackPointExtension>
        </extensions>
      </trkpt>
      <trkpt lat="44.7068417631089687347412109375" lon="6.74784150905907154083251953125">
        <ele>1492.800048828125</ele>
        <time>2026-09-03T06:35:09.000Z</time>
        <extensions>
          <ns3:TrackPointExtension>
            <ns3:hr>123</ns3:hr>
            <ns3:cad>52</ns3:cad>
          </ns3:TrackPointExtension>
        </extensions>
      </trkpt>
      <trkpt lat="44.706846959888935089111328125" lon="6.7478288523852825164794921875">
        <ele>1492.800048828125</ele>
        <time>2026-09-03T06:35:10.000Z</time>
        <extensions>
          <ns3:TrackPointExtension>
            <ns3:hr>124</ns3:hr>
            <ns3:cad>52</ns3:cad>
          </ns3:TrackPointExtension>
        </extensions>
      </trkpt>
      <trkpt lat="44.7068488039076328277587890625" lon="6.747819967567920684814453125">
        <ele>1493.199951171875</ele>
        <time>2026-09-03T06:35:11.000Z</time>
        <extensions>
          <ns3:TrackPointExtension>
            <ns3:hr>123</ns3:hr>
            <ns3:cad>52</ns3:cad>
          </ns3:TrackPointExtension>
        </extensions>
      </trkpt>
      <trkpt lat="44.706854335963726043701171875" lon="6.7478047125041484832763671875">
        <ele>1493.4000244140625</ele>
        <time>2026-09-03T06:35:12.000Z</time>
        <extensions>
          <ns3:TrackPointExtension>
            <ns3:hr>124</ns3:hr>
            <ns3:cad>52</ns3:cad>
          </ns3:TrackPointExtension>
        </extensions>
      </trkpt>
      <trkpt lat="44.706858359277248382568359375" lon="6.74778954125940799713134765625">
        <ele>1493.5999755859375</ele>
        <time>2026-09-03T06:35:13.000Z</time>
        <extensions>
          <ns3:TrackPointExtension>
            <ns3:hr>124</ns3:hr>
            <ns3:cad>52</ns3:cad>
          </ns3:TrackPointExtension>
        </extensions>
      </trkpt>
      <trkpt lat="44.70686380751430988311767578125" lon="6.7477686703205108642578125">
        <ele>1493.800048828125</ele>
        <time>2026-09-03T06:35:14.000Z</time>
        <extensions>
          <ns3:TrackPointExtension>
            <ns3:hr>125</ns3:hr>
            <ns3:cad>52</ns3:cad>
          </ns3:TrackPointExtension>
        </extensions>
      </trkpt>
      <trkpt lat="44.7068652324378490447998046875" lon="6.7477554269134998321533203125">
        <ele>1493.800048828125</ele>
        <time>2026-09-03T06:35:15.000Z</time>
        <extensions>
          <ns3:TrackPointExtension>
            <ns3:hr>126</ns3:hr>
            <ns3:cad>52</ns3:cad>
          </ns3:TrackPointExtension>
        </extensions>
      </trkpt>
      <trkpt lat="44.70686900429427623748779296875" lon="6.74773908220231533050537109375">
        <ele>1494</ele>
        <time>2026-09-03T06:35:16.000Z</time>
        <extensions>
          <ns3:TrackPointExtension>
            <ns3:hr>126</ns3:hr>
            <ns3:cad>52</ns3:cad>
          </ns3:TrackPointExtension>
        </extensions>
      </trkpt>
      <trkpt lat="44.70687185414135456085205078125" lon="6.7477242462337017059326171875">
        <ele>1494.199951171875</ele>
        <time>2026-09-03T06:35:17.000Z</time>
        <extensions>
          <ns3:TrackPointExtension>
            <ns3:hr>126</ns3:hr>
            <ns3:cad>52</ns3:cad>
          </ns3:TrackPointExtension>
        </extensions>
      </trkpt>
      <trkpt lat="44.70687537454068660736083984375" lon="6.74770706333220005035400390625">
        <ele>1494.199951171875</ele>
        <time>2026-09-03T06:35:18.000Z</time>
        <extensions>
          <ns3:TrackPointExtension>
            <ns3:hr>127</ns3:hr>
            <ns3:cad>52</ns3:cad>
          </ns3:TrackPointExtension>
        </extensions>
      </trkpt>
      <trkpt lat="44.7068773023784160614013671875" lon="6.7476917244493961334228515625">
        <ele>1494.4000244140625</ele>
        <time>2026-09-03T06:35:19.000Z</time>
        <extensions>
          <ns3:TrackPointExtension>
            <ns3:hr>127</ns3:hr>
            <ns3:cad>52</ns3:cad>
          </ns3:TrackPointExtension>
        </extensions>
      </trkpt>
      <trkpt lat="44.7068786434829235076904296875" lon="6.74767219461500644683837890625">
        <ele>1494.5999755859375</ele>
        <time>2026-09-03T06:35:20.000Z</time>
        <extensions>
          <ns3:TrackPointExtension>
            <ns3:hr>127</ns3:hr>
            <ns3:cad>52</ns3:cad>
          </ns3:TrackPointExtension>
        </extensions>
      </trkpt>
      <trkpt lat="44.70687948167324066162109375" lon="6.74765677191317081451416015625">
        <ele>1494.5999755859375</ele>
        <time>2026-09-03T06:35:21.000Z</time>
        <extensions>
          <ns3:TrackPointExtension>
            <ns3:hr>128</ns3:hr>
            <ns3:cad>52</ns3:cad>
          </ns3:TrackPointExtension>
        </extensions>
      </trkpt>
      <trkpt lat="44.70688006840646266937255859375" lon="6.747641265392303466796875">
        <ele>1494.800048828125</ele>
        <time>2026-09-03T06:35:22.000Z</time>
        <extensions>
          <ns3:TrackPointExtension>
            <ns3:hr>129</ns3:hr>
            <ns3:cad>0</ns3:cad>
          </ns3:TrackPointExtension>
        </extensions>
      </trkpt>
      <trkpt lat="44.70688140951097011566162109375" lon="6.7476273514330387115478515625">
        <ele>1495</ele>
        <time>2026-09-03T06:35:23.000Z</time>
        <extensions>
          <ns3:TrackPointExtension>
            <ns3:hr>130</ns3:hr>
            <ns3:cad>0</ns3:cad>
          </ns3:TrackPointExtension>
        </extensions>
      </trkpt>
      <trkpt lat="44.70687906257808208465576171875" lon="6.7476179637014865875244140625">
        <ele>1495</ele>
        <time>2026-09-03T06:35:24.000Z</time>
        <extensions>
          <ns3:TrackPointExtension>
            <ns3:hr>131</ns3:hr>
            <ns3:cad>0</ns3:cad>
          </ns3:TrackPointExtension>
        </extensions>
      </trkpt>
      <trkpt lat="44.70687822438776493072509765625" lon="6.74760580994188785552978515625">
        <ele>1495.199951171875</ele>
        <time>2026-09-03T06:35:25.000Z</time>
        <extensions>
          <ns3:TrackPointExtension>
            <ns3:hr>132</ns3:hr>
            <ns3:cad>0</ns3:cad>
          </ns3:TrackPointExtension>
        </extensions>
      </trkpt>
      <trkpt lat="44.7068749554455280303955078125" lon="6.74759374000132083892822265625">
        <ele>1495.4000244140625</ele>
        <time>2026-09-03T06:35:26.000Z</time>
        <extensions>
          <ns3:TrackPointExtension>
            <ns3:hr>133</ns3:hr>
            <ns3:cad>0</ns3:cad>
          </ns3:TrackPointExtension>
        </extensions>
      </trkpt>
      <trkpt lat="44.70687084831297397613525390625" lon="6.7475773952901363372802734375">
        <ele>1495.4000244140625</ele>
        <time>2026-09-03T06:35:27.000Z</time>
        <extensions>
          <ns3:TrackPointExtension>
            <ns3:hr>133</ns3:hr>
            <ns3:cad>0</ns3:cad>
          </ns3:TrackPointExtension>
        </extensions>
      </trkpt>
      <trkpt lat="44.7068679146468639373779296875" lon="6.7475666664540767669677734375">
        <ele>1495.5999755859375</ele>
        <time>2026-09-03T06:35:28.000Z</time>
        <extensions>
          <ns3:TrackPointExtension>
            <ns3:hr>133</ns3:hr>
            <ns3:cad>0</ns3:cad>
          </ns3:TrackPointExtension>
        </extensions>
      </trkpt>
      <trkpt lat="44.706863723695278167724609375" lon="6.74755183048546314239501953125">
        <ele>1495.800048828125</ele>
        <time>2026-09-03T06:35:29.000Z</time>
        <extensions>
          <ns3:TrackPointExtension>
            <ns3:hr>134</ns3:hr>
            <ns3:cad>0</ns3:cad>
          </ns3:TrackPointExtension>
        </extensions>
      </trkpt>
      <trkpt lat="44.70685911364853382110595703125" lon="6.74754395149648189544677734375">
        <ele>1495.800048828125</ele>
        <time>2026-09-03T06:35:30.000Z</time>
        <extensions>
          <ns3:TrackPointExtension>
            <ns3:hr>134</ns3:hr>
            <ns3:cad>0</ns3:cad>
          </ns3:TrackPointExtension>
        </extensions>
      </trkpt>
      <trkpt lat="44.706850983202457427978515625" lon="6.74751863814890384674072265625">
        <ele>1496</ele>
        <time>2026-09-03T06:35:31.000Z</time>
        <extensions>
          <ns3:TrackPointExtension>
            <ns3:hr>135</ns3:hr>
            <ns3:cad>0</ns3:cad>
          </ns3:TrackPointExtension>
        </extensions>
      </trkpt>
      <trkpt lat="44.70684905536472797393798828125" lon="6.7475059814751148223876953125">
        <ele>1496</ele>
        <time>2026-09-03T06:35:32.000Z</time>
        <extensions>
          <ns3:TrackPointExtension>
            <ns3:hr>136</ns3:hr>
            <ns3:cad>0</ns3:cad>
          </ns3:TrackPointExtension>
        </extensions>
      </trkpt>
      <trkpt lat="44.7068439424037933349609375" lon="6.747480668127536773681640625">
        <ele>1496.199951171875</ele>
        <time>2026-09-03T06:35:33.000Z</time>
        <extensions>
          <ns3:TrackPointExtension>
            <ns3:hr>135</ns3:hr>
            <ns3:cad>0</ns3:cad>
          </ns3:TrackPointExtension>
        </extensions>
      </trkpt>
      <trkpt lat="44.70684151165187358856201171875" lon="6.74746382050216197967529296875">
        <ele>1496.199951171875</ele>
        <time>2026-09-03T06:35:34.000Z</time>
        <extensions>
          <ns3:TrackPointExtension>
            <ns3:hr>136</ns3:hr>
            <ns3:cad>0</ns3:cad>
          </ns3:TrackPointExtension>
        </extensions>
      </trkpt>
      <trkpt lat="44.7068385779857635498046875" lon="6.74744588322937488555908203125">
        <ele>1496.199951171875</ele>
        <time>2026-09-03T06:35:35.000Z</time>
        <extensions>
          <ns3:TrackPointExtension>
            <ns3:hr>136</ns3:hr>
            <ns3:cad>0</ns3:cad>
          </ns3:TrackPointExtension>
        </extensions>
      </trkpt>
      <trkpt lat="44.7068343870341777801513671875" lon="6.747432053089141845703125">
        <ele>1496.4000244140625</ele>
        <time>2026-09-03T06:35:36.000Z</time>
        <extensions>
          <ns3:TrackPointExtension>
            <ns3:hr>137</ns3:hr>
            <ns3:cad>0</ns3:cad>
          </ns3:TrackPointExtension>
        </extensions>
      </trkpt>
      <trkpt lat="44.7068333812057971954345703125" lon="6.74741604365408420562744140625">
        <ele>1496.5999755859375</ele>
        <time>2026-09-03T06:35:37.000Z</time>
        <extensions>
          <ns3:TrackPointExtension>
            <ns3:hr>138</ns3:hr>
            <ns3:cad>0</ns3:cad>
          </ns3:TrackPointExtension>
        </extensions>
      </trkpt>
      <trkpt lat="44.7068337164819240570068359375" lon="6.7473996989428997039794921875">
        <ele>1496.5999755859375</ele>
        <time>2026-09-03T06:35:38.000Z</time>
        <extensions>
          <ns3:TrackPointExtension>
            <ns3:hr>139</ns3:hr>
            <ns3:cad>0</ns3:cad>
          </ns3:TrackPointExtension>
        </extensions>
      </trkpt>
      <trkpt lat="44.7068313695490360260009765625" lon="6.7473906464874744415283203125">
        <ele>1496.800048828125</ele>
        <time>2026-09-03T06:35:39.000Z</time>
        <extensions>
          <ns3:TrackPointExtension>
            <ns3:hr>139</ns3:hr>
            <ns3:cad>0</ns3:cad>
          </ns3:TrackPointExtension>
        </extensions>
      </trkpt>
      <trkpt lat="44.7068327106535434722900390625" lon="6.7473758943378925323486328125">
        <ele>1496.800048828125</ele>
        <time>2026-09-03T06:35:40.000Z</time>
        <extensions>
          <ns3:TrackPointExtension>
            <ns3:hr>140</ns3:hr>
            <ns3:cad>0</ns3:cad>
          </ns3:TrackPointExtension>
        </extensions>
      </trkpt>
      <trkpt lat="44.7068350575864315032958984375" lon="6.74736340530216693878173828125">
        <ele>1497</ele>
        <time>2026-09-03T06:35:41.000Z</time>
        <extensions>
          <ns3:TrackPointExtension>
            <ns3:hr>140</ns3:hr>
            <ns3:cad>0</ns3:cad>
          </ns3:TrackPointExtension>
        </extensions>
      </trkpt>
      <trkpt lat="44.7068330459296703338623046875" lon="6.74734328873455524444580078125">
        <ele>1497</ele>
        <time>2026-09-03T06:35:42.000Z</time>
        <extensions>
          <ns3:TrackPointExtension>
            <ns3:hr>140</ns3:hr>
            <ns3:cad>0</ns3:cad>
          </ns3:TrackPointExtension>
        </extensions>
      </trkpt>
      <trkpt lat="44.7068337164819240570068359375" lon="6.74732300452888011932373046875">
        <ele>1497.199951171875</ele>
        <time>2026-09-03T06:35:43.000Z</time>
        <extensions>
          <ns3:TrackPointExtension>
            <ns3:hr>140</ns3:hr>
            <ns3:cad>0</ns3:cad>
          </ns3:TrackPointExtension>
        </extensions>
      </trkpt>
      <trkpt lat="44.7068333812057971954345703125" lon="6.74730238504707813262939453125">
        <ele>1497.199951171875</ele>
        <time>2026-09-03T06:35:44.000Z</time>
        <extensions>
          <ns3:TrackPointExtension>
            <ns3:hr>140</ns3:hr>
            <ns3:cad>0</ns3:cad>
          </ns3:TrackPointExtension>
        </extensions>
      </trkpt>
      <trkpt lat="44.70683363266289234161376953125" lon="6.74728981219232082366943359375">
        <ele>1497.4000244140625</ele>
        <time>2026-09-03T06:35:45.000Z</time>
        <extensions>
          <ns3:TrackPointExtension>
            <ns3:hr>140</ns3:hr>
            <ns3:cad>0</ns3:cad>
          </ns3:TrackPointExtension>
        </extensions>
      </trkpt>
      <trkpt lat="44.70683413557708263397216796875" lon="6.74726634286344051361083984375">
        <ele>1497.4000244140625</ele>
        <time>2026-09-03T06:35:46.000Z</time>
        <extensions>
          <ns3:TrackPointExtension>
            <ns3:hr>140</ns3:hr>
            <ns3:cad>0</ns3:cad>
          </ns3:TrackPointExtension>
        </extensions>
      </trkpt>
      <trkpt lat="44.70683514140546321868896484375" lon="6.7472515068948268890380859375">
        <ele>1497.5999755859375</ele>
        <time>2026-09-03T06:35:47.000Z</time>
        <extensions>
          <ns3:TrackPointExtension>
            <ns3:hr>140</ns3:hr>
            <ns3:cad>0</ns3:cad>
          </ns3:TrackPointExtension>
        </extensions>
      </trkpt>
      <trkpt lat="44.7068290226161479949951171875" lon="6.74722895957529544830322265625">
        <ele>1497.5999755859375</ele>
        <time>2026-09-03T06:35:48.000Z</time>
        <extensions>
          <ns3:TrackPointExtension>
            <ns3:hr>140</ns3:hr>
            <ns3:cad>0</ns3:cad>
          </ns3:TrackPointExtension>
        </extensions>
      </trkpt>
      <trkpt lat="44.70682726241648197174072265625" lon="6.74721655435860157012939453125">
        <ele>1497.5999755859375</ele>
        <time>2026-09-03T06:35:49.000Z</time>
        <extensions>
          <ns3:TrackPointExtension>
            <ns3:hr>141</ns3:hr>
            <ns3:cad>0</ns3:cad>
          </ns3:TrackPointExtension>
        </extensions>
      </trkpt>
      <trkpt lat="44.7068249993026256561279296875" lon="6.74719124101102352142333984375">
        <ele>1497.800048828125</ele>
        <time>2026-09-03T06:35:50.000Z</time>
        <extensions>
          <ns3:TrackPointExtension>
            <ns3:hr>141</ns3:hr>
            <ns3:cad>0</ns3:cad>
          </ns3:TrackPointExtension>
        </extensions>
      </trkpt>
      <trkpt lat="44.70682474784553050994873046875" lon="6.74717397429049015045166015625">
        <ele>1498</ele>
        <time>2026-09-03T06:35:51.000Z</time>
        <extensions>
          <ns3:TrackPointExtension>
            <ns3:hr>141</ns3:hr>
            <ns3:cad>0</ns3:cad>
          </ns3:TrackPointExtension>
        </extensions>
      </trkpt>
      <trkpt lat="44.70682139508426189422607421875" lon="6.7471562884747982025146484375">
        <ele>1498</ele>
        <time>2026-09-03T06:35:52.000Z</time>
        <extensions>
          <ns3:TrackPointExtension>
            <ns3:hr>141</ns3:hr>
            <ns3:cad>0</ns3:cad>
          </ns3:TrackPointExtension>
        </extensions>
      </trkpt>
      <trkpt lat="44.7068216465413570404052734375" lon="6.7471435479819774627685546875">
        <ele>1498.199951171875</ele>
        <time>2026-09-03T06:35:53.000Z</time>
        <extensions>
          <ns3:TrackPointExtension>
            <ns3:hr>141</ns3:hr>
            <ns3:cad>0</ns3:cad>
          </ns3:TrackPointExtension>
        </extensions>
      </trkpt>
      <trkpt lat="44.7068149410188198089599609375" lon="6.74712100066244602203369140625">
        <ele>1498.199951171875</ele>
        <time>2026-09-03T06:35:54.000Z</time>
        <extensions>
          <ns3:TrackPointExtension>
            <ns3:hr>142</ns3:hr>
            <ns3:cad>0</ns3:cad>
          </ns3:TrackPointExtension>
        </extensions>
      </trkpt>
      <trkpt lat="44.70681603066623210906982421875" lon="6.7471056617796421051025390625">
        <ele>1498.4000244140625</ele>
        <time>2026-09-03T06:35:55.000Z</time>
        <extensions>
          <ns3:TrackPointExtension>
            <ns3:hr>142</ns3:hr>
            <ns3:cad>0</ns3:cad>
          </ns3:TrackPointExtension>
        </extensions>
      </trkpt>
      <trkpt lat="44.70681334845721721649169921875" lon="6.7470875568687915802001953125">
        <ele>1498.4000244140625</ele>
        <time>2026-09-03T06:35:56.000Z</time>
        <extensions>
          <ns3:TrackPointExtension>
            <ns3:hr>142</ns3:hr>
            <ns3:cad>0</ns3:cad>
          </ns3:TrackPointExtension>
        </extensions>
      </trkpt>
      <trkpt lat="44.70681301318109035491943359375" lon="6.74707070924341678619384765625">
        <ele>1498.4000244140625</ele>
        <time>2026-09-03T06:35:57.000Z</time>
        <extensions>
          <ns3:TrackPointExtension>
            <ns3:hr>142</ns3:hr>
            <ns3:cad>0</ns3:cad>
          </ns3:TrackPointExtension>
        </extensions>
      </trkpt>
      <trkpt lat="44.70681737177073955535888671875" lon="6.747057549655437469482421875">
        <ele>1498.5999755859375</ele>
        <time>2026-09-03T06:35:58.000Z</time>
        <extensions>
          <ns3:TrackPointExtension>
            <ns3:hr>141</ns3:hr>
            <ns3:cad>0</ns3:cad>
          </ns3:TrackPointExtension>
        </extensions>
      </trkpt>
      <trkpt lat="44.70681619830429553985595703125" lon="6.7470416240394115447998046875">
        <ele>1498.5999755859375</ele>
        <time>2026-09-03T06:35:59.000Z</time>
        <extensions>
          <ns3:TrackPointExtension>
            <ns3:hr>142</ns3:hr>
            <ns3:cad>0</ns3:cad>
          </ns3:TrackPointExtension>
        </extensions>
      </trkpt>
      <trkpt lat="44.7068172879517078399658203125" lon="6.7470322363078594207763671875">
        <ele>1498.800048828125</ele>
        <time>2026-09-03T06:36:00.000Z</time>
        <extensions>
          <ns3:TrackPointExtension>
            <ns3:hr>142</ns3:hr>
            <ns3:cad>0</ns3:cad>
          </ns3:TrackPointExtension>
        </extensions>
      </trkpt>
      <trkpt lat="44.70681686885654926300048828125" lon="6.74701991491019725799560546875">
        <ele>1498.800048828125</ele>
        <time>2026-09-03T06:36:01.000Z</time>
        <extensions>
          <ns3:TrackPointExtension>
            <ns3:hr>142</ns3:hr>
            <ns3:cad>0</ns3:cad>
          </ns3:TrackPointExtension>
        </extensions>
      </trkpt>
      <trkpt lat="44.70681720413267612457275390625" lon="6.74700985662639141082763671875">
        <ele>1499</ele>
        <time>2026-09-03T06:36:02.000Z</time>
        <extensions>
          <ns3:TrackPointExtension>
            <ns3:hr>141</ns3:hr>
            <ns3:cad>0</ns3:cad>
          </ns3:TrackPointExtension>
        </extensions>
      </trkpt>
      <trkpt lat="44.70681955106556415557861328125" lon="6.74699158407747745513916015625">
        <ele>1499</ele>
        <time>2026-09-03T06:36:03.000Z</time>
        <extensions>
          <ns3:TrackPointExtension>
            <ns3:hr>142</ns3:hr>
            <ns3:cad>0</ns3:cad>
          </ns3:TrackPointExtension>
        </extensions>
      </trkpt>
      <trkpt lat="44.7068246640264987945556640625" lon="6.74698605202138423919677734375">
        <ele>1499.199951171875</ele>
        <time>2026-09-03T06:36:04.000Z</time>
        <extensions>
          <ns3:TrackPointExtension>
            <ns3:hr>142</ns3:hr>
            <ns3:cad>0</ns3:cad>
          </ns3:TrackPointExtension>
        </extensions>
      </trkpt>
      <trkpt lat="44.70682826824486255645751953125" lon="6.74696928821504116058349609375">
        <ele>1499.199951171875</ele>
        <time>2026-09-03T06:36:05.000Z</time>
        <extensions>
          <ns3:TrackPointExtension>
            <ns3:hr>142</ns3:hr>
            <ns3:cad>0</ns3:cad>
          </ns3:TrackPointExtension>
        </extensions>
      </trkpt>
      <trkpt lat="44.70683061517775058746337890625" lon="6.74695353023707866668701171875">
        <ele>1499.4000244140625</ele>
        <time>2026-09-03T06:36:06.000Z</time>
        <extensions>
          <ns3:TrackPointExtension>
            <ns3:hr>142</ns3:hr>
            <ns3:cad>0</ns3:cad>
          </ns3:TrackPointExtension>
        </extensions>
      </trkpt>
      <trkpt lat="44.70683497376739978790283203125" lon="6.7469333298504352569580078125">
        <ele>1499.5999755859375</ele>
        <time>2026-09-03T06:36:07.000Z</time>
        <extensions>
          <ns3:TrackPointExtension>
            <ns3:hr>141</ns3:hr>
            <ns3:cad>0</ns3:cad>
          </ns3:TrackPointExtension>
        </extensions>
      </trkpt>
      <trkpt lat="44.7068384103477001190185546875" lon="6.7469192482531070709228515625">
        <ele>1499.5999755859375</ele>
        <time>2026-09-03T06:36:08.000Z</time>
        <extensions>
          <ns3:TrackPointExtension>
            <ns3:hr>141</ns3:hr>
            <ns3:cad>0</ns3:cad>
          </ns3:TrackPointExtension>
        </extensions>
      </trkpt>
      <trkpt lat="44.7068439424037933349609375" lon="6.74689569510519504547119140625">
        <ele>1499.800048828125</ele>
        <time>2026-09-03T06:36:09.000Z</time>
        <extensions>
          <ns3:TrackPointExtension>
            <ns3:hr>141</ns3:hr>
            <ns3:cad>0</ns3:cad>
          </ns3:TrackPointExtension>
        </extensions>
      </trkpt>
      <trkpt lat="44.7068498097360134124755859375" lon="6.74687993712723255157470703125">
        <ele>1499.800048828125</ele>
        <time>2026-09-03T06:36:10.000Z</time>
        <extensions>
          <ns3:TrackPointExtension>
            <ns3:hr>142</ns3:hr>
            <ns3:cad>0</ns3:cad>
          </ns3:TrackPointExtension>
        </extensions>
      </trkpt>
      <trkpt lat="44.70685156993567943572998046875" lon="6.7468607425689697265625">
        <ele>1500</ele>
        <time>2026-09-03T06:36:11.000Z</time>
        <extensions>
          <ns3:TrackPointExtension>
            <ns3:hr>142</ns3:hr>
            <ns3:cad>0</ns3:cad>
          </ns3:TrackPointExtension>
        </extensions>
      </trkpt>
      <trkpt lat="44.706855006515979766845703125" lon="6.74684607423841953277587890625">
        <ele>1500.199951171875</ele>
        <time>2026-09-03T06:36:12.000Z</time>
        <extensions>
          <ns3:TrackPointExtension>
            <ns3:hr>143</ns3:hr>
            <ns3:cad>0</ns3:cad>
          </ns3:TrackPointExtension>
        </extensions>
      </trkpt>
      <trkpt lat="44.70685341395437717437744140625" lon="6.7468218505382537841796875">
        <ele>1500.199951171875</ele>
        <time>2026-09-03T06:36:13.000Z</time>
        <extensions>
          <ns3:TrackPointExtension>
            <ns3:hr>143</ns3:hr>
            <ns3:cad>0</ns3:cad>
          </ns3:TrackPointExtension>
        </extensions>
      </trkpt>
      <trkpt lat="44.70685265958309173583984375" lon="6.746808104217052459716796875">
        <ele>1500.4000244140625</ele>
        <time>2026-09-03T06:36:14.000Z</time>
        <extensions>
          <ns3:TrackPointExtension>
            <ns3:hr>143</ns3:hr>
            <ns3:cad>0</ns3:cad>
          </ns3:TrackPointExtension>
        </extensions>
      </trkpt>
      <trkpt lat="44.70684972591698169708251953125" lon="6.74679008312523365020751953125">
        <ele>1500.5999755859375</ele>
        <time>2026-09-03T06:36:15.000Z</time>
        <extensions>
          <ns3:TrackPointExtension>
            <ns3:hr>144</ns3:hr>
            <ns3:cad>0</ns3:cad>
          </ns3:TrackPointExtension>
        </extensions>
      </trkpt>
      <trkpt lat="44.70684955827891826629638671875" lon="6.74677734263241291046142578125">
        <ele>1500.5999755859375</ele>
        <time>2026-09-03T06:36:16.000Z</time>
        <extensions>
          <ns3:TrackPointExtension>
            <ns3:hr>144</ns3:hr>
            <ns3:cad>0</ns3:cad>
          </ns3:TrackPointExtension>
        </extensions>
      </trkpt>
      <trkpt lat="44.70684536732733249664306640625" lon="6.74675957299768924713134765625">
        <ele>1500.800048828125</ele>
        <time>2026-09-03T06:36:17.000Z</time>
        <extensions>
          <ns3:TrackPointExtension>
            <ns3:hr>144</ns3:hr>
            <ns3:cad>0</ns3:cad>
          </ns3:TrackPointExtension>
        </extensions>
      </trkpt>
      <trkpt lat="44.70683991909027099609375" lon="6.74674951471388339996337890625">
        <ele>1501</ele>
        <time>2026-09-03T06:36:18.000Z</time>
        <extensions>
          <ns3:TrackPointExtension>
            <ns3:hr>143</ns3:hr>
            <ns3:cad>0</ns3:cad>
          </ns3:TrackPointExtension>
        </extensions>
      </trkpt>
      <trkpt lat="44.7068323753774166107177734375" lon="6.74674012698233127593994140625">
        <ele>1501</ele>
        <time>2026-09-03T06:36:19.000Z</time>
        <extensions>
          <ns3:TrackPointExtension>
            <ns3:hr>143</ns3:hr>
            <ns3:cad>0</ns3:cad>
          </ns3:TrackPointExtension>
        </extensions>
      </trkpt>
      <trkpt lat="44.7068256698548793792724609375" lon="6.74673107452690601348876953125">
        <ele>1501.199951171875</ele>
        <time>2026-09-03T06:36:20.000Z</time>
        <extensions>
          <ns3:TrackPointExtension>
            <ns3:hr>143</ns3:hr>
            <ns3:cad>0</ns3:cad>
          </ns3:TrackPointExtension>
        </extensions>
      </trkpt>
      <trkpt lat="44.706821143627166748046875" lon="6.74672554247081279754638671875">
        <ele>1501.4000244140625</ele>
        <time>2026-09-03T06:36:21.000Z</time>
        <extensions>
          <ns3:TrackPointExtension>
            <ns3:hr>143</ns3:hr>
            <ns3:cad>0</ns3:cad>
          </ns3:TrackPointExtension>
        </extensions>
      </trkpt>
      <trkpt lat="44.7068085707724094390869140625" lon="6.74671984277665615081787109375">
        <ele>1501.5999755859375</ele>
        <time>2026-09-03T06:36:22.000Z</time>
        <extensions>
          <ns3:TrackPointExtension>
            <ns3:hr>143</ns3:hr>
            <ns3:cad>0</ns3:cad>
          </ns3:TrackPointExtension>
        </extensions>
      </trkpt>
      <trkpt lat="44.706799685955047607421875" lon="6.7467180825769901275634765625">
        <ele>1501.5999755859375</ele>
        <time>2026-09-03T06:36:23.000Z</time>
        <extensions>
          <ns3:TrackPointExtension>
            <ns3:hr>142</ns3:hr>
            <ns3:cad>0</ns3:cad>
          </ns3:TrackPointExtension>
        </extensions>
      </trkpt>
      <trkpt lat="44.70678669400513172149658203125" lon="6.74672135151922702789306640625">
        <ele>1501.800048828125</ele>
        <time>2026-09-03T06:36:24.000Z</time>
        <extensions>
          <ns3:TrackPointExtension>
            <ns3:hr>142</ns3:hr>
            <ns3:cad>0</ns3:cad>
          </ns3:TrackPointExtension>
        </extensions>
      </trkpt>
      <trkpt lat="44.70677663572132587432861328125" lon="6.74672503955662250518798828125">
        <ele>1502</ele>
        <time>2026-09-03T06:36:25.000Z</time>
        <extensions>
          <ns3:TrackPointExtension>
            <ns3:hr>142</ns3:hr>
            <ns3:cad>0</ns3:cad>
          </ns3:TrackPointExtension>
        </extensions>
      </trkpt>
      <trkpt lat="44.70676557160913944244384765625" lon="6.74673425965011119842529296875">
        <ele>1502</ele>
        <time>2026-09-03T06:36:26.000Z</time>
        <extensions>
          <ns3:TrackPointExtension>
            <ns3:hr>142</ns3:hr>
            <ns3:cad>0</ns3:cad>
          </ns3:TrackPointExtension>
        </extensions>
      </trkpt>
      <trkpt lat="44.70675878226757049560546875" lon="6.746741048991680145263671875">
        <ele>1502.199951171875</ele>
        <time>2026-09-03T06:36:27.000Z</time>
        <extensions>
          <ns3:TrackPointExtension>
            <ns3:hr>141</ns3:hr>
            <ns3:cad>0</ns3:cad>
          </ns3:TrackPointExtension>
        </extensions>
      </trkpt>
      <trkpt lat="44.70675098709762096405029296875" lon="6.74675739370286464691162109375">
        <ele>1502.4000244140625</ele>
        <time>2026-09-03T06:36:28.000Z</time>
        <extensions>
          <ns3:TrackPointExtension>
            <ns3:hr>141</ns3:hr>
            <ns3:cad>0</ns3:cad>
          </ns3:TrackPointExtension>
        </extensions>
      </trkpt>
      <trkpt lat="44.7067498974502086639404296875" lon="6.74677030183374881744384765625">
        <ele>1502.5999755859375</ele>
        <time>2026-09-03T06:36:29.000Z</time>
        <extensions>
          <ns3:TrackPointExtension>
            <ns3:hr>140</ns3:hr>
            <ns3:cad>0</ns3:cad>
          </ns3:TrackPointExtension>
        </extensions>
      </trkpt>
      <trkpt lat="44.70675333403050899505615234375" lon="6.746785975992679595947265625">
        <ele>1502.800048828125</ele>
        <time>2026-09-03T06:36:30.000Z</time>
        <extensions>
          <ns3:TrackPointExtension>
            <ns3:hr>139</ns3:hr>
            <ns3:cad>0</ns3:cad>
          </ns3:TrackPointExtension>
        </extensions>
      </trkpt>
      <trkpt lat="44.70675408840179443359375" lon="6.74680265597999095916748046875">
        <ele>1502.800048828125</ele>
        <time>2026-09-03T06:36:31.000Z</time>
        <extensions>
          <ns3:TrackPointExtension>
            <ns3:hr>139</ns3:hr>
            <ns3:cad>0</ns3:cad>
          </ns3:TrackPointExtension>
        </extensions>
      </trkpt>
      <trkpt lat="44.70675568096339702606201171875" lon="6.7468136362731456756591796875">
        <ele>1503</ele>
        <time>2026-09-03T06:36:32.000Z</time>
        <extensions>
          <ns3:TrackPointExtension>
            <ns3:hr>139</ns3:hr>
            <ns3:cad>0</ns3:cad>
          </ns3:TrackPointExtension>
        </extensions>
      </trkpt>
      <trkpt lat="44.7067569382488727569580078125" lon="6.746830232441425323486328125">
        <ele>1503.199951171875</ele>
        <time>2026-09-03T06:36:33.000Z</time>
        <extensions>
          <ns3:TrackPointExtension>
            <ns3:hr>139</ns3:hr>
            <ns3:cad>0</ns3:cad>
          </ns3:TrackPointExtension>
        </extensions>
      </trkpt>
      <trkpt lat="44.70676104538142681121826171875" lon="6.74683903343975543975830078125">
        <ele>1503.199951171875</ele>
        <time>2026-09-03T06:36:34.000Z</time>
        <extensions>
          <ns3:TrackPointExtension>
            <ns3:hr>139</ns3:hr>
            <ns3:cad>0</ns3:cad>
          </ns3:TrackPointExtension>
        </extensions>
      </trkpt>
      <trkpt lat="44.70676154829561710357666015625" lon="6.7468548752367496490478515625">
        <ele>1503.4000244140625</ele>
        <time>2026-09-03T06:36:35.000Z</time>
        <extensions>
          <ns3:TrackPointExtension>
            <ns3:hr>139</ns3:hr>
            <ns3:cad>0</ns3:cad>
          </ns3:TrackPointExtension>
        </extensions>
      </trkpt>
      <trkpt lat="44.7067673318088054656982421875" lon="6.7468679510056972503662109375">
        <ele>1503.5999755859375</ele>
        <time>2026-09-03T06:36:36.000Z</time>
        <extensions>
          <ns3:TrackPointExtension>
            <ns3:hr>139</ns3:hr>
            <ns3:cad>0</ns3:cad>
          </ns3:TrackPointExtension>
        </extensions>
      </trkpt>
      <trkpt lat="44.70676825381815433502197265625" lon="6.7468847148120403289794921875">
        <ele>1503.800048828125</ele>
        <time>2026-09-03T06:36:37.000Z</time>
        <extensions>
          <ns3:TrackPointExtension>
            <ns3:hr>138</ns3:hr>
            <ns3:cad>0</ns3:cad>
          </ns3:TrackPointExtension>
        </extensions>
      </trkpt>
      <trkpt lat="44.70676909200847148895263671875" lon="6.746899969875812530517578125">
        <ele>1504</ele>
        <time>2026-09-03T06:36:38.000Z</time>
        <extensions>
          <ns3:TrackPointExtension>
            <ns3:hr>138</ns3:hr>
            <ns3:cad>0</ns3:cad>
          </ns3:TrackPointExtension>
        </extensions>
      </trkpt>
      <trkpt lat="44.70677085220813751220703125" lon="6.7469215951859951019287109375">
        <ele>1504.199951171875</ele>
        <time>2026-09-03T06:36:39.000Z</time>
        <extensions>
          <ns3:TrackPointExtension>
            <ns3:hr>138</ns3:hr>
            <ns3:cad>0</ns3:cad>
          </ns3:TrackPointExtension>
        </extensions>
      </trkpt>
      <trkpt lat="44.70677328296005725860595703125" lon="6.74693978391587734222412109375">
        <ele>1504.199951171875</ele>
        <time>2026-09-03T06:36:40.000Z</time>
        <extensions>
          <ns3:TrackPointExtension>
            <ns3:hr>138</ns3:hr>
            <ns3:cad>0</ns3:cad>
          </ns3:TrackPointExtension>
        </extensions>
      </trkpt>
      <trkpt lat="44.7067737020552158355712890625" lon="6.74696543253958225250244140625">
        <ele>1504.4000244140625</ele>
        <time>2026-09-03T06:36:41.000Z</time>
        <extensions>
          <ns3:TrackPointExtension>
            <ns3:hr>138</ns3:hr>
            <ns3:cad>0</ns3:cad>
          </ns3:TrackPointExtension>
        </extensions>
      </trkpt>
      <trkpt lat="44.7067742049694061279296875" lon="6.746982447803020477294921875">
        <ele>1504.4000244140625</ele>
        <time>2026-09-03T06:36:42.000Z</time>
        <extensions>
          <ns3:TrackPointExtension>
            <ns3:hr>137</ns3:hr>
            <ns3:cad>0</ns3:cad>
          </ns3:TrackPointExtension>
        </extensions>
      </trkpt>
      <trkpt lat="44.706775881350040435791015625" lon="6.74699896015226840972900390625">
        <ele>1504.5999755859375</ele>
        <time>2026-09-03T06:36:43.000Z</time>
        <extensions>
          <ns3:TrackPointExtension>
            <ns3:hr>138</ns3:hr>
            <ns3:cad>0</ns3:cad>
          </ns3:TrackPointExtension>
        </extensions>
      </trkpt>
      <trkpt lat="44.70677076838910579681396484375" lon="6.74701295793056488037109375">
        <ele>1504.800048828125</ele>
        <time>2026-09-03T06:36:44.000Z</time>
        <extensions>
          <ns3:TrackPointExtension>
            <ns3:hr>138</ns3:hr>
            <ns3:cad>0</ns3:cad>
          </ns3:TrackPointExtension>
        </extensions>
      </trkpt>
      <trkpt lat="44.70676758326590061187744140625" lon="6.74702234566211700439453125">
        <ele>1505</ele>
        <time>2026-09-03T06:36:45.000Z</time>
        <extensions>
          <ns3:TrackPointExtension>
            <ns3:hr>137</ns3:hr>
            <ns3:cad>0</ns3:cad>
          </ns3:TrackPointExtension>
        </extensions>
      </trkpt>
      <trkpt lat="44.706761129200458526611328125" lon="6.74704112112522125244140625">
        <ele>1505</ele>
        <time>2026-09-03T06:36:46.000Z</time>
        <extensions>
          <ns3:TrackPointExtension>
            <ns3:hr>138</ns3:hr>
            <ns3:cad>0</ns3:cad>
          </ns3:TrackPointExtension>
        </extensions>
      </trkpt>
      <trkpt lat="44.706759788095951080322265625" lon="6.74704941920936107635498046875">
        <ele>1505.199951171875</ele>
        <time>2026-09-03T06:36:47.000Z</time>
        <extensions>
          <ns3:TrackPointExtension>
            <ns3:hr>138</ns3:hr>
            <ns3:cad>0</ns3:cad>
          </ns3:TrackPointExtension>
        </extensions>
      </trkpt>
      <trkpt lat="44.70675366930663585662841796875" lon="6.747068278491497039794921875">
        <ele>1505.199951171875</ele>
        <time>2026-09-03T06:36:48.000Z</time>
        <extensions>
          <ns3:TrackPointExtension>
            <ns3:hr>138</ns3:hr>
            <ns3:cad>0</ns3:cad>
          </ns3:TrackPointExtension>
        </extensions>
      </trkpt>
      <trkpt lat="44.70675249584019184112548828125" lon="6.74708269536495208740234375">
        <ele>1505.4000244140625</ele>
        <time>2026-09-03T06:36:49.000Z</time>
        <extensions>
          <ns3:TrackPointExtension>
            <ns3:hr>138</ns3:hr>
            <ns3:cad>0</ns3:cad>
          </ns3:TrackPointExtension>
        </extensions>
      </trkpt>
      <trkpt lat="44.706742353737354278564453125" lon="6.74709904007613658905029296875">
        <ele>1505.4000244140625</ele>
        <time>2026-09-03T06:36:50.000Z</time>
        <extensions>
          <ns3:TrackPointExtension>
            <ns3:hr>138</ns3:hr>
            <ns3:cad>0</ns3:cad>
          </ns3:TrackPointExtension>
        </extensions>
      </trkpt>
      <trkpt lat="44.70673724077641963958740234375" lon="6.74711219966411590576171875">
        <ele>1505.5999755859375</ele>
        <time>2026-09-03T06:36:51.000Z</time>
        <extensions>
          <ns3:TrackPointExtension>
            <ns3:hr>138</ns3:hr>
            <ns3:cad>0</ns3:cad>
          </ns3:TrackPointExtension>
        </extensions>
      </trkpt>
      <trkpt lat="44.706726931035518646240234375" lon="6.74712359905242919921875">
        <ele>1505.5999755859375</ele>
        <time>2026-09-03T06:36:52.000Z</time>
        <extensions>
          <ns3:TrackPointExtension>
            <ns3:hr>138</ns3:hr>
            <ns3:cad>0</ns3:cad>
          </ns3:TrackPointExtension>
        </extensions>
      </trkpt>
      <trkpt lat="44.706719554960727691650390625" lon="6.74713357351720333099365234375">
        <ele>1505.800048828125</ele>
        <time>2026-09-03T06:36:53.000Z</time>
        <extensions>
          <ns3:TrackPointExtension>
            <ns3:hr>138</ns3:hr>
            <ns3:cad>0</ns3:cad>
          </ns3:TrackPointExtension>
        </extensions>
      </trkpt>
      <trkpt lat="44.70670505426824092864990234375" lon="6.747147738933563232421875">
        <ele>1506</ele>
        <time>2026-09-03T06:36:54.000Z</time>
        <extensions>
          <ns3:TrackPointExtension>
            <ns3:hr>139</ns3:hr>
            <ns3:cad>0</ns3:cad>
          </ns3:TrackPointExtension>
        </extensions>
      </trkpt>
      <trkpt lat="44.70669885165989398956298828125" lon="6.74716073088347911834716796875">
        <ele>1506.199951171875</ele>
        <time>2026-09-03T06:36:55.000Z</time>
        <extensions>
          <ns3:TrackPointExtension>
            <ns3:hr>139</ns3:hr>
            <ns3:cad>0</ns3:cad>
          </ns3:TrackPointExtension>
        </extensions>
      </trkpt>
      <trkpt lat="44.70669038593769073486328125" lon="6.74717724323272705078125">
        <ele>1506.199951171875</ele>
        <time>2026-09-03T06:36:56.000Z</time>
        <extensions>
          <ns3:TrackPointExtension>
            <ns3:hr>139</ns3:hr>
            <ns3:cad>0</ns3:cad>
          </ns3:TrackPointExtension>
        </extensions>
      </trkpt>
      <trkpt lat="44.7066830098628997802734375" lon="6.74719333648681640625">
        <ele>1506.4000244140625</ele>
        <time>2026-09-03T06:36:57.000Z</time>
        <extensions>
          <ns3:TrackPointExtension>
            <ns3:hr>139</ns3:hr>
            <ns3:cad>0</ns3:cad>
          </ns3:TrackPointExtension>
        </extensions>
      </trkpt>
      <trkpt lat="44.706676304340362548828125" lon="6.74720750190317630767822265625">
        <ele>1506.4000244140625</ele>
        <time>2026-09-03T06:36:58.000Z</time>
        <extensions>
          <ns3:TrackPointExtension>
            <ns3:hr>139</ns3:hr>
            <ns3:cad>0</ns3:cad>
          </ns3:TrackPointExtension>
        </extensions>
      </trkpt>
      <trkpt lat="44.7066687606275081634521484375" lon="6.74722225405275821685791015625">
        <ele>1506.4000244140625</ele>
        <time>2026-09-03T06:36:59.000Z</time>
        <extensions>
          <ns3:TrackPointExtension>
            <ns3:hr>139</ns3:hr>
            <ns3:cad>0</ns3:cad>
          </ns3:TrackPointExtension>
        </extensions>
      </trkpt>
      <trkpt lat="44.70666314475238323211669921875" lon="6.7472360841929912567138671875">
        <ele>1506.5999755859375</ele>
        <time>2026-09-03T06:37:00.000Z</time>
        <extensions>
          <ns3:TrackPointExtension>
            <ns3:hr>139</ns3:hr>
            <ns3:cad>0</ns3:cad>
          </ns3:TrackPointExtension>
        </extensions>
      </trkpt>
      <trkpt lat="44.70665811561048030853271484375" lon="6.747249998152256011962890625">
        <ele>1506.800048828125</ele>
        <time>2026-09-03T06:37:01.000Z</time>
        <extensions>
          <ns3:TrackPointExtension>
            <ns3:hr>140</ns3:hr>
            <ns3:cad>0</ns3:cad>
          </ns3:TrackPointExtension>
        </extensions>
      </trkpt>
      <trkpt lat="44.70665778033435344696044921875" lon="6.747259385883808135986328125">
        <ele>1506.800048828125</ele>
        <time>2026-09-03T06:37:02.000Z</time>
        <extensions>
          <ns3:TrackPointExtension>
            <ns3:hr>140</ns3:hr>
            <ns3:cad>0</ns3:cad>
          </ns3:TrackPointExtension>
        </extensions>
      </trkpt>
      <trkpt lat="44.706655181944370269775390625" lon="6.74727715551853179931640625">
        <ele>1507</ele>
        <time>2026-09-03T06:37:03.000Z</time>
        <extensions>
          <ns3:TrackPointExtension>
            <ns3:hr>141</ns3:hr>
            <ns3:cad>0</ns3:cad>
          </ns3:TrackPointExtension>
        </extensions>
      </trkpt>
      <trkpt lat="44.70665291883051395416259765625" lon="6.7472850345075130462646484375">
        <ele>1507.199951171875</ele>
        <time>2026-09-03T06:37:04.000Z</time>
        <extensions>
          <ns3:TrackPointExtension>
            <ns3:hr>141</ns3:hr>
            <ns3:cad>0</ns3:cad>
          </ns3:TrackPointExtension>
        </extensions>
      </trkpt>
      <trkpt lat="44.70664881169795989990234375" lon="6.74730506725609302520751953125">
        <ele>1507.199951171875</ele>
        <time>2026-09-03T06:37:05.000Z</time>
        <extensions>
          <ns3:TrackPointExtension>
            <ns3:hr>141</ns3:hr>
            <ns3:cad>0</ns3:cad>
          </ns3:TrackPointExtension>
        </extensions>
      </trkpt>
      <trkpt lat="44.70665015280246734619140625" lon="6.74731546081602573394775390625">
        <ele>1507.4000244140625</ele>
        <time>2026-09-03T06:37:06.000Z</time>
        <extensions>
          <ns3:TrackPointExtension>
            <ns3:hr>141</ns3:hr>
            <ns3:cad>0</ns3:cad>
          </ns3:TrackPointExtension>
        </extensions>
      </trkpt>
      <trkpt lat="44.7066489793360233306884765625" lon="6.7473368346691131591796875">
        <ele>1507.5999755859375</ele>
        <time>2026-09-03T06:37:07.000Z</time>
        <extensions>
          <ns3:TrackPointExtension>
            <ns3:hr>142</ns3:hr>
            <ns3:cad>0</ns3:cad>
          </ns3:TrackPointExtension>
        </extensions>
      </trkpt>
      <trkpt lat="44.70664872787892818450927734375" lon="6.74734965898096561431884765625">
        <ele>1507.5999755859375</ele>
        <time>2026-09-03T06:37:08.000Z</time>
        <extensions>
          <ns3:TrackPointExtension>
            <ns3:hr>142</ns3:hr>
            <ns3:cad>0</ns3:cad>
          </ns3:TrackPointExtension>
        </extensions>
      </trkpt>
      <trkpt lat="44.7066454589366912841796875" lon="6.74736893735826015472412109375">
        <ele>1507.5999755859375</ele>
        <time>2026-09-03T06:37:09.000Z</time>
        <extensions>
          <ns3:TrackPointExtension>
            <ns3:hr>143</ns3:hr>
            <ns3:cad>0</ns3:cad>
          </ns3:TrackPointExtension>
        </extensions>
      </trkpt>
      <trkpt lat="44.70664680004119873046875" lon="6.74738268367946147918701171875">
        <ele>1507.800048828125</ele>
        <time>2026-09-03T06:37:10.000Z</time>
        <extensions>
          <ns3:TrackPointExtension>
            <ns3:hr>143</ns3:hr>
            <ns3:cad>0</ns3:cad>
          </ns3:TrackPointExtension>
        </extensions>
      </trkpt>
      <trkpt lat="44.7066439501941204071044921875" lon="6.74740095622837543487548828125">
        <ele>1507.800048828125</ele>
        <time>2026-09-03T06:37:11.000Z</time>
        <extensions>
          <ns3:TrackPointExtension>
            <ns3:hr>143</ns3:hr>
            <ns3:cad>0</ns3:cad>
          </ns3:TrackPointExtension>
        </extensions>
      </trkpt>
      <trkpt lat="44.7066427767276763916015625" lon="6.74741755239665508270263671875">
        <ele>1508</ele>
        <time>2026-09-03T06:37:12.000Z</time>
        <extensions>
          <ns3:TrackPointExtension>
            <ns3:hr>143</ns3:hr>
            <ns3:cad>0</ns3:cad>
          </ns3:TrackPointExtension>
        </extensions>
      </trkpt>
      <trkpt lat="44.70664001069962978363037109375" lon="6.74743616022169589996337890625">
        <ele>1508</ele>
        <time>2026-09-03T06:37:13.000Z</time>
        <extensions>
          <ns3:TrackPointExtension>
            <ns3:hr>142</ns3:hr>
            <ns3:cad>0</ns3:cad>
          </ns3:TrackPointExtension>
        </extensions>
      </trkpt>
      <trkpt lat="44.70663866959512233734130859375" lon="6.74744881689548492431640625">
        <ele>1508.199951171875</ele>
        <time>2026-09-03T06:37:14.000Z</time>
        <extensions>
          <ns3:TrackPointExtension>
            <ns3:hr>143</ns3:hr>
            <ns3:cad>0</ns3:cad>
          </ns3:TrackPointExtension>
        </extensions>
      </trkpt>
      <trkpt lat="44.70663095824420452117919921875" lon="6.74746583215892314910888671875">
        <ele>1508.199951171875</ele>
        <time>2026-09-03T06:37:15.000Z</time>
        <extensions>
          <ns3:TrackPointExtension>
            <ns3:hr>143</ns3:hr>
            <ns3:cad>0</ns3:cad>
          </ns3:TrackPointExtension>
        </extensions>
      </trkpt>
      <trkpt lat="44.70662727020680904388427734375" lon="6.747484020888805389404296875">
        <ele>1508.4000244140625</ele>
        <time>2026-09-03T06:37:16.000Z</time>
        <extensions>
          <ns3:TrackPointExtension>
            <ns3:hr>144</ns3:hr>
            <ns3:cad>0</ns3:cad>
          </ns3:TrackPointExtension>
        </extensions>
      </trkpt>
      <trkpt lat="44.7066240012645721435546875" lon="6.74750246107578277587890625">
        <ele>1508.5999755859375</ele>
        <time>2026-09-03T06:37:17.000Z</time>
        <extensions>
          <ns3:TrackPointExtension>
            <ns3:hr>145</ns3:hr>
            <ns3:cad>0</ns3:cad>
          </ns3:TrackPointExtension>
        </extensions>
      </trkpt>
      <trkpt lat="44.706620983779430389404296875" lon="6.7475190572440624237060546875">
        <ele>1508.5999755859375</ele>
        <time>2026-09-03T06:37:18.000Z</time>
        <extensions>
          <ns3:TrackPointExtension>
            <ns3:hr>145</ns3:hr>
            <ns3:cad>0</ns3:cad>
          </ns3:TrackPointExtension>
        </extensions>
      </trkpt>
      <trkpt lat="44.70661788247525691986083984375" lon="6.7475391738116741180419921875">
        <ele>1508.800048828125</ele>
        <time>2026-09-03T06:37:19.000Z</time>
        <extensions>
          <ns3:TrackPointExtension>
            <ns3:hr>145</ns3:hr>
            <ns3:cad>0</ns3:cad>
          </ns3:TrackPointExtension>
        </extensions>
      </trkpt>
      <trkpt lat="44.70661486499011516571044921875" lon="6.74755618907511234283447265625">
        <ele>1508.800048828125</ele>
        <time>2026-09-03T06:37:20.000Z</time>
        <extensions>
          <ns3:TrackPointExtension>
            <ns3:hr>145</ns3:hr>
            <ns3:cad>0</ns3:cad>
          </ns3:TrackPointExtension>
        </extensions>
      </trkpt>
      <trkpt lat="44.7066117636859416961669921875" lon="6.7475703544914722442626953125">
        <ele>1509</ele>
        <time>2026-09-03T06:37:21.000Z</time>
        <extensions>
          <ns3:TrackPointExtension>
            <ns3:hr>144</ns3:hr>
            <ns3:cad>0</ns3:cad>
          </ns3:TrackPointExtension>
        </extensions>
      </trkpt>
      <trkpt lat="44.7066013701260089874267578125" lon="6.74758619628846645355224609375">
        <ele>1509</ele>
        <time>2026-09-03T06:37:22.000Z</time>
        <extensions>
          <ns3:TrackPointExtension>
            <ns3:hr>144</ns3:hr>
            <ns3:cad>0</ns3:cad>
          </ns3:TrackPointExtension>
        </extensions>
      </trkpt>
      <trkpt lat="44.7065949998795986175537109375" lon="6.7475988529622554779052734375">
        <ele>1509.199951171875</ele>
        <time>2026-09-03T06:37:23.000Z</time>
        <extensions>
          <ns3:TrackPointExtension>
            <ns3:hr>143</ns3:hr>
            <ns3:cad>0</ns3:cad>
          </ns3:TrackPointExtension>
        </extensions>
      </trkpt>
      <trkpt lat="44.7065864503383636474609375" lon="6.74761318601667881011962890625">
        <ele>1509.199951171875</ele>
        <time>2026-09-03T06:37:24.000Z</time>
        <extensions>
          <ns3:TrackPointExtension>
            <ns3:hr>143</ns3:hr>
            <ns3:cad>0</ns3:cad>
          </ns3:TrackPointExtension>
        </extensions>
      </trkpt>
      <trkpt lat="44.70657547004520893096923828125" lon="6.74762726761400699615478515625">
        <ele>1509.4000244140625</ele>
        <time>2026-09-03T06:37:25.000Z</time>
        <extensions>
          <ns3:TrackPointExtension>
            <ns3:hr>143</ns3:hr>
            <ns3:cad>58</ns3:cad>
          </ns3:TrackPointExtension>
        </extensions>
      </trkpt>
      <trkpt lat="44.70656700432300567626953125" lon="6.7476424388587474822998046875">
        <ele>1509.4000244140625</ele>
        <time>2026-09-03T06:37:26.000Z</time>
        <extensions>
          <ns3:TrackPointExtension>
            <ns3:hr>143</ns3:hr>
            <ns3:cad>59</ns3:cad>
          </ns3:TrackPointExtension>
        </extensions>
      </trkpt>
      <trkpt lat="44.7065591253340244293212890625" lon="6.74765643663704395294189453125">
        <ele>1509.4000244140625</ele>
        <time>2026-09-03T06:37:27.000Z</time>
        <extensions>
          <ns3:TrackPointExtension>
            <ns3:hr>143</ns3:hr>
            <ns3:cad>60</ns3:cad>
          </ns3:TrackPointExtension>
        </extensions>
      </trkpt>
      <trkpt lat="44.70655049197375774383544921875" lon="6.74766968004405498504638671875">
        <ele>1509.4000244140625</ele>
        <time>2026-09-03T06:37:28.000Z</time>
        <extensions>
          <ns3:TrackPointExtension>
            <ns3:hr>144</ns3:hr>
            <ns3:cad>60</ns3:cad>
          </ns3:TrackPointExtension>
        </extensions>
      </trkpt>
      <trkpt lat="44.70654395408928394317626953125" lon="6.74767957068979740142822265625">
        <ele>1509.4000244140625</ele>
        <time>2026-09-03T06:37:29.000Z</time>
        <extensions>
          <ns3:TrackPointExtension>
            <ns3:hr>143</ns3:hr>
            <ns3:cad>60</ns3:cad>
          </ns3:TrackPointExtension>
        </extensions>
      </trkpt>
      <trkpt lat="44.7065349854528903961181640625" lon="6.747691892087459564208984375">
        <ele>1509.5999755859375</ele>
        <time>2026-09-03T06:37:30.000Z</time>
        <extensions>
          <ns3:TrackPointExtension>
            <ns3:hr>143</ns3:hr>
            <ns3:cad>59</ns3:cad>
          </ns3:TrackPointExtension>
        </extensions>
      </trkpt>
      <trkpt lat="44.7065309621393680572509765625" lon="6.7476974241435527801513671875">
        <ele>1509.5999755859375</ele>
        <time>2026-09-03T06:37:31.000Z</time>
        <extensions>
          <ns3:TrackPointExtension>
            <ns3:hr>143</ns3:hr>
            <ns3:cad>59</ns3:cad>
          </ns3:TrackPointExtension>
        </extensions>
      </trkpt>
      <trkpt lat="44.70652232877910137176513671875" lon="6.747707314789295196533203125">
        <ele>1509.800048828125</ele>
        <time>2026-09-03T06:37:32.000Z</time>
        <extensions>
          <ns3:TrackPointExtension>
            <ns3:hr>143</ns3:hr>
            <ns3:cad>59</ns3:cad>
          </ns3:TrackPointExtension>
        </extensions>
      </trkpt>
      <trkpt lat="44.70651545561850070953369140625" lon="6.74771544523537158966064453125">
        <ele>1509.800048828125</ele>
        <time>2026-09-03T06:37:33.000Z</time>
        <extensions>
          <ns3:TrackPointExtension>
            <ns3:hr>143</ns3:hr>
            <ns3:cad>59</ns3:cad>
          </ns3:TrackPointExtension>
        </extensions>
      </trkpt>
      <trkpt lat="44.70650556497275829315185546875" lon="6.7477249167859554290771484375">
        <ele>1510</ele>
        <time>2026-09-03T06:37:34.000Z</time>
        <extensions>
          <ns3:TrackPointExtension>
            <ns3:hr>143</ns3:hr>
            <ns3:cad>59</ns3:cad>
          </ns3:TrackPointExtension>
        </extensions>
      </trkpt>
      <trkpt lat="44.7064981050789356231689453125" lon="6.74773254431784152984619140625">
        <ele>1510</ele>
        <time>2026-09-03T06:37:35.000Z</time>
        <extensions>
          <ns3:TrackPointExtension>
            <ns3:hr>142</ns3:hr>
            <ns3:cad>59</ns3:cad>
          </ns3:TrackPointExtension>
        </extensions>
      </trkpt>
      <trkpt lat="44.70648947171866893768310546875" lon="6.747744195163249969482421875">
        <ele>1510.199951171875</ele>
        <time>2026-09-03T06:37:36.000Z</time>
        <extensions>
          <ns3:TrackPointExtension>
            <ns3:hr>142</ns3:hr>
            <ns3:cad>59</ns3:cad>
          </ns3:TrackPointExtension>
        </extensions>
      </trkpt>
      <trkpt lat="44.706477820873260498046875" lon="6.74775861203670501708984375">
        <ele>1510.199951171875</ele>
        <time>2026-09-03T06:37:37.000Z</time>
        <extensions>
          <ns3:TrackPointExtension>
            <ns3:hr>142</ns3:hr>
            <ns3:cad>59</ns3:cad>
          </ns3:TrackPointExtension>
        </extensions>
      </trkpt>
      <trkpt lat="44.70646633766591548919677734375" lon="6.7477708496153354644775390625">
        <ele>1510.4000244140625</ele>
        <time>2026-09-03T06:37:38.000Z</time>
        <extensions>
          <ns3:TrackPointExtension>
            <ns3:hr>142</ns3:hr>
            <ns3:cad>59</ns3:cad>
          </ns3:TrackPointExtension>
        </extensions>
      </trkpt>
      <trkpt lat="44.70645678229629993438720703125" lon="6.7477802373468875885009765625">
        <ele>1510.5999755859375</ele>
        <time>2026-09-03T06:37:39.000Z</time>
        <extensions>
          <ns3:TrackPointExtension>
            <ns3:hr>142</ns3:hr>
            <ns3:cad>59</ns3:cad>
          </ns3:TrackPointExtension>
        </extensions>
      </trkpt>
      <trkpt lat="44.7064478136599063873291015625" lon="6.7477906309068202972412109375">
        <ele>1510.5999755859375</ele>
        <time>2026-09-03T06:37:40.000Z</time>
        <extensions>
          <ns3:TrackPointExtension>
            <ns3:hr>142</ns3:hr>
            <ns3:cad>59</ns3:cad>
          </ns3:TrackPointExtension>
        </extensions>
      </trkpt>
      <trkpt lat="44.70643918029963970184326171875" lon="6.74780010245740413665771484375">
        <ele>1510.800048828125</ele>
        <time>2026-09-03T06:37:41.000Z</time>
        <extensions>
          <ns3:TrackPointExtension>
            <ns3:hr>142</ns3:hr>
            <ns3:cad>59</ns3:cad>
          </ns3:TrackPointExtension>
        </extensions>
      </trkpt>
      <trkpt lat="44.70642660744488239288330078125" lon="6.7478134296834468841552734375">
        <ele>1511</ele>
        <time>2026-09-03T06:37:42.000Z</time>
        <extensions>
          <ns3:TrackPointExtension>
            <ns3:hr>142</ns3:hr>
            <ns3:cad>59</ns3:cad>
          </ns3:TrackPointExtension>
        </extensions>
      </trkpt>
      <trkpt lat="44.70641545951366424560546875" lon="6.74782566726207733154296875">
        <ele>1511.199951171875</ele>
        <time>2026-09-03T06:37:43.000Z</time>
        <extensions>
          <ns3:TrackPointExtension>
            <ns3:hr>142</ns3:hr>
            <ns3:cad>59</ns3:cad>
          </ns3:TrackPointExtension>
        </extensions>
      </trkpt>
      <trkpt lat="44.70640229992568492889404296875" lon="6.747837401926517486572265625">
        <ele>1511.199951171875</ele>
        <time>2026-09-03T06:37:44.000Z</time>
        <extensions>
          <ns3:TrackPointExtension>
            <ns3:hr>141</ns3:hr>
            <ns3:cad>0</ns3:cad>
          </ns3:TrackPointExtension>
        </extensions>
      </trkpt>
      <trkpt lat="44.706392325460910797119140625" lon="6.74784519709646701812744140625">
        <ele>1511.4000244140625</ele>
        <time>2026-09-03T06:37:45.000Z</time>
        <extensions>
          <ns3:TrackPointExtension>
            <ns3:hr>142</ns3:hr>
            <ns3:cad>0</ns3:cad>
          </ns3:TrackPointExtension>
        </extensions>
      </trkpt>
      <trkpt lat="44.70638218335807323455810546875" lon="6.7478513158857822418212890625">
        <ele>1511.5999755859375</ele>
        <time>2026-09-03T06:37:46.000Z</time>
        <extensions>
          <ns3:TrackPointExtension>
            <ns3:hr>142</ns3:hr>
            <ns3:cad>0</ns3:cad>
          </ns3:TrackPointExtension>
        </extensions>
      </trkpt>
      <trkpt lat="44.7063710354268550872802734375" lon="6.7478570155799388885498046875">
        <ele>1511.800048828125</ele>
        <time>2026-09-03T06:37:47.000Z</time>
        <extensions>
          <ns3:TrackPointExtension>
            <ns3:hr>141</ns3:hr>
            <ns3:cad>0</ns3:cad>
          </ns3:TrackPointExtension>
        </extensions>
      </trkpt>
      <trkpt lat="44.7063643299043178558349609375" lon="6.7478610388934612274169921875">
        <ele>1512</ele>
        <time>2026-09-03T06:37:48.000Z</time>
        <extensions>
          <ns3:TrackPointExtension>
            <ns3:hr>142</ns3:hr>
            <ns3:cad>0</ns3:cad>
          </ns3:TrackPointExtension>
        </extensions>
      </trkpt>
      <trkpt lat="44.70635452307760715484619140625" lon="6.74786598421633243560791015625">
        <ele>1512</ele>
        <time>2026-09-03T06:37:49.000Z</time>
        <extensions>
          <ns3:TrackPointExtension>
            <ns3:hr>141</ns3:hr>
            <ns3:cad>0</ns3:cad>
          </ns3:TrackPointExtension>
        </extensions>
      </trkpt>
      <trkpt lat="44.70634748227894306182861328125" lon="6.7478694207966327667236328125">
        <ele>1512.199951171875</ele>
        <time>2026-09-03T06:37:50.000Z</time>
        <extensions>
          <ns3:TrackPointExtension>
            <ns3:hr>141</ns3:hr>
            <ns3:cad>53</ns3:cad>
          </ns3:TrackPointExtension>
        </extensions>
      </trkpt>
      <trkpt lat="44.70633708871901035308837890625" lon="6.74787486903369426727294921875">
        <ele>1512.4000244140625</ele>
        <time>2026-09-03T06:37:51.000Z</time>
        <extensions>
          <ns3:TrackPointExtension>
            <ns3:hr>141</ns3:hr>
            <ns3:cad>53</ns3:cad>
          </ns3:TrackPointExtension>
        </extensions>
      </trkpt>
      <trkpt lat="44.7063271142542362213134765625" lon="6.7478811554610729217529296875">
        <ele>1512.5999755859375</ele>
        <time>2026-09-03T06:37:52.000Z</time>
        <extensions>
          <ns3:TrackPointExtension>
            <ns3:hr>141</ns3:hr>
            <ns3:cad>53</ns3:cad>
          </ns3:TrackPointExtension>
        </extensions>
      </trkpt>
      <trkpt lat="44.7063163854181766510009765625" lon="6.7478898726403713226318359375">
        <ele>1512.800048828125</ele>
        <time>2026-09-03T06:37:53.000Z</time>
        <extensions>
          <ns3:TrackPointExtension>
            <ns3:hr>140</ns3:hr>
            <ns3:cad>53</ns3:cad>
          </ns3:TrackPointExtension>
        </extensions>
      </trkpt>
      <trkpt lat="44.70630683004856109619140625" lon="6.747895069420337677001953125">
        <ele>1513</ele>
        <time>2026-09-03T06:37:54.000Z</time>
        <extensions>
          <ns3:TrackPointExtension>
            <ns3:hr>139</ns3:hr>
            <ns3:cad>53</ns3:cad>
          </ns3:TrackPointExtension>
        </extensions>
      </trkpt>
      <trkpt lat="44.7063002921640872955322265625" lon="6.747896410524845123291015625">
        <ele>1513.199951171875</ele>
        <time>2026-09-03T06:37:55.000Z</time>
        <extensions>
          <ns3:TrackPointExtension>
            <ns3:hr>139</ns3:hr>
            <ns3:cad>53</ns3:cad>
          </ns3:TrackPointExtension>
        </extensions>
      </trkpt>
      <trkpt lat="44.7062939219176769256591796875" lon="6.7479019425809383392333984375">
        <ele>1513.4000244140625</ele>
        <time>2026-09-03T06:37:56.000Z</time>
        <extensions>
          <ns3:TrackPointExtension>
            <ns3:hr>138</ns3:hr>
            <ns3:cad>53</ns3:cad>
          </ns3:TrackPointExtension>
        </extensions>
      </trkpt>
      <trkpt lat="44.70628662966191768646240234375" lon="6.747906468808650970458984375">
        <ele>1513.5999755859375</ele>
        <time>2026-09-03T06:37:57.000Z</time>
        <extensions>
          <ns3:TrackPointExtension>
            <ns3:hr>137</ns3:hr>
            <ns3:cad>0</ns3:cad>
          </ns3:TrackPointExtension>
        </extensions>
      </trkpt>
      <trkpt lat="44.7062744759023189544677734375" lon="6.747914850711822509765625">
        <ele>1513.800048828125</ele>
        <time>2026-09-03T06:37:58.000Z</time>
        <extensions>
          <ns3:TrackPointExtension>
            <ns3:hr>137</ns3:hr>
            <ns3:cad>0</ns3:cad>
          </ns3:TrackPointExtension>
        </extensions>
      </trkpt>
      <trkpt lat="44.7062645852565765380859375" lon="6.74792482517659664154052734375">
        <ele>1514</ele>
        <time>2026-09-03T06:37:59.000Z</time>
        <extensions>
          <ns3:TrackPointExtension>
            <ns3:hr>136</ns3:hr>
            <ns3:cad>0</ns3:cad>
          </ns3:TrackPointExtension>
        </extensions>
      </trkpt>
      <trkpt lat="44.7062560357153415679931640625" lon="6.74793454818427562713623046875">
        <ele>1514.199951171875</ele>
        <time>2026-09-03T06:38:00.000Z</time>
        <extensions>
          <ns3:TrackPointExtension>
            <ns3:hr>135</ns3:hr>
            <ns3:cad>0</ns3:cad>
          </ns3:TrackPointExtension>
        </extensions>
      </trkpt>
      <trkpt lat="44.706245474517345428466796875" lon="6.7479425109922885894775390625">
        <ele>1514.4000244140625</ele>
        <time>2026-09-03T06:38:01.000Z</time>
        <extensions>
          <ns3:TrackPointExtension>
            <ns3:hr>135</ns3:hr>
            <ns3:cad>0</ns3:cad>
          </ns3:TrackPointExtension>
        </extensions>
      </trkpt>
      <trkpt lat="44.7062345780432224273681640625" lon="6.747952401638031005859375">
        <ele>1514.5999755859375</ele>
        <time>2026-09-03T06:38:02.000Z</time>
        <extensions>
          <ns3:TrackPointExtension>
            <ns3:hr>135</ns3:hr>
            <ns3:cad>0</ns3:cad>
          </ns3:TrackPointExtension>
        </extensions>
      </trkpt>
      <trkpt lat="44.7062275372445583343505859375" lon="6.747959442436695098876953125">
        <ele>1514.800048828125</ele>
        <time>2026-09-03T06:38:03.000Z</time>
        <extensions>
          <ns3:TrackPointExtension>
            <ns3:hr>135</ns3:hr>
            <ns3:cad>0</ns3:cad>
          </ns3:TrackPointExtension>
        </extensions>
      </trkpt>
      <trkpt lat="44.70622074790298938751220703125" lon="6.7479693330824375152587890625">
        <ele>1515</ele>
        <time>2026-09-03T06:38:04.000Z</time>
        <extensions>
          <ns3:TrackPointExtension>
            <ns3:hr>135</ns3:hr>
            <ns3:cad>0</ns3:cad>
          </ns3:TrackPointExtension>
        </extensions>
      </trkpt>
      <trkpt lat="44.70621638931334018707275390625" lon="6.747974865138530731201171875">
        <ele>1515.199951171875</ele>
        <time>2026-09-03T06:38:05.000Z</time>
        <extensions>
          <ns3:TrackPointExtension>
            <ns3:hr>135</ns3:hr>
            <ns3:cad>0</ns3:cad>
          </ns3:TrackPointExtension>
        </extensions>
      </trkpt>
      <trkpt lat="44.70621303655207157135009765625" lon="6.74798165448009967803955078125">
        <ele>1515.4000244140625</ele>
        <time>2026-09-03T06:38:06.000Z</time>
        <extensions>
          <ns3:TrackPointExtension>
            <ns3:hr>135</ns3:hr>
            <ns3:cad>0</ns3:cad>
          </ns3:TrackPointExtension>
        </extensions>
      </trkpt>
      <trkpt lat="44.70620700158178806304931640625" lon="6.74799942411482334136962890625">
        <ele>1515.5999755859375</ele>
        <time>2026-09-03T06:38:07.000Z</time>
        <extensions>
          <ns3:TrackPointExtension>
            <ns3:hr>135</ns3:hr>
            <ns3:cad>0</ns3:cad>
          </ns3:TrackPointExtension>
        </extensions>
      </trkpt>
      <trkpt lat="44.70620616339147090911865234375" lon="6.74800680018961429595947265625">
        <ele>1515.5999755859375</ele>
        <time>2026-09-03T06:38:08.000Z</time>
        <extensions>
          <ns3:TrackPointExtension>
            <ns3:hr>135</ns3:hr>
            <ns3:cad>0</ns3:cad>
          </ns3:TrackPointExtension>
        </extensions>
      </trkpt>
      <trkpt lat="44.7062013857066631317138671875" lon="6.74802306108176708221435546875">
        <ele>1515.800048828125</ele>
        <time>2026-09-03T06:38:09.000Z</time>
        <extensions>
          <ns3:TrackPointExtension>
            <ns3:hr>135</ns3:hr>
            <ns3:cad>0</ns3:cad>
          </ns3:TrackPointExtension>
        </extensions>
      </trkpt>
      <trkpt lat="44.7062028944492340087890625" lon="6.74803865142166614532470703125">
        <ele>1516</ele>
        <time>2026-09-03T06:38:10.000Z</time>
        <extensions>
          <ns3:TrackPointExtension>
            <ns3:hr>135</ns3:hr>
            <ns3:cad>0</ns3:cad>
          </ns3:TrackPointExtension>
        </extensions>
      </trkpt>
      <trkpt lat="44.70620767213404178619384765625" lon="6.7480575107038021087646484375">
        <ele>1516.4000244140625</ele>
        <time>2026-09-03T06:38:11.000Z</time>
        <extensions>
          <ns3:TrackPointExtension>
            <ns3:hr>136</ns3:hr>
            <ns3:cad>0</ns3:cad>
          </ns3:TrackPointExtension>
        </extensions>
      </trkpt>
      <trkpt lat="44.70620616339147090911865234375" lon="6.74806999973952770233154296875">
        <ele>1516.5999755859375</ele>
        <time>2026-09-03T06:38:12.000Z</time>
        <extensions>
          <ns3:TrackPointExtension>
            <ns3:hr>136</ns3:hr>
            <ns3:cad>0</ns3:cad>
          </ns3:TrackPointExtension>
        </extensions>
      </trkpt>
      <trkpt lat="44.7062055766582489013671875" lon="6.74808626063168048858642578125">
        <ele>1516.800048828125</ele>
        <time>2026-09-03T06:38:13.000Z</time>
        <extensions>
          <ns3:TrackPointExtension>
            <ns3:hr>136</ns3:hr>
            <ns3:cad>0</ns3:cad>
          </ns3:TrackPointExtension>
        </extensions>
      </trkpt>
      <trkpt lat="44.7062027268111705780029296875" lon="6.74810201860964298248291015625">
        <ele>1517</ele>
        <time>2026-09-03T06:38:14.000Z</time>
        <extensions>
          <ns3:TrackPointExtension>
            <ns3:hr>136</ns3:hr>
            <ns3:cad>0</ns3:cad>
          </ns3:TrackPointExtension>
        </extensions>
      </trkpt>
      <trkpt lat="44.70620465464890003204345703125" lon="6.7481093108654022216796875">
        <ele>1517</ele>
        <time>2026-09-03T06:38:15.000Z</time>
        <extensions>
          <ns3:TrackPointExtension>
            <ns3:hr>136</ns3:hr>
            <ns3:cad>0</ns3:cad>
          </ns3:TrackPointExtension>
        </extensions>
      </trkpt>
      <trkpt lat="44.7061997093260288238525390625" lon="6.74812867306172847747802734375">
        <ele>1517.199951171875</ele>
        <time>2026-09-03T06:38:16.000Z</time>
        <extensions>
          <ns3:TrackPointExtension>
            <ns3:hr>136</ns3:hr>
            <ns3:cad>0</ns3:cad>
          </ns3:TrackPointExtension>
        </extensions>
      </trkpt>
      <trkpt lat="44.70619392581284046173095703125" lon="6.74813688732683658599853515625">
        <ele>1517.4000244140625</ele>
        <time>2026-09-03T06:38:17.000Z</time>
        <extensions>
          <ns3:TrackPointExtension>
            <ns3:hr>137</ns3:hr>
            <ns3:cad>0</ns3:cad>
          </ns3:TrackPointExtension>
        </extensions>
      </trkpt>
      <trkpt lat="44.706188142299652099609375" lon="6.74815398640930652618408203125">
        <ele>1517.5999755859375</ele>
        <time>2026-09-03T06:38:18.000Z</time>
        <extensions>
          <ns3:TrackPointExtension>
            <ns3:hr>137</ns3:hr>
            <ns3:cad>0</ns3:cad>
          </ns3:TrackPointExtension>
        </extensions>
      </trkpt>
      <trkpt lat="44.70618881285190582275390625" lon="6.748165301978588104248046875">
        <ele>1517.800048828125</ele>
        <time>2026-09-03T06:38:19.000Z</time>
        <extensions>
          <ns3:TrackPointExtension>
            <ns3:hr>136</ns3:hr>
            <ns3:cad>53</ns3:cad>
          </ns3:TrackPointExtension>
        </extensions>
      </trkpt>
      <trkpt lat="44.70618722029030323028564453125" lon="6.748179383575916290283203125">
        <ele>1517.800048828125</ele>
        <time>2026-09-03T06:38:20.000Z</time>
        <extensions>
          <ns3:TrackPointExtension>
            <ns3:hr>137</ns3:hr>
            <ns3:cad>53</ns3:cad>
          </ns3:TrackPointExtension>
        </extensions>
      </trkpt>
      <trkpt lat="44.70618638209998607635498046875" lon="6.7481953091919422149658203125">
        <ele>1518</ele>
        <time>2026-09-03T06:38:21.000Z</time>
        <extensions>
          <ns3:TrackPointExtension>
            <ns3:hr>137</ns3:hr>
            <ns3:cad>53</ns3:cad>
          </ns3:TrackPointExtension>
        </extensions>
      </trkpt>
      <trkpt lat="44.70618520863354206085205078125" lon="6.74820980988442897796630859375">
        <ele>1518.199951171875</ele>
        <time>2026-09-03T06:38:22.000Z</time>
        <extensions>
          <ns3:TrackPointExtension>
            <ns3:hr>137</ns3:hr>
            <ns3:cad>0</ns3:cad>
          </ns3:TrackPointExtension>
        </extensions>
      </trkpt>
      <trkpt lat="44.70618520863354206085205078125" lon="6.74822665750980377197265625">
        <ele>1518.4000244140625</ele>
        <time>2026-09-03T06:38:23.000Z</time>
        <extensions>
          <ns3:TrackPointExtension>
            <ns3:hr>136</ns3:hr>
            <ns3:cad>0</ns3:cad>
          </ns3:TrackPointExtension>
        </extensions>
      </trkpt>
      <trkpt lat="44.7061868011951446533203125" lon="6.748240403831005096435546875">
        <ele>1518.5999755859375</ele>
        <time>2026-09-03T06:38:24.000Z</time>
        <extensions>
          <ns3:TrackPointExtension>
            <ns3:hr>137</ns3:hr>
            <ns3:cad>0</ns3:cad>
          </ns3:TrackPointExtension>
        </extensions>
      </trkpt>
      <trkpt lat="44.70618604682385921478271484375" lon="6.74825909547507762908935546875">
        <ele>1518.800048828125</ele>
        <time>2026-09-03T06:38:25.000Z</time>
        <extensions>
          <ns3:TrackPointExtension>
            <ns3:hr>137</ns3:hr>
            <ns3:cad>0</ns3:cad>
          </ns3:TrackPointExtension>
        </extensions>
      </trkpt>
      <trkpt lat="44.706189148128032684326171875" lon="6.74826848320662975311279296875">
        <ele>1518.800048828125</ele>
        <time>2026-09-03T06:38:26.000Z</time>
        <extensions>
          <ns3:TrackPointExtension>
            <ns3:hr>137</ns3:hr>
            <ns3:cad>0</ns3:cad>
          </ns3:TrackPointExtension>
        </extensions>
      </trkpt>
      <trkpt lat="44.70618722029030323028564453125" lon="6.74828407354652881622314453125">
        <ele>1519</ele>
        <time>2026-09-03T06:38:27.000Z</time>
        <extensions>
          <ns3:TrackPointExtension>
            <ns3:hr>137</ns3:hr>
            <ns3:cad>0</ns3:cad>
          </ns3:TrackPointExtension>
        </extensions>
      </trkpt>
      <trkpt lat="44.70618654973804950714111328125" lon="6.7482975684106349945068359375">
        <ele>1519.199951171875</ele>
        <time>2026-09-03T06:38:28.000Z</time>
        <extensions>
          <ns3:TrackPointExtension>
            <ns3:hr>138</ns3:hr>
            <ns3:cad>0</ns3:cad>
          </ns3:TrackPointExtension>
        </extensions>
      </trkpt>
      <trkpt lat="44.7061826102435588836669921875" lon="6.748314164578914642333984375">
        <ele>1519.199951171875</ele>
        <time>2026-09-03T06:38:29.000Z</time>
        <extensions>
          <ns3:TrackPointExtension>
            <ns3:hr>138</ns3:hr>
            <ns3:cad>0</ns3:cad>
          </ns3:TrackPointExtension>
        </extensions>
      </trkpt>
      <trkpt lat="44.70617917366325855255126953125" lon="6.7483292520046234130859375">
        <ele>1519.4000244140625</ele>
        <time>2026-09-03T06:38:30.000Z</time>
        <extensions>
          <ns3:TrackPointExtension>
            <ns3:hr>139</ns3:hr>
            <ns3:cad>0</ns3:cad>
          </ns3:TrackPointExtension>
        </extensions>
      </trkpt>
      <trkpt lat="44.7061681933701038360595703125" lon="6.7483481951057910919189453125">
        <ele>1519.5999755859375</ele>
        <time>2026-09-03T06:38:31.000Z</time>
        <extensions>
          <ns3:TrackPointExtension>
            <ns3:hr>139</ns3:hr>
            <ns3:cad>0</ns3:cad>
          </ns3:TrackPointExtension>
        </extensions>
      </trkpt>
      <trkpt lat="44.7061638347804546356201171875" lon="6.74835900776088237762451171875">
        <ele>1519.800048828125</ele>
        <time>2026-09-03T06:38:32.000Z</time>
        <extensions>
          <ns3:TrackPointExtension>
            <ns3:hr>140</ns3:hr>
            <ns3:cad>0</ns3:cad>
          </ns3:TrackPointExtension>
        </extensions>
      </trkpt>
      <trkpt lat="44.70615587197244167327880859375" lon="6.74837593920528888702392578125">
        <ele>1519.800048828125</ele>
        <time>2026-09-03T06:38:33.000Z</time>
        <extensions>
          <ns3:TrackPointExtension>
            <ns3:hr>140</ns3:hr>
            <ns3:cad>0</ns3:cad>
          </ns3:TrackPointExtension>
        </extensions>
      </trkpt>
      <trkpt lat="44.70615201629698276519775390625" lon="6.74839102663099765777587890625">
        <ele>1520</ele>
        <time>2026-09-03T06:38:34.000Z</time>
        <extensions>
          <ns3:TrackPointExtension>
            <ns3:hr>140</ns3:hr>
            <ns3:cad>0</ns3:cad>
          </ns3:TrackPointExtension>
        </extensions>
      </trkpt>
      <trkpt lat="44.7061477415263652801513671875" lon="6.74840443767607212066650390625">
        <ele>1520.199951171875</ele>
        <time>2026-09-03T06:38:35.000Z</time>
        <extensions>
          <ns3:TrackPointExtension>
            <ns3:hr>140</ns3:hr>
            <ns3:cad>0</ns3:cad>
          </ns3:TrackPointExtension>
        </extensions>
      </trkpt>
      <trkpt lat="44.706142209470272064208984375" lon="6.7484162561595439910888671875">
        <ele>1520.199951171875</ele>
        <time>2026-09-03T06:38:36.000Z</time>
        <extensions>
          <ns3:TrackPointExtension>
            <ns3:hr>140</ns3:hr>
            <ns3:cad>0</ns3:cad>
          </ns3:TrackPointExtension>
        </extensions>
      </trkpt>
      <trkpt lat="44.70613860525190830230712890625" lon="6.7484326846897602081298828125">
        <ele>1520.4000244140625</ele>
        <time>2026-09-03T06:38:37.000Z</time>
        <extensions>
          <ns3:TrackPointExtension>
            <ns3:hr>140</ns3:hr>
            <ns3:cad>0</ns3:cad>
          </ns3:TrackPointExtension>
        </extensions>
      </trkpt>
      <trkpt lat="44.70613206736743450164794921875" lon="6.74844785593450069427490234375">
        <ele>1520.4000244140625</ele>
        <time>2026-09-03T06:38:38.000Z</time>
        <extensions>
          <ns3:TrackPointExtension>
            <ns3:hr>140</ns3:hr>
            <ns3:cad>0</ns3:cad>
          </ns3:TrackPointExtension>
        </extensions>
      </trkpt>
      <trkpt lat="44.70612687058746814727783203125" lon="6.74845724366605281829833984375">
        <ele>1520.5999755859375</ele>
        <time>2026-09-03T06:38:39.000Z</time>
        <extensions>
          <ns3:TrackPointExtension>
            <ns3:hr>140</ns3:hr>
            <ns3:cad>0</ns3:cad>
          </ns3:TrackPointExtension>
        </extensions>
      </trkpt>
      <trkpt lat="44.70612041652202606201171875" lon="6.74847207963466644287109375">
        <ele>1520.800048828125</ele>
        <time>2026-09-03T06:38:40.000Z</time>
        <extensions>
          <ns3:TrackPointExtension>
            <ns3:hr>140</ns3:hr>
            <ns3:cad>0</ns3:cad>
          </ns3:TrackPointExtension>
        </extensions>
      </trkpt>
      <trkpt lat="44.70611413009464740753173828125" lon="6.7484833113849163055419921875">
        <ele>1520.800048828125</ele>
        <time>2026-09-03T06:38:41.000Z</time>
        <extensions>
          <ns3:TrackPointExtension>
            <ns3:hr>140</ns3:hr>
            <ns3:cad>0</ns3:cad>
          </ns3:TrackPointExtension>
        </extensions>
      </trkpt>
      <trkpt lat="44.706107340753078460693359375" lon="6.74849747680127620697021484375">
        <ele>1521</ele>
        <time>2026-09-03T06:38:42.000Z</time>
        <extensions>
          <ns3:TrackPointExtension>
            <ns3:hr>141</ns3:hr>
            <ns3:cad>0</ns3:cad>
          </ns3:TrackPointExtension>
        </extensions>
      </trkpt>
      <trkpt lat="44.70610055141150951385498046875" lon="6.748509295284748077392578125">
        <ele>1521</ele>
        <time>2026-09-03T06:38:43.000Z</time>
        <extensions>
          <ns3:TrackPointExtension>
            <ns3:hr>141</ns3:hr>
            <ns3:cad>0</ns3:cad>
          </ns3:TrackPointExtension>
        </extensions>
      </trkpt>
      <trkpt lat="44.7060930915176868438720703125" lon="6.74851960502564907073974609375">
        <ele>1521.199951171875</ele>
        <time>2026-09-03T06:38:44.000Z</time>
        <extensions>
          <ns3:TrackPointExtension>
            <ns3:hr>141</ns3:hr>
            <ns3:cad>0</ns3:cad>
          </ns3:TrackPointExtension>
        </extensions>
      </trkpt>
      <trkpt lat="44.70608294941484928131103515625" lon="6.7485322616994380950927734375">
        <ele>1521.199951171875</ele>
        <time>2026-09-03T06:38:45.000Z</time>
        <extensions>
          <ns3:TrackPointExtension>
            <ns3:hr>141</ns3:hr>
            <ns3:cad>0</ns3:cad>
          </ns3:TrackPointExtension>
        </extensions>
      </trkpt>
      <trkpt lat="44.70607590861618518829345703125" lon="6.7485446669161319732666015625">
        <ele>1521.199951171875</ele>
        <time>2026-09-03T06:38:46.000Z</time>
        <extensions>
          <ns3:TrackPointExtension>
            <ns3:hr>141</ns3:hr>
            <ns3:cad>0</ns3:cad>
          </ns3:TrackPointExtension>
        </extensions>
      </trkpt>
      <trkpt lat="44.706065095961093902587890625" lon="6.74855732358992099761962890625">
        <ele>1521.4000244140625</ele>
        <time>2026-09-03T06:38:47.000Z</time>
        <extensions>
          <ns3:TrackPointExtension>
            <ns3:hr>141</ns3:hr>
            <ns3:cad>0</ns3:cad>
          </ns3:TrackPointExtension>
        </extensions>
      </trkpt>
      <trkpt lat="44.7060555405914783477783203125" lon="6.74856788478791713714599609375">
        <ele>1521.4000244140625</ele>
        <time>2026-09-03T06:38:48.000Z</time>
        <extensions>
          <ns3:TrackPointExtension>
            <ns3:hr>141</ns3:hr>
            <ns3:cad>0</ns3:cad>
          </ns3:TrackPointExtension>
        </extensions>
      </trkpt>
      <trkpt lat="44.70604556612670421600341796875" lon="6.748578362166881561279296875">
        <ele>1521.5999755859375</ele>
        <time>2026-09-03T06:38:49.000Z</time>
        <extensions>
          <ns3:TrackPointExtension>
            <ns3:hr>142</ns3:hr>
            <ns3:cad>57</ns3:cad>
          </ns3:TrackPointExtension>
        </extensions>
      </trkpt>
      <trkpt lat="44.706036262214183807373046875" lon="6.74858741462230682373046875">
        <ele>1521.5999755859375</ele>
        <time>2026-09-03T06:38:50.000Z</time>
        <extensions>
          <ns3:TrackPointExtension>
            <ns3:hr>142</ns3:hr>
            <ns3:cad>57</ns3:cad>
          </ns3:TrackPointExtension>
        </extensions>
      </trkpt>
      <trkpt lat="44.706025533378124237060546875" lon="6.74859520979225635528564453125">
        <ele>1521.800048828125</ele>
        <time>2026-09-03T06:38:51.000Z</time>
        <extensions>
          <ns3:TrackPointExtension>
            <ns3:hr>142</ns3:hr>
            <ns3:cad>57</ns3:cad>
          </ns3:TrackPointExtension>
        </extensions>
      </trkpt>
      <trkpt lat="44.70601438544690608978271484375" lon="6.74860845319926738739013671875">
        <ele>1521.800048828125</ele>
        <time>2026-09-03T06:38:52.000Z</time>
        <extensions>
          <ns3:TrackPointExtension>
            <ns3:hr>143</ns3:hr>
            <ns3:cad>57</ns3:cad>
          </ns3:TrackPointExtension>
        </extensions>
      </trkpt>
      <trkpt lat="44.70600483007729053497314453125" lon="6.748617924749851226806640625">
        <ele>1522</ele>
        <time>2026-09-03T06:38:53.000Z</time>
        <extensions>
          <ns3:TrackPointExtension>
            <ns3:hr>143</ns3:hr>
            <ns3:cad>0</ns3:cad>
          </ns3:TrackPointExtension>
        </extensions>
      </trkpt>
      <trkpt lat="44.705994687974452972412109375" lon="6.7486281506717205047607421875">
        <ele>1522</ele>
        <time>2026-09-03T06:38:54.000Z</time>
        <extensions>
          <ns3:TrackPointExtension>
            <ns3:hr>143</ns3:hr>
            <ns3:cad>0</ns3:cad>
          </ns3:TrackPointExtension>
        </extensions>
      </trkpt>
      <trkpt lat="44.70598421059548854827880859375" lon="6.7486395500600337982177734375">
        <ele>1522</ele>
        <time>2026-09-03T06:38:55.000Z</time>
        <extensions>
          <ns3:TrackPointExtension>
            <ns3:hr>143</ns3:hr>
            <ns3:cad>0</ns3:cad>
          </ns3:TrackPointExtension>
        </extensions>
      </trkpt>
      <trkpt lat="44.7059717215597629547119140625" lon="6.7486496083438396453857421875">
        <ele>1522.199951171875</ele>
        <time>2026-09-03T06:38:56.000Z</time>
        <extensions>
          <ns3:TrackPointExtension>
            <ns3:hr>143</ns3:hr>
            <ns3:cad>0</ns3:cad>
          </ns3:TrackPointExtension>
        </extensions>
      </trkpt>
      <trkpt lat="44.7059623338282108306884765625" lon="6.7486543022096157073974609375">
        <ele>1522.199951171875</ele>
        <time>2026-09-03T06:38:57.000Z</time>
        <extensions>
          <ns3:TrackPointExtension>
            <ns3:hr>144</ns3:hr>
            <ns3:cad>0</ns3:cad>
          </ns3:TrackPointExtension>
        </extensions>
      </trkpt>
      <trkpt lat="44.7059529460966587066650390625" lon="6.748665533959865570068359375">
        <ele>1522.4000244140625</ele>
        <time>2026-09-03T06:38:58.000Z</time>
        <extensions>
          <ns3:TrackPointExtension>
            <ns3:hr>145</ns3:hr>
            <ns3:cad>0</ns3:cad>
          </ns3:TrackPointExtension>
        </extensions>
      </trkpt>
      <trkpt lat="44.7059445641934871673583984375" lon="6.74867550842463970184326171875">
        <ele>1522.4000244140625</ele>
        <time>2026-09-03T06:38:59.000Z</time>
        <extensions>
          <ns3:TrackPointExtension>
            <ns3:hr>146</ns3:hr>
            <ns3:cad>0</ns3:cad>
          </ns3:TrackPointExtension>
        </extensions>
      </trkpt>
      <trkpt lat="44.70593257807195186614990234375" lon="6.74868824891746044158935546875">
        <ele>1522.4000244140625</ele>
        <time>2026-09-03T06:39:00.000Z</time>
        <extensions>
          <ns3:TrackPointExtension>
            <ns3:hr>146</ns3:hr>
            <ns3:cad>0</ns3:cad>
          </ns3:TrackPointExtension>
        </extensions>
      </trkpt>
      <trkpt lat="44.705926291644573211669921875" lon="6.748698055744171142578125">
        <ele>1522.4000244140625</ele>
        <time>2026-09-03T06:39:01.000Z</time>
        <extensions>
          <ns3:TrackPointExtension>
            <ns3:hr>147</ns3:hr>
            <ns3:cad>0</ns3:cad>
          </ns3:TrackPointExtension>
        </extensions>
      </trkpt>
      <trkpt lat="44.70592101104557514190673828125" lon="6.74871020950376987457275390625">
        <ele>1522.5999755859375</ele>
        <time>2026-09-03T06:39:02.000Z</time>
        <extensions>
          <ns3:TrackPointExtension>
            <ns3:hr>147</ns3:hr>
            <ns3:cad>0</ns3:cad>
          </ns3:TrackPointExtension>
        </extensions>
      </trkpt>
      <trkpt lat="44.705909527838230133056640625" lon="6.7487250454723834991455078125">
        <ele>1522.5999755859375</ele>
        <time>2026-09-03T06:39:03.000Z</time>
        <extensions>
          <ns3:TrackPointExtension>
            <ns3:hr>147</ns3:hr>
            <ns3:cad>0</ns3:cad>
          </ns3:TrackPointExtension>
        </extensions>
      </trkpt>
      <trkpt lat="44.70590181648731231689453125" lon="6.74873870797455310821533203125">
        <ele>1522.5999755859375</ele>
        <time>2026-09-03T06:39:04.000Z</time>
        <extensions>
          <ns3:TrackPointExtension>
            <ns3:hr>147</ns3:hr>
            <ns3:cad>0</ns3:cad>
          </ns3:TrackPointExtension>
        </extensions>
      </trkpt>
      <trkpt lat="44.70588840544223785400390625" lon="6.7487518675625324249267578125">
        <ele>1522.800048828125</ele>
        <time>2026-09-03T06:39:05.000Z</time>
        <extensions>
          <ns3:TrackPointExtension>
            <ns3:hr>148</ns3:hr>
            <ns3:cad>0</ns3:cad>
          </ns3:TrackPointExtension>
        </extensions>
      </trkpt>
      <trkpt lat="44.70588077791035175323486328125" lon="6.748762428760528564453125">
        <ele>1523</ele>
        <time>2026-09-03T06:39:06.000Z</time>
        <extensions>
          <ns3:TrackPointExtension>
            <ns3:hr>148</ns3:hr>
            <ns3:cad>0</ns3:cad>
          </ns3:TrackPointExtension>
        </extensions>
      </trkpt>
      <trkpt lat="44.70587155781686305999755859375" lon="6.74877407960593700408935546875">
        <ele>1523</ele>
        <time>2026-09-03T06:39:07.000Z</time>
        <extensions>
          <ns3:TrackPointExtension>
            <ns3:hr>148</ns3:hr>
            <ns3:cad>0</ns3:cad>
          </ns3:TrackPointExtension>
        </extensions>
      </trkpt>
      <trkpt lat="44.705863259732723236083984375" lon="6.74878564663231372833251953125">
        <ele>1523</ele>
        <time>2026-09-03T06:39:08.000Z</time>
        <extensions>
          <ns3:TrackPointExtension>
            <ns3:hr>148</ns3:hr>
            <ns3:cad>0</ns3:cad>
          </ns3:TrackPointExtension>
        </extensions>
      </trkpt>
      <trkpt lat="44.70585630275309085845947265625" lon="6.7487964592874050140380859375">
        <ele>1523</ele>
        <time>2026-09-03T06:39:09.000Z</time>
        <extensions>
          <ns3:TrackPointExtension>
            <ns3:hr>147</ns3:hr>
            <ns3:cad>0</ns3:cad>
          </ns3:TrackPointExtension>
        </extensions>
      </trkpt>
      <trkpt lat="44.7058490104973316192626953125" lon="6.7488066852092742919921875">
        <ele>1523</ele>
        <time>2026-09-03T06:39:10.000Z</time>
        <extensions>
          <ns3:TrackPointExtension>
            <ns3:hr>147</ns3:hr>
            <ns3:cad>0</ns3:cad>
          </ns3:TrackPointExtension>
        </extensions>
      </trkpt>
      <trkpt lat="44.7058416344225406646728515625" lon="6.74881699495017528533935546875">
        <ele>1523</ele>
        <time>2026-09-03T06:39:11.000Z</time>
        <extensions>
          <ns3:TrackPointExtension>
            <ns3:hr>147</ns3:hr>
            <ns3:cad>0</ns3:cad>
          </ns3:TrackPointExtension>
        </extensions>
      </trkpt>
      <trkpt lat="44.7058386169373989105224609375" lon="6.7488242872059345245361328125">
        <ele>1523.199951171875</ele>
        <time>2026-09-03T06:39:12.000Z</time>
        <extensions>
          <ns3:TrackPointExtension>
            <ns3:hr>147</ns3:hr>
            <ns3:cad>0</ns3:cad>
          </ns3:TrackPointExtension>
        </extensions>
      </trkpt>
      <trkpt lat="44.70583140850067138671875" lon="6.74883677624166011810302734375">
        <ele>1523.199951171875</ele>
        <time>2026-09-03T06:39:13.000Z</time>
        <extensions>
          <ns3:TrackPointExtension>
            <ns3:hr>147</ns3:hr>
            <ns3:cad>57</ns3:cad>
          </ns3:TrackPointExtension>
        </extensions>
      </trkpt>
      <trkpt lat="44.7058238647878170013427734375" lon="6.74884834326803684234619140625">
        <ele>1523.199951171875</ele>
        <time>2026-09-03T06:39:14.000Z</time>
        <extensions>
          <ns3:TrackPointExtension>
            <ns3:hr>147</ns3:hr>
            <ns3:cad>57</ns3:cad>
          </ns3:TrackPointExtension>
        </extensions>
      </trkpt>
      <trkpt lat="44.70581690780818462371826171875" lon="6.7488611675798892974853515625">
        <ele>1523.4000244140625</ele>
        <time>2026-09-03T06:39:15.000Z</time>
        <extensions>
          <ns3:TrackPointExtension>
            <ns3:hr>146</ns3:hr>
            <ns3:cad>57</ns3:cad>
          </ns3:TrackPointExtension>
        </extensions>
      </trkpt>
      <trkpt lat="44.70581104047596454620361328125" lon="6.7488715611398220062255859375">
        <ele>1523.5999755859375</ele>
        <time>2026-09-03T06:39:16.000Z</time>
        <extensions>
          <ns3:TrackPointExtension>
            <ns3:hr>146</ns3:hr>
            <ns3:cad>57</ns3:cad>
          </ns3:TrackPointExtension>
        </extensions>
      </trkpt>
      <trkpt lat="44.70580257475376129150390625" lon="6.74888455308973789215087890625">
        <ele>1523.5999755859375</ele>
        <time>2026-09-03T06:39:17.000Z</time>
        <extensions>
          <ns3:TrackPointExtension>
            <ns3:hr>146</ns3:hr>
            <ns3:cad>57</ns3:cad>
          </ns3:TrackPointExtension>
        </extensions>
      </trkpt>
      <trkpt lat="44.705797545611858367919921875" lon="6.748896203935146331787109375">
        <ele>1523.800048828125</ele>
        <time>2026-09-03T06:39:18.000Z</time>
        <extensions>
          <ns3:TrackPointExtension>
            <ns3:hr>146</ns3:hr>
            <ns3:cad>57</ns3:cad>
          </ns3:TrackPointExtension>
        </extensions>
      </trkpt>
      <trkpt lat="44.705787487328052520751953125" lon="6.74890953116118907928466796875">
        <ele>1524</ele>
        <time>2026-09-03T06:39:19.000Z</time>
        <extensions>
          <ns3:TrackPointExtension>
            <ns3:hr>146</ns3:hr>
            <ns3:cad>57</ns3:cad>
          </ns3:TrackPointExtension>
        </extensions>
      </trkpt>
      <trkpt lat="44.70577985979616641998291015625" lon="6.74892193637788295745849609375">
        <ele>1524</ele>
        <time>2026-09-03T06:39:20.000Z</time>
        <extensions>
          <ns3:TrackPointExtension>
            <ns3:hr>146</ns3:hr>
            <ns3:cad>57</ns3:cad>
          </ns3:TrackPointExtension>
        </extensions>
      </trkpt>
      <trkpt lat="44.70577298663556575775146484375" lon="6.7489359341561794281005859375">
        <ele>1524.199951171875</ele>
        <time>2026-09-03T06:39:21.000Z</time>
        <extensions>
          <ns3:TrackPointExtension>
            <ns3:hr>145</ns3:hr>
            <ns3:cad>0</ns3:cad>
          </ns3:TrackPointExtension>
        </extensions>
      </trkpt>
      <trkpt lat="44.70576661638915538787841796875" lon="6.748950518667697906494140625">
        <ele>1524.199951171875</ele>
        <time>2026-09-03T06:39:22.000Z</time>
        <extensions>
          <ns3:TrackPointExtension>
            <ns3:hr>144</ns3:hr>
            <ns3:cad>0</ns3:cad>
          </ns3:TrackPointExtension>
        </extensions>
      </trkpt>
      <trkpt lat="44.70576276071369647979736328125" lon="6.74896535463631153106689453125">
        <ele>1524.4000244140625</ele>
        <time>2026-09-03T06:39:23.000Z</time>
        <extensions>
          <ns3:TrackPointExtension>
            <ns3:hr>143</ns3:hr>
            <ns3:cad>0</ns3:cad>
          </ns3:TrackPointExtension>
        </extensions>
      </trkpt>
      <trkpt lat="44.7057571448385715484619140625" lon="6.7489785142242908477783203125">
        <ele>1524.4000244140625</ele>
        <time>2026-09-03T06:39:24.000Z</time>
        <extensions>
          <ns3:TrackPointExtension>
            <ns3:hr>142</ns3:hr>
            <ns3:cad>0</ns3:cad>
          </ns3:TrackPointExtension>
        </extensions>
      </trkpt>
      <trkpt lat="44.70575136132538318634033203125" lon="6.74898982979357242584228515625">
        <ele>1524.5999755859375</ele>
        <time>2026-09-03T06:39:25.000Z</time>
        <extensions>
          <ns3:TrackPointExtension>
            <ns3:hr>141</ns3:hr>
            <ns3:cad>0</ns3:cad>
          </ns3:TrackPointExtension>
        </extensions>
      </trkpt>
      <trkpt lat="44.7057444043457508087158203125" lon="6.74900676123797893524169921875">
        <ele>1524.5999755859375</ele>
        <time>2026-09-03T06:39:26.000Z</time>
        <extensions>
          <ns3:TrackPointExtension>
            <ns3:hr>141</ns3:hr>
            <ns3:cad>0</ns3:cad>
          </ns3:TrackPointExtension>
        </extensions>
      </trkpt>
      <trkpt lat="44.7057366929948329925537109375" lon="6.74902285449206829071044921875">
        <ele>1524.800048828125</ele>
        <time>2026-09-03T06:39:27.000Z</time>
        <extensions>
          <ns3:TrackPointExtension>
            <ns3:hr>141</ns3:hr>
            <ns3:cad>0</ns3:cad>
          </ns3:TrackPointExtension>
        </extensions>
      </trkpt>
      <trkpt lat="44.70572973601520061492919921875" lon="6.74903894774615764617919921875">
        <ele>1525</ele>
        <time>2026-09-03T06:39:28.000Z</time>
        <extensions>
          <ns3:TrackPointExtension>
            <ns3:hr>141</ns3:hr>
            <ns3:cad>42</ns3:cad>
          </ns3:TrackPointExtension>
        </extensions>
      </trkpt>
      <trkpt lat="44.70572319813072681427001953125" lon="6.74905143678188323974609375">
        <ele>1525</ele>
        <time>2026-09-03T06:39:29.000Z</time>
        <extensions>
          <ns3:TrackPointExtension>
            <ns3:hr>140</ns3:hr>
            <ns3:cad>42</ns3:cad>
          </ns3:TrackPointExtension>
        </extensions>
      </trkpt>
      <trkpt lat="44.70571942627429962158203125" lon="6.7490666918456554412841796875">
        <ele>1525.199951171875</ele>
        <time>2026-09-03T06:39:30.000Z</time>
        <extensions>
          <ns3:TrackPointExtension>
            <ns3:hr>140</ns3:hr>
            <ns3:cad>0</ns3:cad>
          </ns3:TrackPointExtension>
        </extensions>
      </trkpt>
      <trkpt lat="44.70571330748498439788818359375" lon="6.74907146953046321868896484375">
        <ele>1525.199951171875</ele>
        <time>2026-09-03T06:39:31.000Z</time>
        <extensions>
          <ns3:TrackPointExtension>
            <ns3:hr>140</ns3:hr>
            <ns3:cad>0</ns3:cad>
          </ns3:TrackPointExtension>
        </extensions>
      </trkpt>
      <trkpt lat="44.70570601522922515869140625" lon="6.74908722750842571258544921875">
        <ele>1525.4000244140625</ele>
        <time>2026-09-03T06:39:32.000Z</time>
        <extensions>
          <ns3:TrackPointExtension>
            <ns3:hr>140</ns3:hr>
            <ns3:cad>0</ns3:cad>
          </ns3:TrackPointExtension>
        </extensions>
      </trkpt>
      <trkpt lat="44.705702997744083404541015625" lon="6.749097369611263275146484375">
        <ele>1525.4000244140625</ele>
        <time>2026-09-03T06:39:33.000Z</time>
        <extensions>
          <ns3:TrackPointExtension>
            <ns3:hr>140</ns3:hr>
            <ns3:cad>0</ns3:cad>
          </ns3:TrackPointExtension>
        </extensions>
      </trkpt>
      <trkpt lat="44.70569671131670475006103515625" lon="6.74911421723663806915283203125">
        <ele>1525.5999755859375</ele>
        <time>2026-09-03T06:39:34.000Z</time>
        <extensions>
          <ns3:TrackPointExtension>
            <ns3:hr>140</ns3:hr>
            <ns3:cad>0</ns3:cad>
          </ns3:TrackPointExtension>
        </extensions>
      </trkpt>
      <trkpt lat="44.7056927718222141265869140625" lon="6.749127544462680816650390625">
        <ele>1525.5999755859375</ele>
        <time>2026-09-03T06:39:35.000Z</time>
        <extensions>
          <ns3:TrackPointExtension>
            <ns3:hr>140</ns3:hr>
            <ns3:cad>0</ns3:cad>
          </ns3:TrackPointExtension>
        </extensions>
      </trkpt>
      <trkpt lat="44.7056860662996768951416015625" lon="6.74914221279323101043701171875">
        <ele>1525.800048828125</ele>
        <time>2026-09-03T06:39:36.000Z</time>
        <extensions>
          <ns3:TrackPointExtension>
            <ns3:hr>140</ns3:hr>
            <ns3:cad>0</ns3:cad>
          </ns3:TrackPointExtension>
        </extensions>
      </trkpt>
      <trkpt lat="44.7056803666055202484130859375" lon="6.7491567134857177734375">
        <ele>1525.800048828125</ele>
        <time>2026-09-03T06:39:37.000Z</time>
        <extensions>
          <ns3:TrackPointExtension>
            <ns3:hr>140</ns3:hr>
            <ns3:cad>56</ns3:cad>
          </ns3:TrackPointExtension>
        </extensions>
      </trkpt>
      <trkpt lat="44.70567458309233188629150390625" lon="6.74917213618755340576171875">
        <ele>1526</ele>
        <time>2026-09-03T06:39:38.000Z</time>
        <extensions>
          <ns3:TrackPointExtension>
            <ns3:hr>139</ns3:hr>
            <ns3:cad>56</ns3:cad>
          </ns3:TrackPointExtension>
        </extensions>
      </trkpt>
      <trkpt lat="44.7056703083217144012451171875" lon="6.7491867206990718841552734375">
        <ele>1526.199951171875</ele>
        <time>2026-09-03T06:39:39.000Z</time>
        <extensions>
          <ns3:TrackPointExtension>
            <ns3:hr>139</ns3:hr>
            <ns3:cad>56</ns3:cad>
          </ns3:TrackPointExtension>
        </extensions>
      </trkpt>
      <trkpt lat="44.705666117370128631591796875" lon="6.74919870682060718536376953125">
        <ele>1526.4000244140625</ele>
        <time>2026-09-03T06:39:40.000Z</time>
        <extensions>
          <ns3:TrackPointExtension>
            <ns3:hr>139</ns3:hr>
            <ns3:cad>56</ns3:cad>
          </ns3:TrackPointExtension>
        </extensions>
      </trkpt>
      <trkpt lat="44.70566050149500370025634765625" lon="6.7492152191698551177978515625">
        <ele>1526.4000244140625</ele>
        <time>2026-09-03T06:39:41.000Z</time>
        <extensions>
          <ns3:TrackPointExtension>
            <ns3:hr>139</ns3:hr>
            <ns3:cad>55</ns3:cad>
          </ns3:TrackPointExtension>
        </extensions>
      </trkpt>
      <trkpt lat="44.70565563999116420745849609375" lon="6.74922938458621501922607421875">
        <ele>1526.5999755859375</ele>
        <time>2026-09-03T06:39:42.000Z</time>
        <extensions>
          <ns3:TrackPointExtension>
            <ns3:hr>139</ns3:hr>
            <ns3:cad>0</ns3:cad>
          </ns3:TrackPointExtension>
        </extensions>
      </trkpt>
      <trkpt lat="44.7056491859257221221923828125" lon="6.749246232211589813232421875">
        <ele>1526.800048828125</ele>
        <time>2026-09-03T06:39:43.000Z</time>
        <extensions>
          <ns3:TrackPointExtension>
            <ns3:hr>138</ns3:hr>
            <ns3:cad>0</ns3:cad>
          </ns3:TrackPointExtension>
        </extensions>
      </trkpt>
      <trkpt lat="44.70564574934542179107666015625" lon="6.7492537759244441986083984375">
        <ele>1526.800048828125</ele>
        <time>2026-09-03T06:39:44.000Z</time>
        <extensions>
          <ns3:TrackPointExtension>
            <ns3:hr>138</ns3:hr>
            <ns3:cad>0</ns3:cad>
          </ns3:TrackPointExtension>
        </extensions>
      </trkpt>
      <trkpt lat="44.705639295279979705810546875" lon="6.74926626496016979217529296875">
        <ele>1527</ele>
        <time>2026-09-03T06:39:45.000Z</time>
        <extensions>
          <ns3:TrackPointExtension>
            <ns3:hr>138</ns3:hr>
            <ns3:cad>0</ns3:cad>
          </ns3:TrackPointExtension>
        </extensions>
      </trkpt>
      <trkpt lat="44.7056351043283939361572265625" lon="6.7492738924920558929443359375">
        <ele>1527.199951171875</ele>
        <time>2026-09-03T06:39:46.000Z</time>
        <extensions>
          <ns3:TrackPointExtension>
            <ns3:hr>137</ns3:hr>
            <ns3:cad>0</ns3:cad>
          </ns3:TrackPointExtension>
        </extensions>
      </trkpt>
      <trkpt lat="44.70562814734876155853271484375" lon="6.74928135238587856292724609375">
        <ele>1527.199951171875</ele>
        <time>2026-09-03T06:39:47.000Z</time>
        <extensions>
          <ns3:TrackPointExtension>
            <ns3:hr>137</ns3:hr>
            <ns3:cad>0</ns3:cad>
          </ns3:TrackPointExtension>
        </extensions>
      </trkpt>
      <trkpt lat="44.70562261529266834259033203125" lon="6.749289818108081817626953125">
        <ele>1527.4000244140625</ele>
        <time>2026-09-03T06:39:48.000Z</time>
        <extensions>
          <ns3:TrackPointExtension>
            <ns3:hr>137</ns3:hr>
            <ns3:cad>0</ns3:cad>
          </ns3:TrackPointExtension>
        </extensions>
      </trkpt>
      <trkpt lat="44.705615155398845672607421875" lon="6.74930356442928314208984375">
        <ele>1527.5999755859375</ele>
        <time>2026-09-03T06:39:49.000Z</time>
        <extensions>
          <ns3:TrackPointExtension>
            <ns3:hr>137</ns3:hr>
            <ns3:cad>0</ns3:cad>
          </ns3:TrackPointExtension>
        </extensions>
      </trkpt>
      <trkpt lat="44.70561238937079906463623046875" lon="6.74931555055081844329833984375">
        <ele>1527.800048828125</ele>
        <time>2026-09-03T06:39:50.000Z</time>
        <extensions>
          <ns3:TrackPointExtension>
            <ns3:hr>137</ns3:hr>
            <ns3:cad>0</ns3:cad>
          </ns3:TrackPointExtension>
        </extensions>
      </trkpt>
      <trkpt lat="44.705613143742084503173828125" lon="6.74932778812944889068603515625">
        <ele>1528</ele>
        <time>2026-09-03T06:39:51.000Z</time>
        <extensions>
          <ns3:TrackPointExtension>
            <ns3:hr>137</ns3:hr>
            <ns3:cad>0</ns3:cad>
          </ns3:TrackPointExtension>
        </extensions>
      </trkpt>
      <trkpt lat="44.7056106291711330413818359375" lon="6.74934153445065021514892578125">
        <ele>1528.199951171875</ele>
        <time>2026-09-03T06:39:52.000Z</time>
        <extensions>
          <ns3:TrackPointExtension>
            <ns3:hr>138</ns3:hr>
            <ns3:cad>0</ns3:cad>
          </ns3:TrackPointExtension>
        </extensions>
      </trkpt>
      <trkpt lat="44.70560601912438869476318359375" lon="6.74935058690607547760009765625">
        <ele>1528.199951171875</ele>
        <time>2026-09-03T06:39:53.000Z</time>
        <extensions>
          <ns3:TrackPointExtension>
            <ns3:hr>137</ns3:hr>
            <ns3:cad>0</ns3:cad>
          </ns3:TrackPointExtension>
        </extensions>
      </trkpt>
      <trkpt lat="44.70560149289667606353759765625" lon="6.7493644170463085174560546875">
        <ele>1528.4000244140625</ele>
        <time>2026-09-03T06:39:54.000Z</time>
        <extensions>
          <ns3:TrackPointExtension>
            <ns3:hr>137</ns3:hr>
            <ns3:cad>0</ns3:cad>
          </ns3:TrackPointExtension>
        </extensions>
      </trkpt>
      <trkpt lat="44.70559797249734401702880859375" lon="6.7493771575391292572021484375">
        <ele>1528.4000244140625</ele>
        <time>2026-09-03T06:39:55.000Z</time>
        <extensions>
          <ns3:TrackPointExtension>
            <ns3:hr>137</ns3:hr>
            <ns3:cad>0</ns3:cad>
          </ns3:TrackPointExtension>
        </extensions>
      </trkpt>
      <trkpt lat="44.70558824948966503143310546875" lon="6.749393753707408905029296875">
        <ele>1528.5999755859375</ele>
        <time>2026-09-03T06:39:56.000Z</time>
        <extensions>
          <ns3:TrackPointExtension>
            <ns3:hr>138</ns3:hr>
            <ns3:cad>0</ns3:cad>
          </ns3:TrackPointExtension>
        </extensions>
      </trkpt>
      <trkpt lat="44.70558674074709415435791015625" lon="6.74940221942961215972900390625">
        <ele>1528.800048828125</ele>
        <time>2026-09-03T06:39:57.000Z</time>
        <extensions>
          <ns3:TrackPointExtension>
            <ns3:hr>137</ns3:hr>
            <ns3:cad>0</ns3:cad>
          </ns3:TrackPointExtension>
        </extensions>
      </trkpt>
      <trkpt lat="44.705582298338413238525390625" lon="6.74941697157919406890869140625">
        <ele>1529</ele>
        <time>2026-09-03T06:39:58.000Z</time>
        <extensions>
          <ns3:TrackPointExtension>
            <ns3:hr>137</ns3:hr>
            <ns3:cad>0</ns3:cad>
          </ns3:TrackPointExtension>
        </extensions>
      </trkpt>
      <trkpt lat="44.70557634718716144561767578125" lon="6.74942987971007823944091796875">
        <ele>1529.199951171875</ele>
        <time>2026-09-03T06:39:59.000Z</time>
        <extensions>
          <ns3:TrackPointExtension>
            <ns3:hr>137</ns3:hr>
            <ns3:cad>0</ns3:cad>
          </ns3:TrackPointExtension>
        </extensions>
      </trkpt>
      <trkpt lat="44.70556561835110187530517578125" lon="6.74944748170673847198486328125">
        <ele>1529.4000244140625</ele>
        <time>2026-09-03T06:40:00.000Z</time>
        <extensions>
          <ns3:TrackPointExtension>
            <ns3:hr>136</ns3:hr>
            <ns3:cad>0</ns3:cad>
          </ns3:TrackPointExtension>
        </extensions>
      </trkpt>
      <trkpt lat="44.70555908046662807464599609375" lon="6.7494584619998931884765625">
        <ele>1529.5999755859375</ele>
        <time>2026-09-03T06:40:01.000Z</time>
        <extensions>
          <ns3:TrackPointExtension>
            <ns3:hr>136</ns3:hr>
            <ns3:cad>0</ns3:cad>
          </ns3:TrackPointExtension>
        </extensions>
      </trkpt>
      <trkpt lat="44.70555715262889862060546875" lon="6.7494678497314453125">
        <ele>1529.5999755859375</ele>
        <time>2026-09-03T06:40:02.000Z</time>
        <extensions>
          <ns3:TrackPointExtension>
            <ns3:hr>136</ns3:hr>
            <ns3:cad>0</ns3:cad>
          </ns3:TrackPointExtension>
        </extensions>
      </trkpt>
      <trkpt lat="44.7055492736399173736572265625" lon="6.74948067404329776763916015625">
        <ele>1529.800048828125</ele>
        <time>2026-09-03T06:40:03.000Z</time>
        <extensions>
          <ns3:TrackPointExtension>
            <ns3:hr>136</ns3:hr>
            <ns3:cad>0</ns3:cad>
          </ns3:TrackPointExtension>
        </extensions>
      </trkpt>
      <trkpt lat="44.70554583705961704254150390625" lon="6.74948872067034244537353515625">
        <ele>1530</ele>
        <time>2026-09-03T06:40:04.000Z</time>
        <extensions>
          <ns3:TrackPointExtension>
            <ns3:hr>136</ns3:hr>
            <ns3:cad>0</ns3:cad>
          </ns3:TrackPointExtension>
        </extensions>
      </trkpt>
      <trkpt lat="44.70553594641387462615966796875" lon="6.7495048977434635162353515625">
        <ele>1530.199951171875</ele>
        <time>2026-09-03T06:40:05.000Z</time>
        <extensions>
          <ns3:TrackPointExtension>
            <ns3:hr>136</ns3:hr>
            <ns3:cad>0</ns3:cad>
          </ns3:TrackPointExtension>
        </extensions>
      </trkpt>
      <trkpt lat="44.705529995262622833251953125" lon="6.74951621331274509429931640625">
        <ele>1530.199951171875</ele>
        <time>2026-09-03T06:40:06.000Z</time>
        <extensions>
          <ns3:TrackPointExtension>
            <ns3:hr>135</ns3:hr>
            <ns3:cad>0</ns3:cad>
          </ns3:TrackPointExtension>
        </extensions>
      </trkpt>
      <trkpt lat="44.70551733858883380889892578125" lon="6.74953758716583251953125">
        <ele>1530.4000244140625</ele>
        <time>2026-09-03T06:40:07.000Z</time>
        <extensions>
          <ns3:TrackPointExtension>
            <ns3:hr>135</ns3:hr>
            <ns3:cad>0</ns3:cad>
          </ns3:TrackPointExtension>
        </extensions>
      </trkpt>
      <trkpt lat="44.70551281236112117767333984375" lon="6.74954806454479694366455078125">
        <ele>1530.5999755859375</ele>
        <time>2026-09-03T06:40:08.000Z</time>
        <extensions>
          <ns3:TrackPointExtension>
            <ns3:hr>135</ns3:hr>
            <ns3:cad>0</ns3:cad>
          </ns3:TrackPointExtension>
        </extensions>
      </trkpt>
      <trkpt lat="44.7055003233253955841064453125" lon="6.7495655827224254608154296875">
        <ele>1530.800048828125</ele>
        <time>2026-09-03T06:40:09.000Z</time>
        <extensions>
          <ns3:TrackPointExtension>
            <ns3:hr>135</ns3:hr>
            <ns3:cad>0</ns3:cad>
          </ns3:TrackPointExtension>
        </extensions>
      </trkpt>
      <trkpt lat="44.70549168996512889862060546875" lon="6.7495753057301044464111328125">
        <ele>1531</ele>
        <time>2026-09-03T06:40:10.000Z</time>
        <extensions>
          <ns3:TrackPointExtension>
            <ns3:hr>136</ns3:hr>
            <ns3:cad>0</ns3:cad>
          </ns3:TrackPointExtension>
        </extensions>
      </trkpt>
      <trkpt lat="44.7054849006235599517822265625" lon="6.74958058632910251617431640625">
        <ele>1531.199951171875</ele>
        <time>2026-09-03T06:40:11.000Z</time>
        <extensions>
          <ns3:TrackPointExtension>
            <ns3:hr>135</ns3:hr>
            <ns3:cad>0</ns3:cad>
          </ns3:TrackPointExtension>
        </extensions>
      </trkpt>
      <trkpt lat="44.705475680530071258544921875" lon="6.749588884413242340087890625">
        <ele>1531.199951171875</ele>
        <time>2026-09-03T06:40:12.000Z</time>
        <extensions>
          <ns3:TrackPointExtension>
            <ns3:hr>135</ns3:hr>
            <ns3:cad>0</ns3:cad>
          </ns3:TrackPointExtension>
        </extensions>
      </trkpt>
      <trkpt lat="44.70546872355043888092041015625" lon="6.74959802068769931793212890625">
        <ele>1531.4000244140625</ele>
        <time>2026-09-03T06:40:13.000Z</time>
        <extensions>
          <ns3:TrackPointExtension>
            <ns3:hr>136</ns3:hr>
            <ns3:cad>0</ns3:cad>
          </ns3:TrackPointExtension>
        </extensions>
      </trkpt>
      <trkpt lat="44.70545531250536441802978515625" lon="6.7496115155518054962158203125">
        <ele>1531.5999755859375</ele>
        <time>2026-09-03T06:40:14.000Z</time>
        <extensions>
          <ns3:TrackPointExtension>
            <ns3:hr>135</ns3:hr>
            <ns3:cad>0</ns3:cad>
          </ns3:TrackPointExtension>
        </extensions>
      </trkpt>
      <trkpt lat="44.7054533846676349639892578125" lon="6.749621741473674774169921875">
        <ele>1531.800048828125</ele>
        <time>2026-09-03T06:40:15.000Z</time>
        <extensions>
          <ns3:TrackPointExtension>
            <ns3:hr>135</ns3:hr>
            <ns3:cad>0</ns3:cad>
          </ns3:TrackPointExtension>
        </extensions>
      </trkpt>
      <trkpt lat="44.70544123090803623199462890625" lon="6.74963925965130329132080078125">
        <ele>1532</ele>
        <time>2026-09-03T06:40:16.000Z</time>
        <extensions>
          <ns3:TrackPointExtension>
            <ns3:hr>136</ns3:hr>
            <ns3:cad>0</ns3:cad>
          </ns3:TrackPointExtension>
        </extensions>
      </trkpt>
      <trkpt lat="44.70543452538549900054931640625" lon="6.74964898265898227691650390625">
        <ele>1532.199951171875</ele>
        <time>2026-09-03T06:40:17.000Z</time>
        <extensions>
          <ns3:TrackPointExtension>
            <ns3:hr>136</ns3:hr>
            <ns3:cad>0</ns3:cad>
          </ns3:TrackPointExtension>
        </extensions>
      </trkpt>
      <trkpt lat="44.7054248861968517303466796875" lon="6.74966163933277130126953125">
        <ele>1532.4000244140625</ele>
        <time>2026-09-03T06:40:18.000Z</time>
        <extensions>
          <ns3:TrackPointExtension>
            <ns3:hr>135</ns3:hr>
            <ns3:cad>0</ns3:cad>
          </ns3:TrackPointExtension>
        </extensions>
      </trkpt>
      <trkpt lat="44.7054143249988555908203125" lon="6.7496651597321033477783203125">
        <ele>1532.5999755859375</ele>
        <time>2026-09-03T06:40:19.000Z</time>
        <extensions>
          <ns3:TrackPointExtension>
            <ns3:hr>135</ns3:hr>
            <ns3:cad>0</ns3:cad>
          </ns3:TrackPointExtension>
        </extensions>
      </trkpt>
      <trkpt lat="44.70541558228433132171630859375" lon="6.74966323189437389373779296875">
        <ele>1532.800048828125</ele>
        <time>2026-09-03T06:40:20.000Z</time>
        <extensions>
          <ns3:TrackPointExtension>
            <ns3:hr>135</ns3:hr>
            <ns3:cad>0</ns3:cad>
          </ns3:TrackPointExtension>
        </extensions>
      </trkpt>
      <trkpt lat="44.7054037638008594512939453125" lon="6.74966574646532535552978515625">
        <ele>1532.800048828125</ele>
        <time>2026-09-03T06:40:21.000Z</time>
        <extensions>
          <ns3:TrackPointExtension>
            <ns3:hr>136</ns3:hr>
            <ns3:cad>0</ns3:cad>
          </ns3:TrackPointExtension>
        </extensions>
      </trkpt>
      <trkpt lat="44.70540225505828857421875" lon="6.74966834485530853271484375">
        <ele>1533</ele>
        <time>2026-09-03T06:40:22.000Z</time>
        <extensions>
          <ns3:TrackPointExtension>
            <ns3:hr>136</ns3:hr>
            <ns3:cad>0</ns3:cad>
          </ns3:TrackPointExtension>
        </extensions>
      </trkpt>
      <trkpt lat="44.70538825727999210357666015625" lon="6.74967178143560886383056640625">
        <ele>1533.199951171875</ele>
        <time>2026-09-03T06:40:23.000Z</time>
        <extensions>
          <ns3:TrackPointExtension>
            <ns3:hr>136</ns3:hr>
            <ns3:cad>0</ns3:cad>
          </ns3:TrackPointExtension>
        </extensions>
      </trkpt>
      <trkpt lat="44.70538088120520114898681640625" lon="6.749676726758480072021484375">
        <ele>1533.4000244140625</ele>
        <time>2026-09-03T06:40:24.000Z</time>
        <extensions>
          <ns3:TrackPointExtension>
            <ns3:hr>136</ns3:hr>
            <ns3:cad>0</ns3:cad>
          </ns3:TrackPointExtension>
        </extensions>
      </trkpt>
      <trkpt lat="44.705365039408206939697265625" lon="6.7496758885681629180908203125">
        <ele>1533.5999755859375</ele>
        <time>2026-09-03T06:40:25.000Z</time>
        <extensions>
          <ns3:TrackPointExtension>
            <ns3:hr>136</ns3:hr>
            <ns3:cad>0</ns3:cad>
          </ns3:TrackPointExtension>
        </extensions>
      </trkpt>
      <trkpt lat="44.7053538076579570770263671875" lon="6.7496812529861927032470703125">
        <ele>1533.800048828125</ele>
        <time>2026-09-03T06:40:26.000Z</time>
        <extensions>
          <ns3:TrackPointExtension>
            <ns3:hr>137</ns3:hr>
            <ns3:cad>0</ns3:cad>
          </ns3:TrackPointExtension>
        </extensions>
      </trkpt>
      <trkpt lat="44.7053427435457706451416015625" lon="6.749686114490032196044921875">
        <ele>1534</ele>
        <time>2026-09-03T06:40:27.000Z</time>
        <extensions>
          <ns3:TrackPointExtension>
            <ns3:hr>137</ns3:hr>
            <ns3:cad>0</ns3:cad>
          </ns3:TrackPointExtension>
        </extensions>
      </trkpt>
      <trkpt lat="44.70533461309969425201416015625" lon="6.749694161117076873779296875">
        <ele>1534</ele>
        <time>2026-09-03T06:40:28.000Z</time>
        <extensions>
          <ns3:TrackPointExtension>
            <ns3:hr>139</ns3:hr>
            <ns3:cad>0</ns3:cad>
          </ns3:TrackPointExtension>
        </extensions>
      </trkpt>
      <trkpt lat="44.7053316794335842132568359375" lon="6.74969743005931377410888671875">
        <ele>1534.199951171875</ele>
        <time>2026-09-03T06:40:29.000Z</time>
        <extensions>
          <ns3:TrackPointExtension>
            <ns3:hr>139</ns3:hr>
            <ns3:cad>0</ns3:cad>
          </ns3:TrackPointExtension>
        </extensions>
      </trkpt>
      <trkpt lat="44.70532271079719066619873046875" lon="6.749705560505390167236328125">
        <ele>1534.4000244140625</ele>
        <time>2026-09-03T06:40:30.000Z</time>
        <extensions>
          <ns3:TrackPointExtension>
            <ns3:hr>140</ns3:hr>
            <ns3:cad>0</ns3:cad>
          </ns3:TrackPointExtension>
        </extensions>
      </trkpt>
      <trkpt lat="44.70531952567398548126220703125" lon="6.74970732070505619049072265625">
        <ele>1534.5999755859375</ele>
        <time>2026-09-03T06:40:31.000Z</time>
        <extensions>
          <ns3:TrackPointExtension>
            <ns3:hr>140</ns3:hr>
            <ns3:cad>0</ns3:cad>
          </ns3:TrackPointExtension>
        </extensions>
      </trkpt>
      <trkpt lat="44.7053082101047039031982421875" lon="6.7497137747704982757568359375">
        <ele>1534.800048828125</ele>
        <time>2026-09-03T06:40:32.000Z</time>
        <extensions>
          <ns3:TrackPointExtension>
            <ns3:hr>140</ns3:hr>
            <ns3:cad>0</ns3:cad>
          </ns3:TrackPointExtension>
        </extensions>
      </trkpt>
      <trkpt lat="44.7053018398582935333251953125" lon="6.74972944892942905426025390625">
        <ele>1535</ele>
        <time>2026-09-03T06:40:33.000Z</time>
        <extensions>
          <ns3:TrackPointExtension>
            <ns3:hr>139</ns3:hr>
            <ns3:cad>0</ns3:cad>
          </ns3:TrackPointExtension>
        </extensions>
      </trkpt>
      <trkpt lat="44.70529018901288509368896484375" lon="6.7497389204800128936767578125">
        <ele>1535.199951171875</ele>
        <time>2026-09-03T06:40:34.000Z</time>
        <extensions>
          <ns3:TrackPointExtension>
            <ns3:hr>138</ns3:hr>
            <ns3:cad>0</ns3:cad>
          </ns3:TrackPointExtension>
        </extensions>
      </trkpt>
      <trkpt lat="44.7052833996713161468505859375" lon="6.74974772147834300994873046875">
        <ele>1535.199951171875</ele>
        <time>2026-09-03T06:40:35.000Z</time>
        <extensions>
          <ns3:TrackPointExtension>
            <ns3:hr>138</ns3:hr>
            <ns3:cad>0</ns3:cad>
          </ns3:TrackPointExtension>
        </extensions>
      </trkpt>
      <trkpt lat="44.7052740119397640228271484375" lon="6.7497563548386096954345703125">
        <ele>1535.4000244140625</ele>
        <time>2026-09-03T06:40:36.000Z</time>
        <extensions>
          <ns3:TrackPointExtension>
            <ns3:hr>138</ns3:hr>
            <ns3:cad>0</ns3:cad>
          </ns3:TrackPointExtension>
        </extensions>
      </trkpt>
      <trkpt lat="44.7052656300365924835205078125" lon="6.749767251312732696533203125">
        <ele>1535.5999755859375</ele>
        <time>2026-09-03T06:40:37.000Z</time>
        <extensions>
          <ns3:TrackPointExtension>
            <ns3:hr>138</ns3:hr>
            <ns3:cad>0</ns3:cad>
          </ns3:TrackPointExtension>
        </extensions>
      </trkpt>
      <trkpt lat="44.705259762704372406005859375" lon="6.749779321253299713134765625">
        <ele>1535.800048828125</ele>
        <time>2026-09-03T06:40:38.000Z</time>
        <extensions>
          <ns3:TrackPointExtension>
            <ns3:hr>138</ns3:hr>
            <ns3:cad>0</ns3:cad>
          </ns3:TrackPointExtension>
        </extensions>
      </trkpt>
      <trkpt lat="44.705252386629581451416015625" lon="6.7497910559177398681640625">
        <ele>1535.800048828125</ele>
        <time>2026-09-03T06:40:39.000Z</time>
        <extensions>
          <ns3:TrackPointExtension>
            <ns3:hr>139</ns3:hr>
            <ns3:cad>0</ns3:cad>
          </ns3:TrackPointExtension>
        </extensions>
      </trkpt>
      <trkpt lat="44.70524827949702739715576171875" lon="6.7497915588319301605224609375">
        <ele>1536</ele>
        <time>2026-09-03T06:40:40.000Z</time>
        <extensions>
          <ns3:TrackPointExtension>
            <ns3:hr>139</ns3:hr>
            <ns3:cad>0</ns3:cad>
          </ns3:TrackPointExtension>
        </extensions>
      </trkpt>
      <trkpt lat="44.705238640308380126953125" lon="6.74980589188635349273681640625">
        <ele>1536.199951171875</ele>
        <time>2026-09-03T06:40:41.000Z</time>
        <extensions>
          <ns3:TrackPointExtension>
            <ns3:hr>139</ns3:hr>
            <ns3:cad>0</ns3:cad>
          </ns3:TrackPointExtension>
        </extensions>
      </trkpt>
      <trkpt lat="44.70523453317582607269287109375" lon="6.74981209449470043182373046875">
        <ele>1536.4000244140625</ele>
        <time>2026-09-03T06:40:42.000Z</time>
        <extensions>
          <ns3:TrackPointExtension>
            <ns3:hr>139</ns3:hr>
            <ns3:cad>0</ns3:cad>
          </ns3:TrackPointExtension>
        </extensions>
      </trkpt>
      <trkpt lat="44.70522682182490825653076171875" lon="6.7498200573027133941650390625">
        <ele>1536.4000244140625</ele>
        <time>2026-09-03T06:40:43.000Z</time>
        <extensions>
          <ns3:TrackPointExtension>
            <ns3:hr>140</ns3:hr>
            <ns3:cad>0</ns3:cad>
          </ns3:TrackPointExtension>
        </extensions>
      </trkpt>
      <trkpt lat="44.7052212059497833251953125" lon="6.74982852302491664886474609375">
        <ele>1536.5999755859375</ele>
        <time>2026-09-03T06:40:44.000Z</time>
        <extensions>
          <ns3:TrackPointExtension>
            <ns3:hr>140</ns3:hr>
            <ns3:cad>0</ns3:cad>
          </ns3:TrackPointExtension>
        </extensions>
      </trkpt>
      <trkpt lat="44.70521206967532634735107421875" lon="6.74984109587967395782470703125">
        <ele>1536.800048828125</ele>
        <time>2026-09-03T06:40:45.000Z</time>
        <extensions>
          <ns3:TrackPointExtension>
            <ns3:hr>140</ns3:hr>
            <ns3:cad>0</ns3:cad>
          </ns3:TrackPointExtension>
        </extensions>
      </trkpt>
      <trkpt lat="44.70520452596247196197509765625" lon="6.74985350109636783599853515625">
        <ele>1537</ele>
        <time>2026-09-03T06:40:46.000Z</time>
        <extensions>
          <ns3:TrackPointExtension>
            <ns3:hr>140</ns3:hr>
            <ns3:cad>0</ns3:cad>
          </ns3:TrackPointExtension>
        </extensions>
      </trkpt>
      <trkpt lat="44.70520150847733020782470703125" lon="6.74986171536147594451904296875">
        <ele>1537.199951171875</ele>
        <time>2026-09-03T06:40:47.000Z</time>
        <extensions>
          <ns3:TrackPointExtension>
            <ns3:hr>140</ns3:hr>
            <ns3:cad>0</ns3:cad>
          </ns3:TrackPointExtension>
        </extensions>
      </trkpt>
      <trkpt lat="44.70520050264894962310791015625" lon="6.7498716898262500762939453125">
        <ele>1537.199951171875</ele>
        <time>2026-09-03T06:40:48.000Z</time>
        <extensions>
          <ns3:TrackPointExtension>
            <ns3:hr>140</ns3:hr>
            <ns3:cad>0</ns3:cad>
          </ns3:TrackPointExtension>
        </extensions>
      </trkpt>
      <trkpt lat="44.7051997482776641845703125" lon="6.74987579695880413055419921875">
        <ele>1537.4000244140625</ele>
        <time>2026-09-03T06:40:49.000Z</time>
        <extensions>
          <ns3:TrackPointExtension>
            <ns3:hr>140</ns3:hr>
            <ns3:cad>0</ns3:cad>
          </ns3:TrackPointExtension>
        </extensions>
      </trkpt>
      <trkpt lat="44.7051982395350933074951171875" lon="6.74988686107099056243896484375">
        <ele>1537.5999755859375</ele>
        <time>2026-09-03T06:40:50.000Z</time>
        <extensions>
          <ns3:TrackPointExtension>
            <ns3:hr>139</ns3:hr>
            <ns3:cad>0</ns3:cad>
          </ns3:TrackPointExtension>
        </extensions>
      </trkpt>
      <trkpt lat="44.7051935456693172454833984375" lon="6.749893985688686370849609375">
        <ele>1537.800048828125</ele>
        <time>2026-09-03T06:40:51.000Z</time>
        <extensions>
          <ns3:TrackPointExtension>
            <ns3:hr>140</ns3:hr>
            <ns3:cad>0</ns3:cad>
          </ns3:TrackPointExtension>
        </extensions>
      </trkpt>
      <trkpt lat="44.705189354717731475830078125" lon="6.74990328960120677947998046875">
        <ele>1538.199951171875</ele>
        <time>2026-09-03T06:40:52.000Z</time>
        <extensions>
          <ns3:TrackPointExtension>
            <ns3:hr>140</ns3:hr>
            <ns3:cad>0</ns3:cad>
          </ns3:TrackPointExtension>
        </extensions>
      </trkpt>
      <trkpt lat="44.70518440939486026763916015625" lon="6.749911420047283172607421875">
        <ele>1538.4000244140625</ele>
        <time>2026-09-03T06:40:53.000Z</time>
        <extensions>
          <ns3:TrackPointExtension>
            <ns3:hr>140</ns3:hr>
            <ns3:cad>0</ns3:cad>
          </ns3:TrackPointExtension>
        </extensions>
      </trkpt>
      <trkpt lat="44.70517619512975215911865234375" lon="6.7499206401407718658447265625">
        <ele>1538.5999755859375</ele>
        <time>2026-09-03T06:40:54.000Z</time>
        <extensions>
          <ns3:TrackPointExtension>
            <ns3:hr>140</ns3:hr>
            <ns3:cad>0</ns3:cad>
          </ns3:TrackPointExtension>
        </extensions>
      </trkpt>
      <trkpt lat="44.70517016015946865081787109375" lon="6.74993254244327545166015625">
        <ele>1538.5999755859375</ele>
        <time>2026-09-03T06:40:55.000Z</time>
        <extensions>
          <ns3:TrackPointExtension>
            <ns3:hr>140</ns3:hr>
            <ns3:cad>0</ns3:cad>
          </ns3:TrackPointExtension>
        </extensions>
      </trkpt>
      <trkpt lat="44.70516580156981945037841796875" lon="6.74994184635579586029052734375">
        <ele>1539</ele>
        <time>2026-09-03T06:40:56.000Z</time>
        <extensions>
          <ns3:TrackPointExtension>
            <ns3:hr>140</ns3:hr>
            <ns3:cad>0</ns3:cad>
          </ns3:TrackPointExtension>
        </extensions>
      </trkpt>
      <trkpt lat="44.70515959896147251129150390625" lon="6.74995073117315769195556640625">
        <ele>1539</ele>
        <time>2026-09-03T06:40:57.000Z</time>
        <extensions>
          <ns3:TrackPointExtension>
            <ns3:hr>140</ns3:hr>
            <ns3:cad>0</ns3:cad>
          </ns3:TrackPointExtension>
        </extensions>
      </trkpt>
      <trkpt lat="44.7051563300192356109619140625" lon="6.749953664839267730712890625">
        <ele>1539.199951171875</ele>
        <time>2026-09-03T06:40:58.000Z</time>
        <extensions>
          <ns3:TrackPointExtension>
            <ns3:hr>140</ns3:hr>
            <ns3:cad>0</ns3:cad>
          </ns3:TrackPointExtension>
        </extensions>
      </trkpt>
      <trkpt lat="44.70514669083058834075927734375" lon="6.74996665678918361663818359375">
        <ele>1539.4000244140625</ele>
        <time>2026-09-03T06:40:59.000Z</time>
        <extensions>
          <ns3:TrackPointExtension>
            <ns3:hr>140</ns3:hr>
            <ns3:cad>0</ns3:cad>
          </ns3:TrackPointExtension>
        </extensions>
      </trkpt>
      <trkpt lat="44.70514384098351001739501953125" lon="6.74997621215879917144775390625">
        <ele>1539.5999755859375</ele>
        <time>2026-09-03T06:41:00.000Z</time>
        <extensions>
          <ns3:TrackPointExtension>
            <ns3:hr>141</ns3:hr>
            <ns3:cad>0</ns3:cad>
          </ns3:TrackPointExtension>
        </extensions>
      </trkpt>
      <trkpt lat="44.7051326930522918701171875" lon="6.7499900422990322113037109375">
        <ele>1539.800048828125</ele>
        <time>2026-09-03T06:41:01.000Z</time>
        <extensions>
          <ns3:TrackPointExtension>
            <ns3:hr>140</ns3:hr>
            <ns3:cad>0</ns3:cad>
          </ns3:TrackPointExtension>
        </extensions>
      </trkpt>
      <trkpt lat="44.70512934029102325439453125" lon="6.74999917857348918914794921875">
        <ele>1539.800048828125</ele>
        <time>2026-09-03T06:41:02.000Z</time>
        <extensions>
          <ns3:TrackPointExtension>
            <ns3:hr>140</ns3:hr>
            <ns3:cad>0</ns3:cad>
          </ns3:TrackPointExtension>
        </extensions>
      </trkpt>
      <trkpt lat="44.70512003637850284576416015625" lon="6.75001761876046657562255859375">
        <ele>1540</ele>
        <time>2026-09-03T06:41:03.000Z</time>
        <extensions>
          <ns3:TrackPointExtension>
            <ns3:hr>140</ns3:hr>
            <ns3:cad>0</ns3:cad>
          </ns3:TrackPointExtension>
        </extensions>
      </trkpt>
      <trkpt lat="44.705114252865314483642578125" lon="6.75002935342490673065185546875">
        <ele>1540.199951171875</ele>
        <time>2026-09-03T06:41:04.000Z</time>
        <extensions>
          <ns3:TrackPointExtension>
            <ns3:hr>140</ns3:hr>
            <ns3:cad>0</ns3:cad>
          </ns3:TrackPointExtension>
        </extensions>
      </trkpt>
      <trkpt lat="44.7051097266376018524169921875" lon="6.75004092045128345489501953125">
        <ele>1540.4000244140625</ele>
        <time>2026-09-03T06:41:05.000Z</time>
        <extensions>
          <ns3:TrackPointExtension>
            <ns3:hr>140</ns3:hr>
            <ns3:cad>0</ns3:cad>
          </ns3:TrackPointExtension>
        </extensions>
      </trkpt>
      <trkpt lat="44.705105535686016082763671875" lon="6.75005516968667507171630859375">
        <ele>1540.5999755859375</ele>
        <time>2026-09-03T06:41:06.000Z</time>
        <extensions>
          <ns3:TrackPointExtension>
            <ns3:hr>140</ns3:hr>
            <ns3:cad>0</ns3:cad>
          </ns3:TrackPointExtension>
        </extensions>
      </trkpt>
      <trkpt lat="44.7051030211150646209716796875" lon="6.750058941543102264404296875">
        <ele>1540.800048828125</ele>
        <time>2026-09-03T06:41:07.000Z</time>
        <extensions>
          <ns3:TrackPointExtension>
            <ns3:hr>139</ns3:hr>
            <ns3:cad>0</ns3:cad>
          </ns3:TrackPointExtension>
        </extensions>
      </trkpt>
      <trkpt lat="44.7050949744880199432373046875" lon="6.75007143057882785797119140625">
        <ele>1541</ele>
        <time>2026-09-03T06:41:08.000Z</time>
        <extensions>
          <ns3:TrackPointExtension>
            <ns3:hr>139</ns3:hr>
            <ns3:cad>0</ns3:cad>
          </ns3:TrackPointExtension>
        </extensions>
      </trkpt>
      <trkpt lat="44.70509170554578304290771484375" lon="6.75008282996714115142822265625">
        <ele>1541.199951171875</ele>
        <time>2026-09-03T06:41:09.000Z</time>
        <extensions>
          <ns3:TrackPointExtension>
            <ns3:hr>139</ns3:hr>
            <ns3:cad>0</ns3:cad>
          </ns3:TrackPointExtension>
        </extensions>
      </trkpt>
      <trkpt lat="44.70508634112775325775146484375" lon="6.7501030303537845611572265625">
        <ele>1541.4000244140625</ele>
        <time>2026-09-03T06:41:10.000Z</time>
        <extensions>
          <ns3:TrackPointExtension>
            <ns3:hr>139</ns3:hr>
            <ns3:cad>0</ns3:cad>
          </ns3:TrackPointExtension>
        </extensions>
      </trkpt>
      <trkpt lat="44.70508164726197719573974609375" lon="6.7501207999885082244873046875">
        <ele>1541.5999755859375</ele>
        <time>2026-09-03T06:41:11.000Z</time>
        <extensions>
          <ns3:TrackPointExtension>
            <ns3:hr>139</ns3:hr>
            <ns3:cad>0</ns3:cad>
          </ns3:TrackPointExtension>
        </extensions>
      </trkpt>
      <trkpt lat="44.70507494173943996429443359375" lon="6.7501389048993587493896484375">
        <ele>1541.800048828125</ele>
        <time>2026-09-03T06:41:12.000Z</time>
        <extensions>
          <ns3:TrackPointExtension>
            <ns3:hr>138</ns3:hr>
            <ns3:cad>0</ns3:cad>
          </ns3:TrackPointExtension>
        </extensions>
      </trkpt>
      <trkpt lat="44.70506630837917327880859375" lon="6.7501536570489406585693359375">
        <ele>1542</ele>
        <time>2026-09-03T06:41:13.000Z</time>
        <extensions>
          <ns3:TrackPointExtension>
            <ns3:hr>139</ns3:hr>
            <ns3:cad>0</ns3:cad>
          </ns3:TrackPointExtension>
        </extensions>
      </trkpt>
      <trkpt lat="44.70506421290338039398193359375" lon="6.7501617036759853363037109375">
        <ele>1542.199951171875</ele>
        <time>2026-09-03T06:41:14.000Z</time>
        <extensions>
          <ns3:TrackPointExtension>
            <ns3:hr>139</ns3:hr>
            <ns3:cad>0</ns3:cad>
          </ns3:TrackPointExtension>
        </extensions>
      </trkpt>
      <trkpt lat="44.705051891505718231201171875" lon="6.7501801438629627227783203125">
        <ele>1542.5999755859375</ele>
        <time>2026-09-03T06:41:15.000Z</time>
        <extensions>
          <ns3:TrackPointExtension>
            <ns3:hr>139</ns3:hr>
            <ns3:cad>0</ns3:cad>
          </ns3:TrackPointExtension>
        </extensions>
      </trkpt>
      <trkpt lat="44.7050495445728302001953125" lon="6.750190369784832000732421875">
        <ele>1542.800048828125</ele>
        <time>2026-09-03T06:41:16.000Z</time>
        <extensions>
          <ns3:TrackPointExtension>
            <ns3:hr>139</ns3:hr>
            <ns3:cad>0</ns3:cad>
          </ns3:TrackPointExtension>
        </extensions>
      </trkpt>
      <trkpt lat="44.7050366364419460296630859375" lon="6.750209145247936248779296875">
        <ele>1542.800048828125</ele>
        <time>2026-09-03T06:41:17.000Z</time>
        <extensions>
          <ns3:TrackPointExtension>
            <ns3:hr>138</ns3:hr>
            <ns3:cad>0</ns3:cad>
          </ns3:TrackPointExtension>
        </extensions>
      </trkpt>
      <trkpt lat="44.7050289250910282135009765625" lon="6.75021710805594921112060546875">
        <ele>1543</ele>
        <time>2026-09-03T06:41:18.000Z</time>
        <extensions>
          <ns3:TrackPointExtension>
            <ns3:hr>139</ns3:hr>
            <ns3:cad>55</ns3:cad>
          </ns3:TrackPointExtension>
        </extensions>
      </trkpt>
      <trkpt lat="44.7050192020833492279052734375" lon="6.75022750161588191986083984375">
        <ele>1543.199951171875</ele>
        <time>2026-09-03T06:41:19.000Z</time>
        <extensions>
          <ns3:TrackPointExtension>
            <ns3:hr>139</ns3:hr>
            <ns3:cad>55</ns3:cad>
          </ns3:TrackPointExtension>
        </extensions>
      </trkpt>
      <trkpt lat="44.7050093114376068115234375" lon="6.750239320099353790283203125">
        <ele>1543.4000244140625</ele>
        <time>2026-09-03T06:41:20.000Z</time>
        <extensions>
          <ns3:TrackPointExtension>
            <ns3:hr>139</ns3:hr>
            <ns3:cad>55</ns3:cad>
          </ns3:TrackPointExtension>
        </extensions>
      </trkpt>
      <trkpt lat="44.70499967224895954132080078125" lon="6.75025164149701595306396484375">
        <ele>1543.5999755859375</ele>
        <time>2026-09-03T06:41:21.000Z</time>
        <extensions>
          <ns3:TrackPointExtension>
            <ns3:hr>139</ns3:hr>
            <ns3:cad>55</ns3:cad>
          </ns3:TrackPointExtension>
        </extensions>
      </trkpt>
      <trkpt lat="44.7049932181835174560546875" lon="6.75025985576212406158447265625">
        <ele>1543.800048828125</ele>
        <time>2026-09-03T06:41:22.000Z</time>
        <extensions>
          <ns3:TrackPointExtension>
            <ns3:hr>139</ns3:hr>
            <ns3:cad>55</ns3:cad>
          </ns3:TrackPointExtension>
        </extensions>
      </trkpt>
      <trkpt lat="44.70498776994645595550537109375" lon="6.7502686567604541778564453125">
        <ele>1544</ele>
        <time>2026-09-03T06:41:23.000Z</time>
        <extensions>
          <ns3:TrackPointExtension>
            <ns3:hr>139</ns3:hr>
            <ns3:cad>55</ns3:cad>
          </ns3:TrackPointExtension>
        </extensions>
      </trkpt>
      <trkpt lat="44.704980812966823577880859375" lon="6.75027695484459400177001953125">
        <ele>1544.199951171875</ele>
        <time>2026-09-03T06:41:24.000Z</time>
        <extensions>
          <ns3:TrackPointExtension>
            <ns3:hr>139</ns3:hr>
            <ns3:cad>54</ns3:cad>
          </ns3:TrackPointExtension>
        </extensions>
      </trkpt>
      <trkpt lat="44.70497150905430316925048828125" lon="6.75028433091938495635986328125">
        <ele>1544.4000244140625</ele>
        <time>2026-09-03T06:41:25.000Z</time>
        <extensions>
          <ns3:TrackPointExtension>
            <ns3:hr>139</ns3:hr>
            <ns3:cad>43</ns3:cad>
          </ns3:TrackPointExtension>
        </extensions>
      </trkpt>
      <trkpt lat="44.7049652226269245147705078125" lon="6.75029137171804904937744140625">
        <ele>1544.5999755859375</ele>
        <time>2026-09-03T06:41:26.000Z</time>
        <extensions>
          <ns3:TrackPointExtension>
            <ns3:hr>139</ns3:hr>
            <ns3:cad>43</ns3:cad>
          </ns3:TrackPointExtension>
        </extensions>
      </trkpt>
      <trkpt lat="44.70495977438986301422119140625" lon="6.750296987593173980712890625">
        <ele>1545</ele>
        <time>2026-09-03T06:41:27.000Z</time>
        <extensions>
          <ns3:TrackPointExtension>
            <ns3:hr>139</ns3:hr>
            <ns3:cad>43</ns3:cad>
          </ns3:TrackPointExtension>
        </extensions>
      </trkpt>
      <trkpt lat="44.70495055429637432098388671875" lon="6.7503060400485992431640625">
        <ele>1545.199951171875</ele>
        <time>2026-09-03T06:41:28.000Z</time>
        <extensions>
          <ns3:TrackPointExtension>
            <ns3:hr>140</ns3:hr>
            <ns3:cad>0</ns3:cad>
          </ns3:TrackPointExtension>
        </extensions>
      </trkpt>
      <trkpt lat="44.70494426786899566650390625" lon="6.750312745571136474609375">
        <ele>1545.4000244140625</ele>
        <time>2026-09-03T06:41:29.000Z</time>
        <extensions>
          <ns3:TrackPointExtension>
            <ns3:hr>140</ns3:hr>
            <ns3:cad>0</ns3:cad>
          </ns3:TrackPointExtension>
        </extensions>
      </trkpt>
      <trkpt lat="44.70493488013744354248046875" lon="6.75032204948365688323974609375">
        <ele>1545.5999755859375</ele>
        <time>2026-09-03T06:41:30.000Z</time>
        <extensions>
          <ns3:TrackPointExtension>
            <ns3:hr>140</ns3:hr>
            <ns3:cad>0</ns3:cad>
          </ns3:TrackPointExtension>
        </extensions>
      </trkpt>
      <trkpt lat="44.70492591150104999542236328125" lon="6.75033009611070156097412109375">
        <ele>1545.800048828125</ele>
        <time>2026-09-03T06:41:31.000Z</time>
        <extensions>
          <ns3:TrackPointExtension>
            <ns3:hr>140</ns3:hr>
            <ns3:cad>0</ns3:cad>
          </ns3:TrackPointExtension>
        </extensions>
      </trkpt>
      <trkpt lat="44.7049166075885295867919921875" lon="6.75033898092806339263916015625">
        <ele>1545.800048828125</ele>
        <time>2026-09-03T06:41:32.000Z</time>
        <extensions>
          <ns3:TrackPointExtension>
            <ns3:hr>139</ns3:hr>
            <ns3:cad>0</ns3:cad>
          </ns3:TrackPointExtension>
        </extensions>
      </trkpt>
      <trkpt lat="44.704907722771167755126953125" lon="6.750347614288330078125">
        <ele>1546</ele>
        <time>2026-09-03T06:41:33.000Z</time>
        <extensions>
          <ns3:TrackPointExtension>
            <ns3:hr>139</ns3:hr>
            <ns3:cad>0</ns3:cad>
          </ns3:TrackPointExtension>
        </extensions>
      </trkpt>
      <trkpt lat="44.70489892177283763885498046875" lon="6.750355325639247894287109375">
        <ele>1546.199951171875</ele>
        <time>2026-09-03T06:41:34.000Z</time>
        <extensions>
          <ns3:TrackPointExtension>
            <ns3:hr>137</ns3:hr>
            <ns3:cad>0</ns3:cad>
          </ns3:TrackPointExtension>
        </extensions>
      </trkpt>
      <trkpt lat="44.7048894502222537994384765625" lon="6.75036697648465633392333984375">
        <ele>1546.4000244140625</ele>
        <time>2026-09-03T06:41:35.000Z</time>
        <extensions>
          <ns3:TrackPointExtension>
            <ns3:hr>137</ns3:hr>
            <ns3:cad>0</ns3:cad>
          </ns3:TrackPointExtension>
        </extensions>
      </trkpt>
      <trkpt lat="44.70488182269036769866943359375" lon="6.750372089445590972900390625">
        <ele>1546.5999755859375</ele>
        <time>2026-09-03T06:41:36.000Z</time>
        <extensions>
          <ns3:TrackPointExtension>
            <ns3:hr>136</ns3:hr>
            <ns3:cad>0</ns3:cad>
          </ns3:TrackPointExtension>
        </extensions>
      </trkpt>
      <trkpt lat="44.7048720158636569976806640625" lon="6.7503784596920013427734375">
        <ele>1546.5999755859375</ele>
        <time>2026-09-03T06:41:37.000Z</time>
        <extensions>
          <ns3:TrackPointExtension>
            <ns3:hr>135</ns3:hr>
            <ns3:cad>0</ns3:cad>
          </ns3:TrackPointExtension>
        </extensions>
      </trkpt>
      <trkpt lat="44.70486522652208805084228515625" lon="6.75038374029099941253662109375">
        <ele>1546.800048828125</ele>
        <time>2026-09-03T06:41:38.000Z</time>
        <extensions>
          <ns3:TrackPointExtension>
            <ns3:hr>135</ns3:hr>
            <ns3:cad>0</ns3:cad>
          </ns3:TrackPointExtension>
        </extensions>
      </trkpt>
      <trkpt lat="44.70485332421958446502685546875" lon="6.75038625486195087432861328125">
        <ele>1547</ele>
        <time>2026-09-03T06:41:39.000Z</time>
        <extensions>
          <ns3:TrackPointExtension>
            <ns3:hr>135</ns3:hr>
            <ns3:cad>0</ns3:cad>
          </ns3:TrackPointExtension>
        </extensions>
      </trkpt>
      <trkpt lat="44.70485173165798187255859375" lon="6.75038860179483890533447265625">
        <ele>1547.199951171875</ele>
        <time>2026-09-03T06:41:40.000Z</time>
        <extensions>
          <ns3:TrackPointExtension>
            <ns3:hr>135</ns3:hr>
            <ns3:cad>0</ns3:cad>
          </ns3:TrackPointExtension>
        </extensions>
      </trkpt>
      <trkpt lat="44.70483840443193912506103515625" lon="6.750389523804187774658203125">
        <ele>1547.4000244140625</ele>
        <time>2026-09-03T06:41:41.000Z</time>
        <extensions>
          <ns3:TrackPointExtension>
            <ns3:hr>135</ns3:hr>
            <ns3:cad>0</ns3:cad>
          </ns3:TrackPointExtension>
        </extensions>
      </trkpt>
      <trkpt lat="44.70482616685330867767333984375" lon="6.75039731897413730621337890625">
        <ele>1547.800048828125</ele>
        <time>2026-09-03T06:41:42.000Z</time>
        <extensions>
          <ns3:TrackPointExtension>
            <ns3:hr>134</ns3:hr>
            <ns3:cad>0</ns3:cad>
          </ns3:TrackPointExtension>
        </extensions>
      </trkpt>
      <trkpt lat="44.7048183716833591461181640625" lon="6.750399582087993621826171875">
        <ele>1547.800048828125</ele>
        <time>2026-09-03T06:41:43.000Z</time>
        <extensions>
          <ns3:TrackPointExtension>
            <ns3:hr>133</ns3:hr>
            <ns3:cad>0</ns3:cad>
          </ns3:TrackPointExtension>
        </extensions>
      </trkpt>
      <trkpt lat="44.7048066370189189910888671875" lon="6.75040603615343570709228515625">
        <ele>1548</ele>
        <time>2026-09-03T06:41:44.000Z</time>
        <extensions>
          <ns3:TrackPointExtension>
            <ns3:hr>133</ns3:hr>
            <ns3:cad>0</ns3:cad>
          </ns3:TrackPointExtension>
        </extensions>
      </trkpt>
      <trkpt lat="44.7048046253621578216552734375" lon="6.7504064552485942840576171875">
        <ele>1548.199951171875</ele>
        <time>2026-09-03T06:41:45.000Z</time>
        <extensions>
          <ns3:TrackPointExtension>
            <ns3:hr>133</ns3:hr>
            <ns3:cad>0</ns3:cad>
          </ns3:TrackPointExtension>
        </extensions>
      </trkpt>
      <trkpt lat="44.70479699783027172088623046875" lon="6.75040938891470432281494140625">
        <ele>1548.4000244140625</ele>
        <time>2026-09-03T06:41:46.000Z</time>
        <extensions>
          <ns3:TrackPointExtension>
            <ns3:hr>133</ns3:hr>
            <ns3:cad>0</ns3:cad>
          </ns3:TrackPointExtension>
        </extensions>
      </trkpt>
      <trkpt lat="44.70479280687868595123291015625" lon="6.7504195310175418853759765625">
        <ele>1548.5999755859375</ele>
        <time>2026-09-03T06:41:47.000Z</time>
        <extensions>
          <ns3:TrackPointExtension>
            <ns3:hr>133</ns3:hr>
            <ns3:cad>0</ns3:cad>
          </ns3:TrackPointExtension>
        </extensions>
      </trkpt>
      <trkpt lat="44.70478040166199207305908203125" lon="6.7504329420626163482666015625">
        <ele>1548.800048828125</ele>
        <time>2026-09-03T06:41:48.000Z</time>
        <extensions>
          <ns3:TrackPointExtension>
            <ns3:hr>133</ns3:hr>
            <ns3:cad>0</ns3:cad>
          </ns3:TrackPointExtension>
        </extensions>
      </trkpt>
      <trkpt lat="44.70477528870105743408203125" lon="6.75044408999383449554443359375">
        <ele>1549</ele>
        <time>2026-09-03T06:41:49.000Z</time>
        <extensions>
          <ns3:TrackPointExtension>
            <ns3:hr>132</ns3:hr>
            <ns3:cad>0</ns3:cad>
          </ns3:TrackPointExtension>
        </extensions>
      </trkpt>
      <trkpt lat="44.70476246438920497894287109375" lon="6.75045833922922611236572265625">
        <ele>1549.4000244140625</ele>
        <time>2026-09-03T06:41:50.000Z</time>
        <extensions>
          <ns3:TrackPointExtension>
            <ns3:hr>132</ns3:hr>
            <ns3:cad>0</ns3:cad>
          </ns3:TrackPointExtension>
        </extensions>
      </trkpt>
      <trkpt lat="44.704755507409572601318359375" lon="6.7504731751978397369384765625">
        <ele>1549.5999755859375</ele>
        <time>2026-09-03T06:41:51.000Z</time>
        <extensions>
          <ns3:TrackPointExtension>
            <ns3:hr>132</ns3:hr>
            <ns3:cad>0</ns3:cad>
          </ns3:TrackPointExtension>
        </extensions>
      </trkpt>
      <trkpt lat="44.70475357957184314727783203125" lon="6.750481389462947845458984375">
        <ele>1549.800048828125</ele>
        <time>2026-09-03T06:41:52.000Z</time>
        <extensions>
          <ns3:TrackPointExtension>
            <ns3:hr>132</ns3:hr>
            <ns3:cad>0</ns3:cad>
          </ns3:TrackPointExtension>
        </extensions>
      </trkpt>
      <trkpt lat="44.70474855042994022369384765625" lon="6.7504926212131977081298828125">
        <ele>1550</ele>
        <time>2026-09-03T06:41:53.000Z</time>
        <extensions>
          <ns3:TrackPointExtension>
            <ns3:hr>133</ns3:hr>
            <ns3:cad>0</ns3:cad>
          </ns3:TrackPointExtension>
        </extensions>
      </trkpt>
      <trkpt lat="44.7047446109354496002197265625" lon="6.75049689598381519317626953125">
        <ele>1550.199951171875</ele>
        <time>2026-09-03T06:41:54.000Z</time>
        <extensions>
          <ns3:TrackPointExtension>
            <ns3:hr>132</ns3:hr>
            <ns3:cad>0</ns3:cad>
          </ns3:TrackPointExtension>
        </extensions>
      </trkpt>
      <trkpt lat="44.7047436051070690155029296875" lon="6.75050443969666957855224609375">
        <ele>1550.4000244140625</ele>
        <time>2026-09-03T06:41:55.000Z</time>
        <extensions>
          <ns3:TrackPointExtension>
            <ns3:hr>132</ns3:hr>
            <ns3:cad>0</ns3:cad>
          </ns3:TrackPointExtension>
        </extensions>
      </trkpt>
      <trkpt lat="44.7047419287264347076416015625" lon="6.75050896592438220977783203125">
        <ele>1550.5999755859375</ele>
        <time>2026-09-03T06:41:56.000Z</time>
        <extensions>
          <ns3:TrackPointExtension>
            <ns3:hr>133</ns3:hr>
            <ns3:cad>0</ns3:cad>
          </ns3:TrackPointExtension>
        </extensions>
      </trkpt>
      <trkpt lat="44.70473396591842174530029296875" lon="6.75051852129399776458740234375">
        <ele>1550.800048828125</ele>
        <time>2026-09-03T06:41:57.000Z</time>
        <extensions>
          <ns3:TrackPointExtension>
            <ns3:hr>133</ns3:hr>
            <ns3:cad>0</ns3:cad>
          </ns3:TrackPointExtension>
        </extensions>
      </trkpt>
      <trkpt lat="44.70473011024296283721923828125" lon="6.7505211196839809417724609375">
        <ele>1551</ele>
        <time>2026-09-03T06:41:58.000Z</time>
        <extensions>
          <ns3:TrackPointExtension>
            <ns3:hr>134</ns3:hr>
            <ns3:cad>0</ns3:cad>
          </ns3:TrackPointExtension>
        </extensions>
      </trkpt>
      <trkpt lat="44.70472164452075958251953125" lon="6.75052740611135959625244140625">
        <ele>1551.199951171875</ele>
        <time>2026-09-03T06:41:59.000Z</time>
        <extensions>
          <ns3:TrackPointExtension>
            <ns3:hr>134</ns3:hr>
            <ns3:cad>0</ns3:cad>
          </ns3:TrackPointExtension>
        </extensions>
      </trkpt>
      <trkpt lat="44.70472038723528385162353515625" lon="6.75053444691002368927001953125">
        <ele>1551.4000244140625</ele>
        <time>2026-09-03T06:42:00.000Z</time>
        <extensions>
          <ns3:TrackPointExtension>
            <ns3:hr>135</ns3:hr>
            <ns3:cad>0</ns3:cad>
          </ns3:TrackPointExtension>
        </extensions>
      </trkpt>
      <trkpt lat="44.70471351407468318939208984375" lon="6.7505429126322269439697265625">
        <ele>1551.5999755859375</ele>
        <time>2026-09-03T06:42:01.000Z</time>
        <extensions>
          <ns3:TrackPointExtension>
            <ns3:hr>136</ns3:hr>
            <ns3:cad>0</ns3:cad>
          </ns3:TrackPointExtension>
        </extensions>
      </trkpt>
      <trkpt lat="44.704708568751811981201171875" lon="6.7505526356399059295654296875">
        <ele>1551.800048828125</ele>
        <time>2026-09-03T06:42:02.000Z</time>
        <extensions>
          <ns3:TrackPointExtension>
            <ns3:hr>137</ns3:hr>
            <ns3:cad>54</ns3:cad>
          </ns3:TrackPointExtension>
        </extensions>
      </trkpt>
      <trkpt lat="44.7047043778002262115478515625" lon="6.75056110136210918426513671875">
        <ele>1552</ele>
        <time>2026-09-03T06:42:03.000Z</time>
        <extensions>
          <ns3:TrackPointExtension>
            <ns3:hr>137</ns3:hr>
            <ns3:cad>54</ns3:cad>
          </ns3:TrackPointExtension>
        </extensions>
      </trkpt>
      <trkpt lat="44.7046993486583232879638671875" lon="6.7505688965320587158203125">
        <ele>1552.199951171875</ele>
        <time>2026-09-03T06:42:04.000Z</time>
        <extensions>
          <ns3:TrackPointExtension>
            <ns3:hr>137</ns3:hr>
            <ns3:cad>51</ns3:cad>
          </ns3:TrackPointExtension>
        </extensions>
      </trkpt>
      <trkpt lat="44.70469574443995952606201171875" lon="6.75057618878781795501708984375">
        <ele>1552.4000244140625</ele>
        <time>2026-09-03T06:42:05.000Z</time>
        <extensions>
          <ns3:TrackPointExtension>
            <ns3:hr>138</ns3:hr>
            <ns3:cad>51</ns3:cad>
          </ns3:TrackPointExtension>
        </extensions>
      </trkpt>
      <trkpt lat="44.7046916373074054718017578125" lon="6.75057987682521343231201171875">
        <ele>1552.5999755859375</ele>
        <time>2026-09-03T06:42:06.000Z</time>
        <extensions>
          <ns3:TrackPointExtension>
            <ns3:hr>138</ns3:hr>
            <ns3:cad>0</ns3:cad>
          </ns3:TrackPointExtension>
        </extensions>
      </trkpt>
      <trkpt lat="44.70468786545097827911376953125" lon="6.75058641470968723297119140625">
        <ele>1552.800048828125</ele>
        <time>2026-09-03T06:42:07.000Z</time>
        <extensions>
          <ns3:TrackPointExtension>
            <ns3:hr>138</ns3:hr>
            <ns3:cad>0</ns3:cad>
          </ns3:TrackPointExtension>
        </extensions>
      </trkpt>
      <trkpt lat="44.70468400977551937103271484375" lon="6.7505901865661144256591796875">
        <ele>1553</ele>
        <time>2026-09-03T06:42:08.000Z</time>
        <extensions>
          <ns3:TrackPointExtension>
            <ns3:hr>138</ns3:hr>
            <ns3:cad>0</ns3:cad>
          </ns3:TrackPointExtension>
        </extensions>
      </trkpt>
      <trkpt lat="44.70467948354780673980712890625" lon="6.75059898756444454193115234375">
        <ele>1553.199951171875</ele>
        <time>2026-09-03T06:42:09.000Z</time>
        <extensions>
          <ns3:TrackPointExtension>
            <ns3:hr>138</ns3:hr>
            <ns3:cad>0</ns3:cad>
          </ns3:TrackPointExtension>
        </extensions>
      </trkpt>
      <trkpt lat="44.70467646606266498565673828125" lon="6.75060535781085491180419921875">
        <ele>1553.4000244140625</ele>
        <time>2026-09-03T06:42:10.000Z</time>
        <extensions>
          <ns3:TrackPointExtension>
            <ns3:hr>138</ns3:hr>
            <ns3:cad>0</ns3:cad>
          </ns3:TrackPointExtension>
        </extensions>
      </trkpt>
      <trkpt lat="44.70467160455882549285888671875" lon="6.750616170465946197509765625">
        <ele>1553.5999755859375</ele>
        <time>2026-09-03T06:42:11.000Z</time>
        <extensions>
          <ns3:TrackPointExtension>
            <ns3:hr>138</ns3:hr>
            <ns3:cad>0</ns3:cad>
          </ns3:TrackPointExtension>
        </extensions>
      </trkpt>
      <trkpt lat="44.70466624014079570770263671875" lon="6.750625558197498321533203125">
        <ele>1553.800048828125</ele>
        <time>2026-09-03T06:42:12.000Z</time>
        <extensions>
          <ns3:TrackPointExtension>
            <ns3:hr>137</ns3:hr>
            <ns3:cad>0</ns3:cad>
          </ns3:TrackPointExtension>
        </extensions>
      </trkpt>
      <trkpt lat="44.7046624682843685150146484375" lon="6.75063586793839931488037109375">
        <ele>1554</ele>
        <time>2026-09-03T06:42:13.000Z</time>
        <extensions>
          <ns3:TrackPointExtension>
            <ns3:hr>137</ns3:hr>
            <ns3:cad>0</ns3:cad>
          </ns3:TrackPointExtension>
        </extensions>
      </trkpt>
      <trkpt lat="44.7046604566276073455810546875" lon="6.7506445012986660003662109375">
        <ele>1554</ele>
        <time>2026-09-03T06:42:14.000Z</time>
        <extensions>
          <ns3:TrackPointExtension>
            <ns3:hr>137</ns3:hr>
            <ns3:cad>0</ns3:cad>
          </ns3:TrackPointExtension>
        </extensions>
      </trkpt>
      <trkpt lat="44.70465282909572124481201171875" lon="6.75065648742020130157470703125">
        <ele>1554.199951171875</ele>
        <time>2026-09-03T06:42:15.000Z</time>
        <extensions>
          <ns3:TrackPointExtension>
            <ns3:hr>137</ns3:hr>
            <ns3:cad>0</ns3:cad>
          </ns3:TrackPointExtension>
        </extensions>
      </trkpt>
      <trkpt lat="44.704650901257991790771484375" lon="6.75066855736076831817626953125">
        <ele>1554.4000244140625</ele>
        <time>2026-09-03T06:42:16.000Z</time>
        <extensions>
          <ns3:TrackPointExtension>
            <ns3:hr>136</ns3:hr>
            <ns3:cad>0</ns3:cad>
          </ns3:TrackPointExtension>
        </extensions>
      </trkpt>
      <trkpt lat="44.7046418488025665283203125" lon="6.75068347714841365814208984375">
        <ele>1554.5999755859375</ele>
        <time>2026-09-03T06:42:17.000Z</time>
        <extensions>
          <ns3:TrackPointExtension>
            <ns3:hr>135</ns3:hr>
            <ns3:cad>52</ns3:cad>
          </ns3:TrackPointExtension>
        </extensions>
      </trkpt>
      <trkpt lat="44.70463338308036327362060546875" lon="6.75069739110767841339111328125">
        <ele>1554.800048828125</ele>
        <time>2026-09-03T06:42:18.000Z</time>
        <extensions>
          <ns3:TrackPointExtension>
            <ns3:hr>134</ns3:hr>
            <ns3:cad>52</ns3:cad>
          </ns3:TrackPointExtension>
        </extensions>
      </trkpt>
      <trkpt lat="44.7046249173581600189208984375" lon="6.75071331672370433807373046875">
        <ele>1555</ele>
        <time>2026-09-03T06:42:19.000Z</time>
        <extensions>
          <ns3:TrackPointExtension>
            <ns3:hr>134</ns3:hr>
            <ns3:cad>52</ns3:cad>
          </ns3:TrackPointExtension>
        </extensions>
      </trkpt>
      <trkpt lat="44.7046182118356227874755859375" lon="6.75072588957846164703369140625">
        <ele>1555</ele>
        <time>2026-09-03T06:42:20.000Z</time>
        <extensions>
          <ns3:TrackPointExtension>
            <ns3:hr>133</ns3:hr>
            <ns3:cad>52</ns3:cad>
          </ns3:TrackPointExtension>
        </extensions>
      </trkpt>
      <trkpt lat="44.70461494289338588714599609375" lon="6.75073276273906230926513671875">
        <ele>1555.199951171875</ele>
        <time>2026-09-03T06:42:21.000Z</time>
        <extensions>
          <ns3:TrackPointExtension>
            <ns3:hr>134</ns3:hr>
            <ns3:cad>0</ns3:cad>
          </ns3:TrackPointExtension>
        </extensions>
      </trkpt>
      <trkpt lat="44.70461142249405384063720703125" lon="6.75074215047061443328857421875">
        <ele>1555.4000244140625</ele>
        <time>2026-09-03T06:42:22.000Z</time>
        <extensions>
          <ns3:TrackPointExtension>
            <ns3:hr>134</ns3:hr>
            <ns3:cad>0</ns3:cad>
          </ns3:TrackPointExtension>
        </extensions>
      </trkpt>
      <trkpt lat="44.70460765063762664794921875" lon="6.75075237639248371124267578125">
        <ele>1555.5999755859375</ele>
        <time>2026-09-03T06:42:23.000Z</time>
        <extensions>
          <ns3:TrackPointExtension>
            <ns3:hr>134</ns3:hr>
            <ns3:cad>53</ns3:cad>
          </ns3:TrackPointExtension>
        </extensions>
      </trkpt>
      <trkpt lat="44.70460253767669200897216796875" lon="6.75076679326593875885009765625">
        <ele>1555.5999755859375</ele>
        <time>2026-09-03T06:42:24.000Z</time>
        <extensions>
          <ns3:TrackPointExtension>
            <ns3:hr>134</ns3:hr>
            <ns3:cad>53</ns3:cad>
          </ns3:TrackPointExtension>
        </extensions>
      </trkpt>
      <trkpt lat="44.7045989334583282470703125" lon="6.75077953375875949859619140625">
        <ele>1555.800048828125</ele>
        <time>2026-09-03T06:42:25.000Z</time>
        <extensions>
          <ns3:TrackPointExtension>
            <ns3:hr>134</ns3:hr>
            <ns3:cad>53</ns3:cad>
          </ns3:TrackPointExtension>
        </extensions>
      </trkpt>
      <trkpt lat="44.704594910144805908203125" lon="6.75079512409865856170654296875">
        <ele>1556</ele>
        <time>2026-09-03T06:42:26.000Z</time>
        <extensions>
          <ns3:TrackPointExtension>
            <ns3:hr>134</ns3:hr>
            <ns3:cad>53</ns3:cad>
          </ns3:TrackPointExtension>
        </extensions>
      </trkpt>
      <trkpt lat="44.70459264703094959259033203125" lon="6.75081004388630390167236328125">
        <ele>1556</ele>
        <time>2026-09-03T06:42:27.000Z</time>
        <extensions>
          <ns3:TrackPointExtension>
            <ns3:hr>135</ns3:hr>
            <ns3:cad>53</ns3:cad>
          </ns3:TrackPointExtension>
        </extensions>
      </trkpt>
      <trkpt lat="44.70459197647869586944580078125" lon="6.75082060508430004119873046875">
        <ele>1556.199951171875</ele>
        <time>2026-09-03T06:42:28.000Z</time>
        <extensions>
          <ns3:TrackPointExtension>
            <ns3:hr>135</ns3:hr>
            <ns3:cad>53</ns3:cad>
          </ns3:TrackPointExtension>
        </extensions>
      </trkpt>
      <trkpt lat="44.70458979718387126922607421875" lon="6.7508289031684398651123046875">
        <ele>1556.4000244140625</ele>
        <time>2026-09-03T06:42:29.000Z</time>
        <extensions>
          <ns3:TrackPointExtension>
            <ns3:hr>135</ns3:hr>
            <ns3:cad>53</ns3:cad>
          </ns3:TrackPointExtension>
        </extensions>
      </trkpt>
      <trkpt lat="44.704585857689380645751953125" lon="6.750839464366436004638671875">
        <ele>1556.5999755859375</ele>
        <time>2026-09-03T06:42:30.000Z</time>
        <extensions>
          <ns3:TrackPointExtension>
            <ns3:hr>135</ns3:hr>
            <ns3:cad>0</ns3:cad>
          </ns3:TrackPointExtension>
        </extensions>
      </trkpt>
      <trkpt lat="44.7045820020139217376708984375" lon="6.7508500255644321441650390625">
        <ele>1556.800048828125</ele>
        <time>2026-09-03T06:42:31.000Z</time>
        <extensions>
          <ns3:TrackPointExtension>
            <ns3:hr>135</ns3:hr>
            <ns3:cad>0</ns3:cad>
          </ns3:TrackPointExtension>
        </extensions>
      </trkpt>
      <trkpt lat="44.70457814633846282958984375" lon="6.750861592590808868408203125">
        <ele>1557</ele>
        <time>2026-09-03T06:42:32.000Z</time>
        <extensions>
          <ns3:TrackPointExtension>
            <ns3:hr>135</ns3:hr>
            <ns3:cad>53</ns3:cad>
          </ns3:TrackPointExtension>
        </extensions>
      </trkpt>
      <trkpt lat="44.70457336865365505218505859375" lon="6.7508738301694393157958984375">
        <ele>1557.199951171875</ele>
        <time>2026-09-03T06:42:33.000Z</time>
        <extensions>
          <ns3:TrackPointExtension>
            <ns3:hr>134</ns3:hr>
            <ns3:cad>53</ns3:cad>
          </ns3:TrackPointExtension>
        </extensions>
      </trkpt>
      <trkpt lat="44.7045645676553249359130859375" lon="6.75088749267160892486572265625">
        <ele>1557.4000244140625</ele>
        <time>2026-09-03T06:42:34.000Z</time>
        <extensions>
          <ns3:TrackPointExtension>
            <ns3:hr>134</ns3:hr>
            <ns3:cad>53</ns3:cad>
          </ns3:TrackPointExtension>
        </extensions>
      </trkpt>
      <trkpt lat="44.7045585326850414276123046875" lon="6.75089889205992221832275390625">
        <ele>1557.4000244140625</ele>
        <time>2026-09-03T06:42:35.000Z</time>
        <extensions>
          <ns3:TrackPointExtension>
            <ns3:hr>134</ns3:hr>
            <ns3:cad>53</ns3:cad>
          </ns3:TrackPointExtension>
        </extensions>
      </trkpt>
      <trkpt lat="44.70454738475382328033447265625" lon="6.75091532059013843536376953125">
        <ele>1557.5999755859375</ele>
        <time>2026-09-03T06:42:36.000Z</time>
        <extensions>
          <ns3:TrackPointExtension>
            <ns3:hr>134</ns3:hr>
            <ns3:cad>54</ns3:cad>
          </ns3:TrackPointExtension>
        </extensions>
      </trkpt>
      <trkpt lat="44.70453984104096889495849609375" lon="6.75092554651200771331787109375">
        <ele>1557.800048828125</ele>
        <time>2026-09-03T06:42:37.000Z</time>
        <extensions>
          <ns3:TrackPointExtension>
            <ns3:hr>134</ns3:hr>
            <ns3:cad>54</ns3:cad>
          </ns3:TrackPointExtension>
        </extensions>
      </trkpt>
      <trkpt lat="44.704528190195560455322265625" lon="6.75093912519514560699462890625">
        <ele>1558</ele>
        <time>2026-09-03T06:42:38.000Z</time>
        <extensions>
          <ns3:TrackPointExtension>
            <ns3:hr>134</ns3:hr>
            <ns3:cad>54</ns3:cad>
          </ns3:TrackPointExtension>
        </extensions>
      </trkpt>
      <trkpt lat="44.70451821573078632354736328125" lon="6.75095044076442718505859375">
        <ele>1558</ele>
        <time>2026-09-03T06:42:39.000Z</time>
        <extensions>
          <ns3:TrackPointExtension>
            <ns3:hr>134</ns3:hr>
            <ns3:cad>54</ns3:cad>
          </ns3:TrackPointExtension>
        </extensions>
      </trkpt>
      <trkpt lat="44.704508744180202484130859375" lon="6.75096024759113788604736328125">
        <ele>1558.199951171875</ele>
        <time>2026-09-03T06:42:40.000Z</time>
        <extensions>
          <ns3:TrackPointExtension>
            <ns3:hr>134</ns3:hr>
            <ns3:cad>54</ns3:cad>
          </ns3:TrackPointExtension>
        </extensions>
      </trkpt>
      <trkpt lat="44.70450145192444324493408203125" lon="6.75096829421818256378173828125">
        <ele>1558.4000244140625</ele>
        <time>2026-09-03T06:42:41.000Z</time>
        <extensions>
          <ns3:TrackPointExtension>
            <ns3:hr>134</ns3:hr>
            <ns3:cad>54</ns3:cad>
          </ns3:TrackPointExtension>
        </extensions>
      </trkpt>
      <trkpt lat="44.704493321478366851806640625" lon="6.750978268682956695556640625">
        <ele>1558.5999755859375</ele>
        <time>2026-09-03T06:42:42.000Z</time>
        <extensions>
          <ns3:TrackPointExtension>
            <ns3:hr>134</ns3:hr>
            <ns3:cad>50</ns3:cad>
          </ns3:TrackPointExtension>
        </extensions>
      </trkpt>
      <trkpt lat="44.70448519103229045867919921875" lon="6.7509868182241916656494140625">
        <ele>1558.800048828125</ele>
        <time>2026-09-03T06:42:43.000Z</time>
        <extensions>
          <ns3:TrackPointExtension>
            <ns3:hr>134</ns3:hr>
            <ns3:cad>50</ns3:cad>
          </ns3:TrackPointExtension>
        </extensions>
      </trkpt>
      <trkpt lat="44.704475216567516326904296875" lon="6.75099595449864864349365234375">
        <ele>1559</ele>
        <time>2026-09-03T06:42:44.000Z</time>
        <extensions>
          <ns3:TrackPointExtension>
            <ns3:hr>134</ns3:hr>
            <ns3:cad>50</ns3:cad>
          </ns3:TrackPointExtension>
        </extensions>
      </trkpt>
      <trkpt lat="44.7044696845114231109619140625" lon="6.75100400112569332122802734375">
        <ele>1559.199951171875</ele>
        <time>2026-09-03T06:42:45.000Z</time>
        <extensions>
          <ns3:TrackPointExtension>
            <ns3:hr>134</ns3:hr>
            <ns3:cad>50</ns3:cad>
          </ns3:TrackPointExtension>
        </extensions>
      </trkpt>
      <trkpt lat="44.70446155406534671783447265625" lon="6.75101355649530887603759765625">
        <ele>1559.199951171875</ele>
        <time>2026-09-03T06:42:46.000Z</time>
        <extensions>
          <ns3:TrackPointExtension>
            <ns3:hr>134</ns3:hr>
            <ns3:cad>50</ns3:cad>
          </ns3:TrackPointExtension>
        </extensions>
      </trkpt>
      <trkpt lat="44.70445568673312664031982421875" lon="6.75102311186492443084716796875">
        <ele>1559.4000244140625</ele>
        <time>2026-09-03T06:42:47.000Z</time>
        <extensions>
          <ns3:TrackPointExtension>
            <ns3:hr>133</ns3:hr>
            <ns3:cad>50</ns3:cad>
          </ns3:TrackPointExtension>
        </extensions>
      </trkpt>
      <trkpt lat="44.704447053372859954833984375" lon="6.7510327510535717010498046875">
        <ele>1559.5999755859375</ele>
        <time>2026-09-03T06:42:48.000Z</time>
        <extensions>
          <ns3:TrackPointExtension>
            <ns3:hr>134</ns3:hr>
            <ns3:cad>53</ns3:cad>
          </ns3:TrackPointExtension>
        </extensions>
      </trkpt>
      <trkpt lat="44.704439342021942138671875" lon="6.75104004330933094024658203125">
        <ele>1559.800048828125</ele>
        <time>2026-09-03T06:42:49.000Z</time>
        <extensions>
          <ns3:TrackPointExtension>
            <ns3:hr>134</ns3:hr>
            <ns3:cad>53</ns3:cad>
          </ns3:TrackPointExtension>
        </extensions>
      </trkpt>
      <trkpt lat="44.70442794263362884521484375" lon="6.751051358878612518310546875">
        <ele>1560</ele>
        <time>2026-09-03T06:42:50.000Z</time>
        <extensions>
          <ns3:TrackPointExtension>
            <ns3:hr>134</ns3:hr>
            <ns3:cad>53</ns3:cad>
          </ns3:TrackPointExtension>
        </extensions>
      </trkpt>
      <trkpt lat="44.70442257821559906005859375" lon="6.7510525323450565338134765625">
        <ele>1560.199951171875</ele>
        <time>2026-09-03T06:42:51.000Z</time>
        <extensions>
          <ns3:TrackPointExtension>
            <ns3:hr>135</ns3:hr>
            <ns3:cad>53</ns3:cad>
          </ns3:TrackPointExtension>
        </extensions>
      </trkpt>
      <trkpt lat="44.70441377721726894378662109375" lon="6.75105848349630832672119140625">
        <ele>1560.4000244140625</ele>
        <time>2026-09-03T06:42:52.000Z</time>
        <extensions>
          <ns3:TrackPointExtension>
            <ns3:hr>135</ns3:hr>
            <ns3:cad>53</ns3:cad>
          </ns3:TrackPointExtension>
        </extensions>
      </trkpt>
      <trkpt lat="44.70440355129539966583251953125" lon="6.7510666139423847198486328125">
        <ele>1560.5999755859375</ele>
        <time>2026-09-03T06:42:53.000Z</time>
        <extensions>
          <ns3:TrackPointExtension>
            <ns3:hr>135</ns3:hr>
            <ns3:cad>53</ns3:cad>
          </ns3:TrackPointExtension>
        </extensions>
      </trkpt>
      <trkpt lat="44.70439366064965724945068359375" lon="6.75107675604522228240966796875">
        <ele>1560.800048828125</ele>
        <time>2026-09-03T06:42:54.000Z</time>
        <extensions>
          <ns3:TrackPointExtension>
            <ns3:hr>135</ns3:hr>
            <ns3:cad>53</ns3:cad>
          </ns3:TrackPointExtension>
        </extensions>
      </trkpt>
      <trkpt lat="44.7043878771364688873291015625" lon="6.751084886491298675537109375">
        <ele>1561</ele>
        <time>2026-09-03T06:42:55.000Z</time>
        <extensions>
          <ns3:TrackPointExtension>
            <ns3:hr>135</ns3:hr>
            <ns3:cad>53</ns3:cad>
          </ns3:TrackPointExtension>
        </extensions>
      </trkpt>
      <trkpt lat="44.70438301563262939453125" lon="6.75109469331800937652587890625">
        <ele>1561.199951171875</ele>
        <time>2026-09-03T06:42:56.000Z</time>
        <extensions>
          <ns3:TrackPointExtension>
            <ns3:hr>135</ns3:hr>
            <ns3:cad>53</ns3:cad>
          </ns3:TrackPointExtension>
        </extensions>
      </trkpt>
      <trkpt lat="44.704379327595233917236328125" lon="6.75110659562051296234130859375">
        <ele>1561.4000244140625</ele>
        <time>2026-09-03T06:42:57.000Z</time>
        <extensions>
          <ns3:TrackPointExtension>
            <ns3:hr>135</ns3:hr>
            <ns3:cad>0</ns3:cad>
          </ns3:TrackPointExtension>
        </extensions>
      </trkpt>
      <trkpt lat="44.70437488518655300140380859375" lon="6.75111095421016216278076171875">
        <ele>1561.5999755859375</ele>
        <time>2026-09-03T06:42:58.000Z</time>
        <extensions>
          <ns3:TrackPointExtension>
            <ns3:hr>135</ns3:hr>
            <ns3:cad>0</ns3:cad>
          </ns3:TrackPointExtension>
        </extensions>
      </trkpt>
      <trkpt lat="44.70436868257820606231689453125" lon="6.751119755208492279052734375">
        <ele>1561.800048828125</ele>
        <time>2026-09-03T06:42:59.000Z</time>
        <extensions>
          <ns3:TrackPointExtension>
            <ns3:hr>135</ns3:hr>
            <ns3:cad>0</ns3:cad>
          </ns3:TrackPointExtension>
        </extensions>
      </trkpt>
      <trkpt lat="44.70436868257820606231689453125" lon="6.75112084485590457916259765625">
        <ele>1562</ele>
        <time>2026-09-03T06:43:00.000Z</time>
        <extensions>
          <ns3:TrackPointExtension>
            <ns3:hr>135</ns3:hr>
            <ns3:cad>0</ns3:cad>
          </ns3:TrackPointExtension>
        </extensions>
      </trkpt>
      <trkpt lat="44.7043583728373050689697265625" lon="6.75112587399780750274658203125">
        <ele>1562.199951171875</ele>
        <time>2026-09-03T06:43:01.000Z</time>
        <extensions>
          <ns3:TrackPointExtension>
            <ns3:hr>136</ns3:hr>
            <ns3:cad>0</ns3:cad>
          </ns3:TrackPointExtension>
        </extensions>
      </trkpt>
      <trkpt lat="44.7043536789715290069580078125" lon="6.75112771801650524139404296875">
        <ele>1562.4000244140625</ele>
        <time>2026-09-03T06:43:02.000Z</time>
        <extensions>
          <ns3:TrackPointExtension>
            <ns3:hr>135</ns3:hr>
            <ns3:cad>0</ns3:cad>
          </ns3:TrackPointExtension>
        </extensions>
      </trkpt>
      <trkpt lat="44.70434286631643772125244140625" lon="6.7511329986155033111572265625">
        <ele>1562.5999755859375</ele>
        <time>2026-09-03T06:43:03.000Z</time>
        <extensions>
          <ns3:TrackPointExtension>
            <ns3:hr>135</ns3:hr>
            <ns3:cad>0</ns3:cad>
          </ns3:TrackPointExtension>
        </extensions>
      </trkpt>
      <trkpt lat="44.70433129929006099700927734375" lon="6.75113827921450138092041015625">
        <ele>1562.5999755859375</ele>
        <time>2026-09-03T06:43:04.000Z</time>
        <extensions>
          <ns3:TrackPointExtension>
            <ns3:hr>136</ns3:hr>
            <ns3:cad>0</ns3:cad>
          </ns3:TrackPointExtension>
        </extensions>
      </trkpt>
      <trkpt lat="44.70431671477854251861572265625" lon="6.7511511035263538360595703125">
        <ele>1562.800048828125</ele>
        <time>2026-09-03T06:43:05.000Z</time>
        <extensions>
          <ns3:TrackPointExtension>
            <ns3:hr>136</ns3:hr>
            <ns3:cad>0</ns3:cad>
          </ns3:TrackPointExtension>
        </extensions>
      </trkpt>
      <trkpt lat="44.70430984161794185638427734375" lon="6.75116443075239658355712890625">
        <ele>1563</ele>
        <time>2026-09-03T06:43:06.000Z</time>
        <extensions>
          <ns3:TrackPointExtension>
            <ns3:hr>136</ns3:hr>
            <ns3:cad>0</ns3:cad>
          </ns3:TrackPointExtension>
        </extensions>
      </trkpt>
      <trkpt lat="44.70430648885667324066162109375" lon="6.7511697113513946533203125">
        <ele>1563.199951171875</ele>
        <time>2026-09-03T06:43:07.000Z</time>
        <extensions>
          <ns3:TrackPointExtension>
            <ns3:hr>137</ns3:hr>
            <ns3:cad>0</ns3:cad>
          </ns3:TrackPointExtension>
        </extensions>
      </trkpt>
      <trkpt lat="44.70429877750575542449951171875" lon="6.75117717124521732330322265625">
        <ele>1563.4000244140625</ele>
        <time>2026-09-03T06:43:08.000Z</time>
        <extensions>
          <ns3:TrackPointExtension>
            <ns3:hr>138</ns3:hr>
            <ns3:cad>0</ns3:cad>
          </ns3:TrackPointExtension>
        </extensions>
      </trkpt>
      <trkpt lat="44.7042985260486602783203125" lon="6.7511779256165027618408203125">
        <ele>1563.5999755859375</ele>
        <time>2026-09-03T06:43:09.000Z</time>
        <extensions>
          <ns3:TrackPointExtension>
            <ns3:hr>138</ns3:hr>
            <ns3:cad>0</ns3:cad>
          </ns3:TrackPointExtension>
        </extensions>
      </trkpt>
      <trkpt lat="44.70429844222962856292724609375" lon="6.75117800943553447723388671875">
        <ele>1563.800048828125</ele>
        <time>2026-09-03T06:43:10.000Z</time>
        <extensions>
          <ns3:TrackPointExtension>
            <ns3:hr>139</ns3:hr>
            <ns3:cad>0</ns3:cad>
          </ns3:TrackPointExtension>
        </extensions>
      </trkpt>
      <trkpt lat="44.70429693348705768585205078125" lon="6.75117968581616878509521484375">
        <ele>1564</ele>
        <time>2026-09-03T06:43:11.000Z</time>
        <extensions>
          <ns3:TrackPointExtension>
            <ns3:hr>140</ns3:hr>
            <ns3:cad>0</ns3:cad>
          </ns3:TrackPointExtension>
        </extensions>
      </trkpt>
      <trkpt lat="44.70428637228906154632568359375" lon="6.75118220038712024688720703125">
        <ele>1564.199951171875</ele>
        <time>2026-09-03T06:43:12.000Z</time>
        <extensions>
          <ns3:TrackPointExtension>
            <ns3:hr>140</ns3:hr>
            <ns3:cad>0</ns3:cad>
          </ns3:TrackPointExtension>
        </extensions>
      </trkpt>
      <trkpt lat="44.7042822651565074920654296875" lon="6.75118421204388141632080078125">
        <ele>1564.4000244140625</ele>
        <time>2026-09-03T06:43:13.000Z</time>
        <extensions>
          <ns3:TrackPointExtension>
            <ns3:hr>140</ns3:hr>
            <ns3:cad>0</ns3:cad>
          </ns3:TrackPointExtension>
        </extensions>
      </trkpt>
      <trkpt lat="44.70426893793046474456787109375" lon="6.75118907354772090911865234375">
        <ele>1564.5999755859375</ele>
        <time>2026-09-03T06:43:14.000Z</time>
        <extensions>
          <ns3:TrackPointExtension>
            <ns3:hr>140</ns3:hr>
            <ns3:cad>0</ns3:cad>
          </ns3:TrackPointExtension>
        </extensions>
      </trkpt>
      <trkpt lat="44.70425955019891262054443359375" lon="6.75119577907025814056396484375">
        <ele>1564.800048828125</ele>
        <time>2026-09-03T06:43:15.000Z</time>
        <extensions>
          <ns3:TrackPointExtension>
            <ns3:hr>139</ns3:hr>
            <ns3:cad>0</ns3:cad>
          </ns3:TrackPointExtension>
        </extensions>
      </trkpt>
      <trkpt lat="44.70424915663897991180419921875" lon="6.7512030713260173797607421875">
        <ele>1565</ele>
        <time>2026-09-03T06:43:16.000Z</time>
        <extensions>
          <ns3:TrackPointExtension>
            <ns3:hr>140</ns3:hr>
            <ns3:cad>0</ns3:cad>
          </ns3:TrackPointExtension>
        </extensions>
      </trkpt>
      <trkpt lat="44.7042420320212841033935546875" lon="6.75120801664888858795166015625">
        <ele>1565.199951171875</ele>
        <time>2026-09-03T06:43:17.000Z</time>
        <extensions>
          <ns3:TrackPointExtension>
            <ns3:hr>140</ns3:hr>
            <ns3:cad>40</ns3:cad>
          </ns3:TrackPointExtension>
        </extensions>
      </trkpt>
      <trkpt lat="44.7042343206703662872314453125" lon="6.751208938658237457275390625">
        <ele>1565.4000244140625</ele>
        <time>2026-09-03T06:43:18.000Z</time>
        <extensions>
          <ns3:TrackPointExtension>
            <ns3:hr>140</ns3:hr>
            <ns3:cad>40</ns3:cad>
          </ns3:TrackPointExtension>
        </extensions>
      </trkpt>
      <trkpt lat="44.7042266093194484710693359375" lon="6.75121053121984004974365234375">
        <ele>1565.5999755859375</ele>
        <time>2026-09-03T06:43:19.000Z</time>
        <extensions>
          <ns3:TrackPointExtension>
            <ns3:hr>140</ns3:hr>
            <ns3:cad>40</ns3:cad>
          </ns3:TrackPointExtension>
        </extensions>
      </trkpt>
      <trkpt lat="44.7042207419872283935546875" lon="6.75121203996241092681884765625">
        <ele>1565.800048828125</ele>
        <time>2026-09-03T06:43:20.000Z</time>
        <extensions>
          <ns3:TrackPointExtension>
            <ns3:hr>140</ns3:hr>
            <ns3:cad>0</ns3:cad>
          </ns3:TrackPointExtension>
        </extensions>
      </trkpt>
      <trkpt lat="44.7042121924459934234619140625" lon="6.751216314733028411865234375">
        <ele>1566</ele>
        <time>2026-09-03T06:43:21.000Z</time>
        <extensions>
          <ns3:TrackPointExtension>
            <ns3:hr>141</ns3:hr>
            <ns3:cad>0</ns3:cad>
          </ns3:TrackPointExtension>
        </extensions>
      </trkpt>
      <trkpt lat="44.7042011283338069915771484375" lon="6.751221679151058197021484375">
        <ele>1566</ele>
        <time>2026-09-03T06:43:22.000Z</time>
        <extensions>
          <ns3:TrackPointExtension>
            <ns3:hr>140</ns3:hr>
            <ns3:cad>0</ns3:cad>
          </ns3:TrackPointExtension>
        </extensions>
      </trkpt>
      <trkpt lat="44.70419199205935001373291015625" lon="6.75122645683586597442626953125">
        <ele>1566.199951171875</ele>
        <time>2026-09-03T06:43:23.000Z</time>
        <extensions>
          <ns3:TrackPointExtension>
            <ns3:hr>140</ns3:hr>
            <ns3:cad>0</ns3:cad>
          </ns3:TrackPointExtension>
        </extensions>
      </trkpt>
      <trkpt lat="44.704184196889400482177734375" lon="6.7512305639684200286865234375">
        <ele>1566.4000244140625</ele>
        <time>2026-09-03T06:43:24.000Z</time>
        <extensions>
          <ns3:TrackPointExtension>
            <ns3:hr>140</ns3:hr>
            <ns3:cad>0</ns3:cad>
          </ns3:TrackPointExtension>
        </extensions>
      </trkpt>
      <trkpt lat="44.704176820814609527587890625" lon="6.751237101852893829345703125">
        <ele>1566.5999755859375</ele>
        <time>2026-09-03T06:43:25.000Z</time>
        <extensions>
          <ns3:TrackPointExtension>
            <ns3:hr>140</ns3:hr>
            <ns3:cad>0</ns3:cad>
          </ns3:TrackPointExtension>
        </extensions>
      </trkpt>
      <trkpt lat="44.70417019911110401153564453125" lon="6.7512394487857818603515625">
        <ele>1566.800048828125</ele>
        <time>2026-09-03T06:43:26.000Z</time>
        <extensions>
          <ns3:TrackPointExtension>
            <ns3:hr>139</ns3:hr>
            <ns3:cad>0</ns3:cad>
          </ns3:TrackPointExtension>
        </extensions>
      </trkpt>
      <trkpt lat="44.70416533760726451873779296875" lon="6.75124146044254302978515625">
        <ele>1567</ele>
        <time>2026-09-03T06:43:27.000Z</time>
        <extensions>
          <ns3:TrackPointExtension>
            <ns3:hr>138</ns3:hr>
            <ns3:cad>0</ns3:cad>
          </ns3:TrackPointExtension>
        </extensions>
      </trkpt>
      <trkpt lat="44.704155027866363525390625" lon="6.7512540332973003387451171875">
        <ele>1567.199951171875</ele>
        <time>2026-09-03T06:43:28.000Z</time>
        <extensions>
          <ns3:TrackPointExtension>
            <ns3:hr>138</ns3:hr>
            <ns3:cad>0</ns3:cad>
          </ns3:TrackPointExtension>
        </extensions>
      </trkpt>
      <trkpt lat="44.70415175892412662506103515625" lon="6.75126283429563045501708984375">
        <ele>1567.4000244140625</ele>
        <time>2026-09-03T06:43:29.000Z</time>
        <extensions>
          <ns3:TrackPointExtension>
            <ns3:hr>138</ns3:hr>
            <ns3:cad>0</ns3:cad>
          </ns3:TrackPointExtension>
        </extensions>
      </trkpt>
      <trkpt lat="44.70413650386035442352294921875" lon="6.7512716352939605712890625">
        <ele>1567.5999755859375</ele>
        <time>2026-09-03T06:43:30.000Z</time>
        <extensions>
          <ns3:TrackPointExtension>
            <ns3:hr>138</ns3:hr>
            <ns3:cad>0</ns3:cad>
          </ns3:TrackPointExtension>
        </extensions>
      </trkpt>
      <trkpt lat="44.704128205776214599609375" lon="6.7512785084545612335205078125">
        <ele>1567.800048828125</ele>
        <time>2026-09-03T06:43:31.000Z</time>
        <extensions>
          <ns3:TrackPointExtension>
            <ns3:hr>139</ns3:hr>
            <ns3:cad>0</ns3:cad>
          </ns3:TrackPointExtension>
        </extensions>
      </trkpt>
      <trkpt lat="44.70411412417888641357421875" lon="6.75128932110965251922607421875">
        <ele>1568</ele>
        <time>2026-09-03T06:43:32.000Z</time>
        <extensions>
          <ns3:TrackPointExtension>
            <ns3:hr>139</ns3:hr>
            <ns3:cad>0</ns3:cad>
          </ns3:TrackPointExtension>
        </extensions>
      </trkpt>
      <trkpt lat="44.7041062451899051666259765625" lon="6.751296781003475189208984375">
        <ele>1568.199951171875</ele>
        <time>2026-09-03T06:43:33.000Z</time>
        <extensions>
          <ns3:TrackPointExtension>
            <ns3:hr>139</ns3:hr>
            <ns3:cad>0</ns3:cad>
          </ns3:TrackPointExtension>
        </extensions>
      </trkpt>
      <trkpt lat="44.7040928341448307037353515625" lon="6.7513070069253444671630859375">
        <ele>1568.4000244140625</ele>
        <time>2026-09-03T06:43:34.000Z</time>
        <extensions>
          <ns3:TrackPointExtension>
            <ns3:hr>139</ns3:hr>
            <ns3:cad>0</ns3:cad>
          </ns3:TrackPointExtension>
        </extensions>
      </trkpt>
      <trkpt lat="44.70408218912780284881591796875" lon="6.75131656229496002197265625">
        <ele>1568.5999755859375</ele>
        <time>2026-09-03T06:43:35.000Z</time>
        <extensions>
          <ns3:TrackPointExtension>
            <ns3:hr>139</ns3:hr>
            <ns3:cad>0</ns3:cad>
          </ns3:TrackPointExtension>
        </extensions>
      </trkpt>
      <trkpt lat="44.704075567424297332763671875" lon="6.75132486037909984588623046875">
        <ele>1568.800048828125</ele>
        <time>2026-09-03T06:43:36.000Z</time>
        <extensions>
          <ns3:TrackPointExtension>
            <ns3:hr>138</ns3:hr>
            <ns3:cad>0</ns3:cad>
          </ns3:TrackPointExtension>
        </extensions>
      </trkpt>
      <trkpt lat="44.70406810753047466278076171875" lon="6.7513324879109859466552734375">
        <ele>1568.800048828125</ele>
        <time>2026-09-03T06:43:37.000Z</time>
        <extensions>
          <ns3:TrackPointExtension>
            <ns3:hr>139</ns3:hr>
            <ns3:cad>0</ns3:cad>
          </ns3:TrackPointExtension>
        </extensions>
      </trkpt>
      <trkpt lat="44.70406793989241123199462890625" lon="6.7513331584632396697998046875">
        <ele>1569</ele>
        <time>2026-09-03T06:43:38.000Z</time>
        <extensions>
          <ns3:TrackPointExtension>
            <ns3:hr>139</ns3:hr>
            <ns3:cad>0</ns3:cad>
          </ns3:TrackPointExtension>
        </extensions>
      </trkpt>
      <trkpt lat="44.70405855216085910797119140625" lon="6.75134263001382350921630859375">
        <ele>1569.199951171875</ele>
        <time>2026-09-03T06:43:39.000Z</time>
        <extensions>
          <ns3:TrackPointExtension>
            <ns3:hr>139</ns3:hr>
            <ns3:cad>0</ns3:cad>
          </ns3:TrackPointExtension>
        </extensions>
      </trkpt>
      <trkpt lat="44.7040489129722118377685546875" lon="6.75135872326791286468505859375">
        <ele>1569.4000244140625</ele>
        <time>2026-09-03T06:43:40.000Z</time>
        <extensions>
          <ns3:TrackPointExtension>
            <ns3:hr>138</ns3:hr>
            <ns3:cad>0</ns3:cad>
          </ns3:TrackPointExtension>
        </extensions>
      </trkpt>
      <trkpt lat="44.7040368430316448211669921875" lon="6.75136693753302097320556640625">
        <ele>1569.4000244140625</ele>
        <time>2026-09-03T06:43:41.000Z</time>
        <extensions>
          <ns3:TrackPointExtension>
            <ns3:hr>139</ns3:hr>
            <ns3:cad>0</ns3:cad>
          </ns3:TrackPointExtension>
        </extensions>
      </trkpt>
      <trkpt lat="44.7040287964046001434326171875" lon="6.75137230195105075836181640625">
        <ele>1569.5999755859375</ele>
        <time>2026-09-03T06:43:42.000Z</time>
        <extensions>
          <ns3:TrackPointExtension>
            <ns3:hr>139</ns3:hr>
            <ns3:cad>0</ns3:cad>
          </ns3:TrackPointExtension>
        </extensions>
      </trkpt>
      <trkpt lat="44.70401764847338199615478515625" lon="6.75137515179812908172607421875">
        <ele>1569.800048828125</ele>
        <time>2026-09-03T06:43:43.000Z</time>
        <extensions>
          <ns3:TrackPointExtension>
            <ns3:hr>139</ns3:hr>
            <ns3:cad>0</ns3:cad>
          </ns3:TrackPointExtension>
        </extensions>
      </trkpt>
      <trkpt lat="44.70400909893214702606201171875" lon="6.75137951038777828216552734375">
        <ele>1570</ele>
        <time>2026-09-03T06:43:44.000Z</time>
        <extensions>
          <ns3:TrackPointExtension>
            <ns3:hr>138</ns3:hr>
            <ns3:cad>0</ns3:cad>
          </ns3:TrackPointExtension>
        </extensions>
      </trkpt>
      <trkpt lat="44.70400205813348293304443359375" lon="6.75139124505221843719482421875">
        <ele>1570</ele>
        <time>2026-09-03T06:43:45.000Z</time>
        <extensions>
          <ns3:TrackPointExtension>
            <ns3:hr>139</ns3:hr>
            <ns3:cad>0</ns3:cad>
          </ns3:TrackPointExtension>
        </extensions>
      </trkpt>
      <trkpt lat="44.70399367623031139373779296875" lon="6.75140214152634143829345703125">
        <ele>1570.199951171875</ele>
        <time>2026-09-03T06:43:46.000Z</time>
        <extensions>
          <ns3:TrackPointExtension>
            <ns3:hr>139</ns3:hr>
            <ns3:cad>0</ns3:cad>
          </ns3:TrackPointExtension>
        </extensions>
      </trkpt>
      <trkpt lat="44.70398529432713985443115234375" lon="6.75140951760113239288330078125">
        <ele>1570.5999755859375</ele>
        <time>2026-09-03T06:43:47.000Z</time>
        <extensions>
          <ns3:TrackPointExtension>
            <ns3:hr>138</ns3:hr>
            <ns3:cad>0</ns3:cad>
          </ns3:TrackPointExtension>
        </extensions>
      </trkpt>
      <trkpt lat="44.70397842116653919219970703125" lon="6.751417480409145355224609375">
        <ele>1570.5999755859375</ele>
        <time>2026-09-03T06:43:48.000Z</time>
        <extensions>
          <ns3:TrackPointExtension>
            <ns3:hr>139</ns3:hr>
            <ns3:cad>0</ns3:cad>
          </ns3:TrackPointExtension>
        </extensions>
      </trkpt>
      <trkpt lat="44.70397138036787509918212890625" lon="6.7514206655323505401611328125">
        <ele>1570.800048828125</ele>
        <time>2026-09-03T06:43:49.000Z</time>
        <extensions>
          <ns3:TrackPointExtension>
            <ns3:hr>139</ns3:hr>
            <ns3:cad>0</ns3:cad>
          </ns3:TrackPointExtension>
        </extensions>
      </trkpt>
      <trkpt lat="44.7039597295224666595458984375" lon="6.75143080763518810272216796875">
        <ele>1571</ele>
        <time>2026-09-03T06:43:50.000Z</time>
        <extensions>
          <ns3:TrackPointExtension>
            <ns3:hr>138</ns3:hr>
            <ns3:cad>0</ns3:cad>
          </ns3:TrackPointExtension>
        </extensions>
      </trkpt>
      <trkpt lat="44.70395453274250030517578125" lon="6.75143717788159847259521484375">
        <ele>1571</ele>
        <time>2026-09-03T06:43:51.000Z</time>
        <extensions>
          <ns3:TrackPointExtension>
            <ns3:hr>139</ns3:hr>
            <ns3:cad>0</ns3:cad>
          </ns3:TrackPointExtension>
        </extensions>
      </trkpt>
      <trkpt lat="44.7039429657161235809326171875" lon="6.75144572742283344268798828125">
        <ele>1571.199951171875</ele>
        <time>2026-09-03T06:43:52.000Z</time>
        <extensions>
          <ns3:TrackPointExtension>
            <ns3:hr>139</ns3:hr>
            <ns3:cad>0</ns3:cad>
          </ns3:TrackPointExtension>
        </extensions>
      </trkpt>
      <trkpt lat="44.70393667928874492645263671875" lon="6.75144338048994541168212890625">
        <ele>1571.4000244140625</ele>
        <time>2026-09-03T06:43:53.000Z</time>
        <extensions>
          <ns3:TrackPointExtension>
            <ns3:hr>138</ns3:hr>
            <ns3:cad>0</ns3:cad>
          </ns3:TrackPointExtension>
        </extensions>
      </trkpt>
      <trkpt lat="44.70392175950109958648681640625" lon="6.75144690088927745819091796875">
        <ele>1571.5999755859375</ele>
        <time>2026-09-03T06:43:54.000Z</time>
        <extensions>
          <ns3:TrackPointExtension>
            <ns3:hr>139</ns3:hr>
            <ns3:cad>0</ns3:cad>
          </ns3:TrackPointExtension>
        </extensions>
      </trkpt>
      <trkpt lat="44.70391455106437206268310546875" lon="6.75145176239311695098876953125">
        <ele>1571.5999755859375</ele>
        <time>2026-09-03T06:43:55.000Z</time>
        <extensions>
          <ns3:TrackPointExtension>
            <ns3:hr>138</ns3:hr>
            <ns3:cad>0</ns3:cad>
          </ns3:TrackPointExtension>
        </extensions>
      </trkpt>
      <trkpt lat="44.7038920037448406219482421875" lon="6.75146006047725677490234375">
        <ele>1571.800048828125</ele>
        <time>2026-09-03T06:43:56.000Z</time>
        <extensions>
          <ns3:TrackPointExtension>
            <ns3:hr>138</ns3:hr>
            <ns3:cad>0</ns3:cad>
          </ns3:TrackPointExtension>
        </extensions>
      </trkpt>
      <trkpt lat="44.7038842923939228057861328125" lon="6.75147305242717266082763671875">
        <ele>1572</ele>
        <time>2026-09-03T06:43:57.000Z</time>
        <extensions>
          <ns3:TrackPointExtension>
            <ns3:hr>137</ns3:hr>
            <ns3:cad>0</ns3:cad>
          </ns3:TrackPointExtension>
        </extensions>
      </trkpt>
      <trkpt lat="44.70387113280594348907470703125" lon="6.75148445181548595428466796875">
        <ele>1572</ele>
        <time>2026-09-03T06:43:58.000Z</time>
        <extensions>
          <ns3:TrackPointExtension>
            <ns3:hr>137</ns3:hr>
            <ns3:cad>0</ns3:cad>
          </ns3:TrackPointExtension>
        </extensions>
      </trkpt>
      <trkpt lat="44.70386727713048458099365234375" lon="6.75149358808994293212890625">
        <ele>1572.199951171875</ele>
        <time>2026-09-03T06:43:59.000Z</time>
        <extensions>
          <ns3:TrackPointExtension>
            <ns3:hr>137</ns3:hr>
            <ns3:cad>0</ns3:cad>
          </ns3:TrackPointExtension>
        </extensions>
      </trkpt>
      <trkpt lat="44.7038531117141246795654296875" lon="6.75150490365922451019287109375">
        <ele>1572.4000244140625</ele>
        <time>2026-09-03T06:44:00.000Z</time>
        <extensions>
          <ns3:TrackPointExtension>
            <ns3:hr>136</ns3:hr>
            <ns3:cad>0</ns3:cad>
          </ns3:TrackPointExtension>
        </extensions>
      </trkpt>
      <trkpt lat="44.7038490884006023406982421875" lon="6.751510016620159149169921875">
        <ele>1572.5999755859375</ele>
        <time>2026-09-03T06:44:01.000Z</time>
        <extensions>
          <ns3:TrackPointExtension>
            <ns3:hr>136</ns3:hr>
            <ns3:cad>0</ns3:cad>
          </ns3:TrackPointExtension>
        </extensions>
      </trkpt>
      <trkpt lat="44.70383291132748126983642578125" lon="6.75151496194303035736083984375">
        <ele>1572.800048828125</ele>
        <time>2026-09-03T06:44:02.000Z</time>
        <extensions>
          <ns3:TrackPointExtension>
            <ns3:hr>136</ns3:hr>
            <ns3:cad>0</ns3:cad>
          </ns3:TrackPointExtension>
        </extensions>
      </trkpt>
      <trkpt lat="44.70382570289075374603271484375" lon="6.75152602605521678924560546875">
        <ele>1572.800048828125</ele>
        <time>2026-09-03T06:44:03.000Z</time>
        <extensions>
          <ns3:TrackPointExtension>
            <ns3:hr>136</ns3:hr>
            <ns3:cad>0</ns3:cad>
          </ns3:TrackPointExtension>
        </extensions>
      </trkpt>
      <trkpt lat="44.70381774008274078369140625" lon="6.75153122283518314361572265625">
        <ele>1573</ele>
        <time>2026-09-03T06:44:04.000Z</time>
        <extensions>
          <ns3:TrackPointExtension>
            <ns3:hr>137</ns3:hr>
            <ns3:cad>0</ns3:cad>
          </ns3:TrackPointExtension>
        </extensions>
      </trkpt>
      <trkpt lat="44.7038075141608715057373046875" lon="6.75153356976807117462158203125">
        <ele>1573.199951171875</ele>
        <time>2026-09-03T06:44:05.000Z</time>
        <extensions>
          <ns3:TrackPointExtension>
            <ns3:hr>136</ns3:hr>
            <ns3:cad>0</ns3:cad>
          </ns3:TrackPointExtension>
        </extensions>
      </trkpt>
      <trkpt lat="44.703799970448017120361328125" lon="6.75153843127191066741943359375">
        <ele>1573.4000244140625</ele>
        <time>2026-09-03T06:44:06.000Z</time>
        <extensions>
          <ns3:TrackPointExtension>
            <ns3:hr>136</ns3:hr>
            <ns3:cad>0</ns3:cad>
          </ns3:TrackPointExtension>
        </extensions>
      </trkpt>
      <trkpt lat="44.7037915885448455810546875" lon="6.75154455006122589111328125">
        <ele>1573.5999755859375</ele>
        <time>2026-09-03T06:44:07.000Z</time>
        <extensions>
          <ns3:TrackPointExtension>
            <ns3:hr>137</ns3:hr>
            <ns3:cad>0</ns3:cad>
          </ns3:TrackPointExtension>
        </extensions>
      </trkpt>
      <trkpt lat="44.7037833742797374725341796875" lon="6.7515532672405242919921875">
        <ele>1573.5999755859375</ele>
        <time>2026-09-03T06:44:08.000Z</time>
        <extensions>
          <ns3:TrackPointExtension>
            <ns3:hr>137</ns3:hr>
            <ns3:cad>0</ns3:cad>
          </ns3:TrackPointExtension>
        </extensions>
      </trkpt>
      <trkpt lat="44.70377641730010509490966796875" lon="6.7515618167817592620849609375">
        <ele>1573.800048828125</ele>
        <time>2026-09-03T06:44:09.000Z</time>
        <extensions>
          <ns3:TrackPointExtension>
            <ns3:hr>137</ns3:hr>
            <ns3:cad>0</ns3:cad>
          </ns3:TrackPointExtension>
        </extensions>
      </trkpt>
      <trkpt lat="44.70377080142498016357421875" lon="6.7515755631029605865478515625">
        <ele>1573.800048828125</ele>
        <time>2026-09-03T06:44:10.000Z</time>
        <extensions>
          <ns3:TrackPointExtension>
            <ns3:hr>138</ns3:hr>
            <ns3:cad>0</ns3:cad>
          </ns3:TrackPointExtension>
        </extensions>
      </trkpt>
      <trkpt lat="44.70376870594918727874755859375" lon="6.7515814304351806640625">
        <ele>1574</ele>
        <time>2026-09-03T06:44:11.000Z</time>
        <extensions>
          <ns3:TrackPointExtension>
            <ns3:hr>138</ns3:hr>
            <ns3:cad>0</ns3:cad>
          </ns3:TrackPointExtension>
        </extensions>
      </trkpt>
      <trkpt lat="44.70375864766538143157958984375" lon="6.75158805213868618011474609375">
        <ele>1574.199951171875</ele>
        <time>2026-09-03T06:44:12.000Z</time>
        <extensions>
          <ns3:TrackPointExtension>
            <ns3:hr>138</ns3:hr>
            <ns3:cad>0</ns3:cad>
          </ns3:TrackPointExtension>
        </extensions>
      </trkpt>
      <trkpt lat="44.70375948585569858551025390625" lon="6.7515976913273334503173828125">
        <ele>1574.4000244140625</ele>
        <time>2026-09-03T06:44:13.000Z</time>
        <extensions>
          <ns3:TrackPointExtension>
            <ns3:hr>138</ns3:hr>
            <ns3:cad>0</ns3:cad>
          </ns3:TrackPointExtension>
        </extensions>
      </trkpt>
      <trkpt lat="44.7037568874657154083251953125" lon="6.7516084201633930206298828125">
        <ele>1574.5999755859375</ele>
        <time>2026-09-03T06:44:14.000Z</time>
        <extensions>
          <ns3:TrackPointExtension>
            <ns3:hr>138</ns3:hr>
            <ns3:cad>0</ns3:cad>
          </ns3:TrackPointExtension>
        </extensions>
      </trkpt>
      <trkpt lat="44.7037518583238124847412109375" lon="6.75162057392299175262451171875">
        <ele>1574.800048828125</ele>
        <time>2026-09-03T06:44:15.000Z</time>
        <extensions>
          <ns3:TrackPointExtension>
            <ns3:hr>138</ns3:hr>
            <ns3:cad>0</ns3:cad>
          </ns3:TrackPointExtension>
        </extensions>
      </trkpt>
      <trkpt lat="44.70373995602130889892578125" lon="6.7516337335109710693359375">
        <ele>1575</ele>
        <time>2026-09-03T06:44:16.000Z</time>
        <extensions>
          <ns3:TrackPointExtension>
            <ns3:hr>138</ns3:hr>
            <ns3:cad>0</ns3:cad>
          </ns3:TrackPointExtension>
        </extensions>
      </trkpt>
      <trkpt lat="44.7037367708981037139892578125" lon="6.75164404325187206268310546875">
        <ele>1575.199951171875</ele>
        <time>2026-09-03T06:44:17.000Z</time>
        <extensions>
          <ns3:TrackPointExtension>
            <ns3:hr>138</ns3:hr>
            <ns3:cad>0</ns3:cad>
          </ns3:TrackPointExtension>
        </extensions>
      </trkpt>
      <trkpt lat="44.7037283889949321746826171875" lon="6.75165527500212192535400390625">
        <ele>1575.4000244140625</ele>
        <time>2026-09-03T06:44:18.000Z</time>
        <extensions>
          <ns3:TrackPointExtension>
            <ns3:hr>138</ns3:hr>
            <ns3:cad>0</ns3:cad>
          </ns3:TrackPointExtension>
        </extensions>
      </trkpt>
      <trkpt lat="44.70372327603399753570556640625" lon="6.75166566856205463409423828125">
        <ele>1575.5999755859375</ele>
        <time>2026-09-03T06:44:19.000Z</time>
        <extensions>
          <ns3:TrackPointExtension>
            <ns3:hr>138</ns3:hr>
            <ns3:cad>0</ns3:cad>
          </ns3:TrackPointExtension>
        </extensions>
      </trkpt>
      <trkpt lat="44.70372118055820465087890625" lon="6.7516741342842578887939453125">
        <ele>1575.800048828125</ele>
        <time>2026-09-03T06:44:20.000Z</time>
        <extensions>
          <ns3:TrackPointExtension>
            <ns3:hr>138</ns3:hr>
            <ns3:cad>0</ns3:cad>
          </ns3:TrackPointExtension>
        </extensions>
      </trkpt>
      <trkpt lat="44.7037166543304920196533203125" lon="6.7516888864338397979736328125">
        <ele>1576</ele>
        <time>2026-09-03T06:44:21.000Z</time>
        <extensions>
          <ns3:TrackPointExtension>
            <ns3:hr>138</ns3:hr>
            <ns3:cad>0</ns3:cad>
          </ns3:TrackPointExtension>
        </extensions>
      </trkpt>
      <trkpt lat="44.70371782779693603515625" lon="6.7516945861279964447021484375">
        <ele>1576.199951171875</ele>
        <time>2026-09-03T06:44:22.000Z</time>
        <extensions>
          <ns3:TrackPointExtension>
            <ns3:hr>138</ns3:hr>
            <ns3:cad>0</ns3:cad>
          </ns3:TrackPointExtension>
        </extensions>
      </trkpt>
      <trkpt lat="44.7037139721214771270751953125" lon="6.7517046444118022918701171875">
        <ele>1576.4000244140625</ele>
        <time>2026-09-03T06:44:23.000Z</time>
        <extensions>
          <ns3:TrackPointExtension>
            <ns3:hr>138</ns3:hr>
            <ns3:cad>0</ns3:cad>
          </ns3:TrackPointExtension>
        </extensions>
      </trkpt>
      <trkpt lat="44.703712798655033111572265625" lon="6.751713193953037261962890625">
        <ele>1576.5999755859375</ele>
        <time>2026-09-03T06:44:24.000Z</time>
        <extensions>
          <ns3:TrackPointExtension>
            <ns3:hr>137</ns3:hr>
            <ns3:cad>0</ns3:cad>
          </ns3:TrackPointExtension>
        </extensions>
      </trkpt>
      <trkpt lat="44.70370600931346416473388671875" lon="6.7517284490168094635009765625">
        <ele>1576.800048828125</ele>
        <time>2026-09-03T06:44:25.000Z</time>
        <extensions>
          <ns3:TrackPointExtension>
            <ns3:hr>138</ns3:hr>
            <ns3:cad>0</ns3:cad>
          </ns3:TrackPointExtension>
        </extensions>
      </trkpt>
      <trkpt lat="44.70370374619960784912109375" lon="6.75173725001513957977294921875">
        <ele>1577</ele>
        <time>2026-09-03T06:44:26.000Z</time>
        <extensions>
          <ns3:TrackPointExtension>
            <ns3:hr>138</ns3:hr>
            <ns3:cad>0</ns3:cad>
          </ns3:TrackPointExtension>
        </extensions>
      </trkpt>
      <trkpt lat="44.70370131544768810272216796875" lon="6.75175376236438751220703125">
        <ele>1577</ele>
        <time>2026-09-03T06:44:27.000Z</time>
        <extensions>
          <ns3:TrackPointExtension>
            <ns3:hr>138</ns3:hr>
            <ns3:cad>53</ns3:cad>
          </ns3:TrackPointExtension>
        </extensions>
      </trkpt>
      <trkpt lat="44.70369829796254634857177734375" lon="6.7517670057713985443115234375">
        <ele>1577.199951171875</ele>
        <time>2026-09-03T06:44:28.000Z</time>
        <extensions>
          <ns3:TrackPointExtension>
            <ns3:hr>137</ns3:hr>
            <ns3:cad>53</ns3:cad>
          </ns3:TrackPointExtension>
        </extensions>
      </trkpt>
      <trkpt lat="44.70369561575353145599365234375" lon="6.751781590282917022705078125">
        <ele>1577.4000244140625</ele>
        <time>2026-09-03T06:44:29.000Z</time>
        <extensions>
          <ns3:TrackPointExtension>
            <ns3:hr>137</ns3:hr>
            <ns3:cad>54</ns3:cad>
          </ns3:TrackPointExtension>
        </extensions>
      </trkpt>
      <trkpt lat="44.7036938555538654327392578125" lon="6.75179491750895977020263671875">
        <ele>1577.5999755859375</ele>
        <time>2026-09-03T06:44:30.000Z</time>
        <extensions>
          <ns3:TrackPointExtension>
            <ns3:hr>137</ns3:hr>
            <ns3:cad>53</ns3:cad>
          </ns3:TrackPointExtension>
        </extensions>
      </trkpt>
      <trkpt lat="44.70369025133550167083740234375" lon="6.7518129386007785797119140625">
        <ele>1577.5999755859375</ele>
        <time>2026-09-03T06:44:31.000Z</time>
        <extensions>
          <ns3:TrackPointExtension>
            <ns3:hr>136</ns3:hr>
            <ns3:cad>53</ns3:cad>
          </ns3:TrackPointExtension>
        </extensions>
      </trkpt>
      <trkpt lat="44.7036868147552013397216796875" lon="6.75182727165520191192626953125">
        <ele>1577.800048828125</ele>
        <time>2026-09-03T06:44:32.000Z</time>
        <extensions>
          <ns3:TrackPointExtension>
            <ns3:hr>137</ns3:hr>
            <ns3:cad>53</ns3:cad>
          </ns3:TrackPointExtension>
        </extensions>
      </trkpt>
      <trkpt lat="44.703682623803615570068359375" lon="6.75184185616672039031982421875">
        <ele>1578</ele>
        <time>2026-09-03T06:44:33.000Z</time>
        <extensions>
          <ns3:TrackPointExtension>
            <ns3:hr>137</ns3:hr>
            <ns3:cad>53</ns3:cad>
          </ns3:TrackPointExtension>
        </extensions>
      </trkpt>
      <trkpt lat="44.70367918722331523895263671875" lon="6.75185677595436573028564453125">
        <ele>1578.199951171875</ele>
        <time>2026-09-03T06:44:34.000Z</time>
        <extensions>
          <ns3:TrackPointExtension>
            <ns3:hr>137</ns3:hr>
            <ns3:cad>53</ns3:cad>
          </ns3:TrackPointExtension>
        </extensions>
      </trkpt>
      <trkpt lat="44.7036730684340000152587890625" lon="6.7518696002662181854248046875">
        <ele>1578.4000244140625</ele>
        <time>2026-09-03T06:44:35.000Z</time>
        <extensions>
          <ns3:TrackPointExtension>
            <ns3:hr>136</ns3:hr>
            <ns3:cad>0</ns3:cad>
          </ns3:TrackPointExtension>
        </extensions>
      </trkpt>
      <trkpt lat="44.70366829074919223785400390625" lon="6.75187823362648487091064453125">
        <ele>1578.5999755859375</ele>
        <time>2026-09-03T06:44:36.000Z</time>
        <extensions>
          <ns3:TrackPointExtension>
            <ns3:hr>136</ns3:hr>
            <ns3:cad>0</ns3:cad>
          </ns3:TrackPointExtension>
        </extensions>
      </trkpt>
      <trkpt lat="44.7036593221127986907958984375" lon="6.7518917284905910491943359375">
        <ele>1578.800048828125</ele>
        <time>2026-09-03T06:44:37.000Z</time>
        <extensions>
          <ns3:TrackPointExtension>
            <ns3:hr>136</ns3:hr>
            <ns3:cad>53</ns3:cad>
          </ns3:TrackPointExtension>
        </extensions>
      </trkpt>
      <trkpt lat="44.7036532871425151824951171875" lon="6.751902960240840911865234375">
        <ele>1579</ele>
        <time>2026-09-03T06:44:38.000Z</time>
        <extensions>
          <ns3:TrackPointExtension>
            <ns3:hr>136</ns3:hr>
            <ns3:cad>53</ns3:cad>
          </ns3:TrackPointExtension>
        </extensions>
      </trkpt>
      <trkpt lat="44.703647755086421966552734375" lon="6.7519162036478519439697265625">
        <ele>1579.199951171875</ele>
        <time>2026-09-03T06:44:39.000Z</time>
        <extensions>
          <ns3:TrackPointExtension>
            <ns3:hr>136</ns3:hr>
            <ns3:cad>53</ns3:cad>
          </ns3:TrackPointExtension>
        </extensions>
      </trkpt>
      <trkpt lat="44.70364163629710674285888671875" lon="6.75192902795970439910888671875">
        <ele>1579.4000244140625</ele>
        <time>2026-09-03T06:44:40.000Z</time>
        <extensions>
          <ns3:TrackPointExtension>
            <ns3:hr>135</ns3:hr>
            <ns3:cad>53</ns3:cad>
          </ns3:TrackPointExtension>
        </extensions>
      </trkpt>
      <trkpt lat="44.7036387026309967041015625" lon="6.7519369907677173614501953125">
        <ele>1579.5999755859375</ele>
        <time>2026-09-03T06:44:41.000Z</time>
        <extensions>
          <ns3:TrackPointExtension>
            <ns3:hr>135</ns3:hr>
            <ns3:cad>53</ns3:cad>
          </ns3:TrackPointExtension>
        </extensions>
      </trkpt>
      <trkpt lat="44.70363409258425235748291015625" lon="6.751948557794094085693359375">
        <ele>1579.800048828125</ele>
        <time>2026-09-03T06:44:42.000Z</time>
        <extensions>
          <ns3:TrackPointExtension>
            <ns3:hr>135</ns3:hr>
            <ns3:cad>0</ns3:cad>
          </ns3:TrackPointExtension>
        </extensions>
      </trkpt>
      <trkpt lat="44.70362973399460315704345703125" lon="6.751957274973392486572265625">
        <ele>1580</ele>
        <time>2026-09-03T06:44:43.000Z</time>
        <extensions>
          <ns3:TrackPointExtension>
            <ns3:hr>135</ns3:hr>
            <ns3:cad>0</ns3:cad>
          </ns3:TrackPointExtension>
        </extensions>
      </trkpt>
      <trkpt lat="44.70362537540495395660400390625" lon="6.75196842290461063385009765625">
        <ele>1580.199951171875</ele>
        <time>2026-09-03T06:44:44.000Z</time>
        <extensions>
          <ns3:TrackPointExtension>
            <ns3:hr>135</ns3:hr>
            <ns3:cad>0</ns3:cad>
          </ns3:TrackPointExtension>
        </extensions>
      </trkpt>
      <trkpt lat="44.70362319611012935638427734375" lon="6.7519778944551944732666015625">
        <ele>1580.4000244140625</ele>
        <time>2026-09-03T06:44:45.000Z</time>
        <extensions>
          <ns3:TrackPointExtension>
            <ns3:hr>136</ns3:hr>
            <ns3:cad>0</ns3:cad>
          </ns3:TrackPointExtension>
        </extensions>
      </trkpt>
      <trkpt lat="44.70362084917724132537841796875" lon="6.7519896291196346282958984375">
        <ele>1580.5999755859375</ele>
        <time>2026-09-03T06:44:46.000Z</time>
        <extensions>
          <ns3:TrackPointExtension>
            <ns3:hr>135</ns3:hr>
            <ns3:cad>0</ns3:cad>
          </ns3:TrackPointExtension>
        </extensions>
      </trkpt>
      <trkpt lat="44.703619591891765594482421875" lon="6.7520000226795673370361328125">
        <ele>1580.800048828125</ele>
        <time>2026-09-03T06:44:47.000Z</time>
        <extensions>
          <ns3:TrackPointExtension>
            <ns3:hr>135</ns3:hr>
            <ns3:cad>0</ns3:cad>
          </ns3:TrackPointExtension>
        </extensions>
      </trkpt>
      <trkpt lat="44.70361850224435329437255859375" lon="6.752010919153690338134765625">
        <ele>1581</ele>
        <time>2026-09-03T06:44:48.000Z</time>
        <extensions>
          <ns3:TrackPointExtension>
            <ns3:hr>136</ns3:hr>
            <ns3:cad>0</ns3:cad>
          </ns3:TrackPointExtension>
        </extensions>
      </trkpt>
      <trkpt lat="44.70361799933016300201416015625" lon="6.752023659646511077880859375">
        <ele>1581.199951171875</ele>
        <time>2026-09-03T06:44:49.000Z</time>
        <extensions>
          <ns3:TrackPointExtension>
            <ns3:hr>135</ns3:hr>
            <ns3:cad>0</ns3:cad>
          </ns3:TrackPointExtension>
        </extensions>
      </trkpt>
      <trkpt lat="44.7036197595298290252685546875" lon="6.752027682960033416748046875">
        <ele>1581.4000244140625</ele>
        <time>2026-09-03T06:44:50.000Z</time>
        <extensions>
          <ns3:TrackPointExtension>
            <ns3:hr>135</ns3:hr>
            <ns3:cad>0</ns3:cad>
          </ns3:TrackPointExtension>
        </extensions>
      </trkpt>
      <trkpt lat="44.7036174125969409942626953125" lon="6.7520427703857421875">
        <ele>1581.800048828125</ele>
        <time>2026-09-03T06:44:51.000Z</time>
        <extensions>
          <ns3:TrackPointExtension>
            <ns3:hr>135</ns3:hr>
            <ns3:cad>0</ns3:cad>
          </ns3:TrackPointExtension>
        </extensions>
      </trkpt>
      <trkpt lat="44.70361866988241672515869140625" lon="6.7520521581172943115234375">
        <ele>1582</ele>
        <time>2026-09-03T06:44:52.000Z</time>
        <extensions>
          <ns3:TrackPointExtension>
            <ns3:hr>136</ns3:hr>
            <ns3:cad>0</ns3:cad>
          </ns3:TrackPointExtension>
        </extensions>
      </trkpt>
      <trkpt lat="44.70361347310245037078857421875" lon="6.752071939408779144287109375">
        <ele>1582.199951171875</ele>
        <time>2026-09-03T06:44:53.000Z</time>
        <extensions>
          <ns3:TrackPointExtension>
            <ns3:hr>135</ns3:hr>
            <ns3:cad>0</ns3:cad>
          </ns3:TrackPointExtension>
        </extensions>
      </trkpt>
      <trkpt lat="44.70361548475921154022216796875" lon="6.75208426080644130706787109375">
        <ele>1582.4000244140625</ele>
        <time>2026-09-03T06:44:54.000Z</time>
        <extensions>
          <ns3:TrackPointExtension>
            <ns3:hr>135</ns3:hr>
            <ns3:cad>0</ns3:cad>
          </ns3:TrackPointExtension>
        </extensions>
      </trkpt>
      <trkpt lat="44.7036157362163066864013671875" lon="6.75210286863148212432861328125">
        <ele>1582.800048828125</ele>
        <time>2026-09-03T06:44:55.000Z</time>
        <extensions>
          <ns3:TrackPointExtension>
            <ns3:hr>135</ns3:hr>
            <ns3:cad>0</ns3:cad>
          </ns3:TrackPointExtension>
        </extensions>
      </trkpt>
      <trkpt lat="44.70361850224435329437255859375" lon="6.75211711786687374114990234375">
        <ele>1583</ele>
        <time>2026-09-03T06:44:56.000Z</time>
        <extensions>
          <ns3:TrackPointExtension>
            <ns3:hr>135</ns3:hr>
            <ns3:cad>0</ns3:cad>
          </ns3:TrackPointExtension>
        </extensions>
      </trkpt>
      <trkpt lat="44.703623615205287933349609375" lon="6.752131618559360504150390625">
        <ele>1583.199951171875</ele>
        <time>2026-09-03T06:44:57.000Z</time>
        <extensions>
          <ns3:TrackPointExtension>
            <ns3:hr>135</ns3:hr>
            <ns3:cad>0</ns3:cad>
          </ns3:TrackPointExtension>
        </extensions>
      </trkpt>
      <trkpt lat="44.70362638123333454132080078125" lon="6.75214444287121295928955078125">
        <ele>1583.199951171875</ele>
        <time>2026-09-03T06:44:58.000Z</time>
        <extensions>
          <ns3:TrackPointExtension>
            <ns3:hr>135</ns3:hr>
            <ns3:cad>0</ns3:cad>
          </ns3:TrackPointExtension>
        </extensions>
      </trkpt>
      <trkpt lat="44.70362755469977855682373046875" lon="6.752153746783733367919921875">
        <ele>1583.4000244140625</ele>
        <time>2026-09-03T06:44:59.000Z</time>
        <extensions>
          <ns3:TrackPointExtension>
            <ns3:hr>136</ns3:hr>
            <ns3:cad>0</ns3:cad>
          </ns3:TrackPointExtension>
        </extensions>
      </trkpt>
      <trkpt lat="44.70363107509911060333251953125" lon="6.75217151641845703125">
        <ele>1583.5999755859375</ele>
        <time>2026-09-03T06:45:00.000Z</time>
        <extensions>
          <ns3:TrackPointExtension>
            <ns3:hr>135</ns3:hr>
            <ns3:cad>0</ns3:cad>
          </ns3:TrackPointExtension>
        </extensions>
      </trkpt>
      <trkpt lat="44.70363157801330089569091796875" lon="6.75218132324516773223876953125">
        <ele>1583.5999755859375</ele>
        <time>2026-09-03T06:45:01.000Z</time>
        <extensions>
          <ns3:TrackPointExtension>
            <ns3:hr>135</ns3:hr>
            <ns3:cad>0</ns3:cad>
          </ns3:TrackPointExtension>
        </extensions>
      </trkpt>
      <trkpt lat="44.70363509841263294219970703125" lon="6.7521985061466693878173828125">
        <ele>1583.800048828125</ele>
        <time>2026-09-03T06:45:02.000Z</time>
        <extensions>
          <ns3:TrackPointExtension>
            <ns3:hr>136</ns3:hr>
            <ns3:cad>0</ns3:cad>
          </ns3:TrackPointExtension>
        </extensions>
      </trkpt>
      <trkpt lat="44.7036395408213138580322265625" lon="6.7522088997066020965576171875">
        <ele>1584</ele>
        <time>2026-09-03T06:45:03.000Z</time>
        <extensions>
          <ns3:TrackPointExtension>
            <ns3:hr>136</ns3:hr>
            <ns3:cad>0</ns3:cad>
          </ns3:TrackPointExtension>
        </extensions>
      </trkpt>
      <trkpt lat="44.7036405466496944427490234375" lon="6.75222759135067462921142578125">
        <ele>1584</ele>
        <time>2026-09-03T06:45:04.000Z</time>
        <extensions>
          <ns3:TrackPointExtension>
            <ns3:hr>136</ns3:hr>
            <ns3:cad>0</ns3:cad>
          </ns3:TrackPointExtension>
        </extensions>
      </trkpt>
      <trkpt lat="44.703645743429660797119140625" lon="6.7522434331476688385009765625">
        <ele>1584</ele>
        <time>2026-09-03T06:45:05.000Z</time>
        <extensions>
          <ns3:TrackPointExtension>
            <ns3:hr>136</ns3:hr>
            <ns3:cad>0</ns3:cad>
          </ns3:TrackPointExtension>
        </extensions>
      </trkpt>
      <trkpt lat="44.7036432288587093353271484375" lon="6.7522598616778850555419921875">
        <ele>1584</ele>
        <time>2026-09-03T06:45:06.000Z</time>
        <extensions>
          <ns3:TrackPointExtension>
            <ns3:hr>135</ns3:hr>
            <ns3:cad>0</ns3:cad>
          </ns3:TrackPointExtension>
        </extensions>
      </trkpt>
      <trkpt lat="44.703648425638675689697265625" lon="6.75227134488523006439208984375">
        <ele>1584</ele>
        <time>2026-09-03T06:45:07.000Z</time>
        <extensions>
          <ns3:TrackPointExtension>
            <ns3:hr>136</ns3:hr>
            <ns3:cad>0</ns3:cad>
          </ns3:TrackPointExtension>
        </extensions>
      </trkpt>
      <trkpt lat="44.70364884473383426666259765625" lon="6.75228190608322620391845703125">
        <ele>1583.800048828125</ele>
        <time>2026-09-03T06:45:08.000Z</time>
        <extensions>
          <ns3:TrackPointExtension>
            <ns3:hr>136</ns3:hr>
            <ns3:cad>0</ns3:cad>
          </ns3:TrackPointExtension>
        </extensions>
      </trkpt>
      <trkpt lat="44.70364901237189769744873046875" lon="6.752300597727298736572265625">
        <ele>1583.800048828125</ele>
        <time>2026-09-03T06:45:09.000Z</time>
        <extensions>
          <ns3:TrackPointExtension>
            <ns3:hr>136</ns3:hr>
            <ns3:cad>0</ns3:cad>
          </ns3:TrackPointExtension>
        </extensions>
      </trkpt>
      <trkpt lat="44.7036482580006122589111328125" lon="6.75231576897203922271728515625">
        <ele>1583.5999755859375</ele>
        <time>2026-09-03T06:45:10.000Z</time>
        <extensions>
          <ns3:TrackPointExtension>
            <ns3:hr>137</ns3:hr>
            <ns3:cad>0</ns3:cad>
          </ns3:TrackPointExtension>
        </extensions>
      </trkpt>
      <trkpt lat="44.7036442346870899200439453125" lon="6.7523346282541751861572265625">
        <ele>1583.5999755859375</ele>
        <time>2026-09-03T06:45:11.000Z</time>
        <extensions>
          <ns3:TrackPointExtension>
            <ns3:hr>138</ns3:hr>
            <ns3:cad>0</ns3:cad>
          </ns3:TrackPointExtension>
        </extensions>
      </trkpt>
      <trkpt lat="44.70364079810678958892822265625" lon="6.752343513071537017822265625">
        <ele>1583.800048828125</ele>
        <time>2026-09-03T06:45:12.000Z</time>
        <extensions>
          <ns3:TrackPointExtension>
            <ns3:hr>138</ns3:hr>
            <ns3:cad>0</ns3:cad>
          </ns3:TrackPointExtension>
        </extensions>
      </trkpt>
      <trkpt lat="44.703644402325153350830078125" lon="6.75236253999173641204833984375">
        <ele>1583.800048828125</ele>
        <time>2026-09-03T06:45:13.000Z</time>
        <extensions>
          <ns3:TrackPointExtension>
            <ns3:hr>138</ns3:hr>
            <ns3:cad>0</ns3:cad>
          </ns3:TrackPointExtension>
        </extensions>
      </trkpt>
      <trkpt lat="44.70365471206605434417724609375" lon="6.7523762024939060211181640625">
        <ele>1584</ele>
        <time>2026-09-03T06:45:14.000Z</time>
        <extensions>
          <ns3:TrackPointExtension>
            <ns3:hr>138</ns3:hr>
            <ns3:cad>0</ns3:cad>
          </ns3:TrackPointExtension>
        </extensions>
      </trkpt>
      <trkpt lat="44.70366091467440128326416015625" lon="6.75239036791026592254638671875">
        <ele>1584.4000244140625</ele>
        <time>2026-09-03T06:45:15.000Z</time>
        <extensions>
          <ns3:TrackPointExtension>
            <ns3:hr>138</ns3:hr>
            <ns3:cad>0</ns3:cad>
          </ns3:TrackPointExtension>
        </extensions>
      </trkpt>
      <trkpt lat="44.7036643512547016143798828125" lon="6.7523996718227863311767578125">
        <ele>1584.5999755859375</ele>
        <time>2026-09-03T06:45:16.000Z</time>
        <extensions>
          <ns3:TrackPointExtension>
            <ns3:hr>138</ns3:hr>
            <ns3:cad>0</ns3:cad>
          </ns3:TrackPointExtension>
        </extensions>
      </trkpt>
      <trkpt lat="44.7036740742623805999755859375" lon="6.75241031683981418609619140625">
        <ele>1584.800048828125</ele>
        <time>2026-09-03T06:45:17.000Z</time>
        <extensions>
          <ns3:TrackPointExtension>
            <ns3:hr>138</ns3:hr>
            <ns3:cad>0</ns3:cad>
          </ns3:TrackPointExtension>
        </extensions>
      </trkpt>
      <trkpt lat="44.7036797739565372467041015625" lon="6.7524218000471591949462890625">
        <ele>1585</ele>
        <time>2026-09-03T06:45:18.000Z</time>
        <extensions>
          <ns3:TrackPointExtension>
            <ns3:hr>137</ns3:hr>
            <ns3:cad>0</ns3:cad>
          </ns3:TrackPointExtension>
        </extensions>
      </trkpt>
      <trkpt lat="44.7036844678223133087158203125" lon="6.752437055110931396484375">
        <ele>1585</ele>
        <time>2026-09-03T06:45:19.000Z</time>
        <extensions>
          <ns3:TrackPointExtension>
            <ns3:hr>137</ns3:hr>
            <ns3:cad>0</ns3:cad>
          </ns3:TrackPointExtension>
        </extensions>
      </trkpt>
      <trkpt lat="44.70368773676455020904541015625" lon="6.752447783946990966796875">
        <ele>1585.199951171875</ele>
        <time>2026-09-03T06:45:20.000Z</time>
        <extensions>
          <ns3:TrackPointExtension>
            <ns3:hr>136</ns3:hr>
            <ns3:cad>0</ns3:cad>
          </ns3:TrackPointExtension>
        </extensions>
      </trkpt>
      <trkpt lat="44.703685306012630462646484375" lon="6.7524643801152706146240234375">
        <ele>1585.199951171875</ele>
        <time>2026-09-03T06:45:21.000Z</time>
        <extensions>
          <ns3:TrackPointExtension>
            <ns3:hr>135</ns3:hr>
            <ns3:cad>0</ns3:cad>
          </ns3:TrackPointExtension>
        </extensions>
      </trkpt>
      <trkpt lat="44.70368941314518451690673828125" lon="6.752476282417774200439453125">
        <ele>1585.4000244140625</ele>
        <time>2026-09-03T06:45:22.000Z</time>
        <extensions>
          <ns3:TrackPointExtension>
            <ns3:hr>134</ns3:hr>
            <ns3:cad>0</ns3:cad>
          </ns3:TrackPointExtension>
        </extensions>
      </trkpt>
      <trkpt lat="44.70369729213416576385498046875" lon="6.7524920403957366943359375">
        <ele>1585.5999755859375</ele>
        <time>2026-09-03T06:45:23.000Z</time>
        <extensions>
          <ns3:TrackPointExtension>
            <ns3:hr>134</ns3:hr>
            <ns3:cad>0</ns3:cad>
          </ns3:TrackPointExtension>
        </extensions>
      </trkpt>
      <trkpt lat="44.70370450057089328765869140625" lon="6.7525072954595088958740234375">
        <ele>1585.5999755859375</ele>
        <time>2026-09-03T06:45:24.000Z</time>
        <extensions>
          <ns3:TrackPointExtension>
            <ns3:hr>133</ns3:hr>
            <ns3:cad>79</ns3:cad>
          </ns3:TrackPointExtension>
        </extensions>
      </trkpt>
      <trkpt lat="44.7037112899124622344970703125" lon="6.75252414308488368988037109375">
        <ele>1585.800048828125</ele>
        <time>2026-09-03T06:45:25.000Z</time>
        <extensions>
          <ns3:TrackPointExtension>
            <ns3:hr>132</ns3:hr>
            <ns3:cad>79</ns3:cad>
          </ns3:TrackPointExtension>
        </extensions>
      </trkpt>
      <trkpt lat="44.70371740870177745819091796875" lon="6.75254023633897304534912109375">
        <ele>1586</ele>
        <time>2026-09-03T06:45:26.000Z</time>
        <extensions>
          <ns3:TrackPointExtension>
            <ns3:hr>132</ns3:hr>
            <ns3:cad>79</ns3:cad>
          </ns3:TrackPointExtension>
        </extensions>
      </trkpt>
      <trkpt lat="44.703722186386585235595703125" lon="6.752553395926952362060546875">
        <ele>1586.199951171875</ele>
        <time>2026-09-03T06:45:27.000Z</time>
        <extensions>
          <ns3:TrackPointExtension>
            <ns3:hr>131</ns3:hr>
            <ns3:cad>0</ns3:cad>
          </ns3:TrackPointExtension>
        </extensions>
      </trkpt>
      <trkpt lat="44.70372713170945644378662109375" lon="6.75256923772394657135009765625">
        <ele>1586.4000244140625</ele>
        <time>2026-09-03T06:45:28.000Z</time>
        <extensions>
          <ns3:TrackPointExtension>
            <ns3:hr>131</ns3:hr>
            <ns3:cad>0</ns3:cad>
          </ns3:TrackPointExtension>
        </extensions>
      </trkpt>
      <trkpt lat="44.70373149029910564422607421875" lon="6.75257862545549869537353515625">
        <ele>1586.5999755859375</ele>
        <time>2026-09-03T06:45:29.000Z</time>
        <extensions>
          <ns3:TrackPointExtension>
            <ns3:hr>131</ns3:hr>
            <ns3:cad>0</ns3:cad>
          </ns3:TrackPointExtension>
        </extensions>
      </trkpt>
      <trkpt lat="44.7037361003458499908447265625" lon="6.75259237177670001983642578125">
        <ele>1586.5999755859375</ele>
        <time>2026-09-03T06:45:30.000Z</time>
        <extensions>
          <ns3:TrackPointExtension>
            <ns3:hr>132</ns3:hr>
            <ns3:cad>0</ns3:cad>
          </ns3:TrackPointExtension>
        </extensions>
      </trkpt>
      <trkpt lat="44.70373752526938915252685546875" lon="6.75259706564247608184814453125">
        <ele>1586.800048828125</ele>
        <time>2026-09-03T06:45:31.000Z</time>
        <extensions>
          <ns3:TrackPointExtension>
            <ns3:hr>132</ns3:hr>
            <ns3:cad>0</ns3:cad>
          </ns3:TrackPointExtension>
        </extensions>
      </trkpt>
      <trkpt lat="44.70373920165002346038818359375" lon="6.75260603427886962890625">
        <ele>1587</ele>
        <time>2026-09-03T06:45:32.000Z</time>
        <extensions>
          <ns3:TrackPointExtension>
            <ns3:hr>132</ns3:hr>
            <ns3:cad>0</ns3:cad>
          </ns3:TrackPointExtension>
        </extensions>
      </trkpt>
      <trkpt lat="44.7037414647638797760009765625" lon="6.7526176013052463531494140625">
        <ele>1587</ele>
        <time>2026-09-03T06:45:33.000Z</time>
        <extensions>
          <ns3:TrackPointExtension>
            <ns3:hr>132</ns3:hr>
            <ns3:cad>0</ns3:cad>
          </ns3:TrackPointExtension>
        </extensions>
      </trkpt>
      <trkpt lat="44.70374423079192638397216796875" lon="6.7526290006935596466064453125">
        <ele>1587.199951171875</ele>
        <time>2026-09-03T06:45:34.000Z</time>
        <extensions>
          <ns3:TrackPointExtension>
            <ns3:hr>133</ns3:hr>
            <ns3:cad>0</ns3:cad>
          </ns3:TrackPointExtension>
        </extensions>
      </trkpt>
      <trkpt lat="44.70374121330678462982177734375" lon="6.75265037454664707183837890625">
        <ele>1587.199951171875</ele>
        <time>2026-09-03T06:45:35.000Z</time>
        <extensions>
          <ns3:TrackPointExtension>
            <ns3:hr>133</ns3:hr>
            <ns3:cad>0</ns3:cad>
          </ns3:TrackPointExtension>
        </extensions>
      </trkpt>
      <trkpt lat="44.70374121330678462982177734375" lon="6.752669401466846466064453125">
        <ele>1587.4000244140625</ele>
        <time>2026-09-03T06:45:36.000Z</time>
        <extensions>
          <ns3:TrackPointExtension>
            <ns3:hr>133</ns3:hr>
            <ns3:cad>0</ns3:cad>
          </ns3:TrackPointExtension>
        </extensions>
      </trkpt>
      <trkpt lat="44.7037434764206409454345703125" lon="6.7526829801499843597412109375">
        <ele>1587.5999755859375</ele>
        <time>2026-09-03T06:45:37.000Z</time>
        <extensions>
          <ns3:TrackPointExtension>
            <ns3:hr>133</ns3:hr>
            <ns3:cad>0</ns3:cad>
          </ns3:TrackPointExtension>
        </extensions>
      </trkpt>
      <trkpt lat="44.7037441469728946685791015625" lon="6.75269949249923229217529296875">
        <ele>1587.800048828125</ele>
        <time>2026-09-03T06:45:38.000Z</time>
        <extensions>
          <ns3:TrackPointExtension>
            <ns3:hr>133</ns3:hr>
            <ns3:cad>0</ns3:cad>
          </ns3:TrackPointExtension>
        </extensions>
      </trkpt>
      <trkpt lat="44.70374406315386295318603515625" lon="6.7527066171169281005859375">
        <ele>1588</ele>
        <time>2026-09-03T06:45:39.000Z</time>
        <extensions>
          <ns3:TrackPointExtension>
            <ns3:hr>133</ns3:hr>
            <ns3:cad>0</ns3:cad>
          </ns3:TrackPointExtension>
        </extensions>
      </trkpt>
      <trkpt lat="44.70374255441129207611083984375" lon="6.752726398408412933349609375">
        <ele>1588.199951171875</ele>
        <time>2026-09-03T06:45:40.000Z</time>
        <extensions>
          <ns3:TrackPointExtension>
            <ns3:hr>132</ns3:hr>
            <ns3:cad>49</ns3:cad>
          </ns3:TrackPointExtension>
        </extensions>
      </trkpt>
      <trkpt lat="44.7037428058683872222900390625" lon="6.75274089910089969635009765625">
        <ele>1588.199951171875</ele>
        <time>2026-09-03T06:45:41.000Z</time>
        <extensions>
          <ns3:TrackPointExtension>
            <ns3:hr>133</ns3:hr>
            <ns3:cad>49</ns3:cad>
          </ns3:TrackPointExtension>
        </extensions>
      </trkpt>
      <trkpt lat="44.70374255441129207611083984375" lon="6.75275045447051525115966796875">
        <ele>1588.4000244140625</ele>
        <time>2026-09-03T06:45:42.000Z</time>
        <extensions>
          <ns3:TrackPointExtension>
            <ns3:hr>133</ns3:hr>
            <ns3:cad>49</ns3:cad>
          </ns3:TrackPointExtension>
        </extensions>
      </trkpt>
      <trkpt lat="44.7037421353161334991455078125" lon="6.7527627758681774139404296875">
        <ele>1588.5999755859375</ele>
        <time>2026-09-03T06:45:43.000Z</time>
        <extensions>
          <ns3:TrackPointExtension>
            <ns3:hr>133</ns3:hr>
            <ns3:cad>0</ns3:cad>
          </ns3:TrackPointExtension>
        </extensions>
      </trkpt>
      <trkpt lat="44.70374129712581634521484375" lon="6.75277777947485446929931640625">
        <ele>1588.800048828125</ele>
        <time>2026-09-03T06:45:44.000Z</time>
        <extensions>
          <ns3:TrackPointExtension>
            <ns3:hr>133</ns3:hr>
            <ns3:cad>0</ns3:cad>
          </ns3:TrackPointExtension>
        </extensions>
      </trkpt>
      <trkpt lat="44.70374154858291149139404296875" lon="6.75278968177735805511474609375">
        <ele>1589</ele>
        <time>2026-09-03T06:45:45.000Z</time>
        <extensions>
          <ns3:TrackPointExtension>
            <ns3:hr>133</ns3:hr>
            <ns3:cad>0</ns3:cad>
          </ns3:TrackPointExtension>
        </extensions>
      </trkpt>
      <trkpt lat="44.7037411294877529144287109375" lon="6.752801835536956787109375">
        <ele>1589.199951171875</ele>
        <time>2026-09-03T06:45:46.000Z</time>
        <extensions>
          <ns3:TrackPointExtension>
            <ns3:hr>133</ns3:hr>
            <ns3:cad>0</ns3:cad>
          </ns3:TrackPointExtension>
        </extensions>
      </trkpt>
      <trkpt lat="44.7037421353161334991455078125" lon="6.75281868316233158111572265625">
        <ele>1589.4000244140625</ele>
        <time>2026-09-03T06:45:47.000Z</time>
        <extensions>
          <ns3:TrackPointExtension>
            <ns3:hr>132</ns3:hr>
            <ns3:cad>0</ns3:cad>
          </ns3:TrackPointExtension>
        </extensions>
      </trkpt>
      <trkpt lat="44.70374263823032379150390625" lon="6.75282924436032772064208984375">
        <ele>1589.5999755859375</ele>
        <time>2026-09-03T06:45:48.000Z</time>
        <extensions>
          <ns3:TrackPointExtension>
            <ns3:hr>133</ns3:hr>
            <ns3:cad>0</ns3:cad>
          </ns3:TrackPointExtension>
        </extensions>
      </trkpt>
      <trkpt lat="44.7037418000400066375732421875" lon="6.752841733396053314208984375">
        <ele>1589.800048828125</ele>
        <time>2026-09-03T06:45:49.000Z</time>
        <extensions>
          <ns3:TrackPointExtension>
            <ns3:hr>133</ns3:hr>
            <ns3:cad>0</ns3:cad>
          </ns3:TrackPointExtension>
        </extensions>
      </trkpt>
      <trkpt lat="44.70375244505703449249267578125" lon="6.75285388715565204620361328125">
        <ele>1590</ele>
        <time>2026-09-03T06:45:50.000Z</time>
        <extensions>
          <ns3:TrackPointExtension>
            <ns3:hr>133</ns3:hr>
            <ns3:cad>0</ns3:cad>
          </ns3:TrackPointExtension>
        </extensions>
      </trkpt>
      <trkpt lat="44.7037531994283199310302734375" lon="6.75287299789488315582275390625">
        <ele>1590.199951171875</ele>
        <time>2026-09-03T06:45:51.000Z</time>
        <extensions>
          <ns3:TrackPointExtension>
            <ns3:hr>133</ns3:hr>
            <ns3:cad>0</ns3:cad>
          </ns3:TrackPointExtension>
        </extensions>
      </trkpt>
      <trkpt lat="44.7037545405328273773193359375" lon="6.75288607366383075714111328125">
        <ele>1590.199951171875</ele>
        <time>2026-09-03T06:45:52.000Z</time>
        <extensions>
          <ns3:TrackPointExtension>
            <ns3:hr>133</ns3:hr>
            <ns3:cad>53</ns3:cad>
          </ns3:TrackPointExtension>
        </extensions>
      </trkpt>
      <trkpt lat="44.7037558816373348236083984375" lon="6.75290116108953952789306640625">
        <ele>1590.4000244140625</ele>
        <time>2026-09-03T06:45:53.000Z</time>
        <extensions>
          <ns3:TrackPointExtension>
            <ns3:hr>133</ns3:hr>
            <ns3:cad>53</ns3:cad>
          </ns3:TrackPointExtension>
        </extensions>
      </trkpt>
      <trkpt lat="44.703757055103778839111328125" lon="6.75291524268686771392822265625">
        <ele>1590.5999755859375</ele>
        <time>2026-09-03T06:45:54.000Z</time>
        <extensions>
          <ns3:TrackPointExtension>
            <ns3:hr>133</ns3:hr>
            <ns3:cad>0</ns3:cad>
          </ns3:TrackPointExtension>
        </extensions>
      </trkpt>
      <trkpt lat="44.70375814475119113922119140625" lon="6.75292454659938812255859375">
        <ele>1590.800048828125</ele>
        <time>2026-09-03T06:45:55.000Z</time>
        <extensions>
          <ns3:TrackPointExtension>
            <ns3:hr>133</ns3:hr>
            <ns3:cad>0</ns3:cad>
          </ns3:TrackPointExtension>
        </extensions>
      </trkpt>
      <trkpt lat="44.7037548758089542388916015625" lon="6.75294022075831890106201171875">
        <ele>1590.800048828125</ele>
        <time>2026-09-03T06:45:56.000Z</time>
        <extensions>
          <ns3:TrackPointExtension>
            <ns3:hr>133</ns3:hr>
            <ns3:cad>0</ns3:cad>
          </ns3:TrackPointExtension>
        </extensions>
      </trkpt>
      <trkpt lat="44.703753702342510223388671875" lon="6.752954386174678802490234375">
        <ele>1591</ele>
        <time>2026-09-03T06:45:57.000Z</time>
        <extensions>
          <ns3:TrackPointExtension>
            <ns3:hr>133</ns3:hr>
            <ns3:cad>0</ns3:cad>
          </ns3:TrackPointExtension>
        </extensions>
      </trkpt>
      <trkpt lat="44.7037511877715587615966796875" lon="6.7529703117907047271728515625">
        <ele>1591.199951171875</ele>
        <time>2026-09-03T06:45:58.000Z</time>
        <extensions>
          <ns3:TrackPointExtension>
            <ns3:hr>133</ns3:hr>
            <ns3:cad>0</ns3:cad>
          </ns3:TrackPointExtension>
        </extensions>
      </trkpt>
      <trkpt lat="44.7037478350102901458740234375" lon="6.7529867403209209442138671875">
        <ele>1591.4000244140625</ele>
        <time>2026-09-03T06:45:59.000Z</time>
        <extensions>
          <ns3:TrackPointExtension>
            <ns3:hr>133</ns3:hr>
            <ns3:cad>0</ns3:cad>
          </ns3:TrackPointExtension>
        </extensions>
      </trkpt>
      <trkpt lat="44.7037411294877529144287109375" lon="6.753001995384693145751953125">
        <ele>1591.5999755859375</ele>
        <time>2026-09-03T06:46:00.000Z</time>
        <extensions>
          <ns3:TrackPointExtension>
            <ns3:hr>133</ns3:hr>
            <ns3:cad>54</ns3:cad>
          </ns3:TrackPointExtension>
        </extensions>
      </trkpt>
      <trkpt lat="44.70373668707907199859619140625" lon="6.75301481969654560089111328125">
        <ele>1591.800048828125</ele>
        <time>2026-09-03T06:46:01.000Z</time>
        <extensions>
          <ns3:TrackPointExtension>
            <ns3:hr>132</ns3:hr>
            <ns3:cad>54</ns3:cad>
          </ns3:TrackPointExtension>
        </extensions>
      </trkpt>
      <trkpt lat="44.70373190939426422119140625" lon="6.75302722491323947906494140625">
        <ele>1591.800048828125</ele>
        <time>2026-09-03T06:46:02.000Z</time>
        <extensions>
          <ns3:TrackPointExtension>
            <ns3:hr>133</ns3:hr>
            <ns3:cad>54</ns3:cad>
          </ns3:TrackPointExtension>
        </extensions>
      </trkpt>
      <trkpt lat="44.7037290595471858978271484375" lon="6.75303946249186992645263671875">
        <ele>1592</ele>
        <time>2026-09-03T06:46:03.000Z</time>
        <extensions>
          <ns3:TrackPointExtension>
            <ns3:hr>133</ns3:hr>
            <ns3:cad>54</ns3:cad>
          </ns3:TrackPointExtension>
        </extensions>
      </trkpt>
      <trkpt lat="44.7037231922149658203125" lon="6.75305061042308807373046875">
        <ele>1592.199951171875</ele>
        <time>2026-09-03T06:46:04.000Z</time>
        <extensions>
          <ns3:TrackPointExtension>
            <ns3:hr>134</ns3:hr>
            <ns3:cad>54</ns3:cad>
          </ns3:TrackPointExtension>
        </extensions>
      </trkpt>
      <trkpt lat="44.70371874980628490447998046875" lon="6.75306226126849651336669921875">
        <ele>1592.4000244140625</ele>
        <time>2026-09-03T06:46:05.000Z</time>
        <extensions>
          <ns3:TrackPointExtension>
            <ns3:hr>134</ns3:hr>
            <ns3:cad>54</ns3:cad>
          </ns3:TrackPointExtension>
        </extensions>
      </trkpt>
      <trkpt lat="44.703713469207286834716796875" lon="6.7530722357332706451416015625">
        <ele>1592.4000244140625</ele>
        <time>2026-09-03T06:46:06.000Z</time>
        <extensions>
          <ns3:TrackPointExtension>
            <ns3:hr>135</ns3:hr>
            <ns3:cad>54</ns3:cad>
          </ns3:TrackPointExtension>
        </extensions>
      </trkpt>
      <trkpt lat="44.70370835624635219573974609375" lon="6.75308086909353733062744140625">
        <ele>1592.5999755859375</ele>
        <time>2026-09-03T06:46:07.000Z</time>
        <extensions>
          <ns3:TrackPointExtension>
            <ns3:hr>135</ns3:hr>
            <ns3:cad>54</ns3:cad>
          </ns3:TrackPointExtension>
        </extensions>
      </trkpt>
      <trkpt lat="44.70370106399059295654296875" lon="6.75309411250054836273193359375">
        <ele>1592.800048828125</ele>
        <time>2026-09-03T06:46:08.000Z</time>
        <extensions>
          <ns3:TrackPointExtension>
            <ns3:hr>135</ns3:hr>
            <ns3:cad>0</ns3:cad>
          </ns3:TrackPointExtension>
        </extensions>
      </trkpt>
      <trkpt lat="44.7036941908299922943115234375" lon="6.75310827791690826416015625">
        <ele>1593</ele>
        <time>2026-09-03T06:46:09.000Z</time>
        <extensions>
          <ns3:TrackPointExtension>
            <ns3:hr>135</ns3:hr>
            <ns3:cad>0</ns3:cad>
          </ns3:TrackPointExtension>
        </extensions>
      </trkpt>
      <trkpt lat="44.70368555746972560882568359375" lon="6.75311992876231670379638671875">
        <ele>1593.199951171875</ele>
        <time>2026-09-03T06:46:10.000Z</time>
        <extensions>
          <ns3:TrackPointExtension>
            <ns3:hr>134</ns3:hr>
            <ns3:cad>0</ns3:cad>
          </ns3:TrackPointExtension>
        </extensions>
      </trkpt>
      <trkpt lat="44.70367868430912494659423828125" lon="6.75313132815062999725341796875">
        <ele>1593.4000244140625</ele>
        <time>2026-09-03T06:46:11.000Z</time>
        <extensions>
          <ns3:TrackPointExtension>
            <ns3:hr>134</ns3:hr>
            <ns3:cad>0</ns3:cad>
          </ns3:TrackPointExtension>
        </extensions>
      </trkpt>
      <trkpt lat="44.7036767564713954925537109375" lon="6.75313669256865978240966796875">
        <ele>1593.5999755859375</ele>
        <time>2026-09-03T06:46:12.000Z</time>
        <extensions>
          <ns3:TrackPointExtension>
            <ns3:hr>134</ns3:hr>
            <ns3:cad>0</ns3:cad>
          </ns3:TrackPointExtension>
        </extensions>
      </trkpt>
      <trkpt lat="44.70367298461496829986572265625" lon="6.75314851105213165283203125">
        <ele>1593.800048828125</ele>
        <time>2026-09-03T06:46:13.000Z</time>
        <extensions>
          <ns3:TrackPointExtension>
            <ns3:hr>135</ns3:hr>
            <ns3:cad>0</ns3:cad>
          </ns3:TrackPointExtension>
        </extensions>
      </trkpt>
      <trkpt lat="44.70366795547306537628173828125" lon="6.7531599104404449462890625">
        <ele>1593.800048828125</ele>
        <time>2026-09-03T06:46:14.000Z</time>
        <extensions>
          <ns3:TrackPointExtension>
            <ns3:hr>134</ns3:hr>
            <ns3:cad>0</ns3:cad>
          </ns3:TrackPointExtension>
        </extensions>
      </trkpt>
      <trkpt lat="44.7036606632173061370849609375" lon="6.75317340530455112457275390625">
        <ele>1594</ele>
        <time>2026-09-03T06:46:15.000Z</time>
        <extensions>
          <ns3:TrackPointExtension>
            <ns3:hr>134</ns3:hr>
            <ns3:cad>0</ns3:cad>
          </ns3:TrackPointExtension>
        </extensions>
      </trkpt>
      <trkpt lat="44.70365169458091259002685546875" lon="6.753180362284183502197265625">
        <ele>1594.199951171875</ele>
        <time>2026-09-03T06:46:16.000Z</time>
        <extensions>
          <ns3:TrackPointExtension>
            <ns3:hr>134</ns3:hr>
            <ns3:cad>0</ns3:cad>
          </ns3:TrackPointExtension>
        </extensions>
      </trkpt>
      <trkpt lat="44.70363945700228214263916015625" lon="6.7531982995569705963134765625">
        <ele>1594.4000244140625</ele>
        <time>2026-09-03T06:46:17.000Z</time>
        <extensions>
          <ns3:TrackPointExtension>
            <ns3:hr>134</ns3:hr>
            <ns3:cad>0</ns3:cad>
          </ns3:TrackPointExtension>
        </extensions>
      </trkpt>
      <trkpt lat="44.70363744534552097320556640625" lon="6.7532127164304256439208984375">
        <ele>1594.5999755859375</ele>
        <time>2026-09-03T06:46:18.000Z</time>
        <extensions>
          <ns3:TrackPointExtension>
            <ns3:hr>134</ns3:hr>
            <ns3:cad>0</ns3:cad>
          </ns3:TrackPointExtension>
        </extensions>
      </trkpt>
      <trkpt lat="44.70363107509911060333251953125" lon="6.7532288096845149993896484375">
        <ele>1594.800048828125</ele>
        <time>2026-09-03T06:46:19.000Z</time>
        <extensions>
          <ns3:TrackPointExtension>
            <ns3:hr>133</ns3:hr>
            <ns3:cad>0</ns3:cad>
          </ns3:TrackPointExtension>
        </extensions>
      </trkpt>
      <trkpt lat="44.70362755469977855682373046875" lon="6.753241382539272308349609375">
        <ele>1595</ele>
        <time>2026-09-03T06:46:20.000Z</time>
        <extensions>
          <ns3:TrackPointExtension>
            <ns3:hr>133</ns3:hr>
            <ns3:cad>0</ns3:cad>
          </ns3:TrackPointExtension>
        </extensions>
      </trkpt>
      <trkpt lat="44.703628309071063995361328125" lon="6.75324833951890468597412109375">
        <ele>1595.199951171875</ele>
        <time>2026-09-03T06:46:21.000Z</time>
        <extensions>
          <ns3:TrackPointExtension>
            <ns3:hr>133</ns3:hr>
            <ns3:cad>0</ns3:cad>
          </ns3:TrackPointExtension>
        </extensions>
      </trkpt>
      <trkpt lat="44.70362286083400249481201171875" lon="6.7532606609165668487548828125">
        <ele>1595.4000244140625</ele>
        <time>2026-09-03T06:46:22.000Z</time>
        <extensions>
          <ns3:TrackPointExtension>
            <ns3:hr>133</ns3:hr>
            <ns3:cad>0</ns3:cad>
          </ns3:TrackPointExtension>
        </extensions>
      </trkpt>
      <trkpt lat="44.703618586063385009765625" lon="6.75327013246715068817138671875">
        <ele>1595.5999755859375</ele>
        <time>2026-09-03T06:46:23.000Z</time>
        <extensions>
          <ns3:TrackPointExtension>
            <ns3:hr>133</ns3:hr>
            <ns3:cad>51</ns3:cad>
          </ns3:TrackPointExtension>
        </extensions>
      </trkpt>
      <trkpt lat="44.7036137245595455169677734375" lon="6.75328195095062255859375">
        <ele>1595.800048828125</ele>
        <time>2026-09-03T06:46:24.000Z</time>
        <extensions>
          <ns3:TrackPointExtension>
            <ns3:hr>133</ns3:hr>
            <ns3:cad>51</ns3:cad>
          </ns3:TrackPointExtension>
        </extensions>
      </trkpt>
      <trkpt lat="44.70361028797924518585205078125" lon="6.75329326651990413665771484375">
        <ele>1596</ele>
        <time>2026-09-03T06:46:25.000Z</time>
        <extensions>
          <ns3:TrackPointExtension>
            <ns3:hr>133</ns3:hr>
            <ns3:cad>51</ns3:cad>
          </ns3:TrackPointExtension>
        </extensions>
      </trkpt>
      <trkpt lat="44.7036063484847545623779296875" lon="6.75330231897532939910888671875">
        <ele>1596.4000244140625</ele>
        <time>2026-09-03T06:46:26.000Z</time>
        <extensions>
          <ns3:TrackPointExtension>
            <ns3:hr>133</ns3:hr>
            <ns3:cad>51</ns3:cad>
          </ns3:TrackPointExtension>
        </extensions>
      </trkpt>
      <trkpt lat="44.7036038339138031005859375" lon="6.7533139698207378387451171875">
        <ele>1596.5999755859375</ele>
        <time>2026-09-03T06:46:27.000Z</time>
        <extensions>
          <ns3:TrackPointExtension>
            <ns3:hr>134</ns3:hr>
            <ns3:cad>51</ns3:cad>
          </ns3:TrackPointExtension>
        </extensions>
      </trkpt>
      <trkpt lat="44.70360190607607364654541015625" lon="6.75332243554294109344482421875">
        <ele>1596.800048828125</ele>
        <time>2026-09-03T06:46:28.000Z</time>
        <extensions>
          <ns3:TrackPointExtension>
            <ns3:hr>134</ns3:hr>
            <ns3:cad>51</ns3:cad>
          </ns3:TrackPointExtension>
        </extensions>
      </trkpt>
      <trkpt lat="44.7035972960293292999267578125" lon="6.75333366729319095611572265625">
        <ele>1597</ele>
        <time>2026-09-03T06:46:29.000Z</time>
        <extensions>
          <ns3:TrackPointExtension>
            <ns3:hr>135</ns3:hr>
            <ns3:cad>51</ns3:cad>
          </ns3:TrackPointExtension>
        </extensions>
      </trkpt>
      <trkpt lat="44.7035944461822509765625" lon="6.7533417977392673492431640625">
        <ele>1597.199951171875</ele>
        <time>2026-09-03T06:46:30.000Z</time>
        <extensions>
          <ns3:TrackPointExtension>
            <ns3:hr>135</ns3:hr>
            <ns3:cad>51</ns3:cad>
          </ns3:TrackPointExtension>
        </extensions>
      </trkpt>
      <trkpt lat="44.7035899199545383453369140625" lon="6.75335160456597805023193359375">
        <ele>1597.4000244140625</ele>
        <time>2026-09-03T06:46:31.000Z</time>
        <extensions>
          <ns3:TrackPointExtension>
            <ns3:hr>136</ns3:hr>
            <ns3:cad>0</ns3:cad>
          </ns3:TrackPointExtension>
        </extensions>
      </trkpt>
      <trkpt lat="44.70358480699360370635986328125" lon="6.753360070288181304931640625">
        <ele>1597.5999755859375</ele>
        <time>2026-09-03T06:46:32.000Z</time>
        <extensions>
          <ns3:TrackPointExtension>
            <ns3:hr>136</ns3:hr>
            <ns3:cad>0</ns3:cad>
          </ns3:TrackPointExtension>
        </extensions>
      </trkpt>
      <trkpt lat="44.70358170568943023681640625" lon="6.75336468033492565155029296875">
        <ele>1597.5999755859375</ele>
        <time>2026-09-03T06:46:33.000Z</time>
        <extensions>
          <ns3:TrackPointExtension>
            <ns3:hr>136</ns3:hr>
            <ns3:cad>0</ns3:cad>
          </ns3:TrackPointExtension>
        </extensions>
      </trkpt>
      <trkpt lat="44.7035771794617176055908203125" lon="6.75337306223809719085693359375">
        <ele>1597.800048828125</ele>
        <time>2026-09-03T06:46:34.000Z</time>
        <extensions>
          <ns3:TrackPointExtension>
            <ns3:hr>136</ns3:hr>
            <ns3:cad>0</ns3:cad>
          </ns3:TrackPointExtension>
        </extensions>
      </trkpt>
      <trkpt lat="44.7035728208720684051513671875" lon="6.75337825901806354522705078125">
        <ele>1598</ele>
        <time>2026-09-03T06:46:35.000Z</time>
        <extensions>
          <ns3:TrackPointExtension>
            <ns3:hr>136</ns3:hr>
            <ns3:cad>74</ns3:cad>
          </ns3:TrackPointExtension>
        </extensions>
      </trkpt>
      <trkpt lat="44.70356754027307033538818359375" lon="6.75338949076831340789794921875">
        <ele>1598.199951171875</ele>
        <time>2026-09-03T06:46:36.000Z</time>
        <extensions>
          <ns3:TrackPointExtension>
            <ns3:hr>136</ns3:hr>
            <ns3:cad>74</ns3:cad>
          </ns3:TrackPointExtension>
        </extensions>
      </trkpt>
      <trkpt lat="44.7035634331405162811279296875" lon="6.7534001357853412628173828125">
        <ele>1598.4000244140625</ele>
        <time>2026-09-03T06:46:37.000Z</time>
        <extensions>
          <ns3:TrackPointExtension>
            <ns3:hr>135</ns3:hr>
            <ns3:cad>74</ns3:cad>
          </ns3:TrackPointExtension>
        </extensions>
      </trkpt>
      <trkpt lat="44.70355848781764507293701171875" lon="6.75341530703008174896240234375">
        <ele>1598.800048828125</ele>
        <time>2026-09-03T06:46:38.000Z</time>
        <extensions>
          <ns3:TrackPointExtension>
            <ns3:hr>135</ns3:hr>
            <ns3:cad>74</ns3:cad>
          </ns3:TrackPointExtension>
        </extensions>
      </trkpt>
      <trkpt lat="44.70355345867574214935302734375" lon="6.7534281313419342041015625">
        <ele>1599</ele>
        <time>2026-09-03T06:46:39.000Z</time>
        <extensions>
          <ns3:TrackPointExtension>
            <ns3:hr>135</ns3:hr>
            <ns3:cad>0</ns3:cad>
          </ns3:TrackPointExtension>
        </extensions>
      </trkpt>
      <trkpt lat="44.70354951918125152587890625" lon="6.75344481132924556732177734375">
        <ele>1599.199951171875</ele>
        <time>2026-09-03T06:46:40.000Z</time>
        <extensions>
          <ns3:TrackPointExtension>
            <ns3:hr>136</ns3:hr>
            <ns3:cad>0</ns3:cad>
          </ns3:TrackPointExtension>
        </extensions>
      </trkpt>
      <trkpt lat="44.70354675315320491790771484375" lon="6.75345503725111484527587890625">
        <ele>1599.4000244140625</ele>
        <time>2026-09-03T06:46:41.000Z</time>
        <extensions>
          <ns3:TrackPointExtension>
            <ns3:hr>136</ns3:hr>
            <ns3:cad>0</ns3:cad>
          </ns3:TrackPointExtension>
        </extensions>
      </trkpt>
      <trkpt lat="44.7035459987819194793701171875" lon="6.7534603178501129150390625">
        <ele>1599.5999755859375</ele>
        <time>2026-09-03T06:46:42.000Z</time>
        <extensions>
          <ns3:TrackPointExtension>
            <ns3:hr>137</ns3:hr>
            <ns3:cad>0</ns3:cad>
          </ns3:TrackPointExtension>
        </extensions>
      </trkpt>
      <trkpt lat="44.70354356802999973297119140625" lon="6.75347481854259967803955078125">
        <ele>1599.800048828125</ele>
        <time>2026-09-03T06:46:43.000Z</time>
        <extensions>
          <ns3:TrackPointExtension>
            <ns3:hr>137</ns3:hr>
            <ns3:cad>0</ns3:cad>
          </ns3:TrackPointExtension>
        </extensions>
      </trkpt>
      <trkpt lat="44.70354172401130199432373046875" lon="6.75348605029284954071044921875">
        <ele>1599.800048828125</ele>
        <time>2026-09-03T06:46:44.000Z</time>
        <extensions>
          <ns3:TrackPointExtension>
            <ns3:hr>137</ns3:hr>
            <ns3:cad>0</ns3:cad>
          </ns3:TrackPointExtension>
        </extensions>
      </trkpt>
      <trkpt lat="44.70353753305971622467041015625" lon="6.75349912606179714202880859375">
        <ele>1600</ele>
        <time>2026-09-03T06:46:45.000Z</time>
        <extensions>
          <ns3:TrackPointExtension>
            <ns3:hr>137</ns3:hr>
            <ns3:cad>0</ns3:cad>
          </ns3:TrackPointExtension>
        </extensions>
      </trkpt>
      <trkpt lat="44.70353753305971622467041015625" lon="6.7535107769072055816650390625">
        <ele>1600.199951171875</ele>
        <time>2026-09-03T06:46:46.000Z</time>
        <extensions>
          <ns3:TrackPointExtension>
            <ns3:hr>137</ns3:hr>
            <ns3:cad>0</ns3:cad>
          </ns3:TrackPointExtension>
        </extensions>
      </trkpt>
      <trkpt lat="44.70354013144969940185546875" lon="6.753519661724567413330078125">
        <ele>1600.4000244140625</ele>
        <time>2026-09-03T06:46:47.000Z</time>
        <extensions>
          <ns3:TrackPointExtension>
            <ns3:hr>137</ns3:hr>
            <ns3:cad>0</ns3:cad>
          </ns3:TrackPointExtension>
        </extensions>
      </trkpt>
      <trkpt lat="44.70353971235454082489013671875" lon="6.75352494232356548309326171875">
        <ele>1600.5999755859375</ele>
        <time>2026-09-03T06:46:48.000Z</time>
        <extensions>
          <ns3:TrackPointExtension>
            <ns3:hr>137</ns3:hr>
            <ns3:cad>0</ns3:cad>
          </ns3:TrackPointExtension>
        </extensions>
      </trkpt>
      <trkpt lat="44.70353837125003337860107421875" lon="6.7535406164824962615966796875">
        <ele>1600.800048828125</ele>
        <time>2026-09-03T06:46:49.000Z</time>
        <extensions>
          <ns3:TrackPointExtension>
            <ns3:hr>138</ns3:hr>
            <ns3:cad>50</ns3:cad>
          </ns3:TrackPointExtension>
        </extensions>
      </trkpt>
      <trkpt lat="44.70353468321263790130615234375" lon="6.7535533569753170013427734375">
        <ele>1600.800048828125</ele>
        <time>2026-09-03T06:46:50.000Z</time>
        <extensions>
          <ns3:TrackPointExtension>
            <ns3:hr>138</ns3:hr>
            <ns3:cad>50</ns3:cad>
          </ns3:TrackPointExtension>
        </extensions>
      </trkpt>
      <trkpt lat="44.7035319171845912933349609375" lon="6.753565259277820587158203125">
        <ele>1601</ele>
        <time>2026-09-03T06:46:51.000Z</time>
        <extensions>
          <ns3:TrackPointExtension>
            <ns3:hr>138</ns3:hr>
            <ns3:cad>50</ns3:cad>
          </ns3:TrackPointExtension>
        </extensions>
      </trkpt>
      <trkpt lat="44.7035287320613861083984375" lon="6.75357841886579990386962890625">
        <ele>1601.199951171875</ele>
        <time>2026-09-03T06:46:52.000Z</time>
        <extensions>
          <ns3:TrackPointExtension>
            <ns3:hr>138</ns3:hr>
            <ns3:cad>0</ns3:cad>
          </ns3:TrackPointExtension>
        </extensions>
      </trkpt>
      <trkpt lat="44.7035262174904346466064453125" lon="6.75359082408249378204345703125">
        <ele>1601.4000244140625</ele>
        <time>2026-09-03T06:46:53.000Z</time>
        <extensions>
          <ns3:TrackPointExtension>
            <ns3:hr>137</ns3:hr>
            <ns3:cad>0</ns3:cad>
          </ns3:TrackPointExtension>
        </extensions>
      </trkpt>
      <trkpt lat="44.70352328382432460784912109375" lon="6.75360406748950481414794921875">
        <ele>1601.5999755859375</ele>
        <time>2026-09-03T06:46:54.000Z</time>
        <extensions>
          <ns3:TrackPointExtension>
            <ns3:hr>137</ns3:hr>
            <ns3:cad>0</ns3:cad>
          </ns3:TrackPointExtension>
        </extensions>
      </trkpt>
      <trkpt lat="44.7035225294530391693115234375" lon="6.7536177299916744232177734375">
        <ele>1601.800048828125</ele>
        <time>2026-09-03T06:46:55.000Z</time>
        <extensions>
          <ns3:TrackPointExtension>
            <ns3:hr>136</ns3:hr>
            <ns3:cad>0</ns3:cad>
          </ns3:TrackPointExtension>
        </extensions>
      </trkpt>
      <trkpt lat="44.7035238705575466156005859375" lon="6.7536277882754802703857421875">
        <ele>1602</ele>
        <time>2026-09-03T06:46:56.000Z</time>
        <extensions>
          <ns3:TrackPointExtension>
            <ns3:hr>135</ns3:hr>
            <ns3:cad>0</ns3:cad>
          </ns3:TrackPointExtension>
        </extensions>
      </trkpt>
      <trkpt lat="44.70352227799594402313232421875" lon="6.75364178605377674102783203125">
        <ele>1602.199951171875</ele>
        <time>2026-09-03T06:46:57.000Z</time>
        <extensions>
          <ns3:TrackPointExtension>
            <ns3:hr>135</ns3:hr>
            <ns3:cad>0</ns3:cad>
          </ns3:TrackPointExtension>
        </extensions>
      </trkpt>
      <trkpt lat="44.70352345146238803863525390625" lon="6.7536569572985172271728515625">
        <ele>1602.4000244140625</ele>
        <time>2026-09-03T06:46:58.000Z</time>
        <extensions>
          <ns3:TrackPointExtension>
            <ns3:hr>134</ns3:hr>
            <ns3:cad>0</ns3:cad>
          </ns3:TrackPointExtension>
        </extensions>
      </trkpt>
      <trkpt lat="44.703520350158214569091796875" lon="6.75366827286779880523681640625">
        <ele>1602.5999755859375</ele>
        <time>2026-09-03T06:46:59.000Z</time>
        <extensions>
          <ns3:TrackPointExtension>
            <ns3:hr>134</ns3:hr>
            <ns3:cad>0</ns3:cad>
          </ns3:TrackPointExtension>
        </extensions>
      </trkpt>
      <trkpt lat="44.7035171650350093841552734375" lon="6.75368134863674640655517578125">
        <ele>1602.800048828125</ele>
        <time>2026-09-03T06:47:00.000Z</time>
        <extensions>
          <ns3:TrackPointExtension>
            <ns3:hr>134</ns3:hr>
            <ns3:cad>0</ns3:cad>
          </ns3:TrackPointExtension>
        </extensions>
      </trkpt>
      <trkpt lat="44.70351138152182102203369140625" lon="6.75369626842439174652099609375">
        <ele>1603</ele>
        <time>2026-09-03T06:47:01.000Z</time>
        <extensions>
          <ns3:TrackPointExtension>
            <ns3:hr>133</ns3:hr>
            <ns3:cad>0</ns3:cad>
          </ns3:TrackPointExtension>
        </extensions>
      </trkpt>
      <trkpt lat="44.7035104595124721527099609375" lon="6.75371018238365650177001953125">
        <ele>1603</ele>
        <time>2026-09-03T06:47:02.000Z</time>
        <extensions>
          <ns3:TrackPointExtension>
            <ns3:hr>133</ns3:hr>
            <ns3:cad>0</ns3:cad>
          </ns3:TrackPointExtension>
        </extensions>
      </trkpt>
      <trkpt lat="44.70350434072315692901611328125" lon="6.7537236772477626800537109375">
        <ele>1603.199951171875</ele>
        <time>2026-09-03T06:47:03.000Z</time>
        <extensions>
          <ns3:TrackPointExtension>
            <ns3:hr>133</ns3:hr>
            <ns3:cad>0</ns3:cad>
          </ns3:TrackPointExtension>
        </extensions>
      </trkpt>
      <trkpt lat="44.7035004012286663055419921875" lon="6.75373817794024944305419921875">
        <ele>1603.4000244140625</ele>
        <time>2026-09-03T06:47:04.000Z</time>
        <extensions>
          <ns3:TrackPointExtension>
            <ns3:hr>133</ns3:hr>
            <ns3:cad>51</ns3:cad>
          </ns3:TrackPointExtension>
        </extensions>
      </trkpt>
      <trkpt lat="44.703496880829334259033203125" lon="6.753749661147594451904296875">
        <ele>1603.5999755859375</ele>
        <time>2026-09-03T06:47:05.000Z</time>
        <extensions>
          <ns3:TrackPointExtension>
            <ns3:hr>132</ns3:hr>
            <ns3:cad>51</ns3:cad>
          </ns3:TrackPointExtension>
        </extensions>
      </trkpt>
      <trkpt lat="44.70349445007741451263427734375" lon="6.75376215018332004547119140625">
        <ele>1603.800048828125</ele>
        <time>2026-09-03T06:47:06.000Z</time>
        <extensions>
          <ns3:TrackPointExtension>
            <ns3:hr>132</ns3:hr>
            <ns3:cad>51</ns3:cad>
          </ns3:TrackPointExtension>
        </extensions>
      </trkpt>
      <trkpt lat="44.703490845859050750732421875" lon="6.7537753097712993621826171875">
        <ele>1604</ele>
        <time>2026-09-03T06:47:07.000Z</time>
        <extensions>
          <ns3:TrackPointExtension>
            <ns3:hr>131</ns3:hr>
            <ns3:cad>52</ns3:cad>
          </ns3:TrackPointExtension>
        </extensions>
      </trkpt>
      <trkpt lat="44.7034876607358455657958984375" lon="6.75379215739667415618896484375">
        <ele>1604.199951171875</ele>
        <time>2026-09-03T06:47:08.000Z</time>
        <extensions>
          <ns3:TrackPointExtension>
            <ns3:hr>131</ns3:hr>
            <ns3:cad>52</ns3:cad>
          </ns3:TrackPointExtension>
        </extensions>
      </trkpt>
      <trkpt lat="44.703484475612640380859375" lon="6.75380422733724117279052734375">
        <ele>1604.4000244140625</ele>
        <time>2026-09-03T06:47:09.000Z</time>
        <extensions>
          <ns3:TrackPointExtension>
            <ns3:hr>131</ns3:hr>
            <ns3:cad>52</ns3:cad>
          </ns3:TrackPointExtension>
        </extensions>
      </trkpt>
      <trkpt lat="44.7034819610416889190673828125" lon="6.75381663255393505096435546875">
        <ele>1604.5999755859375</ele>
        <time>2026-09-03T06:47:10.000Z</time>
        <extensions>
          <ns3:TrackPointExtension>
            <ns3:hr>131</ns3:hr>
            <ns3:cad>52</ns3:cad>
          </ns3:TrackPointExtension>
        </extensions>
      </trkpt>
      <trkpt lat="44.70347852446138858795166015625" lon="6.75382836721837520599365234375">
        <ele>1604.800048828125</ele>
        <time>2026-09-03T06:47:11.000Z</time>
        <extensions>
          <ns3:TrackPointExtension>
            <ns3:hr>131</ns3:hr>
            <ns3:cad>52</ns3:cad>
          </ns3:TrackPointExtension>
        </extensions>
      </trkpt>
      <trkpt lat="44.70347709953784942626953125" lon="6.7538376711308956146240234375">
        <ele>1605</ele>
        <time>2026-09-03T06:47:12.000Z</time>
        <extensions>
          <ns3:TrackPointExtension>
            <ns3:hr>131</ns3:hr>
            <ns3:cad>52</ns3:cad>
          </ns3:TrackPointExtension>
        </extensions>
      </trkpt>
      <trkpt lat="44.70347575843334197998046875" lon="6.75384462811052799224853515625">
        <ele>1605.199951171875</ele>
        <time>2026-09-03T06:47:13.000Z</time>
        <extensions>
          <ns3:TrackPointExtension>
            <ns3:hr>132</ns3:hr>
            <ns3:cad>0</ns3:cad>
          </ns3:TrackPointExtension>
        </extensions>
      </trkpt>
      <trkpt lat="44.70347316004335880279541015625" lon="6.7538527585566043853759765625">
        <ele>1605.199951171875</ele>
        <time>2026-09-03T06:47:14.000Z</time>
        <extensions>
          <ns3:TrackPointExtension>
            <ns3:hr>132</ns3:hr>
            <ns3:cad>0</ns3:cad>
          </ns3:TrackPointExtension>
        </extensions>
      </trkpt>
      <trkpt lat="44.70347131602466106414794921875" lon="6.75385938026010990142822265625">
        <ele>1605.4000244140625</ele>
        <time>2026-09-03T06:47:15.000Z</time>
        <extensions>
          <ns3:TrackPointExtension>
            <ns3:hr>132</ns3:hr>
            <ns3:cad>0</ns3:cad>
          </ns3:TrackPointExtension>
        </extensions>
      </trkpt>
      <trkpt lat="44.703469388186931610107421875" lon="6.753866337239742279052734375">
        <ele>1605.5999755859375</ele>
        <time>2026-09-03T06:47:16.000Z</time>
        <extensions>
          <ns3:TrackPointExtension>
            <ns3:hr>132</ns3:hr>
            <ns3:cad>0</ns3:cad>
          </ns3:TrackPointExtension>
        </extensions>
      </trkpt>
      <trkpt lat="44.7034645266830921173095703125" lon="6.75388075411319732666015625">
        <ele>1605.800048828125</ele>
        <time>2026-09-03T06:47:17.000Z</time>
        <extensions>
          <ns3:TrackPointExtension>
            <ns3:hr>131</ns3:hr>
            <ns3:cad>0</ns3:cad>
          </ns3:TrackPointExtension>
        </extensions>
      </trkpt>
      <trkpt lat="44.70346041955053806304931640625" lon="6.75389357842504978179931640625">
        <ele>1606</ele>
        <time>2026-09-03T06:47:18.000Z</time>
        <extensions>
          <ns3:TrackPointExtension>
            <ns3:hr>132</ns3:hr>
            <ns3:cad>0</ns3:cad>
          </ns3:TrackPointExtension>
        </extensions>
      </trkpt>
      <trkpt lat="44.703455306589603424072265625" lon="6.7539070732891559600830078125">
        <ele>1606.199951171875</ele>
        <time>2026-09-03T06:47:19.000Z</time>
        <extensions>
          <ns3:TrackPointExtension>
            <ns3:hr>132</ns3:hr>
            <ns3:cad>0</ns3:cad>
          </ns3:TrackPointExtension>
        </extensions>
      </trkpt>
      <trkpt lat="44.7034521214663982391357421875" lon="6.75391570664942264556884765625">
        <ele>1606.4000244140625</ele>
        <time>2026-09-03T06:47:20.000Z</time>
        <extensions>
          <ns3:TrackPointExtension>
            <ns3:hr>132</ns3:hr>
            <ns3:cad>0</ns3:cad>
          </ns3:TrackPointExtension>
        </extensions>
      </trkpt>
      <trkpt lat="44.7034551389515399932861328125" lon="6.7539255134761333465576171875">
        <ele>1606.5999755859375</ele>
        <time>2026-09-03T06:47:21.000Z</time>
        <extensions>
          <ns3:TrackPointExtension>
            <ns3:hr>133</ns3:hr>
            <ns3:cad>0</ns3:cad>
          </ns3:TrackPointExtension>
        </extensions>
      </trkpt>
      <trkpt lat="44.70345689915120601654052734375" lon="6.75394110381603240966796875">
        <ele>1606.800048828125</ele>
        <time>2026-09-03T06:47:22.000Z</time>
        <extensions>
          <ns3:TrackPointExtension>
            <ns3:hr>133</ns3:hr>
            <ns3:cad>0</ns3:cad>
          </ns3:TrackPointExtension>
        </extensions>
      </trkpt>
      <trkpt lat="44.70345756970345973968505859375" lon="6.75394940190017223358154296875">
        <ele>1607</ele>
        <time>2026-09-03T06:47:23.000Z</time>
        <extensions>
          <ns3:TrackPointExtension>
            <ns3:hr>133</ns3:hr>
            <ns3:cad>0</ns3:cad>
          </ns3:TrackPointExtension>
        </extensions>
      </trkpt>
      <trkpt lat="44.70346712507307529449462890625" lon="6.7539623938500881195068359375">
        <ele>1607.199951171875</ele>
        <time>2026-09-03T06:47:24.000Z</time>
        <extensions>
          <ns3:TrackPointExtension>
            <ns3:hr>133</ns3:hr>
            <ns3:cad>0</ns3:cad>
          </ns3:TrackPointExtension>
        </extensions>
      </trkpt>
      <trkpt lat="44.70347148366272449493408203125" lon="6.7539726197719573974609375">
        <ele>1607.4000244140625</ele>
        <time>2026-09-03T06:47:25.000Z</time>
        <extensions>
          <ns3:TrackPointExtension>
            <ns3:hr>133</ns3:hr>
            <ns3:cad>51</ns3:cad>
          </ns3:TrackPointExtension>
        </extensions>
      </trkpt>
      <trkpt lat="44.7034750878810882568359375" lon="6.75398393534123897552490234375">
        <ele>1607.5999755859375</ele>
        <time>2026-09-03T06:47:26.000Z</time>
        <extensions>
          <ns3:TrackPointExtension>
            <ns3:hr>132</ns3:hr>
            <ns3:cad>51</ns3:cad>
          </ns3:TrackPointExtension>
        </extensions>
      </trkpt>
      <trkpt lat="44.70347785390913486480712890625" lon="6.75399499945342540740966796875">
        <ele>1607.800048828125</ele>
        <time>2026-09-03T06:47:27.000Z</time>
        <extensions>
          <ns3:TrackPointExtension>
            <ns3:hr>133</ns3:hr>
            <ns3:cad>0</ns3:cad>
          </ns3:TrackPointExtension>
        </extensions>
      </trkpt>
      <trkpt lat="44.70348087139427661895751953125" lon="6.75400489009916782379150390625">
        <ele>1608</ele>
        <time>2026-09-03T06:47:28.000Z</time>
        <extensions>
          <ns3:TrackPointExtension>
            <ns3:hr>132</ns3:hr>
            <ns3:cad>0</ns3:cad>
          </ns3:TrackPointExtension>
        </extensions>
      </trkpt>
      <trkpt lat="44.7034858167171478271484375" lon="6.75402031280100345611572265625">
        <ele>1608.199951171875</ele>
        <time>2026-09-03T06:47:29.000Z</time>
        <extensions>
          <ns3:TrackPointExtension>
            <ns3:hr>132</ns3:hr>
            <ns3:cad>0</ns3:cad>
          </ns3:TrackPointExtension>
        </extensions>
      </trkpt>
      <trkpt lat="44.70348958857357501983642578125" lon="6.75403405912220478057861328125">
        <ele>1608.4000244140625</ele>
        <time>2026-09-03T06:47:30.000Z</time>
        <extensions>
          <ns3:TrackPointExtension>
            <ns3:hr>132</ns3:hr>
            <ns3:cad>0</ns3:cad>
          </ns3:TrackPointExtension>
        </extensions>
      </trkpt>
      <trkpt lat="44.70349453389644622802734375" lon="6.75404897890985012054443359375">
        <ele>1608.4000244140625</ele>
        <time>2026-09-03T06:47:31.000Z</time>
        <extensions>
          <ns3:TrackPointExtension>
            <ns3:hr>132</ns3:hr>
            <ns3:cad>0</ns3:cad>
          </ns3:TrackPointExtension>
        </extensions>
      </trkpt>
      <trkpt lat="44.7034967131912708282470703125" lon="6.75405803136527538299560546875">
        <ele>1608.5999755859375</ele>
        <time>2026-09-03T06:47:32.000Z</time>
        <extensions>
          <ns3:TrackPointExtension>
            <ns3:hr>132</ns3:hr>
            <ns3:cad>0</ns3:cad>
          </ns3:TrackPointExtension>
        </extensions>
      </trkpt>
      <trkpt lat="44.70350065268576145172119140625" lon="6.75406674854457378387451171875">
        <ele>1608.800048828125</ele>
        <time>2026-09-03T06:47:33.000Z</time>
        <extensions>
          <ns3:TrackPointExtension>
            <ns3:hr>132</ns3:hr>
            <ns3:cad>0</ns3:cad>
          </ns3:TrackPointExtension>
        </extensions>
      </trkpt>
      <trkpt lat="44.7035064361989498138427734375" lon="6.75407848320901393890380859375">
        <ele>1609</ele>
        <time>2026-09-03T06:47:34.000Z</time>
        <extensions>
          <ns3:TrackPointExtension>
            <ns3:hr>131</ns3:hr>
            <ns3:cad>0</ns3:cad>
          </ns3:TrackPointExtension>
        </extensions>
      </trkpt>
      <trkpt lat="44.70351104624569416046142578125" lon="6.7540871165692806243896484375">
        <ele>1609.199951171875</ele>
        <time>2026-09-03T06:47:35.000Z</time>
        <extensions>
          <ns3:TrackPointExtension>
            <ns3:hr>131</ns3:hr>
            <ns3:cad>51</ns3:cad>
          </ns3:TrackPointExtension>
        </extensions>
      </trkpt>
      <trkpt lat="44.7035158239305019378662109375" lon="6.7540995217859745025634765625">
        <ele>1609.5999755859375</ele>
        <time>2026-09-03T06:47:36.000Z</time>
        <extensions>
          <ns3:TrackPointExtension>
            <ns3:hr>131</ns3:hr>
            <ns3:cad>51</ns3:cad>
          </ns3:TrackPointExtension>
        </extensions>
      </trkpt>
      <trkpt lat="44.70351926051080226898193359375" lon="6.75410932861268520355224609375">
        <ele>1609.800048828125</ele>
        <time>2026-09-03T06:47:37.000Z</time>
        <extensions>
          <ns3:TrackPointExtension>
            <ns3:hr>131</ns3:hr>
            <ns3:cad>51</ns3:cad>
          </ns3:TrackPointExtension>
        </extensions>
      </trkpt>
      <trkpt lat="44.70352512784302234649658203125" lon="6.75411720760166645050048828125">
        <ele>1610</ele>
        <time>2026-09-03T06:47:38.000Z</time>
        <extensions>
          <ns3:TrackPointExtension>
            <ns3:hr>131</ns3:hr>
            <ns3:cad>51</ns3:cad>
          </ns3:TrackPointExtension>
        </extensions>
      </trkpt>
      <trkpt lat="44.70353183336555957794189453125" lon="6.754128523170948028564453125">
        <ele>1610.199951171875</ele>
        <time>2026-09-03T06:47:39.000Z</time>
        <extensions>
          <ns3:TrackPointExtension>
            <ns3:hr>131</ns3:hr>
            <ns3:cad>51</ns3:cad>
          </ns3:TrackPointExtension>
        </extensions>
      </trkpt>
      <trkpt lat="44.70353803597390651702880859375" lon="6.7541370727121829986572265625">
        <ele>1610.199951171875</ele>
        <time>2026-09-03T06:47:40.000Z</time>
        <extensions>
          <ns3:TrackPointExtension>
            <ns3:hr>131</ns3:hr>
            <ns3:cad>0</ns3:cad>
          </ns3:TrackPointExtension>
        </extensions>
      </trkpt>
      <trkpt lat="44.7035459987819194793701171875" lon="6.75414687953889369964599609375">
        <ele>1610.4000244140625</ele>
        <time>2026-09-03T06:47:41.000Z</time>
        <extensions>
          <ns3:TrackPointExtension>
            <ns3:hr>131</ns3:hr>
            <ns3:cad>0</ns3:cad>
          </ns3:TrackPointExtension>
        </extensions>
      </trkpt>
      <trkpt lat="44.70355295576155185699462890625" lon="6.7541523277759552001953125">
        <ele>1610.5999755859375</ele>
        <time>2026-09-03T06:47:42.000Z</time>
        <extensions>
          <ns3:TrackPointExtension>
            <ns3:hr>131</ns3:hr>
            <ns3:cad>0</ns3:cad>
          </ns3:TrackPointExtension>
        </extensions>
      </trkpt>
      <trkpt lat="44.703559912741184234619140625" lon="6.7541618831455707550048828125">
        <ele>1610.800048828125</ele>
        <time>2026-09-03T06:47:43.000Z</time>
        <extensions>
          <ns3:TrackPointExtension>
            <ns3:hr>131</ns3:hr>
            <ns3:cad>0</ns3:cad>
          </ns3:TrackPointExtension>
        </extensions>
      </trkpt>
      <trkpt lat="44.70356670208275318145751953125" lon="6.75416816957294940948486328125">
        <ele>1610.800048828125</ele>
        <time>2026-09-03T06:47:44.000Z</time>
        <extensions>
          <ns3:TrackPointExtension>
            <ns3:hr>131</ns3:hr>
            <ns3:cad>0</ns3:cad>
          </ns3:TrackPointExtension>
        </extensions>
      </trkpt>
      <trkpt lat="44.7035724855959415435791015625" lon="6.75417386926710605621337890625">
        <ele>1611</ele>
        <time>2026-09-03T06:47:45.000Z</time>
        <extensions>
          <ns3:TrackPointExtension>
            <ns3:hr>132</ns3:hr>
            <ns3:cad>0</ns3:cad>
          </ns3:TrackPointExtension>
        </extensions>
      </trkpt>
      <trkpt lat="44.70357877202332019805908203125" lon="6.7541809938848018646240234375">
        <ele>1611.199951171875</ele>
        <time>2026-09-03T06:47:46.000Z</time>
        <extensions>
          <ns3:TrackPointExtension>
            <ns3:hr>132</ns3:hr>
            <ns3:cad>0</ns3:cad>
          </ns3:TrackPointExtension>
        </extensions>
      </trkpt>
      <trkpt lat="44.70358648337423801422119140625" lon="6.7541863583028316497802734375">
        <ele>1611.4000244140625</ele>
        <time>2026-09-03T06:47:47.000Z</time>
        <extensions>
          <ns3:TrackPointExtension>
            <ns3:hr>132</ns3:hr>
            <ns3:cad>0</ns3:cad>
          </ns3:TrackPointExtension>
        </extensions>
      </trkpt>
      <trkpt lat="44.7035942785441875457763671875" lon="6.7541974224150180816650390625">
        <ele>1611.5999755859375</ele>
        <time>2026-09-03T06:47:48.000Z</time>
        <extensions>
          <ns3:TrackPointExtension>
            <ns3:hr>132</ns3:hr>
            <ns3:cad>0</ns3:cad>
          </ns3:TrackPointExtension>
        </extensions>
      </trkpt>
      <trkpt lat="44.70359888859093189239501953125" lon="6.7542007751762866973876953125">
        <ele>1611.800048828125</ele>
        <time>2026-09-03T06:47:49.000Z</time>
        <extensions>
          <ns3:TrackPointExtension>
            <ns3:hr>131</ns3:hr>
            <ns3:cad>0</ns3:cad>
          </ns3:TrackPointExtension>
        </extensions>
      </trkpt>
      <trkpt lat="44.70360626466572284698486328125" lon="6.75420488230884075164794921875">
        <ele>1612</ele>
        <time>2026-09-03T06:47:50.000Z</time>
        <extensions>
          <ns3:TrackPointExtension>
            <ns3:hr>132</ns3:hr>
            <ns3:cad>0</ns3:cad>
          </ns3:TrackPointExtension>
        </extensions>
      </trkpt>
      <trkpt lat="44.703615568578243255615234375" lon="6.75421862863004207611083984375">
        <ele>1612.199951171875</ele>
        <time>2026-09-03T06:47:51.000Z</time>
        <extensions>
          <ns3:TrackPointExtension>
            <ns3:hr>131</ns3:hr>
            <ns3:cad>0</ns3:cad>
          </ns3:TrackPointExtension>
        </extensions>
      </trkpt>
      <trkpt lat="44.70362353138625621795654296875" lon="6.754227094352245330810546875">
        <ele>1612.4000244140625</ele>
        <time>2026-09-03T06:47:52.000Z</time>
        <extensions>
          <ns3:TrackPointExtension>
            <ns3:hr>132</ns3:hr>
            <ns3:cad>0</ns3:cad>
          </ns3:TrackPointExtension>
        </extensions>
      </trkpt>
      <trkpt lat="44.70363442786037921905517578125" lon="6.75423958338797092437744140625">
        <ele>1612.4000244140625</ele>
        <time>2026-09-03T06:47:53.000Z</time>
        <extensions>
          <ns3:TrackPointExtension>
            <ns3:hr>132</ns3:hr>
            <ns3:cad>0</ns3:cad>
          </ns3:TrackPointExtension>
        </extensions>
      </trkpt>
      <trkpt lat="44.703643061220645904541015625" lon="6.75424561835825443267822265625">
        <ele>1612.5999755859375</ele>
        <time>2026-09-03T06:47:54.000Z</time>
        <extensions>
          <ns3:TrackPointExtension>
            <ns3:hr>132</ns3:hr>
            <ns3:cad>0</ns3:cad>
          </ns3:TrackPointExtension>
        </extensions>
      </trkpt>
      <trkpt lat="44.7036519460380077362060546875" lon="6.7542500607669353485107421875">
        <ele>1612.800048828125</ele>
        <time>2026-09-03T06:47:55.000Z</time>
        <extensions>
          <ns3:TrackPointExtension>
            <ns3:hr>132</ns3:hr>
            <ns3:cad>53</ns3:cad>
          </ns3:TrackPointExtension>
        </extensions>
      </trkpt>
      <trkpt lat="44.70365940593183040618896484375" lon="6.7542544193565845489501953125">
        <ele>1613</ele>
        <time>2026-09-03T06:47:56.000Z</time>
        <extensions>
          <ns3:TrackPointExtension>
            <ns3:hr>132</ns3:hr>
            <ns3:cad>53</ns3:cad>
          </ns3:TrackPointExtension>
        </extensions>
      </trkpt>
      <trkpt lat="44.703666530549526214599609375" lon="6.75425902940332889556884765625">
        <ele>1613</ele>
        <time>2026-09-03T06:47:57.000Z</time>
        <extensions>
          <ns3:TrackPointExtension>
            <ns3:hr>133</ns3:hr>
            <ns3:cad>53</ns3:cad>
          </ns3:TrackPointExtension>
        </extensions>
      </trkpt>
      <trkpt lat="44.703673906624317169189453125" lon="6.75426322035491466522216796875">
        <ele>1613.199951171875</ele>
        <time>2026-09-03T06:47:58.000Z</time>
        <extensions>
          <ns3:TrackPointExtension>
            <ns3:hr>132</ns3:hr>
            <ns3:cad>51</ns3:cad>
          </ns3:TrackPointExtension>
        </extensions>
      </trkpt>
      <trkpt lat="44.7036821208894252777099609375" lon="6.75426942296326160430908203125">
        <ele>1613.4000244140625</ele>
        <time>2026-09-03T06:47:59.000Z</time>
        <extensions>
          <ns3:TrackPointExtension>
            <ns3:hr>132</ns3:hr>
            <ns3:cad>51</ns3:cad>
          </ns3:TrackPointExtension>
        </extensions>
      </trkpt>
      <trkpt lat="44.70369008369743824005126953125" lon="6.7542730271816253662109375">
        <ele>1613.4000244140625</ele>
        <time>2026-09-03T06:48:00.000Z</time>
        <extensions>
          <ns3:TrackPointExtension>
            <ns3:hr>132</ns3:hr>
            <ns3:cad>51</ns3:cad>
          </ns3:TrackPointExtension>
        </extensions>
      </trkpt>
      <trkpt lat="44.7036977112293243408203125" lon="6.754276044666767120361328125">
        <ele>1613.5999755859375</ele>
        <time>2026-09-03T06:48:01.000Z</time>
        <extensions>
          <ns3:TrackPointExtension>
            <ns3:hr>132</ns3:hr>
            <ns3:cad>51</ns3:cad>
          </ns3:TrackPointExtension>
        </extensions>
      </trkpt>
      <trkpt lat="44.703704081475734710693359375" lon="6.75428065471351146697998046875">
        <ele>1613.5999755859375</ele>
        <time>2026-09-03T06:48:02.000Z</time>
        <extensions>
          <ns3:TrackPointExtension>
            <ns3:hr>132</ns3:hr>
            <ns3:cad>53</ns3:cad>
          </ns3:TrackPointExtension>
        </extensions>
      </trkpt>
      <trkpt lat="44.7037119604647159576416015625" lon="6.754287779331207275390625">
        <ele>1613.800048828125</ele>
        <time>2026-09-03T06:48:03.000Z</time>
        <extensions>
          <ns3:TrackPointExtension>
            <ns3:hr>132</ns3:hr>
            <ns3:cad>53</ns3:cad>
          </ns3:TrackPointExtension>
        </extensions>
      </trkpt>
      <trkpt lat="44.703720510005950927734375" lon="6.75429255701601505279541015625">
        <ele>1614</ele>
        <time>2026-09-03T06:48:04.000Z</time>
        <extensions>
          <ns3:TrackPointExtension>
            <ns3:hr>131</ns3:hr>
            <ns3:cad>53</ns3:cad>
          </ns3:TrackPointExtension>
        </extensions>
      </trkpt>
      <trkpt lat="44.70373014919459819793701171875" lon="6.754298508167266845703125">
        <ele>1614</ele>
        <time>2026-09-03T06:48:05.000Z</time>
        <extensions>
          <ns3:TrackPointExtension>
            <ns3:hr>131</ns3:hr>
            <ns3:cad>51</ns3:cad>
          </ns3:TrackPointExtension>
        </extensions>
      </trkpt>
      <trkpt lat="44.7037354297935962677001953125" lon="6.75430244766175746917724609375">
        <ele>1614.199951171875</ele>
        <time>2026-09-03T06:48:06.000Z</time>
        <extensions>
          <ns3:TrackPointExtension>
            <ns3:hr>131</ns3:hr>
            <ns3:cad>51</ns3:cad>
          </ns3:TrackPointExtension>
        </extensions>
      </trkpt>
      <trkpt lat="44.70374322496354579925537109375" lon="6.75430797971785068511962890625">
        <ele>1614.4000244140625</ele>
        <time>2026-09-03T06:48:07.000Z</time>
        <extensions>
          <ns3:TrackPointExtension>
            <ns3:hr>131</ns3:hr>
            <ns3:cad>52</ns3:cad>
          </ns3:TrackPointExtension>
        </extensions>
      </trkpt>
      <trkpt lat="44.70375060103833675384521484375" lon="6.7543144337832927703857421875">
        <ele>1614.5999755859375</ele>
        <time>2026-09-03T06:48:08.000Z</time>
        <extensions>
          <ns3:TrackPointExtension>
            <ns3:hr>131</ns3:hr>
            <ns3:cad>52</ns3:cad>
          </ns3:TrackPointExtension>
        </extensions>
      </trkpt>
      <trkpt lat="44.70375479198992252349853515625" lon="6.75432222895324230194091796875">
        <ele>1614.800048828125</ele>
        <time>2026-09-03T06:48:09.000Z</time>
        <extensions>
          <ns3:TrackPointExtension>
            <ns3:hr>130</ns3:hr>
            <ns3:cad>52</ns3:cad>
          </ns3:TrackPointExtension>
        </extensions>
      </trkpt>
      <trkpt lat="44.70375948585569858551025390625" lon="6.7543298564851284027099609375">
        <ele>1614.800048828125</ele>
        <time>2026-09-03T06:48:10.000Z</time>
        <extensions>
          <ns3:TrackPointExtension>
            <ns3:hr>131</ns3:hr>
            <ns3:cad>52</ns3:cad>
          </ns3:TrackPointExtension>
        </extensions>
      </trkpt>
      <trkpt lat="44.70376786775887012481689453125" lon="6.75433999858796596527099609375">
        <ele>1615</ele>
        <time>2026-09-03T06:48:11.000Z</time>
        <extensions>
          <ns3:TrackPointExtension>
            <ns3:hr>131</ns3:hr>
            <ns3:cad>52</ns3:cad>
          </ns3:TrackPointExtension>
        </extensions>
      </trkpt>
      <trkpt lat="44.703775830566883087158203125" lon="6.75435123033821582794189453125">
        <ele>1615.199951171875</ele>
        <time>2026-09-03T06:48:12.000Z</time>
        <extensions>
          <ns3:TrackPointExtension>
            <ns3:hr>131</ns3:hr>
            <ns3:cad>52</ns3:cad>
          </ns3:TrackPointExtension>
        </extensions>
      </trkpt>
      <trkpt lat="44.7037813626229763031005859375" lon="6.7543593607842922210693359375">
        <ele>1615.4000244140625</ele>
        <time>2026-09-03T06:48:13.000Z</time>
        <extensions>
          <ns3:TrackPointExtension>
            <ns3:hr>132</ns3:hr>
            <ns3:cad>52</ns3:cad>
          </ns3:TrackPointExtension>
        </extensions>
      </trkpt>
      <trkpt lat="44.7037884034216403961181640625" lon="6.75436413846909999847412109375">
        <ele>1615.5999755859375</ele>
        <time>2026-09-03T06:48:14.000Z</time>
        <extensions>
          <ns3:TrackPointExtension>
            <ns3:hr>132</ns3:hr>
            <ns3:cad>52</ns3:cad>
          </ns3:TrackPointExtension>
        </extensions>
      </trkpt>
      <trkpt lat="44.70379720441997051239013671875" lon="6.75437285564839839935302734375">
        <ele>1615.800048828125</ele>
        <time>2026-09-03T06:48:15.000Z</time>
        <extensions>
          <ns3:TrackPointExtension>
            <ns3:hr>132</ns3:hr>
            <ns3:cad>52</ns3:cad>
          </ns3:TrackPointExtension>
        </extensions>
      </trkpt>
      <trkpt lat="44.70380793325603008270263671875" lon="6.7543871887028217315673828125">
        <ele>1615.800048828125</ele>
        <time>2026-09-03T06:48:16.000Z</time>
        <extensions>
          <ns3:TrackPointExtension>
            <ns3:hr>132</ns3:hr>
            <ns3:cad>52</ns3:cad>
          </ns3:TrackPointExtension>
        </extensions>
      </trkpt>
      <trkpt lat="44.70381748862564563751220703125" lon="6.7543965764343738555908203125">
        <ele>1616</ele>
        <time>2026-09-03T06:48:17.000Z</time>
        <extensions>
          <ns3:TrackPointExtension>
            <ns3:hr>133</ns3:hr>
            <ns3:cad>52</ns3:cad>
          </ns3:TrackPointExtension>
        </extensions>
      </trkpt>
      <trkpt lat="44.70382587052881717681884765625" lon="6.75440437160432338714599609375">
        <ele>1616.199951171875</ele>
        <time>2026-09-03T06:48:18.000Z</time>
        <extensions>
          <ns3:TrackPointExtension>
            <ns3:hr>134</ns3:hr>
            <ns3:cad>52</ns3:cad>
          </ns3:TrackPointExtension>
        </extensions>
      </trkpt>
      <trkpt lat="44.703834839165210723876953125" lon="6.75441409461200237274169921875">
        <ele>1616.4000244140625</ele>
        <time>2026-09-03T06:48:19.000Z</time>
        <extensions>
          <ns3:TrackPointExtension>
            <ns3:hr>134</ns3:hr>
            <ns3:cad>52</ns3:cad>
          </ns3:TrackPointExtension>
        </extensions>
      </trkpt>
      <trkpt lat="44.70384296961128711700439453125" lon="6.7544205486774444580078125">
        <ele>1616.4000244140625</ele>
        <time>2026-09-03T06:48:20.000Z</time>
        <extensions>
          <ns3:TrackPointExtension>
            <ns3:hr>134</ns3:hr>
            <ns3:cad>52</ns3:cad>
          </ns3:TrackPointExtension>
        </extensions>
      </trkpt>
      <trkpt lat="44.70385235734283924102783203125" lon="6.75442918203771114349365234375">
        <ele>1616.5999755859375</ele>
        <time>2026-09-03T06:48:21.000Z</time>
        <extensions>
          <ns3:TrackPointExtension>
            <ns3:hr>135</ns3:hr>
            <ns3:cad>51</ns3:cad>
          </ns3:TrackPointExtension>
        </extensions>
      </trkpt>
      <trkpt lat="44.70385822467505931854248046875" lon="6.7544388212263584136962890625">
        <ele>1616.800048828125</ele>
        <time>2026-09-03T06:48:22.000Z</time>
        <extensions>
          <ns3:TrackPointExtension>
            <ns3:hr>135</ns3:hr>
            <ns3:cad>51</ns3:cad>
          </ns3:TrackPointExtension>
        </extensions>
      </trkpt>
      <trkpt lat="44.70386543311178684234619140625" lon="6.7544512264430522918701171875">
        <ele>1617</ele>
        <time>2026-09-03T06:48:23.000Z</time>
        <extensions>
          <ns3:TrackPointExtension>
            <ns3:hr>136</ns3:hr>
            <ns3:cad>51</ns3:cad>
          </ns3:TrackPointExtension>
        </extensions>
      </trkpt>
      <trkpt lat="44.703873731195926666259765625" lon="6.75446522422134876251220703125">
        <ele>1617.199951171875</ele>
        <time>2026-09-03T06:48:24.000Z</time>
        <extensions>
          <ns3:TrackPointExtension>
            <ns3:hr>136</ns3:hr>
            <ns3:cad>51</ns3:cad>
          </ns3:TrackPointExtension>
        </extensions>
      </trkpt>
      <trkpt lat="44.70388219691812992095947265625" lon="6.754479221999645233154296875">
        <ele>1617.4000244140625</ele>
        <time>2026-09-03T06:48:25.000Z</time>
        <extensions>
          <ns3:TrackPointExtension>
            <ns3:hr>136</ns3:hr>
            <ns3:cad>51</ns3:cad>
          </ns3:TrackPointExtension>
        </extensions>
      </trkpt>
      <trkpt lat="44.7038916684687137603759765625" lon="6.754495985805988311767578125">
        <ele>1617.5999755859375</ele>
        <time>2026-09-03T06:48:26.000Z</time>
        <extensions>
          <ns3:TrackPointExtension>
            <ns3:hr>137</ns3:hr>
            <ns3:cad>51</ns3:cad>
          </ns3:TrackPointExtension>
        </extensions>
      </trkpt>
      <trkpt lat="44.70389560796320438385009765625" lon="6.7545078881084918975830078125">
        <ele>1617.800048828125</ele>
        <time>2026-09-03T06:48:27.000Z</time>
        <extensions>
          <ns3:TrackPointExtension>
            <ns3:hr>136</ns3:hr>
            <ns3:cad>51</ns3:cad>
          </ns3:TrackPointExtension>
        </extensions>
      </trkpt>
      <trkpt lat="44.70389896072447299957275390625" lon="6.75451719202101230621337890625">
        <ele>1618</ele>
        <time>2026-09-03T06:48:28.000Z</time>
        <extensions>
          <ns3:TrackPointExtension>
            <ns3:hr>136</ns3:hr>
            <ns3:cad>51</ns3:cad>
          </ns3:TrackPointExtension>
        </extensions>
      </trkpt>
      <trkpt lat="44.7039074264466762542724609375" lon="6.7545219697058200836181640625">
        <ele>1618.199951171875</ele>
        <time>2026-09-03T06:48:29.000Z</time>
        <extensions>
          <ns3:TrackPointExtension>
            <ns3:hr>136</ns3:hr>
            <ns3:cad>51</ns3:cad>
          </ns3:TrackPointExtension>
        </extensions>
      </trkpt>
      <trkpt lat="44.703915305435657501220703125" lon="6.75452959723770618438720703125">
        <ele>1618.4000244140625</ele>
        <time>2026-09-03T06:48:30.000Z</time>
        <extensions>
          <ns3:TrackPointExtension>
            <ns3:hr>137</ns3:hr>
            <ns3:cad>51</ns3:cad>
          </ns3:TrackPointExtension>
        </extensions>
      </trkpt>
      <trkpt lat="44.7039211727678775787353515625" lon="6.75453831441700458526611328125">
        <ele>1618.5999755859375</ele>
        <time>2026-09-03T06:48:31.000Z</time>
        <extensions>
          <ns3:TrackPointExtension>
            <ns3:hr>136</ns3:hr>
            <ns3:cad>51</ns3:cad>
          </ns3:TrackPointExtension>
        </extensions>
      </trkpt>
      <trkpt lat="44.70392444171011447906494140625" lon="6.75454652868211269378662109375">
        <ele>1618.5999755859375</ele>
        <time>2026-09-03T06:48:32.000Z</time>
        <extensions>
          <ns3:TrackPointExtension>
            <ns3:hr>136</ns3:hr>
            <ns3:cad>51</ns3:cad>
          </ns3:TrackPointExtension>
        </extensions>
      </trkpt>
      <trkpt lat="44.70393165014684200286865234375" lon="6.75455675460398197174072265625">
        <ele>1618.800048828125</ele>
        <time>2026-09-03T06:48:33.000Z</time>
        <extensions>
          <ns3:TrackPointExtension>
            <ns3:hr>136</ns3:hr>
            <ns3:cad>51</ns3:cad>
          </ns3:TrackPointExtension>
        </extensions>
      </trkpt>
      <trkpt lat="44.70393843948841094970703125" lon="6.75456245429813861846923828125">
        <ele>1619</ele>
        <time>2026-09-03T06:48:34.000Z</time>
        <extensions>
          <ns3:TrackPointExtension>
            <ns3:hr>136</ns3:hr>
            <ns3:cad>51</ns3:cad>
          </ns3:TrackPointExtension>
        </extensions>
      </trkpt>
      <trkpt lat="44.7039443068206310272216796875" lon="6.75457301549613475799560546875">
        <ele>1619.199951171875</ele>
        <time>2026-09-03T06:48:35.000Z</time>
        <extensions>
          <ns3:TrackPointExtension>
            <ns3:hr>136</ns3:hr>
            <ns3:cad>51</ns3:cad>
          </ns3:TrackPointExtension>
        </extensions>
      </trkpt>
      <trkpt lat="44.70395159907639026641845703125" lon="6.75458122976124286651611328125">
        <ele>1619.4000244140625</ele>
        <time>2026-09-03T06:48:36.000Z</time>
        <extensions>
          <ns3:TrackPointExtension>
            <ns3:hr>136</ns3:hr>
            <ns3:cad>52</ns3:cad>
          </ns3:TrackPointExtension>
        </extensions>
      </trkpt>
      <trkpt lat="44.70395855605602264404296875" lon="6.75458525307476520538330078125">
        <ele>1619.5999755859375</ele>
        <time>2026-09-03T06:48:37.000Z</time>
        <extensions>
          <ns3:TrackPointExtension>
            <ns3:hr>135</ns3:hr>
            <ns3:cad>52</ns3:cad>
          </ns3:TrackPointExtension>
        </extensions>
      </trkpt>
      <trkpt lat="44.7039694525301456451416015625" lon="6.7545970715582370758056640625">
        <ele>1619.800048828125</ele>
        <time>2026-09-03T06:48:38.000Z</time>
        <extensions>
          <ns3:TrackPointExtension>
            <ns3:hr>136</ns3:hr>
            <ns3:cad>52</ns3:cad>
          </ns3:TrackPointExtension>
        </extensions>
      </trkpt>
      <trkpt lat="44.70397808589041233062744140625" lon="6.75460687838494777679443359375">
        <ele>1619.800048828125</ele>
        <time>2026-09-03T06:48:39.000Z</time>
        <extensions>
          <ns3:TrackPointExtension>
            <ns3:hr>135</ns3:hr>
            <ns3:cad>52</ns3:cad>
          </ns3:TrackPointExtension>
        </extensions>
      </trkpt>
      <trkpt lat="44.70398780889809131622314453125" lon="6.7546175234019756317138671875">
        <ele>1620</ele>
        <time>2026-09-03T06:48:40.000Z</time>
        <extensions>
          <ns3:TrackPointExtension>
            <ns3:hr>135</ns3:hr>
            <ns3:cad>52</ns3:cad>
          </ns3:TrackPointExtension>
        </extensions>
      </trkpt>
      <trkpt lat="44.7039962746202945709228515625" lon="6.7546265758574008941650390625">
        <ele>1620.199951171875</ele>
        <time>2026-09-03T06:48:41.000Z</time>
        <extensions>
          <ns3:TrackPointExtension>
            <ns3:hr>135</ns3:hr>
            <ns3:cad>52</ns3:cad>
          </ns3:TrackPointExtension>
        </extensions>
      </trkpt>
      <trkpt lat="44.70400683581829071044921875" lon="6.75463671796023845672607421875">
        <ele>1620.4000244140625</ele>
        <time>2026-09-03T06:48:42.000Z</time>
        <extensions>
          <ns3:TrackPointExtension>
            <ns3:hr>135</ns3:hr>
            <ns3:cad>52</ns3:cad>
          </ns3:TrackPointExtension>
        </extensions>
      </trkpt>
      <trkpt lat="44.70401781611144542694091796875" lon="6.75464459694921970367431640625">
        <ele>1620.5999755859375</ele>
        <time>2026-09-03T06:48:43.000Z</time>
        <extensions>
          <ns3:TrackPointExtension>
            <ns3:hr>136</ns3:hr>
            <ns3:cad>52</ns3:cad>
          </ns3:TrackPointExtension>
        </extensions>
      </trkpt>
      <trkpt lat="44.7040276229381561279296875" lon="6.754651553928852081298828125">
        <ele>1620.5999755859375</ele>
        <time>2026-09-03T06:48:44.000Z</time>
        <extensions>
          <ns3:TrackPointExtension>
            <ns3:hr>135</ns3:hr>
            <ns3:cad>52</ns3:cad>
          </ns3:TrackPointExtension>
        </extensions>
      </trkpt>
      <trkpt lat="44.70403491519391536712646484375" lon="6.75465700216591358184814453125">
        <ele>1620.800048828125</ele>
        <time>2026-09-03T06:48:45.000Z</time>
        <extensions>
          <ns3:TrackPointExtension>
            <ns3:hr>135</ns3:hr>
            <ns3:cad>52</ns3:cad>
          </ns3:TrackPointExtension>
        </extensions>
      </trkpt>
      <trkpt lat="44.7040452249348163604736328125" lon="6.75466530025005340576171875">
        <ele>1621</ele>
        <time>2026-09-03T06:48:46.000Z</time>
        <extensions>
          <ns3:TrackPointExtension>
            <ns3:hr>136</ns3:hr>
            <ns3:cad>52</ns3:cad>
          </ns3:TrackPointExtension>
        </extensions>
      </trkpt>
      <trkpt lat="44.7040556184947490692138671875" lon="6.75467066466808319091796875">
        <ele>1621</ele>
        <time>2026-09-03T06:48:47.000Z</time>
        <extensions>
          <ns3:TrackPointExtension>
            <ns3:hr>136</ns3:hr>
            <ns3:cad>52</ns3:cad>
          </ns3:TrackPointExtension>
        </extensions>
      </trkpt>
      <trkpt lat="44.70406576059758663177490234375" lon="6.75467602908611297607421875">
        <ele>1621.199951171875</ele>
        <time>2026-09-03T06:48:48.000Z</time>
        <extensions>
          <ns3:TrackPointExtension>
            <ns3:hr>136</ns3:hr>
            <ns3:cad>0</ns3:cad>
          </ns3:TrackPointExtension>
        </extensions>
      </trkpt>
      <trkpt lat="44.70407699234783649444580078125" lon="6.75468139350414276123046875">
        <ele>1621.4000244140625</ele>
        <time>2026-09-03T06:48:49.000Z</time>
        <extensions>
          <ns3:TrackPointExtension>
            <ns3:hr>137</ns3:hr>
            <ns3:cad>0</ns3:cad>
          </ns3:TrackPointExtension>
        </extensions>
      </trkpt>
      <trkpt lat="44.7040894813835620880126953125" lon="6.7546875961124897003173828125">
        <ele>1621.5999755859375</ele>
        <time>2026-09-03T06:48:50.000Z</time>
        <extensions>
          <ns3:TrackPointExtension>
            <ns3:hr>137</ns3:hr>
            <ns3:cad>0</ns3:cad>
          </ns3:TrackPointExtension>
        </extensions>
      </trkpt>
      <trkpt lat="44.7040998749434947967529296875" lon="6.7546916194260120391845703125">
        <ele>1621.5999755859375</ele>
        <time>2026-09-03T06:48:51.000Z</time>
        <extensions>
          <ns3:TrackPointExtension>
            <ns3:hr>137</ns3:hr>
            <ns3:cad>0</ns3:cad>
          </ns3:TrackPointExtension>
        </extensions>
      </trkpt>
      <trkpt lat="44.70410884357988834381103515625" lon="6.75469790585339069366455078125">
        <ele>1621.800048828125</ele>
        <time>2026-09-03T06:48:52.000Z</time>
        <extensions>
          <ns3:TrackPointExtension>
            <ns3:hr>137</ns3:hr>
            <ns3:cad>0</ns3:cad>
          </ns3:TrackPointExtension>
        </extensions>
      </trkpt>
      <trkpt lat="44.704120494425296783447265625" lon="6.7547050304710865020751953125">
        <ele>1622</ele>
        <time>2026-09-03T06:48:53.000Z</time>
        <extensions>
          <ns3:TrackPointExtension>
            <ns3:hr>137</ns3:hr>
            <ns3:cad>52</ns3:cad>
          </ns3:TrackPointExtension>
        </extensions>
      </trkpt>
      <trkpt lat="44.704129882156848907470703125" lon="6.75471131689846515655517578125">
        <ele>1622.199951171875</ele>
        <time>2026-09-03T06:48:54.000Z</time>
        <extensions>
          <ns3:TrackPointExtension>
            <ns3:hr>137</ns3:hr>
            <ns3:cad>52</ns3:cad>
          </ns3:TrackPointExtension>
        </extensions>
      </trkpt>
      <trkpt lat="44.70413952134549617767333984375" lon="6.75471483729779720306396484375">
        <ele>1622.4000244140625</ele>
        <time>2026-09-03T06:48:55.000Z</time>
        <extensions>
          <ns3:TrackPointExtension>
            <ns3:hr>137</ns3:hr>
            <ns3:cad>52</ns3:cad>
          </ns3:TrackPointExtension>
        </extensions>
      </trkpt>
      <trkpt lat="44.70415041781961917877197265625" lon="6.7547194473445415496826171875">
        <ele>1622.4000244140625</ele>
        <time>2026-09-03T06:48:56.000Z</time>
        <extensions>
          <ns3:TrackPointExtension>
            <ns3:hr>138</ns3:hr>
            <ns3:cad>52</ns3:cad>
          </ns3:TrackPointExtension>
        </extensions>
      </trkpt>
      <trkpt lat="44.70416097901761531829833984375" lon="6.75472422502934932708740234375">
        <ele>1622.5999755859375</ele>
        <time>2026-09-03T06:48:57.000Z</time>
        <extensions>
          <ns3:TrackPointExtension>
            <ns3:hr>138</ns3:hr>
            <ns3:cad>51</ns3:cad>
          </ns3:TrackPointExtension>
        </extensions>
      </trkpt>
      <trkpt lat="44.7041739709675312042236328125" lon="6.754727661609649658203125">
        <ele>1622.5999755859375</ele>
        <time>2026-09-03T06:48:58.000Z</time>
        <extensions>
          <ns3:TrackPointExtension>
            <ns3:hr>138</ns3:hr>
            <ns3:cad>51</ns3:cad>
          </ns3:TrackPointExtension>
        </extensions>
      </trkpt>
      <trkpt lat="44.70418453216552734375" lon="6.75473093055188655853271484375">
        <ele>1622.800048828125</ele>
        <time>2026-09-03T06:48:59.000Z</time>
        <extensions>
          <ns3:TrackPointExtension>
            <ns3:hr>138</ns3:hr>
            <ns3:cad>51</ns3:cad>
          </ns3:TrackPointExtension>
        </extensions>
      </trkpt>
      <trkpt lat="44.7041947580873966217041015625" lon="6.75473528914153575897216796875">
        <ele>1623</ele>
        <time>2026-09-03T06:49:00.000Z</time>
        <extensions>
          <ns3:TrackPointExtension>
            <ns3:hr>139</ns3:hr>
            <ns3:cad>53</ns3:cad>
          </ns3:TrackPointExtension>
        </extensions>
      </trkpt>
      <trkpt lat="44.70420288853347301483154296875" lon="6.75473948009312152862548828125">
        <ele>1623</ele>
        <time>2026-09-03T06:49:01.000Z</time>
        <extensions>
          <ns3:TrackPointExtension>
            <ns3:hr>141</ns3:hr>
            <ns3:cad>53</ns3:cad>
          </ns3:TrackPointExtension>
        </extensions>
      </trkpt>
      <trkpt lat="44.7042105160653591156005859375" lon="6.7547412402927875518798828125">
        <ele>1623.199951171875</ele>
        <time>2026-09-03T06:49:02.000Z</time>
        <extensions>
          <ns3:TrackPointExtension>
            <ns3:hr>141</ns3:hr>
            <ns3:cad>53</ns3:cad>
          </ns3:TrackPointExtension>
        </extensions>
      </trkpt>
      <trkpt lat="44.7042178921401500701904296875" lon="6.7547435872256755828857421875">
        <ele>1623.199951171875</ele>
        <time>2026-09-03T06:49:03.000Z</time>
        <extensions>
          <ns3:TrackPointExtension>
            <ns3:hr>142</ns3:hr>
            <ns3:cad>53</ns3:cad>
          </ns3:TrackPointExtension>
        </extensions>
      </trkpt>
      <trkpt lat="44.70422602258622646331787109375" lon="6.75474484451115131378173828125">
        <ele>1623.4000244140625</ele>
        <time>2026-09-03T06:49:04.000Z</time>
        <extensions>
          <ns3:TrackPointExtension>
            <ns3:hr>143</ns3:hr>
            <ns3:cad>53</ns3:cad>
          </ns3:TrackPointExtension>
        </extensions>
      </trkpt>
      <trkpt lat="44.70423641614615917205810546875" lon="6.75474534742534160614013671875">
        <ele>1623.5999755859375</ele>
        <time>2026-09-03T06:49:05.000Z</time>
        <extensions>
          <ns3:TrackPointExtension>
            <ns3:hr>143</ns3:hr>
            <ns3:cad>55</ns3:cad>
          </ns3:TrackPointExtension>
        </extensions>
      </trkpt>
      <trkpt lat="44.704244546592235565185546875" lon="6.75474652089178562164306640625">
        <ele>1623.5999755859375</ele>
        <time>2026-09-03T06:49:06.000Z</time>
        <extensions>
          <ns3:TrackPointExtension>
            <ns3:hr>143</ns3:hr>
            <ns3:cad>55</ns3:cad>
          </ns3:TrackPointExtension>
        </extensions>
      </trkpt>
      <trkpt lat="44.70425426959991455078125" lon="6.75474467687308788299560546875">
        <ele>1623.800048828125</ele>
        <time>2026-09-03T06:49:07.000Z</time>
        <extensions>
          <ns3:TrackPointExtension>
            <ns3:hr>144</ns3:hr>
            <ns3:cad>55</ns3:cad>
          </ns3:TrackPointExtension>
        </extensions>
      </trkpt>
      <trkpt lat="44.70426340587437152862548828125" lon="6.75474601797759532928466796875">
        <ele>1624</ele>
        <time>2026-09-03T06:49:08.000Z</time>
        <extensions>
          <ns3:TrackPointExtension>
            <ns3:hr>144</ns3:hr>
            <ns3:cad>55</ns3:cad>
          </ns3:TrackPointExtension>
        </extensions>
      </trkpt>
      <trkpt lat="44.704274050891399383544921875" lon="6.75474920310080051422119140625">
        <ele>1624.199951171875</ele>
        <time>2026-09-03T06:49:09.000Z</time>
        <extensions>
          <ns3:TrackPointExtension>
            <ns3:hr>144</ns3:hr>
            <ns3:cad>55</ns3:cad>
          </ns3:TrackPointExtension>
        </extensions>
      </trkpt>
      <trkpt lat="44.7042856179177761077880859375" lon="6.754748784005641937255859375">
        <ele>1624.199951171875</ele>
        <time>2026-09-03T06:49:10.000Z</time>
        <extensions>
          <ns3:TrackPointExtension>
            <ns3:hr>144</ns3:hr>
            <ns3:cad>55</ns3:cad>
          </ns3:TrackPointExtension>
        </extensions>
      </trkpt>
      <trkpt lat="44.7042943350970745086669921875" lon="6.75474978983402252197265625">
        <ele>1624.4000244140625</ele>
        <time>2026-09-03T06:49:11.000Z</time>
        <extensions>
          <ns3:TrackPointExtension>
            <ns3:hr>144</ns3:hr>
            <ns3:cad>55</ns3:cad>
          </ns3:TrackPointExtension>
        </extensions>
      </trkpt>
      <trkpt lat="44.70430456101894378662109375" lon="6.754749454557895660400390625">
        <ele>1624.5999755859375</ele>
        <time>2026-09-03T06:49:12.000Z</time>
        <extensions>
          <ns3:TrackPointExtension>
            <ns3:hr>144</ns3:hr>
            <ns3:cad>55</ns3:cad>
          </ns3:TrackPointExtension>
        </extensions>
      </trkpt>
      <trkpt lat="44.70431528985500335693359375" lon="6.75474920310080051422119140625">
        <ele>1624.800048828125</ele>
        <time>2026-09-03T06:49:13.000Z</time>
        <extensions>
          <ns3:TrackPointExtension>
            <ns3:hr>144</ns3:hr>
            <ns3:cad>55</ns3:cad>
          </ns3:TrackPointExtension>
        </extensions>
      </trkpt>
      <trkpt lat="44.70432375557720661163330078125" lon="6.754748784005641937255859375">
        <ele>1624.800048828125</ele>
        <time>2026-09-03T06:49:14.000Z</time>
        <extensions>
          <ns3:TrackPointExtension>
            <ns3:hr>143</ns3:hr>
            <ns3:cad>55</ns3:cad>
          </ns3:TrackPointExtension>
        </extensions>
      </trkpt>
      <trkpt lat="44.704332388937473297119140625" lon="6.7547477781772613525390625">
        <ele>1625</ele>
        <time>2026-09-03T06:49:15.000Z</time>
        <extensions>
          <ns3:TrackPointExtension>
            <ns3:hr>143</ns3:hr>
            <ns3:cad>55</ns3:cad>
          </ns3:TrackPointExtension>
        </extensions>
      </trkpt>
      <trkpt lat="44.70434051938354969024658203125" lon="6.75474417395889759063720703125">
        <ele>1625.199951171875</ele>
        <time>2026-09-03T06:49:16.000Z</time>
        <extensions>
          <ns3:TrackPointExtension>
            <ns3:hr>143</ns3:hr>
            <ns3:cad>55</ns3:cad>
          </ns3:TrackPointExtension>
        </extensions>
      </trkpt>
      <trkpt lat="44.70434957183897495269775390625" lon="6.75474333576858043670654296875">
        <ele>1625.4000244140625</ele>
        <time>2026-09-03T06:49:17.000Z</time>
        <extensions>
          <ns3:TrackPointExtension>
            <ns3:hr>143</ns3:hr>
            <ns3:cad>55</ns3:cad>
          </ns3:TrackPointExtension>
        </extensions>
      </trkpt>
      <trkpt lat="44.70435493625700473785400390625" lon="6.7547445930540561676025390625">
        <ele>1625.5999755859375</ele>
        <time>2026-09-03T06:49:18.000Z</time>
        <extensions>
          <ns3:TrackPointExtension>
            <ns3:hr>143</ns3:hr>
            <ns3:cad>55</ns3:cad>
          </ns3:TrackPointExtension>
        </extensions>
      </trkpt>
      <trkpt lat="44.704365245997905731201171875" lon="6.75474174320697784423828125">
        <ele>1625.5999755859375</ele>
        <time>2026-09-03T06:49:19.000Z</time>
        <extensions>
          <ns3:TrackPointExtension>
            <ns3:hr>143</ns3:hr>
            <ns3:cad>55</ns3:cad>
          </ns3:TrackPointExtension>
        </extensions>
      </trkpt>
      <trkpt lat="44.7043724544346332550048828125" lon="6.75473906099796295166015625">
        <ele>1625.800048828125</ele>
        <time>2026-09-03T06:49:20.000Z</time>
        <extensions>
          <ns3:TrackPointExtension>
            <ns3:hr>143</ns3:hr>
            <ns3:cad>54</ns3:cad>
          </ns3:TrackPointExtension>
        </extensions>
      </trkpt>
      <trkpt lat="44.70438234508037567138671875" lon="6.754732690751552581787109375">
        <ele>1626</ele>
        <time>2026-09-03T06:49:21.000Z</time>
        <extensions>
          <ns3:TrackPointExtension>
            <ns3:hr>143</ns3:hr>
            <ns3:cad>54</ns3:cad>
          </ns3:TrackPointExtension>
        </extensions>
      </trkpt>
      <trkpt lat="44.7043905593454837799072265625" lon="6.75472908653318881988525390625">
        <ele>1626.199951171875</ele>
        <time>2026-09-03T06:49:22.000Z</time>
        <extensions>
          <ns3:TrackPointExtension>
            <ns3:hr>143</ns3:hr>
            <ns3:cad>53</ns3:cad>
          </ns3:TrackPointExtension>
        </extensions>
      </trkpt>
      <trkpt lat="44.70439818687736988067626953125" lon="6.754725985229015350341796875">
        <ele>1626.199951171875</ele>
        <time>2026-09-03T06:49:23.000Z</time>
        <extensions>
          <ns3:TrackPointExtension>
            <ns3:hr>143</ns3:hr>
            <ns3:cad>53</ns3:cad>
          </ns3:TrackPointExtension>
        </extensions>
      </trkpt>
      <trkpt lat="44.70440757460892200469970703125" lon="6.754723303020000457763671875">
        <ele>1626.4000244140625</ele>
        <time>2026-09-03T06:49:24.000Z</time>
        <extensions>
          <ns3:TrackPointExtension>
            <ns3:hr>143</ns3:hr>
            <ns3:cad>53</ns3:cad>
          </ns3:TrackPointExtension>
        </extensions>
      </trkpt>
      <trkpt lat="44.70441981218755245208740234375" lon="6.754719950258731842041015625">
        <ele>1626.5999755859375</ele>
        <time>2026-09-03T06:49:25.000Z</time>
        <extensions>
          <ns3:TrackPointExtension>
            <ns3:hr>143</ns3:hr>
            <ns3:cad>54</ns3:cad>
          </ns3:TrackPointExtension>
        </extensions>
      </trkpt>
      <trkpt lat="44.70443372614681720733642578125" lon="6.75471768714487552642822265625">
        <ele>1626.5999755859375</ele>
        <time>2026-09-03T06:49:26.000Z</time>
        <extensions>
          <ns3:TrackPointExtension>
            <ns3:hr>143</ns3:hr>
            <ns3:cad>54</ns3:cad>
          </ns3:TrackPointExtension>
        </extensions>
      </trkpt>
      <trkpt lat="44.70444596372544765472412109375" lon="6.754717938601970672607421875">
        <ele>1626.800048828125</ele>
        <time>2026-09-03T06:49:27.000Z</time>
        <extensions>
          <ns3:TrackPointExtension>
            <ns3:hr>142</ns3:hr>
            <ns3:cad>54</ns3:cad>
          </ns3:TrackPointExtension>
        </extensions>
      </trkpt>
      <trkpt lat="44.70445811748504638671875" lon="6.75471961498260498046875">
        <ele>1627</ele>
        <time>2026-09-03T06:49:28.000Z</time>
        <extensions>
          <ns3:TrackPointExtension>
            <ns3:hr>142</ns3:hr>
            <ns3:cad>54</ns3:cad>
          </ns3:TrackPointExtension>
        </extensions>
      </trkpt>
      <trkpt lat="44.70446775667369365692138671875" lon="6.75472305156290531158447265625">
        <ele>1627</ele>
        <time>2026-09-03T06:49:29.000Z</time>
        <extensions>
          <ns3:TrackPointExtension>
            <ns3:hr>141</ns3:hr>
            <ns3:cad>54</ns3:cad>
          </ns3:TrackPointExtension>
        </extensions>
      </trkpt>
      <trkpt lat="44.7044794075191020965576171875" lon="6.7547238059341907501220703125">
        <ele>1627.199951171875</ele>
        <time>2026-09-03T06:49:30.000Z</time>
        <extensions>
          <ns3:TrackPointExtension>
            <ns3:hr>141</ns3:hr>
            <ns3:cad>54</ns3:cad>
          </ns3:TrackPointExtension>
        </extensions>
      </trkpt>
      <trkpt lat="44.7044898010790348052978515625" lon="6.754725985229015350341796875">
        <ele>1627.199951171875</ele>
        <time>2026-09-03T06:49:31.000Z</time>
        <extensions>
          <ns3:TrackPointExtension>
            <ns3:hr>141</ns3:hr>
            <ns3:cad>0</ns3:cad>
          </ns3:TrackPointExtension>
        </extensions>
      </trkpt>
      <trkpt lat="44.70450011081993579864501953125" lon="6.75472942180931568145751953125">
        <ele>1627.4000244140625</ele>
        <time>2026-09-03T06:49:32.000Z</time>
        <extensions>
          <ns3:TrackPointExtension>
            <ns3:hr>142</ns3:hr>
            <ns3:cad>0</ns3:cad>
          </ns3:TrackPointExtension>
        </extensions>
      </trkpt>
      <trkpt lat="44.70451184548437595367431640625" lon="6.75473143346607685089111328125">
        <ele>1627.4000244140625</ele>
        <time>2026-09-03T06:49:33.000Z</time>
        <extensions>
          <ns3:TrackPointExtension>
            <ns3:hr>141</ns3:hr>
            <ns3:cad>0</ns3:cad>
          </ns3:TrackPointExtension>
        </extensions>
      </trkpt>
      <trkpt lat="44.7045243345201015472412109375" lon="6.75473176874220371246337890625">
        <ele>1627.5999755859375</ele>
        <time>2026-09-03T06:49:34.000Z</time>
        <extensions>
          <ns3:TrackPointExtension>
            <ns3:hr>141</ns3:hr>
            <ns3:cad>0</ns3:cad>
          </ns3:TrackPointExtension>
        </extensions>
      </trkpt>
      <trkpt lat="44.704535566270351409912109375" lon="6.75473193638026714324951171875">
        <ele>1627.800048828125</ele>
        <time>2026-09-03T06:49:35.000Z</time>
        <extensions>
          <ns3:TrackPointExtension>
            <ns3:hr>141</ns3:hr>
            <ns3:cad>0</ns3:cad>
          </ns3:TrackPointExtension>
        </extensions>
      </trkpt>
      <trkpt lat="44.70454839058220386505126953125" lon="6.7547305114567279815673828125">
        <ele>1627.800048828125</ele>
        <time>2026-09-03T06:49:36.000Z</time>
        <extensions>
          <ns3:TrackPointExtension>
            <ns3:hr>141</ns3:hr>
            <ns3:cad>0</ns3:cad>
          </ns3:TrackPointExtension>
        </extensions>
      </trkpt>
      <trkpt lat="44.704560376703739166259765625" lon="6.75472908653318881988525390625">
        <ele>1627.800048828125</ele>
        <time>2026-09-03T06:49:37.000Z</time>
        <extensions>
          <ns3:TrackPointExtension>
            <ns3:hr>141</ns3:hr>
            <ns3:cad>0</ns3:cad>
          </ns3:TrackPointExtension>
        </extensions>
      </trkpt>
      <trkpt lat="44.7045729495584964752197265625" lon="6.7547305114567279815673828125">
        <ele>1627.800048828125</ele>
        <time>2026-09-03T06:49:38.000Z</time>
        <extensions>
          <ns3:TrackPointExtension>
            <ns3:hr>141</ns3:hr>
            <ns3:cad>0</ns3:cad>
          </ns3:TrackPointExtension>
        </extensions>
      </trkpt>
      <trkpt lat="44.704579152166843414306640625" lon="6.75472053699195384979248046875">
        <ele>1627.800048828125</ele>
        <time>2026-09-03T06:49:39.000Z</time>
        <extensions>
          <ns3:TrackPointExtension>
            <ns3:hr>141</ns3:hr>
            <ns3:cad>0</ns3:cad>
          </ns3:TrackPointExtension>
        </extensions>
      </trkpt>
      <trkpt lat="44.704587198793888092041015625" lon="6.75471500493586063385009765625">
        <ele>1627.800048828125</ele>
        <time>2026-09-03T06:49:40.000Z</time>
        <extensions>
          <ns3:TrackPointExtension>
            <ns3:hr>141</ns3:hr>
            <ns3:cad>0</ns3:cad>
          </ns3:TrackPointExtension>
        </extensions>
      </trkpt>
      <trkpt lat="44.7045937366783618927001953125" lon="6.754709891974925994873046875">
        <ele>1627.800048828125</ele>
        <time>2026-09-03T06:49:41.000Z</time>
        <extensions>
          <ns3:TrackPointExtension>
            <ns3:hr>140</ns3:hr>
            <ns3:cad>64</ns3:cad>
          </ns3:TrackPointExtension>
        </extensions>
      </trkpt>
      <trkpt lat="44.70460320822894573211669921875" lon="6.7547057010233402252197265625">
        <ele>1627.5999755859375</ele>
        <time>2026-09-03T06:49:42.000Z</time>
        <extensions>
          <ns3:TrackPointExtension>
            <ns3:hr>140</ns3:hr>
            <ns3:cad>64</ns3:cad>
          </ns3:TrackPointExtension>
        </extensions>
      </trkpt>
      <trkpt lat="44.7046131826937198638916015625" lon="6.75470310263335704803466796875">
        <ele>1627.5999755859375</ele>
        <time>2026-09-03T06:49:43.000Z</time>
        <extensions>
          <ns3:TrackPointExtension>
            <ns3:hr>140</ns3:hr>
            <ns3:cad>64</ns3:cad>
          </ns3:TrackPointExtension>
        </extensions>
      </trkpt>
      <trkpt lat="44.704619385302066802978515625" lon="6.75470109097659587860107421875">
        <ele>1627.199951171875</ele>
        <time>2026-09-03T06:49:44.000Z</time>
        <extensions>
          <ns3:TrackPointExtension>
            <ns3:hr>141</ns3:hr>
            <ns3:cad>64</ns3:cad>
          </ns3:TrackPointExtension>
        </extensions>
      </trkpt>
      <trkpt lat="44.70463254489004611968994140625" lon="6.75469622947275638580322265625">
        <ele>1627</ele>
        <time>2026-09-03T06:49:45.000Z</time>
        <extensions>
          <ns3:TrackPointExtension>
            <ns3:hr>140</ns3:hr>
            <ns3:cad>64</ns3:cad>
          </ns3:TrackPointExtension>
        </extensions>
      </trkpt>
      <trkpt lat="44.70464679412543773651123046875" lon="6.7546941339969635009765625">
        <ele>1626.800048828125</ele>
        <time>2026-09-03T06:49:46.000Z</time>
        <extensions>
          <ns3:TrackPointExtension>
            <ns3:hr>140</ns3:hr>
            <ns3:cad>64</ns3:cad>
          </ns3:TrackPointExtension>
        </extensions>
      </trkpt>
      <trkpt lat="44.7046614624559879302978515625" lon="6.75469388253986835479736328125">
        <ele>1626.5999755859375</ele>
        <time>2026-09-03T06:49:47.000Z</time>
        <extensions>
          <ns3:TrackPointExtension>
            <ns3:hr>140</ns3:hr>
            <ns3:cad>64</ns3:cad>
          </ns3:TrackPointExtension>
        </extensions>
      </trkpt>
      <trkpt lat="44.704675041139125823974609375" lon="6.75469555892050266265869140625">
        <ele>1626.4000244140625</ele>
        <time>2026-09-03T06:49:48.000Z</time>
        <extensions>
          <ns3:TrackPointExtension>
            <ns3:hr>140</ns3:hr>
            <ns3:cad>76</ns3:cad>
          </ns3:TrackPointExtension>
        </extensions>
      </trkpt>
      <trkpt lat="44.70468618907034397125244140625" lon="6.75469748675823211669921875">
        <ele>1626.4000244140625</ele>
        <time>2026-09-03T06:49:49.000Z</time>
        <extensions>
          <ns3:TrackPointExtension>
            <ns3:hr>140</ns3:hr>
            <ns3:cad>76</ns3:cad>
          </ns3:TrackPointExtension>
        </extensions>
      </trkpt>
      <trkpt lat="44.70469138585031032562255859375" lon="6.7547016777098178863525390625">
        <ele>1626.199951171875</ele>
        <time>2026-09-03T06:49:50.000Z</time>
        <extensions>
          <ns3:TrackPointExtension>
            <ns3:hr>140</ns3:hr>
            <ns3:cad>57</ns3:cad>
          </ns3:TrackPointExtension>
        </extensions>
      </trkpt>
      <trkpt lat="44.704696498811244964599609375" lon="6.7547090537846088409423828125">
        <ele>1626.4000244140625</ele>
        <time>2026-09-03T06:49:51.000Z</time>
        <extensions>
          <ns3:TrackPointExtension>
            <ns3:hr>139</ns3:hr>
            <ns3:cad>57</ns3:cad>
          </ns3:TrackPointExtension>
        </extensions>
      </trkpt>
      <trkpt lat="44.70470043830573558807373046875" lon="6.75471265800297260284423828125">
        <ele>1626.5999755859375</ele>
        <time>2026-09-03T06:49:52.000Z</time>
        <extensions>
          <ns3:TrackPointExtension>
            <ns3:hr>139</ns3:hr>
            <ns3:cad>57</ns3:cad>
          </ns3:TrackPointExtension>
        </extensions>
      </trkpt>
      <trkpt lat="44.70470563508570194244384765625" lon="6.754715926945209503173828125">
        <ele>1626.800048828125</ele>
        <time>2026-09-03T06:49:53.000Z</time>
        <extensions>
          <ns3:TrackPointExtension>
            <ns3:hr>138</ns3:hr>
            <ns3:cad>57</ns3:cad>
          </ns3:TrackPointExtension>
        </extensions>
      </trkpt>
      <trkpt lat="44.7047102451324462890625" lon="6.75471886061131954193115234375">
        <ele>1627.199951171875</ele>
        <time>2026-09-03T06:49:54.000Z</time>
        <extensions>
          <ns3:TrackPointExtension>
            <ns3:hr>138</ns3:hr>
            <ns3:cad>0</ns3:cad>
          </ns3:TrackPointExtension>
        </extensions>
      </trkpt>
      <trkpt lat="44.704721309244632720947265625" lon="6.754723303020000457763671875">
        <ele>1627.4000244140625</ele>
        <time>2026-09-03T06:49:55.000Z</time>
        <extensions>
          <ns3:TrackPointExtension>
            <ns3:hr>137</ns3:hr>
            <ns3:cad>0</ns3:cad>
          </ns3:TrackPointExtension>
        </extensions>
      </trkpt>
      <trkpt lat="44.704734049737453460693359375" lon="6.75472757779061794281005859375">
        <ele>1627.5999755859375</ele>
        <time>2026-09-03T06:49:56.000Z</time>
        <extensions>
          <ns3:TrackPointExtension>
            <ns3:hr>137</ns3:hr>
            <ns3:cad>0</ns3:cad>
          </ns3:TrackPointExtension>
        </extensions>
      </trkpt>
      <trkpt lat="44.704746790230274200439453125" lon="6.75473109818994998931884765625">
        <ele>1627.5999755859375</ele>
        <time>2026-09-03T06:49:57.000Z</time>
        <extensions>
          <ns3:TrackPointExtension>
            <ns3:hr>136</ns3:hr>
            <ns3:cad>0</ns3:cad>
          </ns3:TrackPointExtension>
        </extensions>
      </trkpt>
      <trkpt lat="44.70475592650473117828369140625" lon="6.75473411567509174346923828125">
        <ele>1627.800048828125</ele>
        <time>2026-09-03T06:49:58.000Z</time>
        <extensions>
          <ns3:TrackPointExtension>
            <ns3:hr>136</ns3:hr>
            <ns3:cad>0</ns3:cad>
          </ns3:TrackPointExtension>
        </extensions>
      </trkpt>
      <trkpt lat="44.70476782880723476409912109375" lon="6.75473528914153575897216796875">
        <ele>1628</ele>
        <time>2026-09-03T06:49:59.000Z</time>
        <extensions>
          <ns3:TrackPointExtension>
            <ns3:hr>135</ns3:hr>
            <ns3:cad>0</ns3:cad>
          </ns3:TrackPointExtension>
        </extensions>
      </trkpt>
      <trkpt lat="44.70478006638586521148681640625" lon="6.7547368817031383514404296875">
        <ele>1628.199951171875</ele>
        <time>2026-09-03T06:50:00.000Z</time>
        <extensions>
          <ns3:TrackPointExtension>
            <ns3:hr>135</ns3:hr>
            <ns3:cad>56</ns3:cad>
          </ns3:TrackPointExtension>
        </extensions>
      </trkpt>
      <trkpt lat="44.704791046679019927978515625" lon="6.754738055169582366943359375">
        <ele>1628.4000244140625</ele>
        <time>2026-09-03T06:50:01.000Z</time>
        <extensions>
          <ns3:TrackPointExtension>
            <ns3:hr>134</ns3:hr>
            <ns3:cad>56</ns3:cad>
          </ns3:TrackPointExtension>
        </extensions>
      </trkpt>
      <trkpt lat="44.704798422753810882568359375" lon="6.7547362111508846282958984375">
        <ele>1628.5999755859375</ele>
        <time>2026-09-03T06:50:02.000Z</time>
        <extensions>
          <ns3:TrackPointExtension>
            <ns3:hr>134</ns3:hr>
            <ns3:cad>56</ns3:cad>
          </ns3:TrackPointExtension>
        </extensions>
      </trkpt>
      <trkpt lat="44.704809822142124176025390625" lon="6.754735372960567474365234375">
        <ele>1628.800048828125</ele>
        <time>2026-09-03T06:50:03.000Z</time>
        <extensions>
          <ns3:TrackPointExtension>
            <ns3:hr>134</ns3:hr>
            <ns3:cad>56</ns3:cad>
          </ns3:TrackPointExtension>
        </extensions>
      </trkpt>
      <trkpt lat="44.7048190422356128692626953125" lon="6.75473428331315517425537109375">
        <ele>1629</ele>
        <time>2026-09-03T06:50:04.000Z</time>
        <extensions>
          <ns3:TrackPointExtension>
            <ns3:hr>134</ns3:hr>
            <ns3:cad>56</ns3:cad>
          </ns3:TrackPointExtension>
        </extensions>
      </trkpt>
      <trkpt lat="44.7048314474523067474365234375" lon="6.7547343671321868896484375">
        <ele>1629.199951171875</ele>
        <time>2026-09-03T06:50:05.000Z</time>
        <extensions>
          <ns3:TrackPointExtension>
            <ns3:hr>134</ns3:hr>
            <ns3:cad>56</ns3:cad>
          </ns3:TrackPointExtension>
        </extensions>
      </trkpt>
      <trkpt lat="44.70484192483127117156982421875" lon="6.75473478622734546661376953125">
        <ele>1629.4000244140625</ele>
        <time>2026-09-03T06:50:06.000Z</time>
        <extensions>
          <ns3:TrackPointExtension>
            <ns3:hr>135</ns3:hr>
            <ns3:cad>56</ns3:cad>
          </ns3:TrackPointExtension>
        </extensions>
      </trkpt>
      <trkpt lat="44.704853408038616180419921875" lon="6.7547328583896160125732421875">
        <ele>1629.5999755859375</ele>
        <time>2026-09-03T06:50:07.000Z</time>
        <extensions>
          <ns3:TrackPointExtension>
            <ns3:hr>135</ns3:hr>
            <ns3:cad>56</ns3:cad>
          </ns3:TrackPointExtension>
        </extensions>
      </trkpt>
      <trkpt lat="44.70486380159854888916015625" lon="6.754730679094791412353515625">
        <ele>1629.5999755859375</ele>
        <time>2026-09-03T06:50:08.000Z</time>
        <extensions>
          <ns3:TrackPointExtension>
            <ns3:hr>134</ns3:hr>
            <ns3:cad>56</ns3:cad>
          </ns3:TrackPointExtension>
        </extensions>
      </trkpt>
      <trkpt lat="44.7048767097294330596923828125" lon="6.75472875125706195831298828125">
        <ele>1629.800048828125</ele>
        <time>2026-09-03T06:50:09.000Z</time>
        <extensions>
          <ns3:TrackPointExtension>
            <ns3:hr>134</ns3:hr>
            <ns3:cad>52</ns3:cad>
          </ns3:TrackPointExtension>
        </extensions>
      </trkpt>
      <trkpt lat="44.7048871032893657684326171875" lon="6.7547281645238399505615234375">
        <ele>1630</ele>
        <time>2026-09-03T06:50:10.000Z</time>
        <extensions>
          <ns3:TrackPointExtension>
            <ns3:hr>134</ns3:hr>
            <ns3:cad>52</ns3:cad>
          </ns3:TrackPointExtension>
        </extensions>
      </trkpt>
      <trkpt lat="44.70489598810672760009765625" lon="6.75472891889512538909912109375">
        <ele>1630</ele>
        <time>2026-09-03T06:50:11.000Z</time>
        <extensions>
          <ns3:TrackPointExtension>
            <ns3:hr>133</ns3:hr>
            <ns3:cad>52</ns3:cad>
          </ns3:TrackPointExtension>
        </extensions>
      </trkpt>
      <trkpt lat="44.70490328036248683929443359375" lon="6.7547301761806011199951171875">
        <ele>1630.199951171875</ele>
        <time>2026-09-03T06:50:12.000Z</time>
        <extensions>
          <ns3:TrackPointExtension>
            <ns3:hr>134</ns3:hr>
            <ns3:cad>52</ns3:cad>
          </ns3:TrackPointExtension>
        </extensions>
      </trkpt>
      <trkpt lat="44.70490872859954833984375" lon="6.75473143346607685089111328125">
        <ele>1630.4000244140625</ele>
        <time>2026-09-03T06:50:13.000Z</time>
        <extensions>
          <ns3:TrackPointExtension>
            <ns3:hr>134</ns3:hr>
            <ns3:cad>0</ns3:cad>
          </ns3:TrackPointExtension>
        </extensions>
      </trkpt>
      <trkpt lat="44.7049119137227535247802734375" lon="6.75473076291382312774658203125">
        <ele>1630.5999755859375</ele>
        <time>2026-09-03T06:50:14.000Z</time>
        <extensions>
          <ns3:TrackPointExtension>
            <ns3:hr>134</ns3:hr>
            <ns3:cad>0</ns3:cad>
          </ns3:TrackPointExtension>
        </extensions>
      </trkpt>
      <trkpt lat="44.70491400919854640960693359375" lon="6.7547298409044742584228515625">
        <ele>1630.800048828125</ele>
        <time>2026-09-03T06:50:15.000Z</time>
        <extensions>
          <ns3:TrackPointExtension>
            <ns3:hr>134</ns3:hr>
            <ns3:cad>0</ns3:cad>
          </ns3:TrackPointExtension>
        </extensions>
      </trkpt>
      <trkpt lat="44.70491702668368816375732421875" lon="6.754728667438030242919921875">
        <ele>1631</ele>
        <time>2026-09-03T06:50:16.000Z</time>
        <extensions>
          <ns3:TrackPointExtension>
            <ns3:hr>134</ns3:hr>
            <ns3:cad>0</ns3:cad>
          </ns3:TrackPointExtension>
        </extensions>
      </trkpt>
      <trkpt lat="44.70492423512041568756103515625" lon="6.75472833216190338134765625">
        <ele>1631.4000244140625</ele>
        <time>2026-09-03T06:50:17.000Z</time>
        <extensions>
          <ns3:TrackPointExtension>
            <ns3:hr>134</ns3:hr>
            <ns3:cad>0</ns3:cad>
          </ns3:TrackPointExtension>
        </extensions>
      </trkpt>
      <trkpt lat="44.70492809079587459564208984375" lon="6.754724644124507904052734375">
        <ele>1631.5999755859375</ele>
        <time>2026-09-03T06:50:18.000Z</time>
        <extensions>
          <ns3:TrackPointExtension>
            <ns3:hr>134</ns3:hr>
            <ns3:cad>0</ns3:cad>
          </ns3:TrackPointExtension>
        </extensions>
      </trkpt>
      <trkpt lat="44.70493563450872898101806640625" lon="6.7547217942774295806884765625">
        <ele>1631.800048828125</ele>
        <time>2026-09-03T06:50:19.000Z</time>
        <extensions>
          <ns3:TrackPointExtension>
            <ns3:hr>134</ns3:hr>
            <ns3:cad>0</ns3:cad>
          </ns3:TrackPointExtension>
        </extensions>
      </trkpt>
      <trkpt lat="44.70494200475513935089111328125" lon="6.7547182738780975341796875">
        <ele>1631.800048828125</ele>
        <time>2026-09-03T06:50:20.000Z</time>
        <extensions>
          <ns3:TrackPointExtension>
            <ns3:hr>134</ns3:hr>
            <ns3:cad>54</ns3:cad>
          </ns3:TrackPointExtension>
        </extensions>
      </trkpt>
      <trkpt lat="44.70495072193443775177001953125" lon="6.75471316091716289520263671875">
        <ele>1632</ele>
        <time>2026-09-03T06:50:21.000Z</time>
        <extensions>
          <ns3:TrackPointExtension>
            <ns3:hr>134</ns3:hr>
            <ns3:cad>54</ns3:cad>
          </ns3:TrackPointExtension>
        </extensions>
      </trkpt>
      <trkpt lat="44.70495927147567272186279296875" lon="6.754711568355560302734375">
        <ele>1632.199951171875</ele>
        <time>2026-09-03T06:50:22.000Z</time>
        <extensions>
          <ns3:TrackPointExtension>
            <ns3:hr>134</ns3:hr>
            <ns3:cad>54</ns3:cad>
          </ns3:TrackPointExtension>
        </extensions>
      </trkpt>
      <trkpt lat="44.70497318543493747711181640625" lon="6.75470796413719654083251953125">
        <ele>1632.199951171875</ele>
        <time>2026-09-03T06:50:23.000Z</time>
        <extensions>
          <ns3:TrackPointExtension>
            <ns3:hr>134</ns3:hr>
            <ns3:cad>54</ns3:cad>
          </ns3:TrackPointExtension>
        </extensions>
      </trkpt>
      <trkpt lat="44.704985506832599639892578125" lon="6.75470645539462566375732421875">
        <ele>1632.4000244140625</ele>
        <time>2026-09-03T06:50:24.000Z</time>
        <extensions>
          <ns3:TrackPointExtension>
            <ns3:hr>134</ns3:hr>
            <ns3:cad>54</ns3:cad>
          </ns3:TrackPointExtension>
        </extensions>
      </trkpt>
      <trkpt lat="44.70500017516314983367919921875" lon="6.754703186452388763427734375">
        <ele>1632.4000244140625</ele>
        <time>2026-09-03T06:50:25.000Z</time>
        <extensions>
          <ns3:TrackPointExtension>
            <ns3:hr>133</ns3:hr>
            <ns3:cad>0</ns3:cad>
          </ns3:TrackPointExtension>
        </extensions>
      </trkpt>
      <trkpt lat="44.70501392148435115814208984375" lon="6.75470192916691303253173828125">
        <ele>1632.5999755859375</ele>
        <time>2026-09-03T06:50:26.000Z</time>
        <extensions>
          <ns3:TrackPointExtension>
            <ns3:hr>134</ns3:hr>
            <ns3:cad>0</ns3:cad>
          </ns3:TrackPointExtension>
        </extensions>
      </trkpt>
      <trkpt lat="44.705025739967823028564453125" lon="6.75470151007175445556640625">
        <ele>1632.800048828125</ele>
        <time>2026-09-03T06:50:27.000Z</time>
        <extensions>
          <ns3:TrackPointExtension>
            <ns3:hr>134</ns3:hr>
            <ns3:cad>0</ns3:cad>
          </ns3:TrackPointExtension>
        </extensions>
      </trkpt>
      <trkpt lat="44.70503437332808971405029296875" lon="6.75470595248043537139892578125">
        <ele>1633</ele>
        <time>2026-09-03T06:50:28.000Z</time>
        <extensions>
          <ns3:TrackPointExtension>
            <ns3:hr>134</ns3:hr>
            <ns3:cad>0</ns3:cad>
          </ns3:TrackPointExtension>
        </extensions>
      </trkpt>
      <trkpt lat="44.705040156841278076171875" lon="6.75471047870814800262451171875">
        <ele>1633.199951171875</ele>
        <time>2026-09-03T06:50:29.000Z</time>
        <extensions>
          <ns3:TrackPointExtension>
            <ns3:hr>134</ns3:hr>
            <ns3:cad>0</ns3:cad>
          </ns3:TrackPointExtension>
        </extensions>
      </trkpt>
      <trkpt lat="44.70504996366798877716064453125" lon="6.75471081398427486419677734375">
        <ele>1633.4000244140625</ele>
        <time>2026-09-03T06:50:30.000Z</time>
        <extensions>
          <ns3:TrackPointExtension>
            <ns3:hr>134</ns3:hr>
            <ns3:cad>0</ns3:cad>
          </ns3:TrackPointExtension>
        </extensions>
      </trkpt>
      <trkpt lat="44.7050564177334308624267578125" lon="6.7547134123742580413818359375">
        <ele>1633.5999755859375</ele>
        <time>2026-09-03T06:50:31.000Z</time>
        <extensions>
          <ns3:TrackPointExtension>
            <ns3:hr>134</ns3:hr>
            <ns3:cad>0</ns3:cad>
          </ns3:TrackPointExtension>
        </extensions>
      </trkpt>
      <trkpt lat="44.7050621174275875091552734375" lon="6.75471433438360691070556640625">
        <ele>1634</ele>
        <time>2026-09-03T06:50:32.000Z</time>
        <extensions>
          <ns3:TrackPointExtension>
            <ns3:hr>135</ns3:hr>
            <ns3:cad>0</ns3:cad>
          </ns3:TrackPointExtension>
        </extensions>
      </trkpt>
      <trkpt lat="44.70507309772074222564697265625" lon="6.75470746122300624847412109375">
        <ele>1634.199951171875</ele>
        <time>2026-09-03T06:50:33.000Z</time>
        <extensions>
          <ns3:TrackPointExtension>
            <ns3:hr>135</ns3:hr>
            <ns3:cad>0</ns3:cad>
          </ns3:TrackPointExtension>
        </extensions>
      </trkpt>
      <trkpt lat="44.70508047379553318023681640625" lon="6.75470980815589427947998046875">
        <ele>1634.4000244140625</ele>
        <time>2026-09-03T06:50:34.000Z</time>
        <extensions>
          <ns3:TrackPointExtension>
            <ns3:hr>135</ns3:hr>
            <ns3:cad>0</ns3:cad>
          </ns3:TrackPointExtension>
        </extensions>
      </trkpt>
      <trkpt lat="44.70508935861289501190185546875" lon="6.75470821559429168701171875">
        <ele>1634.4000244140625</ele>
        <time>2026-09-03T06:50:35.000Z</time>
        <extensions>
          <ns3:TrackPointExtension>
            <ns3:hr>136</ns3:hr>
            <ns3:cad>0</ns3:cad>
          </ns3:TrackPointExtension>
        </extensions>
      </trkpt>
      <trkpt lat="44.7050946392118930816650390625" lon="6.75470955669879913330078125">
        <ele>1634.5999755859375</ele>
        <time>2026-09-03T06:50:36.000Z</time>
        <extensions>
          <ns3:TrackPointExtension>
            <ns3:hr>136</ns3:hr>
            <ns3:cad>0</ns3:cad>
          </ns3:TrackPointExtension>
        </extensions>
      </trkpt>
      <trkpt lat="44.7051100619137287139892578125" lon="6.75471634604036808013916015625">
        <ele>1634.800048828125</ele>
        <time>2026-09-03T06:50:37.000Z</time>
        <extensions>
          <ns3:TrackPointExtension>
            <ns3:hr>136</ns3:hr>
            <ns3:cad>0</ns3:cad>
          </ns3:TrackPointExtension>
        </extensions>
      </trkpt>
      <trkpt lat="44.70511869527399539947509765625" lon="6.7547234706580638885498046875">
        <ele>1635</ele>
        <time>2026-09-03T06:50:38.000Z</time>
        <extensions>
          <ns3:TrackPointExtension>
            <ns3:hr>137</ns3:hr>
            <ns3:cad>0</ns3:cad>
          </ns3:TrackPointExtension>
        </extensions>
      </trkpt>
      <trkpt lat="44.70512799918651580810546875" lon="6.7547365464270114898681640625">
        <ele>1635.199951171875</ele>
        <time>2026-09-03T06:50:39.000Z</time>
        <extensions>
          <ns3:TrackPointExtension>
            <ns3:hr>137</ns3:hr>
            <ns3:cad>0</ns3:cad>
          </ns3:TrackPointExtension>
        </extensions>
      </trkpt>
      <trkpt lat="44.70513336360454559326171875" lon="6.7547479458153247833251953125">
        <ele>1635.4000244140625</ele>
        <time>2026-09-03T06:50:40.000Z</time>
        <extensions>
          <ns3:TrackPointExtension>
            <ns3:hr>137</ns3:hr>
            <ns3:cad>0</ns3:cad>
          </ns3:TrackPointExtension>
        </extensions>
      </trkpt>
      <trkpt lat="44.7051378898322582244873046875" lon="6.7547643743455410003662109375">
        <ele>1635.5999755859375</ele>
        <time>2026-09-03T06:50:41.000Z</time>
        <extensions>
          <ns3:TrackPointExtension>
            <ns3:hr>138</ns3:hr>
            <ns3:cad>0</ns3:cad>
          </ns3:TrackPointExtension>
        </extensions>
      </trkpt>
      <trkpt lat="44.705142080783843994140625" lon="6.7547740973532199859619140625">
        <ele>1635.800048828125</ele>
        <time>2026-09-03T06:50:42.000Z</time>
        <extensions>
          <ns3:TrackPointExtension>
            <ns3:hr>138</ns3:hr>
            <ns3:cad>0</ns3:cad>
          </ns3:TrackPointExtension>
        </extensions>
      </trkpt>
      <trkpt lat="44.70514543354511260986328125" lon="6.7547791264951229095458984375">
        <ele>1636</ele>
        <time>2026-09-03T06:50:43.000Z</time>
        <extensions>
          <ns3:TrackPointExtension>
            <ns3:hr>139</ns3:hr>
            <ns3:cad>0</ns3:cad>
          </ns3:TrackPointExtension>
        </extensions>
      </trkpt>
      <trkpt lat="44.7051502950489521026611328125" lon="6.75478574819862842559814453125">
        <ele>1636.199951171875</ele>
        <time>2026-09-03T06:50:44.000Z</time>
        <extensions>
          <ns3:TrackPointExtension>
            <ns3:hr>139</ns3:hr>
            <ns3:cad>0</ns3:cad>
          </ns3:TrackPointExtension>
        </extensions>
      </trkpt>
      <trkpt lat="44.70515708439052104949951171875" lon="6.754789017140865325927734375">
        <ele>1636.4000244140625</ele>
        <time>2026-09-03T06:50:45.000Z</time>
        <extensions>
          <ns3:TrackPointExtension>
            <ns3:hr>139</ns3:hr>
            <ns3:cad>0</ns3:cad>
          </ns3:TrackPointExtension>
        </extensions>
      </trkpt>
      <trkpt lat="44.7051623649895191192626953125" lon="6.7547992430627346038818359375">
        <ele>1636.5999755859375</ele>
        <time>2026-09-03T06:50:46.000Z</time>
        <extensions>
          <ns3:TrackPointExtension>
            <ns3:hr>139</ns3:hr>
            <ns3:cad>0</ns3:cad>
          </ns3:TrackPointExtension>
        </extensions>
      </trkpt>
      <trkpt lat="44.70517116598784923553466796875" lon="6.7548062838613986968994140625">
        <ele>1636.800048828125</ele>
        <time>2026-09-03T06:50:47.000Z</time>
        <extensions>
          <ns3:TrackPointExtension>
            <ns3:hr>138</ns3:hr>
            <ns3:cad>0</ns3:cad>
          </ns3:TrackPointExtension>
        </extensions>
      </trkpt>
      <trkpt lat="44.705179966986179351806640625" lon="6.75481818616390228271484375">
        <ele>1637</ele>
        <time>2026-09-03T06:50:48.000Z</time>
        <extensions>
          <ns3:TrackPointExtension>
            <ns3:hr>138</ns3:hr>
            <ns3:cad>0</ns3:cad>
          </ns3:TrackPointExtension>
        </extensions>
      </trkpt>
      <trkpt lat="44.70518675632774829864501953125" lon="6.754829250276088714599609375">
        <ele>1637.199951171875</ele>
        <time>2026-09-03T06:50:49.000Z</time>
        <extensions>
          <ns3:TrackPointExtension>
            <ns3:hr>138</ns3:hr>
            <ns3:cad>0</ns3:cad>
          </ns3:TrackPointExtension>
        </extensions>
      </trkpt>
      <trkpt lat="44.7051918692886829376220703125" lon="6.75483838655054569244384765625">
        <ele>1637.4000244140625</ele>
        <time>2026-09-03T06:50:50.000Z</time>
        <extensions>
          <ns3:TrackPointExtension>
            <ns3:hr>138</ns3:hr>
            <ns3:cad>0</ns3:cad>
          </ns3:TrackPointExtension>
        </extensions>
      </trkpt>
      <trkpt lat="44.70519748516380786895751953125" lon="6.75484475679695606231689453125">
        <ele>1637.5999755859375</ele>
        <time>2026-09-03T06:50:51.000Z</time>
        <extensions>
          <ns3:TrackPointExtension>
            <ns3:hr>138</ns3:hr>
            <ns3:cad>0</ns3:cad>
          </ns3:TrackPointExtension>
        </extensions>
      </trkpt>
      <trkpt lat="44.7052049450576305389404296875" lon="6.75485841929912567138671875">
        <ele>1637.800048828125</ele>
        <time>2026-09-03T06:50:52.000Z</time>
        <extensions>
          <ns3:TrackPointExtension>
            <ns3:hr>138</ns3:hr>
            <ns3:cad>0</ns3:cad>
          </ns3:TrackPointExtension>
        </extensions>
      </trkpt>
      <trkpt lat="44.70520838163793087005615234375" lon="6.75486252643167972564697265625">
        <ele>1638</ele>
        <time>2026-09-03T06:50:53.000Z</time>
        <extensions>
          <ns3:TrackPointExtension>
            <ns3:hr>138</ns3:hr>
            <ns3:cad>0</ns3:cad>
          </ns3:TrackPointExtension>
        </extensions>
      </trkpt>
      <trkpt lat="44.705212824046611785888671875" lon="6.75486420281231403350830078125">
        <ele>1638.199951171875</ele>
        <time>2026-09-03T06:50:54.000Z</time>
        <extensions>
          <ns3:TrackPointExtension>
            <ns3:hr>138</ns3:hr>
            <ns3:cad>0</ns3:cad>
          </ns3:TrackPointExtension>
        </extensions>
      </trkpt>
      <trkpt lat="44.7052143327891826629638671875" lon="6.75487208180129528045654296875">
        <ele>1638.4000244140625</ele>
        <time>2026-09-03T06:50:55.000Z</time>
        <extensions>
          <ns3:TrackPointExtension>
            <ns3:hr>139</ns3:hr>
            <ns3:cad>0</ns3:cad>
          </ns3:TrackPointExtension>
        </extensions>
      </trkpt>
      <trkpt lat="44.705219529569149017333984375" lon="6.75488130189478397369384765625">
        <ele>1638.5999755859375</ele>
        <time>2026-09-03T06:50:56.000Z</time>
        <extensions>
          <ns3:TrackPointExtension>
            <ns3:hr>139</ns3:hr>
            <ns3:cad>0</ns3:cad>
          </ns3:TrackPointExtension>
        </extensions>
      </trkpt>
      <trkpt lat="44.7052217088639736175537109375" lon="6.7548877559602260589599609375">
        <ele>1638.800048828125</ele>
        <time>2026-09-03T06:50:57.000Z</time>
        <extensions>
          <ns3:TrackPointExtension>
            <ns3:hr>139</ns3:hr>
            <ns3:cad>0</ns3:cad>
          </ns3:TrackPointExtension>
        </extensions>
      </trkpt>
      <trkpt lat="44.70522816292941570281982421875" lon="6.75489940680563449859619140625">
        <ele>1639</ele>
        <time>2026-09-03T06:50:58.000Z</time>
        <extensions>
          <ns3:TrackPointExtension>
            <ns3:hr>139</ns3:hr>
            <ns3:cad>0</ns3:cad>
          </ns3:TrackPointExtension>
        </extensions>
      </trkpt>
      <trkpt lat="44.7052310965955257415771484375" lon="6.754906363785266876220703125">
        <ele>1639.199951171875</ele>
        <time>2026-09-03T06:50:59.000Z</time>
        <extensions>
          <ns3:TrackPointExtension>
            <ns3:hr>139</ns3:hr>
            <ns3:cad>49</ns3:cad>
          </ns3:TrackPointExtension>
        </extensions>
      </trkpt>
      <trkpt lat="44.705240987241268157958984375" lon="6.75491742789745330810546875">
        <ele>1639.4000244140625</ele>
        <time>2026-09-03T06:51:00.000Z</time>
        <extensions>
          <ns3:TrackPointExtension>
            <ns3:hr>139</ns3:hr>
            <ns3:cad>49</ns3:cad>
          </ns3:TrackPointExtension>
        </extensions>
      </trkpt>
      <trkpt lat="44.70524861477315425872802734375" lon="6.75492421723902225494384765625">
        <ele>1639.5999755859375</ele>
        <time>2026-09-03T06:51:01.000Z</time>
        <extensions>
          <ns3:TrackPointExtension>
            <ns3:hr>138</ns3:hr>
            <ns3:cad>0</ns3:cad>
          </ns3:TrackPointExtension>
        </extensions>
      </trkpt>
      <trkpt lat="44.70525205135345458984375" lon="6.754926480352878570556640625">
        <ele>1639.800048828125</ele>
        <time>2026-09-03T06:51:02.000Z</time>
        <extensions>
          <ns3:TrackPointExtension>
            <ns3:hr>139</ns3:hr>
            <ns3:cad>0</ns3:cad>
          </ns3:TrackPointExtension>
        </extensions>
      </trkpt>
      <trkpt lat="44.70525942742824554443359375" lon="6.754936538636684417724609375">
        <ele>1640</ele>
        <time>2026-09-03T06:51:03.000Z</time>
        <extensions>
          <ns3:TrackPointExtension>
            <ns3:hr>139</ns3:hr>
            <ns3:cad>0</ns3:cad>
          </ns3:TrackPointExtension>
        </extensions>
      </trkpt>
      <trkpt lat="44.70526420511305332183837890625" lon="6.75494517199695110321044921875">
        <ele>1640.199951171875</ele>
        <time>2026-09-03T06:51:04.000Z</time>
        <extensions>
          <ns3:TrackPointExtension>
            <ns3:hr>139</ns3:hr>
            <ns3:cad>0</ns3:cad>
          </ns3:TrackPointExtension>
        </extensions>
      </trkpt>
      <trkpt lat="44.7052649594843387603759765625" lon="6.75494886003434658050537109375">
        <ele>1640.4000244140625</ele>
        <time>2026-09-03T06:51:05.000Z</time>
        <extensions>
          <ns3:TrackPointExtension>
            <ns3:hr>140</ns3:hr>
            <ns3:cad>0</ns3:cad>
          </ns3:TrackPointExtension>
        </extensions>
      </trkpt>
      <trkpt lat="44.70526906661689281463623046875" lon="6.7549507878720760345458984375">
        <ele>1640.5999755859375</ele>
        <time>2026-09-03T06:51:06.000Z</time>
        <extensions>
          <ns3:TrackPointExtension>
            <ns3:hr>140</ns3:hr>
            <ns3:cad>0</ns3:cad>
          </ns3:TrackPointExtension>
        </extensions>
      </trkpt>
      <trkpt lat="44.70527141354978084564208984375" lon="6.7549534700810909271240234375">
        <ele>1640.800048828125</ele>
        <time>2026-09-03T06:51:07.000Z</time>
        <extensions>
          <ns3:TrackPointExtension>
            <ns3:hr>140</ns3:hr>
            <ns3:cad>0</ns3:cad>
          </ns3:TrackPointExtension>
        </extensions>
      </trkpt>
      <trkpt lat="44.70527610741555690765380859375" lon="6.754958666861057281494140625">
        <ele>1641</ele>
        <time>2026-09-03T06:51:08.000Z</time>
        <extensions>
          <ns3:TrackPointExtension>
            <ns3:hr>140</ns3:hr>
            <ns3:cad>0</ns3:cad>
          </ns3:TrackPointExtension>
        </extensions>
      </trkpt>
      <trkpt lat="44.70528113655745983123779296875" lon="6.754971407353878021240234375">
        <ele>1641.199951171875</ele>
        <time>2026-09-03T06:51:09.000Z</time>
        <extensions>
          <ns3:TrackPointExtension>
            <ns3:hr>140</ns3:hr>
            <ns3:cad>0</ns3:cad>
          </ns3:TrackPointExtension>
        </extensions>
      </trkpt>
      <trkpt lat="44.70528398640453815460205078125" lon="6.7549776099622249603271484375">
        <ele>1641.4000244140625</ele>
        <time>2026-09-03T06:51:10.000Z</time>
        <extensions>
          <ns3:TrackPointExtension>
            <ns3:hr>141</ns3:hr>
            <ns3:cad>0</ns3:cad>
          </ns3:TrackPointExtension>
        </extensions>
      </trkpt>
      <trkpt lat="44.70528893172740936279296875" lon="6.75499311648309230804443359375">
        <ele>1641.5999755859375</ele>
        <time>2026-09-03T06:51:11.000Z</time>
        <extensions>
          <ns3:TrackPointExtension>
            <ns3:hr>141</ns3:hr>
            <ns3:cad>0</ns3:cad>
          </ns3:TrackPointExtension>
        </extensions>
      </trkpt>
      <trkpt lat="44.70529404468834400177001953125" lon="6.75500501878559589385986328125">
        <ele>1641.5999755859375</ele>
        <time>2026-09-03T06:51:12.000Z</time>
        <extensions>
          <ns3:TrackPointExtension>
            <ns3:hr>141</ns3:hr>
            <ns3:cad>0</ns3:cad>
          </ns3:TrackPointExtension>
        </extensions>
      </trkpt>
      <trkpt lat="44.7052931226789951324462890625" lon="6.7550151608884334564208984375">
        <ele>1641.800048828125</ele>
        <time>2026-09-03T06:51:13.000Z</time>
        <extensions>
          <ns3:TrackPointExtension>
            <ns3:hr>141</ns3:hr>
            <ns3:cad>0</ns3:cad>
          </ns3:TrackPointExtension>
        </extensions>
      </trkpt>
      <trkpt lat="44.7052964754402637481689453125" lon="6.75502345897257328033447265625">
        <ele>1641.800048828125</ele>
        <time>2026-09-03T06:51:14.000Z</time>
        <extensions>
          <ns3:TrackPointExtension>
            <ns3:hr>142</ns3:hr>
            <ns3:cad>0</ns3:cad>
          </ns3:TrackPointExtension>
        </extensions>
      </trkpt>
      <trkpt lat="44.7052989900112152099609375" lon="6.75502069294452667236328125">
        <ele>1642</ele>
        <time>2026-09-03T06:51:15.000Z</time>
        <extensions>
          <ns3:TrackPointExtension>
            <ns3:hr>142</ns3:hr>
            <ns3:cad>0</ns3:cad>
          </ns3:TrackPointExtension>
        </extensions>
      </trkpt>
      <trkpt lat="44.7053018398582935333251953125" lon="6.75503100268542766571044921875">
        <ele>1642.199951171875</ele>
        <time>2026-09-03T06:51:16.000Z</time>
        <extensions>
          <ns3:TrackPointExtension>
            <ns3:hr>142</ns3:hr>
            <ns3:cad>0</ns3:cad>
          </ns3:TrackPointExtension>
        </extensions>
      </trkpt>
      <trkpt lat="44.70530326478183269500732421875" lon="6.7550428211688995361328125">
        <ele>1642.4000244140625</ele>
        <time>2026-09-03T06:51:17.000Z</time>
        <extensions>
          <ns3:TrackPointExtension>
            <ns3:hr>142</ns3:hr>
            <ns3:cad>0</ns3:cad>
          </ns3:TrackPointExtension>
        </extensions>
      </trkpt>
      <trkpt lat="44.7053075395524501800537109375" lon="6.755048520863056182861328125">
        <ele>1642.4000244140625</ele>
        <time>2026-09-03T06:51:18.000Z</time>
        <extensions>
          <ns3:TrackPointExtension>
            <ns3:hr>142</ns3:hr>
            <ns3:cad>0</ns3:cad>
          </ns3:TrackPointExtension>
        </extensions>
      </trkpt>
      <trkpt lat="44.70530695281922817230224609375" lon="6.75505598075687885284423828125">
        <ele>1642.5999755859375</ele>
        <time>2026-09-03T06:51:19.000Z</time>
        <extensions>
          <ns3:TrackPointExtension>
            <ns3:hr>142</ns3:hr>
            <ns3:cad>0</ns3:cad>
          </ns3:TrackPointExtension>
        </extensions>
      </trkpt>
      <trkpt lat="44.70530879683792591094970703125" lon="6.7550620995461940765380859375">
        <ele>1642.800048828125</ele>
        <time>2026-09-03T06:51:20.000Z</time>
        <extensions>
          <ns3:TrackPointExtension>
            <ns3:hr>143</ns3:hr>
            <ns3:cad>0</ns3:cad>
          </ns3:TrackPointExtension>
        </extensions>
      </trkpt>
      <trkpt lat="44.7053105570375919342041015625" lon="6.75507123582065105438232421875">
        <ele>1643</ele>
        <time>2026-09-03T06:51:21.000Z</time>
        <extensions>
          <ns3:TrackPointExtension>
            <ns3:hr>143</ns3:hr>
            <ns3:cad>0</ns3:cad>
          </ns3:TrackPointExtension>
        </extensions>
      </trkpt>
      <trkpt lat="44.70531382597982883453369140625" lon="6.75508062355220317840576171875">
        <ele>1643.199951171875</ele>
        <time>2026-09-03T06:51:22.000Z</time>
        <extensions>
          <ns3:TrackPointExtension>
            <ns3:hr>144</ns3:hr>
            <ns3:cad>0</ns3:cad>
          </ns3:TrackPointExtension>
        </extensions>
      </trkpt>
      <trkpt lat="44.70530896447598934173583984375" lon="6.75508816726505756378173828125">
        <ele>1643.4000244140625</ele>
        <time>2026-09-03T06:51:23.000Z</time>
        <extensions>
          <ns3:TrackPointExtension>
            <ns3:hr>144</ns3:hr>
            <ns3:cad>0</ns3:cad>
          </ns3:TrackPointExtension>
        </extensions>
      </trkpt>
      <trkpt lat="44.70530577935278415679931640625" lon="6.7550989799201488494873046875">
        <ele>1643.5999755859375</ele>
        <time>2026-09-03T06:51:24.000Z</time>
        <extensions>
          <ns3:TrackPointExtension>
            <ns3:hr>145</ns3:hr>
            <ns3:cad>0</ns3:cad>
          </ns3:TrackPointExtension>
        </extensions>
      </trkpt>
      <trkpt lat="44.705303013324737548828125" lon="6.75511482171714305877685546875">
        <ele>1643.800048828125</ele>
        <time>2026-09-03T06:51:25.000Z</time>
        <extensions>
          <ns3:TrackPointExtension>
            <ns3:hr>146</ns3:hr>
            <ns3:cad>0</ns3:cad>
          </ns3:TrackPointExtension>
        </extensions>
      </trkpt>
      <trkpt lat="44.7052971459925174713134765625" lon="6.75512018613517284393310546875">
        <ele>1644</ele>
        <time>2026-09-03T06:51:26.000Z</time>
        <extensions>
          <ns3:TrackPointExtension>
            <ns3:hr>146</ns3:hr>
            <ns3:cad>0</ns3:cad>
          </ns3:TrackPointExtension>
        </extensions>
      </trkpt>
      <trkpt lat="44.70529639162123203277587890625" lon="6.75513057969510555267333984375">
        <ele>1644.199951171875</ele>
        <time>2026-09-03T06:51:27.000Z</time>
        <extensions>
          <ns3:TrackPointExtension>
            <ns3:hr>146</ns3:hr>
            <ns3:cad>0</ns3:cad>
          </ns3:TrackPointExtension>
        </extensions>
      </trkpt>
      <trkpt lat="44.7052880935370922088623046875" lon="6.7551281489431858062744140625">
        <ele>1644.4000244140625</ele>
        <time>2026-09-03T06:51:28.000Z</time>
        <extensions>
          <ns3:TrackPointExtension>
            <ns3:hr>147</ns3:hr>
            <ns3:cad>0</ns3:cad>
          </ns3:TrackPointExtension>
        </extensions>
      </trkpt>
      <trkpt lat="44.7052840702235698699951171875" lon="6.7551341839134693145751953125">
        <ele>1644.5999755859375</ele>
        <time>2026-09-03T06:51:29.000Z</time>
        <extensions>
          <ns3:TrackPointExtension>
            <ns3:hr>147</ns3:hr>
            <ns3:cad>0</ns3:cad>
          </ns3:TrackPointExtension>
        </extensions>
      </trkpt>
      <trkpt lat="44.70528063364326953887939453125" lon="6.7551340162754058837890625">
        <ele>1644.800048828125</ele>
        <time>2026-09-03T06:51:30.000Z</time>
        <extensions>
          <ns3:TrackPointExtension>
            <ns3:hr>147</ns3:hr>
            <ns3:cad>0</ns3:cad>
          </ns3:TrackPointExtension>
        </extensions>
      </trkpt>
      <trkpt lat="44.70526839606463909149169921875" lon="6.75513468682765960693359375">
        <ele>1644.800048828125</ele>
        <time>2026-09-03T06:51:31.000Z</time>
        <extensions>
          <ns3:TrackPointExtension>
            <ns3:hr>147</ns3:hr>
            <ns3:cad>0</ns3:cad>
          </ns3:TrackPointExtension>
        </extensions>
      </trkpt>
      <trkpt lat="44.7052587568759918212890625" lon="6.755136363208293914794921875">
        <ele>1645</ele>
        <time>2026-09-03T06:51:32.000Z</time>
        <extensions>
          <ns3:TrackPointExtension>
            <ns3:hr>147</ns3:hr>
            <ns3:cad>0</ns3:cad>
          </ns3:TrackPointExtension>
        </extensions>
      </trkpt>
      <trkpt lat="44.70526286400854587554931640625" lon="6.75514164380729198455810546875">
        <ele>1645.199951171875</ele>
        <time>2026-09-03T06:51:33.000Z</time>
        <extensions>
          <ns3:TrackPointExtension>
            <ns3:hr>147</ns3:hr>
            <ns3:cad>0</ns3:cad>
          </ns3:TrackPointExtension>
        </extensions>
      </trkpt>
      <trkpt lat="44.70525532029569149017333984375" lon="6.75514482893049716949462890625">
        <ele>1645.4000244140625</ele>
        <time>2026-09-03T06:51:34.000Z</time>
        <extensions>
          <ns3:TrackPointExtension>
            <ns3:hr>147</ns3:hr>
            <ns3:cad>0</ns3:cad>
          </ns3:TrackPointExtension>
        </extensions>
      </trkpt>
      <trkpt lat="44.70525138080120086669921875" lon="6.75514650531113147735595703125">
        <ele>1645.5999755859375</ele>
        <time>2026-09-03T06:51:35.000Z</time>
        <extensions>
          <ns3:TrackPointExtension>
            <ns3:hr>147</ns3:hr>
            <ns3:cad>0</ns3:cad>
          </ns3:TrackPointExtension>
        </extensions>
      </trkpt>
      <trkpt lat="44.705241657793521881103515625" lon="6.75514499656856060028076171875">
        <ele>1645.800048828125</ele>
        <time>2026-09-03T06:51:36.000Z</time>
        <extensions>
          <ns3:TrackPointExtension>
            <ns3:hr>147</ns3:hr>
            <ns3:cad>0</ns3:cad>
          </ns3:TrackPointExtension>
        </extensions>
      </trkpt>
      <trkpt lat="44.70523118041455745697021484375" lon="6.7551447451114654541015625">
        <ele>1646</ele>
        <time>2026-09-03T06:51:37.000Z</time>
        <extensions>
          <ns3:TrackPointExtension>
            <ns3:hr>148</ns3:hr>
            <ns3:cad>0</ns3:cad>
          </ns3:TrackPointExtension>
        </extensions>
      </trkpt>
      <trkpt lat="44.7052284143865108489990234375" lon="6.75513661466538906097412109375">
        <ele>1646.199951171875</ele>
        <time>2026-09-03T06:51:38.000Z</time>
        <extensions>
          <ns3:TrackPointExtension>
            <ns3:hr>148</ns3:hr>
            <ns3:cad>0</ns3:cad>
          </ns3:TrackPointExtension>
        </extensions>
      </trkpt>
      <trkpt lat="44.7052207030355930328369140625" lon="6.75512990914285182952880859375">
        <ele>1646.4000244140625</ele>
        <time>2026-09-03T06:51:39.000Z</time>
        <extensions>
          <ns3:TrackPointExtension>
            <ns3:hr>148</ns3:hr>
            <ns3:cad>0</ns3:cad>
          </ns3:TrackPointExtension>
        </extensions>
      </trkpt>
      <trkpt lat="44.70521274022758007049560546875" lon="6.7551261372864246368408203125">
        <ele>1646.4000244140625</ele>
        <time>2026-09-03T06:51:40.000Z</time>
        <extensions>
          <ns3:TrackPointExtension>
            <ns3:hr>148</ns3:hr>
            <ns3:cad>0</ns3:cad>
          </ns3:TrackPointExtension>
        </extensions>
      </trkpt>
      <trkpt lat="44.705206789076328277587890625" lon="6.75512731075286865234375">
        <ele>1646.5999755859375</ele>
        <time>2026-09-03T06:51:41.000Z</time>
        <extensions>
          <ns3:TrackPointExtension>
            <ns3:hr>148</ns3:hr>
            <ns3:cad>0</ns3:cad>
          </ns3:TrackPointExtension>
        </extensions>
      </trkpt>
      <trkpt lat="44.70519798807799816131591796875" lon="6.75512337125837802886962890625">
        <ele>1646.800048828125</ele>
        <time>2026-09-03T06:51:42.000Z</time>
        <extensions>
          <ns3:TrackPointExtension>
            <ns3:hr>148</ns3:hr>
            <ns3:cad>0</ns3:cad>
          </ns3:TrackPointExtension>
        </extensions>
      </trkpt>
      <trkpt lat="44.70519128255546092987060546875" lon="6.75512052141129970550537109375">
        <ele>1646.800048828125</ele>
        <time>2026-09-03T06:51:43.000Z</time>
        <extensions>
          <ns3:TrackPointExtension>
            <ns3:hr>149</ns3:hr>
            <ns3:cad>0</ns3:cad>
          </ns3:TrackPointExtension>
        </extensions>
      </trkpt>
      <trkpt lat="44.7051858343183994293212890625" lon="6.75511750392615795135498046875">
        <ele>1647</ele>
        <time>2026-09-03T06:51:44.000Z</time>
        <extensions>
          <ns3:TrackPointExtension>
            <ns3:hr>149</ns3:hr>
            <ns3:cad>0</ns3:cad>
          </ns3:TrackPointExtension>
        </extensions>
      </trkpt>
      <trkpt lat="44.70517803914844989776611328125" lon="6.75511515699326992034912109375">
        <ele>1647.199951171875</ele>
        <time>2026-09-03T06:51:45.000Z</time>
        <extensions>
          <ns3:TrackPointExtension>
            <ns3:hr>149</ns3:hr>
            <ns3:cad>0</ns3:cad>
          </ns3:TrackPointExtension>
        </extensions>
      </trkpt>
      <trkpt lat="44.705173932015895843505859375" lon="6.75511415116488933563232421875">
        <ele>1647.4000244140625</ele>
        <time>2026-09-03T06:51:46.000Z</time>
        <extensions>
          <ns3:TrackPointExtension>
            <ns3:hr>149</ns3:hr>
            <ns3:cad>0</ns3:cad>
          </ns3:TrackPointExtension>
        </extensions>
      </trkpt>
      <trkpt lat="44.70516529865562915802001953125" lon="6.75511465407907962799072265625">
        <ele>1647.5999755859375</ele>
        <time>2026-09-03T06:51:47.000Z</time>
        <extensions>
          <ns3:TrackPointExtension>
            <ns3:hr>149</ns3:hr>
            <ns3:cad>0</ns3:cad>
          </ns3:TrackPointExtension>
        </extensions>
      </trkpt>
      <trkpt lat="44.70515943132340908050537109375" lon="6.7551241256296634674072265625">
        <ele>1647.800048828125</ele>
        <time>2026-09-03T06:51:48.000Z</time>
        <extensions>
          <ns3:TrackPointExtension>
            <ns3:hr>150</ns3:hr>
            <ns3:cad>0</ns3:cad>
          </ns3:TrackPointExtension>
        </extensions>
      </trkpt>
      <trkpt lat="44.70515624620020389556884765625" lon="6.7551264725625514984130859375">
        <ele>1648</ele>
        <time>2026-09-03T06:51:49.000Z</time>
        <extensions>
          <ns3:TrackPointExtension>
            <ns3:hr>151</ns3:hr>
            <ns3:cad>0</ns3:cad>
          </ns3:TrackPointExtension>
        </extensions>
      </trkpt>
      <trkpt lat="44.70515004359185695648193359375" lon="6.7551398836076259613037109375">
        <ele>1648</ele>
        <time>2026-09-03T06:51:50.000Z</time>
        <extensions>
          <ns3:TrackPointExtension>
            <ns3:hr>160</ns3:hr>
            <ns3:cad>0</ns3:cad>
          </ns3:TrackPointExtension>
        </extensions>
      </trkpt>
      <trkpt lat="44.7051482833921909332275390625" lon="6.7551465891301631927490234375">
        <ele>1648.199951171875</ele>
        <time>2026-09-03T06:51:51.000Z</time>
        <extensions>
          <ns3:TrackPointExtension>
            <ns3:hr>163</ns3:hr>
            <ns3:cad>0</ns3:cad>
          </ns3:TrackPointExtension>
        </extensions>
      </trkpt>
      <trkpt lat="44.70515255816280841827392578125" lon="6.7551472596824169158935546875">
        <ele>1648.4000244140625</ele>
        <time>2026-09-03T06:51:52.000Z</time>
        <extensions>
          <ns3:TrackPointExtension>
            <ns3:hr>162</ns3:hr>
            <ns3:cad>0</ns3:cad>
          </ns3:TrackPointExtension>
        </extensions>
      </trkpt>
      <trkpt lat="44.705150462687015533447265625" lon="6.75515170209109783172607421875">
        <ele>1648.5999755859375</ele>
        <time>2026-09-03T06:51:53.000Z</time>
        <extensions>
          <ns3:TrackPointExtension>
            <ns3:hr>162</ns3:hr>
            <ns3:cad>0</ns3:cad>
          </ns3:TrackPointExtension>
        </extensions>
      </trkpt>
      <trkpt lat="44.70514518208801746368408203125" lon="6.75515773706138134002685546875">
        <ele>1648.800048828125</ele>
        <time>2026-09-03T06:51:54.000Z</time>
        <extensions>
          <ns3:TrackPointExtension>
            <ns3:hr>162</ns3:hr>
            <ns3:cad>0</ns3:cad>
          </ns3:TrackPointExtension>
        </extensions>
      </trkpt>
      <trkpt lat="44.70513629727065563201904296875" lon="6.75516494549810886383056640625">
        <ele>1649</ele>
        <time>2026-09-03T06:51:55.000Z</time>
        <extensions>
          <ns3:TrackPointExtension>
            <ns3:hr>162</ns3:hr>
            <ns3:cad>0</ns3:cad>
          </ns3:TrackPointExtension>
        </extensions>
      </trkpt>
      <trkpt lat="44.7051325254142284393310546875" lon="6.75516779534518718719482421875">
        <ele>1649.199951171875</ele>
        <time>2026-09-03T06:51:56.000Z</time>
        <extensions>
          <ns3:TrackPointExtension>
            <ns3:hr>162</ns3:hr>
            <ns3:cad>0</ns3:cad>
          </ns3:TrackPointExtension>
        </extensions>
      </trkpt>
      <trkpt lat="44.70512808300554752349853515625" lon="6.7551734112203121185302734375">
        <ele>1649.4000244140625</ele>
        <time>2026-09-03T06:51:57.000Z</time>
        <extensions>
          <ns3:TrackPointExtension>
            <ns3:hr>161</ns3:hr>
            <ns3:cad>0</ns3:cad>
          </ns3:TrackPointExtension>
        </extensions>
      </trkpt>
      <trkpt lat="44.70512607134878635406494140625" lon="6.755175255239009857177734375">
        <ele>1649.5999755859375</ele>
        <time>2026-09-03T06:51:58.000Z</time>
        <extensions>
          <ns3:TrackPointExtension>
            <ns3:hr>161</ns3:hr>
            <ns3:cad>0</ns3:cad>
          </ns3:TrackPointExtension>
        </extensions>
      </trkpt>
      <trkpt lat="44.705122970044612884521484375" lon="6.75518028438091278076171875">
        <ele>1649.800048828125</ele>
        <time>2026-09-03T06:51:59.000Z</time>
        <extensions>
          <ns3:TrackPointExtension>
            <ns3:hr>161</ns3:hr>
            <ns3:cad>0</ns3:cad>
          </ns3:TrackPointExtension>
        </extensions>
      </trkpt>
      <trkpt lat="44.70511835999786853790283203125" lon="6.75519092939794063568115234375">
        <ele>1649.800048828125</ele>
        <time>2026-09-03T06:52:00.000Z</time>
        <extensions>
          <ns3:TrackPointExtension>
            <ns3:hr>161</ns3:hr>
            <ns3:cad>0</ns3:cad>
          </ns3:TrackPointExtension>
        </extensions>
      </trkpt>
      <trkpt lat="44.70511592924594879150390625" lon="6.75519444979727268218994140625">
        <ele>1650</ele>
        <time>2026-09-03T06:52:01.000Z</time>
        <extensions>
          <ns3:TrackPointExtension>
            <ns3:hr>161</ns3:hr>
            <ns3:cad>0</ns3:cad>
          </ns3:TrackPointExtension>
        </extensions>
      </trkpt>
      <trkpt lat="44.7051103971898555755615234375" lon="6.755206100642681121826171875">
        <ele>1650.199951171875</ele>
        <time>2026-09-03T06:52:02.000Z</time>
        <extensions>
          <ns3:TrackPointExtension>
            <ns3:hr>160</ns3:hr>
            <ns3:cad>0</ns3:cad>
          </ns3:TrackPointExtension>
        </extensions>
      </trkpt>
      <trkpt lat="44.70510528422892093658447265625" lon="6.7552109621465206146240234375">
        <ele>1650.4000244140625</ele>
        <time>2026-09-03T06:52:03.000Z</time>
        <extensions>
          <ns3:TrackPointExtension>
            <ns3:hr>160</ns3:hr>
            <ns3:cad>0</ns3:cad>
          </ns3:TrackPointExtension>
        </extensions>
      </trkpt>
      <trkpt lat="44.70510159619152545928955078125" lon="6.75521339289844036102294921875">
        <ele>1650.5999755859375</ele>
        <time>2026-09-03T06:52:04.000Z</time>
        <extensions>
          <ns3:TrackPointExtension>
            <ns3:hr>160</ns3:hr>
            <ns3:cad>0</ns3:cad>
          </ns3:TrackPointExtension>
        </extensions>
      </trkpt>
      <trkpt lat="44.70509606413543224334716796875" lon="6.75522143952548503875732421875">
        <ele>1650.5999755859375</ele>
        <time>2026-09-03T06:52:05.000Z</time>
        <extensions>
          <ns3:TrackPointExtension>
            <ns3:hr>160</ns3:hr>
            <ns3:cad>0</ns3:cad>
          </ns3:TrackPointExtension>
        </extensions>
      </trkpt>
      <trkpt lat="44.70509354956448078155517578125" lon="6.7552257142961025238037109375">
        <ele>1650.800048828125</ele>
        <time>2026-09-03T06:52:06.000Z</time>
        <extensions>
          <ns3:TrackPointExtension>
            <ns3:hr>160</ns3:hr>
            <ns3:cad>0</ns3:cad>
          </ns3:TrackPointExtension>
        </extensions>
      </trkpt>
      <trkpt lat="44.705086089670658111572265625" lon="6.75522831268608570098876953125">
        <ele>1651</ele>
        <time>2026-09-03T06:52:07.000Z</time>
        <extensions>
          <ns3:TrackPointExtension>
            <ns3:hr>160</ns3:hr>
            <ns3:cad>0</ns3:cad>
          </ns3:TrackPointExtension>
        </extensions>
      </trkpt>
      <trkpt lat="44.70508114434778690338134765625" lon="6.75523116253316402435302734375">
        <ele>1651.199951171875</ele>
        <time>2026-09-03T06:52:08.000Z</time>
        <extensions>
          <ns3:TrackPointExtension>
            <ns3:hr>160</ns3:hr>
            <ns3:cad>0</ns3:cad>
          </ns3:TrackPointExtension>
        </extensions>
      </trkpt>
      <trkpt lat="44.70507527701556682586669921875" lon="6.7552364431321620941162109375">
        <ele>1651.199951171875</ele>
        <time>2026-09-03T06:52:09.000Z</time>
        <extensions>
          <ns3:TrackPointExtension>
            <ns3:hr>160</ns3:hr>
            <ns3:cad>0</ns3:cad>
          </ns3:TrackPointExtension>
        </extensions>
      </trkpt>
      <trkpt lat="44.7050736844539642333984375" lon="6.75523837096989154815673828125">
        <ele>1651.4000244140625</ele>
        <time>2026-09-03T06:52:10.000Z</time>
        <extensions>
          <ns3:TrackPointExtension>
            <ns3:hr>160</ns3:hr>
            <ns3:cad>0</ns3:cad>
          </ns3:TrackPointExtension>
        </extensions>
      </trkpt>
      <trkpt lat="44.7050710022449493408203125" lon="6.7552441544830799102783203125">
        <ele>1651.5999755859375</ele>
        <time>2026-09-03T06:52:11.000Z</time>
        <extensions>
          <ns3:TrackPointExtension>
            <ns3:hr>160</ns3:hr>
            <ns3:cad>0</ns3:cad>
          </ns3:TrackPointExtension>
        </extensions>
      </trkpt>
      <trkpt lat="44.70507192425429821014404296875" lon="6.75524759106338024139404296875">
        <ele>1651.800048828125</ele>
        <time>2026-09-03T06:52:12.000Z</time>
        <extensions>
          <ns3:TrackPointExtension>
            <ns3:hr>160</ns3:hr>
            <ns3:cad>0</ns3:cad>
          </ns3:TrackPointExtension>
        </extensions>
      </trkpt>
      <trkpt lat="44.70506764948368072509765625" lon="6.75525136291980743408203125">
        <ele>1652</ele>
        <time>2026-09-03T06:52:13.000Z</time>
        <extensions>
          <ns3:TrackPointExtension>
            <ns3:hr>160</ns3:hr>
            <ns3:cad>0</ns3:cad>
          </ns3:TrackPointExtension>
        </extensions>
      </trkpt>
      <trkpt lat="44.7050651349127292633056640625" lon="6.755253709852695465087890625">
        <ele>1652.199951171875</ele>
        <time>2026-09-03T06:52:14.000Z</time>
        <extensions>
          <ns3:TrackPointExtension>
            <ns3:hr>161</ns3:hr>
            <ns3:cad>0</ns3:cad>
          </ns3:TrackPointExtension>
        </extensions>
      </trkpt>
      <trkpt lat="44.705064296722412109375" lon="6.75525806844234466552734375">
        <ele>1652.199951171875</ele>
        <time>2026-09-03T06:52:15.000Z</time>
        <extensions>
          <ns3:TrackPointExtension>
            <ns3:hr>160</ns3:hr>
            <ns3:cad>0</ns3:cad>
          </ns3:TrackPointExtension>
        </extensions>
      </trkpt>
      <trkpt lat="44.705058597028255462646484375" lon="6.75526586361229419708251953125">
        <ele>1652.4000244140625</ele>
        <time>2026-09-03T06:52:16.000Z</time>
        <extensions>
          <ns3:TrackPointExtension>
            <ns3:hr>160</ns3:hr>
            <ns3:cad>0</ns3:cad>
          </ns3:TrackPointExtension>
        </extensions>
      </trkpt>
      <trkpt lat="44.70505557954311370849609375" lon="6.75526745617389678955078125">
        <ele>1652.4000244140625</ele>
        <time>2026-09-03T06:52:17.000Z</time>
        <extensions>
          <ns3:TrackPointExtension>
            <ns3:hr>160</ns3:hr>
            <ns3:cad>0</ns3:cad>
          </ns3:TrackPointExtension>
        </extensions>
      </trkpt>
      <trkpt lat="44.70505298115313053131103515625" lon="6.7552780173718929290771484375">
        <ele>1652.5999755859375</ele>
        <time>2026-09-03T06:52:18.000Z</time>
        <extensions>
          <ns3:TrackPointExtension>
            <ns3:hr>160</ns3:hr>
            <ns3:cad>0</ns3:cad>
          </ns3:TrackPointExtension>
        </extensions>
      </trkpt>
      <trkpt lat="44.70504845492541790008544921875" lon="6.75528447143733501434326171875">
        <ele>1652.800048828125</ele>
        <time>2026-09-03T06:52:19.000Z</time>
        <extensions>
          <ns3:TrackPointExtension>
            <ns3:hr>161</ns3:hr>
            <ns3:cad>0</ns3:cad>
          </ns3:TrackPointExtension>
        </extensions>
      </trkpt>
      <trkpt lat="44.70504560507833957672119140625" lon="6.7552810348570346832275390625">
        <ele>1653</ele>
        <time>2026-09-03T06:52:20.000Z</time>
        <extensions>
          <ns3:TrackPointExtension>
            <ns3:hr>160</ns3:hr>
            <ns3:cad>0</ns3:cad>
          </ns3:TrackPointExtension>
        </extensions>
      </trkpt>
      <trkpt lat="44.705039151012897491455078125" lon="6.75528665073215961456298828125">
        <ele>1653.199951171875</ele>
        <time>2026-09-03T06:52:21.000Z</time>
        <extensions>
          <ns3:TrackPointExtension>
            <ns3:hr>161</ns3:hr>
            <ns3:cad>0</ns3:cad>
          </ns3:TrackPointExtension>
        </extensions>
      </trkpt>
      <trkpt lat="44.70503688789904117584228515625" lon="6.75529184751212596893310546875">
        <ele>1653.4000244140625</ele>
        <time>2026-09-03T06:52:22.000Z</time>
        <extensions>
          <ns3:TrackPointExtension>
            <ns3:hr>161</ns3:hr>
            <ns3:cad>0</ns3:cad>
          </ns3:TrackPointExtension>
        </extensions>
      </trkpt>
      <trkpt lat="44.7050299309194087982177734375" lon="6.7553003132343292236328125">
        <ele>1653.5999755859375</ele>
        <time>2026-09-03T06:52:23.000Z</time>
        <extensions>
          <ns3:TrackPointExtension>
            <ns3:hr>161</ns3:hr>
            <ns3:cad>0</ns3:cad>
          </ns3:TrackPointExtension>
        </extensions>
      </trkpt>
      <trkpt lat="44.70502548851072788238525390625" lon="6.75531146116554737091064453125">
        <ele>1653.5999755859375</ele>
        <time>2026-09-03T06:52:24.000Z</time>
        <extensions>
          <ns3:TrackPointExtension>
            <ns3:hr>161</ns3:hr>
            <ns3:cad>0</ns3:cad>
          </ns3:TrackPointExtension>
        </extensions>
      </trkpt>
      <trkpt lat="44.705017693340778350830078125" lon="6.75531414337456226348876953125">
        <ele>1653.800048828125</ele>
        <time>2026-09-03T06:52:25.000Z</time>
        <extensions>
          <ns3:TrackPointExtension>
            <ns3:hr>161</ns3:hr>
            <ns3:cad>0</ns3:cad>
          </ns3:TrackPointExtension>
        </extensions>
      </trkpt>
      <trkpt lat="44.7050124965608119964599609375" lon="6.75531431101262569427490234375">
        <ele>1654</ele>
        <time>2026-09-03T06:52:26.000Z</time>
        <extensions>
          <ns3:TrackPointExtension>
            <ns3:hr>161</ns3:hr>
            <ns3:cad>0</ns3:cad>
          </ns3:TrackPointExtension>
        </extensions>
      </trkpt>
      <trkpt lat="44.70500872470438480377197265625" lon="6.75531783141195774078369140625">
        <ele>1654.199951171875</ele>
        <time>2026-09-03T06:52:27.000Z</time>
        <extensions>
          <ns3:TrackPointExtension>
            <ns3:hr>161</ns3:hr>
            <ns3:cad>0</ns3:cad>
          </ns3:TrackPointExtension>
        </extensions>
      </trkpt>
      <trkpt lat="44.705001600086688995361328125" lon="6.75532386638224124908447265625">
        <ele>1654.4000244140625</ele>
        <time>2026-09-03T06:52:28.000Z</time>
        <extensions>
          <ns3:TrackPointExtension>
            <ns3:hr>160</ns3:hr>
            <ns3:cad>0</ns3:cad>
          </ns3:TrackPointExtension>
        </extensions>
      </trkpt>
      <trkpt lat="44.70499732531607151031494140625" lon="6.7553279735147953033447265625">
        <ele>1654.5999755859375</ele>
        <time>2026-09-03T06:52:29.000Z</time>
        <extensions>
          <ns3:TrackPointExtension>
            <ns3:hr>160</ns3:hr>
            <ns3:cad>48</ns3:cad>
          </ns3:TrackPointExtension>
        </extensions>
      </trkpt>
      <trkpt lat="44.70498986542224884033203125" lon="6.75533509813249111175537109375">
        <ele>1654.800048828125</ele>
        <time>2026-09-03T06:52:30.000Z</time>
        <extensions>
          <ns3:TrackPointExtension>
            <ns3:hr>160</ns3:hr>
            <ns3:cad>48</ns3:cad>
          </ns3:TrackPointExtension>
        </extensions>
      </trkpt>
      <trkpt lat="44.70498106442391872406005859375" lon="6.75533794797956943511962890625">
        <ele>1655</ele>
        <time>2026-09-03T06:52:31.000Z</time>
        <extensions>
          <ns3:TrackPointExtension>
            <ns3:hr>159</ns3:hr>
            <ns3:cad>0</ns3:cad>
          </ns3:TrackPointExtension>
        </extensions>
      </trkpt>
      <trkpt lat="44.70497821457684040069580078125" lon="6.75533727742731571197509765625">
        <ele>1655.199951171875</ele>
        <time>2026-09-03T06:52:32.000Z</time>
        <extensions>
          <ns3:TrackPointExtension>
            <ns3:hr>159</ns3:hr>
            <ns3:cad>0</ns3:cad>
          </ns3:TrackPointExtension>
        </extensions>
      </trkpt>
      <trkpt lat="44.70497050322592258453369140625" lon="6.75534213893115520477294921875">
        <ele>1655.4000244140625</ele>
        <time>2026-09-03T06:52:33.000Z</time>
        <extensions>
          <ns3:TrackPointExtension>
            <ns3:hr>159</ns3:hr>
            <ns3:cad>0</ns3:cad>
          </ns3:TrackPointExtension>
        </extensions>
      </trkpt>
      <trkpt lat="44.70496430061757564544677734375" lon="6.75534649752080440521240234375">
        <ele>1655.4000244140625</ele>
        <time>2026-09-03T06:52:34.000Z</time>
        <extensions>
          <ns3:TrackPointExtension>
            <ns3:hr>159</ns3:hr>
            <ns3:cad>52</ns3:cad>
          </ns3:TrackPointExtension>
        </extensions>
      </trkpt>
      <trkpt lat="44.70495977438986301422119140625" lon="6.75535236485302448272705078125">
        <ele>1655.5999755859375</ele>
        <time>2026-09-03T06:52:35.000Z</time>
        <extensions>
          <ns3:TrackPointExtension>
            <ns3:hr>160</ns3:hr>
            <ns3:cad>52</ns3:cad>
          </ns3:TrackPointExtension>
        </extensions>
      </trkpt>
      <trkpt lat="44.70495290122926235198974609375" lon="6.7553571425378322601318359375">
        <ele>1655.800048828125</ele>
        <time>2026-09-03T06:52:36.000Z</time>
        <extensions>
          <ns3:TrackPointExtension>
            <ns3:hr>159</ns3:hr>
            <ns3:cad>52</ns3:cad>
          </ns3:TrackPointExtension>
        </extensions>
      </trkpt>
      <trkpt lat="44.70494217239320278167724609375" lon="6.755366027355194091796875">
        <ele>1656</ele>
        <time>2026-09-03T06:52:37.000Z</time>
        <extensions>
          <ns3:TrackPointExtension>
            <ns3:hr>159</ns3:hr>
            <ns3:cad>52</ns3:cad>
          </ns3:TrackPointExtension>
        </extensions>
      </trkpt>
      <trkpt lat="44.70493622124195098876953125" lon="6.75537449307739734649658203125">
        <ele>1656.199951171875</ele>
        <time>2026-09-03T06:52:38.000Z</time>
        <extensions>
          <ns3:TrackPointExtension>
            <ns3:hr>159</ns3:hr>
            <ns3:cad>0</ns3:cad>
          </ns3:TrackPointExtension>
        </extensions>
      </trkpt>
      <trkpt lat="44.70493127591907978057861328125" lon="6.75538052804768085479736328125">
        <ele>1656.4000244140625</ele>
        <time>2026-09-03T06:52:39.000Z</time>
        <extensions>
          <ns3:TrackPointExtension>
            <ns3:hr>159</ns3:hr>
            <ns3:cad>0</ns3:cad>
          </ns3:TrackPointExtension>
        </extensions>
      </trkpt>
      <trkpt lat="44.7049259953200817108154296875" lon="6.7553866468369960784912109375">
        <ele>1656.5999755859375</ele>
        <time>2026-09-03T06:52:40.000Z</time>
        <extensions>
          <ns3:TrackPointExtension>
            <ns3:hr>159</ns3:hr>
            <ns3:cad>0</ns3:cad>
          </ns3:TrackPointExtension>
        </extensions>
      </trkpt>
      <trkpt lat="44.70492322929203510284423828125" lon="6.75538958050310611724853515625">
        <ele>1656.800048828125</ele>
        <time>2026-09-03T06:52:41.000Z</time>
        <extensions>
          <ns3:TrackPointExtension>
            <ns3:hr>159</ns3:hr>
            <ns3:cad>0</ns3:cad>
          </ns3:TrackPointExtension>
        </extensions>
      </trkpt>
      <trkpt lat="44.70492071472108364105224609375" lon="6.75539175979793071746826171875">
        <ele>1656.800048828125</ele>
        <time>2026-09-03T06:52:42.000Z</time>
        <extensions>
          <ns3:TrackPointExtension>
            <ns3:hr>159</ns3:hr>
            <ns3:cad>0</ns3:cad>
          </ns3:TrackPointExtension>
        </extensions>
      </trkpt>
      <trkpt lat="44.7049172781407833099365234375" lon="6.75539829768240451812744140625">
        <ele>1657</ele>
        <time>2026-09-03T06:52:43.000Z</time>
        <extensions>
          <ns3:TrackPointExtension>
            <ns3:hr>159</ns3:hr>
            <ns3:cad>0</ns3:cad>
          </ns3:TrackPointExtension>
        </extensions>
      </trkpt>
      <trkpt lat="44.7049122489988803863525390625" lon="6.75540198571979999542236328125">
        <ele>1657.199951171875</ele>
        <time>2026-09-03T06:52:44.000Z</time>
        <extensions>
          <ns3:TrackPointExtension>
            <ns3:hr>160</ns3:hr>
            <ns3:cad>0</ns3:cad>
          </ns3:TrackPointExtension>
        </extensions>
      </trkpt>
      <trkpt lat="44.704909734427928924560546875" lon="6.75541095435619354248046875">
        <ele>1657.4000244140625</ele>
        <time>2026-09-03T06:52:45.000Z</time>
        <extensions>
          <ns3:TrackPointExtension>
            <ns3:hr>159</ns3:hr>
            <ns3:cad>0</ns3:cad>
          </ns3:TrackPointExtension>
        </extensions>
      </trkpt>
      <trkpt lat="44.704905711114406585693359375" lon="6.7554154805839061737060546875">
        <ele>1657.4000244140625</ele>
        <time>2026-09-03T06:52:46.000Z</time>
        <extensions>
          <ns3:TrackPointExtension>
            <ns3:hr>159</ns3:hr>
            <ns3:cad>0</ns3:cad>
          </ns3:TrackPointExtension>
        </extensions>
      </trkpt>
      <trkpt lat="44.7048978321254253387451171875" lon="6.75541707314550876617431640625">
        <ele>1657.5999755859375</ele>
        <time>2026-09-03T06:52:47.000Z</time>
        <extensions>
          <ns3:TrackPointExtension>
            <ns3:hr>158</ns3:hr>
            <ns3:cad>0</ns3:cad>
          </ns3:TrackPointExtension>
        </extensions>
      </trkpt>
      <trkpt lat="44.704892635345458984375" lon="6.7554225213825702667236328125">
        <ele>1657.800048828125</ele>
        <time>2026-09-03T06:52:48.000Z</time>
        <extensions>
          <ns3:TrackPointExtension>
            <ns3:hr>157</ns3:hr>
            <ns3:cad>0</ns3:cad>
          </ns3:TrackPointExtension>
        </extensions>
      </trkpt>
      <trkpt lat="44.70488886348903179168701171875" lon="6.7554195038974285125732421875">
        <ele>1658</ele>
        <time>2026-09-03T06:52:49.000Z</time>
        <extensions>
          <ns3:TrackPointExtension>
            <ns3:hr>157</ns3:hr>
            <ns3:cad>0</ns3:cad>
          </ns3:TrackPointExtension>
        </extensions>
      </trkpt>
      <trkpt lat="44.7048800624907016754150390625" lon="6.75542436540126800537109375">
        <ele>1658.199951171875</ele>
        <time>2026-09-03T06:52:50.000Z</time>
        <extensions>
          <ns3:TrackPointExtension>
            <ns3:hr>157</ns3:hr>
            <ns3:cad>0</ns3:cad>
          </ns3:TrackPointExtension>
        </extensions>
      </trkpt>
      <trkpt lat="44.7048752009868621826171875" lon="6.75542947836220264434814453125">
        <ele>1658.4000244140625</ele>
        <time>2026-09-03T06:52:51.000Z</time>
        <extensions>
          <ns3:TrackPointExtension>
            <ns3:hr>157</ns3:hr>
            <ns3:cad>0</ns3:cad>
          </ns3:TrackPointExtension>
        </extensions>
      </trkpt>
      <trkpt lat="44.7048626281321048736572265625" lon="6.75543836317956447601318359375">
        <ele>1658.5999755859375</ele>
        <time>2026-09-03T06:52:52.000Z</time>
        <extensions>
          <ns3:TrackPointExtension>
            <ns3:hr>157</ns3:hr>
            <ns3:cad>0</ns3:cad>
          </ns3:TrackPointExtension>
        </extensions>
      </trkpt>
      <trkpt lat="44.7048569284379482269287109375" lon="6.75544087775051593780517578125">
        <ele>1658.800048828125</ele>
        <time>2026-09-03T06:52:53.000Z</time>
        <extensions>
          <ns3:TrackPointExtension>
            <ns3:hr>156</ns3:hr>
            <ns3:cad>0</ns3:cad>
          </ns3:TrackPointExtension>
        </extensions>
      </trkpt>
      <trkpt lat="44.7048508934676647186279296875" lon="6.75544071011245250701904296875">
        <ele>1659</ele>
        <time>2026-09-03T06:52:54.000Z</time>
        <extensions>
          <ns3:TrackPointExtension>
            <ns3:hr>156</ns3:hr>
            <ns3:cad>0</ns3:cad>
          </ns3:TrackPointExtension>
        </extensions>
      </trkpt>
      <trkpt lat="44.7048398293554782867431640625" lon="6.7554453201591968536376953125">
        <ele>1659.199951171875</ele>
        <time>2026-09-03T06:52:55.000Z</time>
        <extensions>
          <ns3:TrackPointExtension>
            <ns3:hr>156</ns3:hr>
            <ns3:cad>0</ns3:cad>
          </ns3:TrackPointExtension>
        </extensions>
      </trkpt>
      <trkpt lat="44.7048351354897022247314453125" lon="6.75544909201562404632568359375">
        <ele>1659.199951171875</ele>
        <time>2026-09-03T06:52:56.000Z</time>
        <extensions>
          <ns3:TrackPointExtension>
            <ns3:hr>156</ns3:hr>
            <ns3:cad>0</ns3:cad>
          </ns3:TrackPointExtension>
        </extensions>
      </trkpt>
      <trkpt lat="44.7048294357955455780029296875" lon="6.75545244477689266204833984375">
        <ele>1659.4000244140625</ele>
        <time>2026-09-03T06:52:57.000Z</time>
        <extensions>
          <ns3:TrackPointExtension>
            <ns3:hr>155</ns3:hr>
            <ns3:cad>0</ns3:cad>
          </ns3:TrackPointExtension>
        </extensions>
      </trkpt>
      <trkpt lat="44.70482298173010349273681640625" lon="6.755456887185573577880859375">
        <ele>1659.5999755859375</ele>
        <time>2026-09-03T06:52:58.000Z</time>
        <extensions>
          <ns3:TrackPointExtension>
            <ns3:hr>155</ns3:hr>
            <ns3:cad>0</ns3:cad>
          </ns3:TrackPointExtension>
        </extensions>
      </trkpt>
      <trkpt lat="44.70481845550239086151123046875" lon="6.7554652690887451171875">
        <ele>1659.800048828125</ele>
        <time>2026-09-03T06:52:59.000Z</time>
        <extensions>
          <ns3:TrackPointExtension>
            <ns3:hr>155</ns3:hr>
            <ns3:cad>0</ns3:cad>
          </ns3:TrackPointExtension>
        </extensions>
      </trkpt>
      <trkpt lat="44.7048079781234264373779296875" lon="6.755471639335155487060546875">
        <ele>1660</ele>
        <time>2026-09-03T06:53:00.000Z</time>
        <extensions>
          <ns3:TrackPointExtension>
            <ns3:hr>155</ns3:hr>
            <ns3:cad>0</ns3:cad>
          </ns3:TrackPointExtension>
        </extensions>
      </trkpt>
      <trkpt lat="44.7047949023544788360595703125" lon="6.75548027269542217254638671875">
        <ele>1660.199951171875</ele>
        <time>2026-09-03T06:53:01.000Z</time>
        <extensions>
          <ns3:TrackPointExtension>
            <ns3:hr>155</ns3:hr>
            <ns3:cad>0</ns3:cad>
          </ns3:TrackPointExtension>
        </extensions>
      </trkpt>
      <trkpt lat="44.7047855146229267120361328125" lon="6.75548446364700794219970703125">
        <ele>1660.4000244140625</ele>
        <time>2026-09-03T06:53:02.000Z</time>
        <extensions>
          <ns3:TrackPointExtension>
            <ns3:hr>155</ns3:hr>
            <ns3:cad>73</ns3:cad>
          </ns3:TrackPointExtension>
        </extensions>
      </trkpt>
      <trkpt lat="44.70477587543427944183349609375" lon="6.75549368374049663543701171875">
        <ele>1660.5999755859375</ele>
        <time>2026-09-03T06:53:03.000Z</time>
        <extensions>
          <ns3:TrackPointExtension>
            <ns3:hr>155</ns3:hr>
            <ns3:cad>73</ns3:cad>
          </ns3:TrackPointExtension>
        </extensions>
      </trkpt>
      <trkpt lat="44.704770930111408233642578125" lon="6.755501143634319305419921875">
        <ele>1660.800048828125</ele>
        <time>2026-09-03T06:53:04.000Z</time>
        <extensions>
          <ns3:TrackPointExtension>
            <ns3:hr>155</ns3:hr>
            <ns3:cad>73</ns3:cad>
          </ns3:TrackPointExtension>
        </extensions>
      </trkpt>
      <trkpt lat="44.7047674097120761871337890625" lon="6.755505837500095367431640625">
        <ele>1661</ele>
        <time>2026-09-03T06:53:05.000Z</time>
        <extensions>
          <ns3:TrackPointExtension>
            <ns3:hr>155</ns3:hr>
            <ns3:cad>73</ns3:cad>
          </ns3:TrackPointExtension>
        </extensions>
      </trkpt>
      <trkpt lat="44.704762212932109832763671875" lon="6.75550927408039569854736328125">
        <ele>1661.199951171875</ele>
        <time>2026-09-03T06:53:06.000Z</time>
        <extensions>
          <ns3:TrackPointExtension>
            <ns3:hr>155</ns3:hr>
            <ns3:cad>73</ns3:cad>
          </ns3:TrackPointExtension>
        </extensions>
      </trkpt>
      <trkpt lat="44.704758189618587493896484375" lon="6.75551078282296657562255859375">
        <ele>1661.199951171875</ele>
        <time>2026-09-03T06:53:07.000Z</time>
        <extensions>
          <ns3:TrackPointExtension>
            <ns3:hr>155</ns3:hr>
            <ns3:cad>73</ns3:cad>
          </ns3:TrackPointExtension>
        </extensions>
      </trkpt>
      <trkpt lat="44.70475106500089168548583984375" lon="6.75551346503198146820068359375">
        <ele>1661.4000244140625</ele>
        <time>2026-09-03T06:53:08.000Z</time>
        <extensions>
          <ns3:TrackPointExtension>
            <ns3:hr>155</ns3:hr>
            <ns3:cad>73</ns3:cad>
          </ns3:TrackPointExtension>
        </extensions>
      </trkpt>
      <trkpt lat="44.70474888570606708526611328125" lon="6.755515225231647491455078125">
        <ele>1661.5999755859375</ele>
        <time>2026-09-03T06:53:09.000Z</time>
        <extensions>
          <ns3:TrackPointExtension>
            <ns3:hr>155</ns3:hr>
            <ns3:cad>73</ns3:cad>
          </ns3:TrackPointExtension>
        </extensions>
      </trkpt>
      <trkpt lat="44.70474000088870525360107421875" lon="6.75552201457321643829345703125">
        <ele>1661.800048828125</ele>
        <time>2026-09-03T06:53:10.000Z</time>
        <extensions>
          <ns3:TrackPointExtension>
            <ns3:hr>155</ns3:hr>
            <ns3:cad>73</ns3:cad>
          </ns3:TrackPointExtension>
        </extensions>
      </trkpt>
      <trkpt lat="44.7047317028045654296875" lon="6.75552721135318279266357421875">
        <ele>1662</ele>
        <time>2026-09-03T06:53:11.000Z</time>
        <extensions>
          <ns3:TrackPointExtension>
            <ns3:hr>155</ns3:hr>
            <ns3:cad>73</ns3:cad>
          </ns3:TrackPointExtension>
        </extensions>
      </trkpt>
      <trkpt lat="44.70472843386232852935791015625" lon="6.75552654080092906951904296875">
        <ele>1662.199951171875</ele>
        <time>2026-09-03T06:53:12.000Z</time>
        <extensions>
          <ns3:TrackPointExtension>
            <ns3:hr>155</ns3:hr>
            <ns3:cad>73</ns3:cad>
          </ns3:TrackPointExtension>
        </extensions>
      </trkpt>
      <trkpt lat="44.70472139306366443634033203125" lon="6.7555308155715465545654296875">
        <ele>1662.4000244140625</ele>
        <time>2026-09-03T06:53:13.000Z</time>
        <extensions>
          <ns3:TrackPointExtension>
            <ns3:hr>154</ns3:hr>
            <ns3:cad>73</ns3:cad>
          </ns3:TrackPointExtension>
        </extensions>
      </trkpt>
      <trkpt lat="44.70471628010272979736328125" lon="6.75553425215184688568115234375">
        <ele>1662.5999755859375</ele>
        <time>2026-09-03T06:53:14.000Z</time>
        <extensions>
          <ns3:TrackPointExtension>
            <ns3:hr>155</ns3:hr>
            <ns3:cad>52</ns3:cad>
          </ns3:TrackPointExtension>
        </extensions>
      </trkpt>
      <trkpt lat="44.7047115862369537353515625" lon="6.7555428855121135711669921875">
        <ele>1662.800048828125</ele>
        <time>2026-09-03T06:53:15.000Z</time>
        <extensions>
          <ns3:TrackPointExtension>
            <ns3:hr>154</ns3:hr>
            <ns3:cad>0</ns3:cad>
          </ns3:TrackPointExtension>
        </extensions>
      </trkpt>
      <trkpt lat="44.704705215990543365478515625" lon="6.7555497586727142333984375">
        <ele>1663</ele>
        <time>2026-09-03T06:53:16.000Z</time>
        <extensions>
          <ns3:TrackPointExtension>
            <ns3:hr>154</ns3:hr>
            <ns3:cad>0</ns3:cad>
          </ns3:TrackPointExtension>
        </extensions>
      </trkpt>
      <trkpt lat="44.7046966664493083953857421875" lon="6.75555855967104434967041015625">
        <ele>1663.199951171875</ele>
        <time>2026-09-03T06:53:17.000Z</time>
        <extensions>
          <ns3:TrackPointExtension>
            <ns3:hr>154</ns3:hr>
            <ns3:cad>0</ns3:cad>
          </ns3:TrackPointExtension>
        </extensions>
      </trkpt>
      <trkpt lat="44.70469088293612003326416015625" lon="6.7555656842887401580810546875">
        <ele>1663.4000244140625</ele>
        <time>2026-09-03T06:53:18.000Z</time>
        <extensions>
          <ns3:TrackPointExtension>
            <ns3:hr>154</ns3:hr>
            <ns3:cad>0</ns3:cad>
          </ns3:TrackPointExtension>
        </extensions>
      </trkpt>
      <trkpt lat="44.7046845965087413787841796875" lon="6.7555717192590236663818359375">
        <ele>1663.4000244140625</ele>
        <time>2026-09-03T06:53:19.000Z</time>
        <extensions>
          <ns3:TrackPointExtension>
            <ns3:hr>155</ns3:hr>
            <ns3:cad>0</ns3:cad>
          </ns3:TrackPointExtension>
        </extensions>
      </trkpt>
      <trkpt lat="44.70467931590974330902099609375" lon="6.75557725131511688232421875">
        <ele>1663.5999755859375</ele>
        <time>2026-09-03T06:53:20.000Z</time>
        <extensions>
          <ns3:TrackPointExtension>
            <ns3:hr>155</ns3:hr>
            <ns3:cad>0</ns3:cad>
          </ns3:TrackPointExtension>
        </extensions>
      </trkpt>
      <trkpt lat="44.7046740353107452392578125" lon="6.75558202899992465972900390625">
        <ele>1663.800048828125</ele>
        <time>2026-09-03T06:53:21.000Z</time>
        <extensions>
          <ns3:TrackPointExtension>
            <ns3:hr>155</ns3:hr>
            <ns3:cad>0</ns3:cad>
          </ns3:TrackPointExtension>
        </extensions>
      </trkpt>
      <trkpt lat="44.70466800034046173095703125" lon="6.75558655522763729095458984375">
        <ele>1664</ele>
        <time>2026-09-03T06:53:22.000Z</time>
        <extensions>
          <ns3:TrackPointExtension>
            <ns3:hr>155</ns3:hr>
            <ns3:cad>0</ns3:cad>
          </ns3:TrackPointExtension>
        </extensions>
      </trkpt>
      <trkpt lat="44.70466389320790767669677734375" lon="6.755585633218288421630859375">
        <ele>1664.199951171875</ele>
        <time>2026-09-03T06:53:23.000Z</time>
        <extensions>
          <ns3:TrackPointExtension>
            <ns3:hr>155</ns3:hr>
            <ns3:cad>0</ns3:cad>
          </ns3:TrackPointExtension>
        </extensions>
      </trkpt>
      <trkpt lat="44.70465718768537044525146484375" lon="6.75559141673147678375244140625">
        <ele>1664.4000244140625</ele>
        <time>2026-09-03T06:53:24.000Z</time>
        <extensions>
          <ns3:TrackPointExtension>
            <ns3:hr>154</ns3:hr>
            <ns3:cad>51</ns3:cad>
          </ns3:TrackPointExtension>
        </extensions>
      </trkpt>
      <trkpt lat="44.70465266145765781402587890625" lon="6.75559510476887226104736328125">
        <ele>1664.5999755859375</ele>
        <time>2026-09-03T06:53:25.000Z</time>
        <extensions>
          <ns3:TrackPointExtension>
            <ns3:hr>155</ns3:hr>
            <ns3:cad>51</ns3:cad>
          </ns3:TrackPointExtension>
        </extensions>
      </trkpt>
      <trkpt lat="44.70464964397251605987548828125" lon="6.7555965296924114227294921875">
        <ele>1664.800048828125</ele>
        <time>2026-09-03T06:53:26.000Z</time>
        <extensions>
          <ns3:TrackPointExtension>
            <ns3:hr>154</ns3:hr>
            <ns3:cad>51</ns3:cad>
          </ns3:TrackPointExtension>
        </extensions>
      </trkpt>
      <trkpt lat="44.70464595593512058258056640625" lon="6.7555998824536800384521484375">
        <ele>1665</ele>
        <time>2026-09-03T06:53:27.000Z</time>
        <extensions>
          <ns3:TrackPointExtension>
            <ns3:hr>154</ns3:hr>
            <ns3:cad>51</ns3:cad>
          </ns3:TrackPointExtension>
        </extensions>
      </trkpt>
      <trkpt lat="44.704642854630947113037109375" lon="6.75560331903398036956787109375">
        <ele>1665</ele>
        <time>2026-09-03T06:53:28.000Z</time>
        <extensions>
          <ns3:TrackPointExtension>
            <ns3:hr>154</ns3:hr>
            <ns3:cad>51</ns3:cad>
          </ns3:TrackPointExtension>
        </extensions>
      </trkpt>
      <trkpt lat="44.7046389989554882049560546875" lon="6.75560675561428070068359375">
        <ele>1665.199951171875</ele>
        <time>2026-09-03T06:53:29.000Z</time>
        <extensions>
          <ns3:TrackPointExtension>
            <ns3:hr>154</ns3:hr>
            <ns3:cad>51</ns3:cad>
          </ns3:TrackPointExtension>
        </extensions>
      </trkpt>
      <trkpt lat="44.70463640056550502777099609375" lon="6.755607761442661285400390625">
        <ele>1665.4000244140625</ele>
        <time>2026-09-03T06:53:30.000Z</time>
        <extensions>
          <ns3:TrackPointExtension>
            <ns3:hr>154</ns3:hr>
            <ns3:cad>51</ns3:cad>
          </ns3:TrackPointExtension>
        </extensions>
      </trkpt>
      <trkpt lat="44.70463304780423641204833984375" lon="6.7556114494800567626953125">
        <ele>1665.5999755859375</ele>
        <time>2026-09-03T06:53:31.000Z</time>
        <extensions>
          <ns3:TrackPointExtension>
            <ns3:hr>154</ns3:hr>
            <ns3:cad>0</ns3:cad>
          </ns3:TrackPointExtension>
        </extensions>
      </trkpt>
      <trkpt lat="44.7046302817761898040771484375" lon="6.7556136287748813629150390625">
        <ele>1665.800048828125</ele>
        <time>2026-09-03T06:53:32.000Z</time>
        <extensions>
          <ns3:TrackPointExtension>
            <ns3:hr>154</ns3:hr>
            <ns3:cad>0</ns3:cad>
          </ns3:TrackPointExtension>
        </extensions>
      </trkpt>
      <trkpt lat="44.70462868921458721160888671875" lon="6.75561857409775257110595703125">
        <ele>1666</ele>
        <time>2026-09-03T06:53:33.000Z</time>
        <extensions>
          <ns3:TrackPointExtension>
            <ns3:hr>153</ns3:hr>
            <ns3:cad>0</ns3:cad>
          </ns3:TrackPointExtension>
        </extensions>
      </trkpt>
      <trkpt lat="44.70462701283395290374755859375" lon="6.7556226812303066253662109375">
        <ele>1666.199951171875</ele>
        <time>2026-09-03T06:53:34.000Z</time>
        <extensions>
          <ns3:TrackPointExtension>
            <ns3:hr>153</ns3:hr>
            <ns3:cad>0</ns3:cad>
          </ns3:TrackPointExtension>
        </extensions>
      </trkpt>
      <trkpt lat="44.70462399534881114959716796875" lon="6.755628883838653564453125">
        <ele>1666.4000244140625</ele>
        <time>2026-09-03T06:53:35.000Z</time>
        <extensions>
          <ns3:TrackPointExtension>
            <ns3:hr>153</ns3:hr>
            <ns3:cad>0</ns3:cad>
          </ns3:TrackPointExtension>
        </extensions>
      </trkpt>
      <trkpt lat="44.704622738063335418701171875" lon="6.75563265569508075714111328125">
        <ele>1666.800048828125</ele>
        <time>2026-09-03T06:53:36.000Z</time>
        <extensions>
          <ns3:TrackPointExtension>
            <ns3:hr>153</ns3:hr>
            <ns3:cad>0</ns3:cad>
          </ns3:TrackPointExtension>
        </extensions>
      </trkpt>
      <trkpt lat="44.70461980439722537994384765625" lon="6.75563785247504711151123046875">
        <ele>1667</ele>
        <time>2026-09-03T06:53:37.000Z</time>
        <extensions>
          <ns3:TrackPointExtension>
            <ns3:hr>153</ns3:hr>
            <ns3:cad>0</ns3:cad>
          </ns3:TrackPointExtension>
        </extensions>
      </trkpt>
      <trkpt lat="44.70461703836917877197265625" lon="6.7556421272456645965576171875">
        <ele>1667.199951171875</ele>
        <time>2026-09-03T06:53:38.000Z</time>
        <extensions>
          <ns3:TrackPointExtension>
            <ns3:hr>154</ns3:hr>
            <ns3:cad>0</ns3:cad>
          </ns3:TrackPointExtension>
        </extensions>
      </trkpt>
      <trkpt lat="44.7046064771711826324462890625" lon="6.7556612379848957061767578125">
        <ele>1667.5999755859375</ele>
        <time>2026-09-03T06:53:39.000Z</time>
        <extensions>
          <ns3:TrackPointExtension>
            <ns3:hr>154</ns3:hr>
            <ns3:cad>0</ns3:cad>
          </ns3:TrackPointExtension>
        </extensions>
      </trkpt>
      <trkpt lat="44.70460237003862857818603515625" lon="6.7556692846119403839111328125">
        <ele>1667.800048828125</ele>
        <time>2026-09-03T06:53:40.000Z</time>
        <extensions>
          <ns3:TrackPointExtension>
            <ns3:hr>154</ns3:hr>
            <ns3:cad>0</ns3:cad>
          </ns3:TrackPointExtension>
        </extensions>
      </trkpt>
      <trkpt lat="44.70459851436316967010498046875" lon="6.75567372702062129974365234375">
        <ele>1668</ele>
        <time>2026-09-03T06:53:41.000Z</time>
        <extensions>
          <ns3:TrackPointExtension>
            <ns3:hr>153</ns3:hr>
            <ns3:cad>0</ns3:cad>
          </ns3:TrackPointExtension>
        </extensions>
      </trkpt>
      <trkpt lat="44.70459013245999813079833984375" lon="6.755686216056346893310546875">
        <ele>1668.199951171875</ele>
        <time>2026-09-03T06:53:42.000Z</time>
        <extensions>
          <ns3:TrackPointExtension>
            <ns3:hr>154</ns3:hr>
            <ns3:cad>0</ns3:cad>
          </ns3:TrackPointExtension>
        </extensions>
      </trkpt>
      <trkpt lat="44.704587869346141815185546875" lon="6.75569082610309123992919921875">
        <ele>1668.4000244140625</ele>
        <time>2026-09-03T06:53:43.000Z</time>
        <extensions>
          <ns3:TrackPointExtension>
            <ns3:hr>154</ns3:hr>
            <ns3:cad>0</ns3:cad>
          </ns3:TrackPointExtension>
        </extensions>
      </trkpt>
      <trkpt lat="44.7045759670436382293701171875" lon="6.75569635815918445587158203125">
        <ele>1668.5999755859375</ele>
        <time>2026-09-03T06:53:44.000Z</time>
        <extensions>
          <ns3:TrackPointExtension>
            <ns3:hr>154</ns3:hr>
            <ns3:cad>0</ns3:cad>
          </ns3:TrackPointExtension>
        </extensions>
      </trkpt>
      <trkpt lat="44.704570770263671875" lon="6.7557031475007534027099609375">
        <ele>1668.800048828125</ele>
        <time>2026-09-03T06:53:45.000Z</time>
        <extensions>
          <ns3:TrackPointExtension>
            <ns3:hr>154</ns3:hr>
            <ns3:cad>0</ns3:cad>
          </ns3:TrackPointExtension>
        </extensions>
      </trkpt>
      <trkpt lat="44.70456532202661037445068359375" lon="6.75570758990943431854248046875">
        <ele>1669</ele>
        <time>2026-09-03T06:53:46.000Z</time>
        <extensions>
          <ns3:TrackPointExtension>
            <ns3:hr>153</ns3:hr>
            <ns3:cad>0</ns3:cad>
          </ns3:TrackPointExtension>
        </extensions>
      </trkpt>
      <trkpt lat="44.7045561857521533966064453125" lon="6.75571898929774761199951171875">
        <ele>1669.199951171875</ele>
        <time>2026-09-03T06:53:47.000Z</time>
        <extensions>
          <ns3:TrackPointExtension>
            <ns3:hr>154</ns3:hr>
            <ns3:cad>0</ns3:cad>
          </ns3:TrackPointExtension>
        </extensions>
      </trkpt>
      <trkpt lat="44.70454889349639415740966796875" lon="6.75573307089507579803466796875">
        <ele>1669.199951171875</ele>
        <time>2026-09-03T06:53:48.000Z</time>
        <extensions>
          <ns3:TrackPointExtension>
            <ns3:hr>154</ns3:hr>
            <ns3:cad>0</ns3:cad>
          </ns3:TrackPointExtension>
        </extensions>
      </trkpt>
      <trkpt lat="44.7045407630503177642822265625" lon="6.75574480555951595306396484375">
        <ele>1669.4000244140625</ele>
        <time>2026-09-03T06:53:49.000Z</time>
        <extensions>
          <ns3:TrackPointExtension>
            <ns3:hr>155</ns3:hr>
            <ns3:cad>0</ns3:cad>
          </ns3:TrackPointExtension>
        </extensions>
      </trkpt>
      <trkpt lat="44.7045300342142581939697265625" lon="6.75575804896652698516845703125">
        <ele>1669.4000244140625</ele>
        <time>2026-09-03T06:53:50.000Z</time>
        <extensions>
          <ns3:TrackPointExtension>
            <ns3:hr>155</ns3:hr>
            <ns3:cad>0</ns3:cad>
          </ns3:TrackPointExtension>
        </extensions>
      </trkpt>
      <trkpt lat="44.70452525652945041656494140625" lon="6.75576576031744480133056640625">
        <ele>1669.5999755859375</ele>
        <time>2026-09-03T06:53:51.000Z</time>
        <extensions>
          <ns3:TrackPointExtension>
            <ns3:hr>156</ns3:hr>
            <ns3:cad>0</ns3:cad>
          </ns3:TrackPointExtension>
        </extensions>
      </trkpt>
      <trkpt lat="44.70451469533145427703857421875" lon="6.755768693983554840087890625">
        <ele>1669.5999755859375</ele>
        <time>2026-09-03T06:53:52.000Z</time>
        <extensions>
          <ns3:TrackPointExtension>
            <ns3:hr>156</ns3:hr>
            <ns3:cad>0</ns3:cad>
          </ns3:TrackPointExtension>
        </extensions>
      </trkpt>
      <trkpt lat="44.7045079059898853302001953125" lon="6.75576768815517425537109375">
        <ele>1669.800048828125</ele>
        <time>2026-09-03T06:53:53.000Z</time>
        <extensions>
          <ns3:TrackPointExtension>
            <ns3:hr>157</ns3:hr>
            <ns3:cad>0</ns3:cad>
          </ns3:TrackPointExtension>
        </extensions>
      </trkpt>
      <trkpt lat="44.704498685896396636962890625" lon="6.755761988461017608642578125">
        <ele>1670</ele>
        <time>2026-09-03T06:53:54.000Z</time>
        <extensions>
          <ns3:TrackPointExtension>
            <ns3:hr>157</ns3:hr>
            <ns3:cad>0</ns3:cad>
          </ns3:TrackPointExtension>
        </extensions>
      </trkpt>
      <trkpt lat="44.7044948302209377288818359375" lon="6.7557691968977451324462890625">
        <ele>1670.199951171875</ele>
        <time>2026-09-03T06:53:55.000Z</time>
        <extensions>
          <ns3:TrackPointExtension>
            <ns3:hr>157</ns3:hr>
            <ns3:cad>0</ns3:cad>
          </ns3:TrackPointExtension>
        </extensions>
      </trkpt>
      <trkpt lat="44.7044928185641765594482421875" lon="6.755774058401584625244140625">
        <ele>1670.4000244140625</ele>
        <time>2026-09-03T06:53:56.000Z</time>
        <extensions>
          <ns3:TrackPointExtension>
            <ns3:hr>158</ns3:hr>
            <ns3:cad>0</ns3:cad>
          </ns3:TrackPointExtension>
        </extensions>
      </trkpt>
      <trkpt lat="44.70449231564998626708984375" lon="6.75577732734382152557373046875">
        <ele>1670.800048828125</ele>
        <time>2026-09-03T06:53:57.000Z</time>
        <extensions>
          <ns3:TrackPointExtension>
            <ns3:hr>162</ns3:hr>
            <ns3:cad>0</ns3:cad>
          </ns3:TrackPointExtension>
        </extensions>
      </trkpt>
      <trkpt lat="44.7044867835938930511474609375" lon="6.75578470341861248016357421875">
        <ele>1671</ele>
        <time>2026-09-03T06:53:58.000Z</time>
        <extensions>
          <ns3:TrackPointExtension>
            <ns3:hr>170</ns3:hr>
            <ns3:cad>0</ns3:cad>
          </ns3:TrackPointExtension>
        </extensions>
      </trkpt>
      <trkpt lat="44.70448200590908527374267578125" lon="6.75579023547470569610595703125">
        <ele>1671.199951171875</ele>
        <time>2026-09-03T06:53:59.000Z</time>
        <extensions>
          <ns3:TrackPointExtension>
            <ns3:hr>174</ns3:hr>
            <ns3:cad>0</ns3:cad>
          </ns3:TrackPointExtension>
        </extensions>
      </trkpt>
      <trkpt lat="44.704475216567516326904296875" lon="6.75579258240759372711181640625">
        <ele>1671.4000244140625</ele>
        <time>2026-09-03T06:54:00.000Z</time>
        <extensions>
          <ns3:TrackPointExtension>
            <ns3:hr>175</ns3:hr>
            <ns3:cad>0</ns3:cad>
          </ns3:TrackPointExtension>
        </extensions>
      </trkpt>
      <trkpt lat="44.70447060652077198028564453125" lon="6.75579945556819438934326171875">
        <ele>1671.5999755859375</ele>
        <time>2026-09-03T06:54:01.000Z</time>
        <extensions>
          <ns3:TrackPointExtension>
            <ns3:hr>176</ns3:hr>
            <ns3:cad>0</ns3:cad>
          </ns3:TrackPointExtension>
        </extensions>
      </trkpt>
      <trkpt lat="44.70446926541626453399658203125" lon="6.75580498762428760528564453125">
        <ele>1671.800048828125</ele>
        <time>2026-09-03T06:54:02.000Z</time>
        <extensions>
          <ns3:TrackPointExtension>
            <ns3:hr>177</ns3:hr>
            <ns3:cad>0</ns3:cad>
          </ns3:TrackPointExtension>
        </extensions>
      </trkpt>
      <trkpt lat="44.704463481903076171875" lon="6.75581387244164943695068359375">
        <ele>1672</ele>
        <time>2026-09-03T06:54:03.000Z</time>
        <extensions>
          <ns3:TrackPointExtension>
            <ns3:hr>177</ns3:hr>
            <ns3:cad>0</ns3:cad>
          </ns3:TrackPointExtension>
        </extensions>
      </trkpt>
      <trkpt lat="44.70445786602795124053955078125" lon="6.75581353716552257537841796875">
        <ele>1672.199951171875</ele>
        <time>2026-09-03T06:54:04.000Z</time>
        <extensions>
          <ns3:TrackPointExtension>
            <ns3:hr>177</ns3:hr>
            <ns3:cad>0</ns3:cad>
          </ns3:TrackPointExtension>
        </extensions>
      </trkpt>
      <trkpt lat="44.70444847829639911651611328125" lon="6.75582108087837696075439453125">
        <ele>1672.4000244140625</ele>
        <time>2026-09-03T06:54:05.000Z</time>
        <extensions>
          <ns3:TrackPointExtension>
            <ns3:hr>177</ns3:hr>
            <ns3:cad>0</ns3:cad>
          </ns3:TrackPointExtension>
        </extensions>
      </trkpt>
      <trkpt lat="44.7044458799064159393310546875" lon="6.75582535564899444580078125">
        <ele>1672.5999755859375</ele>
        <time>2026-09-03T06:54:06.000Z</time>
        <extensions>
          <ns3:TrackPointExtension>
            <ns3:hr>177</ns3:hr>
            <ns3:cad>0</ns3:cad>
          </ns3:TrackPointExtension>
        </extensions>
      </trkpt>
      <trkpt lat="44.70443707890808582305908203125" lon="6.75583608448505401611328125">
        <ele>1672.800048828125</ele>
        <time>2026-09-03T06:54:07.000Z</time>
        <extensions>
          <ns3:TrackPointExtension>
            <ns3:hr>177</ns3:hr>
            <ns3:cad>0</ns3:cad>
          </ns3:TrackPointExtension>
        </extensions>
      </trkpt>
      <trkpt lat="44.7044354863464832305908203125" lon="6.7558483220636844635009765625">
        <ele>1673</ele>
        <time>2026-09-03T06:54:08.000Z</time>
        <extensions>
          <ns3:TrackPointExtension>
            <ns3:hr>177</ns3:hr>
            <ns3:cad>0</ns3:cad>
          </ns3:TrackPointExtension>
        </extensions>
      </trkpt>
      <trkpt lat="44.70442869700491428375244140625" lon="6.75585729070007801055908203125">
        <ele>1673.199951171875</ele>
        <time>2026-09-03T06:54:09.000Z</time>
        <extensions>
          <ns3:TrackPointExtension>
            <ns3:hr>177</ns3:hr>
            <ns3:cad>0</ns3:cad>
          </ns3:TrackPointExtension>
        </extensions>
      </trkpt>
      <trkpt lat="44.7044277749955654144287109375" lon="6.7558610625565052032470703125">
        <ele>1673.199951171875</ele>
        <time>2026-09-03T06:54:10.000Z</time>
        <extensions>
          <ns3:TrackPointExtension>
            <ns3:hr>177</ns3:hr>
            <ns3:cad>0</ns3:cad>
          </ns3:TrackPointExtension>
        </extensions>
      </trkpt>
      <trkpt lat="44.7044237516820430755615234375" lon="6.75586760044097900390625">
        <ele>1673.4000244140625</ele>
        <time>2026-09-03T06:54:11.000Z</time>
        <extensions>
          <ns3:TrackPointExtension>
            <ns3:hr>177</ns3:hr>
            <ns3:cad>0</ns3:cad>
          </ns3:TrackPointExtension>
        </extensions>
      </trkpt>
      <trkpt lat="44.70441721379756927490234375" lon="6.75588327459990978240966796875">
        <ele>1673.5999755859375</ele>
        <time>2026-09-03T06:54:12.000Z</time>
        <extensions>
          <ns3:TrackPointExtension>
            <ns3:hr>177</ns3:hr>
            <ns3:cad>0</ns3:cad>
          </ns3:TrackPointExtension>
        </extensions>
      </trkpt>
      <trkpt lat="44.70441520214080810546875" lon="6.75588696263730525970458984375">
        <ele>1673.5999755859375</ele>
        <time>2026-09-03T06:54:13.000Z</time>
        <extensions>
          <ns3:TrackPointExtension>
            <ns3:hr>177</ns3:hr>
            <ns3:cad>0</ns3:cad>
          </ns3:TrackPointExtension>
        </extensions>
      </trkpt>
      <trkpt lat="44.70440975390374660491943359375" lon="6.75589785911142826080322265625">
        <ele>1673.800048828125</ele>
        <time>2026-09-03T06:54:14.000Z</time>
        <extensions>
          <ns3:TrackPointExtension>
            <ns3:hr>177</ns3:hr>
            <ns3:cad>0</ns3:cad>
          </ns3:TrackPointExtension>
        </extensions>
      </trkpt>
      <trkpt lat="44.70440589822828769683837890625" lon="6.75590355880558490753173828125">
        <ele>1674</ele>
        <time>2026-09-03T06:54:15.000Z</time>
        <extensions>
          <ns3:TrackPointExtension>
            <ns3:hr>177</ns3:hr>
            <ns3:cad>0</ns3:cad>
          </ns3:TrackPointExtension>
        </extensions>
      </trkpt>
      <trkpt lat="44.70440070144832134246826171875" lon="6.755912192165851593017578125">
        <ele>1674.199951171875</ele>
        <time>2026-09-03T06:54:16.000Z</time>
        <extensions>
          <ns3:TrackPointExtension>
            <ns3:hr>177</ns3:hr>
            <ns3:cad>0</ns3:cad>
          </ns3:TrackPointExtension>
        </extensions>
      </trkpt>
      <trkpt lat="44.7043989412486553192138671875" lon="6.75592216663062572479248046875">
        <ele>1674.4000244140625</ele>
        <time>2026-09-03T06:54:17.000Z</time>
        <extensions>
          <ns3:TrackPointExtension>
            <ns3:hr>177</ns3:hr>
            <ns3:cad>0</ns3:cad>
          </ns3:TrackPointExtension>
        </extensions>
      </trkpt>
      <trkpt lat="44.7043932415544986724853515625" lon="6.755923591554164886474609375">
        <ele>1674.5999755859375</ele>
        <time>2026-09-03T06:54:18.000Z</time>
        <extensions>
          <ns3:TrackPointExtension>
            <ns3:hr>177</ns3:hr>
            <ns3:cad>0</ns3:cad>
          </ns3:TrackPointExtension>
        </extensions>
      </trkpt>
      <trkpt lat="44.70438796095550060272216796875" lon="6.7559297941625118255615234375">
        <ele>1674.800048828125</ele>
        <time>2026-09-03T06:54:19.000Z</time>
        <extensions>
          <ns3:TrackPointExtension>
            <ns3:hr>177</ns3:hr>
            <ns3:cad>0</ns3:cad>
          </ns3:TrackPointExtension>
        </extensions>
      </trkpt>
      <trkpt lat="44.70438561402261257171630859375" lon="6.75593155436217784881591796875">
        <ele>1675</ele>
        <time>2026-09-03T06:54:20.000Z</time>
        <extensions>
          <ns3:TrackPointExtension>
            <ns3:hr>177</ns3:hr>
            <ns3:cad>0</ns3:cad>
          </ns3:TrackPointExtension>
        </extensions>
      </trkpt>
      <trkpt lat="44.704377651214599609375" lon="6.755943037569522857666015625">
        <ele>1675.199951171875</ele>
        <time>2026-09-03T06:54:21.000Z</time>
        <extensions>
          <ns3:TrackPointExtension>
            <ns3:hr>177</ns3:hr>
            <ns3:cad>0</ns3:cad>
          </ns3:TrackPointExtension>
        </extensions>
      </trkpt>
      <trkpt lat="44.70437538810074329376220703125" lon="6.75594999454915523529052734375">
        <ele>1675.4000244140625</ele>
        <time>2026-09-03T06:54:22.000Z</time>
        <extensions>
          <ns3:TrackPointExtension>
            <ns3:hr>177</ns3:hr>
            <ns3:cad>0</ns3:cad>
          </ns3:TrackPointExtension>
        </extensions>
      </trkpt>
      <trkpt lat="44.70436952076852321624755859375" lon="6.75596005283296108245849609375">
        <ele>1675.5999755859375</ele>
        <time>2026-09-03T06:54:23.000Z</time>
        <extensions>
          <ns3:TrackPointExtension>
            <ns3:hr>177</ns3:hr>
            <ns3:cad>0</ns3:cad>
          </ns3:TrackPointExtension>
        </extensions>
      </trkpt>
      <trkpt lat="44.70436382107436656951904296875" lon="6.75597145222127437591552734375">
        <ele>1675.800048828125</ele>
        <time>2026-09-03T06:54:24.000Z</time>
        <extensions>
          <ns3:TrackPointExtension>
            <ns3:hr>177</ns3:hr>
            <ns3:cad>0</ns3:cad>
          </ns3:TrackPointExtension>
        </extensions>
      </trkpt>
      <trkpt lat="44.704358875751495361328125" lon="6.75596885383129119873046875">
        <ele>1676</ele>
        <time>2026-09-03T06:54:25.000Z</time>
        <extensions>
          <ns3:TrackPointExtension>
            <ns3:hr>177</ns3:hr>
            <ns3:cad>0</ns3:cad>
          </ns3:TrackPointExtension>
        </extensions>
      </trkpt>
      <trkpt lat="44.70435208640992641448974609375" lon="6.75597882829606533050537109375">
        <ele>1676.199951171875</ele>
        <time>2026-09-03T06:54:26.000Z</time>
        <extensions>
          <ns3:TrackPointExtension>
            <ns3:hr>177</ns3:hr>
            <ns3:cad>0</ns3:cad>
          </ns3:TrackPointExtension>
        </extensions>
      </trkpt>
      <trkpt lat="44.70435393042862415313720703125" lon="6.7559797503054141998291015625">
        <ele>1676.199951171875</ele>
        <time>2026-09-03T06:54:27.000Z</time>
        <extensions>
          <ns3:TrackPointExtension>
            <ns3:hr>176</ns3:hr>
            <ns3:cad>0</ns3:cad>
          </ns3:TrackPointExtension>
        </extensions>
      </trkpt>
      <trkpt lat="44.704345799982547760009765625" lon="6.75599056296050548553466796875">
        <ele>1676.4000244140625</ele>
        <time>2026-09-03T06:54:28.000Z</time>
        <extensions>
          <ns3:TrackPointExtension>
            <ns3:hr>177</ns3:hr>
            <ns3:cad>0</ns3:cad>
          </ns3:TrackPointExtension>
        </extensions>
      </trkpt>
      <trkpt lat="44.7043387591838836669921875" lon="6.756002046167850494384765625">
        <ele>1676.5999755859375</ele>
        <time>2026-09-03T06:54:29.000Z</time>
        <extensions>
          <ns3:TrackPointExtension>
            <ns3:hr>177</ns3:hr>
            <ns3:cad>0</ns3:cad>
          </ns3:TrackPointExtension>
        </extensions>
      </trkpt>
      <trkpt lat="44.70432945527136325836181640625" lon="6.75601704977452754974365234375">
        <ele>1676.800048828125</ele>
        <time>2026-09-03T06:54:30.000Z</time>
        <extensions>
          <ns3:TrackPointExtension>
            <ns3:hr>177</ns3:hr>
            <ns3:cad>0</ns3:cad>
          </ns3:TrackPointExtension>
        </extensions>
      </trkpt>
      <trkpt lat="44.70432333648204803466796875" lon="6.75602761097252368927001953125">
        <ele>1677</ele>
        <time>2026-09-03T06:54:31.000Z</time>
        <extensions>
          <ns3:TrackPointExtension>
            <ns3:hr>176</ns3:hr>
            <ns3:cad>0</ns3:cad>
          </ns3:TrackPointExtension>
        </extensions>
      </trkpt>
      <trkpt lat="44.70431654714047908782958984375" lon="6.75603180192410945892333984375">
        <ele>1677.199951171875</ele>
        <time>2026-09-03T06:54:32.000Z</time>
        <extensions>
          <ns3:TrackPointExtension>
            <ns3:hr>177</ns3:hr>
            <ns3:cad>0</ns3:cad>
          </ns3:TrackPointExtension>
        </extensions>
      </trkpt>
      <trkpt lat="44.704308919608592987060546875" lon="6.75604135729372501373291015625">
        <ele>1677.4000244140625</ele>
        <time>2026-09-03T06:54:33.000Z</time>
        <extensions>
          <ns3:TrackPointExtension>
            <ns3:hr>177</ns3:hr>
            <ns3:cad>0</ns3:cad>
          </ns3:TrackPointExtension>
        </extensions>
      </trkpt>
      <trkpt lat="44.70430715940892696380615234375" lon="6.7560451291501522064208984375">
        <ele>1677.5999755859375</ele>
        <time>2026-09-03T06:54:34.000Z</time>
        <extensions>
          <ns3:TrackPointExtension>
            <ns3:hr>177</ns3:hr>
            <ns3:cad>0</ns3:cad>
          </ns3:TrackPointExtension>
        </extensions>
      </trkpt>
      <trkpt lat="44.70429844222962856292724609375" lon="6.75605711527168750762939453125">
        <ele>1677.800048828125</ele>
        <time>2026-09-03T06:54:35.000Z</time>
        <extensions>
          <ns3:TrackPointExtension>
            <ns3:hr>177</ns3:hr>
            <ns3:cad>0</ns3:cad>
          </ns3:TrackPointExtension>
        </extensions>
      </trkpt>
      <trkpt lat="44.70429525710642337799072265625" lon="6.75606449134647846221923828125">
        <ele>1678</ele>
        <time>2026-09-03T06:54:36.000Z</time>
        <extensions>
          <ns3:TrackPointExtension>
            <ns3:hr>177</ns3:hr>
            <ns3:cad>0</ns3:cad>
          </ns3:TrackPointExtension>
        </extensions>
      </trkpt>
      <trkpt lat="44.70428670756518840789794921875" lon="6.756079159677028656005859375">
        <ele>1678</ele>
        <time>2026-09-03T06:54:37.000Z</time>
        <extensions>
          <ns3:TrackPointExtension>
            <ns3:hr>176</ns3:hr>
            <ns3:cad>45</ns3:cad>
          </ns3:TrackPointExtension>
        </extensions>
      </trkpt>
      <trkpt lat="44.70427765510976314544677734375" lon="6.7560875415802001953125">
        <ele>1678.199951171875</ele>
        <time>2026-09-03T06:54:38.000Z</time>
        <extensions>
          <ns3:TrackPointExtension>
            <ns3:hr>176</ns3:hr>
            <ns3:cad>45</ns3:cad>
          </ns3:TrackPointExtension>
        </extensions>
      </trkpt>
      <trkpt lat="44.70426969230175018310546875" lon="6.75609550438821315765380859375">
        <ele>1678.4000244140625</ele>
        <time>2026-09-03T06:54:39.000Z</time>
        <extensions>
          <ns3:TrackPointExtension>
            <ns3:hr>176</ns3:hr>
            <ns3:cad>45</ns3:cad>
          </ns3:TrackPointExtension>
        </extensions>
      </trkpt>
      <trkpt lat="44.70426072366535663604736328125" lon="6.756106317043304443359375">
        <ele>1678.4000244140625</ele>
        <time>2026-09-03T06:54:40.000Z</time>
        <extensions>
          <ns3:TrackPointExtension>
            <ns3:hr>177</ns3:hr>
            <ns3:cad>45</ns3:cad>
          </ns3:TrackPointExtension>
        </extensions>
      </trkpt>
      <trkpt lat="44.7042547725141048431396484375" lon="6.7561131902039051055908203125">
        <ele>1678.5999755859375</ele>
        <time>2026-09-03T06:54:41.000Z</time>
        <extensions>
          <ns3:TrackPointExtension>
            <ns3:hr>176</ns3:hr>
            <ns3:cad>45</ns3:cad>
          </ns3:TrackPointExtension>
        </extensions>
      </trkpt>
      <trkpt lat="44.70424731262028217315673828125" lon="6.756117381155490875244140625">
        <ele>1678.800048828125</ele>
        <time>2026-09-03T06:54:42.000Z</time>
        <extensions>
          <ns3:TrackPointExtension>
            <ns3:hr>177</ns3:hr>
            <ns3:cad>45</ns3:cad>
          </ns3:TrackPointExtension>
        </extensions>
      </trkpt>
      <trkpt lat="44.7042470611631870269775390625" lon="6.75612165592610836029052734375">
        <ele>1679</ele>
        <time>2026-09-03T06:54:43.000Z</time>
        <extensions>
          <ns3:TrackPointExtension>
            <ns3:hr>176</ns3:hr>
            <ns3:cad>45</ns3:cad>
          </ns3:TrackPointExtension>
        </extensions>
      </trkpt>
      <trkpt lat="44.7042380087077617645263671875" lon="6.75612919963896274566650390625">
        <ele>1679.199951171875</ele>
        <time>2026-09-03T06:54:44.000Z</time>
        <extensions>
          <ns3:TrackPointExtension>
            <ns3:hr>176</ns3:hr>
            <ns3:cad>0</ns3:cad>
          </ns3:TrackPointExtension>
        </extensions>
      </trkpt>
      <trkpt lat="44.70423473976552486419677734375" lon="6.75613372586667537689208984375">
        <ele>1679.4000244140625</ele>
        <time>2026-09-03T06:54:45.000Z</time>
        <extensions>
          <ns3:TrackPointExtension>
            <ns3:hr>176</ns3:hr>
            <ns3:cad>0</ns3:cad>
          </ns3:TrackPointExtension>
        </extensions>
      </trkpt>
      <trkpt lat="44.704224430024623870849609375" lon="6.7561494000256061553955078125">
        <ele>1679.5999755859375</ele>
        <time>2026-09-03T06:54:46.000Z</time>
        <extensions>
          <ns3:TrackPointExtension>
            <ns3:hr>176</ns3:hr>
            <ns3:cad>0</ns3:cad>
          </ns3:TrackPointExtension>
        </extensions>
      </trkpt>
      <trkpt lat="44.704221077263355255126953125" lon="6.75616197288036346435546875">
        <ele>1679.800048828125</ele>
        <time>2026-09-03T06:54:47.000Z</time>
        <extensions>
          <ns3:TrackPointExtension>
            <ns3:hr>177</ns3:hr>
            <ns3:cad>0</ns3:cad>
          </ns3:TrackPointExtension>
        </extensions>
      </trkpt>
      <trkpt lat="44.7042145393788814544677734375" lon="6.75617194734513759613037109375">
        <ele>1679.800048828125</ele>
        <time>2026-09-03T06:54:48.000Z</time>
        <extensions>
          <ns3:TrackPointExtension>
            <ns3:hr>176</ns3:hr>
            <ns3:cad>0</ns3:cad>
          </ns3:TrackPointExtension>
        </extensions>
      </trkpt>
      <trkpt lat="44.704204984009265899658203125" lon="6.75618737004697322845458984375">
        <ele>1680</ele>
        <time>2026-09-03T06:54:49.000Z</time>
        <extensions>
          <ns3:TrackPointExtension>
            <ns3:hr>176</ns3:hr>
            <ns3:cad>0</ns3:cad>
          </ns3:TrackPointExtension>
        </extensions>
      </trkpt>
      <trkpt lat="44.7041977755725383758544921875" lon="6.75619659014046192169189453125">
        <ele>1680</ele>
        <time>2026-09-03T06:54:50.000Z</time>
        <extensions>
          <ns3:TrackPointExtension>
            <ns3:hr>176</ns3:hr>
            <ns3:cad>0</ns3:cad>
          </ns3:TrackPointExtension>
        </extensions>
      </trkpt>
      <trkpt lat="44.7041900642216205596923828125" lon="6.75620681606233119964599609375">
        <ele>1680.199951171875</ele>
        <time>2026-09-03T06:54:51.000Z</time>
        <extensions>
          <ns3:TrackPointExtension>
            <ns3:hr>176</ns3:hr>
            <ns3:cad>41</ns3:cad>
          </ns3:TrackPointExtension>
        </extensions>
      </trkpt>
      <trkpt lat="44.70418327488005161285400390625" lon="6.7562141083180904388427734375">
        <ele>1680.199951171875</ele>
        <time>2026-09-03T06:54:52.000Z</time>
        <extensions>
          <ns3:TrackPointExtension>
            <ns3:hr>176</ns3:hr>
            <ns3:cad>41</ns3:cad>
          </ns3:TrackPointExtension>
        </extensions>
      </trkpt>
      <trkpt lat="44.70417581498622894287109375" lon="6.75622626207768917083740234375">
        <ele>1680.199951171875</ele>
        <time>2026-09-03T06:54:53.000Z</time>
        <extensions>
          <ns3:TrackPointExtension>
            <ns3:hr>176</ns3:hr>
            <ns3:cad>41</ns3:cad>
          </ns3:TrackPointExtension>
        </extensions>
      </trkpt>
      <trkpt lat="44.70416801981627941131591796875" lon="6.75623648799955844879150390625">
        <ele>1680.199951171875</ele>
        <time>2026-09-03T06:54:54.000Z</time>
        <extensions>
          <ns3:TrackPointExtension>
            <ns3:hr>176</ns3:hr>
            <ns3:cad>41</ns3:cad>
          </ns3:TrackPointExtension>
        </extensions>
      </trkpt>
      <trkpt lat="44.70415494404733180999755859375" lon="6.75624151714146137237548828125">
        <ele>1680.4000244140625</ele>
        <time>2026-09-03T06:54:55.000Z</time>
        <extensions>
          <ns3:TrackPointExtension>
            <ns3:hr>176</ns3:hr>
            <ns3:cad>41</ns3:cad>
          </ns3:TrackPointExtension>
        </extensions>
      </trkpt>
      <trkpt lat="44.7041471488773822784423828125" lon="6.75624922849237918853759765625">
        <ele>1680.5999755859375</ele>
        <time>2026-09-03T06:54:56.000Z</time>
        <extensions>
          <ns3:TrackPointExtension>
            <ns3:hr>175</ns3:hr>
            <ns3:cad>41</ns3:cad>
          </ns3:TrackPointExtension>
        </extensions>
      </trkpt>
      <trkpt lat="44.70413583330810070037841796875" lon="6.75626062788069248199462890625">
        <ele>1680.800048828125</ele>
        <time>2026-09-03T06:54:57.000Z</time>
        <extensions>
          <ns3:TrackPointExtension>
            <ns3:hr>174</ns3:hr>
            <ns3:cad>0</ns3:cad>
          </ns3:TrackPointExtension>
        </extensions>
      </trkpt>
      <trkpt lat="44.704130552709102630615234375" lon="6.7562684230506420135498046875">
        <ele>1680.800048828125</ele>
        <time>2026-09-03T06:54:58.000Z</time>
        <extensions>
          <ns3:TrackPointExtension>
            <ns3:hr>174</ns3:hr>
            <ns3:cad>0</ns3:cad>
          </ns3:TrackPointExtension>
        </extensions>
      </trkpt>
      <trkpt lat="44.7041243501007556915283203125" lon="6.75627454183995723724365234375">
        <ele>1681</ele>
        <time>2026-09-03T06:54:59.000Z</time>
        <extensions>
          <ns3:TrackPointExtension>
            <ns3:hr>174</ns3:hr>
            <ns3:cad>0</ns3:cad>
          </ns3:TrackPointExtension>
        </extensions>
      </trkpt>
      <trkpt lat="44.70411839894950389862060546875" lon="6.756283342838287353515625">
        <ele>1681.199951171875</ele>
        <time>2026-09-03T06:55:00.000Z</time>
        <extensions>
          <ns3:TrackPointExtension>
            <ns3:hr>174</ns3:hr>
            <ns3:cad>0</ns3:cad>
          </ns3:TrackPointExtension>
        </extensions>
      </trkpt>
      <trkpt lat="44.704115800559520721435546875" lon="6.7562848515808582305908203125">
        <ele>1681.4000244140625</ele>
        <time>2026-09-03T06:55:01.000Z</time>
        <extensions>
          <ns3:TrackPointExtension>
            <ns3:hr>173</ns3:hr>
            <ns3:cad>0</ns3:cad>
          </ns3:TrackPointExtension>
        </extensions>
      </trkpt>
      <trkpt lat="44.70411010086536407470703125" lon="6.7562912218272686004638671875">
        <ele>1681.5999755859375</ele>
        <time>2026-09-03T06:55:02.000Z</time>
        <extensions>
          <ns3:TrackPointExtension>
            <ns3:hr>173</ns3:hr>
            <ns3:cad>0</ns3:cad>
          </ns3:TrackPointExtension>
        </extensions>
      </trkpt>
      <trkpt lat="44.70410473644733428955078125" lon="6.756299436092376708984375">
        <ele>1681.5999755859375</ele>
        <time>2026-09-03T06:55:03.000Z</time>
        <extensions>
          <ns3:TrackPointExtension>
            <ns3:hr>173</ns3:hr>
            <ns3:cad>0</ns3:cad>
          </ns3:TrackPointExtension>
        </extensions>
      </trkpt>
      <trkpt lat="44.70409811474382877349853515625" lon="6.75630521960556507110595703125">
        <ele>1681.800048828125</ele>
        <time>2026-09-03T06:55:04.000Z</time>
        <extensions>
          <ns3:TrackPointExtension>
            <ns3:hr>173</ns3:hr>
            <ns3:cad>40</ns3:cad>
          </ns3:TrackPointExtension>
        </extensions>
      </trkpt>
      <trkpt lat="44.70409333705902099609375" lon="6.75631209276616573333740234375">
        <ele>1682</ele>
        <time>2026-09-03T06:55:05.000Z</time>
        <extensions>
          <ns3:TrackPointExtension>
            <ns3:hr>174</ns3:hr>
            <ns3:cad>40</ns3:cad>
          </ns3:TrackPointExtension>
        </extensions>
      </trkpt>
      <trkpt lat="44.70408654771745204925537109375" lon="6.75632131285965442657470703125">
        <ele>1682.199951171875</ele>
        <time>2026-09-03T06:55:06.000Z</time>
        <extensions>
          <ns3:TrackPointExtension>
            <ns3:hr>173</ns3:hr>
            <ns3:cad>40</ns3:cad>
          </ns3:TrackPointExtension>
        </extensions>
      </trkpt>
      <trkpt lat="44.70408151857554912567138671875" lon="6.756328605115413665771484375">
        <ele>1682.4000244140625</ele>
        <time>2026-09-03T06:55:07.000Z</time>
        <extensions>
          <ns3:TrackPointExtension>
            <ns3:hr>172</ns3:hr>
            <ns3:cad>40</ns3:cad>
          </ns3:TrackPointExtension>
        </extensions>
      </trkpt>
      <trkpt lat="44.70407665707170963287353515625" lon="6.75633774138987064361572265625">
        <ele>1682.4000244140625</ele>
        <time>2026-09-03T06:55:08.000Z</time>
        <extensions>
          <ns3:TrackPointExtension>
            <ns3:hr>170</ns3:hr>
            <ns3:cad>0</ns3:cad>
          </ns3:TrackPointExtension>
        </extensions>
      </trkpt>
      <trkpt lat="44.7040727175772190093994140625" lon="6.7563478834927082061767578125">
        <ele>1682.5999755859375</ele>
        <time>2026-09-03T06:55:09.000Z</time>
        <extensions>
          <ns3:TrackPointExtension>
            <ns3:hr>170</ns3:hr>
            <ns3:cad>0</ns3:cad>
          </ns3:TrackPointExtension>
        </extensions>
      </trkpt>
      <trkpt lat="44.704069532454013824462890625" lon="6.756354756653308868408203125">
        <ele>1682.800048828125</ele>
        <time>2026-09-03T06:55:10.000Z</time>
        <extensions>
          <ns3:TrackPointExtension>
            <ns3:hr>169</ns3:hr>
            <ns3:cad>0</ns3:cad>
          </ns3:TrackPointExtension>
        </extensions>
      </trkpt>
      <trkpt lat="44.70406542532145977020263671875" lon="6.75636892206966876983642578125">
        <ele>1683</ele>
        <time>2026-09-03T06:55:11.000Z</time>
        <extensions>
          <ns3:TrackPointExtension>
            <ns3:hr>168</ns3:hr>
            <ns3:cad>0</ns3:cad>
          </ns3:TrackPointExtension>
        </extensions>
      </trkpt>
      <trkpt lat="44.70406207256019115447998046875" lon="6.7563824169337749481201171875">
        <ele>1683.199951171875</ele>
        <time>2026-09-03T06:55:12.000Z</time>
        <extensions>
          <ns3:TrackPointExtension>
            <ns3:hr>168</ns3:hr>
            <ns3:cad>0</ns3:cad>
          </ns3:TrackPointExtension>
        </extensions>
      </trkpt>
      <trkpt lat="44.704058803617954254150390625" lon="6.756396330893039703369140625">
        <ele>1683.4000244140625</ele>
        <time>2026-09-03T06:55:13.000Z</time>
        <extensions>
          <ns3:TrackPointExtension>
            <ns3:hr>167</ns3:hr>
            <ns3:cad>0</ns3:cad>
          </ns3:TrackPointExtension>
        </extensions>
      </trkpt>
      <trkpt lat="44.7040559537708759307861328125" lon="6.7564048804342746734619140625">
        <ele>1683.4000244140625</ele>
        <time>2026-09-03T06:55:14.000Z</time>
        <extensions>
          <ns3:TrackPointExtension>
            <ns3:hr>167</ns3:hr>
            <ns3:cad>0</ns3:cad>
          </ns3:TrackPointExtension>
        </extensions>
      </trkpt>
      <trkpt lat="44.70405469648540019989013671875" lon="6.75642474554479122161865234375">
        <ele>1683.5999755859375</ele>
        <time>2026-09-03T06:55:15.000Z</time>
        <extensions>
          <ns3:TrackPointExtension>
            <ns3:hr>167</ns3:hr>
            <ns3:cad>0</ns3:cad>
          </ns3:TrackPointExtension>
        </extensions>
      </trkpt>
      <trkpt lat="44.7040529362857341766357421875" lon="6.7564330436289310455322265625">
        <ele>1683.5999755859375</ele>
        <time>2026-09-03T06:55:16.000Z</time>
        <extensions>
          <ns3:TrackPointExtension>
            <ns3:hr>166</ns3:hr>
            <ns3:cad>0</ns3:cad>
          </ns3:TrackPointExtension>
        </extensions>
      </trkpt>
      <trkpt lat="44.704050756990909576416015625" lon="6.75644570030272006988525390625">
        <ele>1683.800048828125</ele>
        <time>2026-09-03T06:55:17.000Z</time>
        <extensions>
          <ns3:TrackPointExtension>
            <ns3:hr>166</ns3:hr>
            <ns3:cad>0</ns3:cad>
          </ns3:TrackPointExtension>
        </extensions>
      </trkpt>
      <trkpt lat="44.7040505893528461456298828125" lon="6.7564617097377777099609375">
        <ele>1684</ele>
        <time>2026-09-03T06:55:18.000Z</time>
        <extensions>
          <ns3:TrackPointExtension>
            <ns3:hr>166</ns3:hr>
            <ns3:cad>0</ns3:cad>
          </ns3:TrackPointExtension>
        </extensions>
      </trkpt>
      <trkpt lat="44.7040463984012603759765625" lon="6.75647042691707611083984375">
        <ele>1684.199951171875</ele>
        <time>2026-09-03T06:55:19.000Z</time>
        <extensions>
          <ns3:TrackPointExtension>
            <ns3:hr>165</ns3:hr>
            <ns3:cad>0</ns3:cad>
          </ns3:TrackPointExtension>
        </extensions>
      </trkpt>
      <trkpt lat="44.7040412016212940216064453125" lon="6.75648861564695835113525390625">
        <ele>1684.4000244140625</ele>
        <time>2026-09-03T06:55:20.000Z</time>
        <extensions>
          <ns3:TrackPointExtension>
            <ns3:hr>165</ns3:hr>
            <ns3:cad>0</ns3:cad>
          </ns3:TrackPointExtension>
        </extensions>
      </trkpt>
      <trkpt lat="44.70403692685067653656005859375" lon="6.75649699755012989044189453125">
        <ele>1684.5999755859375</ele>
        <time>2026-09-03T06:55:21.000Z</time>
        <extensions>
          <ns3:TrackPointExtension>
            <ns3:hr>164</ns3:hr>
            <ns3:cad>0</ns3:cad>
          </ns3:TrackPointExtension>
        </extensions>
      </trkpt>
      <trkpt lat="44.70403491519391536712646484375" lon="6.7564954049885272979736328125">
        <ele>1684.800048828125</ele>
        <time>2026-09-03T06:55:22.000Z</time>
        <extensions>
          <ns3:TrackPointExtension>
            <ns3:hr>161</ns3:hr>
            <ns3:cad>0</ns3:cad>
          </ns3:TrackPointExtension>
        </extensions>
      </trkpt>
      <trkpt lat="44.70403072424232959747314453125" lon="6.75649590790271759033203125">
        <ele>1684.800048828125</ele>
        <time>2026-09-03T06:55:23.000Z</time>
        <extensions>
          <ns3:TrackPointExtension>
            <ns3:hr>159</ns3:hr>
            <ns3:cad>0</ns3:cad>
          </ns3:TrackPointExtension>
        </extensions>
      </trkpt>
      <trkpt lat="44.70403474755585193634033203125" lon="6.7564886994659900665283203125">
        <ele>1684.800048828125</ele>
        <time>2026-09-03T06:55:24.000Z</time>
        <extensions>
          <ns3:TrackPointExtension>
            <ns3:hr>158</ns3:hr>
            <ns3:cad>0</ns3:cad>
          </ns3:TrackPointExtension>
        </extensions>
      </trkpt>
      <trkpt lat="44.70403634011745452880859375" lon="6.75648249685764312744140625">
        <ele>1685</ele>
        <time>2026-09-03T06:55:25.000Z</time>
        <extensions>
          <ns3:TrackPointExtension>
            <ns3:hr>158</ns3:hr>
            <ns3:cad>0</ns3:cad>
          </ns3:TrackPointExtension>
        </extensions>
      </trkpt>
      <trkpt lat="44.70403139479458332061767578125" lon="6.7564813233911991119384765625">
        <ele>1685</ele>
        <time>2026-09-03T06:55:26.000Z</time>
        <extensions>
          <ns3:TrackPointExtension>
            <ns3:hr>158</ns3:hr>
            <ns3:cad>0</ns3:cad>
          </ns3:TrackPointExtension>
        </extensions>
      </trkpt>
      <trkpt lat="44.7040287964046001434326171875" lon="6.75648056901991367340087890625">
        <ele>1685</ele>
        <time>2026-09-03T06:55:27.000Z</time>
        <extensions>
          <ns3:TrackPointExtension>
            <ns3:hr>157</ns3:hr>
            <ns3:cad>0</ns3:cad>
          </ns3:TrackPointExtension>
        </extensions>
      </trkpt>
      <trkpt lat="44.7040287964046001434326171875" lon="6.756475456058979034423828125">
        <ele>1685.199951171875</ele>
        <time>2026-09-03T06:55:28.000Z</time>
        <extensions>
          <ns3:TrackPointExtension>
            <ns3:hr>157</ns3:hr>
            <ns3:cad>0</ns3:cad>
          </ns3:TrackPointExtension>
        </extensions>
      </trkpt>
      <trkpt lat="44.704026617109775543212890625" lon="6.7564766295254230499267578125">
        <ele>1685.199951171875</ele>
        <time>2026-09-03T06:55:29.000Z</time>
        <extensions>
          <ns3:TrackPointExtension>
            <ns3:hr>157</ns3:hr>
            <ns3:cad>0</ns3:cad>
          </ns3:TrackPointExtension>
        </extensions>
      </trkpt>
      <trkpt lat="44.704030640423297882080078125" lon="6.75647067837417125701904296875">
        <ele>1685.199951171875</ele>
        <time>2026-09-03T06:55:30.000Z</time>
        <extensions>
          <ns3:TrackPointExtension>
            <ns3:hr>157</ns3:hr>
            <ns3:cad>0</ns3:cad>
          </ns3:TrackPointExtension>
        </extensions>
      </trkpt>
      <trkpt lat="44.7040298022329807281494140625" lon="6.75647101365029811859130859375">
        <ele>1685.199951171875</ele>
        <time>2026-09-03T06:55:31.000Z</time>
        <extensions>
          <ns3:TrackPointExtension>
            <ns3:hr>156</ns3:hr>
            <ns3:cad>0</ns3:cad>
          </ns3:TrackPointExtension>
        </extensions>
      </trkpt>
      <trkpt lat="44.70402971841394901275634765625" lon="6.7564716003835201263427734375">
        <ele>1685.199951171875</ele>
        <time>2026-09-03T06:55:32.000Z</time>
        <extensions>
          <ns3:TrackPointExtension>
            <ns3:hr>156</ns3:hr>
            <ns3:cad>0</ns3:cad>
          </ns3:TrackPointExtension>
        </extensions>
      </trkpt>
      <trkpt lat="44.70403240062296390533447265625" lon="6.7564736120402812957763671875">
        <ele>1685.199951171875</ele>
        <time>2026-09-03T06:55:33.000Z</time>
        <extensions>
          <ns3:TrackPointExtension>
            <ns3:hr>156</ns3:hr>
            <ns3:cad>0</ns3:cad>
          </ns3:TrackPointExtension>
        </extensions>
      </trkpt>
      <trkpt lat="44.7040368430316448211669921875" lon="6.7564751207828521728515625">
        <ele>1685.4000244140625</ele>
        <time>2026-09-03T06:55:34.000Z</time>
        <extensions>
          <ns3:TrackPointExtension>
            <ns3:hr>156</ns3:hr>
            <ns3:cad>0</ns3:cad>
          </ns3:TrackPointExtension>
        </extensions>
      </trkpt>
      <trkpt lat="44.70403910614550113677978515625" lon="6.756483502686023712158203125">
        <ele>1685.4000244140625</ele>
        <time>2026-09-03T06:55:35.000Z</time>
        <extensions>
          <ns3:TrackPointExtension>
            <ns3:hr>156</ns3:hr>
            <ns3:cad>0</ns3:cad>
          </ns3:TrackPointExtension>
        </extensions>
      </trkpt>
      <trkpt lat="44.70403810031712055206298828125" lon="6.75649817101657390594482421875">
        <ele>1685.5999755859375</ele>
        <time>2026-09-03T06:55:36.000Z</time>
        <extensions>
          <ns3:TrackPointExtension>
            <ns3:hr>156</ns3:hr>
            <ns3:cad>0</ns3:cad>
          </ns3:TrackPointExtension>
        </extensions>
      </trkpt>
      <trkpt lat="44.70403860323131084442138671875" lon="6.75649817101657390594482421875">
        <ele>1685.5999755859375</ele>
        <time>2026-09-03T06:55:37.000Z</time>
        <extensions>
          <ns3:TrackPointExtension>
            <ns3:hr>155</ns3:hr>
            <ns3:cad>0</ns3:cad>
          </ns3:TrackPointExtension>
        </extensions>
      </trkpt>
      <trkpt lat="44.7040348313748836517333984375" lon="6.7565158568322658538818359375">
        <ele>1685.800048828125</ele>
        <time>2026-09-03T06:55:38.000Z</time>
        <extensions>
          <ns3:TrackPointExtension>
            <ns3:hr>155</ns3:hr>
            <ns3:cad>0</ns3:cad>
          </ns3:TrackPointExtension>
        </extensions>
      </trkpt>
      <trkpt lat="44.70403089188039302825927734375" lon="6.75652465783059597015380859375">
        <ele>1686</ele>
        <time>2026-09-03T06:55:39.000Z</time>
        <extensions>
          <ns3:TrackPointExtension>
            <ns3:hr>154</ns3:hr>
            <ns3:cad>0</ns3:cad>
          </ns3:TrackPointExtension>
        </extensions>
      </trkpt>
      <trkpt lat="44.7040261141955852508544921875" lon="6.75653840415179729461669921875">
        <ele>1686.199951171875</ele>
        <time>2026-09-03T06:55:40.000Z</time>
        <extensions>
          <ns3:TrackPointExtension>
            <ns3:hr>155</ns3:hr>
            <ns3:cad>0</ns3:cad>
          </ns3:TrackPointExtension>
        </extensions>
      </trkpt>
      <trkpt lat="44.7040222585201263427734375" lon="6.756551899015903472900390625">
        <ele>1686.4000244140625</ele>
        <time>2026-09-03T06:55:41.000Z</time>
        <extensions>
          <ns3:TrackPointExtension>
            <ns3:hr>154</ns3:hr>
            <ns3:cad>0</ns3:cad>
          </ns3:TrackPointExtension>
        </extensions>
      </trkpt>
      <trkpt lat="44.704019241034984588623046875" lon="6.75656287930905818939208984375">
        <ele>1686.5999755859375</ele>
        <time>2026-09-03T06:55:42.000Z</time>
        <extensions>
          <ns3:TrackPointExtension>
            <ns3:hr>155</ns3:hr>
            <ns3:cad>0</ns3:cad>
          </ns3:TrackPointExtension>
        </extensions>
      </trkpt>
      <trkpt lat="44.7040150500833988189697265625" lon="6.75657461397349834442138671875">
        <ele>1686.800048828125</ele>
        <time>2026-09-03T06:55:43.000Z</time>
        <extensions>
          <ns3:TrackPointExtension>
            <ns3:hr>155</ns3:hr>
            <ns3:cad>0</ns3:cad>
          </ns3:TrackPointExtension>
        </extensions>
      </trkpt>
      <trkpt lat="44.7040115296840667724609375" lon="6.75657696090638637542724609375">
        <ele>1686.800048828125</ele>
        <time>2026-09-03T06:55:44.000Z</time>
        <extensions>
          <ns3:TrackPointExtension>
            <ns3:hr>155</ns3:hr>
            <ns3:cad>0</ns3:cad>
          </ns3:TrackPointExtension>
        </extensions>
      </trkpt>
      <trkpt lat="44.70400457270443439483642578125" lon="6.75659020431339740753173828125">
        <ele>1687</ele>
        <time>2026-09-03T06:55:45.000Z</time>
        <extensions>
          <ns3:TrackPointExtension>
            <ns3:hr>155</ns3:hr>
            <ns3:cad>0</ns3:cad>
          </ns3:TrackPointExtension>
        </extensions>
      </trkpt>
      <trkpt lat="44.70400189049541950225830078125" lon="6.7565958201885223388671875">
        <ele>1687.199951171875</ele>
        <time>2026-09-03T06:55:46.000Z</time>
        <extensions>
          <ns3:TrackPointExtension>
            <ns3:hr>154</ns3:hr>
            <ns3:cad>0</ns3:cad>
          </ns3:TrackPointExtension>
        </extensions>
      </trkpt>
      <trkpt lat="44.703995771706104278564453125" lon="6.75660730339586734771728515625">
        <ele>1687.4000244140625</ele>
        <time>2026-09-03T06:55:47.000Z</time>
        <extensions>
          <ns3:TrackPointExtension>
            <ns3:hr>154</ns3:hr>
            <ns3:cad>0</ns3:cad>
          </ns3:TrackPointExtension>
        </extensions>
      </trkpt>
      <trkpt lat="44.7039969451725482940673828125" lon="6.75661535002291202545166015625">
        <ele>1687.5999755859375</ele>
        <time>2026-09-03T06:55:48.000Z</time>
        <extensions>
          <ns3:TrackPointExtension>
            <ns3:hr>153</ns3:hr>
            <ns3:cad>0</ns3:cad>
          </ns3:TrackPointExtension>
        </extensions>
      </trkpt>
      <trkpt lat="44.70399401150643825531005859375" lon="6.756626330316066741943359375">
        <ele>1687.800048828125</ele>
        <time>2026-09-03T06:55:49.000Z</time>
        <extensions>
          <ns3:TrackPointExtension>
            <ns3:hr>153</ns3:hr>
            <ns3:cad>0</ns3:cad>
          </ns3:TrackPointExtension>
        </extensions>
      </trkpt>
      <trkpt lat="44.703994095325469970703125" lon="6.75663613714277744293212890625">
        <ele>1688</ele>
        <time>2026-09-03T06:55:50.000Z</time>
        <extensions>
          <ns3:TrackPointExtension>
            <ns3:hr>153</ns3:hr>
            <ns3:cad>0</ns3:cad>
          </ns3:TrackPointExtension>
        </extensions>
      </trkpt>
      <trkpt lat="44.7039922513067722320556640625" lon="6.756649129092693328857421875">
        <ele>1688</ele>
        <time>2026-09-03T06:55:51.000Z</time>
        <extensions>
          <ns3:TrackPointExtension>
            <ns3:hr>152</ns3:hr>
            <ns3:cad>0</ns3:cad>
          </ns3:TrackPointExtension>
        </extensions>
      </trkpt>
      <trkpt lat="44.703992418944835662841796875" lon="6.75666597671806812286376953125">
        <ele>1688.199951171875</ele>
        <time>2026-09-03T06:55:52.000Z</time>
        <extensions>
          <ns3:TrackPointExtension>
            <ns3:hr>152</ns3:hr>
            <ns3:cad>0</ns3:cad>
          </ns3:TrackPointExtension>
        </extensions>
      </trkpt>
      <trkpt lat="44.7039932571351528167724609375" lon="6.756674945354461669921875">
        <ele>1688.4000244140625</ele>
        <time>2026-09-03T06:55:53.000Z</time>
        <extensions>
          <ns3:TrackPointExtension>
            <ns3:hr>153</ns3:hr>
            <ns3:cad>0</ns3:cad>
          </ns3:TrackPointExtension>
        </extensions>
      </trkpt>
      <trkpt lat="44.70398898236453533172607421875" lon="6.75669573247432708740234375">
        <ele>1688.5999755859375</ele>
        <time>2026-09-03T06:55:54.000Z</time>
        <extensions>
          <ns3:TrackPointExtension>
            <ns3:hr>153</ns3:hr>
            <ns3:cad>0</ns3:cad>
          </ns3:TrackPointExtension>
        </extensions>
      </trkpt>
      <trkpt lat="44.7039885632693767547607421875" lon="6.75670151598751544952392578125">
        <ele>1688.800048828125</ele>
        <time>2026-09-03T06:55:55.000Z</time>
        <extensions>
          <ns3:TrackPointExtension>
            <ns3:hr>153</ns3:hr>
            <ns3:cad>0</ns3:cad>
          </ns3:TrackPointExtension>
        </extensions>
      </trkpt>
      <trkpt lat="44.70398680306971073150634765625" lon="6.75671593286097049713134765625">
        <ele>1689</ele>
        <time>2026-09-03T06:55:56.000Z</time>
        <extensions>
          <ns3:TrackPointExtension>
            <ns3:hr>154</ns3:hr>
            <ns3:cad>0</ns3:cad>
          </ns3:TrackPointExtension>
        </extensions>
      </trkpt>
      <trkpt lat="44.70398269593715667724609375" lon="6.756730936467647552490234375">
        <ele>1689.4000244140625</ele>
        <time>2026-09-03T06:55:57.000Z</time>
        <extensions>
          <ns3:TrackPointExtension>
            <ns3:hr>154</ns3:hr>
            <ns3:cad>0</ns3:cad>
          </ns3:TrackPointExtension>
        </extensions>
      </trkpt>
      <trkpt lat="44.703981690108776092529296875" lon="6.756741665303707122802734375">
        <ele>1689.5999755859375</ele>
        <time>2026-09-03T06:55:58.000Z</time>
        <extensions>
          <ns3:TrackPointExtension>
            <ns3:hr>155</ns3:hr>
            <ns3:cad>40</ns3:cad>
          </ns3:TrackPointExtension>
        </extensions>
      </trkpt>
      <trkpt lat="44.70397976227104663848876953125" lon="6.75675113685429096221923828125">
        <ele>1689.800048828125</ele>
        <time>2026-09-03T06:55:59.000Z</time>
        <extensions>
          <ns3:TrackPointExtension>
            <ns3:hr>155</ns3:hr>
            <ns3:cad>40</ns3:cad>
          </ns3:TrackPointExtension>
        </extensions>
      </trkpt>
      <trkpt lat="44.70398194156587123870849609375" lon="6.7567659728229045867919921875">
        <ele>1689.800048828125</ele>
        <time>2026-09-03T06:56:00.000Z</time>
        <extensions>
          <ns3:TrackPointExtension>
            <ns3:hr>156</ns3:hr>
            <ns3:cad>0</ns3:cad>
          </ns3:TrackPointExtension>
        </extensions>
      </trkpt>
      <trkpt lat="44.70398043282330036163330078125" lon="6.75677494145929813385009765625">
        <ele>1690</ele>
        <time>2026-09-03T06:56:01.000Z</time>
        <extensions>
          <ns3:TrackPointExtension>
            <ns3:hr>156</ns3:hr>
            <ns3:cad>0</ns3:cad>
          </ns3:TrackPointExtension>
        </extensions>
      </trkpt>
      <trkpt lat="44.70397976227104663848876953125" lon="6.75677326507866382598876953125">
        <ele>1690.199951171875</ele>
        <time>2026-09-03T06:56:02.000Z</time>
        <extensions>
          <ns3:TrackPointExtension>
            <ns3:hr>157</ns3:hr>
            <ns3:cad>0</ns3:cad>
          </ns3:TrackPointExtension>
        </extensions>
      </trkpt>
      <trkpt lat="44.7039801813662052154541015625" lon="6.7567840777337551116943359375">
        <ele>1690.4000244140625</ele>
        <time>2026-09-03T06:56:03.000Z</time>
        <extensions>
          <ns3:TrackPointExtension>
            <ns3:hr>157</ns3:hr>
            <ns3:cad>0</ns3:cad>
          </ns3:TrackPointExtension>
        </extensions>
      </trkpt>
      <trkpt lat="44.703983031213283538818359375" lon="6.75678692758083343505859375">
        <ele>1690.5999755859375</ele>
        <time>2026-09-03T06:56:04.000Z</time>
        <extensions>
          <ns3:TrackPointExtension>
            <ns3:hr>157</ns3:hr>
            <ns3:cad>0</ns3:cad>
          </ns3:TrackPointExtension>
        </extensions>
      </trkpt>
      <trkpt lat="44.70397733151912689208984375" lon="6.75679229199886322021484375">
        <ele>1690.800048828125</ele>
        <time>2026-09-03T06:56:05.000Z</time>
        <extensions>
          <ns3:TrackPointExtension>
            <ns3:hr>158</ns3:hr>
            <ns3:cad>0</ns3:cad>
          </ns3:TrackPointExtension>
        </extensions>
      </trkpt>
      <trkpt lat="44.70397322438657283782958984375" lon="6.75679572857916355133056640625">
        <ele>1691</ele>
        <time>2026-09-03T06:56:06.000Z</time>
        <extensions>
          <ns3:TrackPointExtension>
            <ns3:hr>158</ns3:hr>
            <ns3:cad>0</ns3:cad>
          </ns3:TrackPointExtension>
        </extensions>
      </trkpt>
      <trkpt lat="44.70396794378757476806640625" lon="6.756804697215557098388671875">
        <ele>1691.199951171875</ele>
        <time>2026-09-03T06:56:07.000Z</time>
        <extensions>
          <ns3:TrackPointExtension>
            <ns3:hr>158</ns3:hr>
            <ns3:cad>0</ns3:cad>
          </ns3:TrackPointExtension>
        </extensions>
      </trkpt>
      <trkpt lat="44.70396702177822589874267578125" lon="6.756814420223236083984375">
        <ele>1691.4000244140625</ele>
        <time>2026-09-03T06:56:08.000Z</time>
        <extensions>
          <ns3:TrackPointExtension>
            <ns3:hr>159</ns3:hr>
            <ns3:cad>0</ns3:cad>
          </ns3:TrackPointExtension>
        </extensions>
      </trkpt>
      <trkpt lat="44.70396584831178188323974609375" lon="6.7568239755928516387939453125">
        <ele>1691.5999755859375</ele>
        <time>2026-09-03T06:56:09.000Z</time>
        <extensions>
          <ns3:TrackPointExtension>
            <ns3:hr>159</ns3:hr>
            <ns3:cad>0</ns3:cad>
          </ns3:TrackPointExtension>
        </extensions>
      </trkpt>
      <trkpt lat="44.70396450720727443695068359375" lon="6.75683193840086460113525390625">
        <ele>1691.800048828125</ele>
        <time>2026-09-03T06:56:10.000Z</time>
        <extensions>
          <ns3:TrackPointExtension>
            <ns3:hr>160</ns3:hr>
            <ns3:cad>0</ns3:cad>
          </ns3:TrackPointExtension>
        </extensions>
      </trkpt>
      <trkpt lat="44.7039637528359889984130859375" lon="6.7568360455334186553955078125">
        <ele>1692</ele>
        <time>2026-09-03T06:56:11.000Z</time>
        <extensions>
          <ns3:TrackPointExtension>
            <ns3:hr>160</ns3:hr>
            <ns3:cad>0</ns3:cad>
          </ns3:TrackPointExtension>
        </extensions>
      </trkpt>
      <trkpt lat="44.70395729877054691314697265625" lon="6.756847612559795379638671875">
        <ele>1692.199951171875</ele>
        <time>2026-09-03T06:56:12.000Z</time>
        <extensions>
          <ns3:TrackPointExtension>
            <ns3:hr>161</ns3:hr>
            <ns3:cad>0</ns3:cad>
          </ns3:TrackPointExtension>
        </extensions>
      </trkpt>
      <trkpt lat="44.70395964570343494415283203125" lon="6.756854988634586334228515625">
        <ele>1692.4000244140625</ele>
        <time>2026-09-03T06:56:13.000Z</time>
        <extensions>
          <ns3:TrackPointExtension>
            <ns3:hr>162</ns3:hr>
            <ns3:cad>0</ns3:cad>
          </ns3:TrackPointExtension>
        </extensions>
      </trkpt>
      <trkpt lat="44.70395344309508800506591796875" lon="6.75686814822256565093994140625">
        <ele>1692.5999755859375</ele>
        <time>2026-09-03T06:56:14.000Z</time>
        <extensions>
          <ns3:TrackPointExtension>
            <ns3:hr>162</ns3:hr>
            <ns3:cad>0</ns3:cad>
          </ns3:TrackPointExtension>
        </extensions>
      </trkpt>
      <trkpt lat="44.70395159907639026641845703125" lon="6.75686814822256565093994140625">
        <ele>1692.800048828125</ele>
        <time>2026-09-03T06:56:15.000Z</time>
        <extensions>
          <ns3:TrackPointExtension>
            <ns3:hr>162</ns3:hr>
            <ns3:cad>0</ns3:cad>
          </ns3:TrackPointExtension>
        </extensions>
      </trkpt>
      <trkpt lat="44.7039419598877429962158203125" lon="6.7568801343441009521484375">
        <ele>1693</ele>
        <time>2026-09-03T06:56:16.000Z</time>
        <extensions>
          <ns3:TrackPointExtension>
            <ns3:hr>163</ns3:hr>
            <ns3:cad>0</ns3:cad>
          </ns3:TrackPointExtension>
        </extensions>
      </trkpt>
      <trkpt lat="44.70393282361328601837158203125" lon="6.7568908631801605224609375">
        <ele>1693.199951171875</ele>
        <time>2026-09-03T06:56:17.000Z</time>
        <extensions>
          <ns3:TrackPointExtension>
            <ns3:hr>163</ns3:hr>
            <ns3:cad>0</ns3:cad>
          </ns3:TrackPointExtension>
        </extensions>
      </trkpt>
      <trkpt lat="44.70392343588173389434814453125" lon="6.75689027644693851470947265625">
        <ele>1693.4000244140625</ele>
        <time>2026-09-03T06:56:18.000Z</time>
        <extensions>
          <ns3:TrackPointExtension>
            <ns3:hr>163</ns3:hr>
            <ns3:cad>0</ns3:cad>
          </ns3:TrackPointExtension>
        </extensions>
      </trkpt>
      <trkpt lat="44.703919999301433563232421875" lon="6.75689287483692169189453125">
        <ele>1693.5999755859375</ele>
        <time>2026-09-03T06:56:19.000Z</time>
        <extensions>
          <ns3:TrackPointExtension>
            <ns3:hr>163</ns3:hr>
            <ns3:cad>0</ns3:cad>
          </ns3:TrackPointExtension>
        </extensions>
      </trkpt>
      <trkpt lat="44.70391756854951381683349609375" lon="6.7568927071988582611083984375">
        <ele>1693.5999755859375</ele>
        <time>2026-09-03T06:56:20.000Z</time>
        <extensions>
          <ns3:TrackPointExtension>
            <ns3:hr>163</ns3:hr>
            <ns3:cad>0</ns3:cad>
          </ns3:TrackPointExtension>
        </extensions>
      </trkpt>
      <trkpt lat="44.70391371287405490875244140625" lon="6.75689916126430034637451171875">
        <ele>1693.800048828125</ele>
        <time>2026-09-03T06:56:21.000Z</time>
        <extensions>
          <ns3:TrackPointExtension>
            <ns3:hr>164</ns3:hr>
            <ns3:cad>0</ns3:cad>
          </ns3:TrackPointExtension>
        </extensions>
      </trkpt>
      <trkpt lat="44.7039121203124523162841796875" lon="6.7569017596542835235595703125">
        <ele>1693.800048828125</ele>
        <time>2026-09-03T06:56:22.000Z</time>
        <extensions>
          <ns3:TrackPointExtension>
            <ns3:hr>163</ns3:hr>
            <ns3:cad>0</ns3:cad>
          </ns3:TrackPointExtension>
        </extensions>
      </trkpt>
      <trkpt lat="44.70390214584767818450927734375" lon="6.7569024302065372467041015625">
        <ele>1694</ele>
        <time>2026-09-03T06:56:23.000Z</time>
        <extensions>
          <ns3:TrackPointExtension>
            <ns3:hr>164</ns3:hr>
            <ns3:cad>0</ns3:cad>
          </ns3:TrackPointExtension>
        </extensions>
      </trkpt>
      <trkpt lat="44.70389678142964839935302734375" lon="6.75691022537648677825927734375">
        <ele>1694</ele>
        <time>2026-09-03T06:56:24.000Z</time>
        <extensions>
          <ns3:TrackPointExtension>
            <ns3:hr>163</ns3:hr>
            <ns3:cad>0</ns3:cad>
          </ns3:TrackPointExtension>
        </extensions>
      </trkpt>
      <trkpt lat="44.70388613641262054443359375" lon="6.7569134943187236785888671875">
        <ele>1694.199951171875</ele>
        <time>2026-09-03T06:56:25.000Z</time>
        <extensions>
          <ns3:TrackPointExtension>
            <ns3:hr>164</ns3:hr>
            <ns3:cad>0</ns3:cad>
          </ns3:TrackPointExtension>
        </extensions>
      </trkpt>
      <trkpt lat="44.70387767069041728973388671875" lon="6.75691961310803890228271484375">
        <ele>1694.4000244140625</ele>
        <time>2026-09-03T06:56:26.000Z</time>
        <extensions>
          <ns3:TrackPointExtension>
            <ns3:hr>164</ns3:hr>
            <ns3:cad>0</ns3:cad>
          </ns3:TrackPointExtension>
        </extensions>
      </trkpt>
      <trkpt lat="44.70387012697756290435791015625" lon="6.756925396621227264404296875">
        <ele>1694.5999755859375</ele>
        <time>2026-09-03T06:56:27.000Z</time>
        <extensions>
          <ns3:TrackPointExtension>
            <ns3:hr>163</ns3:hr>
            <ns3:cad>0</ns3:cad>
          </ns3:TrackPointExtension>
        </extensions>
      </trkpt>
      <trkpt lat="44.7038675285875797271728515625" lon="6.75692732445895671844482421875">
        <ele>1694.800048828125</ele>
        <time>2026-09-03T06:56:28.000Z</time>
        <extensions>
          <ns3:TrackPointExtension>
            <ns3:hr>163</ns3:hr>
            <ns3:cad>0</ns3:cad>
          </ns3:TrackPointExtension>
        </extensions>
      </trkpt>
      <trkpt lat="44.703854620456695556640625" lon="6.756932102143764495849609375">
        <ele>1695</ele>
        <time>2026-09-03T06:56:29.000Z</time>
        <extensions>
          <ns3:TrackPointExtension>
            <ns3:hr>163</ns3:hr>
            <ns3:cad>0</ns3:cad>
          </ns3:TrackPointExtension>
        </extensions>
      </trkpt>
      <trkpt lat="44.7038480825722217559814453125" lon="6.75693520344793796539306640625">
        <ele>1695.4000244140625</ele>
        <time>2026-09-03T06:56:30.000Z</time>
        <extensions>
          <ns3:TrackPointExtension>
            <ns3:hr>162</ns3:hr>
            <ns3:cad>0</ns3:cad>
          </ns3:TrackPointExtension>
        </extensions>
      </trkpt>
      <trkpt lat="44.70384129323065280914306640625" lon="6.7569389753043651580810546875">
        <ele>1695.5999755859375</ele>
        <time>2026-09-03T06:56:31.000Z</time>
        <extensions>
          <ns3:TrackPointExtension>
            <ns3:hr>161</ns3:hr>
            <ns3:cad>0</ns3:cad>
          </ns3:TrackPointExtension>
        </extensions>
      </trkpt>
      <trkpt lat="44.70383626408874988555908203125" lon="6.75693972967565059661865234375">
        <ele>1695.800048828125</ele>
        <time>2026-09-03T06:56:32.000Z</time>
        <extensions>
          <ns3:TrackPointExtension>
            <ns3:hr>160</ns3:hr>
            <ns3:cad>0</ns3:cad>
          </ns3:TrackPointExtension>
        </extensions>
      </trkpt>
      <trkpt lat="44.7038256190717220306396484375" lon="6.7569466866552829742431640625">
        <ele>1696</ele>
        <time>2026-09-03T06:56:33.000Z</time>
        <extensions>
          <ns3:TrackPointExtension>
            <ns3:hr>160</ns3:hr>
            <ns3:cad>0</ns3:cad>
          </ns3:TrackPointExtension>
        </extensions>
      </trkpt>
      <trkpt lat="44.7038219310343265533447265625" lon="6.75695096142590045928955078125">
        <ele>1696.199951171875</ele>
        <time>2026-09-03T06:56:34.000Z</time>
        <extensions>
          <ns3:TrackPointExtension>
            <ns3:hr>159</ns3:hr>
            <ns3:cad>0</ns3:cad>
          </ns3:TrackPointExtension>
        </extensions>
      </trkpt>
      <trkpt lat="44.70381774008274078369140625" lon="6.75696068443357944488525390625">
        <ele>1696.4000244140625</ele>
        <time>2026-09-03T06:56:35.000Z</time>
        <extensions>
          <ns3:TrackPointExtension>
            <ns3:hr>159</ns3:hr>
            <ns3:cad>0</ns3:cad>
          </ns3:TrackPointExtension>
        </extensions>
      </trkpt>
      <trkpt lat="44.70380860380828380584716796875" lon="6.75696604885160923004150390625">
        <ele>1696.4000244140625</ele>
        <time>2026-09-03T06:56:36.000Z</time>
        <extensions>
          <ns3:TrackPointExtension>
            <ns3:hr>159</ns3:hr>
            <ns3:cad>0</ns3:cad>
          </ns3:TrackPointExtension>
        </extensions>
      </trkpt>
      <trkpt lat="44.70380365848541259765625" lon="6.75697728060185909271240234375">
        <ele>1696.5999755859375</ele>
        <time>2026-09-03T06:56:37.000Z</time>
        <extensions>
          <ns3:TrackPointExtension>
            <ns3:hr>158</ns3:hr>
            <ns3:cad>0</ns3:cad>
          </ns3:TrackPointExtension>
        </extensions>
      </trkpt>
      <trkpt lat="44.70379854552447795867919921875" lon="6.7569936253130435943603515625">
        <ele>1696.800048828125</ele>
        <time>2026-09-03T06:56:38.000Z</time>
        <extensions>
          <ns3:TrackPointExtension>
            <ns3:hr>158</ns3:hr>
            <ns3:cad>0</ns3:cad>
          </ns3:TrackPointExtension>
        </extensions>
      </trkpt>
      <trkpt lat="44.7037944383919239044189453125" lon="6.7569999955594539642333984375">
        <ele>1697</ele>
        <time>2026-09-03T06:56:39.000Z</time>
        <extensions>
          <ns3:TrackPointExtension>
            <ns3:hr>158</ns3:hr>
            <ns3:cad>0</ns3:cad>
          </ns3:TrackPointExtension>
        </extensions>
      </trkpt>
      <trkpt lat="44.70379351638257503509521484375" lon="6.75700024701654911041259765625">
        <ele>1697.199951171875</ele>
        <time>2026-09-03T06:56:40.000Z</time>
        <extensions>
          <ns3:TrackPointExtension>
            <ns3:hr>157</ns3:hr>
            <ns3:cad>0</ns3:cad>
          </ns3:TrackPointExtension>
        </extensions>
      </trkpt>
      <trkpt lat="44.7037937678396701812744140625" lon="6.756999157369136810302734375">
        <ele>1697.4000244140625</ele>
        <time>2026-09-03T06:56:41.000Z</time>
        <extensions>
          <ns3:TrackPointExtension>
            <ns3:hr>157</ns3:hr>
            <ns3:cad>0</ns3:cad>
          </ns3:TrackPointExtension>
        </extensions>
      </trkpt>
      <trkpt lat="44.70379401929676532745361328125" lon="6.75700016319751739501953125">
        <ele>1697.4000244140625</ele>
        <time>2026-09-03T06:56:42.000Z</time>
        <extensions>
          <ns3:TrackPointExtension>
            <ns3:hr>156</ns3:hr>
            <ns3:cad>0</ns3:cad>
          </ns3:TrackPointExtension>
        </extensions>
      </trkpt>
      <trkpt lat="44.70379435457289218902587890625" lon="6.7570056952536106109619140625">
        <ele>1697.5999755859375</ele>
        <time>2026-09-03T06:56:43.000Z</time>
        <extensions>
          <ns3:TrackPointExtension>
            <ns3:hr>156</ns3:hr>
            <ns3:cad>0</ns3:cad>
          </ns3:TrackPointExtension>
        </extensions>
      </trkpt>
      <trkpt lat="44.70379804261028766632080078125" lon="6.75701432861387729644775390625">
        <ele>1697.5999755859375</ele>
        <time>2026-09-03T06:56:44.000Z</time>
        <extensions>
          <ns3:TrackPointExtension>
            <ns3:hr>155</ns3:hr>
            <ns3:cad>0</ns3:cad>
          </ns3:TrackPointExtension>
        </extensions>
      </trkpt>
      <trkpt lat="44.703795276582241058349609375" lon="6.75701902247965335845947265625">
        <ele>1697.5999755859375</ele>
        <time>2026-09-03T06:56:45.000Z</time>
        <extensions>
          <ns3:TrackPointExtension>
            <ns3:hr>155</ns3:hr>
            <ns3:cad>0</ns3:cad>
          </ns3:TrackPointExtension>
        </extensions>
      </trkpt>
      <trkpt lat="44.703795611858367919921875" lon="6.757024638354778289794921875">
        <ele>1697.5999755859375</ele>
        <time>2026-09-03T06:56:46.000Z</time>
        <extensions>
          <ns3:TrackPointExtension>
            <ns3:hr>154</ns3:hr>
            <ns3:cad>0</ns3:cad>
          </ns3:TrackPointExtension>
        </extensions>
      </trkpt>
      <trkpt lat="44.703789241611957550048828125" lon="6.75703695975244045257568359375">
        <ele>1697.5999755859375</ele>
        <time>2026-09-03T06:56:47.000Z</time>
        <extensions>
          <ns3:TrackPointExtension>
            <ns3:hr>154</ns3:hr>
            <ns3:cad>0</ns3:cad>
          </ns3:TrackPointExtension>
        </extensions>
      </trkpt>
      <trkpt lat="44.703784547746181488037109375" lon="6.75704467110335826873779296875">
        <ele>1697.800048828125</ele>
        <time>2026-09-03T06:56:48.000Z</time>
        <extensions>
          <ns3:TrackPointExtension>
            <ns3:hr>154</ns3:hr>
            <ns3:cad>0</ns3:cad>
          </ns3:TrackPointExtension>
        </extensions>
      </trkpt>
      <trkpt lat="44.7037803567945957183837890625" lon="6.7570506222546100616455078125">
        <ele>1697.800048828125</ele>
        <time>2026-09-03T06:56:49.000Z</time>
        <extensions>
          <ns3:TrackPointExtension>
            <ns3:hr>153</ns3:hr>
            <ns3:cad>0</ns3:cad>
          </ns3:TrackPointExtension>
        </extensions>
      </trkpt>
      <trkpt lat="44.7037773393094539642333984375" lon="6.7570506222546100616455078125">
        <ele>1698</ele>
        <time>2026-09-03T06:56:50.000Z</time>
        <extensions>
          <ns3:TrackPointExtension>
            <ns3:hr>153</ns3:hr>
            <ns3:cad>0</ns3:cad>
          </ns3:TrackPointExtension>
        </extensions>
      </trkpt>
      <trkpt lat="44.70377348363399505615234375" lon="6.7570593394339084625244140625">
        <ele>1698.4000244140625</ele>
        <time>2026-09-03T06:56:51.000Z</time>
        <extensions>
          <ns3:TrackPointExtension>
            <ns3:hr>153</ns3:hr>
            <ns3:cad>0</ns3:cad>
          </ns3:TrackPointExtension>
        </extensions>
      </trkpt>
      <trkpt lat="44.70377038232982158660888671875" lon="6.757052130997180938720703125">
        <ele>1698.5999755859375</ele>
        <time>2026-09-03T06:56:52.000Z</time>
        <extensions>
          <ns3:TrackPointExtension>
            <ns3:hr>153</ns3:hr>
            <ns3:cad>0</ns3:cad>
          </ns3:TrackPointExtension>
        </extensions>
      </trkpt>
      <trkpt lat="44.70375881530344486236572265625" lon="6.7570533044636249542236328125">
        <ele>1698.800048828125</ele>
        <time>2026-09-03T06:56:53.000Z</time>
        <extensions>
          <ns3:TrackPointExtension>
            <ns3:hr>152</ns3:hr>
            <ns3:cad>0</ns3:cad>
          </ns3:TrackPointExtension>
        </extensions>
      </trkpt>
      <trkpt lat="44.7037525288760662078857421875" lon="6.7570499517023563385009765625">
        <ele>1699</ele>
        <time>2026-09-03T06:56:54.000Z</time>
        <extensions>
          <ns3:TrackPointExtension>
            <ns3:hr>152</ns3:hr>
            <ns3:cad>0</ns3:cad>
          </ns3:TrackPointExtension>
        </extensions>
      </trkpt>
      <trkpt lat="44.7037411294877529144287109375" lon="6.757053472101688385009765625">
        <ele>1699.199951171875</ele>
        <time>2026-09-03T06:56:55.000Z</time>
        <extensions>
          <ns3:TrackPointExtension>
            <ns3:hr>152</ns3:hr>
            <ns3:cad>0</ns3:cad>
          </ns3:TrackPointExtension>
        </extensions>
      </trkpt>
      <trkpt lat="44.70373651944100856781005859375" lon="6.7570583336055278778076171875">
        <ele>1699.4000244140625</ele>
        <time>2026-09-03T06:56:56.000Z</time>
        <extensions>
          <ns3:TrackPointExtension>
            <ns3:hr>152</ns3:hr>
            <ns3:cad>0</ns3:cad>
          </ns3:TrackPointExtension>
        </extensions>
      </trkpt>
      <trkpt lat="44.7037300653755664825439453125" lon="6.75705523230135440826416015625">
        <ele>1699.5999755859375</ele>
        <time>2026-09-03T06:56:57.000Z</time>
        <extensions>
          <ns3:TrackPointExtension>
            <ns3:hr>151</ns3:hr>
            <ns3:cad>0</ns3:cad>
          </ns3:TrackPointExtension>
        </extensions>
      </trkpt>
      <trkpt lat="44.70372444950044155120849609375" lon="6.75706109963357448577880859375">
        <ele>1699.800048828125</ele>
        <time>2026-09-03T06:56:58.000Z</time>
        <extensions>
          <ns3:TrackPointExtension>
            <ns3:hr>152</ns3:hr>
            <ns3:cad>0</ns3:cad>
          </ns3:TrackPointExtension>
        </extensions>
      </trkpt>
      <trkpt lat="44.70372377894818782806396484375" lon="6.757069565355777740478515625">
        <ele>1700</ele>
        <time>2026-09-03T06:56:59.000Z</time>
        <extensions>
          <ns3:TrackPointExtension>
            <ns3:hr>152</ns3:hr>
            <ns3:cad>51</ns3:cad>
          </ns3:TrackPointExtension>
        </extensions>
      </trkpt>
      <trkpt lat="44.70371992327272891998291015625" lon="6.757076270878314971923828125">
        <ele>1700.199951171875</ele>
        <time>2026-09-03T06:57:00.000Z</time>
        <extensions>
          <ns3:TrackPointExtension>
            <ns3:hr>153</ns3:hr>
            <ns3:cad>51</ns3:cad>
          </ns3:TrackPointExtension>
        </extensions>
      </trkpt>
      <trkpt lat="44.7037164866924285888671875" lon="6.757082976400852203369140625">
        <ele>1700.4000244140625</ele>
        <time>2026-09-03T06:57:01.000Z</time>
        <extensions>
          <ns3:TrackPointExtension>
            <ns3:hr>153</ns3:hr>
            <ns3:cad>51</ns3:cad>
          </ns3:TrackPointExtension>
        </extensions>
      </trkpt>
      <trkpt lat="44.70371388830244541168212890625" lon="6.7570905201137065887451171875">
        <ele>1700.5999755859375</ele>
        <time>2026-09-03T06:57:02.000Z</time>
        <extensions>
          <ns3:TrackPointExtension>
            <ns3:hr>153</ns3:hr>
            <ns3:cad>51</ns3:cad>
          </ns3:TrackPointExtension>
        </extensions>
      </trkpt>
      <trkpt lat="44.70371170900762081146240234375" lon="6.75709596835076808929443359375">
        <ele>1700.800048828125</ele>
        <time>2026-09-03T06:57:03.000Z</time>
        <extensions>
          <ns3:TrackPointExtension>
            <ns3:hr>153</ns3:hr>
            <ns3:cad>51</ns3:cad>
          </ns3:TrackPointExtension>
        </extensions>
      </trkpt>
      <trkpt lat="44.70371003262698650360107421875" lon="6.75710150040686130523681640625">
        <ele>1701</ele>
        <time>2026-09-03T06:57:04.000Z</time>
        <extensions>
          <ns3:TrackPointExtension>
            <ns3:hr>154</ns3:hr>
            <ns3:cad>51</ns3:cad>
          </ns3:TrackPointExtension>
        </extensions>
      </trkpt>
      <trkpt lat="44.70370701514184474945068359375" lon="6.757109798491001129150390625">
        <ele>1701.199951171875</ele>
        <time>2026-09-03T06:57:05.000Z</time>
        <extensions>
          <ns3:TrackPointExtension>
            <ns3:hr>155</ns3:hr>
            <ns3:cad>0</ns3:cad>
          </ns3:TrackPointExtension>
        </extensions>
      </trkpt>
      <trkpt lat="44.7037045843899250030517578125" lon="6.75711440853774547576904296875">
        <ele>1701.4000244140625</ele>
        <time>2026-09-03T06:57:06.000Z</time>
        <extensions>
          <ns3:TrackPointExtension>
            <ns3:hr>155</ns3:hr>
            <ns3:cad>0</ns3:cad>
          </ns3:TrackPointExtension>
        </extensions>
      </trkpt>
      <trkpt lat="44.7037017345428466796875" lon="6.75712329335510730743408203125">
        <ele>1701.5999755859375</ele>
        <time>2026-09-03T06:57:07.000Z</time>
        <extensions>
          <ns3:TrackPointExtension>
            <ns3:hr>155</ns3:hr>
            <ns3:cad>0</ns3:cad>
          </ns3:TrackPointExtension>
        </extensions>
      </trkpt>
      <trkpt lat="44.70369838178157806396484375" lon="6.7571327649056911468505859375">
        <ele>1701.800048828125</ele>
        <time>2026-09-03T06:57:08.000Z</time>
        <extensions>
          <ns3:TrackPointExtension>
            <ns3:hr>156</ns3:hr>
            <ns3:cad>0</ns3:cad>
          </ns3:TrackPointExtension>
        </extensions>
      </trkpt>
      <trkpt lat="44.703693687915802001953125" lon="6.75714106298983097076416015625">
        <ele>1702</ele>
        <time>2026-09-03T06:57:09.000Z</time>
        <extensions>
          <ns3:TrackPointExtension>
            <ns3:hr>156</ns3:hr>
            <ns3:cad>0</ns3:cad>
          </ns3:TrackPointExtension>
        </extensions>
      </trkpt>
      <trkpt lat="44.70368639566004276275634765625" lon="6.75715128891170024871826171875">
        <ele>1702.199951171875</ele>
        <time>2026-09-03T06:57:10.000Z</time>
        <extensions>
          <ns3:TrackPointExtension>
            <ns3:hr>156</ns3:hr>
            <ns3:cad>0</ns3:cad>
          </ns3:TrackPointExtension>
        </extensions>
      </trkpt>
      <trkpt lat="44.7036844678223133087158203125" lon="6.7571612633764743804931640625">
        <ele>1702.4000244140625</ele>
        <time>2026-09-03T06:57:11.000Z</time>
        <extensions>
          <ns3:TrackPointExtension>
            <ns3:hr>157</ns3:hr>
            <ns3:cad>0</ns3:cad>
          </ns3:TrackPointExtension>
        </extensions>
      </trkpt>
      <trkpt lat="44.7036791034042835235595703125" lon="6.75717039965093135833740234375">
        <ele>1702.5999755859375</ele>
        <time>2026-09-03T06:57:12.000Z</time>
        <extensions>
          <ns3:TrackPointExtension>
            <ns3:hr>159</ns3:hr>
            <ns3:cad>0</ns3:cad>
          </ns3:TrackPointExtension>
        </extensions>
      </trkpt>
      <trkpt lat="44.703669212758541107177734375" lon="6.75716922618448734283447265625">
        <ele>1702.5999755859375</ele>
        <time>2026-09-03T06:57:13.000Z</time>
        <extensions>
          <ns3:TrackPointExtension>
            <ns3:hr>164</ns3:hr>
            <ns3:cad>0</ns3:cad>
          </ns3:TrackPointExtension>
        </extensions>
      </trkpt>
      <trkpt lat="44.7036596573889255523681640625" lon="6.757178865373134613037109375">
        <ele>1702.800048828125</ele>
        <time>2026-09-03T06:57:14.000Z</time>
        <extensions>
          <ns3:TrackPointExtension>
            <ns3:hr>166</ns3:hr>
            <ns3:cad>0</ns3:cad>
          </ns3:TrackPointExtension>
        </extensions>
      </trkpt>
      <trkpt lat="44.70365018583834171295166015625" lon="6.75718448124825954437255859375">
        <ele>1703</ele>
        <time>2026-09-03T06:57:15.000Z</time>
        <extensions>
          <ns3:TrackPointExtension>
            <ns3:hr>167</ns3:hr>
            <ns3:cad>0</ns3:cad>
          </ns3:TrackPointExtension>
        </extensions>
      </trkpt>
      <trkpt lat="44.70364314503967761993408203125" lon="6.7571887560188770294189453125">
        <ele>1703.199951171875</ele>
        <time>2026-09-03T06:57:16.000Z</time>
        <extensions>
          <ns3:TrackPointExtension>
            <ns3:hr>167</ns3:hr>
            <ns3:cad>0</ns3:cad>
          </ns3:TrackPointExtension>
        </extensions>
      </trkpt>
      <trkpt lat="44.70363778062164783477783203125" lon="6.75719722174108028411865234375">
        <ele>1703.4000244140625</ele>
        <time>2026-09-03T06:57:17.000Z</time>
        <extensions>
          <ns3:TrackPointExtension>
            <ns3:hr>168</ns3:hr>
            <ns3:cad>0</ns3:cad>
          </ns3:TrackPointExtension>
        </extensions>
      </trkpt>
      <trkpt lat="44.703640043735504150390625" lon="6.75720660947263240814208984375">
        <ele>1703.5999755859375</ele>
        <time>2026-09-03T06:57:18.000Z</time>
        <extensions>
          <ns3:TrackPointExtension>
            <ns3:hr>168</ns3:hr>
            <ns3:cad>0</ns3:cad>
          </ns3:TrackPointExtension>
        </extensions>
      </trkpt>
      <trkpt lat="44.70362721942365169525146484375" lon="6.75722546875476837158203125">
        <ele>1703.800048828125</ele>
        <time>2026-09-03T06:57:19.000Z</time>
        <extensions>
          <ns3:TrackPointExtension>
            <ns3:hr>168</ns3:hr>
            <ns3:cad>0</ns3:cad>
          </ns3:TrackPointExtension>
        </extensions>
      </trkpt>
      <trkpt lat="44.7036197595298290252685546875" lon="6.75723192282021045684814453125">
        <ele>1704</ele>
        <time>2026-09-03T06:57:20.000Z</time>
        <extensions>
          <ns3:TrackPointExtension>
            <ns3:hr>169</ns3:hr>
            <ns3:cad>0</ns3:cad>
          </ns3:TrackPointExtension>
        </extensions>
      </trkpt>
      <trkpt lat="44.70360978506505489349365234375" lon="6.7572462558746337890625">
        <ele>1704.199951171875</ele>
        <time>2026-09-03T06:57:21.000Z</time>
        <extensions>
          <ns3:TrackPointExtension>
            <ns3:hr>169</ns3:hr>
            <ns3:cad>0</ns3:cad>
          </ns3:TrackPointExtension>
        </extensions>
      </trkpt>
      <trkpt lat="44.7035989724099636077880859375" lon="6.757254302501678466796875">
        <ele>1704.4000244140625</ele>
        <time>2026-09-03T06:57:22.000Z</time>
        <extensions>
          <ns3:TrackPointExtension>
            <ns3:hr>170</ns3:hr>
            <ns3:cad>0</ns3:cad>
          </ns3:TrackPointExtension>
        </extensions>
      </trkpt>
      <trkpt lat="44.70359000377357006072998046875" lon="6.7572564817965030670166015625">
        <ele>1704.4000244140625</ele>
        <time>2026-09-03T06:57:23.000Z</time>
        <extensions>
          <ns3:TrackPointExtension>
            <ns3:hr>170</ns3:hr>
            <ns3:cad>0</ns3:cad>
          </ns3:TrackPointExtension>
        </extensions>
      </trkpt>
      <trkpt lat="44.7035823762416839599609375" lon="6.7572615109384059906005859375">
        <ele>1704.5999755859375</ele>
        <time>2026-09-03T06:57:24.000Z</time>
        <extensions>
          <ns3:TrackPointExtension>
            <ns3:hr>170</ns3:hr>
            <ns3:cad>0</ns3:cad>
          </ns3:TrackPointExtension>
        </extensions>
      </trkpt>
      <trkpt lat="44.70357625745236873626708984375" lon="6.75726679153740406036376953125">
        <ele>1704.800048828125</ele>
        <time>2026-09-03T06:57:25.000Z</time>
        <extensions>
          <ns3:TrackPointExtension>
            <ns3:hr>170</ns3:hr>
            <ns3:cad>0</ns3:cad>
          </ns3:TrackPointExtension>
        </extensions>
      </trkpt>
      <trkpt lat="44.703569971024990081787109375" lon="6.75728322006762027740478515625">
        <ele>1705</ele>
        <time>2026-09-03T06:57:26.000Z</time>
        <extensions>
          <ns3:TrackPointExtension>
            <ns3:hr>170</ns3:hr>
            <ns3:cad>0</ns3:cad>
          </ns3:TrackPointExtension>
        </extensions>
      </trkpt>
      <trkpt lat="44.7035651095211505889892578125" lon="6.7572869919240474700927734375">
        <ele>1705.199951171875</ele>
        <time>2026-09-03T06:57:27.000Z</time>
        <extensions>
          <ns3:TrackPointExtension>
            <ns3:hr>171</ns3:hr>
            <ns3:cad>0</ns3:cad>
          </ns3:TrackPointExtension>
        </extensions>
      </trkpt>
      <trkpt lat="44.70355815254151821136474609375" lon="6.75730031915009021759033203125">
        <ele>1705.4000244140625</ele>
        <time>2026-09-03T06:57:28.000Z</time>
        <extensions>
          <ns3:TrackPointExtension>
            <ns3:hr>171</ns3:hr>
            <ns3:cad>0</ns3:cad>
          </ns3:TrackPointExtension>
        </extensions>
      </trkpt>
      <trkpt lat="44.70355354249477386474609375" lon="6.75731188617646694183349609375">
        <ele>1705.5999755859375</ele>
        <time>2026-09-03T06:57:29.000Z</time>
        <extensions>
          <ns3:TrackPointExtension>
            <ns3:hr>171</ns3:hr>
            <ns3:cad>0</ns3:cad>
          </ns3:TrackPointExtension>
        </extensions>
      </trkpt>
      <trkpt lat="44.70355111174285411834716796875" lon="6.757312305271625518798828125">
        <ele>1705.800048828125</ele>
        <time>2026-09-03T06:57:30.000Z</time>
        <extensions>
          <ns3:TrackPointExtension>
            <ns3:hr>170</ns3:hr>
            <ns3:cad>40</ns3:cad>
          </ns3:TrackPointExtension>
        </extensions>
      </trkpt>
      <trkpt lat="44.70354541204869747161865234375" lon="6.75732261501252651214599609375">
        <ele>1706</ele>
        <time>2026-09-03T06:57:31.000Z</time>
        <extensions>
          <ns3:TrackPointExtension>
            <ns3:hr>170</ns3:hr>
            <ns3:cad>40</ns3:cad>
          </ns3:TrackPointExtension>
        </extensions>
      </trkpt>
      <trkpt lat="44.70354222692549228668212890625" lon="6.757329069077968597412109375">
        <ele>1706.199951171875</ele>
        <time>2026-09-03T06:57:32.000Z</time>
        <extensions>
          <ns3:TrackPointExtension>
            <ns3:hr>170</ns3:hr>
            <ns3:cad>0</ns3:cad>
          </ns3:TrackPointExtension>
        </extensions>
      </trkpt>
      <trkpt lat="44.70353920944035053253173828125" lon="6.757345497608184814453125">
        <ele>1706.4000244140625</ele>
        <time>2026-09-03T06:57:33.000Z</time>
        <extensions>
          <ns3:TrackPointExtension>
            <ns3:hr>170</ns3:hr>
            <ns3:cad>0</ns3:cad>
          </ns3:TrackPointExtension>
        </extensions>
      </trkpt>
      <trkpt lat="44.703535102307796478271484375" lon="6.7573530413210391998291015625">
        <ele>1706.5999755859375</ele>
        <time>2026-09-03T06:57:34.000Z</time>
        <extensions>
          <ns3:TrackPointExtension>
            <ns3:hr>170</ns3:hr>
            <ns3:cad>0</ns3:cad>
          </ns3:TrackPointExtension>
        </extensions>
      </trkpt>
      <trkpt lat="44.7035255469381809234619140625" lon="6.7573682963848114013671875">
        <ele>1706.800048828125</ele>
        <time>2026-09-03T06:57:35.000Z</time>
        <extensions>
          <ns3:TrackPointExtension>
            <ns3:hr>170</ns3:hr>
            <ns3:cad>0</ns3:cad>
          </ns3:TrackPointExtension>
        </extensions>
      </trkpt>
      <trkpt lat="44.70352076925337314605712890625" lon="6.75737709738314151763916015625">
        <ele>1706.800048828125</ele>
        <time>2026-09-03T06:57:36.000Z</time>
        <extensions>
          <ns3:TrackPointExtension>
            <ns3:hr>170</ns3:hr>
            <ns3:cad>0</ns3:cad>
          </ns3:TrackPointExtension>
        </extensions>
      </trkpt>
      <trkpt lat="44.7035097889602184295654296875" lon="6.7573879100382328033447265625">
        <ele>1707</ele>
        <time>2026-09-03T06:57:37.000Z</time>
        <extensions>
          <ns3:TrackPointExtension>
            <ns3:hr>169</ns3:hr>
            <ns3:cad>0</ns3:cad>
          </ns3:TrackPointExtension>
        </extensions>
      </trkpt>
      <trkpt lat="44.70350182615220546722412109375" lon="6.75739872269332408905029296875">
        <ele>1707</ele>
        <time>2026-09-03T06:57:38.000Z</time>
        <extensions>
          <ns3:TrackPointExtension>
            <ns3:hr>169</ns3:hr>
            <ns3:cad>0</ns3:cad>
          </ns3:TrackPointExtension>
        </extensions>
      </trkpt>
      <trkpt lat="44.7035007365047931671142578125" lon="6.75740073435008525848388671875">
        <ele>1707.199951171875</ele>
        <time>2026-09-03T06:57:39.000Z</time>
        <extensions>
          <ns3:TrackPointExtension>
            <ns3:hr>169</ns3:hr>
            <ns3:cad>0</ns3:cad>
          </ns3:TrackPointExtension>
        </extensions>
      </trkpt>
      <trkpt lat="44.70349528826773166656494140625" lon="6.75740785896778106689453125">
        <ele>1707.4000244140625</ele>
        <time>2026-09-03T06:57:40.000Z</time>
        <extensions>
          <ns3:TrackPointExtension>
            <ns3:hr>169</ns3:hr>
            <ns3:cad>0</ns3:cad>
          </ns3:TrackPointExtension>
        </extensions>
      </trkpt>
      <trkpt lat="44.70349579118192195892333984375" lon="6.7574174143373966217041015625">
        <ele>1707.4000244140625</ele>
        <time>2026-09-03T06:57:41.000Z</time>
        <extensions>
          <ns3:TrackPointExtension>
            <ns3:hr>168</ns3:hr>
            <ns3:cad>0</ns3:cad>
          </ns3:TrackPointExtension>
        </extensions>
      </trkpt>
      <trkpt lat="44.70349176786839962005615234375" lon="6.75743241794407367706298828125">
        <ele>1707.5999755859375</ele>
        <time>2026-09-03T06:57:42.000Z</time>
        <extensions>
          <ns3:TrackPointExtension>
            <ns3:hr>168</ns3:hr>
            <ns3:cad>0</ns3:cad>
          </ns3:TrackPointExtension>
        </extensions>
      </trkpt>
      <trkpt lat="44.70348573289811611175537109375" lon="6.75744197331368923187255859375">
        <ele>1707.800048828125</ele>
        <time>2026-09-03T06:57:43.000Z</time>
        <extensions>
          <ns3:TrackPointExtension>
            <ns3:hr>167</ns3:hr>
            <ns3:cad>0</ns3:cad>
          </ns3:TrackPointExtension>
        </extensions>
      </trkpt>
      <trkpt lat="44.7034742496907711029052734375" lon="6.7574589885771274566650390625">
        <ele>1708</ele>
        <time>2026-09-03T06:57:44.000Z</time>
        <extensions>
          <ns3:TrackPointExtension>
            <ns3:hr>167</ns3:hr>
            <ns3:cad>0</ns3:cad>
          </ns3:TrackPointExtension>
        </extensions>
      </trkpt>
      <trkpt lat="44.70346561633050441741943359375" lon="6.7574675381183624267578125">
        <ele>1708.199951171875</ele>
        <time>2026-09-03T06:57:45.000Z</time>
        <extensions>
          <ns3:TrackPointExtension>
            <ns3:hr>167</ns3:hr>
            <ns3:cad>0</ns3:cad>
          </ns3:TrackPointExtension>
        </extensions>
      </trkpt>
      <trkpt lat="44.703462012112140655517578125" lon="6.75747281871736049652099609375">
        <ele>1708.4000244140625</ele>
        <time>2026-09-03T06:57:46.000Z</time>
        <extensions>
          <ns3:TrackPointExtension>
            <ns3:hr>166</ns3:hr>
            <ns3:cad>0</ns3:cad>
          </ns3:TrackPointExtension>
        </extensions>
      </trkpt>
      <trkpt lat="44.70345119945704936981201171875" lon="6.7574764229357242584228515625">
        <ele>1708.5999755859375</ele>
        <time>2026-09-03T06:57:47.000Z</time>
        <extensions>
          <ns3:TrackPointExtension>
            <ns3:hr>166</ns3:hr>
            <ns3:cad>0</ns3:cad>
          </ns3:TrackPointExtension>
        </extensions>
      </trkpt>
      <trkpt lat="44.7034455835819244384765625" lon="6.75748053006827831268310546875">
        <ele>1708.800048828125</ele>
        <time>2026-09-03T06:57:48.000Z</time>
        <extensions>
          <ns3:TrackPointExtension>
            <ns3:hr>165</ns3:hr>
            <ns3:cad>0</ns3:cad>
          </ns3:TrackPointExtension>
        </extensions>
      </trkpt>
      <trkpt lat="44.70343686640262603759765625" lon="6.75748639740049839019775390625">
        <ele>1709</ele>
        <time>2026-09-03T06:57:49.000Z</time>
        <extensions>
          <ns3:TrackPointExtension>
            <ns3:hr>165</ns3:hr>
            <ns3:cad>0</ns3:cad>
          </ns3:TrackPointExtension>
        </extensions>
      </trkpt>
      <trkpt lat="44.7034323401749134063720703125" lon="6.75749075599014759063720703125">
        <ele>1709.199951171875</ele>
        <time>2026-09-03T06:57:50.000Z</time>
        <extensions>
          <ns3:TrackPointExtension>
            <ns3:hr>164</ns3:hr>
            <ns3:cad>0</ns3:cad>
          </ns3:TrackPointExtension>
        </extensions>
      </trkpt>
      <trkpt lat="44.7034229524433612823486328125" lon="6.75750567577779293060302734375">
        <ele>1709.4000244140625</ele>
        <time>2026-09-03T06:57:51.000Z</time>
        <extensions>
          <ns3:TrackPointExtension>
            <ns3:hr>164</ns3:hr>
            <ns3:cad>0</ns3:cad>
          </ns3:TrackPointExtension>
        </extensions>
      </trkpt>
      <trkpt lat="44.70341599546372890472412109375" lon="6.7575104534626007080078125">
        <ele>1709.5999755859375</ele>
        <time>2026-09-03T06:57:52.000Z</time>
        <extensions>
          <ns3:TrackPointExtension>
            <ns3:hr>164</ns3:hr>
            <ns3:cad>0</ns3:cad>
          </ns3:TrackPointExtension>
        </extensions>
      </trkpt>
      <trkpt lat="44.7034125588834285736083984375" lon="6.757516153156757354736328125">
        <ele>1709.800048828125</ele>
        <time>2026-09-03T06:57:53.000Z</time>
        <extensions>
          <ns3:TrackPointExtension>
            <ns3:hr>164</ns3:hr>
            <ns3:cad>50</ns3:cad>
          </ns3:TrackPointExtension>
        </extensions>
      </trkpt>
      <trkpt lat="44.70340426079928874969482421875" lon="6.75752260722219944000244140625">
        <ele>1709.800048828125</ele>
        <time>2026-09-03T06:57:54.000Z</time>
        <extensions>
          <ns3:TrackPointExtension>
            <ns3:hr>164</ns3:hr>
            <ns3:cad>50</ns3:cad>
          </ns3:TrackPointExtension>
        </extensions>
      </trkpt>
      <trkpt lat="44.7033971361815929412841796875" lon="6.757528223097324371337890625">
        <ele>1710</ele>
        <time>2026-09-03T06:57:55.000Z</time>
        <extensions>
          <ns3:TrackPointExtension>
            <ns3:hr>163</ns3:hr>
            <ns3:cad>50</ns3:cad>
          </ns3:TrackPointExtension>
        </extensions>
      </trkpt>
      <trkpt lat="44.70338665880262851715087890625" lon="6.7575364373624324798583984375">
        <ele>1710.199951171875</ele>
        <time>2026-09-03T06:57:56.000Z</time>
        <extensions>
          <ns3:TrackPointExtension>
            <ns3:hr>163</ns3:hr>
            <ns3:cad>50</ns3:cad>
          </ns3:TrackPointExtension>
        </extensions>
      </trkpt>
      <trkpt lat="44.70337760634720325469970703125" lon="6.75754272378981113433837890625">
        <ele>1710.4000244140625</ele>
        <time>2026-09-03T06:57:57.000Z</time>
        <extensions>
          <ns3:TrackPointExtension>
            <ns3:hr>163</ns3:hr>
            <ns3:cad>50</ns3:cad>
          </ns3:TrackPointExtension>
        </extensions>
      </trkpt>
      <trkpt lat="44.703366458415985107421875" lon="6.7575511895120143890380859375">
        <ele>1710.5999755859375</ele>
        <time>2026-09-03T06:57:58.000Z</time>
        <extensions>
          <ns3:TrackPointExtension>
            <ns3:hr>162</ns3:hr>
            <ns3:cad>50</ns3:cad>
          </ns3:TrackPointExtension>
        </extensions>
      </trkpt>
      <trkpt lat="44.7033582441508769989013671875" lon="6.7575572244822978973388671875">
        <ele>1710.800048828125</ele>
        <time>2026-09-03T06:57:59.000Z</time>
        <extensions>
          <ns3:TrackPointExtension>
            <ns3:hr>162</ns3:hr>
            <ns3:cad>50</ns3:cad>
          </ns3:TrackPointExtension>
        </extensions>
      </trkpt>
      <trkpt lat="44.70335044898092746734619140625" lon="6.757562421262264251708984375">
        <ele>1711</ele>
        <time>2026-09-03T06:58:00.000Z</time>
        <extensions>
          <ns3:TrackPointExtension>
            <ns3:hr>162</ns3:hr>
            <ns3:cad>0</ns3:cad>
          </ns3:TrackPointExtension>
        </extensions>
      </trkpt>
      <trkpt lat="44.7033404745161533355712890625" lon="6.75757021643221378326416015625">
        <ele>1711</ele>
        <time>2026-09-03T06:58:01.000Z</time>
        <extensions>
          <ns3:TrackPointExtension>
            <ns3:hr>162</ns3:hr>
            <ns3:cad>0</ns3:cad>
          </ns3:TrackPointExtension>
        </extensions>
      </trkpt>
      <trkpt lat="44.70333217643201351165771484375" lon="6.75757340155541896820068359375">
        <ele>1711.199951171875</ele>
        <time>2026-09-03T06:58:02.000Z</time>
        <extensions>
          <ns3:TrackPointExtension>
            <ns3:hr>162</ns3:hr>
            <ns3:cad>0</ns3:cad>
          </ns3:TrackPointExtension>
        </extensions>
      </trkpt>
      <trkpt lat="44.7033257223665714263916015625" lon="6.757578514516353607177734375">
        <ele>1711.4000244140625</ele>
        <time>2026-09-03T06:58:03.000Z</time>
        <extensions>
          <ns3:TrackPointExtension>
            <ns3:hr>162</ns3:hr>
            <ns3:cad>0</ns3:cad>
          </ns3:TrackPointExtension>
        </extensions>
      </trkpt>
      <trkpt lat="44.70332044176757335662841796875" lon="6.7575803585350513458251953125">
        <ele>1711.5999755859375</ele>
        <time>2026-09-03T06:58:04.000Z</time>
        <extensions>
          <ns3:TrackPointExtension>
            <ns3:hr>161</ns3:hr>
            <ns3:cad>0</ns3:cad>
          </ns3:TrackPointExtension>
        </extensions>
      </trkpt>
      <trkpt lat="44.70331138931214809417724609375" lon="6.75758547149598598480224609375">
        <ele>1711.800048828125</ele>
        <time>2026-09-03T06:58:05.000Z</time>
        <extensions>
          <ns3:TrackPointExtension>
            <ns3:hr>161</ns3:hr>
            <ns3:cad>0</ns3:cad>
          </ns3:TrackPointExtension>
        </extensions>
      </trkpt>
      <trkpt lat="44.703304432332515716552734375" lon="6.7575907520949840545654296875">
        <ele>1712</ele>
        <time>2026-09-03T06:58:06.000Z</time>
        <extensions>
          <ns3:TrackPointExtension>
            <ns3:hr>161</ns3:hr>
            <ns3:cad>0</ns3:cad>
          </ns3:TrackPointExtension>
        </extensions>
      </trkpt>
      <trkpt lat="44.70329881645739078521728515625" lon="6.75759829580783843994140625">
        <ele>1712.199951171875</ele>
        <time>2026-09-03T06:58:07.000Z</time>
        <extensions>
          <ns3:TrackPointExtension>
            <ns3:hr>161</ns3:hr>
            <ns3:cad>0</ns3:cad>
          </ns3:TrackPointExtension>
        </extensions>
      </trkpt>
      <trkpt lat="44.70329797826707363128662109375" lon="6.7576048336923122406005859375">
        <ele>1712.4000244140625</ele>
        <time>2026-09-03T06:58:08.000Z</time>
        <extensions>
          <ns3:TrackPointExtension>
            <ns3:hr>161</ns3:hr>
            <ns3:cad>0</ns3:cad>
          </ns3:TrackPointExtension>
        </extensions>
      </trkpt>
      <trkpt lat="44.70329529605805873870849609375" lon="6.75762176513671875">
        <ele>1712.5999755859375</ele>
        <time>2026-09-03T06:58:09.000Z</time>
        <extensions>
          <ns3:TrackPointExtension>
            <ns3:hr>162</ns3:hr>
            <ns3:cad>0</ns3:cad>
          </ns3:TrackPointExtension>
        </extensions>
      </trkpt>
      <trkpt lat="44.7032900154590606689453125" lon="6.75762905739247798919677734375">
        <ele>1712.800048828125</ele>
        <time>2026-09-03T06:58:10.000Z</time>
        <extensions>
          <ns3:TrackPointExtension>
            <ns3:hr>161</ns3:hr>
            <ns3:cad>0</ns3:cad>
          </ns3:TrackPointExtension>
        </extensions>
      </trkpt>
      <trkpt lat="44.70328398048877716064453125" lon="6.75763878040015697479248046875">
        <ele>1713</ele>
        <time>2026-09-03T06:58:11.000Z</time>
        <extensions>
          <ns3:TrackPointExtension>
            <ns3:hr>161</ns3:hr>
            <ns3:cad>0</ns3:cad>
          </ns3:TrackPointExtension>
        </extensions>
      </trkpt>
      <trkpt lat="44.70327601768076419830322265625" lon="6.75764565356075763702392578125">
        <ele>1713.199951171875</ele>
        <time>2026-09-03T06:58:12.000Z</time>
        <extensions>
          <ns3:TrackPointExtension>
            <ns3:hr>161</ns3:hr>
            <ns3:cad>0</ns3:cad>
          </ns3:TrackPointExtension>
        </extensions>
      </trkpt>
      <trkpt lat="44.70327367074787616729736328125" lon="6.7576511017978191375732421875">
        <ele>1713.199951171875</ele>
        <time>2026-09-03T06:58:13.000Z</time>
        <extensions>
          <ns3:TrackPointExtension>
            <ns3:hr>161</ns3:hr>
            <ns3:cad>0</ns3:cad>
          </ns3:TrackPointExtension>
        </extensions>
      </trkpt>
      <trkpt lat="44.7032605111598968505859375" lon="6.7576658539474010467529296875">
        <ele>1713.4000244140625</ele>
        <time>2026-09-03T06:58:14.000Z</time>
        <extensions>
          <ns3:TrackPointExtension>
            <ns3:hr>161</ns3:hr>
            <ns3:cad>0</ns3:cad>
          </ns3:TrackPointExtension>
        </extensions>
      </trkpt>
      <trkpt lat="44.70326109789311885833740234375" lon="6.75767398439347743988037109375">
        <ele>1713.5999755859375</ele>
        <time>2026-09-03T06:58:15.000Z</time>
        <extensions>
          <ns3:TrackPointExtension>
            <ns3:hr>161</ns3:hr>
            <ns3:cad>0</ns3:cad>
          </ns3:TrackPointExtension>
        </extensions>
      </trkpt>
      <trkpt lat="44.70325472764670848846435546875" lon="6.757689155638217926025390625">
        <ele>1713.800048828125</ele>
        <time>2026-09-03T06:58:16.000Z</time>
        <extensions>
          <ns3:TrackPointExtension>
            <ns3:hr>160</ns3:hr>
            <ns3:cad>0</ns3:cad>
          </ns3:TrackPointExtension>
        </extensions>
      </trkpt>
      <trkpt lat="44.7032506205141544342041015625" lon="6.75769594497978687286376953125">
        <ele>1714</ele>
        <time>2026-09-03T06:58:17.000Z</time>
        <extensions>
          <ns3:TrackPointExtension>
            <ns3:hr>160</ns3:hr>
            <ns3:cad>0</ns3:cad>
          </ns3:TrackPointExtension>
        </extensions>
      </trkpt>
      <trkpt lat="44.70324198715388774871826171875" lon="6.75770424306392669677734375">
        <ele>1714.199951171875</ele>
        <time>2026-09-03T06:58:18.000Z</time>
        <extensions>
          <ns3:TrackPointExtension>
            <ns3:hr>160</ns3:hr>
            <ns3:cad>0</ns3:cad>
          </ns3:TrackPointExtension>
        </extensions>
      </trkpt>
      <trkpt lat="44.70323762856423854827880859375" lon="6.75771136768162250518798828125">
        <ele>1714.4000244140625</ele>
        <time>2026-09-03T06:58:19.000Z</time>
        <extensions>
          <ns3:TrackPointExtension>
            <ns3:hr>160</ns3:hr>
            <ns3:cad>0</ns3:cad>
          </ns3:TrackPointExtension>
        </extensions>
      </trkpt>
      <trkpt lat="44.70323829911649227142333984375" lon="6.75772980786859989166259765625">
        <ele>1714.5999755859375</ele>
        <time>2026-09-03T06:58:20.000Z</time>
        <extensions>
          <ns3:TrackPointExtension>
            <ns3:hr>159</ns3:hr>
            <ns3:cad>0</ns3:cad>
          </ns3:TrackPointExtension>
        </extensions>
      </trkpt>
      <trkpt lat="44.7032368741929531097412109375" lon="6.757742799818515777587890625">
        <ele>1714.800048828125</ele>
        <time>2026-09-03T06:58:21.000Z</time>
        <extensions>
          <ns3:TrackPointExtension>
            <ns3:hr>160</ns3:hr>
            <ns3:cad>0</ns3:cad>
          </ns3:TrackPointExtension>
        </extensions>
      </trkpt>
      <trkpt lat="44.70323427580296993255615234375" lon="6.75775587558746337890625">
        <ele>1715</ele>
        <time>2026-09-03T06:58:22.000Z</time>
        <extensions>
          <ns3:TrackPointExtension>
            <ns3:hr>160</ns3:hr>
            <ns3:cad>0</ns3:cad>
          </ns3:TrackPointExtension>
        </extensions>
      </trkpt>
      <trkpt lat="44.70322907902300357818603515625" lon="6.75776987336575984954833984375">
        <ele>1715.199951171875</ele>
        <time>2026-09-03T06:58:23.000Z</time>
        <extensions>
          <ns3:TrackPointExtension>
            <ns3:hr>159</ns3:hr>
            <ns3:cad>0</ns3:cad>
          </ns3:TrackPointExtension>
        </extensions>
      </trkpt>
      <trkpt lat="44.70322555862367153167724609375" lon="6.7577798478305339813232421875">
        <ele>1715.4000244140625</ele>
        <time>2026-09-03T06:58:24.000Z</time>
        <extensions>
          <ns3:TrackPointExtension>
            <ns3:hr>160</ns3:hr>
            <ns3:cad>0</ns3:cad>
          </ns3:TrackPointExtension>
        </extensions>
      </trkpt>
      <trkpt lat="44.70322237350046634674072265625" lon="6.75778479315340518951416015625">
        <ele>1715.5999755859375</ele>
        <time>2026-09-03T06:58:25.000Z</time>
        <extensions>
          <ns3:TrackPointExtension>
            <ns3:hr>159</ns3:hr>
            <ns3:cad>0</ns3:cad>
          </ns3:TrackPointExtension>
        </extensions>
      </trkpt>
      <trkpt lat="44.70321784727275371551513671875" lon="6.75779736600816249847412109375">
        <ele>1715.800048828125</ele>
        <time>2026-09-03T06:58:26.000Z</time>
        <extensions>
          <ns3:TrackPointExtension>
            <ns3:hr>159</ns3:hr>
            <ns3:cad>0</ns3:cad>
          </ns3:TrackPointExtension>
        </extensions>
      </trkpt>
      <trkpt lat="44.7032160870730876922607421875" lon="6.75779971294105052947998046875">
        <ele>1716</ele>
        <time>2026-09-03T06:58:27.000Z</time>
        <extensions>
          <ns3:TrackPointExtension>
            <ns3:hr>160</ns3:hr>
            <ns3:cad>0</ns3:cad>
          </ns3:TrackPointExtension>
        </extensions>
      </trkpt>
      <trkpt lat="44.70320594497025012969970703125" lon="6.757812537252902984619140625">
        <ele>1716.199951171875</ele>
        <time>2026-09-03T06:58:28.000Z</time>
        <extensions>
          <ns3:TrackPointExtension>
            <ns3:hr>159</ns3:hr>
            <ns3:cad>0</ns3:cad>
          </ns3:TrackPointExtension>
        </extensions>
      </trkpt>
      <trkpt lat="44.7032015025615692138671875" lon="6.75781563855707645416259765625">
        <ele>1716.4000244140625</ele>
        <time>2026-09-03T06:58:29.000Z</time>
        <extensions>
          <ns3:TrackPointExtension>
            <ns3:hr>159</ns3:hr>
            <ns3:cad>0</ns3:cad>
          </ns3:TrackPointExtension>
        </extensions>
      </trkpt>
      <trkpt lat="44.70318934880197048187255859375" lon="6.7578348331153392791748046875">
        <ele>1716.5999755859375</ele>
        <time>2026-09-03T06:58:30.000Z</time>
        <extensions>
          <ns3:TrackPointExtension>
            <ns3:hr>159</ns3:hr>
            <ns3:cad>0</ns3:cad>
          </ns3:TrackPointExtension>
        </extensions>
      </trkpt>
      <trkpt lat="44.70318297855556011199951171875" lon="6.757840029895305633544921875">
        <ele>1716.5999755859375</ele>
        <time>2026-09-03T06:58:31.000Z</time>
        <extensions>
          <ns3:TrackPointExtension>
            <ns3:hr>160</ns3:hr>
            <ns3:cad>0</ns3:cad>
          </ns3:TrackPointExtension>
        </extensions>
      </trkpt>
      <trkpt lat="44.70317074097692966461181640625" lon="6.75786358304321765899658203125">
        <ele>1716.800048828125</ele>
        <time>2026-09-03T06:58:32.000Z</time>
        <extensions>
          <ns3:TrackPointExtension>
            <ns3:hr>160</ns3:hr>
            <ns3:cad>0</ns3:cad>
          </ns3:TrackPointExtension>
        </extensions>
      </trkpt>
      <trkpt lat="44.7031634487211704254150390625" lon="6.75787749700248241424560546875">
        <ele>1717</ele>
        <time>2026-09-03T06:58:33.000Z</time>
        <extensions>
          <ns3:TrackPointExtension>
            <ns3:hr>160</ns3:hr>
            <ns3:cad>0</ns3:cad>
          </ns3:TrackPointExtension>
        </extensions>
      </trkpt>
      <trkpt lat="44.703154228627681732177734375" lon="6.75789602100849151611328125">
        <ele>1717</ele>
        <time>2026-09-03T06:58:34.000Z</time>
        <extensions>
          <ns3:TrackPointExtension>
            <ns3:hr>160</ns3:hr>
            <ns3:cad>0</ns3:cad>
          </ns3:TrackPointExtension>
        </extensions>
      </trkpt>
      <trkpt lat="44.70314542762935161590576171875" lon="6.75790800713002681732177734375">
        <ele>1717.199951171875</ele>
        <time>2026-09-03T06:58:35.000Z</time>
        <extensions>
          <ns3:TrackPointExtension>
            <ns3:hr>159</ns3:hr>
            <ns3:cad>0</ns3:cad>
          </ns3:TrackPointExtension>
        </extensions>
      </trkpt>
      <trkpt lat="44.70314308069646358489990234375" lon="6.7579216696321964263916015625">
        <ele>1717.199951171875</ele>
        <time>2026-09-03T06:58:36.000Z</time>
        <extensions>
          <ns3:TrackPointExtension>
            <ns3:hr>159</ns3:hr>
            <ns3:cad>0</ns3:cad>
          </ns3:TrackPointExtension>
        </extensions>
      </trkpt>
      <trkpt lat="44.70313377678394317626953125" lon="6.75793667323887348175048828125">
        <ele>1717.4000244140625</ele>
        <time>2026-09-03T06:58:37.000Z</time>
        <extensions>
          <ns3:TrackPointExtension>
            <ns3:hr>159</ns3:hr>
            <ns3:cad>0</ns3:cad>
          </ns3:TrackPointExtension>
        </extensions>
      </trkpt>
      <trkpt lat="44.70313302241265773773193359375" lon="6.7579449713230133056640625">
        <ele>1717.5999755859375</ele>
        <time>2026-09-03T06:58:38.000Z</time>
        <extensions>
          <ns3:TrackPointExtension>
            <ns3:hr>160</ns3:hr>
            <ns3:cad>0</ns3:cad>
          </ns3:TrackPointExtension>
        </extensions>
      </trkpt>
      <trkpt lat="44.70312707126140594482421875" lon="6.75795645453035831451416015625">
        <ele>1717.5999755859375</ele>
        <time>2026-09-03T06:58:39.000Z</time>
        <extensions>
          <ns3:TrackPointExtension>
            <ns3:hr>159</ns3:hr>
            <ns3:cad>0</ns3:cad>
          </ns3:TrackPointExtension>
        </extensions>
      </trkpt>
      <trkpt lat="44.7031265683472156524658203125" lon="6.75796517170965671539306640625">
        <ele>1717.800048828125</ele>
        <time>2026-09-03T06:58:40.000Z</time>
        <extensions>
          <ns3:TrackPointExtension>
            <ns3:hr>160</ns3:hr>
            <ns3:cad>0</ns3:cad>
          </ns3:TrackPointExtension>
        </extensions>
      </trkpt>
      <trkpt lat="44.70312195830047130584716796875" lon="6.757976152002811431884765625">
        <ele>1717.800048828125</ele>
        <time>2026-09-03T06:58:41.000Z</time>
        <extensions>
          <ns3:TrackPointExtension>
            <ns3:hr>160</ns3:hr>
            <ns3:cad>0</ns3:cad>
          </ns3:TrackPointExtension>
        </extensions>
      </trkpt>
      <trkpt lat="44.703116677701473236083984375" lon="6.75798595882952213287353515625">
        <ele>1718</ele>
        <time>2026-09-03T06:58:42.000Z</time>
        <extensions>
          <ns3:TrackPointExtension>
            <ns3:hr>160</ns3:hr>
            <ns3:cad>0</ns3:cad>
          </ns3:TrackPointExtension>
        </extensions>
      </trkpt>
      <trkpt lat="44.70310804434120655059814453125" lon="6.75799869932234287261962890625">
        <ele>1718.199951171875</ele>
        <time>2026-09-03T06:58:43.000Z</time>
        <extensions>
          <ns3:TrackPointExtension>
            <ns3:hr>159</ns3:hr>
            <ns3:cad>0</ns3:cad>
          </ns3:TrackPointExtension>
        </extensions>
      </trkpt>
      <trkpt lat="44.70309999771416187286376953125" lon="6.7580024711787700653076171875">
        <ele>1718.199951171875</ele>
        <time>2026-09-03T06:58:44.000Z</time>
        <extensions>
          <ns3:TrackPointExtension>
            <ns3:hr>160</ns3:hr>
            <ns3:cad>0</ns3:cad>
          </ns3:TrackPointExtension>
        </extensions>
      </trkpt>
      <trkpt lat="44.70308776013553142547607421875" lon="6.758015044033527374267578125">
        <ele>1718.4000244140625</ele>
        <time>2026-09-03T06:58:45.000Z</time>
        <extensions>
          <ns3:TrackPointExtension>
            <ns3:hr>159</ns3:hr>
            <ns3:cad>0</ns3:cad>
          </ns3:TrackPointExtension>
        </extensions>
      </trkpt>
      <trkpt lat="44.70308206044137477874755859375" lon="6.75802535377442836761474609375">
        <ele>1718.5999755859375</ele>
        <time>2026-09-03T06:58:46.000Z</time>
        <extensions>
          <ns3:TrackPointExtension>
            <ns3:hr>158</ns3:hr>
            <ns3:cad>0</ns3:cad>
          </ns3:TrackPointExtension>
        </extensions>
      </trkpt>
      <trkpt lat="44.7030739299952983856201171875" lon="6.75804086029529571533203125">
        <ele>1719</ele>
        <time>2026-09-03T06:58:47.000Z</time>
        <extensions>
          <ns3:TrackPointExtension>
            <ns3:hr>158</ns3:hr>
            <ns3:cad>0</ns3:cad>
          </ns3:TrackPointExtension>
        </extensions>
      </trkpt>
      <trkpt lat="44.70306940376758575439453125" lon="6.7580524273216724395751953125">
        <ele>1719.199951171875</ele>
        <time>2026-09-03T06:58:48.000Z</time>
        <extensions>
          <ns3:TrackPointExtension>
            <ns3:hr>157</ns3:hr>
            <ns3:cad>0</ns3:cad>
          </ns3:TrackPointExtension>
        </extensions>
      </trkpt>
      <trkpt lat="44.70306160859763622283935546875" lon="6.75806106068193912506103515625">
        <ele>1719.4000244140625</ele>
        <time>2026-09-03T06:58:49.000Z</time>
        <extensions>
          <ns3:TrackPointExtension>
            <ns3:hr>157</ns3:hr>
            <ns3:cad>0</ns3:cad>
          </ns3:TrackPointExtension>
        </extensions>
      </trkpt>
      <trkpt lat="44.7030544839799404144287109375" lon="6.75807128660380840301513671875">
        <ele>1719.5999755859375</ele>
        <time>2026-09-03T06:58:50.000Z</time>
        <extensions>
          <ns3:TrackPointExtension>
            <ns3:hr>157</ns3:hr>
            <ns3:cad>0</ns3:cad>
          </ns3:TrackPointExtension>
        </extensions>
      </trkpt>
      <trkpt lat="44.7030504606664180755615234375" lon="6.75807111896574497222900390625">
        <ele>1719.800048828125</ele>
        <time>2026-09-03T06:58:51.000Z</time>
        <extensions>
          <ns3:TrackPointExtension>
            <ns3:hr>158</ns3:hr>
            <ns3:cad>0</ns3:cad>
          </ns3:TrackPointExtension>
        </extensions>
      </trkpt>
      <trkpt lat="44.70303612761199474334716796875" lon="6.7580819316208362579345703125">
        <ele>1720</ele>
        <time>2026-09-03T06:58:52.000Z</time>
        <extensions>
          <ns3:TrackPointExtension>
            <ns3:hr>158</ns3:hr>
            <ns3:cad>0</ns3:cad>
          </ns3:TrackPointExtension>
        </extensions>
      </trkpt>
      <trkpt lat="44.70302724279463291168212890625" lon="6.75808846950531005859375">
        <ele>1720.199951171875</ele>
        <time>2026-09-03T06:58:53.000Z</time>
        <extensions>
          <ns3:TrackPointExtension>
            <ns3:hr>158</ns3:hr>
            <ns3:cad>0</ns3:cad>
          </ns3:TrackPointExtension>
        </extensions>
      </trkpt>
      <trkpt lat="44.7030182741582393646240234375" lon="6.758096851408481597900390625">
        <ele>1720.4000244140625</ele>
        <time>2026-09-03T06:58:54.000Z</time>
        <extensions>
          <ns3:TrackPointExtension>
            <ns3:hr>157</ns3:hr>
            <ns3:cad>0</ns3:cad>
          </ns3:TrackPointExtension>
        </extensions>
      </trkpt>
      <trkpt lat="44.7030038572847843170166015625" lon="6.7580976895987987518310546875">
        <ele>1720.5999755859375</ele>
        <time>2026-09-03T06:58:55.000Z</time>
        <extensions>
          <ns3:TrackPointExtension>
            <ns3:hr>158</ns3:hr>
            <ns3:cad>0</ns3:cad>
          </ns3:TrackPointExtension>
        </extensions>
      </trkpt>
      <trkpt lat="44.702993296086788177490234375" lon="6.7581005394458770751953125">
        <ele>1720.800048828125</ele>
        <time>2026-09-03T06:58:56.000Z</time>
        <extensions>
          <ns3:TrackPointExtension>
            <ns3:hr>158</ns3:hr>
            <ns3:cad>0</ns3:cad>
          </ns3:TrackPointExtension>
        </extensions>
      </trkpt>
      <trkpt lat="44.70298248343169689178466796875" lon="6.75809894688427448272705078125">
        <ele>1720.800048828125</ele>
        <time>2026-09-03T06:58:57.000Z</time>
        <extensions>
          <ns3:TrackPointExtension>
            <ns3:hr>158</ns3:hr>
            <ns3:cad>0</ns3:cad>
          </ns3:TrackPointExtension>
        </extensions>
      </trkpt>
      <trkpt lat="44.70297561027109622955322265625" lon="6.7581040598452091217041015625">
        <ele>1721</ele>
        <time>2026-09-03T06:58:58.000Z</time>
        <extensions>
          <ns3:TrackPointExtension>
            <ns3:hr>157</ns3:hr>
            <ns3:cad>0</ns3:cad>
          </ns3:TrackPointExtension>
        </extensions>
      </trkpt>
      <trkpt lat="44.70296689309179782867431640625" lon="6.75810665823519229888916015625">
        <ele>1721.199951171875</ele>
        <time>2026-09-03T06:58:59.000Z</time>
        <extensions>
          <ns3:TrackPointExtension>
            <ns3:hr>157</ns3:hr>
            <ns3:cad>0</ns3:cad>
          </ns3:TrackPointExtension>
        </extensions>
      </trkpt>
      <trkpt lat="44.702950380742549896240234375" lon="6.75810229964554309844970703125">
        <ele>1721.5999755859375</ele>
        <time>2026-09-03T06:59:00.000Z</time>
        <extensions>
          <ns3:TrackPointExtension>
            <ns3:hr>157</ns3:hr>
            <ns3:cad>0</ns3:cad>
          </ns3:TrackPointExtension>
        </extensions>
      </trkpt>
      <trkpt lat="44.70293973572552204132080078125" lon="6.75810649059712886810302734375">
        <ele>1721.800048828125</ele>
        <time>2026-09-03T06:59:01.000Z</time>
        <extensions>
          <ns3:TrackPointExtension>
            <ns3:hr>157</ns3:hr>
            <ns3:cad>0</ns3:cad>
          </ns3:TrackPointExtension>
        </extensions>
      </trkpt>
      <trkpt lat="44.702928252518177032470703125" lon="6.75811001099646091461181640625">
        <ele>1722</ele>
        <time>2026-09-03T06:59:02.000Z</time>
        <extensions>
          <ns3:TrackPointExtension>
            <ns3:hr>158</ns3:hr>
            <ns3:cad>0</ns3:cad>
          </ns3:TrackPointExtension>
        </extensions>
      </trkpt>
      <trkpt lat="44.7029225528240203857421875" lon="6.7581117711961269378662109375">
        <ele>1722</ele>
        <time>2026-09-03T06:59:03.000Z</time>
        <extensions>
          <ns3:TrackPointExtension>
            <ns3:hr>158</ns3:hr>
            <ns3:cad>0</ns3:cad>
          </ns3:TrackPointExtension>
        </extensions>
      </trkpt>
      <trkpt lat="44.70291878096759319305419921875" lon="6.75811520777642726898193359375">
        <ele>1722.199951171875</ele>
        <time>2026-09-03T06:59:04.000Z</time>
        <extensions>
          <ns3:TrackPointExtension>
            <ns3:hr>159</ns3:hr>
            <ns3:cad>50</ns3:cad>
          </ns3:TrackPointExtension>
        </extensions>
      </trkpt>
      <trkpt lat="44.70291324891149997711181640625" lon="6.7581157945096492767333984375">
        <ele>1722.4000244140625</ele>
        <time>2026-09-03T06:59:05.000Z</time>
        <extensions>
          <ns3:TrackPointExtension>
            <ns3:hr>159</ns3:hr>
            <ns3:cad>50</ns3:cad>
          </ns3:TrackPointExtension>
        </extensions>
      </trkpt>
      <trkpt lat="44.70290536992251873016357421875" lon="6.758118979632854461669921875">
        <ele>1722.4000244140625</ele>
        <time>2026-09-03T06:59:06.000Z</time>
        <extensions>
          <ns3:TrackPointExtension>
            <ns3:hr>160</ns3:hr>
            <ns3:cad>52</ns3:cad>
          </ns3:TrackPointExtension>
        </extensions>
      </trkpt>
      <trkpt lat="44.7028975747525691986083984375" lon="6.75812191329896450042724609375">
        <ele>1722.800048828125</ele>
        <time>2026-09-03T06:59:07.000Z</time>
        <extensions>
          <ns3:TrackPointExtension>
            <ns3:hr>160</ns3:hr>
            <ns3:cad>52</ns3:cad>
          </ns3:TrackPointExtension>
        </extensions>
      </trkpt>
      <trkpt lat="44.70288843847811222076416015625" lon="6.75812560133635997772216796875">
        <ele>1723</ele>
        <time>2026-09-03T06:59:08.000Z</time>
        <extensions>
          <ns3:TrackPointExtension>
            <ns3:hr>160</ns3:hr>
            <ns3:cad>52</ns3:cad>
          </ns3:TrackPointExtension>
        </extensions>
      </trkpt>
      <trkpt lat="44.70288324169814586639404296875" lon="6.7581302113831043243408203125">
        <ele>1723.199951171875</ele>
        <time>2026-09-03T06:59:09.000Z</time>
        <extensions>
          <ns3:TrackPointExtension>
            <ns3:hr>160</ns3:hr>
            <ns3:cad>0</ns3:cad>
          </ns3:TrackPointExtension>
        </extensions>
      </trkpt>
      <trkpt lat="44.702877961099147796630859375" lon="6.75813146866858005523681640625">
        <ele>1723.4000244140625</ele>
        <time>2026-09-03T06:59:10.000Z</time>
        <extensions>
          <ns3:TrackPointExtension>
            <ns3:hr>159</ns3:hr>
            <ns3:cad>0</ns3:cad>
          </ns3:TrackPointExtension>
        </extensions>
      </trkpt>
      <trkpt lat="44.702871926128864288330078125" lon="6.75813314504921436309814453125">
        <ele>1723.5999755859375</ele>
        <time>2026-09-03T06:59:11.000Z</time>
        <extensions>
          <ns3:TrackPointExtension>
            <ns3:hr>159</ns3:hr>
            <ns3:cad>0</ns3:cad>
          </ns3:TrackPointExtension>
        </extensions>
      </trkpt>
      <trkpt lat="44.70286664552986621856689453125" lon="6.7581369169056415557861328125">
        <ele>1723.800048828125</ele>
        <time>2026-09-03T06:59:12.000Z</time>
        <extensions>
          <ns3:TrackPointExtension>
            <ns3:hr>159</ns3:hr>
            <ns3:cad>0</ns3:cad>
          </ns3:TrackPointExtension>
        </extensions>
      </trkpt>
      <trkpt lat="44.7028603591024875640869140625" lon="6.75813834182918071746826171875">
        <ele>1724</ele>
        <time>2026-09-03T06:59:13.000Z</time>
        <extensions>
          <ns3:TrackPointExtension>
            <ns3:hr>158</ns3:hr>
            <ns3:cad>0</ns3:cad>
          </ns3:TrackPointExtension>
        </extensions>
      </trkpt>
      <trkpt lat="44.70285088755190372467041015625" lon="6.75814571790397167205810546875">
        <ele>1724.199951171875</ele>
        <time>2026-09-03T06:59:14.000Z</time>
        <extensions>
          <ns3:TrackPointExtension>
            <ns3:hr>159</ns3:hr>
            <ns3:cad>0</ns3:cad>
          </ns3:TrackPointExtension>
        </extensions>
      </trkpt>
      <trkpt lat="44.70284418202936649322509765625" lon="6.758149154484272003173828125">
        <ele>1724.4000244140625</ele>
        <time>2026-09-03T06:59:15.000Z</time>
        <extensions>
          <ns3:TrackPointExtension>
            <ns3:hr>159</ns3:hr>
            <ns3:cad>0</ns3:cad>
          </ns3:TrackPointExtension>
        </extensions>
      </trkpt>
      <trkpt lat="44.70283848233520984649658203125" lon="6.758150160312652587890625">
        <ele>1724.5999755859375</ele>
        <time>2026-09-03T06:59:16.000Z</time>
        <extensions>
          <ns3:TrackPointExtension>
            <ns3:hr>160</ns3:hr>
            <ns3:cad>0</ns3:cad>
          </ns3:TrackPointExtension>
        </extensions>
      </trkpt>
      <trkpt lat="44.70282842405140399932861328125" lon="6.75815544091165065765380859375">
        <ele>1724.800048828125</ele>
        <time>2026-09-03T06:59:17.000Z</time>
        <extensions>
          <ns3:TrackPointExtension>
            <ns3:hr>160</ns3:hr>
            <ns3:cad>0</ns3:cad>
          </ns3:TrackPointExtension>
        </extensions>
      </trkpt>
      <trkpt lat="44.7028224729001522064208984375" lon="6.758151836693286895751953125">
        <ele>1725</ele>
        <time>2026-09-03T06:59:18.000Z</time>
        <extensions>
          <ns3:TrackPointExtension>
            <ns3:hr>160</ns3:hr>
            <ns3:cad>0</ns3:cad>
          </ns3:TrackPointExtension>
        </extensions>
      </trkpt>
      <trkpt lat="44.70280445180833339691162109375" lon="6.75815577618777751922607421875">
        <ele>1725.199951171875</ele>
        <time>2026-09-03T06:59:19.000Z</time>
        <extensions>
          <ns3:TrackPointExtension>
            <ns3:hr>160</ns3:hr>
            <ns3:cad>0</ns3:cad>
          </ns3:TrackPointExtension>
        </extensions>
      </trkpt>
      <trkpt lat="44.7027922980487346649169921875" lon="6.7581550218164920806884765625">
        <ele>1725.4000244140625</ele>
        <time>2026-09-03T06:59:20.000Z</time>
        <extensions>
          <ns3:TrackPointExtension>
            <ns3:hr>160</ns3:hr>
            <ns3:cad>0</ns3:cad>
          </ns3:TrackPointExtension>
        </extensions>
      </trkpt>
      <trkpt lat="44.702781736850738525390625" lon="6.75815124996006488800048828125">
        <ele>1725.5999755859375</ele>
        <time>2026-09-03T06:59:21.000Z</time>
        <extensions>
          <ns3:TrackPointExtension>
            <ns3:hr>160</ns3:hr>
            <ns3:cad>0</ns3:cad>
          </ns3:TrackPointExtension>
        </extensions>
      </trkpt>
      <trkpt lat="44.7027696669101715087890625" lon="6.75814555026590824127197265625">
        <ele>1725.800048828125</ele>
        <time>2026-09-03T06:59:22.000Z</time>
        <extensions>
          <ns3:TrackPointExtension>
            <ns3:hr>160</ns3:hr>
            <ns3:cad>0</ns3:cad>
          </ns3:TrackPointExtension>
        </extensions>
      </trkpt>
      <trkpt lat="44.70276103354990482330322265625" lon="6.75814337097108364105224609375">
        <ele>1726</ele>
        <time>2026-09-03T06:59:23.000Z</time>
        <extensions>
          <ns3:TrackPointExtension>
            <ns3:hr>159</ns3:hr>
            <ns3:cad>0</ns3:cad>
          </ns3:TrackPointExtension>
        </extensions>
      </trkpt>
      <trkpt lat="44.70275223255157470703125" lon="6.75814270041882991790771484375">
        <ele>1726</ele>
        <time>2026-09-03T06:59:24.000Z</time>
        <extensions>
          <ns3:TrackPointExtension>
            <ns3:hr>159</ns3:hr>
            <ns3:cad>0</ns3:cad>
          </ns3:TrackPointExtension>
        </extensions>
      </trkpt>
      <trkpt lat="44.70274577848613262176513671875" lon="6.75814404152333736419677734375">
        <ele>1726.199951171875</ele>
        <time>2026-09-03T06:59:25.000Z</time>
        <extensions>
          <ns3:TrackPointExtension>
            <ns3:hr>160</ns3:hr>
            <ns3:cad>0</ns3:cad>
          </ns3:TrackPointExtension>
        </extensions>
      </trkpt>
      <trkpt lat="44.7027346305549144744873046875" lon="6.75814571790397167205810546875">
        <ele>1726.4000244140625</ele>
        <time>2026-09-03T06:59:26.000Z</time>
        <extensions>
          <ns3:TrackPointExtension>
            <ns3:hr>160</ns3:hr>
            <ns3:cad>0</ns3:cad>
          </ns3:TrackPointExtension>
        </extensions>
      </trkpt>
      <trkpt lat="44.70272918231785297393798828125" lon="6.758145801723003387451171875">
        <ele>1726.5999755859375</ele>
        <time>2026-09-03T06:59:27.000Z</time>
        <extensions>
          <ns3:TrackPointExtension>
            <ns3:hr>159</ns3:hr>
            <ns3:cad>0</ns3:cad>
          </ns3:TrackPointExtension>
        </extensions>
      </trkpt>
      <trkpt lat="44.702722392976284027099609375" lon="6.75814722664654254913330078125">
        <ele>1726.800048828125</ele>
        <time>2026-09-03T06:59:28.000Z</time>
        <extensions>
          <ns3:TrackPointExtension>
            <ns3:hr>159</ns3:hr>
            <ns3:cad>0</ns3:cad>
          </ns3:TrackPointExtension>
        </extensions>
      </trkpt>
      <trkpt lat="44.70271476544439792633056640625" lon="6.7581509985029697418212890625">
        <ele>1727</ele>
        <time>2026-09-03T06:59:29.000Z</time>
        <extensions>
          <ns3:TrackPointExtension>
            <ns3:hr>159</ns3:hr>
            <ns3:cad>0</ns3:cad>
          </ns3:TrackPointExtension>
        </extensions>
      </trkpt>
      <trkpt lat="44.70270521007478237152099609375" lon="6.75815661437809467315673828125">
        <ele>1727.199951171875</ele>
        <time>2026-09-03T06:59:30.000Z</time>
        <extensions>
          <ns3:TrackPointExtension>
            <ns3:hr>159</ns3:hr>
            <ns3:cad>0</ns3:cad>
          </ns3:TrackPointExtension>
        </extensions>
      </trkpt>
      <trkpt lat="44.70269246958196163177490234375" lon="6.7581533454358577728271484375">
        <ele>1727.4000244140625</ele>
        <time>2026-09-03T06:59:31.000Z</time>
        <extensions>
          <ns3:TrackPointExtension>
            <ns3:hr>159</ns3:hr>
            <ns3:cad>0</ns3:cad>
          </ns3:TrackPointExtension>
        </extensions>
      </trkpt>
      <trkpt lat="44.7026846744120121002197265625" lon="6.7581526748836040496826171875">
        <ele>1727.800048828125</ele>
        <time>2026-09-03T06:59:32.000Z</time>
        <extensions>
          <ns3:TrackPointExtension>
            <ns3:hr>159</ns3:hr>
            <ns3:cad>0</ns3:cad>
          </ns3:TrackPointExtension>
        </extensions>
      </trkpt>
      <trkpt lat="44.70267587341368198394775390625" lon="6.75815208815038204193115234375">
        <ele>1728</ele>
        <time>2026-09-03T06:59:33.000Z</time>
        <extensions>
          <ns3:TrackPointExtension>
            <ns3:hr>159</ns3:hr>
            <ns3:cad>0</ns3:cad>
          </ns3:TrackPointExtension>
        </extensions>
      </trkpt>
      <trkpt lat="44.70267201773822307586669921875" lon="6.75815393216907978057861328125">
        <ele>1728.199951171875</ele>
        <time>2026-09-03T06:59:34.000Z</time>
        <extensions>
          <ns3:TrackPointExtension>
            <ns3:hr>159</ns3:hr>
            <ns3:cad>0</ns3:cad>
          </ns3:TrackPointExtension>
        </extensions>
      </trkpt>
      <trkpt lat="44.70266531221568584442138671875" lon="6.75815946422517299652099609375">
        <ele>1728.4000244140625</ele>
        <time>2026-09-03T06:59:35.000Z</time>
        <extensions>
          <ns3:TrackPointExtension>
            <ns3:hr>160</ns3:hr>
            <ns3:cad>0</ns3:cad>
          </ns3:TrackPointExtension>
        </extensions>
      </trkpt>
      <trkpt lat="44.70266028307378292083740234375" lon="6.7581640742719173431396484375">
        <ele>1728.5999755859375</ele>
        <time>2026-09-03T06:59:36.000Z</time>
        <extensions>
          <ns3:TrackPointExtension>
            <ns3:hr>159</ns3:hr>
            <ns3:cad>0</ns3:cad>
          </ns3:TrackPointExtension>
        </extensions>
      </trkpt>
      <trkpt lat="44.70265056006610393524169921875" lon="6.7581650801002979278564453125">
        <ele>1728.800048828125</ele>
        <time>2026-09-03T06:59:37.000Z</time>
        <extensions>
          <ns3:TrackPointExtension>
            <ns3:hr>159</ns3:hr>
            <ns3:cad>0</ns3:cad>
          </ns3:TrackPointExtension>
        </extensions>
      </trkpt>
      <trkpt lat="44.70264033414423465728759765625" lon="6.75816868431866168975830078125">
        <ele>1729</ele>
        <time>2026-09-03T06:59:38.000Z</time>
        <extensions>
          <ns3:TrackPointExtension>
            <ns3:hr>160</ns3:hr>
            <ns3:cad>0</ns3:cad>
          </ns3:TrackPointExtension>
        </extensions>
      </trkpt>
      <trkpt lat="44.70263010822236537933349609375" lon="6.758170612156391143798828125">
        <ele>1729.199951171875</ele>
        <time>2026-09-03T06:59:39.000Z</time>
        <extensions>
          <ns3:TrackPointExtension>
            <ns3:hr>160</ns3:hr>
            <ns3:cad>0</ns3:cad>
          </ns3:TrackPointExtension>
        </extensions>
      </trkpt>
      <trkpt lat="44.70262105576694011688232421875" lon="6.75817287527024745941162109375">
        <ele>1729.4000244140625</ele>
        <time>2026-09-03T06:59:40.000Z</time>
        <extensions>
          <ns3:TrackPointExtension>
            <ns3:hr>160</ns3:hr>
            <ns3:cad>0</ns3:cad>
          </ns3:TrackPointExtension>
        </extensions>
      </trkpt>
      <trkpt lat="44.702611081302165985107421875" lon="6.75817706622183322906494140625">
        <ele>1729.5999755859375</ele>
        <time>2026-09-03T06:59:41.000Z</time>
        <extensions>
          <ns3:TrackPointExtension>
            <ns3:hr>160</ns3:hr>
            <ns3:cad>0</ns3:cad>
          </ns3:TrackPointExtension>
        </extensions>
      </trkpt>
      <trkpt lat="44.70260479487478733062744140625" lon="6.75818092189729213714599609375">
        <ele>1729.800048828125</ele>
        <time>2026-09-03T06:59:42.000Z</time>
        <extensions>
          <ns3:TrackPointExtension>
            <ns3:hr>160</ns3:hr>
            <ns3:cad>0</ns3:cad>
          </ns3:TrackPointExtension>
        </extensions>
      </trkpt>
      <trkpt lat="44.70259339548647403717041015625" lon="6.75818167626857757568359375">
        <ele>1730.199951171875</ele>
        <time>2026-09-03T06:59:43.000Z</time>
        <extensions>
          <ns3:TrackPointExtension>
            <ns3:hr>161</ns3:hr>
            <ns3:cad>0</ns3:cad>
          </ns3:TrackPointExtension>
        </extensions>
      </trkpt>
      <trkpt lat="44.70258568413555622100830078125" lon="6.7581818439066410064697265625">
        <ele>1730.199951171875</ele>
        <time>2026-09-03T06:59:44.000Z</time>
        <extensions>
          <ns3:TrackPointExtension>
            <ns3:hr>161</ns3:hr>
            <ns3:cad>0</ns3:cad>
          </ns3:TrackPointExtension>
        </extensions>
      </trkpt>
      <trkpt lat="44.70257855951786041259765625" lon="6.75818226300179958343505859375">
        <ele>1730.5999755859375</ele>
        <time>2026-09-03T06:59:45.000Z</time>
        <extensions>
          <ns3:TrackPointExtension>
            <ns3:hr>162</ns3:hr>
            <ns3:cad>0</ns3:cad>
          </ns3:TrackPointExtension>
        </extensions>
      </trkpt>
      <trkpt lat="44.70256892032921314239501953125" lon="6.75817899405956268310546875">
        <ele>1730.800048828125</ele>
        <time>2026-09-03T06:59:46.000Z</time>
        <extensions>
          <ns3:TrackPointExtension>
            <ns3:hr>162</ns3:hr>
            <ns3:cad>0</ns3:cad>
          </ns3:TrackPointExtension>
        </extensions>
      </trkpt>
      <trkpt lat="44.70256925560534000396728515625" lon="6.75817765295505523681640625">
        <ele>1731</ele>
        <time>2026-09-03T06:59:47.000Z</time>
        <extensions>
          <ns3:TrackPointExtension>
            <ns3:hr>162</ns3:hr>
            <ns3:cad>0</ns3:cad>
          </ns3:TrackPointExtension>
        </extensions>
      </trkpt>
      <trkpt lat="44.7025582753121852874755859375" lon="6.758173294365406036376953125">
        <ele>1731.199951171875</ele>
        <time>2026-09-03T06:59:48.000Z</time>
        <extensions>
          <ns3:TrackPointExtension>
            <ns3:hr>162</ns3:hr>
            <ns3:cad>41</ns3:cad>
          </ns3:TrackPointExtension>
        </extensions>
      </trkpt>
      <trkpt lat="44.70254234969615936279296875" lon="6.758178658783435821533203125">
        <ele>1731.4000244140625</ele>
        <time>2026-09-03T06:59:49.000Z</time>
        <extensions>
          <ns3:TrackPointExtension>
            <ns3:hr>162</ns3:hr>
            <ns3:cad>41</ns3:cad>
          </ns3:TrackPointExtension>
        </extensions>
      </trkpt>
      <trkpt lat="44.7025287710130214691162109375" lon="6.75817899405956268310546875">
        <ele>1731.800048828125</ele>
        <time>2026-09-03T06:59:50.000Z</time>
        <extensions>
          <ns3:TrackPointExtension>
            <ns3:hr>162</ns3:hr>
            <ns3:cad>41</ns3:cad>
          </ns3:TrackPointExtension>
        </extensions>
      </trkpt>
      <trkpt lat="44.70251644961535930633544921875" lon="6.758179329335689544677734375">
        <ele>1732</ele>
        <time>2026-09-03T06:59:51.000Z</time>
        <extensions>
          <ns3:TrackPointExtension>
            <ns3:hr>162</ns3:hr>
            <ns3:cad>41</ns3:cad>
          </ns3:TrackPointExtension>
        </extensions>
      </trkpt>
      <trkpt lat="44.702508486807346343994140625" lon="6.7581848613917827606201171875">
        <ele>1732.199951171875</ele>
        <time>2026-09-03T06:59:52.000Z</time>
        <extensions>
          <ns3:TrackPointExtension>
            <ns3:hr>162</ns3:hr>
            <ns3:cad>41</ns3:cad>
          </ns3:TrackPointExtension>
        </extensions>
      </trkpt>
      <trkpt lat="44.70250169746577739715576171875" lon="6.75819215364754199981689453125">
        <ele>1732.4000244140625</ele>
        <time>2026-09-03T06:59:53.000Z</time>
        <extensions>
          <ns3:TrackPointExtension>
            <ns3:hr>162</ns3:hr>
            <ns3:cad>78</ns3:cad>
          </ns3:TrackPointExtension>
        </extensions>
      </trkpt>
      <trkpt lat="44.70249784179031848907470703125" lon="6.7581905610859394073486328125">
        <ele>1732.5999755859375</ele>
        <time>2026-09-03T06:59:54.000Z</time>
        <extensions>
          <ns3:TrackPointExtension>
            <ns3:hr>163</ns3:hr>
            <ns3:cad>78</ns3:cad>
          </ns3:TrackPointExtension>
        </extensions>
      </trkpt>
      <trkpt lat="44.7024905495345592498779296875" lon="6.7581944167613983154296875">
        <ele>1732.800048828125</ele>
        <time>2026-09-03T06:59:55.000Z</time>
        <extensions>
          <ns3:TrackPointExtension>
            <ns3:hr>162</ns3:hr>
            <ns3:cad>0</ns3:cad>
          </ns3:TrackPointExtension>
        </extensions>
      </trkpt>
      <trkpt lat="44.70248325727880001068115234375" lon="6.7581892199814319610595703125">
        <ele>1733.199951171875</ele>
        <time>2026-09-03T06:59:56.000Z</time>
        <extensions>
          <ns3:TrackPointExtension>
            <ns3:hr>163</ns3:hr>
            <ns3:cad>0</ns3:cad>
          </ns3:TrackPointExtension>
        </extensions>
      </trkpt>
      <trkpt lat="44.70247051678597927093505859375" lon="6.7581905610859394073486328125">
        <ele>1733.4000244140625</ele>
        <time>2026-09-03T06:59:57.000Z</time>
        <extensions>
          <ns3:TrackPointExtension>
            <ns3:hr>163</ns3:hr>
            <ns3:cad>0</ns3:cad>
          </ns3:TrackPointExtension>
        </extensions>
      </trkpt>
      <trkpt lat="44.70246263779699802398681640625" lon="6.75819064490497112274169921875">
        <ele>1733.5999755859375</ele>
        <time>2026-09-03T06:59:58.000Z</time>
        <extensions>
          <ns3:TrackPointExtension>
            <ns3:hr>163</ns3:hr>
            <ns3:cad>0</ns3:cad>
          </ns3:TrackPointExtension>
        </extensions>
      </trkpt>
      <trkpt lat="44.70245174132287502288818359375" lon="6.75819735042750835418701171875">
        <ele>1733.800048828125</ele>
        <time>2026-09-03T06:59:59.000Z</time>
        <extensions>
          <ns3:TrackPointExtension>
            <ns3:hr>162</ns3:hr>
            <ns3:cad>0</ns3:cad>
          </ns3:TrackPointExtension>
        </extensions>
      </trkpt>
      <trkpt lat="44.702441431581974029541015625" lon="6.7582029663026332855224609375">
        <ele>1734</ele>
        <time>2026-09-03T07:00:00.000Z</time>
        <extensions>
          <ns3:TrackPointExtension>
            <ns3:hr>162</ns3:hr>
            <ns3:cad>0</ns3:cad>
          </ns3:TrackPointExtension>
        </extensions>
      </trkpt>
      <trkpt lat="44.70243397168815135955810546875" lon="6.75820707343518733978271484375">
        <ele>1734.199951171875</ele>
        <time>2026-09-03T07:00:01.000Z</time>
        <extensions>
          <ns3:TrackPointExtension>
            <ns3:hr>162</ns3:hr>
            <ns3:cad>0</ns3:cad>
          </ns3:TrackPointExtension>
        </extensions>
      </trkpt>
      <trkpt lat="44.7024228237569332122802734375" lon="6.758214868605136871337890625">
        <ele>1734.5999755859375</ele>
        <time>2026-09-03T07:00:02.000Z</time>
        <extensions>
          <ns3:TrackPointExtension>
            <ns3:hr>162</ns3:hr>
            <ns3:cad>0</ns3:cad>
          </ns3:TrackPointExtension>
        </extensions>
      </trkpt>
      <trkpt lat="44.702417291700839996337890625" lon="6.7582173831760883331298828125">
        <ele>1734.800048828125</ele>
        <time>2026-09-03T07:00:03.000Z</time>
        <extensions>
          <ns3:TrackPointExtension>
            <ns3:hr>162</ns3:hr>
            <ns3:cad>40</ns3:cad>
          </ns3:TrackPointExtension>
        </extensions>
      </trkpt>
      <trkpt lat="44.70240731723606586456298828125" lon="6.75823087804019451141357421875">
        <ele>1735</ele>
        <time>2026-09-03T07:00:04.000Z</time>
        <extensions>
          <ns3:TrackPointExtension>
            <ns3:hr>162</ns3:hr>
            <ns3:cad>40</ns3:cad>
          </ns3:TrackPointExtension>
        </extensions>
      </trkpt>
      <trkpt lat="44.70240228809416294097900390625" lon="6.75824210979044437408447265625">
        <ele>1735.4000244140625</ele>
        <time>2026-09-03T07:00:05.000Z</time>
        <extensions>
          <ns3:TrackPointExtension>
            <ns3:hr>162</ns3:hr>
            <ns3:cad>0</ns3:cad>
          </ns3:TrackPointExtension>
        </extensions>
      </trkpt>
      <trkpt lat="44.702393151819705963134765625" lon="6.75826088525354862213134765625">
        <ele>1735.5999755859375</ele>
        <time>2026-09-03T07:00:06.000Z</time>
        <extensions>
          <ns3:TrackPointExtension>
            <ns3:hr>162</ns3:hr>
            <ns3:cad>0</ns3:cad>
          </ns3:TrackPointExtension>
        </extensions>
      </trkpt>
      <trkpt lat="44.7023861110210418701171875" lon="6.75827077589929103851318359375">
        <ele>1735.800048828125</ele>
        <time>2026-09-03T07:00:07.000Z</time>
        <extensions>
          <ns3:TrackPointExtension>
            <ns3:hr>161</ns3:hr>
            <ns3:cad>0</ns3:cad>
          </ns3:TrackPointExtension>
        </extensions>
      </trkpt>
      <trkpt lat="44.70237010158598423004150390625" lon="6.758289635181427001953125">
        <ele>1736</ele>
        <time>2026-09-03T07:00:08.000Z</time>
        <extensions>
          <ns3:TrackPointExtension>
            <ns3:hr>162</ns3:hr>
            <ns3:cad>0</ns3:cad>
          </ns3:TrackPointExtension>
        </extensions>
      </trkpt>
      <trkpt lat="44.70235970802605152130126953125" lon="6.758298017084598541259765625">
        <ele>1736.199951171875</ele>
        <time>2026-09-03T07:00:09.000Z</time>
        <extensions>
          <ns3:TrackPointExtension>
            <ns3:hr>163</ns3:hr>
            <ns3:cad>0</ns3:cad>
          </ns3:TrackPointExtension>
        </extensions>
      </trkpt>
      <trkpt lat="44.7023490630090236663818359375" lon="6.75830162130296230316162109375">
        <ele>1736.4000244140625</ele>
        <time>2026-09-03T07:00:10.000Z</time>
        <extensions>
          <ns3:TrackPointExtension>
            <ns3:hr>163</ns3:hr>
            <ns3:cad>0</ns3:cad>
          </ns3:TrackPointExtension>
        </extensions>
      </trkpt>
      <trkpt lat="44.70233825035393238067626953125" lon="6.75830162130296230316162109375">
        <ele>1736.5999755859375</ele>
        <time>2026-09-03T07:00:11.000Z</time>
        <extensions>
          <ns3:TrackPointExtension>
            <ns3:hr>163</ns3:hr>
            <ns3:cad>0</ns3:cad>
          </ns3:TrackPointExtension>
        </extensions>
      </trkpt>
      <trkpt lat="44.702333472669124603271484375" lon="6.75830145366489887237548828125">
        <ele>1736.800048828125</ele>
        <time>2026-09-03T07:00:12.000Z</time>
        <extensions>
          <ns3:TrackPointExtension>
            <ns3:hr>163</ns3:hr>
            <ns3:cad>0</ns3:cad>
          </ns3:TrackPointExtension>
        </extensions>
      </trkpt>
      <trkpt lat="44.702322743833065032958984375" lon="6.75830061547458171844482421875">
        <ele>1736.800048828125</ele>
        <time>2026-09-03T07:00:13.000Z</time>
        <extensions>
          <ns3:TrackPointExtension>
            <ns3:hr>164</ns3:hr>
            <ns3:cad>0</ns3:cad>
          </ns3:TrackPointExtension>
        </extensions>
      </trkpt>
      <trkpt lat="44.7023165412247180938720703125" lon="6.758298687636852264404296875">
        <ele>1737</ele>
        <time>2026-09-03T07:00:14.000Z</time>
        <extensions>
          <ns3:TrackPointExtension>
            <ns3:hr>164</ns3:hr>
            <ns3:cad>0</ns3:cad>
          </ns3:TrackPointExtension>
        </extensions>
      </trkpt>
      <trkpt lat="44.70230354927480220794677734375" lon="6.75830128602683544158935546875">
        <ele>1737.199951171875</ele>
        <time>2026-09-03T07:00:15.000Z</time>
        <extensions>
          <ns3:TrackPointExtension>
            <ns3:hr>164</ns3:hr>
            <ns3:cad>0</ns3:cad>
          </ns3:TrackPointExtension>
        </extensions>
      </trkpt>
      <trkpt lat="44.7022975981235504150390625" lon="6.7583038844168186187744140625">
        <ele>1737.4000244140625</ele>
        <time>2026-09-03T07:00:16.000Z</time>
        <extensions>
          <ns3:TrackPointExtension>
            <ns3:hr>164</ns3:hr>
            <ns3:cad>0</ns3:cad>
          </ns3:TrackPointExtension>
        </extensions>
      </trkpt>
      <trkpt lat="44.70228645019233226776123046875" lon="6.75831377506256103515625">
        <ele>1737.5999755859375</ele>
        <time>2026-09-03T07:00:17.000Z</time>
        <extensions>
          <ns3:TrackPointExtension>
            <ns3:hr>164</ns3:hr>
            <ns3:cad>0</ns3:cad>
          </ns3:TrackPointExtension>
        </extensions>
      </trkpt>
      <trkpt lat="44.70228075049817562103271484375" lon="6.75831587053835391998291015625">
        <ele>1737.800048828125</ele>
        <time>2026-09-03T07:00:18.000Z</time>
        <extensions>
          <ns3:TrackPointExtension>
            <ns3:hr>164</ns3:hr>
            <ns3:cad>0</ns3:cad>
          </ns3:TrackPointExtension>
        </extensions>
      </trkpt>
      <trkpt lat="44.7022742964327335357666015625" lon="6.7583193071186542510986328125">
        <ele>1738</ele>
        <time>2026-09-03T07:00:19.000Z</time>
        <extensions>
          <ns3:TrackPointExtension>
            <ns3:hr>163</ns3:hr>
            <ns3:cad>0</ns3:cad>
          </ns3:TrackPointExtension>
        </extensions>
      </trkpt>
      <trkpt lat="44.7022685967385768890380859375" lon="6.7583233304321765899658203125">
        <ele>1738.199951171875</ele>
        <time>2026-09-03T07:00:20.000Z</time>
        <extensions>
          <ns3:TrackPointExtension>
            <ns3:hr>164</ns3:hr>
            <ns3:cad>0</ns3:cad>
          </ns3:TrackPointExtension>
        </extensions>
      </trkpt>
      <trkpt lat="44.7022625617682933807373046875" lon="6.75832383334636688232421875">
        <ele>1738.5999755859375</ele>
        <time>2026-09-03T07:00:21.000Z</time>
        <extensions>
          <ns3:TrackPointExtension>
            <ns3:hr>164</ns3:hr>
            <ns3:cad>0</ns3:cad>
          </ns3:TrackPointExtension>
        </extensions>
      </trkpt>
      <trkpt lat="44.70225392840802669525146484375" lon="6.7583323828876018524169921875">
        <ele>1738.800048828125</ele>
        <time>2026-09-03T07:00:22.000Z</time>
        <extensions>
          <ns3:TrackPointExtension>
            <ns3:hr>163</ns3:hr>
            <ns3:cad>0</ns3:cad>
          </ns3:TrackPointExtension>
        </extensions>
      </trkpt>
      <trkpt lat="44.70224571414291858673095703125" lon="6.75833850167691707611083984375">
        <ele>1739</ele>
        <time>2026-09-03T07:00:23.000Z</time>
        <extensions>
          <ns3:TrackPointExtension>
            <ns3:hr>164</ns3:hr>
            <ns3:cad>0</ns3:cad>
          </ns3:TrackPointExtension>
        </extensions>
      </trkpt>
      <trkpt lat="44.702235572040081024169921875" lon="6.758347637951374053955078125">
        <ele>1739.199951171875</ele>
        <time>2026-09-03T07:00:24.000Z</time>
        <extensions>
          <ns3:TrackPointExtension>
            <ns3:hr>164</ns3:hr>
            <ns3:cad>0</ns3:cad>
          </ns3:TrackPointExtension>
        </extensions>
      </trkpt>
      <trkpt lat="44.70222811214625835418701171875" lon="6.75835794769227504730224609375">
        <ele>1739.4000244140625</ele>
        <time>2026-09-03T07:00:25.000Z</time>
        <extensions>
          <ns3:TrackPointExtension>
            <ns3:hr>164</ns3:hr>
            <ns3:cad>0</ns3:cad>
          </ns3:TrackPointExtension>
        </extensions>
      </trkpt>
      <trkpt lat="44.70222241245210170745849609375" lon="6.75836465321481227874755859375">
        <ele>1739.5999755859375</ele>
        <time>2026-09-03T07:00:26.000Z</time>
        <extensions>
          <ns3:TrackPointExtension>
            <ns3:hr>165</ns3:hr>
            <ns3:cad>0</ns3:cad>
          </ns3:TrackPointExtension>
        </extensions>
      </trkpt>
      <trkpt lat="44.7022122703492641448974609375" lon="6.7583742924034595489501953125">
        <ele>1739.800048828125</ele>
        <time>2026-09-03T07:00:27.000Z</time>
        <extensions>
          <ns3:TrackPointExtension>
            <ns3:hr>165</ns3:hr>
            <ns3:cad>0</ns3:cad>
          </ns3:TrackPointExtension>
        </extensions>
      </trkpt>
      <trkpt lat="44.70221042633056640625" lon="6.758381165564060211181640625">
        <ele>1740.199951171875</ele>
        <time>2026-09-03T07:00:28.000Z</time>
        <extensions>
          <ns3:TrackPointExtension>
            <ns3:hr>165</ns3:hr>
            <ns3:cad>0</ns3:cad>
          </ns3:TrackPointExtension>
        </extensions>
      </trkpt>
      <trkpt lat="44.70220397226512432098388671875" lon="6.75838661380112171173095703125">
        <ele>1740.4000244140625</ele>
        <time>2026-09-03T07:00:29.000Z</time>
        <extensions>
          <ns3:TrackPointExtension>
            <ns3:hr>165</ns3:hr>
            <ns3:cad>0</ns3:cad>
          </ns3:TrackPointExtension>
        </extensions>
      </trkpt>
      <trkpt lat="44.702197015285491943359375" lon="6.75839264877140522003173828125">
        <ele>1740.5999755859375</ele>
        <time>2026-09-03T07:00:30.000Z</time>
        <extensions>
          <ns3:TrackPointExtension>
            <ns3:hr>165</ns3:hr>
            <ns3:cad>0</ns3:cad>
          </ns3:TrackPointExtension>
        </extensions>
      </trkpt>
      <trkpt lat="44.70218771137297153472900390625" lon="6.75839885137975215911865234375">
        <ele>1740.800048828125</ele>
        <time>2026-09-03T07:00:31.000Z</time>
        <extensions>
          <ns3:TrackPointExtension>
            <ns3:hr>165</ns3:hr>
            <ns3:cad>0</ns3:cad>
          </ns3:TrackPointExtension>
        </extensions>
      </trkpt>
      <trkpt lat="44.70217932946979999542236328125" lon="6.75840572454035282135009765625">
        <ele>1741</ele>
        <time>2026-09-03T07:00:32.000Z</time>
        <extensions>
          <ns3:TrackPointExtension>
            <ns3:hr>164</ns3:hr>
            <ns3:cad>0</ns3:cad>
          </ns3:TrackPointExtension>
        </extensions>
      </trkpt>
      <trkpt lat="44.70217430032789707183837890625" lon="6.7584094963967800140380859375">
        <ele>1741.4000244140625</ele>
        <time>2026-09-03T07:00:33.000Z</time>
        <extensions>
          <ns3:TrackPointExtension>
            <ns3:hr>164</ns3:hr>
            <ns3:cad>0</ns3:cad>
          </ns3:TrackPointExtension>
        </extensions>
      </trkpt>
      <trkpt lat="44.702164493501186370849609375" lon="6.75841125659644603729248046875">
        <ele>1741.5999755859375</ele>
        <time>2026-09-03T07:00:34.000Z</time>
        <extensions>
          <ns3:TrackPointExtension>
            <ns3:hr>164</ns3:hr>
            <ns3:cad>0</ns3:cad>
          </ns3:TrackPointExtension>
        </extensions>
      </trkpt>
      <trkpt lat="44.70215636305510997772216796875" lon="6.75842106342315673828125">
        <ele>1741.800048828125</ele>
        <time>2026-09-03T07:00:35.000Z</time>
        <extensions>
          <ns3:TrackPointExtension>
            <ns3:hr>164</ns3:hr>
            <ns3:cad>0</ns3:cad>
          </ns3:TrackPointExtension>
        </extensions>
      </trkpt>
      <trkpt lat="44.7021472267806529998779296875" lon="6.75843455828726291656494140625">
        <ele>1742.199951171875</ele>
        <time>2026-09-03T07:00:36.000Z</time>
        <extensions>
          <ns3:TrackPointExtension>
            <ns3:hr>164</ns3:hr>
            <ns3:cad>0</ns3:cad>
          </ns3:TrackPointExtension>
        </extensions>
      </trkpt>
      <trkpt lat="44.70214060507714748382568359375" lon="6.75843271426856517791748046875">
        <ele>1742.4000244140625</ele>
        <time>2026-09-03T07:00:37.000Z</time>
        <extensions>
          <ns3:TrackPointExtension>
            <ns3:hr>164</ns3:hr>
            <ns3:cad>0</ns3:cad>
          </ns3:TrackPointExtension>
        </extensions>
      </trkpt>
      <trkpt lat="44.70212300308048725128173828125" lon="6.758438833057880401611328125">
        <ele>1742.5999755859375</ele>
        <time>2026-09-03T07:00:38.000Z</time>
        <extensions>
          <ns3:TrackPointExtension>
            <ns3:hr>164</ns3:hr>
            <ns3:cad>0</ns3:cad>
          </ns3:TrackPointExtension>
        </extensions>
      </trkpt>
      <trkpt lat="44.702112860977649688720703125" lon="6.75844294019043445587158203125">
        <ele>1742.800048828125</ele>
        <time>2026-09-03T07:00:39.000Z</time>
        <extensions>
          <ns3:TrackPointExtension>
            <ns3:hr>164</ns3:hr>
            <ns3:cad>0</ns3:cad>
          </ns3:TrackPointExtension>
        </extensions>
      </trkpt>
      <trkpt lat="44.70209701918065547943115234375" lon="6.75845836289227008819580078125">
        <ele>1743.199951171875</ele>
        <time>2026-09-03T07:00:40.000Z</time>
        <extensions>
          <ns3:TrackPointExtension>
            <ns3:hr>164</ns3:hr>
            <ns3:cad>0</ns3:cad>
          </ns3:TrackPointExtension>
        </extensions>
      </trkpt>
      <trkpt lat="44.7020882181823253631591796875" lon="6.75846909172832965850830078125">
        <ele>1743.4000244140625</ele>
        <time>2026-09-03T07:00:41.000Z</time>
        <extensions>
          <ns3:TrackPointExtension>
            <ns3:hr>164</ns3:hr>
            <ns3:cad>0</ns3:cad>
          </ns3:TrackPointExtension>
        </extensions>
      </trkpt>
      <trkpt lat="44.70208042301237583160400390625" lon="6.758472025394439697265625">
        <ele>1743.5999755859375</ele>
        <time>2026-09-03T07:00:42.000Z</time>
        <extensions>
          <ns3:TrackPointExtension>
            <ns3:hr>164</ns3:hr>
            <ns3:cad>0</ns3:cad>
          </ns3:TrackPointExtension>
        </extensions>
      </trkpt>
      <trkpt lat="44.70207371748983860015869140625" lon="6.7584822513163089752197265625">
        <ele>1743.800048828125</ele>
        <time>2026-09-03T07:00:43.000Z</time>
        <extensions>
          <ns3:TrackPointExtension>
            <ns3:hr>164</ns3:hr>
            <ns3:cad>0</ns3:cad>
          </ns3:TrackPointExtension>
        </extensions>
      </trkpt>
      <trkpt lat="44.7020711190998554229736328125" lon="6.75848074257373809814453125">
        <ele>1744.199951171875</ele>
        <time>2026-09-03T07:00:44.000Z</time>
        <extensions>
          <ns3:TrackPointExtension>
            <ns3:hr>164</ns3:hr>
            <ns3:cad>0</ns3:cad>
          </ns3:TrackPointExtension>
        </extensions>
      </trkpt>
      <trkpt lat="44.70206265337765216827392578125" lon="6.75849323160946369171142578125">
        <ele>1744.4000244140625</ele>
        <time>2026-09-03T07:00:45.000Z</time>
        <extensions>
          <ns3:TrackPointExtension>
            <ns3:hr>164</ns3:hr>
            <ns3:cad>0</ns3:cad>
          </ns3:TrackPointExtension>
        </extensions>
      </trkpt>
      <trkpt lat="44.70206131227314472198486328125" lon="6.7584986798465251922607421875">
        <ele>1744.5999755859375</ele>
        <time>2026-09-03T07:00:46.000Z</time>
        <extensions>
          <ns3:TrackPointExtension>
            <ns3:hr>164</ns3:hr>
            <ns3:cad>0</ns3:cad>
          </ns3:TrackPointExtension>
        </extensions>
      </trkpt>
      <trkpt lat="44.7020560316741466522216796875" lon="6.758509576320648193359375">
        <ele>1744.800048828125</ele>
        <time>2026-09-03T07:00:47.000Z</time>
        <extensions>
          <ns3:TrackPointExtension>
            <ns3:hr>165</ns3:hr>
            <ns3:cad>0</ns3:cad>
          </ns3:TrackPointExtension>
        </extensions>
      </trkpt>
      <trkpt lat="44.70206550322473049163818359375" lon="6.7585181258618831634521484375">
        <ele>1745</ele>
        <time>2026-09-03T07:00:48.000Z</time>
        <extensions>
          <ns3:TrackPointExtension>
            <ns3:hr>165</ns3:hr>
            <ns3:cad>0</ns3:cad>
          </ns3:TrackPointExtension>
        </extensions>
      </trkpt>
      <trkpt lat="44.7020748071372509002685546875" lon="6.758534051477909088134765625">
        <ele>1745.199951171875</ele>
        <time>2026-09-03T07:00:49.000Z</time>
        <extensions>
          <ns3:TrackPointExtension>
            <ns3:hr>165</ns3:hr>
            <ns3:cad>0</ns3:cad>
          </ns3:TrackPointExtension>
        </extensions>
      </trkpt>
      <trkpt lat="44.7020734660327434539794921875" lon="6.7585436068475246429443359375">
        <ele>1745.4000244140625</ele>
        <time>2026-09-03T07:00:50.000Z</time>
        <extensions>
          <ns3:TrackPointExtension>
            <ns3:hr>165</ns3:hr>
            <ns3:cad>0</ns3:cad>
          </ns3:TrackPointExtension>
        </extensions>
      </trkpt>
      <trkpt lat="44.702074639499187469482421875" lon="6.7585511505603790283203125">
        <ele>1745.5999755859375</ele>
        <time>2026-09-03T07:00:51.000Z</time>
        <extensions>
          <ns3:TrackPointExtension>
            <ns3:hr>165</ns3:hr>
            <ns3:cad>0</ns3:cad>
          </ns3:TrackPointExtension>
        </extensions>
      </trkpt>
      <trkpt lat="44.70207028090953826904296875" lon="6.758553497493267059326171875">
        <ele>1745.800048828125</ele>
        <time>2026-09-03T07:00:52.000Z</time>
        <extensions>
          <ns3:TrackPointExtension>
            <ns3:hr>165</ns3:hr>
            <ns3:cad>0</ns3:cad>
          </ns3:TrackPointExtension>
        </extensions>
      </trkpt>
      <trkpt lat="44.70206759870052337646484375" lon="6.75855693407356739044189453125">
        <ele>1746</ele>
        <time>2026-09-03T07:00:53.000Z</time>
        <extensions>
          <ns3:TrackPointExtension>
            <ns3:hr>164</ns3:hr>
            <ns3:cad>0</ns3:cad>
          </ns3:TrackPointExtension>
        </extensions>
      </trkpt>
      <trkpt lat="44.7020669281482696533203125" lon="6.75856925547122955322265625">
        <ele>1746.199951171875</ele>
        <time>2026-09-03T07:00:54.000Z</time>
        <extensions>
          <ns3:TrackPointExtension>
            <ns3:hr>165</ns3:hr>
            <ns3:cad>0</ns3:cad>
          </ns3:TrackPointExtension>
        </extensions>
      </trkpt>
      <trkpt lat="44.7020615637302398681640625" lon="6.75857872702181339263916015625">
        <ele>1746.5999755859375</ele>
        <time>2026-09-03T07:00:55.000Z</time>
        <extensions>
          <ns3:TrackPointExtension>
            <ns3:hr>165</ns3:hr>
            <ns3:cad>0</ns3:cad>
          </ns3:TrackPointExtension>
        </extensions>
      </trkpt>
      <trkpt lat="44.70205661840736865997314453125" lon="6.75859247334301471710205078125">
        <ele>1746.800048828125</ele>
        <time>2026-09-03T07:00:56.000Z</time>
        <extensions>
          <ns3:TrackPointExtension>
            <ns3:hr>165</ns3:hr>
            <ns3:cad>0</ns3:cad>
          </ns3:TrackPointExtension>
        </extensions>
      </trkpt>
      <trkpt lat="44.70205276273190975189208984375" lon="6.7585913836956024169921875">
        <ele>1747</ele>
        <time>2026-09-03T07:00:57.000Z</time>
        <extensions>
          <ns3:TrackPointExtension>
            <ns3:hr>165</ns3:hr>
            <ns3:cad>0</ns3:cad>
          </ns3:TrackPointExtension>
        </extensions>
      </trkpt>
      <trkpt lat="44.70205058343708515167236328125" lon="6.75860336981713771820068359375">
        <ele>1747.4000244140625</ele>
        <time>2026-09-03T07:00:58.000Z</time>
        <extensions>
          <ns3:TrackPointExtension>
            <ns3:hr>165</ns3:hr>
            <ns3:cad>0</ns3:cad>
          </ns3:TrackPointExtension>
        </extensions>
      </trkpt>
      <trkpt lat="44.70205561257898807525634765625" lon="6.75861418247222900390625">
        <ele>1747.5999755859375</ele>
        <time>2026-09-03T07:00:59.000Z</time>
        <extensions>
          <ns3:TrackPointExtension>
            <ns3:hr>166</ns3:hr>
            <ns3:cad>0</ns3:cad>
          </ns3:TrackPointExtension>
        </extensions>
      </trkpt>
      <trkpt lat="44.70205494202673435211181640625" lon="6.7586200498044490814208984375">
        <ele>1747.800048828125</ele>
        <time>2026-09-03T07:01:00.000Z</time>
        <extensions>
          <ns3:TrackPointExtension>
            <ns3:hr>166</ns3:hr>
            <ns3:cad>0</ns3:cad>
          </ns3:TrackPointExtension>
        </extensions>
      </trkpt>
      <trkpt lat="44.70206089317798614501953125" lon="6.75862801261246204376220703125">
        <ele>1748</ele>
        <time>2026-09-03T07:01:01.000Z</time>
        <extensions>
          <ns3:TrackPointExtension>
            <ns3:hr>166</ns3:hr>
            <ns3:cad>0</ns3:cad>
          </ns3:TrackPointExtension>
        </extensions>
      </trkpt>
      <trkpt lat="44.70207254402339458465576171875" lon="6.758636645972728729248046875">
        <ele>1748.199951171875</ele>
        <time>2026-09-03T07:01:02.000Z</time>
        <extensions>
          <ns3:TrackPointExtension>
            <ns3:hr>166</ns3:hr>
            <ns3:cad>0</ns3:cad>
          </ns3:TrackPointExtension>
        </extensions>
      </trkpt>
      <trkpt lat="44.7020830214023590087890625" lon="6.7586418427526950836181640625">
        <ele>1748.4000244140625</ele>
        <time>2026-09-03T07:01:03.000Z</time>
        <extensions>
          <ns3:TrackPointExtension>
            <ns3:hr>166</ns3:hr>
            <ns3:cad>0</ns3:cad>
          </ns3:TrackPointExtension>
        </extensions>
      </trkpt>
      <trkpt lat="44.7020939178764820098876953125" lon="6.75864762626588344573974609375">
        <ele>1748.5999755859375</ele>
        <time>2026-09-03T07:01:04.000Z</time>
        <extensions>
          <ns3:TrackPointExtension>
            <ns3:hr>166</ns3:hr>
            <ns3:cad>0</ns3:cad>
          </ns3:TrackPointExtension>
        </extensions>
      </trkpt>
      <trkpt lat="44.7021019645035266876220703125" lon="6.75864896737039089202880859375">
        <ele>1748.800048828125</ele>
        <time>2026-09-03T07:01:05.000Z</time>
        <extensions>
          <ns3:TrackPointExtension>
            <ns3:hr>167</ns3:hr>
            <ns3:cad>0</ns3:cad>
          </ns3:TrackPointExtension>
        </extensions>
      </trkpt>
      <trkpt lat="44.70210942439734935760498046875" lon="6.7586565949022769927978515625">
        <ele>1748.800048828125</ele>
        <time>2026-09-03T07:01:06.000Z</time>
        <extensions>
          <ns3:TrackPointExtension>
            <ns3:hr>166</ns3:hr>
            <ns3:cad>0</ns3:cad>
          </ns3:TrackPointExtension>
        </extensions>
      </trkpt>
      <trkpt lat="44.7021205723285675048828125" lon="6.75866103731095790863037109375">
        <ele>1749</ele>
        <time>2026-09-03T07:01:07.000Z</time>
        <extensions>
          <ns3:TrackPointExtension>
            <ns3:hr>167</ns3:hr>
            <ns3:cad>0</ns3:cad>
          </ns3:TrackPointExtension>
        </extensions>
      </trkpt>
      <trkpt lat="44.70212250016629695892333984375" lon="6.7586629651486873626708984375">
        <ele>1749.199951171875</ele>
        <time>2026-09-03T07:01:08.000Z</time>
        <extensions>
          <ns3:TrackPointExtension>
            <ns3:hr>167</ns3:hr>
            <ns3:cad>0</ns3:cad>
          </ns3:TrackPointExtension>
        </extensions>
      </trkpt>
      <trkpt lat="44.7021334804594516754150390625" lon="6.75866992212831974029541015625">
        <ele>1749.4000244140625</ele>
        <time>2026-09-03T07:01:09.000Z</time>
        <extensions>
          <ns3:TrackPointExtension>
            <ns3:hr>168</ns3:hr>
            <ns3:cad>0</ns3:cad>
          </ns3:TrackPointExtension>
        </extensions>
      </trkpt>
      <trkpt lat="44.7021339833736419677734375" lon="6.75867109559476375579833984375">
        <ele>1749.5999755859375</ele>
        <time>2026-09-03T07:01:10.000Z</time>
        <extensions>
          <ns3:TrackPointExtension>
            <ns3:hr>168</ns3:hr>
            <ns3:cad>0</ns3:cad>
          </ns3:TrackPointExtension>
        </extensions>
      </trkpt>
      <trkpt lat="44.70213255845010280609130859375" lon="6.7586810700595378875732421875">
        <ele>1749.800048828125</ele>
        <time>2026-09-03T07:01:11.000Z</time>
        <extensions>
          <ns3:TrackPointExtension>
            <ns3:hr>168</ns3:hr>
            <ns3:cad>0</ns3:cad>
          </ns3:TrackPointExtension>
        </extensions>
      </trkpt>
      <trkpt lat="44.7021287865936756134033203125" lon="6.7586884461343288421630859375">
        <ele>1750.199951171875</ele>
        <time>2026-09-03T07:01:12.000Z</time>
        <extensions>
          <ns3:TrackPointExtension>
            <ns3:hr>169</ns3:hr>
            <ns3:cad>0</ns3:cad>
          </ns3:TrackPointExtension>
        </extensions>
      </trkpt>
      <trkpt lat="44.70212384127080440521240234375" lon="6.758699677884578704833984375">
        <ele>1750.4000244140625</ele>
        <time>2026-09-03T07:01:13.000Z</time>
        <extensions>
          <ns3:TrackPointExtension>
            <ns3:hr>169</ns3:hr>
            <ns3:cad>0</ns3:cad>
          </ns3:TrackPointExtension>
        </extensions>
      </trkpt>
      <trkpt lat="44.7021214105188846588134765625" lon="6.75870864652097225189208984375">
        <ele>1750.5999755859375</ele>
        <time>2026-09-03T07:01:14.000Z</time>
        <extensions>
          <ns3:TrackPointExtension>
            <ns3:hr>169</ns3:hr>
            <ns3:cad>0</ns3:cad>
          </ns3:TrackPointExtension>
        </extensions>
      </trkpt>
      <trkpt lat="44.7021110169589519500732421875" lon="6.7587249912321567535400390625">
        <ele>1751</ele>
        <time>2026-09-03T07:01:15.000Z</time>
        <extensions>
          <ns3:TrackPointExtension>
            <ns3:hr>169</ns3:hr>
            <ns3:cad>0</ns3:cad>
          </ns3:TrackPointExtension>
        </extensions>
      </trkpt>
      <trkpt lat="44.7021026350557804107666015625" lon="6.75873664207756519317626953125">
        <ele>1751.199951171875</ele>
        <time>2026-09-03T07:01:16.000Z</time>
        <extensions>
          <ns3:TrackPointExtension>
            <ns3:hr>170</ns3:hr>
            <ns3:cad>0</ns3:cad>
          </ns3:TrackPointExtension>
        </extensions>
      </trkpt>
      <trkpt lat="44.70208905637264251708984375" lon="6.75874225795269012451171875">
        <ele>1751.4000244140625</ele>
        <time>2026-09-03T07:01:17.000Z</time>
        <extensions>
          <ns3:TrackPointExtension>
            <ns3:hr>170</ns3:hr>
            <ns3:cad>0</ns3:cad>
          </ns3:TrackPointExtension>
        </extensions>
      </trkpt>
      <trkpt lat="44.70207807607948780059814453125" lon="6.75875105895102024078369140625">
        <ele>1751.5999755859375</ele>
        <time>2026-09-03T07:01:18.000Z</time>
        <extensions>
          <ns3:TrackPointExtension>
            <ns3:hr>170</ns3:hr>
            <ns3:cad>0</ns3:cad>
          </ns3:TrackPointExtension>
        </extensions>
      </trkpt>
      <trkpt lat="44.7020748071372509002685546875" lon="6.75875592045485973358154296875">
        <ele>1751.800048828125</ele>
        <time>2026-09-03T07:01:19.000Z</time>
        <extensions>
          <ns3:TrackPointExtension>
            <ns3:hr>170</ns3:hr>
            <ns3:cad>0</ns3:cad>
          </ns3:TrackPointExtension>
        </extensions>
      </trkpt>
      <trkpt lat="44.70206231810152530670166015625" lon="6.75876773893833160400390625">
        <ele>1752.199951171875</ele>
        <time>2026-09-03T07:01:20.000Z</time>
        <extensions>
          <ns3:TrackPointExtension>
            <ns3:hr>170</ns3:hr>
            <ns3:cad>0</ns3:cad>
          </ns3:TrackPointExtension>
        </extensions>
      </trkpt>
      <trkpt lat="44.7020560316741466522216796875" lon="6.7587709240615367889404296875">
        <ele>1752.4000244140625</ele>
        <time>2026-09-03T07:01:21.000Z</time>
        <extensions>
          <ns3:TrackPointExtension>
            <ns3:hr>170</ns3:hr>
            <ns3:cad>0</ns3:cad>
          </ns3:TrackPointExtension>
        </extensions>
      </trkpt>
      <trkpt lat="44.70204572193324565887451171875" lon="6.75877980887889862060546875">
        <ele>1752.5999755859375</ele>
        <time>2026-09-03T07:01:22.000Z</time>
        <extensions>
          <ns3:TrackPointExtension>
            <ns3:hr>170</ns3:hr>
            <ns3:cad>0</ns3:cad>
          </ns3:TrackPointExtension>
        </extensions>
      </trkpt>
      <trkpt lat="44.70203767530620098114013671875" lon="6.7587871849536895751953125">
        <ele>1753</ele>
        <time>2026-09-03T07:01:23.000Z</time>
        <extensions>
          <ns3:TrackPointExtension>
            <ns3:hr>169</ns3:hr>
            <ns3:cad>0</ns3:cad>
          </ns3:TrackPointExtension>
        </extensions>
      </trkpt>
      <trkpt lat="44.7020282037556171417236328125" lon="6.75880822353065013885498046875">
        <ele>1753.199951171875</ele>
        <time>2026-09-03T07:01:24.000Z</time>
        <extensions>
          <ns3:TrackPointExtension>
            <ns3:hr>169</ns3:hr>
            <ns3:cad>0</ns3:cad>
          </ns3:TrackPointExtension>
        </extensions>
      </trkpt>
      <trkpt lat="44.7020201571285724639892578125" lon="6.7588171921670436859130859375">
        <ele>1753.4000244140625</ele>
        <time>2026-09-03T07:01:25.000Z</time>
        <extensions>
          <ns3:TrackPointExtension>
            <ns3:hr>169</ns3:hr>
            <ns3:cad>0</ns3:cad>
          </ns3:TrackPointExtension>
        </extensions>
      </trkpt>
      <trkpt lat="44.70201219432055950164794921875" lon="6.75881878472864627838134765625">
        <ele>1753.5999755859375</ele>
        <time>2026-09-03T07:01:26.000Z</time>
        <extensions>
          <ns3:TrackPointExtension>
            <ns3:hr>169</ns3:hr>
            <ns3:cad>0</ns3:cad>
          </ns3:TrackPointExtension>
        </extensions>
      </trkpt>
      <trkpt lat="44.702001549303531646728515625" lon="6.75883018411695957183837890625">
        <ele>1754</ele>
        <time>2026-09-03T07:01:27.000Z</time>
        <extensions>
          <ns3:TrackPointExtension>
            <ns3:hr>169</ns3:hr>
            <ns3:cad>0</ns3:cad>
          </ns3:TrackPointExtension>
        </extensions>
      </trkpt>
      <trkpt lat="44.70199660398066043853759765625" lon="6.7588336206972599029541015625">
        <ele>1754.199951171875</ele>
        <time>2026-09-03T07:01:28.000Z</time>
        <extensions>
          <ns3:TrackPointExtension>
            <ns3:hr>169</ns3:hr>
            <ns3:cad>0</ns3:cad>
          </ns3:TrackPointExtension>
        </extensions>
      </trkpt>
      <trkpt lat="44.7019891440868377685546875" lon="6.758840493857860565185546875">
        <ele>1754.4000244140625</ele>
        <time>2026-09-03T07:01:29.000Z</time>
        <extensions>
          <ns3:TrackPointExtension>
            <ns3:hr>169</ns3:hr>
            <ns3:cad>0</ns3:cad>
          </ns3:TrackPointExtension>
        </extensions>
      </trkpt>
      <trkpt lat="44.70199224539101123809814453125" lon="6.7588453553617000579833984375">
        <ele>1754.4000244140625</ele>
        <time>2026-09-03T07:01:30.000Z</time>
        <extensions>
          <ns3:TrackPointExtension>
            <ns3:hr>169</ns3:hr>
            <ns3:cad>0</ns3:cad>
          </ns3:TrackPointExtension>
        </extensions>
      </trkpt>
      <trkpt lat="44.701986797153949737548828125" lon="6.75885180942714214324951171875">
        <ele>1754.800048828125</ele>
        <time>2026-09-03T07:01:31.000Z</time>
        <extensions>
          <ns3:TrackPointExtension>
            <ns3:hr>169</ns3:hr>
            <ns3:cad>0</ns3:cad>
          </ns3:TrackPointExtension>
        </extensions>
      </trkpt>
      <trkpt lat="44.701984785497188568115234375" lon="6.75885516218841075897216796875">
        <ele>1755</ele>
        <time>2026-09-03T07:01:32.000Z</time>
        <extensions>
          <ns3:TrackPointExtension>
            <ns3:hr>168</ns3:hr>
            <ns3:cad>0</ns3:cad>
          </ns3:TrackPointExtension>
        </extensions>
      </trkpt>
      <trkpt lat="44.701971374452114105224609375" lon="6.75886471755802631378173828125">
        <ele>1755.199951171875</ele>
        <time>2026-09-03T07:01:33.000Z</time>
        <extensions>
          <ns3:TrackPointExtension>
            <ns3:hr>168</ns3:hr>
            <ns3:cad>0</ns3:cad>
          </ns3:TrackPointExtension>
        </extensions>
      </trkpt>
      <trkpt lat="44.70196492038667201995849609375" lon="6.7588698305189609527587890625">
        <ele>1755.4000244140625</ele>
        <time>2026-09-03T07:01:34.000Z</time>
        <extensions>
          <ns3:TrackPointExtension>
            <ns3:hr>168</ns3:hr>
            <ns3:cad>0</ns3:cad>
          </ns3:TrackPointExtension>
        </extensions>
      </trkpt>
      <trkpt lat="44.70195016823709011077880859375" lon="6.7588798888027667999267578125">
        <ele>1755.800048828125</ele>
        <time>2026-09-03T07:01:35.000Z</time>
        <extensions>
          <ns3:TrackPointExtension>
            <ns3:hr>168</ns3:hr>
            <ns3:cad>0</ns3:cad>
          </ns3:TrackPointExtension>
        </extensions>
      </trkpt>
      <trkpt lat="44.70194010995328426361083984375" lon="6.7588896118104457855224609375">
        <ele>1756</ele>
        <time>2026-09-03T07:01:36.000Z</time>
        <extensions>
          <ns3:TrackPointExtension>
            <ns3:hr>168</ns3:hr>
            <ns3:cad>0</ns3:cad>
          </ns3:TrackPointExtension>
        </extensions>
      </trkpt>
      <trkpt lat="44.701929129660129547119140625" lon="6.7588916234672069549560546875">
        <ele>1756.199951171875</ele>
        <time>2026-09-03T07:01:37.000Z</time>
        <extensions>
          <ns3:TrackPointExtension>
            <ns3:hr>168</ns3:hr>
            <ns3:cad>0</ns3:cad>
          </ns3:TrackPointExtension>
        </extensions>
      </trkpt>
      <trkpt lat="44.70191982574760913848876953125" lon="6.75889874808490276336669921875">
        <ele>1756.4000244140625</ele>
        <time>2026-09-03T07:01:38.000Z</time>
        <extensions>
          <ns3:TrackPointExtension>
            <ns3:hr>168</ns3:hr>
            <ns3:cad>0</ns3:cad>
          </ns3:TrackPointExtension>
        </extensions>
      </trkpt>
      <trkpt lat="44.70191513188183307647705078125" lon="6.75889908336102962493896484375">
        <ele>1756.5999755859375</ele>
        <time>2026-09-03T07:01:39.000Z</time>
        <extensions>
          <ns3:TrackPointExtension>
            <ns3:hr>168</ns3:hr>
            <ns3:cad>0</ns3:cad>
          </ns3:TrackPointExtension>
        </extensions>
      </trkpt>
      <trkpt lat="44.701902978122234344482421875" lon="6.75890176557004451751708984375">
        <ele>1756.800048828125</ele>
        <time>2026-09-03T07:01:40.000Z</time>
        <extensions>
          <ns3:TrackPointExtension>
            <ns3:hr>168</ns3:hr>
            <ns3:cad>0</ns3:cad>
          </ns3:TrackPointExtension>
        </extensions>
      </trkpt>
      <trkpt lat="44.70189853571355342864990234375" lon="6.75890008918941020965576171875">
        <ele>1757</ele>
        <time>2026-09-03T07:01:41.000Z</time>
        <extensions>
          <ns3:TrackPointExtension>
            <ns3:hr>168</ns3:hr>
            <ns3:cad>0</ns3:cad>
          </ns3:TrackPointExtension>
        </extensions>
      </trkpt>
      <trkpt lat="44.7018872201442718505859375" lon="6.75890796817839145660400390625">
        <ele>1757.199951171875</ele>
        <time>2026-09-03T07:01:42.000Z</time>
        <extensions>
          <ns3:TrackPointExtension>
            <ns3:hr>168</ns3:hr>
            <ns3:cad>0</ns3:cad>
          </ns3:TrackPointExtension>
        </extensions>
      </trkpt>
      <trkpt lat="44.701880514621734619140625" lon="6.7589130811393260955810546875">
        <ele>1757.199951171875</ele>
        <time>2026-09-03T07:01:43.000Z</time>
        <extensions>
          <ns3:TrackPointExtension>
            <ns3:hr>168</ns3:hr>
            <ns3:cad>0</ns3:cad>
          </ns3:TrackPointExtension>
        </extensions>
      </trkpt>
      <trkpt lat="44.7018669359385967254638671875" lon="6.7589204572141170501708984375">
        <ele>1757.4000244140625</ele>
        <time>2026-09-03T07:01:44.000Z</time>
        <extensions>
          <ns3:TrackPointExtension>
            <ns3:hr>167</ns3:hr>
            <ns3:cad>0</ns3:cad>
          </ns3:TrackPointExtension>
        </extensions>
      </trkpt>
      <trkpt lat="44.70185897313058376312255859375" lon="6.7589248158037662506103515625">
        <ele>1757.5999755859375</ele>
        <time>2026-09-03T07:01:45.000Z</time>
        <extensions>
          <ns3:TrackPointExtension>
            <ns3:hr>167</ns3:hr>
            <ns3:cad>0</ns3:cad>
          </ns3:TrackPointExtension>
        </extensions>
      </trkpt>
      <trkpt lat="44.70184388570487499237060546875" lon="6.7589429207146167755126953125">
        <ele>1757.800048828125</ele>
        <time>2026-09-03T07:01:46.000Z</time>
        <extensions>
          <ns3:TrackPointExtension>
            <ns3:hr>167</ns3:hr>
            <ns3:cad>0</ns3:cad>
          </ns3:TrackPointExtension>
        </extensions>
      </trkpt>
      <trkpt lat="44.70183424651622772216796875" lon="6.75894954241812229156494140625">
        <ele>1758</ele>
        <time>2026-09-03T07:01:47.000Z</time>
        <extensions>
          <ns3:TrackPointExtension>
            <ns3:hr>167</ns3:hr>
            <ns3:cad>0</ns3:cad>
          </ns3:TrackPointExtension>
        </extensions>
      </trkpt>
      <trkpt lat="44.7018216736614704132080078125" lon="6.75895683467388153076171875">
        <ele>1758.199951171875</ele>
        <time>2026-09-03T07:01:48.000Z</time>
        <extensions>
          <ns3:TrackPointExtension>
            <ns3:hr>167</ns3:hr>
            <ns3:cad>0</ns3:cad>
          </ns3:TrackPointExtension>
        </extensions>
      </trkpt>
      <trkpt lat="44.7018126212060451507568359375" lon="6.75896362401545047760009765625">
        <ele>1758.4000244140625</ele>
        <time>2026-09-03T07:01:49.000Z</time>
        <extensions>
          <ns3:TrackPointExtension>
            <ns3:hr>167</ns3:hr>
            <ns3:cad>0</ns3:cad>
          </ns3:TrackPointExtension>
        </extensions>
      </trkpt>
      <trkpt lat="44.70181035809218883514404296875" lon="6.7589680664241313934326171875">
        <ele>1758.5999755859375</ele>
        <time>2026-09-03T07:01:50.000Z</time>
        <extensions>
          <ns3:TrackPointExtension>
            <ns3:hr>166</ns3:hr>
            <ns3:cad>0</ns3:cad>
          </ns3:TrackPointExtension>
        </extensions>
      </trkpt>
      <trkpt lat="44.70180113799870014190673828125" lon="6.758979968726634979248046875">
        <ele>1758.800048828125</ele>
        <time>2026-09-03T07:01:51.000Z</time>
        <extensions>
          <ns3:TrackPointExtension>
            <ns3:hr>166</ns3:hr>
            <ns3:cad>0</ns3:cad>
          </ns3:TrackPointExtension>
        </extensions>
      </trkpt>
      <trkpt lat="44.7017968632280826568603515625" lon="6.7589858360588550567626953125">
        <ele>1759</ele>
        <time>2026-09-03T07:01:52.000Z</time>
        <extensions>
          <ns3:TrackPointExtension>
            <ns3:hr>166</ns3:hr>
            <ns3:cad>0</ns3:cad>
          </ns3:TrackPointExtension>
        </extensions>
      </trkpt>
      <trkpt lat="44.701788984239101409912109375" lon="6.75899648107588291168212890625">
        <ele>1759.199951171875</ele>
        <time>2026-09-03T07:01:53.000Z</time>
        <extensions>
          <ns3:TrackPointExtension>
            <ns3:hr>166</ns3:hr>
            <ns3:cad>0</ns3:cad>
          </ns3:TrackPointExtension>
        </extensions>
      </trkpt>
      <trkpt lat="44.70178437419235706329345703125" lon="6.7590046115219593048095703125">
        <ele>1759.4000244140625</ele>
        <time>2026-09-03T07:01:54.000Z</time>
        <extensions>
          <ns3:TrackPointExtension>
            <ns3:hr>166</ns3:hr>
            <ns3:cad>0</ns3:cad>
          </ns3:TrackPointExtension>
        </extensions>
      </trkpt>
      <trkpt lat="44.70177683047950267791748046875" lon="6.75901726819574832916259765625">
        <ele>1759.5999755859375</ele>
        <time>2026-09-03T07:01:55.000Z</time>
        <extensions>
          <ns3:TrackPointExtension>
            <ns3:hr>166</ns3:hr>
            <ns3:cad>40</ns3:cad>
          </ns3:TrackPointExtension>
        </extensions>
      </trkpt>
      <trkpt lat="44.7017710469663143157958984375" lon="6.7590247280895709991455078125">
        <ele>1759.800048828125</ele>
        <time>2026-09-03T07:01:56.000Z</time>
        <extensions>
          <ns3:TrackPointExtension>
            <ns3:hr>166</ns3:hr>
            <ns3:cad>40</ns3:cad>
          </ns3:TrackPointExtension>
        </extensions>
      </trkpt>
      <trkpt lat="44.70176517963409423828125" lon="6.75903772003948688507080078125">
        <ele>1760.199951171875</ele>
        <time>2026-09-03T07:01:57.000Z</time>
        <extensions>
          <ns3:TrackPointExtension>
            <ns3:hr>165</ns3:hr>
            <ns3:cad>0</ns3:cad>
          </ns3:TrackPointExtension>
        </extensions>
      </trkpt>
      <trkpt lat="44.701760821044445037841796875" lon="6.7590473592281341552734375">
        <ele>1760.4000244140625</ele>
        <time>2026-09-03T07:01:58.000Z</time>
        <extensions>
          <ns3:TrackPointExtension>
            <ns3:hr>165</ns3:hr>
            <ns3:cad>0</ns3:cad>
          </ns3:TrackPointExtension>
        </extensions>
      </trkpt>
      <trkpt lat="44.70175503753125667572021484375" lon="6.75904710777103900909423828125">
        <ele>1760.5999755859375</ele>
        <time>2026-09-03T07:01:59.000Z</time>
        <extensions>
          <ns3:TrackPointExtension>
            <ns3:hr>165</ns3:hr>
            <ns3:cad>0</ns3:cad>
          </ns3:TrackPointExtension>
        </extensions>
      </trkpt>
      <trkpt lat="44.7017536126077175140380859375" lon="6.75905364565551280975341796875">
        <ele>1760.800048828125</ele>
        <time>2026-09-03T07:02:00.000Z</time>
        <extensions>
          <ns3:TrackPointExtension>
            <ns3:hr>165</ns3:hr>
            <ns3:cad>0</ns3:cad>
          </ns3:TrackPointExtension>
        </extensions>
      </trkpt>
      <trkpt lat="44.7017589770257472991943359375" lon="6.75905406475067138671875">
        <ele>1761</ele>
        <time>2026-09-03T07:02:01.000Z</time>
        <extensions>
          <ns3:TrackPointExtension>
            <ns3:hr>165</ns3:hr>
            <ns3:cad>0</ns3:cad>
          </ns3:TrackPointExtension>
        </extensions>
      </trkpt>
      <trkpt lat="44.7017529420554637908935546875" lon="6.75906470976769924163818359375">
        <ele>1761.199951171875</ele>
        <time>2026-09-03T07:02:02.000Z</time>
        <extensions>
          <ns3:TrackPointExtension>
            <ns3:hr>165</ns3:hr>
            <ns3:cad>0</ns3:cad>
          </ns3:TrackPointExtension>
        </extensions>
      </trkpt>
      <trkpt lat="44.7017505951225757598876953125" lon="6.75906303338706493377685546875">
        <ele>1761.4000244140625</ele>
        <time>2026-09-03T07:02:03.000Z</time>
        <extensions>
          <ns3:TrackPointExtension>
            <ns3:hr>165</ns3:hr>
            <ns3:cad>0</ns3:cad>
          </ns3:TrackPointExtension>
        </extensions>
      </trkpt>
      <trkpt lat="44.7017423808574676513671875" lon="6.759074516594409942626953125">
        <ele>1761.5999755859375</ele>
        <time>2026-09-03T07:02:04.000Z</time>
        <extensions>
          <ns3:TrackPointExtension>
            <ns3:hr>165</ns3:hr>
            <ns3:cad>0</ns3:cad>
          </ns3:TrackPointExtension>
        </extensions>
      </trkpt>
      <trkpt lat="44.70173844136297702789306640625" lon="6.75908432342112064361572265625">
        <ele>1761.800048828125</ele>
        <time>2026-09-03T07:02:05.000Z</time>
        <extensions>
          <ns3:TrackPointExtension>
            <ns3:hr>165</ns3:hr>
            <ns3:cad>0</ns3:cad>
          </ns3:TrackPointExtension>
        </extensions>
      </trkpt>
      <trkpt lat="44.70173500478267669677734375" lon="6.7590964771807193756103515625">
        <ele>1762</ele>
        <time>2026-09-03T07:02:06.000Z</time>
        <extensions>
          <ns3:TrackPointExtension>
            <ns3:hr>165</ns3:hr>
            <ns3:cad>0</ns3:cad>
          </ns3:TrackPointExtension>
        </extensions>
      </trkpt>
      <trkpt lat="44.70172888599336147308349609375" lon="6.75910301506519317626953125">
        <ele>1762.4000244140625</ele>
        <time>2026-09-03T07:02:07.000Z</time>
        <extensions>
          <ns3:TrackPointExtension>
            <ns3:hr>165</ns3:hr>
            <ns3:cad>0</ns3:cad>
          </ns3:TrackPointExtension>
        </extensions>
      </trkpt>
      <trkpt lat="44.70172067172825336456298828125" lon="6.75911910831928253173828125">
        <ele>1762.5999755859375</ele>
        <time>2026-09-03T07:02:08.000Z</time>
        <extensions>
          <ns3:TrackPointExtension>
            <ns3:hr>165</ns3:hr>
            <ns3:cad>0</ns3:cad>
          </ns3:TrackPointExtension>
        </extensions>
      </trkpt>
      <trkpt lat="44.70171882770955562591552734375" lon="6.75912849605083465576171875">
        <ele>1762.800048828125</ele>
        <time>2026-09-03T07:02:09.000Z</time>
        <extensions>
          <ns3:TrackPointExtension>
            <ns3:hr>165</ns3:hr>
            <ns3:cad>0</ns3:cad>
          </ns3:TrackPointExtension>
        </extensions>
      </trkpt>
      <trkpt lat="44.70171648077666759490966796875" lon="6.75913360901176929473876953125">
        <ele>1763</ele>
        <time>2026-09-03T07:02:10.000Z</time>
        <extensions>
          <ns3:TrackPointExtension>
            <ns3:hr>165</ns3:hr>
            <ns3:cad>0</ns3:cad>
          </ns3:TrackPointExtension>
        </extensions>
      </trkpt>
      <trkpt lat="44.7017106972634792327880859375" lon="6.75914299674332141876220703125">
        <ele>1763.199951171875</ele>
        <time>2026-09-03T07:02:11.000Z</time>
        <extensions>
          <ns3:TrackPointExtension>
            <ns3:hr>165</ns3:hr>
            <ns3:cad>0</ns3:cad>
          </ns3:TrackPointExtension>
        </extensions>
      </trkpt>
      <trkpt lat="44.7017073445022106170654296875" lon="6.75914995372295379638671875">
        <ele>1763.4000244140625</ele>
        <time>2026-09-03T07:02:12.000Z</time>
        <extensions>
          <ns3:TrackPointExtension>
            <ns3:hr>164</ns3:hr>
            <ns3:cad>0</ns3:cad>
          </ns3:TrackPointExtension>
        </extensions>
      </trkpt>
      <trkpt lat="44.70170575194060802459716796875" lon="6.75915070809423923492431640625">
        <ele>1763.800048828125</ele>
        <time>2026-09-03T07:02:13.000Z</time>
        <extensions>
          <ns3:TrackPointExtension>
            <ns3:hr>165</ns3:hr>
            <ns3:cad>0</ns3:cad>
          </ns3:TrackPointExtension>
        </extensions>
      </trkpt>
      <trkpt lat="44.7017013095319271087646484375" lon="6.7591548152267932891845703125">
        <ele>1764</ele>
        <time>2026-09-03T07:02:14.000Z</time>
        <extensions>
          <ns3:TrackPointExtension>
            <ns3:hr>165</ns3:hr>
            <ns3:cad>0</ns3:cad>
          </ns3:TrackPointExtension>
        </extensions>
      </trkpt>
      <trkpt lat="44.70169971697032451629638671875" lon="6.75915800034999847412109375">
        <ele>1764.4000244140625</ele>
        <time>2026-09-03T07:02:15.000Z</time>
        <extensions>
          <ns3:TrackPointExtension>
            <ns3:hr>164</ns3:hr>
            <ns3:cad>0</ns3:cad>
          </ns3:TrackPointExtension>
        </extensions>
      </trkpt>
      <trkpt lat="44.70168882049620151519775390625" lon="6.75916428677737712860107421875">
        <ele>1764.5999755859375</ele>
        <time>2026-09-03T07:02:16.000Z</time>
        <extensions>
          <ns3:TrackPointExtension>
            <ns3:hr>164</ns3:hr>
            <ns3:cad>0</ns3:cad>
          </ns3:TrackPointExtension>
        </extensions>
      </trkpt>
      <trkpt lat="44.7016832046210765838623046875" lon="6.7591680586338043212890625">
        <ele>1764.800048828125</ele>
        <time>2026-09-03T07:02:17.000Z</time>
        <extensions>
          <ns3:TrackPointExtension>
            <ns3:hr>165</ns3:hr>
            <ns3:cad>68</ns3:cad>
          </ns3:TrackPointExtension>
        </extensions>
      </trkpt>
      <trkpt lat="44.7016738168895244598388671875" lon="6.75917400978505611419677734375">
        <ele>1765</ele>
        <time>2026-09-03T07:02:18.000Z</time>
        <extensions>
          <ns3:TrackPointExtension>
            <ns3:hr>165</ns3:hr>
            <ns3:cad>68</ns3:cad>
          </ns3:TrackPointExtension>
        </extensions>
      </trkpt>
      <trkpt lat="44.70166652463376522064208984375" lon="6.75918071530759334564208984375">
        <ele>1765.199951171875</ele>
        <time>2026-09-03T07:02:19.000Z</time>
        <extensions>
          <ns3:TrackPointExtension>
            <ns3:hr>165</ns3:hr>
            <ns3:cad>68</ns3:cad>
          </ns3:TrackPointExtension>
        </extensions>
      </trkpt>
      <trkpt lat="44.7016620822250843048095703125" lon="6.75918524153530597686767578125">
        <ele>1765.4000244140625</ele>
        <time>2026-09-03T07:02:20.000Z</time>
        <extensions>
          <ns3:TrackPointExtension>
            <ns3:hr>165</ns3:hr>
            <ns3:cad>68</ns3:cad>
          </ns3:TrackPointExtension>
        </extensions>
      </trkpt>
      <trkpt lat="44.70165663398802280426025390625" lon="6.75919152796268463134765625">
        <ele>1765.5999755859375</ele>
        <time>2026-09-03T07:02:21.000Z</time>
        <extensions>
          <ns3:TrackPointExtension>
            <ns3:hr>165</ns3:hr>
            <ns3:cad>0</ns3:cad>
          </ns3:TrackPointExtension>
        </extensions>
      </trkpt>
      <trkpt lat="44.701651521027088165283203125" lon="6.7591977305710315704345703125">
        <ele>1765.800048828125</ele>
        <time>2026-09-03T07:02:22.000Z</time>
        <extensions>
          <ns3:TrackPointExtension>
            <ns3:hr>165</ns3:hr>
            <ns3:cad>0</ns3:cad>
          </ns3:TrackPointExtension>
        </extensions>
      </trkpt>
      <trkpt lat="44.7016490064561367034912109375" lon="6.7592030949890613555908203125">
        <ele>1766.199951171875</ele>
        <time>2026-09-03T07:02:23.000Z</time>
        <extensions>
          <ns3:TrackPointExtension>
            <ns3:hr>165</ns3:hr>
            <ns3:cad>0</ns3:cad>
          </ns3:TrackPointExtension>
        </extensions>
      </trkpt>
      <trkpt lat="44.70164624042809009552001953125" lon="6.75920896232128143310546875">
        <ele>1766.4000244140625</ele>
        <time>2026-09-03T07:02:24.000Z</time>
        <extensions>
          <ns3:TrackPointExtension>
            <ns3:hr>165</ns3:hr>
            <ns3:cad>0</ns3:cad>
          </ns3:TrackPointExtension>
        </extensions>
      </trkpt>
      <trkpt lat="44.7016419656574726104736328125" lon="6.759214662015438079833984375">
        <ele>1766.5999755859375</ele>
        <time>2026-09-03T07:02:25.000Z</time>
        <extensions>
          <ns3:TrackPointExtension>
            <ns3:hr>166</ns3:hr>
            <ns3:cad>0</ns3:cad>
          </ns3:TrackPointExtension>
        </extensions>
      </trkpt>
      <trkpt lat="44.70164112746715545654296875" lon="6.7592195235192775726318359375">
        <ele>1767</ele>
        <time>2026-09-03T07:02:26.000Z</time>
        <extensions>
          <ns3:TrackPointExtension>
            <ns3:hr>166</ns3:hr>
            <ns3:cad>0</ns3:cad>
          </ns3:TrackPointExtension>
        </extensions>
      </trkpt>
      <trkpt lat="44.70164204947650432586669921875" lon="6.7592225410044193267822265625">
        <ele>1767.199951171875</ele>
        <time>2026-09-03T07:02:27.000Z</time>
        <extensions>
          <ns3:TrackPointExtension>
            <ns3:hr>166</ns3:hr>
            <ns3:cad>0</ns3:cad>
          </ns3:TrackPointExtension>
        </extensions>
      </trkpt>
      <trkpt lat="44.7016402892768383026123046875" lon="6.75922966562211513519287109375">
        <ele>1767.4000244140625</ele>
        <time>2026-09-03T07:02:28.000Z</time>
        <extensions>
          <ns3:TrackPointExtension>
            <ns3:hr>166</ns3:hr>
            <ns3:cad>0</ns3:cad>
          </ns3:TrackPointExtension>
        </extensions>
      </trkpt>
      <trkpt lat="44.70164489932358264923095703125" lon="6.75923402421176433563232421875">
        <ele>1767.5999755859375</ele>
        <time>2026-09-03T07:02:29.000Z</time>
        <extensions>
          <ns3:TrackPointExtension>
            <ns3:hr>167</ns3:hr>
            <ns3:cad>0</ns3:cad>
          </ns3:TrackPointExtension>
        </extensions>
      </trkpt>
      <trkpt lat="44.70164691098034381866455078125" lon="6.7592565715312957763671875">
        <ele>1767.800048828125</ele>
        <time>2026-09-03T07:02:30.000Z</time>
        <extensions>
          <ns3:TrackPointExtension>
            <ns3:hr>167</ns3:hr>
            <ns3:cad>0</ns3:cad>
          </ns3:TrackPointExtension>
        </extensions>
      </trkpt>
      <trkpt lat="44.701643474400043487548828125" lon="6.75927157513797283172607421875">
        <ele>1768.199951171875</ele>
        <time>2026-09-03T07:02:31.000Z</time>
        <extensions>
          <ns3:TrackPointExtension>
            <ns3:hr>168</ns3:hr>
            <ns3:cad>0</ns3:cad>
          </ns3:TrackPointExtension>
        </extensions>
      </trkpt>
      <trkpt lat="44.7016372717916965484619140625" lon="6.7592731676995754241943359375">
        <ele>1768.4000244140625</ele>
        <time>2026-09-03T07:02:32.000Z</time>
        <extensions>
          <ns3:TrackPointExtension>
            <ns3:hr>168</ns3:hr>
            <ns3:cad>0</ns3:cad>
          </ns3:TrackPointExtension>
        </extensions>
      </trkpt>
      <trkpt lat="44.70163199119269847869873046875" lon="6.75927928648889064788818359375">
        <ele>1768.5999755859375</ele>
        <time>2026-09-03T07:02:33.000Z</time>
        <extensions>
          <ns3:TrackPointExtension>
            <ns3:hr>168</ns3:hr>
            <ns3:cad>0</ns3:cad>
          </ns3:TrackPointExtension>
        </extensions>
      </trkpt>
      <trkpt lat="44.70162511803209781646728515625" lon="6.75928180105984210968017578125">
        <ele>1768.800048828125</ele>
        <time>2026-09-03T07:02:34.000Z</time>
        <extensions>
          <ns3:TrackPointExtension>
            <ns3:hr>168</ns3:hr>
            <ns3:cad>0</ns3:cad>
          </ns3:TrackPointExtension>
        </extensions>
      </trkpt>
      <trkpt lat="44.7016144730150699615478515625" lon="6.7592885904014110565185546875">
        <ele>1769</ele>
        <time>2026-09-03T07:02:35.000Z</time>
        <extensions>
          <ns3:TrackPointExtension>
            <ns3:hr>169</ns3:hr>
            <ns3:cad>0</ns3:cad>
          </ns3:TrackPointExtension>
        </extensions>
      </trkpt>
      <trkpt lat="44.701608605682849884033203125" lon="6.75929018296301364898681640625">
        <ele>1769</ele>
        <time>2026-09-03T07:02:36.000Z</time>
        <extensions>
          <ns3:TrackPointExtension>
            <ns3:hr>169</ns3:hr>
            <ns3:cad>0</ns3:cad>
          </ns3:TrackPointExtension>
        </extensions>
      </trkpt>
      <trkpt lat="44.7015983797609806060791015625" lon="6.7592946253716945648193359375">
        <ele>1769.199951171875</ele>
        <time>2026-09-03T07:02:37.000Z</time>
        <extensions>
          <ns3:TrackPointExtension>
            <ns3:hr>169</ns3:hr>
            <ns3:cad>0</ns3:cad>
          </ns3:TrackPointExtension>
        </extensions>
      </trkpt>
      <trkpt lat="44.7015926800668239593505859375" lon="6.75929806195199489593505859375">
        <ele>1769.199951171875</ele>
        <time>2026-09-03T07:02:38.000Z</time>
        <extensions>
          <ns3:TrackPointExtension>
            <ns3:hr>169</ns3:hr>
            <ns3:cad>0</ns3:cad>
          </ns3:TrackPointExtension>
        </extensions>
      </trkpt>
      <trkpt lat="44.70158069394528865814208984375" lon="6.7593073658645153045654296875">
        <ele>1769.199951171875</ele>
        <time>2026-09-03T07:02:39.000Z</time>
        <extensions>
          <ns3:TrackPointExtension>
            <ns3:hr>168</ns3:hr>
            <ns3:cad>0</ns3:cad>
          </ns3:TrackPointExtension>
        </extensions>
      </trkpt>
      <trkpt lat="44.70156677998602390289306640625" lon="6.7593154124915599822998046875">
        <ele>1769.4000244140625</ele>
        <time>2026-09-03T07:02:40.000Z</time>
        <extensions>
          <ns3:TrackPointExtension>
            <ns3:hr>168</ns3:hr>
            <ns3:cad>0</ns3:cad>
          </ns3:TrackPointExtension>
        </extensions>
      </trkpt>
      <trkpt lat="44.70155839808285236358642578125" lon="6.759321279823780059814453125">
        <ele>1769.5999755859375</ele>
        <time>2026-09-03T07:02:41.000Z</time>
        <extensions>
          <ns3:TrackPointExtension>
            <ns3:hr>169</ns3:hr>
            <ns3:cad>0</ns3:cad>
          </ns3:TrackPointExtension>
        </extensions>
      </trkpt>
      <trkpt lat="44.7015423886477947235107421875" lon="6.7593291588127613067626953125">
        <ele>1769.5999755859375</ele>
        <time>2026-09-03T07:02:42.000Z</time>
        <extensions>
          <ns3:TrackPointExtension>
            <ns3:hr>169</ns3:hr>
            <ns3:cad>0</ns3:cad>
          </ns3:TrackPointExtension>
        </extensions>
      </trkpt>
      <trkpt lat="44.7015336714684963226318359375" lon="6.7593338526785373687744140625">
        <ele>1769.800048828125</ele>
        <time>2026-09-03T07:02:43.000Z</time>
        <extensions>
          <ns3:TrackPointExtension>
            <ns3:hr>168</ns3:hr>
            <ns3:cad>0</ns3:cad>
          </ns3:TrackPointExtension>
        </extensions>
      </trkpt>
      <trkpt lat="44.70151900313794612884521484375" lon="6.75933904945850372314453125">
        <ele>1770</ele>
        <time>2026-09-03T07:02:44.000Z</time>
        <extensions>
          <ns3:TrackPointExtension>
            <ns3:hr>168</ns3:hr>
            <ns3:cad>0</ns3:cad>
          </ns3:TrackPointExtension>
        </extensions>
      </trkpt>
      <trkpt lat="44.701503999531269073486328125" lon="6.75934617407619953155517578125">
        <ele>1770.199951171875</ele>
        <time>2026-09-03T07:02:45.000Z</time>
        <extensions>
          <ns3:TrackPointExtension>
            <ns3:hr>168</ns3:hr>
            <ns3:cad>0</ns3:cad>
          </ns3:TrackPointExtension>
        </extensions>
      </trkpt>
      <trkpt lat="44.70149586908519268035888671875" lon="6.7593502812087535858154296875">
        <ele>1770.4000244140625</ele>
        <time>2026-09-03T07:02:46.000Z</time>
        <extensions>
          <ns3:TrackPointExtension>
            <ns3:hr>168</ns3:hr>
            <ns3:cad>0</ns3:cad>
          </ns3:TrackPointExtension>
        </extensions>
      </trkpt>
      <trkpt lat="44.7014843858778476715087890625" lon="6.7593532986938953399658203125">
        <ele>1770.800048828125</ele>
        <time>2026-09-03T07:02:47.000Z</time>
        <extensions>
          <ns3:TrackPointExtension>
            <ns3:hr>168</ns3:hr>
            <ns3:cad>0</ns3:cad>
          </ns3:TrackPointExtension>
        </extensions>
      </trkpt>
      <trkpt lat="44.70148547552525997161865234375" lon="6.7593546397984027862548828125">
        <ele>1771</ele>
        <time>2026-09-03T07:02:48.000Z</time>
        <extensions>
          <ns3:TrackPointExtension>
            <ns3:hr>168</ns3:hr>
            <ns3:cad>0</ns3:cad>
          </ns3:TrackPointExtension>
        </extensions>
      </trkpt>
      <trkpt lat="44.70147994346916675567626953125" lon="6.75936209969222545623779296875">
        <ele>1771.199951171875</ele>
        <time>2026-09-03T07:02:49.000Z</time>
        <extensions>
          <ns3:TrackPointExtension>
            <ns3:hr>167</ns3:hr>
            <ns3:cad>0</ns3:cad>
          </ns3:TrackPointExtension>
        </extensions>
      </trkpt>
      <trkpt lat="44.70148555934429168701171875" lon="6.75936645828187465667724609375">
        <ele>1771.4000244140625</ele>
        <time>2026-09-03T07:02:50.000Z</time>
        <extensions>
          <ns3:TrackPointExtension>
            <ns3:hr>168</ns3:hr>
            <ns3:cad>0</ns3:cad>
          </ns3:TrackPointExtension>
        </extensions>
      </trkpt>
      <trkpt lat="44.70147927291691303253173828125" lon="6.75937416963279247283935546875">
        <ele>1771.5999755859375</ele>
        <time>2026-09-03T07:02:51.000Z</time>
        <extensions>
          <ns3:TrackPointExtension>
            <ns3:hr>168</ns3:hr>
            <ns3:cad>0</ns3:cad>
          </ns3:TrackPointExtension>
        </extensions>
      </trkpt>
      <trkpt lat="44.70147156156599521636962890625" lon="6.759379617869853973388671875">
        <ele>1771.800048828125</ele>
        <time>2026-09-03T07:02:52.000Z</time>
        <extensions>
          <ns3:TrackPointExtension>
            <ns3:hr>167</ns3:hr>
            <ns3:cad>0</ns3:cad>
          </ns3:TrackPointExtension>
        </extensions>
      </trkpt>
      <trkpt lat="44.70145446248352527618408203125" lon="6.75939001142978668212890625">
        <ele>1772</ele>
        <time>2026-09-03T07:02:53.000Z</time>
        <extensions>
          <ns3:TrackPointExtension>
            <ns3:hr>167</ns3:hr>
            <ns3:cad>0</ns3:cad>
          </ns3:TrackPointExtension>
        </extensions>
      </trkpt>
      <trkpt lat="44.70144926570355892181396484375" lon="6.75939269363880157470703125">
        <ele>1772.199951171875</ele>
        <time>2026-09-03T07:02:54.000Z</time>
        <extensions>
          <ns3:TrackPointExtension>
            <ns3:hr>167</ns3:hr>
            <ns3:cad>0</ns3:cad>
          </ns3:TrackPointExtension>
        </extensions>
      </trkpt>
      <trkpt lat="44.70144172199070453643798828125" lon="6.75939629785716533660888671875">
        <ele>1772.5999755859375</ele>
        <time>2026-09-03T07:02:55.000Z</time>
        <extensions>
          <ns3:TrackPointExtension>
            <ns3:hr>167</ns3:hr>
            <ns3:cad>0</ns3:cad>
          </ns3:TrackPointExtension>
        </extensions>
      </trkpt>
      <trkpt lat="44.70143334008753299713134765625" lon="6.75940367393195629119873046875">
        <ele>1772.800048828125</ele>
        <time>2026-09-03T07:02:56.000Z</time>
        <extensions>
          <ns3:TrackPointExtension>
            <ns3:hr>168</ns3:hr>
            <ns3:cad>0</ns3:cad>
          </ns3:TrackPointExtension>
        </extensions>
      </trkpt>
      <trkpt lat="44.70143367536365985870361328125" lon="6.75940803252160549163818359375">
        <ele>1773</ele>
        <time>2026-09-03T07:02:57.000Z</time>
        <extensions>
          <ns3:TrackPointExtension>
            <ns3:hr>168</ns3:hr>
            <ns3:cad>0</ns3:cad>
          </ns3:TrackPointExtension>
        </extensions>
      </trkpt>
      <trkpt lat="44.70142462290823459625244140625" lon="6.75941792316734790802001953125">
        <ele>1773.199951171875</ele>
        <time>2026-09-03T07:02:58.000Z</time>
        <extensions>
          <ns3:TrackPointExtension>
            <ns3:hr>168</ns3:hr>
            <ns3:cad>0</ns3:cad>
          </ns3:TrackPointExtension>
        </extensions>
      </trkpt>
      <trkpt lat="44.7014186717569828033447265625" lon="6.75942328758537769317626953125">
        <ele>1773.5999755859375</ele>
        <time>2026-09-03T07:02:59.000Z</time>
        <extensions>
          <ns3:TrackPointExtension>
            <ns3:hr>168</ns3:hr>
            <ns3:cad>0</ns3:cad>
          </ns3:TrackPointExtension>
        </extensions>
      </trkpt>
      <trkpt lat="44.70141087658703327178955078125" lon="6.7594330944120883941650390625">
        <ele>1773.800048828125</ele>
        <time>2026-09-03T07:03:00.000Z</time>
        <extensions>
          <ns3:TrackPointExtension>
            <ns3:hr>167</ns3:hr>
            <ns3:cad>0</ns3:cad>
          </ns3:TrackPointExtension>
        </extensions>
      </trkpt>
      <trkpt lat="44.70140484161674976348876953125" lon="6.759443320333957672119140625">
        <ele>1774.199951171875</ele>
        <time>2026-09-03T07:03:01.000Z</time>
        <extensions>
          <ns3:TrackPointExtension>
            <ns3:hr>168</ns3:hr>
            <ns3:cad>0</ns3:cad>
          </ns3:TrackPointExtension>
        </extensions>
      </trkpt>
      <trkpt lat="44.701393358409404754638671875" lon="6.75945983268320560455322265625">
        <ele>1774.4000244140625</ele>
        <time>2026-09-03T07:03:02.000Z</time>
        <extensions>
          <ns3:TrackPointExtension>
            <ns3:hr>168</ns3:hr>
            <ns3:cad>0</ns3:cad>
          </ns3:TrackPointExtension>
        </extensions>
      </trkpt>
      <trkpt lat="44.7013891674578189849853515625" lon="6.75946620292961597442626953125">
        <ele>1774.5999755859375</ele>
        <time>2026-09-03T07:03:03.000Z</time>
        <extensions>
          <ns3:TrackPointExtension>
            <ns3:hr>168</ns3:hr>
            <ns3:cad>0</ns3:cad>
          </ns3:TrackPointExtension>
        </extensions>
      </trkpt>
      <trkpt lat="44.7013727389276027679443359375" lon="6.75948078744113445281982421875">
        <ele>1774.800048828125</ele>
        <time>2026-09-03T07:03:04.000Z</time>
        <extensions>
          <ns3:TrackPointExtension>
            <ns3:hr>167</ns3:hr>
            <ns3:cad>0</ns3:cad>
          </ns3:TrackPointExtension>
        </extensions>
      </trkpt>
      <trkpt lat="44.70136242918670177459716796875" lon="6.759489588439464569091796875">
        <ele>1775</ele>
        <time>2026-09-03T07:03:05.000Z</time>
        <extensions>
          <ns3:TrackPointExtension>
            <ns3:hr>168</ns3:hr>
            <ns3:cad>0</ns3:cad>
          </ns3:TrackPointExtension>
        </extensions>
      </trkpt>
      <trkpt lat="44.701350443065166473388671875" lon="6.7594887502491474151611328125">
        <ele>1775.199951171875</ele>
        <time>2026-09-03T07:03:06.000Z</time>
        <extensions>
          <ns3:TrackPointExtension>
            <ns3:hr>168</ns3:hr>
            <ns3:cad>0</ns3:cad>
          </ns3:TrackPointExtension>
        </extensions>
      </trkpt>
      <trkpt lat="44.70134097151458263397216796875" lon="6.759496629238128662109375">
        <ele>1775.4000244140625</ele>
        <time>2026-09-03T07:03:07.000Z</time>
        <extensions>
          <ns3:TrackPointExtension>
            <ns3:hr>168</ns3:hr>
            <ns3:cad>0</ns3:cad>
          </ns3:TrackPointExtension>
        </extensions>
      </trkpt>
      <trkpt lat="44.7013388760387897491455078125" lon="6.75950123928487300872802734375">
        <ele>1775.5999755859375</ele>
        <time>2026-09-03T07:03:08.000Z</time>
        <extensions>
          <ns3:TrackPointExtension>
            <ns3:hr>169</ns3:hr>
            <ns3:cad>0</ns3:cad>
          </ns3:TrackPointExtension>
        </extensions>
      </trkpt>
      <trkpt lat="44.701328314840793609619140625" lon="6.7595118843019008636474609375">
        <ele>1775.800048828125</ele>
        <time>2026-09-03T07:03:09.000Z</time>
        <extensions>
          <ns3:TrackPointExtension>
            <ns3:hr>169</ns3:hr>
            <ns3:cad>0</ns3:cad>
          </ns3:TrackPointExtension>
        </extensions>
      </trkpt>
      <trkpt lat="44.7013241238892078399658203125" lon="6.7595179192721843719482421875">
        <ele>1776</ele>
        <time>2026-09-03T07:03:10.000Z</time>
        <extensions>
          <ns3:TrackPointExtension>
            <ns3:hr>169</ns3:hr>
            <ns3:cad>0</ns3:cad>
          </ns3:TrackPointExtension>
        </extensions>
      </trkpt>
      <trkpt lat="44.7013092041015625" lon="6.7595313303172588348388671875">
        <ele>1776.199951171875</ele>
        <time>2026-09-03T07:03:11.000Z</time>
        <extensions>
          <ns3:TrackPointExtension>
            <ns3:hr>168</ns3:hr>
            <ns3:cad>0</ns3:cad>
          </ns3:TrackPointExtension>
        </extensions>
      </trkpt>
      <trkpt lat="44.70130182802677154541015625" lon="6.7595360241830348968505859375">
        <ele>1776.4000244140625</ele>
        <time>2026-09-03T07:03:12.000Z</time>
        <extensions>
          <ns3:TrackPointExtension>
            <ns3:hr>169</ns3:hr>
            <ns3:cad>0</ns3:cad>
          </ns3:TrackPointExtension>
        </extensions>
      </trkpt>
      <trkpt lat="44.70128967426717281341552734375" lon="6.75954683683812618255615234375">
        <ele>1776.5999755859375</ele>
        <time>2026-09-03T07:03:13.000Z</time>
        <extensions>
          <ns3:TrackPointExtension>
            <ns3:hr>169</ns3:hr>
            <ns3:cad>0</ns3:cad>
          </ns3:TrackPointExtension>
        </extensions>
      </trkpt>
      <trkpt lat="44.70128179527819156646728515625" lon="6.759558655321598052978515625">
        <ele>1776.800048828125</ele>
        <time>2026-09-03T07:03:14.000Z</time>
        <extensions>
          <ns3:TrackPointExtension>
            <ns3:hr>169</ns3:hr>
            <ns3:cad>0</ns3:cad>
          </ns3:TrackPointExtension>
        </extensions>
      </trkpt>
      <trkpt lat="44.70127307809889316558837890625" lon="6.7595668695867061614990234375">
        <ele>1777</ele>
        <time>2026-09-03T07:03:15.000Z</time>
        <extensions>
          <ns3:TrackPointExtension>
            <ns3:hr>168</ns3:hr>
            <ns3:cad>0</ns3:cad>
          </ns3:TrackPointExtension>
        </extensions>
      </trkpt>
      <trkpt lat="44.701264612376689910888671875" lon="6.7595739103853702545166015625">
        <ele>1777.199951171875</ele>
        <time>2026-09-03T07:03:16.000Z</time>
        <extensions>
          <ns3:TrackPointExtension>
            <ns3:hr>169</ns3:hr>
            <ns3:cad>0</ns3:cad>
          </ns3:TrackPointExtension>
        </extensions>
      </trkpt>
      <trkpt lat="44.70125891268253326416015625" lon="6.75957164727151393890380859375">
        <ele>1777.4000244140625</ele>
        <time>2026-09-03T07:03:17.000Z</time>
        <extensions>
          <ns3:TrackPointExtension>
            <ns3:hr>168</ns3:hr>
            <ns3:cad>0</ns3:cad>
          </ns3:TrackPointExtension>
        </extensions>
      </trkpt>
      <trkpt lat="44.70125011168420314788818359375" lon="6.75957835279405117034912109375">
        <ele>1777.5999755859375</ele>
        <time>2026-09-03T07:03:18.000Z</time>
        <extensions>
          <ns3:TrackPointExtension>
            <ns3:hr>168</ns3:hr>
            <ns3:cad>0</ns3:cad>
          </ns3:TrackPointExtension>
        </extensions>
      </trkpt>
      <trkpt lat="44.701245836913585662841796875" lon="6.75957902334630489349365234375">
        <ele>1777.800048828125</ele>
        <time>2026-09-03T07:03:19.000Z</time>
        <extensions>
          <ns3:TrackPointExtension>
            <ns3:hr>168</ns3:hr>
            <ns3:cad>0</ns3:cad>
          </ns3:TrackPointExtension>
        </extensions>
      </trkpt>
      <trkpt lat="44.70123946666717529296875" lon="6.75959394313395023345947265625">
        <ele>1778</ele>
        <time>2026-09-03T07:03:20.000Z</time>
        <extensions>
          <ns3:TrackPointExtension>
            <ns3:hr>168</ns3:hr>
            <ns3:cad>0</ns3:cad>
          </ns3:TrackPointExtension>
        </extensions>
      </trkpt>
      <trkpt lat="44.7012379579246044158935546875" lon="6.75959679298102855682373046875">
        <ele>1778.199951171875</ele>
        <time>2026-09-03T07:03:21.000Z</time>
        <extensions>
          <ns3:TrackPointExtension>
            <ns3:hr>168</ns3:hr>
            <ns3:cad>0</ns3:cad>
          </ns3:TrackPointExtension>
        </extensions>
      </trkpt>
      <trkpt lat="44.7012225352227687835693359375" lon="6.75961154513061046600341796875">
        <ele>1778.4000244140625</ele>
        <time>2026-09-03T07:03:22.000Z</time>
        <extensions>
          <ns3:TrackPointExtension>
            <ns3:hr>169</ns3:hr>
            <ns3:cad>0</ns3:cad>
          </ns3:TrackPointExtension>
        </extensions>
      </trkpt>
      <trkpt lat="44.7012247145175933837890625" lon="6.75961556844413280487060546875">
        <ele>1778.5999755859375</ele>
        <time>2026-09-03T07:03:23.000Z</time>
        <extensions>
          <ns3:TrackPointExtension>
            <ns3:hr>169</ns3:hr>
            <ns3:cad>0</ns3:cad>
          </ns3:TrackPointExtension>
        </extensions>
      </trkpt>
      <trkpt lat="44.70121373422443866729736328125" lon="6.7596295662224292755126953125">
        <ele>1779</ele>
        <time>2026-09-03T07:03:24.000Z</time>
        <extensions>
          <ns3:TrackPointExtension>
            <ns3:hr>169</ns3:hr>
            <ns3:cad>0</ns3:cad>
          </ns3:TrackPointExtension>
        </extensions>
      </trkpt>
      <trkpt lat="44.70121239311993122100830078125" lon="6.7596345953643321990966796875">
        <ele>1779.199951171875</ele>
        <time>2026-09-03T07:03:25.000Z</time>
        <extensions>
          <ns3:TrackPointExtension>
            <ns3:hr>169</ns3:hr>
            <ns3:cad>0</ns3:cad>
          </ns3:TrackPointExtension>
        </extensions>
      </trkpt>
      <trkpt lat="44.70120149664580821990966796875" lon="6.7596443183720111846923828125">
        <ele>1779.4000244140625</ele>
        <time>2026-09-03T07:03:26.000Z</time>
        <extensions>
          <ns3:TrackPointExtension>
            <ns3:hr>169</ns3:hr>
            <ns3:cad>0</ns3:cad>
          </ns3:TrackPointExtension>
        </extensions>
      </trkpt>
      <trkpt lat="44.70120015554130077362060546875" lon="6.7596537061035633087158203125">
        <ele>1779.800048828125</ele>
        <time>2026-09-03T07:03:27.000Z</time>
        <extensions>
          <ns3:TrackPointExtension>
            <ns3:hr>169</ns3:hr>
            <ns3:cad>0</ns3:cad>
          </ns3:TrackPointExtension>
        </extensions>
      </trkpt>
      <trkpt lat="44.7011952102184295654296875" lon="6.7596696317195892333984375">
        <ele>1780</ele>
        <time>2026-09-03T07:03:28.000Z</time>
        <extensions>
          <ns3:TrackPointExtension>
            <ns3:hr>169</ns3:hr>
            <ns3:cad>0</ns3:cad>
          </ns3:TrackPointExtension>
        </extensions>
      </trkpt>
      <trkpt lat="44.70118875615298748016357421875" lon="6.759684719145298004150390625">
        <ele>1780.4000244140625</ele>
        <time>2026-09-03T07:03:29.000Z</time>
        <extensions>
          <ns3:TrackPointExtension>
            <ns3:hr>169</ns3:hr>
            <ns3:cad>0</ns3:cad>
          </ns3:TrackPointExtension>
        </extensions>
      </trkpt>
      <trkpt lat="44.7011791169643402099609375" lon="6.75968865863978862762451171875">
        <ele>1780.5999755859375</ele>
        <time>2026-09-03T07:03:30.000Z</time>
        <extensions>
          <ns3:TrackPointExtension>
            <ns3:hr>169</ns3:hr>
            <ns3:cad>0</ns3:cad>
          </ns3:TrackPointExtension>
        </extensions>
      </trkpt>
      <trkpt lat="44.701168723404407501220703125" lon="6.75969804637134075164794921875">
        <ele>1780.800048828125</ele>
        <time>2026-09-03T07:03:31.000Z</time>
        <extensions>
          <ns3:TrackPointExtension>
            <ns3:hr>169</ns3:hr>
            <ns3:cad>0</ns3:cad>
          </ns3:TrackPointExtension>
        </extensions>
      </trkpt>
      <trkpt lat="44.70116461627185344696044921875" lon="6.75969888456165790557861328125">
        <ele>1781</ele>
        <time>2026-09-03T07:03:32.000Z</time>
        <extensions>
          <ns3:TrackPointExtension>
            <ns3:hr>169</ns3:hr>
            <ns3:cad>0</ns3:cad>
          </ns3:TrackPointExtension>
        </extensions>
      </trkpt>
      <trkpt lat="44.70115187577903270721435546875" lon="6.759710200130939483642578125">
        <ele>1781.199951171875</ele>
        <time>2026-09-03T07:03:33.000Z</time>
        <extensions>
          <ns3:TrackPointExtension>
            <ns3:hr>169</ns3:hr>
            <ns3:cad>0</ns3:cad>
          </ns3:TrackPointExtension>
        </extensions>
      </trkpt>
      <trkpt lat="44.7011482715606689453125" lon="6.759714223444461822509765625">
        <ele>1781.199951171875</ele>
        <time>2026-09-03T07:03:34.000Z</time>
        <extensions>
          <ns3:TrackPointExtension>
            <ns3:hr>169</ns3:hr>
            <ns3:cad>0</ns3:cad>
          </ns3:TrackPointExtension>
        </extensions>
      </trkpt>
      <trkpt lat="44.7011397220194339752197265625" lon="6.759724281728267669677734375">
        <ele>1781.4000244140625</ele>
        <time>2026-09-03T07:03:35.000Z</time>
        <extensions>
          <ns3:TrackPointExtension>
            <ns3:hr>170</ns3:hr>
            <ns3:cad>0</ns3:cad>
          </ns3:TrackPointExtension>
        </extensions>
      </trkpt>
      <trkpt lat="44.70113259740173816680908203125" lon="6.75972872413694858551025390625">
        <ele>1781.5999755859375</ele>
        <time>2026-09-03T07:03:36.000Z</time>
        <extensions>
          <ns3:TrackPointExtension>
            <ns3:hr>170</ns3:hr>
            <ns3:cad>0</ns3:cad>
          </ns3:TrackPointExtension>
        </extensions>
      </trkpt>
      <trkpt lat="44.7011192701756954193115234375" lon="6.7597412131726741790771484375">
        <ele>1782</ele>
        <time>2026-09-03T07:03:37.000Z</time>
        <extensions>
          <ns3:TrackPointExtension>
            <ns3:hr>170</ns3:hr>
            <ns3:cad>0</ns3:cad>
          </ns3:TrackPointExtension>
        </extensions>
      </trkpt>
      <trkpt lat="44.7011132352054119110107421875" lon="6.7597438953816890716552734375">
        <ele>1782.199951171875</ele>
        <time>2026-09-03T07:03:38.000Z</time>
        <extensions>
          <ns3:TrackPointExtension>
            <ns3:hr>170</ns3:hr>
            <ns3:cad>0</ns3:cad>
          </ns3:TrackPointExtension>
        </extensions>
      </trkpt>
      <trkpt lat="44.701096303761005401611328125" lon="6.7597554624080657958984375">
        <ele>1782.4000244140625</ele>
        <time>2026-09-03T07:03:39.000Z</time>
        <extensions>
          <ns3:TrackPointExtension>
            <ns3:hr>170</ns3:hr>
            <ns3:cad>0</ns3:cad>
          </ns3:TrackPointExtension>
        </extensions>
      </trkpt>
      <trkpt lat="44.7010880894958972930908203125" lon="6.75976342521607875823974609375">
        <ele>1782.5999755859375</ele>
        <time>2026-09-03T07:03:40.000Z</time>
        <extensions>
          <ns3:TrackPointExtension>
            <ns3:hr>170</ns3:hr>
            <ns3:cad>0</ns3:cad>
          </ns3:TrackPointExtension>
        </extensions>
      </trkpt>
      <trkpt lat="44.70108046196401119232177734375" lon="6.759767867624759674072265625">
        <ele>1782.800048828125</ele>
        <time>2026-09-03T07:03:41.000Z</time>
        <extensions>
          <ns3:TrackPointExtension>
            <ns3:hr>170</ns3:hr>
            <ns3:cad>0</ns3:cad>
          </ns3:TrackPointExtension>
        </extensions>
      </trkpt>
      <trkpt lat="44.701072163879871368408203125" lon="6.75978002138435840606689453125">
        <ele>1783.199951171875</ele>
        <time>2026-09-03T07:03:42.000Z</time>
        <extensions>
          <ns3:TrackPointExtension>
            <ns3:hr>170</ns3:hr>
            <ns3:cad>0</ns3:cad>
          </ns3:TrackPointExtension>
        </extensions>
      </trkpt>
      <trkpt lat="44.7010686434805393218994140625" lon="6.75978521816432476043701171875">
        <ele>1783.4000244140625</ele>
        <time>2026-09-03T07:03:43.000Z</time>
        <extensions>
          <ns3:TrackPointExtension>
            <ns3:hr>169</ns3:hr>
            <ns3:cad>0</ns3:cad>
          </ns3:TrackPointExtension>
        </extensions>
      </trkpt>
      <trkpt lat="44.70106269232928752899169921875" lon="6.759798713028430938720703125">
        <ele>1783.5999755859375</ele>
        <time>2026-09-03T07:03:44.000Z</time>
        <extensions>
          <ns3:TrackPointExtension>
            <ns3:hr>169</ns3:hr>
            <ns3:cad>0</ns3:cad>
          </ns3:TrackPointExtension>
        </extensions>
      </trkpt>
      <trkpt lat="44.7010673023760318756103515625" lon="6.75979980267584323883056640625">
        <ele>1784</ele>
        <time>2026-09-03T07:03:45.000Z</time>
        <extensions>
          <ns3:TrackPointExtension>
            <ns3:hr>169</ns3:hr>
            <ns3:cad>0</ns3:cad>
          </ns3:TrackPointExtension>
        </extensions>
      </trkpt>
      <trkpt lat="44.7010629437863826751708984375" lon="6.759810112416744232177734375">
        <ele>1784.199951171875</ele>
        <time>2026-09-03T07:03:46.000Z</time>
        <extensions>
          <ns3:TrackPointExtension>
            <ns3:hr>169</ns3:hr>
            <ns3:cad>0</ns3:cad>
          </ns3:TrackPointExtension>
        </extensions>
      </trkpt>
      <trkpt lat="44.70106034539639949798583984375" lon="6.75981740467250347137451171875">
        <ele>1784.5999755859375</ele>
        <time>2026-09-03T07:03:47.000Z</time>
        <extensions>
          <ns3:TrackPointExtension>
            <ns3:hr>168</ns3:hr>
            <ns3:cad>0</ns3:cad>
          </ns3:TrackPointExtension>
        </extensions>
      </trkpt>
      <trkpt lat="44.7010545618832111358642578125" lon="6.7598357610404491424560546875">
        <ele>1784.800048828125</ele>
        <time>2026-09-03T07:03:48.000Z</time>
        <extensions>
          <ns3:TrackPointExtension>
            <ns3:hr>168</ns3:hr>
            <ns3:cad>0</ns3:cad>
          </ns3:TrackPointExtension>
        </extensions>
      </trkpt>
      <trkpt lat="44.7010478563606739044189453125" lon="6.759840287268161773681640625">
        <ele>1785</ele>
        <time>2026-09-03T07:03:49.000Z</time>
        <extensions>
          <ns3:TrackPointExtension>
            <ns3:hr>168</ns3:hr>
            <ns3:cad>0</ns3:cad>
          </ns3:TrackPointExtension>
        </extensions>
      </trkpt>
      <trkpt lat="44.70103302039206027984619140625" lon="6.759859733283519744873046875">
        <ele>1785.4000244140625</ele>
        <time>2026-09-03T07:03:50.000Z</time>
        <extensions>
          <ns3:TrackPointExtension>
            <ns3:hr>168</ns3:hr>
            <ns3:cad>0</ns3:cad>
          </ns3:TrackPointExtension>
        </extensions>
      </trkpt>
      <trkpt lat="44.70102480612695217132568359375" lon="6.75987104885280132293701171875">
        <ele>1785.5999755859375</ele>
        <time>2026-09-03T07:03:51.000Z</time>
        <extensions>
          <ns3:TrackPointExtension>
            <ns3:hr>168</ns3:hr>
            <ns3:cad>0</ns3:cad>
          </ns3:TrackPointExtension>
        </extensions>
      </trkpt>
      <trkpt lat="44.70101307146251201629638671875" lon="6.75988043658435344696044921875">
        <ele>1785.800048828125</ele>
        <time>2026-09-03T07:03:52.000Z</time>
        <extensions>
          <ns3:TrackPointExtension>
            <ns3:hr>167</ns3:hr>
            <ns3:cad>0</ns3:cad>
          </ns3:TrackPointExtension>
        </extensions>
      </trkpt>
      <trkpt lat="44.7010029293596744537353515625" lon="6.7598922550678253173828125">
        <ele>1786</ele>
        <time>2026-09-03T07:03:53.000Z</time>
        <extensions>
          <ns3:TrackPointExtension>
            <ns3:hr>167</ns3:hr>
            <ns3:cad>0</ns3:cad>
          </ns3:TrackPointExtension>
        </extensions>
      </trkpt>
      <trkpt lat="44.70099915750324726104736328125" lon="6.759897284209728240966796875">
        <ele>1786.199951171875</ele>
        <time>2026-09-03T07:03:54.000Z</time>
        <extensions>
          <ns3:TrackPointExtension>
            <ns3:hr>167</ns3:hr>
            <ns3:cad>0</ns3:cad>
          </ns3:TrackPointExtension>
        </extensions>
      </trkpt>
      <trkpt lat="44.70099312253296375274658203125" lon="6.75990608520805835723876953125">
        <ele>1786.4000244140625</ele>
        <time>2026-09-03T07:03:55.000Z</time>
        <extensions>
          <ns3:TrackPointExtension>
            <ns3:hr>167</ns3:hr>
            <ns3:cad>0</ns3:cad>
          </ns3:TrackPointExtension>
        </extensions>
      </trkpt>
      <trkpt lat="44.700991027057170867919921875" lon="6.75990943796932697296142578125">
        <ele>1786.5999755859375</ele>
        <time>2026-09-03T07:03:56.000Z</time>
        <extensions>
          <ns3:TrackPointExtension>
            <ns3:hr>167</ns3:hr>
            <ns3:cad>0</ns3:cad>
          </ns3:TrackPointExtension>
        </extensions>
      </trkpt>
      <trkpt lat="44.70098440535366535186767578125" lon="6.75992083735764026641845703125">
        <ele>1786.800048828125</ele>
        <time>2026-09-03T07:03:57.000Z</time>
        <extensions>
          <ns3:TrackPointExtension>
            <ns3:hr>167</ns3:hr>
            <ns3:cad>0</ns3:cad>
          </ns3:TrackPointExtension>
        </extensions>
      </trkpt>
      <trkpt lat="44.70098289661109447479248046875" lon="6.75992242991924285888671875">
        <ele>1787</ele>
        <time>2026-09-03T07:03:58.000Z</time>
        <extensions>
          <ns3:TrackPointExtension>
            <ns3:hr>167</ns3:hr>
            <ns3:cad>0</ns3:cad>
          </ns3:TrackPointExtension>
        </extensions>
      </trkpt>
      <trkpt lat="44.7009754367172718048095703125" lon="6.75992720760405063629150390625">
        <ele>1787.199951171875</ele>
        <time>2026-09-03T07:03:59.000Z</time>
        <extensions>
          <ns3:TrackPointExtension>
            <ns3:hr>167</ns3:hr>
            <ns3:cad>0</ns3:cad>
          </ns3:TrackPointExtension>
        </extensions>
      </trkpt>
      <trkpt lat="44.70096864737570285797119140625" lon="6.7599313147366046905517578125">
        <ele>1787.5999755859375</ele>
        <time>2026-09-03T07:04:00.000Z</time>
        <extensions>
          <ns3:TrackPointExtension>
            <ns3:hr>166</ns3:hr>
            <ns3:cad>0</ns3:cad>
          </ns3:TrackPointExtension>
        </extensions>
      </trkpt>
      <trkpt lat="44.70095741562545299530029296875" lon="6.75993626005947589874267578125">
        <ele>1787.800048828125</ele>
        <time>2026-09-03T07:04:01.000Z</time>
        <extensions>
          <ns3:TrackPointExtension>
            <ns3:hr>166</ns3:hr>
            <ns3:cad>0</ns3:cad>
          </ns3:TrackPointExtension>
        </extensions>
      </trkpt>
      <trkpt lat="44.70094920136034488677978515625" lon="6.759940199553966522216796875">
        <ele>1788</ele>
        <time>2026-09-03T07:04:02.000Z</time>
        <extensions>
          <ns3:TrackPointExtension>
            <ns3:hr>166</ns3:hr>
            <ns3:cad>0</ns3:cad>
          </ns3:TrackPointExtension>
        </extensions>
      </trkpt>
      <trkpt lat="44.70094115473330020904541015625" lon="6.759941875934600830078125">
        <ele>1788.4000244140625</ele>
        <time>2026-09-03T07:04:03.000Z</time>
        <extensions>
          <ns3:TrackPointExtension>
            <ns3:hr>166</ns3:hr>
            <ns3:cad>0</ns3:cad>
          </ns3:TrackPointExtension>
        </extensions>
      </trkpt>
      <trkpt lat="44.7009385563433170318603515625" lon="6.75995285622775554656982421875">
        <ele>1788.5999755859375</ele>
        <time>2026-09-03T07:04:04.000Z</time>
        <extensions>
          <ns3:TrackPointExtension>
            <ns3:hr>166</ns3:hr>
            <ns3:cad>0</ns3:cad>
          </ns3:TrackPointExtension>
        </extensions>
      </trkpt>
      <trkpt lat="44.70093478448688983917236328125" lon="6.75995553843677043914794921875">
        <ele>1788.800048828125</ele>
        <time>2026-09-03T07:04:05.000Z</time>
        <extensions>
          <ns3:TrackPointExtension>
            <ns3:hr>166</ns3:hr>
            <ns3:cad>0</ns3:cad>
          </ns3:TrackPointExtension>
        </extensions>
      </trkpt>
      <trkpt lat="44.700930006802082061767578125" lon="6.75996978767216205596923828125">
        <ele>1789.199951171875</ele>
        <time>2026-09-03T07:04:06.000Z</time>
        <extensions>
          <ns3:TrackPointExtension>
            <ns3:hr>166</ns3:hr>
            <ns3:cad>0</ns3:cad>
          </ns3:TrackPointExtension>
        </extensions>
      </trkpt>
      <trkpt lat="44.7009243071079254150390625" lon="6.75997682847082614898681640625">
        <ele>1789.4000244140625</ele>
        <time>2026-09-03T07:04:07.000Z</time>
        <extensions>
          <ns3:TrackPointExtension>
            <ns3:hr>166</ns3:hr>
            <ns3:cad>0</ns3:cad>
          </ns3:TrackPointExtension>
        </extensions>
      </trkpt>
      <trkpt lat="44.7009164281189441680908203125" lon="6.75997515209019184112548828125">
        <ele>1789.800048828125</ele>
        <time>2026-09-03T07:04:08.000Z</time>
        <extensions>
          <ns3:TrackPointExtension>
            <ns3:hr>166</ns3:hr>
            <ns3:cad>0</ns3:cad>
          </ns3:TrackPointExtension>
        </extensions>
      </trkpt>
      <trkpt lat="44.7009082138538360595703125" lon="6.7599775828421115875244140625">
        <ele>1790</ele>
        <time>2026-09-03T07:04:09.000Z</time>
        <extensions>
          <ns3:TrackPointExtension>
            <ns3:hr>167</ns3:hr>
            <ns3:cad>0</ns3:cad>
          </ns3:TrackPointExtension>
        </extensions>
      </trkpt>
      <trkpt lat="44.700905866920948028564453125" lon="6.75997607409954071044921875">
        <ele>1790.4000244140625</ele>
        <time>2026-09-03T07:04:10.000Z</time>
        <extensions>
          <ns3:TrackPointExtension>
            <ns3:hr>167</ns3:hr>
            <ns3:cad>0</ns3:cad>
          </ns3:TrackPointExtension>
        </extensions>
      </trkpt>
      <trkpt lat="44.7009030170738697052001953125" lon="6.75998009741306304931640625">
        <ele>1790.5999755859375</ele>
        <time>2026-09-03T07:04:11.000Z</time>
        <extensions>
          <ns3:TrackPointExtension>
            <ns3:hr>167</ns3:hr>
            <ns3:cad>0</ns3:cad>
          </ns3:TrackPointExtension>
        </extensions>
      </trkpt>
      <trkpt lat="44.700898490846157073974609375" lon="6.7599819414317607879638671875">
        <ele>1790.800048828125</ele>
        <time>2026-09-03T07:04:12.000Z</time>
        <extensions>
          <ns3:TrackPointExtension>
            <ns3:hr>167</ns3:hr>
            <ns3:cad>0</ns3:cad>
          </ns3:TrackPointExtension>
        </extensions>
      </trkpt>
      <trkpt lat="44.7008966468274593353271484375" lon="6.75998814404010772705078125">
        <ele>1791.199951171875</ele>
        <time>2026-09-03T07:04:13.000Z</time>
        <extensions>
          <ns3:TrackPointExtension>
            <ns3:hr>167</ns3:hr>
            <ns3:cad>0</ns3:cad>
          </ns3:TrackPointExtension>
        </extensions>
      </trkpt>
      <trkpt lat="44.70089622773230075836181640625" lon="6.759990155696868896484375">
        <ele>1791.4000244140625</ele>
        <time>2026-09-03T07:04:14.000Z</time>
        <extensions>
          <ns3:TrackPointExtension>
            <ns3:hr>167</ns3:hr>
            <ns3:cad>0</ns3:cad>
          </ns3:TrackPointExtension>
        </extensions>
      </trkpt>
      <trkpt lat="44.70089153386652469635009765625" lon="6.7599943466484546661376953125">
        <ele>1791.5999755859375</ele>
        <time>2026-09-03T07:04:15.000Z</time>
        <extensions>
          <ns3:TrackPointExtension>
            <ns3:hr>167</ns3:hr>
            <ns3:cad>0</ns3:cad>
          </ns3:TrackPointExtension>
        </extensions>
      </trkpt>
      <trkpt lat="44.70088767819106578826904296875" lon="6.76000013016164302825927734375">
        <ele>1791.800048828125</ele>
        <time>2026-09-03T07:04:16.000Z</time>
        <extensions>
          <ns3:TrackPointExtension>
            <ns3:hr>167</ns3:hr>
            <ns3:cad>0</ns3:cad>
          </ns3:TrackPointExtension>
        </extensions>
      </trkpt>
      <trkpt lat="44.700881727039813995361328125" lon="6.76000499166548252105712890625">
        <ele>1792</ele>
        <time>2026-09-03T07:04:17.000Z</time>
        <extensions>
          <ns3:TrackPointExtension>
            <ns3:hr>167</ns3:hr>
            <ns3:cad>0</ns3:cad>
          </ns3:TrackPointExtension>
        </extensions>
      </trkpt>
      <trkpt lat="44.70087426714599132537841796875" lon="6.76000465638935565948486328125">
        <ele>1792.199951171875</ele>
        <time>2026-09-03T07:04:18.000Z</time>
        <extensions>
          <ns3:TrackPointExtension>
            <ns3:hr>168</ns3:hr>
            <ns3:cad>0</ns3:cad>
          </ns3:TrackPointExtension>
        </extensions>
      </trkpt>
      <trkpt lat="44.70086705870926380157470703125" lon="6.76000633276998996734619140625">
        <ele>1792.4000244140625</ele>
        <time>2026-09-03T07:04:19.000Z</time>
        <extensions>
          <ns3:TrackPointExtension>
            <ns3:hr>167</ns3:hr>
            <ns3:cad>0</ns3:cad>
          </ns3:TrackPointExtension>
        </extensions>
      </trkpt>
      <trkpt lat="44.7008651308715343475341796875" lon="6.76001421175897121429443359375">
        <ele>1792.5999755859375</ele>
        <time>2026-09-03T07:04:20.000Z</time>
        <extensions>
          <ns3:TrackPointExtension>
            <ns3:hr>168</ns3:hr>
            <ns3:cad>0</ns3:cad>
          </ns3:TrackPointExtension>
        </extensions>
      </trkpt>
      <trkpt lat="44.7008527256548404693603515625" lon="6.7600245214998722076416015625">
        <ele>1792.5999755859375</ele>
        <time>2026-09-03T07:04:21.000Z</time>
        <extensions>
          <ns3:TrackPointExtension>
            <ns3:hr>168</ns3:hr>
            <ns3:cad>0</ns3:cad>
          </ns3:TrackPointExtension>
        </extensions>
      </trkpt>
      <trkpt lat="44.700845517218112945556640625" lon="6.76002879627048969268798828125">
        <ele>1792.800048828125</ele>
        <time>2026-09-03T07:04:22.000Z</time>
        <extensions>
          <ns3:TrackPointExtension>
            <ns3:hr>168</ns3:hr>
            <ns3:cad>0</ns3:cad>
          </ns3:TrackPointExtension>
        </extensions>
      </trkpt>
      <trkpt lat="44.70083084888756275177001953125" lon="6.76003734581172466278076171875">
        <ele>1793.199951171875</ele>
        <time>2026-09-03T07:04:23.000Z</time>
        <extensions>
          <ns3:TrackPointExtension>
            <ns3:hr>168</ns3:hr>
            <ns3:cad>0</ns3:cad>
          </ns3:TrackPointExtension>
        </extensions>
      </trkpt>
      <trkpt lat="44.7008218802511692047119140625" lon="6.76004556007683277130126953125">
        <ele>1793.5999755859375</ele>
        <time>2026-09-03T07:04:24.000Z</time>
        <extensions>
          <ns3:TrackPointExtension>
            <ns3:hr>169</ns3:hr>
            <ns3:cad>0</ns3:cad>
          </ns3:TrackPointExtension>
        </extensions>
      </trkpt>
      <trkpt lat="44.70081509090960025787353515625" lon="6.760047487914562225341796875">
        <ele>1793.800048828125</ele>
        <time>2026-09-03T07:04:25.000Z</time>
        <extensions>
          <ns3:TrackPointExtension>
            <ns3:hr>169</ns3:hr>
            <ns3:cad>0</ns3:cad>
          </ns3:TrackPointExtension>
        </extensions>
      </trkpt>
      <trkpt lat="44.70080025494098663330078125" lon="6.76005897112190723419189453125">
        <ele>1794.199951171875</ele>
        <time>2026-09-03T07:04:26.000Z</time>
        <extensions>
          <ns3:TrackPointExtension>
            <ns3:hr>170</ns3:hr>
            <ns3:cad>0</ns3:cad>
          </ns3:TrackPointExtension>
        </extensions>
      </trkpt>
      <trkpt lat="44.70079480670392513275146484375" lon="6.76005980931222438812255859375">
        <ele>1794.4000244140625</ele>
        <time>2026-09-03T07:04:27.000Z</time>
        <extensions>
          <ns3:TrackPointExtension>
            <ns3:hr>171</ns3:hr>
            <ns3:cad>0</ns3:cad>
          </ns3:TrackPointExtension>
        </extensions>
      </trkpt>
      <trkpt lat="44.7007834911346435546875" lon="6.76006919704377651214599609375">
        <ele>1794.800048828125</ele>
        <time>2026-09-03T07:04:28.000Z</time>
        <extensions>
          <ns3:TrackPointExtension>
            <ns3:hr>172</ns3:hr>
            <ns3:cad>0</ns3:cad>
          </ns3:TrackPointExtension>
        </extensions>
      </trkpt>
      <trkpt lat="44.70077217556536197662353515625" lon="6.76007556729018688201904296875">
        <ele>1795</ele>
        <time>2026-09-03T07:04:29.000Z</time>
        <extensions>
          <ns3:TrackPointExtension>
            <ns3:hr>173</ns3:hr>
            <ns3:cad>0</ns3:cad>
          </ns3:TrackPointExtension>
        </extensions>
      </trkpt>
      <trkpt lat="44.70076127909123897552490234375" lon="6.76008964888751506805419921875">
        <ele>1795.199951171875</ele>
        <time>2026-09-03T07:04:30.000Z</time>
        <extensions>
          <ns3:TrackPointExtension>
            <ns3:hr>173</ns3:hr>
            <ns3:cad>0</ns3:cad>
          </ns3:TrackPointExtension>
        </extensions>
      </trkpt>
      <trkpt lat="44.7007561661303043365478515625" lon="6.7600909061729907989501953125">
        <ele>1795.4000244140625</ele>
        <time>2026-09-03T07:04:31.000Z</time>
        <extensions>
          <ns3:TrackPointExtension>
            <ns3:hr>174</ns3:hr>
            <ns3:cad>0</ns3:cad>
          </ns3:TrackPointExtension>
        </extensions>
      </trkpt>
      <trkpt lat="44.7007404081523418426513671875" lon="6.76010490395128726959228515625">
        <ele>1795.5999755859375</ele>
        <time>2026-09-03T07:04:32.000Z</time>
        <extensions>
          <ns3:TrackPointExtension>
            <ns3:hr>174</ns3:hr>
            <ns3:cad>0</ns3:cad>
          </ns3:TrackPointExtension>
        </extensions>
      </trkpt>
      <trkpt lat="44.700732193887233734130859375" lon="6.76011554896831512451171875">
        <ele>1795.800048828125</ele>
        <time>2026-09-03T07:04:33.000Z</time>
        <extensions>
          <ns3:TrackPointExtension>
            <ns3:hr>174</ns3:hr>
            <ns3:cad>0</ns3:cad>
          </ns3:TrackPointExtension>
        </extensions>
      </trkpt>
      <trkpt lat="44.700726158916950225830078125" lon="6.76012367941439151763916015625">
        <ele>1796</ele>
        <time>2026-09-03T07:04:34.000Z</time>
        <extensions>
          <ns3:TrackPointExtension>
            <ns3:hr>174</ns3:hr>
            <ns3:cad>0</ns3:cad>
          </ns3:TrackPointExtension>
        </extensions>
      </trkpt>
      <trkpt lat="44.7007176093757152557373046875" lon="6.76013474352657794952392578125">
        <ele>1796.199951171875</ele>
        <time>2026-09-03T07:04:35.000Z</time>
        <extensions>
          <ns3:TrackPointExtension>
            <ns3:hr>174</ns3:hr>
            <ns3:cad>0</ns3:cad>
          </ns3:TrackPointExtension>
        </extensions>
      </trkpt>
      <trkpt lat="44.7007122449576854705810546875" lon="6.76013792864978313446044921875">
        <ele>1796.5999755859375</ele>
        <time>2026-09-03T07:04:36.000Z</time>
        <extensions>
          <ns3:TrackPointExtension>
            <ns3:hr>174</ns3:hr>
            <ns3:cad>0</ns3:cad>
          </ns3:TrackPointExtension>
        </extensions>
      </trkpt>
      <trkpt lat="44.700702689588069915771484375" lon="6.76015150733292102813720703125">
        <ele>1796.5999755859375</ele>
        <time>2026-09-03T07:04:37.000Z</time>
        <extensions>
          <ns3:TrackPointExtension>
            <ns3:hr>174</ns3:hr>
            <ns3:cad>0</ns3:cad>
          </ns3:TrackPointExtension>
        </extensions>
      </trkpt>
      <trkpt lat="44.70069967210292816162109375" lon="6.7601572908461093902587890625">
        <ele>1796.800048828125</ele>
        <time>2026-09-03T07:04:38.000Z</time>
        <extensions>
          <ns3:TrackPointExtension>
            <ns3:hr>174</ns3:hr>
            <ns3:cad>0</ns3:cad>
          </ns3:TrackPointExtension>
        </extensions>
      </trkpt>
      <trkpt lat="44.7006907872855663299560546875" lon="6.76016676239669322967529296875">
        <ele>1797</ele>
        <time>2026-09-03T07:04:39.000Z</time>
        <extensions>
          <ns3:TrackPointExtension>
            <ns3:hr>174</ns3:hr>
            <ns3:cad>0</ns3:cad>
          </ns3:TrackPointExtension>
        </extensions>
      </trkpt>
      <trkpt lat="44.7006844170391559600830078125" lon="6.76017413847148418426513671875">
        <ele>1797.199951171875</ele>
        <time>2026-09-03T07:04:40.000Z</time>
        <extensions>
          <ns3:TrackPointExtension>
            <ns3:hr>174</ns3:hr>
            <ns3:cad>0</ns3:cad>
          </ns3:TrackPointExtension>
        </extensions>
      </trkpt>
      <trkpt lat="44.7006775438785552978515625" lon="6.7601831071078777313232421875">
        <ele>1797.4000244140625</ele>
        <time>2026-09-03T07:04:41.000Z</time>
        <extensions>
          <ns3:TrackPointExtension>
            <ns3:hr>173</ns3:hr>
            <ns3:cad>0</ns3:cad>
          </ns3:TrackPointExtension>
        </extensions>
      </trkpt>
      <trkpt lat="44.70066891051828861236572265625" lon="6.760185621678829193115234375">
        <ele>1797.5999755859375</ele>
        <time>2026-09-03T07:04:42.000Z</time>
        <extensions>
          <ns3:TrackPointExtension>
            <ns3:hr>173</ns3:hr>
            <ns3:cad>0</ns3:cad>
          </ns3:TrackPointExtension>
        </extensions>
      </trkpt>
      <trkpt lat="44.700659103691577911376953125" lon="6.76019626669585704803466796875">
        <ele>1798</ele>
        <time>2026-09-03T07:04:43.000Z</time>
        <extensions>
          <ns3:TrackPointExtension>
            <ns3:hr>173</ns3:hr>
            <ns3:cad>0</ns3:cad>
          </ns3:TrackPointExtension>
        </extensions>
      </trkpt>
      <trkpt lat="44.70065013505518436431884765625" lon="6.7602055706083774566650390625">
        <ele>1798.199951171875</ele>
        <time>2026-09-03T07:04:44.000Z</time>
        <extensions>
          <ns3:TrackPointExtension>
            <ns3:hr>172</ns3:hr>
            <ns3:cad>0</ns3:cad>
          </ns3:TrackPointExtension>
        </extensions>
      </trkpt>
      <trkpt lat="44.7006458602845668792724609375" lon="6.7602105997502803802490234375">
        <ele>1798.4000244140625</ele>
        <time>2026-09-03T07:04:45.000Z</time>
        <extensions>
          <ns3:TrackPointExtension>
            <ns3:hr>172</ns3:hr>
            <ns3:cad>0</ns3:cad>
          </ns3:TrackPointExtension>
        </extensions>
      </trkpt>
      <trkpt lat="44.70064158551394939422607421875" lon="6.760221831500530242919921875">
        <ele>1798.5999755859375</ele>
        <time>2026-09-03T07:04:46.000Z</time>
        <extensions>
          <ns3:TrackPointExtension>
            <ns3:hr>172</ns3:hr>
            <ns3:cad>0</ns3:cad>
          </ns3:TrackPointExtension>
        </extensions>
      </trkpt>
      <trkpt lat="44.70063395798206329345703125" lon="6.76022560335695743560791015625">
        <ele>1798.800048828125</ele>
        <time>2026-09-03T07:04:47.000Z</time>
        <extensions>
          <ns3:TrackPointExtension>
            <ns3:hr>171</ns3:hr>
            <ns3:cad>0</ns3:cad>
          </ns3:TrackPointExtension>
        </extensions>
      </trkpt>
      <trkpt lat="44.70062163658440113067626953125" lon="6.76023331470787525177001953125">
        <ele>1799</ele>
        <time>2026-09-03T07:04:48.000Z</time>
        <extensions>
          <ns3:TrackPointExtension>
            <ns3:hr>171</ns3:hr>
            <ns3:cad>0</ns3:cad>
          </ns3:TrackPointExtension>
        </extensions>
      </trkpt>
      <trkpt lat="44.70061861909925937652587890625" lon="6.76023960113525390625">
        <ele>1799</ele>
        <time>2026-09-03T07:04:49.000Z</time>
        <extensions>
          <ns3:TrackPointExtension>
            <ns3:hr>171</ns3:hr>
            <ns3:cad>0</ns3:cad>
          </ns3:TrackPointExtension>
        </extensions>
      </trkpt>
      <trkpt lat="44.70061006955802440643310546875" lon="6.76025041379034519195556640625">
        <ele>1799</ele>
        <time>2026-09-03T07:04:50.000Z</time>
        <extensions>
          <ns3:TrackPointExtension>
            <ns3:hr>171</ns3:hr>
            <ns3:cad>0</ns3:cad>
          </ns3:TrackPointExtension>
        </extensions>
      </trkpt>
      <trkpt lat="44.70060537569224834442138671875" lon="6.76025477237999439239501953125">
        <ele>1799.199951171875</ele>
        <time>2026-09-03T07:04:51.000Z</time>
        <extensions>
          <ns3:TrackPointExtension>
            <ns3:hr>171</ns3:hr>
            <ns3:cad>0</ns3:cad>
          </ns3:TrackPointExtension>
        </extensions>
      </trkpt>
      <trkpt lat="44.7005943953990936279296875" lon="6.760260723531246185302734375">
        <ele>1799.4000244140625</ele>
        <time>2026-09-03T07:04:52.000Z</time>
        <extensions>
          <ns3:TrackPointExtension>
            <ns3:hr>171</ns3:hr>
            <ns3:cad>0</ns3:cad>
          </ns3:TrackPointExtension>
        </extensions>
      </trkpt>
      <trkpt lat="44.70058727078139781951904296875" lon="6.76026709377765655517578125">
        <ele>1799.5999755859375</ele>
        <time>2026-09-03T07:04:53.000Z</time>
        <extensions>
          <ns3:TrackPointExtension>
            <ns3:hr>171</ns3:hr>
            <ns3:cad>0</ns3:cad>
          </ns3:TrackPointExtension>
        </extensions>
      </trkpt>
      <trkpt lat="44.7005744464695453643798828125" lon="6.760281510651111602783203125">
        <ele>1799.800048828125</ele>
        <time>2026-09-03T07:04:54.000Z</time>
        <extensions>
          <ns3:TrackPointExtension>
            <ns3:hr>171</ns3:hr>
            <ns3:cad>0</ns3:cad>
          </ns3:TrackPointExtension>
        </extensions>
      </trkpt>
      <trkpt lat="44.70056480728089809417724609375" lon="6.76028997637331485748291015625">
        <ele>1799.800048828125</ele>
        <time>2026-09-03T07:04:55.000Z</time>
        <extensions>
          <ns3:TrackPointExtension>
            <ns3:hr>171</ns3:hr>
            <ns3:cad>0</ns3:cad>
          </ns3:TrackPointExtension>
        </extensions>
      </trkpt>
      <trkpt lat="44.70055374316871166229248046875" lon="6.7603053152561187744140625">
        <ele>1800</ele>
        <time>2026-09-03T07:04:56.000Z</time>
        <extensions>
          <ns3:TrackPointExtension>
            <ns3:hr>170</ns3:hr>
            <ns3:cad>0</ns3:cad>
          </ns3:TrackPointExtension>
        </extensions>
      </trkpt>
      <trkpt lat="44.70054334960877895355224609375" lon="6.760317385196685791015625">
        <ele>1800.199951171875</ele>
        <time>2026-09-03T07:04:57.000Z</time>
        <extensions>
          <ns3:TrackPointExtension>
            <ns3:hr>170</ns3:hr>
            <ns3:cad>0</ns3:cad>
          </ns3:TrackPointExtension>
        </extensions>
      </trkpt>
      <trkpt lat="44.7005345486104488372802734375" lon="6.76032744348049163818359375">
        <ele>1800.199951171875</ele>
        <time>2026-09-03T07:04:58.000Z</time>
        <extensions>
          <ns3:TrackPointExtension>
            <ns3:hr>170</ns3:hr>
            <ns3:cad>0</ns3:cad>
          </ns3:TrackPointExtension>
        </extensions>
      </trkpt>
      <trkpt lat="44.70052666962146759033203125" lon="6.76033808849751949310302734375">
        <ele>1800.4000244140625</ele>
        <time>2026-09-03T07:04:59.000Z</time>
        <extensions>
          <ns3:TrackPointExtension>
            <ns3:hr>170</ns3:hr>
            <ns3:cad>0</ns3:cad>
          </ns3:TrackPointExtension>
        </extensions>
      </trkpt>
      <trkpt lat="44.700523652136325836181640625" lon="6.7603396810591220855712890625">
        <ele>1800.5999755859375</ele>
        <time>2026-09-03T07:05:00.000Z</time>
        <extensions>
          <ns3:TrackPointExtension>
            <ns3:hr>170</ns3:hr>
            <ns3:cad>0</ns3:cad>
          </ns3:TrackPointExtension>
        </extensions>
      </trkpt>
      <trkpt lat="44.700513593852519989013671875" lon="6.76034948788583278656005859375">
        <ele>1800.800048828125</ele>
        <time>2026-09-03T07:05:01.000Z</time>
        <extensions>
          <ns3:TrackPointExtension>
            <ns3:hr>170</ns3:hr>
            <ns3:cad>0</ns3:cad>
          </ns3:TrackPointExtension>
        </extensions>
      </trkpt>
      <trkpt lat="44.7005139291286468505859375" lon="6.7603524215519428253173828125">
        <ele>1801</ele>
        <time>2026-09-03T07:05:02.000Z</time>
        <extensions>
          <ns3:TrackPointExtension>
            <ns3:hr>168</ns3:hr>
            <ns3:cad>0</ns3:cad>
          </ns3:TrackPointExtension>
        </extensions>
      </trkpt>
      <trkpt lat="44.7005067206919193267822265625" lon="6.76036172546446323394775390625">
        <ele>1801.199951171875</ele>
        <time>2026-09-03T07:05:03.000Z</time>
        <extensions>
          <ns3:TrackPointExtension>
            <ns3:hr>165</ns3:hr>
            <ns3:cad>0</ns3:cad>
          </ns3:TrackPointExtension>
        </extensions>
      </trkpt>
      <trkpt lat="44.70050026662647724151611328125" lon="6.7603738792240619659423828125">
        <ele>1801.199951171875</ele>
        <time>2026-09-03T07:05:04.000Z</time>
        <extensions>
          <ns3:TrackPointExtension>
            <ns3:hr>165</ns3:hr>
            <ns3:cad>0</ns3:cad>
          </ns3:TrackPointExtension>
        </extensions>
      </trkpt>
      <trkpt lat="44.70049071125686168670654296875" lon="6.76039181649684906005859375">
        <ele>1801.4000244140625</ele>
        <time>2026-09-03T07:05:05.000Z</time>
        <extensions>
          <ns3:TrackPointExtension>
            <ns3:hr>165</ns3:hr>
            <ns3:cad>0</ns3:cad>
          </ns3:TrackPointExtension>
        </extensions>
      </trkpt>
      <trkpt lat="44.7004866041243076324462890625" lon="6.760400198400020599365234375">
        <ele>1801.5999755859375</ele>
        <time>2026-09-03T07:05:06.000Z</time>
        <extensions>
          <ns3:TrackPointExtension>
            <ns3:hr>165</ns3:hr>
            <ns3:cad>0</ns3:cad>
          </ns3:TrackPointExtension>
        </extensions>
      </trkpt>
      <trkpt lat="44.7004778869450092315673828125" lon="6.76041034050285816192626953125">
        <ele>1802</ele>
        <time>2026-09-03T07:05:07.000Z</time>
        <extensions>
          <ns3:TrackPointExtension>
            <ns3:hr>165</ns3:hr>
            <ns3:cad>0</ns3:cad>
          </ns3:TrackPointExtension>
        </extensions>
      </trkpt>
      <trkpt lat="44.70047562383115291595458984375" lon="6.76042023114860057830810546875">
        <ele>1802.199951171875</ele>
        <time>2026-09-03T07:05:08.000Z</time>
        <extensions>
          <ns3:TrackPointExtension>
            <ns3:hr>165</ns3:hr>
            <ns3:cad>0</ns3:cad>
          </ns3:TrackPointExtension>
        </extensions>
      </trkpt>
      <trkpt lat="44.7004688344895839691162109375" lon="6.76044152118265628814697265625">
        <ele>1802.4000244140625</ele>
        <time>2026-09-03T07:05:09.000Z</time>
        <extensions>
          <ns3:TrackPointExtension>
            <ns3:hr>165</ns3:hr>
            <ns3:cad>0</ns3:cad>
          </ns3:TrackPointExtension>
        </extensions>
      </trkpt>
      <trkpt lat="44.700464643537998199462890625" lon="6.760455854237079620361328125">
        <ele>1802.5999755859375</ele>
        <time>2026-09-03T07:05:10.000Z</time>
        <extensions>
          <ns3:TrackPointExtension>
            <ns3:hr>165</ns3:hr>
            <ns3:cad>0</ns3:cad>
          </ns3:TrackPointExtension>
        </extensions>
      </trkpt>
      <trkpt lat="44.70045433379709720611572265625" lon="6.7604741267859935760498046875">
        <ele>1802.800048828125</ele>
        <time>2026-09-03T07:05:11.000Z</time>
        <extensions>
          <ns3:TrackPointExtension>
            <ns3:hr>165</ns3:hr>
            <ns3:cad>0</ns3:cad>
          </ns3:TrackPointExtension>
        </extensions>
      </trkpt>
      <trkpt lat="44.700449220836162567138671875" lon="6.76048477180302143096923828125">
        <ele>1802.800048828125</ele>
        <time>2026-09-03T07:05:12.000Z</time>
        <extensions>
          <ns3:TrackPointExtension>
            <ns3:hr>165</ns3:hr>
            <ns3:cad>0</ns3:cad>
          </ns3:TrackPointExtension>
        </extensions>
      </trkpt>
      <trkpt lat="44.7004450298845767974853515625" lon="6.760491393506526947021484375">
        <ele>1803</ele>
        <time>2026-09-03T07:05:13.000Z</time>
        <extensions>
          <ns3:TrackPointExtension>
            <ns3:hr>165</ns3:hr>
            <ns3:cad>0</ns3:cad>
          </ns3:TrackPointExtension>
        </extensions>
      </trkpt>
      <trkpt lat="44.700433127582073211669921875" lon="6.76050472073256969451904296875">
        <ele>1803.199951171875</ele>
        <time>2026-09-03T07:05:14.000Z</time>
        <extensions>
          <ns3:TrackPointExtension>
            <ns3:hr>164</ns3:hr>
            <ns3:cad>0</ns3:cad>
          </ns3:TrackPointExtension>
        </extensions>
      </trkpt>
      <trkpt lat="44.70042784698307514190673828125" lon="6.7605073191225528717041015625">
        <ele>1803.5999755859375</ele>
        <time>2026-09-03T07:05:15.000Z</time>
        <extensions>
          <ns3:TrackPointExtension>
            <ns3:hr>164</ns3:hr>
            <ns3:cad>0</ns3:cad>
          </ns3:TrackPointExtension>
        </extensions>
      </trkpt>
      <trkpt lat="44.70041410066187381744384765625" lon="6.760516203939914703369140625">
        <ele>1803.800048828125</ele>
        <time>2026-09-03T07:05:16.000Z</time>
        <extensions>
          <ns3:TrackPointExtension>
            <ns3:hr>164</ns3:hr>
            <ns3:cad>0</ns3:cad>
          </ns3:TrackPointExtension>
        </extensions>
      </trkpt>
      <trkpt lat="44.70040253363549709320068359375" lon="6.760518886148929595947265625">
        <ele>1804</ele>
        <time>2026-09-03T07:05:17.000Z</time>
        <extensions>
          <ns3:TrackPointExtension>
            <ns3:hr>164</ns3:hr>
            <ns3:cad>0</ns3:cad>
          </ns3:TrackPointExtension>
        </extensions>
      </trkpt>
      <trkpt lat="44.70038593746721744537353515625" lon="6.76051863469183444976806640625">
        <ele>1804.199951171875</ele>
        <time>2026-09-03T07:05:18.000Z</time>
        <extensions>
          <ns3:TrackPointExtension>
            <ns3:hr>165</ns3:hr>
            <ns3:cad>0</ns3:cad>
          </ns3:TrackPointExtension>
        </extensions>
      </trkpt>
      <trkpt lat="44.7003716044127941131591796875" lon="6.7605183832347393035888671875">
        <ele>1804.199951171875</ele>
        <time>2026-09-03T07:05:19.000Z</time>
        <extensions>
          <ns3:TrackPointExtension>
            <ns3:hr>164</ns3:hr>
            <ns3:cad>0</ns3:cad>
          </ns3:TrackPointExtension>
        </extensions>
      </trkpt>
      <trkpt lat="44.7003615461289882659912109375" lon="6.76052450202405452728271484375">
        <ele>1804.4000244140625</ele>
        <time>2026-09-03T07:05:20.000Z</time>
        <extensions>
          <ns3:TrackPointExtension>
            <ns3:hr>165</ns3:hr>
            <ns3:cad>0</ns3:cad>
          </ns3:TrackPointExtension>
        </extensions>
      </trkpt>
      <trkpt lat="44.70034972764551639556884765625" lon="6.76052802242338657379150390625">
        <ele>1804.4000244140625</ele>
        <time>2026-09-03T07:05:21.000Z</time>
        <extensions>
          <ns3:TrackPointExtension>
            <ns3:hr>166</ns3:hr>
            <ns3:cad>0</ns3:cad>
          </ns3:TrackPointExtension>
        </extensions>
      </trkpt>
      <trkpt lat="44.7003377415239810943603515625" lon="6.76053958944976329803466796875">
        <ele>1804.4000244140625</ele>
        <time>2026-09-03T07:05:22.000Z</time>
        <extensions>
          <ns3:TrackPointExtension>
            <ns3:hr>166</ns3:hr>
            <ns3:cad>0</ns3:cad>
          </ns3:TrackPointExtension>
        </extensions>
      </trkpt>
      <trkpt lat="44.70033111982047557830810546875" lon="6.76055132411420345306396484375">
        <ele>1804.5999755859375</ele>
        <time>2026-09-03T07:05:23.000Z</time>
        <extensions>
          <ns3:TrackPointExtension>
            <ns3:hr>166</ns3:hr>
            <ns3:cad>0</ns3:cad>
          </ns3:TrackPointExtension>
        </extensions>
      </trkpt>
      <trkpt lat="44.70031938515603542327880859375" lon="6.760561130940914154052734375">
        <ele>1804.800048828125</ele>
        <time>2026-09-03T07:05:24.000Z</time>
        <extensions>
          <ns3:TrackPointExtension>
            <ns3:hr>166</ns3:hr>
            <ns3:cad>0</ns3:cad>
          </ns3:TrackPointExtension>
        </extensions>
      </trkpt>
      <trkpt lat="44.70031485892832279205322265625" lon="6.7605676688253879547119140625">
        <ele>1804.800048828125</ele>
        <time>2026-09-03T07:05:25.000Z</time>
        <extensions>
          <ns3:TrackPointExtension>
            <ns3:hr>166</ns3:hr>
            <ns3:cad>0</ns3:cad>
          </ns3:TrackPointExtension>
        </extensions>
      </trkpt>
      <trkpt lat="44.70030982978641986846923828125" lon="6.7605837620794773101806640625">
        <ele>1805</ele>
        <time>2026-09-03T07:05:26.000Z</time>
        <extensions>
          <ns3:TrackPointExtension>
            <ns3:hr>165</ns3:hr>
            <ns3:cad>0</ns3:cad>
          </ns3:TrackPointExtension>
        </extensions>
      </trkpt>
      <trkpt lat="44.70030941069126129150390625" lon="6.760593988001346588134765625">
        <ele>1805.199951171875</ele>
        <time>2026-09-03T07:05:27.000Z</time>
        <extensions>
          <ns3:TrackPointExtension>
            <ns3:hr>165</ns3:hr>
            <ns3:cad>0</ns3:cad>
          </ns3:TrackPointExtension>
        </extensions>
      </trkpt>
      <trkpt lat="44.70030295662581920623779296875" lon="6.7606068961322307586669921875">
        <ele>1805.4000244140625</ele>
        <time>2026-09-03T07:05:28.000Z</time>
        <extensions>
          <ns3:TrackPointExtension>
            <ns3:hr>165</ns3:hr>
            <ns3:cad>0</ns3:cad>
          </ns3:TrackPointExtension>
        </extensions>
      </trkpt>
      <trkpt lat="44.70030002295970916748046875" lon="6.7606152780354022979736328125">
        <ele>1805.5999755859375</ele>
        <time>2026-09-03T07:05:29.000Z</time>
        <extensions>
          <ns3:TrackPointExtension>
            <ns3:hr>165</ns3:hr>
            <ns3:cad>0</ns3:cad>
          </ns3:TrackPointExtension>
        </extensions>
      </trkpt>
      <trkpt lat="44.70029423944652080535888671875" lon="6.760624833405017852783203125">
        <ele>1805.800048828125</ele>
        <time>2026-09-03T07:05:30.000Z</time>
        <extensions>
          <ns3:TrackPointExtension>
            <ns3:hr>166</ns3:hr>
            <ns3:cad>0</ns3:cad>
          </ns3:TrackPointExtension>
        </extensions>
      </trkpt>
      <trkpt lat="44.70028904266655445098876953125" lon="6.76063187420368194580078125">
        <ele>1806</ele>
        <time>2026-09-03T07:05:31.000Z</time>
        <extensions>
          <ns3:TrackPointExtension>
            <ns3:hr>166</ns3:hr>
            <ns3:cad>0</ns3:cad>
          </ns3:TrackPointExtension>
        </extensions>
      </trkpt>
      <trkpt lat="44.70028619281947612762451171875" lon="6.76064394414424896240234375">
        <ele>1806.199951171875</ele>
        <time>2026-09-03T07:05:32.000Z</time>
        <extensions>
          <ns3:TrackPointExtension>
            <ns3:hr>166</ns3:hr>
            <ns3:cad>0</ns3:cad>
          </ns3:TrackPointExtension>
        </extensions>
      </trkpt>
      <trkpt lat="44.70028200186789035797119140625" lon="6.76065140403807163238525390625">
        <ele>1806.4000244140625</ele>
        <time>2026-09-03T07:05:33.000Z</time>
        <extensions>
          <ns3:TrackPointExtension>
            <ns3:hr>166</ns3:hr>
            <ns3:cad>0</ns3:cad>
          </ns3:TrackPointExtension>
        </extensions>
      </trkpt>
      <trkpt lat="44.70027261413633823394775390625" lon="6.76066137850284576416015625">
        <ele>1806.800048828125</ele>
        <time>2026-09-03T07:05:34.000Z</time>
        <extensions>
          <ns3:TrackPointExtension>
            <ns3:hr>166</ns3:hr>
            <ns3:cad>0</ns3:cad>
          </ns3:TrackPointExtension>
        </extensions>
      </trkpt>
      <trkpt lat="44.7002656571567058563232421875" lon="6.760671772062778472900390625">
        <ele>1806.800048828125</ele>
        <time>2026-09-03T07:05:35.000Z</time>
        <extensions>
          <ns3:TrackPointExtension>
            <ns3:hr>166</ns3:hr>
            <ns3:cad>0</ns3:cad>
          </ns3:TrackPointExtension>
        </extensions>
      </trkpt>
      <trkpt lat="44.7002626396715641021728515625" lon="6.76068476401269435882568359375">
        <ele>1807</ele>
        <time>2026-09-03T07:05:36.000Z</time>
        <extensions>
          <ns3:TrackPointExtension>
            <ns3:hr>167</ns3:hr>
            <ns3:cad>0</ns3:cad>
          </ns3:TrackPointExtension>
        </extensions>
      </trkpt>
      <trkpt lat="44.70025568269193172454833984375" lon="6.760699264705181121826171875">
        <ele>1807.199951171875</ele>
        <time>2026-09-03T07:05:37.000Z</time>
        <extensions>
          <ns3:TrackPointExtension>
            <ns3:hr>167</ns3:hr>
            <ns3:cad>0</ns3:cad>
          </ns3:TrackPointExtension>
        </extensions>
      </trkpt>
      <trkpt lat="44.7002472169697284698486328125" lon="6.76071234047412872314453125">
        <ele>1807.4000244140625</ele>
        <time>2026-09-03T07:05:38.000Z</time>
        <extensions>
          <ns3:TrackPointExtension>
            <ns3:hr>166</ns3:hr>
            <ns3:cad>0</ns3:cad>
          </ns3:TrackPointExtension>
        </extensions>
      </trkpt>
      <trkpt lat="44.70023958943784236907958984375" lon="6.76072952337563037872314453125">
        <ele>1807.5999755859375</ele>
        <time>2026-09-03T07:05:39.000Z</time>
        <extensions>
          <ns3:TrackPointExtension>
            <ns3:hr>167</ns3:hr>
            <ns3:cad>0</ns3:cad>
          </ns3:TrackPointExtension>
        </extensions>
      </trkpt>
      <trkpt lat="44.7002368234097957611083984375" lon="6.7607386596500873565673828125">
        <ele>1807.800048828125</ele>
        <time>2026-09-03T07:05:40.000Z</time>
        <extensions>
          <ns3:TrackPointExtension>
            <ns3:hr>167</ns3:hr>
            <ns3:cad>0</ns3:cad>
          </ns3:TrackPointExtension>
        </extensions>
      </trkpt>
      <trkpt lat="44.70022886060178279876708984375" lon="6.76075793802738189697265625">
        <ele>1808.199951171875</ele>
        <time>2026-09-03T07:05:41.000Z</time>
        <extensions>
          <ns3:TrackPointExtension>
            <ns3:hr>167</ns3:hr>
            <ns3:cad>0</ns3:cad>
          </ns3:TrackPointExtension>
        </extensions>
      </trkpt>
      <trkpt lat="44.70021930523216724395751953125" lon="6.76077126525342464447021484375">
        <ele>1808.4000244140625</ele>
        <time>2026-09-03T07:05:42.000Z</time>
        <extensions>
          <ns3:TrackPointExtension>
            <ns3:hr>167</ns3:hr>
            <ns3:cad>0</ns3:cad>
          </ns3:TrackPointExtension>
        </extensions>
      </trkpt>
      <trkpt lat="44.70021075569093227386474609375" lon="6.76078744232654571533203125">
        <ele>1808.5999755859375</ele>
        <time>2026-09-03T07:05:43.000Z</time>
        <extensions>
          <ns3:TrackPointExtension>
            <ns3:hr>166</ns3:hr>
            <ns3:cad>0</ns3:cad>
          </ns3:TrackPointExtension>
        </extensions>
      </trkpt>
      <trkpt lat="44.700200445950031280517578125" lon="6.76080227829515933990478515625">
        <ele>1808.800048828125</ele>
        <time>2026-09-03T07:05:44.000Z</time>
        <extensions>
          <ns3:TrackPointExtension>
            <ns3:hr>166</ns3:hr>
            <ns3:cad>0</ns3:cad>
          </ns3:TrackPointExtension>
        </extensions>
      </trkpt>
      <trkpt lat="44.70019407570362091064453125" lon="6.76080697216093540191650390625">
        <ele>1809.199951171875</ele>
        <time>2026-09-03T07:05:45.000Z</time>
        <extensions>
          <ns3:TrackPointExtension>
            <ns3:hr>166</ns3:hr>
            <ns3:cad>0</ns3:cad>
          </ns3:TrackPointExtension>
        </extensions>
      </trkpt>
      <trkpt lat="44.7001895494759082794189453125" lon="6.7608208023011684417724609375">
        <ele>1809.4000244140625</ele>
        <time>2026-09-03T07:05:46.000Z</time>
        <extensions>
          <ns3:TrackPointExtension>
            <ns3:hr>166</ns3:hr>
            <ns3:cad>0</ns3:cad>
          </ns3:TrackPointExtension>
        </extensions>
      </trkpt>
      <trkpt lat="44.70018577761948108673095703125" lon="6.76082742400467395782470703125">
        <ele>1809.4000244140625</ele>
        <time>2026-09-03T07:05:47.000Z</time>
        <extensions>
          <ns3:TrackPointExtension>
            <ns3:hr>166</ns3:hr>
            <ns3:cad>0</ns3:cad>
          </ns3:TrackPointExtension>
        </extensions>
      </trkpt>
      <trkpt lat="44.7001761384308338165283203125" lon="6.76084519363939762115478515625">
        <ele>1809.5999755859375</ele>
        <time>2026-09-03T07:05:48.000Z</time>
        <extensions>
          <ns3:TrackPointExtension>
            <ns3:hr>166</ns3:hr>
            <ns3:cad>0</ns3:cad>
          </ns3:TrackPointExtension>
        </extensions>
      </trkpt>
      <trkpt lat="44.70017504878342151641845703125" lon="6.76085089333355426788330078125">
        <ele>1809.800048828125</ele>
        <time>2026-09-03T07:05:49.000Z</time>
        <extensions>
          <ns3:TrackPointExtension>
            <ns3:hr>167</ns3:hr>
            <ns3:cad>0</ns3:cad>
          </ns3:TrackPointExtension>
        </extensions>
      </trkpt>
      <trkpt lat="44.700163565576076507568359375" lon="6.760868914425373077392578125">
        <ele>1810</ele>
        <time>2026-09-03T07:05:50.000Z</time>
        <extensions>
          <ns3:TrackPointExtension>
            <ns3:hr>166</ns3:hr>
            <ns3:cad>0</ns3:cad>
          </ns3:TrackPointExtension>
        </extensions>
      </trkpt>
      <trkpt lat="44.7001597099006175994873046875" lon="6.76087570376694202423095703125">
        <ele>1810.4000244140625</ele>
        <time>2026-09-03T07:05:51.000Z</time>
        <extensions>
          <ns3:TrackPointExtension>
            <ns3:hr>165</ns3:hr>
            <ns3:cad>0</ns3:cad>
          </ns3:TrackPointExtension>
        </extensions>
      </trkpt>
      <trkpt lat="44.70015023835003376007080078125" lon="6.7608900368213653564453125">
        <ele>1810.5999755859375</ele>
        <time>2026-09-03T07:05:52.000Z</time>
        <extensions>
          <ns3:TrackPointExtension>
            <ns3:hr>164</ns3:hr>
            <ns3:cad>0</ns3:cad>
          </ns3:TrackPointExtension>
        </extensions>
      </trkpt>
      <trkpt lat="44.700142443180084228515625" lon="6.760899089276790618896484375">
        <ele>1810.800048828125</ele>
        <time>2026-09-03T07:05:53.000Z</time>
        <extensions>
          <ns3:TrackPointExtension>
            <ns3:hr>163</ns3:hr>
            <ns3:cad>0</ns3:cad>
          </ns3:TrackPointExtension>
        </extensions>
      </trkpt>
      <trkpt lat="44.70012542791664600372314453125" lon="6.760921217501163482666015625">
        <ele>1811</ele>
        <time>2026-09-03T07:05:54.000Z</time>
        <extensions>
          <ns3:TrackPointExtension>
            <ns3:hr>163</ns3:hr>
            <ns3:cad>0</ns3:cad>
          </ns3:TrackPointExtension>
        </extensions>
      </trkpt>
      <trkpt lat="44.70011805184185504913330078125" lon="6.7609287612140178680419921875">
        <ele>1811.199951171875</ele>
        <time>2026-09-03T07:05:55.000Z</time>
        <extensions>
          <ns3:TrackPointExtension>
            <ns3:hr>163</ns3:hr>
            <ns3:cad>0</ns3:cad>
          </ns3:TrackPointExtension>
        </extensions>
      </trkpt>
      <trkpt lat="44.70010581426322460174560546875" lon="6.76094703376293182373046875">
        <ele>1811.4000244140625</ele>
        <time>2026-09-03T07:05:56.000Z</time>
        <extensions>
          <ns3:TrackPointExtension>
            <ns3:hr>163</ns3:hr>
            <ns3:cad>0</ns3:cad>
          </ns3:TrackPointExtension>
        </extensions>
      </trkpt>
      <trkpt lat="44.70009743236005306243896484375" lon="6.76095868460834026336669921875">
        <ele>1811.5999755859375</ele>
        <time>2026-09-03T07:05:57.000Z</time>
        <extensions>
          <ns3:TrackPointExtension>
            <ns3:hr>163</ns3:hr>
            <ns3:cad>0</ns3:cad>
          </ns3:TrackPointExtension>
        </extensions>
      </trkpt>
      <trkpt lat="44.70009609125554561614990234375" lon="6.7609740234911441802978515625">
        <ele>1811.800048828125</ele>
        <time>2026-09-03T07:05:58.000Z</time>
        <extensions>
          <ns3:TrackPointExtension>
            <ns3:hr>164</ns3:hr>
            <ns3:cad>0</ns3:cad>
          </ns3:TrackPointExtension>
        </extensions>
      </trkpt>
      <trkpt lat="44.70009055919945240020751953125" lon="6.7609894461929798126220703125">
        <ele>1812</ele>
        <time>2026-09-03T07:05:59.000Z</time>
        <extensions>
          <ns3:TrackPointExtension>
            <ns3:hr>164</ns3:hr>
            <ns3:cad>0</ns3:cad>
          </ns3:TrackPointExtension>
        </extensions>
      </trkpt>
      <trkpt lat="44.70008519478142261505126953125" lon="6.76099531352519989013671875">
        <ele>1812.199951171875</ele>
        <time>2026-09-03T07:06:00.000Z</time>
        <extensions>
          <ns3:TrackPointExtension>
            <ns3:hr>164</ns3:hr>
            <ns3:cad>0</ns3:cad>
          </ns3:TrackPointExtension>
        </extensions>
      </trkpt>
      <trkpt lat="44.70007471740245819091796875" lon="6.7610092274844646453857421875">
        <ele>1812.4000244140625</ele>
        <time>2026-09-03T07:06:01.000Z</time>
        <extensions>
          <ns3:TrackPointExtension>
            <ns3:hr>164</ns3:hr>
            <ns3:cad>0</ns3:cad>
          </ns3:TrackPointExtension>
        </extensions>
      </trkpt>
      <trkpt lat="44.7000728733837604522705078125" lon="6.7610142566263675689697265625">
        <ele>1812.5999755859375</ele>
        <time>2026-09-03T07:06:02.000Z</time>
        <extensions>
          <ns3:TrackPointExtension>
            <ns3:hr>164</ns3:hr>
            <ns3:cad>0</ns3:cad>
          </ns3:TrackPointExtension>
        </extensions>
      </trkpt>
      <trkpt lat="44.7000618092715740203857421875" lon="6.76102674566209316253662109375">
        <ele>1812.800048828125</ele>
        <time>2026-09-03T07:06:03.000Z</time>
        <extensions>
          <ns3:TrackPointExtension>
            <ns3:hr>164</ns3:hr>
            <ns3:cad>0</ns3:cad>
          </ns3:TrackPointExtension>
        </extensions>
      </trkpt>
      <trkpt lat="44.70005937851965427398681640625" lon="6.76103412173688411712646484375">
        <ele>1813</ele>
        <time>2026-09-03T07:06:04.000Z</time>
        <extensions>
          <ns3:TrackPointExtension>
            <ns3:hr>164</ns3:hr>
            <ns3:cad>0</ns3:cad>
          </ns3:TrackPointExtension>
        </extensions>
      </trkpt>
      <trkpt lat="44.70004093833267688751220703125" lon="6.76104485057294368743896484375">
        <ele>1813.199951171875</ele>
        <time>2026-09-03T07:06:05.000Z</time>
        <extensions>
          <ns3:TrackPointExtension>
            <ns3:hr>164</ns3:hr>
            <ns3:cad>0</ns3:cad>
          </ns3:TrackPointExtension>
        </extensions>
      </trkpt>
      <trkpt lat="44.70003138296306133270263671875" lon="6.76105373539030551910400390625">
        <ele>1813.4000244140625</ele>
        <time>2026-09-03T07:06:06.000Z</time>
        <extensions>
          <ns3:TrackPointExtension>
            <ns3:hr>164</ns3:hr>
            <ns3:cad>0</ns3:cad>
          </ns3:TrackPointExtension>
        </extensions>
      </trkpt>
      <trkpt lat="44.7000182233750820159912109375" lon="6.761069409549236297607421875">
        <ele>1813.5999755859375</ele>
        <time>2026-09-03T07:06:07.000Z</time>
        <extensions>
          <ns3:TrackPointExtension>
            <ns3:hr>164</ns3:hr>
            <ns3:cad>0</ns3:cad>
          </ns3:TrackPointExtension>
        </extensions>
      </trkpt>
      <trkpt lat="44.70000942237675189971923828125" lon="6.76107871346175670623779296875">
        <ele>1813.800048828125</ele>
        <time>2026-09-03T07:06:08.000Z</time>
        <extensions>
          <ns3:TrackPointExtension>
            <ns3:hr>165</ns3:hr>
            <ns3:cad>0</ns3:cad>
          </ns3:TrackPointExtension>
        </extensions>
      </trkpt>
      <trkpt lat="44.70000229775905609130859375" lon="6.76108826883137226104736328125">
        <ele>1814</ele>
        <time>2026-09-03T07:06:09.000Z</time>
        <extensions>
          <ns3:TrackPointExtension>
            <ns3:hr>165</ns3:hr>
            <ns3:cad>0</ns3:cad>
          </ns3:TrackPointExtension>
        </extensions>
      </trkpt>
      <trkpt lat="44.69999148510396480560302734375" lon="6.76110385917127132415771484375">
        <ele>1814.199951171875</ele>
        <time>2026-09-03T07:06:10.000Z</time>
        <extensions>
          <ns3:TrackPointExtension>
            <ns3:hr>165</ns3:hr>
            <ns3:cad>0</ns3:cad>
          </ns3:TrackPointExtension>
        </extensions>
      </trkpt>
      <trkpt lat="44.69998846761882305145263671875" lon="6.7611061222851276397705078125">
        <ele>1814.4000244140625</ele>
        <time>2026-09-03T07:06:11.000Z</time>
        <extensions>
          <ns3:TrackPointExtension>
            <ns3:hr>165</ns3:hr>
            <ns3:cad>0</ns3:cad>
          </ns3:TrackPointExtension>
        </extensions>
      </trkpt>
      <trkpt lat="44.69997706823050975799560546875" lon="6.761115677654743194580078125">
        <ele>1814.5999755859375</ele>
        <time>2026-09-03T07:06:12.000Z</time>
        <extensions>
          <ns3:TrackPointExtension>
            <ns3:hr>165</ns3:hr>
            <ns3:cad>0</ns3:cad>
          </ns3:TrackPointExtension>
        </extensions>
      </trkpt>
      <trkpt lat="44.69997723586857318878173828125" lon="6.76111676730215549468994140625">
        <ele>1814.800048828125</ele>
        <time>2026-09-03T07:06:13.000Z</time>
        <extensions>
          <ns3:TrackPointExtension>
            <ns3:hr>166</ns3:hr>
            <ns3:cad>0</ns3:cad>
          </ns3:TrackPointExtension>
        </extensions>
      </trkpt>
      <trkpt lat="44.699970446527004241943359375" lon="6.7611242271959781646728515625">
        <ele>1815</ele>
        <time>2026-09-03T07:06:14.000Z</time>
        <extensions>
          <ns3:TrackPointExtension>
            <ns3:hr>166</ns3:hr>
            <ns3:cad>0</ns3:cad>
          </ns3:TrackPointExtension>
        </extensions>
      </trkpt>
      <trkpt lat="44.6999632380902767181396484375" lon="6.76113076508045196533203125">
        <ele>1815.199951171875</ele>
        <time>2026-09-03T07:06:15.000Z</time>
        <extensions>
          <ns3:TrackPointExtension>
            <ns3:hr>166</ns3:hr>
            <ns3:cad>0</ns3:cad>
          </ns3:TrackPointExtension>
        </extensions>
      </trkpt>
      <trkpt lat="44.69994907267391681671142578125" lon="6.76113956607878208160400390625">
        <ele>1815.4000244140625</ele>
        <time>2026-09-03T07:06:16.000Z</time>
        <extensions>
          <ns3:TrackPointExtension>
            <ns3:hr>166</ns3:hr>
            <ns3:cad>0</ns3:cad>
          </ns3:TrackPointExtension>
        </extensions>
      </trkpt>
      <trkpt lat="44.699937589466571807861328125" lon="6.76114660687744617462158203125">
        <ele>1815.5999755859375</ele>
        <time>2026-09-03T07:06:17.000Z</time>
        <extensions>
          <ns3:TrackPointExtension>
            <ns3:hr>166</ns3:hr>
            <ns3:cad>0</ns3:cad>
          </ns3:TrackPointExtension>
        </extensions>
      </trkpt>
      <trkpt lat="44.69992107711732387542724609375" lon="6.76115482114255428314208984375">
        <ele>1816</ele>
        <time>2026-09-03T07:06:18.000Z</time>
        <extensions>
          <ns3:TrackPointExtension>
            <ns3:hr>167</ns3:hr>
            <ns3:cad>0</ns3:cad>
          </ns3:TrackPointExtension>
        </extensions>
      </trkpt>
      <trkpt lat="44.69991671852767467498779296875" lon="6.76116001792252063751220703125">
        <ele>1816.4000244140625</ele>
        <time>2026-09-03T07:06:19.000Z</time>
        <extensions>
          <ns3:TrackPointExtension>
            <ns3:hr>166</ns3:hr>
            <ns3:cad>0</ns3:cad>
          </ns3:TrackPointExtension>
        </extensions>
      </trkpt>
      <trkpt lat="44.6998992003500461578369140625" lon="6.76116990856826305389404296875">
        <ele>1816.5999755859375</ele>
        <time>2026-09-03T07:06:20.000Z</time>
        <extensions>
          <ns3:TrackPointExtension>
            <ns3:hr>167</ns3:hr>
            <ns3:cad>0</ns3:cad>
          </ns3:TrackPointExtension>
        </extensions>
      </trkpt>
      <trkpt lat="44.6998918242752552032470703125" lon="6.76117292605340480804443359375">
        <ele>1816.800048828125</ele>
        <time>2026-09-03T07:06:21.000Z</time>
        <extensions>
          <ns3:TrackPointExtension>
            <ns3:hr>167</ns3:hr>
            <ns3:cad>0</ns3:cad>
          </ns3:TrackPointExtension>
        </extensions>
      </trkpt>
      <trkpt lat="44.69988562166690826416015625" lon="6.761174015700817108154296875">
        <ele>1817</ele>
        <time>2026-09-03T07:06:22.000Z</time>
        <extensions>
          <ns3:TrackPointExtension>
            <ns3:hr>168</ns3:hr>
            <ns3:cad>0</ns3:cad>
          </ns3:TrackPointExtension>
        </extensions>
      </trkpt>
      <trkpt lat="44.69987380318343639373779296875" lon="6.7611795477569103240966796875">
        <ele>1817.199951171875</ele>
        <time>2026-09-03T07:06:23.000Z</time>
        <extensions>
          <ns3:TrackPointExtension>
            <ns3:hr>169</ns3:hr>
            <ns3:cad>0</ns3:cad>
          </ns3:TrackPointExtension>
        </extensions>
      </trkpt>
      <trkpt lat="44.69986961223185062408447265625" lon="6.76117342896759510040283203125">
        <ele>1817.4000244140625</ele>
        <time>2026-09-03T07:06:24.000Z</time>
        <extensions>
          <ns3:TrackPointExtension>
            <ns3:hr>169</ns3:hr>
            <ns3:cad>0</ns3:cad>
          </ns3:TrackPointExtension>
        </extensions>
      </trkpt>
      <trkpt lat="44.69985502772033214569091796875" lon="6.76117996685206890106201171875">
        <ele>1817.5999755859375</ele>
        <time>2026-09-03T07:06:25.000Z</time>
        <extensions>
          <ns3:TrackPointExtension>
            <ns3:hr>169</ns3:hr>
            <ns3:cad>44</ns3:cad>
          </ns3:TrackPointExtension>
        </extensions>
      </trkpt>
      <trkpt lat="44.6998505853116512298583984375" lon="6.7611886002123355865478515625">
        <ele>1818</ele>
        <time>2026-09-03T07:06:26.000Z</time>
        <extensions>
          <ns3:TrackPointExtension>
            <ns3:hr>168</ns3:hr>
            <ns3:cad>44</ns3:cad>
          </ns3:TrackPointExtension>
        </extensions>
      </trkpt>
      <trkpt lat="44.69984379597008228302001953125" lon="6.76119538955390453338623046875">
        <ele>1818.199951171875</ele>
        <time>2026-09-03T07:06:27.000Z</time>
        <extensions>
          <ns3:TrackPointExtension>
            <ns3:hr>167</ns3:hr>
            <ns3:cad>44</ns3:cad>
          </ns3:TrackPointExtension>
        </extensions>
      </trkpt>
      <trkpt lat="44.69983591698110103607177734375" lon="6.7612010054290294647216796875">
        <ele>1818.4000244140625</ele>
        <time>2026-09-03T07:06:28.000Z</time>
        <extensions>
          <ns3:TrackPointExtension>
            <ns3:hr>167</ns3:hr>
            <ns3:cad>0</ns3:cad>
          </ns3:TrackPointExtension>
        </extensions>
      </trkpt>
      <trkpt lat="44.6998254396021366119384765625" lon="6.7612110637128353118896484375">
        <ele>1818.800048828125</ele>
        <time>2026-09-03T07:06:29.000Z</time>
        <extensions>
          <ns3:TrackPointExtension>
            <ns3:hr>166</ns3:hr>
            <ns3:cad>0</ns3:cad>
          </ns3:TrackPointExtension>
        </extensions>
      </trkpt>
      <trkpt lat="44.69981747679412364959716796875" lon="6.761216260492801666259765625">
        <ele>1819</ele>
        <time>2026-09-03T07:06:30.000Z</time>
        <extensions>
          <ns3:TrackPointExtension>
            <ns3:hr>166</ns3:hr>
            <ns3:cad>0</ns3:cad>
          </ns3:TrackPointExtension>
        </extensions>
      </trkpt>
      <trkpt lat="44.699809513986110687255859375" lon="6.76122128963470458984375">
        <ele>1819.4000244140625</ele>
        <time>2026-09-03T07:06:31.000Z</time>
        <extensions>
          <ns3:TrackPointExtension>
            <ns3:hr>166</ns3:hr>
            <ns3:cad>0</ns3:cad>
          </ns3:TrackPointExtension>
        </extensions>
      </trkpt>
      <trkpt lat="44.6998009644448757171630859375" lon="6.7612268216907978057861328125">
        <ele>1819.5999755859375</ele>
        <time>2026-09-03T07:06:32.000Z</time>
        <extensions>
          <ns3:TrackPointExtension>
            <ns3:hr>167</ns3:hr>
            <ns3:cad>0</ns3:cad>
          </ns3:TrackPointExtension>
        </extensions>
      </trkpt>
      <trkpt lat="44.69979300163686275482177734375" lon="6.7612271569669246673583984375">
        <ele>1819.800048828125</ele>
        <time>2026-09-03T07:06:33.000Z</time>
        <extensions>
          <ns3:TrackPointExtension>
            <ns3:hr>167</ns3:hr>
            <ns3:cad>0</ns3:cad>
          </ns3:TrackPointExtension>
        </extensions>
      </trkpt>
      <trkpt lat="44.69978730194270610809326171875" lon="6.76123528741300106048583984375">
        <ele>1820</ele>
        <time>2026-09-03T07:06:34.000Z</time>
        <extensions>
          <ns3:TrackPointExtension>
            <ns3:hr>167</ns3:hr>
            <ns3:cad>0</ns3:cad>
          </ns3:TrackPointExtension>
        </extensions>
      </trkpt>
      <trkpt lat="44.69978797249495983123779296875" lon="6.76123646087944507598876953125">
        <ele>1820.199951171875</ele>
        <time>2026-09-03T07:06:35.000Z</time>
        <extensions>
          <ns3:TrackPointExtension>
            <ns3:hr>168</ns3:hr>
            <ns3:cad>0</ns3:cad>
          </ns3:TrackPointExtension>
        </extensions>
      </trkpt>
      <trkpt lat="44.69977757893502712249755859375" lon="6.76124417223036289215087890625">
        <ele>1820.4000244140625</ele>
        <time>2026-09-03T07:06:36.000Z</time>
        <extensions>
          <ns3:TrackPointExtension>
            <ns3:hr>168</ns3:hr>
            <ns3:cad>0</ns3:cad>
          </ns3:TrackPointExtension>
        </extensions>
      </trkpt>
      <trkpt lat="44.69977221451699733734130859375" lon="6.7612502910196781158447265625">
        <ele>1820.5999755859375</ele>
        <time>2026-09-03T07:06:37.000Z</time>
        <extensions>
          <ns3:TrackPointExtension>
            <ns3:hr>168</ns3:hr>
            <ns3:cad>0</ns3:cad>
          </ns3:TrackPointExtension>
        </extensions>
      </trkpt>
      <trkpt lat="44.69976358115673065185546875" lon="6.76125624217092990875244140625">
        <ele>1820.800048828125</ele>
        <time>2026-09-03T07:06:38.000Z</time>
        <extensions>
          <ns3:TrackPointExtension>
            <ns3:hr>169</ns3:hr>
            <ns3:cad>0</ns3:cad>
          </ns3:TrackPointExtension>
        </extensions>
      </trkpt>
      <trkpt lat="44.69975612126290798187255859375" lon="6.76126579754054546356201171875">
        <ele>1821</ele>
        <time>2026-09-03T07:06:39.000Z</time>
        <extensions>
          <ns3:TrackPointExtension>
            <ns3:hr>169</ns3:hr>
            <ns3:cad>0</ns3:cad>
          </ns3:TrackPointExtension>
        </extensions>
      </trkpt>
      <trkpt lat="44.69974807463586330413818359375" lon="6.76127426326274871826171875">
        <ele>1821.4000244140625</ele>
        <time>2026-09-03T07:06:40.000Z</time>
        <extensions>
          <ns3:TrackPointExtension>
            <ns3:hr>169</ns3:hr>
            <ns3:cad>0</ns3:cad>
          </ns3:TrackPointExtension>
        </extensions>
      </trkpt>
      <trkpt lat="44.69974078238010406494140625" lon="6.7612811364233493804931640625">
        <ele>1821.5999755859375</ele>
        <time>2026-09-03T07:06:41.000Z</time>
        <extensions>
          <ns3:TrackPointExtension>
            <ns3:hr>169</ns3:hr>
            <ns3:cad>0</ns3:cad>
          </ns3:TrackPointExtension>
        </extensions>
      </trkpt>
      <trkpt lat="44.6997268684208393096923828125" lon="6.76129429601132869720458984375">
        <ele>1821.800048828125</ele>
        <time>2026-09-03T07:06:42.000Z</time>
        <extensions>
          <ns3:TrackPointExtension>
            <ns3:hr>169</ns3:hr>
            <ns3:cad>0</ns3:cad>
          </ns3:TrackPointExtension>
        </extensions>
      </trkpt>
      <trkpt lat="44.69971639104187488555908203125" lon="6.76129932515323162078857421875">
        <ele>1822</ele>
        <time>2026-09-03T07:06:43.000Z</time>
        <extensions>
          <ns3:TrackPointExtension>
            <ns3:hr>170</ns3:hr>
            <ns3:cad>0</ns3:cad>
          </ns3:TrackPointExtension>
        </extensions>
      </trkpt>
      <trkpt lat="44.6997119486331939697265625" lon="6.761304102838039398193359375">
        <ele>1822.199951171875</ele>
        <time>2026-09-03T07:06:44.000Z</time>
        <extensions>
          <ns3:TrackPointExtension>
            <ns3:hr>170</ns3:hr>
            <ns3:cad>0</ns3:cad>
          </ns3:TrackPointExtension>
        </extensions>
      </trkpt>
      <trkpt lat="44.69970448873937129974365234375" lon="6.76131223328411579132080078125">
        <ele>1822.4000244140625</ele>
        <time>2026-09-03T07:06:45.000Z</time>
        <extensions>
          <ns3:TrackPointExtension>
            <ns3:hr>170</ns3:hr>
            <ns3:cad>0</ns3:cad>
          </ns3:TrackPointExtension>
        </extensions>
      </trkpt>
      <trkpt lat="44.69969627447426319122314453125" lon="6.761313490569591522216796875">
        <ele>1822.5999755859375</ele>
        <time>2026-09-03T07:06:46.000Z</time>
        <extensions>
          <ns3:TrackPointExtension>
            <ns3:hr>170</ns3:hr>
            <ns3:cad>0</ns3:cad>
          </ns3:TrackPointExtension>
        </extensions>
      </trkpt>
      <trkpt lat="44.69968713819980621337890625" lon="6.76132162101566791534423828125">
        <ele>1823</ele>
        <time>2026-09-03T07:06:47.000Z</time>
        <extensions>
          <ns3:TrackPointExtension>
            <ns3:hr>171</ns3:hr>
            <ns3:cad>0</ns3:cad>
          </ns3:TrackPointExtension>
        </extensions>
      </trkpt>
      <trkpt lat="44.69968118704855442047119140625" lon="6.76131927408277988433837890625">
        <ele>1823.199951171875</ele>
        <time>2026-09-03T07:06:48.000Z</time>
        <extensions>
          <ns3:TrackPointExtension>
            <ns3:hr>171</ns3:hr>
            <ns3:cad>0</ns3:cad>
          </ns3:TrackPointExtension>
        </extensions>
      </trkpt>
      <trkpt lat="44.69967364333570003509521484375" lon="6.7613274045288562774658203125">
        <ele>1823.4000244140625</ele>
        <time>2026-09-03T07:06:49.000Z</time>
        <extensions>
          <ns3:TrackPointExtension>
            <ns3:hr>171</ns3:hr>
            <ns3:cad>0</ns3:cad>
          </ns3:TrackPointExtension>
        </extensions>
      </trkpt>
      <trkpt lat="44.6996685303747653961181640625" lon="6.76133134402334690093994140625">
        <ele>1823.5999755859375</ele>
        <time>2026-09-03T07:06:50.000Z</time>
        <extensions>
          <ns3:TrackPointExtension>
            <ns3:hr>171</ns3:hr>
            <ns3:cad>0</ns3:cad>
          </ns3:TrackPointExtension>
        </extensions>
      </trkpt>
      <trkpt lat="44.6996641717851161956787109375" lon="6.7613384686410427093505859375">
        <ele>1823.800048828125</ele>
        <time>2026-09-03T07:06:51.000Z</time>
        <extensions>
          <ns3:TrackPointExtension>
            <ns3:hr>172</ns3:hr>
            <ns3:cad>0</ns3:cad>
          </ns3:TrackPointExtension>
        </extensions>
      </trkpt>
      <trkpt lat="44.69966509379446506500244140625" lon="6.7613441683351993560791015625">
        <ele>1824</ele>
        <time>2026-09-03T07:06:52.000Z</time>
        <extensions>
          <ns3:TrackPointExtension>
            <ns3:hr>172</ns3:hr>
            <ns3:cad>0</ns3:cad>
          </ns3:TrackPointExtension>
        </extensions>
      </trkpt>
      <trkpt lat="44.699655957520008087158203125" lon="6.761354394257068634033203125">
        <ele>1824.199951171875</ele>
        <time>2026-09-03T07:06:53.000Z</time>
        <extensions>
          <ns3:TrackPointExtension>
            <ns3:hr>172</ns3:hr>
            <ns3:cad>0</ns3:cad>
          </ns3:TrackPointExtension>
        </extensions>
      </trkpt>
      <trkpt lat="44.69964883290231227874755859375" lon="6.761359088122844696044921875">
        <ele>1824.199951171875</ele>
        <time>2026-09-03T07:06:54.000Z</time>
        <extensions>
          <ns3:TrackPointExtension>
            <ns3:hr>172</ns3:hr>
            <ns3:cad>0</ns3:cad>
          </ns3:TrackPointExtension>
        </extensions>
      </trkpt>
      <trkpt lat="44.69963357783854007720947265625" lon="6.761361770331859588623046875">
        <ele>1824.5999755859375</ele>
        <time>2026-09-03T07:06:55.000Z</time>
        <extensions>
          <ns3:TrackPointExtension>
            <ns3:hr>172</ns3:hr>
            <ns3:cad>0</ns3:cad>
          </ns3:TrackPointExtension>
        </extensions>
      </trkpt>
      <trkpt lat="44.6996249444782733917236328125" lon="6.76136470399796962738037109375">
        <ele>1824.800048828125</ele>
        <time>2026-09-03T07:06:56.000Z</time>
        <extensions>
          <ns3:TrackPointExtension>
            <ns3:hr>172</ns3:hr>
            <ns3:cad>0</ns3:cad>
          </ns3:TrackPointExtension>
        </extensions>
      </trkpt>
      <trkpt lat="44.69961077906191349029541015625" lon="6.7613599263131618499755859375">
        <ele>1825</ele>
        <time>2026-09-03T07:06:57.000Z</time>
        <extensions>
          <ns3:TrackPointExtension>
            <ns3:hr>172</ns3:hr>
            <ns3:cad>0</ns3:cad>
          </ns3:TrackPointExtension>
        </extensions>
      </trkpt>
      <trkpt lat="44.69960155896842479705810546875" lon="6.76136143505573272705078125">
        <ele>1825.199951171875</ele>
        <time>2026-09-03T07:06:58.000Z</time>
        <extensions>
          <ns3:TrackPointExtension>
            <ns3:hr>172</ns3:hr>
            <ns3:cad>0</ns3:cad>
          </ns3:TrackPointExtension>
        </extensions>
      </trkpt>
      <trkpt lat="44.699589908123016357421875" lon="6.7613605968654155731201171875">
        <ele>1825.4000244140625</ele>
        <time>2026-09-03T07:06:59.000Z</time>
        <extensions>
          <ns3:TrackPointExtension>
            <ns3:hr>172</ns3:hr>
            <ns3:cad>53</ns3:cad>
          </ns3:TrackPointExtension>
        </extensions>
      </trkpt>
      <trkpt lat="44.6995796822011470794677734375" lon="6.7613592557609081268310546875">
        <ele>1825.4000244140625</ele>
        <time>2026-09-03T07:07:00.000Z</time>
        <extensions>
          <ns3:TrackPointExtension>
            <ns3:hr>172</ns3:hr>
            <ns3:cad>53</ns3:cad>
          </ns3:TrackPointExtension>
        </extensions>
      </trkpt>
      <trkpt lat="44.69957004301249980926513671875" lon="6.76135967485606670379638671875">
        <ele>1825.5999755859375</ele>
        <time>2026-09-03T07:07:01.000Z</time>
        <extensions>
          <ns3:TrackPointExtension>
            <ns3:hr>172</ns3:hr>
            <ns3:cad>52</ns3:cad>
          </ns3:TrackPointExtension>
        </extensions>
      </trkpt>
      <trkpt lat="44.69955126754939556121826171875" lon="6.7613599263131618499755859375">
        <ele>1825.800048828125</ele>
        <time>2026-09-03T07:07:02.000Z</time>
        <extensions>
          <ns3:TrackPointExtension>
            <ns3:hr>172</ns3:hr>
            <ns3:cad>52</ns3:cad>
          </ns3:TrackPointExtension>
        </extensions>
      </trkpt>
      <trkpt lat="44.69953718595206737518310546875" lon="6.7613629437983036041259765625">
        <ele>1825.800048828125</ele>
        <time>2026-09-03T07:07:03.000Z</time>
        <extensions>
          <ns3:TrackPointExtension>
            <ns3:hr>172</ns3:hr>
            <ns3:cad>51</ns3:cad>
          </ns3:TrackPointExtension>
        </extensions>
      </trkpt>
      <trkpt lat="44.6995215117931365966796875" lon="6.7613647878170013427734375">
        <ele>1826.199951171875</ele>
        <time>2026-09-03T07:07:04.000Z</time>
        <extensions>
          <ns3:TrackPointExtension>
            <ns3:hr>172</ns3:hr>
            <ns3:cad>51</ns3:cad>
          </ns3:TrackPointExtension>
        </extensions>
      </trkpt>
      <trkpt lat="44.6995092742145061492919921875" lon="6.76137082278728485107421875">
        <ele>1826.4000244140625</ele>
        <time>2026-09-03T07:07:05.000Z</time>
        <extensions>
          <ns3:TrackPointExtension>
            <ns3:hr>172</ns3:hr>
            <ns3:cad>51</ns3:cad>
          </ns3:TrackPointExtension>
        </extensions>
      </trkpt>
      <trkpt lat="44.699495695531368255615234375" lon="6.76137677393853664398193359375">
        <ele>1826.5999755859375</ele>
        <time>2026-09-03T07:07:06.000Z</time>
        <extensions>
          <ns3:TrackPointExtension>
            <ns3:hr>173</ns3:hr>
            <ns3:cad>51</ns3:cad>
          </ns3:TrackPointExtension>
        </extensions>
      </trkpt>
      <trkpt lat="44.6994878165423870086669921875" lon="6.7613830603659152984619140625">
        <ele>1826.800048828125</ele>
        <time>2026-09-03T07:07:07.000Z</time>
        <extensions>
          <ns3:TrackPointExtension>
            <ns3:hr>173</ns3:hr>
            <ns3:cad>0</ns3:cad>
          </ns3:TrackPointExtension>
        </extensions>
      </trkpt>
      <trkpt lat="44.69947465695440769195556640625" lon="6.76139253191649913787841796875">
        <ele>1827</ele>
        <time>2026-09-03T07:07:08.000Z</time>
        <extensions>
          <ns3:TrackPointExtension>
            <ns3:hr>174</ns3:hr>
            <ns3:cad>0</ns3:cad>
          </ns3:TrackPointExtension>
        </extensions>
      </trkpt>
      <trkpt lat="44.69946384429931640625" lon="6.761402003467082977294921875">
        <ele>1827</ele>
        <time>2026-09-03T07:07:09.000Z</time>
        <extensions>
          <ns3:TrackPointExtension>
            <ns3:hr>174</ns3:hr>
            <ns3:cad>0</ns3:cad>
          </ns3:TrackPointExtension>
        </extensions>
      </trkpt>
      <trkpt lat="44.69945621676743030548095703125" lon="6.76140611059963703155517578125">
        <ele>1827.199951171875</ele>
        <time>2026-09-03T07:07:10.000Z</time>
        <extensions>
          <ns3:TrackPointExtension>
            <ns3:hr>176</ns3:hr>
            <ns3:cad>52</ns3:cad>
          </ns3:TrackPointExtension>
        </extensions>
      </trkpt>
      <trkpt lat="44.69944733195006847381591796875" lon="6.7614125646650791168212890625">
        <ele>1827.199951171875</ele>
        <time>2026-09-03T07:07:11.000Z</time>
        <extensions>
          <ns3:TrackPointExtension>
            <ns3:hr>179</ns3:hr>
            <ns3:cad>52</ns3:cad>
          </ns3:TrackPointExtension>
        </extensions>
      </trkpt>
      <trkpt lat="44.6994398720562458038330078125" lon="6.76141440868377685546875">
        <ele>1827.4000244140625</ele>
        <time>2026-09-03T07:07:12.000Z</time>
        <extensions>
          <ns3:TrackPointExtension>
            <ns3:hr>180</ns3:hr>
            <ns3:cad>53</ns3:cad>
          </ns3:TrackPointExtension>
        </extensions>
      </trkpt>
      <trkpt lat="44.69942520372569561004638671875" lon="6.7614206112921237945556640625">
        <ele>1827.5999755859375</ele>
        <time>2026-09-03T07:07:13.000Z</time>
        <extensions>
          <ns3:TrackPointExtension>
            <ns3:hr>180</ns3:hr>
            <ns3:cad>53</ns3:cad>
          </ns3:TrackPointExtension>
        </extensions>
      </trkpt>
      <trkpt lat="44.69941698946058750152587890625" lon="6.76142220385372638702392578125">
        <ele>1827.800048828125</ele>
        <time>2026-09-03T07:07:14.000Z</time>
        <extensions>
          <ns3:TrackPointExtension>
            <ns3:hr>180</ns3:hr>
            <ns3:cad>51</ns3:cad>
          </ns3:TrackPointExtension>
        </extensions>
      </trkpt>
      <trkpt lat="44.69940760172903537750244140625" lon="6.7614249698817729949951171875">
        <ele>1828</ele>
        <time>2026-09-03T07:07:15.000Z</time>
        <extensions>
          <ns3:TrackPointExtension>
            <ns3:hr>180</ns3:hr>
            <ns3:cad>51</ns3:cad>
          </ns3:TrackPointExtension>
        </extensions>
      </trkpt>
      <trkpt lat="44.69939972274005413055419921875" lon="6.76142840646207332611083984375">
        <ele>1828.199951171875</ele>
        <time>2026-09-03T07:07:16.000Z</time>
        <extensions>
          <ns3:TrackPointExtension>
            <ns3:hr>180</ns3:hr>
            <ns3:cad>51</ns3:cad>
          </ns3:TrackPointExtension>
        </extensions>
      </trkpt>
      <trkpt lat="44.6993915922939777374267578125" lon="6.76143092103302478790283203125">
        <ele>1828.4000244140625</ele>
        <time>2026-09-03T07:07:17.000Z</time>
        <extensions>
          <ns3:TrackPointExtension>
            <ns3:hr>180</ns3:hr>
            <ns3:cad>51</ns3:cad>
          </ns3:TrackPointExtension>
        </extensions>
      </trkpt>
      <trkpt lat="44.69938362948596477508544921875" lon="6.76143527962267398834228515625">
        <ele>1828.5999755859375</ele>
        <time>2026-09-03T07:07:18.000Z</time>
        <extensions>
          <ns3:TrackPointExtension>
            <ns3:hr>179</ns3:hr>
            <ns3:cad>51</ns3:cad>
          </ns3:TrackPointExtension>
        </extensions>
      </trkpt>
      <trkpt lat="44.69937055371701717376708984375" lon="6.7614444158971309661865234375">
        <ele>1828.800048828125</ele>
        <time>2026-09-03T07:07:19.000Z</time>
        <extensions>
          <ns3:TrackPointExtension>
            <ns3:hr>179</ns3:hr>
            <ns3:cad>51</ns3:cad>
          </ns3:TrackPointExtension>
        </extensions>
      </trkpt>
      <trkpt lat="44.69936133362352848052978515625" lon="6.76145003177225589752197265625">
        <ele>1828.800048828125</ele>
        <time>2026-09-03T07:07:20.000Z</time>
        <extensions>
          <ns3:TrackPointExtension>
            <ns3:hr>179</ns3:hr>
            <ns3:cad>51</ns3:cad>
          </ns3:TrackPointExtension>
        </extensions>
      </trkpt>
      <trkpt lat="44.69935119152069091796875" lon="6.76145732402801513671875">
        <ele>1829</ele>
        <time>2026-09-03T07:07:21.000Z</time>
        <extensions>
          <ns3:TrackPointExtension>
            <ns3:hr>179</ns3:hr>
            <ns3:cad>51</ns3:cad>
          </ns3:TrackPointExtension>
        </extensions>
      </trkpt>
      <trkpt lat="44.69934306107461452484130859375" lon="6.76146545447409152984619140625">
        <ele>1829.199951171875</ele>
        <time>2026-09-03T07:07:22.000Z</time>
        <extensions>
          <ns3:TrackPointExtension>
            <ns3:hr>179</ns3:hr>
            <ns3:cad>51</ns3:cad>
          </ns3:TrackPointExtension>
        </extensions>
      </trkpt>
      <trkpt lat="44.6993325836956501007080078125" lon="6.76147811114788055419921875">
        <ele>1829.4000244140625</ele>
        <time>2026-09-03T07:07:23.000Z</time>
        <extensions>
          <ns3:TrackPointExtension>
            <ns3:hr>178</ns3:hr>
            <ns3:cad>51</ns3:cad>
          </ns3:TrackPointExtension>
        </extensions>
      </trkpt>
      <trkpt lat="44.69932445324957370758056640625" lon="6.761488504707813262939453125">
        <ele>1829.5999755859375</ele>
        <time>2026-09-03T07:07:24.000Z</time>
        <extensions>
          <ns3:TrackPointExtension>
            <ns3:hr>178</ns3:hr>
            <ns3:cad>51</ns3:cad>
          </ns3:TrackPointExtension>
        </extensions>
      </trkpt>
      <trkpt lat="44.699314646422863006591796875" lon="6.7614940367639064788818359375">
        <ele>1829.800048828125</ele>
        <time>2026-09-03T07:07:25.000Z</time>
        <extensions>
          <ns3:TrackPointExtension>
            <ns3:hr>178</ns3:hr>
            <ns3:cad>51</ns3:cad>
          </ns3:TrackPointExtension>
        </extensions>
      </trkpt>
      <trkpt lat="44.6993060968816280364990234375" lon="6.761501245200634002685546875">
        <ele>1830</ele>
        <time>2026-09-03T07:07:26.000Z</time>
        <extensions>
          <ns3:TrackPointExtension>
            <ns3:hr>177</ns3:hr>
            <ns3:cad>0</ns3:cad>
          </ns3:TrackPointExtension>
        </extensions>
      </trkpt>
      <trkpt lat="44.69929955899715423583984375" lon="6.76150551997125148773193359375">
        <ele>1830.199951171875</ele>
        <time>2026-09-03T07:07:27.000Z</time>
        <extensions>
          <ns3:TrackPointExtension>
            <ns3:hr>177</ns3:hr>
            <ns3:cad>0</ns3:cad>
          </ns3:TrackPointExtension>
        </extensions>
      </trkpt>
      <trkpt lat="44.699291177093982696533203125" lon="6.7615149915218353271484375">
        <ele>1830.199951171875</ele>
        <time>2026-09-03T07:07:28.000Z</time>
        <extensions>
          <ns3:TrackPointExtension>
            <ns3:hr>177</ns3:hr>
            <ns3:cad>0</ns3:cad>
          </ns3:TrackPointExtension>
        </extensions>
      </trkpt>
      <trkpt lat="44.6992876566946506500244140625" lon="6.76152027212083339691162109375">
        <ele>1830.4000244140625</ele>
        <time>2026-09-03T07:07:29.000Z</time>
        <extensions>
          <ns3:TrackPointExtension>
            <ns3:hr>177</ns3:hr>
            <ns3:cad>0</ns3:cad>
          </ns3:TrackPointExtension>
        </extensions>
      </trkpt>
      <trkpt lat="44.69927902333438396453857421875" lon="6.76153016276657581329345703125">
        <ele>1830.5999755859375</ele>
        <time>2026-09-03T07:07:30.000Z</time>
        <extensions>
          <ns3:TrackPointExtension>
            <ns3:hr>177</ns3:hr>
            <ns3:cad>0</ns3:cad>
          </ns3:TrackPointExtension>
        </extensions>
      </trkpt>
      <trkpt lat="44.6992752514779567718505859375" lon="6.761542148888111114501953125">
        <ele>1830.800048828125</ele>
        <time>2026-09-03T07:07:31.000Z</time>
        <extensions>
          <ns3:TrackPointExtension>
            <ns3:hr>176</ns3:hr>
            <ns3:cad>0</ns3:cad>
          </ns3:TrackPointExtension>
        </extensions>
      </trkpt>
      <trkpt lat="44.6992692165076732635498046875" lon="6.76155648194253444671630859375">
        <ele>1831</ele>
        <time>2026-09-03T07:07:32.000Z</time>
        <extensions>
          <ns3:TrackPointExtension>
            <ns3:hr>176</ns3:hr>
            <ns3:cad>0</ns3:cad>
          </ns3:TrackPointExtension>
        </extensions>
      </trkpt>
      <trkpt lat="44.69926343299448490142822265625" lon="6.76156704314053058624267578125">
        <ele>1831.199951171875</ele>
        <time>2026-09-03T07:07:33.000Z</time>
        <extensions>
          <ns3:TrackPointExtension>
            <ns3:hr>176</ns3:hr>
            <ns3:cad>0</ns3:cad>
          </ns3:TrackPointExtension>
        </extensions>
      </trkpt>
      <trkpt lat="44.69925438053905963897705078125" lon="6.76158699207007884979248046875">
        <ele>1831.4000244140625</ele>
        <time>2026-09-03T07:07:34.000Z</time>
        <extensions>
          <ns3:TrackPointExtension>
            <ns3:hr>177</ns3:hr>
            <ns3:cad>0</ns3:cad>
          </ns3:TrackPointExtension>
        </extensions>
      </trkpt>
      <trkpt lat="44.69924700446426868438720703125" lon="6.7615976370871067047119140625">
        <ele>1831.4000244140625</ele>
        <time>2026-09-03T07:07:35.000Z</time>
        <extensions>
          <ns3:TrackPointExtension>
            <ns3:hr>176</ns3:hr>
            <ns3:cad>0</ns3:cad>
          </ns3:TrackPointExtension>
        </extensions>
      </trkpt>
      <trkpt lat="44.6992390416562557220458984375" lon="6.761610209941864013671875">
        <ele>1831.4000244140625</ele>
        <time>2026-09-03T07:07:36.000Z</time>
        <extensions>
          <ns3:TrackPointExtension>
            <ns3:hr>176</ns3:hr>
            <ns3:cad>0</ns3:cad>
          </ns3:TrackPointExtension>
        </extensions>
      </trkpt>
      <trkpt lat="44.69923476688563823699951171875" lon="6.76162001676857471466064453125">
        <ele>1831.5999755859375</ele>
        <time>2026-09-03T07:07:37.000Z</time>
        <extensions>
          <ns3:TrackPointExtension>
            <ns3:hr>175</ns3:hr>
            <ns3:cad>0</ns3:cad>
          </ns3:TrackPointExtension>
        </extensions>
      </trkpt>
      <trkpt lat="44.69923116266727447509765625" lon="6.7616274766623973846435546875">
        <ele>1831.800048828125</ele>
        <time>2026-09-03T07:07:38.000Z</time>
        <extensions>
          <ns3:TrackPointExtension>
            <ns3:hr>174</ns3:hr>
            <ns3:cad>0</ns3:cad>
          </ns3:TrackPointExtension>
        </extensions>
      </trkpt>
      <trkpt lat="44.6992239542305469512939453125" lon="6.761643402278423309326171875">
        <ele>1831.800048828125</ele>
        <time>2026-09-03T07:07:39.000Z</time>
        <extensions>
          <ns3:TrackPointExtension>
            <ns3:hr>174</ns3:hr>
            <ns3:cad>0</ns3:cad>
          </ns3:TrackPointExtension>
        </extensions>
      </trkpt>
      <trkpt lat="44.69921884126961231231689453125" lon="6.76165304146707057952880859375">
        <ele>1832.199951171875</ele>
        <time>2026-09-03T07:07:40.000Z</time>
        <extensions>
          <ns3:TrackPointExtension>
            <ns3:hr>173</ns3:hr>
            <ns3:cad>0</ns3:cad>
          </ns3:TrackPointExtension>
        </extensions>
      </trkpt>
      <trkpt lat="44.69921012409031391143798828125" lon="6.76167047582566738128662109375">
        <ele>1832.199951171875</ele>
        <time>2026-09-03T07:07:41.000Z</time>
        <extensions>
          <ns3:TrackPointExtension>
            <ns3:hr>173</ns3:hr>
            <ns3:cad>0</ns3:cad>
          </ns3:TrackPointExtension>
        </extensions>
      </trkpt>
      <trkpt lat="44.69920660369098186492919921875" lon="6.76168019883334636688232421875">
        <ele>1832.4000244140625</ele>
        <time>2026-09-03T07:07:42.000Z</time>
        <extensions>
          <ns3:TrackPointExtension>
            <ns3:hr>172</ns3:hr>
            <ns3:cad>0</ns3:cad>
          </ns3:TrackPointExtension>
        </extensions>
      </trkpt>
      <trkpt lat="44.69920056872069835662841796875" lon="6.7616992257535457611083984375">
        <ele>1832.5999755859375</ele>
        <time>2026-09-03T07:07:43.000Z</time>
        <extensions>
          <ns3:TrackPointExtension>
            <ns3:hr>171</ns3:hr>
            <ns3:cad>0</ns3:cad>
          </ns3:TrackPointExtension>
        </extensions>
      </trkpt>
      <trkpt lat="44.699193276464939117431640625" lon="6.761713139712810516357421875">
        <ele>1832.5999755859375</ele>
        <time>2026-09-03T07:07:44.000Z</time>
        <extensions>
          <ns3:TrackPointExtension>
            <ns3:hr>171</ns3:hr>
            <ns3:cad>53</ns3:cad>
          </ns3:TrackPointExtension>
        </extensions>
      </trkpt>
      <trkpt lat="44.6991860680282115936279296875" lon="6.76172755658626556396484375">
        <ele>1832.800048828125</ele>
        <time>2026-09-03T07:07:45.000Z</time>
        <extensions>
          <ns3:TrackPointExtension>
            <ns3:hr>170</ns3:hr>
            <ns3:cad>53</ns3:cad>
          </ns3:TrackPointExtension>
        </extensions>
      </trkpt>
      <trkpt lat="44.69918011687695980072021484375" lon="6.76173903979361057281494140625">
        <ele>1833</ele>
        <time>2026-09-03T07:07:46.000Z</time>
        <extensions>
          <ns3:TrackPointExtension>
            <ns3:hr>170</ns3:hr>
            <ns3:cad>53</ns3:cad>
          </ns3:TrackPointExtension>
        </extensions>
      </trkpt>
      <trkpt lat="44.699173159897327423095703125" lon="6.761754713952541351318359375">
        <ele>1833</ele>
        <time>2026-09-03T07:07:47.000Z</time>
        <extensions>
          <ns3:TrackPointExtension>
            <ns3:hr>170</ns3:hr>
            <ns3:cad>53</ns3:cad>
          </ns3:TrackPointExtension>
        </extensions>
      </trkpt>
      <trkpt lat="44.699169136583805084228515625" lon="6.76176887936890125274658203125">
        <ele>1833</ele>
        <time>2026-09-03T07:07:48.000Z</time>
        <extensions>
          <ns3:TrackPointExtension>
            <ns3:hr>170</ns3:hr>
            <ns3:cad>53</ns3:cad>
          </ns3:TrackPointExtension>
        </extensions>
      </trkpt>
      <trkpt lat="44.6991646103560924530029296875" lon="6.76179218105971813201904296875">
        <ele>1833</ele>
        <time>2026-09-03T07:07:49.000Z</time>
        <extensions>
          <ns3:TrackPointExtension>
            <ns3:hr>169</ns3:hr>
            <ns3:cad>0</ns3:cad>
          </ns3:TrackPointExtension>
        </extensions>
      </trkpt>
      <trkpt lat="44.699160754680633544921875" lon="6.76181212998926639556884765625">
        <ele>1833</ele>
        <time>2026-09-03T07:07:50.000Z</time>
        <extensions>
          <ns3:TrackPointExtension>
            <ns3:hr>168</ns3:hr>
            <ns3:cad>0</ns3:cad>
          </ns3:TrackPointExtension>
        </extensions>
      </trkpt>
      <trkpt lat="44.69915614463388919830322265625" lon="6.761831156909465789794921875">
        <ele>1832.800048828125</ele>
        <time>2026-09-03T07:07:51.000Z</time>
        <extensions>
          <ns3:TrackPointExtension>
            <ns3:hr>167</ns3:hr>
            <ns3:cad>0</ns3:cad>
          </ns3:TrackPointExtension>
        </extensions>
      </trkpt>
      <trkpt lat="44.6991565637290477752685546875" lon="6.761851273477077484130859375">
        <ele>1832.800048828125</ele>
        <time>2026-09-03T07:07:52.000Z</time>
        <extensions>
          <ns3:TrackPointExtension>
            <ns3:hr>165</ns3:hr>
            <ns3:cad>0</ns3:cad>
          </ns3:TrackPointExtension>
        </extensions>
      </trkpt>
      <trkpt lat="44.69915564171969890594482421875" lon="6.76187348552048206329345703125">
        <ele>1832.5999755859375</ele>
        <time>2026-09-03T07:07:53.000Z</time>
        <extensions>
          <ns3:TrackPointExtension>
            <ns3:hr>164</ns3:hr>
            <ns3:cad>0</ns3:cad>
          </ns3:TrackPointExtension>
        </extensions>
      </trkpt>
      <trkpt lat="44.69915614463388919830322265625" lon="6.7618946917355060577392578125">
        <ele>1832.5999755859375</ele>
        <time>2026-09-03T07:07:54.000Z</time>
        <extensions>
          <ns3:TrackPointExtension>
            <ns3:hr>164</ns3:hr>
            <ns3:cad>0</ns3:cad>
          </ns3:TrackPointExtension>
        </extensions>
      </trkpt>
      <trkpt lat="44.69915614463388919830322265625" lon="6.7619164846837520599365234375">
        <ele>1832.5999755859375</ele>
        <time>2026-09-03T07:07:55.000Z</time>
        <extensions>
          <ns3:TrackPointExtension>
            <ns3:hr>163</ns3:hr>
            <ns3:cad>0</ns3:cad>
          </ns3:TrackPointExtension>
        </extensions>
      </trkpt>
      <trkpt lat="44.6991575695574283599853515625" lon="6.76193702034652233123779296875">
        <ele>1832.5999755859375</ele>
        <time>2026-09-03T07:07:56.000Z</time>
        <extensions>
          <ns3:TrackPointExtension>
            <ns3:hr>163</ns3:hr>
            <ns3:cad>0</ns3:cad>
          </ns3:TrackPointExtension>
        </extensions>
      </trkpt>
      <trkpt lat="44.6991558931767940521240234375" lon="6.76195797510445117950439453125">
        <ele>1832.5999755859375</ele>
        <time>2026-09-03T07:07:57.000Z</time>
        <extensions>
          <ns3:TrackPointExtension>
            <ns3:hr>163</ns3:hr>
            <ns3:cad>0</ns3:cad>
          </ns3:TrackPointExtension>
        </extensions>
      </trkpt>
      <trkpt lat="44.6991620957851409912109375" lon="6.76198580302298069000244140625">
        <ele>1832.5999755859375</ele>
        <time>2026-09-03T07:07:58.000Z</time>
        <extensions>
          <ns3:TrackPointExtension>
            <ns3:hr>163</ns3:hr>
            <ns3:cad>0</ns3:cad>
          </ns3:TrackPointExtension>
        </extensions>
      </trkpt>
      <trkpt lat="44.69916419126093387603759765625" lon="6.7620056681334972381591796875">
        <ele>1832.5999755859375</ele>
        <time>2026-09-03T07:07:59.000Z</time>
        <extensions>
          <ns3:TrackPointExtension>
            <ns3:hr>162</ns3:hr>
            <ns3:cad>0</ns3:cad>
          </ns3:TrackPointExtension>
        </extensions>
      </trkpt>
      <trkpt lat="44.69916754402220249176025390625" lon="6.7620326578617095947265625">
        <ele>1832.5999755859375</ele>
        <time>2026-09-03T07:08:00.000Z</time>
        <extensions>
          <ns3:TrackPointExtension>
            <ns3:hr>162</ns3:hr>
            <ns3:cad>0</ns3:cad>
          </ns3:TrackPointExtension>
        </extensions>
      </trkpt>
      <trkpt lat="44.69916821457445621490478515625" lon="6.76205352880060672760009765625">
        <ele>1832.5999755859375</ele>
        <time>2026-09-03T07:08:01.000Z</time>
        <extensions>
          <ns3:TrackPointExtension>
            <ns3:hr>161</ns3:hr>
            <ns3:cad>0</ns3:cad>
          </ns3:TrackPointExtension>
        </extensions>
      </trkpt>
      <trkpt lat="44.69916553236544132232666015625" lon="6.7620804347097873687744140625">
        <ele>1832.5999755859375</ele>
        <time>2026-09-03T07:08:02.000Z</time>
        <extensions>
          <ns3:TrackPointExtension>
            <ns3:hr>161</ns3:hr>
            <ns3:cad>16</ns3:cad>
          </ns3:TrackPointExtension>
        </extensions>
      </trkpt>
      <trkpt lat="44.6991636045277118682861328125" lon="6.76209770143032073974609375">
        <ele>1832.5999755859375</ele>
        <time>2026-09-03T07:08:03.000Z</time>
        <extensions>
          <ns3:TrackPointExtension>
            <ns3:hr>160</ns3:hr>
            <ns3:cad>16</ns3:cad>
          </ns3:TrackPointExtension>
        </extensions>
      </trkpt>
      <trkpt lat="44.69916033558547496795654296875" lon="6.76211857236921787261962890625">
        <ele>1832.800048828125</ele>
        <time>2026-09-03T07:08:04.000Z</time>
        <extensions>
          <ns3:TrackPointExtension>
            <ns3:hr>158</ns3:hr>
            <ns3:cad>16</ns3:cad>
          </ns3:TrackPointExtension>
        </extensions>
      </trkpt>
      <trkpt lat="44.6991575695574283599853515625" lon="6.76213550381362438201904296875">
        <ele>1832.800048828125</ele>
        <time>2026-09-03T07:08:05.000Z</time>
        <extensions>
          <ns3:TrackPointExtension>
            <ns3:hr>157</ns3:hr>
            <ns3:cad>16</ns3:cad>
          </ns3:TrackPointExtension>
        </extensions>
      </trkpt>
      <trkpt lat="44.699151031672954559326171875" lon="6.76215511746704578399658203125">
        <ele>1832.800048828125</ele>
        <time>2026-09-03T07:08:06.000Z</time>
        <extensions>
          <ns3:TrackPointExtension>
            <ns3:hr>157</ns3:hr>
            <ns3:cad>15</ns3:cad>
          </ns3:TrackPointExtension>
        </extensions>
      </trkpt>
      <trkpt lat="44.69915061257779598236083984375" lon="6.762175820767879486083984375">
        <ele>1833</ele>
        <time>2026-09-03T07:08:07.000Z</time>
        <extensions>
          <ns3:TrackPointExtension>
            <ns3:hr>157</ns3:hr>
            <ns3:cad>15</ns3:cad>
          </ns3:TrackPointExtension>
        </extensions>
      </trkpt>
      <trkpt lat="44.6991486847400665283203125" lon="6.76220021210610866546630859375">
        <ele>1833</ele>
        <time>2026-09-03T07:08:08.000Z</time>
        <extensions>
          <ns3:TrackPointExtension>
            <ns3:hr>156</ns3:hr>
            <ns3:cad>15</ns3:cad>
          </ns3:TrackPointExtension>
        </extensions>
      </trkpt>
      <trkpt lat="44.69914893619716167449951171875" lon="6.76221714355051517486572265625">
        <ele>1833.199951171875</ele>
        <time>2026-09-03T07:08:09.000Z</time>
        <extensions>
          <ns3:TrackPointExtension>
            <ns3:hr>156</ns3:hr>
            <ns3:cad>16</ns3:cad>
          </ns3:TrackPointExtension>
        </extensions>
      </trkpt>
      <trkpt lat="44.6991461701691150665283203125" lon="6.76223474554717540740966796875">
        <ele>1833.4000244140625</ele>
        <time>2026-09-03T07:08:10.000Z</time>
        <extensions>
          <ns3:TrackPointExtension>
            <ns3:hr>155</ns3:hr>
            <ns3:cad>16</ns3:cad>
          </ns3:TrackPointExtension>
        </extensions>
      </trkpt>
      <trkpt lat="44.69914440996944904327392578125" lon="6.76224631257355213165283203125">
        <ele>1833.5999755859375</ele>
        <time>2026-09-03T07:08:11.000Z</time>
        <extensions>
          <ns3:TrackPointExtension>
            <ns3:hr>154</ns3:hr>
            <ns3:cad>15</ns3:cad>
          </ns3:TrackPointExtension>
        </extensions>
      </trkpt>
      <trkpt lat="44.69913736917078495025634765625" lon="6.76226265728473663330078125">
        <ele>1833.5999755859375</ele>
        <time>2026-09-03T07:08:12.000Z</time>
        <extensions>
          <ns3:TrackPointExtension>
            <ns3:hr>154</ns3:hr>
            <ns3:cad>15</ns3:cad>
          </ns3:TrackPointExtension>
        </extensions>
      </trkpt>
      <trkpt lat="44.69913200475275516510009765625" lon="6.76227062009274959564208984375">
        <ele>1833.800048828125</ele>
        <time>2026-09-03T07:08:13.000Z</time>
        <extensions>
          <ns3:TrackPointExtension>
            <ns3:hr>153</ns3:hr>
            <ns3:cad>15</ns3:cad>
          </ns3:TrackPointExtension>
        </extensions>
      </trkpt>
      <trkpt lat="44.6991247124969959259033203125" lon="6.76228872500360012054443359375">
        <ele>1834.199951171875</ele>
        <time>2026-09-03T07:08:14.000Z</time>
        <extensions>
          <ns3:TrackPointExtension>
            <ns3:hr>153</ns3:hr>
            <ns3:cad>15</ns3:cad>
          </ns3:TrackPointExtension>
        </extensions>
      </trkpt>
      <trkpt lat="44.69912119209766387939453125" lon="6.76229710690677165985107421875">
        <ele>1834.199951171875</ele>
        <time>2026-09-03T07:08:15.000Z</time>
        <extensions>
          <ns3:TrackPointExtension>
            <ns3:hr>152</ns3:hr>
            <ns3:cad>15</ns3:cad>
          </ns3:TrackPointExtension>
        </extensions>
      </trkpt>
      <trkpt lat="44.699116162955760955810546875" lon="6.76231537945568561553955078125">
        <ele>1834.4000244140625</ele>
        <time>2026-09-03T07:08:16.000Z</time>
        <extensions>
          <ns3:TrackPointExtension>
            <ns3:hr>152</ns3:hr>
            <ns3:cad>15</ns3:cad>
          </ns3:TrackPointExtension>
        </extensions>
      </trkpt>
      <trkpt lat="44.69911180436611175537109375" lon="6.76232443191111087799072265625">
        <ele>1834.5999755859375</ele>
        <time>2026-09-03T07:08:17.000Z</time>
        <extensions>
          <ns3:TrackPointExtension>
            <ns3:hr>152</ns3:hr>
            <ns3:cad>15</ns3:cad>
          </ns3:TrackPointExtension>
        </extensions>
      </trkpt>
      <trkpt lat="44.6990995667874813079833984375" lon="6.7623473145067691802978515625">
        <ele>1834.800048828125</ele>
        <time>2026-09-03T07:08:18.000Z</time>
        <extensions>
          <ns3:TrackPointExtension>
            <ns3:hr>151</ns3:hr>
            <ns3:cad>15</ns3:cad>
          </ns3:TrackPointExtension>
        </extensions>
      </trkpt>
      <trkpt lat="44.6990938670933246612548828125" lon="6.76235661841928958892822265625">
        <ele>1834.800048828125</ele>
        <time>2026-09-03T07:08:19.000Z</time>
        <extensions>
          <ns3:TrackPointExtension>
            <ns3:hr>151</ns3:hr>
            <ns3:cad>15</ns3:cad>
          </ns3:TrackPointExtension>
        </extensions>
      </trkpt>
      <trkpt lat="44.69907970167696475982666015625" lon="6.762373633682727813720703125">
        <ele>1835</ele>
        <time>2026-09-03T07:08:20.000Z</time>
        <extensions>
          <ns3:TrackPointExtension>
            <ns3:hr>151</ns3:hr>
            <ns3:cad>15</ns3:cad>
          </ns3:TrackPointExtension>
        </extensions>
      </trkpt>
      <trkpt lat="44.6990690566599369049072265625" lon="6.7623831890523433685302734375">
        <ele>1835</ele>
        <time>2026-09-03T07:08:21.000Z</time>
        <extensions>
          <ns3:TrackPointExtension>
            <ns3:hr>151</ns3:hr>
            <ns3:cad>15</ns3:cad>
          </ns3:TrackPointExtension>
        </extensions>
      </trkpt>
      <trkpt lat="44.69905036501586437225341796875" lon="6.762399785220623016357421875">
        <ele>1835.199951171875</ele>
        <time>2026-09-03T07:08:22.000Z</time>
        <extensions>
          <ns3:TrackPointExtension>
            <ns3:hr>151</ns3:hr>
            <ns3:cad>15</ns3:cad>
          </ns3:TrackPointExtension>
        </extensions>
      </trkpt>
      <trkpt lat="44.69903879798948764801025390625" lon="6.76240657456219196319580078125">
        <ele>1835.199951171875</ele>
        <time>2026-09-03T07:08:23.000Z</time>
        <extensions>
          <ns3:TrackPointExtension>
            <ns3:hr>150</ns3:hr>
            <ns3:cad>15</ns3:cad>
          </ns3:TrackPointExtension>
        </extensions>
      </trkpt>
      <trkpt lat="44.6990214474499225616455078125" lon="6.7624197341501712799072265625">
        <ele>1835.199951171875</ele>
        <time>2026-09-03T07:08:24.000Z</time>
        <extensions>
          <ns3:TrackPointExtension>
            <ns3:hr>150</ns3:hr>
            <ns3:cad>0</ns3:cad>
          </ns3:TrackPointExtension>
        </extensions>
      </trkpt>
      <trkpt lat="44.6990097127854824066162109375" lon="6.76242669112980365753173828125">
        <ele>1835.4000244140625</ele>
        <time>2026-09-03T07:08:25.000Z</time>
        <extensions>
          <ns3:TrackPointExtension>
            <ns3:hr>149</ns3:hr>
            <ns3:cad>0</ns3:cad>
          </ns3:TrackPointExtension>
        </extensions>
      </trkpt>
      <trkpt lat="44.69899990595877170562744140625" lon="6.76243423484265804290771484375">
        <ele>1835.4000244140625</ele>
        <time>2026-09-03T07:08:26.000Z</time>
        <extensions>
          <ns3:TrackPointExtension>
            <ns3:hr>149</ns3:hr>
            <ns3:cad>0</ns3:cad>
          </ns3:TrackPointExtension>
        </extensions>
      </trkpt>
      <trkpt lat="44.698991440236568450927734375" lon="6.76244228146970272064208984375">
        <ele>1835.4000244140625</ele>
        <time>2026-09-03T07:08:27.000Z</time>
        <extensions>
          <ns3:TrackPointExtension>
            <ns3:hr>148</ns3:hr>
            <ns3:cad>0</ns3:cad>
          </ns3:TrackPointExtension>
        </extensions>
      </trkpt>
      <trkpt lat="44.69898347742855548858642578125" lon="6.7624489031732082366943359375">
        <ele>1835.5999755859375</ele>
        <time>2026-09-03T07:08:28.000Z</time>
        <extensions>
          <ns3:TrackPointExtension>
            <ns3:hr>147</ns3:hr>
            <ns3:cad>57</ns3:cad>
          </ns3:TrackPointExtension>
        </extensions>
      </trkpt>
      <trkpt lat="44.69897593371570110321044921875" lon="6.76245619542896747589111328125">
        <ele>1835.5999755859375</ele>
        <time>2026-09-03T07:08:29.000Z</time>
        <extensions>
          <ns3:TrackPointExtension>
            <ns3:hr>146</ns3:hr>
            <ns3:cad>57</ns3:cad>
          </ns3:TrackPointExtension>
        </extensions>
      </trkpt>
      <trkpt lat="44.6989674679934978485107421875" lon="6.76246650516986846923828125">
        <ele>1835.800048828125</ele>
        <time>2026-09-03T07:08:30.000Z</time>
        <extensions>
          <ns3:TrackPointExtension>
            <ns3:hr>146</ns3:hr>
            <ns3:cad>57</ns3:cad>
          </ns3:TrackPointExtension>
        </extensions>
      </trkpt>
      <trkpt lat="44.69896294176578521728515625" lon="6.7624807544052600860595703125">
        <ele>1836</ele>
        <time>2026-09-03T07:08:31.000Z</time>
        <extensions>
          <ns3:TrackPointExtension>
            <ns3:hr>146</ns3:hr>
            <ns3:cad>57</ns3:cad>
          </ns3:TrackPointExtension>
        </extensions>
      </trkpt>
      <trkpt lat="44.6989560686051845550537109375" lon="6.76249198615550994873046875">
        <ele>1836.199951171875</ele>
        <time>2026-09-03T07:08:32.000Z</time>
        <extensions>
          <ns3:TrackPointExtension>
            <ns3:hr>146</ns3:hr>
            <ns3:cad>57</ns3:cad>
          </ns3:TrackPointExtension>
        </extensions>
      </trkpt>
      <trkpt lat="44.69895246438682079315185546875" lon="6.762498356401920318603515625">
        <ele>1836.5999755859375</ele>
        <time>2026-09-03T07:08:33.000Z</time>
        <extensions>
          <ns3:TrackPointExtension>
            <ns3:hr>146</ns3:hr>
            <ns3:cad>57</ns3:cad>
          </ns3:TrackPointExtension>
        </extensions>
      </trkpt>
      <trkpt lat="44.6989433281123638153076171875" lon="6.76250782795250415802001953125">
        <ele>1836.800048828125</ele>
        <time>2026-09-03T07:08:34.000Z</time>
        <extensions>
          <ns3:TrackPointExtension>
            <ns3:hr>146</ns3:hr>
            <ns3:cad>57</ns3:cad>
          </ns3:TrackPointExtension>
        </extensions>
      </trkpt>
      <trkpt lat="44.6989342756569385528564453125" lon="6.762507744133472442626953125">
        <ele>1837</ele>
        <time>2026-09-03T07:08:35.000Z</time>
        <extensions>
          <ns3:TrackPointExtension>
            <ns3:hr>146</ns3:hr>
            <ns3:cad>57</ns3:cad>
          </ns3:TrackPointExtension>
        </extensions>
      </trkpt>
      <trkpt lat="44.69892245717346668243408203125" lon="6.7625095881521701812744140625">
        <ele>1837.199951171875</ele>
        <time>2026-09-03T07:08:36.000Z</time>
        <extensions>
          <ns3:TrackPointExtension>
            <ns3:hr>146</ns3:hr>
            <ns3:cad>57</ns3:cad>
          </ns3:TrackPointExtension>
        </extensions>
      </trkpt>
      <trkpt lat="44.69891089014708995819091796875" lon="6.762513779103755950927734375">
        <ele>1837.199951171875</ele>
        <time>2026-09-03T07:08:37.000Z</time>
        <extensions>
          <ns3:TrackPointExtension>
            <ns3:hr>147</ns3:hr>
            <ns3:cad>57</ns3:cad>
          </ns3:TrackPointExtension>
        </extensions>
      </trkpt>
      <trkpt lat="44.69889714382588863372802734375" lon="6.7625159583985805511474609375">
        <ele>1837.4000244140625</ele>
        <time>2026-09-03T07:08:38.000Z</time>
        <extensions>
          <ns3:TrackPointExtension>
            <ns3:hr>147</ns3:hr>
            <ns3:cad>57</ns3:cad>
          </ns3:TrackPointExtension>
        </extensions>
      </trkpt>
      <trkpt lat="44.69888473860919475555419921875" lon="6.76251755096018314361572265625">
        <ele>1837.5999755859375</ele>
        <time>2026-09-03T07:08:39.000Z</time>
        <extensions>
          <ns3:TrackPointExtension>
            <ns3:hr>148</ns3:hr>
            <ns3:cad>57</ns3:cad>
          </ns3:TrackPointExtension>
        </extensions>
      </trkpt>
      <trkpt lat="44.69887174665927886962890625" lon="6.7625169642269611358642578125">
        <ele>1837.800048828125</ele>
        <time>2026-09-03T07:08:40.000Z</time>
        <extensions>
          <ns3:TrackPointExtension>
            <ns3:hr>148</ns3:hr>
            <ns3:cad>57</ns3:cad>
          </ns3:TrackPointExtension>
        </extensions>
      </trkpt>
      <trkpt lat="44.69886160455644130706787109375" lon="6.7625189758837223052978515625">
        <ele>1837.800048828125</ele>
        <time>2026-09-03T07:08:41.000Z</time>
        <extensions>
          <ns3:TrackPointExtension>
            <ns3:hr>149</ns3:hr>
            <ns3:cad>57</ns3:cad>
          </ns3:TrackPointExtension>
        </extensions>
      </trkpt>
      <trkpt lat="44.69884894788265228271484375" lon="6.76251889206469058990478515625">
        <ele>1838</ele>
        <time>2026-09-03T07:08:42.000Z</time>
        <extensions>
          <ns3:TrackPointExtension>
            <ns3:hr>149</ns3:hr>
            <ns3:cad>57</ns3:cad>
          </ns3:TrackPointExtension>
        </extensions>
      </trkpt>
      <trkpt lat="44.6988346986472606658935546875" lon="6.762519814074039459228515625">
        <ele>1838.199951171875</ele>
        <time>2026-09-03T07:08:43.000Z</time>
        <extensions>
          <ns3:TrackPointExtension>
            <ns3:hr>149</ns3:hr>
            <ns3:cad>57</ns3:cad>
          </ns3:TrackPointExtension>
        </extensions>
      </trkpt>
      <trkpt lat="44.6988186053931713104248046875" lon="6.76252040080726146697998046875">
        <ele>1838.4000244140625</ele>
        <time>2026-09-03T07:08:44.000Z</time>
        <extensions>
          <ns3:TrackPointExtension>
            <ns3:hr>149</ns3:hr>
            <ns3:cad>57</ns3:cad>
          </ns3:TrackPointExtension>
        </extensions>
      </trkpt>
      <trkpt lat="44.6988053619861602783203125" lon="6.76252375356853008270263671875">
        <ele>1838.5999755859375</ele>
        <time>2026-09-03T07:08:45.000Z</time>
        <extensions>
          <ns3:TrackPointExtension>
            <ns3:hr>149</ns3:hr>
            <ns3:cad>57</ns3:cad>
          </ns3:TrackPointExtension>
        </extensions>
      </trkpt>
      <trkpt lat="44.69879153184592723846435546875" lon="6.7625270225107669830322265625">
        <ele>1838.800048828125</ele>
        <time>2026-09-03T07:08:46.000Z</time>
        <extensions>
          <ns3:TrackPointExtension>
            <ns3:hr>150</ns3:hr>
            <ns3:cad>0</ns3:cad>
          </ns3:TrackPointExtension>
        </extensions>
      </trkpt>
      <trkpt lat="44.69878147356212139129638671875" lon="6.76253532059490680694580078125">
        <ele>1839</ele>
        <time>2026-09-03T07:08:47.000Z</time>
        <extensions>
          <ns3:TrackPointExtension>
            <ns3:hr>150</ns3:hr>
            <ns3:cad>0</ns3:cad>
          </ns3:TrackPointExtension>
        </extensions>
      </trkpt>
      <trkpt lat="44.69877057708799839019775390625" lon="6.76253682933747768402099609375">
        <ele>1839.199951171875</ele>
        <time>2026-09-03T07:08:48.000Z</time>
        <extensions>
          <ns3:TrackPointExtension>
            <ns3:hr>150</ns3:hr>
            <ns3:cad>0</ns3:cad>
          </ns3:TrackPointExtension>
        </extensions>
      </trkpt>
      <trkpt lat="44.6987582556903362274169921875" lon="6.76254336722195148468017578125">
        <ele>1839.4000244140625</ele>
        <time>2026-09-03T07:08:49.000Z</time>
        <extensions>
          <ns3:TrackPointExtension>
            <ns3:hr>150</ns3:hr>
            <ns3:cad>0</ns3:cad>
          </ns3:TrackPointExtension>
        </extensions>
      </trkpt>
      <trkpt lat="44.69875280745327472686767578125" lon="6.7625463008880615234375">
        <ele>1839.5999755859375</ele>
        <time>2026-09-03T07:08:50.000Z</time>
        <extensions>
          <ns3:TrackPointExtension>
            <ns3:hr>150</ns3:hr>
            <ns3:cad>0</ns3:cad>
          </ns3:TrackPointExtension>
        </extensions>
      </trkpt>
      <trkpt lat="44.69874392263591289520263671875" lon="6.76255309022963047027587890625">
        <ele>1839.800048828125</ele>
        <time>2026-09-03T07:08:51.000Z</time>
        <extensions>
          <ns3:TrackPointExtension>
            <ns3:hr>150</ns3:hr>
            <ns3:cad>0</ns3:cad>
          </ns3:TrackPointExtension>
        </extensions>
      </trkpt>
      <trkpt lat="44.69873495399951934814453125" lon="6.76255878992378711700439453125">
        <ele>1840</ele>
        <time>2026-09-03T07:08:52.000Z</time>
        <extensions>
          <ns3:TrackPointExtension>
            <ns3:hr>149</ns3:hr>
            <ns3:cad>0</ns3:cad>
          </ns3:TrackPointExtension>
        </extensions>
      </trkpt>
      <trkpt lat="44.698725230991840362548828125" lon="6.76256298087537288665771484375">
        <ele>1840.4000244140625</ele>
        <time>2026-09-03T07:08:53.000Z</time>
        <extensions>
          <ns3:TrackPointExtension>
            <ns3:hr>149</ns3:hr>
            <ns3:cad>0</ns3:cad>
          </ns3:TrackPointExtension>
        </extensions>
      </trkpt>
      <trkpt lat="44.6987235546112060546875" lon="6.76256717182695865631103515625">
        <ele>1840.5999755859375</ele>
        <time>2026-09-03T07:08:54.000Z</time>
        <extensions>
          <ns3:TrackPointExtension>
            <ns3:hr>147</ns3:hr>
            <ns3:cad>0</ns3:cad>
          </ns3:TrackPointExtension>
        </extensions>
      </trkpt>
      <trkpt lat="44.69871274195611476898193359375" lon="6.7625717818737030029296875">
        <ele>1840.800048828125</ele>
        <time>2026-09-03T07:08:55.000Z</time>
        <extensions>
          <ns3:TrackPointExtension>
            <ns3:hr>146</ns3:hr>
            <ns3:cad>0</ns3:cad>
          </ns3:TrackPointExtension>
        </extensions>
      </trkpt>
      <trkpt lat="44.698705114424228668212890625" lon="6.7625756375491619110107421875">
        <ele>1841</ele>
        <time>2026-09-03T07:08:56.000Z</time>
        <extensions>
          <ns3:TrackPointExtension>
            <ns3:hr>146</ns3:hr>
            <ns3:cad>0</ns3:cad>
          </ns3:TrackPointExtension>
        </extensions>
      </trkpt>
      <trkpt lat="44.6986972354352474212646484375" lon="6.76258242689073085784912109375">
        <ele>1841.199951171875</ele>
        <time>2026-09-03T07:08:57.000Z</time>
        <extensions>
          <ns3:TrackPointExtension>
            <ns3:hr>146</ns3:hr>
            <ns3:cad>0</ns3:cad>
          </ns3:TrackPointExtension>
        </extensions>
      </trkpt>
      <trkpt lat="44.69868667423725128173828125" lon="6.7625892162322998046875">
        <ele>1841.199951171875</ele>
        <time>2026-09-03T07:08:58.000Z</time>
        <extensions>
          <ns3:TrackPointExtension>
            <ns3:hr>146</ns3:hr>
            <ns3:cad>0</ns3:cad>
          </ns3:TrackPointExtension>
        </extensions>
      </trkpt>
      <trkpt lat="44.69868206419050693511962890625" lon="6.7625920660793781280517578125">
        <ele>1841.4000244140625</ele>
        <time>2026-09-03T07:08:59.000Z</time>
        <extensions>
          <ns3:TrackPointExtension>
            <ns3:hr>146</ns3:hr>
            <ns3:cad>0</ns3:cad>
          </ns3:TrackPointExtension>
        </extensions>
      </trkpt>
      <trkpt lat="44.69867250882089138031005859375" lon="6.7626048065721988677978515625">
        <ele>1841.5999755859375</ele>
        <time>2026-09-03T07:09:00.000Z</time>
        <extensions>
          <ns3:TrackPointExtension>
            <ns3:hr>145</ns3:hr>
            <ns3:cad>0</ns3:cad>
          </ns3:TrackPointExtension>
        </extensions>
      </trkpt>
      <trkpt lat="44.69866530038416385650634765625" lon="6.7626120150089263916015625">
        <ele>1841.800048828125</ele>
        <time>2026-09-03T07:09:01.000Z</time>
        <extensions>
          <ns3:TrackPointExtension>
            <ns3:hr>145</ns3:hr>
            <ns3:cad>0</ns3:cad>
          </ns3:TrackPointExtension>
        </extensions>
      </trkpt>
      <trkpt lat="44.6986506320536136627197265625" lon="6.76262299530208110809326171875">
        <ele>1842</ele>
        <time>2026-09-03T07:09:02.000Z</time>
        <extensions>
          <ns3:TrackPointExtension>
            <ns3:hr>145</ns3:hr>
            <ns3:cad>0</ns3:cad>
          </ns3:TrackPointExtension>
        </extensions>
      </trkpt>
      <trkpt lat="44.69864166341722011566162109375" lon="6.76263305358588695526123046875">
        <ele>1842.199951171875</ele>
        <time>2026-09-03T07:09:03.000Z</time>
        <extensions>
          <ns3:TrackPointExtension>
            <ns3:hr>145</ns3:hr>
            <ns3:cad>0</ns3:cad>
          </ns3:TrackPointExtension>
        </extensions>
      </trkpt>
      <trkpt lat="44.6986261568963527679443359375" lon="6.7626415193080902099609375">
        <ele>1842.4000244140625</ele>
        <time>2026-09-03T07:09:04.000Z</time>
        <extensions>
          <ns3:TrackPointExtension>
            <ns3:hr>145</ns3:hr>
            <ns3:cad>0</ns3:cad>
          </ns3:TrackPointExtension>
        </extensions>
      </trkpt>
      <trkpt lat="44.69861886464059352874755859375" lon="6.76265032030642032623291015625">
        <ele>1842.5999755859375</ele>
        <time>2026-09-03T07:09:05.000Z</time>
        <extensions>
          <ns3:TrackPointExtension>
            <ns3:hr>145</ns3:hr>
            <ns3:cad>0</ns3:cad>
          </ns3:TrackPointExtension>
        </extensions>
      </trkpt>
      <trkpt lat="44.6986122429370880126953125" lon="6.76265769638121128082275390625">
        <ele>1842.800048828125</ele>
        <time>2026-09-03T07:09:06.000Z</time>
        <extensions>
          <ns3:TrackPointExtension>
            <ns3:hr>145</ns3:hr>
            <ns3:cad>0</ns3:cad>
          </ns3:TrackPointExtension>
        </extensions>
      </trkpt>
      <trkpt lat="44.6986077167093753814697265625" lon="6.76266674883663654327392578125">
        <ele>1843</ele>
        <time>2026-09-03T07:09:07.000Z</time>
        <extensions>
          <ns3:TrackPointExtension>
            <ns3:hr>145</ns3:hr>
            <ns3:cad>0</ns3:cad>
          </ns3:TrackPointExtension>
        </extensions>
      </trkpt>
      <trkpt lat="44.698604531586170196533203125" lon="6.76267303526401519775390625">
        <ele>1843.199951171875</ele>
        <time>2026-09-03T07:09:08.000Z</time>
        <extensions>
          <ns3:TrackPointExtension>
            <ns3:hr>145</ns3:hr>
            <ns3:cad>0</ns3:cad>
          </ns3:TrackPointExtension>
        </extensions>
      </trkpt>
      <trkpt lat="44.69859774224460124969482421875" lon="6.7626844346523284912109375">
        <ele>1843.4000244140625</ele>
        <time>2026-09-03T07:09:09.000Z</time>
        <extensions>
          <ns3:TrackPointExtension>
            <ns3:hr>145</ns3:hr>
            <ns3:cad>0</ns3:cad>
          </ns3:TrackPointExtension>
        </extensions>
      </trkpt>
      <trkpt lat="44.69859120436012744903564453125" lon="6.7626949958503246307373046875">
        <ele>1843.5999755859375</ele>
        <time>2026-09-03T07:09:10.000Z</time>
        <extensions>
          <ns3:TrackPointExtension>
            <ns3:hr>145</ns3:hr>
            <ns3:cad>0</ns3:cad>
          </ns3:TrackPointExtension>
        </extensions>
      </trkpt>
      <trkpt lat="44.6985808946192264556884765625" lon="6.762711592018604278564453125">
        <ele>1843.800048828125</ele>
        <time>2026-09-03T07:09:11.000Z</time>
        <extensions>
          <ns3:TrackPointExtension>
            <ns3:hr>146</ns3:hr>
            <ns3:cad>0</ns3:cad>
          </ns3:TrackPointExtension>
        </extensions>
      </trkpt>
      <trkpt lat="44.69857670366764068603515625" lon="6.76271620206534862518310546875">
        <ele>1844</ele>
        <time>2026-09-03T07:09:12.000Z</time>
        <extensions>
          <ns3:TrackPointExtension>
            <ns3:hr>146</ns3:hr>
            <ns3:cad>0</ns3:cad>
          </ns3:TrackPointExtension>
        </extensions>
      </trkpt>
      <trkpt lat="44.69857695512473583221435546875" lon="6.7627167887985706329345703125">
        <ele>1844.199951171875</ele>
        <time>2026-09-03T07:09:13.000Z</time>
        <extensions>
          <ns3:TrackPointExtension>
            <ns3:hr>147</ns3:hr>
            <ns3:cad>0</ns3:cad>
          </ns3:TrackPointExtension>
        </extensions>
      </trkpt>
      <trkpt lat="44.69857276417315006256103515625" lon="6.76273070275783538818359375">
        <ele>1844.4000244140625</ele>
        <time>2026-09-03T07:09:14.000Z</time>
        <extensions>
          <ns3:TrackPointExtension>
            <ns3:hr>147</ns3:hr>
            <ns3:cad>0</ns3:cad>
          </ns3:TrackPointExtension>
        </extensions>
      </trkpt>
      <trkpt lat="44.698566310107707977294921875" lon="6.76274687983095645904541015625">
        <ele>1844.5999755859375</ele>
        <time>2026-09-03T07:09:15.000Z</time>
        <extensions>
          <ns3:TrackPointExtension>
            <ns3:hr>148</ns3:hr>
            <ns3:cad>0</ns3:cad>
          </ns3:TrackPointExtension>
        </extensions>
      </trkpt>
      <trkpt lat="44.69856136478483676910400390625" lon="6.762763559818267822265625">
        <ele>1844.800048828125</ele>
        <time>2026-09-03T07:09:16.000Z</time>
        <extensions>
          <ns3:TrackPointExtension>
            <ns3:hr>148</ns3:hr>
            <ns3:cad>0</ns3:cad>
          </ns3:TrackPointExtension>
        </extensions>
      </trkpt>
      <trkpt lat="44.6985537372529506683349609375" lon="6.7627838440239429473876953125">
        <ele>1845</ele>
        <time>2026-09-03T07:09:17.000Z</time>
        <extensions>
          <ns3:TrackPointExtension>
            <ns3:hr>148</ns3:hr>
            <ns3:cad>0</ns3:cad>
          </ns3:TrackPointExtension>
        </extensions>
      </trkpt>
      <trkpt lat="44.698549546301364898681640625" lon="6.762796752154827117919921875">
        <ele>1845</ele>
        <time>2026-09-03T07:09:18.000Z</time>
        <extensions>
          <ns3:TrackPointExtension>
            <ns3:hr>149</ns3:hr>
            <ns3:cad>0</ns3:cad>
          </ns3:TrackPointExtension>
        </extensions>
      </trkpt>
      <trkpt lat="44.69854208640754222869873046875" lon="6.76280806772410869598388671875">
        <ele>1845</ele>
        <time>2026-09-03T07:09:19.000Z</time>
        <extensions>
          <ns3:TrackPointExtension>
            <ns3:hr>149</ns3:hr>
            <ns3:cad>0</ns3:cad>
          </ns3:TrackPointExtension>
        </extensions>
      </trkpt>
      <trkpt lat="44.69853521324694156646728515625" lon="6.762822903692722320556640625">
        <ele>1845.199951171875</ele>
        <time>2026-09-03T07:09:20.000Z</time>
        <extensions>
          <ns3:TrackPointExtension>
            <ns3:hr>150</ns3:hr>
            <ns3:cad>0</ns3:cad>
          </ns3:TrackPointExtension>
        </extensions>
      </trkpt>
      <trkpt lat="44.698530770838260650634765625" lon="6.76283572800457477569580078125">
        <ele>1845.4000244140625</ele>
        <time>2026-09-03T07:09:21.000Z</time>
        <extensions>
          <ns3:TrackPointExtension>
            <ns3:hr>150</ns3:hr>
            <ns3:cad>0</ns3:cad>
          </ns3:TrackPointExtension>
        </extensions>
      </trkpt>
      <trkpt lat="44.6985255740582942962646484375" lon="6.762852407991886138916015625">
        <ele>1845.5999755859375</ele>
        <time>2026-09-03T07:09:22.000Z</time>
        <extensions>
          <ns3:TrackPointExtension>
            <ns3:hr>151</ns3:hr>
            <ns3:cad>0</ns3:cad>
          </ns3:TrackPointExtension>
        </extensions>
      </trkpt>
      <trkpt lat="44.69851895235478878021240234375" lon="6.762867160141468048095703125">
        <ele>1845.800048828125</ele>
        <time>2026-09-03T07:09:23.000Z</time>
        <extensions>
          <ns3:TrackPointExtension>
            <ns3:hr>151</ns3:hr>
            <ns3:cad>0</ns3:cad>
          </ns3:TrackPointExtension>
        </extensions>
      </trkpt>
      <trkpt lat="44.69851308502256870269775390625" lon="6.7628829181194305419921875">
        <ele>1845.800048828125</ele>
        <time>2026-09-03T07:09:24.000Z</time>
        <extensions>
          <ns3:TrackPointExtension>
            <ns3:hr>151</ns3:hr>
            <ns3:cad>0</ns3:cad>
          </ns3:TrackPointExtension>
        </extensions>
      </trkpt>
      <trkpt lat="44.69850738532841205596923828125" lon="6.76289406605064868927001953125">
        <ele>1846</ele>
        <time>2026-09-03T07:09:25.000Z</time>
        <extensions>
          <ns3:TrackPointExtension>
            <ns3:hr>152</ns3:hr>
            <ns3:cad>0</ns3:cad>
          </ns3:TrackPointExtension>
        </extensions>
      </trkpt>
      <trkpt lat="44.6984994225203990936279296875" lon="6.7629124224185943603515625">
        <ele>1846</ele>
        <time>2026-09-03T07:09:26.000Z</time>
        <extensions>
          <ns3:TrackPointExtension>
            <ns3:hr>152</ns3:hr>
            <ns3:cad>0</ns3:cad>
          </ns3:TrackPointExtension>
        </extensions>
      </trkpt>
      <trkpt lat="44.69849464483559131622314453125" lon="6.762919127941131591796875">
        <ele>1846</ele>
        <time>2026-09-03T07:09:27.000Z</time>
        <extensions>
          <ns3:TrackPointExtension>
            <ns3:hr>152</ns3:hr>
            <ns3:cad>0</ns3:cad>
          </ns3:TrackPointExtension>
        </extensions>
      </trkpt>
      <trkpt lat="44.69848693348467350006103515625" lon="6.76293714903295040130615234375">
        <ele>1846.199951171875</ele>
        <time>2026-09-03T07:09:28.000Z</time>
        <extensions>
          <ns3:TrackPointExtension>
            <ns3:hr>152</ns3:hr>
            <ns3:cad>0</ns3:cad>
          </ns3:TrackPointExtension>
        </extensions>
      </trkpt>
      <trkpt lat="44.69848223961889743804931640625" lon="6.76294662058353424072265625">
        <ele>1846.4000244140625</ele>
        <time>2026-09-03T07:09:29.000Z</time>
        <extensions>
          <ns3:TrackPointExtension>
            <ns3:hr>151</ns3:hr>
            <ns3:cad>0</ns3:cad>
          </ns3:TrackPointExtension>
        </extensions>
      </trkpt>
      <trkpt lat="44.698474109172821044921875" lon="6.762964725494384765625">
        <ele>1846.4000244140625</ele>
        <time>2026-09-03T07:09:30.000Z</time>
        <extensions>
          <ns3:TrackPointExtension>
            <ns3:hr>151</ns3:hr>
            <ns3:cad>0</ns3:cad>
          </ns3:TrackPointExtension>
        </extensions>
      </trkpt>
      <trkpt lat="44.698469750583171844482421875" lon="6.76298056729137897491455078125">
        <ele>1846.5999755859375</ele>
        <time>2026-09-03T07:09:31.000Z</time>
        <extensions>
          <ns3:TrackPointExtension>
            <ns3:hr>148</ns3:hr>
            <ns3:cad>0</ns3:cad>
          </ns3:TrackPointExtension>
        </extensions>
      </trkpt>
      <trkpt lat="44.69846162013709545135498046875" lon="6.7629970796406269073486328125">
        <ele>1846.800048828125</ele>
        <time>2026-09-03T07:09:32.000Z</time>
        <extensions>
          <ns3:TrackPointExtension>
            <ns3:hr>147</ns3:hr>
            <ns3:cad>0</ns3:cad>
          </ns3:TrackPointExtension>
        </extensions>
      </trkpt>
      <trkpt lat="44.6984558366239070892333984375" lon="6.76301241852343082427978515625">
        <ele>1846.800048828125</ele>
        <time>2026-09-03T07:09:33.000Z</time>
        <extensions>
          <ns3:TrackPointExtension>
            <ns3:hr>147</ns3:hr>
            <ns3:cad>42</ns3:cad>
          </ns3:TrackPointExtension>
        </extensions>
      </trkpt>
      <trkpt lat="44.698449634015560150146484375" lon="6.763032115995883941650390625">
        <ele>1847</ele>
        <time>2026-09-03T07:09:34.000Z</time>
        <extensions>
          <ns3:TrackPointExtension>
            <ns3:hr>147</ns3:hr>
            <ns3:cad>42</ns3:cad>
          </ns3:TrackPointExtension>
        </extensions>
      </trkpt>
      <trkpt lat="44.69844351522624492645263671875" lon="6.76304678432643413543701171875">
        <ele>1847</ele>
        <time>2026-09-03T07:09:35.000Z</time>
        <extensions>
          <ns3:TrackPointExtension>
            <ns3:hr>147</ns3:hr>
            <ns3:cad>42</ns3:cad>
          </ns3:TrackPointExtension>
        </extensions>
      </trkpt>
      <trkpt lat="44.69843764789402484893798828125" lon="6.76306254230439662933349609375">
        <ele>1847.199951171875</ele>
        <time>2026-09-03T07:09:36.000Z</time>
        <extensions>
          <ns3:TrackPointExtension>
            <ns3:hr>147</ns3:hr>
            <ns3:cad>42</ns3:cad>
          </ns3:TrackPointExtension>
        </extensions>
      </trkpt>
      <trkpt lat="44.69843161292374134063720703125" lon="6.7630775459110736846923828125">
        <ele>1847.4000244140625</ele>
        <time>2026-09-03T07:09:37.000Z</time>
        <extensions>
          <ns3:TrackPointExtension>
            <ns3:hr>147</ns3:hr>
            <ns3:cad>0</ns3:cad>
          </ns3:TrackPointExtension>
        </extensions>
      </trkpt>
      <trkpt lat="44.69842943362891674041748046875" lon="6.7630939744412899017333984375">
        <ele>1847.5999755859375</ele>
        <time>2026-09-03T07:09:38.000Z</time>
        <extensions>
          <ns3:TrackPointExtension>
            <ns3:hr>146</ns3:hr>
            <ns3:cad>0</ns3:cad>
          </ns3:TrackPointExtension>
        </extensions>
      </trkpt>
      <trkpt lat="44.69842423684895038604736328125" lon="6.76310914568603038787841796875">
        <ele>1847.5999755859375</ele>
        <time>2026-09-03T07:09:39.000Z</time>
        <extensions>
          <ns3:TrackPointExtension>
            <ns3:hr>146</ns3:hr>
            <ns3:cad>0</ns3:cad>
          </ns3:TrackPointExtension>
        </extensions>
      </trkpt>
      <trkpt lat="44.6984218060970306396484375" lon="6.76312121562659740447998046875">
        <ele>1847.800048828125</ele>
        <time>2026-09-03T07:09:40.000Z</time>
        <extensions>
          <ns3:TrackPointExtension>
            <ns3:hr>146</ns3:hr>
            <ns3:cad>0</ns3:cad>
          </ns3:TrackPointExtension>
        </extensions>
      </trkpt>
      <trkpt lat="44.69841736368834972381591796875" lon="6.76313915289938449859619140625">
        <ele>1847.800048828125</ele>
        <time>2026-09-03T07:09:41.000Z</time>
        <extensions>
          <ns3:TrackPointExtension>
            <ns3:hr>146</ns3:hr>
            <ns3:cad>0</ns3:cad>
          </ns3:TrackPointExtension>
        </extensions>
      </trkpt>
      <trkpt lat="44.6984156034886837005615234375" lon="6.76315449178218841552734375">
        <ele>1847.800048828125</ele>
        <time>2026-09-03T07:09:42.000Z</time>
        <extensions>
          <ns3:TrackPointExtension>
            <ns3:hr>146</ns3:hr>
            <ns3:cad>0</ns3:cad>
          </ns3:TrackPointExtension>
        </extensions>
      </trkpt>
      <trkpt lat="44.6984135918319225311279296875" lon="6.7631687410175800323486328125">
        <ele>1847.800048828125</ele>
        <time>2026-09-03T07:09:43.000Z</time>
        <extensions>
          <ns3:TrackPointExtension>
            <ns3:hr>146</ns3:hr>
            <ns3:cad>57</ns3:cad>
          </ns3:TrackPointExtension>
        </extensions>
      </trkpt>
      <trkpt lat="44.698409736156463623046875" lon="6.76318123005330562591552734375">
        <ele>1848</ele>
        <time>2026-09-03T07:09:44.000Z</time>
        <extensions>
          <ns3:TrackPointExtension>
            <ns3:hr>147</ns3:hr>
            <ns3:cad>57</ns3:cad>
          </ns3:TrackPointExtension>
        </extensions>
      </trkpt>
      <trkpt lat="44.698404707014560699462890625" lon="6.76319539546966552734375">
        <ele>1848.199951171875</ele>
        <time>2026-09-03T07:09:45.000Z</time>
        <extensions>
          <ns3:TrackPointExtension>
            <ns3:hr>147</ns3:hr>
            <ns3:cad>57</ns3:cad>
          </ns3:TrackPointExtension>
        </extensions>
      </trkpt>
      <trkpt lat="44.6983991749584674835205078125" lon="6.76320805214345455169677734375">
        <ele>1848.4000244140625</ele>
        <time>2026-09-03T07:09:46.000Z</time>
        <extensions>
          <ns3:TrackPointExtension>
            <ns3:hr>147</ns3:hr>
            <ns3:cad>57</ns3:cad>
          </ns3:TrackPointExtension>
        </extensions>
      </trkpt>
      <trkpt lat="44.69839632511138916015625" lon="6.76322699524462223052978515625">
        <ele>1848.5999755859375</ele>
        <time>2026-09-03T07:09:47.000Z</time>
        <extensions>
          <ns3:TrackPointExtension>
            <ns3:hr>146</ns3:hr>
            <ns3:cad>57</ns3:cad>
          </ns3:TrackPointExtension>
        </extensions>
      </trkpt>
      <trkpt lat="44.69839297235012054443359375" lon="6.7632414959371089935302734375">
        <ele>1848.800048828125</ele>
        <time>2026-09-03T07:09:48.000Z</time>
        <extensions>
          <ns3:TrackPointExtension>
            <ns3:hr>146</ns3:hr>
            <ns3:cad>56</ns3:cad>
          </ns3:TrackPointExtension>
        </extensions>
      </trkpt>
      <trkpt lat="44.69838735647499561309814453125" lon="6.76325934939086437225341796875">
        <ele>1849</ele>
        <time>2026-09-03T07:09:49.000Z</time>
        <extensions>
          <ns3:TrackPointExtension>
            <ns3:hr>146</ns3:hr>
            <ns3:cad>0</ns3:cad>
          </ns3:TrackPointExtension>
        </extensions>
      </trkpt>
      <trkpt lat="44.69838333316147327423095703125" lon="6.763269491493701934814453125">
        <ele>1849.199951171875</ele>
        <time>2026-09-03T07:09:50.000Z</time>
        <extensions>
          <ns3:TrackPointExtension>
            <ns3:hr>147</ns3:hr>
            <ns3:cad>0</ns3:cad>
          </ns3:TrackPointExtension>
        </extensions>
      </trkpt>
      <trkpt lat="44.69837796874344348907470703125" lon="6.7632825672626495361328125">
        <ele>1849.4000244140625</ele>
        <time>2026-09-03T07:09:51.000Z</time>
        <extensions>
          <ns3:TrackPointExtension>
            <ns3:hr>147</ns3:hr>
            <ns3:cad>0</ns3:cad>
          </ns3:TrackPointExtension>
        </extensions>
      </trkpt>
      <trkpt lat="44.69837361015379428863525390625" lon="6.7632974870502948760986328125">
        <ele>1849.4000244140625</ele>
        <time>2026-09-03T07:09:52.000Z</time>
        <extensions>
          <ns3:TrackPointExtension>
            <ns3:hr>147</ns3:hr>
            <ns3:cad>0</ns3:cad>
          </ns3:TrackPointExtension>
        </extensions>
      </trkpt>
      <trkpt lat="44.6983679942786693572998046875" lon="6.7633125744760036468505859375">
        <ele>1849.5999755859375</ele>
        <time>2026-09-03T07:09:53.000Z</time>
        <extensions>
          <ns3:TrackPointExtension>
            <ns3:hr>147</ns3:hr>
            <ns3:cad>0</ns3:cad>
          </ns3:TrackPointExtension>
        </extensions>
      </trkpt>
      <trkpt lat="44.69836304895579814910888671875" lon="6.763325147330760955810546875">
        <ele>1849.5999755859375</ele>
        <time>2026-09-03T07:09:54.000Z</time>
        <extensions>
          <ns3:TrackPointExtension>
            <ns3:hr>147</ns3:hr>
            <ns3:cad>0</ns3:cad>
          </ns3:TrackPointExtension>
        </extensions>
      </trkpt>
      <trkpt lat="44.69835667870938777923583984375" lon="6.76334115676581859588623046875">
        <ele>1849.800048828125</ele>
        <time>2026-09-03T07:09:55.000Z</time>
        <extensions>
          <ns3:TrackPointExtension>
            <ns3:hr>146</ns3:hr>
            <ns3:cad>0</ns3:cad>
          </ns3:TrackPointExtension>
        </extensions>
      </trkpt>
      <trkpt lat="44.69835030846297740936279296875" lon="6.7633538134396076202392578125">
        <ele>1850</ele>
        <time>2026-09-03T07:09:56.000Z</time>
        <extensions>
          <ns3:TrackPointExtension>
            <ns3:hr>146</ns3:hr>
            <ns3:cad>0</ns3:cad>
          </ns3:TrackPointExtension>
        </extensions>
      </trkpt>
      <trkpt lat="44.69834544695913791656494140625" lon="6.763374768197536468505859375">
        <ele>1850.199951171875</ele>
        <time>2026-09-03T07:09:57.000Z</time>
        <extensions>
          <ns3:TrackPointExtension>
            <ns3:hr>146</ns3:hr>
            <ns3:cad>0</ns3:cad>
          </ns3:TrackPointExtension>
        </extensions>
      </trkpt>
      <trkpt lat="44.69833756797015666961669921875" lon="6.76339077763259410858154296875">
        <ele>1850.4000244140625</ele>
        <time>2026-09-03T07:09:58.000Z</time>
        <extensions>
          <ns3:TrackPointExtension>
            <ns3:hr>145</ns3:hr>
            <ns3:cad>0</ns3:cad>
          </ns3:TrackPointExtension>
        </extensions>
      </trkpt>
      <trkpt lat="44.6983247436583042144775390625" lon="6.76339924335479736328125">
        <ele>1850.4000244140625</ele>
        <time>2026-09-03T07:09:59.000Z</time>
        <extensions>
          <ns3:TrackPointExtension>
            <ns3:hr>145</ns3:hr>
            <ns3:cad>0</ns3:cad>
          </ns3:TrackPointExtension>
        </extensions>
      </trkpt>
      <trkpt lat="44.698316194117069244384765625" lon="6.76341064274311065673828125">
        <ele>1850.5999755859375</ele>
        <time>2026-09-03T07:10:00.000Z</time>
        <extensions>
          <ns3:TrackPointExtension>
            <ns3:hr>145</ns3:hr>
            <ns3:cad>0</ns3:cad>
          </ns3:TrackPointExtension>
        </extensions>
      </trkpt>
      <trkpt lat="44.69831074588000774383544921875" lon="6.76341458223760128021240234375">
        <ele>1850.800048828125</ele>
        <time>2026-09-03T07:10:01.000Z</time>
        <extensions>
          <ns3:TrackPointExtension>
            <ns3:hr>145</ns3:hr>
            <ns3:cad>0</ns3:cad>
          </ns3:TrackPointExtension>
        </extensions>
      </trkpt>
      <trkpt lat="44.69830638729035854339599609375" lon="6.76342749036848545074462890625">
        <ele>1850.800048828125</ele>
        <time>2026-09-03T07:10:02.000Z</time>
        <extensions>
          <ns3:TrackPointExtension>
            <ns3:hr>144</ns3:hr>
            <ns3:cad>0</ns3:cad>
          </ns3:TrackPointExtension>
        </extensions>
      </trkpt>
      <trkpt lat="44.6983051300048828125" lon="6.7634339444339275360107421875">
        <ele>1851</ele>
        <time>2026-09-03T07:10:03.000Z</time>
        <extensions>
          <ns3:TrackPointExtension>
            <ns3:hr>144</ns3:hr>
            <ns3:cad>0</ns3:cad>
          </ns3:TrackPointExtension>
        </extensions>
      </trkpt>
      <trkpt lat="44.69829641282558441162109375" lon="6.76345112733542919158935546875">
        <ele>1851.199951171875</ele>
        <time>2026-09-03T07:10:04.000Z</time>
        <extensions>
          <ns3:TrackPointExtension>
            <ns3:hr>144</ns3:hr>
            <ns3:cad>0</ns3:cad>
          </ns3:TrackPointExtension>
        </extensions>
      </trkpt>
      <trkpt lat="44.69829264096915721893310546875" lon="6.76346386782824993133544921875">
        <ele>1851.4000244140625</ele>
        <time>2026-09-03T07:10:05.000Z</time>
        <extensions>
          <ns3:TrackPointExtension>
            <ns3:hr>144</ns3:hr>
            <ns3:cad>0</ns3:cad>
          </ns3:TrackPointExtension>
        </extensions>
      </trkpt>
      <trkpt lat="44.69828492961823940277099609375" lon="6.76347526721656322479248046875">
        <ele>1851.800048828125</ele>
        <time>2026-09-03T07:10:06.000Z</time>
        <extensions>
          <ns3:TrackPointExtension>
            <ns3:hr>144</ns3:hr>
            <ns3:cad>0</ns3:cad>
          </ns3:TrackPointExtension>
        </extensions>
      </trkpt>
      <trkpt lat="44.69827990047633647918701171875" lon="6.76348976790904998779296875">
        <ele>1852</ele>
        <time>2026-09-03T07:10:07.000Z</time>
        <extensions>
          <ns3:TrackPointExtension>
            <ns3:hr>143</ns3:hr>
            <ns3:cad>0</ns3:cad>
          </ns3:TrackPointExtension>
        </extensions>
      </trkpt>
      <trkpt lat="44.6982704289257526397705078125" lon="6.76351097412407398223876953125">
        <ele>1852.199951171875</ele>
        <time>2026-09-03T07:10:08.000Z</time>
        <extensions>
          <ns3:TrackPointExtension>
            <ns3:hr>143</ns3:hr>
            <ns3:cad>0</ns3:cad>
          </ns3:TrackPointExtension>
        </extensions>
      </trkpt>
      <trkpt lat="44.69826732762157917022705078125" lon="6.7635258100926876068115234375">
        <ele>1852.199951171875</ele>
        <time>2026-09-03T07:10:09.000Z</time>
        <extensions>
          <ns3:TrackPointExtension>
            <ns3:hr>142</ns3:hr>
            <ns3:cad>0</ns3:cad>
          </ns3:TrackPointExtension>
        </extensions>
      </trkpt>
      <trkpt lat="44.69826288521289825439453125" lon="6.763546429574489593505859375">
        <ele>1852.4000244140625</ele>
        <time>2026-09-03T07:10:10.000Z</time>
        <extensions>
          <ns3:TrackPointExtension>
            <ns3:hr>142</ns3:hr>
            <ns3:cad>0</ns3:cad>
          </ns3:TrackPointExtension>
        </extensions>
      </trkpt>
      <trkpt lat="44.69826162792742252349853515625" lon="6.7635613493621349334716796875">
        <ele>1852.5999755859375</ele>
        <time>2026-09-03T07:10:11.000Z</time>
        <extensions>
          <ns3:TrackPointExtension>
            <ns3:hr>141</ns3:hr>
            <ns3:cad>0</ns3:cad>
          </ns3:TrackPointExtension>
        </extensions>
      </trkpt>
      <trkpt lat="44.6982603706419467926025390625" lon="6.7635776102542877197265625">
        <ele>1852.5999755859375</ele>
        <time>2026-09-03T07:10:12.000Z</time>
        <extensions>
          <ns3:TrackPointExtension>
            <ns3:hr>141</ns3:hr>
            <ns3:cad>0</ns3:cad>
          </ns3:TrackPointExtension>
        </extensions>
      </trkpt>
      <trkpt lat="44.6982613764703273773193359375" lon="6.76359630189836025238037109375">
        <ele>1852.5999755859375</ele>
        <time>2026-09-03T07:10:13.000Z</time>
        <extensions>
          <ns3:TrackPointExtension>
            <ns3:hr>141</ns3:hr>
            <ns3:cad>0</ns3:cad>
          </ns3:TrackPointExtension>
        </extensions>
      </trkpt>
      <trkpt lat="44.6982660703361034393310546875" lon="6.763614155352115631103515625">
        <ele>1852.5999755859375</ele>
        <time>2026-09-03T07:10:14.000Z</time>
        <extensions>
          <ns3:TrackPointExtension>
            <ns3:hr>141</ns3:hr>
            <ns3:cad>0</ns3:cad>
          </ns3:TrackPointExtension>
        </extensions>
      </trkpt>
      <trkpt lat="44.6982737816870212554931640625" lon="6.76363536156713962554931640625">
        <ele>1852.800048828125</ele>
        <time>2026-09-03T07:10:15.000Z</time>
        <extensions>
          <ns3:TrackPointExtension>
            <ns3:hr>140</ns3:hr>
            <ns3:cad>0</ns3:cad>
          </ns3:TrackPointExtension>
        </extensions>
      </trkpt>
      <trkpt lat="44.69827570952475070953369140625" lon="6.763645671308040618896484375">
        <ele>1852.800048828125</ele>
        <time>2026-09-03T07:10:16.000Z</time>
        <extensions>
          <ns3:TrackPointExtension>
            <ns3:hr>140</ns3:hr>
            <ns3:cad>0</ns3:cad>
          </ns3:TrackPointExtension>
        </extensions>
      </trkpt>
      <trkpt lat="44.698275960981845855712890625" lon="6.76366050727665424346923828125">
        <ele>1853</ele>
        <time>2026-09-03T07:10:17.000Z</time>
        <extensions>
          <ns3:TrackPointExtension>
            <ns3:hr>140</ns3:hr>
            <ns3:cad>0</ns3:cad>
          </ns3:TrackPointExtension>
        </extensions>
      </trkpt>
      <trkpt lat="44.69827336259186267852783203125" lon="6.7636652849614620208740234375">
        <ele>1853.199951171875</ele>
        <time>2026-09-03T07:10:18.000Z</time>
        <extensions>
          <ns3:TrackPointExtension>
            <ns3:hr>140</ns3:hr>
            <ns3:cad>0</ns3:cad>
          </ns3:TrackPointExtension>
        </extensions>
      </trkpt>
      <trkpt lat="44.69827185384929180145263671875" lon="6.7636854015290737152099609375">
        <ele>1853.4000244140625</ele>
        <time>2026-09-03T07:10:19.000Z</time>
        <extensions>
          <ns3:TrackPointExtension>
            <ns3:hr>140</ns3:hr>
            <ns3:cad>0</ns3:cad>
          </ns3:TrackPointExtension>
        </extensions>
      </trkpt>
      <trkpt lat="44.6982729434967041015625" lon="6.7636984772980213165283203125">
        <ele>1853.5999755859375</ele>
        <time>2026-09-03T07:10:20.000Z</time>
        <extensions>
          <ns3:TrackPointExtension>
            <ns3:hr>139</ns3:hr>
            <ns3:cad>0</ns3:cad>
          </ns3:TrackPointExtension>
        </extensions>
      </trkpt>
      <trkpt lat="44.69827101565897464752197265625" lon="6.76371465437114238739013671875">
        <ele>1853.800048828125</ele>
        <time>2026-09-03T07:10:21.000Z</time>
        <extensions>
          <ns3:TrackPointExtension>
            <ns3:hr>139</ns3:hr>
            <ns3:cad>0</ns3:cad>
          </ns3:TrackPointExtension>
        </extensions>
      </trkpt>
      <trkpt lat="44.69827118329703807830810546875" lon="6.7637278139591217041015625">
        <ele>1854</ele>
        <time>2026-09-03T07:10:22.000Z</time>
        <extensions>
          <ns3:TrackPointExtension>
            <ns3:hr>139</ns3:hr>
            <ns3:cad>0</ns3:cad>
          </ns3:TrackPointExtension>
        </extensions>
      </trkpt>
      <trkpt lat="44.6982653997838497161865234375" lon="6.7637434042990207672119140625">
        <ele>1854.199951171875</ele>
        <time>2026-09-03T07:10:23.000Z</time>
        <extensions>
          <ns3:TrackPointExtension>
            <ns3:hr>140</ns3:hr>
            <ns3:cad>0</ns3:cad>
          </ns3:TrackPointExtension>
        </extensions>
      </trkpt>
      <trkpt lat="44.69826548360288143157958984375" lon="6.76375689916312694549560546875">
        <ele>1854.4000244140625</ele>
        <time>2026-09-03T07:10:24.000Z</time>
        <extensions>
          <ns3:TrackPointExtension>
            <ns3:hr>139</ns3:hr>
            <ns3:cad>0</ns3:cad>
          </ns3:TrackPointExtension>
        </extensions>
      </trkpt>
      <trkpt lat="44.69826556742191314697265625" lon="6.7637749202549457550048828125">
        <ele>1854.5999755859375</ele>
        <time>2026-09-03T07:10:25.000Z</time>
        <extensions>
          <ns3:TrackPointExtension>
            <ns3:hr>139</ns3:hr>
            <ns3:cad>0</ns3:cad>
          </ns3:TrackPointExtension>
        </extensions>
      </trkpt>
      <trkpt lat="44.6982650645077228546142578125" lon="6.7637963779270648956298828125">
        <ele>1854.800048828125</ele>
        <time>2026-09-03T07:10:26.000Z</time>
        <extensions>
          <ns3:TrackPointExtension>
            <ns3:hr>139</ns3:hr>
            <ns3:cad>0</ns3:cad>
          </ns3:TrackPointExtension>
        </extensions>
      </trkpt>
      <trkpt lat="44.69826313666999340057373046875" lon="6.76381289027631282806396484375">
        <ele>1855</ele>
        <time>2026-09-03T07:10:27.000Z</time>
        <extensions>
          <ns3:TrackPointExtension>
            <ns3:hr>140</ns3:hr>
            <ns3:cad>0</ns3:cad>
          </ns3:TrackPointExtension>
        </extensions>
      </trkpt>
      <trkpt lat="44.698260538280010223388671875" lon="6.7638309113681316375732421875">
        <ele>1855.199951171875</ele>
        <time>2026-09-03T07:10:28.000Z</time>
        <extensions>
          <ns3:TrackPointExtension>
            <ns3:hr>139</ns3:hr>
            <ns3:cad>0</ns3:cad>
          </ns3:TrackPointExtension>
        </extensions>
      </trkpt>
      <trkpt lat="44.6982576884329319000244140625" lon="6.76384071819484233856201171875">
        <ele>1855.199951171875</ele>
        <time>2026-09-03T07:10:29.000Z</time>
        <extensions>
          <ns3:TrackPointExtension>
            <ns3:hr>139</ns3:hr>
            <ns3:cad>0</ns3:cad>
          </ns3:TrackPointExtension>
        </extensions>
      </trkpt>
      <trkpt lat="44.69825458712875843048095703125" lon="6.7638594098389148712158203125">
        <ele>1855.4000244140625</ele>
        <time>2026-09-03T07:10:30.000Z</time>
        <extensions>
          <ns3:TrackPointExtension>
            <ns3:hr>139</ns3:hr>
            <ns3:cad>0</ns3:cad>
          </ns3:TrackPointExtension>
        </extensions>
      </trkpt>
      <trkpt lat="44.698255173861980438232421875" lon="6.7638654448091983795166015625">
        <ele>1855.5999755859375</ele>
        <time>2026-09-03T07:10:31.000Z</time>
        <extensions>
          <ns3:TrackPointExtension>
            <ns3:hr>139</ns3:hr>
            <ns3:cad>0</ns3:cad>
          </ns3:TrackPointExtension>
        </extensions>
      </trkpt>
      <trkpt lat="44.69825291074812412261962890625" lon="6.7638806998729705810546875">
        <ele>1855.800048828125</ele>
        <time>2026-09-03T07:10:32.000Z</time>
        <extensions>
          <ns3:TrackPointExtension>
            <ns3:hr>139</ns3:hr>
            <ns3:cad>0</ns3:cad>
          </ns3:TrackPointExtension>
        </extensions>
      </trkpt>
      <trkpt lat="44.69825475476682186126708984375" lon="6.76389402709901332855224609375">
        <ele>1856</ele>
        <time>2026-09-03T07:10:33.000Z</time>
        <extensions>
          <ns3:TrackPointExtension>
            <ns3:hr>140</ns3:hr>
            <ns3:cad>0</ns3:cad>
          </ns3:TrackPointExtension>
        </extensions>
      </trkpt>
      <trkpt lat="44.69825307838618755340576171875" lon="6.76391179673373699188232421875">
        <ele>1856.199951171875</ele>
        <time>2026-09-03T07:10:34.000Z</time>
        <extensions>
          <ns3:TrackPointExtension>
            <ns3:hr>139</ns3:hr>
            <ns3:cad>0</ns3:cad>
          </ns3:TrackPointExtension>
        </extensions>
      </trkpt>
      <trkpt lat="44.69825391657650470733642578125" lon="6.76392470486462116241455078125">
        <ele>1856.4000244140625</ele>
        <time>2026-09-03T07:10:35.000Z</time>
        <extensions>
          <ns3:TrackPointExtension>
            <ns3:hr>139</ns3:hr>
            <ns3:cad>0</ns3:cad>
          </ns3:TrackPointExtension>
        </extensions>
      </trkpt>
      <trkpt lat="44.6982466243207454681396484375" lon="6.7639385350048542022705078125">
        <ele>1856.5999755859375</ele>
        <time>2026-09-03T07:10:36.000Z</time>
        <extensions>
          <ns3:TrackPointExtension>
            <ns3:hr>140</ns3:hr>
            <ns3:cad>0</ns3:cad>
          </ns3:TrackPointExtension>
        </extensions>
      </trkpt>
      <trkpt lat="44.69824318774044513702392578125" lon="6.763951778411865234375">
        <ele>1856.800048828125</ele>
        <time>2026-09-03T07:10:37.000Z</time>
        <extensions>
          <ns3:TrackPointExtension>
            <ns3:hr>140</ns3:hr>
            <ns3:cad>0</ns3:cad>
          </ns3:TrackPointExtension>
        </extensions>
      </trkpt>
      <trkpt lat="44.69824050553143024444580078125" lon="6.76396812312304973602294921875">
        <ele>1857</ele>
        <time>2026-09-03T07:10:38.000Z</time>
        <extensions>
          <ns3:TrackPointExtension>
            <ns3:hr>140</ns3:hr>
            <ns3:cad>0</ns3:cad>
          </ns3:TrackPointExtension>
        </extensions>
      </trkpt>
      <trkpt lat="44.69823832623660564422607421875" lon="6.76398505456745624542236328125">
        <ele>1857.199951171875</ele>
        <time>2026-09-03T07:10:39.000Z</time>
        <extensions>
          <ns3:TrackPointExtension>
            <ns3:hr>140</ns3:hr>
            <ns3:cad>0</ns3:cad>
          </ns3:TrackPointExtension>
        </extensions>
      </trkpt>
      <trkpt lat="44.69823514111340045928955078125" lon="6.7639962024986743927001953125">
        <ele>1857.4000244140625</ele>
        <time>2026-09-03T07:10:40.000Z</time>
        <extensions>
          <ns3:TrackPointExtension>
            <ns3:hr>139</ns3:hr>
            <ns3:cad>0</ns3:cad>
          </ns3:TrackPointExtension>
        </extensions>
      </trkpt>
      <trkpt lat="44.69823162071406841278076171875" lon="6.7640106193721294403076171875">
        <ele>1857.800048828125</ele>
        <time>2026-09-03T07:10:41.000Z</time>
        <extensions>
          <ns3:TrackPointExtension>
            <ns3:hr>140</ns3:hr>
            <ns3:cad>0</ns3:cad>
          </ns3:TrackPointExtension>
        </extensions>
      </trkpt>
      <trkpt lat="44.69822742976248264312744140625" lon="6.764017827808856964111328125">
        <ele>1858</ele>
        <time>2026-09-03T07:10:42.000Z</time>
        <extensions>
          <ns3:TrackPointExtension>
            <ns3:hr>140</ns3:hr>
            <ns3:cad>0</ns3:cad>
          </ns3:TrackPointExtension>
        </extensions>
      </trkpt>
      <trkpt lat="44.69822105951607227325439453125" lon="6.7640354298055171966552734375">
        <ele>1858.199951171875</ele>
        <time>2026-09-03T07:10:43.000Z</time>
        <extensions>
          <ns3:TrackPointExtension>
            <ns3:hr>140</ns3:hr>
            <ns3:cad>0</ns3:cad>
          </ns3:TrackPointExtension>
        </extensions>
      </trkpt>
      <trkpt lat="44.698213599622249603271484375" lon="6.764037273824214935302734375">
        <ele>1858.5999755859375</ele>
        <time>2026-09-03T07:10:44.000Z</time>
        <extensions>
          <ns3:TrackPointExtension>
            <ns3:hr>140</ns3:hr>
            <ns3:cad>0</ns3:cad>
          </ns3:TrackPointExtension>
        </extensions>
      </trkpt>
      <trkpt lat="44.69820513390004634857177734375" lon="6.7640505172312259674072265625">
        <ele>1858.800048828125</ele>
        <time>2026-09-03T07:10:45.000Z</time>
        <extensions>
          <ns3:TrackPointExtension>
            <ns3:hr>140</ns3:hr>
            <ns3:cad>0</ns3:cad>
          </ns3:TrackPointExtension>
        </extensions>
      </trkpt>
      <trkpt lat="44.69820245169103145599365234375" lon="6.76406216807663440704345703125">
        <ele>1859</ele>
        <time>2026-09-03T07:10:46.000Z</time>
        <extensions>
          <ns3:TrackPointExtension>
            <ns3:hr>141</ns3:hr>
            <ns3:cad>0</ns3:cad>
          </ns3:TrackPointExtension>
        </extensions>
      </trkpt>
      <trkpt lat="44.6981946565210819244384765625" lon="6.764076165854930877685546875">
        <ele>1859.199951171875</ele>
        <time>2026-09-03T07:10:47.000Z</time>
        <extensions>
          <ns3:TrackPointExtension>
            <ns3:hr>141</ns3:hr>
            <ns3:cad>0</ns3:cad>
          </ns3:TrackPointExtension>
        </extensions>
      </trkpt>
      <trkpt lat="44.698189459741115570068359375" lon="6.76408999599516391754150390625">
        <ele>1859.4000244140625</ele>
        <time>2026-09-03T07:10:48.000Z</time>
        <extensions>
          <ns3:TrackPointExtension>
            <ns3:hr>141</ns3:hr>
            <ns3:cad>0</ns3:cad>
          </ns3:TrackPointExtension>
        </extensions>
      </trkpt>
      <trkpt lat="44.6981832571327686309814453125" lon="6.76410994492471218109130859375">
        <ele>1859.5999755859375</ele>
        <time>2026-09-03T07:10:49.000Z</time>
        <extensions>
          <ns3:TrackPointExtension>
            <ns3:hr>141</ns3:hr>
            <ns3:cad>0</ns3:cad>
          </ns3:TrackPointExtension>
        </extensions>
      </trkpt>
      <trkpt lat="44.698180742561817169189453125" lon="6.7641195841133594512939453125">
        <ele>1859.5999755859375</ele>
        <time>2026-09-03T07:10:50.000Z</time>
        <extensions>
          <ns3:TrackPointExtension>
            <ns3:hr>141</ns3:hr>
            <ns3:cad>0</ns3:cad>
          </ns3:TrackPointExtension>
        </extensions>
      </trkpt>
      <trkpt lat="44.6981792338192462921142578125" lon="6.76413760520517826080322265625">
        <ele>1860</ele>
        <time>2026-09-03T07:10:51.000Z</time>
        <extensions>
          <ns3:TrackPointExtension>
            <ns3:hr>141</ns3:hr>
            <ns3:cad>0</ns3:cad>
          </ns3:TrackPointExtension>
        </extensions>
      </trkpt>
      <trkpt lat="44.69817780889570713043212890625" lon="6.76415369845926761627197265625">
        <ele>1860</ele>
        <time>2026-09-03T07:10:52.000Z</time>
        <extensions>
          <ns3:TrackPointExtension>
            <ns3:hr>142</ns3:hr>
            <ns3:cad>0</ns3:cad>
          </ns3:TrackPointExtension>
        </extensions>
      </trkpt>
      <trkpt lat="44.6981723606586456298828125" lon="6.7641658522188663482666015625">
        <ele>1860.199951171875</ele>
        <time>2026-09-03T07:10:53.000Z</time>
        <extensions>
          <ns3:TrackPointExtension>
            <ns3:hr>142</ns3:hr>
            <ns3:cad>0</ns3:cad>
          </ns3:TrackPointExtension>
        </extensions>
      </trkpt>
      <trkpt lat="44.69816858880221843719482421875" lon="6.76417984999716281890869140625">
        <ele>1860.4000244140625</ele>
        <time>2026-09-03T07:10:54.000Z</time>
        <extensions>
          <ns3:TrackPointExtension>
            <ns3:hr>142</ns3:hr>
            <ns3:cad>0</ns3:cad>
          </ns3:TrackPointExtension>
        </extensions>
      </trkpt>
      <trkpt lat="44.69816540367901325225830078125" lon="6.7641916684806346893310546875">
        <ele>1860.5999755859375</ele>
        <time>2026-09-03T07:10:55.000Z</time>
        <extensions>
          <ns3:TrackPointExtension>
            <ns3:hr>142</ns3:hr>
            <ns3:cad>0</ns3:cad>
          </ns3:TrackPointExtension>
        </extensions>
      </trkpt>
      <trkpt lat="44.6981607936322689056396484375" lon="6.76420834846794605255126953125">
        <ele>1860.800048828125</ele>
        <time>2026-09-03T07:10:56.000Z</time>
        <extensions>
          <ns3:TrackPointExtension>
            <ns3:hr>142</ns3:hr>
            <ns3:cad>0</ns3:cad>
          </ns3:TrackPointExtension>
        </extensions>
      </trkpt>
      <trkpt lat="44.6981601230800151824951171875" lon="6.76421656273305416107177734375">
        <ele>1861</ele>
        <time>2026-09-03T07:10:57.000Z</time>
        <extensions>
          <ns3:TrackPointExtension>
            <ns3:hr>143</ns3:hr>
            <ns3:cad>0</ns3:cad>
          </ns3:TrackPointExtension>
        </extensions>
      </trkpt>
      <trkpt lat="44.6981567703187465667724609375" lon="6.764237098395824432373046875">
        <ele>1861.199951171875</ele>
        <time>2026-09-03T07:10:58.000Z</time>
        <extensions>
          <ns3:TrackPointExtension>
            <ns3:hr>143</ns3:hr>
            <ns3:cad>0</ns3:cad>
          </ns3:TrackPointExtension>
        </extensions>
      </trkpt>
      <trkpt lat="44.69815400429069995880126953125" lon="6.7642469890415668487548828125">
        <ele>1861.4000244140625</ele>
        <time>2026-09-03T07:10:59.000Z</time>
        <extensions>
          <ns3:TrackPointExtension>
            <ns3:hr>143</ns3:hr>
            <ns3:cad>0</ns3:cad>
          </ns3:TrackPointExtension>
        </extensions>
      </trkpt>
      <trkpt lat="44.69814629293978214263916015625" lon="6.7642627470195293426513671875">
        <ele>1861.5999755859375</ele>
        <time>2026-09-03T07:11:00.000Z</time>
        <extensions>
          <ns3:TrackPointExtension>
            <ns3:hr>144</ns3:hr>
            <ns3:cad>0</ns3:cad>
          </ns3:TrackPointExtension>
        </extensions>
      </trkpt>
      <trkpt lat="44.6981423534452915191650390625" lon="6.764275319874286651611328125">
        <ele>1861.800048828125</ele>
        <time>2026-09-03T07:11:01.000Z</time>
        <extensions>
          <ns3:TrackPointExtension>
            <ns3:hr>144</ns3:hr>
            <ns3:cad>50</ns3:cad>
          </ns3:TrackPointExtension>
        </extensions>
      </trkpt>
      <trkpt lat="44.69813774339854717254638671875" lon="6.7642899043858051300048828125">
        <ele>1862</ele>
        <time>2026-09-03T07:11:02.000Z</time>
        <extensions>
          <ns3:TrackPointExtension>
            <ns3:hr>144</ns3:hr>
            <ns3:cad>53</ns3:cad>
          </ns3:TrackPointExtension>
        </extensions>
      </trkpt>
      <trkpt lat="44.69813271425664424896240234375" lon="6.764305494725704193115234375">
        <ele>1862.199951171875</ele>
        <time>2026-09-03T07:11:03.000Z</time>
        <extensions>
          <ns3:TrackPointExtension>
            <ns3:hr>144</ns3:hr>
            <ns3:cad>55</ns3:cad>
          </ns3:TrackPointExtension>
        </extensions>
      </trkpt>
      <trkpt lat="44.6981249190866947174072265625" lon="6.76432133652269840240478515625">
        <ele>1862.4000244140625</ele>
        <time>2026-09-03T07:11:04.000Z</time>
        <extensions>
          <ns3:TrackPointExtension>
            <ns3:hr>145</ns3:hr>
            <ns3:cad>55</ns3:cad>
          </ns3:TrackPointExtension>
        </extensions>
      </trkpt>
      <trkpt lat="44.69811997376382350921630859375" lon="6.76433173008263111114501953125">
        <ele>1862.5999755859375</ele>
        <time>2026-09-03T07:11:05.000Z</time>
        <extensions>
          <ns3:TrackPointExtension>
            <ns3:hr>145</ns3:hr>
            <ns3:cad>55</ns3:cad>
          </ns3:TrackPointExtension>
        </extensions>
      </trkpt>
      <trkpt lat="44.6981162019073963165283203125" lon="6.764340363442897796630859375">
        <ele>1862.800048828125</ele>
        <time>2026-09-03T07:11:06.000Z</time>
        <extensions>
          <ns3:TrackPointExtension>
            <ns3:hr>145</ns3:hr>
            <ns3:cad>55</ns3:cad>
          </ns3:TrackPointExtension>
        </extensions>
      </trkpt>
      <trkpt lat="44.6981106698513031005859375" lon="6.76435410976409912109375">
        <ele>1863</ele>
        <time>2026-09-03T07:11:07.000Z</time>
        <extensions>
          <ns3:TrackPointExtension>
            <ns3:hr>145</ns3:hr>
            <ns3:cad>55</ns3:cad>
          </ns3:TrackPointExtension>
        </extensions>
      </trkpt>
      <trkpt lat="44.698104970157146453857421875" lon="6.7643656767904758453369140625">
        <ele>1863.199951171875</ele>
        <time>2026-09-03T07:11:08.000Z</time>
        <extensions>
          <ns3:TrackPointExtension>
            <ns3:hr>145</ns3:hr>
            <ns3:cad>0</ns3:cad>
          </ns3:TrackPointExtension>
        </extensions>
      </trkpt>
      <trkpt lat="44.69809792935848236083984375" lon="6.76438000984489917755126953125">
        <ele>1863.4000244140625</ele>
        <time>2026-09-03T07:11:09.000Z</time>
        <extensions>
          <ns3:TrackPointExtension>
            <ns3:hr>145</ns3:hr>
            <ns3:cad>0</ns3:cad>
          </ns3:TrackPointExtension>
        </extensions>
      </trkpt>
      <trkpt lat="44.69809315167367458343505859375" lon="6.76439124159514904022216796875">
        <ele>1863.5999755859375</ele>
        <time>2026-09-03T07:11:10.000Z</time>
        <extensions>
          <ns3:TrackPointExtension>
            <ns3:hr>145</ns3:hr>
            <ns3:cad>0</ns3:cad>
          </ns3:TrackPointExtension>
        </extensions>
      </trkpt>
      <trkpt lat="44.69808594323694705963134765625" lon="6.76440431736409664154052734375">
        <ele>1863.800048828125</ele>
        <time>2026-09-03T07:11:11.000Z</time>
        <extensions>
          <ns3:TrackPointExtension>
            <ns3:hr>145</ns3:hr>
            <ns3:cad>0</ns3:cad>
          </ns3:TrackPointExtension>
        </extensions>
      </trkpt>
      <trkpt lat="44.69807974062860012054443359375" lon="6.76441655494272708892822265625">
        <ele>1863.800048828125</ele>
        <time>2026-09-03T07:11:12.000Z</time>
        <extensions>
          <ns3:TrackPointExtension>
            <ns3:hr>145</ns3:hr>
            <ns3:cad>0</ns3:cad>
          </ns3:TrackPointExtension>
        </extensions>
      </trkpt>
      <trkpt lat="44.698072783648967742919921875" lon="6.764429546892642974853515625">
        <ele>1864.199951171875</ele>
        <time>2026-09-03T07:11:13.000Z</time>
        <extensions>
          <ns3:TrackPointExtension>
            <ns3:hr>145</ns3:hr>
            <ns3:cad>0</ns3:cad>
          </ns3:TrackPointExtension>
        </extensions>
      </trkpt>
      <trkpt lat="44.69806800596415996551513671875" lon="6.7644370906054973602294921875">
        <ele>1864.199951171875</ele>
        <time>2026-09-03T07:11:14.000Z</time>
        <extensions>
          <ns3:TrackPointExtension>
            <ns3:hr>145</ns3:hr>
            <ns3:cad>0</ns3:cad>
          </ns3:TrackPointExtension>
        </extensions>
      </trkpt>
      <trkpt lat="44.698061384260654449462890625" lon="6.7644494958221912384033203125">
        <ele>1864.4000244140625</ele>
        <time>2026-09-03T07:11:15.000Z</time>
        <extensions>
          <ns3:TrackPointExtension>
            <ns3:hr>145</ns3:hr>
            <ns3:cad>0</ns3:cad>
          </ns3:TrackPointExtension>
        </extensions>
      </trkpt>
      <trkpt lat="44.69805459491908550262451171875" lon="6.76445804536342620849609375">
        <ele>1864.800048828125</ele>
        <time>2026-09-03T07:11:16.000Z</time>
        <extensions>
          <ns3:TrackPointExtension>
            <ns3:hr>146</ns3:hr>
            <ns3:cad>0</ns3:cad>
          </ns3:TrackPointExtension>
        </extensions>
      </trkpt>
      <trkpt lat="44.698045291006565093994140625" lon="6.76447212696075439453125">
        <ele>1865</ele>
        <time>2026-09-03T07:11:17.000Z</time>
        <extensions>
          <ns3:TrackPointExtension>
            <ns3:hr>146</ns3:hr>
            <ns3:cad>0</ns3:cad>
          </ns3:TrackPointExtension>
        </extensions>
      </trkpt>
      <trkpt lat="44.6980360709130764007568359375" lon="6.76447816193103790283203125">
        <ele>1865.199951171875</ele>
        <time>2026-09-03T07:11:18.000Z</time>
        <extensions>
          <ns3:TrackPointExtension>
            <ns3:hr>146</ns3:hr>
            <ns3:cad>0</ns3:cad>
          </ns3:TrackPointExtension>
        </extensions>
      </trkpt>
      <trkpt lat="44.698029868304729461669921875" lon="6.764491237699985504150390625">
        <ele>1865.4000244140625</ele>
        <time>2026-09-03T07:11:19.000Z</time>
        <extensions>
          <ns3:TrackPointExtension>
            <ns3:hr>147</ns3:hr>
            <ns3:cad>56</ns3:cad>
          </ns3:TrackPointExtension>
        </extensions>
      </trkpt>
      <trkpt lat="44.69802173785865306854248046875" lon="6.764503978192806243896484375">
        <ele>1865.5999755859375</ele>
        <time>2026-09-03T07:11:20.000Z</time>
        <extensions>
          <ns3:TrackPointExtension>
            <ns3:hr>149</ns3:hr>
            <ns3:cad>56</ns3:cad>
          </ns3:TrackPointExtension>
        </extensions>
      </trkpt>
      <trkpt lat="44.69801218248903751373291015625" lon="6.76451646722853183746337890625">
        <ele>1865.800048828125</ele>
        <time>2026-09-03T07:11:21.000Z</time>
        <extensions>
          <ns3:TrackPointExtension>
            <ns3:hr>149</ns3:hr>
            <ns3:cad>56</ns3:cad>
          </ns3:TrackPointExtension>
        </extensions>
      </trkpt>
      <trkpt lat="44.69800614751875400543212890625" lon="6.76452619023621082305908203125">
        <ele>1865.800048828125</ele>
        <time>2026-09-03T07:11:22.000Z</time>
        <extensions>
          <ns3:TrackPointExtension>
            <ns3:hr>149</ns3:hr>
            <ns3:cad>56</ns3:cad>
          </ns3:TrackPointExtension>
        </extensions>
      </trkpt>
      <trkpt lat="44.69799709506332874298095703125" lon="6.76454010419547557830810546875">
        <ele>1866</ele>
        <time>2026-09-03T07:11:23.000Z</time>
        <extensions>
          <ns3:TrackPointExtension>
            <ns3:hr>149</ns3:hr>
            <ns3:cad>56</ns3:cad>
          </ns3:TrackPointExtension>
        </extensions>
      </trkpt>
      <trkpt lat="44.69799223355948925018310546875" lon="6.7645510844886302947998046875">
        <ele>1866.199951171875</ele>
        <time>2026-09-03T07:11:24.000Z</time>
        <extensions>
          <ns3:TrackPointExtension>
            <ns3:hr>149</ns3:hr>
            <ns3:cad>56</ns3:cad>
          </ns3:TrackPointExtension>
        </extensions>
      </trkpt>
      <trkpt lat="44.69798586331307888031005859375" lon="6.7645574547350406646728515625">
        <ele>1866.5999755859375</ele>
        <time>2026-09-03T07:11:25.000Z</time>
        <extensions>
          <ns3:TrackPointExtension>
            <ns3:hr>149</ns3:hr>
            <ns3:cad>0</ns3:cad>
          </ns3:TrackPointExtension>
        </extensions>
      </trkpt>
      <trkpt lat="44.6979784034192562103271484375" lon="6.76456575281918048858642578125">
        <ele>1866.800048828125</ele>
        <time>2026-09-03T07:11:26.000Z</time>
        <extensions>
          <ns3:TrackPointExtension>
            <ns3:hr>149</ns3:hr>
            <ns3:cad>0</ns3:cad>
          </ns3:TrackPointExtension>
        </extensions>
      </trkpt>
      <trkpt lat="44.69797027297317981719970703125" lon="6.76457664929330348968505859375">
        <ele>1867</ele>
        <time>2026-09-03T07:11:27.000Z</time>
        <extensions>
          <ns3:TrackPointExtension>
            <ns3:hr>149</ns3:hr>
            <ns3:cad>0</ns3:cad>
          </ns3:TrackPointExtension>
        </extensions>
      </trkpt>
      <trkpt lat="44.69796272926032543182373046875" lon="6.7645872943103313446044921875">
        <ele>1867.199951171875</ele>
        <time>2026-09-03T07:11:28.000Z</time>
        <extensions>
          <ns3:TrackPointExtension>
            <ns3:hr>149</ns3:hr>
            <ns3:cad>0</ns3:cad>
          </ns3:TrackPointExtension>
        </extensions>
      </trkpt>
      <trkpt lat="44.69795803539454936981201171875" lon="6.76459458656609058380126953125">
        <ele>1867.4000244140625</ele>
        <time>2026-09-03T07:11:29.000Z</time>
        <extensions>
          <ns3:TrackPointExtension>
            <ns3:hr>149</ns3:hr>
            <ns3:cad>0</ns3:cad>
          </ns3:TrackPointExtension>
        </extensions>
      </trkpt>
      <trkpt lat="44.69795350916683673858642578125" lon="6.764603219926357269287109375">
        <ele>1867.800048828125</ele>
        <time>2026-09-03T07:11:30.000Z</time>
        <extensions>
          <ns3:TrackPointExtension>
            <ns3:hr>148</ns3:hr>
            <ns3:cad>0</ns3:cad>
          </ns3:TrackPointExtension>
        </extensions>
      </trkpt>
      <trkpt lat="44.69794680364429950714111328125" lon="6.7646129429340362548828125">
        <ele>1868</ele>
        <time>2026-09-03T07:11:31.000Z</time>
        <extensions>
          <ns3:TrackPointExtension>
            <ns3:hr>148</ns3:hr>
            <ns3:cad>0</ns3:cad>
          </ns3:TrackPointExtension>
        </extensions>
      </trkpt>
      <trkpt lat="44.697943031787872314453125" lon="6.76462392322719097137451171875">
        <ele>1868.199951171875</ele>
        <time>2026-09-03T07:11:32.000Z</time>
        <extensions>
          <ns3:TrackPointExtension>
            <ns3:hr>149</ns3:hr>
            <ns3:cad>0</ns3:cad>
          </ns3:TrackPointExtension>
        </extensions>
      </trkpt>
      <trkpt lat="44.69793875701725482940673828125" lon="6.76463373005390167236328125">
        <ele>1868.4000244140625</ele>
        <time>2026-09-03T07:11:33.000Z</time>
        <extensions>
          <ns3:TrackPointExtension>
            <ns3:hr>149</ns3:hr>
            <ns3:cad>54</ns3:cad>
          </ns3:TrackPointExtension>
        </extensions>
      </trkpt>
      <trkpt lat="44.6979318000376224517822265625" lon="6.76464538089931011199951171875">
        <ele>1868.5999755859375</ele>
        <time>2026-09-03T07:11:34.000Z</time>
        <extensions>
          <ns3:TrackPointExtension>
            <ns3:hr>148</ns3:hr>
            <ns3:cad>54</ns3:cad>
          </ns3:TrackPointExtension>
        </extensions>
      </trkpt>
      <trkpt lat="44.69792618416249752044677734375" lon="6.7646530084311962127685546875">
        <ele>1868.800048828125</ele>
        <time>2026-09-03T07:11:35.000Z</time>
        <extensions>
          <ns3:TrackPointExtension>
            <ns3:hr>148</ns3:hr>
            <ns3:cad>53</ns3:cad>
          </ns3:TrackPointExtension>
        </extensions>
      </trkpt>
      <trkpt lat="44.6979183889925479888916015625" lon="6.76466650329530239105224609375">
        <ele>1869</ele>
        <time>2026-09-03T07:11:36.000Z</time>
        <extensions>
          <ns3:TrackPointExtension>
            <ns3:hr>149</ns3:hr>
            <ns3:cad>53</ns3:cad>
          </ns3:TrackPointExtension>
        </extensions>
      </trkpt>
      <trkpt lat="44.69791126437485218048095703125" lon="6.7646781541407108306884765625">
        <ele>1869.199951171875</ele>
        <time>2026-09-03T07:11:37.000Z</time>
        <extensions>
          <ns3:TrackPointExtension>
            <ns3:hr>149</ns3:hr>
            <ns3:cad>53</ns3:cad>
          </ns3:TrackPointExtension>
        </extensions>
      </trkpt>
      <trkpt lat="44.69790556468069553375244140625" lon="6.764691062271595001220703125">
        <ele>1869.4000244140625</ele>
        <time>2026-09-03T07:11:38.000Z</time>
        <extensions>
          <ns3:TrackPointExtension>
            <ns3:hr>149</ns3:hr>
            <ns3:cad>54</ns3:cad>
          </ns3:TrackPointExtension>
        </extensions>
      </trkpt>
      <trkpt lat="44.6979002840816974639892578125" lon="6.7647014558315277099609375">
        <ele>1869.5999755859375</ele>
        <time>2026-09-03T07:11:39.000Z</time>
        <extensions>
          <ns3:TrackPointExtension>
            <ns3:hr>148</ns3:hr>
            <ns3:cad>54</ns3:cad>
          </ns3:TrackPointExtension>
        </extensions>
      </trkpt>
      <trkpt lat="44.69789139926433563232421875" lon="6.76471830345690250396728515625">
        <ele>1869.5999755859375</ele>
        <time>2026-09-03T07:11:40.000Z</time>
        <extensions>
          <ns3:TrackPointExtension>
            <ns3:hr>149</ns3:hr>
            <ns3:cad>54</ns3:cad>
          </ns3:TrackPointExtension>
        </extensions>
      </trkpt>
      <trkpt lat="44.69788444228470325469970703125" lon="6.76473255269229412078857421875">
        <ele>1869.800048828125</ele>
        <time>2026-09-03T07:11:41.000Z</time>
        <extensions>
          <ns3:TrackPointExtension>
            <ns3:hr>149</ns3:hr>
            <ns3:cad>56</ns3:cad>
          </ns3:TrackPointExtension>
        </extensions>
      </trkpt>
      <trkpt lat="44.69787505455315113067626953125" lon="6.7647497355937957763671875">
        <ele>1870</ele>
        <time>2026-09-03T07:11:42.000Z</time>
        <extensions>
          <ns3:TrackPointExtension>
            <ns3:hr>150</ns3:hr>
            <ns3:cad>56</ns3:cad>
          </ns3:TrackPointExtension>
        </extensions>
      </trkpt>
      <trkpt lat="44.6978701092302799224853515625" lon="6.76475987769663333892822265625">
        <ele>1870.199951171875</ele>
        <time>2026-09-03T07:11:43.000Z</time>
        <extensions>
          <ns3:TrackPointExtension>
            <ns3:hr>150</ns3:hr>
            <ns3:cad>56</ns3:cad>
          </ns3:TrackPointExtension>
        </extensions>
      </trkpt>
      <trkpt lat="44.697862230241298675537109375" lon="6.76476993598043918609619140625">
        <ele>1870.4000244140625</ele>
        <time>2026-09-03T07:11:44.000Z</time>
        <extensions>
          <ns3:TrackPointExtension>
            <ns3:hr>151</ns3:hr>
            <ns3:cad>56</ns3:cad>
          </ns3:TrackPointExtension>
        </extensions>
      </trkpt>
      <trkpt lat="44.6978560276329517364501953125" lon="6.76477278582751750946044921875">
        <ele>1870.5999755859375</ele>
        <time>2026-09-03T07:11:45.000Z</time>
        <extensions>
          <ns3:TrackPointExtension>
            <ns3:hr>153</ns3:hr>
            <ns3:cad>56</ns3:cad>
          </ns3:TrackPointExtension>
        </extensions>
      </trkpt>
      <trkpt lat="44.69784907065331935882568359375" lon="6.7647819221019744873046875">
        <ele>1871</ele>
        <time>2026-09-03T07:11:46.000Z</time>
        <extensions>
          <ns3:TrackPointExtension>
            <ns3:hr>157</ns3:hr>
            <ns3:cad>0</ns3:cad>
          </ns3:TrackPointExtension>
        </extensions>
      </trkpt>
      <trkpt lat="44.697843454778194427490234375" lon="6.7647884599864482879638671875">
        <ele>1871.199951171875</ele>
        <time>2026-09-03T07:11:47.000Z</time>
        <extensions>
          <ns3:TrackPointExtension>
            <ns3:hr>159</ns3:hr>
            <ns3:cad>0</ns3:cad>
          </ns3:TrackPointExtension>
        </extensions>
      </trkpt>
      <trkpt lat="44.697838760912418365478515625" lon="6.76479491405189037322998046875">
        <ele>1871.199951171875</ele>
        <time>2026-09-03T07:11:48.000Z</time>
        <extensions>
          <ns3:TrackPointExtension>
            <ns3:hr>160</ns3:hr>
            <ns3:cad>0</ns3:cad>
          </ns3:TrackPointExtension>
        </extensions>
      </trkpt>
      <trkpt lat="44.6978342346847057342529296875" lon="6.76480078138411045074462890625">
        <ele>1871.4000244140625</ele>
        <time>2026-09-03T07:11:49.000Z</time>
        <extensions>
          <ns3:TrackPointExtension>
            <ns3:hr>160</ns3:hr>
            <ns3:cad>0</ns3:cad>
          </ns3:TrackPointExtension>
        </extensions>
      </trkpt>
      <trkpt lat="44.6978308819234371185302734375" lon="6.76481000147759914398193359375">
        <ele>1871.5999755859375</ele>
        <time>2026-09-03T07:11:50.000Z</time>
        <extensions>
          <ns3:TrackPointExtension>
            <ns3:hr>161</ns3:hr>
            <ns3:cad>0</ns3:cad>
          </ns3:TrackPointExtension>
        </extensions>
      </trkpt>
      <trkpt lat="44.69782342202961444854736328125" lon="6.764821149408817291259765625">
        <ele>1871.800048828125</ele>
        <time>2026-09-03T07:11:51.000Z</time>
        <extensions>
          <ns3:TrackPointExtension>
            <ns3:hr>161</ns3:hr>
            <ns3:cad>0</ns3:cad>
          </ns3:TrackPointExtension>
        </extensions>
      </trkpt>
      <trkpt lat="44.697819314897060394287109375" lon="6.76482617855072021484375">
        <ele>1872</ele>
        <time>2026-09-03T07:11:52.000Z</time>
        <extensions>
          <ns3:TrackPointExtension>
            <ns3:hr>161</ns3:hr>
            <ns3:cad>0</ns3:cad>
          </ns3:TrackPointExtension>
        </extensions>
      </trkpt>
      <trkpt lat="44.69781537540256977081298828125" lon="6.76484671421349048614501953125">
        <ele>1872.199951171875</ele>
        <time>2026-09-03T07:11:53.000Z</time>
        <extensions>
          <ns3:TrackPointExtension>
            <ns3:hr>162</ns3:hr>
            <ns3:cad>0</ns3:cad>
          </ns3:TrackPointExtension>
        </extensions>
      </trkpt>
      <trkpt lat="44.69780556857585906982421875" lon="6.76485341973602771759033203125">
        <ele>1872.4000244140625</ele>
        <time>2026-09-03T07:11:54.000Z</time>
        <extensions>
          <ns3:TrackPointExtension>
            <ns3:hr>162</ns3:hr>
            <ns3:cad>0</ns3:cad>
          </ns3:TrackPointExtension>
        </extensions>
      </trkpt>
      <trkpt lat="44.69779551029205322265625" lon="6.76487185992300510406494140625">
        <ele>1872.5999755859375</ele>
        <time>2026-09-03T07:11:55.000Z</time>
        <extensions>
          <ns3:TrackPointExtension>
            <ns3:hr>162</ns3:hr>
            <ns3:cad>0</ns3:cad>
          </ns3:TrackPointExtension>
        </extensions>
      </trkpt>
      <trkpt lat="44.69778922386467456817626953125" lon="6.76488108001649379730224609375">
        <ele>1872.800048828125</ele>
        <time>2026-09-03T07:11:56.000Z</time>
        <extensions>
          <ns3:TrackPointExtension>
            <ns3:hr>161</ns3:hr>
            <ns3:cad>0</ns3:cad>
          </ns3:TrackPointExtension>
        </extensions>
      </trkpt>
      <trkpt lat="44.6977795846760272979736328125" lon="6.76489398814737796783447265625">
        <ele>1873</ele>
        <time>2026-09-03T07:11:57.000Z</time>
        <extensions>
          <ns3:TrackPointExtension>
            <ns3:hr>162</ns3:hr>
            <ns3:cad>0</ns3:cad>
          </ns3:TrackPointExtension>
        </extensions>
      </trkpt>
      <trkpt lat="44.6977725438773632049560546875" lon="6.76490220241248607635498046875">
        <ele>1873</ele>
        <time>2026-09-03T07:11:58.000Z</time>
        <extensions>
          <ns3:TrackPointExtension>
            <ns3:hr>162</ns3:hr>
            <ns3:cad>0</ns3:cad>
          </ns3:TrackPointExtension>
        </extensions>
      </trkpt>
      <trkpt lat="44.69776206649839878082275390625" lon="6.76491645164787769317626953125">
        <ele>1873.199951171875</ele>
        <time>2026-09-03T07:11:59.000Z</time>
        <extensions>
          <ns3:TrackPointExtension>
            <ns3:hr>162</ns3:hr>
            <ns3:cad>0</ns3:cad>
          </ns3:TrackPointExtension>
        </extensions>
      </trkpt>
      <trkpt lat="44.697754271328449249267578125" lon="6.7649267613887786865234375">
        <ele>1873.4000244140625</ele>
        <time>2026-09-03T07:12:00.000Z</time>
        <extensions>
          <ns3:TrackPointExtension>
            <ns3:hr>162</ns3:hr>
            <ns3:cad>0</ns3:cad>
          </ns3:TrackPointExtension>
        </extensions>
      </trkpt>
      <trkpt lat="44.697744213044643402099609375" lon="6.76494746468961238861083984375">
        <ele>1873.800048828125</ele>
        <time>2026-09-03T07:12:01.000Z</time>
        <extensions>
          <ns3:TrackPointExtension>
            <ns3:hr>162</ns3:hr>
            <ns3:cad>0</ns3:cad>
          </ns3:TrackPointExtension>
        </extensions>
      </trkpt>
      <trkpt lat="44.69773625023663043975830078125" lon="6.76496003754436969757080078125">
        <ele>1874</ele>
        <time>2026-09-03T07:12:02.000Z</time>
        <extensions>
          <ns3:TrackPointExtension>
            <ns3:hr>163</ns3:hr>
            <ns3:cad>0</ns3:cad>
          </ns3:TrackPointExtension>
        </extensions>
      </trkpt>
      <trkpt lat="44.6977297961711883544921875" lon="6.76496875472366809844970703125">
        <ele>1874.199951171875</ele>
        <time>2026-09-03T07:12:03.000Z</time>
        <extensions>
          <ns3:TrackPointExtension>
            <ns3:hr>163</ns3:hr>
            <ns3:cad>0</ns3:cad>
          </ns3:TrackPointExtension>
        </extensions>
      </trkpt>
      <trkpt lat="44.6977269463241100311279296875" lon="6.76497973501682281494140625">
        <ele>1874.4000244140625</ele>
        <time>2026-09-03T07:12:04.000Z</time>
        <extensions>
          <ns3:TrackPointExtension>
            <ns3:hr>163</ns3:hr>
            <ns3:cad>0</ns3:cad>
          </ns3:TrackPointExtension>
        </extensions>
      </trkpt>
      <trkpt lat="44.69772367738187313079833984375" lon="6.764985434710979461669921875">
        <ele>1874.5999755859375</ele>
        <time>2026-09-03T07:12:05.000Z</time>
        <extensions>
          <ns3:TrackPointExtension>
            <ns3:hr>163</ns3:hr>
            <ns3:cad>0</ns3:cad>
          </ns3:TrackPointExtension>
        </extensions>
      </trkpt>
      <trkpt lat="44.69771261326968669891357421875" lon="6.7649980075657367706298828125">
        <ele>1874.5999755859375</ele>
        <time>2026-09-03T07:12:06.000Z</time>
        <extensions>
          <ns3:TrackPointExtension>
            <ns3:hr>163</ns3:hr>
            <ns3:cad>0</ns3:cad>
          </ns3:TrackPointExtension>
        </extensions>
      </trkpt>
      <trkpt lat="44.69770758412778377532958984375" lon="6.7650050483644008636474609375">
        <ele>1874.800048828125</ele>
        <time>2026-09-03T07:12:07.000Z</time>
        <extensions>
          <ns3:TrackPointExtension>
            <ns3:hr>163</ns3:hr>
            <ns3:cad>0</ns3:cad>
          </ns3:TrackPointExtension>
        </extensions>
      </trkpt>
      <trkpt lat="44.6977075003087520599365234375" lon="6.76500529982149600982666015625">
        <ele>1875</ele>
        <time>2026-09-03T07:12:08.000Z</time>
        <extensions>
          <ns3:TrackPointExtension>
            <ns3:hr>163</ns3:hr>
            <ns3:cad>0</ns3:cad>
          </ns3:TrackPointExtension>
        </extensions>
      </trkpt>
      <trkpt lat="44.6977014653384685516357421875" lon="6.7650151066482067108154296875">
        <ele>1875.199951171875</ele>
        <time>2026-09-03T07:12:09.000Z</time>
        <extensions>
          <ns3:TrackPointExtension>
            <ns3:hr>163</ns3:hr>
            <ns3:cad>0</ns3:cad>
          </ns3:TrackPointExtension>
        </extensions>
      </trkpt>
      <trkpt lat="44.6976920776069164276123046875" lon="6.76502860151231288909912109375">
        <ele>1875.5999755859375</ele>
        <time>2026-09-03T07:12:10.000Z</time>
        <extensions>
          <ns3:TrackPointExtension>
            <ns3:hr>163</ns3:hr>
            <ns3:cad>0</ns3:cad>
          </ns3:TrackPointExtension>
        </extensions>
      </trkpt>
      <trkpt lat="44.6976857073605060577392578125" lon="6.76504201255738735198974609375">
        <ele>1875.5999755859375</ele>
        <time>2026-09-03T07:12:11.000Z</time>
        <extensions>
          <ns3:TrackPointExtension>
            <ns3:hr>163</ns3:hr>
            <ns3:cad>0</ns3:cad>
          </ns3:TrackPointExtension>
        </extensions>
      </trkpt>
      <trkpt lat="44.69767891801893711090087890625" lon="6.765059195458889007568359375">
        <ele>1876</ele>
        <time>2026-09-03T07:12:12.000Z</time>
        <extensions>
          <ns3:TrackPointExtension>
            <ns3:hr>163</ns3:hr>
            <ns3:cad>0</ns3:cad>
          </ns3:TrackPointExtension>
        </extensions>
      </trkpt>
      <trkpt lat="44.6976736374199390411376953125" lon="6.7650689184665679931640625">
        <ele>1876.199951171875</ele>
        <time>2026-09-03T07:12:13.000Z</time>
        <extensions>
          <ns3:TrackPointExtension>
            <ns3:hr>163</ns3:hr>
            <ns3:cad>0</ns3:cad>
          </ns3:TrackPointExtension>
        </extensions>
      </trkpt>
      <trkpt lat="44.6976665966212749481201171875" lon="6.76507805474102497100830078125">
        <ele>1876.4000244140625</ele>
        <time>2026-09-03T07:12:14.000Z</time>
        <extensions>
          <ns3:TrackPointExtension>
            <ns3:hr>163</ns3:hr>
            <ns3:cad>0</ns3:cad>
          </ns3:TrackPointExtension>
        </extensions>
      </trkpt>
      <trkpt lat="44.6976608969271183013916015625" lon="6.765090040862560272216796875">
        <ele>1876.5999755859375</ele>
        <time>2026-09-03T07:12:15.000Z</time>
        <extensions>
          <ns3:TrackPointExtension>
            <ns3:hr>164</ns3:hr>
            <ns3:cad>0</ns3:cad>
          </ns3:TrackPointExtension>
        </extensions>
      </trkpt>
      <trkpt lat="44.69764924608170986175537109375" lon="6.765104122459888458251953125">
        <ele>1876.800048828125</ele>
        <time>2026-09-03T07:12:16.000Z</time>
        <extensions>
          <ns3:TrackPointExtension>
            <ns3:hr>163</ns3:hr>
            <ns3:cad>0</ns3:cad>
          </ns3:TrackPointExtension>
        </extensions>
      </trkpt>
      <trkpt lat="44.69764455221593379974365234375" lon="6.765110827982425689697265625">
        <ele>1877</ele>
        <time>2026-09-03T07:12:17.000Z</time>
        <extensions>
          <ns3:TrackPointExtension>
            <ns3:hr>164</ns3:hr>
            <ns3:cad>0</ns3:cad>
          </ns3:TrackPointExtension>
        </extensions>
      </trkpt>
      <trkpt lat="44.69763332046568393707275390625" lon="6.76512164063751697540283203125">
        <ele>1877</ele>
        <time>2026-09-03T07:12:18.000Z</time>
        <extensions>
          <ns3:TrackPointExtension>
            <ns3:hr>164</ns3:hr>
            <ns3:cad>0</ns3:cad>
          </ns3:TrackPointExtension>
        </extensions>
      </trkpt>
      <trkpt lat="44.69762627966701984405517578125" lon="6.76513505168259143829345703125">
        <ele>1877.199951171875</ele>
        <time>2026-09-03T07:12:19.000Z</time>
        <extensions>
          <ns3:TrackPointExtension>
            <ns3:hr>163</ns3:hr>
            <ns3:cad>0</ns3:cad>
          </ns3:TrackPointExtension>
        </extensions>
      </trkpt>
      <trkpt lat="44.69761420972645282745361328125" lon="6.765142343938350677490234375">
        <ele>1877.4000244140625</ele>
        <time>2026-09-03T07:12:20.000Z</time>
        <extensions>
          <ns3:TrackPointExtension>
            <ns3:hr>163</ns3:hr>
            <ns3:cad>53</ns3:cad>
          </ns3:TrackPointExtension>
        </extensions>
      </trkpt>
      <trkpt lat="44.6976059116423130035400390625" lon="6.765151061117649078369140625">
        <ele>1877.5999755859375</ele>
        <time>2026-09-03T07:12:21.000Z</time>
        <extensions>
          <ns3:TrackPointExtension>
            <ns3:hr>163</ns3:hr>
            <ns3:cad>53</ns3:cad>
          </ns3:TrackPointExtension>
        </extensions>
      </trkpt>
      <trkpt lat="44.69759878702461719512939453125" lon="6.7651574313640594482421875">
        <ele>1877.800048828125</ele>
        <time>2026-09-03T07:12:22.000Z</time>
        <extensions>
          <ns3:TrackPointExtension>
            <ns3:hr>163</ns3:hr>
            <ns3:cad>53</ns3:cad>
          </ns3:TrackPointExtension>
        </extensions>
      </trkpt>
      <trkpt lat="44.6975918300449848175048828125" lon="6.76516455598175525665283203125">
        <ele>1878.199951171875</ele>
        <time>2026-09-03T07:12:23.000Z</time>
        <extensions>
          <ns3:TrackPointExtension>
            <ns3:hr>164</ns3:hr>
            <ns3:cad>53</ns3:cad>
          </ns3:TrackPointExtension>
        </extensions>
      </trkpt>
      <trkpt lat="44.69758738763630390167236328125" lon="6.7651713453233242034912109375">
        <ele>1878.4000244140625</ele>
        <time>2026-09-03T07:12:24.000Z</time>
        <extensions>
          <ns3:TrackPointExtension>
            <ns3:hr>163</ns3:hr>
            <ns3:cad>0</ns3:cad>
          </ns3:TrackPointExtension>
        </extensions>
      </trkpt>
      <trkpt lat="44.69758353196084499359130859375" lon="6.76517687737941741943359375">
        <ele>1878.5999755859375</ele>
        <time>2026-09-03T07:12:25.000Z</time>
        <extensions>
          <ns3:TrackPointExtension>
            <ns3:hr>163</ns3:hr>
            <ns3:cad>0</ns3:cad>
          </ns3:TrackPointExtension>
        </extensions>
      </trkpt>
      <trkpt lat="44.697577916085720062255859375" lon="6.7651827447116374969482421875">
        <ele>1878.5999755859375</ele>
        <time>2026-09-03T07:12:26.000Z</time>
        <extensions>
          <ns3:TrackPointExtension>
            <ns3:hr>163</ns3:hr>
            <ns3:cad>53</ns3:cad>
          </ns3:TrackPointExtension>
        </extensions>
      </trkpt>
      <trkpt lat="44.69757431186735630035400390625" lon="6.7651934735476970672607421875">
        <ele>1878.800048828125</ele>
        <time>2026-09-03T07:12:27.000Z</time>
        <extensions>
          <ns3:TrackPointExtension>
            <ns3:hr>163</ns3:hr>
            <ns3:cad>53</ns3:cad>
          </ns3:TrackPointExtension>
        </extensions>
      </trkpt>
      <trkpt lat="44.6975688636302947998046875" lon="6.765204370021820068359375">
        <ele>1879</ele>
        <time>2026-09-03T07:12:28.000Z</time>
        <extensions>
          <ns3:TrackPointExtension>
            <ns3:hr>163</ns3:hr>
            <ns3:cad>53</ns3:cad>
          </ns3:TrackPointExtension>
        </extensions>
      </trkpt>
      <trkpt lat="44.6975609846413135528564453125" lon="6.7652149312198162078857421875">
        <ele>1879.199951171875</ele>
        <time>2026-09-03T07:12:29.000Z</time>
        <extensions>
          <ns3:TrackPointExtension>
            <ns3:hr>162</ns3:hr>
            <ns3:cad>0</ns3:cad>
          </ns3:TrackPointExtension>
        </extensions>
      </trkpt>
      <trkpt lat="44.6975549496710300445556640625" lon="6.765224821865558624267578125">
        <ele>1879.4000244140625</ele>
        <time>2026-09-03T07:12:30.000Z</time>
        <extensions>
          <ns3:TrackPointExtension>
            <ns3:hr>162</ns3:hr>
            <ns3:cad>0</ns3:cad>
          </ns3:TrackPointExtension>
        </extensions>
      </trkpt>
      <trkpt lat="44.6975489147007465362548828125" lon="6.7652327008545398712158203125">
        <ele>1879.800048828125</ele>
        <time>2026-09-03T07:12:31.000Z</time>
        <extensions>
          <ns3:TrackPointExtension>
            <ns3:hr>162</ns3:hr>
            <ns3:cad>0</ns3:cad>
          </ns3:TrackPointExtension>
        </extensions>
      </trkpt>
      <trkpt lat="44.6975412033498287200927734375" lon="6.76524259150028228759765625">
        <ele>1880</ele>
        <time>2026-09-03T07:12:32.000Z</time>
        <extensions>
          <ns3:TrackPointExtension>
            <ns3:hr>162</ns3:hr>
            <ns3:cad>0</ns3:cad>
          </ns3:TrackPointExtension>
        </extensions>
      </trkpt>
      <trkpt lat="44.69753692857921123504638671875" lon="6.765252314507961273193359375">
        <ele>1880.199951171875</ele>
        <time>2026-09-03T07:12:33.000Z</time>
        <extensions>
          <ns3:TrackPointExtension>
            <ns3:hr>162</ns3:hr>
            <ns3:cad>0</ns3:cad>
          </ns3:TrackPointExtension>
        </extensions>
      </trkpt>
      <trkpt lat="44.69753198325634002685546875" lon="6.7652606964111328125">
        <ele>1880.4000244140625</ele>
        <time>2026-09-03T07:12:34.000Z</time>
        <extensions>
          <ns3:TrackPointExtension>
            <ns3:hr>161</ns3:hr>
            <ns3:cad>0</ns3:cad>
          </ns3:TrackPointExtension>
        </extensions>
      </trkpt>
      <trkpt lat="44.69752804376184940338134765625" lon="6.76526807248592376708984375">
        <ele>1880.5999755859375</ele>
        <time>2026-09-03T07:12:35.000Z</time>
        <extensions>
          <ns3:TrackPointExtension>
            <ns3:hr>161</ns3:hr>
            <ns3:cad>0</ns3:cad>
          </ns3:TrackPointExtension>
        </extensions>
      </trkpt>
      <trkpt lat="44.69752117060124874114990234375" lon="6.7652796395123004913330078125">
        <ele>1880.800048828125</ele>
        <time>2026-09-03T07:12:36.000Z</time>
        <extensions>
          <ns3:TrackPointExtension>
            <ns3:hr>161</ns3:hr>
            <ns3:cad>0</ns3:cad>
          </ns3:TrackPointExtension>
        </extensions>
      </trkpt>
      <trkpt lat="44.697518236935138702392578125" lon="6.76529112271964550018310546875">
        <ele>1881</ele>
        <time>2026-09-03T07:12:37.000Z</time>
        <extensions>
          <ns3:TrackPointExtension>
            <ns3:hr>161</ns3:hr>
            <ns3:cad>0</ns3:cad>
          </ns3:TrackPointExtension>
        </extensions>
      </trkpt>
      <trkpt lat="44.69751144759356975555419921875" lon="6.76530319266021251678466796875">
        <ele>1881.4000244140625</ele>
        <time>2026-09-03T07:12:38.000Z</time>
        <extensions>
          <ns3:TrackPointExtension>
            <ns3:hr>161</ns3:hr>
            <ns3:cad>0</ns3:cad>
          </ns3:TrackPointExtension>
        </extensions>
      </trkpt>
      <trkpt lat="44.69750189222395420074462890625" lon="6.76531501114368438720703125">
        <ele>1881.5999755859375</ele>
        <time>2026-09-03T07:12:39.000Z</time>
        <extensions>
          <ns3:TrackPointExtension>
            <ns3:hr>161</ns3:hr>
            <ns3:cad>0</ns3:cad>
          </ns3:TrackPointExtension>
        </extensions>
      </trkpt>
      <trkpt lat="44.6974935941398143768310546875" lon="6.7653309367597103118896484375">
        <ele>1881.800048828125</ele>
        <time>2026-09-03T07:12:40.000Z</time>
        <extensions>
          <ns3:TrackPointExtension>
            <ns3:hr>161</ns3:hr>
            <ns3:cad>0</ns3:cad>
          </ns3:TrackPointExtension>
        </extensions>
      </trkpt>
      <trkpt lat="44.69748781062662601470947265625" lon="6.765334792435169219970703125">
        <ele>1882</ele>
        <time>2026-09-03T07:12:41.000Z</time>
        <extensions>
          <ns3:TrackPointExtension>
            <ns3:hr>162</ns3:hr>
            <ns3:cad>0</ns3:cad>
          </ns3:TrackPointExtension>
        </extensions>
      </trkpt>
      <trkpt lat="44.6974790096282958984375" lon="6.76534677855670452117919921875">
        <ele>1882.199951171875</ele>
        <time>2026-09-03T07:12:42.000Z</time>
        <extensions>
          <ns3:TrackPointExtension>
            <ns3:hr>162</ns3:hr>
            <ns3:cad>0</ns3:cad>
          </ns3:TrackPointExtension>
        </extensions>
      </trkpt>
      <trkpt lat="44.69747289083898067474365234375" lon="6.76535658538341522216796875">
        <ele>1882.4000244140625</ele>
        <time>2026-09-03T07:12:43.000Z</time>
        <extensions>
          <ns3:TrackPointExtension>
            <ns3:hr>162</ns3:hr>
            <ns3:cad>0</ns3:cad>
          </ns3:TrackPointExtension>
        </extensions>
      </trkpt>
      <trkpt lat="44.69746685586869716644287109375" lon="6.76536354236304759979248046875">
        <ele>1882.5999755859375</ele>
        <time>2026-09-03T07:12:44.000Z</time>
        <extensions>
          <ns3:TrackPointExtension>
            <ns3:hr>163</ns3:hr>
            <ns3:cad>0</ns3:cad>
          </ns3:TrackPointExtension>
        </extensions>
      </trkpt>
      <trkpt lat="44.69746216200292110443115234375" lon="6.76536991260945796966552734375">
        <ele>1882.5999755859375</ele>
        <time>2026-09-03T07:12:45.000Z</time>
        <extensions>
          <ns3:TrackPointExtension>
            <ns3:hr>163</ns3:hr>
            <ns3:cad>0</ns3:cad>
          </ns3:TrackPointExtension>
        </extensions>
      </trkpt>
      <trkpt lat="44.6974526904523372650146484375" lon="6.7653832398355007171630859375">
        <ele>1882.800048828125</ele>
        <time>2026-09-03T07:12:46.000Z</time>
        <extensions>
          <ns3:TrackPointExtension>
            <ns3:hr>163</ns3:hr>
            <ns3:cad>0</ns3:cad>
          </ns3:TrackPointExtension>
        </extensions>
      </trkpt>
      <trkpt lat="44.69744456000626087188720703125" lon="6.7653934657573699951171875">
        <ele>1883</ele>
        <time>2026-09-03T07:12:47.000Z</time>
        <extensions>
          <ns3:TrackPointExtension>
            <ns3:hr>163</ns3:hr>
            <ns3:cad>0</ns3:cad>
          </ns3:TrackPointExtension>
        </extensions>
      </trkpt>
      <trkpt lat="44.69743232242763042449951171875" lon="6.7654053680598735809326171875">
        <ele>1883.199951171875</ele>
        <time>2026-09-03T07:12:48.000Z</time>
        <extensions>
          <ns3:TrackPointExtension>
            <ns3:hr>164</ns3:hr>
            <ns3:cad>0</ns3:cad>
          </ns3:TrackPointExtension>
        </extensions>
      </trkpt>
      <trkpt lat="44.6974251978099346160888671875" lon="6.7654164321720600128173828125">
        <ele>1883.4000244140625</ele>
        <time>2026-09-03T07:12:49.000Z</time>
        <extensions>
          <ns3:TrackPointExtension>
            <ns3:hr>164</ns3:hr>
            <ns3:cad>0</ns3:cad>
          </ns3:TrackPointExtension>
        </extensions>
      </trkpt>
      <trkpt lat="44.6974164806306362152099609375" lon="6.76542699337005615234375">
        <ele>1883.5999755859375</ele>
        <time>2026-09-03T07:12:50.000Z</time>
        <extensions>
          <ns3:TrackPointExtension>
            <ns3:hr>164</ns3:hr>
            <ns3:cad>0</ns3:cad>
          </ns3:TrackPointExtension>
        </extensions>
      </trkpt>
      <trkpt lat="44.69741304405033588409423828125" lon="6.765434704720973968505859375">
        <ele>1883.800048828125</ele>
        <time>2026-09-03T07:12:51.000Z</time>
        <extensions>
          <ns3:TrackPointExtension>
            <ns3:hr>164</ns3:hr>
            <ns3:cad>0</ns3:cad>
          </ns3:TrackPointExtension>
        </extensions>
      </trkpt>
      <trkpt lat="44.697406925261020660400390625" lon="6.765446104109287261962890625">
        <ele>1884</ele>
        <time>2026-09-03T07:12:52.000Z</time>
        <extensions>
          <ns3:TrackPointExtension>
            <ns3:hr>164</ns3:hr>
            <ns3:cad>0</ns3:cad>
          </ns3:TrackPointExtension>
        </extensions>
      </trkpt>
      <trkpt lat="44.69739980064332485198974609375" lon="6.7654570005834102630615234375">
        <ele>1884.199951171875</ele>
        <time>2026-09-03T07:12:53.000Z</time>
        <extensions>
          <ns3:TrackPointExtension>
            <ns3:hr>164</ns3:hr>
            <ns3:cad>0</ns3:cad>
          </ns3:TrackPointExtension>
        </extensions>
      </trkpt>
      <trkpt lat="44.69739292748272418975830078125" lon="6.76547317765653133392333984375">
        <ele>1884.4000244140625</ele>
        <time>2026-09-03T07:12:54.000Z</time>
        <extensions>
          <ns3:TrackPointExtension>
            <ns3:hr>164</ns3:hr>
            <ns3:cad>0</ns3:cad>
          </ns3:TrackPointExtension>
        </extensions>
      </trkpt>
      <trkpt lat="44.69738739542663097381591796875" lon="6.76548759452998638153076171875">
        <ele>1884.5999755859375</ele>
        <time>2026-09-03T07:12:55.000Z</time>
        <extensions>
          <ns3:TrackPointExtension>
            <ns3:hr>164</ns3:hr>
            <ns3:cad>0</ns3:cad>
          </ns3:TrackPointExtension>
        </extensions>
      </trkpt>
      <trkpt lat="44.6973842941224575042724609375" lon="6.765500418841838836669921875">
        <ele>1885</ele>
        <time>2026-09-03T07:12:56.000Z</time>
        <extensions>
          <ns3:TrackPointExtension>
            <ns3:hr>164</ns3:hr>
            <ns3:cad>0</ns3:cad>
          </ns3:TrackPointExtension>
        </extensions>
      </trkpt>
      <trkpt lat="44.69737968407571315765380859375" lon="6.7655069567263126373291015625">
        <ele>1885.199951171875</ele>
        <time>2026-09-03T07:12:57.000Z</time>
        <extensions>
          <ns3:TrackPointExtension>
            <ns3:hr>164</ns3:hr>
            <ns3:cad>0</ns3:cad>
          </ns3:TrackPointExtension>
        </extensions>
      </trkpt>
      <trkpt lat="44.69737381674349308013916015625" lon="6.76552154123783111572265625">
        <ele>1885.4000244140625</ele>
        <time>2026-09-03T07:12:58.000Z</time>
        <extensions>
          <ns3:TrackPointExtension>
            <ns3:hr>164</ns3:hr>
            <ns3:cad>0</ns3:cad>
          </ns3:TrackPointExtension>
        </extensions>
      </trkpt>
      <trkpt lat="44.69737012870609760284423828125" lon="6.76552548073232173919677734375">
        <ele>1885.4000244140625</ele>
        <time>2026-09-03T07:12:59.000Z</time>
        <extensions>
          <ns3:TrackPointExtension>
            <ns3:hr>164</ns3:hr>
            <ns3:cad>0</ns3:cad>
          </ns3:TrackPointExtension>
        </extensions>
      </trkpt>
      <trkpt lat="44.697370044887065887451171875" lon="6.7655257321894168853759765625">
        <ele>1885.5999755859375</ele>
        <time>2026-09-03T07:13:00.000Z</time>
        <extensions>
          <ns3:TrackPointExtension>
            <ns3:hr>165</ns3:hr>
            <ns3:cad>0</ns3:cad>
          </ns3:TrackPointExtension>
        </extensions>
      </trkpt>
      <trkpt lat="44.69736794941127300262451171875" lon="6.76554157398641109466552734375">
        <ele>1885.800048828125</ele>
        <time>2026-09-03T07:13:01.000Z</time>
        <extensions>
          <ns3:TrackPointExtension>
            <ns3:hr>164</ns3:hr>
            <ns3:cad>41</ns3:cad>
          </ns3:TrackPointExtension>
        </extensions>
      </trkpt>
      <trkpt lat="44.69736694358289241790771484375" lon="6.7655606009066104888916015625">
        <ele>1886.199951171875</ele>
        <time>2026-09-03T07:13:02.000Z</time>
        <extensions>
          <ns3:TrackPointExtension>
            <ns3:hr>165</ns3:hr>
            <ns3:cad>41</ns3:cad>
          </ns3:TrackPointExtension>
        </extensions>
      </trkpt>
      <trkpt lat="44.69736434519290924072265625" lon="6.7655780352652072906494140625">
        <ele>1886.199951171875</ele>
        <time>2026-09-03T07:13:03.000Z</time>
        <extensions>
          <ns3:TrackPointExtension>
            <ns3:hr>165</ns3:hr>
            <ns3:cad>41</ns3:cad>
          </ns3:TrackPointExtension>
        </extensions>
      </trkpt>
      <trkpt lat="44.69735990278422832489013671875" lon="6.76559588871896266937255859375">
        <ele>1886.4000244140625</ele>
        <time>2026-09-03T07:13:04.000Z</time>
        <extensions>
          <ns3:TrackPointExtension>
            <ns3:hr>165</ns3:hr>
            <ns3:cad>41</ns3:cad>
          </ns3:TrackPointExtension>
        </extensions>
      </trkpt>
      <trkpt lat="44.69735219143331050872802734375" lon="6.7656055279076099395751953125">
        <ele>1886.5999755859375</ele>
        <time>2026-09-03T07:13:05.000Z</time>
        <extensions>
          <ns3:TrackPointExtension>
            <ns3:hr>165</ns3:hr>
            <ns3:cad>40</ns3:cad>
          </ns3:TrackPointExtension>
        </extensions>
      </trkpt>
      <trkpt lat="44.6973433904349803924560546875" lon="6.76561986096203327178955078125">
        <ele>1886.800048828125</ele>
        <time>2026-09-03T07:13:06.000Z</time>
        <extensions>
          <ns3:TrackPointExtension>
            <ns3:hr>164</ns3:hr>
            <ns3:cad>40</ns3:cad>
          </ns3:TrackPointExtension>
        </extensions>
      </trkpt>
      <trkpt lat="44.69733844511210918426513671875" lon="6.765632517635822296142578125">
        <ele>1886.800048828125</ele>
        <time>2026-09-03T07:13:07.000Z</time>
        <extensions>
          <ns3:TrackPointExtension>
            <ns3:hr>165</ns3:hr>
            <ns3:cad>40</ns3:cad>
          </ns3:TrackPointExtension>
        </extensions>
      </trkpt>
      <trkpt lat="44.69733341597020626068115234375" lon="6.7656370438635349273681640625">
        <ele>1887</ele>
        <time>2026-09-03T07:13:08.000Z</time>
        <extensions>
          <ns3:TrackPointExtension>
            <ns3:hr>165</ns3:hr>
            <ns3:cad>0</ns3:cad>
          </ns3:TrackPointExtension>
        </extensions>
      </trkpt>
      <trkpt lat="44.69732603989541530609130859375" lon="6.7656544782221317291259765625">
        <ele>1887.199951171875</ele>
        <time>2026-09-03T07:13:09.000Z</time>
        <extensions>
          <ns3:TrackPointExtension>
            <ns3:hr>165</ns3:hr>
            <ns3:cad>0</ns3:cad>
          </ns3:TrackPointExtension>
        </extensions>
      </trkpt>
      <trkpt lat="44.697320424020290374755859375" lon="6.76566545851528644561767578125">
        <ele>1887.4000244140625</ele>
        <time>2026-09-03T07:13:10.000Z</time>
        <extensions>
          <ns3:TrackPointExtension>
            <ns3:hr>165</ns3:hr>
            <ns3:cad>0</ns3:cad>
          </ns3:TrackPointExtension>
        </extensions>
      </trkpt>
      <trkpt lat="44.6973115392029285430908203125" lon="6.765681467950344085693359375">
        <ele>1887.5999755859375</ele>
        <time>2026-09-03T07:13:11.000Z</time>
        <extensions>
          <ns3:TrackPointExtension>
            <ns3:hr>165</ns3:hr>
            <ns3:cad>0</ns3:cad>
          </ns3:TrackPointExtension>
        </extensions>
      </trkpt>
      <trkpt lat="44.69730592332780361175537109375" lon="6.76569278351962566375732421875">
        <ele>1887.800048828125</ele>
        <time>2026-09-03T07:13:12.000Z</time>
        <extensions>
          <ns3:TrackPointExtension>
            <ns3:hr>166</ns3:hr>
            <ns3:cad>0</ns3:cad>
          </ns3:TrackPointExtension>
        </extensions>
      </trkpt>
      <trkpt lat="44.69730198383331298828125" lon="6.76570703275501728057861328125">
        <ele>1888</ele>
        <time>2026-09-03T07:13:13.000Z</time>
        <extensions>
          <ns3:TrackPointExtension>
            <ns3:hr>165</ns3:hr>
            <ns3:cad>0</ns3:cad>
          </ns3:TrackPointExtension>
        </extensions>
      </trkpt>
      <trkpt lat="44.69729905016720294952392578125" lon="6.76571876741945743560791015625">
        <ele>1888.199951171875</ele>
        <time>2026-09-03T07:13:14.000Z</time>
        <extensions>
          <ns3:TrackPointExtension>
            <ns3:hr>165</ns3:hr>
            <ns3:cad>52</ns3:cad>
          </ns3:TrackPointExtension>
        </extensions>
      </trkpt>
      <trkpt lat="44.69729536212980747222900390625" lon="6.76572916097939014434814453125">
        <ele>1888.5999755859375</ele>
        <time>2026-09-03T07:13:15.000Z</time>
        <extensions>
          <ns3:TrackPointExtension>
            <ns3:hr>165</ns3:hr>
            <ns3:cad>52</ns3:cad>
          </ns3:TrackPointExtension>
        </extensions>
      </trkpt>
      <trkpt lat="44.6972897462546825408935546875" lon="6.76574106328189373016357421875">
        <ele>1888.800048828125</ele>
        <time>2026-09-03T07:13:16.000Z</time>
        <extensions>
          <ns3:TrackPointExtension>
            <ns3:hr>165</ns3:hr>
            <ns3:cad>52</ns3:cad>
          </ns3:TrackPointExtension>
        </extensions>
      </trkpt>
      <trkpt lat="44.6972830407321453094482421875" lon="6.76574659533798694610595703125">
        <ele>1889</ele>
        <time>2026-09-03T07:13:17.000Z</time>
        <extensions>
          <ns3:TrackPointExtension>
            <ns3:hr>165</ns3:hr>
            <ns3:cad>52</ns3:cad>
          </ns3:TrackPointExtension>
        </extensions>
      </trkpt>
      <trkpt lat="44.69727373681962490081787109375" lon="6.76575849764049053192138671875">
        <ele>1889.199951171875</ele>
        <time>2026-09-03T07:13:18.000Z</time>
        <extensions>
          <ns3:TrackPointExtension>
            <ns3:hr>165</ns3:hr>
            <ns3:cad>52</ns3:cad>
          </ns3:TrackPointExtension>
        </extensions>
      </trkpt>
      <trkpt lat="44.69726778566837310791015625" lon="6.765767969191074371337890625">
        <ele>1889.4000244140625</ele>
        <time>2026-09-03T07:13:19.000Z</time>
        <extensions>
          <ns3:TrackPointExtension>
            <ns3:hr>165</ns3:hr>
            <ns3:cad>52</ns3:cad>
          </ns3:TrackPointExtension>
        </extensions>
      </trkpt>
      <trkpt lat="44.697260744869709014892578125" lon="6.76578037440776824951171875">
        <ele>1889.5999755859375</ele>
        <time>2026-09-03T07:13:20.000Z</time>
        <extensions>
          <ns3:TrackPointExtension>
            <ns3:hr>165</ns3:hr>
            <ns3:cad>0</ns3:cad>
          </ns3:TrackPointExtension>
        </extensions>
      </trkpt>
      <trkpt lat="44.69725647009909152984619140625" lon="6.76578783430159091949462890625">
        <ele>1889.800048828125</ele>
        <time>2026-09-03T07:13:21.000Z</time>
        <extensions>
          <ns3:TrackPointExtension>
            <ns3:hr>165</ns3:hr>
            <ns3:cad>0</ns3:cad>
          </ns3:TrackPointExtension>
        </extensions>
      </trkpt>
      <trkpt lat="44.69724942930042743682861328125" lon="6.76579806022346019744873046875">
        <ele>1890</ele>
        <time>2026-09-03T07:13:22.000Z</time>
        <extensions>
          <ns3:TrackPointExtension>
            <ns3:hr>165</ns3:hr>
            <ns3:cad>0</ns3:cad>
          </ns3:TrackPointExtension>
        </extensions>
      </trkpt>
      <trkpt lat="44.6972434781491756439208984375" lon="6.76580694504082202911376953125">
        <ele>1890.199951171875</ele>
        <time>2026-09-03T07:13:23.000Z</time>
        <extensions>
          <ns3:TrackPointExtension>
            <ns3:hr>164</ns3:hr>
            <ns3:cad>0</ns3:cad>
          </ns3:TrackPointExtension>
        </extensions>
      </trkpt>
      <trkpt lat="44.69722998328506946563720703125" lon="6.76581524312496185302734375">
        <ele>1890.4000244140625</ele>
        <time>2026-09-03T07:13:24.000Z</time>
        <extensions>
          <ns3:TrackPointExtension>
            <ns3:hr>165</ns3:hr>
            <ns3:cad>0</ns3:cad>
          </ns3:TrackPointExtension>
        </extensions>
      </trkpt>
      <trkpt lat="44.6972200088202953338623046875" lon="6.76582370884716510772705078125">
        <ele>1890.5999755859375</ele>
        <time>2026-09-03T07:13:25.000Z</time>
        <extensions>
          <ns3:TrackPointExtension>
            <ns3:hr>165</ns3:hr>
            <ns3:cad>0</ns3:cad>
          </ns3:TrackPointExtension>
        </extensions>
      </trkpt>
      <trkpt lat="44.697208441793918609619140625" lon="6.76583125256001949310302734375">
        <ele>1890.800048828125</ele>
        <time>2026-09-03T07:13:26.000Z</time>
        <extensions>
          <ns3:TrackPointExtension>
            <ns3:hr>165</ns3:hr>
            <ns3:cad>0</ns3:cad>
          </ns3:TrackPointExtension>
        </extensions>
      </trkpt>
      <trkpt lat="44.697197377681732177734375" lon="6.765839718282222747802734375">
        <ele>1891</ele>
        <time>2026-09-03T07:13:27.000Z</time>
        <extensions>
          <ns3:TrackPointExtension>
            <ns3:hr>165</ns3:hr>
            <ns3:cad>0</ns3:cad>
          </ns3:TrackPointExtension>
        </extensions>
      </trkpt>
      <trkpt lat="44.69718053005635738372802734375" lon="6.76583175547420978546142578125">
        <ele>1891</ele>
        <time>2026-09-03T07:13:28.000Z</time>
        <extensions>
          <ns3:TrackPointExtension>
            <ns3:hr>165</ns3:hr>
            <ns3:cad>0</ns3:cad>
          </ns3:TrackPointExtension>
        </extensions>
      </trkpt>
      <trkpt lat="44.6971670351922512054443359375" lon="6.765832342207431793212890625">
        <ele>1891.199951171875</ele>
        <time>2026-09-03T07:13:29.000Z</time>
        <extensions>
          <ns3:TrackPointExtension>
            <ns3:hr>165</ns3:hr>
            <ns3:cad>0</ns3:cad>
          </ns3:TrackPointExtension>
        </extensions>
      </trkpt>
      <trkpt lat="44.69715035520493984222412109375" lon="6.7658293247222900390625">
        <ele>1891.199951171875</ele>
        <time>2026-09-03T07:13:30.000Z</time>
        <extensions>
          <ns3:TrackPointExtension>
            <ns3:hr>164</ns3:hr>
            <ns3:cad>0</ns3:cad>
          </ns3:TrackPointExtension>
        </extensions>
      </trkpt>
      <trkpt lat="44.69713895581662654876708984375" lon="6.765827648341655731201171875">
        <ele>1891.199951171875</ele>
        <time>2026-09-03T07:13:31.000Z</time>
        <extensions>
          <ns3:TrackPointExtension>
            <ns3:hr>164</ns3:hr>
            <ns3:cad>0</ns3:cad>
          </ns3:TrackPointExtension>
        </extensions>
      </trkpt>
      <trkpt lat="44.697122275829315185546875" lon="6.76582220010459423065185546875">
        <ele>1891.199951171875</ele>
        <time>2026-09-03T07:13:32.000Z</time>
        <extensions>
          <ns3:TrackPointExtension>
            <ns3:hr>164</ns3:hr>
            <ns3:cad>0</ns3:cad>
          </ns3:TrackPointExtension>
        </extensions>
      </trkpt>
      <trkpt lat="44.6971103735268115997314453125" lon="6.7658194340765476226806640625">
        <ele>1891.199951171875</ele>
        <time>2026-09-03T07:13:33.000Z</time>
        <extensions>
          <ns3:TrackPointExtension>
            <ns3:hr>164</ns3:hr>
            <ns3:cad>0</ns3:cad>
          </ns3:TrackPointExtension>
        </extensions>
      </trkpt>
      <trkpt lat="44.69710358418524265289306640625" lon="6.76581616513431072235107421875">
        <ele>1891.4000244140625</ele>
        <time>2026-09-03T07:13:34.000Z</time>
        <extensions>
          <ns3:TrackPointExtension>
            <ns3:hr>163</ns3:hr>
            <ns3:cad>0</ns3:cad>
          </ns3:TrackPointExtension>
        </extensions>
      </trkpt>
      <trkpt lat="44.69710148870944976806640625" lon="6.76581230945885181427001953125">
        <ele>1891.4000244140625</ele>
        <time>2026-09-03T07:13:35.000Z</time>
        <extensions>
          <ns3:TrackPointExtension>
            <ns3:hr>163</ns3:hr>
            <ns3:cad>0</ns3:cad>
          </ns3:TrackPointExtension>
        </extensions>
      </trkpt>
      <trkpt lat="44.69710148870944976806640625" lon="6.765812225639820098876953125">
        <ele>1891.4000244140625</ele>
        <time>2026-09-03T07:13:36.000Z</time>
        <extensions>
          <ns3:TrackPointExtension>
            <ns3:hr>163</ns3:hr>
            <ns3:cad>0</ns3:cad>
          </ns3:TrackPointExtension>
        </extensions>
      </trkpt>
      <trkpt lat="44.69710148870944976806640625" lon="6.765812225639820098876953125">
        <ele>1891.4000244140625</ele>
        <time>2026-09-03T07:13:37.000Z</time>
        <extensions>
          <ns3:TrackPointExtension>
            <ns3:hr>164</ns3:hr>
            <ns3:cad>0</ns3:cad>
          </ns3:TrackPointExtension>
        </extensions>
      </trkpt>
      <trkpt lat="44.6971013210713863372802734375" lon="6.76581214182078838348388671875">
        <ele>1891.4000244140625</ele>
        <time>2026-09-03T07:13:38.000Z</time>
        <extensions>
          <ns3:TrackPointExtension>
            <ns3:hr>163</ns3:hr>
            <ns3:cad>0</ns3:cad>
          </ns3:TrackPointExtension>
        </extensions>
      </trkpt>
      <trkpt lat="44.69709285534918308258056640625" lon="6.76581650041043758392333984375">
        <ele>1891.4000244140625</ele>
        <time>2026-09-03T07:13:39.000Z</time>
        <extensions>
          <ns3:TrackPointExtension>
            <ns3:hr>162</ns3:hr>
            <ns3:cad>0</ns3:cad>
          </ns3:TrackPointExtension>
        </extensions>
      </trkpt>
      <trkpt lat="44.69708363525569438934326171875" lon="6.76582002080976963043212890625">
        <ele>1891.5999755859375</ele>
        <time>2026-09-03T07:13:40.000Z</time>
        <extensions>
          <ns3:TrackPointExtension>
            <ns3:hr>162</ns3:hr>
            <ns3:cad>0</ns3:cad>
          </ns3:TrackPointExtension>
        </extensions>
      </trkpt>
      <trkpt lat="44.697077684104442596435546875" lon="6.765823625028133392333984375">
        <ele>1891.800048828125</ele>
        <time>2026-09-03T07:13:41.000Z</time>
        <extensions>
          <ns3:TrackPointExtension>
            <ns3:hr>162</ns3:hr>
            <ns3:cad>0</ns3:cad>
          </ns3:TrackPointExtension>
        </extensions>
      </trkpt>
      <trkpt lat="44.69706284813582897186279296875" lon="6.7658304981887340545654296875">
        <ele>1892</ele>
        <time>2026-09-03T07:13:42.000Z</time>
        <extensions>
          <ns3:TrackPointExtension>
            <ns3:hr>162</ns3:hr>
            <ns3:cad>0</ns3:cad>
          </ns3:TrackPointExtension>
        </extensions>
      </trkpt>
      <trkpt lat="44.69705530442297458648681640625" lon="6.76583460532128810882568359375">
        <ele>1892.4000244140625</ele>
        <time>2026-09-03T07:13:43.000Z</time>
        <extensions>
          <ns3:TrackPointExtension>
            <ns3:hr>163</ns3:hr>
            <ns3:cad>0</ns3:cad>
          </ns3:TrackPointExtension>
        </extensions>
      </trkpt>
      <trkpt lat="44.69704977236688137054443359375" lon="6.7658348567783832550048828125">
        <ele>1892.5999755859375</ele>
        <time>2026-09-03T07:13:44.000Z</time>
        <extensions>
          <ns3:TrackPointExtension>
            <ns3:hr>163</ns3:hr>
            <ns3:cad>47</ns3:cad>
          </ns3:TrackPointExtension>
        </extensions>
      </trkpt>
      <trkpt lat="44.697042144834995269775390625" lon="6.76584181375801563262939453125">
        <ele>1892.800048828125</ele>
        <time>2026-09-03T07:13:45.000Z</time>
        <extensions>
          <ns3:TrackPointExtension>
            <ns3:hr>163</ns3:hr>
            <ns3:cad>47</ns3:cad>
          </ns3:TrackPointExtension>
        </extensions>
      </trkpt>
      <trkpt lat="44.6970392949879169464111328125" lon="6.76584499888122081756591796875">
        <ele>1893</ele>
        <time>2026-09-03T07:13:46.000Z</time>
        <extensions>
          <ns3:TrackPointExtension>
            <ns3:hr>163</ns3:hr>
            <ns3:cad>47</ns3:cad>
          </ns3:TrackPointExtension>
        </extensions>
      </trkpt>
      <trkpt lat="44.69703166745603084564208984375" lon="6.76584902219474315643310546875">
        <ele>1893.199951171875</ele>
        <time>2026-09-03T07:13:47.000Z</time>
        <extensions>
          <ns3:TrackPointExtension>
            <ns3:hr>163</ns3:hr>
            <ns3:cad>0</ns3:cad>
          </ns3:TrackPointExtension>
        </extensions>
      </trkpt>
      <trkpt lat="44.6970225311815738677978515625" lon="6.76584969274699687957763671875">
        <ele>1893.4000244140625</ele>
        <time>2026-09-03T07:13:48.000Z</time>
        <extensions>
          <ns3:TrackPointExtension>
            <ns3:hr>163</ns3:hr>
            <ns3:cad>0</ns3:cad>
          </ns3:TrackPointExtension>
        </extensions>
      </trkpt>
      <trkpt lat="44.6970121376216411590576171875" lon="6.7658509500324726104736328125">
        <ele>1893.5999755859375</ele>
        <time>2026-09-03T07:13:49.000Z</time>
        <extensions>
          <ns3:TrackPointExtension>
            <ns3:hr>162</ns3:hr>
            <ns3:cad>0</ns3:cad>
          </ns3:TrackPointExtension>
        </extensions>
      </trkpt>
      <trkpt lat="44.697000570595264434814453125" lon="6.76585220731794834136962890625">
        <ele>1893.800048828125</ele>
        <time>2026-09-03T07:13:50.000Z</time>
        <extensions>
          <ns3:TrackPointExtension>
            <ns3:hr>162</ns3:hr>
            <ns3:cad>0</ns3:cad>
          </ns3:TrackPointExtension>
        </extensions>
      </trkpt>
      <trkpt lat="44.6969883330166339874267578125" lon="6.76585438661277294158935546875">
        <ele>1894</ele>
        <time>2026-09-03T07:13:51.000Z</time>
        <extensions>
          <ns3:TrackPointExtension>
            <ns3:hr>162</ns3:hr>
            <ns3:cad>0</ns3:cad>
          </ns3:TrackPointExtension>
        </extensions>
      </trkpt>
      <trkpt lat="44.6969826333224773406982421875" lon="6.76585991866886615753173828125">
        <ele>1894</ele>
        <time>2026-09-03T07:13:52.000Z</time>
        <extensions>
          <ns3:TrackPointExtension>
            <ns3:hr>161</ns3:hr>
            <ns3:cad>0</ns3:cad>
          </ns3:TrackPointExtension>
        </extensions>
      </trkpt>
      <trkpt lat="44.6969772689044475555419921875" lon="6.76586226560175418853759765625">
        <ele>1894.199951171875</ele>
        <time>2026-09-03T07:13:53.000Z</time>
        <extensions>
          <ns3:TrackPointExtension>
            <ns3:hr>161</ns3:hr>
            <ns3:cad>0</ns3:cad>
          </ns3:TrackPointExtension>
        </extensions>
      </trkpt>
      <trkpt lat="44.69696444459259510040283203125" lon="6.76587131805717945098876953125">
        <ele>1894.4000244140625</ele>
        <time>2026-09-03T07:13:54.000Z</time>
        <extensions>
          <ns3:TrackPointExtension>
            <ns3:hr>161</ns3:hr>
            <ns3:cad>0</ns3:cad>
          </ns3:TrackPointExtension>
        </extensions>
      </trkpt>
      <trkpt lat="44.69695405103266239166259765625" lon="6.76587433554232120513916015625">
        <ele>1894.800048828125</ele>
        <time>2026-09-03T07:13:55.000Z</time>
        <extensions>
          <ns3:TrackPointExtension>
            <ns3:hr>161</ns3:hr>
            <ns3:cad>0</ns3:cad>
          </ns3:TrackPointExtension>
        </extensions>
      </trkpt>
      <trkpt lat="44.6969417296350002288818359375" lon="6.7658787779510021209716796875">
        <ele>1895</ele>
        <time>2026-09-03T07:13:56.000Z</time>
        <extensions>
          <ns3:TrackPointExtension>
            <ns3:hr>162</ns3:hr>
            <ns3:cad>0</ns3:cad>
          </ns3:TrackPointExtension>
        </extensions>
      </trkpt>
      <trkpt lat="44.69694684259593486785888671875" lon="6.76587768830358982086181640625">
        <ele>1895.4000244140625</ele>
        <time>2026-09-03T07:13:57.000Z</time>
        <extensions>
          <ns3:TrackPointExtension>
            <ns3:hr>161</ns3:hr>
            <ns3:cad>0</ns3:cad>
          </ns3:TrackPointExtension>
        </extensions>
      </trkpt>
      <trkpt lat="44.6969465911388397216796875" lon="6.76587785594165325164794921875">
        <ele>1895.5999755859375</ele>
        <time>2026-09-03T07:13:58.000Z</time>
        <extensions>
          <ns3:TrackPointExtension>
            <ns3:hr>161</ns3:hr>
            <ns3:cad>0</ns3:cad>
          </ns3:TrackPointExtension>
        </extensions>
      </trkpt>
      <trkpt lat="44.69693678431212902069091796875" lon="6.76588363945484161376953125">
        <ele>1896</ele>
        <time>2026-09-03T07:13:59.000Z</time>
        <extensions>
          <ns3:TrackPointExtension>
            <ns3:hr>161</ns3:hr>
            <ns3:cad>0</ns3:cad>
          </ns3:TrackPointExtension>
        </extensions>
      </trkpt>
      <trkpt lat="44.6969179250299930572509765625" lon="6.765894033014774322509765625">
        <ele>1896.199951171875</ele>
        <time>2026-09-03T07:14:00.000Z</time>
        <extensions>
          <ns3:TrackPointExtension>
            <ns3:hr>161</ns3:hr>
            <ns3:cad>0</ns3:cad>
          </ns3:TrackPointExtension>
        </extensions>
      </trkpt>
      <trkpt lat="44.69690929166972637176513671875" lon="6.76590300165116786956787109375">
        <ele>1896.4000244140625</ele>
        <time>2026-09-03T07:14:01.000Z</time>
        <extensions>
          <ns3:TrackPointExtension>
            <ns3:hr>161</ns3:hr>
            <ns3:cad>0</ns3:cad>
          </ns3:TrackPointExtension>
        </extensions>
      </trkpt>
      <trkpt lat="44.69689822755753993988037109375" lon="6.76591624505817890167236328125">
        <ele>1896.5999755859375</ele>
        <time>2026-09-03T07:14:02.000Z</time>
        <extensions>
          <ns3:TrackPointExtension>
            <ns3:hr>161</ns3:hr>
            <ns3:cad>0</ns3:cad>
          </ns3:TrackPointExtension>
        </extensions>
      </trkpt>
      <trkpt lat="44.69688967801630496978759765625" lon="6.76592261530458927154541015625">
        <ele>1896.800048828125</ele>
        <time>2026-09-03T07:14:03.000Z</time>
        <extensions>
          <ns3:TrackPointExtension>
            <ns3:hr>160</ns3:hr>
            <ns3:cad>0</ns3:cad>
          </ns3:TrackPointExtension>
        </extensions>
      </trkpt>
      <trkpt lat="44.6968803741037845611572265625" lon="6.76592814736068248748779296875">
        <ele>1896.800048828125</ele>
        <time>2026-09-03T07:14:04.000Z</time>
        <extensions>
          <ns3:TrackPointExtension>
            <ns3:hr>161</ns3:hr>
            <ns3:cad>0</ns3:cad>
          </ns3:TrackPointExtension>
        </extensions>
      </trkpt>
      <trkpt lat="44.6968753449618816375732421875" lon="6.7659374512732028961181640625">
        <ele>1897</ele>
        <time>2026-09-03T07:14:05.000Z</time>
        <extensions>
          <ns3:TrackPointExtension>
            <ns3:hr>161</ns3:hr>
            <ns3:cad>0</ns3:cad>
          </ns3:TrackPointExtension>
        </extensions>
      </trkpt>
      <trkpt lat="44.69687308184802532196044921875" lon="6.76593585871160030364990234375">
        <ele>1897.199951171875</ele>
        <time>2026-09-03T07:14:06.000Z</time>
        <extensions>
          <ns3:TrackPointExtension>
            <ns3:hr>161</ns3:hr>
            <ns3:cad>0</ns3:cad>
          </ns3:TrackPointExtension>
        </extensions>
      </trkpt>
      <trkpt lat="44.6968632750213146209716796875" lon="6.7659481801092624664306640625">
        <ele>1897.4000244140625</ele>
        <time>2026-09-03T07:14:07.000Z</time>
        <extensions>
          <ns3:TrackPointExtension>
            <ns3:hr>161</ns3:hr>
            <ns3:cad>0</ns3:cad>
          </ns3:TrackPointExtension>
        </extensions>
      </trkpt>
      <trkpt lat="44.6968569047749042510986328125" lon="6.7659548856317996978759765625">
        <ele>1897.5999755859375</ele>
        <time>2026-09-03T07:14:08.000Z</time>
        <extensions>
          <ns3:TrackPointExtension>
            <ns3:hr>161</ns3:hr>
            <ns3:cad>0</ns3:cad>
          </ns3:TrackPointExtension>
        </extensions>
      </trkpt>
      <trkpt lat="44.69684776850044727325439453125" lon="6.7659602500498294830322265625">
        <ele>1897.800048828125</ele>
        <time>2026-09-03T07:14:09.000Z</time>
        <extensions>
          <ns3:TrackPointExtension>
            <ns3:hr>161</ns3:hr>
            <ns3:cad>0</ns3:cad>
          </ns3:TrackPointExtension>
        </extensions>
      </trkpt>
      <trkpt lat="44.69684307463467121124267578125" lon="6.7659652791917324066162109375">
        <ele>1898.199951171875</ele>
        <time>2026-09-03T07:14:10.000Z</time>
        <extensions>
          <ns3:TrackPointExtension>
            <ns3:hr>162</ns3:hr>
            <ns3:cad>0</ns3:cad>
          </ns3:TrackPointExtension>
        </extensions>
      </trkpt>
      <trkpt lat="44.6968320943415164947509765625" lon="6.76597751677036285400390625">
        <ele>1898.4000244140625</ele>
        <time>2026-09-03T07:14:11.000Z</time>
        <extensions>
          <ns3:TrackPointExtension>
            <ns3:hr>162</ns3:hr>
            <ns3:cad>0</ns3:cad>
          </ns3:TrackPointExtension>
        </extensions>
      </trkpt>
      <trkpt lat="44.69682228751480579376220703125" lon="6.76598849706351757049560546875">
        <ele>1898.5999755859375</ele>
        <time>2026-09-03T07:14:12.000Z</time>
        <extensions>
          <ns3:TrackPointExtension>
            <ns3:hr>162</ns3:hr>
            <ns3:cad>0</ns3:cad>
          </ns3:TrackPointExtension>
        </extensions>
      </trkpt>
      <trkpt lat="44.696814157068729400634765625" lon="6.76599201746284961700439453125">
        <ele>1898.800048828125</ele>
        <time>2026-09-03T07:14:13.000Z</time>
        <extensions>
          <ns3:TrackPointExtension>
            <ns3:hr>162</ns3:hr>
            <ns3:cad>0</ns3:cad>
          </ns3:TrackPointExtension>
        </extensions>
      </trkpt>
      <trkpt lat="44.69680686481297016143798828125" lon="6.76600090228021144866943359375">
        <ele>1898.800048828125</ele>
        <time>2026-09-03T07:14:14.000Z</time>
        <extensions>
          <ns3:TrackPointExtension>
            <ns3:hr>162</ns3:hr>
            <ns3:cad>0</ns3:cad>
          </ns3:TrackPointExtension>
        </extensions>
      </trkpt>
      <trkpt lat="44.6968032605946063995361328125" lon="6.7660051770508289337158203125">
        <ele>1899</ele>
        <time>2026-09-03T07:14:15.000Z</time>
        <extensions>
          <ns3:TrackPointExtension>
            <ns3:hr>163</ns3:hr>
            <ns3:cad>0</ns3:cad>
          </ns3:TrackPointExtension>
        </extensions>
      </trkpt>
      <trkpt lat="44.6967952139675617218017578125" lon="6.76601598970592021942138671875">
        <ele>1899.199951171875</ele>
        <time>2026-09-03T07:14:16.000Z</time>
        <extensions>
          <ns3:TrackPointExtension>
            <ns3:hr>163</ns3:hr>
            <ns3:cad>0</ns3:cad>
          </ns3:TrackPointExtension>
        </extensions>
      </trkpt>
      <trkpt lat="44.6967875026166439056396484375" lon="6.76602755673229694366455078125">
        <ele>1899.4000244140625</ele>
        <time>2026-09-03T07:14:17.000Z</time>
        <extensions>
          <ns3:TrackPointExtension>
            <ns3:hr>163</ns3:hr>
            <ns3:cad>0</ns3:cad>
          </ns3:TrackPointExtension>
        </extensions>
      </trkpt>
      <trkpt lat="44.69677819870412349700927734375" lon="6.76604163832962512969970703125">
        <ele>1899.5999755859375</ele>
        <time>2026-09-03T07:14:18.000Z</time>
        <extensions>
          <ns3:TrackPointExtension>
            <ns3:hr>164</ns3:hr>
            <ns3:cad>0</ns3:cad>
          </ns3:TrackPointExtension>
        </extensions>
      </trkpt>
      <trkpt lat="44.69677300192415714263916015625" lon="6.7660517804324626922607421875">
        <ele>1899.800048828125</ele>
        <time>2026-09-03T07:14:19.000Z</time>
        <extensions>
          <ns3:TrackPointExtension>
            <ns3:hr>163</ns3:hr>
            <ns3:cad>0</ns3:cad>
          </ns3:TrackPointExtension>
        </extensions>
      </trkpt>
      <trkpt lat="44.696768224239349365234375" lon="6.7660635150969028472900390625">
        <ele>1900</ele>
        <time>2026-09-03T07:14:20.000Z</time>
        <extensions>
          <ns3:TrackPointExtension>
            <ns3:hr>163</ns3:hr>
            <ns3:cad>0</ns3:cad>
          </ns3:TrackPointExtension>
        </extensions>
      </trkpt>
      <trkpt lat="44.6967680566012859344482421875" lon="6.76607608795166015625">
        <ele>1900.199951171875</ele>
        <time>2026-09-03T07:14:21.000Z</time>
        <extensions>
          <ns3:TrackPointExtension>
            <ns3:hr>164</ns3:hr>
            <ns3:cad>0</ns3:cad>
          </ns3:TrackPointExtension>
        </extensions>
      </trkpt>
      <trkpt lat="44.69676579348742961883544921875" lon="6.76609025336802005767822265625">
        <ele>1900.4000244140625</ele>
        <time>2026-09-03T07:14:22.000Z</time>
        <extensions>
          <ns3:TrackPointExtension>
            <ns3:hr>163</ns3:hr>
            <ns3:cad>0</ns3:cad>
          </ns3:TrackPointExtension>
        </extensions>
      </trkpt>
      <trkpt lat="44.6967623569071292877197265625" lon="6.76610223948955535888671875">
        <ele>1900.5999755859375</ele>
        <time>2026-09-03T07:14:23.000Z</time>
        <extensions>
          <ns3:TrackPointExtension>
            <ns3:hr>163</ns3:hr>
            <ns3:cad>0</ns3:cad>
          </ns3:TrackPointExtension>
        </extensions>
      </trkpt>
      <trkpt lat="44.6967588365077972412109375" lon="6.7661067657172679901123046875">
        <ele>1900.800048828125</ele>
        <time>2026-09-03T07:14:24.000Z</time>
        <extensions>
          <ns3:TrackPointExtension>
            <ns3:hr>163</ns3:hr>
            <ns3:cad>0</ns3:cad>
          </ns3:TrackPointExtension>
        </extensions>
      </trkpt>
      <trkpt lat="44.69675255008041858673095703125" lon="6.76612193696200847625732421875">
        <ele>1901</ele>
        <time>2026-09-03T07:14:25.000Z</time>
        <extensions>
          <ns3:TrackPointExtension>
            <ns3:hr>163</ns3:hr>
            <ns3:cad>0</ns3:cad>
          </ns3:TrackPointExtension>
        </extensions>
      </trkpt>
      <trkpt lat="44.6967492811381816864013671875" lon="6.7661262117326259613037109375">
        <ele>1901.199951171875</ele>
        <time>2026-09-03T07:14:26.000Z</time>
        <extensions>
          <ns3:TrackPointExtension>
            <ns3:hr>162</ns3:hr>
            <ns3:cad>0</ns3:cad>
          </ns3:TrackPointExtension>
        </extensions>
      </trkpt>
      <trkpt lat="44.6967432461678981781005859375" lon="6.7661399580538272857666015625">
        <ele>1901.4000244140625</ele>
        <time>2026-09-03T07:14:27.000Z</time>
        <extensions>
          <ns3:TrackPointExtension>
            <ns3:hr>162</ns3:hr>
            <ns3:cad>0</ns3:cad>
          </ns3:TrackPointExtension>
        </extensions>
      </trkpt>
      <trkpt lat="44.6967439167201519012451171875" lon="6.766154207289218902587890625">
        <ele>1901.5999755859375</ele>
        <time>2026-09-03T07:14:28.000Z</time>
        <extensions>
          <ns3:TrackPointExtension>
            <ns3:hr>162</ns3:hr>
            <ns3:cad>0</ns3:cad>
          </ns3:TrackPointExtension>
        </extensions>
      </trkpt>
      <trkpt lat="44.6967365406453609466552734375" lon="6.76617071963846683502197265625">
        <ele>1901.800048828125</ele>
        <time>2026-09-03T07:14:29.000Z</time>
        <extensions>
          <ns3:TrackPointExtension>
            <ns3:hr>163</ns3:hr>
            <ns3:cad>0</ns3:cad>
          </ns3:TrackPointExtension>
        </extensions>
      </trkpt>
      <trkpt lat="44.69673394225537776947021484375" lon="6.76618061028420925140380859375">
        <ele>1902.199951171875</ele>
        <time>2026-09-03T07:14:30.000Z</time>
        <extensions>
          <ns3:TrackPointExtension>
            <ns3:hr>163</ns3:hr>
            <ns3:cad>0</ns3:cad>
          </ns3:TrackPointExtension>
        </extensions>
      </trkpt>
      <trkpt lat="44.6967288292944431304931640625" lon="6.76619770936667919158935546875">
        <ele>1902.4000244140625</ele>
        <time>2026-09-03T07:14:31.000Z</time>
        <extensions>
          <ns3:TrackPointExtension>
            <ns3:hr>162</ns3:hr>
            <ns3:cad>0</ns3:cad>
          </ns3:TrackPointExtension>
        </extensions>
      </trkpt>
      <trkpt lat="44.6967251412570476531982421875" lon="6.7662103660404682159423828125">
        <ele>1902.5999755859375</ele>
        <time>2026-09-03T07:14:32.000Z</time>
        <extensions>
          <ns3:TrackPointExtension>
            <ns3:hr>162</ns3:hr>
            <ns3:cad>0</ns3:cad>
          </ns3:TrackPointExtension>
        </extensions>
      </trkpt>
      <trkpt lat="44.69672170467674732208251953125" lon="6.76622050814330577850341796875">
        <ele>1902.800048828125</ele>
        <time>2026-09-03T07:14:33.000Z</time>
        <extensions>
          <ns3:TrackPointExtension>
            <ns3:hr>162</ns3:hr>
            <ns3:cad>0</ns3:cad>
          </ns3:TrackPointExtension>
        </extensions>
      </trkpt>
      <trkpt lat="44.69671734608709812164306640625" lon="6.76623576320707798004150390625">
        <ele>1903</ele>
        <time>2026-09-03T07:14:34.000Z</time>
        <extensions>
          <ns3:TrackPointExtension>
            <ns3:hr>162</ns3:hr>
            <ns3:cad>79</ns3:cad>
          </ns3:TrackPointExtension>
        </extensions>
      </trkpt>
      <trkpt lat="44.69671349041163921356201171875" lon="6.76624917425215244293212890625">
        <ele>1903.199951171875</ele>
        <time>2026-09-03T07:14:35.000Z</time>
        <extensions>
          <ns3:TrackPointExtension>
            <ns3:hr>162</ns3:hr>
            <ns3:cad>79</ns3:cad>
          </ns3:TrackPointExtension>
        </extensions>
      </trkpt>
      <trkpt lat="44.69670829363167285919189453125" lon="6.76626208238303661346435546875">
        <ele>1903.4000244140625</ele>
        <time>2026-09-03T07:14:36.000Z</time>
        <extensions>
          <ns3:TrackPointExtension>
            <ns3:hr>161</ns3:hr>
            <ns3:cad>79</ns3:cad>
          </ns3:TrackPointExtension>
        </extensions>
      </trkpt>
      <trkpt lat="44.696703851222991943359375" lon="6.76627063192427158355712890625">
        <ele>1903.4000244140625</ele>
        <time>2026-09-03T07:14:37.000Z</time>
        <extensions>
          <ns3:TrackPointExtension>
            <ns3:hr>160</ns3:hr>
            <ns3:cad>79</ns3:cad>
          </ns3:TrackPointExtension>
        </extensions>
      </trkpt>
      <trkpt lat="44.6966966427862644195556640625" lon="6.7662841267883777618408203125">
        <ele>1903.5999755859375</ele>
        <time>2026-09-03T07:14:38.000Z</time>
        <extensions>
          <ns3:TrackPointExtension>
            <ns3:hr>159</ns3:hr>
            <ns3:cad>0</ns3:cad>
          </ns3:TrackPointExtension>
        </extensions>
      </trkpt>
      <trkpt lat="44.6966909430921077728271484375" lon="6.76629602909088134765625">
        <ele>1903.5999755859375</ele>
        <time>2026-09-03T07:14:39.000Z</time>
        <extensions>
          <ns3:TrackPointExtension>
            <ns3:hr>158</ns3:hr>
            <ns3:cad>0</ns3:cad>
          </ns3:TrackPointExtension>
        </extensions>
      </trkpt>
      <trkpt lat="44.69668314792215824127197265625" lon="6.7663072608411312103271484375">
        <ele>1903.800048828125</ele>
        <time>2026-09-03T07:14:40.000Z</time>
        <extensions>
          <ns3:TrackPointExtension>
            <ns3:hr>158</ns3:hr>
            <ns3:cad>0</ns3:cad>
          </ns3:TrackPointExtension>
        </extensions>
      </trkpt>
      <trkpt lat="44.696677029132843017578125" lon="6.766315810382366180419921875">
        <ele>1903.800048828125</ele>
        <time>2026-09-03T07:14:41.000Z</time>
        <extensions>
          <ns3:TrackPointExtension>
            <ns3:hr>158</ns3:hr>
            <ns3:cad>0</ns3:cad>
          </ns3:TrackPointExtension>
        </extensions>
      </trkpt>
      <trkpt lat="44.6966657973825931549072265625" lon="6.766329221427440643310546875">
        <ele>1904</ele>
        <time>2026-09-03T07:14:42.000Z</time>
        <extensions>
          <ns3:TrackPointExtension>
            <ns3:hr>160</ns3:hr>
            <ns3:cad>0</ns3:cad>
          </ns3:TrackPointExtension>
        </extensions>
      </trkpt>
      <trkpt lat="44.69665733166038990020751953125" lon="6.76634422503411769866943359375">
        <ele>1904.199951171875</ele>
        <time>2026-09-03T07:14:43.000Z</time>
        <extensions>
          <ns3:TrackPointExtension>
            <ns3:hr>164</ns3:hr>
            <ns3:cad>0</ns3:cad>
          </ns3:TrackPointExtension>
        </extensions>
      </trkpt>
      <trkpt lat="44.6966476924717426300048828125" lon="6.76635948009788990020751953125">
        <ele>1904.4000244140625</ele>
        <time>2026-09-03T07:14:44.000Z</time>
        <extensions>
          <ns3:TrackPointExtension>
            <ns3:hr>165</ns3:hr>
            <ns3:cad>53</ns3:cad>
          </ns3:TrackPointExtension>
        </extensions>
      </trkpt>
      <trkpt lat="44.69664073549211025238037109375" lon="6.766370795667171478271484375">
        <ele>1904.4000244140625</ele>
        <time>2026-09-03T07:14:45.000Z</time>
        <extensions>
          <ns3:TrackPointExtension>
            <ns3:hr>165</ns3:hr>
            <ns3:cad>53</ns3:cad>
          </ns3:TrackPointExtension>
        </extensions>
      </trkpt>
      <trkpt lat="44.696631766855716705322265625" lon="6.76637473516166210174560546875">
        <ele>1904.5999755859375</ele>
        <time>2026-09-03T07:14:46.000Z</time>
        <extensions>
          <ns3:TrackPointExtension>
            <ns3:hr>166</ns3:hr>
            <ns3:cad>0</ns3:cad>
          </ns3:TrackPointExtension>
        </extensions>
      </trkpt>
      <trkpt lat="44.69662061892449855804443359375" lon="6.76638630218803882598876953125">
        <ele>1904.800048828125</ele>
        <time>2026-09-03T07:14:47.000Z</time>
        <extensions>
          <ns3:TrackPointExtension>
            <ns3:hr>166</ns3:hr>
            <ns3:cad>0</ns3:cad>
          </ns3:TrackPointExtension>
        </extensions>
      </trkpt>
      <trkpt lat="44.69661332666873931884765625" lon="6.76639317534863948822021484375">
        <ele>1905</ele>
        <time>2026-09-03T07:14:48.000Z</time>
        <extensions>
          <ns3:TrackPointExtension>
            <ns3:hr>166</ns3:hr>
            <ns3:cad>0</ns3:cad>
          </ns3:TrackPointExtension>
        </extensions>
      </trkpt>
      <trkpt lat="44.6966064535081386566162109375" lon="6.7664065025746822357177734375">
        <ele>1905.199951171875</ele>
        <time>2026-09-03T07:14:49.000Z</time>
        <extensions>
          <ns3:TrackPointExtension>
            <ns3:hr>166</ns3:hr>
            <ns3:cad>0</ns3:cad>
          </ns3:TrackPointExtension>
        </extensions>
      </trkpt>
      <trkpt lat="44.69660100527107715606689453125" lon="6.76641463302075862884521484375">
        <ele>1905.4000244140625</ele>
        <time>2026-09-03T07:14:50.000Z</time>
        <extensions>
          <ns3:TrackPointExtension>
            <ns3:hr>166</ns3:hr>
            <ns3:cad>53</ns3:cad>
          </ns3:TrackPointExtension>
        </extensions>
      </trkpt>
      <trkpt lat="44.6965920366346836090087890625" lon="6.76642410457134246826171875">
        <ele>1905.800048828125</ele>
        <time>2026-09-03T07:14:51.000Z</time>
        <extensions>
          <ns3:TrackPointExtension>
            <ns3:hr>165</ns3:hr>
            <ns3:cad>53</ns3:cad>
          </ns3:TrackPointExtension>
        </extensions>
      </trkpt>
      <trkpt lat="44.69658516347408294677734375" lon="6.76643474958837032318115234375">
        <ele>1906</ele>
        <time>2026-09-03T07:14:52.000Z</time>
        <extensions>
          <ns3:TrackPointExtension>
            <ns3:hr>165</ns3:hr>
            <ns3:cad>53</ns3:cad>
          </ns3:TrackPointExtension>
        </extensions>
      </trkpt>
      <trkpt lat="44.69657720066606998443603515625" lon="6.76644614897668361663818359375">
        <ele>1906.199951171875</ele>
        <time>2026-09-03T07:14:53.000Z</time>
        <extensions>
          <ns3:TrackPointExtension>
            <ns3:hr>165</ns3:hr>
            <ns3:cad>53</ns3:cad>
          </ns3:TrackPointExtension>
        </extensions>
      </trkpt>
      <trkpt lat="44.6965702436864376068115234375" lon="6.76646425388753414154052734375">
        <ele>1906.4000244140625</ele>
        <time>2026-09-03T07:14:54.000Z</time>
        <extensions>
          <ns3:TrackPointExtension>
            <ns3:hr>165</ns3:hr>
            <ns3:cad>53</ns3:cad>
          </ns3:TrackPointExtension>
        </extensions>
      </trkpt>
      <trkpt lat="44.6965638734400272369384765625" lon="6.7664695344865322113037109375">
        <ele>1906.5999755859375</ele>
        <time>2026-09-03T07:14:55.000Z</time>
        <extensions>
          <ns3:TrackPointExtension>
            <ns3:hr>166</ns3:hr>
            <ns3:cad>53</ns3:cad>
          </ns3:TrackPointExtension>
        </extensions>
      </trkpt>
      <trkpt lat="44.696553647518157958984375" lon="6.76647950895130634307861328125">
        <ele>1906.800048828125</ele>
        <time>2026-09-03T07:14:56.000Z</time>
        <extensions>
          <ns3:TrackPointExtension>
            <ns3:hr>165</ns3:hr>
            <ns3:cad>53</ns3:cad>
          </ns3:TrackPointExtension>
        </extensions>
      </trkpt>
      <trkpt lat="44.69654652290046215057373046875" lon="6.76648386754095554351806640625">
        <ele>1907</ele>
        <time>2026-09-03T07:14:57.000Z</time>
        <extensions>
          <ns3:TrackPointExtension>
            <ns3:hr>165</ns3:hr>
            <ns3:cad>0</ns3:cad>
          </ns3:TrackPointExtension>
        </extensions>
      </trkpt>
      <trkpt lat="44.69654023647308349609375" lon="6.76649794913828372955322265625">
        <ele>1907.199951171875</ele>
        <time>2026-09-03T07:14:58.000Z</time>
        <extensions>
          <ns3:TrackPointExtension>
            <ns3:hr>165</ns3:hr>
            <ns3:cad>0</ns3:cad>
          </ns3:TrackPointExtension>
        </extensions>
      </trkpt>
      <trkpt lat="44.69653110019862651824951171875" lon="6.76650884561240673065185546875">
        <ele>1907.4000244140625</ele>
        <time>2026-09-03T07:14:59.000Z</time>
        <extensions>
          <ns3:TrackPointExtension>
            <ns3:hr>165</ns3:hr>
            <ns3:cad>0</ns3:cad>
          </ns3:TrackPointExtension>
        </extensions>
      </trkpt>
      <trkpt lat="44.696523137390613555908203125" lon="6.76651856862008571624755859375">
        <ele>1907.800048828125</ele>
        <time>2026-09-03T07:15:00.000Z</time>
        <extensions>
          <ns3:TrackPointExtension>
            <ns3:hr>165</ns3:hr>
            <ns3:cad>40</ns3:cad>
          </ns3:TrackPointExtension>
        </extensions>
      </trkpt>
      <trkpt lat="44.6965155936777591705322265625" lon="6.7665241844952106475830078125">
        <ele>1908</ele>
        <time>2026-09-03T07:15:01.000Z</time>
        <extensions>
          <ns3:TrackPointExtension>
            <ns3:hr>164</ns3:hr>
            <ns3:cad>40</ns3:cad>
          </ns3:TrackPointExtension>
        </extensions>
      </trkpt>
      <trkpt lat="44.69650260172784328460693359375" lon="6.76653047092258930206298828125">
        <ele>1908.199951171875</ele>
        <time>2026-09-03T07:15:02.000Z</time>
        <extensions>
          <ns3:TrackPointExtension>
            <ns3:hr>164</ns3:hr>
            <ns3:cad>40</ns3:cad>
          </ns3:TrackPointExtension>
        </extensions>
      </trkpt>
      <trkpt lat="44.69649405218660831451416015625" lon="6.76653952337801456451416015625">
        <ele>1908.4000244140625</ele>
        <time>2026-09-03T07:15:03.000Z</time>
        <extensions>
          <ns3:TrackPointExtension>
            <ns3:hr>163</ns3:hr>
            <ns3:cad>40</ns3:cad>
          </ns3:TrackPointExtension>
        </extensions>
      </trkpt>
      <trkpt lat="44.69648499973118305206298828125" lon="6.76654187031090259552001953125">
        <ele>1908.5999755859375</ele>
        <time>2026-09-03T07:15:04.000Z</time>
        <extensions>
          <ns3:TrackPointExtension>
            <ns3:hr>162</ns3:hr>
            <ns3:cad>40</ns3:cad>
          </ns3:TrackPointExtension>
        </extensions>
      </trkpt>
      <trkpt lat="44.69647695310413837432861328125" lon="6.766549162566661834716796875">
        <ele>1908.800048828125</ele>
        <time>2026-09-03T07:15:05.000Z</time>
        <extensions>
          <ns3:TrackPointExtension>
            <ns3:hr>162</ns3:hr>
            <ns3:cad>40</ns3:cad>
          </ns3:TrackPointExtension>
        </extensions>
      </trkpt>
      <trkpt lat="44.6964733488857746124267578125" lon="6.76654706709086894989013671875">
        <ele>1909</ele>
        <time>2026-09-03T07:15:06.000Z</time>
        <extensions>
          <ns3:TrackPointExtension>
            <ns3:hr>161</ns3:hr>
            <ns3:cad>40</ns3:cad>
          </ns3:TrackPointExtension>
        </extensions>
      </trkpt>
      <trkpt lat="44.69646270386874675750732421875" lon="6.7665546946227550506591796875">
        <ele>1909.199951171875</ele>
        <time>2026-09-03T07:15:07.000Z</time>
        <extensions>
          <ns3:TrackPointExtension>
            <ns3:hr>161</ns3:hr>
            <ns3:cad>40</ns3:cad>
          </ns3:TrackPointExtension>
        </extensions>
      </trkpt>
      <trkpt lat="44.69645599834620952606201171875" lon="6.76656089723110198974609375">
        <ele>1909.4000244140625</ele>
        <time>2026-09-03T07:15:08.000Z</time>
        <extensions>
          <ns3:TrackPointExtension>
            <ns3:hr>161</ns3:hr>
            <ns3:cad>40</ns3:cad>
          </ns3:TrackPointExtension>
        </extensions>
      </trkpt>
      <trkpt lat="44.6964451856911182403564453125" lon="6.766569279134273529052734375">
        <ele>1909.5999755859375</ele>
        <time>2026-09-03T07:15:09.000Z</time>
        <extensions>
          <ns3:TrackPointExtension>
            <ns3:hr>162</ns3:hr>
            <ns3:cad>40</ns3:cad>
          </ns3:TrackPointExtension>
        </extensions>
      </trkpt>
      <trkpt lat="44.69643889926373958587646484375" lon="6.76657699048519134521484375">
        <ele>1909.800048828125</ele>
        <time>2026-09-03T07:15:10.000Z</time>
        <extensions>
          <ns3:TrackPointExtension>
            <ns3:hr>162</ns3:hr>
            <ns3:cad>76</ns3:cad>
          </ns3:TrackPointExtension>
        </extensions>
      </trkpt>
      <trkpt lat="44.69643051736056804656982421875" lon="6.76659174263477325439453125">
        <ele>1910</ele>
        <time>2026-09-03T07:15:11.000Z</time>
        <extensions>
          <ns3:TrackPointExtension>
            <ns3:hr>162</ns3:hr>
            <ns3:cad>76</ns3:cad>
          </ns3:TrackPointExtension>
        </extensions>
      </trkpt>
      <trkpt lat="44.69642288982868194580078125" lon="6.766600795090198516845703125">
        <ele>1910</ele>
        <time>2026-09-03T07:15:12.000Z</time>
        <extensions>
          <ns3:TrackPointExtension>
            <ns3:hr>162</ns3:hr>
            <ns3:cad>76</ns3:cad>
          </ns3:TrackPointExtension>
        </extensions>
      </trkpt>
      <trkpt lat="44.6964153461158275604248046875" lon="6.76660523749887943267822265625">
        <ele>1910.199951171875</ele>
        <time>2026-09-03T07:15:13.000Z</time>
        <extensions>
          <ns3:TrackPointExtension>
            <ns3:hr>161</ns3:hr>
            <ns3:cad>0</ns3:cad>
          </ns3:TrackPointExtension>
        </extensions>
      </trkpt>
      <trkpt lat="44.69640788622200489044189453125" lon="6.76661361940205097198486328125">
        <ele>1910.4000244140625</ele>
        <time>2026-09-03T07:15:14.000Z</time>
        <extensions>
          <ns3:TrackPointExtension>
            <ns3:hr>162</ns3:hr>
            <ns3:cad>0</ns3:cad>
          </ns3:TrackPointExtension>
        </extensions>
      </trkpt>
      <trkpt lat="44.69640520401298999786376953125" lon="6.7666126973927021026611328125">
        <ele>1910.5999755859375</ele>
        <time>2026-09-03T07:15:15.000Z</time>
        <extensions>
          <ns3:TrackPointExtension>
            <ns3:hr>162</ns3:hr>
            <ns3:cad>0</ns3:cad>
          </ns3:TrackPointExtension>
        </extensions>
      </trkpt>
      <trkpt lat="44.696392714977264404296875" lon="6.7666214145720005035400390625">
        <ele>1910.800048828125</ele>
        <time>2026-09-03T07:15:16.000Z</time>
        <extensions>
          <ns3:TrackPointExtension>
            <ns3:hr>162</ns3:hr>
            <ns3:cad>0</ns3:cad>
          </ns3:TrackPointExtension>
        </extensions>
      </trkpt>
      <trkpt lat="44.69638592563569545745849609375" lon="6.76662703044712543487548828125">
        <ele>1911</ele>
        <time>2026-09-03T07:15:17.000Z</time>
        <extensions>
          <ns3:TrackPointExtension>
            <ns3:hr>161</ns3:hr>
            <ns3:cad>0</ns3:cad>
          </ns3:TrackPointExtension>
        </extensions>
      </trkpt>
      <trkpt lat="44.69637737609446048736572265625" lon="6.7666326463222503662109375">
        <ele>1911.199951171875</ele>
        <time>2026-09-03T07:15:18.000Z</time>
        <extensions>
          <ns3:TrackPointExtension>
            <ns3:hr>162</ns3:hr>
            <ns3:cad>0</ns3:cad>
          </ns3:TrackPointExtension>
        </extensions>
      </trkpt>
      <trkpt lat="44.69636966474354267120361328125" lon="6.76663893274962902069091796875">
        <ele>1911.5999755859375</ele>
        <time>2026-09-03T07:15:19.000Z</time>
        <extensions>
          <ns3:TrackPointExtension>
            <ns3:hr>162</ns3:hr>
            <ns3:cad>0</ns3:cad>
          </ns3:TrackPointExtension>
        </extensions>
      </trkpt>
      <trkpt lat="44.69635860063135623931884765625" lon="6.76664832048118114471435546875">
        <ele>1911.800048828125</ele>
        <time>2026-09-03T07:15:20.000Z</time>
        <extensions>
          <ns3:TrackPointExtension>
            <ns3:hr>162</ns3:hr>
            <ns3:cad>0</ns3:cad>
          </ns3:TrackPointExtension>
        </extensions>
      </trkpt>
      <trkpt lat="44.696347452700138092041015625" lon="6.76665955223143100738525390625">
        <ele>1912</ele>
        <time>2026-09-03T07:15:21.000Z</time>
        <extensions>
          <ns3:TrackPointExtension>
            <ns3:hr>162</ns3:hr>
            <ns3:cad>0</ns3:cad>
          </ns3:TrackPointExtension>
        </extensions>
      </trkpt>
      <trkpt lat="44.696339070796966552734375" lon="6.76666550338268280029296875">
        <ele>1912.199951171875</ele>
        <time>2026-09-03T07:15:22.000Z</time>
        <extensions>
          <ns3:TrackPointExtension>
            <ns3:hr>162</ns3:hr>
            <ns3:cad>0</ns3:cad>
          </ns3:TrackPointExtension>
        </extensions>
      </trkpt>
      <trkpt lat="44.69633144326508045196533203125" lon="6.766673214733600616455078125">
        <ele>1912.4000244140625</ele>
        <time>2026-09-03T07:15:23.000Z</time>
        <extensions>
          <ns3:TrackPointExtension>
            <ns3:hr>161</ns3:hr>
            <ns3:cad>0</ns3:cad>
          </ns3:TrackPointExtension>
        </extensions>
      </trkpt>
      <trkpt lat="44.696324653923511505126953125" lon="6.76667329855263233184814453125">
        <ele>1912.5999755859375</ele>
        <time>2026-09-03T07:15:24.000Z</time>
        <extensions>
          <ns3:TrackPointExtension>
            <ns3:hr>161</ns3:hr>
            <ns3:cad>0</ns3:cad>
          </ns3:TrackPointExtension>
        </extensions>
      </trkpt>
      <trkpt lat="44.6963140927255153656005859375" lon="6.76668235100805759429931640625">
        <ele>1912.5999755859375</ele>
        <time>2026-09-03T07:15:25.000Z</time>
        <extensions>
          <ns3:TrackPointExtension>
            <ns3:hr>161</ns3:hr>
            <ns3:cad>0</ns3:cad>
          </ns3:TrackPointExtension>
        </extensions>
      </trkpt>
      <trkpt lat="44.696306549012660980224609375" lon="6.76668989472091197967529296875">
        <ele>1912.800048828125</ele>
        <time>2026-09-03T07:15:26.000Z</time>
        <extensions>
          <ns3:TrackPointExtension>
            <ns3:hr>161</ns3:hr>
            <ns3:cad>0</ns3:cad>
          </ns3:TrackPointExtension>
        </extensions>
      </trkpt>
      <trkpt lat="44.69629556871950626373291015625" lon="6.76669827662408351898193359375">
        <ele>1913</ele>
        <time>2026-09-03T07:15:27.000Z</time>
        <extensions>
          <ns3:TrackPointExtension>
            <ns3:hr>162</ns3:hr>
            <ns3:cad>0</ns3:cad>
          </ns3:TrackPointExtension>
        </extensions>
      </trkpt>
      <trkpt lat="44.69628768973052501678466796875" lon="6.766702719032764434814453125">
        <ele>1913.199951171875</ele>
        <time>2026-09-03T07:15:28.000Z</time>
        <extensions>
          <ns3:TrackPointExtension>
            <ns3:hr>162</ns3:hr>
            <ns3:cad>0</ns3:cad>
          </ns3:TrackPointExtension>
        </extensions>
      </trkpt>
      <trkpt lat="44.69626958481967449188232421875" lon="6.7667131125926971435546875">
        <ele>1913.4000244140625</ele>
        <time>2026-09-03T07:15:29.000Z</time>
        <extensions>
          <ns3:TrackPointExtension>
            <ns3:hr>162</ns3:hr>
            <ns3:cad>0</ns3:cad>
          </ns3:TrackPointExtension>
        </extensions>
      </trkpt>
      <trkpt lat="44.69626019708812236785888671875" lon="6.76672342233359813690185546875">
        <ele>1913.800048828125</ele>
        <time>2026-09-03T07:15:30.000Z</time>
        <extensions>
          <ns3:TrackPointExtension>
            <ns3:hr>162</ns3:hr>
            <ns3:cad>0</ns3:cad>
          </ns3:TrackPointExtension>
        </extensions>
      </trkpt>
      <trkpt lat="44.696251563727855682373046875" lon="6.76673029549419879913330078125">
        <ele>1914</ele>
        <time>2026-09-03T07:15:31.000Z</time>
        <extensions>
          <ns3:TrackPointExtension>
            <ns3:hr>162</ns3:hr>
            <ns3:cad>0</ns3:cad>
          </ns3:TrackPointExtension>
        </extensions>
      </trkpt>
      <trkpt lat="44.69624326564371585845947265625" lon="6.7667372524738311767578125">
        <ele>1914.199951171875</ele>
        <time>2026-09-03T07:15:32.000Z</time>
        <extensions>
          <ns3:TrackPointExtension>
            <ns3:hr>162</ns3:hr>
            <ns3:cad>0</ns3:cad>
          </ns3:TrackPointExtension>
        </extensions>
      </trkpt>
      <trkpt lat="44.6962410025298595428466796875" lon="6.76673767156898975372314453125">
        <ele>1914.4000244140625</ele>
        <time>2026-09-03T07:15:33.000Z</time>
        <extensions>
          <ns3:TrackPointExtension>
            <ns3:hr>162</ns3:hr>
            <ns3:cad>0</ns3:cad>
          </ns3:TrackPointExtension>
        </extensions>
      </trkpt>
      <trkpt lat="44.69623371027410030364990234375" lon="6.7667481489479541778564453125">
        <ele>1914.5999755859375</ele>
        <time>2026-09-03T07:15:34.000Z</time>
        <extensions>
          <ns3:TrackPointExtension>
            <ns3:hr>162</ns3:hr>
            <ns3:cad>0</ns3:cad>
          </ns3:TrackPointExtension>
        </extensions>
      </trkpt>
      <trkpt lat="44.6962342970073223114013671875" lon="6.766753681004047393798828125">
        <ele>1914.800048828125</ele>
        <time>2026-09-03T07:15:35.000Z</time>
        <extensions>
          <ns3:TrackPointExtension>
            <ns3:hr>162</ns3:hr>
            <ns3:cad>41</ns3:cad>
          </ns3:TrackPointExtension>
        </extensions>
      </trkpt>
      <trkpt lat="44.69622683711349964141845703125" lon="6.76676231436431407928466796875">
        <ele>1915</ele>
        <time>2026-09-03T07:15:36.000Z</time>
        <extensions>
          <ns3:TrackPointExtension>
            <ns3:hr>163</ns3:hr>
            <ns3:cad>41</ns3:cad>
          </ns3:TrackPointExtension>
        </extensions>
      </trkpt>
      <trkpt lat="44.696220718324184417724609375" lon="6.7667682655155658721923828125">
        <ele>1915.199951171875</ele>
        <time>2026-09-03T07:15:37.000Z</time>
        <extensions>
          <ns3:TrackPointExtension>
            <ns3:hr>163</ns3:hr>
            <ns3:cad>41</ns3:cad>
          </ns3:TrackPointExtension>
        </extensions>
      </trkpt>
      <trkpt lat="44.69621225260198116302490234375" lon="6.766776479780673980712890625">
        <ele>1915.5999755859375</ele>
        <time>2026-09-03T07:15:38.000Z</time>
        <extensions>
          <ns3:TrackPointExtension>
            <ns3:hr>162</ns3:hr>
            <ns3:cad>41</ns3:cad>
          </ns3:TrackPointExtension>
        </extensions>
      </trkpt>
      <trkpt lat="44.696210324764251708984375" lon="6.76678578369319438934326171875">
        <ele>1915.800048828125</ele>
        <time>2026-09-03T07:15:39.000Z</time>
        <extensions>
          <ns3:TrackPointExtension>
            <ns3:hr>163</ns3:hr>
            <ns3:cad>41</ns3:cad>
          </ns3:TrackPointExtension>
        </extensions>
      </trkpt>
      <trkpt lat="44.6962009370326995849609375" lon="6.7667907290160655975341796875">
        <ele>1916</ele>
        <time>2026-09-03T07:15:40.000Z</time>
        <extensions>
          <ns3:TrackPointExtension>
            <ns3:hr>163</ns3:hr>
            <ns3:cad>41</ns3:cad>
          </ns3:TrackPointExtension>
        </extensions>
      </trkpt>
      <trkpt lat="44.69619213603436946868896484375" lon="6.76680070348083972930908203125">
        <ele>1916.199951171875</ele>
        <time>2026-09-03T07:15:41.000Z</time>
        <extensions>
          <ns3:TrackPointExtension>
            <ns3:hr>162</ns3:hr>
            <ns3:cad>41</ns3:cad>
          </ns3:TrackPointExtension>
        </extensions>
      </trkpt>
      <trkpt lat="44.6961853466928005218505859375" lon="6.76680095493793487548828125">
        <ele>1916.4000244140625</ele>
        <time>2026-09-03T07:15:42.000Z</time>
        <extensions>
          <ns3:TrackPointExtension>
            <ns3:hr>163</ns3:hr>
            <ns3:cad>41</ns3:cad>
          </ns3:TrackPointExtension>
        </extensions>
      </trkpt>
      <trkpt lat="44.69617319293320178985595703125" lon="6.7668125219643115997314453125">
        <ele>1916.4000244140625</ele>
        <time>2026-09-03T07:15:43.000Z</time>
        <extensions>
          <ns3:TrackPointExtension>
            <ns3:hr>163</ns3:hr>
            <ns3:cad>41</ns3:cad>
          </ns3:TrackPointExtension>
        </extensions>
      </trkpt>
      <trkpt lat="44.6961705945432186126708984375" lon="6.7668205685913562774658203125">
        <ele>1916.5999755859375</ele>
        <time>2026-09-03T07:15:44.000Z</time>
        <extensions>
          <ns3:TrackPointExtension>
            <ns3:hr>163</ns3:hr>
            <ns3:cad>41</ns3:cad>
          </ns3:TrackPointExtension>
        </extensions>
      </trkpt>
      <trkpt lat="44.696156345307826995849609375" lon="6.76683305762708187103271484375">
        <ele>1916.800048828125</ele>
        <time>2026-09-03T07:15:45.000Z</time>
        <extensions>
          <ns3:TrackPointExtension>
            <ns3:hr>163</ns3:hr>
            <ns3:cad>41</ns3:cad>
          </ns3:TrackPointExtension>
        </extensions>
      </trkpt>
      <trkpt lat="44.69614955596625804901123046875" lon="6.76683909259736537933349609375">
        <ele>1916.800048828125</ele>
        <time>2026-09-03T07:15:46.000Z</time>
        <extensions>
          <ns3:TrackPointExtension>
            <ns3:hr>162</ns3:hr>
            <ns3:cad>41</ns3:cad>
          </ns3:TrackPointExtension>
        </extensions>
      </trkpt>
      <trkpt lat="44.69613698311150074005126953125" lon="6.7668460495769977569580078125">
        <ele>1917</ele>
        <time>2026-09-03T07:15:47.000Z</time>
        <extensions>
          <ns3:TrackPointExtension>
            <ns3:hr>163</ns3:hr>
            <ns3:cad>41</ns3:cad>
          </ns3:TrackPointExtension>
        </extensions>
      </trkpt>
      <trkpt lat="44.6961330436170101165771484375" lon="6.76684848032891750335693359375">
        <ele>1917.199951171875</ele>
        <time>2026-09-03T07:15:48.000Z</time>
        <extensions>
          <ns3:TrackPointExtension>
            <ns3:hr>163</ns3:hr>
            <ns3:cad>41</ns3:cad>
          </ns3:TrackPointExtension>
        </extensions>
      </trkpt>
      <trkpt lat="44.69612189568579196929931640625" lon="6.766858957707881927490234375">
        <ele>1917.4000244140625</ele>
        <time>2026-09-03T07:15:49.000Z</time>
        <extensions>
          <ns3:TrackPointExtension>
            <ns3:hr>162</ns3:hr>
            <ns3:cad>41</ns3:cad>
          </ns3:TrackPointExtension>
        </extensions>
      </trkpt>
      <trkpt lat="44.6961162798106670379638671875" lon="6.766869015991687774658203125">
        <ele>1917.5999755859375</ele>
        <time>2026-09-03T07:15:50.000Z</time>
        <extensions>
          <ns3:TrackPointExtension>
            <ns3:hr>163</ns3:hr>
            <ns3:cad>41</ns3:cad>
          </ns3:TrackPointExtension>
        </extensions>
      </trkpt>
      <trkpt lat="44.69610563479363918304443359375" lon="6.76688284613192081451416015625">
        <ele>1917.800048828125</ele>
        <time>2026-09-03T07:15:51.000Z</time>
        <extensions>
          <ns3:TrackPointExtension>
            <ns3:hr>163</ns3:hr>
            <ns3:cad>41</ns3:cad>
          </ns3:TrackPointExtension>
        </extensions>
      </trkpt>
      <trkpt lat="44.69609775580465793609619140625" lon="6.76688888110220432281494140625">
        <ele>1918</ele>
        <time>2026-09-03T07:15:52.000Z</time>
        <extensions>
          <ns3:TrackPointExtension>
            <ns3:hr>162</ns3:hr>
            <ns3:cad>57</ns3:cad>
          </ns3:TrackPointExtension>
        </extensions>
      </trkpt>
      <trkpt lat="44.6960894577205181121826171875" lon="6.7668914794921875">
        <ele>1918.199951171875</ele>
        <time>2026-09-03T07:15:53.000Z</time>
        <extensions>
          <ns3:TrackPointExtension>
            <ns3:hr>163</ns3:hr>
            <ns3:cad>57</ns3:cad>
          </ns3:TrackPointExtension>
        </extensions>
      </trkpt>
      <trkpt lat="44.6960817463696002960205078125" lon="6.76690111868083477020263671875">
        <ele>1918.4000244140625</ele>
        <time>2026-09-03T07:15:54.000Z</time>
        <extensions>
          <ns3:TrackPointExtension>
            <ns3:hr>163</ns3:hr>
            <ns3:cad>57</ns3:cad>
          </ns3:TrackPointExtension>
        </extensions>
      </trkpt>
      <trkpt lat="44.696073867380619049072265625" lon="6.766904890537261962890625">
        <ele>1918.5999755859375</ele>
        <time>2026-09-03T07:15:55.000Z</time>
        <extensions>
          <ns3:TrackPointExtension>
            <ns3:hr>163</ns3:hr>
            <ns3:cad>57</ns3:cad>
          </ns3:TrackPointExtension>
        </extensions>
      </trkpt>
      <trkpt lat="44.69606054015457630157470703125" lon="6.766917966306209564208984375">
        <ele>1918.800048828125</ele>
        <time>2026-09-03T07:15:56.000Z</time>
        <extensions>
          <ns3:TrackPointExtension>
            <ns3:hr>162</ns3:hr>
            <ns3:cad>57</ns3:cad>
          </ns3:TrackPointExtension>
        </extensions>
      </trkpt>
      <trkpt lat="44.69605266116559505462646484375" lon="6.76692626439034938812255859375">
        <ele>1919</ele>
        <time>2026-09-03T07:15:57.000Z</time>
        <extensions>
          <ns3:TrackPointExtension>
            <ns3:hr>163</ns3:hr>
            <ns3:cad>57</ns3:cad>
          </ns3:TrackPointExtension>
        </extensions>
      </trkpt>
      <trkpt lat="44.69604260288178920745849609375" lon="6.7669355683028697967529296875">
        <ele>1919.199951171875</ele>
        <time>2026-09-03T07:15:58.000Z</time>
        <extensions>
          <ns3:TrackPointExtension>
            <ns3:hr>163</ns3:hr>
            <ns3:cad>57</ns3:cad>
          </ns3:TrackPointExtension>
        </extensions>
      </trkpt>
      <trkpt lat="44.696034975349903106689453125" lon="6.76694403402507305145263671875">
        <ele>1919.199951171875</ele>
        <time>2026-09-03T07:15:59.000Z</time>
        <extensions>
          <ns3:TrackPointExtension>
            <ns3:hr>162</ns3:hr>
            <ns3:cad>54</ns3:cad>
          </ns3:TrackPointExtension>
        </extensions>
      </trkpt>
      <trkpt lat="44.69602818600833415985107421875" lon="6.7669518291950225830078125">
        <ele>1919.4000244140625</ele>
        <time>2026-09-03T07:16:00.000Z</time>
        <extensions>
          <ns3:TrackPointExtension>
            <ns3:hr>161</ns3:hr>
            <ns3:cad>54</ns3:cad>
          </ns3:TrackPointExtension>
        </extensions>
      </trkpt>
      <trkpt lat="44.69602458178997039794921875" lon="6.76696054637432098388671875">
        <ele>1919.5999755859375</ele>
        <time>2026-09-03T07:16:01.000Z</time>
        <extensions>
          <ns3:TrackPointExtension>
            <ns3:hr>160</ns3:hr>
            <ns3:cad>0</ns3:cad>
          </ns3:TrackPointExtension>
        </extensions>
      </trkpt>
      <trkpt lat="44.69602148048579692840576171875" lon="6.7669687606394290924072265625">
        <ele>1919.800048828125</ele>
        <time>2026-09-03T07:16:02.000Z</time>
        <extensions>
          <ns3:TrackPointExtension>
            <ns3:hr>159</ns3:hr>
            <ns3:cad>0</ns3:cad>
          </ns3:TrackPointExtension>
        </extensions>
      </trkpt>
      <trkpt lat="44.69601779244840145111083984375" lon="6.7669798247516155242919921875">
        <ele>1920</ele>
        <time>2026-09-03T07:16:03.000Z</time>
        <extensions>
          <ns3:TrackPointExtension>
            <ns3:hr>158</ns3:hr>
            <ns3:cad>0</ns3:cad>
          </ns3:TrackPointExtension>
        </extensions>
      </trkpt>
      <trkpt lat="44.6960130147635936737060546875" lon="6.7669808305799961090087890625">
        <ele>1920.199951171875</ele>
        <time>2026-09-03T07:16:04.000Z</time>
        <extensions>
          <ns3:TrackPointExtension>
            <ns3:hr>158</ns3:hr>
            <ns3:cad>0</ns3:cad>
          </ns3:TrackPointExtension>
        </extensions>
      </trkpt>
      <trkpt lat="44.69600689597427845001220703125" lon="6.766990385949611663818359375">
        <ele>1920.4000244140625</ele>
        <time>2026-09-03T07:16:05.000Z</time>
        <extensions>
          <ns3:TrackPointExtension>
            <ns3:hr>158</ns3:hr>
            <ns3:cad>0</ns3:cad>
          </ns3:TrackPointExtension>
        </extensions>
      </trkpt>
      <trkpt lat="44.6960051357746124267578125" lon="6.76699382252991199493408203125">
        <ele>1920.5999755859375</ele>
        <time>2026-09-03T07:16:06.000Z</time>
        <extensions>
          <ns3:TrackPointExtension>
            <ns3:hr>158</ns3:hr>
            <ns3:cad>0</ns3:cad>
          </ns3:TrackPointExtension>
        </extensions>
      </trkpt>
      <trkpt lat="44.69599767588078975677490234375" lon="6.767002455890178680419921875">
        <ele>1920.800048828125</ele>
        <time>2026-09-03T07:16:07.000Z</time>
        <extensions>
          <ns3:TrackPointExtension>
            <ns3:hr>159</ns3:hr>
            <ns3:cad>0</ns3:cad>
          </ns3:TrackPointExtension>
        </extensions>
      </trkpt>
      <trkpt lat="44.69598946161568164825439453125" lon="6.76701595075428485870361328125">
        <ele>1921</ele>
        <time>2026-09-03T07:16:08.000Z</time>
        <extensions>
          <ns3:TrackPointExtension>
            <ns3:hr>158</ns3:hr>
            <ns3:cad>0</ns3:cad>
          </ns3:TrackPointExtension>
        </extensions>
      </trkpt>
      <trkpt lat="44.69597470946609973907470703125" lon="6.7670311219990253448486328125">
        <ele>1921.199951171875</ele>
        <time>2026-09-03T07:16:09.000Z</time>
        <extensions>
          <ns3:TrackPointExtension>
            <ns3:hr>158</ns3:hr>
            <ns3:cad>0</ns3:cad>
          </ns3:TrackPointExtension>
        </extensions>
      </trkpt>
      <trkpt lat="44.695964567363262176513671875" lon="6.7670468799769878387451171875">
        <ele>1921.199951171875</ele>
        <time>2026-09-03T07:16:10.000Z</time>
        <extensions>
          <ns3:TrackPointExtension>
            <ns3:hr>158</ns3:hr>
            <ns3:cad>0</ns3:cad>
          </ns3:TrackPointExtension>
        </extensions>
      </trkpt>
      <trkpt lat="44.6959516592323780059814453125" lon="6.7670586146414279937744140625">
        <ele>1921.4000244140625</ele>
        <time>2026-09-03T07:16:11.000Z</time>
        <extensions>
          <ns3:TrackPointExtension>
            <ns3:hr>157</ns3:hr>
            <ns3:cad>0</ns3:cad>
          </ns3:TrackPointExtension>
        </extensions>
      </trkpt>
      <trkpt lat="44.695942439138889312744140625" lon="6.76707060076296329498291015625">
        <ele>1921.5999755859375</ele>
        <time>2026-09-03T07:16:12.000Z</time>
        <extensions>
          <ns3:TrackPointExtension>
            <ns3:hr>157</ns3:hr>
            <ns3:cad>0</ns3:cad>
          </ns3:TrackPointExtension>
        </extensions>
      </trkpt>
      <trkpt lat="44.69593615271151065826416015625" lon="6.76707529462873935699462890625">
        <ele>1921.800048828125</ele>
        <time>2026-09-03T07:16:13.000Z</time>
        <extensions>
          <ns3:TrackPointExtension>
            <ns3:hr>157</ns3:hr>
            <ns3:cad>0</ns3:cad>
          </ns3:TrackPointExtension>
        </extensions>
      </trkpt>
      <trkpt lat="44.69592802226543426513671875" lon="6.767086945474147796630859375">
        <ele>1921.800048828125</ele>
        <time>2026-09-03T07:16:14.000Z</time>
        <extensions>
          <ns3:TrackPointExtension>
            <ns3:hr>157</ns3:hr>
            <ns3:cad>0</ns3:cad>
          </ns3:TrackPointExtension>
        </extensions>
      </trkpt>
      <trkpt lat="44.6959271840751171112060546875" lon="6.76708702929317951202392578125">
        <ele>1922</ele>
        <time>2026-09-03T07:16:15.000Z</time>
        <extensions>
          <ns3:TrackPointExtension>
            <ns3:hr>157</ns3:hr>
            <ns3:cad>0</ns3:cad>
          </ns3:TrackPointExtension>
        </extensions>
      </trkpt>
      <trkpt lat="44.6959171257913112640380859375" lon="6.76709691993892192840576171875">
        <ele>1922.199951171875</ele>
        <time>2026-09-03T07:16:16.000Z</time>
        <extensions>
          <ns3:TrackPointExtension>
            <ns3:hr>157</ns3:hr>
            <ns3:cad>0</ns3:cad>
          </ns3:TrackPointExtension>
        </extensions>
      </trkpt>
      <trkpt lat="44.6959127672016620635986328125" lon="6.76709926687180995941162109375">
        <ele>1922.4000244140625</ele>
        <time>2026-09-03T07:16:17.000Z</time>
        <extensions>
          <ns3:TrackPointExtension>
            <ns3:hr>156</ns3:hr>
            <ns3:cad>0</ns3:cad>
          </ns3:TrackPointExtension>
        </extensions>
      </trkpt>
      <trkpt lat="44.69590279273688793182373046875" lon="6.76711100153625011444091796875">
        <ele>1922.5999755859375</ele>
        <time>2026-09-03T07:16:18.000Z</time>
        <extensions>
          <ns3:TrackPointExtension>
            <ns3:hr>156</ns3:hr>
            <ns3:cad>0</ns3:cad>
          </ns3:TrackPointExtension>
        </extensions>
      </trkpt>
      <trkpt lat="44.6958929859101772308349609375" lon="6.7671229876577854156494140625">
        <ele>1922.5999755859375</ele>
        <time>2026-09-03T07:16:19.000Z</time>
        <extensions>
          <ns3:TrackPointExtension>
            <ns3:hr>156</ns3:hr>
            <ns3:cad>53</ns3:cad>
          </ns3:TrackPointExtension>
        </extensions>
      </trkpt>
      <trkpt lat="44.69588301144540309906005859375" lon="6.7671283520758152008056640625">
        <ele>1922.800048828125</ele>
        <time>2026-09-03T07:16:20.000Z</time>
        <extensions>
          <ns3:TrackPointExtension>
            <ns3:hr>157</ns3:hr>
            <ns3:cad>53</ns3:cad>
          </ns3:TrackPointExtension>
        </extensions>
      </trkpt>
      <trkpt lat="44.6958735398948192596435546875" lon="6.76713715307414531707763671875">
        <ele>1923</ele>
        <time>2026-09-03T07:16:21.000Z</time>
        <extensions>
          <ns3:TrackPointExtension>
            <ns3:hr>156</ns3:hr>
            <ns3:cad>53</ns3:cad>
          </ns3:TrackPointExtension>
        </extensions>
      </trkpt>
      <trkpt lat="44.6958681754767894744873046875" lon="6.76714159548282623291015625">
        <ele>1923.199951171875</ele>
        <time>2026-09-03T07:16:22.000Z</time>
        <extensions>
          <ns3:TrackPointExtension>
            <ns3:hr>156</ns3:hr>
            <ns3:cad>53</ns3:cad>
          </ns3:TrackPointExtension>
        </extensions>
      </trkpt>
      <trkpt lat="44.69586105085909366607666015625" lon="6.76715140230953693389892578125">
        <ele>1923.4000244140625</ele>
        <time>2026-09-03T07:16:23.000Z</time>
        <extensions>
          <ns3:TrackPointExtension>
            <ns3:hr>156</ns3:hr>
            <ns3:cad>0</ns3:cad>
          </ns3:TrackPointExtension>
        </extensions>
      </trkpt>
      <trkpt lat="44.6958581171929836273193359375" lon="6.76715659908950328826904296875">
        <ele>1923.5999755859375</ele>
        <time>2026-09-03T07:16:24.000Z</time>
        <extensions>
          <ns3:TrackPointExtension>
            <ns3:hr>156</ns3:hr>
            <ns3:cad>0</ns3:cad>
          </ns3:TrackPointExtension>
        </extensions>
      </trkpt>
      <trkpt lat="44.69585317187011241912841796875" lon="6.76716481335461139678955078125">
        <ele>1923.800048828125</ele>
        <time>2026-09-03T07:16:25.000Z</time>
        <extensions>
          <ns3:TrackPointExtension>
            <ns3:hr>156</ns3:hr>
            <ns3:cad>0</ns3:cad>
          </ns3:TrackPointExtension>
        </extensions>
      </trkpt>
      <trkpt lat="44.69584529288113117218017578125" lon="6.76717135123908519744873046875">
        <ele>1924</ele>
        <time>2026-09-03T07:16:26.000Z</time>
        <extensions>
          <ns3:TrackPointExtension>
            <ns3:hr>156</ns3:hr>
            <ns3:cad>0</ns3:cad>
          </ns3:TrackPointExtension>
        </extensions>
      </trkpt>
      <trkpt lat="44.69584076665341854095458984375" lon="6.767172105610370635986328125">
        <ele>1924.199951171875</ele>
        <time>2026-09-03T07:16:27.000Z</time>
        <extensions>
          <ns3:TrackPointExtension>
            <ns3:hr>156</ns3:hr>
            <ns3:cad>0</ns3:cad>
          </ns3:TrackPointExtension>
        </extensions>
      </trkpt>
      <trkpt lat="44.69583213329315185546875" lon="6.76717805676162242889404296875">
        <ele>1924.4000244140625</ele>
        <time>2026-09-03T07:16:28.000Z</time>
        <extensions>
          <ns3:TrackPointExtension>
            <ns3:hr>156</ns3:hr>
            <ns3:cad>40</ns3:cad>
          </ns3:TrackPointExtension>
        </extensions>
      </trkpt>
      <trkpt lat="44.695826433598995208740234375" lon="6.7671853490173816680908203125">
        <ele>1924.5999755859375</ele>
        <time>2026-09-03T07:16:29.000Z</time>
        <extensions>
          <ns3:TrackPointExtension>
            <ns3:hr>155</ns3:hr>
            <ns3:cad>40</ns3:cad>
          </ns3:TrackPointExtension>
        </extensions>
      </trkpt>
      <trkpt lat="44.6958182193338871002197265625" lon="6.767194233834743499755859375">
        <ele>1925</ele>
        <time>2026-09-03T07:16:30.000Z</time>
        <extensions>
          <ns3:TrackPointExtension>
            <ns3:hr>156</ns3:hr>
            <ns3:cad>40</ns3:cad>
          </ns3:TrackPointExtension>
        </extensions>
      </trkpt>
      <trkpt lat="44.69581210054457187652587890625" lon="6.7672034539282321929931640625">
        <ele>1925.199951171875</ele>
        <time>2026-09-03T07:16:31.000Z</time>
        <extensions>
          <ns3:TrackPointExtension>
            <ns3:hr>156</ns3:hr>
            <ns3:cad>40</ns3:cad>
          </ns3:TrackPointExtension>
        </extensions>
      </trkpt>
      <trkpt lat="44.6958088316023349761962890625" lon="6.76720202900469303131103515625">
        <ele>1925.4000244140625</ele>
        <time>2026-09-03T07:16:32.000Z</time>
        <extensions>
          <ns3:TrackPointExtension>
            <ns3:hr>156</ns3:hr>
            <ns3:cad>40</ns3:cad>
          </ns3:TrackPointExtension>
        </extensions>
      </trkpt>
      <trkpt lat="44.69580288045108318328857421875" lon="6.76720923744142055511474609375">
        <ele>1925.5999755859375</ele>
        <time>2026-09-03T07:16:33.000Z</time>
        <extensions>
          <ns3:TrackPointExtension>
            <ns3:hr>156</ns3:hr>
            <ns3:cad>0</ns3:cad>
          </ns3:TrackPointExtension>
        </extensions>
      </trkpt>
      <trkpt lat="44.69580254517495632171630859375" lon="6.76720974035561084747314453125">
        <ele>1925.5999755859375</ele>
        <time>2026-09-03T07:16:34.000Z</time>
        <extensions>
          <ns3:TrackPointExtension>
            <ns3:hr>156</ns3:hr>
            <ns3:cad>0</ns3:cad>
          </ns3:TrackPointExtension>
        </extensions>
      </trkpt>
      <trkpt lat="44.69579282216727733612060546875" lon="6.76721678115427494049072265625">
        <ele>1925.800048828125</ele>
        <time>2026-09-03T07:16:35.000Z</time>
        <extensions>
          <ns3:TrackPointExtension>
            <ns3:hr>156</ns3:hr>
            <ns3:cad>0</ns3:cad>
          </ns3:TrackPointExtension>
        </extensions>
      </trkpt>
      <trkpt lat="44.69578829593956470489501953125" lon="6.76722013391554355621337890625">
        <ele>1926</ele>
        <time>2026-09-03T07:16:36.000Z</time>
        <extensions>
          <ns3:TrackPointExtension>
            <ns3:hr>156</ns3:hr>
            <ns3:cad>0</ns3:cad>
          </ns3:TrackPointExtension>
        </extensions>
      </trkpt>
      <trkpt lat="44.695778824388980865478515625" lon="6.76723287440836429595947265625">
        <ele>1926.199951171875</ele>
        <time>2026-09-03T07:16:37.000Z</time>
        <extensions>
          <ns3:TrackPointExtension>
            <ns3:hr>156</ns3:hr>
            <ns3:cad>0</ns3:cad>
          </ns3:TrackPointExtension>
        </extensions>
      </trkpt>
      <trkpt lat="44.69576843082904815673828125" lon="6.76724108867347240447998046875">
        <ele>1926.4000244140625</ele>
        <time>2026-09-03T07:16:38.000Z</time>
        <extensions>
          <ns3:TrackPointExtension>
            <ns3:hr>156</ns3:hr>
            <ns3:cad>0</ns3:cad>
          </ns3:TrackPointExtension>
        </extensions>
      </trkpt>
      <trkpt lat="44.69575929455459117889404296875" lon="6.76724980585277080535888671875">
        <ele>1926.5999755859375</ele>
        <time>2026-09-03T07:16:39.000Z</time>
        <extensions>
          <ns3:TrackPointExtension>
            <ns3:hr>157</ns3:hr>
            <ns3:cad>0</ns3:cad>
          </ns3:TrackPointExtension>
        </extensions>
      </trkpt>
      <trkpt lat="44.69575476832687854766845703125" lon="6.767263971269130706787109375">
        <ele>1926.800048828125</ele>
        <time>2026-09-03T07:16:40.000Z</time>
        <extensions>
          <ns3:TrackPointExtension>
            <ns3:hr>156</ns3:hr>
            <ns3:cad>0</ns3:cad>
          </ns3:TrackPointExtension>
        </extensions>
      </trkpt>
      <trkpt lat="44.69575376249849796295166015625" lon="6.7672698386013507843017578125">
        <ele>1927</ele>
        <time>2026-09-03T07:16:41.000Z</time>
        <extensions>
          <ns3:TrackPointExtension>
            <ns3:hr>156</ns3:hr>
            <ns3:cad>0</ns3:cad>
          </ns3:TrackPointExtension>
        </extensions>
      </trkpt>
      <trkpt lat="44.6957441233098506927490234375" lon="6.7672852613031864166259765625">
        <ele>1927.199951171875</ele>
        <time>2026-09-03T07:16:42.000Z</time>
        <extensions>
          <ns3:TrackPointExtension>
            <ns3:hr>157</ns3:hr>
            <ns3:cad>0</ns3:cad>
          </ns3:TrackPointExtension>
        </extensions>
      </trkpt>
      <trkpt lat="44.6957384236156940460205078125" lon="6.7672946490347385406494140625">
        <ele>1927.199951171875</ele>
        <time>2026-09-03T07:16:43.000Z</time>
        <extensions>
          <ns3:TrackPointExtension>
            <ns3:hr>156</ns3:hr>
            <ns3:cad>0</ns3:cad>
          </ns3:TrackPointExtension>
        </extensions>
      </trkpt>
      <trkpt lat="44.69572744332253932952880859375" lon="6.767302863299846649169921875">
        <ele>1927.4000244140625</ele>
        <time>2026-09-03T07:16:44.000Z</time>
        <extensions>
          <ns3:TrackPointExtension>
            <ns3:hr>156</ns3:hr>
            <ns3:cad>0</ns3:cad>
          </ns3:TrackPointExtension>
        </extensions>
      </trkpt>
      <trkpt lat="44.6957216598093509674072265625" lon="6.7673114128410816192626953125">
        <ele>1927.5999755859375</ele>
        <time>2026-09-03T07:16:45.000Z</time>
        <extensions>
          <ns3:TrackPointExtension>
            <ns3:hr>156</ns3:hr>
            <ns3:cad>0</ns3:cad>
          </ns3:TrackPointExtension>
        </extensions>
      </trkpt>
      <trkpt lat="44.695715121924877166748046875" lon="6.76732004620134830474853515625">
        <ele>1927.800048828125</ele>
        <time>2026-09-03T07:16:46.000Z</time>
        <extensions>
          <ns3:TrackPointExtension>
            <ns3:hr>157</ns3:hr>
            <ns3:cad>0</ns3:cad>
          </ns3:TrackPointExtension>
        </extensions>
      </trkpt>
      <trkpt lat="44.69570674002170562744140625" lon="6.767333038151264190673828125">
        <ele>1927.800048828125</ele>
        <time>2026-09-03T07:16:47.000Z</time>
        <extensions>
          <ns3:TrackPointExtension>
            <ns3:hr>156</ns3:hr>
            <ns3:cad>0</ns3:cad>
          </ns3:TrackPointExtension>
        </extensions>
      </trkpt>
      <trkpt lat="44.6956980228424072265625" lon="6.76734066568315029144287109375">
        <ele>1928</ele>
        <time>2026-09-03T07:16:48.000Z</time>
        <extensions>
          <ns3:TrackPointExtension>
            <ns3:hr>156</ns3:hr>
            <ns3:cad>0</ns3:cad>
          </ns3:TrackPointExtension>
        </extensions>
      </trkpt>
      <trkpt lat="44.695688970386981964111328125" lon="6.76735080778598785400390625">
        <ele>1928.199951171875</ele>
        <time>2026-09-03T07:16:49.000Z</time>
        <extensions>
          <ns3:TrackPointExtension>
            <ns3:hr>156</ns3:hr>
            <ns3:cad>0</ns3:cad>
          </ns3:TrackPointExtension>
        </extensions>
      </trkpt>
      <trkpt lat="44.69568260014057159423828125" lon="6.7673533223569393157958984375">
        <ele>1928.199951171875</ele>
        <time>2026-09-03T07:16:50.000Z</time>
        <extensions>
          <ns3:TrackPointExtension>
            <ns3:hr>156</ns3:hr>
            <ns3:cad>0</ns3:cad>
          </ns3:TrackPointExtension>
        </extensions>
      </trkpt>
      <trkpt lat="44.69567430205643177032470703125" lon="6.76736262626945972442626953125">
        <ele>1928.4000244140625</ele>
        <time>2026-09-03T07:16:51.000Z</time>
        <extensions>
          <ns3:TrackPointExtension>
            <ns3:hr>156</ns3:hr>
            <ns3:cad>0</ns3:cad>
          </ns3:TrackPointExtension>
        </extensions>
      </trkpt>
      <trkpt lat="44.69567212276160717010498046875" lon="6.76737335510551929473876953125">
        <ele>1928.4000244140625</ele>
        <time>2026-09-03T07:16:52.000Z</time>
        <extensions>
          <ns3:TrackPointExtension>
            <ns3:hr>156</ns3:hr>
            <ns3:cad>0</ns3:cad>
          </ns3:TrackPointExtension>
        </extensions>
      </trkpt>
      <trkpt lat="44.69566407613456249237060546875" lon="6.76738542504608631134033203125">
        <ele>1928.5999755859375</ele>
        <time>2026-09-03T07:16:53.000Z</time>
        <extensions>
          <ns3:TrackPointExtension>
            <ns3:hr>157</ns3:hr>
            <ns3:cad>0</ns3:cad>
          </ns3:TrackPointExtension>
        </extensions>
      </trkpt>
      <trkpt lat="44.69565334729850292205810546875" lon="6.767398416996002197265625">
        <ele>1928.5999755859375</ele>
        <time>2026-09-03T07:16:54.000Z</time>
        <extensions>
          <ns3:TrackPointExtension>
            <ns3:hr>156</ns3:hr>
            <ns3:cad>0</ns3:cad>
          </ns3:TrackPointExtension>
        </extensions>
      </trkpt>
      <trkpt lat="44.69564236700534820556640625" lon="6.76741258241236209869384765625">
        <ele>1928.800048828125</ele>
        <time>2026-09-03T07:16:55.000Z</time>
        <extensions>
          <ns3:TrackPointExtension>
            <ns3:hr>156</ns3:hr>
            <ns3:cad>53</ns3:cad>
          </ns3:TrackPointExtension>
        </extensions>
      </trkpt>
      <trkpt lat="44.695634655654430389404296875" lon="6.76742188632488250732421875">
        <ele>1929</ele>
        <time>2026-09-03T07:16:56.000Z</time>
        <extensions>
          <ns3:TrackPointExtension>
            <ns3:hr>156</ns3:hr>
            <ns3:cad>54</ns3:cad>
          </ns3:TrackPointExtension>
        </extensions>
      </trkpt>
      <trkpt lat="44.6956274472177028656005859375" lon="6.767429597675800323486328125">
        <ele>1929.199951171875</ele>
        <time>2026-09-03T07:16:57.000Z</time>
        <extensions>
          <ns3:TrackPointExtension>
            <ns3:hr>157</ns3:hr>
            <ns3:cad>54</ns3:cad>
          </ns3:TrackPointExtension>
        </extensions>
      </trkpt>
      <trkpt lat="44.695622585713863372802734375" lon="6.767436973750591278076171875">
        <ele>1929.5999755859375</ele>
        <time>2026-09-03T07:16:58.000Z</time>
        <extensions>
          <ns3:TrackPointExtension>
            <ns3:hr>156</ns3:hr>
            <ns3:cad>54</ns3:cad>
          </ns3:TrackPointExtension>
        </extensions>
      </trkpt>
      <trkpt lat="44.6956163831055164337158203125" lon="6.76744678057730197906494140625">
        <ele>1929.800048828125</ele>
        <time>2026-09-03T07:16:59.000Z</time>
        <extensions>
          <ns3:TrackPointExtension>
            <ns3:hr>156</ns3:hr>
            <ns3:cad>54</ns3:cad>
          </ns3:TrackPointExtension>
        </extensions>
      </trkpt>
      <trkpt lat="44.69560959376394748687744140625" lon="6.76745474338531494140625">
        <ele>1930</ele>
        <time>2026-09-03T07:17:00.000Z</time>
        <extensions>
          <ns3:TrackPointExtension>
            <ns3:hr>156</ns3:hr>
            <ns3:cad>54</ns3:cad>
          </ns3:TrackPointExtension>
        </extensions>
      </trkpt>
      <trkpt lat="44.69560305587947368621826171875" lon="6.76746354438364505767822265625">
        <ele>1929.800048828125</ele>
        <time>2026-09-03T07:17:01.000Z</time>
        <extensions>
          <ns3:TrackPointExtension>
            <ns3:hr>156</ns3:hr>
            <ns3:cad>54</ns3:cad>
          </ns3:TrackPointExtension>
        </extensions>
      </trkpt>
      <trkpt lat="44.69559702090919017791748046875" lon="6.7674740217626094818115234375">
        <ele>1929.800048828125</ele>
        <time>2026-09-03T07:17:02.000Z</time>
        <extensions>
          <ns3:TrackPointExtension>
            <ns3:hr>156</ns3:hr>
            <ns3:cad>54</ns3:cad>
          </ns3:TrackPointExtension>
        </extensions>
      </trkpt>
      <trkpt lat="44.69558813609182834625244140625" lon="6.7674847505986690521240234375">
        <ele>1929.800048828125</ele>
        <time>2026-09-03T07:17:03.000Z</time>
        <extensions>
          <ns3:TrackPointExtension>
            <ns3:hr>156</ns3:hr>
            <ns3:cad>54</ns3:cad>
          </ns3:TrackPointExtension>
        </extensions>
      </trkpt>
      <trkpt lat="44.695580340921878814697265625" lon="6.76749522797763347625732421875">
        <ele>1929.800048828125</ele>
        <time>2026-09-03T07:17:04.000Z</time>
        <extensions>
          <ns3:TrackPointExtension>
            <ns3:hr>157</ns3:hr>
            <ns3:cad>54</ns3:cad>
          </ns3:TrackPointExtension>
        </extensions>
      </trkpt>
      <trkpt lat="44.695571959018707275390625" lon="6.76750344224274158477783203125">
        <ele>1930</ele>
        <time>2026-09-03T07:17:05.000Z</time>
        <extensions>
          <ns3:TrackPointExtension>
            <ns3:hr>156</ns3:hr>
            <ns3:cad>54</ns3:cad>
          </ns3:TrackPointExtension>
        </extensions>
      </trkpt>
      <trkpt lat="44.69556332565844058990478515625" lon="6.767512075603008270263671875">
        <ele>1930.4000244140625</ele>
        <time>2026-09-03T07:17:06.000Z</time>
        <extensions>
          <ns3:TrackPointExtension>
            <ns3:hr>156</ns3:hr>
            <ns3:cad>54</ns3:cad>
          </ns3:TrackPointExtension>
        </extensions>
      </trkpt>
      <trkpt lat="44.69555444084107875823974609375" lon="6.76752389408648014068603515625">
        <ele>1930.800048828125</ele>
        <time>2026-09-03T07:17:07.000Z</time>
        <extensions>
          <ns3:TrackPointExtension>
            <ns3:hr>156</ns3:hr>
            <ns3:cad>54</ns3:cad>
          </ns3:TrackPointExtension>
        </extensions>
      </trkpt>
      <trkpt lat="44.69554723240435123443603515625" lon="6.76753512583673000335693359375">
        <ele>1931.199951171875</ele>
        <time>2026-09-03T07:17:08.000Z</time>
        <extensions>
          <ns3:TrackPointExtension>
            <ns3:hr>157</ns3:hr>
            <ns3:cad>54</ns3:cad>
          </ns3:TrackPointExtension>
        </extensions>
      </trkpt>
      <trkpt lat="44.6955409459769725799560546875" lon="6.7675437591969966888427734375">
        <ele>1931.4000244140625</ele>
        <time>2026-09-03T07:17:09.000Z</time>
        <extensions>
          <ns3:TrackPointExtension>
            <ns3:hr>156</ns3:hr>
            <ns3:cad>55</ns3:cad>
          </ns3:TrackPointExtension>
        </extensions>
      </trkpt>
      <trkpt lat="44.69553449191153049468994140625" lon="6.76754971034824848175048828125">
        <ele>1931.5999755859375</ele>
        <time>2026-09-03T07:17:10.000Z</time>
        <extensions>
          <ns3:TrackPointExtension>
            <ns3:hr>156</ns3:hr>
            <ns3:cad>55</ns3:cad>
          </ns3:TrackPointExtension>
        </extensions>
      </trkpt>
      <trkpt lat="44.6955275349318981170654296875" lon="6.76755624823272228240966796875">
        <ele>1931.5999755859375</ele>
        <time>2026-09-03T07:17:11.000Z</time>
        <extensions>
          <ns3:TrackPointExtension>
            <ns3:hr>155</ns3:hr>
            <ns3:cad>54</ns3:cad>
          </ns3:TrackPointExtension>
        </extensions>
      </trkpt>
      <trkpt lat="44.695518650114536285400390625" lon="6.76756496541202068328857421875">
        <ele>1931.800048828125</ele>
        <time>2026-09-03T07:17:12.000Z</time>
        <extensions>
          <ns3:TrackPointExtension>
            <ns3:hr>153</ns3:hr>
            <ns3:cad>53</ns3:cad>
          </ns3:TrackPointExtension>
        </extensions>
      </trkpt>
      <trkpt lat="44.69551152549684047698974609375" lon="6.76757301203906536102294921875">
        <ele>1932</ele>
        <time>2026-09-03T07:17:13.000Z</time>
        <extensions>
          <ns3:TrackPointExtension>
            <ns3:hr>152</ns3:hr>
            <ns3:cad>53</ns3:cad>
          </ns3:TrackPointExtension>
        </extensions>
      </trkpt>
      <trkpt lat="44.6955060772597789764404296875" lon="6.76758022047579288482666015625">
        <ele>1932</ele>
        <time>2026-09-03T07:17:14.000Z</time>
        <extensions>
          <ns3:TrackPointExtension>
            <ns3:hr>152</ns3:hr>
            <ns3:cad>53</ns3:cad>
          </ns3:TrackPointExtension>
        </extensions>
      </trkpt>
      <trkpt lat="44.69549794681370258331298828125" lon="6.7675893567502498626708984375">
        <ele>1932.199951171875</ele>
        <time>2026-09-03T07:17:15.000Z</time>
        <extensions>
          <ns3:TrackPointExtension>
            <ns3:hr>152</ns3:hr>
            <ns3:cad>52</ns3:cad>
          </ns3:TrackPointExtension>
        </extensions>
      </trkpt>
      <trkpt lat="44.69548990018665790557861328125" lon="6.767602264881134033203125">
        <ele>1932.4000244140625</ele>
        <time>2026-09-03T07:17:16.000Z</time>
        <extensions>
          <ns3:TrackPointExtension>
            <ns3:hr>152</ns3:hr>
            <ns3:cad>52</ns3:cad>
          </ns3:TrackPointExtension>
        </extensions>
      </trkpt>
      <trkpt lat="44.6954816021025180816650390625" lon="6.76761307753622531890869140625">
        <ele>1932.5999755859375</ele>
        <time>2026-09-03T07:17:17.000Z</time>
        <extensions>
          <ns3:TrackPointExtension>
            <ns3:hr>152</ns3:hr>
            <ns3:cad>51</ns3:cad>
          </ns3:TrackPointExtension>
        </extensions>
      </trkpt>
      <trkpt lat="44.695473052561283111572265625" lon="6.7676245607435703277587890625">
        <ele>1932.800048828125</ele>
        <time>2026-09-03T07:17:18.000Z</time>
        <extensions>
          <ns3:TrackPointExtension>
            <ns3:hr>152</ns3:hr>
            <ns3:cad>51</ns3:cad>
          </ns3:TrackPointExtension>
        </extensions>
      </trkpt>
      <trkpt lat="44.6954668499529361724853515625" lon="6.767635457217693328857421875">
        <ele>1932.800048828125</ele>
        <time>2026-09-03T07:17:19.000Z</time>
        <extensions>
          <ns3:TrackPointExtension>
            <ns3:hr>152</ns3:hr>
            <ns3:cad>49</ns3:cad>
          </ns3:TrackPointExtension>
        </extensions>
      </trkpt>
      <trkpt lat="44.6954584680497646331787109375" lon="6.7676483653485774993896484375">
        <ele>1932.800048828125</ele>
        <time>2026-09-03T07:17:20.000Z</time>
        <extensions>
          <ns3:TrackPointExtension>
            <ns3:hr>151</ns3:hr>
            <ns3:cad>49</ns3:cad>
          </ns3:TrackPointExtension>
        </extensions>
      </trkpt>
      <trkpt lat="44.6954544447362422943115234375" lon="6.7676580883562564849853515625">
        <ele>1932.800048828125</ele>
        <time>2026-09-03T07:17:21.000Z</time>
        <extensions>
          <ns3:TrackPointExtension>
            <ns3:hr>151</ns3:hr>
            <ns3:cad>49</ns3:cad>
          </ns3:TrackPointExtension>
        </extensions>
      </trkpt>
      <trkpt lat="44.6954552829265594482421875" lon="6.76767141558229923248291015625">
        <ele>1933</ele>
        <time>2026-09-03T07:17:22.000Z</time>
        <extensions>
          <ns3:TrackPointExtension>
            <ns3:hr>151</ns3:hr>
            <ns3:cad>50</ns3:cad>
          </ns3:TrackPointExtension>
        </extensions>
      </trkpt>
      <trkpt lat="44.69545469619333744049072265625" lon="6.76768532954156398773193359375">
        <ele>1933.199951171875</ele>
        <time>2026-09-03T07:17:23.000Z</time>
        <extensions>
          <ns3:TrackPointExtension>
            <ns3:hr>151</ns3:hr>
            <ns3:cad>52</ns3:cad>
          </ns3:TrackPointExtension>
        </extensions>
      </trkpt>
      <trkpt lat="44.6954557858407497406005859375" lon="6.76769488491117954254150390625">
        <ele>1933.4000244140625</ele>
        <time>2026-09-03T07:17:24.000Z</time>
        <extensions>
          <ns3:TrackPointExtension>
            <ns3:hr>152</ns3:hr>
            <ns3:cad>52</ns3:cad>
          </ns3:TrackPointExtension>
        </extensions>
      </trkpt>
      <trkpt lat="44.695453606545925140380859375" lon="6.7677030153572559356689453125">
        <ele>1933.800048828125</ele>
        <time>2026-09-03T07:17:25.000Z</time>
        <extensions>
          <ns3:TrackPointExtension>
            <ns3:hr>151</ns3:hr>
            <ns3:cad>55</ns3:cad>
          </ns3:TrackPointExtension>
        </extensions>
      </trkpt>
      <trkpt lat="44.69545151107013225555419921875" lon="6.76771416328847408294677734375">
        <ele>1934</ele>
        <time>2026-09-03T07:17:26.000Z</time>
        <extensions>
          <ns3:TrackPointExtension>
            <ns3:hr>151</ns3:hr>
            <ns3:cad>55</ns3:cad>
          </ns3:TrackPointExtension>
        </extensions>
      </trkpt>
      <trkpt lat="44.6954484097659587860107421875" lon="6.76772656850516796112060546875">
        <ele>1934.4000244140625</ele>
        <time>2026-09-03T07:17:27.000Z</time>
        <extensions>
          <ns3:TrackPointExtension>
            <ns3:hr>151</ns3:hr>
            <ns3:cad>55</ns3:cad>
          </ns3:TrackPointExtension>
        </extensions>
      </trkpt>
      <trkpt lat="44.69544312916696071624755859375" lon="6.76773570477962493896484375">
        <ele>1934.5999755859375</ele>
        <time>2026-09-03T07:17:28.000Z</time>
        <extensions>
          <ns3:TrackPointExtension>
            <ns3:hr>151</ns3:hr>
            <ns3:cad>48</ns3:cad>
          </ns3:TrackPointExtension>
        </extensions>
      </trkpt>
      <trkpt lat="44.6954380162060260772705078125" lon="6.76775037311017513275146484375">
        <ele>1935</ele>
        <time>2026-09-03T07:17:29.000Z</time>
        <extensions>
          <ns3:TrackPointExtension>
            <ns3:hr>151</ns3:hr>
            <ns3:cad>48</ns3:cad>
          </ns3:TrackPointExtension>
        </extensions>
      </trkpt>
      <trkpt lat="44.695432148873805999755859375" lon="6.76776386797428131103515625">
        <ele>1935.199951171875</ele>
        <time>2026-09-03T07:17:30.000Z</time>
        <extensions>
          <ns3:TrackPointExtension>
            <ns3:hr>150</ns3:hr>
            <ns3:cad>53</ns3:cad>
          </ns3:TrackPointExtension>
        </extensions>
      </trkpt>
      <trkpt lat="44.69542644917964935302734375" lon="6.76777702756226062774658203125">
        <ele>1935.4000244140625</ele>
        <time>2026-09-03T07:17:31.000Z</time>
        <extensions>
          <ns3:TrackPointExtension>
            <ns3:hr>151</ns3:hr>
            <ns3:cad>53</ns3:cad>
          </ns3:TrackPointExtension>
        </extensions>
      </trkpt>
      <trkpt lat="44.69542250968515872955322265625" lon="6.7677888460457324981689453125">
        <ele>1935.4000244140625</ele>
        <time>2026-09-03T07:17:32.000Z</time>
        <extensions>
          <ns3:TrackPointExtension>
            <ns3:hr>151</ns3:hr>
            <ns3:cad>53</ns3:cad>
          </ns3:TrackPointExtension>
        </extensions>
      </trkpt>
      <trkpt lat="44.695415385067462921142578125" lon="6.76780183799564838409423828125">
        <ele>1935.5999755859375</ele>
        <time>2026-09-03T07:17:33.000Z</time>
        <extensions>
          <ns3:TrackPointExtension>
            <ns3:hr>151</ns3:hr>
            <ns3:cad>53</ns3:cad>
          </ns3:TrackPointExtension>
        </extensions>
      </trkpt>
      <trkpt lat="44.6954085119068622589111328125" lon="6.767815165221691131591796875">
        <ele>1935.5999755859375</ele>
        <time>2026-09-03T07:17:34.000Z</time>
        <extensions>
          <ns3:TrackPointExtension>
            <ns3:hr>151</ns3:hr>
            <ns3:cad>18</ns3:cad>
          </ns3:TrackPointExtension>
        </extensions>
      </trkpt>
      <trkpt lat="44.69539702869951725006103515625" lon="6.76782430149614810943603515625">
        <ele>1935.5999755859375</ele>
        <time>2026-09-03T07:17:35.000Z</time>
        <extensions>
          <ns3:TrackPointExtension>
            <ns3:hr>151</ns3:hr>
            <ns3:cad>18</ns3:cad>
          </ns3:TrackPointExtension>
        </extensions>
      </trkpt>
      <trkpt lat="44.695389904081821441650390625" lon="6.76783016882836818695068359375">
        <ele>1935.800048828125</ele>
        <time>2026-09-03T07:17:36.000Z</time>
        <extensions>
          <ns3:TrackPointExtension>
            <ns3:hr>151</ns3:hr>
            <ns3:cad>0</ns3:cad>
          </ns3:TrackPointExtension>
        </extensions>
      </trkpt>
      <trkpt lat="44.69538210891187191009521484375" lon="6.76783637143671512603759765625">
        <ele>1935.800048828125</ele>
        <time>2026-09-03T07:17:37.000Z</time>
        <extensions>
          <ns3:TrackPointExtension>
            <ns3:hr>151</ns3:hr>
            <ns3:cad>0</ns3:cad>
          </ns3:TrackPointExtension>
        </extensions>
      </trkpt>
      <trkpt lat="44.695373810827732086181640625" lon="6.76784324459731578826904296875">
        <ele>1935.800048828125</ele>
        <time>2026-09-03T07:17:38.000Z</time>
        <extensions>
          <ns3:TrackPointExtension>
            <ns3:hr>151</ns3:hr>
            <ns3:cad>0</ns3:cad>
          </ns3:TrackPointExtension>
        </extensions>
      </trkpt>
      <trkpt lat="44.69536316581070423126220703125" lon="6.76785145886242389678955078125">
        <ele>1935.800048828125</ele>
        <time>2026-09-03T07:17:39.000Z</time>
        <extensions>
          <ns3:TrackPointExtension>
            <ns3:hr>151</ns3:hr>
            <ns3:cad>0</ns3:cad>
          </ns3:TrackPointExtension>
        </extensions>
      </trkpt>
      <trkpt lat="44.6953528560698032379150390625" lon="6.7678602598607540130615234375">
        <ele>1936</ele>
        <time>2026-09-03T07:17:40.000Z</time>
        <extensions>
          <ns3:TrackPointExtension>
            <ns3:hr>150</ns3:hr>
            <ns3:cad>0</ns3:cad>
          </ns3:TrackPointExtension>
        </extensions>
      </trkpt>
      <trkpt lat="44.6953411214053630828857421875" lon="6.7678678035736083984375">
        <ele>1936</ele>
        <time>2026-09-03T07:17:41.000Z</time>
        <extensions>
          <ns3:TrackPointExtension>
            <ns3:hr>151</ns3:hr>
            <ns3:cad>0</ns3:cad>
          </ns3:TrackPointExtension>
        </extensions>
      </trkpt>
      <trkpt lat="44.6953345835208892822265625" lon="6.76787224598228931427001953125">
        <ele>1936.199951171875</ele>
        <time>2026-09-03T07:17:42.000Z</time>
        <extensions>
          <ns3:TrackPointExtension>
            <ns3:hr>149</ns3:hr>
            <ns3:cad>0</ns3:cad>
          </ns3:TrackPointExtension>
        </extensions>
      </trkpt>
      <trkpt lat="44.69531555660068988800048828125" lon="6.7678830586373805999755859375">
        <ele>1936.199951171875</ele>
        <time>2026-09-03T07:17:43.000Z</time>
        <extensions>
          <ns3:TrackPointExtension>
            <ns3:hr>147</ns3:hr>
            <ns3:cad>0</ns3:cad>
          </ns3:TrackPointExtension>
        </extensions>
      </trkpt>
      <trkpt lat="44.69530516304075717926025390625" lon="6.7678892612457275390625">
        <ele>1936.4000244140625</ele>
        <time>2026-09-03T07:17:44.000Z</time>
        <extensions>
          <ns3:TrackPointExtension>
            <ns3:hr>145</ns3:hr>
            <ns3:cad>0</ns3:cad>
          </ns3:TrackPointExtension>
        </extensions>
      </trkpt>
      <trkpt lat="44.6952965296804904937744140625" lon="6.76789152435958385467529296875">
        <ele>1936.5999755859375</ele>
        <time>2026-09-03T07:17:45.000Z</time>
        <extensions>
          <ns3:TrackPointExtension>
            <ns3:hr>145</ns3:hr>
            <ns3:cad>0</ns3:cad>
          </ns3:TrackPointExtension>
        </extensions>
      </trkpt>
      <trkpt lat="44.6952841244637966156005859375" lon="6.76790175028145313262939453125">
        <ele>1936.800048828125</ele>
        <time>2026-09-03T07:17:46.000Z</time>
        <extensions>
          <ns3:TrackPointExtension>
            <ns3:hr>144</ns3:hr>
            <ns3:cad>0</ns3:cad>
          </ns3:TrackPointExtension>
        </extensions>
      </trkpt>
      <trkpt lat="44.69528655521571636199951171875" lon="6.7678988166153430938720703125">
        <ele>1937</ele>
        <time>2026-09-03T07:17:47.000Z</time>
        <extensions>
          <ns3:TrackPointExtension>
            <ns3:hr>143</ns3:hr>
            <ns3:cad>0</ns3:cad>
          </ns3:TrackPointExtension>
        </extensions>
      </trkpt>
      <trkpt lat="44.69527565874159336090087890625" lon="6.767906360328197479248046875">
        <ele>1937.199951171875</ele>
        <time>2026-09-03T07:17:48.000Z</time>
        <extensions>
          <ns3:TrackPointExtension>
            <ns3:hr>140</ns3:hr>
            <ns3:cad>0</ns3:cad>
          </ns3:TrackPointExtension>
        </extensions>
      </trkpt>
      <trkpt lat="44.69526945613324642181396484375" lon="6.76791247911751270294189453125">
        <ele>1937.4000244140625</ele>
        <time>2026-09-03T07:17:49.000Z</time>
        <extensions>
          <ns3:TrackPointExtension>
            <ns3:hr>139</ns3:hr>
            <ns3:cad>0</ns3:cad>
          </ns3:TrackPointExtension>
        </extensions>
      </trkpt>
      <trkpt lat="44.6952579729259014129638671875" lon="6.76791675388813018798828125">
        <ele>1937.5999755859375</ele>
        <time>2026-09-03T07:17:50.000Z</time>
        <extensions>
          <ns3:TrackPointExtension>
            <ns3:hr>138</ns3:hr>
            <ns3:cad>0</ns3:cad>
          </ns3:TrackPointExtension>
        </extensions>
      </trkpt>
      <trkpt lat="44.69525017775595188140869140625" lon="6.76792505197227001190185546875">
        <ele>1937.800048828125</ele>
        <time>2026-09-03T07:17:51.000Z</time>
        <extensions>
          <ns3:TrackPointExtension>
            <ns3:hr>137</ns3:hr>
            <ns3:cad>0</ns3:cad>
          </ns3:TrackPointExtension>
        </extensions>
      </trkpt>
      <trkpt lat="44.69524271786212921142578125" lon="6.76793796010315418243408203125">
        <ele>1938</ele>
        <time>2026-09-03T07:17:52.000Z</time>
        <extensions>
          <ns3:TrackPointExtension>
            <ns3:hr>137</ns3:hr>
            <ns3:cad>0</ns3:cad>
          </ns3:TrackPointExtension>
        </extensions>
      </trkpt>
      <trkpt lat="44.69523710198700428009033203125" lon="6.76794759929180145263671875">
        <ele>1938.199951171875</ele>
        <time>2026-09-03T07:17:53.000Z</time>
        <extensions>
          <ns3:TrackPointExtension>
            <ns3:hr>137</ns3:hr>
            <ns3:cad>0</ns3:cad>
          </ns3:TrackPointExtension>
        </extensions>
      </trkpt>
      <trkpt lat="44.69523198902606964111328125" lon="6.76794952712953090667724609375">
        <ele>1938.4000244140625</ele>
        <time>2026-09-03T07:17:54.000Z</time>
        <extensions>
          <ns3:TrackPointExtension>
            <ns3:hr>136</ns3:hr>
            <ns3:cad>0</ns3:cad>
          </ns3:TrackPointExtension>
        </extensions>
      </trkpt>
      <trkpt lat="44.6952220983803272247314453125" lon="6.76796042360365390777587890625">
        <ele>1938.5999755859375</ele>
        <time>2026-09-03T07:17:55.000Z</time>
        <extensions>
          <ns3:TrackPointExtension>
            <ns3:hr>136</ns3:hr>
            <ns3:cad>0</ns3:cad>
          </ns3:TrackPointExtension>
        </extensions>
      </trkpt>
      <trkpt lat="44.695218913257122039794921875" lon="6.76796025596559047698974609375">
        <ele>1938.800048828125</ele>
        <time>2026-09-03T07:17:56.000Z</time>
        <extensions>
          <ns3:TrackPointExtension>
            <ns3:hr>136</ns3:hr>
            <ns3:cad>0</ns3:cad>
          </ns3:TrackPointExtension>
        </extensions>
      </trkpt>
      <trkpt lat="44.69521899707615375518798828125" lon="6.76796126179397106170654296875">
        <ele>1938.800048828125</ele>
        <time>2026-09-03T07:17:57.000Z</time>
        <extensions>
          <ns3:TrackPointExtension>
            <ns3:hr>135</ns3:hr>
            <ns3:cad>0</ns3:cad>
          </ns3:TrackPointExtension>
        </extensions>
      </trkpt>
      <trkpt lat="44.69520776532590389251708984375" lon="6.7679802887141704559326171875">
        <ele>1939.199951171875</ele>
        <time>2026-09-03T07:17:58.000Z</time>
        <extensions>
          <ns3:TrackPointExtension>
            <ns3:hr>135</ns3:hr>
            <ns3:cad>0</ns3:cad>
          </ns3:TrackPointExtension>
        </extensions>
      </trkpt>
      <trkpt lat="44.69520038925111293792724609375" lon="6.76799462176859378814697265625">
        <ele>1939.4000244140625</ele>
        <time>2026-09-03T07:17:59.000Z</time>
        <extensions>
          <ns3:TrackPointExtension>
            <ns3:hr>135</ns3:hr>
            <ns3:cad>0</ns3:cad>
          </ns3:TrackPointExtension>
        </extensions>
      </trkpt>
      <trkpt lat="44.6951925940811634063720703125" lon="6.76800887100398540496826171875">
        <ele>1939.4000244140625</ele>
        <time>2026-09-03T07:18:00.000Z</time>
        <extensions>
          <ns3:TrackPointExtension>
            <ns3:hr>135</ns3:hr>
            <ns3:cad>0</ns3:cad>
          </ns3:TrackPointExtension>
        </extensions>
      </trkpt>
      <trkpt lat="44.695185385644435882568359375" lon="6.76802144385874271392822265625">
        <ele>1939.4000244140625</ele>
        <time>2026-09-03T07:18:01.000Z</time>
        <extensions>
          <ns3:TrackPointExtension>
            <ns3:hr>135</ns3:hr>
            <ns3:cad>0</ns3:cad>
          </ns3:TrackPointExtension>
        </extensions>
      </trkpt>
      <trkpt lat="44.69517834484577178955078125" lon="6.76803301088511943817138671875">
        <ele>1939.5999755859375</ele>
        <time>2026-09-03T07:18:02.000Z</time>
        <extensions>
          <ns3:TrackPointExtension>
            <ns3:hr>135</ns3:hr>
            <ns3:cad>0</ns3:cad>
          </ns3:TrackPointExtension>
        </extensions>
      </trkpt>
      <trkpt lat="44.6951736509799957275390625" lon="6.768039800226688385009765625">
        <ele>1939.5999755859375</ele>
        <time>2026-09-03T07:18:03.000Z</time>
        <extensions>
          <ns3:TrackPointExtension>
            <ns3:hr>135</ns3:hr>
            <ns3:cad>0</ns3:cad>
          </ns3:TrackPointExtension>
        </extensions>
      </trkpt>
      <trkpt lat="44.69516200013458728790283203125" lon="6.76805010996758937835693359375">
        <ele>1939.800048828125</ele>
        <time>2026-09-03T07:18:04.000Z</time>
        <extensions>
          <ns3:TrackPointExtension>
            <ns3:hr>135</ns3:hr>
            <ns3:cad>0</ns3:cad>
          </ns3:TrackPointExtension>
        </extensions>
      </trkpt>
      <trkpt lat="44.6951533667743206024169921875" lon="6.76805513910949230194091796875">
        <ele>1939.800048828125</ele>
        <time>2026-09-03T07:18:05.000Z</time>
        <extensions>
          <ns3:TrackPointExtension>
            <ns3:hr>135</ns3:hr>
            <ns3:cad>0</ns3:cad>
          </ns3:TrackPointExtension>
        </extensions>
      </trkpt>
      <trkpt lat="44.69514615833759307861328125" lon="6.7680609226226806640625">
        <ele>1939.800048828125</ele>
        <time>2026-09-03T07:18:06.000Z</time>
        <extensions>
          <ns3:TrackPointExtension>
            <ns3:hr>135</ns3:hr>
            <ns3:cad>0</ns3:cad>
          </ns3:TrackPointExtension>
        </extensions>
      </trkpt>
      <trkpt lat="44.695143811404705047607421875" lon="6.76806419156491756439208984375">
        <ele>1939.800048828125</ele>
        <time>2026-09-03T07:18:07.000Z</time>
        <extensions>
          <ns3:TrackPointExtension>
            <ns3:hr>135</ns3:hr>
            <ns3:cad>0</ns3:cad>
          </ns3:TrackPointExtension>
        </extensions>
      </trkpt>
      <trkpt lat="44.695145152509212493896484375" lon="6.76806486211717128753662109375">
        <ele>1939.800048828125</ele>
        <time>2026-09-03T07:18:08.000Z</time>
        <extensions>
          <ns3:TrackPointExtension>
            <ns3:hr>135</ns3:hr>
            <ns3:cad>0</ns3:cad>
          </ns3:TrackPointExtension>
        </extensions>
      </trkpt>
      <trkpt lat="44.6951449848711490631103515625" lon="6.76806486211717128753662109375">
        <ele>1940</ele>
        <time>2026-09-03T07:18:09.000Z</time>
        <extensions>
          <ns3:TrackPointExtension>
            <ns3:hr>135</ns3:hr>
            <ns3:cad>0</ns3:cad>
          </ns3:TrackPointExtension>
        </extensions>
      </trkpt>
      <trkpt lat="44.69514490105211734771728515625" lon="6.76806469447910785675048828125">
        <ele>1940</ele>
        <time>2026-09-03T07:18:10.000Z</time>
        <extensions>
          <ns3:TrackPointExtension>
            <ns3:hr>135</ns3:hr>
            <ns3:cad>0</ns3:cad>
          </ns3:TrackPointExtension>
        </extensions>
      </trkpt>
      <trkpt lat="44.6951362676918506622314453125" lon="6.7680661194026470184326171875">
        <ele>1940.199951171875</ele>
        <time>2026-09-03T07:18:11.000Z</time>
        <extensions>
          <ns3:TrackPointExtension>
            <ns3:hr>135</ns3:hr>
            <ns3:cad>0</ns3:cad>
          </ns3:TrackPointExtension>
        </extensions>
      </trkpt>
      <trkpt lat="44.69512914307415485382080078125" lon="6.7680661194026470184326171875">
        <ele>1940.199951171875</ele>
        <time>2026-09-03T07:18:12.000Z</time>
        <extensions>
          <ns3:TrackPointExtension>
            <ns3:hr>135</ns3:hr>
            <ns3:cad>0</ns3:cad>
          </ns3:TrackPointExtension>
        </extensions>
      </trkpt>
      <trkpt lat="44.695117659866809844970703125" lon="6.76807022653520107269287109375">
        <ele>1940.199951171875</ele>
        <time>2026-09-03T07:18:13.000Z</time>
        <extensions>
          <ns3:TrackPointExtension>
            <ns3:hr>135</ns3:hr>
            <ns3:cad>0</ns3:cad>
          </ns3:TrackPointExtension>
        </extensions>
      </trkpt>
      <trkpt lat="44.69510584138333797454833984375" lon="6.7680721543729305267333984375">
        <ele>1940.199951171875</ele>
        <time>2026-09-03T07:18:14.000Z</time>
        <extensions>
          <ns3:TrackPointExtension>
            <ns3:hr>135</ns3:hr>
            <ns3:cad>0</ns3:cad>
          </ns3:TrackPointExtension>
        </extensions>
      </trkpt>
      <trkpt lat="44.6950936876237392425537109375" lon="6.76807324402034282684326171875">
        <ele>1940.199951171875</ele>
        <time>2026-09-03T07:18:15.000Z</time>
        <extensions>
          <ns3:TrackPointExtension>
            <ns3:hr>135</ns3:hr>
            <ns3:cad>0</ns3:cad>
          </ns3:TrackPointExtension>
        </extensions>
      </trkpt>
      <trkpt lat="44.69508647918701171875" lon="6.76807592622935771942138671875">
        <ele>1940.4000244140625</ele>
        <time>2026-09-03T07:18:16.000Z</time>
        <extensions>
          <ns3:TrackPointExtension>
            <ns3:hr>134</ns3:hr>
            <ns3:cad>0</ns3:cad>
          </ns3:TrackPointExtension>
        </extensions>
      </trkpt>
      <trkpt lat="44.6950782649219036102294921875" lon="6.76808263175189495086669921875">
        <ele>1940.4000244140625</ele>
        <time>2026-09-03T07:18:17.000Z</time>
        <extensions>
          <ns3:TrackPointExtension>
            <ns3:hr>134</ns3:hr>
            <ns3:cad>0</ns3:cad>
          </ns3:TrackPointExtension>
        </extensions>
      </trkpt>
      <trkpt lat="44.695070050656795501708984375" lon="6.76808615215122699737548828125">
        <ele>1940.5999755859375</ele>
        <time>2026-09-03T07:18:18.000Z</time>
        <extensions>
          <ns3:TrackPointExtension>
            <ns3:hr>134</ns3:hr>
            <ns3:cad>0</ns3:cad>
          </ns3:TrackPointExtension>
        </extensions>
      </trkpt>
      <trkpt lat="44.695060662925243377685546875" lon="6.76809503696858882904052734375">
        <ele>1941</ele>
        <time>2026-09-03T07:18:19.000Z</time>
        <extensions>
          <ns3:TrackPointExtension>
            <ns3:hr>133</ns3:hr>
            <ns3:cad>0</ns3:cad>
          </ns3:TrackPointExtension>
        </extensions>
      </trkpt>
      <trkpt lat="44.6950527839362621307373046875" lon="6.7680999822914600372314453125">
        <ele>1941.199951171875</ele>
        <time>2026-09-03T07:18:20.000Z</time>
        <extensions>
          <ns3:TrackPointExtension>
            <ns3:hr>133</ns3:hr>
            <ns3:cad>0</ns3:cad>
          </ns3:TrackPointExtension>
        </extensions>
      </trkpt>
      <trkpt lat="44.6950410492718219757080078125" lon="6.7681051790714263916015625">
        <ele>1941.5999755859375</ele>
        <time>2026-09-03T07:18:21.000Z</time>
        <extensions>
          <ns3:TrackPointExtension>
            <ns3:hr>133</ns3:hr>
            <ns3:cad>0</ns3:cad>
          </ns3:TrackPointExtension>
        </extensions>
      </trkpt>
      <trkpt lat="44.69502973370254039764404296875" lon="6.7681123875081539154052734375">
        <ele>1941.800048828125</ele>
        <time>2026-09-03T07:18:22.000Z</time>
        <extensions>
          <ns3:TrackPointExtension>
            <ns3:hr>133</ns3:hr>
            <ns3:cad>0</ns3:cad>
          </ns3:TrackPointExtension>
        </extensions>
      </trkpt>
      <trkpt lat="44.69501741230487823486328125" lon="6.7681194283068180084228515625">
        <ele>1941.800048828125</ele>
        <time>2026-09-03T07:18:23.000Z</time>
        <extensions>
          <ns3:TrackPointExtension>
            <ns3:hr>134</ns3:hr>
            <ns3:cad>0</ns3:cad>
          </ns3:TrackPointExtension>
        </extensions>
      </trkpt>
      <trkpt lat="44.69500307925045490264892578125" lon="6.7681291513144969940185546875">
        <ele>1942</ele>
        <time>2026-09-03T07:18:24.000Z</time>
        <extensions>
          <ns3:TrackPointExtension>
            <ns3:hr>135</ns3:hr>
            <ns3:cad>0</ns3:cad>
          </ns3:TrackPointExtension>
        </extensions>
      </trkpt>
      <trkpt lat="44.6949884109199047088623046875" lon="6.768137700855731964111328125">
        <ele>1942</ele>
        <time>2026-09-03T07:18:25.000Z</time>
        <extensions>
          <ns3:TrackPointExtension>
            <ns3:hr>135</ns3:hr>
            <ns3:cad>0</ns3:cad>
          </ns3:TrackPointExtension>
        </extensions>
      </trkpt>
      <trkpt lat="44.694978184998035430908203125" lon="6.7681398801505565643310546875">
        <ele>1942.199951171875</ele>
        <time>2026-09-03T07:18:26.000Z</time>
        <extensions>
          <ns3:TrackPointExtension>
            <ns3:hr>136</ns3:hr>
            <ns3:cad>0</ns3:cad>
          </ns3:TrackPointExtension>
        </extensions>
      </trkpt>
      <trkpt lat="44.69497139565646648406982421875" lon="6.768141724169254302978515625">
        <ele>1942.4000244140625</ele>
        <time>2026-09-03T07:18:27.000Z</time>
        <extensions>
          <ns3:TrackPointExtension>
            <ns3:hr>137</ns3:hr>
            <ns3:cad>0</ns3:cad>
          </ns3:TrackPointExtension>
        </extensions>
      </trkpt>
      <trkpt lat="44.69496133737266063690185546875" lon="6.7681469209492206573486328125">
        <ele>1942.5999755859375</ele>
        <time>2026-09-03T07:18:28.000Z</time>
        <extensions>
          <ns3:TrackPointExtension>
            <ns3:hr>138</ns3:hr>
            <ns3:cad>0</ns3:cad>
          </ns3:TrackPointExtension>
        </extensions>
      </trkpt>
      <trkpt lat="44.69494876451790332794189453125" lon="6.7681539617478847503662109375">
        <ele>1943</ele>
        <time>2026-09-03T07:18:29.000Z</time>
        <extensions>
          <ns3:TrackPointExtension>
            <ns3:hr>138</ns3:hr>
            <ns3:cad>0</ns3:cad>
          </ns3:TrackPointExtension>
        </extensions>
      </trkpt>
      <trkpt lat="44.694941304624080657958984375" lon="6.7681475915014743804931640625">
        <ele>1943.199951171875</ele>
        <time>2026-09-03T07:18:30.000Z</time>
        <extensions>
          <ns3:TrackPointExtension>
            <ns3:hr>139</ns3:hr>
            <ns3:cad>0</ns3:cad>
          </ns3:TrackPointExtension>
        </extensions>
      </trkpt>
      <trkpt lat="44.6949294023215770721435546875" lon="6.76814683713018894195556640625">
        <ele>1943.4000244140625</ele>
        <time>2026-09-03T07:18:31.000Z</time>
        <extensions>
          <ns3:TrackPointExtension>
            <ns3:hr>140</ns3:hr>
            <ns3:cad>0</ns3:cad>
          </ns3:TrackPointExtension>
        </extensions>
      </trkpt>
      <trkpt lat="44.6949226967990398406982421875" lon="6.76814499311149120330810546875">
        <ele>1943.5999755859375</ele>
        <time>2026-09-03T07:18:32.000Z</time>
        <extensions>
          <ns3:TrackPointExtension>
            <ns3:hr>140</ns3:hr>
            <ns3:cad>0</ns3:cad>
          </ns3:TrackPointExtension>
        </extensions>
      </trkpt>
      <trkpt lat="44.6949166618287563323974609375" lon="6.7681462503969669342041015625">
        <ele>1943.800048828125</ele>
        <time>2026-09-03T07:18:33.000Z</time>
        <extensions>
          <ns3:TrackPointExtension>
            <ns3:hr>140</ns3:hr>
            <ns3:cad>0</ns3:cad>
          </ns3:TrackPointExtension>
        </extensions>
      </trkpt>
      <trkpt lat="44.6949107944965362548828125" lon="6.7681516148149967193603515625">
        <ele>1944</ele>
        <time>2026-09-03T07:18:34.000Z</time>
        <extensions>
          <ns3:TrackPointExtension>
            <ns3:hr>141</ns3:hr>
            <ns3:cad>0</ns3:cad>
          </ns3:TrackPointExtension>
        </extensions>
      </trkpt>
      <trkpt lat="44.6949027478694915771484375" lon="6.76816158927977085113525390625">
        <ele>1944.199951171875</ele>
        <time>2026-09-03T07:18:35.000Z</time>
        <extensions>
          <ns3:TrackPointExtension>
            <ns3:hr>141</ns3:hr>
            <ns3:cad>0</ns3:cad>
          </ns3:TrackPointExtension>
        </extensions>
      </trkpt>
      <trkpt lat="44.69489830546081066131591796875" lon="6.76816561259329319000244140625">
        <ele>1944.4000244140625</ele>
        <time>2026-09-03T07:18:36.000Z</time>
        <extensions>
          <ns3:TrackPointExtension>
            <ns3:hr>141</ns3:hr>
            <ns3:cad>0</ns3:cad>
          </ns3:TrackPointExtension>
        </extensions>
      </trkpt>
      <trkpt lat="44.6948941983282566070556640625" lon="6.7681640200316905975341796875">
        <ele>1944.5999755859375</ele>
        <time>2026-09-03T07:18:37.000Z</time>
        <extensions>
          <ns3:TrackPointExtension>
            <ns3:hr>141</ns3:hr>
            <ns3:cad>0</ns3:cad>
          </ns3:TrackPointExtension>
        </extensions>
      </trkpt>
      <trkpt lat="44.69488221220672130584716796875" lon="6.768171228468418121337890625">
        <ele>1944.800048828125</ele>
        <time>2026-09-03T07:18:38.000Z</time>
        <extensions>
          <ns3:TrackPointExtension>
            <ns3:hr>141</ns3:hr>
            <ns3:cad>0</ns3:cad>
          </ns3:TrackPointExtension>
        </extensions>
      </trkpt>
      <trkpt lat="44.69487785361707210540771484375" lon="6.7681749165058135986328125">
        <ele>1945.199951171875</ele>
        <time>2026-09-03T07:18:39.000Z</time>
        <extensions>
          <ns3:TrackPointExtension>
            <ns3:hr>142</ns3:hr>
            <ns3:cad>0</ns3:cad>
          </ns3:TrackPointExtension>
        </extensions>
      </trkpt>
      <trkpt lat="44.694868214428424835205078125" lon="6.768176257610321044921875">
        <ele>1945.5999755859375</ele>
        <time>2026-09-03T07:18:40.000Z</time>
        <extensions>
          <ns3:TrackPointExtension>
            <ns3:hr>143</ns3:hr>
            <ns3:cad>0</ns3:cad>
          </ns3:TrackPointExtension>
        </extensions>
      </trkpt>
      <trkpt lat="44.69486259855329990386962890625" lon="6.76818220876157283782958984375">
        <ele>1945.800048828125</ele>
        <time>2026-09-03T07:18:41.000Z</time>
        <extensions>
          <ns3:TrackPointExtension>
            <ns3:hr>144</ns3:hr>
            <ns3:cad>0</ns3:cad>
          </ns3:TrackPointExtension>
        </extensions>
      </trkpt>
      <trkpt lat="44.69485237263143062591552734375" lon="6.76819461397826671600341796875">
        <ele>1946.199951171875</ele>
        <time>2026-09-03T07:18:42.000Z</time>
        <extensions>
          <ns3:TrackPointExtension>
            <ns3:hr>144</ns3:hr>
            <ns3:cad>0</ns3:cad>
          </ns3:TrackPointExtension>
        </extensions>
      </trkpt>
      <trkpt lat="44.69484834931790828704833984375" lon="6.7682035826146602630615234375">
        <ele>1946.4000244140625</ele>
        <time>2026-09-03T07:18:43.000Z</time>
        <extensions>
          <ns3:TrackPointExtension>
            <ns3:hr>145</ns3:hr>
            <ns3:cad>0</ns3:cad>
          </ns3:TrackPointExtension>
        </extensions>
      </trkpt>
      <trkpt lat="44.6948445774614810943603515625" lon="6.76821255125105381011962890625">
        <ele>1946.5999755859375</ele>
        <time>2026-09-03T07:18:44.000Z</time>
        <extensions>
          <ns3:TrackPointExtension>
            <ns3:hr>145</ns3:hr>
            <ns3:cad>0</ns3:cad>
          </ns3:TrackPointExtension>
        </extensions>
      </trkpt>
      <trkpt lat="44.694840051233768463134765625" lon="6.76821875385940074920654296875">
        <ele>1946.800048828125</ele>
        <time>2026-09-03T07:18:45.000Z</time>
        <extensions>
          <ns3:TrackPointExtension>
            <ns3:hr>145</ns3:hr>
            <ns3:cad>0</ns3:cad>
          </ns3:TrackPointExtension>
        </extensions>
      </trkpt>
      <trkpt lat="44.69483493827283382415771484375" lon="6.76821137778460979461669921875">
        <ele>1947.199951171875</ele>
        <time>2026-09-03T07:18:46.000Z</time>
        <extensions>
          <ns3:TrackPointExtension>
            <ns3:hr>145</ns3:hr>
            <ns3:cad>0</ns3:cad>
          </ns3:TrackPointExtension>
        </extensions>
      </trkpt>
      <trkpt lat="44.69482873566448688507080078125" lon="6.768222190439701080322265625">
        <ele>1947.199951171875</ele>
        <time>2026-09-03T07:18:47.000Z</time>
        <extensions>
          <ns3:TrackPointExtension>
            <ns3:hr>146</ns3:hr>
            <ns3:cad>0</ns3:cad>
          </ns3:TrackPointExtension>
        </extensions>
      </trkpt>
      <trkpt lat="44.69482504762709140777587890625" lon="6.76823233254253864288330078125">
        <ele>1947.4000244140625</ele>
        <time>2026-09-03T07:18:48.000Z</time>
        <extensions>
          <ns3:TrackPointExtension>
            <ns3:hr>146</ns3:hr>
            <ns3:cad>0</ns3:cad>
          </ns3:TrackPointExtension>
        </extensions>
      </trkpt>
      <trkpt lat="44.694819934666156768798828125" lon="6.76824037916958332061767578125">
        <ele>1947.5999755859375</ele>
        <time>2026-09-03T07:18:49.000Z</time>
        <extensions>
          <ns3:TrackPointExtension>
            <ns3:hr>146</ns3:hr>
            <ns3:cad>0</ns3:cad>
          </ns3:TrackPointExtension>
        </extensions>
      </trkpt>
      <trkpt lat="44.69481683336198329925537109375" lon="6.76824172027409076690673828125">
        <ele>1947.800048828125</ele>
        <time>2026-09-03T07:18:50.000Z</time>
        <extensions>
          <ns3:TrackPointExtension>
            <ns3:hr>147</ns3:hr>
            <ns3:cad>0</ns3:cad>
          </ns3:TrackPointExtension>
        </extensions>
      </trkpt>
      <trkpt lat="44.694809205830097198486328125" lon="6.76824892871081829071044921875">
        <ele>1948</ele>
        <time>2026-09-03T07:18:51.000Z</time>
        <extensions>
          <ns3:TrackPointExtension>
            <ns3:hr>147</ns3:hr>
            <ns3:cad>0</ns3:cad>
          </ns3:TrackPointExtension>
        </extensions>
      </trkpt>
      <trkpt lat="44.69480476342141628265380859375" lon="6.76825798116624355316162109375">
        <ele>1948.199951171875</ele>
        <time>2026-09-03T07:18:52.000Z</time>
        <extensions>
          <ns3:TrackPointExtension>
            <ns3:hr>147</ns3:hr>
            <ns3:cad>76</ns3:cad>
          </ns3:TrackPointExtension>
        </extensions>
      </trkpt>
      <trkpt lat="44.694797135889530181884765625" lon="6.76826812326908111572265625">
        <ele>1948.5999755859375</ele>
        <time>2026-09-03T07:18:53.000Z</time>
        <extensions>
          <ns3:TrackPointExtension>
            <ns3:hr>147</ns3:hr>
            <ns3:cad>76</ns3:cad>
          </ns3:TrackPointExtension>
        </extensions>
      </trkpt>
      <trkpt lat="44.69478942453861236572265625" lon="6.7682803608477115631103515625">
        <ele>1948.5999755859375</ele>
        <time>2026-09-03T07:18:54.000Z</time>
        <extensions>
          <ns3:TrackPointExtension>
            <ns3:hr>148</ns3:hr>
            <ns3:cad>76</ns3:cad>
          </ns3:TrackPointExtension>
        </extensions>
      </trkpt>
      <trkpt lat="44.69478179700672626495361328125" lon="6.768288575112819671630859375">
        <ele>1948.800048828125</ele>
        <time>2026-09-03T07:18:55.000Z</time>
        <extensions>
          <ns3:TrackPointExtension>
            <ns3:hr>148</ns3:hr>
            <ns3:cad>0</ns3:cad>
          </ns3:TrackPointExtension>
        </extensions>
      </trkpt>
      <trkpt lat="44.69477224163711071014404296875" lon="6.76829628646373748779296875">
        <ele>1949</ele>
        <time>2026-09-03T07:18:56.000Z</time>
        <extensions>
          <ns3:TrackPointExtension>
            <ns3:hr>148</ns3:hr>
            <ns3:cad>0</ns3:cad>
          </ns3:TrackPointExtension>
        </extensions>
      </trkpt>
      <trkpt lat="44.69476687721908092498779296875" lon="6.76830056123435497283935546875">
        <ele>1949.4000244140625</ele>
        <time>2026-09-03T07:18:57.000Z</time>
        <extensions>
          <ns3:TrackPointExtension>
            <ns3:hr>149</ns3:hr>
            <ns3:cad>0</ns3:cad>
          </ns3:TrackPointExtension>
        </extensions>
      </trkpt>
      <trkpt lat="44.69475916586816310882568359375" lon="6.76830760203301906585693359375">
        <ele>1949.5999755859375</ele>
        <time>2026-09-03T07:18:58.000Z</time>
        <extensions>
          <ns3:TrackPointExtension>
            <ns3:hr>149</ns3:hr>
            <ns3:cad>0</ns3:cad>
          </ns3:TrackPointExtension>
        </extensions>
      </trkpt>
      <trkpt lat="44.69475246034562587738037109375" lon="6.76831397227942943572998046875">
        <ele>1949.800048828125</ele>
        <time>2026-09-03T07:18:59.000Z</time>
        <extensions>
          <ns3:TrackPointExtension>
            <ns3:hr>149</ns3:hr>
            <ns3:cad>0</ns3:cad>
          </ns3:TrackPointExtension>
        </extensions>
      </trkpt>
      <trkpt lat="44.69474441371858119964599609375" lon="6.7683215998113155364990234375">
        <ele>1950</ele>
        <time>2026-09-03T07:19:00.000Z</time>
        <extensions>
          <ns3:TrackPointExtension>
            <ns3:hr>150</ns3:hr>
            <ns3:cad>18</ns3:cad>
          </ns3:TrackPointExtension>
        </extensions>
      </trkpt>
      <trkpt lat="44.6947406418621540069580078125" lon="6.768327467143535614013671875">
        <ele>1950.199951171875</ele>
        <time>2026-09-03T07:19:01.000Z</time>
        <extensions>
          <ns3:TrackPointExtension>
            <ns3:hr>150</ns3:hr>
            <ns3:cad>18</ns3:cad>
          </ns3:TrackPointExtension>
        </extensions>
      </trkpt>
      <trkpt lat="44.69474609009921550750732421875" lon="6.768348924815654754638671875">
        <ele>1950.4000244140625</ele>
        <time>2026-09-03T07:19:02.000Z</time>
        <extensions>
          <ns3:TrackPointExtension>
            <ns3:hr>150</ns3:hr>
            <ns3:cad>18</ns3:cad>
          </ns3:TrackPointExtension>
        </extensions>
      </trkpt>
      <trkpt lat="44.69474424608051776885986328125" lon="6.76836141385138034820556640625">
        <ele>1950.5999755859375</ele>
        <time>2026-09-03T07:19:03.000Z</time>
        <extensions>
          <ns3:TrackPointExtension>
            <ns3:hr>151</ns3:hr>
            <ns3:cad>0</ns3:cad>
          </ns3:TrackPointExtension>
        </extensions>
      </trkpt>
      <trkpt lat="44.6947399713099002838134765625" lon="6.76836292259395122528076171875">
        <ele>1951</ele>
        <time>2026-09-03T07:19:04.000Z</time>
        <extensions>
          <ns3:TrackPointExtension>
            <ns3:hr>151</ns3:hr>
            <ns3:cad>0</ns3:cad>
          </ns3:TrackPointExtension>
        </extensions>
      </trkpt>
      <trkpt lat="44.69473309814929962158203125" lon="6.7683735676109790802001953125">
        <ele>1951.199951171875</ele>
        <time>2026-09-03T07:19:05.000Z</time>
        <extensions>
          <ns3:TrackPointExtension>
            <ns3:hr>151</ns3:hr>
            <ns3:cad>0</ns3:cad>
          </ns3:TrackPointExtension>
        </extensions>
      </trkpt>
      <trkpt lat="44.6947376243770122528076171875" lon="6.768377088010311126708984375">
        <ele>1951.4000244140625</ele>
        <time>2026-09-03T07:19:06.000Z</time>
        <extensions>
          <ns3:TrackPointExtension>
            <ns3:hr>151</ns3:hr>
            <ns3:cad>0</ns3:cad>
          </ns3:TrackPointExtension>
        </extensions>
      </trkpt>
      <trkpt lat="44.6947419829666614532470703125" lon="6.7683889903128147125244140625">
        <ele>1951.5999755859375</ele>
        <time>2026-09-03T07:19:07.000Z</time>
        <extensions>
          <ns3:TrackPointExtension>
            <ns3:hr>151</ns3:hr>
            <ns3:cad>0</ns3:cad>
          </ns3:TrackPointExtension>
        </extensions>
      </trkpt>
      <trkpt lat="44.694741480052471160888671875" lon="6.7684002220630645751953125">
        <ele>1951.800048828125</ele>
        <time>2026-09-03T07:19:08.000Z</time>
        <extensions>
          <ns3:TrackPointExtension>
            <ns3:hr>150</ns3:hr>
            <ns3:cad>0</ns3:cad>
          </ns3:TrackPointExtension>
        </extensions>
      </trkpt>
      <trkpt lat="44.69474307261407375335693359375" lon="6.76841388456523418426513671875">
        <ele>1952</ele>
        <time>2026-09-03T07:19:09.000Z</time>
        <extensions>
          <ns3:TrackPointExtension>
            <ns3:hr>151</ns3:hr>
            <ns3:cad>0</ns3:cad>
          </ns3:TrackPointExtension>
        </extensions>
      </trkpt>
      <trkpt lat="44.69474248588085174560546875" lon="6.76842763088643550872802734375">
        <ele>1952.199951171875</ele>
        <time>2026-09-03T07:19:10.000Z</time>
        <extensions>
          <ns3:TrackPointExtension>
            <ns3:hr>151</ns3:hr>
            <ns3:cad>0</ns3:cad>
          </ns3:TrackPointExtension>
        </extensions>
      </trkpt>
      <trkpt lat="44.69473670236766338348388671875" lon="6.76843299530446529388427734375">
        <ele>1952.4000244140625</ele>
        <time>2026-09-03T07:19:11.000Z</time>
        <extensions>
          <ns3:TrackPointExtension>
            <ns3:hr>150</ns3:hr>
            <ns3:cad>0</ns3:cad>
          </ns3:TrackPointExtension>
        </extensions>
      </trkpt>
      <trkpt lat="44.6947339363396167755126953125" lon="6.7684458196163177490234375">
        <ele>1952.5999755859375</ele>
        <time>2026-09-03T07:19:12.000Z</time>
        <extensions>
          <ns3:TrackPointExtension>
            <ns3:hr>151</ns3:hr>
            <ns3:cad>0</ns3:cad>
          </ns3:TrackPointExtension>
        </extensions>
      </trkpt>
      <trkpt lat="44.6947337687015533447265625" lon="6.76845361478626728057861328125">
        <ele>1953</ele>
        <time>2026-09-03T07:19:13.000Z</time>
        <extensions>
          <ns3:TrackPointExtension>
            <ns3:hr>151</ns3:hr>
            <ns3:cad>0</ns3:cad>
          </ns3:TrackPointExtension>
        </extensions>
      </trkpt>
      <trkpt lat="44.6947312541306018829345703125" lon="6.76847188733518123626708984375">
        <ele>1953.199951171875</ele>
        <time>2026-09-03T07:19:14.000Z</time>
        <extensions>
          <ns3:TrackPointExtension>
            <ns3:hr>151</ns3:hr>
            <ns3:cad>0</ns3:cad>
          </ns3:TrackPointExtension>
        </extensions>
      </trkpt>
      <trkpt lat="44.6947284042835235595703125" lon="6.76848798058927059173583984375">
        <ele>1953.199951171875</ele>
        <time>2026-09-03T07:19:15.000Z</time>
        <extensions>
          <ns3:TrackPointExtension>
            <ns3:hr>151</ns3:hr>
            <ns3:cad>0</ns3:cad>
          </ns3:TrackPointExtension>
        </extensions>
      </trkpt>
      <trkpt lat="44.69472496770322322845458984375" lon="6.76850340329110622406005859375">
        <ele>1953.4000244140625</ele>
        <time>2026-09-03T07:19:16.000Z</time>
        <extensions>
          <ns3:TrackPointExtension>
            <ns3:hr>151</ns3:hr>
            <ns3:cad>0</ns3:cad>
          </ns3:TrackPointExtension>
        </extensions>
      </trkpt>
      <trkpt lat="44.69472161494195461273193359375" lon="6.76851463504135608673095703125">
        <ele>1953.5999755859375</ele>
        <time>2026-09-03T07:19:17.000Z</time>
        <extensions>
          <ns3:TrackPointExtension>
            <ns3:hr>152</ns3:hr>
            <ns3:cad>0</ns3:cad>
          </ns3:TrackPointExtension>
        </extensions>
      </trkpt>
      <trkpt lat="44.69471591524779796600341796875" lon="6.768530644476413726806640625">
        <ele>1953.5999755859375</ele>
        <time>2026-09-03T07:19:18.000Z</time>
        <extensions>
          <ns3:TrackPointExtension>
            <ns3:hr>152</ns3:hr>
            <ns3:cad>0</ns3:cad>
          </ns3:TrackPointExtension>
        </extensions>
      </trkpt>
      <trkpt lat="44.69471164047718048095703125" lon="6.76854682154953479766845703125">
        <ele>1953.800048828125</ele>
        <time>2026-09-03T07:19:19.000Z</time>
        <extensions>
          <ns3:TrackPointExtension>
            <ns3:hr>152</ns3:hr>
            <ns3:cad>0</ns3:cad>
          </ns3:TrackPointExtension>
        </extensions>
      </trkpt>
      <trkpt lat="44.69470820389688014984130859375" lon="6.76855822093784809112548828125">
        <ele>1953.800048828125</ele>
        <time>2026-09-03T07:19:20.000Z</time>
        <extensions>
          <ns3:TrackPointExtension>
            <ns3:hr>152</ns3:hr>
            <ns3:cad>0</ns3:cad>
          </ns3:TrackPointExtension>
        </extensions>
      </trkpt>
      <trkpt lat="44.69470418058335781097412109375" lon="6.7685767449438571929931640625">
        <ele>1954</ele>
        <time>2026-09-03T07:19:21.000Z</time>
        <extensions>
          <ns3:TrackPointExtension>
            <ns3:hr>152</ns3:hr>
            <ns3:cad>0</ns3:cad>
          </ns3:TrackPointExtension>
        </extensions>
      </trkpt>
      <trkpt lat="44.69470082782208919525146484375" lon="6.768584288656711578369140625">
        <ele>1954.199951171875</ele>
        <time>2026-09-03T07:19:22.000Z</time>
        <extensions>
          <ns3:TrackPointExtension>
            <ns3:hr>153</ns3:hr>
            <ns3:cad>0</ns3:cad>
          </ns3:TrackPointExtension>
        </extensions>
      </trkpt>
      <trkpt lat="44.69469680450856685638427734375" lon="6.76860381849110126495361328125">
        <ele>1954.199951171875</ele>
        <time>2026-09-03T07:19:23.000Z</time>
        <extensions>
          <ns3:TrackPointExtension>
            <ns3:hr>153</ns3:hr>
            <ns3:cad>0</ns3:cad>
          </ns3:TrackPointExtension>
        </extensions>
      </trkpt>
      <trkpt lat="44.69469244591891765594482421875" lon="6.76862142048776149749755859375">
        <ele>1954.4000244140625</ele>
        <time>2026-09-03T07:19:24.000Z</time>
        <extensions>
          <ns3:TrackPointExtension>
            <ns3:hr>153</ns3:hr>
            <ns3:cad>0</ns3:cad>
          </ns3:TrackPointExtension>
        </extensions>
      </trkpt>
      <trkpt lat="44.6946876682341098785400390625" lon="6.76863935776054859161376953125">
        <ele>1954.5999755859375</ele>
        <time>2026-09-03T07:19:25.000Z</time>
        <extensions>
          <ns3:TrackPointExtension>
            <ns3:hr>153</ns3:hr>
            <ns3:cad>0</ns3:cad>
          </ns3:TrackPointExtension>
        </extensions>
      </trkpt>
      <trkpt lat="44.69468423165380954742431640625" lon="6.76865176297724246978759765625">
        <ele>1954.5999755859375</ele>
        <time>2026-09-03T07:19:26.000Z</time>
        <extensions>
          <ns3:TrackPointExtension>
            <ns3:hr>153</ns3:hr>
            <ns3:cad>0</ns3:cad>
          </ns3:TrackPointExtension>
        </extensions>
      </trkpt>
      <trkpt lat="44.69468054361641407012939453125" lon="6.7686689458787441253662109375">
        <ele>1954.800048828125</ele>
        <time>2026-09-03T07:19:27.000Z</time>
        <extensions>
          <ns3:TrackPointExtension>
            <ns3:hr>153</ns3:hr>
            <ns3:cad>0</ns3:cad>
          </ns3:TrackPointExtension>
        </extensions>
      </trkpt>
      <trkpt lat="44.69467937014997005462646484375" lon="6.7686833627521991729736328125">
        <ele>1954.800048828125</ele>
        <time>2026-09-03T07:19:28.000Z</time>
        <extensions>
          <ns3:TrackPointExtension>
            <ns3:hr>153</ns3:hr>
            <ns3:cad>0</ns3:cad>
          </ns3:TrackPointExtension>
        </extensions>
      </trkpt>
      <trkpt lat="44.6946739219129085540771484375" lon="6.76869920454919338226318359375">
        <ele>1955</ele>
        <time>2026-09-03T07:19:29.000Z</time>
        <extensions>
          <ns3:TrackPointExtension>
            <ns3:hr>152</ns3:hr>
            <ns3:cad>0</ns3:cad>
          </ns3:TrackPointExtension>
        </extensions>
      </trkpt>
      <trkpt lat="44.69466998241841793060302734375" lon="6.76870842464268207550048828125">
        <ele>1955.199951171875</ele>
        <time>2026-09-03T07:19:30.000Z</time>
        <extensions>
          <ns3:TrackPointExtension>
            <ns3:hr>153</ns3:hr>
            <ns3:cad>0</ns3:cad>
          </ns3:TrackPointExtension>
        </extensions>
      </trkpt>
      <trkpt lat="44.69466746784746646881103515625" lon="6.76872787065804004669189453125">
        <ele>1955.4000244140625</ele>
        <time>2026-09-03T07:19:31.000Z</time>
        <extensions>
          <ns3:TrackPointExtension>
            <ns3:hr>152</ns3:hr>
            <ns3:cad>0</ns3:cad>
          </ns3:TrackPointExtension>
        </extensions>
      </trkpt>
      <trkpt lat="44.6946665458381175994873046875" lon="6.76874614320695400238037109375">
        <ele>1955.4000244140625</ele>
        <time>2026-09-03T07:19:32.000Z</time>
        <extensions>
          <ns3:TrackPointExtension>
            <ns3:hr>152</ns3:hr>
            <ns3:cad>0</ns3:cad>
          </ns3:TrackPointExtension>
        </extensions>
      </trkpt>
      <trkpt lat="44.6946641989052295684814453125" lon="6.76876458339393138885498046875">
        <ele>1955.5999755859375</ele>
        <time>2026-09-03T07:19:33.000Z</time>
        <extensions>
          <ns3:TrackPointExtension>
            <ns3:hr>152</ns3:hr>
            <ns3:cad>0</ns3:cad>
          </ns3:TrackPointExtension>
        </extensions>
      </trkpt>
      <trkpt lat="44.6946638636291027069091796875" lon="6.76878017373383045196533203125">
        <ele>1955.800048828125</ele>
        <time>2026-09-03T07:19:34.000Z</time>
        <extensions>
          <ns3:TrackPointExtension>
            <ns3:hr>152</ns3:hr>
            <ns3:cad>0</ns3:cad>
          </ns3:TrackPointExtension>
        </extensions>
      </trkpt>
      <trkpt lat="44.69466176815330982208251953125" lon="6.76880314014852046966552734375">
        <ele>1956</ele>
        <time>2026-09-03T07:19:35.000Z</time>
        <extensions>
          <ns3:TrackPointExtension>
            <ns3:hr>152</ns3:hr>
            <ns3:cad>0</ns3:cad>
          </ns3:TrackPointExtension>
        </extensions>
      </trkpt>
      <trkpt lat="44.69465992413461208343505859375" lon="6.7688168026506900787353515625">
        <ele>1956.199951171875</ele>
        <time>2026-09-03T07:19:36.000Z</time>
        <extensions>
          <ns3:TrackPointExtension>
            <ns3:hr>152</ns3:hr>
            <ns3:cad>0</ns3:cad>
          </ns3:TrackPointExtension>
        </extensions>
      </trkpt>
      <trkpt lat="44.694659002125263214111328125" lon="6.768824346363544464111328125">
        <ele>1956.4000244140625</ele>
        <time>2026-09-03T07:19:37.000Z</time>
        <extensions>
          <ns3:TrackPointExtension>
            <ns3:hr>152</ns3:hr>
            <ns3:cad>0</ns3:cad>
          </ns3:TrackPointExtension>
        </extensions>
      </trkpt>
      <trkpt lat="44.694654643535614013671875" lon="6.7688352428376674652099609375">
        <ele>1956.5999755859375</ele>
        <time>2026-09-03T07:19:38.000Z</time>
        <extensions>
          <ns3:TrackPointExtension>
            <ns3:hr>153</ns3:hr>
            <ns3:cad>0</ns3:cad>
          </ns3:TrackPointExtension>
        </extensions>
      </trkpt>
      <trkpt lat="44.694650284945964813232421875" lon="6.768843121826648712158203125">
        <ele>1956.800048828125</ele>
        <time>2026-09-03T07:19:39.000Z</time>
        <extensions>
          <ns3:TrackPointExtension>
            <ns3:hr>153</ns3:hr>
            <ns3:cad>0</ns3:cad>
          </ns3:TrackPointExtension>
        </extensions>
      </trkpt>
      <trkpt lat="44.69464994966983795166015625" lon="6.7688670940697193145751953125">
        <ele>1957</ele>
        <time>2026-09-03T07:19:40.000Z</time>
        <extensions>
          <ns3:TrackPointExtension>
            <ns3:hr>154</ns3:hr>
            <ns3:cad>0</ns3:cad>
          </ns3:TrackPointExtension>
        </extensions>
      </trkpt>
      <trkpt lat="44.69464860856533050537109375" lon="6.768877319991588592529296875">
        <ele>1957.199951171875</ele>
        <time>2026-09-03T07:19:41.000Z</time>
        <extensions>
          <ns3:TrackPointExtension>
            <ns3:hr>155</ns3:hr>
            <ns3:cad>0</ns3:cad>
          </ns3:TrackPointExtension>
        </extensions>
      </trkpt>
      <trkpt lat="44.69464282505214214324951171875" lon="6.76888997666537761688232421875">
        <ele>1957.4000244140625</ele>
        <time>2026-09-03T07:19:42.000Z</time>
        <extensions>
          <ns3:TrackPointExtension>
            <ns3:hr>155</ns3:hr>
            <ns3:cad>0</ns3:cad>
          </ns3:TrackPointExtension>
        </extensions>
      </trkpt>
      <trkpt lat="44.69463662244379520416259765625" lon="6.7689017951488494873046875">
        <ele>1957.5999755859375</ele>
        <time>2026-09-03T07:19:43.000Z</time>
        <extensions>
          <ns3:TrackPointExtension>
            <ns3:hr>156</ns3:hr>
            <ns3:cad>0</ns3:cad>
          </ns3:TrackPointExtension>
        </extensions>
      </trkpt>
      <trkpt lat="44.69463041983544826507568359375" lon="6.76890271715819835662841796875">
        <ele>1958</ele>
        <time>2026-09-03T07:19:44.000Z</time>
        <extensions>
          <ns3:TrackPointExtension>
            <ns3:hr>156</ns3:hr>
            <ns3:cad>0</ns3:cad>
          </ns3:TrackPointExtension>
        </extensions>
      </trkpt>
      <trkpt lat="44.69462522305548191070556640625" lon="6.76890824921429157257080078125">
        <ele>1958.199951171875</ele>
        <time>2026-09-03T07:19:45.000Z</time>
        <extensions>
          <ns3:TrackPointExtension>
            <ns3:hr>156</ns3:hr>
            <ns3:cad>0</ns3:cad>
          </ns3:TrackPointExtension>
        </extensions>
      </trkpt>
      <trkpt lat="44.69462354667484760284423828125" lon="6.7689049802720546722412109375">
        <ele>1958.4000244140625</ele>
        <time>2026-09-03T07:19:46.000Z</time>
        <extensions>
          <ns3:TrackPointExtension>
            <ns3:hr>156</ns3:hr>
            <ns3:cad>0</ns3:cad>
          </ns3:TrackPointExtension>
        </extensions>
      </trkpt>
      <trkpt lat="44.69461684115231037139892578125" lon="6.76891596056520938873291015625">
        <ele>1958.5999755859375</ele>
        <time>2026-09-03T07:19:47.000Z</time>
        <extensions>
          <ns3:TrackPointExtension>
            <ns3:hr>156</ns3:hr>
            <ns3:cad>0</ns3:cad>
          </ns3:TrackPointExtension>
        </extensions>
      </trkpt>
      <trkpt lat="44.69461868517100811004638671875" lon="6.768920235335826873779296875">
        <ele>1958.800048828125</ele>
        <time>2026-09-03T07:19:48.000Z</time>
        <extensions>
          <ns3:TrackPointExtension>
            <ns3:hr>155</ns3:hr>
            <ns3:cad>0</ns3:cad>
          </ns3:TrackPointExtension>
        </extensions>
      </trkpt>
      <trkpt lat="44.6946157515048980712890625" lon="6.768927276134490966796875">
        <ele>1959.199951171875</ele>
        <time>2026-09-03T07:19:49.000Z</time>
        <extensions>
          <ns3:TrackPointExtension>
            <ns3:hr>154</ns3:hr>
            <ns3:cad>0</ns3:cad>
          </ns3:TrackPointExtension>
        </extensions>
      </trkpt>
      <trkpt lat="44.6946108900010585784912109375" lon="6.7689341492950916290283203125">
        <ele>1959.4000244140625</ele>
        <time>2026-09-03T07:19:50.000Z</time>
        <extensions>
          <ns3:TrackPointExtension>
            <ns3:hr>153</ns3:hr>
            <ns3:cad>0</ns3:cad>
          </ns3:TrackPointExtension>
        </extensions>
      </trkpt>
      <trkpt lat="44.694600664079189300537109375" lon="6.76894261501729488372802734375">
        <ele>1959.5999755859375</ele>
        <time>2026-09-03T07:19:51.000Z</time>
        <extensions>
          <ns3:TrackPointExtension>
            <ns3:hr>152</ns3:hr>
            <ns3:cad>0</ns3:cad>
          </ns3:TrackPointExtension>
        </extensions>
      </trkpt>
      <trkpt lat="44.69459286890923976898193359375" lon="6.7689495719969272613525390625">
        <ele>1959.800048828125</ele>
        <time>2026-09-03T07:19:52.000Z</time>
        <extensions>
          <ns3:TrackPointExtension>
            <ns3:hr>152</ns3:hr>
            <ns3:cad>0</ns3:cad>
          </ns3:TrackPointExtension>
        </extensions>
      </trkpt>
      <trkpt lat="44.69458297826349735260009765625" lon="6.7689619772136211395263671875">
        <ele>1960.199951171875</ele>
        <time>2026-09-03T07:19:53.000Z</time>
        <extensions>
          <ns3:TrackPointExtension>
            <ns3:hr>151</ns3:hr>
            <ns3:cad>0</ns3:cad>
          </ns3:TrackPointExtension>
        </extensions>
      </trkpt>
      <trkpt lat="44.6945746801793575286865234375" lon="6.76896809600293636322021484375">
        <ele>1960.4000244140625</ele>
        <time>2026-09-03T07:19:54.000Z</time>
        <extensions>
          <ns3:TrackPointExtension>
            <ns3:hr>150</ns3:hr>
            <ns3:cad>0</ns3:cad>
          </ns3:TrackPointExtension>
        </extensions>
      </trkpt>
      <trkpt lat="44.69456654973328113555908203125" lon="6.76897346042096614837646484375">
        <ele>1960.5999755859375</ele>
        <time>2026-09-03T07:19:55.000Z</time>
        <extensions>
          <ns3:TrackPointExtension>
            <ns3:hr>150</ns3:hr>
            <ns3:cad>0</ns3:cad>
          </ns3:TrackPointExtension>
        </extensions>
      </trkpt>
      <trkpt lat="44.69456269405782222747802734375" lon="6.76898569799959659576416015625">
        <ele>1960.800048828125</ele>
        <time>2026-09-03T07:19:56.000Z</time>
        <extensions>
          <ns3:TrackPointExtension>
            <ns3:hr>150</ns3:hr>
            <ns3:cad>0</ns3:cad>
          </ns3:TrackPointExtension>
        </extensions>
      </trkpt>
      <trkpt lat="44.6945629455149173736572265625" lon="6.76898888312280178070068359375">
        <ele>1961</ele>
        <time>2026-09-03T07:19:57.000Z</time>
        <extensions>
          <ns3:TrackPointExtension>
            <ns3:hr>149</ns3:hr>
            <ns3:cad>0</ns3:cad>
          </ns3:TrackPointExtension>
        </extensions>
      </trkpt>
      <trkpt lat="44.6945548988878726959228515625" lon="6.7690010368824005126953125">
        <ele>1961.199951171875</ele>
        <time>2026-09-03T07:19:58.000Z</time>
        <extensions>
          <ns3:TrackPointExtension>
            <ns3:hr>150</ns3:hr>
            <ns3:cad>0</ns3:cad>
          </ns3:TrackPointExtension>
        </extensions>
      </trkpt>
      <trkpt lat="44.6945478580892086029052734375" lon="6.76901268772780895233154296875">
        <ele>1961.4000244140625</ele>
        <time>2026-09-03T07:19:59.000Z</time>
        <extensions>
          <ns3:TrackPointExtension>
            <ns3:hr>150</ns3:hr>
            <ns3:cad>0</ns3:cad>
          </ns3:TrackPointExtension>
        </extensions>
      </trkpt>
      <trkpt lat="44.694540984928607940673828125" lon="6.76902442239224910736083984375">
        <ele>1961.5999755859375</ele>
        <time>2026-09-03T07:20:00.000Z</time>
        <extensions>
          <ns3:TrackPointExtension>
            <ns3:hr>150</ns3:hr>
            <ns3:cad>0</ns3:cad>
          </ns3:TrackPointExtension>
        </extensions>
      </trkpt>
      <trkpt lat="44.69453386031091213226318359375" lon="6.7690377496182918548583984375">
        <ele>1962</ele>
        <time>2026-09-03T07:20:01.000Z</time>
        <extensions>
          <ns3:TrackPointExtension>
            <ns3:hr>150</ns3:hr>
            <ns3:cad>0</ns3:cad>
          </ns3:TrackPointExtension>
        </extensions>
      </trkpt>
      <trkpt lat="44.69453394412994384765625" lon="6.76904738880693912506103515625">
        <ele>1962.199951171875</ele>
        <time>2026-09-03T07:20:02.000Z</time>
        <extensions>
          <ns3:TrackPointExtension>
            <ns3:hr>150</ns3:hr>
            <ns3:cad>0</ns3:cad>
          </ns3:TrackPointExtension>
        </extensions>
      </trkpt>
      <trkpt lat="44.69453059136867523193359375" lon="6.7690600454807281494140625">
        <ele>1962.4000244140625</ele>
        <time>2026-09-03T07:20:03.000Z</time>
        <extensions>
          <ns3:TrackPointExtension>
            <ns3:hr>150</ns3:hr>
            <ns3:cad>0</ns3:cad>
          </ns3:TrackPointExtension>
        </extensions>
      </trkpt>
      <trkpt lat="44.694527573883533477783203125" lon="6.76906566135585308074951171875">
        <ele>1962.800048828125</ele>
        <time>2026-09-03T07:20:04.000Z</time>
        <extensions>
          <ns3:TrackPointExtension>
            <ns3:hr>150</ns3:hr>
            <ns3:cad>0</ns3:cad>
          </ns3:TrackPointExtension>
        </extensions>
      </trkpt>
      <trkpt lat="44.6945191919803619384765625" lon="6.7690789885818958282470703125">
        <ele>1963</ele>
        <time>2026-09-03T07:20:05.000Z</time>
        <extensions>
          <ns3:TrackPointExtension>
            <ns3:hr>150</ns3:hr>
            <ns3:cad>0</ns3:cad>
          </ns3:TrackPointExtension>
        </extensions>
      </trkpt>
      <trkpt lat="44.6945123188197612762451171875" lon="6.76908527500927448272705078125">
        <ele>1963.199951171875</ele>
        <time>2026-09-03T07:20:06.000Z</time>
        <extensions>
          <ns3:TrackPointExtension>
            <ns3:hr>149</ns3:hr>
            <ns3:cad>0</ns3:cad>
          </ns3:TrackPointExtension>
        </extensions>
      </trkpt>
      <trkpt lat="44.6945056132972240447998046875" lon="6.76908309571444988250732421875">
        <ele>1963.4000244140625</ele>
        <time>2026-09-03T07:20:07.000Z</time>
        <extensions>
          <ns3:TrackPointExtension>
            <ns3:hr>150</ns3:hr>
            <ns3:cad>0</ns3:cad>
          </ns3:TrackPointExtension>
        </extensions>
      </trkpt>
      <trkpt lat="44.6944985724985599517822265625" lon="6.76908929832279682159423828125">
        <ele>1963.5999755859375</ele>
        <time>2026-09-03T07:20:08.000Z</time>
        <extensions>
          <ns3:TrackPointExtension>
            <ns3:hr>150</ns3:hr>
            <ns3:cad>0</ns3:cad>
          </ns3:TrackPointExtension>
        </extensions>
      </trkpt>
      <trkpt lat="44.69449060969054698944091796875" lon="6.76909281872212886810302734375">
        <ele>1963.800048828125</ele>
        <time>2026-09-03T07:20:09.000Z</time>
        <extensions>
          <ns3:TrackPointExtension>
            <ns3:hr>150</ns3:hr>
            <ns3:cad>0</ns3:cad>
          </ns3:TrackPointExtension>
        </extensions>
      </trkpt>
      <trkpt lat="44.69448423944413661956787109375" lon="6.769098937511444091796875">
        <ele>1964</ele>
        <time>2026-09-03T07:20:10.000Z</time>
        <extensions>
          <ns3:TrackPointExtension>
            <ns3:hr>150</ns3:hr>
            <ns3:cad>0</ns3:cad>
          </ns3:TrackPointExtension>
        </extensions>
      </trkpt>
      <trkpt lat="44.6944751031696796417236328125" lon="6.76911008544266223907470703125">
        <ele>1964.199951171875</ele>
        <time>2026-09-03T07:20:11.000Z</time>
        <extensions>
          <ns3:TrackPointExtension>
            <ns3:hr>150</ns3:hr>
            <ns3:cad>0</ns3:cad>
          </ns3:TrackPointExtension>
        </extensions>
      </trkpt>
      <trkpt lat="44.694475270807743072509765625" lon="6.76911058835685253143310546875">
        <ele>1964.5999755859375</ele>
        <time>2026-09-03T07:20:12.000Z</time>
        <extensions>
          <ns3:TrackPointExtension>
            <ns3:hr>151</ns3:hr>
            <ns3:cad>0</ns3:cad>
          </ns3:TrackPointExtension>
        </extensions>
      </trkpt>
      <trkpt lat="44.6944670565426349639892578125" lon="6.76910807378590106964111328125">
        <ele>1964.800048828125</ele>
        <time>2026-09-03T07:20:13.000Z</time>
        <extensions>
          <ns3:TrackPointExtension>
            <ns3:hr>151</ns3:hr>
            <ns3:cad>0</ns3:cad>
          </ns3:TrackPointExtension>
        </extensions>
      </trkpt>
      <trkpt lat="44.6944630332291126251220703125" lon="6.7691110074520111083984375">
        <ele>1965</ele>
        <time>2026-09-03T07:20:14.000Z</time>
        <extensions>
          <ns3:TrackPointExtension>
            <ns3:hr>152</ns3:hr>
            <ns3:cad>0</ns3:cad>
          </ns3:TrackPointExtension>
        </extensions>
      </trkpt>
      <trkpt lat="44.694455154240131378173828125" lon="6.7691131867468357086181640625">
        <ele>1965.199951171875</ele>
        <time>2026-09-03T07:20:15.000Z</time>
        <extensions>
          <ns3:TrackPointExtension>
            <ns3:hr>153</ns3:hr>
            <ns3:cad>0</ns3:cad>
          </ns3:TrackPointExtension>
        </extensions>
      </trkpt>
      <trkpt lat="44.694452472031116485595703125" lon="6.76911947317421436309814453125">
        <ele>1965.5999755859375</ele>
        <time>2026-09-03T07:20:16.000Z</time>
        <extensions>
          <ns3:TrackPointExtension>
            <ns3:hr>154</ns3:hr>
            <ns3:cad>0</ns3:cad>
          </ns3:TrackPointExtension>
        </extensions>
      </trkpt>
      <trkpt lat="44.6944553218781948089599609375" lon="6.7691245861351490020751953125">
        <ele>1965.800048828125</ele>
        <time>2026-09-03T07:20:17.000Z</time>
        <extensions>
          <ns3:TrackPointExtension>
            <ns3:hr>155</ns3:hr>
            <ns3:cad>0</ns3:cad>
          </ns3:TrackPointExtension>
        </extensions>
      </trkpt>
      <trkpt lat="44.6944606862962245941162109375" lon="6.76912014372646808624267578125">
        <ele>1966</ele>
        <time>2026-09-03T07:20:18.000Z</time>
        <extensions>
          <ns3:TrackPointExtension>
            <ns3:hr>155</ns3:hr>
            <ns3:cad>0</ns3:cad>
          </ns3:TrackPointExtension>
        </extensions>
      </trkpt>
      <trkpt lat="44.694461189210414886474609375" lon="6.7691225744783878326416015625">
        <ele>1966.199951171875</ele>
        <time>2026-09-03T07:20:19.000Z</time>
        <extensions>
          <ns3:TrackPointExtension>
            <ns3:hr>155</ns3:hr>
            <ns3:cad>0</ns3:cad>
          </ns3:TrackPointExtension>
        </extensions>
      </trkpt>
      <trkpt lat="44.6944583393633365631103515625" lon="6.76912668161094188690185546875">
        <ele>1966.4000244140625</ele>
        <time>2026-09-03T07:20:20.000Z</time>
        <extensions>
          <ns3:TrackPointExtension>
            <ns3:hr>156</ns3:hr>
            <ns3:cad>0</ns3:cad>
          </ns3:TrackPointExtension>
        </extensions>
      </trkpt>
      <trkpt lat="44.6944556571543216705322265625" lon="6.76913070492446422576904296875">
        <ele>1966.5999755859375</ele>
        <time>2026-09-03T07:20:21.000Z</time>
        <extensions>
          <ns3:TrackPointExtension>
            <ns3:hr>156</ns3:hr>
            <ns3:cad>0</ns3:cad>
          </ns3:TrackPointExtension>
        </extensions>
      </trkpt>
      <trkpt lat="44.6944506280124187469482421875" lon="6.7691353149712085723876953125">
        <ele>1966.800048828125</ele>
        <time>2026-09-03T07:20:22.000Z</time>
        <extensions>
          <ns3:TrackPointExtension>
            <ns3:hr>156</ns3:hr>
            <ns3:cad>0</ns3:cad>
          </ns3:TrackPointExtension>
        </extensions>
      </trkpt>
      <trkpt lat="44.6944466046988964080810546875" lon="6.769138835370540618896484375">
        <ele>1966.800048828125</ele>
        <time>2026-09-03T07:20:23.000Z</time>
        <extensions>
          <ns3:TrackPointExtension>
            <ns3:hr>156</ns3:hr>
            <ns3:cad>0</ns3:cad>
          </ns3:TrackPointExtension>
        </extensions>
      </trkpt>
      <trkpt lat="44.694448448717594146728515625" lon="6.76913992501795291900634765625">
        <ele>1966.800048828125</ele>
        <time>2026-09-03T07:20:24.000Z</time>
        <extensions>
          <ns3:TrackPointExtension>
            <ns3:hr>156</ns3:hr>
            <ns3:cad>0</ns3:cad>
          </ns3:TrackPointExtension>
        </extensions>
      </trkpt>
      <trkpt lat="44.69444719143211841583251953125" lon="6.7691433615982532501220703125">
        <ele>1967</ele>
        <time>2026-09-03T07:20:25.000Z</time>
        <extensions>
          <ns3:TrackPointExtension>
            <ns3:hr>155</ns3:hr>
            <ns3:cad>0</ns3:cad>
          </ns3:TrackPointExtension>
        </extensions>
      </trkpt>
      <trkpt lat="44.69444635324180126190185546875" lon="6.7691426910459995269775390625">
        <ele>1967</ele>
        <time>2026-09-03T07:20:26.000Z</time>
        <extensions>
          <ns3:TrackPointExtension>
            <ns3:hr>155</ns3:hr>
            <ns3:cad>0</ns3:cad>
          </ns3:TrackPointExtension>
        </extensions>
      </trkpt>
      <trkpt lat="44.69443931244313716888427734375" lon="6.7691497318446636199951171875">
        <ele>1967.199951171875</ele>
        <time>2026-09-03T07:20:27.000Z</time>
        <extensions>
          <ns3:TrackPointExtension>
            <ns3:hr>154</ns3:hr>
            <ns3:cad>0</ns3:cad>
          </ns3:TrackPointExtension>
        </extensions>
      </trkpt>
      <trkpt lat="44.69443646259605884552001953125" lon="6.7691514082252979278564453125">
        <ele>1967.199951171875</ele>
        <time>2026-09-03T07:20:28.000Z</time>
        <extensions>
          <ns3:TrackPointExtension>
            <ns3:hr>153</ns3:hr>
            <ns3:cad>0</ns3:cad>
          </ns3:TrackPointExtension>
        </extensions>
      </trkpt>
      <trkpt lat="44.69443009234964847564697265625" lon="6.76915618591010570526123046875">
        <ele>1967.4000244140625</ele>
        <time>2026-09-03T07:20:29.000Z</time>
        <extensions>
          <ns3:TrackPointExtension>
            <ns3:hr>152</ns3:hr>
            <ns3:cad>0</ns3:cad>
          </ns3:TrackPointExtension>
        </extensions>
      </trkpt>
      <trkpt lat="44.694420285522937774658203125" lon="6.7691646516323089599609375">
        <ele>1967.5999755859375</ele>
        <time>2026-09-03T07:20:30.000Z</time>
        <extensions>
          <ns3:TrackPointExtension>
            <ns3:hr>152</ns3:hr>
            <ns3:cad>0</ns3:cad>
          </ns3:TrackPointExtension>
        </extensions>
      </trkpt>
      <trkpt lat="44.69442623667418956756591796875" lon="6.76916129887104034423828125">
        <ele>1967.800048828125</ele>
        <time>2026-09-03T07:20:31.000Z</time>
        <extensions>
          <ns3:TrackPointExtension>
            <ns3:hr>151</ns3:hr>
            <ns3:cad>0</ns3:cad>
          </ns3:TrackPointExtension>
        </extensions>
      </trkpt>
      <trkpt lat="44.69442657195031642913818359375" lon="6.76916171796619892120361328125">
        <ele>1968.199951171875</ele>
        <time>2026-09-03T07:20:32.000Z</time>
        <extensions>
          <ns3:TrackPointExtension>
            <ns3:hr>150</ns3:hr>
            <ns3:cad>0</ns3:cad>
          </ns3:TrackPointExtension>
        </extensions>
      </trkpt>
      <trkpt lat="44.69442305155098438262939453125" lon="6.76916666328907012939453125">
        <ele>1968.4000244140625</ele>
        <time>2026-09-03T07:20:33.000Z</time>
        <extensions>
          <ns3:TrackPointExtension>
            <ns3:hr>150</ns3:hr>
            <ns3:cad>0</ns3:cad>
          </ns3:TrackPointExtension>
        </extensions>
      </trkpt>
      <trkpt lat="44.694414921104907989501953125" lon="6.76918233744800090789794921875">
        <ele>1968.5999755859375</ele>
        <time>2026-09-03T07:20:34.000Z</time>
        <extensions>
          <ns3:TrackPointExtension>
            <ns3:hr>149</ns3:hr>
            <ns3:cad>0</ns3:cad>
          </ns3:TrackPointExtension>
        </extensions>
      </trkpt>
      <trkpt lat="44.69440712593495845794677734375" lon="6.7691923119127750396728515625">
        <ele>1969</ele>
        <time>2026-09-03T07:20:35.000Z</time>
        <extensions>
          <ns3:TrackPointExtension>
            <ns3:hr>149</ns3:hr>
            <ns3:cad>0</ns3:cad>
          </ns3:TrackPointExtension>
        </extensions>
      </trkpt>
      <trkpt lat="44.69440477900207042694091796875" lon="6.76919893361628055572509765625">
        <ele>1969.199951171875</ele>
        <time>2026-09-03T07:20:36.000Z</time>
        <extensions>
          <ns3:TrackPointExtension>
            <ns3:hr>148</ns3:hr>
            <ns3:cad>0</ns3:cad>
          </ns3:TrackPointExtension>
        </extensions>
      </trkpt>
      <trkpt lat="44.6943989954888820648193359375" lon="6.76921016536653041839599609375">
        <ele>1969.199951171875</ele>
        <time>2026-09-03T07:20:37.000Z</time>
        <extensions>
          <ns3:TrackPointExtension>
            <ns3:hr>148</ns3:hr>
            <ns3:cad>0</ns3:cad>
          </ns3:TrackPointExtension>
        </extensions>
      </trkpt>
      <trkpt lat="44.69439757056534290313720703125" lon="6.7692187987267971038818359375">
        <ele>1969.4000244140625</ele>
        <time>2026-09-03T07:20:38.000Z</time>
        <extensions>
          <ns3:TrackPointExtension>
            <ns3:hr>148</ns3:hr>
            <ns3:cad>0</ns3:cad>
          </ns3:TrackPointExtension>
        </extensions>
      </trkpt>
      <trkpt lat="44.69439446926116943359375" lon="6.7692335508763790130615234375">
        <ele>1969.5999755859375</ele>
        <time>2026-09-03T07:20:39.000Z</time>
        <extensions>
          <ns3:TrackPointExtension>
            <ns3:hr>148</ns3:hr>
            <ns3:cad>0</ns3:cad>
          </ns3:TrackPointExtension>
        </extensions>
      </trkpt>
      <trkpt lat="44.69439287669956684112548828125" lon="6.769242100417613983154296875">
        <ele>1970</ele>
        <time>2026-09-03T07:20:40.000Z</time>
        <extensions>
          <ns3:TrackPointExtension>
            <ns3:hr>147</ns3:hr>
            <ns3:cad>0</ns3:cad>
          </ns3:TrackPointExtension>
        </extensions>
      </trkpt>
      <trkpt lat="44.69438843429088592529296875" lon="6.7692483030259609222412109375">
        <ele>1970.199951171875</ele>
        <time>2026-09-03T07:20:41.000Z</time>
        <extensions>
          <ns3:TrackPointExtension>
            <ns3:hr>148</ns3:hr>
            <ns3:cad>0</ns3:cad>
          </ns3:TrackPointExtension>
        </extensions>
      </trkpt>
      <trkpt lat="44.69438198022544384002685546875" lon="6.76925794221460819244384765625">
        <ele>1970.4000244140625</ele>
        <time>2026-09-03T07:20:42.000Z</time>
        <extensions>
          <ns3:TrackPointExtension>
            <ns3:hr>148</ns3:hr>
            <ns3:cad>0</ns3:cad>
          </ns3:TrackPointExtension>
        </extensions>
      </trkpt>
      <trkpt lat="44.69437644816935062408447265625" lon="6.7692613787949085235595703125">
        <ele>1970.5999755859375</ele>
        <time>2026-09-03T07:20:43.000Z</time>
        <extensions>
          <ns3:TrackPointExtension>
            <ns3:hr>148</ns3:hr>
            <ns3:cad>0</ns3:cad>
          </ns3:TrackPointExtension>
        </extensions>
      </trkpt>
      <trkpt lat="44.6943684853613376617431640625" lon="6.76927453838288784027099609375">
        <ele>1971</ele>
        <time>2026-09-03T07:20:44.000Z</time>
        <extensions>
          <ns3:TrackPointExtension>
            <ns3:hr>148</ns3:hr>
            <ns3:cad>0</ns3:cad>
          </ns3:TrackPointExtension>
        </extensions>
      </trkpt>
      <trkpt lat="44.6943651326000690460205078125" lon="6.76928342320024967193603515625">
        <ele>1971.199951171875</ele>
        <time>2026-09-03T07:20:45.000Z</time>
        <extensions>
          <ns3:TrackPointExtension>
            <ns3:hr>149</ns3:hr>
            <ns3:cad>0</ns3:cad>
          </ns3:TrackPointExtension>
        </extensions>
      </trkpt>
      <trkpt lat="44.6943594329059123992919921875" lon="6.76929214037954807281494140625">
        <ele>1971.4000244140625</ele>
        <time>2026-09-03T07:20:46.000Z</time>
        <extensions>
          <ns3:TrackPointExtension>
            <ns3:hr>149</ns3:hr>
            <ns3:cad>0</ns3:cad>
          </ns3:TrackPointExtension>
        </extensions>
      </trkpt>
      <trkpt lat="44.69435716979205608367919921875" lon="6.769297420978546142578125">
        <ele>1971.5999755859375</ele>
        <time>2026-09-03T07:20:47.000Z</time>
        <extensions>
          <ns3:TrackPointExtension>
            <ns3:hr>149</ns3:hr>
            <ns3:cad>0</ns3:cad>
          </ns3:TrackPointExtension>
        </extensions>
      </trkpt>
      <trkpt lat="44.6943520568311214447021484375" lon="6.76931393332779407501220703125">
        <ele>1971.800048828125</ele>
        <time>2026-09-03T07:20:48.000Z</time>
        <extensions>
          <ns3:TrackPointExtension>
            <ns3:hr>149</ns3:hr>
            <ns3:cad>0</ns3:cad>
          </ns3:TrackPointExtension>
        </extensions>
      </trkpt>
      <trkpt lat="44.69435012899339199066162109375" lon="6.76932533271610736846923828125">
        <ele>1972.199951171875</ele>
        <time>2026-09-03T07:20:49.000Z</time>
        <extensions>
          <ns3:TrackPointExtension>
            <ns3:hr>149</ns3:hr>
            <ns3:cad>54</ns3:cad>
          </ns3:TrackPointExtension>
        </extensions>
      </trkpt>
      <trkpt lat="44.6943466924130916595458984375" lon="6.76933589391410350799560546875">
        <ele>1972.4000244140625</ele>
        <time>2026-09-03T07:20:50.000Z</time>
        <extensions>
          <ns3:TrackPointExtension>
            <ns3:hr>150</ns3:hr>
            <ns3:cad>54</ns3:cad>
          </ns3:TrackPointExtension>
        </extensions>
      </trkpt>
      <trkpt lat="44.69434359110891819000244140625" lon="6.76934293471276760101318359375">
        <ele>1972.5999755859375</ele>
        <time>2026-09-03T07:20:51.000Z</time>
        <extensions>
          <ns3:TrackPointExtension>
            <ns3:hr>150</ns3:hr>
            <ns3:cad>54</ns3:cad>
          </ns3:TrackPointExtension>
        </extensions>
      </trkpt>
      <trkpt lat="44.69433738850057125091552734375" lon="6.7693431861698627471923828125">
        <ele>1972.800048828125</ele>
        <time>2026-09-03T07:20:52.000Z</time>
        <extensions>
          <ns3:TrackPointExtension>
            <ns3:hr>150</ns3:hr>
            <ns3:cad>0</ns3:cad>
          </ns3:TrackPointExtension>
        </extensions>
      </trkpt>
      <trkpt lat="44.6943332813680171966552734375" lon="6.769351400434970855712890625">
        <ele>1973</ele>
        <time>2026-09-03T07:20:53.000Z</time>
        <extensions>
          <ns3:TrackPointExtension>
            <ns3:hr>151</ns3:hr>
            <ns3:cad>0</ns3:cad>
          </ns3:TrackPointExtension>
        </extensions>
      </trkpt>
      <trkpt lat="44.69432950951159000396728515625" lon="6.76935399882495403289794921875">
        <ele>1973.199951171875</ele>
        <time>2026-09-03T07:20:54.000Z</time>
        <extensions>
          <ns3:TrackPointExtension>
            <ns3:hr>151</ns3:hr>
            <ns3:cad>0</ns3:cad>
          </ns3:TrackPointExtension>
        </extensions>
      </trkpt>
      <trkpt lat="44.69432230107486248016357421875" lon="6.76936204545199871063232421875">
        <ele>1973.5999755859375</ele>
        <time>2026-09-03T07:20:55.000Z</time>
        <extensions>
          <ns3:TrackPointExtension>
            <ns3:hr>152</ns3:hr>
            <ns3:cad>0</ns3:cad>
          </ns3:TrackPointExtension>
        </extensions>
      </trkpt>
      <trkpt lat="44.6943185292184352874755859375" lon="6.7693686671555042266845703125">
        <ele>1973.800048828125</ele>
        <time>2026-09-03T07:20:56.000Z</time>
        <extensions>
          <ns3:TrackPointExtension>
            <ns3:hr>152</ns3:hr>
            <ns3:cad>0</ns3:cad>
          </ns3:TrackPointExtension>
        </extensions>
      </trkpt>
      <trkpt lat="44.6943178586661815643310546875" lon="6.7693706788122653961181640625">
        <ele>1974</ele>
        <time>2026-09-03T07:20:57.000Z</time>
        <extensions>
          <ns3:TrackPointExtension>
            <ns3:hr>152</ns3:hr>
            <ns3:cad>0</ns3:cad>
          </ns3:TrackPointExtension>
        </extensions>
      </trkpt>
      <trkpt lat="44.694313667714595794677734375" lon="6.7693793959915637969970703125">
        <ele>1974.4000244140625</ele>
        <time>2026-09-03T07:20:58.000Z</time>
        <extensions>
          <ns3:TrackPointExtension>
            <ns3:hr>153</ns3:hr>
            <ns3:cad>0</ns3:cad>
          </ns3:TrackPointExtension>
        </extensions>
      </trkpt>
      <trkpt lat="44.6943126618862152099609375" lon="6.76938551478087902069091796875">
        <ele>1974.5999755859375</ele>
        <time>2026-09-03T07:20:59.000Z</time>
        <extensions>
          <ns3:TrackPointExtension>
            <ns3:hr>153</ns3:hr>
            <ns3:cad>0</ns3:cad>
          </ns3:TrackPointExtension>
        </extensions>
      </trkpt>
      <trkpt lat="44.694302268326282501220703125" lon="6.76939389668405055999755859375">
        <ele>1974.800048828125</ele>
        <time>2026-09-03T07:21:00.000Z</time>
        <extensions>
          <ns3:TrackPointExtension>
            <ns3:hr>153</ns3:hr>
            <ns3:cad>0</ns3:cad>
          </ns3:TrackPointExtension>
        </extensions>
      </trkpt>
      <trkpt lat="44.694299586117267608642578125" lon="6.76940093748271465301513671875">
        <ele>1975</ele>
        <time>2026-09-03T07:21:01.000Z</time>
        <extensions>
          <ns3:TrackPointExtension>
            <ns3:hr>153</ns3:hr>
            <ns3:cad>0</ns3:cad>
          </ns3:TrackPointExtension>
        </extensions>
      </trkpt>
      <trkpt lat="44.6942689083516597747802734375" lon="6.76947268657386302947998046875">
        <ele>1976.199951171875</ele>
        <time>2026-09-03T07:21:07.000Z</time>
        <extensions>
          <ns3:TrackPointExtension>
            <ns3:hr>156</ns3:hr>
            <ns3:cad>0</ns3:cad>
          </ns3:TrackPointExtension>
        </extensions>
      </trkpt>
      <trkpt lat="44.6942689083516597747802734375" lon="6.76947268657386302947998046875">
        <ele>1976.199951171875</ele>
        <time>2026-09-03T07:21:08.000Z</time>
        <extensions>
          <ns3:TrackPointExtension>
            <ns3:hr>156</ns3:hr>
            <ns3:cad>0</ns3:cad>
          </ns3:TrackPointExtension>
        </extensions>
      </trkpt>
      <trkpt lat="44.69425432384014129638671875" lon="6.76953806541860103607177734375">
        <ele>1977.199951171875</ele>
        <time>2026-09-03T07:21:13.000Z</time>
        <extensions>
          <ns3:TrackPointExtension>
            <ns3:hr>157</ns3:hr>
            <ns3:cad>75</ns3:cad>
          </ns3:TrackPointExtension>
        </extensions>
      </trkpt>
      <trkpt lat="44.69425432384014129638671875" lon="6.76953806541860103607177734375">
        <ele>1977.199951171875</ele>
        <time>2026-09-03T07:21:14.000Z</time>
        <extensions>
          <ns3:TrackPointExtension>
            <ns3:hr>157</ns3:hr>
            <ns3:cad>75</ns3:cad>
          </ns3:TrackPointExtension>
        </extensions>
      </trkpt>
      <trkpt lat="44.69424887560307979583740234375" lon="6.7695530690252780914306640625">
        <ele>1977.4000244140625</ele>
        <time>2026-09-03T07:21:15.000Z</time>
        <extensions>
          <ns3:TrackPointExtension>
            <ns3:hr>157</ns3:hr>
            <ns3:cad>75</ns3:cad>
          </ns3:TrackPointExtension>
        </extensions>
      </trkpt>
      <trkpt lat="44.6942456066608428955078125" lon="6.76956555806100368499755859375">
        <ele>1977.5999755859375</ele>
        <time>2026-09-03T07:21:16.000Z</time>
        <extensions>
          <ns3:TrackPointExtension>
            <ns3:hr>156</ns3:hr>
            <ns3:cad>75</ns3:cad>
          </ns3:TrackPointExtension>
        </extensions>
      </trkpt>
      <trkpt lat="44.694242589175701141357421875" lon="6.76957435905933380126953125">
        <ele>1977.800048828125</ele>
        <time>2026-09-03T07:21:17.000Z</time>
        <extensions>
          <ns3:TrackPointExtension>
            <ns3:hr>156</ns3:hr>
            <ns3:cad>75</ns3:cad>
          </ns3:TrackPointExtension>
        </extensions>
      </trkpt>
      <trkpt lat="44.69424032606184482574462890625" lon="6.769586093723773956298828125">
        <ele>1978</ele>
        <time>2026-09-03T07:21:18.000Z</time>
        <extensions>
          <ns3:TrackPointExtension>
            <ns3:hr>156</ns3:hr>
            <ns3:cad>75</ns3:cad>
          </ns3:TrackPointExtension>
        </extensions>
      </trkpt>
      <trkpt lat="44.6942424215376377105712890625" lon="6.7695936374366283416748046875">
        <ele>1978.199951171875</ele>
        <time>2026-09-03T07:21:19.000Z</time>
        <extensions>
          <ns3:TrackPointExtension>
            <ns3:hr>157</ns3:hr>
            <ns3:cad>75</ns3:cad>
          </ns3:TrackPointExtension>
        </extensions>
      </trkpt>
      <trkpt lat="44.6942389011383056640625" lon="6.7696026898920536041259765625">
        <ele>1978.4000244140625</ele>
        <time>2026-09-03T07:21:20.000Z</time>
        <extensions>
          <ns3:TrackPointExtension>
            <ns3:hr>157</ns3:hr>
            <ns3:cad>75</ns3:cad>
          </ns3:TrackPointExtension>
        </extensions>
      </trkpt>
      <trkpt lat="44.69423730857670307159423828125" lon="6.76961216144263744354248046875">
        <ele>1978.5999755859375</ele>
        <time>2026-09-03T07:21:21.000Z</time>
        <extensions>
          <ns3:TrackPointExtension>
            <ns3:hr>156</ns3:hr>
            <ns3:cad>75</ns3:cad>
          </ns3:TrackPointExtension>
        </extensions>
      </trkpt>
      <trkpt lat="44.69423077069222927093505859375" lon="6.769622974097728729248046875">
        <ele>1978.800048828125</ele>
        <time>2026-09-03T07:21:22.000Z</time>
        <extensions>
          <ns3:TrackPointExtension>
            <ns3:hr>156</ns3:hr>
            <ns3:cad>75</ns3:cad>
          </ns3:TrackPointExtension>
        </extensions>
      </trkpt>
      <trkpt lat="44.69422875903546810150146484375" lon="6.76963395439088344573974609375">
        <ele>1979</ele>
        <time>2026-09-03T07:21:23.000Z</time>
        <extensions>
          <ns3:TrackPointExtension>
            <ns3:hr>156</ns3:hr>
            <ns3:cad>0</ns3:cad>
          </ns3:TrackPointExtension>
        </extensions>
      </trkpt>
      <trkpt lat="44.69422088004648685455322265625" lon="6.769647784531116485595703125">
        <ele>1979.199951171875</ele>
        <time>2026-09-03T07:21:24.000Z</time>
        <extensions>
          <ns3:TrackPointExtension>
            <ns3:hr>156</ns3:hr>
            <ns3:cad>0</ns3:cad>
          </ns3:TrackPointExtension>
        </extensions>
      </trkpt>
      <trkpt lat="44.69421601854264736175537109375" lon="6.76965725608170032501220703125">
        <ele>1979.4000244140625</ele>
        <time>2026-09-03T07:21:25.000Z</time>
        <extensions>
          <ns3:TrackPointExtension>
            <ns3:hr>156</ns3:hr>
            <ns3:cad>0</ns3:cad>
          </ns3:TrackPointExtension>
        </extensions>
      </trkpt>
      <trkpt lat="44.69420864246785640716552734375" lon="6.76966421306133270263671875">
        <ele>1979.5999755859375</ele>
        <time>2026-09-03T07:21:26.000Z</time>
        <extensions>
          <ns3:TrackPointExtension>
            <ns3:hr>156</ns3:hr>
            <ns3:cad>0</ns3:cad>
          </ns3:TrackPointExtension>
        </extensions>
      </trkpt>
      <trkpt lat="44.69420344568789005279541015625" lon="6.7696710862219333648681640625">
        <ele>1979.800048828125</ele>
        <time>2026-09-03T07:21:27.000Z</time>
        <extensions>
          <ns3:TrackPointExtension>
            <ns3:hr>156</ns3:hr>
            <ns3:cad>0</ns3:cad>
          </ns3:TrackPointExtension>
        </extensions>
      </trkpt>
      <trkpt lat="44.69419959001243114471435546875" lon="6.76967603154480457305908203125">
        <ele>1980</ele>
        <time>2026-09-03T07:21:28.000Z</time>
        <extensions>
          <ns3:TrackPointExtension>
            <ns3:hr>155</ns3:hr>
            <ns3:cad>0</ns3:cad>
          </ns3:TrackPointExtension>
        </extensions>
      </trkpt>
      <trkpt lat="44.69419355504214763641357421875" lon="6.7696868441998958587646484375">
        <ele>1980.199951171875</ele>
        <time>2026-09-03T07:21:29.000Z</time>
        <extensions>
          <ns3:TrackPointExtension>
            <ns3:hr>155</ns3:hr>
            <ns3:cad>0</ns3:cad>
          </ns3:TrackPointExtension>
        </extensions>
      </trkpt>
      <trkpt lat="44.69418919645249843597412109375" lon="6.76969639956951141357421875">
        <ele>1980.4000244140625</ele>
        <time>2026-09-03T07:21:30.000Z</time>
        <extensions>
          <ns3:TrackPointExtension>
            <ns3:hr>155</ns3:hr>
            <ns3:cad>0</ns3:cad>
          </ns3:TrackPointExtension>
        </extensions>
      </trkpt>
      <trkpt lat="44.694189615547657012939453125" lon="6.769709475338459014892578125">
        <ele>1980.5999755859375</ele>
        <time>2026-09-03T07:21:31.000Z</time>
        <extensions>
          <ns3:TrackPointExtension>
            <ns3:hr>155</ns3:hr>
            <ns3:cad>0</ns3:cad>
          </ns3:TrackPointExtension>
        </extensions>
      </trkpt>
      <trkpt lat="44.69418726861476898193359375" lon="6.76971861161291599273681640625">
        <ele>1980.800048828125</ele>
        <time>2026-09-03T07:21:32.000Z</time>
        <extensions>
          <ns3:TrackPointExtension>
            <ns3:hr>155</ns3:hr>
            <ns3:cad>0</ns3:cad>
          </ns3:TrackPointExtension>
        </extensions>
      </trkpt>
      <trkpt lat="44.69418114982545375823974609375" lon="6.76974090747535228729248046875">
        <ele>1981</ele>
        <time>2026-09-03T07:21:33.000Z</time>
        <extensions>
          <ns3:TrackPointExtension>
            <ns3:hr>155</ns3:hr>
            <ns3:cad>0</ns3:cad>
          </ns3:TrackPointExtension>
        </extensions>
      </trkpt>
      <trkpt lat="44.69417997635900974273681640625" lon="6.76975448615849018096923828125">
        <ele>1981.199951171875</ele>
        <time>2026-09-03T07:21:34.000Z</time>
        <extensions>
          <ns3:TrackPointExtension>
            <ns3:hr>154</ns3:hr>
            <ns3:cad>0</ns3:cad>
          </ns3:TrackPointExtension>
        </extensions>
      </trkpt>
      <trkpt lat="44.69417377375066280364990234375" lon="6.7697753570973873138427734375">
        <ele>1981.4000244140625</ele>
        <time>2026-09-03T07:21:35.000Z</time>
        <extensions>
          <ns3:TrackPointExtension>
            <ns3:hr>154</ns3:hr>
            <ns3:cad>0</ns3:cad>
          </ns3:TrackPointExtension>
        </extensions>
      </trkpt>
      <trkpt lat="44.6941753663122653961181640625" lon="6.76979019306600093841552734375">
        <ele>1981.5999755859375</ele>
        <time>2026-09-03T07:21:36.000Z</time>
        <extensions>
          <ns3:TrackPointExtension>
            <ns3:hr>154</ns3:hr>
            <ns3:cad>0</ns3:cad>
          </ns3:TrackPointExtension>
        </extensions>
      </trkpt>
      <trkpt lat="44.694174192845821380615234375" lon="6.769801676273345947265625">
        <ele>1981.5999755859375</ele>
        <time>2026-09-03T07:21:37.000Z</time>
        <extensions>
          <ns3:TrackPointExtension>
            <ns3:hr>154</ns3:hr>
            <ns3:cad>57</ns3:cad>
          </ns3:TrackPointExtension>
        </extensions>
      </trkpt>
      <trkpt lat="44.69417343847453594207763671875" lon="6.76981181837618350982666015625">
        <ele>1981.800048828125</ele>
        <time>2026-09-03T07:21:38.000Z</time>
        <extensions>
          <ns3:TrackPointExtension>
            <ns3:hr>154</ns3:hr>
            <ns3:cad>57</ns3:cad>
          </ns3:TrackPointExtension>
        </extensions>
      </trkpt>
      <trkpt lat="44.6941713429987430572509765625" lon="6.7698226310312747955322265625">
        <ele>1982</ele>
        <time>2026-09-03T07:21:39.000Z</time>
        <extensions>
          <ns3:TrackPointExtension>
            <ns3:hr>154</ns3:hr>
            <ns3:cad>57</ns3:cad>
          </ns3:TrackPointExtension>
        </extensions>
      </trkpt>
      <trkpt lat="44.6941673196852207183837890625" lon="6.76983679644763469696044921875">
        <ele>1982</ele>
        <time>2026-09-03T07:21:40.000Z</time>
        <extensions>
          <ns3:TrackPointExtension>
            <ns3:hr>154</ns3:hr>
            <ns3:cad>57</ns3:cad>
          </ns3:TrackPointExtension>
        </extensions>
      </trkpt>
      <trkpt lat="44.69416321255266666412353515625" lon="6.7698491178452968597412109375">
        <ele>1982.199951171875</ele>
        <time>2026-09-03T07:21:41.000Z</time>
        <extensions>
          <ns3:TrackPointExtension>
            <ns3:hr>154</ns3:hr>
            <ns3:cad>57</ns3:cad>
          </ns3:TrackPointExtension>
        </extensions>
      </trkpt>
      <trkpt lat="44.6941622905433177947998046875" lon="6.769858337938785552978515625">
        <ele>1982.4000244140625</ele>
        <time>2026-09-03T07:21:42.000Z</time>
        <extensions>
          <ns3:TrackPointExtension>
            <ns3:hr>154</ns3:hr>
            <ns3:cad>57</ns3:cad>
          </ns3:TrackPointExtension>
        </extensions>
      </trkpt>
      <trkpt lat="44.69416019506752490997314453125" lon="6.7698692344129085540771484375">
        <ele>1982.4000244140625</ele>
        <time>2026-09-03T07:21:43.000Z</time>
        <extensions>
          <ns3:TrackPointExtension>
            <ns3:hr>153</ns3:hr>
            <ns3:cad>57</ns3:cad>
          </ns3:TrackPointExtension>
        </extensions>
      </trkpt>
      <trkpt lat="44.694158099591732025146484375" lon="6.769878454506397247314453125">
        <ele>1982.5999755859375</ele>
        <time>2026-09-03T07:21:44.000Z</time>
        <extensions>
          <ns3:TrackPointExtension>
            <ns3:hr>153</ns3:hr>
            <ns3:cad>56</ns3:cad>
          </ns3:TrackPointExtension>
        </extensions>
      </trkpt>
      <trkpt lat="44.69415667466819286346435546875" lon="6.76988549530506134033203125">
        <ele>1982.800048828125</ele>
        <time>2026-09-03T07:21:45.000Z</time>
        <extensions>
          <ns3:TrackPointExtension>
            <ns3:hr>152</ns3:hr>
            <ns3:cad>56</ns3:cad>
          </ns3:TrackPointExtension>
        </extensions>
      </trkpt>
      <trkpt lat="44.69415231607854366302490234375" lon="6.769899912178516387939453125">
        <ele>1983.199951171875</ele>
        <time>2026-09-03T07:21:46.000Z</time>
        <extensions>
          <ns3:TrackPointExtension>
            <ns3:hr>151</ns3:hr>
            <ns3:cad>56</ns3:cad>
          </ns3:TrackPointExtension>
        </extensions>
      </trkpt>
      <trkpt lat="44.6941490471363067626953125" lon="6.76990821026265621185302734375">
        <ele>1983.4000244140625</ele>
        <time>2026-09-03T07:21:47.000Z</time>
        <extensions>
          <ns3:TrackPointExtension>
            <ns3:hr>150</ns3:hr>
            <ns3:cad>56</ns3:cad>
          </ns3:TrackPointExtension>
        </extensions>
      </trkpt>
      <trkpt lat="44.694144017994403839111328125" lon="6.76991558633744716644287109375">
        <ele>1983.800048828125</ele>
        <time>2026-09-03T07:21:48.000Z</time>
        <extensions>
          <ns3:TrackPointExtension>
            <ns3:hr>150</ns3:hr>
            <ns3:cad>55</ns3:cad>
          </ns3:TrackPointExtension>
        </extensions>
      </trkpt>
      <trkpt lat="44.69413940794765949249267578125" lon="6.7699237167835235595703125">
        <ele>1984</ele>
        <time>2026-09-03T07:21:49.000Z</time>
        <extensions>
          <ns3:TrackPointExtension>
            <ns3:hr>150</ns3:hr>
            <ns3:cad>55</ns3:cad>
          </ns3:TrackPointExtension>
        </extensions>
      </trkpt>
      <trkpt lat="44.69413437880575656890869140625" lon="6.76993654109537601470947265625">
        <ele>1984.199951171875</ele>
        <time>2026-09-03T07:21:50.000Z</time>
        <extensions>
          <ns3:TrackPointExtension>
            <ns3:hr>150</ns3:hr>
            <ns3:cad>54</ns3:cad>
          </ns3:TrackPointExtension>
        </extensions>
      </trkpt>
      <trkpt lat="44.69412800855934619903564453125" lon="6.76994643174111843109130859375">
        <ele>1984.4000244140625</ele>
        <time>2026-09-03T07:21:51.000Z</time>
        <extensions>
          <ns3:TrackPointExtension>
            <ns3:hr>150</ns3:hr>
            <ns3:cad>54</ns3:cad>
          </ns3:TrackPointExtension>
        </extensions>
      </trkpt>
      <trkpt lat="44.69412364996969699859619140625" lon="6.76995657384395599365234375">
        <ele>1984.5999755859375</ele>
        <time>2026-09-03T07:21:52.000Z</time>
        <extensions>
          <ns3:TrackPointExtension>
            <ns3:hr>150</ns3:hr>
            <ns3:cad>52</ns3:cad>
          </ns3:TrackPointExtension>
        </extensions>
      </trkpt>
      <trkpt lat="44.694121219217777252197265625" lon="6.76996537484228610992431640625">
        <ele>1984.5999755859375</ele>
        <time>2026-09-03T07:21:53.000Z</time>
        <extensions>
          <ns3:TrackPointExtension>
            <ns3:hr>151</ns3:hr>
            <ns3:cad>49</ns3:cad>
          </ns3:TrackPointExtension>
        </extensions>
      </trkpt>
      <trkpt lat="44.69412063248455524444580078125" lon="6.76997409202158451080322265625">
        <ele>1984.5999755859375</ele>
        <time>2026-09-03T07:21:54.000Z</time>
        <extensions>
          <ns3:TrackPointExtension>
            <ns3:hr>151</ns3:hr>
            <ns3:cad>49</ns3:cad>
          </ns3:TrackPointExtension>
        </extensions>
      </trkpt>
      <trkpt lat="44.694120548665523529052734375" lon="6.769981719553470611572265625">
        <ele>1984.800048828125</ele>
        <time>2026-09-03T07:21:55.000Z</time>
        <extensions>
          <ns3:TrackPointExtension>
            <ns3:hr>151</ns3:hr>
            <ns3:cad>49</ns3:cad>
          </ns3:TrackPointExtension>
        </extensions>
      </trkpt>
      <trkpt lat="44.694119207561016082763671875" lon="6.7699902690947055816650390625">
        <ele>1985</ele>
        <time>2026-09-03T07:21:56.000Z</time>
        <extensions>
          <ns3:TrackPointExtension>
            <ns3:hr>151</ns3:hr>
            <ns3:cad>51</ns3:cad>
          </ns3:TrackPointExtension>
        </extensions>
      </trkpt>
      <trkpt lat="44.69411753118038177490234375" lon="6.77000074647367000579833984375">
        <ele>1985.4000244140625</ele>
        <time>2026-09-03T07:21:57.000Z</time>
        <extensions>
          <ns3:TrackPointExtension>
            <ns3:hr>151</ns3:hr>
            <ns3:cad>52</ns3:cad>
          </ns3:TrackPointExtension>
        </extensions>
      </trkpt>
      <trkpt lat="44.6941146813333034515380859375" lon="6.77001063711941242218017578125">
        <ele>1985.5999755859375</ele>
        <time>2026-09-03T07:21:58.000Z</time>
        <extensions>
          <ns3:TrackPointExtension>
            <ns3:hr>150</ns3:hr>
            <ns3:cad>54</ns3:cad>
          </ns3:TrackPointExtension>
        </extensions>
      </trkpt>
      <trkpt lat="44.694109819829463958740234375" lon="6.7700254730880260467529296875">
        <ele>1986</ele>
        <time>2026-09-03T07:21:59.000Z</time>
        <extensions>
          <ns3:TrackPointExtension>
            <ns3:hr>151</ns3:hr>
            <ns3:cad>54</ns3:cad>
          </ns3:TrackPointExtension>
        </extensions>
      </trkpt>
      <trkpt lat="44.69410487450659275054931640625" lon="6.77003569900989532470703125">
        <ele>1986</ele>
        <time>2026-09-03T07:22:00.000Z</time>
        <extensions>
          <ns3:TrackPointExtension>
            <ns3:hr>152</ns3:hr>
            <ns3:cad>54</ns3:cad>
          </ns3:TrackPointExtension>
        </extensions>
      </trkpt>
      <trkpt lat="44.6940992586314678192138671875" lon="6.77004282362759113311767578125">
        <ele>1986.199951171875</ele>
        <time>2026-09-03T07:22:01.000Z</time>
        <extensions>
          <ns3:TrackPointExtension>
            <ns3:hr>155</ns3:hr>
            <ns3:cad>55</ns3:cad>
          </ns3:TrackPointExtension>
        </extensions>
      </trkpt>
      <trkpt lat="44.694094397127628326416015625" lon="6.770048104226589202880859375">
        <ele>1986.199951171875</ele>
        <time>2026-09-03T07:22:02.000Z</time>
        <extensions>
          <ns3:TrackPointExtension>
            <ns3:hr>158</ns3:hr>
            <ns3:cad>55</ns3:cad>
          </ns3:TrackPointExtension>
        </extensions>
      </trkpt>
      <trkpt lat="44.69408894889056682586669921875" lon="6.77005154080688953399658203125">
        <ele>1986.4000244140625</ele>
        <time>2026-09-03T07:22:03.000Z</time>
        <extensions>
          <ns3:TrackPointExtension>
            <ns3:hr>168</ns3:hr>
            <ns3:cad>55</ns3:cad>
          </ns3:TrackPointExtension>
        </extensions>
      </trkpt>
      <trkpt lat="44.6940824948251247406005859375" lon="6.7700543068349361419677734375">
        <ele>1986.5999755859375</ele>
        <time>2026-09-03T07:22:04.000Z</time>
        <extensions>
          <ns3:TrackPointExtension>
            <ns3:hr>170</ns3:hr>
            <ns3:cad>55</ns3:cad>
          </ns3:TrackPointExtension>
        </extensions>
      </trkpt>
      <trkpt lat="44.69407067634165287017822265625" lon="6.7700623534619808197021484375">
        <ele>1986.800048828125</ele>
        <time>2026-09-03T07:22:05.000Z</time>
        <extensions>
          <ns3:TrackPointExtension>
            <ns3:hr>170</ns3:hr>
            <ns3:cad>53</ns3:cad>
          </ns3:TrackPointExtension>
        </extensions>
      </trkpt>
      <trkpt lat="44.6940607018768787384033203125" lon="6.770070903003215789794921875">
        <ele>1987</ele>
        <time>2026-09-03T07:22:06.000Z</time>
        <extensions>
          <ns3:TrackPointExtension>
            <ns3:hr>170</ns3:hr>
            <ns3:cad>53</ns3:cad>
          </ns3:TrackPointExtension>
        </extensions>
      </trkpt>
      <trkpt lat="44.694052822887897491455078125" lon="6.77008129656314849853515625">
        <ele>1987.199951171875</ele>
        <time>2026-09-03T07:22:07.000Z</time>
        <extensions>
          <ns3:TrackPointExtension>
            <ns3:hr>169</ns3:hr>
            <ns3:cad>53</ns3:cad>
          </ns3:TrackPointExtension>
        </extensions>
      </trkpt>
      <trkpt lat="44.69404653646051883697509765625" lon="6.77008531987667083740234375">
        <ele>1987.4000244140625</ele>
        <time>2026-09-03T07:22:08.000Z</time>
        <extensions>
          <ns3:TrackPointExtension>
            <ns3:hr>170</ns3:hr>
            <ns3:cad>53</ns3:cad>
          </ns3:TrackPointExtension>
        </extensions>
      </trkpt>
      <trkpt lat="44.6940417587757110595703125" lon="6.770093701779842376708984375">
        <ele>1987.5999755859375</ele>
        <time>2026-09-03T07:22:09.000Z</time>
        <extensions>
          <ns3:TrackPointExtension>
            <ns3:hr>170</ns3:hr>
            <ns3:cad>0</ns3:cad>
          </ns3:TrackPointExtension>
        </extensions>
      </trkpt>
      <trkpt lat="44.694040752947330474853515625" lon="6.77009881474077701568603515625">
        <ele>1987.800048828125</ele>
        <time>2026-09-03T07:22:10.000Z</time>
        <extensions>
          <ns3:TrackPointExtension>
            <ns3:hr>169</ns3:hr>
            <ns3:cad>0</ns3:cad>
          </ns3:TrackPointExtension>
        </extensions>
      </trkpt>
      <trkpt lat="44.69403614290058612823486328125" lon="6.7701062746345996856689453125">
        <ele>1988</ele>
        <time>2026-09-03T07:22:11.000Z</time>
        <extensions>
          <ns3:TrackPointExtension>
            <ns3:hr>169</ns3:hr>
            <ns3:cad>0</ns3:cad>
          </ns3:TrackPointExtension>
        </extensions>
      </trkpt>
      <trkpt lat="44.69403170049190521240234375" lon="6.77011608146131038665771484375">
        <ele>1988.199951171875</ele>
        <time>2026-09-03T07:22:12.000Z</time>
        <extensions>
          <ns3:TrackPointExtension>
            <ns3:hr>169</ns3:hr>
            <ns3:cad>0</ns3:cad>
          </ns3:TrackPointExtension>
        </extensions>
      </trkpt>
      <trkpt lat="44.69402776099741458892822265625" lon="6.77012781612575054168701171875">
        <ele>1988.5999755859375</ele>
        <time>2026-09-03T07:22:13.000Z</time>
        <extensions>
          <ns3:TrackPointExtension>
            <ns3:hr>170</ns3:hr>
            <ns3:cad>0</ns3:cad>
          </ns3:TrackPointExtension>
        </extensions>
      </trkpt>
      <trkpt lat="44.6940244920551776885986328125" lon="6.7701371200382709503173828125">
        <ele>1988.800048828125</ele>
        <time>2026-09-03T07:22:14.000Z</time>
        <extensions>
          <ns3:TrackPointExtension>
            <ns3:hr>169</ns3:hr>
            <ns3:cad>0</ns3:cad>
          </ns3:TrackPointExtension>
        </extensions>
      </trkpt>
      <trkpt lat="44.69402390532195568084716796875" lon="6.7701423168182373046875">
        <ele>1989</ele>
        <time>2026-09-03T07:22:15.000Z</time>
        <extensions>
          <ns3:TrackPointExtension>
            <ns3:hr>169</ns3:hr>
            <ns3:cad>0</ns3:cad>
          </ns3:TrackPointExtension>
        </extensions>
      </trkpt>
      <trkpt lat="44.69402239657938480377197265625" lon="6.7701528780162334442138671875">
        <ele>1989.4000244140625</ele>
        <time>2026-09-03T07:22:16.000Z</time>
        <extensions>
          <ns3:TrackPointExtension>
            <ns3:hr>169</ns3:hr>
            <ns3:cad>0</ns3:cad>
          </ns3:TrackPointExtension>
        </extensions>
      </trkpt>
      <trkpt lat="44.69402139075100421905517578125" lon="6.77016134373843669891357421875">
        <ele>1989.5999755859375</ele>
        <time>2026-09-03T07:22:17.000Z</time>
        <extensions>
          <ns3:TrackPointExtension>
            <ns3:hr>169</ns3:hr>
            <ns3:cad>0</ns3:cad>
          </ns3:TrackPointExtension>
        </extensions>
      </trkpt>
      <trkpt lat="44.6940144337713718414306640625" lon="6.77016846835613250732421875">
        <ele>1989.800048828125</ele>
        <time>2026-09-03T07:22:18.000Z</time>
        <extensions>
          <ns3:TrackPointExtension>
            <ns3:hr>169</ns3:hr>
            <ns3:cad>0</ns3:cad>
          </ns3:TrackPointExtension>
        </extensions>
      </trkpt>
      <trkpt lat="44.69400621950626373291015625" lon="6.77018095739185810089111328125">
        <ele>1990</ele>
        <time>2026-09-03T07:22:19.000Z</time>
        <extensions>
          <ns3:TrackPointExtension>
            <ns3:hr>169</ns3:hr>
            <ns3:cad>0</ns3:cad>
          </ns3:TrackPointExtension>
        </extensions>
      </trkpt>
      <trkpt lat="44.6940006874501705169677734375" lon="6.7701864056289196014404296875">
        <ele>1990.199951171875</ele>
        <time>2026-09-03T07:22:20.000Z</time>
        <extensions>
          <ns3:TrackPointExtension>
            <ns3:hr>169</ns3:hr>
            <ns3:cad>0</ns3:cad>
          </ns3:TrackPointExtension>
        </extensions>
      </trkpt>
      <trkpt lat="44.6939966641366481781005859375" lon="6.7702004872262477874755859375">
        <ele>1990.4000244140625</ele>
        <time>2026-09-03T07:22:21.000Z</time>
        <extensions>
          <ns3:TrackPointExtension>
            <ns3:hr>168</ns3:hr>
            <ns3:cad>0</ns3:cad>
          </ns3:TrackPointExtension>
        </extensions>
      </trkpt>
      <trkpt lat="44.693991802632808685302734375" lon="6.77020928822457790374755859375">
        <ele>1990.5999755859375</ele>
        <time>2026-09-03T07:22:22.000Z</time>
        <extensions>
          <ns3:TrackPointExtension>
            <ns3:hr>169</ns3:hr>
            <ns3:cad>0</ns3:cad>
          </ns3:TrackPointExtension>
        </extensions>
      </trkpt>
      <trkpt lat="44.6939872764050960540771484375" lon="6.7702165804803371429443359375">
        <ele>1990.800048828125</ele>
        <time>2026-09-03T07:22:23.000Z</time>
        <extensions>
          <ns3:TrackPointExtension>
            <ns3:hr>168</ns3:hr>
            <ns3:cad>0</ns3:cad>
          </ns3:TrackPointExtension>
        </extensions>
      </trkpt>
      <trkpt lat="44.69398316927254199981689453125" lon="6.77022269926965236663818359375">
        <ele>1991</ele>
        <time>2026-09-03T07:22:24.000Z</time>
        <extensions>
          <ns3:TrackPointExtension>
            <ns3:hr>168</ns3:hr>
            <ns3:cad>0</ns3:cad>
          </ns3:TrackPointExtension>
        </extensions>
      </trkpt>
      <trkpt lat="44.69397998414933681488037109375" lon="6.77023091353476047515869140625">
        <ele>1991.199951171875</ele>
        <time>2026-09-03T07:22:25.000Z</time>
        <extensions>
          <ns3:TrackPointExtension>
            <ns3:hr>168</ns3:hr>
            <ns3:cad>0</ns3:cad>
          </ns3:TrackPointExtension>
        </extensions>
      </trkpt>
      <trkpt lat="44.693975709378719329833984375" lon="6.7702423967421054840087890625">
        <ele>1991.4000244140625</ele>
        <time>2026-09-03T07:22:26.000Z</time>
        <extensions>
          <ns3:TrackPointExtension>
            <ns3:hr>168</ns3:hr>
            <ns3:cad>53</ns3:cad>
          </ns3:TrackPointExtension>
        </extensions>
      </trkpt>
      <trkpt lat="44.69397068023681640625" lon="6.77025220356881618499755859375">
        <ele>1991.5999755859375</ele>
        <time>2026-09-03T07:22:27.000Z</time>
        <extensions>
          <ns3:TrackPointExtension>
            <ns3:hr>168</ns3:hr>
            <ns3:cad>53</ns3:cad>
          </ns3:TrackPointExtension>
        </extensions>
      </trkpt>
      <trkpt lat="44.6939651481807231903076171875" lon="6.7702635191380977630615234375">
        <ele>1991.800048828125</ele>
        <time>2026-09-03T07:22:28.000Z</time>
        <extensions>
          <ns3:TrackPointExtension>
            <ns3:hr>167</ns3:hr>
            <ns3:cad>55</ns3:cad>
          </ns3:TrackPointExtension>
        </extensions>
      </trkpt>
      <trkpt lat="44.6939597837626934051513671875" lon="6.77027039229869842529296875">
        <ele>1992</ele>
        <time>2026-09-03T07:22:29.000Z</time>
        <extensions>
          <ns3:TrackPointExtension>
            <ns3:hr>166</ns3:hr>
            <ns3:cad>55</ns3:cad>
          </ns3:TrackPointExtension>
        </extensions>
      </trkpt>
      <trkpt lat="44.69395718537271022796630859375" lon="6.7702789418399333953857421875">
        <ele>1992.199951171875</ele>
        <time>2026-09-03T07:22:30.000Z</time>
        <extensions>
          <ns3:TrackPointExtension>
            <ns3:hr>166</ns3:hr>
            <ns3:cad>55</ns3:cad>
          </ns3:TrackPointExtension>
        </extensions>
      </trkpt>
      <trkpt lat="44.6939560957252979278564453125" lon="6.77028271369636058807373046875">
        <ele>1992.4000244140625</ele>
        <time>2026-09-03T07:22:31.000Z</time>
        <extensions>
          <ns3:TrackPointExtension>
            <ns3:hr>165</ns3:hr>
            <ns3:cad>0</ns3:cad>
          </ns3:TrackPointExtension>
        </extensions>
      </trkpt>
      <trkpt lat="44.69395282678306102752685546875" lon="6.77029293961822986602783203125">
        <ele>1992.5999755859375</ele>
        <time>2026-09-03T07:22:32.000Z</time>
        <extensions>
          <ns3:TrackPointExtension>
            <ns3:hr>165</ns3:hr>
            <ns3:cad>0</ns3:cad>
          </ns3:TrackPointExtension>
        </extensions>
      </trkpt>
      <trkpt lat="44.69394830055534839630126953125" lon="6.7703071050345897674560546875">
        <ele>1992.800048828125</ele>
        <time>2026-09-03T07:22:33.000Z</time>
        <extensions>
          <ns3:TrackPointExtension>
            <ns3:hr>165</ns3:hr>
            <ns3:cad>0</ns3:cad>
          </ns3:TrackPointExtension>
        </extensions>
      </trkpt>
      <trkpt lat="44.693946540355682373046875" lon="6.77031422965228557586669921875">
        <ele>1993</ele>
        <time>2026-09-03T07:22:34.000Z</time>
        <extensions>
          <ns3:TrackPointExtension>
            <ns3:hr>165</ns3:hr>
            <ns3:cad>0</ns3:cad>
          </ns3:TrackPointExtension>
        </extensions>
      </trkpt>
      <trkpt lat="44.69394561834633350372314453125" lon="6.77032110281288623809814453125">
        <ele>1993.199951171875</ele>
        <time>2026-09-03T07:22:35.000Z</time>
        <extensions>
          <ns3:TrackPointExtension>
            <ns3:hr>165</ns3:hr>
            <ns3:cad>0</ns3:cad>
          </ns3:TrackPointExtension>
        </extensions>
      </trkpt>
      <trkpt lat="44.69394679181277751922607421875" lon="6.7703235335648059844970703125">
        <ele>1993.5999755859375</ele>
        <time>2026-09-03T07:22:36.000Z</time>
        <extensions>
          <ns3:TrackPointExtension>
            <ns3:hr>164</ns3:hr>
            <ns3:cad>0</ns3:cad>
          </ns3:TrackPointExtension>
        </extensions>
      </trkpt>
      <trkpt lat="44.6939450316131114959716796875" lon="6.77033317275345325469970703125">
        <ele>1993.800048828125</ele>
        <time>2026-09-03T07:22:37.000Z</time>
        <extensions>
          <ns3:TrackPointExtension>
            <ns3:hr>164</ns3:hr>
            <ns3:cad>0</ns3:cad>
          </ns3:TrackPointExtension>
        </extensions>
      </trkpt>
      <trkpt lat="44.69394461251795291900634765625" lon="6.77033971063792705535888671875">
        <ele>1994</ele>
        <time>2026-09-03T07:22:38.000Z</time>
        <extensions>
          <ns3:TrackPointExtension>
            <ns3:hr>164</ns3:hr>
            <ns3:cad>0</ns3:cad>
          </ns3:TrackPointExtension>
        </extensions>
      </trkpt>
      <trkpt lat="44.69394796527922153472900390625" lon="6.77034557797014713287353515625">
        <ele>1994.199951171875</ele>
        <time>2026-09-03T07:22:39.000Z</time>
        <extensions>
          <ns3:TrackPointExtension>
            <ns3:hr>163</ns3:hr>
            <ns3:cad>0</ns3:cad>
          </ns3:TrackPointExtension>
        </extensions>
      </trkpt>
      <trkpt lat="44.69395450316369533538818359375" lon="6.7703443206846714019775390625">
        <ele>1994.4000244140625</ele>
        <time>2026-09-03T07:22:40.000Z</time>
        <extensions>
          <ns3:TrackPointExtension>
            <ns3:hr>163</ns3:hr>
            <ns3:cad>0</ns3:cad>
          </ns3:TrackPointExtension>
        </extensions>
      </trkpt>
      <trkpt lat="44.69394645653665065765380859375" lon="6.77034909836947917938232421875">
        <ele>1994.5999755859375</ele>
        <time>2026-09-03T07:22:41.000Z</time>
        <extensions>
          <ns3:TrackPointExtension>
            <ns3:hr>163</ns3:hr>
            <ns3:cad>0</ns3:cad>
          </ns3:TrackPointExtension>
        </extensions>
      </trkpt>
      <trkpt lat="44.6939410082995891571044921875" lon="6.7703610844910144805908203125">
        <ele>1994.800048828125</ele>
        <time>2026-09-03T07:22:42.000Z</time>
        <extensions>
          <ns3:TrackPointExtension>
            <ns3:hr>164</ns3:hr>
            <ns3:cad>0</ns3:cad>
          </ns3:TrackPointExtension>
        </extensions>
      </trkpt>
      <trkpt lat="44.69393690116703510284423828125" lon="6.7703667841851711273193359375">
        <ele>1995</ele>
        <time>2026-09-03T07:22:43.000Z</time>
        <extensions>
          <ns3:TrackPointExtension>
            <ns3:hr>164</ns3:hr>
            <ns3:cad>0</ns3:cad>
          </ns3:TrackPointExtension>
        </extensions>
      </trkpt>
      <trkpt lat="44.69392499886453151702880859375" lon="6.7703842185437679290771484375">
        <ele>1995.199951171875</ele>
        <time>2026-09-03T07:22:44.000Z</time>
        <extensions>
          <ns3:TrackPointExtension>
            <ns3:hr>164</ns3:hr>
            <ns3:cad>0</ns3:cad>
          </ns3:TrackPointExtension>
        </extensions>
      </trkpt>
      <trkpt lat="44.693916030228137969970703125" lon="6.77039938978850841522216796875">
        <ele>1995.199951171875</ele>
        <time>2026-09-03T07:22:45.000Z</time>
        <extensions>
          <ns3:TrackPointExtension>
            <ns3:hr>165</ns3:hr>
            <ns3:cad>0</ns3:cad>
          </ns3:TrackPointExtension>
        </extensions>
      </trkpt>
      <trkpt lat="44.69390404410660266876220703125" lon="6.7704091966152191162109375">
        <ele>1995.4000244140625</ele>
        <time>2026-09-03T07:22:46.000Z</time>
        <extensions>
          <ns3:TrackPointExtension>
            <ns3:hr>165</ns3:hr>
            <ns3:cad>0</ns3:cad>
          </ns3:TrackPointExtension>
        </extensions>
      </trkpt>
      <trkpt lat="44.69389851205050945281982421875" lon="6.77041682414710521697998046875">
        <ele>1995.5999755859375</ele>
        <time>2026-09-03T07:22:47.000Z</time>
        <extensions>
          <ns3:TrackPointExtension>
            <ns3:hr>164</ns3:hr>
            <ns3:cad>0</ns3:cad>
          </ns3:TrackPointExtension>
        </extensions>
      </trkpt>
      <trkpt lat="44.69389616511762142181396484375" lon="6.770423613488674163818359375">
        <ele>1995.800048828125</ele>
        <time>2026-09-03T07:22:48.000Z</time>
        <extensions>
          <ns3:TrackPointExtension>
            <ns3:hr>165</ns3:hr>
            <ns3:cad>0</ns3:cad>
          </ns3:TrackPointExtension>
        </extensions>
      </trkpt>
      <trkpt lat="44.693887867033481597900390625" lon="6.77042989991605281829833984375">
        <ele>1996</ele>
        <time>2026-09-03T07:22:49.000Z</time>
        <extensions>
          <ns3:TrackPointExtension>
            <ns3:hr>165</ns3:hr>
            <ns3:cad>0</ns3:cad>
          </ns3:TrackPointExtension>
        </extensions>
      </trkpt>
      <trkpt lat="44.693883173167705535888671875" lon="6.770434677600860595703125">
        <ele>1996.4000244140625</ele>
        <time>2026-09-03T07:22:50.000Z</time>
        <extensions>
          <ns3:TrackPointExtension>
            <ns3:hr>165</ns3:hr>
            <ns3:cad>0</ns3:cad>
          </ns3:TrackPointExtension>
        </extensions>
      </trkpt>
      <trkpt lat="44.6938806585967540740966796875" lon="6.77044264040887355804443359375">
        <ele>1996.5999755859375</ele>
        <time>2026-09-03T07:22:51.000Z</time>
        <extensions>
          <ns3:TrackPointExtension>
            <ns3:hr>165</ns3:hr>
            <ns3:cad>53</ns3:cad>
          </ns3:TrackPointExtension>
        </extensions>
      </trkpt>
      <trkpt lat="44.69387755729258060455322265625" lon="6.77044699899852275848388671875">
        <ele>1996.800048828125</ele>
        <time>2026-09-03T07:22:52.000Z</time>
        <extensions>
          <ns3:TrackPointExtension>
            <ns3:hr>164</ns3:hr>
            <ns3:cad>53</ns3:cad>
          </ns3:TrackPointExtension>
        </extensions>
      </trkpt>
      <trkpt lat="44.69387085177004337310791015625" lon="6.770459152758121490478515625">
        <ele>1997</ele>
        <time>2026-09-03T07:22:53.000Z</time>
        <extensions>
          <ns3:TrackPointExtension>
            <ns3:hr>164</ns3:hr>
            <ns3:cad>53</ns3:cad>
          </ns3:TrackPointExtension>
        </extensions>
      </trkpt>
      <trkpt lat="44.69386808574199676513671875" lon="6.770463176071643829345703125">
        <ele>1997.199951171875</ele>
        <time>2026-09-03T07:22:54.000Z</time>
        <extensions>
          <ns3:TrackPointExtension>
            <ns3:hr>163</ns3:hr>
            <ns3:cad>54</ns3:cad>
          </ns3:TrackPointExtension>
        </extensions>
      </trkpt>
      <trkpt lat="44.69386397860944271087646484375" lon="6.77047449164092540740966796875">
        <ele>1997.4000244140625</ele>
        <time>2026-09-03T07:22:55.000Z</time>
        <extensions>
          <ns3:TrackPointExtension>
            <ns3:hr>163</ns3:hr>
            <ns3:cad>54</ns3:cad>
          </ns3:TrackPointExtension>
        </extensions>
      </trkpt>
      <trkpt lat="44.69386129640042781829833984375" lon="6.77048496901988983154296875">
        <ele>1997.5999755859375</ele>
        <time>2026-09-03T07:22:56.000Z</time>
        <extensions>
          <ns3:TrackPointExtension>
            <ns3:hr>163</ns3:hr>
            <ns3:cad>54</ns3:cad>
          </ns3:TrackPointExtension>
        </extensions>
      </trkpt>
      <trkpt lat="44.6938578598201274871826171875" lon="6.77049569785594940185546875">
        <ele>1997.800048828125</ele>
        <time>2026-09-03T07:22:57.000Z</time>
        <extensions>
          <ns3:TrackPointExtension>
            <ns3:hr>164</ns3:hr>
            <ns3:cad>54</ns3:cad>
          </ns3:TrackPointExtension>
        </extensions>
      </trkpt>
      <trkpt lat="44.6938561834394931793212890625" lon="6.770506091415882110595703125">
        <ele>1998</ele>
        <time>2026-09-03T07:22:58.000Z</time>
        <extensions>
          <ns3:TrackPointExtension>
            <ns3:hr>163</ns3:hr>
            <ns3:cad>54</ns3:cad>
          </ns3:TrackPointExtension>
        </extensions>
      </trkpt>
      <trkpt lat="44.6938494779169559478759765625" lon="6.770531237125396728515625">
        <ele>1998.199951171875</ele>
        <time>2026-09-03T07:22:59.000Z</time>
        <extensions>
          <ns3:TrackPointExtension>
            <ns3:hr>163</ns3:hr>
            <ns3:cad>54</ns3:cad>
          </ns3:TrackPointExtension>
        </extensions>
      </trkpt>
      <trkpt lat="44.69384402967989444732666015625" lon="6.77054707892239093780517578125">
        <ele>1998.5999755859375</ele>
        <time>2026-09-03T07:23:00.000Z</time>
        <extensions>
          <ns3:TrackPointExtension>
            <ns3:hr>164</ns3:hr>
            <ns3:cad>0</ns3:cad>
          </ns3:TrackPointExtension>
        </extensions>
      </trkpt>
      <trkpt lat="44.69383849762380123138427734375" lon="6.7705620825290679931640625">
        <ele>1998.800048828125</ele>
        <time>2026-09-03T07:23:01.000Z</time>
        <extensions>
          <ns3:TrackPointExtension>
            <ns3:hr>163</ns3:hr>
            <ns3:cad>0</ns3:cad>
          </ns3:TrackPointExtension>
        </extensions>
      </trkpt>
      <trkpt lat="44.6938352286815643310546875" lon="6.7705780081450939178466796875">
        <ele>1999</ele>
        <time>2026-09-03T07:23:02.000Z</time>
        <extensions>
          <ns3:TrackPointExtension>
            <ns3:hr>163</ns3:hr>
            <ns3:cad>0</ns3:cad>
          </ns3:TrackPointExtension>
        </extensions>
      </trkpt>
      <trkpt lat="44.6938327141106128692626953125" lon="6.7705897428095340728759765625">
        <ele>1999.199951171875</ele>
        <time>2026-09-03T07:23:03.000Z</time>
        <extensions>
          <ns3:TrackPointExtension>
            <ns3:hr>163</ns3:hr>
            <ns3:cad>0</ns3:cad>
          </ns3:TrackPointExtension>
        </extensions>
      </trkpt>
      <trkpt lat="44.69383195973932743072509765625" lon="6.77059921436011791229248046875">
        <ele>1999.4000244140625</ele>
        <time>2026-09-03T07:23:04.000Z</time>
        <extensions>
          <ns3:TrackPointExtension>
            <ns3:hr>163</ns3:hr>
            <ns3:cad>0</ns3:cad>
          </ns3:TrackPointExtension>
        </extensions>
      </trkpt>
      <trkpt lat="44.6938312053680419921875" lon="6.77060776390135288238525390625">
        <ele>1999.5999755859375</ele>
        <time>2026-09-03T07:23:05.000Z</time>
        <extensions>
          <ns3:TrackPointExtension>
            <ns3:hr>163</ns3:hr>
            <ns3:cad>0</ns3:cad>
          </ns3:TrackPointExtension>
        </extensions>
      </trkpt>
      <trkpt lat="44.69382743351161479949951171875" lon="6.7706212587654590606689453125">
        <ele>1999.800048828125</ele>
        <time>2026-09-03T07:23:06.000Z</time>
        <extensions>
          <ns3:TrackPointExtension>
            <ns3:hr>164</ns3:hr>
            <ns3:cad>0</ns3:cad>
          </ns3:TrackPointExtension>
        </extensions>
      </trkpt>
      <trkpt lat="44.69382324256002902984619140625" lon="6.770633496344089508056640625">
        <ele>2000</ele>
        <time>2026-09-03T07:23:07.000Z</time>
        <extensions>
          <ns3:TrackPointExtension>
            <ns3:hr>163</ns3:hr>
            <ns3:cad>0</ns3:cad>
          </ns3:TrackPointExtension>
        </extensions>
      </trkpt>
      <trkpt lat="44.69381251372396945953369140625" lon="6.770642213523387908935546875">
        <ele>2000.199951171875</ele>
        <time>2026-09-03T07:23:08.000Z</time>
        <extensions>
          <ns3:TrackPointExtension>
            <ns3:hr>163</ns3:hr>
            <ns3:cad>0</ns3:cad>
          </ns3:TrackPointExtension>
        </extensions>
      </trkpt>
      <trkpt lat="44.693807400763034820556640625" lon="6.77065126597881317138671875">
        <ele>2000.4000244140625</ele>
        <time>2026-09-03T07:23:09.000Z</time>
        <extensions>
          <ns3:TrackPointExtension>
            <ns3:hr>163</ns3:hr>
            <ns3:cad>0</ns3:cad>
          </ns3:TrackPointExtension>
        </extensions>
      </trkpt>
      <trkpt lat="44.6938048861920833587646484375" lon="6.7706514336168766021728515625">
        <ele>2000.5999755859375</ele>
        <time>2026-09-03T07:23:10.000Z</time>
        <extensions>
          <ns3:TrackPointExtension>
            <ns3:hr>163</ns3:hr>
            <ns3:cad>0</ns3:cad>
          </ns3:TrackPointExtension>
        </extensions>
      </trkpt>
      <trkpt lat="44.69380413182079792022705078125" lon="6.77065118215978145599365234375">
        <ele>2000.800048828125</ele>
        <time>2026-09-03T07:23:11.000Z</time>
        <extensions>
          <ns3:TrackPointExtension>
            <ns3:hr>163</ns3:hr>
            <ns3:cad>0</ns3:cad>
          </ns3:TrackPointExtension>
        </extensions>
      </trkpt>
      <trkpt lat="44.69379692338407039642333984375" lon="6.77066157571971416473388671875">
        <ele>2001</ele>
        <time>2026-09-03T07:23:12.000Z</time>
        <extensions>
          <ns3:TrackPointExtension>
            <ns3:hr>162</ns3:hr>
            <ns3:cad>0</ns3:cad>
          </ns3:TrackPointExtension>
        </extensions>
      </trkpt>
      <trkpt lat="44.693789966404438018798828125" lon="6.77066945470869541168212890625">
        <ele>2001.199951171875</ele>
        <time>2026-09-03T07:23:13.000Z</time>
        <extensions>
          <ns3:TrackPointExtension>
            <ns3:hr>163</ns3:hr>
            <ns3:cad>0</ns3:cad>
          </ns3:TrackPointExtension>
        </extensions>
      </trkpt>
      <trkpt lat="44.6937827579677104949951171875" lon="6.77067942917346954345703125">
        <ele>2001.4000244140625</ele>
        <time>2026-09-03T07:23:14.000Z</time>
        <extensions>
          <ns3:TrackPointExtension>
            <ns3:hr>163</ns3:hr>
            <ns3:cad>0</ns3:cad>
          </ns3:TrackPointExtension>
        </extensions>
      </trkpt>
      <trkpt lat="44.6937800757586956024169921875" lon="6.7706899903714656829833984375">
        <ele>2001.5999755859375</ele>
        <time>2026-09-03T07:23:15.000Z</time>
        <extensions>
          <ns3:TrackPointExtension>
            <ns3:hr>163</ns3:hr>
            <ns3:cad>0</ns3:cad>
          </ns3:TrackPointExtension>
        </extensions>
      </trkpt>
      <trkpt lat="44.6937757171690464019775390625" lon="6.77070616744458675384521484375">
        <ele>2001.800048828125</ele>
        <time>2026-09-03T07:23:16.000Z</time>
        <extensions>
          <ns3:TrackPointExtension>
            <ns3:hr>163</ns3:hr>
            <ns3:cad>0</ns3:cad>
          </ns3:TrackPointExtension>
        </extensions>
      </trkpt>
      <trkpt lat="44.6937737055122852325439453125" lon="6.770718656480312347412109375">
        <ele>2002.199951171875</ele>
        <time>2026-09-03T07:23:17.000Z</time>
        <extensions>
          <ns3:TrackPointExtension>
            <ns3:hr>164</ns3:hr>
            <ns3:cad>0</ns3:cad>
          </ns3:TrackPointExtension>
        </extensions>
      </trkpt>
      <trkpt lat="44.69377328641712665557861328125" lon="6.77071957848966121673583984375">
        <ele>2002.4000244140625</ele>
        <time>2026-09-03T07:23:18.000Z</time>
        <extensions>
          <ns3:TrackPointExtension>
            <ns3:hr>164</ns3:hr>
            <ns3:cad>0</ns3:cad>
          </ns3:TrackPointExtension>
        </extensions>
      </trkpt>
      <trkpt lat="44.6937683410942554473876953125" lon="6.77071890793740749359130859375">
        <ele>2002.800048828125</ele>
        <time>2026-09-03T07:23:19.000Z</time>
        <extensions>
          <ns3:TrackPointExtension>
            <ns3:hr>164</ns3:hr>
            <ns3:cad>0</ns3:cad>
          </ns3:TrackPointExtension>
        </extensions>
      </trkpt>
      <trkpt lat="44.69376792199909687042236328125" lon="6.7707295529544353485107421875">
        <ele>2003</ele>
        <time>2026-09-03T07:23:20.000Z</time>
        <extensions>
          <ns3:TrackPointExtension>
            <ns3:hr>165</ns3:hr>
            <ns3:cad>0</ns3:cad>
          </ns3:TrackPointExtension>
        </extensions>
      </trkpt>
      <trkpt lat="44.69376540742814540863037109375" lon="6.770733408629894256591796875">
        <ele>2003.199951171875</ele>
        <time>2026-09-03T07:23:21.000Z</time>
        <extensions>
          <ns3:TrackPointExtension>
            <ns3:hr>165</ns3:hr>
            <ns3:cad>0</ns3:cad>
          </ns3:TrackPointExtension>
        </extensions>
      </trkpt>
      <trkpt lat="44.6937623061239719390869140625" lon="6.7707506753504276275634765625">
        <ele>2003.4000244140625</ele>
        <time>2026-09-03T07:23:22.000Z</time>
        <extensions>
          <ns3:TrackPointExtension>
            <ns3:hr>166</ns3:hr>
            <ns3:cad>0</ns3:cad>
          </ns3:TrackPointExtension>
        </extensions>
      </trkpt>
      <trkpt lat="44.69375836662948131561279296875" lon="6.7707614041864871978759765625">
        <ele>2003.5999755859375</ele>
        <time>2026-09-03T07:23:23.000Z</time>
        <extensions>
          <ns3:TrackPointExtension>
            <ns3:hr>166</ns3:hr>
            <ns3:cad>0</ns3:cad>
          </ns3:TrackPointExtension>
        </extensions>
      </trkpt>
      <trkpt lat="44.69375300221145153045654296875" lon="6.77076936699450016021728515625">
        <ele>2003.800048828125</ele>
        <time>2026-09-03T07:23:24.000Z</time>
        <extensions>
          <ns3:TrackPointExtension>
            <ns3:hr>167</ns3:hr>
            <ns3:cad>0</ns3:cad>
          </ns3:TrackPointExtension>
        </extensions>
      </trkpt>
      <trkpt lat="44.693747721612453460693359375" lon="6.77077892236411571502685546875">
        <ele>2004</ele>
        <time>2026-09-03T07:23:25.000Z</time>
        <extensions>
          <ns3:TrackPointExtension>
            <ns3:hr>167</ns3:hr>
            <ns3:cad>0</ns3:cad>
          </ns3:TrackPointExtension>
        </extensions>
      </trkpt>
      <trkpt lat="44.6937493979930877685546875" lon="6.77078965120017528533935546875">
        <ele>2004.199951171875</ele>
        <time>2026-09-03T07:23:26.000Z</time>
        <extensions>
          <ns3:TrackPointExtension>
            <ns3:hr>167</ns3:hr>
            <ns3:cad>0</ns3:cad>
          </ns3:TrackPointExtension>
        </extensions>
      </trkpt>
      <trkpt lat="44.69374738633632659912109375" lon="6.77080012857913970947265625">
        <ele>2004.4000244140625</ele>
        <time>2026-09-03T07:23:27.000Z</time>
        <extensions>
          <ns3:TrackPointExtension>
            <ns3:hr>168</ns3:hr>
            <ns3:cad>0</ns3:cad>
          </ns3:TrackPointExtension>
        </extensions>
      </trkpt>
      <trkpt lat="44.69374763779342174530029296875" lon="6.7708061635494232177734375">
        <ele>2004.5999755859375</ele>
        <time>2026-09-03T07:23:28.000Z</time>
        <extensions>
          <ns3:TrackPointExtension>
            <ns3:hr>168</ns3:hr>
            <ns3:cad>0</ns3:cad>
          </ns3:TrackPointExtension>
        </extensions>
      </trkpt>
      <trkpt lat="44.69374830834567546844482421875" lon="6.7708220891654491424560546875">
        <ele>2004.800048828125</ele>
        <time>2026-09-03T07:23:29.000Z</time>
        <extensions>
          <ns3:TrackPointExtension>
            <ns3:hr>169</ns3:hr>
            <ns3:cad>0</ns3:cad>
          </ns3:TrackPointExtension>
        </extensions>
      </trkpt>
      <trkpt lat="44.69374596141278743743896484375" lon="6.77082217298448085784912109375">
        <ele>2005.199951171875</ele>
        <time>2026-09-03T07:23:30.000Z</time>
        <extensions>
          <ns3:TrackPointExtension>
            <ns3:hr>172</ns3:hr>
            <ns3:cad>0</ns3:cad>
          </ns3:TrackPointExtension>
        </extensions>
      </trkpt>
      <trkpt lat="44.69374202191829681396484375" lon="6.770832650363445281982421875">
        <ele>2005.4000244140625</ele>
        <time>2026-09-03T07:23:31.000Z</time>
        <extensions>
          <ns3:TrackPointExtension>
            <ns3:hr>173</ns3:hr>
            <ns3:cad>0</ns3:cad>
          </ns3:TrackPointExtension>
        </extensions>
      </trkpt>
      <trkpt lat="44.6937418542802333831787109375" lon="6.77083508111536502838134765625">
        <ele>2005.5999755859375</ele>
        <time>2026-09-03T07:23:32.000Z</time>
        <extensions>
          <ns3:TrackPointExtension>
            <ns3:hr>174</ns3:hr>
            <ns3:cad>0</ns3:cad>
          </ns3:TrackPointExtension>
        </extensions>
      </trkpt>
      <trkpt lat="44.69373674131929874420166015625" lon="6.77083759568631649017333984375">
        <ele>2005.800048828125</ele>
        <time>2026-09-03T07:23:33.000Z</time>
        <extensions>
          <ns3:TrackPointExtension>
            <ns3:hr>175</ns3:hr>
            <ns3:cad>0</ns3:cad>
          </ns3:TrackPointExtension>
        </extensions>
      </trkpt>
      <trkpt lat="44.693735651671886444091796875" lon="6.770839691162109375">
        <ele>2006</ele>
        <time>2026-09-03T07:23:34.000Z</time>
        <extensions>
          <ns3:TrackPointExtension>
            <ns3:hr>175</ns3:hr>
            <ns3:cad>0</ns3:cad>
          </ns3:TrackPointExtension>
        </extensions>
      </trkpt>
      <trkpt lat="44.6937348134815692901611328125" lon="6.7708603106439113616943359375">
        <ele>2006.199951171875</ele>
        <time>2026-09-03T07:23:35.000Z</time>
        <extensions>
          <ns3:TrackPointExtension>
            <ns3:hr>175</ns3:hr>
            <ns3:cad>0</ns3:cad>
          </ns3:TrackPointExtension>
        </extensions>
      </trkpt>
      <trkpt lat="44.69373204745352268218994140625" lon="6.77087380550801753997802734375">
        <ele>2006.4000244140625</ele>
        <time>2026-09-03T07:23:36.000Z</time>
        <extensions>
          <ns3:TrackPointExtension>
            <ns3:hr>175</ns3:hr>
            <ns3:cad>0</ns3:cad>
          </ns3:TrackPointExtension>
        </extensions>
      </trkpt>
      <trkpt lat="44.69372735358774662017822265625" lon="6.7708831094205379486083984375">
        <ele>2006.5999755859375</ele>
        <time>2026-09-03T07:23:37.000Z</time>
        <extensions>
          <ns3:TrackPointExtension>
            <ns3:hr>174</ns3:hr>
            <ns3:cad>0</ns3:cad>
          </ns3:TrackPointExtension>
        </extensions>
      </trkpt>
      <trkpt lat="44.6937274374067783355712890625" lon="6.7709002085030078887939453125">
        <ele>2006.800048828125</ele>
        <time>2026-09-03T07:23:38.000Z</time>
        <extensions>
          <ns3:TrackPointExtension>
            <ns3:hr>173</ns3:hr>
            <ns3:cad>0</ns3:cad>
          </ns3:TrackPointExtension>
        </extensions>
      </trkpt>
      <trkpt lat="44.69373397529125213623046875" lon="6.770909763872623443603515625">
        <ele>2007</ele>
        <time>2026-09-03T07:23:39.000Z</time>
        <extensions>
          <ns3:TrackPointExtension>
            <ns3:hr>172</ns3:hr>
            <ns3:cad>0</ns3:cad>
          </ns3:TrackPointExtension>
        </extensions>
      </trkpt>
      <trkpt lat="44.6937374956905841827392578125" lon="6.7709354124963283538818359375">
        <ele>2007.199951171875</ele>
        <time>2026-09-03T07:23:40.000Z</time>
        <extensions>
          <ns3:TrackPointExtension>
            <ns3:hr>171</ns3:hr>
            <ns3:cad>0</ns3:cad>
          </ns3:TrackPointExtension>
        </extensions>
      </trkpt>
      <trkpt lat="44.69373472966253757476806640625" lon="6.770947985351085662841796875">
        <ele>2007.4000244140625</ele>
        <time>2026-09-03T07:23:41.000Z</time>
        <extensions>
          <ns3:TrackPointExtension>
            <ns3:hr>171</ns3:hr>
            <ns3:cad>0</ns3:cad>
          </ns3:TrackPointExtension>
        </extensions>
      </trkpt>
      <trkpt lat="44.69373104162514209747314453125" lon="6.7709515057504177093505859375">
        <ele>2007.5999755859375</ele>
        <time>2026-09-03T07:23:42.000Z</time>
        <extensions>
          <ns3:TrackPointExtension>
            <ns3:hr>170</ns3:hr>
            <ns3:cad>0</ns3:cad>
          </ns3:TrackPointExtension>
        </extensions>
      </trkpt>
      <trkpt lat="44.69372735358774662017822265625" lon="6.770963408052921295166015625">
        <ele>2007.800048828125</ele>
        <time>2026-09-03T07:23:43.000Z</time>
        <extensions>
          <ns3:TrackPointExtension>
            <ns3:hr>170</ns3:hr>
            <ns3:cad>0</ns3:cad>
          </ns3:TrackPointExtension>
        </extensions>
      </trkpt>
      <trkpt lat="44.69372618012130260467529296875" lon="6.7709716223180294036865234375">
        <ele>2008</ele>
        <time>2026-09-03T07:23:44.000Z</time>
        <extensions>
          <ns3:TrackPointExtension>
            <ns3:hr>170</ns3:hr>
            <ns3:cad>0</ns3:cad>
          </ns3:TrackPointExtension>
        </extensions>
      </trkpt>
      <trkpt lat="44.69372349791228771209716796875" lon="6.77099098451435565948486328125">
        <ele>2008.199951171875</ele>
        <time>2026-09-03T07:23:45.000Z</time>
        <extensions>
          <ns3:TrackPointExtension>
            <ns3:hr>170</ns3:hr>
            <ns3:cad>0</ns3:cad>
          </ns3:TrackPointExtension>
        </extensions>
      </trkpt>
      <trkpt lat="44.6937234140932559967041015625" lon="6.77100355736911296844482421875">
        <ele>2008.4000244140625</ele>
        <time>2026-09-03T07:23:46.000Z</time>
        <extensions>
          <ns3:TrackPointExtension>
            <ns3:hr>170</ns3:hr>
            <ns3:cad>0</ns3:cad>
          </ns3:TrackPointExtension>
        </extensions>
      </trkpt>
      <trkpt lat="44.69372115097939968109130859375" lon="6.77101847715675830841064453125">
        <ele>2008.800048828125</ele>
        <time>2026-09-03T07:23:47.000Z</time>
        <extensions>
          <ns3:TrackPointExtension>
            <ns3:hr>171</ns3:hr>
            <ns3:cad>0</ns3:cad>
          </ns3:TrackPointExtension>
        </extensions>
      </trkpt>
      <trkpt lat="44.693722911179065704345703125" lon="6.77102903835475444793701171875">
        <ele>2009</ele>
        <time>2026-09-03T07:23:48.000Z</time>
        <extensions>
          <ns3:TrackPointExtension>
            <ns3:hr>171</ns3:hr>
            <ns3:cad>0</ns3:cad>
          </ns3:TrackPointExtension>
        </extensions>
      </trkpt>
      <trkpt lat="44.6937207318842411041259765625" lon="6.77103348076343536376953125">
        <ele>2009.199951171875</ele>
        <time>2026-09-03T07:23:49.000Z</time>
        <extensions>
          <ns3:TrackPointExtension>
            <ns3:hr>172</ns3:hr>
            <ns3:cad>0</ns3:cad>
          </ns3:TrackPointExtension>
        </extensions>
      </trkpt>
      <trkpt lat="44.69371947459876537322998046875" lon="6.77104412578046321868896484375">
        <ele>2009.4000244140625</ele>
        <time>2026-09-03T07:23:50.000Z</time>
        <extensions>
          <ns3:TrackPointExtension>
            <ns3:hr>172</ns3:hr>
            <ns3:cad>0</ns3:cad>
          </ns3:TrackPointExtension>
        </extensions>
      </trkpt>
      <trkpt lat="44.69371796585619449615478515625" lon="6.77104529924690723419189453125">
        <ele>2009.800048828125</ele>
        <time>2026-09-03T07:23:51.000Z</time>
        <extensions>
          <ns3:TrackPointExtension>
            <ns3:hr>172</ns3:hr>
            <ns3:cad>0</ns3:cad>
          </ns3:TrackPointExtension>
        </extensions>
      </trkpt>
      <trkpt lat="44.69371343962848186492919921875" lon="6.7710529267787933349609375">
        <ele>2010</ele>
        <time>2026-09-03T07:23:52.000Z</time>
        <extensions>
          <ns3:TrackPointExtension>
            <ns3:hr>173</ns3:hr>
            <ns3:cad>0</ns3:cad>
          </ns3:TrackPointExtension>
        </extensions>
      </trkpt>
      <trkpt lat="44.69370958395302295684814453125" lon="6.77106072194874286651611328125">
        <ele>2010.199951171875</ele>
        <time>2026-09-03T07:23:53.000Z</time>
        <extensions>
          <ns3:TrackPointExtension>
            <ns3:hr>174</ns3:hr>
            <ns3:cad>0</ns3:cad>
          </ns3:TrackPointExtension>
        </extensions>
      </trkpt>
      <trkpt lat="44.69370019622147083282470703125" lon="6.77106139250099658966064453125">
        <ele>2010.4000244140625</ele>
        <time>2026-09-03T07:23:54.000Z</time>
        <extensions>
          <ns3:TrackPointExtension>
            <ns3:hr>174</ns3:hr>
            <ns3:cad>0</ns3:cad>
          </ns3:TrackPointExtension>
        </extensions>
      </trkpt>
      <trkpt lat="44.6936932392418384552001953125" lon="6.77107363007962703704833984375">
        <ele>2010.5999755859375</ele>
        <time>2026-09-03T07:23:55.000Z</time>
        <extensions>
          <ns3:TrackPointExtension>
            <ns3:hr>174</ns3:hr>
            <ns3:cad>0</ns3:cad>
          </ns3:TrackPointExtension>
        </extensions>
      </trkpt>
      <trkpt lat="44.69368971884250640869140625" lon="6.7710799165070056915283203125">
        <ele>2010.5999755859375</ele>
        <time>2026-09-03T07:23:56.000Z</time>
        <extensions>
          <ns3:TrackPointExtension>
            <ns3:hr>174</ns3:hr>
            <ns3:cad>0</ns3:cad>
          </ns3:TrackPointExtension>
        </extensions>
      </trkpt>
      <trkpt lat="44.6936868689954280853271484375" lon="6.7710869573056697845458984375">
        <ele>2010.800048828125</ele>
        <time>2026-09-03T07:23:57.000Z</time>
        <extensions>
          <ns3:TrackPointExtension>
            <ns3:hr>174</ns3:hr>
            <ns3:cad>0</ns3:cad>
          </ns3:TrackPointExtension>
        </extensions>
      </trkpt>
      <trkpt lat="44.69368108548223972320556640625" lon="6.77109374664723873138427734375">
        <ele>2011.199951171875</ele>
        <time>2026-09-03T07:23:58.000Z</time>
        <extensions>
          <ns3:TrackPointExtension>
            <ns3:hr>175</ns3:hr>
            <ns3:cad>0</ns3:cad>
          </ns3:TrackPointExtension>
        </extensions>
      </trkpt>
      <trkpt lat="44.6936702728271484375" lon="6.771098189055919647216796875">
        <ele>2011.4000244140625</ele>
        <time>2026-09-03T07:23:59.000Z</time>
        <extensions>
          <ns3:TrackPointExtension>
            <ns3:hr>175</ns3:hr>
            <ns3:cad>0</ns3:cad>
          </ns3:TrackPointExtension>
        </extensions>
      </trkpt>
      <trkpt lat="44.69366289675235748291015625" lon="6.77110028453171253204345703125">
        <ele>2011.5999755859375</ele>
        <time>2026-09-03T07:24:00.000Z</time>
        <extensions>
          <ns3:TrackPointExtension>
            <ns3:hr>175</ns3:hr>
            <ns3:cad>0</ns3:cad>
          </ns3:TrackPointExtension>
        </extensions>
      </trkpt>
      <trkpt lat="44.693655855953693389892578125" lon="6.7711007036268711090087890625">
        <ele>2011.800048828125</ele>
        <time>2026-09-03T07:24:01.000Z</time>
        <extensions>
          <ns3:TrackPointExtension>
            <ns3:hr>174</ns3:hr>
            <ns3:cad>0</ns3:cad>
          </ns3:TrackPointExtension>
        </extensions>
      </trkpt>
      <trkpt lat="44.69365174882113933563232421875" lon="6.771110258996486663818359375">
        <ele>2012</ele>
        <time>2026-09-03T07:24:02.000Z</time>
        <extensions>
          <ns3:TrackPointExtension>
            <ns3:hr>175</ns3:hr>
            <ns3:cad>0</ns3:cad>
          </ns3:TrackPointExtension>
        </extensions>
      </trkpt>
      <trkpt lat="44.693652503192424774169921875" lon="6.77111788652837276458740234375">
        <ele>2012.199951171875</ele>
        <time>2026-09-03T07:24:03.000Z</time>
        <extensions>
          <ns3:TrackPointExtension>
            <ns3:hr>175</ns3:hr>
            <ns3:cad>0</ns3:cad>
          </ns3:TrackPointExtension>
        </extensions>
      </trkpt>
      <trkpt lat="44.69365292228758335113525390625" lon="6.7711231671273708343505859375">
        <ele>2012.4000244140625</ele>
        <time>2026-09-03T07:24:04.000Z</time>
        <extensions>
          <ns3:TrackPointExtension>
            <ns3:hr>175</ns3:hr>
            <ns3:cad>0</ns3:cad>
          </ns3:TrackPointExtension>
        </extensions>
      </trkpt>
      <trkpt lat="44.69365241937339305877685546875" lon="6.77112610079348087310791015625">
        <ele>2012.800048828125</ele>
        <time>2026-09-03T07:24:05.000Z</time>
        <extensions>
          <ns3:TrackPointExtension>
            <ns3:hr>175</ns3:hr>
            <ns3:cad>0</ns3:cad>
          </ns3:TrackPointExtension>
        </extensions>
      </trkpt>
      <trkpt lat="44.6936459653079509735107421875" lon="6.7711335606873035430908203125">
        <ele>2013</ele>
        <time>2026-09-03T07:24:06.000Z</time>
        <extensions>
          <ns3:TrackPointExtension>
            <ns3:hr>175</ns3:hr>
            <ns3:cad>0</ns3:cad>
          </ns3:TrackPointExtension>
        </extensions>
      </trkpt>
      <trkpt lat="44.693642444908618927001953125" lon="6.7711419425904750823974609375">
        <ele>2013.199951171875</ele>
        <time>2026-09-03T07:24:07.000Z</time>
        <extensions>
          <ns3:TrackPointExtension>
            <ns3:hr>176</ns3:hr>
            <ns3:cad>0</ns3:cad>
          </ns3:TrackPointExtension>
        </extensions>
      </trkpt>
      <trkpt lat="44.693636409938335418701171875" lon="6.7711473070085048675537109375">
        <ele>2013.4000244140625</ele>
        <time>2026-09-03T07:24:08.000Z</time>
        <extensions>
          <ns3:TrackPointExtension>
            <ns3:hr>176</ns3:hr>
            <ns3:cad>0</ns3:cad>
          </ns3:TrackPointExtension>
        </extensions>
      </trkpt>
      <trkpt lat="44.6936268545687198638916015625" lon="6.77116063423454761505126953125">
        <ele>2013.5999755859375</ele>
        <time>2026-09-03T07:24:09.000Z</time>
        <extensions>
          <ns3:TrackPointExtension>
            <ns3:hr>176</ns3:hr>
            <ns3:cad>0</ns3:cad>
          </ns3:TrackPointExtension>
        </extensions>
      </trkpt>
      <trkpt lat="44.69362408854067325592041015625" lon="6.77116834558546543121337890625">
        <ele>2013.800048828125</ele>
        <time>2026-09-03T07:24:10.000Z</time>
        <extensions>
          <ns3:TrackPointExtension>
            <ns3:hr>176</ns3:hr>
            <ns3:cad>0</ns3:cad>
          </ns3:TrackPointExtension>
        </extensions>
      </trkpt>
      <trkpt lat="44.69361461699008941650390625" lon="6.7711811698973178863525390625">
        <ele>2014</ele>
        <time>2026-09-03T07:24:11.000Z</time>
        <extensions>
          <ns3:TrackPointExtension>
            <ns3:hr>176</ns3:hr>
            <ns3:cad>0</ns3:cad>
          </ns3:TrackPointExtension>
        </extensions>
      </trkpt>
      <trkpt lat="44.69361327588558197021484375" lon="6.77118502557277679443359375">
        <ele>2014.199951171875</ele>
        <time>2026-09-03T07:24:12.000Z</time>
        <extensions>
          <ns3:TrackPointExtension>
            <ns3:hr>176</ns3:hr>
            <ns3:cad>0</ns3:cad>
          </ns3:TrackPointExtension>
        </extensions>
      </trkpt>
      <trkpt lat="44.69360916875302791595458984375" lon="6.771186031401157379150390625">
        <ele>2014.4000244140625</ele>
        <time>2026-09-03T07:24:13.000Z</time>
        <extensions>
          <ns3:TrackPointExtension>
            <ns3:hr>175</ns3:hr>
            <ns3:cad>0</ns3:cad>
          </ns3:TrackPointExtension>
        </extensions>
      </trkpt>
      <trkpt lat="44.69360145740211009979248046875" lon="6.77119516767561435699462890625">
        <ele>2014.5999755859375</ele>
        <time>2026-09-03T07:24:14.000Z</time>
        <extensions>
          <ns3:TrackPointExtension>
            <ns3:hr>174</ns3:hr>
            <ns3:cad>0</ns3:cad>
          </ns3:TrackPointExtension>
        </extensions>
      </trkpt>
      <trkpt lat="44.69359911046922206878662109375" lon="6.7711979337036609649658203125">
        <ele>2014.800048828125</ele>
        <time>2026-09-03T07:24:15.000Z</time>
        <extensions>
          <ns3:TrackPointExtension>
            <ns3:hr>173</ns3:hr>
            <ns3:cad>0</ns3:cad>
          </ns3:TrackPointExtension>
        </extensions>
      </trkpt>
      <trkpt lat="44.69359743408858776092529296875" lon="6.77120204083621501922607421875">
        <ele>2015.199951171875</ele>
        <time>2026-09-03T07:24:16.000Z</time>
        <extensions>
          <ns3:TrackPointExtension>
            <ns3:hr>173</ns3:hr>
            <ns3:cad>0</ns3:cad>
          </ns3:TrackPointExtension>
        </extensions>
      </trkpt>
      <trkpt lat="44.69359575770795345306396484375" lon="6.7712086625397205352783203125">
        <ele>2015.4000244140625</ele>
        <time>2026-09-03T07:24:17.000Z</time>
        <extensions>
          <ns3:TrackPointExtension>
            <ns3:hr>173</ns3:hr>
            <ns3:cad>0</ns3:cad>
          </ns3:TrackPointExtension>
        </extensions>
      </trkpt>
      <trkpt lat="44.6935950033366680145263671875" lon="6.77121318876743316650390625">
        <ele>2015.5999755859375</ele>
        <time>2026-09-03T07:24:18.000Z</time>
        <extensions>
          <ns3:TrackPointExtension>
            <ns3:hr>173</ns3:hr>
            <ns3:cad>0</ns3:cad>
          </ns3:TrackPointExtension>
        </extensions>
      </trkpt>
      <trkpt lat="44.6935923211276531219482421875" lon="6.771215535700321197509765625">
        <ele>2015.800048828125</ele>
        <time>2026-09-03T07:24:19.000Z</time>
        <extensions>
          <ns3:TrackPointExtension>
            <ns3:hr>174</ns3:hr>
            <ns3:cad>0</ns3:cad>
          </ns3:TrackPointExtension>
        </extensions>
      </trkpt>
      <trkpt lat="44.69358511269092559814453125" lon="6.77122391760349273681640625">
        <ele>2016</ele>
        <time>2026-09-03T07:24:20.000Z</time>
        <extensions>
          <ns3:TrackPointExtension>
            <ns3:hr>175</ns3:hr>
            <ns3:cad>0</ns3:cad>
          </ns3:TrackPointExtension>
        </extensions>
      </trkpt>
      <trkpt lat="44.69358108937740325927734375" lon="6.77123087458312511444091796875">
        <ele>2016.199951171875</ele>
        <time>2026-09-03T07:24:21.000Z</time>
        <extensions>
          <ns3:TrackPointExtension>
            <ns3:hr>175</ns3:hr>
            <ns3:cad>0</ns3:cad>
          </ns3:TrackPointExtension>
        </extensions>
      </trkpt>
      <trkpt lat="44.6935775689780712127685546875" lon="6.77123866975307464599609375">
        <ele>2016.5999755859375</ele>
        <time>2026-09-03T07:24:22.000Z</time>
        <extensions>
          <ns3:TrackPointExtension>
            <ns3:hr>175</ns3:hr>
            <ns3:cad>0</ns3:cad>
          </ns3:TrackPointExtension>
        </extensions>
      </trkpt>
      <trkpt lat="44.6935732103884220123291015625" lon="6.7712445370852947235107421875">
        <ele>2016.800048828125</ele>
        <time>2026-09-03T07:24:23.000Z</time>
        <extensions>
          <ns3:TrackPointExtension>
            <ns3:hr>176</ns3:hr>
            <ns3:cad>50</ns3:cad>
          </ns3:TrackPointExtension>
        </extensions>
      </trkpt>
      <trkpt lat="44.69356792978942394256591796875" lon="6.77125266753137111663818359375">
        <ele>2017</ele>
        <time>2026-09-03T07:24:24.000Z</time>
        <extensions>
          <ns3:TrackPointExtension>
            <ns3:hr>176</ns3:hr>
            <ns3:cad>50</ns3:cad>
          </ns3:TrackPointExtension>
        </extensions>
      </trkpt>
      <trkpt lat="44.69356256537139415740966796875" lon="6.77126121707260608673095703125">
        <ele>2017.199951171875</ele>
        <time>2026-09-03T07:24:25.000Z</time>
        <extensions>
          <ns3:TrackPointExtension>
            <ns3:hr>176</ns3:hr>
            <ns3:cad>0</ns3:cad>
          </ns3:TrackPointExtension>
        </extensions>
      </trkpt>
      <trkpt lat="44.69355762004852294921875" lon="6.7712680064141750335693359375">
        <ele>2017.4000244140625</ele>
        <time>2026-09-03T07:24:26.000Z</time>
        <extensions>
          <ns3:TrackPointExtension>
            <ns3:hr>177</ns3:hr>
            <ns3:cad>0</ns3:cad>
          </ns3:TrackPointExtension>
        </extensions>
      </trkpt>
      <trkpt lat="44.69355485402047634124755859375" lon="6.7712716944515705108642578125">
        <ele>2017.5999755859375</ele>
        <time>2026-09-03T07:24:27.000Z</time>
        <extensions>
          <ns3:TrackPointExtension>
            <ns3:hr>178</ns3:hr>
            <ns3:cad>0</ns3:cad>
          </ns3:TrackPointExtension>
        </extensions>
      </trkpt>
      <trkpt lat="44.69354915432631969451904296875" lon="6.7712787352502346038818359375">
        <ele>2017.800048828125</ele>
        <time>2026-09-03T07:24:28.000Z</time>
        <extensions>
          <ns3:TrackPointExtension>
            <ns3:hr>178</ns3:hr>
            <ns3:cad>0</ns3:cad>
          </ns3:TrackPointExtension>
        </extensions>
      </trkpt>
      <trkpt lat="44.69354613684117794036865234375" lon="6.77128083072602748870849609375">
        <ele>2018</ele>
        <time>2026-09-03T07:24:29.000Z</time>
        <extensions>
          <ns3:TrackPointExtension>
            <ns3:hr>181</ns3:hr>
            <ns3:cad>0</ns3:cad>
          </ns3:TrackPointExtension>
        </extensions>
      </trkpt>
      <trkpt lat="44.69353616237640380859375" lon="6.77128770388662815093994140625">
        <ele>2018.4000244140625</ele>
        <time>2026-09-03T07:24:30.000Z</time>
        <extensions>
          <ns3:TrackPointExtension>
            <ns3:hr>182</ns3:hr>
            <ns3:cad>0</ns3:cad>
          </ns3:TrackPointExtension>
        </extensions>
      </trkpt>
      <trkpt lat="44.69352987594902515411376953125" lon="6.771296001970767974853515625">
        <ele>2018.5999755859375</ele>
        <time>2026-09-03T07:24:31.000Z</time>
        <extensions>
          <ns3:TrackPointExtension>
            <ns3:hr>182</ns3:hr>
            <ns3:cad>0</ns3:cad>
          </ns3:TrackPointExtension>
        </extensions>
      </trkpt>
      <trkpt lat="44.69352685846388339996337890625" lon="6.77129860036075115203857421875">
        <ele>2018.800048828125</ele>
        <time>2026-09-03T07:24:32.000Z</time>
        <extensions>
          <ns3:TrackPointExtension>
            <ns3:hr>182</ns3:hr>
            <ns3:cad>0</ns3:cad>
          </ns3:TrackPointExtension>
        </extensions>
      </trkpt>
      <trkpt lat="44.69351680018007755279541015625" lon="6.7713072337210178375244140625">
        <ele>2019</ele>
        <time>2026-09-03T07:24:33.000Z</time>
        <extensions>
          <ns3:TrackPointExtension>
            <ns3:hr>182</ns3:hr>
            <ns3:cad>0</ns3:cad>
          </ns3:TrackPointExtension>
        </extensions>
      </trkpt>
      <trkpt lat="44.69351193867623805999755859375" lon="6.7713109217584133148193359375">
        <ele>2019.199951171875</ele>
        <time>2026-09-03T07:24:34.000Z</time>
        <extensions>
          <ns3:TrackPointExtension>
            <ns3:hr>182</ns3:hr>
            <ns3:cad>45</ns3:cad>
          </ns3:TrackPointExtension>
        </extensions>
      </trkpt>
      <trkpt lat="44.69350372441112995147705078125" lon="6.771323494613170623779296875">
        <ele>2019.4000244140625</ele>
        <time>2026-09-03T07:24:35.000Z</time>
        <extensions>
          <ns3:TrackPointExtension>
            <ns3:hr>183</ns3:hr>
            <ns3:cad>45</ns3:cad>
          </ns3:TrackPointExtension>
        </extensions>
      </trkpt>
      <trkpt lat="44.6934984438121318817138671875" lon="6.7713286913931369781494140625">
        <ele>2019.4000244140625</ele>
        <time>2026-09-03T07:24:36.000Z</time>
        <extensions>
          <ns3:TrackPointExtension>
            <ns3:hr>182</ns3:hr>
            <ns3:cad>0</ns3:cad>
          </ns3:TrackPointExtension>
        </extensions>
      </trkpt>
      <trkpt lat="44.69348897226154804229736328125" lon="6.77133514545857906341552734375">
        <ele>2019.5999755859375</ele>
        <time>2026-09-03T07:24:37.000Z</time>
        <extensions>
          <ns3:TrackPointExtension>
            <ns3:hr>182</ns3:hr>
            <ns3:cad>0</ns3:cad>
          </ns3:TrackPointExtension>
        </extensions>
      </trkpt>
      <trkpt lat="44.69348394311964511871337890625" lon="6.771344281733036041259765625">
        <ele>2019.800048828125</ele>
        <time>2026-09-03T07:24:38.000Z</time>
        <extensions>
          <ns3:TrackPointExtension>
            <ns3:hr>182</ns3:hr>
            <ns3:cad>0</ns3:cad>
          </ns3:TrackPointExtension>
        </extensions>
      </trkpt>
      <trkpt lat="44.69348276965320110321044921875" lon="6.7713471315801143646240234375">
        <ele>2020</ele>
        <time>2026-09-03T07:24:39.000Z</time>
        <extensions>
          <ns3:TrackPointExtension>
            <ns3:hr>182</ns3:hr>
            <ns3:cad>0</ns3:cad>
          </ns3:TrackPointExtension>
        </extensions>
      </trkpt>
      <trkpt lat="44.69347807578742504119873046875" lon="6.77135760895907878875732421875">
        <ele>2020.4000244140625</ele>
        <time>2026-09-03T07:24:40.000Z</time>
        <extensions>
          <ns3:TrackPointExtension>
            <ns3:hr>182</ns3:hr>
            <ns3:cad>0</ns3:cad>
          </ns3:TrackPointExtension>
        </extensions>
      </trkpt>
      <trkpt lat="44.6934758126735687255859375" lon="6.77134989760816097259521484375">
        <ele>2020.5999755859375</ele>
        <time>2026-09-03T07:24:41.000Z</time>
        <extensions>
          <ns3:TrackPointExtension>
            <ns3:hr>181</ns3:hr>
            <ns3:cad>0</ns3:cad>
          </ns3:TrackPointExtension>
        </extensions>
      </trkpt>
      <trkpt lat="44.69347170554101467132568359375" lon="6.77135626785457134246826171875">
        <ele>2020.800048828125</ele>
        <time>2026-09-03T07:24:42.000Z</time>
        <extensions>
          <ns3:TrackPointExtension>
            <ns3:hr>181</ns3:hr>
            <ns3:cad>0</ns3:cad>
          </ns3:TrackPointExtension>
        </extensions>
      </trkpt>
      <trkpt lat="44.69347053207457065582275390625" lon="6.77136481739580631256103515625">
        <ele>2021.199951171875</ele>
        <time>2026-09-03T07:24:43.000Z</time>
        <extensions>
          <ns3:TrackPointExtension>
            <ns3:hr>181</ns3:hr>
            <ns3:cad>0</ns3:cad>
          </ns3:TrackPointExtension>
        </extensions>
      </trkpt>
      <trkpt lat="44.69346986152231693267822265625" lon="6.7713712714612483978271484375">
        <ele>2021.4000244140625</ele>
        <time>2026-09-03T07:24:44.000Z</time>
        <extensions>
          <ns3:TrackPointExtension>
            <ns3:hr>181</ns3:hr>
            <ns3:cad>0</ns3:cad>
          </ns3:TrackPointExtension>
        </extensions>
      </trkpt>
      <trkpt lat="44.69346399419009685516357421875" lon="6.771381832659244537353515625">
        <ele>2021.5999755859375</ele>
        <time>2026-09-03T07:24:45.000Z</time>
        <extensions>
          <ns3:TrackPointExtension>
            <ns3:hr>181</ns3:hr>
            <ns3:cad>0</ns3:cad>
          </ns3:TrackPointExtension>
        </extensions>
      </trkpt>
      <trkpt lat="44.693461395800113677978515625" lon="6.77138711325824260711669921875">
        <ele>2021.800048828125</ele>
        <time>2026-09-03T07:24:46.000Z</time>
        <extensions>
          <ns3:TrackPointExtension>
            <ns3:hr>180</ns3:hr>
            <ns3:cad>0</ns3:cad>
          </ns3:TrackPointExtension>
        </extensions>
      </trkpt>
      <trkpt lat="44.69345527701079845428466796875" lon="6.77139834500849246978759765625">
        <ele>2022</ele>
        <time>2026-09-03T07:24:47.000Z</time>
        <extensions>
          <ns3:TrackPointExtension>
            <ns3:hr>181</ns3:hr>
            <ns3:cad>0</ns3:cad>
          </ns3:TrackPointExtension>
        </extensions>
      </trkpt>
      <trkpt lat="44.693452008068561553955078125" lon="6.77139465697109699249267578125">
        <ele>2022</ele>
        <time>2026-09-03T07:24:48.000Z</time>
        <extensions>
          <ns3:TrackPointExtension>
            <ns3:hr>181</ns3:hr>
            <ns3:cad>0</ns3:cad>
          </ns3:TrackPointExtension>
        </extensions>
      </trkpt>
      <trkpt lat="44.69344689510762691497802734375" lon="6.77140806801617145538330078125">
        <ele>2022.199951171875</ele>
        <time>2026-09-03T07:24:49.000Z</time>
        <extensions>
          <ns3:TrackPointExtension>
            <ns3:hr>180</ns3:hr>
            <ns3:cad>0</ns3:cad>
          </ns3:TrackPointExtension>
        </extensions>
      </trkpt>
      <trkpt lat="44.6934444643557071685791015625" lon="6.77141259424388408660888671875">
        <ele>2022.4000244140625</ele>
        <time>2026-09-03T07:24:50.000Z</time>
        <extensions>
          <ns3:TrackPointExtension>
            <ns3:hr>181</ns3:hr>
            <ns3:cad>0</ns3:cad>
          </ns3:TrackPointExtension>
        </extensions>
      </trkpt>
      <trkpt lat="44.69343298114836215972900390625" lon="6.771425418555736541748046875">
        <ele>2022.5999755859375</ele>
        <time>2026-09-03T07:24:51.000Z</time>
        <extensions>
          <ns3:TrackPointExtension>
            <ns3:hr>180</ns3:hr>
            <ns3:cad>0</ns3:cad>
          </ns3:TrackPointExtension>
        </extensions>
      </trkpt>
      <trkpt lat="44.69342526979744434356689453125" lon="6.7714353092014789581298828125">
        <ele>2022.800048828125</ele>
        <time>2026-09-03T07:24:52.000Z</time>
        <extensions>
          <ns3:TrackPointExtension>
            <ns3:hr>180</ns3:hr>
            <ns3:cad>41</ns3:cad>
          </ns3:TrackPointExtension>
        </extensions>
      </trkpt>
      <trkpt lat="44.69341806136071681976318359375" lon="6.7714540846645832061767578125">
        <ele>2023</ele>
        <time>2026-09-03T07:24:53.000Z</time>
        <extensions>
          <ns3:TrackPointExtension>
            <ns3:hr>180</ns3:hr>
            <ns3:cad>41</ns3:cad>
          </ns3:TrackPointExtension>
        </extensions>
      </trkpt>
      <trkpt lat="44.69341319985687732696533203125" lon="6.7714659869670867919921875">
        <ele>2023.199951171875</ele>
        <time>2026-09-03T07:24:54.000Z</time>
        <extensions>
          <ns3:TrackPointExtension>
            <ns3:hr>180</ns3:hr>
            <ns3:cad>42</ns3:cad>
          </ns3:TrackPointExtension>
        </extensions>
      </trkpt>
      <trkpt lat="44.693407751619815826416015625" lon="6.77147847600281238555908203125">
        <ele>2023.4000244140625</ele>
        <time>2026-09-03T07:24:55.000Z</time>
        <extensions>
          <ns3:TrackPointExtension>
            <ns3:hr>180</ns3:hr>
            <ns3:cad>42</ns3:cad>
          </ns3:TrackPointExtension>
        </extensions>
      </trkpt>
      <trkpt lat="44.6934025548398494720458984375" lon="6.7714896239340305328369140625">
        <ele>2023.5999755859375</ele>
        <time>2026-09-03T07:24:56.000Z</time>
        <extensions>
          <ns3:TrackPointExtension>
            <ns3:hr>180</ns3:hr>
            <ns3:cad>42</ns3:cad>
          </ns3:TrackPointExtension>
        </extensions>
      </trkpt>
      <trkpt lat="44.69340012408792972564697265625" lon="6.77149624563753604888916015625">
        <ele>2023.800048828125</ele>
        <time>2026-09-03T07:24:57.000Z</time>
        <extensions>
          <ns3:TrackPointExtension>
            <ns3:hr>180</ns3:hr>
            <ns3:cad>0</ns3:cad>
          </ns3:TrackPointExtension>
        </extensions>
      </trkpt>
      <trkpt lat="44.6933908201754093170166015625" lon="6.77150814794003963470458984375">
        <ele>2024</ele>
        <time>2026-09-03T07:24:58.000Z</time>
        <extensions>
          <ns3:TrackPointExtension>
            <ns3:hr>181</ns3:hr>
            <ns3:cad>0</ns3:cad>
          </ns3:TrackPointExtension>
        </extensions>
      </trkpt>
      <trkpt lat="44.69338671304285526275634765625" lon="6.771507896482944488525390625">
        <ele>2024.199951171875</ele>
        <time>2026-09-03T07:24:59.000Z</time>
        <extensions>
          <ns3:TrackPointExtension>
            <ns3:hr>181</ns3:hr>
            <ns3:cad>0</ns3:cad>
          </ns3:TrackPointExtension>
        </extensions>
      </trkpt>
      <trkpt lat="44.69338268972933292388916015625" lon="6.7715089023113250732421875">
        <ele>2024.4000244140625</ele>
        <time>2026-09-03T07:25:00.000Z</time>
        <extensions>
          <ns3:TrackPointExtension>
            <ns3:hr>181</ns3:hr>
            <ns3:cad>0</ns3:cad>
          </ns3:TrackPointExtension>
        </extensions>
      </trkpt>
      <trkpt lat="44.6933765709400177001953125" lon="6.7715137638151645660400390625">
        <ele>2024.5999755859375</ele>
        <time>2026-09-03T07:25:01.000Z</time>
        <extensions>
          <ns3:TrackPointExtension>
            <ns3:hr>182</ns3:hr>
            <ns3:cad>0</ns3:cad>
          </ns3:TrackPointExtension>
        </extensions>
      </trkpt>
      <trkpt lat="44.69336961396038532257080078125" lon="6.77151887677609920501708984375">
        <ele>2024.800048828125</ele>
        <time>2026-09-03T07:25:02.000Z</time>
        <extensions>
          <ns3:TrackPointExtension>
            <ns3:hr>182</ns3:hr>
            <ns3:cad>0</ns3:cad>
          </ns3:TrackPointExtension>
        </extensions>
      </trkpt>
      <trkpt lat="44.6933623217046260833740234375" lon="6.77152357064187526702880859375">
        <ele>2025</ele>
        <time>2026-09-03T07:25:03.000Z</time>
        <extensions>
          <ns3:TrackPointExtension>
            <ns3:hr>183</ns3:hr>
            <ns3:cad>0</ns3:cad>
          </ns3:TrackPointExtension>
        </extensions>
      </trkpt>
      <trkpt lat="44.69335486181080341339111328125" lon="6.7715211398899555206298828125">
        <ele>2025.199951171875</ele>
        <time>2026-09-03T07:25:04.000Z</time>
        <extensions>
          <ns3:TrackPointExtension>
            <ns3:hr>183</ns3:hr>
            <ns3:cad>0</ns3:cad>
          </ns3:TrackPointExtension>
        </extensions>
      </trkpt>
      <trkpt lat="44.69335310161113739013671875" lon="6.7715249955654144287109375">
        <ele>2025.4000244140625</ele>
        <time>2026-09-03T07:25:05.000Z</time>
        <extensions>
          <ns3:TrackPointExtension>
            <ns3:hr>183</ns3:hr>
            <ns3:cad>0</ns3:cad>
          </ns3:TrackPointExtension>
        </extensions>
      </trkpt>
      <trkpt lat="44.6933495812118053436279296875" lon="6.7715295217931270599365234375">
        <ele>2025.4000244140625</ele>
        <time>2026-09-03T07:25:06.000Z</time>
        <extensions>
          <ns3:TrackPointExtension>
            <ns3:hr>182</ns3:hr>
            <ns3:cad>0</ns3:cad>
          </ns3:TrackPointExtension>
        </extensions>
      </trkpt>
      <trkpt lat="44.6933512575924396514892578125" lon="6.77153505384922027587890625">
        <ele>2025.5999755859375</ele>
        <time>2026-09-03T07:25:07.000Z</time>
        <extensions>
          <ns3:TrackPointExtension>
            <ns3:hr>183</ns3:hr>
            <ns3:cad>0</ns3:cad>
          </ns3:TrackPointExtension>
        </extensions>
      </trkpt>
      <trkpt lat="44.69334480352699756622314453125" lon="6.771542094647884368896484375">
        <ele>2025.800048828125</ele>
        <time>2026-09-03T07:25:08.000Z</time>
        <extensions>
          <ns3:TrackPointExtension>
            <ns3:hr>183</ns3:hr>
            <ns3:cad>0</ns3:cad>
          </ns3:TrackPointExtension>
        </extensions>
      </trkpt>
      <trkpt lat="44.693335331976413726806640625" lon="6.7715486325323581695556640625">
        <ele>2026</ele>
        <time>2026-09-03T07:25:09.000Z</time>
        <extensions>
          <ns3:TrackPointExtension>
            <ns3:hr>182</ns3:hr>
            <ns3:cad>0</ns3:cad>
          </ns3:TrackPointExtension>
        </extensions>
      </trkpt>
      <trkpt lat="44.69332938082516193389892578125" lon="6.7715491354465484619140625">
        <ele>2026.199951171875</ele>
        <time>2026-09-03T07:25:10.000Z</time>
        <extensions>
          <ns3:TrackPointExtension>
            <ns3:hr>182</ns3:hr>
            <ns3:cad>0</ns3:cad>
          </ns3:TrackPointExtension>
        </extensions>
      </trkpt>
      <trkpt lat="44.69331999309360980987548828125" lon="6.77154854871332645416259765625">
        <ele>2026.5999755859375</ele>
        <time>2026-09-03T07:25:11.000Z</time>
        <extensions>
          <ns3:TrackPointExtension>
            <ns3:hr>182</ns3:hr>
            <ns3:cad>0</ns3:cad>
          </ns3:TrackPointExtension>
        </extensions>
      </trkpt>
      <trkpt lat="44.693312533199787139892578125" lon="6.77155441604554653167724609375">
        <ele>2026.800048828125</ele>
        <time>2026-09-03T07:25:12.000Z</time>
        <extensions>
          <ns3:TrackPointExtension>
            <ns3:hr>182</ns3:hr>
            <ns3:cad>0</ns3:cad>
          </ns3:TrackPointExtension>
        </extensions>
      </trkpt>
      <trkpt lat="44.69330876134335994720458984375" lon="6.77155575715005397796630859375">
        <ele>2027</ele>
        <time>2026-09-03T07:25:13.000Z</time>
        <extensions>
          <ns3:TrackPointExtension>
            <ns3:hr>182</ns3:hr>
            <ns3:cad>0</ns3:cad>
          </ns3:TrackPointExtension>
        </extensions>
      </trkpt>
      <trkpt lat="44.69330473802983760833740234375" lon="6.77156112156808376312255859375">
        <ele>2027.199951171875</ele>
        <time>2026-09-03T07:25:14.000Z</time>
        <extensions>
          <ns3:TrackPointExtension>
            <ns3:hr>183</ns3:hr>
            <ns3:cad>0</ns3:cad>
          </ns3:TrackPointExtension>
        </extensions>
      </trkpt>
      <trkpt lat="44.69330121763050556182861328125" lon="6.77156665362417697906494140625">
        <ele>2027.4000244140625</ele>
        <time>2026-09-03T07:25:15.000Z</time>
        <extensions>
          <ns3:TrackPointExtension>
            <ns3:hr>183</ns3:hr>
            <ns3:cad>0</ns3:cad>
          </ns3:TrackPointExtension>
        </extensions>
      </trkpt>
      <trkpt lat="44.69329266808927059173583984375" lon="6.771571598947048187255859375">
        <ele>2027.5999755859375</ele>
        <time>2026-09-03T07:25:16.000Z</time>
        <extensions>
          <ns3:TrackPointExtension>
            <ns3:hr>183</ns3:hr>
            <ns3:cad>0</ns3:cad>
          </ns3:TrackPointExtension>
        </extensions>
      </trkpt>
      <trkpt lat="44.69328562729060649871826171875" lon="6.7715799808502197265625">
        <ele>2027.800048828125</ele>
        <time>2026-09-03T07:25:17.000Z</time>
        <extensions>
          <ns3:TrackPointExtension>
            <ns3:hr>183</ns3:hr>
            <ns3:cad>0</ns3:cad>
          </ns3:TrackPointExtension>
        </extensions>
      </trkpt>
      <trkpt lat="44.6932828612625598907470703125" lon="6.771579645574092864990234375">
        <ele>2028</ele>
        <time>2026-09-03T07:25:18.000Z</time>
        <extensions>
          <ns3:TrackPointExtension>
            <ns3:hr>183</ns3:hr>
            <ns3:cad>0</ns3:cad>
          </ns3:TrackPointExtension>
        </extensions>
      </trkpt>
      <trkpt lat="44.6932728029787540435791015625" lon="6.77158945240080356597900390625">
        <ele>2028.199951171875</ele>
        <time>2026-09-03T07:25:19.000Z</time>
        <extensions>
          <ns3:TrackPointExtension>
            <ns3:hr>184</ns3:hr>
            <ns3:cad>0</ns3:cad>
          </ns3:TrackPointExtension>
        </extensions>
      </trkpt>
      <trkpt lat="44.6932681091129779815673828125" lon="6.77159666083753108978271484375">
        <ele>2028.4000244140625</ele>
        <time>2026-09-03T07:25:20.000Z</time>
        <extensions>
          <ns3:TrackPointExtension>
            <ns3:hr>184</ns3:hr>
            <ns3:cad>0</ns3:cad>
          </ns3:TrackPointExtension>
        </extensions>
      </trkpt>
      <trkpt lat="44.6932590566575527191162109375" lon="6.7716109938919544219970703125">
        <ele>2028.5999755859375</ele>
        <time>2026-09-03T07:25:21.000Z</time>
        <extensions>
          <ns3:TrackPointExtension>
            <ns3:hr>184</ns3:hr>
            <ns3:cad>0</ns3:cad>
          </ns3:TrackPointExtension>
        </extensions>
      </trkpt>
      <trkpt lat="44.6932523511350154876708984375" lon="6.7716187052428722381591796875">
        <ele>2028.800048828125</ele>
        <time>2026-09-03T07:25:22.000Z</time>
        <extensions>
          <ns3:TrackPointExtension>
            <ns3:hr>184</ns3:hr>
            <ns3:cad>0</ns3:cad>
          </ns3:TrackPointExtension>
        </extensions>
      </trkpt>
      <trkpt lat="44.6932540275156497955322265625" lon="6.771614849567413330078125">
        <ele>2029</ele>
        <time>2026-09-03T07:25:23.000Z</time>
        <extensions>
          <ns3:TrackPointExtension>
            <ns3:hr>184</ns3:hr>
            <ns3:cad>0</ns3:cad>
          </ns3:TrackPointExtension>
        </extensions>
      </trkpt>
      <trkpt lat="44.6932473219931125640869140625" lon="6.77162532694637775421142578125">
        <ele>2029.199951171875</ele>
        <time>2026-09-03T07:25:24.000Z</time>
        <extensions>
          <ns3:TrackPointExtension>
            <ns3:hr>183</ns3:hr>
            <ns3:cad>0</ns3:cad>
          </ns3:TrackPointExtension>
        </extensions>
      </trkpt>
      <trkpt lat="44.69324002973735332489013671875" lon="6.7716331221163272857666015625">
        <ele>2029.4000244140625</ele>
        <time>2026-09-03T07:25:25.000Z</time>
        <extensions>
          <ns3:TrackPointExtension>
            <ns3:hr>183</ns3:hr>
            <ns3:cad>0</ns3:cad>
          </ns3:TrackPointExtension>
        </extensions>
      </trkpt>
      <trkpt lat="44.69322896562516689300537109375" lon="6.77164091728627681732177734375">
        <ele>2029.5999755859375</ele>
        <time>2026-09-03T07:25:26.000Z</time>
        <extensions>
          <ns3:TrackPointExtension>
            <ns3:hr>183</ns3:hr>
            <ns3:cad>0</ns3:cad>
          </ns3:TrackPointExtension>
        </extensions>
      </trkpt>
      <trkpt lat="44.6932201646268367767333984375" lon="6.77164502441883087158203125">
        <ele>2029.800048828125</ele>
        <time>2026-09-03T07:25:27.000Z</time>
        <extensions>
          <ns3:TrackPointExtension>
            <ns3:hr>183</ns3:hr>
            <ns3:cad>0</ns3:cad>
          </ns3:TrackPointExtension>
        </extensions>
      </trkpt>
      <trkpt lat="44.69321320764720439910888671875" lon="6.7716456949710845947265625">
        <ele>2030.199951171875</ele>
        <time>2026-09-03T07:25:28.000Z</time>
        <extensions>
          <ns3:TrackPointExtension>
            <ns3:hr>183</ns3:hr>
            <ns3:cad>0</ns3:cad>
          </ns3:TrackPointExtension>
        </extensions>
      </trkpt>
      <trkpt lat="44.6932057477533817291259765625" lon="6.7716537415981292724609375">
        <ele>2030.4000244140625</ele>
        <time>2026-09-03T07:25:29.000Z</time>
        <extensions>
          <ns3:TrackPointExtension>
            <ns3:hr>183</ns3:hr>
            <ns3:cad>75</ns3:cad>
          </ns3:TrackPointExtension>
        </extensions>
      </trkpt>
      <trkpt lat="44.69319543801248073577880859375" lon="6.77165977656841278076171875">
        <ele>2030.5999755859375</ele>
        <time>2026-09-03T07:25:30.000Z</time>
        <extensions>
          <ns3:TrackPointExtension>
            <ns3:hr>184</ns3:hr>
            <ns3:cad>75</ns3:cad>
          </ns3:TrackPointExtension>
        </extensions>
      </trkpt>
      <trkpt lat="44.6931879781186580657958984375" lon="6.7716644704341888427734375">
        <ele>2030.800048828125</ele>
        <time>2026-09-03T07:25:31.000Z</time>
        <extensions>
          <ns3:TrackPointExtension>
            <ns3:hr>183</ns3:hr>
            <ns3:cad>75</ns3:cad>
          </ns3:TrackPointExtension>
        </extensions>
      </trkpt>
      <trkpt lat="44.69318085350096225738525390625" lon="6.7716673202812671661376953125">
        <ele>2031</ele>
        <time>2026-09-03T07:25:32.000Z</time>
        <extensions>
          <ns3:TrackPointExtension>
            <ns3:hr>183</ns3:hr>
            <ns3:cad>0</ns3:cad>
          </ns3:TrackPointExtension>
        </extensions>
      </trkpt>
      <trkpt lat="44.69317247159779071807861328125" lon="6.77167226560413837432861328125">
        <ele>2031.199951171875</ele>
        <time>2026-09-03T07:25:33.000Z</time>
        <extensions>
          <ns3:TrackPointExtension>
            <ns3:hr>183</ns3:hr>
            <ns3:cad>0</ns3:cad>
          </ns3:TrackPointExtension>
        </extensions>
      </trkpt>
      <trkpt lat="44.69316509552299976348876953125" lon="6.77167427726089954376220703125">
        <ele>2031.4000244140625</ele>
        <time>2026-09-03T07:25:34.000Z</time>
        <extensions>
          <ns3:TrackPointExtension>
            <ns3:hr>182</ns3:hr>
            <ns3:cad>0</ns3:cad>
          </ns3:TrackPointExtension>
        </extensions>
      </trkpt>
      <trkpt lat="44.69315419904887676239013671875" lon="6.77167779766023159027099609375">
        <ele>2031.5999755859375</ele>
        <time>2026-09-03T07:25:35.000Z</time>
        <extensions>
          <ns3:TrackPointExtension>
            <ns3:hr>182</ns3:hr>
            <ns3:cad>0</ns3:cad>
          </ns3:TrackPointExtension>
        </extensions>
      </trkpt>
      <trkpt lat="44.6931457333266735076904296875" lon="6.77168249152600765228271484375">
        <ele>2031.800048828125</ele>
        <time>2026-09-03T07:25:36.000Z</time>
        <extensions>
          <ns3:TrackPointExtension>
            <ns3:hr>181</ns3:hr>
            <ns3:cad>0</ns3:cad>
          </ns3:TrackPointExtension>
        </extensions>
      </trkpt>
      <trkpt lat="44.69313190318644046783447265625" lon="6.77169020287692546844482421875">
        <ele>2032</ele>
        <time>2026-09-03T07:25:37.000Z</time>
        <extensions>
          <ns3:TrackPointExtension>
            <ns3:hr>180</ns3:hr>
            <ns3:cad>0</ns3:cad>
          </ns3:TrackPointExtension>
        </extensions>
      </trkpt>
      <trkpt lat="44.693124778568744659423828125" lon="6.77169556729495525360107421875">
        <ele>2032.199951171875</ele>
        <time>2026-09-03T07:25:38.000Z</time>
        <extensions>
          <ns3:TrackPointExtension>
            <ns3:hr>180</ns3:hr>
            <ns3:cad>0</ns3:cad>
          </ns3:TrackPointExtension>
        </extensions>
      </trkpt>
      <trkpt lat="44.6931172348558902740478515625" lon="6.77170160226523876190185546875">
        <ele>2032.4000244140625</ele>
        <time>2026-09-03T07:25:39.000Z</time>
        <extensions>
          <ns3:TrackPointExtension>
            <ns3:hr>180</ns3:hr>
            <ns3:cad>0</ns3:cad>
          </ns3:TrackPointExtension>
        </extensions>
      </trkpt>
      <trkpt lat="44.69311161898076534271240234375" lon="6.77171342074871063232421875">
        <ele>2032.5999755859375</ele>
        <time>2026-09-03T07:25:40.000Z</time>
        <extensions>
          <ns3:TrackPointExtension>
            <ns3:hr>180</ns3:hr>
            <ns3:cad>0</ns3:cad>
          </ns3:TrackPointExtension>
        </extensions>
      </trkpt>
      <trkpt lat="44.69311262480914592742919921875" lon="6.77171518094837665557861328125">
        <ele>2032.800048828125</ele>
        <time>2026-09-03T07:25:41.000Z</time>
        <extensions>
          <ns3:TrackPointExtension>
            <ns3:hr>180</ns3:hr>
            <ns3:cad>0</ns3:cad>
          </ns3:TrackPointExtension>
        </extensions>
      </trkpt>
      <trkpt lat="44.6931055001914501190185546875" lon="6.77172138355672359466552734375">
        <ele>2033</ele>
        <time>2026-09-03T07:25:42.000Z</time>
        <extensions>
          <ns3:TrackPointExtension>
            <ns3:hr>180</ns3:hr>
            <ns3:cad>0</ns3:cad>
          </ns3:TrackPointExtension>
        </extensions>
      </trkpt>
      <trkpt lat="44.69310843385756015777587890625" lon="6.7717234790325164794921875">
        <ele>2033.199951171875</ele>
        <time>2026-09-03T07:25:43.000Z</time>
        <extensions>
          <ns3:TrackPointExtension>
            <ns3:hr>179</ns3:hr>
            <ns3:cad>0</ns3:cad>
          </ns3:TrackPointExtension>
        </extensions>
      </trkpt>
      <trkpt lat="44.693106673657894134521484375" lon="6.7717310227453708648681640625">
        <ele>2033.4000244140625</ele>
        <time>2026-09-03T07:25:44.000Z</time>
        <extensions>
          <ns3:TrackPointExtension>
            <ns3:hr>179</ns3:hr>
            <ns3:cad>0</ns3:cad>
          </ns3:TrackPointExtension>
        </extensions>
      </trkpt>
      <trkpt lat="44.69310021959245204925537109375" lon="6.7717373929917812347412109375">
        <ele>2033.800048828125</ele>
        <time>2026-09-03T07:25:45.000Z</time>
        <extensions>
          <ns3:TrackPointExtension>
            <ns3:hr>179</ns3:hr>
            <ns3:cad>0</ns3:cad>
          </ns3:TrackPointExtension>
        </extensions>
      </trkpt>
      <trkpt lat="44.6930917538702487945556640625" lon="6.77174719981849193572998046875">
        <ele>2034</ele>
        <time>2026-09-03T07:25:46.000Z</time>
        <extensions>
          <ns3:TrackPointExtension>
            <ns3:hr>178</ns3:hr>
            <ns3:cad>0</ns3:cad>
          </ns3:TrackPointExtension>
        </extensions>
      </trkpt>
      <trkpt lat="44.6930842101573944091796875" lon="6.77175792865455150604248046875">
        <ele>2034.4000244140625</ele>
        <time>2026-09-03T07:25:47.000Z</time>
        <extensions>
          <ns3:TrackPointExtension>
            <ns3:hr>178</ns3:hr>
            <ns3:cad>0</ns3:cad>
          </ns3:TrackPointExtension>
        </extensions>
      </trkpt>
      <trkpt lat="44.6930810250341892242431640625" lon="6.77176144905388355255126953125">
        <ele>2034.5999755859375</ele>
        <time>2026-09-03T07:25:48.000Z</time>
        <extensions>
          <ns3:TrackPointExtension>
            <ns3:hr>178</ns3:hr>
            <ns3:cad>0</ns3:cad>
          </ns3:TrackPointExtension>
        </extensions>
      </trkpt>
      <trkpt lat="44.69307876192033290863037109375" lon="6.77176446653902530670166015625">
        <ele>2034.800048828125</ele>
        <time>2026-09-03T07:25:49.000Z</time>
        <extensions>
          <ns3:TrackPointExtension>
            <ns3:hr>178</ns3:hr>
            <ns3:cad>0</ns3:cad>
          </ns3:TrackPointExtension>
        </extensions>
      </trkpt>
      <trkpt lat="44.69307909719645977020263671875" lon="6.77176631055772304534912109375">
        <ele>2035.199951171875</ele>
        <time>2026-09-03T07:25:50.000Z</time>
        <extensions>
          <ns3:TrackPointExtension>
            <ns3:hr>178</ns3:hr>
            <ns3:cad>0</ns3:cad>
          </ns3:TrackPointExtension>
        </extensions>
      </trkpt>
      <trkpt lat="44.693071804940700531005859375" lon="6.771778129041194915771484375">
        <ele>2035.4000244140625</ele>
        <time>2026-09-03T07:25:51.000Z</time>
        <extensions>
          <ns3:TrackPointExtension>
            <ns3:hr>178</ns3:hr>
            <ns3:cad>0</ns3:cad>
          </ns3:TrackPointExtension>
        </extensions>
      </trkpt>
      <trkpt lat="44.69307222403585910797119140625" lon="6.77178357727825641632080078125">
        <ele>2035.5999755859375</ele>
        <time>2026-09-03T07:25:52.000Z</time>
        <extensions>
          <ns3:TrackPointExtension>
            <ns3:hr>178</ns3:hr>
            <ns3:cad>0</ns3:cad>
          </ns3:TrackPointExtension>
        </extensions>
      </trkpt>
      <trkpt lat="44.6930629201233386993408203125" lon="6.77179028280079364776611328125">
        <ele>2035.800048828125</ele>
        <time>2026-09-03T07:25:53.000Z</time>
        <extensions>
          <ns3:TrackPointExtension>
            <ns3:hr>178</ns3:hr>
            <ns3:cad>0</ns3:cad>
          </ns3:TrackPointExtension>
        </extensions>
      </trkpt>
      <trkpt lat="44.69305814243853092193603515625" lon="6.77179698832333087921142578125">
        <ele>2036</ele>
        <time>2026-09-03T07:25:54.000Z</time>
        <extensions>
          <ns3:TrackPointExtension>
            <ns3:hr>178</ns3:hr>
            <ns3:cad>0</ns3:cad>
          </ns3:TrackPointExtension>
        </extensions>
      </trkpt>
      <trkpt lat="44.693056046962738037109375" lon="6.771800257265567779541015625">
        <ele>2036.199951171875</ele>
        <time>2026-09-03T07:25:55.000Z</time>
        <extensions>
          <ns3:TrackPointExtension>
            <ns3:hr>178</ns3:hr>
            <ns3:cad>0</ns3:cad>
          </ns3:TrackPointExtension>
        </extensions>
      </trkpt>
      <trkpt lat="44.69304624013602733612060546875" lon="6.77181257866322994232177734375">
        <ele>2036.4000244140625</ele>
        <time>2026-09-03T07:25:56.000Z</time>
        <extensions>
          <ns3:TrackPointExtension>
            <ns3:hr>179</ns3:hr>
            <ns3:cad>0</ns3:cad>
          </ns3:TrackPointExtension>
        </extensions>
      </trkpt>
      <trkpt lat="44.69303852878510951995849609375" lon="6.7718161828815937042236328125">
        <ele>2036.5999755859375</ele>
        <time>2026-09-03T07:25:57.000Z</time>
        <extensions>
          <ns3:TrackPointExtension>
            <ns3:hr>179</ns3:hr>
            <ns3:cad>0</ns3:cad>
          </ns3:TrackPointExtension>
        </extensions>
      </trkpt>
      <trkpt lat="44.6930332481861114501953125" lon="6.7718342877924442291259765625">
        <ele>2036.800048828125</ele>
        <time>2026-09-03T07:25:58.000Z</time>
        <extensions>
          <ns3:TrackPointExtension>
            <ns3:hr>179</ns3:hr>
            <ns3:cad>0</ns3:cad>
          </ns3:TrackPointExtension>
        </extensions>
      </trkpt>
      <trkpt lat="44.69303098507225513458251953125" lon="6.77185566164553165435791015625">
        <ele>2037</ele>
        <time>2026-09-03T07:25:59.000Z</time>
        <extensions>
          <ns3:TrackPointExtension>
            <ns3:hr>179</ns3:hr>
            <ns3:cad>0</ns3:cad>
          </ns3:TrackPointExtension>
        </extensions>
      </trkpt>
      <trkpt lat="44.69303349964320659637451171875" lon="6.77186991088092327117919921875">
        <ele>2037</ele>
        <time>2026-09-03T07:26:00.000Z</time>
        <extensions>
          <ns3:TrackPointExtension>
            <ns3:hr>178</ns3:hr>
            <ns3:cad>0</ns3:cad>
          </ns3:TrackPointExtension>
        </extensions>
      </trkpt>
      <trkpt lat="44.693031571805477142333984375" lon="6.77189086563885211944580078125">
        <ele>2037</ele>
        <time>2026-09-03T07:26:01.000Z</time>
        <extensions>
          <ns3:TrackPointExtension>
            <ns3:hr>177</ns3:hr>
            <ns3:cad>41</ns3:cad>
          </ns3:TrackPointExtension>
        </extensions>
      </trkpt>
      <trkpt lat="44.6930354274809360504150390625" lon="6.7719036899507045745849609375">
        <ele>2037</ele>
        <time>2026-09-03T07:26:02.000Z</time>
        <extensions>
          <ns3:TrackPointExtension>
            <ns3:hr>176</ns3:hr>
            <ns3:cad>41</ns3:cad>
          </ns3:TrackPointExtension>
        </extensions>
      </trkpt>
      <trkpt lat="44.69303869642317295074462890625" lon="6.7719191126525402069091796875">
        <ele>2037</ele>
        <time>2026-09-03T07:26:03.000Z</time>
        <extensions>
          <ns3:TrackPointExtension>
            <ns3:hr>176</ns3:hr>
            <ns3:cad>41</ns3:cad>
          </ns3:TrackPointExtension>
        </extensions>
      </trkpt>
      <trkpt lat="44.69303903169929981231689453125" lon="6.7719318531453609466552734375">
        <ele>2037</ele>
        <time>2026-09-03T07:26:04.000Z</time>
        <extensions>
          <ns3:TrackPointExtension>
            <ns3:hr>175</ns3:hr>
            <ns3:cad>41</ns3:cad>
          </ns3:TrackPointExtension>
        </extensions>
      </trkpt>
      <trkpt lat="44.693032912909984588623046875" lon="6.77195347845554351806640625">
        <ele>2037</ele>
        <time>2026-09-03T07:26:05.000Z</time>
        <extensions>
          <ns3:TrackPointExtension>
            <ns3:hr>175</ns3:hr>
            <ns3:cad>41</ns3:cad>
          </ns3:TrackPointExtension>
        </extensions>
      </trkpt>
      <trkpt lat="44.69302578829228878021240234375" lon="6.7719680629670619964599609375">
        <ele>2037.199951171875</ele>
        <time>2026-09-03T07:26:06.000Z</time>
        <extensions>
          <ns3:TrackPointExtension>
            <ns3:hr>175</ns3:hr>
            <ns3:cad>41</ns3:cad>
          </ns3:TrackPointExtension>
        </extensions>
      </trkpt>
      <trkpt lat="44.69302344135940074920654296875" lon="6.7719828151166439056396484375">
        <ele>2037.199951171875</ele>
        <time>2026-09-03T07:26:07.000Z</time>
        <extensions>
          <ns3:TrackPointExtension>
            <ns3:hr>174</ns3:hr>
            <ns3:cad>60</ns3:cad>
          </ns3:TrackPointExtension>
        </extensions>
      </trkpt>
      <trkpt lat="44.69303266145288944244384765625" lon="6.77200519479811191558837890625">
        <ele>2037.4000244140625</ele>
        <time>2026-09-03T07:26:08.000Z</time>
        <extensions>
          <ns3:TrackPointExtension>
            <ns3:hr>174</ns3:hr>
            <ns3:cad>60</ns3:cad>
          </ns3:TrackPointExtension>
        </extensions>
      </trkpt>
      <trkpt lat="44.69303366728127002716064453125" lon="6.772022545337677001953125">
        <ele>2037.4000244140625</ele>
        <time>2026-09-03T07:26:09.000Z</time>
        <extensions>
          <ns3:TrackPointExtension>
            <ns3:hr>174</ns3:hr>
            <ns3:cad>60</ns3:cad>
          </ns3:TrackPointExtension>
        </extensions>
      </trkpt>
      <trkpt lat="44.69303333200514316558837890625" lon="6.7720485292375087738037109375">
        <ele>2037.4000244140625</ele>
        <time>2026-09-03T07:26:10.000Z</time>
        <extensions>
          <ns3:TrackPointExtension>
            <ns3:hr>174</ns3:hr>
            <ns3:cad>60</ns3:cad>
          </ns3:TrackPointExtension>
        </extensions>
      </trkpt>
      <trkpt lat="44.69302981160581111907958984375" lon="6.7720619402825832366943359375">
        <ele>2037.5999755859375</ele>
        <time>2026-09-03T07:26:11.000Z</time>
        <extensions>
          <ns3:TrackPointExtension>
            <ns3:hr>174</ns3:hr>
            <ns3:cad>60</ns3:cad>
          </ns3:TrackPointExtension>
        </extensions>
      </trkpt>
      <trkpt lat="44.69302654266357421875" lon="6.77207711152732372283935546875">
        <ele>2037.5999755859375</ele>
        <time>2026-09-03T07:26:12.000Z</time>
        <extensions>
          <ns3:TrackPointExtension>
            <ns3:hr>174</ns3:hr>
            <ns3:cad>60</ns3:cad>
          </ns3:TrackPointExtension>
        </extensions>
      </trkpt>
      <trkpt lat="44.69302394427359104156494140625" lon="6.77209136076271533966064453125">
        <ele>2037.5999755859375</ele>
        <time>2026-09-03T07:26:13.000Z</time>
        <extensions>
          <ns3:TrackPointExtension>
            <ns3:hr>175</ns3:hr>
            <ns3:cad>60</ns3:cad>
          </ns3:TrackPointExtension>
        </extensions>
      </trkpt>
      <trkpt lat="44.69302210025489330291748046875" lon="6.7721070349216461181640625">
        <ele>2037.800048828125</ele>
        <time>2026-09-03T07:26:14.000Z</time>
        <extensions>
          <ns3:TrackPointExtension>
            <ns3:hr>174</ns3:hr>
            <ns3:cad>60</ns3:cad>
          </ns3:TrackPointExtension>
        </extensions>
      </trkpt>
      <trkpt lat="44.69302327372133731842041015625" lon="6.772120781242847442626953125">
        <ele>2038</ele>
        <time>2026-09-03T07:26:15.000Z</time>
        <extensions>
          <ns3:TrackPointExtension>
            <ns3:hr>174</ns3:hr>
            <ns3:cad>0</ns3:cad>
          </ns3:TrackPointExtension>
        </extensions>
      </trkpt>
      <trkpt lat="44.69302293844521045684814453125" lon="6.77213343791663646697998046875">
        <ele>2038</ele>
        <time>2026-09-03T07:26:16.000Z</time>
        <extensions>
          <ns3:TrackPointExtension>
            <ns3:hr>174</ns3:hr>
            <ns3:cad>0</ns3:cad>
          </ns3:TrackPointExtension>
        </extensions>
      </trkpt>
      <trkpt lat="44.693022854626178741455078125" lon="6.77214651368558406829833984375">
        <ele>2038.199951171875</ele>
        <time>2026-09-03T07:26:17.000Z</time>
        <extensions>
          <ns3:TrackPointExtension>
            <ns3:hr>174</ns3:hr>
            <ns3:cad>0</ns3:cad>
          </ns3:TrackPointExtension>
        </extensions>
      </trkpt>
      <trkpt lat="44.6930223517119884490966796875" lon="6.7721551470458507537841796875">
        <ele>2038.4000244140625</ele>
        <time>2026-09-03T07:26:18.000Z</time>
        <extensions>
          <ns3:TrackPointExtension>
            <ns3:hr>174</ns3:hr>
            <ns3:cad>0</ns3:cad>
          </ns3:TrackPointExtension>
        </extensions>
      </trkpt>
      <trkpt lat="44.69302210025489330291748046875" lon="6.7721658758819103240966796875">
        <ele>2038.5999755859375</ele>
        <time>2026-09-03T07:26:19.000Z</time>
        <extensions>
          <ns3:TrackPointExtension>
            <ns3:hr>174</ns3:hr>
            <ns3:cad>0</ns3:cad>
          </ns3:TrackPointExtension>
        </extensions>
      </trkpt>
      <trkpt lat="44.69302159734070301055908203125" lon="6.77217870019376277923583984375">
        <ele>2038.800048828125</ele>
        <time>2026-09-03T07:26:20.000Z</time>
        <extensions>
          <ns3:TrackPointExtension>
            <ns3:hr>174</ns3:hr>
            <ns3:cad>0</ns3:cad>
          </ns3:TrackPointExtension>
        </extensions>
      </trkpt>
      <trkpt lat="44.69302126206457614898681640625" lon="6.77219621837139129638671875">
        <ele>2038.800048828125</ele>
        <time>2026-09-03T07:26:21.000Z</time>
        <extensions>
          <ns3:TrackPointExtension>
            <ns3:hr>174</ns3:hr>
            <ns3:cad>0</ns3:cad>
          </ns3:TrackPointExtension>
        </extensions>
      </trkpt>
      <trkpt lat="44.69301941804587841033935546875" lon="6.7722101323306560516357421875">
        <ele>2039</ele>
        <time>2026-09-03T07:26:22.000Z</time>
        <extensions>
          <ns3:TrackPointExtension>
            <ns3:hr>174</ns3:hr>
            <ns3:cad>56</ns3:cad>
          </ns3:TrackPointExtension>
        </extensions>
      </trkpt>
      <trkpt lat="44.6930171549320220947265625" lon="6.7722238786518573760986328125">
        <ele>2039</ele>
        <time>2026-09-03T07:26:23.000Z</time>
        <extensions>
          <ns3:TrackPointExtension>
            <ns3:hr>174</ns3:hr>
            <ns3:cad>56</ns3:cad>
          </ns3:TrackPointExtension>
        </extensions>
      </trkpt>
      <trkpt lat="44.69301187433302402496337890625" lon="6.7722386308014392852783203125">
        <ele>2039.199951171875</ele>
        <time>2026-09-03T07:26:24.000Z</time>
        <extensions>
          <ns3:TrackPointExtension>
            <ns3:hr>174</ns3:hr>
            <ns3:cad>56</ns3:cad>
          </ns3:TrackPointExtension>
        </extensions>
      </trkpt>
      <trkpt lat="44.693008102476596832275390625" lon="6.77225145511329174041748046875">
        <ele>2039.199951171875</ele>
        <time>2026-09-03T07:26:25.000Z</time>
        <extensions>
          <ns3:TrackPointExtension>
            <ns3:hr>173</ns3:hr>
            <ns3:cad>56</ns3:cad>
          </ns3:TrackPointExtension>
        </extensions>
      </trkpt>
      <trkpt lat="44.69300349242985248565673828125" lon="6.77226671017706394195556640625">
        <ele>2039.4000244140625</ele>
        <time>2026-09-03T07:26:26.000Z</time>
        <extensions>
          <ns3:TrackPointExtension>
            <ns3:hr>173</ns3:hr>
            <ns3:cad>56</ns3:cad>
          </ns3:TrackPointExtension>
        </extensions>
      </trkpt>
      <trkpt lat="44.6929988823831081390380859375" lon="6.7722825519740581512451171875">
        <ele>2039.5999755859375</ele>
        <time>2026-09-03T07:26:27.000Z</time>
        <extensions>
          <ns3:TrackPointExtension>
            <ns3:hr>173</ns3:hr>
            <ns3:cad>56</ns3:cad>
          </ns3:TrackPointExtension>
        </extensions>
      </trkpt>
      <trkpt lat="44.69299293123185634613037109375" lon="6.77230074070394039154052734375">
        <ele>2039.800048828125</ele>
        <time>2026-09-03T07:26:28.000Z</time>
        <extensions>
          <ns3:TrackPointExtension>
            <ns3:hr>173</ns3:hr>
            <ns3:cad>54</ns3:cad>
          </ns3:TrackPointExtension>
        </extensions>
      </trkpt>
      <trkpt lat="44.69298840500414371490478515625" lon="6.77231482230126857757568359375">
        <ele>2040</ele>
        <time>2026-09-03T07:26:29.000Z</time>
        <extensions>
          <ns3:TrackPointExtension>
            <ns3:hr>173</ns3:hr>
            <ns3:cad>54</ns3:cad>
          </ns3:TrackPointExtension>
        </extensions>
      </trkpt>
      <trkpt lat="44.6929849684238433837890625" lon="6.77232672460377216339111328125">
        <ele>2040</ele>
        <time>2026-09-03T07:26:30.000Z</time>
        <extensions>
          <ns3:TrackPointExtension>
            <ns3:hr>173</ns3:hr>
            <ns3:cad>54</ns3:cad>
          </ns3:TrackPointExtension>
        </extensions>
      </trkpt>
      <trkpt lat="44.69298102892935276031494140625" lon="6.77234114147722721099853515625">
        <ele>2040.199951171875</ele>
        <time>2026-09-03T07:26:31.000Z</time>
        <extensions>
          <ns3:TrackPointExtension>
            <ns3:hr>173</ns3:hr>
            <ns3:cad>0</ns3:cad>
          </ns3:TrackPointExtension>
        </extensions>
      </trkpt>
      <trkpt lat="44.69297884963452816009521484375" lon="6.7723529599606990814208984375">
        <ele>2040.199951171875</ele>
        <time>2026-09-03T07:26:32.000Z</time>
        <extensions>
          <ns3:TrackPointExtension>
            <ns3:hr>173</ns3:hr>
            <ns3:cad>0</ns3:cad>
          </ns3:TrackPointExtension>
        </extensions>
      </trkpt>
      <trkpt lat="44.692975245416164398193359375" lon="6.77237190306186676025390625">
        <ele>2040.4000244140625</ele>
        <time>2026-09-03T07:26:33.000Z</time>
        <extensions>
          <ns3:TrackPointExtension>
            <ns3:hr>172</ns3:hr>
            <ns3:cad>0</ns3:cad>
          </ns3:TrackPointExtension>
        </extensions>
      </trkpt>
      <trkpt lat="44.69297465868294239044189453125" lon="6.77238271571695804595947265625">
        <ele>2040.5999755859375</ele>
        <time>2026-09-03T07:26:34.000Z</time>
        <extensions>
          <ns3:TrackPointExtension>
            <ns3:hr>172</ns3:hr>
            <ns3:cad>0</ns3:cad>
          </ns3:TrackPointExtension>
        </extensions>
      </trkpt>
      <trkpt lat="44.69297147355973720550537109375" lon="6.7723965458571910858154296875">
        <ele>2040.800048828125</ele>
        <time>2026-09-03T07:26:35.000Z</time>
        <extensions>
          <ns3:TrackPointExtension>
            <ns3:hr>172</ns3:hr>
            <ns3:cad>0</ns3:cad>
          </ns3:TrackPointExtension>
        </extensions>
      </trkpt>
      <trkpt lat="44.69296828843653202056884765625" lon="6.77241004072129726409912109375">
        <ele>2041</ele>
        <time>2026-09-03T07:26:36.000Z</time>
        <extensions>
          <ns3:TrackPointExtension>
            <ns3:hr>171</ns3:hr>
            <ns3:cad>0</ns3:cad>
          </ns3:TrackPointExtension>
        </extensions>
      </trkpt>
      <trkpt lat="44.69296460039913654327392578125" lon="6.7724208533763885498046875">
        <ele>2041.199951171875</ele>
        <time>2026-09-03T07:26:37.000Z</time>
        <extensions>
          <ns3:TrackPointExtension>
            <ns3:hr>170</ns3:hr>
            <ns3:cad>0</ns3:cad>
          </ns3:TrackPointExtension>
        </extensions>
      </trkpt>
      <trkpt lat="44.69295973889529705047607421875" lon="6.77242881618440151214599609375">
        <ele>2041.4000244140625</ele>
        <time>2026-09-03T07:26:38.000Z</time>
        <extensions>
          <ns3:TrackPointExtension>
            <ns3:hr>170</ns3:hr>
            <ns3:cad>0</ns3:cad>
          </ns3:TrackPointExtension>
        </extensions>
      </trkpt>
      <trkpt lat="44.69294163398444652557373046875" lon="6.77244029939174652099609375">
        <ele>2041.5999755859375</ele>
        <time>2026-09-03T07:26:39.000Z</time>
        <extensions>
          <ns3:TrackPointExtension>
            <ns3:hr>169</ns3:hr>
            <ns3:cad>0</ns3:cad>
          </ns3:TrackPointExtension>
        </extensions>
      </trkpt>
      <trkpt lat="44.69293610192835330963134765625" lon="6.77245412953197956085205078125">
        <ele>2041.800048828125</ele>
        <time>2026-09-03T07:26:40.000Z</time>
        <extensions>
          <ns3:TrackPointExtension>
            <ns3:hr>169</ns3:hr>
            <ns3:cad>0</ns3:cad>
          </ns3:TrackPointExtension>
        </extensions>
      </trkpt>
      <trkpt lat="44.69292621128261089324951171875" lon="6.77246737293899059295654296875">
        <ele>2042</ele>
        <time>2026-09-03T07:26:41.000Z</time>
        <extensions>
          <ns3:TrackPointExtension>
            <ns3:hr>168</ns3:hr>
            <ns3:cad>55</ns3:cad>
          </ns3:TrackPointExtension>
        </extensions>
      </trkpt>
      <trkpt lat="44.6929180808365345001220703125" lon="6.77247919142246246337890625">
        <ele>2042.199951171875</ele>
        <time>2026-09-03T07:26:42.000Z</time>
        <extensions>
          <ns3:TrackPointExtension>
            <ns3:hr>168</ns3:hr>
            <ns3:cad>55</ns3:cad>
          </ns3:TrackPointExtension>
        </extensions>
      </trkpt>
      <trkpt lat="44.69291179440915584564208984375" lon="6.77248614840209484100341796875">
        <ele>2042.4000244140625</ele>
        <time>2026-09-03T07:26:43.000Z</time>
        <extensions>
          <ns3:TrackPointExtension>
            <ns3:hr>167</ns3:hr>
            <ns3:cad>0</ns3:cad>
          </ns3:TrackPointExtension>
        </extensions>
      </trkpt>
      <trkpt lat="44.6929050050675868988037109375" lon="6.7724947817623615264892578125">
        <ele>2042.4000244140625</ele>
        <time>2026-09-03T07:26:44.000Z</time>
        <extensions>
          <ns3:TrackPointExtension>
            <ns3:hr>167</ns3:hr>
            <ns3:cad>0</ns3:cad>
          </ns3:TrackPointExtension>
        </extensions>
      </trkpt>
      <trkpt lat="44.692900143563747406005859375" lon="6.77250375039875507354736328125">
        <ele>2042.5999755859375</ele>
        <time>2026-09-03T07:26:45.000Z</time>
        <extensions>
          <ns3:TrackPointExtension>
            <ns3:hr>167</ns3:hr>
            <ns3:cad>0</ns3:cad>
          </ns3:TrackPointExtension>
        </extensions>
      </trkpt>
      <trkpt lat="44.69289301894605159759521484375" lon="6.7725115455687046051025390625">
        <ele>2042.800048828125</ele>
        <time>2026-09-03T07:26:46.000Z</time>
        <extensions>
          <ns3:TrackPointExtension>
            <ns3:hr>167</ns3:hr>
            <ns3:cad>0</ns3:cad>
          </ns3:TrackPointExtension>
        </extensions>
      </trkpt>
      <trkpt lat="44.6928885765373706817626953125" lon="6.77251967601478099822998046875">
        <ele>2043</ele>
        <time>2026-09-03T07:26:47.000Z</time>
        <extensions>
          <ns3:TrackPointExtension>
            <ns3:hr>166</ns3:hr>
            <ns3:cad>0</ns3:cad>
          </ns3:TrackPointExtension>
        </extensions>
      </trkpt>
      <trkpt lat="44.6928832121193408966064453125" lon="6.77253074012696743011474609375">
        <ele>2043.199951171875</ele>
        <time>2026-09-03T07:26:48.000Z</time>
        <extensions>
          <ns3:TrackPointExtension>
            <ns3:hr>166</ns3:hr>
            <ns3:cad>0</ns3:cad>
          </ns3:TrackPointExtension>
        </extensions>
      </trkpt>
      <trkpt lat="44.692880026996135711669921875" lon="6.7725400440394878387451171875">
        <ele>2043.4000244140625</ele>
        <time>2026-09-03T07:26:49.000Z</time>
        <extensions>
          <ns3:TrackPointExtension>
            <ns3:hr>165</ns3:hr>
            <ns3:cad>0</ns3:cad>
          </ns3:TrackPointExtension>
        </extensions>
      </trkpt>
      <trkpt lat="44.69287491403520107269287109375" lon="6.7725494317710399627685546875">
        <ele>2043.800048828125</ele>
        <time>2026-09-03T07:26:50.000Z</time>
        <extensions>
          <ns3:TrackPointExtension>
            <ns3:hr>165</ns3:hr>
            <ns3:cad>0</ns3:cad>
          </ns3:TrackPointExtension>
        </extensions>
      </trkpt>
      <trkpt lat="44.6928714774549007415771484375" lon="6.77256057970225811004638671875">
        <ele>2043.800048828125</ele>
        <time>2026-09-03T07:26:51.000Z</time>
        <extensions>
          <ns3:TrackPointExtension>
            <ns3:hr>165</ns3:hr>
            <ns3:cad>0</ns3:cad>
          </ns3:TrackPointExtension>
        </extensions>
      </trkpt>
      <trkpt lat="44.692866615951061248779296875" lon="6.77256527356803417205810546875">
        <ele>2044.199951171875</ele>
        <time>2026-09-03T07:26:52.000Z</time>
        <extensions>
          <ns3:TrackPointExtension>
            <ns3:hr>164</ns3:hr>
            <ns3:cad>0</ns3:cad>
          </ns3:TrackPointExtension>
        </extensions>
      </trkpt>
      <trkpt lat="44.69285848550498485565185546875" lon="6.77257499657571315765380859375">
        <ele>2044.199951171875</ele>
        <time>2026-09-03T07:26:53.000Z</time>
        <extensions>
          <ns3:TrackPointExtension>
            <ns3:hr>164</ns3:hr>
            <ns3:cad>0</ns3:cad>
          </ns3:TrackPointExtension>
        </extensions>
      </trkpt>
      <trkpt lat="44.6928527019917964935302734375" lon="6.77257667295634746551513671875">
        <ele>2044.4000244140625</ele>
        <time>2026-09-03T07:26:54.000Z</time>
        <extensions>
          <ns3:TrackPointExtension>
            <ns3:hr>163</ns3:hr>
            <ns3:cad>0</ns3:cad>
          </ns3:TrackPointExtension>
        </extensions>
      </trkpt>
      <trkpt lat="44.69284507445991039276123046875" lon="6.772581450641155242919921875">
        <ele>2044.5999755859375</ele>
        <time>2026-09-03T07:26:55.000Z</time>
        <extensions>
          <ns3:TrackPointExtension>
            <ns3:hr>162</ns3:hr>
            <ns3:cad>0</ns3:cad>
          </ns3:TrackPointExtension>
        </extensions>
      </trkpt>
      <trkpt lat="44.6928374469280242919921875" lon="6.7725889943540096282958984375">
        <ele>2044.800048828125</ele>
        <time>2026-09-03T07:26:56.000Z</time>
        <extensions>
          <ns3:TrackPointExtension>
            <ns3:hr>162</ns3:hr>
            <ns3:cad>0</ns3:cad>
          </ns3:TrackPointExtension>
        </extensions>
      </trkpt>
      <trkpt lat="44.69283199869096279144287109375" lon="6.7725906707346439361572265625">
        <ele>2045</ele>
        <time>2026-09-03T07:26:57.000Z</time>
        <extensions>
          <ns3:TrackPointExtension>
            <ns3:hr>162</ns3:hr>
            <ns3:cad>0</ns3:cad>
          </ns3:TrackPointExtension>
        </extensions>
      </trkpt>
      <trkpt lat="44.6928268857300281524658203125" lon="6.77259913645684719085693359375">
        <ele>2045.199951171875</ele>
        <time>2026-09-03T07:26:58.000Z</time>
        <extensions>
          <ns3:TrackPointExtension>
            <ns3:hr>162</ns3:hr>
            <ns3:cad>40</ns3:cad>
          </ns3:TrackPointExtension>
        </extensions>
      </trkpt>
      <trkpt lat="44.69282059930264949798583984375" lon="6.7726097814738750457763671875">
        <ele>2045.4000244140625</ele>
        <time>2026-09-03T07:26:59.000Z</time>
        <extensions>
          <ns3:TrackPointExtension>
            <ns3:hr>162</ns3:hr>
            <ns3:cad>41</ns3:cad>
          </ns3:TrackPointExtension>
        </extensions>
      </trkpt>
      <trkpt lat="44.69281665980815887451171875" lon="6.7726158164441585540771484375">
        <ele>2045.5999755859375</ele>
        <time>2026-09-03T07:27:00.000Z</time>
        <extensions>
          <ns3:TrackPointExtension>
            <ns3:hr>161</ns3:hr>
            <ns3:cad>41</ns3:cad>
          </ns3:TrackPointExtension>
        </extensions>
      </trkpt>
      <trkpt lat="44.69281204976141452789306640625" lon="6.772623024880886077880859375">
        <ele>2045.800048828125</ele>
        <time>2026-09-03T07:27:01.000Z</time>
        <extensions>
          <ns3:TrackPointExtension>
            <ns3:hr>161</ns3:hr>
            <ns3:cad>76</ns3:cad>
          </ns3:TrackPointExtension>
        </extensions>
      </trkpt>
      <trkpt lat="44.6928017400205135345458984375" lon="6.77264071069657802581787109375">
        <ele>2046</ele>
        <time>2026-09-03T07:27:02.000Z</time>
        <extensions>
          <ns3:TrackPointExtension>
            <ns3:hr>161</ns3:hr>
            <ns3:cad>76</ns3:cad>
          </ns3:TrackPointExtension>
        </extensions>
      </trkpt>
      <trkpt lat="44.6927973814308643341064453125" lon="6.772640459239482879638671875">
        <ele>2046.199951171875</ele>
        <time>2026-09-03T07:27:03.000Z</time>
        <extensions>
          <ns3:TrackPointExtension>
            <ns3:hr>161</ns3:hr>
            <ns3:cad>76</ns3:cad>
          </ns3:TrackPointExtension>
        </extensions>
      </trkpt>
      <trkpt lat="44.6927893348038196563720703125" lon="6.77264750003814697265625">
        <ele>2046.4000244140625</ele>
        <time>2026-09-03T07:27:04.000Z</time>
        <extensions>
          <ns3:TrackPointExtension>
            <ns3:hr>162</ns3:hr>
            <ns3:cad>0</ns3:cad>
          </ns3:TrackPointExtension>
        </extensions>
      </trkpt>
      <trkpt lat="44.69278204254806041717529296875" lon="6.77266065962612628936767578125">
        <ele>2046.5999755859375</ele>
        <time>2026-09-03T07:27:05.000Z</time>
        <extensions>
          <ns3:TrackPointExtension>
            <ns3:hr>161</ns3:hr>
            <ns3:cad>0</ns3:cad>
          </ns3:TrackPointExtension>
        </extensions>
      </trkpt>
      <trkpt lat="44.69276930205523967742919921875" lon="6.77267138846218585968017578125">
        <ele>2046.800048828125</ele>
        <time>2026-09-03T07:27:06.000Z</time>
        <extensions>
          <ns3:TrackPointExtension>
            <ns3:hr>161</ns3:hr>
            <ns3:cad>0</ns3:cad>
          </ns3:TrackPointExtension>
        </extensions>
      </trkpt>
      <trkpt lat="44.6927605010569095611572265625" lon="6.77268044091761112213134765625">
        <ele>2047</ele>
        <time>2026-09-03T07:27:07.000Z</time>
        <extensions>
          <ns3:TrackPointExtension>
            <ns3:hr>161</ns3:hr>
            <ns3:cad>0</ns3:cad>
          </ns3:TrackPointExtension>
        </extensions>
      </trkpt>
      <trkpt lat="44.6927531249821186065673828125" lon="6.77268840372562408447265625">
        <ele>2047.199951171875</ele>
        <time>2026-09-03T07:27:08.000Z</time>
        <extensions>
          <ns3:TrackPointExtension>
            <ns3:hr>161</ns3:hr>
            <ns3:cad>0</ns3:cad>
          </ns3:TrackPointExtension>
        </extensions>
      </trkpt>
      <trkpt lat="44.69274616800248622894287109375" lon="6.7726956121623516082763671875">
        <ele>2047.4000244140625</ele>
        <time>2026-09-03T07:27:09.000Z</time>
        <extensions>
          <ns3:TrackPointExtension>
            <ns3:hr>162</ns3:hr>
            <ns3:cad>0</ns3:cad>
          </ns3:TrackPointExtension>
        </extensions>
      </trkpt>
      <trkpt lat="44.6927410550415515899658203125" lon="6.77269938401877880096435546875">
        <ele>2047.5999755859375</ele>
        <time>2026-09-03T07:27:10.000Z</time>
        <extensions>
          <ns3:TrackPointExtension>
            <ns3:hr>162</ns3:hr>
            <ns3:cad>0</ns3:cad>
          </ns3:TrackPointExtension>
        </extensions>
      </trkpt>
      <trkpt lat="44.69273619353771209716796875" lon="6.77270424552261829376220703125">
        <ele>2047.800048828125</ele>
        <time>2026-09-03T07:27:11.000Z</time>
        <extensions>
          <ns3:TrackPointExtension>
            <ns3:hr>162</ns3:hr>
            <ns3:cad>0</ns3:cad>
          </ns3:TrackPointExtension>
        </extensions>
      </trkpt>
      <trkpt lat="44.69272906892001628875732421875" lon="6.77270759828388690948486328125">
        <ele>2047.800048828125</ele>
        <time>2026-09-03T07:27:12.000Z</time>
        <extensions>
          <ns3:TrackPointExtension>
            <ns3:hr>161</ns3:hr>
            <ns3:cad>0</ns3:cad>
          </ns3:TrackPointExtension>
        </extensions>
      </trkpt>
      <trkpt lat="44.69272051937878131866455078125" lon="6.77271187305450439453125">
        <ele>2048</ele>
        <time>2026-09-03T07:27:13.000Z</time>
        <extensions>
          <ns3:TrackPointExtension>
            <ns3:hr>162</ns3:hr>
            <ns3:cad>0</ns3:cad>
          </ns3:TrackPointExtension>
        </extensions>
      </trkpt>
      <trkpt lat="44.69271951355040073394775390625" lon="6.7727093584835529327392578125">
        <ele>2048.199951171875</ele>
        <time>2026-09-03T07:27:14.000Z</time>
        <extensions>
          <ns3:TrackPointExtension>
            <ns3:hr>162</ns3:hr>
            <ns3:cad>0</ns3:cad>
          </ns3:TrackPointExtension>
        </extensions>
      </trkpt>
      <trkpt lat="44.692718423902988433837890625" lon="6.77271447144448757171630859375">
        <ele>2048.39990234375</ele>
        <time>2026-09-03T07:27:15.000Z</time>
        <extensions>
          <ns3:TrackPointExtension>
            <ns3:hr>163</ns3:hr>
            <ns3:cad>0</ns3:cad>
          </ns3:TrackPointExtension>
        </extensions>
      </trkpt>
      <trkpt lat="44.69271733425557613372802734375" lon="6.77271790802478790283203125">
        <ele>2048.60009765625</ele>
        <time>2026-09-03T07:27:16.000Z</time>
        <extensions>
          <ns3:TrackPointExtension>
            <ns3:hr>163</ns3:hr>
            <ns3:cad>0</ns3:cad>
          </ns3:TrackPointExtension>
        </extensions>
      </trkpt>
      <trkpt lat="44.6927081979811191558837890625" lon="6.7727224342525005340576171875">
        <ele>2048.800048828125</ele>
        <time>2026-09-03T07:27:17.000Z</time>
        <extensions>
          <ns3:TrackPointExtension>
            <ns3:hr>163</ns3:hr>
            <ns3:cad>0</ns3:cad>
          </ns3:TrackPointExtension>
        </extensions>
      </trkpt>
      <trkpt lat="44.6927033364772796630859375" lon="6.7727288044989109039306640625">
        <ele>2049</ele>
        <time>2026-09-03T07:27:18.000Z</time>
        <extensions>
          <ns3:TrackPointExtension>
            <ns3:hr>163</ns3:hr>
            <ns3:cad>0</ns3:cad>
          </ns3:TrackPointExtension>
        </extensions>
      </trkpt>
      <trkpt lat="44.692696630954742431640625" lon="6.77273626439273357391357421875">
        <ele>2049.199951171875</ele>
        <time>2026-09-03T07:27:19.000Z</time>
        <extensions>
          <ns3:TrackPointExtension>
            <ns3:hr>164</ns3:hr>
            <ns3:cad>0</ns3:cad>
          </ns3:TrackPointExtension>
        </extensions>
      </trkpt>
      <trkpt lat="44.692686237394809722900390625" lon="6.7727455683052539825439453125">
        <ele>2049.39990234375</ele>
        <time>2026-09-03T07:27:20.000Z</time>
        <extensions>
          <ns3:TrackPointExtension>
            <ns3:hr>164</ns3:hr>
            <ns3:cad>0</ns3:cad>
          </ns3:TrackPointExtension>
        </extensions>
      </trkpt>
      <trkpt lat="44.692674167454242706298828125" lon="6.7727526091039180755615234375">
        <ele>2049.60009765625</ele>
        <time>2026-09-03T07:27:21.000Z</time>
        <extensions>
          <ns3:TrackPointExtension>
            <ns3:hr>165</ns3:hr>
            <ns3:cad>0</ns3:cad>
          </ns3:TrackPointExtension>
        </extensions>
      </trkpt>
      <trkpt lat="44.692664444446563720703125" lon="6.77276258356869220733642578125">
        <ele>2049.800048828125</ele>
        <time>2026-09-03T07:27:22.000Z</time>
        <extensions>
          <ns3:TrackPointExtension>
            <ns3:hr>165</ns3:hr>
            <ns3:cad>0</ns3:cad>
          </ns3:TrackPointExtension>
        </extensions>
      </trkpt>
      <trkpt lat="44.69265036284923553466796875" lon="6.77277364768087863922119140625">
        <ele>2050</ele>
        <time>2026-09-03T07:27:23.000Z</time>
        <extensions>
          <ns3:TrackPointExtension>
            <ns3:hr>165</ns3:hr>
            <ns3:cad>0</ns3:cad>
          </ns3:TrackPointExtension>
        </extensions>
      </trkpt>
      <trkpt lat="44.6926434896886348724365234375" lon="6.77277951501309871673583984375">
        <ele>2050</ele>
        <time>2026-09-03T07:27:24.000Z</time>
        <extensions>
          <ns3:TrackPointExtension>
            <ns3:hr>165</ns3:hr>
            <ns3:cad>0</ns3:cad>
          </ns3:TrackPointExtension>
        </extensions>
      </trkpt>
      <trkpt lat="44.6926381252706050872802734375" lon="6.7727856338024139404296875">
        <ele>2050.199951171875</ele>
        <time>2026-09-03T07:27:25.000Z</time>
        <extensions>
          <ns3:TrackPointExtension>
            <ns3:hr>166</ns3:hr>
            <ns3:cad>0</ns3:cad>
          </ns3:TrackPointExtension>
        </extensions>
      </trkpt>
      <trkpt lat="44.69263452105224132537841796875" lon="6.77279493771493434906005859375">
        <ele>2050.39990234375</ele>
        <time>2026-09-03T07:27:26.000Z</time>
        <extensions>
          <ns3:TrackPointExtension>
            <ns3:hr>165</ns3:hr>
            <ns3:cad>0</ns3:cad>
          </ns3:TrackPointExtension>
        </extensions>
      </trkpt>
      <trkpt lat="44.6926282346248626708984375" lon="6.77280784584581851959228515625">
        <ele>2050.39990234375</ele>
        <time>2026-09-03T07:27:27.000Z</time>
        <extensions>
          <ns3:TrackPointExtension>
            <ns3:hr>165</ns3:hr>
            <ns3:cad>0</ns3:cad>
          </ns3:TrackPointExtension>
        </extensions>
      </trkpt>
      <trkpt lat="44.69261591322720050811767578125" lon="6.7728216759860515594482421875">
        <ele>2050.60009765625</ele>
        <time>2026-09-03T07:27:28.000Z</time>
        <extensions>
          <ns3:TrackPointExtension>
            <ns3:hr>165</ns3:hr>
            <ns3:cad>0</ns3:cad>
          </ns3:TrackPointExtension>
        </extensions>
      </trkpt>
      <trkpt lat="44.6926094591617584228515625" lon="6.77280968986451625823974609375">
        <ele>2050.800048828125</ele>
        <time>2026-09-03T07:27:29.000Z</time>
        <extensions>
          <ns3:TrackPointExtension>
            <ns3:hr>165</ns3:hr>
            <ns3:cad>0</ns3:cad>
          </ns3:TrackPointExtension>
        </extensions>
      </trkpt>
      <trkpt lat="44.69260769896209239959716796875" lon="6.772800385951995849609375">
        <ele>2051</ele>
        <time>2026-09-03T07:27:30.000Z</time>
        <extensions>
          <ns3:TrackPointExtension>
            <ns3:hr>165</ns3:hr>
            <ns3:cad>0</ns3:cad>
          </ns3:TrackPointExtension>
        </extensions>
      </trkpt>
      <trkpt lat="44.6926042623817920684814453125" lon="6.7727925069630146026611328125">
        <ele>2051.199951171875</ele>
        <time>2026-09-03T07:27:31.000Z</time>
        <extensions>
          <ns3:TrackPointExtension>
            <ns3:hr>165</ns3:hr>
            <ns3:cad>0</ns3:cad>
          </ns3:TrackPointExtension>
        </extensions>
      </trkpt>
      <trkpt lat="44.69259864650666713714599609375" lon="6.7727750726044178009033203125">
        <ele>2051.199951171875</ele>
        <time>2026-09-03T07:27:32.000Z</time>
        <extensions>
          <ns3:TrackPointExtension>
            <ns3:hr>166</ns3:hr>
            <ns3:cad>0</ns3:cad>
          </ns3:TrackPointExtension>
        </extensions>
      </trkpt>
      <trkpt lat="44.6925942040979862213134765625" lon="6.77275621332228183746337890625">
        <ele>2051.39990234375</ele>
        <time>2026-09-03T07:27:33.000Z</time>
        <extensions>
          <ns3:TrackPointExtension>
            <ns3:hr>165</ns3:hr>
            <ns3:cad>0</ns3:cad>
          </ns3:TrackPointExtension>
        </extensions>
      </trkpt>
      <trkpt lat="44.692586995661258697509765625" lon="6.7727365158498287200927734375">
        <ele>2051.39990234375</ele>
        <time>2026-09-03T07:27:34.000Z</time>
        <extensions>
          <ns3:TrackPointExtension>
            <ns3:hr>165</ns3:hr>
            <ns3:cad>0</ns3:cad>
          </ns3:TrackPointExtension>
        </extensions>
      </trkpt>
      <trkpt lat="44.6925797872245311737060546875" lon="6.7727210931479930877685546875">
        <ele>2051.39990234375</ele>
        <time>2026-09-03T07:27:35.000Z</time>
        <extensions>
          <ns3:TrackPointExtension>
            <ns3:hr>165</ns3:hr>
            <ns3:cad>0</ns3:cad>
          </ns3:TrackPointExtension>
        </extensions>
      </trkpt>
      <trkpt lat="44.692576266825199127197265625" lon="6.77271463908255100250244140625">
        <ele>2051.39990234375</ele>
        <time>2026-09-03T07:27:36.000Z</time>
        <extensions>
          <ns3:TrackPointExtension>
            <ns3:hr>166</ns3:hr>
            <ns3:cad>63</ns3:cad>
          </ns3:TrackPointExtension>
        </extensions>
      </trkpt>
      <trkpt lat="44.6925720758736133575439453125" lon="6.7727078497409820556640625">
        <ele>2051.39990234375</ele>
        <time>2026-09-03T07:27:37.000Z</time>
        <extensions>
          <ns3:TrackPointExtension>
            <ns3:hr>166</ns3:hr>
            <ns3:cad>63</ns3:cad>
          </ns3:TrackPointExtension>
        </extensions>
      </trkpt>
      <trkpt lat="44.69256696291267871856689453125" lon="6.772706173360347747802734375">
        <ele>2051.60009765625</ele>
        <time>2026-09-03T07:27:38.000Z</time>
        <extensions>
          <ns3:TrackPointExtension>
            <ns3:hr>166</ns3:hr>
            <ns3:cad>63</ns3:cad>
          </ns3:TrackPointExtension>
        </extensions>
      </trkpt>
      <trkpt lat="44.69256226904690265655517578125" lon="6.772706173360347747802734375">
        <ele>2051.60009765625</ele>
        <time>2026-09-03T07:27:39.000Z</time>
        <extensions>
          <ns3:TrackPointExtension>
            <ns3:hr>167</ns3:hr>
            <ns3:cad>63</ns3:cad>
          </ns3:TrackPointExtension>
        </extensions>
      </trkpt>
      <trkpt lat="44.6925590001046657562255859375" lon="6.77271463908255100250244140625">
        <ele>2051.800048828125</ele>
        <time>2026-09-03T07:27:40.000Z</time>
        <extensions>
          <ns3:TrackPointExtension>
            <ns3:hr>167</ns3:hr>
            <ns3:cad>63</ns3:cad>
          </ns3:TrackPointExtension>
        </extensions>
      </trkpt>
      <trkpt lat="44.69255522824823856353759765625" lon="6.77272167988121509552001953125">
        <ele>2052.199951171875</ele>
        <time>2026-09-03T07:27:41.000Z</time>
        <extensions>
          <ns3:TrackPointExtension>
            <ns3:hr>167</ns3:hr>
            <ns3:cad>63</ns3:cad>
          </ns3:TrackPointExtension>
        </extensions>
      </trkpt>
      <trkpt lat="44.69255137257277965545654296875" lon="6.77273257635533809661865234375">
        <ele>2052.39990234375</ele>
        <time>2026-09-03T07:27:42.000Z</time>
        <extensions>
          <ns3:TrackPointExtension>
            <ns3:hr>168</ns3:hr>
            <ns3:cad>63</ns3:cad>
          </ns3:TrackPointExtension>
        </extensions>
      </trkpt>
      <trkpt lat="44.69254684634506702423095703125" lon="6.77274883724749088287353515625">
        <ele>2052.60009765625</ele>
        <time>2026-09-03T07:27:43.000Z</time>
        <extensions>
          <ns3:TrackPointExtension>
            <ns3:hr>167</ns3:hr>
            <ns3:cad>63</ns3:cad>
          </ns3:TrackPointExtension>
        </extensions>
      </trkpt>
      <trkpt lat="44.6925408951938152313232421875" lon="6.77276208065450191497802734375">
        <ele>2052.800048828125</ele>
        <time>2026-09-03T07:27:44.000Z</time>
        <extensions>
          <ns3:TrackPointExtension>
            <ns3:hr>167</ns3:hr>
            <ns3:cad>0</ns3:cad>
          </ns3:TrackPointExtension>
        </extensions>
      </trkpt>
      <trkpt lat="44.6925343573093414306640625" lon="6.77277197130024433135986328125">
        <ele>2053</ele>
        <time>2026-09-03T07:27:45.000Z</time>
        <extensions>
          <ns3:TrackPointExtension>
            <ns3:hr>166</ns3:hr>
            <ns3:cad>0</ns3:cad>
          </ns3:TrackPointExtension>
        </extensions>
      </trkpt>
      <trkpt lat="44.69253041781485080718994140625" lon="6.77278052084147930145263671875">
        <ele>2053</ele>
        <time>2026-09-03T07:27:46.000Z</time>
        <extensions>
          <ns3:TrackPointExtension>
            <ns3:hr>166</ns3:hr>
            <ns3:cad>0</ns3:cad>
          </ns3:TrackPointExtension>
        </extensions>
      </trkpt>
      <trkpt lat="44.692523963749408721923828125" lon="6.77279158495366573333740234375">
        <ele>2053.199951171875</ele>
        <time>2026-09-03T07:27:47.000Z</time>
        <extensions>
          <ns3:TrackPointExtension>
            <ns3:hr>166</ns3:hr>
            <ns3:cad>0</ns3:cad>
          </ns3:TrackPointExtension>
        </extensions>
      </trkpt>
      <trkpt lat="44.692521952092647552490234375" lon="6.7728025652468204498291015625">
        <ele>2053.199951171875</ele>
        <time>2026-09-03T07:27:48.000Z</time>
        <extensions>
          <ns3:TrackPointExtension>
            <ns3:hr>166</ns3:hr>
            <ns3:cad>0</ns3:cad>
          </ns3:TrackPointExtension>
        </extensions>
      </trkpt>
      <trkpt lat="44.6925164200365543365478515625" lon="6.7728203348815441131591796875">
        <ele>2053.39990234375</ele>
        <time>2026-09-03T07:27:49.000Z</time>
        <extensions>
          <ns3:TrackPointExtension>
            <ns3:hr>166</ns3:hr>
            <ns3:cad>0</ns3:cad>
          </ns3:TrackPointExtension>
        </extensions>
      </trkpt>
      <trkpt lat="44.6925127319991588592529296875" lon="6.77283299155533313751220703125">
        <ele>2053.39990234375</ele>
        <time>2026-09-03T07:27:50.000Z</time>
        <extensions>
          <ns3:TrackPointExtension>
            <ns3:hr>165</ns3:hr>
            <ns3:cad>55</ns3:cad>
          </ns3:TrackPointExtension>
        </extensions>
      </trkpt>
      <trkpt lat="44.6925066970288753509521484375" lon="6.77285193465650081634521484375">
        <ele>2053.60009765625</ele>
        <time>2026-09-03T07:27:51.000Z</time>
        <extensions>
          <ns3:TrackPointExtension>
            <ns3:hr>165</ns3:hr>
            <ns3:cad>55</ns3:cad>
          </ns3:TrackPointExtension>
        </extensions>
      </trkpt>
      <trkpt lat="44.692499153316020965576171875" lon="6.7728634178638458251953125">
        <ele>2053.60009765625</ele>
        <time>2026-09-03T07:27:52.000Z</time>
        <extensions>
          <ns3:TrackPointExtension>
            <ns3:hr>165</ns3:hr>
            <ns3:cad>55</ns3:cad>
          </ns3:TrackPointExtension>
        </extensions>
      </trkpt>
      <trkpt lat="44.692489765584468841552734375" lon="6.77287858910858631134033203125">
        <ele>2053.60009765625</ele>
        <time>2026-09-03T07:27:53.000Z</time>
        <extensions>
          <ns3:TrackPointExtension>
            <ns3:hr>166</ns3:hr>
            <ns3:cad>55</ns3:cad>
          </ns3:TrackPointExtension>
        </extensions>
      </trkpt>
      <trkpt lat="44.69248062931001186370849609375" lon="6.77288898266851902008056640625">
        <ele>2053.800048828125</ele>
        <time>2026-09-03T07:27:54.000Z</time>
        <extensions>
          <ns3:TrackPointExtension>
            <ns3:hr>166</ns3:hr>
            <ns3:cad>55</ns3:cad>
          </ns3:TrackPointExtension>
        </extensions>
      </trkpt>
      <trkpt lat="44.69247065484523773193359375" lon="6.7728947661817073822021484375">
        <ele>2053.800048828125</ele>
        <time>2026-09-03T07:27:55.000Z</time>
        <extensions>
          <ns3:TrackPointExtension>
            <ns3:hr>166</ns3:hr>
            <ns3:cad>55</ns3:cad>
          </ns3:TrackPointExtension>
        </extensions>
      </trkpt>
      <trkpt lat="44.69246235676109790802001953125" lon="6.77290138788521289825439453125">
        <ele>2054</ele>
        <time>2026-09-03T07:27:56.000Z</time>
        <extensions>
          <ns3:TrackPointExtension>
            <ns3:hr>167</ns3:hr>
            <ns3:cad>55</ns3:cad>
          </ns3:TrackPointExtension>
        </extensions>
      </trkpt>
      <trkpt lat="44.692456908524036407470703125" lon="6.77290390245616436004638671875">
        <ele>2054.199951171875</ele>
        <time>2026-09-03T07:27:57.000Z</time>
        <extensions>
          <ns3:TrackPointExtension>
            <ns3:hr>167</ns3:hr>
            <ns3:cad>0</ns3:cad>
          </ns3:TrackPointExtension>
        </extensions>
      </trkpt>
      <trkpt lat="44.69244509004056453704833984375" lon="6.7729063332080841064453125">
        <ele>2054.39990234375</ele>
        <time>2026-09-03T07:27:58.000Z</time>
        <extensions>
          <ns3:TrackPointExtension>
            <ns3:hr>167</ns3:hr>
            <ns3:cad>0</ns3:cad>
          </ns3:TrackPointExtension>
        </extensions>
      </trkpt>
      <trkpt lat="44.692435450851917266845703125" lon="6.77290256135165691375732421875">
        <ele>2054.60009765625</ele>
        <time>2026-09-03T07:27:59.000Z</time>
        <extensions>
          <ns3:TrackPointExtension>
            <ns3:hr>167</ns3:hr>
            <ns3:cad>0</ns3:cad>
          </ns3:TrackPointExtension>
        </extensions>
      </trkpt>
      <trkpt lat="44.692420028150081634521484375" lon="6.77290205843746662139892578125">
        <ele>2054.800048828125</ele>
        <time>2026-09-03T07:28:00.000Z</time>
        <extensions>
          <ns3:TrackPointExtension>
            <ns3:hr>166</ns3:hr>
            <ns3:cad>0</ns3:cad>
          </ns3:TrackPointExtension>
        </extensions>
      </trkpt>
      <trkpt lat="44.69240720383822917938232421875" lon="6.7728984542191028594970703125">
        <ele>2055</ele>
        <time>2026-09-03T07:28:01.000Z</time>
        <extensions>
          <ns3:TrackPointExtension>
            <ns3:hr>166</ns3:hr>
            <ns3:cad>0</ns3:cad>
          </ns3:TrackPointExtension>
        </extensions>
      </trkpt>
      <trkpt lat="44.69239328987896442413330078125" lon="6.772891581058502197265625">
        <ele>2055.199951171875</ele>
        <time>2026-09-03T07:28:02.000Z</time>
        <extensions>
          <ns3:TrackPointExtension>
            <ns3:hr>166</ns3:hr>
            <ns3:cad>0</ns3:cad>
          </ns3:TrackPointExtension>
        </extensions>
      </trkpt>
      <trkpt lat="44.692382477223873138427734375" lon="6.77288822829723358154296875">
        <ele>2055.199951171875</ele>
        <time>2026-09-03T07:28:03.000Z</time>
        <extensions>
          <ns3:TrackPointExtension>
            <ns3:hr>166</ns3:hr>
            <ns3:cad>0</ns3:cad>
          </ns3:TrackPointExtension>
        </extensions>
      </trkpt>
      <trkpt lat="44.6923732571303844451904296875" lon="6.77288630045950412750244140625">
        <ele>2055.39990234375</ele>
        <time>2026-09-03T07:28:04.000Z</time>
        <extensions>
          <ns3:TrackPointExtension>
            <ns3:hr>165</ns3:hr>
            <ns3:cad>0</ns3:cad>
          </ns3:TrackPointExtension>
        </extensions>
      </trkpt>
      <trkpt lat="44.69236345030367374420166015625" lon="6.7728873901069164276123046875">
        <ele>2055.800048828125</ele>
        <time>2026-09-03T07:28:05.000Z</time>
        <extensions>
          <ns3:TrackPointExtension>
            <ns3:hr>165</ns3:hr>
            <ns3:cad>0</ns3:cad>
          </ns3:TrackPointExtension>
        </extensions>
      </trkpt>
      <trkpt lat="44.69235640950500965118408203125" lon="6.77287993021309375762939453125">
        <ele>2056</ele>
        <time>2026-09-03T07:28:06.000Z</time>
        <extensions>
          <ns3:TrackPointExtension>
            <ns3:hr>165</ns3:hr>
            <ns3:cad>0</ns3:cad>
          </ns3:TrackPointExtension>
        </extensions>
      </trkpt>
      <trkpt lat="44.69234316609799861907958984375" lon="6.77286668680608272552490234375">
        <ele>2056.199951171875</ele>
        <time>2026-09-03T07:28:07.000Z</time>
        <extensions>
          <ns3:TrackPointExtension>
            <ns3:hr>165</ns3:hr>
            <ns3:cad>0</ns3:cad>
          </ns3:TrackPointExtension>
        </extensions>
      </trkpt>
      <trkpt lat="44.69233579002320766448974609375" lon="6.77286283113062381744384765625">
        <ele>2056.39990234375</ele>
        <time>2026-09-03T07:28:08.000Z</time>
        <extensions>
          <ns3:TrackPointExtension>
            <ns3:hr>165</ns3:hr>
            <ns3:cad>0</ns3:cad>
          </ns3:TrackPointExtension>
        </extensions>
      </trkpt>
      <trkpt lat="44.6923278272151947021484375" lon="6.77285042591392993927001953125">
        <ele>2056.60009765625</ele>
        <time>2026-09-03T07:28:09.000Z</time>
        <extensions>
          <ns3:TrackPointExtension>
            <ns3:hr>165</ns3:hr>
            <ns3:cad>0</ns3:cad>
          </ns3:TrackPointExtension>
        </extensions>
      </trkpt>
      <trkpt lat="44.6923186071217060089111328125" lon="6.77284288220107555389404296875">
        <ele>2056.800048828125</ele>
        <time>2026-09-03T07:28:10.000Z</time>
        <extensions>
          <ns3:TrackPointExtension>
            <ns3:hr>164</ns3:hr>
            <ns3:cad>0</ns3:cad>
          </ns3:TrackPointExtension>
        </extensions>
      </trkpt>
      <trkpt lat="44.69231030903756618499755859375" lon="6.77283458411693572998046875">
        <ele>2056.800048828125</ele>
        <time>2026-09-03T07:28:11.000Z</time>
        <extensions>
          <ns3:TrackPointExtension>
            <ns3:hr>164</ns3:hr>
            <ns3:cad>0</ns3:cad>
          </ns3:TrackPointExtension>
        </extensions>
      </trkpt>
      <trkpt lat="44.69230293296277523040771484375" lon="6.77283047698438167572021484375">
        <ele>2057</ele>
        <time>2026-09-03T07:28:12.000Z</time>
        <extensions>
          <ns3:TrackPointExtension>
            <ns3:hr>164</ns3:hr>
            <ns3:cad>0</ns3:cad>
          </ns3:TrackPointExtension>
        </extensions>
      </trkpt>
      <trkpt lat="44.69229438342154026031494140625" lon="6.7728183232247829437255859375">
        <ele>2057.199951171875</ele>
        <time>2026-09-03T07:28:13.000Z</time>
        <extensions>
          <ns3:TrackPointExtension>
            <ns3:hr>163</ns3:hr>
            <ns3:cad>0</ns3:cad>
          </ns3:TrackPointExtension>
        </extensions>
      </trkpt>
      <trkpt lat="44.6922880969941616058349609375" lon="6.7728070914745330810546875">
        <ele>2057.39990234375</ele>
        <time>2026-09-03T07:28:14.000Z</time>
        <extensions>
          <ns3:TrackPointExtension>
            <ns3:hr>163</ns3:hr>
            <ns3:cad>0</ns3:cad>
          </ns3:TrackPointExtension>
        </extensions>
      </trkpt>
      <trkpt lat="44.6922827325761318206787109375" lon="6.77279996685683727264404296875">
        <ele>2057.39990234375</ele>
        <time>2026-09-03T07:28:15.000Z</time>
        <extensions>
          <ns3:TrackPointExtension>
            <ns3:hr>163</ns3:hr>
            <ns3:cad>0</ns3:cad>
          </ns3:TrackPointExtension>
        </extensions>
      </trkpt>
      <trkpt lat="44.69226907007396221160888671875" lon="6.7727894894778728485107421875">
        <ele>2057.60009765625</ele>
        <time>2026-09-03T07:28:16.000Z</time>
        <extensions>
          <ns3:TrackPointExtension>
            <ns3:hr>162</ns3:hr>
            <ns3:cad>0</ns3:cad>
          </ns3:TrackPointExtension>
        </extensions>
      </trkpt>
      <trkpt lat="44.6922619454562664031982421875" lon="6.7727858014404773712158203125">
        <ele>2057.800048828125</ele>
        <time>2026-09-03T07:28:17.000Z</time>
        <extensions>
          <ns3:TrackPointExtension>
            <ns3:hr>162</ns3:hr>
            <ns3:cad>0</ns3:cad>
          </ns3:TrackPointExtension>
        </extensions>
      </trkpt>
      <trkpt lat="44.69224643893539905548095703125" lon="6.772779263556003570556640625">
        <ele>2058</ele>
        <time>2026-09-03T07:28:18.000Z</time>
        <extensions>
          <ns3:TrackPointExtension>
            <ns3:hr>162</ns3:hr>
            <ns3:cad>0</ns3:cad>
          </ns3:TrackPointExtension>
        </extensions>
      </trkpt>
      <trkpt lat="44.69223587773740291595458984375" lon="6.77277616225183010101318359375">
        <ele>2058.199951171875</ele>
        <time>2026-09-03T07:28:19.000Z</time>
        <extensions>
          <ns3:TrackPointExtension>
            <ns3:hr>163</ns3:hr>
            <ns3:cad>0</ns3:cad>
          </ns3:TrackPointExtension>
        </extensions>
      </trkpt>
      <trkpt lat="44.6922227181494235992431640625" lon="6.77277482114732265472412109375">
        <ele>2058.199951171875</ele>
        <time>2026-09-03T07:28:20.000Z</time>
        <extensions>
          <ns3:TrackPointExtension>
            <ns3:hr>162</ns3:hr>
            <ns3:cad>0</ns3:cad>
          </ns3:TrackPointExtension>
        </extensions>
      </trkpt>
      <trkpt lat="44.69221324659883975982666015625" lon="6.77276979200541973114013671875">
        <ele>2058.39990234375</ele>
        <time>2026-09-03T07:28:21.000Z</time>
        <extensions>
          <ns3:TrackPointExtension>
            <ns3:hr>162</ns3:hr>
            <ns3:cad>0</ns3:cad>
          </ns3:TrackPointExtension>
        </extensions>
      </trkpt>
      <trkpt lat="44.692197404801845550537109375" lon="6.7727653495967388153076171875">
        <ele>2058.39990234375</ele>
        <time>2026-09-03T07:28:22.000Z</time>
        <extensions>
          <ns3:TrackPointExtension>
            <ns3:hr>162</ns3:hr>
            <ns3:cad>0</ns3:cad>
          </ns3:TrackPointExtension>
        </extensions>
      </trkpt>
      <trkpt lat="44.69218374229967594146728515625" lon="6.7727641761302947998046875">
        <ele>2058.60009765625</ele>
        <time>2026-09-03T07:28:23.000Z</time>
        <extensions>
          <ns3:TrackPointExtension>
            <ns3:hr>162</ns3:hr>
            <ns3:cad>77</ns3:cad>
          </ns3:TrackPointExtension>
        </extensions>
      </trkpt>
      <trkpt lat="44.69216697849333286285400390625" lon="6.7727609910070896148681640625">
        <ele>2058.60009765625</ele>
        <time>2026-09-03T07:28:24.000Z</time>
        <extensions>
          <ns3:TrackPointExtension>
            <ns3:hr>162</ns3:hr>
            <ns3:cad>77</ns3:cad>
          </ns3:TrackPointExtension>
        </extensions>
      </trkpt>
      <trkpt lat="44.6921529807150363922119140625" lon="6.77275822497904300689697265625">
        <ele>2058.800048828125</ele>
        <time>2026-09-03T07:28:25.000Z</time>
        <extensions>
          <ns3:TrackPointExtension>
            <ns3:hr>162</ns3:hr>
            <ns3:cad>77</ns3:cad>
          </ns3:TrackPointExtension>
        </extensions>
      </trkpt>
      <trkpt lat="44.69213931821286678314208984375" lon="6.772757805883884429931640625">
        <ele>2058.800048828125</ele>
        <time>2026-09-03T07:28:26.000Z</time>
        <extensions>
          <ns3:TrackPointExtension>
            <ns3:hr>161</ns3:hr>
            <ns3:cad>45</ns3:cad>
          </ns3:TrackPointExtension>
        </extensions>
      </trkpt>
      <trkpt lat="44.69212842173874378204345703125" lon="6.77275738678872585296630859375">
        <ele>2059</ele>
        <time>2026-09-03T07:28:27.000Z</time>
        <extensions>
          <ns3:TrackPointExtension>
            <ns3:hr>162</ns3:hr>
            <ns3:cad>45</ns3:cad>
          </ns3:TrackPointExtension>
        </extensions>
      </trkpt>
      <trkpt lat="44.69212071038782596588134765625" lon="6.772771887481212615966796875">
        <ele>2059.199951171875</ele>
        <time>2026-09-03T07:28:28.000Z</time>
        <extensions>
          <ns3:TrackPointExtension>
            <ns3:hr>161</ns3:hr>
            <ns3:cad>45</ns3:cad>
          </ns3:TrackPointExtension>
        </extensions>
      </trkpt>
      <trkpt lat="44.69210713170468807220458984375" lon="6.77277800627052783966064453125">
        <ele>2059.39990234375</ele>
        <time>2026-09-03T07:28:29.000Z</time>
        <extensions>
          <ns3:TrackPointExtension>
            <ns3:hr>161</ns3:hr>
            <ns3:cad>45</ns3:cad>
          </ns3:TrackPointExtension>
        </extensions>
      </trkpt>
      <trkpt lat="44.692099504172801971435546875" lon="6.7727884836494922637939453125">
        <ele>2059.60009765625</ele>
        <time>2026-09-03T07:28:30.000Z</time>
        <extensions>
          <ns3:TrackPointExtension>
            <ns3:hr>160</ns3:hr>
            <ns3:cad>0</ns3:cad>
          </ns3:TrackPointExtension>
        </extensions>
      </trkpt>
      <trkpt lat="44.692096821963787078857421875" lon="6.77280147559940814971923828125">
        <ele>2059.800048828125</ele>
        <time>2026-09-03T07:28:31.000Z</time>
        <extensions>
          <ns3:TrackPointExtension>
            <ns3:hr>160</ns3:hr>
            <ns3:cad>0</ns3:cad>
          </ns3:TrackPointExtension>
        </extensions>
      </trkpt>
      <trkpt lat="44.692094139754772186279296875" lon="6.77281446754932403564453125">
        <ele>2060</ele>
        <time>2026-09-03T07:28:32.000Z</time>
        <extensions>
          <ns3:TrackPointExtension>
            <ns3:hr>160</ns3:hr>
            <ns3:cad>0</ns3:cad>
          </ns3:TrackPointExtension>
        </extensions>
      </trkpt>
      <trkpt lat="44.692090116441249847412109375" lon="6.77282460965216159820556640625">
        <ele>2060.199951171875</ele>
        <time>2026-09-03T07:28:33.000Z</time>
        <extensions>
          <ns3:TrackPointExtension>
            <ns3:hr>160</ns3:hr>
            <ns3:cad>0</ns3:cad>
          </ns3:TrackPointExtension>
        </extensions>
      </trkpt>
      <trkpt lat="44.69208450056612491607666015625" lon="6.77283735014498233795166015625">
        <ele>2060.39990234375</ele>
        <time>2026-09-03T07:28:34.000Z</time>
        <extensions>
          <ns3:TrackPointExtension>
            <ns3:hr>160</ns3:hr>
            <ns3:cad>0</ns3:cad>
          </ns3:TrackPointExtension>
        </extensions>
      </trkpt>
      <trkpt lat="44.69208165071904659271240234375" lon="6.7728438042104244232177734375">
        <ele>2060.39990234375</ele>
        <time>2026-09-03T07:28:35.000Z</time>
        <extensions>
          <ns3:TrackPointExtension>
            <ns3:hr>160</ns3:hr>
            <ns3:cad>0</ns3:cad>
          </ns3:TrackPointExtension>
        </extensions>
      </trkpt>
      <trkpt lat="44.692074693739414215087890625" lon="6.77285243757069110870361328125">
        <ele>2060.60009765625</ele>
        <time>2026-09-03T07:28:36.000Z</time>
        <extensions>
          <ns3:TrackPointExtension>
            <ns3:hr>159</ns3:hr>
            <ns3:cad>0</ns3:cad>
          </ns3:TrackPointExtension>
        </extensions>
      </trkpt>
      <trkpt lat="44.69207234680652618408203125" lon="6.7728525213897228240966796875">
        <ele>2060.800048828125</ele>
        <time>2026-09-03T07:28:37.000Z</time>
        <extensions>
          <ns3:TrackPointExtension>
            <ns3:hr>160</ns3:hr>
            <ns3:cad>0</ns3:cad>
          </ns3:TrackPointExtension>
        </extensions>
      </trkpt>
      <trkpt lat="44.6920664794743061065673828125" lon="6.77286182530224323272705078125">
        <ele>2060.800048828125</ele>
        <time>2026-09-03T07:28:38.000Z</time>
        <extensions>
          <ns3:TrackPointExtension>
            <ns3:hr>160</ns3:hr>
            <ns3:cad>0</ns3:cad>
          </ns3:TrackPointExtension>
        </extensions>
      </trkpt>
      <trkpt lat="44.69206119887530803680419921875" lon="6.77286542952060699462890625">
        <ele>2061</ele>
        <time>2026-09-03T07:28:39.000Z</time>
        <extensions>
          <ns3:TrackPointExtension>
            <ns3:hr>160</ns3:hr>
            <ns3:cad>0</ns3:cad>
          </ns3:TrackPointExtension>
        </extensions>
      </trkpt>
      <trkpt lat="44.69205114059150218963623046875" lon="6.77287473343312740325927734375">
        <ele>2061.199951171875</ele>
        <time>2026-09-03T07:28:40.000Z</time>
        <extensions>
          <ns3:TrackPointExtension>
            <ns3:hr>160</ns3:hr>
            <ns3:cad>0</ns3:cad>
          </ns3:TrackPointExtension>
        </extensions>
      </trkpt>
      <trkpt lat="44.6920450218021869659423828125" lon="6.77288210950791835784912109375">
        <ele>2061.199951171875</ele>
        <time>2026-09-03T07:28:41.000Z</time>
        <extensions>
          <ns3:TrackPointExtension>
            <ns3:hr>160</ns3:hr>
            <ns3:cad>0</ns3:cad>
          </ns3:TrackPointExtension>
        </extensions>
      </trkpt>
      <trkpt lat="44.69203479588031768798828125" lon="6.7728850431740283966064453125">
        <ele>2061.39990234375</ele>
        <time>2026-09-03T07:28:42.000Z</time>
        <extensions>
          <ns3:TrackPointExtension>
            <ns3:hr>161</ns3:hr>
            <ns3:cad>0</ns3:cad>
          </ns3:TrackPointExtension>
        </extensions>
      </trkpt>
      <trkpt lat="44.6920215524733066558837890625" lon="6.77289183251559734344482421875">
        <ele>2061.60009765625</ele>
        <time>2026-09-03T07:28:43.000Z</time>
        <extensions>
          <ns3:TrackPointExtension>
            <ns3:hr>162</ns3:hr>
            <ns3:cad>0</ns3:cad>
          </ns3:TrackPointExtension>
        </extensions>
      </trkpt>
      <trkpt lat="44.6920141763985157012939453125" lon="6.7728954367339611053466796875">
        <ele>2061.800048828125</ele>
        <time>2026-09-03T07:28:44.000Z</time>
        <extensions>
          <ns3:TrackPointExtension>
            <ns3:hr>163</ns3:hr>
            <ns3:cad>0</ns3:cad>
          </ns3:TrackPointExtension>
        </extensions>
      </trkpt>
      <trkpt lat="44.69201040454208850860595703125" lon="6.77290390245616436004638671875">
        <ele>2061.800048828125</ele>
        <time>2026-09-03T07:28:45.000Z</time>
        <extensions>
          <ns3:TrackPointExtension>
            <ns3:hr>164</ns3:hr>
            <ns3:cad>0</ns3:cad>
          </ns3:TrackPointExtension>
        </extensions>
      </trkpt>
      <trkpt lat="44.692001603543758392333984375" lon="6.772913038730621337890625">
        <ele>2061.800048828125</ele>
        <time>2026-09-03T07:28:46.000Z</time>
        <extensions>
          <ns3:TrackPointExtension>
            <ns3:hr>164</ns3:hr>
            <ns3:cad>0</ns3:cad>
          </ns3:TrackPointExtension>
        </extensions>
      </trkpt>
      <trkpt lat="44.69199481420218944549560546875" lon="6.77292351610958576202392578125">
        <ele>2062</ele>
        <time>2026-09-03T07:28:47.000Z</time>
        <extensions>
          <ns3:TrackPointExtension>
            <ns3:hr>164</ns3:hr>
            <ns3:cad>0</ns3:cad>
          </ns3:TrackPointExtension>
        </extensions>
      </trkpt>
      <trkpt lat="44.69198073260486125946044921875" lon="6.77292980253696441650390625">
        <ele>2062.199951171875</ele>
        <time>2026-09-03T07:28:48.000Z</time>
        <extensions>
          <ns3:TrackPointExtension>
            <ns3:hr>165</ns3:hr>
            <ns3:cad>0</ns3:cad>
          </ns3:TrackPointExtension>
        </extensions>
      </trkpt>
      <trkpt lat="44.69196975231170654296875" lon="6.77293826825916767120361328125">
        <ele>2062.199951171875</ele>
        <time>2026-09-03T07:28:49.000Z</time>
        <extensions>
          <ns3:TrackPointExtension>
            <ns3:hr>165</ns3:hr>
            <ns3:cad>0</ns3:cad>
          </ns3:TrackPointExtension>
        </extensions>
      </trkpt>
      <trkpt lat="44.6919603645801544189453125" lon="6.77294899709522724151611328125">
        <ele>2062.39990234375</ele>
        <time>2026-09-03T07:28:50.000Z</time>
        <extensions>
          <ns3:TrackPointExtension>
            <ns3:hr>165</ns3:hr>
            <ns3:cad>0</ns3:cad>
          </ns3:TrackPointExtension>
        </extensions>
      </trkpt>
      <trkpt lat="44.691951312124729156494140625" lon="6.77295486442744731903076171875">
        <ele>2062.39990234375</ele>
        <time>2026-09-03T07:28:51.000Z</time>
        <extensions>
          <ns3:TrackPointExtension>
            <ns3:hr>165</ns3:hr>
            <ns3:cad>0</ns3:cad>
          </ns3:TrackPointExtension>
        </extensions>
      </trkpt>
      <trkpt lat="44.69193865545094013214111328125" lon="6.7729634977877140045166015625">
        <ele>2062.39990234375</ele>
        <time>2026-09-03T07:28:52.000Z</time>
        <extensions>
          <ns3:TrackPointExtension>
            <ns3:hr>165</ns3:hr>
            <ns3:cad>0</ns3:cad>
          </ns3:TrackPointExtension>
        </extensions>
      </trkpt>
      <trkpt lat="44.69193278811872005462646484375" lon="6.7729728855192661285400390625">
        <ele>2062.39990234375</ele>
        <time>2026-09-03T07:28:53.000Z</time>
        <extensions>
          <ns3:TrackPointExtension>
            <ns3:hr>165</ns3:hr>
            <ns3:cad>0</ns3:cad>
          </ns3:TrackPointExtension>
        </extensions>
      </trkpt>
      <trkpt lat="44.691915772855281829833984375" lon="6.77298788912594318389892578125">
        <ele>2062.60009765625</ele>
        <time>2026-09-03T07:28:54.000Z</time>
        <extensions>
          <ns3:TrackPointExtension>
            <ns3:hr>165</ns3:hr>
            <ns3:cad>0</ns3:cad>
          </ns3:TrackPointExtension>
        </extensions>
      </trkpt>
      <trkpt lat="44.6919028647243976593017578125" lon="6.7729990370571613311767578125">
        <ele>2062.60009765625</ele>
        <time>2026-09-03T07:28:55.000Z</time>
        <extensions>
          <ns3:TrackPointExtension>
            <ns3:hr>165</ns3:hr>
            <ns3:cad>0</ns3:cad>
          </ns3:TrackPointExtension>
        </extensions>
      </trkpt>
      <trkpt lat="44.6918881125748157501220703125" lon="6.77301186136901378631591796875">
        <ele>2062.800048828125</ele>
        <time>2026-09-03T07:28:56.000Z</time>
        <extensions>
          <ns3:TrackPointExtension>
            <ns3:hr>166</ns3:hr>
            <ns3:cad>0</ns3:cad>
          </ns3:TrackPointExtension>
        </extensions>
      </trkpt>
      <trkpt lat="44.6918757073581218719482421875" lon="6.77302409894764423370361328125">
        <ele>2063</ele>
        <time>2026-09-03T07:28:57.000Z</time>
        <extensions>
          <ns3:TrackPointExtension>
            <ns3:hr>165</ns3:hr>
            <ns3:cad>0</ns3:cad>
          </ns3:TrackPointExtension>
        </extensions>
      </trkpt>
      <trkpt lat="44.69186590053141117095947265625" lon="6.77303533069789409637451171875">
        <ele>2063.199951171875</ele>
        <time>2026-09-03T07:28:58.000Z</time>
        <extensions>
          <ns3:TrackPointExtension>
            <ns3:hr>166</ns3:hr>
            <ns3:cad>0</ns3:cad>
          </ns3:TrackPointExtension>
        </extensions>
      </trkpt>
      <trkpt lat="44.69185885973274707794189453125" lon="6.77304974757134914398193359375">
        <ele>2063.199951171875</ele>
        <time>2026-09-03T07:28:59.000Z</time>
        <extensions>
          <ns3:TrackPointExtension>
            <ns3:hr>166</ns3:hr>
            <ns3:cad>0</ns3:cad>
          </ns3:TrackPointExtension>
        </extensions>
      </trkpt>
      <trkpt lat="44.69185433350503444671630859375" lon="6.77305460907518863677978515625">
        <ele>2063.39990234375</ele>
        <time>2026-09-03T07:29:00.000Z</time>
        <extensions>
          <ns3:TrackPointExtension>
            <ns3:hr>166</ns3:hr>
            <ns3:cad>0</ns3:cad>
          </ns3:TrackPointExtension>
        </extensions>
      </trkpt>
      <trkpt lat="44.6918495558202266693115234375" lon="6.7730701155960559844970703125">
        <ele>2063.39990234375</ele>
        <time>2026-09-03T07:29:01.000Z</time>
        <extensions>
          <ns3:TrackPointExtension>
            <ns3:hr>166</ns3:hr>
            <ns3:cad>0</ns3:cad>
          </ns3:TrackPointExtension>
        </extensions>
      </trkpt>
      <trkpt lat="44.69184410758316516876220703125" lon="6.77308109588921070098876953125">
        <ele>2063.60009765625</ele>
        <time>2026-09-03T07:29:02.000Z</time>
        <extensions>
          <ns3:TrackPointExtension>
            <ns3:hr>167</ns3:hr>
            <ns3:cad>0</ns3:cad>
          </ns3:TrackPointExtension>
        </extensions>
      </trkpt>
      <trkpt lat="44.69183455221354961395263671875" lon="6.77310070954263210296630859375">
        <ele>2063.60009765625</ele>
        <time>2026-09-03T07:29:03.000Z</time>
        <extensions>
          <ns3:TrackPointExtension>
            <ns3:hr>167</ns3:hr>
            <ns3:cad>0</ns3:cad>
          </ns3:TrackPointExtension>
        </extensions>
      </trkpt>
      <trkpt lat="44.69182902015745639801025390625" lon="6.77311353385448455810546875">
        <ele>2063.60009765625</ele>
        <time>2026-09-03T07:29:04.000Z</time>
        <extensions>
          <ns3:TrackPointExtension>
            <ns3:hr>167</ns3:hr>
            <ns3:cad>0</ns3:cad>
          </ns3:TrackPointExtension>
        </extensions>
      </trkpt>
      <trkpt lat="44.69182080589234828948974609375" lon="6.77312694489955902099609375">
        <ele>2063.60009765625</ele>
        <time>2026-09-03T07:29:05.000Z</time>
        <extensions>
          <ns3:TrackPointExtension>
            <ns3:hr>167</ns3:hr>
            <ns3:cad>0</ns3:cad>
          </ns3:TrackPointExtension>
        </extensions>
      </trkpt>
      <trkpt lat="44.69181292690336704254150390625" lon="6.77314010448753833770751953125">
        <ele>2063.800048828125</ele>
        <time>2026-09-03T07:29:06.000Z</time>
        <extensions>
          <ns3:TrackPointExtension>
            <ns3:hr>167</ns3:hr>
            <ns3:cad>0</ns3:cad>
          </ns3:TrackPointExtension>
        </extensions>
      </trkpt>
      <trkpt lat="44.6918026171624660491943359375" lon="6.77315351553261280059814453125">
        <ele>2063.800048828125</ele>
        <time>2026-09-03T07:29:07.000Z</time>
        <extensions>
          <ns3:TrackPointExtension>
            <ns3:hr>167</ns3:hr>
            <ns3:cad>0</ns3:cad>
          </ns3:TrackPointExtension>
        </extensions>
      </trkpt>
      <trkpt lat="44.6917938999831676483154296875" lon="6.7731696926057338714599609375">
        <ele>2063.800048828125</ele>
        <time>2026-09-03T07:29:08.000Z</time>
        <extensions>
          <ns3:TrackPointExtension>
            <ns3:hr>167</ns3:hr>
            <ns3:cad>0</ns3:cad>
          </ns3:TrackPointExtension>
        </extensions>
      </trkpt>
      <trkpt lat="44.69178526662290096282958984375" lon="6.77317933179438114166259765625">
        <ele>2063.800048828125</ele>
        <time>2026-09-03T07:29:09.000Z</time>
        <extensions>
          <ns3:TrackPointExtension>
            <ns3:hr>167</ns3:hr>
            <ns3:cad>0</ns3:cad>
          </ns3:TrackPointExtension>
        </extensions>
      </trkpt>
      <trkpt lat="44.69177839346230030059814453125" lon="6.7731874622404575347900390625">
        <ele>2064</ele>
        <time>2026-09-03T07:29:10.000Z</time>
        <extensions>
          <ns3:TrackPointExtension>
            <ns3:hr>167</ns3:hr>
            <ns3:cad>0</ns3:cad>
          </ns3:TrackPointExtension>
        </extensions>
      </trkpt>
      <trkpt lat="44.691771604120731353759765625" lon="6.773197688162326812744140625">
        <ele>2064</ele>
        <time>2026-09-03T07:29:11.000Z</time>
        <extensions>
          <ns3:TrackPointExtension>
            <ns3:hr>167</ns3:hr>
            <ns3:cad>0</ns3:cad>
          </ns3:TrackPointExtension>
        </extensions>
      </trkpt>
      <trkpt lat="44.69176481477916240692138671875" lon="6.77321000955998897552490234375">
        <ele>2064</ele>
        <time>2026-09-03T07:29:12.000Z</time>
        <extensions>
          <ns3:TrackPointExtension>
            <ns3:hr>167</ns3:hr>
            <ns3:cad>0</ns3:cad>
          </ns3:TrackPointExtension>
        </extensions>
      </trkpt>
      <trkpt lat="44.69175391830503940582275390625" lon="6.77322618663311004638671875">
        <ele>2064.199951171875</ele>
        <time>2026-09-03T07:29:13.000Z</time>
        <extensions>
          <ns3:TrackPointExtension>
            <ns3:hr>166</ns3:hr>
            <ns3:cad>0</ns3:cad>
          </ns3:TrackPointExtension>
        </extensions>
      </trkpt>
      <trkpt lat="44.6917456202208995819091796875" lon="6.77324538119137287139892578125">
        <ele>2064.199951171875</ele>
        <time>2026-09-03T07:29:14.000Z</time>
        <extensions>
          <ns3:TrackPointExtension>
            <ns3:hr>166</ns3:hr>
            <ns3:cad>0</ns3:cad>
          </ns3:TrackPointExtension>
        </extensions>
      </trkpt>
      <trkpt lat="44.691740088164806365966796875" lon="6.77325795404613018035888671875">
        <ele>2064.199951171875</ele>
        <time>2026-09-03T07:29:15.000Z</time>
        <extensions>
          <ns3:TrackPointExtension>
            <ns3:hr>166</ns3:hr>
            <ns3:cad>0</ns3:cad>
          </ns3:TrackPointExtension>
        </extensions>
      </trkpt>
      <trkpt lat="44.691728688776493072509765625" lon="6.7732736282050609588623046875">
        <ele>2064.199951171875</ele>
        <time>2026-09-03T07:29:16.000Z</time>
        <extensions>
          <ns3:TrackPointExtension>
            <ns3:hr>166</ns3:hr>
            <ns3:cad>0</ns3:cad>
          </ns3:TrackPointExtension>
        </extensions>
      </trkpt>
      <trkpt lat="44.6917231567203998565673828125" lon="6.773284859955310821533203125">
        <ele>2064.199951171875</ele>
        <time>2026-09-03T07:29:17.000Z</time>
        <extensions>
          <ns3:TrackPointExtension>
            <ns3:hr>165</ns3:hr>
            <ns3:cad>0</ns3:cad>
          </ns3:TrackPointExtension>
        </extensions>
      </trkpt>
      <trkpt lat="44.69171955250203609466552734375" lon="6.77330153994262218475341796875">
        <ele>2064.199951171875</ele>
        <time>2026-09-03T07:29:18.000Z</time>
        <extensions>
          <ns3:TrackPointExtension>
            <ns3:hr>164</ns3:hr>
            <ns3:cad>0</ns3:cad>
          </ns3:TrackPointExtension>
        </extensions>
      </trkpt>
      <trkpt lat="44.691715277731418609619140625" lon="6.7733131907880306243896484375">
        <ele>2064.39990234375</ele>
        <time>2026-09-03T07:29:19.000Z</time>
        <extensions>
          <ns3:TrackPointExtension>
            <ns3:hr>163</ns3:hr>
            <ns3:cad>59</ns3:cad>
          </ns3:TrackPointExtension>
        </extensions>
      </trkpt>
      <trkpt lat="44.69171033240854740142822265625" lon="6.77332333289086818695068359375">
        <ele>2064.39990234375</ele>
        <time>2026-09-03T07:29:20.000Z</time>
        <extensions>
          <ns3:TrackPointExtension>
            <ns3:hr>162</ns3:hr>
            <ns3:cad>59</ns3:cad>
          </ns3:TrackPointExtension>
        </extensions>
      </trkpt>
      <trkpt lat="44.69170262105762958526611328125" lon="6.77333691157400608062744140625">
        <ele>2064.39990234375</ele>
        <time>2026-09-03T07:29:21.000Z</time>
        <extensions>
          <ns3:TrackPointExtension>
            <ns3:hr>161</ns3:hr>
            <ns3:cad>59</ns3:cad>
          </ns3:TrackPointExtension>
        </extensions>
      </trkpt>
      <trkpt lat="44.69169708900153636932373046875" lon="6.773347556591033935546875">
        <ele>2064.60009765625</ele>
        <time>2026-09-03T07:29:22.000Z</time>
        <extensions>
          <ns3:TrackPointExtension>
            <ns3:hr>160</ns3:hr>
            <ns3:cad>59</ns3:cad>
          </ns3:TrackPointExtension>
        </extensions>
      </trkpt>
      <trkpt lat="44.69168921001255512237548828125" lon="6.77336029708385467529296875">
        <ele>2064.60009765625</ele>
        <time>2026-09-03T07:29:23.000Z</time>
        <extensions>
          <ns3:TrackPointExtension>
            <ns3:hr>159</ns3:hr>
            <ns3:cad>59</ns3:cad>
          </ns3:TrackPointExtension>
        </extensions>
      </trkpt>
      <trkpt lat="44.69168133102357387542724609375" lon="6.7733718641102313995361328125">
        <ele>2064.60009765625</ele>
        <time>2026-09-03T07:29:24.000Z</time>
        <extensions>
          <ns3:TrackPointExtension>
            <ns3:hr>158</ns3:hr>
            <ns3:cad>57</ns3:cad>
          </ns3:TrackPointExtension>
        </extensions>
      </trkpt>
      <trkpt lat="44.6916760504245758056640625" lon="6.7733866162598133087158203125">
        <ele>2064.800048828125</ele>
        <time>2026-09-03T07:29:25.000Z</time>
        <extensions>
          <ns3:TrackPointExtension>
            <ns3:hr>157</ns3:hr>
            <ns3:cad>57</ns3:cad>
          </ns3:TrackPointExtension>
        </extensions>
      </trkpt>
      <trkpt lat="44.69166808761656284332275390625" lon="6.77339918911457061767578125">
        <ele>2064.800048828125</ele>
        <time>2026-09-03T07:29:26.000Z</time>
        <extensions>
          <ns3:TrackPointExtension>
            <ns3:hr>156</ns3:hr>
            <ns3:cad>57</ns3:cad>
          </ns3:TrackPointExtension>
        </extensions>
      </trkpt>
      <trkpt lat="44.69165953807532787322998046875" lon="6.77341016940772533416748046875">
        <ele>2065</ele>
        <time>2026-09-03T07:29:27.000Z</time>
        <extensions>
          <ns3:TrackPointExtension>
            <ns3:hr>156</ns3:hr>
            <ns3:cad>54</ns3:cad>
          </ns3:TrackPointExtension>
        </extensions>
      </trkpt>
      <trkpt lat="44.69164998270571231842041015625" lon="6.77342039532959461212158203125">
        <ele>2065.199951171875</ele>
        <time>2026-09-03T07:29:28.000Z</time>
        <extensions>
          <ns3:TrackPointExtension>
            <ns3:hr>154</ns3:hr>
            <ns3:cad>54</ns3:cad>
          </ns3:TrackPointExtension>
        </extensions>
      </trkpt>
      <trkpt lat="44.69164009205996990203857421875" lon="6.77343095652759075164794921875">
        <ele>2065.39990234375</ele>
        <time>2026-09-03T07:29:29.000Z</time>
        <extensions>
          <ns3:TrackPointExtension>
            <ns3:hr>154</ns3:hr>
            <ns3:cad>57</ns3:cad>
          </ns3:TrackPointExtension>
        </extensions>
      </trkpt>
      <trkpt lat="44.69163003377616405487060546875" lon="6.7734402604401111602783203125">
        <ele>2065.60009765625</ele>
        <time>2026-09-03T07:29:30.000Z</time>
        <extensions>
          <ns3:TrackPointExtension>
            <ns3:hr>153</ns3:hr>
            <ns3:cad>57</ns3:cad>
          </ns3:TrackPointExtension>
        </extensions>
      </trkpt>
      <trkpt lat="44.69162081368267536163330078125" lon="6.77344738505780696868896484375">
        <ele>2065.800048828125</ele>
        <time>2026-09-03T07:29:31.000Z</time>
        <extensions>
          <ns3:TrackPointExtension>
            <ns3:hr>153</ns3:hr>
            <ns3:cad>57</ns3:cad>
          </ns3:TrackPointExtension>
        </extensions>
      </trkpt>
      <trkpt lat="44.69161058776080608367919921875" lon="6.7734540067613124847412109375">
        <ele>2066</ele>
        <time>2026-09-03T07:29:32.000Z</time>
        <extensions>
          <ns3:TrackPointExtension>
            <ns3:hr>153</ns3:hr>
            <ns3:cad>57</ns3:cad>
          </ns3:TrackPointExtension>
        </extensions>
      </trkpt>
      <trkpt lat="44.69160019420087337493896484375" lon="6.77346297539770603179931640625">
        <ele>2066.199951171875</ele>
        <time>2026-09-03T07:29:33.000Z</time>
        <extensions>
          <ns3:TrackPointExtension>
            <ns3:hr>153</ns3:hr>
            <ns3:cad>57</ns3:cad>
          </ns3:TrackPointExtension>
        </extensions>
      </trkpt>
      <trkpt lat="44.6915923990309238433837890625" lon="6.77347320131957530975341796875">
        <ele>2066.39990234375</ele>
        <time>2026-09-03T07:29:34.000Z</time>
        <extensions>
          <ns3:TrackPointExtension>
            <ns3:hr>152</ns3:hr>
            <ns3:cad>0</ns3:cad>
          </ns3:TrackPointExtension>
        </extensions>
      </trkpt>
      <trkpt lat="44.69158577732741832733154296875" lon="6.7734818346798419952392578125">
        <ele>2066.800048828125</ele>
        <time>2026-09-03T07:29:35.000Z</time>
        <extensions>
          <ns3:TrackPointExtension>
            <ns3:hr>153</ns3:hr>
            <ns3:cad>0</ns3:cad>
          </ns3:TrackPointExtension>
        </extensions>
      </trkpt>
      <trkpt lat="44.6915806643664836883544921875" lon="6.77348409779369831085205078125">
        <ele>2067</ele>
        <time>2026-09-03T07:29:36.000Z</time>
        <extensions>
          <ns3:TrackPointExtension>
            <ns3:hr>153</ns3:hr>
            <ns3:cad>0</ns3:cad>
          </ns3:TrackPointExtension>
        </extensions>
      </trkpt>
      <trkpt lat="44.691579155623912811279296875" lon="6.7734885402023792266845703125">
        <ele>2067.199951171875</ele>
        <time>2026-09-03T07:29:37.000Z</time>
        <extensions>
          <ns3:TrackPointExtension>
            <ns3:hr>152</ns3:hr>
            <ns3:cad>0</ns3:cad>
          </ns3:TrackPointExtension>
        </extensions>
      </trkpt>
      <trkpt lat="44.69157605431973934173583984375" lon="6.77349683828651905059814453125">
        <ele>2067.60009765625</ele>
        <time>2026-09-03T07:29:38.000Z</time>
        <extensions>
          <ns3:TrackPointExtension>
            <ns3:hr>153</ns3:hr>
            <ns3:cad>0</ns3:cad>
          </ns3:TrackPointExtension>
        </extensions>
      </trkpt>
      <trkpt lat="44.6915741264820098876953125" lon="6.77350421436131000518798828125">
        <ele>2067.800048828125</ele>
        <time>2026-09-03T07:29:39.000Z</time>
        <extensions>
          <ns3:TrackPointExtension>
            <ns3:hr>153</ns3:hr>
            <ns3:cad>0</ns3:cad>
          </ns3:TrackPointExtension>
        </extensions>
      </trkpt>
      <trkpt lat="44.691569097340106964111328125" lon="6.77351678721606731414794921875">
        <ele>2068</ele>
        <time>2026-09-03T07:29:40.000Z</time>
        <extensions>
          <ns3:TrackPointExtension>
            <ns3:hr>153</ns3:hr>
            <ns3:cad>0</ns3:cad>
          </ns3:TrackPointExtension>
        </extensions>
      </trkpt>
      <trkpt lat="44.691564403474330902099609375" lon="6.77352835424244403839111328125">
        <ele>2068.199951171875</ele>
        <time>2026-09-03T07:29:41.000Z</time>
        <extensions>
          <ns3:TrackPointExtension>
            <ns3:hr>153</ns3:hr>
            <ns3:cad>0</ns3:cad>
          </ns3:TrackPointExtension>
        </extensions>
      </trkpt>
      <trkpt lat="44.6915628947317600250244140625" lon="6.77353070117533206939697265625">
        <ele>2068.39990234375</ele>
        <time>2026-09-03T07:29:42.000Z</time>
        <extensions>
          <ns3:TrackPointExtension>
            <ns3:hr>154</ns3:hr>
            <ns3:cad>0</ns3:cad>
          </ns3:TrackPointExtension>
        </extensions>
      </trkpt>
      <trkpt lat="44.69155468046665191650390625" lon="6.77354360930621623992919921875">
        <ele>2068.60009765625</ele>
        <time>2026-09-03T07:29:43.000Z</time>
        <extensions>
          <ns3:TrackPointExtension>
            <ns3:hr>154</ns3:hr>
            <ns3:cad>0</ns3:cad>
          </ns3:TrackPointExtension>
        </extensions>
      </trkpt>
      <trkpt lat="44.69155191443860530853271484375" lon="6.7735488899052143096923828125">
        <ele>2068.800048828125</ele>
        <time>2026-09-03T07:29:44.000Z</time>
        <extensions>
          <ns3:TrackPointExtension>
            <ns3:hr>154</ns3:hr>
            <ns3:cad>0</ns3:cad>
          </ns3:TrackPointExtension>
        </extensions>
      </trkpt>
      <trkpt lat="44.69154386781156063079833984375" lon="6.773563139140605926513671875">
        <ele>2069</ele>
        <time>2026-09-03T07:29:45.000Z</time>
        <extensions>
          <ns3:TrackPointExtension>
            <ns3:hr>154</ns3:hr>
            <ns3:cad>0</ns3:cad>
          </ns3:TrackPointExtension>
        </extensions>
      </trkpt>
      <trkpt lat="44.6915414370596408843994140625" lon="6.77357110194861888885498046875">
        <ele>2069.199951171875</ele>
        <time>2026-09-03T07:29:46.000Z</time>
        <extensions>
          <ns3:TrackPointExtension>
            <ns3:hr>154</ns3:hr>
            <ns3:cad>0</ns3:cad>
          </ns3:TrackPointExtension>
        </extensions>
      </trkpt>
      <trkpt lat="44.6915380842983722686767578125" lon="6.77358535118401050567626953125">
        <ele>2069.39990234375</ele>
        <time>2026-09-03T07:29:47.000Z</time>
        <extensions>
          <ns3:TrackPointExtension>
            <ns3:hr>154</ns3:hr>
            <ns3:cad>0</ns3:cad>
          </ns3:TrackPointExtension>
        </extensions>
      </trkpt>
      <trkpt lat="44.691537581384181976318359375" lon="6.77359876222908496856689453125">
        <ele>2069.60009765625</ele>
        <time>2026-09-03T07:29:48.000Z</time>
        <extensions>
          <ns3:TrackPointExtension>
            <ns3:hr>154</ns3:hr>
            <ns3:cad>0</ns3:cad>
          </ns3:TrackPointExtension>
        </extensions>
      </trkpt>
      <trkpt lat="44.6915380842983722686767578125" lon="6.7736112512648105621337890625">
        <ele>2069.800048828125</ele>
        <time>2026-09-03T07:29:49.000Z</time>
        <extensions>
          <ns3:TrackPointExtension>
            <ns3:hr>155</ns3:hr>
            <ns3:cad>0</ns3:cad>
          </ns3:TrackPointExtension>
        </extensions>
      </trkpt>
      <trkpt lat="44.6915354020893573760986328125" lon="6.773626171052455902099609375">
        <ele>2070</ele>
        <time>2026-09-03T07:29:50.000Z</time>
        <extensions>
          <ns3:TrackPointExtension>
            <ns3:hr>154</ns3:hr>
            <ns3:cad>0</ns3:cad>
          </ns3:TrackPointExtension>
        </extensions>
      </trkpt>
      <trkpt lat="44.69153246842324733734130859375" lon="6.77362424321472644805908203125">
        <ele>2070.39990234375</ele>
        <time>2026-09-03T07:29:51.000Z</time>
        <extensions>
          <ns3:TrackPointExtension>
            <ns3:hr>154</ns3:hr>
            <ns3:cad>0</ns3:cad>
          </ns3:TrackPointExtension>
        </extensions>
      </trkpt>
      <trkpt lat="44.6915219910442829132080078125" lon="6.77363748662173748016357421875">
        <ele>2070.60009765625</ele>
        <time>2026-09-03T07:29:52.000Z</time>
        <extensions>
          <ns3:TrackPointExtension>
            <ns3:hr>155</ns3:hr>
            <ns3:cad>0</ns3:cad>
          </ns3:TrackPointExtension>
        </extensions>
      </trkpt>
      <trkpt lat="44.6915189735591411590576171875" lon="6.77364335395395755767822265625">
        <ele>2070.800048828125</ele>
        <time>2026-09-03T07:29:53.000Z</time>
        <extensions>
          <ns3:TrackPointExtension>
            <ns3:hr>154</ns3:hr>
            <ns3:cad>0</ns3:cad>
          </ns3:TrackPointExtension>
        </extensions>
      </trkpt>
      <trkpt lat="44.69151402823626995086669921875" lon="6.77365860901772975921630859375">
        <ele>2071</ele>
        <time>2026-09-03T07:29:54.000Z</time>
        <extensions>
          <ns3:TrackPointExtension>
            <ns3:hr>154</ns3:hr>
            <ns3:cad>0</ns3:cad>
          </ns3:TrackPointExtension>
        </extensions>
      </trkpt>
      <trkpt lat="44.6915092505514621734619140625" lon="6.773664057254791259765625">
        <ele>2071.199951171875</ele>
        <time>2026-09-03T07:29:55.000Z</time>
        <extensions>
          <ns3:TrackPointExtension>
            <ns3:hr>154</ns3:hr>
            <ns3:cad>0</ns3:cad>
          </ns3:TrackPointExtension>
        </extensions>
      </trkpt>
      <trkpt lat="44.69150061719119548797607421875" lon="6.77367470227181911468505859375">
        <ele>2071.39990234375</ele>
        <time>2026-09-03T07:29:56.000Z</time>
        <extensions>
          <ns3:TrackPointExtension>
            <ns3:hr>155</ns3:hr>
            <ns3:cad>0</ns3:cad>
          </ns3:TrackPointExtension>
        </extensions>
      </trkpt>
      <trkpt lat="44.69149508513510227203369140625" lon="6.7736819945275783538818359375">
        <ele>2071.60009765625</ele>
        <time>2026-09-03T07:29:57.000Z</time>
        <extensions>
          <ns3:TrackPointExtension>
            <ns3:hr>154</ns3:hr>
            <ns3:cad>0</ns3:cad>
          </ns3:TrackPointExtension>
        </extensions>
      </trkpt>
      <trkpt lat="44.69148938544094562530517578125" lon="6.773683838546276092529296875">
        <ele>2071.800048828125</ele>
        <time>2026-09-03T07:29:58.000Z</time>
        <extensions>
          <ns3:TrackPointExtension>
            <ns3:hr>155</ns3:hr>
            <ns3:cad>0</ns3:cad>
          </ns3:TrackPointExtension>
        </extensions>
      </trkpt>
      <trkpt lat="44.6914820931851863861083984375" lon="6.7736964114010334014892578125">
        <ele>2072</ele>
        <time>2026-09-03T07:29:59.000Z</time>
        <extensions>
          <ns3:TrackPointExtension>
            <ns3:hr>155</ns3:hr>
            <ns3:cad>0</ns3:cad>
          </ns3:TrackPointExtension>
        </extensions>
      </trkpt>
      <trkpt lat="44.69148167409002780914306640625" lon="6.77369817160069942474365234375">
        <ele>2072.199951171875</ele>
        <time>2026-09-03T07:30:00.000Z</time>
        <extensions>
          <ns3:TrackPointExtension>
            <ns3:hr>155</ns3:hr>
            <ns3:cad>0</ns3:cad>
          </ns3:TrackPointExtension>
        </extensions>
      </trkpt>
      <trkpt lat="44.69147555530071258544921875" lon="6.77370957098901271820068359375">
        <ele>2072.39990234375</ele>
        <time>2026-09-03T07:30:01.000Z</time>
        <extensions>
          <ns3:TrackPointExtension>
            <ns3:hr>155</ns3:hr>
            <ns3:cad>0</ns3:cad>
          </ns3:TrackPointExtension>
        </extensions>
      </trkpt>
      <trkpt lat="44.691473208367824554443359375" lon="6.7737155221402645111083984375">
        <ele>2072.60009765625</ele>
        <time>2026-09-03T07:30:02.000Z</time>
        <extensions>
          <ns3:TrackPointExtension>
            <ns3:hr>156</ns3:hr>
            <ns3:cad>0</ns3:cad>
          </ns3:TrackPointExtension>
        </extensions>
      </trkpt>
      <trkpt lat="44.69147295691072940826416015625" lon="6.77371560595929622650146484375">
        <ele>2072.800048828125</ele>
        <time>2026-09-03T07:30:03.000Z</time>
        <extensions>
          <ns3:TrackPointExtension>
            <ns3:hr>156</ns3:hr>
            <ns3:cad>0</ns3:cad>
          </ns3:TrackPointExtension>
        </extensions>
      </trkpt>
      <trkpt lat="44.6914659999310970306396484375" lon="6.77372910082340240478515625">
        <ele>2073</ele>
        <time>2026-09-03T07:30:04.000Z</time>
        <extensions>
          <ns3:TrackPointExtension>
            <ns3:hr>156</ns3:hr>
            <ns3:cad>0</ns3:cad>
          </ns3:TrackPointExtension>
        </extensions>
      </trkpt>
      <trkpt lat="44.69145602546632289886474609375" lon="6.7737487144768238067626953125">
        <ele>2073.199951171875</ele>
        <time>2026-09-03T07:30:05.000Z</time>
        <extensions>
          <ns3:TrackPointExtension>
            <ns3:hr>156</ns3:hr>
            <ns3:cad>0</ns3:cad>
          </ns3:TrackPointExtension>
        </extensions>
      </trkpt>
      <trkpt lat="44.69145133160054683685302734375" lon="6.77375751547515392303466796875">
        <ele>2073.60009765625</ele>
        <time>2026-09-03T07:30:06.000Z</time>
        <extensions>
          <ns3:TrackPointExtension>
            <ns3:hr>156</ns3:hr>
            <ns3:cad>0</ns3:cad>
          </ns3:TrackPointExtension>
        </extensions>
      </trkpt>
      <trkpt lat="44.6914426982402801513671875" lon="6.773770339787006378173828125">
        <ele>2073.800048828125</ele>
        <time>2026-09-03T07:30:07.000Z</time>
        <extensions>
          <ns3:TrackPointExtension>
            <ns3:hr>156</ns3:hr>
            <ns3:cad>0</ns3:cad>
          </ns3:TrackPointExtension>
        </extensions>
      </trkpt>
      <trkpt lat="44.69144160859286785125732421875" lon="6.7737849242985248565673828125">
        <ele>2074</ele>
        <time>2026-09-03T07:30:08.000Z</time>
        <extensions>
          <ns3:TrackPointExtension>
            <ns3:hr>157</ns3:hr>
            <ns3:cad>0</ns3:cad>
          </ns3:TrackPointExtension>
        </extensions>
      </trkpt>
      <trkpt lat="44.69143741764128208160400390625" lon="6.77379456348717212677001953125">
        <ele>2074.199951171875</ele>
        <time>2026-09-03T07:30:09.000Z</time>
        <extensions>
          <ns3:TrackPointExtension>
            <ns3:hr>157</ns3:hr>
            <ns3:cad>0</ns3:cad>
          </ns3:TrackPointExtension>
        </extensions>
      </trkpt>
      <trkpt lat="44.6914344839751720428466796875" lon="6.77380286157131195068359375">
        <ele>2074.60009765625</ele>
        <time>2026-09-03T07:30:10.000Z</time>
        <extensions>
          <ns3:TrackPointExtension>
            <ns3:hr>157</ns3:hr>
            <ns3:cad>0</ns3:cad>
          </ns3:TrackPointExtension>
        </extensions>
      </trkpt>
      <trkpt lat="44.69143171794712543487548828125" lon="6.77381417714059352874755859375">
        <ele>2074.800048828125</ele>
        <time>2026-09-03T07:30:11.000Z</time>
        <extensions>
          <ns3:TrackPointExtension>
            <ns3:hr>158</ns3:hr>
            <ns3:cad>0</ns3:cad>
          </ns3:TrackPointExtension>
        </extensions>
      </trkpt>
      <trkpt lat="44.69142920337617397308349609375" lon="6.77382322959601879119873046875">
        <ele>2074.800048828125</ele>
        <time>2026-09-03T07:30:12.000Z</time>
        <extensions>
          <ns3:TrackPointExtension>
            <ns3:hr>158</ns3:hr>
            <ns3:cad>52</ns3:cad>
          </ns3:TrackPointExtension>
        </extensions>
      </trkpt>
      <trkpt lat="44.69142601825296878814697265625" lon="6.773832030594348907470703125">
        <ele>2075</ele>
        <time>2026-09-03T07:30:13.000Z</time>
        <extensions>
          <ns3:TrackPointExtension>
            <ns3:hr>159</ns3:hr>
            <ns3:cad>52</ns3:cad>
          </ns3:TrackPointExtension>
        </extensions>
      </trkpt>
      <trkpt lat="44.6914250962436199188232421875" lon="6.77383773028850555419921875">
        <ele>2075.199951171875</ele>
        <time>2026-09-03T07:30:14.000Z</time>
        <extensions>
          <ns3:TrackPointExtension>
            <ns3:hr>159</ns3:hr>
            <ns3:cad>52</ns3:cad>
          </ns3:TrackPointExtension>
        </extensions>
      </trkpt>
      <trkpt lat="44.6914227493107318878173828125" lon="6.77384845912456512451171875">
        <ele>2075.39990234375</ele>
        <time>2026-09-03T07:30:15.000Z</time>
        <extensions>
          <ns3:TrackPointExtension>
            <ns3:hr>159</ns3:hr>
            <ns3:cad>52</ns3:cad>
          </ns3:TrackPointExtension>
        </extensions>
      </trkpt>
      <trkpt lat="44.69141897745430469512939453125" lon="6.77385692484676837921142578125">
        <ele>2075.60009765625</ele>
        <time>2026-09-03T07:30:16.000Z</time>
        <extensions>
          <ns3:TrackPointExtension>
            <ns3:hr>159</ns3:hr>
            <ns3:cad>52</ns3:cad>
          </ns3:TrackPointExtension>
        </extensions>
      </trkpt>
      <trkpt lat="44.6914153732359409332275390625" lon="6.7738653905689716339111328125">
        <ele>2076</ele>
        <time>2026-09-03T07:30:17.000Z</time>
        <extensions>
          <ns3:TrackPointExtension>
            <ns3:hr>160</ns3:hr>
            <ns3:cad>0</ns3:cad>
          </ns3:TrackPointExtension>
        </extensions>
      </trkpt>
      <trkpt lat="44.69141160137951374053955078125" lon="6.77387452684342861175537109375">
        <ele>2076.199951171875</ele>
        <time>2026-09-03T07:30:18.000Z</time>
        <extensions>
          <ns3:TrackPointExtension>
            <ns3:hr>160</ns3:hr>
            <ns3:cad>0</ns3:cad>
          </ns3:TrackPointExtension>
        </extensions>
      </trkpt>
      <trkpt lat="44.69140858389437198638916015625" lon="6.77388324402272701263427734375">
        <ele>2076.39990234375</ele>
        <time>2026-09-03T07:30:19.000Z</time>
        <extensions>
          <ns3:TrackPointExtension>
            <ns3:hr>160</ns3:hr>
            <ns3:cad>0</ns3:cad>
          </ns3:TrackPointExtension>
        </extensions>
      </trkpt>
      <trkpt lat="44.691403470933437347412109375" lon="6.7738952301442623138427734375">
        <ele>2076.60009765625</ele>
        <time>2026-09-03T07:30:20.000Z</time>
        <extensions>
          <ns3:TrackPointExtension>
            <ns3:hr>161</ns3:hr>
            <ns3:cad>0</ns3:cad>
          </ns3:TrackPointExtension>
        </extensions>
      </trkpt>
      <trkpt lat="44.69140112400054931640625" lon="6.77390352822840213775634765625">
        <ele>2076.800048828125</ele>
        <time>2026-09-03T07:30:21.000Z</time>
        <extensions>
          <ns3:TrackPointExtension>
            <ns3:hr>161</ns3:hr>
            <ns3:cad>0</ns3:cad>
          </ns3:TrackPointExtension>
        </extensions>
      </trkpt>
      <trkpt lat="44.69139584340155124664306640625" lon="6.77391308359801769256591796875">
        <ele>2077</ele>
        <time>2026-09-03T07:30:22.000Z</time>
        <extensions>
          <ns3:TrackPointExtension>
            <ns3:hr>161</ns3:hr>
            <ns3:cad>0</ns3:cad>
          </ns3:TrackPointExtension>
        </extensions>
      </trkpt>
      <trkpt lat="44.6913929097354412078857421875" lon="6.77391844801604747772216796875">
        <ele>2077.199951171875</ele>
        <time>2026-09-03T07:30:23.000Z</time>
        <extensions>
          <ns3:TrackPointExtension>
            <ns3:hr>161</ns3:hr>
            <ns3:cad>0</ns3:cad>
          </ns3:TrackPointExtension>
        </extensions>
      </trkpt>
      <trkpt lat="44.69139106571674346923828125" lon="6.77392314188182353973388671875">
        <ele>2077.39990234375</ele>
        <time>2026-09-03T07:30:24.000Z</time>
        <extensions>
          <ns3:TrackPointExtension>
            <ns3:hr>160</ns3:hr>
            <ns3:cad>0</ns3:cad>
          </ns3:TrackPointExtension>
        </extensions>
      </trkpt>
      <trkpt lat="44.69138167798519134521484375" lon="6.7739294283092021942138671875">
        <ele>2077.39990234375</ele>
        <time>2026-09-03T07:30:25.000Z</time>
        <extensions>
          <ns3:TrackPointExtension>
            <ns3:hr>161</ns3:hr>
            <ns3:cad>0</ns3:cad>
          </ns3:TrackPointExtension>
        </extensions>
      </trkpt>
      <trkpt lat="44.69137740321457386016845703125" lon="6.7739388160407543182373046875">
        <ele>2077.60009765625</ele>
        <time>2026-09-03T07:30:26.000Z</time>
        <extensions>
          <ns3:TrackPointExtension>
            <ns3:hr>161</ns3:hr>
            <ns3:cad>0</ns3:cad>
          </ns3:TrackPointExtension>
        </extensions>
      </trkpt>
      <trkpt lat="44.69137539155781269073486328125" lon="6.77394895814359188079833984375">
        <ele>2077.800048828125</ele>
        <time>2026-09-03T07:30:27.000Z</time>
        <extensions>
          <ns3:TrackPointExtension>
            <ns3:hr>161</ns3:hr>
            <ns3:cad>0</ns3:cad>
          </ns3:TrackPointExtension>
        </extensions>
      </trkpt>
      <trkpt lat="44.69136784784495830535888671875" lon="6.77395449019968509674072265625">
        <ele>2078.199951171875</ele>
        <time>2026-09-03T07:30:28.000Z</time>
        <extensions>
          <ns3:TrackPointExtension>
            <ns3:hr>161</ns3:hr>
            <ns3:cad>0</ns3:cad>
          </ns3:TrackPointExtension>
        </extensions>
      </trkpt>
      <trkpt lat="44.69136248342692852020263671875" lon="6.773964464664459228515625">
        <ele>2078.39990234375</ele>
        <time>2026-09-03T07:30:29.000Z</time>
        <extensions>
          <ns3:TrackPointExtension>
            <ns3:hr>161</ns3:hr>
            <ns3:cad>0</ns3:cad>
          </ns3:TrackPointExtension>
        </extensions>
      </trkpt>
      <trkpt lat="44.6913603879511356353759765625" lon="6.7739659734070301055908203125">
        <ele>2078.60009765625</ele>
        <time>2026-09-03T07:30:30.000Z</time>
        <extensions>
          <ns3:TrackPointExtension>
            <ns3:hr>161</ns3:hr>
            <ns3:cad>0</ns3:cad>
          </ns3:TrackPointExtension>
        </extensions>
      </trkpt>
      <trkpt lat="44.69135561026632785797119140625" lon="6.7739713378250598907470703125">
        <ele>2078.800048828125</ele>
        <time>2026-09-03T07:30:31.000Z</time>
        <extensions>
          <ns3:TrackPointExtension>
            <ns3:hr>161</ns3:hr>
            <ns3:cad>0</ns3:cad>
          </ns3:TrackPointExtension>
        </extensions>
      </trkpt>
      <trkpt lat="44.6913503296673297882080078125" lon="6.77397963590919971466064453125">
        <ele>2079</ele>
        <time>2026-09-03T07:30:32.000Z</time>
        <extensions>
          <ns3:TrackPointExtension>
            <ns3:hr>162</ns3:hr>
            <ns3:cad>0</ns3:cad>
          </ns3:TrackPointExtension>
        </extensions>
      </trkpt>
      <trkpt lat="44.691340439021587371826171875" lon="6.773988939821720123291015625">
        <ele>2079.199951171875</ele>
        <time>2026-09-03T07:30:33.000Z</time>
        <extensions>
          <ns3:TrackPointExtension>
            <ns3:hr>162</ns3:hr>
            <ns3:cad>0</ns3:cad>
          </ns3:TrackPointExtension>
        </extensions>
      </trkpt>
      <trkpt lat="44.69133448787033557891845703125" lon="6.773998327553272247314453125">
        <ele>2079.39990234375</ele>
        <time>2026-09-03T07:30:34.000Z</time>
        <extensions>
          <ns3:TrackPointExtension>
            <ns3:hr>162</ns3:hr>
            <ns3:cad>0</ns3:cad>
          </ns3:TrackPointExtension>
        </extensions>
      </trkpt>
      <trkpt lat="44.691325016319751739501953125" lon="6.77401400171220302581787109375">
        <ele>2079.60009765625</ele>
        <time>2026-09-03T07:30:35.000Z</time>
        <extensions>
          <ns3:TrackPointExtension>
            <ns3:hr>162</ns3:hr>
            <ns3:cad>0</ns3:cad>
          </ns3:TrackPointExtension>
        </extensions>
      </trkpt>
      <trkpt lat="44.69131638295948505401611328125" lon="6.77402573637664318084716796875">
        <ele>2079.800048828125</ele>
        <time>2026-09-03T07:30:36.000Z</time>
        <extensions>
          <ns3:TrackPointExtension>
            <ns3:hr>160</ns3:hr>
            <ns3:cad>0</ns3:cad>
          </ns3:TrackPointExtension>
        </extensions>
      </trkpt>
      <trkpt lat="44.69130833633244037628173828125" lon="6.7740326933562755584716796875">
        <ele>2079.800048828125</ele>
        <time>2026-09-03T07:30:37.000Z</time>
        <extensions>
          <ns3:TrackPointExtension>
            <ns3:hr>160</ns3:hr>
            <ns3:cad>0</ns3:cad>
          </ns3:TrackPointExtension>
        </extensions>
      </trkpt>
      <trkpt lat="44.691298864781856536865234375" lon="6.77404157817363739013671875">
        <ele>2080</ele>
        <time>2026-09-03T07:30:38.000Z</time>
        <extensions>
          <ns3:TrackPointExtension>
            <ns3:hr>160</ns3:hr>
            <ns3:cad>0</ns3:cad>
          </ns3:TrackPointExtension>
        </extensions>
      </trkpt>
      <trkpt lat="44.69129073433578014373779296875" lon="6.77405230700969696044921875">
        <ele>2080.199951171875</ele>
        <time>2026-09-03T07:30:39.000Z</time>
        <extensions>
          <ns3:TrackPointExtension>
            <ns3:hr>159</ns3:hr>
            <ns3:cad>0</ns3:cad>
          </ns3:TrackPointExtension>
        </extensions>
      </trkpt>
      <trkpt lat="44.69128084369003772735595703125" lon="6.77406345494091510772705078125">
        <ele>2080.39990234375</ele>
        <time>2026-09-03T07:30:40.000Z</time>
        <extensions>
          <ns3:TrackPointExtension>
            <ns3:hr>160</ns3:hr>
            <ns3:cad>0</ns3:cad>
          </ns3:TrackPointExtension>
        </extensions>
      </trkpt>
      <trkpt lat="44.69127816148102283477783203125" lon="6.77407435141503810882568359375">
        <ele>2080.60009765625</ele>
        <time>2026-09-03T07:30:41.000Z</time>
        <extensions>
          <ns3:TrackPointExtension>
            <ns3:hr>160</ns3:hr>
            <ns3:cad>0</ns3:cad>
          </ns3:TrackPointExtension>
        </extensions>
      </trkpt>
      <trkpt lat="44.6912742219865322113037109375" lon="6.7740796320140361785888671875">
        <ele>2080.800048828125</ele>
        <time>2026-09-03T07:30:42.000Z</time>
        <extensions>
          <ns3:TrackPointExtension>
            <ns3:hr>161</ns3:hr>
            <ns3:cad>0</ns3:cad>
          </ns3:TrackPointExtension>
        </extensions>
      </trkpt>
      <trkpt lat="44.691269695758819580078125" lon="6.77408373914659023284912109375">
        <ele>2081</ele>
        <time>2026-09-03T07:30:43.000Z</time>
        <extensions>
          <ns3:TrackPointExtension>
            <ns3:hr>161</ns3:hr>
            <ns3:cad>0</ns3:cad>
          </ns3:TrackPointExtension>
        </extensions>
      </trkpt>
      <trkpt lat="44.69126977957785129547119140625" lon="6.7740819789469242095947265625">
        <ele>2081.199951171875</ele>
        <time>2026-09-03T07:30:44.000Z</time>
        <extensions>
          <ns3:TrackPointExtension>
            <ns3:hr>161</ns3:hr>
            <ns3:cad>0</ns3:cad>
          </ns3:TrackPointExtension>
        </extensions>
      </trkpt>
      <trkpt lat="44.69126366078853607177734375" lon="6.77408524788916110992431640625">
        <ele>2081.39990234375</ele>
        <time>2026-09-03T07:30:45.000Z</time>
        <extensions>
          <ns3:TrackPointExtension>
            <ns3:hr>161</ns3:hr>
            <ns3:cad>0</ns3:cad>
          </ns3:TrackPointExtension>
        </extensions>
      </trkpt>
      <trkpt lat="44.69126106239855289459228515625" lon="6.7740918695926666259765625">
        <ele>2081.60009765625</ele>
        <time>2026-09-03T07:30:46.000Z</time>
        <extensions>
          <ns3:TrackPointExtension>
            <ns3:hr>162</ns3:hr>
            <ns3:cad>0</ns3:cad>
          </ns3:TrackPointExtension>
        </extensions>
      </trkpt>
      <trkpt lat="44.6912510879337787628173828125" lon="6.7741037718951702117919921875">
        <ele>2081.800048828125</ele>
        <time>2026-09-03T07:30:47.000Z</time>
        <extensions>
          <ns3:TrackPointExtension>
            <ns3:hr>162</ns3:hr>
            <ns3:cad>0</ns3:cad>
          </ns3:TrackPointExtension>
        </extensions>
      </trkpt>
      <trkpt lat="44.6912453882396221160888671875" lon="6.77411357872188091278076171875">
        <ele>2082</ele>
        <time>2026-09-03T07:30:48.000Z</time>
        <extensions>
          <ns3:TrackPointExtension>
            <ns3:hr>162</ns3:hr>
            <ns3:cad>0</ns3:cad>
          </ns3:TrackPointExtension>
        </extensions>
      </trkpt>
      <trkpt lat="44.69123817980289459228515625" lon="6.7741259001195430755615234375">
        <ele>2082.199951171875</ele>
        <time>2026-09-03T07:30:49.000Z</time>
        <extensions>
          <ns3:TrackPointExtension>
            <ns3:hr>162</ns3:hr>
            <ns3:cad>0</ns3:cad>
          </ns3:TrackPointExtension>
        </extensions>
      </trkpt>
      <trkpt lat="44.69123608432710170745849609375" lon="6.77413369528949260711669921875">
        <ele>2082.39990234375</ele>
        <time>2026-09-03T07:30:50.000Z</time>
        <extensions>
          <ns3:TrackPointExtension>
            <ns3:hr>161</ns3:hr>
            <ns3:cad>0</ns3:cad>
          </ns3:TrackPointExtension>
        </extensions>
      </trkpt>
      <trkpt lat="44.69123415648937225341796875" lon="6.77413939498364925384521484375">
        <ele>2082.60009765625</ele>
        <time>2026-09-03T07:30:51.000Z</time>
        <extensions>
          <ns3:TrackPointExtension>
            <ns3:hr>160</ns3:hr>
            <ns3:cad>0</ns3:cad>
          </ns3:TrackPointExtension>
        </extensions>
      </trkpt>
      <trkpt lat="44.6912303008139133453369140625" lon="6.77415515296161174774169921875">
        <ele>2082.800048828125</ele>
        <time>2026-09-03T07:30:52.000Z</time>
        <extensions>
          <ns3:TrackPointExtension>
            <ns3:hr>160</ns3:hr>
            <ns3:cad>0</ns3:cad>
          </ns3:TrackPointExtension>
        </extensions>
      </trkpt>
      <trkpt lat="44.69122854061424732208251953125" lon="6.77416655234992504119873046875">
        <ele>2083</ele>
        <time>2026-09-03T07:30:53.000Z</time>
        <extensions>
          <ns3:TrackPointExtension>
            <ns3:hr>160</ns3:hr>
            <ns3:cad>0</ns3:cad>
          </ns3:TrackPointExtension>
        </extensions>
      </trkpt>
      <trkpt lat="44.691222421824932098388671875" lon="6.774179376661777496337890625">
        <ele>2083.199951171875</ele>
        <time>2026-09-03T07:30:54.000Z</time>
        <extensions>
          <ns3:TrackPointExtension>
            <ns3:hr>160</ns3:hr>
            <ns3:cad>0</ns3:cad>
          </ns3:TrackPointExtension>
        </extensions>
      </trkpt>
      <trkpt lat="44.69121831469237804412841796875" lon="6.7741909436881542205810546875">
        <ele>2083.39990234375</ele>
        <time>2026-09-03T07:30:55.000Z</time>
        <extensions>
          <ns3:TrackPointExtension>
            <ns3:hr>160</ns3:hr>
            <ns3:cad>0</ns3:cad>
          </ns3:TrackPointExtension>
        </extensions>
      </trkpt>
      <trkpt lat="44.6912068314850330352783203125" lon="6.7742080427706241607666015625">
        <ele>2083.60009765625</ele>
        <time>2026-09-03T07:30:56.000Z</time>
        <extensions>
          <ns3:TrackPointExtension>
            <ns3:hr>160</ns3:hr>
            <ns3:cad>0</ns3:cad>
          </ns3:TrackPointExtension>
        </extensions>
      </trkpt>
      <trkpt lat="44.6911934204399585723876953125" lon="6.7742170952260494232177734375">
        <ele>2083.800048828125</ele>
        <time>2026-09-03T07:30:57.000Z</time>
        <extensions>
          <ns3:TrackPointExtension>
            <ns3:hr>161</ns3:hr>
            <ns3:cad>0</ns3:cad>
          </ns3:TrackPointExtension>
        </extensions>
      </trkpt>
      <trkpt lat="44.69118076376616954803466796875" lon="6.7742264829576015472412109375">
        <ele>2084</ele>
        <time>2026-09-03T07:30:58.000Z</time>
        <extensions>
          <ns3:TrackPointExtension>
            <ns3:hr>161</ns3:hr>
            <ns3:cad>0</ns3:cad>
          </ns3:TrackPointExtension>
        </extensions>
      </trkpt>
      <trkpt lat="44.6911749802529811859130859375" lon="6.77423528395593166351318359375">
        <ele>2084.199951171875</ele>
        <time>2026-09-03T07:30:59.000Z</time>
        <extensions>
          <ns3:TrackPointExtension>
            <ns3:hr>161</ns3:hr>
            <ns3:cad>0</ns3:cad>
          </ns3:TrackPointExtension>
        </extensions>
      </trkpt>
      <trkpt lat="44.6911726333200931549072265625" lon="6.774238049983978271484375">
        <ele>2084.39990234375</ele>
        <time>2026-09-03T07:31:00.000Z</time>
        <extensions>
          <ns3:TrackPointExtension>
            <ns3:hr>162</ns3:hr>
            <ns3:cad>0</ns3:cad>
          </ns3:TrackPointExtension>
        </extensions>
      </trkpt>
      <trkpt lat="44.69116416759788990020751953125" lon="6.7742482759058475494384765625">
        <ele>2084.39990234375</ele>
        <time>2026-09-03T07:31:01.000Z</time>
        <extensions>
          <ns3:TrackPointExtension>
            <ns3:hr>162</ns3:hr>
            <ns3:cad>0</ns3:cad>
          </ns3:TrackPointExtension>
        </extensions>
      </trkpt>
      <trkpt lat="44.69116198830306529998779296875" lon="6.77425389178097248077392578125">
        <ele>2084.60009765625</ele>
        <time>2026-09-03T07:31:02.000Z</time>
        <extensions>
          <ns3:TrackPointExtension>
            <ns3:hr>162</ns3:hr>
            <ns3:cad>0</ns3:cad>
          </ns3:TrackPointExtension>
        </extensions>
      </trkpt>
      <trkpt lat="44.6911481581628322601318359375" lon="6.7742670513689517974853515625">
        <ele>2084.800048828125</ele>
        <time>2026-09-03T07:31:03.000Z</time>
        <extensions>
          <ns3:TrackPointExtension>
            <ns3:hr>162</ns3:hr>
            <ns3:cad>0</ns3:cad>
          </ns3:TrackPointExtension>
        </extensions>
      </trkpt>
      <trkpt lat="44.69113902188837528228759765625" lon="6.7742750979959964752197265625">
        <ele>2085</ele>
        <time>2026-09-03T07:31:04.000Z</time>
        <extensions>
          <ns3:TrackPointExtension>
            <ns3:hr>163</ns3:hr>
            <ns3:cad>0</ns3:cad>
          </ns3:TrackPointExtension>
        </extensions>
      </trkpt>
      <trkpt lat="44.6911283768713474273681640625" lon="6.774285994470119476318359375">
        <ele>2085.199951171875</ele>
        <time>2026-09-03T07:31:05.000Z</time>
        <extensions>
          <ns3:TrackPointExtension>
            <ns3:hr>164</ns3:hr>
            <ns3:cad>0</ns3:cad>
          </ns3:TrackPointExtension>
        </extensions>
      </trkpt>
      <trkpt lat="44.69112041406333446502685546875" lon="6.77429504692554473876953125">
        <ele>2085.39990234375</ele>
        <time>2026-09-03T07:31:06.000Z</time>
        <extensions>
          <ns3:TrackPointExtension>
            <ns3:hr>165</ns3:hr>
            <ns3:cad>0</ns3:cad>
          </ns3:TrackPointExtension>
        </extensions>
      </trkpt>
      <trkpt lat="44.6911156363785266876220703125" lon="6.77430116571485996246337890625">
        <ele>2085.60009765625</ele>
        <time>2026-09-03T07:31:07.000Z</time>
        <extensions>
          <ns3:TrackPointExtension>
            <ns3:hr>166</ns3:hr>
            <ns3:cad>0</ns3:cad>
          </ns3:TrackPointExtension>
        </extensions>
      </trkpt>
      <trkpt lat="44.6911055780947208404541015625" lon="6.77430979907512664794921875">
        <ele>2086</ele>
        <time>2026-09-03T07:31:08.000Z</time>
        <extensions>
          <ns3:TrackPointExtension>
            <ns3:hr>166</ns3:hr>
            <ns3:cad>0</ns3:cad>
          </ns3:TrackPointExtension>
        </extensions>
      </trkpt>
      <trkpt lat="44.69110314734280109405517578125" lon="6.77431474439799785614013671875">
        <ele>2086.199951171875</ele>
        <time>2026-09-03T07:31:09.000Z</time>
        <extensions>
          <ns3:TrackPointExtension>
            <ns3:hr>167</ns3:hr>
            <ns3:cad>0</ns3:cad>
          </ns3:TrackPointExtension>
        </extensions>
      </trkpt>
      <trkpt lat="44.691090323030948638916015625" lon="6.77431918680667877197265625">
        <ele>2086.39990234375</ele>
        <time>2026-09-03T07:31:10.000Z</time>
        <extensions>
          <ns3:TrackPointExtension>
            <ns3:hr>167</ns3:hr>
            <ns3:cad>76</ns3:cad>
          </ns3:TrackPointExtension>
        </extensions>
      </trkpt>
      <trkpt lat="44.6910837851464748382568359375" lon="6.7743206955492496490478515625">
        <ele>2086.60009765625</ele>
        <time>2026-09-03T07:31:11.000Z</time>
        <extensions>
          <ns3:TrackPointExtension>
            <ns3:hr>168</ns3:hr>
            <ns3:cad>76</ns3:cad>
          </ns3:TrackPointExtension>
        </extensions>
      </trkpt>
      <trkpt lat="44.69108051620423793792724609375" lon="6.7743206955492496490478515625">
        <ele>2086.800048828125</ele>
        <time>2026-09-03T07:31:12.000Z</time>
        <extensions>
          <ns3:TrackPointExtension>
            <ns3:hr>169</ns3:hr>
            <ns3:cad>76</ns3:cad>
          </ns3:TrackPointExtension>
        </extensions>
      </trkpt>
      <trkpt lat="44.69107381068170070648193359375" lon="6.77432329393923282623291015625">
        <ele>2086.800048828125</ele>
        <time>2026-09-03T07:31:13.000Z</time>
        <extensions>
          <ns3:TrackPointExtension>
            <ns3:hr>169</ns3:hr>
            <ns3:cad>0</ns3:cad>
          </ns3:TrackPointExtension>
        </extensions>
      </trkpt>
      <trkpt lat="44.691073559224605560302734375" lon="6.7743233777582645416259765625">
        <ele>2087</ele>
        <time>2026-09-03T07:31:14.000Z</time>
        <extensions>
          <ns3:TrackPointExtension>
            <ns3:hr>170</ns3:hr>
            <ns3:cad>0</ns3:cad>
          </ns3:TrackPointExtension>
        </extensions>
      </trkpt>
      <trkpt lat="44.6910645067691802978515625" lon="6.7743310891091823577880859375">
        <ele>2087.199951171875</ele>
        <time>2026-09-03T07:31:15.000Z</time>
        <extensions>
          <ns3:TrackPointExtension>
            <ns3:hr>170</ns3:hr>
            <ns3:cad>0</ns3:cad>
          </ns3:TrackPointExtension>
        </extensions>
      </trkpt>
      <trkpt lat="44.69106207601726055145263671875" lon="6.774334944784641265869140625">
        <ele>2087.39990234375</ele>
        <time>2026-09-03T07:31:16.000Z</time>
        <extensions>
          <ns3:TrackPointExtension>
            <ns3:hr>171</ns3:hr>
            <ns3:cad>0</ns3:cad>
          </ns3:TrackPointExtension>
        </extensions>
      </trkpt>
      <trkpt lat="44.691056795418262481689453125" lon="6.77434106357395648956298828125">
        <ele>2087.60009765625</ele>
        <time>2026-09-03T07:31:17.000Z</time>
        <extensions>
          <ns3:TrackPointExtension>
            <ns3:hr>171</ns3:hr>
            <ns3:cad>0</ns3:cad>
          </ns3:TrackPointExtension>
        </extensions>
      </trkpt>
      <trkpt lat="44.69105285592377185821533203125" lon="6.774346344172954559326171875">
        <ele>2087.800048828125</ele>
        <time>2026-09-03T07:31:18.000Z</time>
        <extensions>
          <ns3:TrackPointExtension>
            <ns3:hr>172</ns3:hr>
            <ns3:cad>0</ns3:cad>
          </ns3:TrackPointExtension>
        </extensions>
      </trkpt>
      <trkpt lat="44.691048078238964080810546875" lon="6.77435539662837982177734375">
        <ele>2088</ele>
        <time>2026-09-03T07:31:19.000Z</time>
        <extensions>
          <ns3:TrackPointExtension>
            <ns3:hr>172</ns3:hr>
            <ns3:cad>0</ns3:cad>
          </ns3:TrackPointExtension>
        </extensions>
      </trkpt>
      <trkpt lat="44.69103877432644367218017578125" lon="6.77436771802604198455810546875">
        <ele>2088.199951171875</ele>
        <time>2026-09-03T07:31:20.000Z</time>
        <extensions>
          <ns3:TrackPointExtension>
            <ns3:hr>172</ns3:hr>
            <ns3:cad>0</ns3:cad>
          </ns3:TrackPointExtension>
        </extensions>
      </trkpt>
      <trkpt lat="44.69102486036717891693115234375" lon="6.77436939440667629241943359375">
        <ele>2088.39990234375</ele>
        <time>2026-09-03T07:31:21.000Z</time>
        <extensions>
          <ns3:TrackPointExtension>
            <ns3:hr>171</ns3:hr>
            <ns3:cad>0</ns3:cad>
          </ns3:TrackPointExtension>
        </extensions>
      </trkpt>
      <trkpt lat="44.69101446680724620819091796875" lon="6.77437660284340381622314453125">
        <ele>2088.60009765625</ele>
        <time>2026-09-03T07:31:22.000Z</time>
        <extensions>
          <ns3:TrackPointExtension>
            <ns3:hr>170</ns3:hr>
            <ns3:cad>0</ns3:cad>
          </ns3:TrackPointExtension>
        </extensions>
      </trkpt>
      <trkpt lat="44.6910036541521549224853515625" lon="6.77437894977629184722900390625">
        <ele>2088.60009765625</ele>
        <time>2026-09-03T07:31:23.000Z</time>
        <extensions>
          <ns3:TrackPointExtension>
            <ns3:hr>170</ns3:hr>
            <ns3:cad>0</ns3:cad>
          </ns3:TrackPointExtension>
        </extensions>
      </trkpt>
      <trkpt lat="44.6909905783832073211669921875" lon="6.77438247017562389373779296875">
        <ele>2088.800048828125</ele>
        <time>2026-09-03T07:31:24.000Z</time>
        <extensions>
          <ns3:TrackPointExtension>
            <ns3:hr>170</ns3:hr>
            <ns3:cad>0</ns3:cad>
          </ns3:TrackPointExtension>
        </extensions>
      </trkpt>
      <trkpt lat="44.6909875608980655670166015625" lon="6.77438632585108280181884765625">
        <ele>2089</ele>
        <time>2026-09-03T07:31:25.000Z</time>
        <extensions>
          <ns3:TrackPointExtension>
            <ns3:hr>170</ns3:hr>
            <ns3:cad>0</ns3:cad>
          </ns3:TrackPointExtension>
        </extensions>
      </trkpt>
      <trkpt lat="44.6909798495471477508544921875" lon="6.77438967861235141754150390625">
        <ele>2089.199951171875</ele>
        <time>2026-09-03T07:31:26.000Z</time>
        <extensions>
          <ns3:TrackPointExtension>
            <ns3:hr>171</ns3:hr>
            <ns3:cad>0</ns3:cad>
          </ns3:TrackPointExtension>
        </extensions>
      </trkpt>
      <trkpt lat="44.6909706294536590576171875" lon="6.7743927799165248870849609375">
        <ele>2089.39990234375</ele>
        <time>2026-09-03T07:31:27.000Z</time>
        <extensions>
          <ns3:TrackPointExtension>
            <ns3:hr>170</ns3:hr>
            <ns3:cad>0</ns3:cad>
          </ns3:TrackPointExtension>
        </extensions>
      </trkpt>
      <trkpt lat="44.69096350483596324920654296875" lon="6.774396635591983795166015625">
        <ele>2089.60009765625</ele>
        <time>2026-09-03T07:31:28.000Z</time>
        <extensions>
          <ns3:TrackPointExtension>
            <ns3:hr>170</ns3:hr>
            <ns3:cad>0</ns3:cad>
          </ns3:TrackPointExtension>
        </extensions>
      </trkpt>
      <trkpt lat="44.69095612876117229461669921875" lon="6.7744061909615993499755859375">
        <ele>2089.800048828125</ele>
        <time>2026-09-03T07:31:29.000Z</time>
        <extensions>
          <ns3:TrackPointExtension>
            <ns3:hr>170</ns3:hr>
            <ns3:cad>0</ns3:cad>
          </ns3:TrackPointExtension>
        </extensions>
      </trkpt>
      <trkpt lat="44.69094657339155673980712890625" lon="6.7744102142751216888427734375">
        <ele>2090</ele>
        <time>2026-09-03T07:31:30.000Z</time>
        <extensions>
          <ns3:TrackPointExtension>
            <ns3:hr>170</ns3:hr>
            <ns3:cad>0</ns3:cad>
          </ns3:TrackPointExtension>
        </extensions>
      </trkpt>
      <trkpt lat="44.69094104133546352386474609375" lon="6.77441976964473724365234375">
        <ele>2090</ele>
        <time>2026-09-03T07:31:31.000Z</time>
        <extensions>
          <ns3:TrackPointExtension>
            <ns3:hr>170</ns3:hr>
            <ns3:cad>0</ns3:cad>
          </ns3:TrackPointExtension>
        </extensions>
      </trkpt>
      <trkpt lat="44.69093182124197483062744140625" lon="6.7744212783873081207275390625">
        <ele>2090.199951171875</ele>
        <time>2026-09-03T07:31:32.000Z</time>
        <extensions>
          <ns3:TrackPointExtension>
            <ns3:hr>170</ns3:hr>
            <ns3:cad>0</ns3:cad>
          </ns3:TrackPointExtension>
        </extensions>
      </trkpt>
      <trkpt lat="44.6909211762249469757080078125" lon="6.77442722953855991363525390625">
        <ele>2090.39990234375</ele>
        <time>2026-09-03T07:31:33.000Z</time>
        <extensions>
          <ns3:TrackPointExtension>
            <ns3:hr>170</ns3:hr>
            <ns3:cad>0</ns3:cad>
          </ns3:TrackPointExtension>
        </extensions>
      </trkpt>
      <trkpt lat="44.69091455452144145965576171875" lon="6.77443611435592174530029296875">
        <ele>2090.60009765625</ele>
        <time>2026-09-03T07:31:34.000Z</time>
        <extensions>
          <ns3:TrackPointExtension>
            <ns3:hr>170</ns3:hr>
            <ns3:cad>51</ns3:cad>
          </ns3:TrackPointExtension>
        </extensions>
      </trkpt>
      <trkpt lat="44.69090818427503108978271484375" lon="6.774442903697490692138671875">
        <ele>2090.800048828125</ele>
        <time>2026-09-03T07:31:35.000Z</time>
        <extensions>
          <ns3:TrackPointExtension>
            <ns3:hr>170</ns3:hr>
            <ns3:cad>51</ns3:cad>
          </ns3:TrackPointExtension>
        </extensions>
      </trkpt>
      <trkpt lat="44.69090080820024013519287109375" lon="6.77445019595324993133544921875">
        <ele>2091</ele>
        <time>2026-09-03T07:31:36.000Z</time>
        <extensions>
          <ns3:TrackPointExtension>
            <ns3:hr>170</ns3:hr>
            <ns3:cad>51</ns3:cad>
          </ns3:TrackPointExtension>
        </extensions>
      </trkpt>
      <trkpt lat="44.69089083373546600341796875" lon="6.7744601704180240631103515625">
        <ele>2091.199951171875</ele>
        <time>2026-09-03T07:31:37.000Z</time>
        <extensions>
          <ns3:TrackPointExtension>
            <ns3:hr>170</ns3:hr>
            <ns3:cad>51</ns3:cad>
          </ns3:TrackPointExtension>
        </extensions>
      </trkpt>
      <trkpt lat="44.69087935052812099456787109375" lon="6.77447031252086162567138671875">
        <ele>2091.39990234375</ele>
        <time>2026-09-03T07:31:38.000Z</time>
        <extensions>
          <ns3:TrackPointExtension>
            <ns3:hr>171</ns3:hr>
            <ns3:cad>51</ns3:cad>
          </ns3:TrackPointExtension>
        </extensions>
      </trkpt>
      <trkpt lat="44.6908715553581714630126953125" lon="6.77447517402470111846923828125">
        <ele>2091.60009765625</ele>
        <time>2026-09-03T07:31:39.000Z</time>
        <extensions>
          <ns3:TrackPointExtension>
            <ns3:hr>171</ns3:hr>
            <ns3:cad>51</ns3:cad>
          </ns3:TrackPointExtension>
        </extensions>
      </trkpt>
      <trkpt lat="44.690860323607921600341796875" lon="6.77448338828980922698974609375">
        <ele>2091.800048828125</ele>
        <time>2026-09-03T07:31:40.000Z</time>
        <extensions>
          <ns3:TrackPointExtension>
            <ns3:hr>171</ns3:hr>
            <ns3:cad>51</ns3:cad>
          </ns3:TrackPointExtension>
        </extensions>
      </trkpt>
      <trkpt lat="44.6908450685441493988037109375" lon="6.7744883336126804351806640625">
        <ele>2092</ele>
        <time>2026-09-03T07:31:41.000Z</time>
        <extensions>
          <ns3:TrackPointExtension>
            <ns3:hr>171</ns3:hr>
            <ns3:cad>0</ns3:cad>
          </ns3:TrackPointExtension>
        </extensions>
      </trkpt>
      <trkpt lat="44.69083492644131183624267578125" lon="6.7744930274784564971923828125">
        <ele>2092</ele>
        <time>2026-09-03T07:31:42.000Z</time>
        <extensions>
          <ns3:TrackPointExtension>
            <ns3:hr>171</ns3:hr>
            <ns3:cad>0</ns3:cad>
          </ns3:TrackPointExtension>
        </extensions>
      </trkpt>
      <trkpt lat="44.69082235358655452728271484375" lon="6.77449998445808887481689453125">
        <ele>2092.199951171875</ele>
        <time>2026-09-03T07:31:43.000Z</time>
        <extensions>
          <ns3:TrackPointExtension>
            <ns3:hr>171</ns3:hr>
            <ns3:cad>0</ns3:cad>
          </ns3:TrackPointExtension>
        </extensions>
      </trkpt>
      <trkpt lat="44.69081648625433444976806640625" lon="6.77450836636126041412353515625">
        <ele>2092.39990234375</ele>
        <time>2026-09-03T07:31:44.000Z</time>
        <extensions>
          <ns3:TrackPointExtension>
            <ns3:hr>171</ns3:hr>
            <ns3:cad>0</ns3:cad>
          </ns3:TrackPointExtension>
        </extensions>
      </trkpt>
      <trkpt lat="44.690808020532131195068359375" lon="6.77451708354055881500244140625">
        <ele>2092.60009765625</ele>
        <time>2026-09-03T07:31:45.000Z</time>
        <extensions>
          <ns3:TrackPointExtension>
            <ns3:hr>171</ns3:hr>
            <ns3:cad>54</ns3:cad>
          </ns3:TrackPointExtension>
        </extensions>
      </trkpt>
      <trkpt lat="44.690802991390228271484375" lon="6.77452563308179378509521484375">
        <ele>2092.60009765625</ele>
        <time>2026-09-03T07:31:46.000Z</time>
        <extensions>
          <ns3:TrackPointExtension>
            <ns3:hr>171</ns3:hr>
            <ns3:cad>54</ns3:cad>
          </ns3:TrackPointExtension>
        </extensions>
      </trkpt>
      <trkpt lat="44.6907981298863887786865234375" lon="6.77453510463237762451171875">
        <ele>2092.800048828125</ele>
        <time>2026-09-03T07:31:47.000Z</time>
        <extensions>
          <ns3:TrackPointExtension>
            <ns3:hr>171</ns3:hr>
            <ns3:cad>54</ns3:cad>
          </ns3:TrackPointExtension>
        </extensions>
      </trkpt>
      <trkpt lat="44.6907917596399784088134765625" lon="6.774544157087802886962890625">
        <ele>2093</ele>
        <time>2026-09-03T07:31:48.000Z</time>
        <extensions>
          <ns3:TrackPointExtension>
            <ns3:hr>171</ns3:hr>
            <ns3:cad>54</ns3:cad>
          </ns3:TrackPointExtension>
        </extensions>
      </trkpt>
      <trkpt lat="44.69078890979290008544921875" lon="6.77455329336225986480712890625">
        <ele>2093.199951171875</ele>
        <time>2026-09-03T07:31:49.000Z</time>
        <extensions>
          <ns3:TrackPointExtension>
            <ns3:hr>171</ns3:hr>
            <ns3:cad>54</ns3:cad>
          </ns3:TrackPointExtension>
        </extensions>
      </trkpt>
      <trkpt lat="44.69078899361193180084228515625" lon="6.77456133998930454254150390625">
        <ele>2093.60009765625</ele>
        <time>2026-09-03T07:31:50.000Z</time>
        <extensions>
          <ns3:TrackPointExtension>
            <ns3:hr>171</ns3:hr>
            <ns3:cad>52</ns3:cad>
          </ns3:TrackPointExtension>
        </extensions>
      </trkpt>
      <trkpt lat="44.69078832305967807769775390625" lon="6.7745731584727764129638671875">
        <ele>2093.800048828125</ele>
        <time>2026-09-03T07:31:51.000Z</time>
        <extensions>
          <ns3:TrackPointExtension>
            <ns3:hr>172</ns3:hr>
            <ns3:cad>52</ns3:cad>
          </ns3:TrackPointExtension>
        </extensions>
      </trkpt>
      <trkpt lat="44.69079251401126384735107421875" lon="6.774581372737884521484375">
        <ele>2094</ele>
        <time>2026-09-03T07:31:52.000Z</time>
        <extensions>
          <ns3:TrackPointExtension>
            <ns3:hr>172</ns3:hr>
            <ns3:cad>52</ns3:cad>
          </ns3:TrackPointExtension>
        </extensions>
      </trkpt>
      <trkpt lat="44.69079435802996158599853515625" lon="6.77459151484072208404541015625">
        <ele>2094.199951171875</ele>
        <time>2026-09-03T07:31:53.000Z</time>
        <extensions>
          <ns3:TrackPointExtension>
            <ns3:hr>172</ns3:hr>
            <ns3:cad>52</ns3:cad>
          </ns3:TrackPointExtension>
        </extensions>
      </trkpt>
      <trkpt lat="44.69079469330608844757080078125" lon="6.7746013216674327850341796875">
        <ele>2094.39990234375</ele>
        <time>2026-09-03T07:31:54.000Z</time>
        <extensions>
          <ns3:TrackPointExtension>
            <ns3:hr>173</ns3:hr>
            <ns3:cad>0</ns3:cad>
          </ns3:TrackPointExtension>
        </extensions>
      </trkpt>
      <trkpt lat="44.69079435802996158599853515625" lon="6.7746113799512386322021484375">
        <ele>2094.60009765625</ele>
        <time>2026-09-03T07:31:55.000Z</time>
        <extensions>
          <ns3:TrackPointExtension>
            <ns3:hr>173</ns3:hr>
            <ns3:cad>0</ns3:cad>
          </ns3:TrackPointExtension>
        </extensions>
      </trkpt>
      <trkpt lat="44.6907994709908962249755859375" lon="6.774619258940219879150390625">
        <ele>2094.800048828125</ele>
        <time>2026-09-03T07:31:56.000Z</time>
        <extensions>
          <ns3:TrackPointExtension>
            <ns3:hr>174</ns3:hr>
            <ns3:cad>0</ns3:cad>
          </ns3:TrackPointExtension>
        </extensions>
      </trkpt>
      <trkpt lat="44.69079888425767421722412109375" lon="6.77463568747043609619140625">
        <ele>2095</ele>
        <time>2026-09-03T07:31:57.000Z</time>
        <extensions>
          <ns3:TrackPointExtension>
            <ns3:hr>174</ns3:hr>
            <ns3:cad>0</ns3:cad>
          </ns3:TrackPointExtension>
        </extensions>
      </trkpt>
      <trkpt lat="44.69079854898154735565185546875" lon="6.77464817650616168975830078125">
        <ele>2095.199951171875</ele>
        <time>2026-09-03T07:31:58.000Z</time>
        <extensions>
          <ns3:TrackPointExtension>
            <ns3:hr>174</ns3:hr>
            <ns3:cad>0</ns3:cad>
          </ns3:TrackPointExtension>
        </extensions>
      </trkpt>
      <trkpt lat="44.69080022536218166351318359375" lon="6.77466519176959991455078125">
        <ele>2095.39990234375</ele>
        <time>2026-09-03T07:31:59.000Z</time>
        <extensions>
          <ns3:TrackPointExtension>
            <ns3:hr>175</ns3:hr>
            <ns3:cad>0</ns3:cad>
          </ns3:TrackPointExtension>
        </extensions>
      </trkpt>
      <trkpt lat="44.69079921953380107879638671875" lon="6.77467701025307178497314453125">
        <ele>2095.60009765625</ele>
        <time>2026-09-03T07:32:00.000Z</time>
        <extensions>
          <ns3:TrackPointExtension>
            <ns3:hr>175</ns3:hr>
            <ns3:cad>0</ns3:cad>
          </ns3:TrackPointExtension>
        </extensions>
      </trkpt>
      <trkpt lat="44.690797291696071624755859375" lon="6.77468354813754558563232421875">
        <ele>2095.800048828125</ele>
        <time>2026-09-03T07:32:01.000Z</time>
        <extensions>
          <ns3:TrackPointExtension>
            <ns3:hr>175</ns3:hr>
            <ns3:cad>0</ns3:cad>
          </ns3:TrackPointExtension>
        </extensions>
      </trkpt>
      <trkpt lat="44.69078999944031238555908203125" lon="6.77469226531684398651123046875">
        <ele>2096</ele>
        <time>2026-09-03T07:32:02.000Z</time>
        <extensions>
          <ns3:TrackPointExtension>
            <ns3:hr>175</ns3:hr>
            <ns3:cad>0</ns3:cad>
          </ns3:TrackPointExtension>
        </extensions>
      </trkpt>
      <trkpt lat="44.690783210098743438720703125" lon="6.77469226531684398651123046875">
        <ele>2096.199951171875</ele>
        <time>2026-09-03T07:32:03.000Z</time>
        <extensions>
          <ns3:TrackPointExtension>
            <ns3:hr>175</ns3:hr>
            <ns3:cad>0</ns3:cad>
          </ns3:TrackPointExtension>
        </extensions>
      </trkpt>
      <trkpt lat="44.6907776780426502227783203125" lon="6.77470634691417217254638671875">
        <ele>2096.39990234375</ele>
        <time>2026-09-03T07:32:04.000Z</time>
        <extensions>
          <ns3:TrackPointExtension>
            <ns3:hr>174</ns3:hr>
            <ns3:cad>0</ns3:cad>
          </ns3:TrackPointExtension>
        </extensions>
      </trkpt>
      <trkpt lat="44.690778516232967376708984375" lon="6.77471481263637542724609375">
        <ele>2096.800048828125</ele>
        <time>2026-09-03T07:32:05.000Z</time>
        <extensions>
          <ns3:TrackPointExtension>
            <ns3:hr>174</ns3:hr>
            <ns3:cad>0</ns3:cad>
          </ns3:TrackPointExtension>
        </extensions>
      </trkpt>
      <trkpt lat="44.69078111462295055389404296875" lon="6.7747317440807819366455078125">
        <ele>2097</ele>
        <time>2026-09-03T07:32:06.000Z</time>
        <extensions>
          <ns3:TrackPointExtension>
            <ns3:hr>175</ns3:hr>
            <ns3:cad>0</ns3:cad>
          </ns3:TrackPointExtension>
        </extensions>
      </trkpt>
      <trkpt lat="44.69078077934682369232177734375" lon="6.77474088035523891448974609375">
        <ele>2097.199951171875</ele>
        <time>2026-09-03T07:32:07.000Z</time>
        <extensions>
          <ns3:TrackPointExtension>
            <ns3:hr>174</ns3:hr>
            <ns3:cad>0</ns3:cad>
          </ns3:TrackPointExtension>
        </extensions>
      </trkpt>
      <trkpt lat="44.69077675603330135345458984375" lon="6.77474741823971271514892578125">
        <ele>2097.39990234375</ele>
        <time>2026-09-03T07:32:08.000Z</time>
        <extensions>
          <ns3:TrackPointExtension>
            <ns3:hr>174</ns3:hr>
            <ns3:cad>0</ns3:cad>
          </ns3:TrackPointExtension>
        </extensions>
      </trkpt>
      <trkpt lat="44.6907726489007472991943359375" lon="6.77475580014288425445556640625">
        <ele>2097.60009765625</ele>
        <time>2026-09-03T07:32:09.000Z</time>
        <extensions>
          <ns3:TrackPointExtension>
            <ns3:hr>174</ns3:hr>
            <ns3:cad>0</ns3:cad>
          </ns3:TrackPointExtension>
        </extensions>
      </trkpt>
      <trkpt lat="44.69076703302562236785888671875" lon="6.77476384676992893218994140625">
        <ele>2097.800048828125</ele>
        <time>2026-09-03T07:32:10.000Z</time>
        <extensions>
          <ns3:TrackPointExtension>
            <ns3:hr>173</ns3:hr>
            <ns3:cad>0</ns3:cad>
          </ns3:TrackPointExtension>
        </extensions>
      </trkpt>
      <trkpt lat="44.69075680710375308990478515625" lon="6.7747813649475574493408203125">
        <ele>2098.199951171875</ele>
        <time>2026-09-03T07:32:11.000Z</time>
        <extensions>
          <ns3:TrackPointExtension>
            <ns3:hr>173</ns3:hr>
            <ns3:cad>0</ns3:cad>
          </ns3:TrackPointExtension>
        </extensions>
      </trkpt>
      <trkpt lat="44.690751023590564727783203125" lon="6.77479351870715618133544921875">
        <ele>2098.39990234375</ele>
        <time>2026-09-03T07:32:12.000Z</time>
        <extensions>
          <ns3:TrackPointExtension>
            <ns3:hr>173</ns3:hr>
            <ns3:cad>0</ns3:cad>
          </ns3:TrackPointExtension>
        </extensions>
      </trkpt>
      <trkpt lat="44.6907407976686954498291015625" lon="6.77481028251349925994873046875">
        <ele>2098.60009765625</ele>
        <time>2026-09-03T07:32:13.000Z</time>
        <extensions>
          <ns3:TrackPointExtension>
            <ns3:hr>174</ns3:hr>
            <ns3:cad>0</ns3:cad>
          </ns3:TrackPointExtension>
        </extensions>
      </trkpt>
      <trkpt lat="44.69073434360325336456298828125" lon="6.77482117898762226104736328125">
        <ele>2098.60009765625</ele>
        <time>2026-09-03T07:32:14.000Z</time>
        <extensions>
          <ns3:TrackPointExtension>
            <ns3:hr>173</ns3:hr>
            <ns3:cad>0</ns3:cad>
          </ns3:TrackPointExtension>
        </extensions>
      </trkpt>
      <trkpt lat="44.69072612933814525604248046875" lon="6.77483257837593555450439453125">
        <ele>2099</ele>
        <time>2026-09-03T07:32:15.000Z</time>
        <extensions>
          <ns3:TrackPointExtension>
            <ns3:hr>173</ns3:hr>
            <ns3:cad>0</ns3:cad>
          </ns3:TrackPointExtension>
        </extensions>
      </trkpt>
      <trkpt lat="44.69072143547236919403076171875" lon="6.77483894862234592437744140625">
        <ele>2099.199951171875</ele>
        <time>2026-09-03T07:32:16.000Z</time>
        <extensions>
          <ns3:TrackPointExtension>
            <ns3:hr>173</ns3:hr>
            <ns3:cad>0</ns3:cad>
          </ns3:TrackPointExtension>
        </extensions>
      </trkpt>
      <trkpt lat="44.6907193399965763092041015625" lon="6.77483819425106048583984375">
        <ele>2099.39990234375</ele>
        <time>2026-09-03T07:32:17.000Z</time>
        <extensions>
          <ns3:TrackPointExtension>
            <ns3:hr>172</ns3:hr>
            <ns3:cad>0</ns3:cad>
          </ns3:TrackPointExtension>
        </extensions>
      </trkpt>
      <trkpt lat="44.690713472664356231689453125" lon="6.77484481595456600189208984375">
        <ele>2099.60009765625</ele>
        <time>2026-09-03T07:32:18.000Z</time>
        <extensions>
          <ns3:TrackPointExtension>
            <ns3:hr>172</ns3:hr>
            <ns3:cad>0</ns3:cad>
          </ns3:TrackPointExtension>
        </extensions>
      </trkpt>
      <trkpt lat="44.69071623869240283966064453125" lon="6.7748427204787731170654296875">
        <ele>2099.800048828125</ele>
        <time>2026-09-03T07:32:19.000Z</time>
        <extensions>
          <ns3:TrackPointExtension>
            <ns3:hr>172</ns3:hr>
            <ns3:cad>41</ns3:cad>
          </ns3:TrackPointExtension>
        </extensions>
      </trkpt>
      <trkpt lat="44.6907159872353076934814453125" lon="6.774848587810993194580078125">
        <ele>2100</ele>
        <time>2026-09-03T07:32:20.000Z</time>
        <extensions>
          <ns3:TrackPointExtension>
            <ns3:hr>172</ns3:hr>
            <ns3:cad>41</ns3:cad>
          </ns3:TrackPointExtension>
        </extensions>
      </trkpt>
      <trkpt lat="44.6907143108546733856201171875" lon="6.7748547904193401336669921875">
        <ele>2100.199951171875</ele>
        <time>2026-09-03T07:32:21.000Z</time>
        <extensions>
          <ns3:TrackPointExtension>
            <ns3:hr>171</ns3:hr>
            <ns3:cad>41</ns3:cad>
          </ns3:TrackPointExtension>
        </extensions>
      </trkpt>
      <trkpt lat="44.69071003608405590057373046875" lon="6.77486694417893886566162109375">
        <ele>2100.39990234375</ele>
        <time>2026-09-03T07:32:22.000Z</time>
        <extensions>
          <ns3:TrackPointExtension>
            <ns3:hr>171</ns3:hr>
            <ns3:cad>41</ns3:cad>
          </ns3:TrackPointExtension>
        </extensions>
      </trkpt>
      <trkpt lat="44.6907055936753749847412109375" lon="6.77487700246274471282958984375">
        <ele>2100.60009765625</ele>
        <time>2026-09-03T07:32:23.000Z</time>
        <extensions>
          <ns3:TrackPointExtension>
            <ns3:hr>171</ns3:hr>
            <ns3:cad>0</ns3:cad>
          </ns3:TrackPointExtension>
        </extensions>
      </trkpt>
      <trkpt lat="44.690700061619281768798828125" lon="6.77488756366074085235595703125">
        <ele>2100.800048828125</ele>
        <time>2026-09-03T07:32:24.000Z</time>
        <extensions>
          <ns3:TrackPointExtension>
            <ns3:hr>170</ns3:hr>
            <ns3:cad>0</ns3:cad>
          </ns3:TrackPointExtension>
        </extensions>
      </trkpt>
      <trkpt lat="44.69069511629641056060791015625" lon="6.77489745430648326873779296875">
        <ele>2101</ele>
        <time>2026-09-03T07:32:25.000Z</time>
        <extensions>
          <ns3:TrackPointExtension>
            <ns3:hr>170</ns3:hr>
            <ns3:cad>0</ns3:cad>
          </ns3:TrackPointExtension>
        </extensions>
      </trkpt>
      <trkpt lat="44.6906908415257930755615234375" lon="6.7749030701816082000732421875">
        <ele>2101.199951171875</ele>
        <time>2026-09-03T07:32:26.000Z</time>
        <extensions>
          <ns3:TrackPointExtension>
            <ns3:hr>169</ns3:hr>
            <ns3:cad>0</ns3:cad>
          </ns3:TrackPointExtension>
        </extensions>
      </trkpt>
      <trkpt lat="44.6906898356974124908447265625" lon="6.7749127931892871856689453125">
        <ele>2101.60009765625</ele>
        <time>2026-09-03T07:32:27.000Z</time>
        <extensions>
          <ns3:TrackPointExtension>
            <ns3:hr>169</ns3:hr>
            <ns3:cad>0</ns3:cad>
          </ns3:TrackPointExtension>
        </extensions>
      </trkpt>
      <trkpt lat="44.690687321126461029052734375" lon="6.77491941489279270172119140625">
        <ele>2101.800048828125</ele>
        <time>2026-09-03T07:32:28.000Z</time>
        <extensions>
          <ns3:TrackPointExtension>
            <ns3:hr>169</ns3:hr>
            <ns3:cad>0</ns3:cad>
          </ns3:TrackPointExtension>
        </extensions>
      </trkpt>
      <trkpt lat="44.69068338163197040557861328125" lon="6.77493031136691570281982421875">
        <ele>2102</ele>
        <time>2026-09-03T07:32:29.000Z</time>
        <extensions>
          <ns3:TrackPointExtension>
            <ns3:hr>169</ns3:hr>
            <ns3:cad>0</ns3:cad>
          </ns3:TrackPointExtension>
        </extensions>
      </trkpt>
      <trkpt lat="44.69067717902362346649169921875" lon="6.77493341267108917236328125">
        <ele>2102.199951171875</ele>
        <time>2026-09-03T07:32:30.000Z</time>
        <extensions>
          <ns3:TrackPointExtension>
            <ns3:hr>170</ns3:hr>
            <ns3:cad>0</ns3:cad>
          </ns3:TrackPointExtension>
        </extensions>
      </trkpt>
      <trkpt lat="44.69066779129207134246826171875" lon="6.7749402858316898345947265625">
        <ele>2102.39990234375</ele>
        <time>2026-09-03T07:32:31.000Z</time>
        <extensions>
          <ns3:TrackPointExtension>
            <ns3:hr>170</ns3:hr>
            <ns3:cad>0</ns3:cad>
          </ns3:TrackPointExtension>
        </extensions>
      </trkpt>
      <trkpt lat="44.6906594932079315185546875" lon="6.7749483324587345123291015625">
        <ele>2102.60009765625</ele>
        <time>2026-09-03T07:32:32.000Z</time>
        <extensions>
          <ns3:TrackPointExtension>
            <ns3:hr>170</ns3:hr>
            <ns3:cad>0</ns3:cad>
          </ns3:TrackPointExtension>
        </extensions>
      </trkpt>
      <trkpt lat="44.690654464066028594970703125" lon="6.77496735937893390655517578125">
        <ele>2102.800048828125</ele>
        <time>2026-09-03T07:32:33.000Z</time>
        <extensions>
          <ns3:TrackPointExtension>
            <ns3:hr>171</ns3:hr>
            <ns3:cad>0</ns3:cad>
          </ns3:TrackPointExtension>
        </extensions>
      </trkpt>
      <trkpt lat="44.69064683653414249420166015625" lon="6.774977333843708038330078125">
        <ele>2103</ele>
        <time>2026-09-03T07:32:34.000Z</time>
        <extensions>
          <ns3:TrackPointExtension>
            <ns3:hr>171</ns3:hr>
            <ns3:cad>0</ns3:cad>
          </ns3:TrackPointExtension>
        </extensions>
      </trkpt>
      <trkpt lat="44.690643064677715301513671875" lon="6.77498110570013523101806640625">
        <ele>2103.39990234375</ele>
        <time>2026-09-03T07:32:35.000Z</time>
        <extensions>
          <ns3:TrackPointExtension>
            <ns3:hr>172</ns3:hr>
            <ns3:cad>0</ns3:cad>
          </ns3:TrackPointExtension>
        </extensions>
      </trkpt>
      <trkpt lat="44.69063594006001949310302734375" lon="6.77498864941298961639404296875">
        <ele>2103.60009765625</ele>
        <time>2026-09-03T07:32:36.000Z</time>
        <extensions>
          <ns3:TrackPointExtension>
            <ns3:hr>172</ns3:hr>
            <ns3:cad>0</ns3:cad>
          </ns3:TrackPointExtension>
        </extensions>
      </trkpt>
      <trkpt lat="44.6906375326216220855712890625" lon="6.77499937824904918670654296875">
        <ele>2103.800048828125</ele>
        <time>2026-09-03T07:32:37.000Z</time>
        <extensions>
          <ns3:TrackPointExtension>
            <ns3:hr>172</ns3:hr>
            <ns3:cad>0</ns3:cad>
          </ns3:TrackPointExtension>
        </extensions>
      </trkpt>
      <trkpt lat="44.69063342548906803131103515625" lon="6.7750140465795993804931640625">
        <ele>2104</ele>
        <time>2026-09-03T07:32:38.000Z</time>
        <extensions>
          <ns3:TrackPointExtension>
            <ns3:hr>172</ns3:hr>
            <ns3:cad>0</ns3:cad>
          </ns3:TrackPointExtension>
        </extensions>
      </trkpt>
      <trkpt lat="44.6906311623752117156982421875" lon="6.77502636797726154327392578125">
        <ele>2104.199951171875</ele>
        <time>2026-09-03T07:32:39.000Z</time>
        <extensions>
          <ns3:TrackPointExtension>
            <ns3:hr>173</ns3:hr>
            <ns3:cad>0</ns3:cad>
          </ns3:TrackPointExtension>
        </extensions>
      </trkpt>
      <trkpt lat="44.69062739051878452301025390625" lon="6.7750412039458751678466796875">
        <ele>2104.39990234375</ele>
        <time>2026-09-03T07:32:40.000Z</time>
        <extensions>
          <ns3:TrackPointExtension>
            <ns3:hr>173</ns3:hr>
            <ns3:cad>0</ns3:cad>
          </ns3:TrackPointExtension>
        </extensions>
      </trkpt>
      <trkpt lat="44.69062336720526218414306640625" lon="6.77505117841064929962158203125">
        <ele>2104.60009765625</ele>
        <time>2026-09-03T07:32:41.000Z</time>
        <extensions>
          <ns3:TrackPointExtension>
            <ns3:hr>173</ns3:hr>
            <ns3:cad>0</ns3:cad>
          </ns3:TrackPointExtension>
        </extensions>
      </trkpt>
      <trkpt lat="44.690618924796581268310546875" lon="6.77504681982100009918212890625">
        <ele>2104.800048828125</ele>
        <time>2026-09-03T07:32:42.000Z</time>
        <extensions>
          <ns3:TrackPointExtension>
            <ns3:hr>173</ns3:hr>
            <ns3:cad>0</ns3:cad>
          </ns3:TrackPointExtension>
        </extensions>
      </trkpt>
      <trkpt lat="44.6906120516359806060791015625" lon="6.77504799328744411468505859375">
        <ele>2105</ele>
        <time>2026-09-03T07:32:43.000Z</time>
        <extensions>
          <ns3:TrackPointExtension>
            <ns3:hr>173</ns3:hr>
            <ns3:cad>0</ns3:cad>
          </ns3:TrackPointExtension>
        </extensions>
      </trkpt>
      <trkpt lat="44.6906112134456634521484375" lon="6.77505251951515674591064453125">
        <ele>2105.199951171875</ele>
        <time>2026-09-03T07:32:44.000Z</time>
        <extensions>
          <ns3:TrackPointExtension>
            <ns3:hr>173</ns3:hr>
            <ns3:cad>0</ns3:cad>
          </ns3:TrackPointExtension>
        </extensions>
      </trkpt>
      <trkpt lat="44.6906070224940776824951171875" lon="6.77506526000797748565673828125">
        <ele>2105.39990234375</ele>
        <time>2026-09-03T07:32:45.000Z</time>
        <extensions>
          <ns3:TrackPointExtension>
            <ns3:hr>174</ns3:hr>
            <ns3:cad>0</ns3:cad>
          </ns3:TrackPointExtension>
        </extensions>
      </trkpt>
      <trkpt lat="44.690604172646999359130859375" lon="6.7750740610063076019287109375">
        <ele>2105.60009765625</ele>
        <time>2026-09-03T07:32:46.000Z</time>
        <extensions>
          <ns3:TrackPointExtension>
            <ns3:hr>174</ns3:hr>
            <ns3:cad>0</ns3:cad>
          </ns3:TrackPointExtension>
        </extensions>
      </trkpt>
      <trkpt lat="44.69059788621962070465087890625" lon="6.77508755587041378021240234375">
        <ele>2105.800048828125</ele>
        <time>2026-09-03T07:32:47.000Z</time>
        <extensions>
          <ns3:TrackPointExtension>
            <ns3:hr>173</ns3:hr>
            <ns3:cad>0</ns3:cad>
          </ns3:TrackPointExtension>
        </extensions>
      </trkpt>
      <trkpt lat="44.69059771858155727386474609375" lon="6.77509711124002933502197265625">
        <ele>2106</ele>
        <time>2026-09-03T07:32:48.000Z</time>
        <extensions>
          <ns3:TrackPointExtension>
            <ns3:hr>173</ns3:hr>
            <ns3:cad>0</ns3:cad>
          </ns3:TrackPointExtension>
        </extensions>
      </trkpt>
      <trkpt lat="44.690595455467700958251953125" lon="6.77510331384837627410888671875">
        <ele>2106.39990234375</ele>
        <time>2026-09-03T07:32:49.000Z</time>
        <extensions>
          <ns3:TrackPointExtension>
            <ns3:hr>173</ns3:hr>
            <ns3:cad>0</ns3:cad>
          </ns3:TrackPointExtension>
        </extensions>
      </trkpt>
      <trkpt lat="44.69059486873447895050048828125" lon="6.77511437796056270599365234375">
        <ele>2106.39990234375</ele>
        <time>2026-09-03T07:32:50.000Z</time>
        <extensions>
          <ns3:TrackPointExtension>
            <ns3:hr>173</ns3:hr>
            <ns3:cad>0</ns3:cad>
          </ns3:TrackPointExtension>
        </extensions>
      </trkpt>
      <trkpt lat="44.6905986405909061431884765625" lon="6.77510909736156463623046875">
        <ele>2106.60009765625</ele>
        <time>2026-09-03T07:32:51.000Z</time>
        <extensions>
          <ns3:TrackPointExtension>
            <ns3:hr>173</ns3:hr>
            <ns3:cad>0</ns3:cad>
          </ns3:TrackPointExtension>
        </extensions>
      </trkpt>
      <trkpt lat="44.6905966289341449737548828125" lon="6.77512426860630512237548828125">
        <ele>2107</ele>
        <time>2026-09-03T07:32:52.000Z</time>
        <extensions>
          <ns3:TrackPointExtension>
            <ns3:hr>173</ns3:hr>
            <ns3:cad>0</ns3:cad>
          </ns3:TrackPointExtension>
        </extensions>
      </trkpt>
      <trkpt lat="44.6905936114490032196044921875" lon="6.7751323990523815155029296875">
        <ele>2107.199951171875</ele>
        <time>2026-09-03T07:32:53.000Z</time>
        <extensions>
          <ns3:TrackPointExtension>
            <ns3:hr>172</ns3:hr>
            <ns3:cad>0</ns3:cad>
          </ns3:TrackPointExtension>
        </extensions>
      </trkpt>
      <trkpt lat="44.6905939467251300811767578125" lon="6.7751444689929485321044921875">
        <ele>2107.39990234375</ele>
        <time>2026-09-03T07:32:54.000Z</time>
        <extensions>
          <ns3:TrackPointExtension>
            <ns3:hr>173</ns3:hr>
            <ns3:cad>0</ns3:cad>
          </ns3:TrackPointExtension>
        </extensions>
      </trkpt>
      <trkpt lat="44.69058983959257602691650390625" lon="6.77516114898025989532470703125">
        <ele>2107.60009765625</ele>
        <time>2026-09-03T07:32:55.000Z</time>
        <extensions>
          <ns3:TrackPointExtension>
            <ns3:hr>173</ns3:hr>
            <ns3:cad>0</ns3:cad>
          </ns3:TrackPointExtension>
        </extensions>
      </trkpt>
      <trkpt lat="44.69058514572679996490478515625" lon="6.775169111788272857666015625">
        <ele>2107.800048828125</ele>
        <time>2026-09-03T07:32:56.000Z</time>
        <extensions>
          <ns3:TrackPointExtension>
            <ns3:hr>176</ns3:hr>
            <ns3:cad>0</ns3:cad>
          </ns3:TrackPointExtension>
        </extensions>
      </trkpt>
      <trkpt lat="44.6905822120606899261474609375" lon="6.7751800082623958587646484375">
        <ele>2108</ele>
        <time>2026-09-03T07:32:57.000Z</time>
        <extensions>
          <ns3:TrackPointExtension>
            <ns3:hr>176</ns3:hr>
            <ns3:cad>0</ns3:cad>
          </ns3:TrackPointExtension>
        </extensions>
      </trkpt>
      <trkpt lat="44.6905798651278018951416015625" lon="6.77518713288009166717529296875">
        <ele>2108.199951171875</ele>
        <time>2026-09-03T07:32:58.000Z</time>
        <extensions>
          <ns3:TrackPointExtension>
            <ns3:hr>175</ns3:hr>
            <ns3:cad>0</ns3:cad>
          </ns3:TrackPointExtension>
        </extensions>
      </trkpt>
      <trkpt lat="44.69057567417621612548828125" lon="6.7751997895538806915283203125">
        <ele>2108.199951171875</ele>
        <time>2026-09-03T07:32:59.000Z</time>
        <extensions>
          <ns3:TrackPointExtension>
            <ns3:hr>175</ns3:hr>
            <ns3:cad>0</ns3:cad>
          </ns3:TrackPointExtension>
        </extensions>
      </trkpt>
      <trkpt lat="44.69057626090943813323974609375" lon="6.775213368237018585205078125">
        <ele>2108.39990234375</ele>
        <time>2026-09-03T07:33:00.000Z</time>
        <extensions>
          <ns3:TrackPointExtension>
            <ns3:hr>175</ns3:hr>
            <ns3:cad>0</ns3:cad>
          </ns3:TrackPointExtension>
        </extensions>
      </trkpt>
      <trkpt lat="44.69057626090943813323974609375" lon="6.7752318084239959716796875">
        <ele>2108.60009765625</ele>
        <time>2026-09-03T07:33:01.000Z</time>
        <extensions>
          <ns3:TrackPointExtension>
            <ns3:hr>175</ns3:hr>
            <ns3:cad>0</ns3:cad>
          </ns3:TrackPointExtension>
        </extensions>
      </trkpt>
      <trkpt lat="44.69057433307170867919921875" lon="6.77525066770613193511962890625">
        <ele>2108.60009765625</ele>
        <time>2026-09-03T07:33:02.000Z</time>
        <extensions>
          <ns3:TrackPointExtension>
            <ns3:hr>175</ns3:hr>
            <ns3:cad>0</ns3:cad>
          </ns3:TrackPointExtension>
        </extensions>
      </trkpt>
      <trkpt lat="44.690573997795581817626953125" lon="6.77526793442666530609130859375">
        <ele>2108.800048828125</ele>
        <time>2026-09-03T07:33:03.000Z</time>
        <extensions>
          <ns3:TrackPointExtension>
            <ns3:hr>175</ns3:hr>
            <ns3:cad>0</ns3:cad>
          </ns3:TrackPointExtension>
        </extensions>
      </trkpt>
      <trkpt lat="44.6905748359858989715576171875" lon="6.7752772383391857147216796875">
        <ele>2109</ele>
        <time>2026-09-03T07:33:04.000Z</time>
        <extensions>
          <ns3:TrackPointExtension>
            <ns3:hr>175</ns3:hr>
            <ns3:cad>0</ns3:cad>
          </ns3:TrackPointExtension>
        </extensions>
      </trkpt>
      <trkpt lat="44.6905738301575183868408203125" lon="6.77529559470713138580322265625">
        <ele>2109.199951171875</ele>
        <time>2026-09-03T07:33:05.000Z</time>
        <extensions>
          <ns3:TrackPointExtension>
            <ns3:hr>175</ns3:hr>
            <ns3:cad>0</ns3:cad>
          </ns3:TrackPointExtension>
        </extensions>
      </trkpt>
      <trkpt lat="44.69057274051010608673095703125" lon="6.77531185559928417205810546875">
        <ele>2109.39990234375</ele>
        <time>2026-09-03T07:33:06.000Z</time>
        <extensions>
          <ns3:TrackPointExtension>
            <ns3:hr>175</ns3:hr>
            <ns3:cad>0</ns3:cad>
          </ns3:TrackPointExtension>
        </extensions>
      </trkpt>
      <trkpt lat="44.69057508744299411773681640625" lon="6.77532945759594440460205078125">
        <ele>2109.60009765625</ele>
        <time>2026-09-03T07:33:07.000Z</time>
        <extensions>
          <ns3:TrackPointExtension>
            <ns3:hr>175</ns3:hr>
            <ns3:cad>0</ns3:cad>
          </ns3:TrackPointExtension>
        </extensions>
      </trkpt>
      <trkpt lat="44.6905738301575183868408203125" lon="6.77534454502165317535400390625">
        <ele>2109.60009765625</ele>
        <time>2026-09-03T07:33:08.000Z</time>
        <extensions>
          <ns3:TrackPointExtension>
            <ns3:hr>175</ns3:hr>
            <ns3:cad>0</ns3:cad>
          </ns3:TrackPointExtension>
        </extensions>
      </trkpt>
      <trkpt lat="44.69057642854750156402587890625" lon="6.77535678260028362274169921875">
        <ele>2109.800048828125</ele>
        <time>2026-09-03T07:33:09.000Z</time>
        <extensions>
          <ns3:TrackPointExtension>
            <ns3:hr>175</ns3:hr>
            <ns3:cad>0</ns3:cad>
          </ns3:TrackPointExtension>
        </extensions>
      </trkpt>
      <trkpt lat="44.690577685832977294921875" lon="6.77537371404469013214111328125">
        <ele>2110</ele>
        <time>2026-09-03T07:33:10.000Z</time>
        <extensions>
          <ns3:TrackPointExtension>
            <ns3:hr>175</ns3:hr>
            <ns3:cad>56</ns3:cad>
          </ns3:TrackPointExtension>
        </extensions>
      </trkpt>
      <trkpt lat="44.690578021109104156494140625" lon="6.77539433352649211883544921875">
        <ele>2110.199951171875</ele>
        <time>2026-09-03T07:33:11.000Z</time>
        <extensions>
          <ns3:TrackPointExtension>
            <ns3:hr>175</ns3:hr>
            <ns3:cad>56</ns3:cad>
          </ns3:TrackPointExtension>
        </extensions>
      </trkpt>
      <trkpt lat="44.69057726673781871795654296875" lon="6.77541512064635753631591796875">
        <ele>2110.199951171875</ele>
        <time>2026-09-03T07:33:12.000Z</time>
        <extensions>
          <ns3:TrackPointExtension>
            <ns3:hr>174</ns3:hr>
            <ns3:cad>56</ns3:cad>
          </ns3:TrackPointExtension>
        </extensions>
      </trkpt>
      <trkpt lat="44.6905771829187870025634765625" lon="6.77542693912982940673828125">
        <ele>2110.39990234375</ele>
        <time>2026-09-03T07:33:13.000Z</time>
        <extensions>
          <ns3:TrackPointExtension>
            <ns3:hr>174</ns3:hr>
            <ns3:cad>56</ns3:cad>
          </ns3:TrackPointExtension>
        </extensions>
      </trkpt>
      <trkpt lat="44.69057458452880382537841796875" lon="6.77543892525136470794677734375">
        <ele>2110.60009765625</ele>
        <time>2026-09-03T07:33:14.000Z</time>
        <extensions>
          <ns3:TrackPointExtension>
            <ns3:hr>173</ns3:hr>
            <ns3:cad>0</ns3:cad>
          </ns3:TrackPointExtension>
        </extensions>
      </trkpt>
      <trkpt lat="44.690573997795581817626953125" lon="6.775451414287090301513671875">
        <ele>2110.800048828125</ele>
        <time>2026-09-03T07:33:15.000Z</time>
        <extensions>
          <ns3:TrackPointExtension>
            <ns3:hr>173</ns3:hr>
            <ns3:cad>0</ns3:cad>
          </ns3:TrackPointExtension>
        </extensions>
      </trkpt>
      <trkpt lat="44.6905738301575183868408203125" lon="6.77546449005603790283203125">
        <ele>2111</ele>
        <time>2026-09-03T07:33:16.000Z</time>
        <extensions>
          <ns3:TrackPointExtension>
            <ns3:hr>173</ns3:hr>
            <ns3:cad>55</ns3:cad>
          </ns3:TrackPointExtension>
        </extensions>
      </trkpt>
      <trkpt lat="44.69057206995785236358642578125" lon="6.77546977065503597259521484375">
        <ele>2111.199951171875</ele>
        <time>2026-09-03T07:33:17.000Z</time>
        <extensions>
          <ns3:TrackPointExtension>
            <ns3:hr>172</ns3:hr>
            <ns3:cad>55</ns3:cad>
          </ns3:TrackPointExtension>
        </extensions>
      </trkpt>
      <trkpt lat="44.6905711479485034942626953125" lon="6.7754812538623809814453125">
        <ele>2111.39990234375</ele>
        <time>2026-09-03T07:33:18.000Z</time>
        <extensions>
          <ns3:TrackPointExtension>
            <ns3:hr>172</ns3:hr>
            <ns3:cad>54</ns3:cad>
          </ns3:TrackPointExtension>
        </extensions>
      </trkpt>
      <trkpt lat="44.6905709803104400634765625" lon="6.77548904903233051300048828125">
        <ele>2111.60009765625</ele>
        <time>2026-09-03T07:33:19.000Z</time>
        <extensions>
          <ns3:TrackPointExtension>
            <ns3:hr>172</ns3:hr>
            <ns3:cad>54</ns3:cad>
          </ns3:TrackPointExtension>
        </extensions>
      </trkpt>
      <trkpt lat="44.69057190231978893280029296875" lon="6.77549927495419979095458984375">
        <ele>2111.800048828125</ele>
        <time>2026-09-03T07:33:20.000Z</time>
        <extensions>
          <ns3:TrackPointExtension>
            <ns3:hr>172</ns3:hr>
            <ns3:cad>54</ns3:cad>
          </ns3:TrackPointExtension>
        </extensions>
      </trkpt>
      <trkpt lat="44.6905696392059326171875" lon="6.77551251836121082305908203125">
        <ele>2112</ele>
        <time>2026-09-03T07:33:21.000Z</time>
        <extensions>
          <ns3:TrackPointExtension>
            <ns3:hr>171</ns3:hr>
            <ns3:cad>54</ns3:cad>
          </ns3:TrackPointExtension>
        </extensions>
      </trkpt>
      <trkpt lat="44.6905674599111080169677734375" lon="6.7755250073969364166259765625">
        <ele>2112.199951171875</ele>
        <time>2026-09-03T07:33:22.000Z</time>
        <extensions>
          <ns3:TrackPointExtension>
            <ns3:hr>171</ns3:hr>
            <ns3:cad>53</ns3:cad>
          </ns3:TrackPointExtension>
        </extensions>
      </trkpt>
      <trkpt lat="44.69056519679725170135498046875" lon="6.7755404300987720489501953125">
        <ele>2112.39990234375</ele>
        <time>2026-09-03T07:33:23.000Z</time>
        <extensions>
          <ns3:TrackPointExtension>
            <ns3:hr>171</ns3:hr>
            <ns3:cad>52</ns3:cad>
          </ns3:TrackPointExtension>
        </extensions>
      </trkpt>
      <trkpt lat="44.6905624307692050933837890625" lon="6.77555610425770282745361328125">
        <ele>2112.60009765625</ele>
        <time>2026-09-03T07:33:24.000Z</time>
        <extensions>
          <ns3:TrackPointExtension>
            <ns3:hr>170</ns3:hr>
            <ns3:cad>53</ns3:cad>
          </ns3:TrackPointExtension>
        </extensions>
      </trkpt>
      <trkpt lat="44.69055958092212677001953125" lon="6.7755669169127941131591796875">
        <ele>2112.800048828125</ele>
        <time>2026-09-03T07:33:25.000Z</time>
        <extensions>
          <ns3:TrackPointExtension>
            <ns3:hr>170</ns3:hr>
            <ns3:cad>53</ns3:cad>
          </ns3:TrackPointExtension>
        </extensions>
      </trkpt>
      <trkpt lat="44.6905557252466678619384765625" lon="6.77557622082531452178955078125">
        <ele>2112.800048828125</ele>
        <time>2026-09-03T07:33:26.000Z</time>
        <extensions>
          <ns3:TrackPointExtension>
            <ns3:hr>170</ns3:hr>
            <ns3:cad>53</ns3:cad>
          </ns3:TrackPointExtension>
        </extensions>
      </trkpt>
      <trkpt lat="44.69055354595184326171875" lon="6.77558250725269317626953125">
        <ele>2113</ele>
        <time>2026-09-03T07:33:27.000Z</time>
        <extensions>
          <ns3:TrackPointExtension>
            <ns3:hr>170</ns3:hr>
            <ns3:cad>54</ns3:cad>
          </ns3:TrackPointExtension>
        </extensions>
      </trkpt>
      <trkpt lat="44.69054927118122577667236328125" lon="6.7755950801074504852294921875">
        <ele>2113.199951171875</ele>
        <time>2026-09-03T07:33:28.000Z</time>
        <extensions>
          <ns3:TrackPointExtension>
            <ns3:hr>170</ns3:hr>
            <ns3:cad>54</ns3:cad>
          </ns3:TrackPointExtension>
        </extensions>
      </trkpt>
      <trkpt lat="44.6905449964106082916259765625" lon="6.775603629648685455322265625">
        <ele>2113.39990234375</ele>
        <time>2026-09-03T07:33:29.000Z</time>
        <extensions>
          <ns3:TrackPointExtension>
            <ns3:hr>170</ns3:hr>
            <ns3:cad>54</ns3:cad>
          </ns3:TrackPointExtension>
        </extensions>
      </trkpt>
      <trkpt lat="44.6905416436493396759033203125" lon="6.77561813034117221832275390625">
        <ele>2113.39990234375</ele>
        <time>2026-09-03T07:33:30.000Z</time>
        <extensions>
          <ns3:TrackPointExtension>
            <ns3:hr>170</ns3:hr>
            <ns3:cad>54</ns3:cad>
          </ns3:TrackPointExtension>
        </extensions>
      </trkpt>
      <trkpt lat="44.6905366145074367523193359375" lon="6.7756312899291515350341796875">
        <ele>2113.60009765625</ele>
        <time>2026-09-03T07:33:31.000Z</time>
        <extensions>
          <ns3:TrackPointExtension>
            <ns3:hr>170</ns3:hr>
            <ns3:cad>54</ns3:cad>
          </ns3:TrackPointExtension>
        </extensions>
      </trkpt>
      <trkpt lat="44.690530411899089813232421875" lon="6.77564227022230625152587890625">
        <ele>2113.800048828125</ele>
        <time>2026-09-03T07:33:32.000Z</time>
        <extensions>
          <ns3:TrackPointExtension>
            <ns3:hr>170</ns3:hr>
            <ns3:cad>54</ns3:cad>
          </ns3:TrackPointExtension>
        </extensions>
      </trkpt>
      <trkpt lat="44.69052546657621860504150390625" lon="6.77565224468708038330078125">
        <ele>2114</ele>
        <time>2026-09-03T07:33:33.000Z</time>
        <extensions>
          <ns3:TrackPointExtension>
            <ns3:hr>170</ns3:hr>
            <ns3:cad>54</ns3:cad>
          </ns3:TrackPointExtension>
        </extensions>
      </trkpt>
      <trkpt lat="44.69051859341561794281005859375" lon="6.77566741593182086944580078125">
        <ele>2114.199951171875</ele>
        <time>2026-09-03T07:33:34.000Z</time>
        <extensions>
          <ns3:TrackPointExtension>
            <ns3:hr>170</ns3:hr>
            <ns3:cad>54</ns3:cad>
          </ns3:TrackPointExtension>
        </extensions>
      </trkpt>
      <trkpt lat="44.69051054678857326507568359375" lon="6.77568200044333934783935546875">
        <ele>2114.39990234375</ele>
        <time>2026-09-03T07:33:35.000Z</time>
        <extensions>
          <ns3:TrackPointExtension>
            <ns3:hr>169</ns3:hr>
            <ns3:cad>0</ns3:cad>
          </ns3:TrackPointExtension>
        </extensions>
      </trkpt>
      <trkpt lat="44.69049780629575252532958984375" lon="6.7756889574229717254638671875">
        <ele>2114.60009765625</ele>
        <time>2026-09-03T07:33:36.000Z</time>
        <extensions>
          <ns3:TrackPointExtension>
            <ns3:hr>168</ns3:hr>
            <ns3:cad>0</ns3:cad>
          </ns3:TrackPointExtension>
        </extensions>
      </trkpt>
      <trkpt lat="44.69049160368740558624267578125" lon="6.77569759078323841094970703125">
        <ele>2114.800048828125</ele>
        <time>2026-09-03T07:33:37.000Z</time>
        <extensions>
          <ns3:TrackPointExtension>
            <ns3:hr>168</ns3:hr>
            <ns3:cad>0</ns3:cad>
          </ns3:TrackPointExtension>
        </extensions>
      </trkpt>
      <trkpt lat="44.6904866583645343780517578125" lon="6.77570278756320476531982421875">
        <ele>2115</ele>
        <time>2026-09-03T07:33:38.000Z</time>
        <extensions>
          <ns3:TrackPointExtension>
            <ns3:hr>167</ns3:hr>
            <ns3:cad>0</ns3:cad>
          </ns3:TrackPointExtension>
        </extensions>
      </trkpt>
      <trkpt lat="44.69048087485134601593017578125" lon="6.7757110856473445892333984375">
        <ele>2115.199951171875</ele>
        <time>2026-09-03T07:33:39.000Z</time>
        <extensions>
          <ns3:TrackPointExtension>
            <ns3:hr>167</ns3:hr>
            <ns3:cad>0</ns3:cad>
          </ns3:TrackPointExtension>
        </extensions>
      </trkpt>
      <trkpt lat="44.6904759295284748077392578125" lon="6.7757117561995983123779296875">
        <ele>2115.39990234375</ele>
        <time>2026-09-03T07:33:40.000Z</time>
        <extensions>
          <ns3:TrackPointExtension>
            <ns3:hr>167</ns3:hr>
            <ns3:cad>0</ns3:cad>
          </ns3:TrackPointExtension>
        </extensions>
      </trkpt>
      <trkpt lat="44.69046972692012786865234375" lon="6.77572106011211872100830078125">
        <ele>2115.60009765625</ele>
        <time>2026-09-03T07:33:41.000Z</time>
        <extensions>
          <ns3:TrackPointExtension>
            <ns3:hr>167</ns3:hr>
            <ns3:cad>0</ns3:cad>
          </ns3:TrackPointExtension>
        </extensions>
      </trkpt>
      <trkpt lat="44.6904658712446689605712890625" lon="6.77572893910109996795654296875">
        <ele>2115.800048828125</ele>
        <time>2026-09-03T07:33:42.000Z</time>
        <extensions>
          <ns3:TrackPointExtension>
            <ns3:hr>167</ns3:hr>
            <ns3:cad>0</ns3:cad>
          </ns3:TrackPointExtension>
        </extensions>
      </trkpt>
      <trkpt lat="44.6904635243117809295654296875" lon="6.77574167959392070770263671875">
        <ele>2116</ele>
        <time>2026-09-03T07:33:43.000Z</time>
        <extensions>
          <ns3:TrackPointExtension>
            <ns3:hr>167</ns3:hr>
            <ns3:cad>0</ns3:cad>
          </ns3:TrackPointExtension>
        </extensions>
      </trkpt>
      <trkpt lat="44.6904675476253032684326171875" lon="6.77575039677321910858154296875">
        <ele>2116.199951171875</ele>
        <time>2026-09-03T07:33:44.000Z</time>
        <extensions>
          <ns3:TrackPointExtension>
            <ns3:hr>168</ns3:hr>
            <ns3:cad>0</ns3:cad>
          </ns3:TrackPointExtension>
        </extensions>
      </trkpt>
      <trkpt lat="44.69047048129141330718994140625" lon="6.77576162852346897125244140625">
        <ele>2116.60009765625</ele>
        <time>2026-09-03T07:33:45.000Z</time>
        <extensions>
          <ns3:TrackPointExtension>
            <ns3:hr>168</ns3:hr>
            <ns3:cad>0</ns3:cad>
          </ns3:TrackPointExtension>
        </extensions>
      </trkpt>
      <trkpt lat="44.69047366641461849212646484375" lon="6.7757707647979259490966796875">
        <ele>2116.800048828125</ele>
        <time>2026-09-03T07:33:46.000Z</time>
        <extensions>
          <ns3:TrackPointExtension>
            <ns3:hr>168</ns3:hr>
            <ns3:cad>0</ns3:cad>
          </ns3:TrackPointExtension>
        </extensions>
      </trkpt>
      <trkpt lat="44.69047534279525279998779296875" lon="6.77577830851078033447265625">
        <ele>2117</ele>
        <time>2026-09-03T07:33:47.000Z</time>
        <extensions>
          <ns3:TrackPointExtension>
            <ns3:hr>168</ns3:hr>
            <ns3:cad>0</ns3:cad>
          </ns3:TrackPointExtension>
        </extensions>
      </trkpt>
      <trkpt lat="44.69047752209007740020751953125" lon="6.77579163573682308197021484375">
        <ele>2117.199951171875</ele>
        <time>2026-09-03T07:33:48.000Z</time>
        <extensions>
          <ns3:TrackPointExtension>
            <ns3:hr>167</ns3:hr>
            <ns3:cad>0</ns3:cad>
          </ns3:TrackPointExtension>
        </extensions>
      </trkpt>
      <trkpt lat="44.6904739178717136383056640625" lon="6.77579448558390140533447265625">
        <ele>2117.39990234375</ele>
        <time>2026-09-03T07:33:49.000Z</time>
        <extensions>
          <ns3:TrackPointExtension>
            <ns3:hr>167</ns3:hr>
            <ns3:cad>0</ns3:cad>
          </ns3:TrackPointExtension>
        </extensions>
      </trkpt>
      <trkpt lat="44.69047467224299907684326171875" lon="6.77581326104700565338134765625">
        <ele>2117.60009765625</ele>
        <time>2026-09-03T07:33:50.000Z</time>
        <extensions>
          <ns3:TrackPointExtension>
            <ns3:hr>167</ns3:hr>
            <ns3:cad>0</ns3:cad>
          </ns3:TrackPointExtension>
        </extensions>
      </trkpt>
      <trkpt lat="44.69047844409942626953125" lon="6.775829605758190155029296875">
        <ele>2117.800048828125</ele>
        <time>2026-09-03T07:33:51.000Z</time>
        <extensions>
          <ns3:TrackPointExtension>
            <ns3:hr>167</ns3:hr>
            <ns3:cad>0</ns3:cad>
          </ns3:TrackPointExtension>
        </extensions>
      </trkpt>
      <trkpt lat="44.69048003666102886199951171875" lon="6.7758498899638652801513671875">
        <ele>2118</ele>
        <time>2026-09-03T07:33:52.000Z</time>
        <extensions>
          <ns3:TrackPointExtension>
            <ns3:hr>168</ns3:hr>
            <ns3:cad>0</ns3:cad>
          </ns3:TrackPointExtension>
        </extensions>
      </trkpt>
      <trkpt lat="44.69047886319458484649658203125" lon="6.77586372010409832000732421875">
        <ele>2118.199951171875</ele>
        <time>2026-09-03T07:33:53.000Z</time>
        <extensions>
          <ns3:TrackPointExtension>
            <ns3:hr>167</ns3:hr>
            <ns3:cad>0</ns3:cad>
          </ns3:TrackPointExtension>
        </extensions>
      </trkpt>
      <trkpt lat="44.690480791032314300537109375" lon="6.77587562240660190582275390625">
        <ele>2118.39990234375</ele>
        <time>2026-09-03T07:33:54.000Z</time>
        <extensions>
          <ns3:TrackPointExtension>
            <ns3:hr>167</ns3:hr>
            <ns3:cad>0</ns3:cad>
          </ns3:TrackPointExtension>
        </extensions>
      </trkpt>
      <trkpt lat="44.69047970138490200042724609375" lon="6.7758867703378200531005859375">
        <ele>2118.60009765625</ele>
        <time>2026-09-03T07:33:55.000Z</time>
        <extensions>
          <ns3:TrackPointExtension>
            <ns3:hr>168</ns3:hr>
            <ns3:cad>0</ns3:cad>
          </ns3:TrackPointExtension>
        </extensions>
      </trkpt>
      <trkpt lat="44.69047752209007740020751953125" lon="6.7758943140506744384765625">
        <ele>2118.800048828125</ele>
        <time>2026-09-03T07:33:56.000Z</time>
        <extensions>
          <ns3:TrackPointExtension>
            <ns3:hr>168</ns3:hr>
            <ns3:cad>0</ns3:cad>
          </ns3:TrackPointExtension>
        </extensions>
      </trkpt>
      <trkpt lat="44.69047718681395053863525390625" lon="6.77591367624700069427490234375">
        <ele>2119</ele>
        <time>2026-09-03T07:33:57.000Z</time>
        <extensions>
          <ns3:TrackPointExtension>
            <ns3:hr>170</ns3:hr>
            <ns3:cad>0</ns3:cad>
          </ns3:TrackPointExtension>
        </extensions>
      </trkpt>
      <trkpt lat="44.69047601334750652313232421875" lon="6.77592046558856964111328125">
        <ele>2119.199951171875</ele>
        <time>2026-09-03T07:33:58.000Z</time>
        <extensions>
          <ns3:TrackPointExtension>
            <ns3:hr>170</ns3:hr>
            <ns3:cad>0</ns3:cad>
          </ns3:TrackPointExtension>
        </extensions>
      </trkpt>
      <trkpt lat="44.690474085509777069091796875" lon="6.77593731321394443511962890625">
        <ele>2119.39990234375</ele>
        <time>2026-09-03T07:33:59.000Z</time>
        <extensions>
          <ns3:TrackPointExtension>
            <ns3:hr>170</ns3:hr>
            <ns3:cad>0</ns3:cad>
          </ns3:TrackPointExtension>
        </extensions>
      </trkpt>
      <trkpt lat="44.69047299586236476898193359375" lon="6.7759487964212894439697265625">
        <ele>2119.800048828125</ele>
        <time>2026-09-03T07:34:00.000Z</time>
        <extensions>
          <ns3:TrackPointExtension>
            <ns3:hr>171</ns3:hr>
            <ns3:cad>0</ns3:cad>
          </ns3:TrackPointExtension>
        </extensions>
      </trkpt>
      <trkpt lat="44.69047199003398418426513671875" lon="6.77596413530409336090087890625">
        <ele>2120</ele>
        <time>2026-09-03T07:34:01.000Z</time>
        <extensions>
          <ns3:TrackPointExtension>
            <ns3:hr>170</ns3:hr>
            <ns3:cad>0</ns3:cad>
          </ns3:TrackPointExtension>
        </extensions>
      </trkpt>
      <trkpt lat="44.69046964310109615325927734375" lon="6.77597369067370891571044921875">
        <ele>2120.199951171875</ele>
        <time>2026-09-03T07:34:02.000Z</time>
        <extensions>
          <ns3:TrackPointExtension>
            <ns3:hr>171</ns3:hr>
            <ns3:cad>0</ns3:cad>
          </ns3:TrackPointExtension>
        </extensions>
      </trkpt>
      <trkpt lat="44.69046260230243206024169921875" lon="6.77599246613681316375732421875">
        <ele>2120.39990234375</ele>
        <time>2026-09-03T07:34:03.000Z</time>
        <extensions>
          <ns3:TrackPointExtension>
            <ns3:hr>171</ns3:hr>
            <ns3:cad>0</ns3:cad>
          </ns3:TrackPointExtension>
        </extensions>
      </trkpt>
      <trkpt lat="44.69045774079859256744384765625" lon="6.7760054580867290496826171875">
        <ele>2120.800048828125</ele>
        <time>2026-09-03T07:34:04.000Z</time>
        <extensions>
          <ns3:TrackPointExtension>
            <ns3:hr>171</ns3:hr>
            <ns3:cad>0</ns3:cad>
          </ns3:TrackPointExtension>
        </extensions>
      </trkpt>
      <trkpt lat="44.69045371748507022857666015625" lon="6.7760158516466617584228515625">
        <ele>2121</ele>
        <time>2026-09-03T07:34:05.000Z</time>
        <extensions>
          <ns3:TrackPointExtension>
            <ns3:hr>171</ns3:hr>
            <ns3:cad>0</ns3:cad>
          </ns3:TrackPointExtension>
        </extensions>
      </trkpt>
      <trkpt lat="44.69044818542897701263427734375" lon="6.7760299332439899444580078125">
        <ele>2121.199951171875</ele>
        <time>2026-09-03T07:34:06.000Z</time>
        <extensions>
          <ns3:TrackPointExtension>
            <ns3:hr>171</ns3:hr>
            <ns3:cad>0</ns3:cad>
          </ns3:TrackPointExtension>
        </extensions>
      </trkpt>
      <trkpt lat="44.690443575382232666015625" lon="6.77603018470108509063720703125">
        <ele>2121.39990234375</ele>
        <time>2026-09-03T07:34:07.000Z</time>
        <extensions>
          <ns3:TrackPointExtension>
            <ns3:hr>171</ns3:hr>
            <ns3:cad>0</ns3:cad>
          </ns3:TrackPointExtension>
        </extensions>
      </trkpt>
      <trkpt lat="44.69044315628707408905029296875" lon="6.77603001706302165985107421875">
        <ele>2121.60009765625</ele>
        <time>2026-09-03T07:34:08.000Z</time>
        <extensions>
          <ns3:TrackPointExtension>
            <ns3:hr>171</ns3:hr>
            <ns3:cad>0</ns3:cad>
          </ns3:TrackPointExtension>
        </extensions>
      </trkpt>
      <trkpt lat="44.69043930061161518096923828125" lon="6.77603789605200290679931640625">
        <ele>2121.800048828125</ele>
        <time>2026-09-03T07:34:09.000Z</time>
        <extensions>
          <ns3:TrackPointExtension>
            <ns3:hr>171</ns3:hr>
            <ns3:cad>0</ns3:cad>
          </ns3:TrackPointExtension>
        </extensions>
      </trkpt>
      <trkpt lat="44.690432846546173095703125" lon="6.77604543976485729217529296875">
        <ele>2121.800048828125</ele>
        <time>2026-09-03T07:34:10.000Z</time>
        <extensions>
          <ns3:TrackPointExtension>
            <ns3:hr>171</ns3:hr>
            <ns3:cad>0</ns3:cad>
          </ns3:TrackPointExtension>
        </extensions>
      </trkpt>
      <trkpt lat="44.6904273144900798797607421875" lon="6.77604921162128448486328125">
        <ele>2122</ele>
        <time>2026-09-03T07:34:11.000Z</time>
        <extensions>
          <ns3:TrackPointExtension>
            <ns3:hr>172</ns3:hr>
            <ns3:cad>0</ns3:cad>
          </ns3:TrackPointExtension>
        </extensions>
      </trkpt>
      <trkpt lat="44.6904209442436695098876953125" lon="6.7760587669909000396728515625">
        <ele>2122.199951171875</ele>
        <time>2026-09-03T07:34:12.000Z</time>
        <extensions>
          <ns3:TrackPointExtension>
            <ns3:hr>172</ns3:hr>
            <ns3:cad>0</ns3:cad>
          </ns3:TrackPointExtension>
        </extensions>
      </trkpt>
      <trkpt lat="44.690416753292083740234375" lon="6.776063628494739532470703125">
        <ele>2122.39990234375</ele>
        <time>2026-09-03T07:34:13.000Z</time>
        <extensions>
          <ns3:TrackPointExtension>
            <ns3:hr>172</ns3:hr>
            <ns3:cad>0</ns3:cad>
          </ns3:TrackPointExtension>
        </extensions>
      </trkpt>
      <trkpt lat="44.6904132328927516937255859375" lon="6.77607544697821140289306640625">
        <ele>2122.60009765625</ele>
        <time>2026-09-03T07:34:14.000Z</time>
        <extensions>
          <ns3:TrackPointExtension>
            <ns3:hr>172</ns3:hr>
            <ns3:cad>0</ns3:cad>
          </ns3:TrackPointExtension>
        </extensions>
      </trkpt>
      <trkpt lat="44.6904118917882442474365234375" lon="6.77608449943363666534423828125">
        <ele>2123</ele>
        <time>2026-09-03T07:34:15.000Z</time>
        <extensions>
          <ns3:TrackPointExtension>
            <ns3:hr>172</ns3:hr>
            <ns3:cad>0</ns3:cad>
          </ns3:TrackPointExtension>
        </extensions>
      </trkpt>
      <trkpt lat="44.6904145739972591400146484375" lon="6.7760906182229518890380859375">
        <ele>2123.199951171875</ele>
        <time>2026-09-03T07:34:16.000Z</time>
        <extensions>
          <ns3:TrackPointExtension>
            <ns3:hr>173</ns3:hr>
            <ns3:cad>53</ns3:cad>
          </ns3:TrackPointExtension>
        </extensions>
      </trkpt>
      <trkpt lat="44.69041633419692516326904296875" lon="6.77609656937420368194580078125">
        <ele>2123.39990234375</ele>
        <time>2026-09-03T07:34:17.000Z</time>
        <extensions>
          <ns3:TrackPointExtension>
            <ns3:hr>173</ns3:hr>
            <ns3:cad>53</ns3:cad>
          </ns3:TrackPointExtension>
        </extensions>
      </trkpt>
      <trkpt lat="44.69041817821562290191650390625" lon="6.77610059268772602081298828125">
        <ele>2123.39990234375</ele>
        <time>2026-09-03T07:34:18.000Z</time>
        <extensions>
          <ns3:TrackPointExtension>
            <ns3:hr>173</ns3:hr>
            <ns3:cad>0</ns3:cad>
          </ns3:TrackPointExtension>
        </extensions>
      </trkpt>
      <trkpt lat="44.69042136333882808685302734375" lon="6.7761053703725337982177734375">
        <ele>2123.60009765625</ele>
        <time>2026-09-03T07:34:19.000Z</time>
        <extensions>
          <ns3:TrackPointExtension>
            <ns3:hr>173</ns3:hr>
            <ns3:cad>0</ns3:cad>
          </ns3:TrackPointExtension>
        </extensions>
      </trkpt>
      <trkpt lat="44.690423794090747833251953125" lon="6.77610646001994609832763671875">
        <ele>2123.800048828125</ele>
        <time>2026-09-03T07:34:20.000Z</time>
        <extensions>
          <ns3:TrackPointExtension>
            <ns3:hr>174</ns3:hr>
            <ns3:cad>0</ns3:cad>
          </ns3:TrackPointExtension>
        </extensions>
      </trkpt>
      <trkpt lat="44.69042681157588958740234375" lon="6.77610629238188266754150390625">
        <ele>2124</ele>
        <time>2026-09-03T07:34:21.000Z</time>
        <extensions>
          <ns3:TrackPointExtension>
            <ns3:hr>174</ns3:hr>
            <ns3:cad>0</ns3:cad>
          </ns3:TrackPointExtension>
        </extensions>
      </trkpt>
      <trkpt lat="44.69043108634650707244873046875" lon="6.77610763348639011383056640625">
        <ele>2124.39990234375</ele>
        <time>2026-09-03T07:34:22.000Z</time>
        <extensions>
          <ns3:TrackPointExtension>
            <ns3:hr>174</ns3:hr>
            <ns3:cad>0</ns3:cad>
          </ns3:TrackPointExtension>
        </extensions>
      </trkpt>
      <trkpt lat="44.6904341876506805419921875" lon="6.77610629238188266754150390625">
        <ele>2124.60009765625</ele>
        <time>2026-09-03T07:34:23.000Z</time>
        <extensions>
          <ns3:TrackPointExtension>
            <ns3:hr>174</ns3:hr>
            <ns3:cad>0</ns3:cad>
          </ns3:TrackPointExtension>
        </extensions>
      </trkpt>
      <trkpt lat="44.690439216792583465576171875" lon="6.77610293962061405181884765625">
        <ele>2124.800048828125</ele>
        <time>2026-09-03T07:34:24.000Z</time>
        <extensions>
          <ns3:TrackPointExtension>
            <ns3:hr>174</ns3:hr>
            <ns3:cad>0</ns3:cad>
          </ns3:TrackPointExtension>
        </extensions>
      </trkpt>
      <trkpt lat="44.69044156372547149658203125" lon="6.77610293962061405181884765625">
        <ele>2125</ele>
        <time>2026-09-03T07:34:25.000Z</time>
        <extensions>
          <ns3:TrackPointExtension>
            <ns3:hr>175</ns3:hr>
            <ns3:cad>0</ns3:cad>
          </ns3:TrackPointExtension>
        </extensions>
      </trkpt>
      <trkpt lat="44.69044701196253299713134765625" lon="6.77609707228839397430419921875">
        <ele>2125.199951171875</ele>
        <time>2026-09-03T07:34:26.000Z</time>
        <extensions>
          <ns3:TrackPointExtension>
            <ns3:hr>175</ns3:hr>
            <ns3:cad>0</ns3:cad>
          </ns3:TrackPointExtension>
        </extensions>
      </trkpt>
      <trkpt lat="44.6904497779905796051025390625" lon="6.776093803346157073974609375">
        <ele>2125.39990234375</ele>
        <time>2026-09-03T07:34:27.000Z</time>
        <extensions>
          <ns3:TrackPointExtension>
            <ns3:hr>175</ns3:hr>
            <ns3:cad>50</ns3:cad>
          </ns3:TrackPointExtension>
        </extensions>
      </trkpt>
      <trkpt lat="44.690451957285404205322265625" lon="6.77609103731811046600341796875">
        <ele>2125.60009765625</ele>
        <time>2026-09-03T07:34:28.000Z</time>
        <extensions>
          <ns3:TrackPointExtension>
            <ns3:hr>175</ns3:hr>
            <ns3:cad>50</ns3:cad>
          </ns3:TrackPointExtension>
        </extensions>
      </trkpt>
      <trkpt lat="44.69045857898890972137451171875" lon="6.77609070204198360443115234375">
        <ele>2125.800048828125</ele>
        <time>2026-09-03T07:34:29.000Z</time>
        <extensions>
          <ns3:TrackPointExtension>
            <ns3:hr>175</ns3:hr>
            <ns3:cad>50</ns3:cad>
          </ns3:TrackPointExtension>
        </extensions>
      </trkpt>
      <trkpt lat="44.6904601715505123138427734375" lon="6.77609422244131565093994140625">
        <ele>2126</ele>
        <time>2026-09-03T07:34:30.000Z</time>
        <extensions>
          <ns3:TrackPointExtension>
            <ns3:hr>175</ns3:hr>
            <ns3:cad>0</ns3:cad>
          </ns3:TrackPointExtension>
        </extensions>
      </trkpt>
      <trkpt lat="44.6904668770730495452880859375" lon="6.7760892771184444427490234375">
        <ele>2126.199951171875</ele>
        <time>2026-09-03T07:34:31.000Z</time>
        <extensions>
          <ns3:TrackPointExtension>
            <ns3:hr>175</ns3:hr>
            <ns3:cad>0</ns3:cad>
          </ns3:TrackPointExtension>
        </extensions>
      </trkpt>
      <trkpt lat="44.69047131948173046112060546875" lon="6.77608567290008068084716796875">
        <ele>2126.39990234375</ele>
        <time>2026-09-03T07:34:32.000Z</time>
        <extensions>
          <ns3:TrackPointExtension>
            <ns3:hr>175</ns3:hr>
            <ns3:cad>0</ns3:cad>
          </ns3:TrackPointExtension>
        </extensions>
      </trkpt>
      <trkpt lat="44.69048238359391689300537109375" lon="6.776089109480381011962890625">
        <ele>2126.60009765625</ele>
        <time>2026-09-03T07:34:33.000Z</time>
        <extensions>
          <ns3:TrackPointExtension>
            <ns3:hr>176</ns3:hr>
            <ns3:cad>0</ns3:cad>
          </ns3:TrackPointExtension>
        </extensions>
      </trkpt>
      <trkpt lat="44.69048984348773956298828125" lon="6.77609078586101531982421875">
        <ele>2126.800048828125</ele>
        <time>2026-09-03T07:34:34.000Z</time>
        <extensions>
          <ns3:TrackPointExtension>
            <ns3:hr>176</ns3:hr>
            <ns3:cad>0</ns3:cad>
          </ns3:TrackPointExtension>
        </extensions>
      </trkpt>
      <trkpt lat="44.6904977224767208099365234375" lon="6.776095144450664520263671875">
        <ele>2127</ele>
        <time>2026-09-03T07:34:35.000Z</time>
        <extensions>
          <ns3:TrackPointExtension>
            <ns3:hr>176</ns3:hr>
            <ns3:cad>54</ns3:cad>
          </ns3:TrackPointExtension>
        </extensions>
      </trkpt>
      <trkpt lat="44.69050652347505092620849609375" lon="6.77609891630709171295166015625">
        <ele>2127.199951171875</ele>
        <time>2026-09-03T07:34:36.000Z</time>
        <extensions>
          <ns3:TrackPointExtension>
            <ns3:hr>176</ns3:hr>
            <ns3:cad>54</ns3:cad>
          </ns3:TrackPointExtension>
        </extensions>
      </trkpt>
      <trkpt lat="44.69051406718790531158447265625" lon="6.77610444836318492889404296875">
        <ele>2127.39990234375</ele>
        <time>2026-09-03T07:34:37.000Z</time>
        <extensions>
          <ns3:TrackPointExtension>
            <ns3:hr>176</ns3:hr>
            <ns3:cad>54</ns3:cad>
          </ns3:TrackPointExtension>
        </extensions>
      </trkpt>
      <trkpt lat="44.69052462838590145111083984375" lon="6.77611433900892734527587890625">
        <ele>2127.60009765625</ele>
        <time>2026-09-03T07:34:38.000Z</time>
        <extensions>
          <ns3:TrackPointExtension>
            <ns3:hr>176</ns3:hr>
            <ns3:cad>54</ns3:cad>
          </ns3:TrackPointExtension>
        </extensions>
      </trkpt>
      <trkpt lat="44.69053451903164386749267578125" lon="6.7761251516640186309814453125">
        <ele>2127.800048828125</ele>
        <time>2026-09-03T07:34:39.000Z</time>
        <extensions>
          <ns3:TrackPointExtension>
            <ns3:hr>175</ns3:hr>
            <ns3:cad>55</ns3:cad>
          </ns3:TrackPointExtension>
        </extensions>
      </trkpt>
      <trkpt lat="44.69054155983030796051025390625" lon="6.77613412030041217803955078125">
        <ele>2128</ele>
        <time>2026-09-03T07:34:40.000Z</time>
        <extensions>
          <ns3:TrackPointExtension>
            <ns3:hr>175</ns3:hr>
            <ns3:cad>55</ns3:cad>
          </ns3:TrackPointExtension>
        </extensions>
      </trkpt>
      <trkpt lat="44.690551199018955230712890625" lon="6.77614350803196430206298828125">
        <ele>2128.199951171875</ele>
        <time>2026-09-03T07:34:41.000Z</time>
        <extensions>
          <ns3:TrackPointExtension>
            <ns3:hr>174</ns3:hr>
            <ns3:cad>55</ns3:cad>
          </ns3:TrackPointExtension>
        </extensions>
      </trkpt>
      <trkpt lat="44.6905594132840633392333984375" lon="6.7761499620974063873291015625">
        <ele>2128.39990234375</ele>
        <time>2026-09-03T07:34:42.000Z</time>
        <extensions>
          <ns3:TrackPointExtension>
            <ns3:hr>174</ns3:hr>
            <ns3:cad>0</ns3:cad>
          </ns3:TrackPointExtension>
        </extensions>
      </trkpt>
      <trkpt lat="44.6905677951872348785400390625" lon="6.7761570028960704803466796875">
        <ele>2128.60009765625</ele>
        <time>2026-09-03T07:34:43.000Z</time>
        <extensions>
          <ns3:TrackPointExtension>
            <ns3:hr>174</ns3:hr>
            <ns3:cad>0</ns3:cad>
          </ns3:TrackPointExtension>
        </extensions>
      </trkpt>
      <trkpt lat="44.6905761770904064178466796875" lon="6.77616228349506855010986328125">
        <ele>2128.800048828125</ele>
        <time>2026-09-03T07:34:44.000Z</time>
        <extensions>
          <ns3:TrackPointExtension>
            <ns3:hr>173</ns3:hr>
            <ns3:cad>0</ns3:cad>
          </ns3:TrackPointExtension>
        </extensions>
      </trkpt>
      <trkpt lat="44.69058481045067310333251953125" lon="6.77616915665566921234130859375">
        <ele>2129</ele>
        <time>2026-09-03T07:34:45.000Z</time>
        <extensions>
          <ns3:TrackPointExtension>
            <ns3:hr>173</ns3:hr>
            <ns3:cad>0</ns3:cad>
          </ns3:TrackPointExtension>
        </extensions>
      </trkpt>
      <trkpt lat="44.69059335999190807342529296875" lon="6.77617569454014301300048828125">
        <ele>2129</ele>
        <time>2026-09-03T07:34:46.000Z</time>
        <extensions>
          <ns3:TrackPointExtension>
            <ns3:hr>172</ns3:hr>
            <ns3:cad>0</ns3:cad>
          </ns3:TrackPointExtension>
        </extensions>
      </trkpt>
      <trkpt lat="44.69060408882796764373779296875" lon="6.77618256770074367523193359375">
        <ele>2129.199951171875</ele>
        <time>2026-09-03T07:34:47.000Z</time>
        <extensions>
          <ns3:TrackPointExtension>
            <ns3:hr>172</ns3:hr>
            <ns3:cad>0</ns3:cad>
          </ns3:TrackPointExtension>
        </extensions>
      </trkpt>
      <trkpt lat="44.69061330892145633697509765625" lon="6.776187680661678314208984375">
        <ele>2129.39990234375</ele>
        <time>2026-09-03T07:34:48.000Z</time>
        <extensions>
          <ns3:TrackPointExtension>
            <ns3:hr>171</ns3:hr>
            <ns3:cad>0</ns3:cad>
          </ns3:TrackPointExtension>
        </extensions>
      </trkpt>
      <trkpt lat="44.69062353484332561492919921875" lon="6.7761932127177715301513671875">
        <ele>2129.39990234375</ele>
        <time>2026-09-03T07:34:49.000Z</time>
        <extensions>
          <ns3:TrackPointExtension>
            <ns3:hr>171</ns3:hr>
            <ns3:cad>0</ns3:cad>
          </ns3:TrackPointExtension>
        </extensions>
      </trkpt>
      <trkpt lat="44.690631330013275146484375" lon="6.77621341310441493988037109375">
        <ele>2129.60009765625</ele>
        <time>2026-09-03T07:34:50.000Z</time>
        <extensions>
          <ns3:TrackPointExtension>
            <ns3:hr>170</ns3:hr>
            <ns3:cad>0</ns3:cad>
          </ns3:TrackPointExtension>
        </extensions>
      </trkpt>
      <trkpt lat="44.69062638469040393829345703125" lon="6.77621643058955669403076171875">
        <ele>2129.800048828125</ele>
        <time>2026-09-03T07:34:51.000Z</time>
        <extensions>
          <ns3:TrackPointExtension>
            <ns3:hr>170</ns3:hr>
            <ns3:cad>0</ns3:cad>
          </ns3:TrackPointExtension>
        </extensions>
      </trkpt>
      <trkpt lat="44.690631330013275146484375" lon="6.77621693350374698638916015625">
        <ele>2130</ele>
        <time>2026-09-03T07:34:52.000Z</time>
        <extensions>
          <ns3:TrackPointExtension>
            <ns3:hr>170</ns3:hr>
            <ns3:cad>0</ns3:cad>
          </ns3:TrackPointExtension>
        </extensions>
      </trkpt>
      <trkpt lat="44.690637029707431793212890625" lon="6.7762297578155994415283203125">
        <ele>2130.199951171875</ele>
        <time>2026-09-03T07:34:53.000Z</time>
        <extensions>
          <ns3:TrackPointExtension>
            <ns3:hr>169</ns3:hr>
            <ns3:cad>0</ns3:cad>
          </ns3:TrackPointExtension>
        </extensions>
      </trkpt>
      <trkpt lat="44.69064499251544475555419921875" lon="6.7762404866516590118408203125">
        <ele>2130.39990234375</ele>
        <time>2026-09-03T07:34:54.000Z</time>
        <extensions>
          <ns3:TrackPointExtension>
            <ns3:hr>169</ns3:hr>
            <ns3:cad>0</ns3:cad>
          </ns3:TrackPointExtension>
        </extensions>
      </trkpt>
      <trkpt lat="44.6906539611518383026123046875" lon="6.77624777890741825103759765625">
        <ele>2130.60009765625</ele>
        <time>2026-09-03T07:34:55.000Z</time>
        <extensions>
          <ns3:TrackPointExtension>
            <ns3:hr>168</ns3:hr>
            <ns3:cad>0</ns3:cad>
          </ns3:TrackPointExtension>
        </extensions>
      </trkpt>
      <trkpt lat="44.69066443853080272674560546875" lon="6.77625842392444610595703125">
        <ele>2130.800048828125</ele>
        <time>2026-09-03T07:34:56.000Z</time>
        <extensions>
          <ns3:TrackPointExtension>
            <ns3:hr>167</ns3:hr>
            <ns3:cad>0</ns3:cad>
          </ns3:TrackPointExtension>
        </extensions>
      </trkpt>
      <trkpt lat="44.690668880939483642578125" lon="6.77626722492277622222900390625">
        <ele>2131</ele>
        <time>2026-09-03T07:34:57.000Z</time>
        <extensions>
          <ns3:TrackPointExtension>
            <ns3:hr>166</ns3:hr>
            <ns3:cad>0</ns3:cad>
          </ns3:TrackPointExtension>
        </extensions>
      </trkpt>
      <trkpt lat="44.6906757541000843048095703125" lon="6.776276864111423492431640625">
        <ele>2131</ele>
        <time>2026-09-03T07:34:58.000Z</time>
        <extensions>
          <ns3:TrackPointExtension>
            <ns3:hr>165</ns3:hr>
            <ns3:cad>0</ns3:cad>
          </ns3:TrackPointExtension>
        </extensions>
      </trkpt>
      <trkpt lat="44.6906807832419872283935546875" lon="6.77628792822360992431640625">
        <ele>2131.39990234375</ele>
        <time>2026-09-03T07:34:59.000Z</time>
        <extensions>
          <ns3:TrackPointExtension>
            <ns3:hr>165</ns3:hr>
            <ns3:cad>0</ns3:cad>
          </ns3:TrackPointExtension>
        </extensions>
      </trkpt>
      <trkpt lat="44.69068505801260471343994140625" lon="6.7763011716306209564208984375">
        <ele>2131.60009765625</ele>
        <time>2026-09-03T07:35:00.000Z</time>
        <extensions>
          <ns3:TrackPointExtension>
            <ns3:hr>165</ns3:hr>
            <ns3:cad>0</ns3:cad>
          </ns3:TrackPointExtension>
        </extensions>
      </trkpt>
      <trkpt lat="44.690690673887729644775390625" lon="6.776314415037631988525390625">
        <ele>2131.60009765625</ele>
        <time>2026-09-03T07:35:01.000Z</time>
        <extensions>
          <ns3:TrackPointExtension>
            <ns3:hr>165</ns3:hr>
            <ns3:cad>0</ns3:cad>
          </ns3:TrackPointExtension>
        </extensions>
      </trkpt>
      <trkpt lat="44.69069226644933223724365234375" lon="6.77633059211075305938720703125">
        <ele>2132</ele>
        <time>2026-09-03T07:35:02.000Z</time>
        <extensions>
          <ns3:TrackPointExtension>
            <ns3:hr>165</ns3:hr>
            <ns3:cad>0</ns3:cad>
          </ns3:TrackPointExtension>
        </extensions>
      </trkpt>
      <trkpt lat="44.6906891651451587677001953125" lon="6.77634450607001781463623046875">
        <ele>2132</ele>
        <time>2026-09-03T07:35:03.000Z</time>
        <extensions>
          <ns3:TrackPointExtension>
            <ns3:hr>164</ns3:hr>
            <ns3:cad>0</ns3:cad>
          </ns3:TrackPointExtension>
        </extensions>
      </trkpt>
      <trkpt lat="44.6906863152980804443359375" lon="6.77634685300290584564208984375">
        <ele>2132.199951171875</ele>
        <time>2026-09-03T07:35:04.000Z</time>
        <extensions>
          <ns3:TrackPointExtension>
            <ns3:hr>164</ns3:hr>
            <ns3:cad>0</ns3:cad>
          </ns3:TrackPointExtension>
        </extensions>
      </trkpt>
      <trkpt lat="44.69068220816552639007568359375" lon="6.776358671486377716064453125">
        <ele>2132.39990234375</ele>
        <time>2026-09-03T07:35:05.000Z</time>
        <extensions>
          <ns3:TrackPointExtension>
            <ns3:hr>163</ns3:hr>
            <ns3:cad>0</ns3:cad>
          </ns3:TrackPointExtension>
        </extensions>
      </trkpt>
      <trkpt lat="44.69067893922328948974609375" lon="6.7763715796172618865966796875">
        <ele>2132.60009765625</ele>
        <time>2026-09-03T07:35:06.000Z</time>
        <extensions>
          <ns3:TrackPointExtension>
            <ns3:hr>163</ns3:hr>
            <ns3:cad>48</ns3:cad>
          </ns3:TrackPointExtension>
        </extensions>
      </trkpt>
      <trkpt lat="44.69066896475851535797119140625" lon="6.77638373337686061859130859375">
        <ele>2132.800048828125</ele>
        <time>2026-09-03T07:35:07.000Z</time>
        <extensions>
          <ns3:TrackPointExtension>
            <ns3:hr>164</ns3:hr>
            <ns3:cad>48</ns3:cad>
          </ns3:TrackPointExtension>
        </extensions>
      </trkpt>
      <trkpt lat="44.69066108576953411102294921875" lon="6.77639789879322052001953125">
        <ele>2133</ele>
        <time>2026-09-03T07:35:08.000Z</time>
        <extensions>
          <ns3:TrackPointExtension>
            <ns3:hr>164</ns3:hr>
            <ns3:cad>48</ns3:cad>
          </ns3:TrackPointExtension>
        </extensions>
      </trkpt>
      <trkpt lat="44.69065203331410884857177734375" lon="6.77641340531408786773681640625">
        <ele>2133.199951171875</ele>
        <time>2026-09-03T07:35:09.000Z</time>
        <extensions>
          <ns3:TrackPointExtension>
            <ns3:hr>165</ns3:hr>
            <ns3:cad>48</ns3:cad>
          </ns3:TrackPointExtension>
        </extensions>
      </trkpt>
      <trkpt lat="44.690643735229969024658203125" lon="6.77642145194113254547119140625">
        <ele>2133.199951171875</ele>
        <time>2026-09-03T07:35:10.000Z</time>
        <extensions>
          <ns3:TrackPointExtension>
            <ns3:hr>166</ns3:hr>
            <ns3:cad>48</ns3:cad>
          </ns3:TrackPointExtension>
        </extensions>
      </trkpt>
      <trkpt lat="44.69063828699290752410888671875" lon="6.7764208652079105377197265625">
        <ele>2133.39990234375</ele>
        <time>2026-09-03T07:35:11.000Z</time>
        <extensions>
          <ns3:TrackPointExtension>
            <ns3:hr>167</ns3:hr>
            <ns3:cad>0</ns3:cad>
          </ns3:TrackPointExtension>
        </extensions>
      </trkpt>
      <trkpt lat="44.6906338445842266082763671875" lon="6.77641944028437137603759765625">
        <ele>2133.39990234375</ele>
        <time>2026-09-03T07:35:12.000Z</time>
        <extensions>
          <ns3:TrackPointExtension>
            <ns3:hr>168</ns3:hr>
            <ns3:cad>0</ns3:cad>
          </ns3:TrackPointExtension>
        </extensions>
      </trkpt>
      <trkpt lat="44.69062554650008678436279296875" lon="6.776417680084705352783203125">
        <ele>2133.60009765625</ele>
        <time>2026-09-03T07:35:13.000Z</time>
        <extensions>
          <ns3:TrackPointExtension>
            <ns3:hr>168</ns3:hr>
            <ns3:cad>0</ns3:cad>
          </ns3:TrackPointExtension>
        </extensions>
      </trkpt>
      <trkpt lat="44.6906180866062641143798828125" lon="6.77641659043729305267333984375">
        <ele>2133.800048828125</ele>
        <time>2026-09-03T07:35:14.000Z</time>
        <extensions>
          <ns3:TrackPointExtension>
            <ns3:hr>168</ns3:hr>
            <ns3:cad>0</ns3:cad>
          </ns3:TrackPointExtension>
        </extensions>
      </trkpt>
      <trkpt lat="44.69060945324599742889404296875" lon="6.77641675807535648345947265625">
        <ele>2134</ele>
        <time>2026-09-03T07:35:15.000Z</time>
        <extensions>
          <ns3:TrackPointExtension>
            <ns3:hr>169</ns3:hr>
            <ns3:cad>0</ns3:cad>
          </ns3:TrackPointExtension>
        </extensions>
      </trkpt>
      <trkpt lat="44.69060383737087249755859375" lon="6.7764181829988956451416015625">
        <ele>2134.199951171875</ele>
        <time>2026-09-03T07:35:16.000Z</time>
        <extensions>
          <ns3:TrackPointExtension>
            <ns3:hr>169</ns3:hr>
            <ns3:cad>0</ns3:cad>
          </ns3:TrackPointExtension>
        </extensions>
      </trkpt>
      <trkpt lat="44.6905969642102718353271484375" lon="6.7764212004840373992919921875">
        <ele>2134.39990234375</ele>
        <time>2026-09-03T07:35:17.000Z</time>
        <extensions>
          <ns3:TrackPointExtension>
            <ns3:hr>170</ns3:hr>
            <ns3:cad>0</ns3:cad>
          </ns3:TrackPointExtension>
        </extensions>
      </trkpt>
      <trkpt lat="44.69059084542095661163330078125" lon="6.7764295823872089385986328125">
        <ele>2134.60009765625</ele>
        <time>2026-09-03T07:35:18.000Z</time>
        <extensions>
          <ns3:TrackPointExtension>
            <ns3:hr>170</ns3:hr>
            <ns3:cad>0</ns3:cad>
          </ns3:TrackPointExtension>
        </extensions>
      </trkpt>
      <trkpt lat="44.6905848942697048187255859375" lon="6.77643653936684131622314453125">
        <ele>2134.800048828125</ele>
        <time>2026-09-03T07:35:19.000Z</time>
        <extensions>
          <ns3:TrackPointExtension>
            <ns3:hr>170</ns3:hr>
            <ns3:cad>0</ns3:cad>
          </ns3:TrackPointExtension>
        </extensions>
      </trkpt>
      <trkpt lat="44.69057810492813587188720703125" lon="6.77644207142293453216552734375">
        <ele>2135</ele>
        <time>2026-09-03T07:35:20.000Z</time>
        <extensions>
          <ns3:TrackPointExtension>
            <ns3:hr>170</ns3:hr>
            <ns3:cad>0</ns3:cad>
          </ns3:TrackPointExtension>
        </extensions>
      </trkpt>
      <trkpt lat="44.69057911075651645660400390625" lon="6.7764406464993953704833984375">
        <ele>2135.199951171875</ele>
        <time>2026-09-03T07:35:21.000Z</time>
        <extensions>
          <ns3:TrackPointExtension>
            <ns3:hr>170</ns3:hr>
            <ns3:cad>0</ns3:cad>
          </ns3:TrackPointExtension>
        </extensions>
      </trkpt>
      <trkpt lat="44.6905708126723766326904296875" lon="6.77644693292677402496337890625">
        <ele>2135.39990234375</ele>
        <time>2026-09-03T07:35:22.000Z</time>
        <extensions>
          <ns3:TrackPointExtension>
            <ns3:hr>170</ns3:hr>
            <ns3:cad>0</ns3:cad>
          </ns3:TrackPointExtension>
        </extensions>
      </trkpt>
      <trkpt lat="44.6905696392059326171875" lon="6.7764503695070743560791015625">
        <ele>2135.60009765625</ele>
        <time>2026-09-03T07:35:23.000Z</time>
        <extensions>
          <ns3:TrackPointExtension>
            <ns3:hr>170</ns3:hr>
            <ns3:cad>0</ns3:cad>
          </ns3:TrackPointExtension>
        </extensions>
      </trkpt>
      <trkpt lat="44.69056117348372936248779296875" lon="6.77645632065832614898681640625">
        <ele>2135.800048828125</ele>
        <time>2026-09-03T07:35:24.000Z</time>
        <extensions>
          <ns3:TrackPointExtension>
            <ns3:hr>170</ns3:hr>
            <ns3:cad>56</ns3:cad>
          </ns3:TrackPointExtension>
        </extensions>
      </trkpt>
      <trkpt lat="44.6905540488660335540771484375" lon="6.77646235562860965728759765625">
        <ele>2136</ele>
        <time>2026-09-03T07:35:25.000Z</time>
        <extensions>
          <ns3:TrackPointExtension>
            <ns3:hr>170</ns3:hr>
            <ns3:cad>56</ns3:cad>
          </ns3:TrackPointExtension>
        </extensions>
      </trkpt>
      <trkpt lat="44.69055094756186008453369140625" lon="6.776466630399227142333984375">
        <ele>2136.199951171875</ele>
        <time>2026-09-03T07:35:26.000Z</time>
        <extensions>
          <ns3:TrackPointExtension>
            <ns3:hr>170</ns3:hr>
            <ns3:cad>56</ns3:cad>
          </ns3:TrackPointExtension>
        </extensions>
      </trkpt>
      <trkpt lat="44.690544493496417999267578125" lon="6.77647300064563751220703125">
        <ele>2136.39990234375</ele>
        <time>2026-09-03T07:35:27.000Z</time>
        <extensions>
          <ns3:TrackPointExtension>
            <ns3:hr>169</ns3:hr>
            <ns3:cad>0</ns3:cad>
          </ns3:TrackPointExtension>
        </extensions>
      </trkpt>
      <trkpt lat="44.69053753651678562164306640625" lon="6.7764771915972232818603515625">
        <ele>2136.60009765625</ele>
        <time>2026-09-03T07:35:28.000Z</time>
        <extensions>
          <ns3:TrackPointExtension>
            <ns3:hr>169</ns3:hr>
            <ns3:cad>0</ns3:cad>
          </ns3:TrackPointExtension>
        </extensions>
      </trkpt>
      <trkpt lat="44.690527729690074920654296875" lon="6.77648414857685565948486328125">
        <ele>2136.800048828125</ele>
        <time>2026-09-03T07:35:29.000Z</time>
        <extensions>
          <ns3:TrackPointExtension>
            <ns3:hr>168</ns3:hr>
            <ns3:cad>0</ns3:cad>
          </ns3:TrackPointExtension>
        </extensions>
      </trkpt>
      <trkpt lat="44.69051926396787166595458984375" lon="6.77648901008069515228271484375">
        <ele>2137</ele>
        <time>2026-09-03T07:35:30.000Z</time>
        <extensions>
          <ns3:TrackPointExtension>
            <ns3:hr>168</ns3:hr>
            <ns3:cad>0</ns3:cad>
          </ns3:TrackPointExtension>
        </extensions>
      </trkpt>
      <trkpt lat="44.6905124746263027191162109375" lon="6.776491440832614898681640625">
        <ele>2137.199951171875</ele>
        <time>2026-09-03T07:35:31.000Z</time>
        <extensions>
          <ns3:TrackPointExtension>
            <ns3:hr>168</ns3:hr>
            <ns3:cad>0</ns3:cad>
          </ns3:TrackPointExtension>
        </extensions>
      </trkpt>
      <trkpt lat="44.69050803221762180328369140625" lon="6.7764952965080738067626953125">
        <ele>2137.39990234375</ele>
        <time>2026-09-03T07:35:32.000Z</time>
        <extensions>
          <ns3:TrackPointExtension>
            <ns3:hr>168</ns3:hr>
            <ns3:cad>0</ns3:cad>
          </ns3:TrackPointExtension>
        </extensions>
      </trkpt>
      <trkpt lat="44.6905024163424968719482421875" lon="6.77649990655481815338134765625">
        <ele>2137.60009765625</ele>
        <time>2026-09-03T07:35:33.000Z</time>
        <extensions>
          <ns3:TrackPointExtension>
            <ns3:hr>167</ns3:hr>
            <ns3:cad>0</ns3:cad>
          </ns3:TrackPointExtension>
        </extensions>
      </trkpt>
      <trkpt lat="44.69049395062029361724853515625" lon="6.77650644443929195404052734375">
        <ele>2137.800048828125</ele>
        <time>2026-09-03T07:35:34.000Z</time>
        <extensions>
          <ns3:TrackPointExtension>
            <ns3:hr>166</ns3:hr>
            <ns3:cad>0</ns3:cad>
          </ns3:TrackPointExtension>
        </extensions>
      </trkpt>
      <trkpt lat="44.6904983930289745330810546875" lon="6.776507198810577392578125">
        <ele>2138</ele>
        <time>2026-09-03T07:35:35.000Z</time>
        <extensions>
          <ns3:TrackPointExtension>
            <ns3:hr>166</ns3:hr>
            <ns3:cad>0</ns3:cad>
          </ns3:TrackPointExtension>
        </extensions>
      </trkpt>
      <trkpt lat="44.69049160368740558624267578125" lon="6.77651851437985897064208984375">
        <ele>2138.199951171875</ele>
        <time>2026-09-03T07:35:36.000Z</time>
        <extensions>
          <ns3:TrackPointExtension>
            <ns3:hr>165</ns3:hr>
            <ns3:cad>0</ns3:cad>
          </ns3:TrackPointExtension>
        </extensions>
      </trkpt>
      <trkpt lat="44.69047953374683856964111328125" lon="6.77652488462626934051513671875">
        <ele>2138.60009765625</ele>
        <time>2026-09-03T07:35:37.000Z</time>
        <extensions>
          <ns3:TrackPointExtension>
            <ns3:hr>164</ns3:hr>
            <ns3:cad>0</ns3:cad>
          </ns3:TrackPointExtension>
        </extensions>
      </trkpt>
      <trkpt lat="44.690471403300762176513671875" lon="6.7765284888446331024169921875">
        <ele>2138.60009765625</ele>
        <time>2026-09-03T07:35:38.000Z</time>
        <extensions>
          <ns3:TrackPointExtension>
            <ns3:hr>164</ns3:hr>
            <ns3:cad>0</ns3:cad>
          </ns3:TrackPointExtension>
        </extensions>
      </trkpt>
      <trkpt lat="44.6904641948640346527099609375" lon="6.7765284888446331024169921875">
        <ele>2139</ele>
        <time>2026-09-03T07:35:39.000Z</time>
        <extensions>
          <ns3:TrackPointExtension>
            <ns3:hr>163</ns3:hr>
            <ns3:cad>0</ns3:cad>
          </ns3:TrackPointExtension>
        </extensions>
      </trkpt>
      <trkpt lat="44.69045824371278285980224609375" lon="6.7765281535685062408447265625">
        <ele>2139.199951171875</ele>
        <time>2026-09-03T07:35:40.000Z</time>
        <extensions>
          <ns3:TrackPointExtension>
            <ns3:hr>163</ns3:hr>
            <ns3:cad>0</ns3:cad>
          </ns3:TrackPointExtension>
        </extensions>
      </trkpt>
      <trkpt lat="44.69044290482997894287109375" lon="6.77652404643595218658447265625">
        <ele>2139.199951171875</ele>
        <time>2026-09-03T07:35:41.000Z</time>
        <extensions>
          <ns3:TrackPointExtension>
            <ns3:hr>163</ns3:hr>
            <ns3:cad>0</ns3:cad>
          </ns3:TrackPointExtension>
        </extensions>
      </trkpt>
      <trkpt lat="44.69044030643999576568603515625" lon="6.77653058432042598724365234375">
        <ele>2139.60009765625</ele>
        <time>2026-09-03T07:35:42.000Z</time>
        <extensions>
          <ns3:TrackPointExtension>
            <ns3:hr>163</ns3:hr>
            <ns3:cad>0</ns3:cad>
          </ns3:TrackPointExtension>
        </extensions>
      </trkpt>
      <trkpt lat="44.69043594785034656524658203125" lon="6.7765353620052337646484375">
        <ele>2139.800048828125</ele>
        <time>2026-09-03T07:35:43.000Z</time>
        <extensions>
          <ns3:TrackPointExtension>
            <ns3:hr>163</ns3:hr>
            <ns3:cad>0</ns3:cad>
          </ns3:TrackPointExtension>
        </extensions>
      </trkpt>
      <trkpt lat="44.69043812714517116546630859375" lon="6.77654743194580078125">
        <ele>2140</ele>
        <time>2026-09-03T07:35:44.000Z</time>
        <extensions>
          <ns3:TrackPointExtension>
            <ns3:hr>163</ns3:hr>
            <ns3:cad>0</ns3:cad>
          </ns3:TrackPointExtension>
        </extensions>
      </trkpt>
      <trkpt lat="44.6904427371919155120849609375" lon="6.77655288018286228179931640625">
        <ele>2140.199951171875</ele>
        <time>2026-09-03T07:35:45.000Z</time>
        <extensions>
          <ns3:TrackPointExtension>
            <ns3:hr>164</ns3:hr>
            <ns3:cad>0</ns3:cad>
          </ns3:TrackPointExtension>
        </extensions>
      </trkpt>
      <trkpt lat="44.69044147990643978118896484375" lon="6.776554472744464874267578125">
        <ele>2140.39990234375</ele>
        <time>2026-09-03T07:35:46.000Z</time>
        <extensions>
          <ns3:TrackPointExtension>
            <ns3:hr>164</ns3:hr>
            <ns3:cad>0</ns3:cad>
          </ns3:TrackPointExtension>
        </extensions>
      </trkpt>
      <trkpt lat="44.69044483266770839691162109375" lon="6.776565872132778167724609375">
        <ele>2140.60009765625</ele>
        <time>2026-09-03T07:35:47.000Z</time>
        <extensions>
          <ns3:TrackPointExtension>
            <ns3:hr>164</ns3:hr>
            <ns3:cad>0</ns3:cad>
          </ns3:TrackPointExtension>
        </extensions>
      </trkpt>
      <trkpt lat="44.69044617377221584320068359375" lon="6.77657584659755229949951171875">
        <ele>2140.800048828125</ele>
        <time>2026-09-03T07:35:48.000Z</time>
        <extensions>
          <ns3:TrackPointExtension>
            <ns3:hr>164</ns3:hr>
            <ns3:cad>0</ns3:cad>
          </ns3:TrackPointExtension>
        </extensions>
      </trkpt>
      <trkpt lat="44.6904470957815647125244140625" lon="6.776590012013912200927734375">
        <ele>2141</ele>
        <time>2026-09-03T07:35:49.000Z</time>
        <extensions>
          <ns3:TrackPointExtension>
            <ns3:hr>165</ns3:hr>
            <ns3:cad>0</ns3:cad>
          </ns3:TrackPointExtension>
        </extensions>
      </trkpt>
      <trkpt lat="44.69044114463031291961669921875" lon="6.7765985615551471710205078125">
        <ele>2141.199951171875</ele>
        <time>2026-09-03T07:35:50.000Z</time>
        <extensions>
          <ns3:TrackPointExtension>
            <ns3:hr>165</ns3:hr>
            <ns3:cad>0</ns3:cad>
          </ns3:TrackPointExtension>
        </extensions>
      </trkpt>
      <trkpt lat="44.69043829478323459625244140625" lon="6.77660501562058925628662109375">
        <ele>2141.39990234375</ele>
        <time>2026-09-03T07:35:51.000Z</time>
        <extensions>
          <ns3:TrackPointExtension>
            <ns3:hr>165</ns3:hr>
            <ns3:cad>0</ns3:cad>
          </ns3:TrackPointExtension>
        </extensions>
      </trkpt>
      <trkpt lat="44.69044198282063007354736328125" lon="6.776613481342792510986328125">
        <ele>2141.60009765625</ele>
        <time>2026-09-03T07:35:52.000Z</time>
        <extensions>
          <ns3:TrackPointExtension>
            <ns3:hr>165</ns3:hr>
            <ns3:cad>0</ns3:cad>
          </ns3:TrackPointExtension>
        </extensions>
      </trkpt>
      <trkpt lat="44.6904390491545200347900390625" lon="6.77660518325865268707275390625">
        <ele>2141.800048828125</ele>
        <time>2026-09-03T07:35:53.000Z</time>
        <extensions>
          <ns3:TrackPointExtension>
            <ns3:hr>166</ns3:hr>
            <ns3:cad>0</ns3:cad>
          </ns3:TrackPointExtension>
        </extensions>
      </trkpt>
      <trkpt lat="44.69044114463031291961669921875" lon="6.7766163311898708343505859375">
        <ele>2142</ele>
        <time>2026-09-03T07:35:54.000Z</time>
        <extensions>
          <ns3:TrackPointExtension>
            <ns3:hr>166</ns3:hr>
            <ns3:cad>0</ns3:cad>
          </ns3:TrackPointExtension>
        </extensions>
      </trkpt>
      <trkpt lat="44.69043930061161518096923828125" lon="6.776618175208568572998046875">
        <ele>2142.199951171875</ele>
        <time>2026-09-03T07:35:55.000Z</time>
        <extensions>
          <ns3:TrackPointExtension>
            <ns3:hr>166</ns3:hr>
            <ns3:cad>0</ns3:cad>
          </ns3:TrackPointExtension>
        </extensions>
      </trkpt>
      <trkpt lat="44.6904475986957550048828125" lon="6.7766211926937103271484375">
        <ele>2142.39990234375</ele>
        <time>2026-09-03T07:35:56.000Z</time>
        <extensions>
          <ns3:TrackPointExtension>
            <ns3:hr>167</ns3:hr>
            <ns3:cad>0</ns3:cad>
          </ns3:TrackPointExtension>
        </extensions>
      </trkpt>
      <trkpt lat="44.6904544718563556671142578125" lon="6.77662714384496212005615234375">
        <ele>2142.60009765625</ele>
        <time>2026-09-03T07:35:57.000Z</time>
        <extensions>
          <ns3:TrackPointExtension>
            <ns3:hr>167</ns3:hr>
            <ns3:cad>0</ns3:cad>
          </ns3:TrackPointExtension>
        </extensions>
      </trkpt>
      <trkpt lat="44.6904618479311466217041015625" lon="6.77663736976683139801025390625">
        <ele>2142.800048828125</ele>
        <time>2026-09-03T07:35:58.000Z</time>
        <extensions>
          <ns3:TrackPointExtension>
            <ns3:hr>167</ns3:hr>
            <ns3:cad>0</ns3:cad>
          </ns3:TrackPointExtension>
        </extensions>
      </trkpt>
      <trkpt lat="44.69046327285468578338623046875" lon="6.776647679507732391357421875">
        <ele>2143</ele>
        <time>2026-09-03T07:35:59.000Z</time>
        <extensions>
          <ns3:TrackPointExtension>
            <ns3:hr>167</ns3:hr>
            <ns3:cad>0</ns3:cad>
          </ns3:TrackPointExtension>
        </extensions>
      </trkpt>
      <trkpt lat="44.69045690260827541351318359375" lon="6.7766545526683330535888671875">
        <ele>2143.199951171875</ele>
        <time>2026-09-03T07:36:00.000Z</time>
        <extensions>
          <ns3:TrackPointExtension>
            <ns3:hr>167</ns3:hr>
            <ns3:cad>0</ns3:cad>
          </ns3:TrackPointExtension>
        </extensions>
      </trkpt>
      <trkpt lat="44.69045002944767475128173828125" lon="6.7766649462282657623291015625">
        <ele>2143.39990234375</ele>
        <time>2026-09-03T07:36:01.000Z</time>
        <extensions>
          <ns3:TrackPointExtension>
            <ns3:hr>168</ns3:hr>
            <ns3:cad>0</ns3:cad>
          </ns3:TrackPointExtension>
        </extensions>
      </trkpt>
      <trkpt lat="44.6904467605054378509521484375" lon="6.77667190320789813995361328125">
        <ele>2143.60009765625</ele>
        <time>2026-09-03T07:36:02.000Z</time>
        <extensions>
          <ns3:TrackPointExtension>
            <ns3:hr>168</ns3:hr>
            <ns3:cad>0</ns3:cad>
          </ns3:TrackPointExtension>
        </extensions>
      </trkpt>
      <trkpt lat="44.69043712131679058074951171875" lon="6.7766880802810192108154296875">
        <ele>2143.800048828125</ele>
        <time>2026-09-03T07:36:03.000Z</time>
        <extensions>
          <ns3:TrackPointExtension>
            <ns3:hr>168</ns3:hr>
            <ns3:cad>0</ns3:cad>
          </ns3:TrackPointExtension>
        </extensions>
      </trkpt>
      <trkpt lat="44.6904289908707141876220703125" lon="6.77670559845864772796630859375">
        <ele>2144</ele>
        <time>2026-09-03T07:36:04.000Z</time>
        <extensions>
          <ns3:TrackPointExtension>
            <ns3:hr>168</ns3:hr>
            <ns3:cad>0</ns3:cad>
          </ns3:TrackPointExtension>
        </extensions>
      </trkpt>
      <trkpt lat="44.69041784293949604034423828125" lon="6.77671649493277072906494140625">
        <ele>2144</ele>
        <time>2026-09-03T07:36:05.000Z</time>
        <extensions>
          <ns3:TrackPointExtension>
            <ns3:hr>168</ns3:hr>
            <ns3:cad>0</ns3:cad>
          </ns3:TrackPointExtension>
        </extensions>
      </trkpt>
      <trkpt lat="44.69040795229375362396240234375" lon="6.77672403864562511444091796875">
        <ele>2144.199951171875</ele>
        <time>2026-09-03T07:36:06.000Z</time>
        <extensions>
          <ns3:TrackPointExtension>
            <ns3:hr>168</ns3:hr>
            <ns3:cad>0</ns3:cad>
          </ns3:TrackPointExtension>
        </extensions>
      </trkpt>
      <trkpt lat="44.69039672054350376129150390625" lon="6.77672873251140117645263671875">
        <ele>2144.39990234375</ele>
        <time>2026-09-03T07:36:07.000Z</time>
        <extensions>
          <ns3:TrackPointExtension>
            <ns3:hr>168</ns3:hr>
            <ns3:cad>0</ns3:cad>
          </ns3:TrackPointExtension>
        </extensions>
      </trkpt>
      <trkpt lat="44.69039621762931346893310546875" lon="6.77673946134746074676513671875">
        <ele>2144.60009765625</ele>
        <time>2026-09-03T07:36:08.000Z</time>
        <extensions>
          <ns3:TrackPointExtension>
            <ns3:hr>169</ns3:hr>
            <ns3:cad>0</ns3:cad>
          </ns3:TrackPointExtension>
        </extensions>
      </trkpt>
      <trkpt lat="44.69038951210677623748779296875" lon="6.77674658596515655517578125">
        <ele>2144.800048828125</ele>
        <time>2026-09-03T07:36:09.000Z</time>
        <extensions>
          <ns3:TrackPointExtension>
            <ns3:hr>169</ns3:hr>
            <ns3:cad>0</ns3:cad>
          </ns3:TrackPointExtension>
        </extensions>
      </trkpt>
      <trkpt lat="44.6903847344219684600830078125" lon="6.77675287239253520965576171875">
        <ele>2145</ele>
        <time>2026-09-03T07:36:10.000Z</time>
        <extensions>
          <ns3:TrackPointExtension>
            <ns3:hr>169</ns3:hr>
            <ns3:cad>0</ns3:cad>
          </ns3:TrackPointExtension>
        </extensions>
      </trkpt>
      <trkpt lat="44.6903783641755580902099609375" lon="6.7767541296780109405517578125">
        <ele>2145.199951171875</ele>
        <time>2026-09-03T07:36:11.000Z</time>
        <extensions>
          <ns3:TrackPointExtension>
            <ns3:hr>169</ns3:hr>
            <ns3:cad>0</ns3:cad>
          </ns3:TrackPointExtension>
        </extensions>
      </trkpt>
      <trkpt lat="44.6903709881007671356201171875" lon="6.7767568118870258331298828125">
        <ele>2145.39990234375</ele>
        <time>2026-09-03T07:36:12.000Z</time>
        <extensions>
          <ns3:TrackPointExtension>
            <ns3:hr>169</ns3:hr>
            <ns3:cad>0</ns3:cad>
          </ns3:TrackPointExtension>
        </extensions>
      </trkpt>
      <trkpt lat="44.6903656236827373504638671875" lon="6.77676041610538959503173828125">
        <ele>2145.60009765625</ele>
        <time>2026-09-03T07:36:13.000Z</time>
        <extensions>
          <ns3:TrackPointExtension>
            <ns3:hr>169</ns3:hr>
            <ns3:cad>0</ns3:cad>
          </ns3:TrackPointExtension>
        </extensions>
      </trkpt>
      <trkpt lat="44.69035699032247066497802734375" lon="6.77676443941891193389892578125">
        <ele>2145.800048828125</ele>
        <time>2026-09-03T07:36:14.000Z</time>
        <extensions>
          <ns3:TrackPointExtension>
            <ns3:hr>170</ns3:hr>
            <ns3:cad>0</ns3:cad>
          </ns3:TrackPointExtension>
        </extensions>
      </trkpt>
      <trkpt lat="44.69035439193248748779296875" lon="6.77677298896014690399169921875">
        <ele>2146</ele>
        <time>2026-09-03T07:36:15.000Z</time>
        <extensions>
          <ns3:TrackPointExtension>
            <ns3:hr>170</ns3:hr>
            <ns3:cad>0</ns3:cad>
          </ns3:TrackPointExtension>
        </extensions>
      </trkpt>
      <trkpt lat="44.6903468482196331024169921875" lon="6.77679008804261684417724609375">
        <ele>2146.39990234375</ele>
        <time>2026-09-03T07:36:16.000Z</time>
        <extensions>
          <ns3:TrackPointExtension>
            <ns3:hr>170</ns3:hr>
            <ns3:cad>0</ns3:cad>
          </ns3:TrackPointExtension>
        </extensions>
      </trkpt>
      <trkpt lat="44.69033855013549327850341796875" lon="6.7768017388880252838134765625">
        <ele>2146.60009765625</ele>
        <time>2026-09-03T07:36:17.000Z</time>
        <extensions>
          <ns3:TrackPointExtension>
            <ns3:hr>171</ns3:hr>
            <ns3:cad>0</ns3:cad>
          </ns3:TrackPointExtension>
        </extensions>
      </trkpt>
      <trkpt lat="44.6903290785849094390869140625" lon="6.776807270944118499755859375">
        <ele>2146.800048828125</ele>
        <time>2026-09-03T07:36:18.000Z</time>
        <extensions>
          <ns3:TrackPointExtension>
            <ns3:hr>171</ns3:hr>
            <ns3:cad>0</ns3:cad>
          </ns3:TrackPointExtension>
        </extensions>
      </trkpt>
      <trkpt lat="44.69032061286270618438720703125" lon="6.7768138088285923004150390625">
        <ele>2147</ele>
        <time>2026-09-03T07:36:19.000Z</time>
        <extensions>
          <ns3:TrackPointExtension>
            <ns3:hr>172</ns3:hr>
            <ns3:cad>0</ns3:cad>
          </ns3:TrackPointExtension>
        </extensions>
      </trkpt>
      <trkpt lat="44.690315164625644683837890625" lon="6.7768201790750026702880859375">
        <ele>2147.39990234375</ele>
        <time>2026-09-03T07:36:20.000Z</time>
        <extensions>
          <ns3:TrackPointExtension>
            <ns3:hr>172</ns3:hr>
            <ns3:cad>0</ns3:cad>
          </ns3:TrackPointExtension>
        </extensions>
      </trkpt>
      <trkpt lat="44.69031156040728092193603515625" lon="6.776822693645954132080078125">
        <ele>2147.60009765625</ele>
        <time>2026-09-03T07:36:21.000Z</time>
        <extensions>
          <ns3:TrackPointExtension>
            <ns3:hr>172</ns3:hr>
            <ns3:cad>0</ns3:cad>
          </ns3:TrackPointExtension>
        </extensions>
      </trkpt>
      <trkpt lat="44.69030183739960193634033203125" lon="6.77682965062558650970458984375">
        <ele>2147.800048828125</ele>
        <time>2026-09-03T07:36:22.000Z</time>
        <extensions>
          <ns3:TrackPointExtension>
            <ns3:hr>172</ns3:hr>
            <ns3:cad>0</ns3:cad>
          </ns3:TrackPointExtension>
        </extensions>
      </trkpt>
      <trkpt lat="44.69029781408607959747314453125" lon="6.77683015353977680206298828125">
        <ele>2148</ele>
        <time>2026-09-03T07:36:23.000Z</time>
        <extensions>
          <ns3:TrackPointExtension>
            <ns3:hr>172</ns3:hr>
            <ns3:cad>0</ns3:cad>
          </ns3:TrackPointExtension>
        </extensions>
      </trkpt>
      <trkpt lat="44.69029136002063751220703125" lon="6.7768359370529651641845703125">
        <ele>2148.199951171875</ele>
        <time>2026-09-03T07:36:24.000Z</time>
        <extensions>
          <ns3:TrackPointExtension>
            <ns3:hr>173</ns3:hr>
            <ns3:cad>0</ns3:cad>
          </ns3:TrackPointExtension>
        </extensions>
      </trkpt>
      <trkpt lat="44.69028574414551258087158203125" lon="6.77684272639453411102294921875">
        <ele>2148.39990234375</ele>
        <time>2026-09-03T07:36:25.000Z</time>
        <extensions>
          <ns3:TrackPointExtension>
            <ns3:hr>173</ns3:hr>
            <ns3:cad>0</ns3:cad>
          </ns3:TrackPointExtension>
        </extensions>
      </trkpt>
      <trkpt lat="44.690284319221973419189453125" lon="6.77685010246932506561279296875">
        <ele>2148.60009765625</ele>
        <time>2026-09-03T07:36:26.000Z</time>
        <extensions>
          <ns3:TrackPointExtension>
            <ns3:hr>173</ns3:hr>
            <ns3:cad>0</ns3:cad>
          </ns3:TrackPointExtension>
        </extensions>
      </trkpt>
      <trkpt lat="44.69028188847005367279052734375" lon="6.77685379050672054290771484375">
        <ele>2148.800048828125</ele>
        <time>2026-09-03T07:36:27.000Z</time>
        <extensions>
          <ns3:TrackPointExtension>
            <ns3:hr>173</ns3:hr>
            <ns3:cad>0</ns3:cad>
          </ns3:TrackPointExtension>
        </extensions>
      </trkpt>
      <trkpt lat="44.69027685932815074920654296875" lon="6.7768644355237483978271484375">
        <ele>2149</ele>
        <time>2026-09-03T07:36:28.000Z</time>
        <extensions>
          <ns3:TrackPointExtension>
            <ns3:hr>173</ns3:hr>
            <ns3:cad>0</ns3:cad>
          </ns3:TrackPointExtension>
        </extensions>
      </trkpt>
      <trkpt lat="44.69027233310043811798095703125" lon="6.7768691293895244598388671875">
        <ele>2149.199951171875</ele>
        <time>2026-09-03T07:36:29.000Z</time>
        <extensions>
          <ns3:TrackPointExtension>
            <ns3:hr>173</ns3:hr>
            <ns3:cad>0</ns3:cad>
          </ns3:TrackPointExtension>
        </extensions>
      </trkpt>
      <trkpt lat="44.69026696868240833282470703125" lon="6.77687541581690311431884765625">
        <ele>2149.39990234375</ele>
        <time>2026-09-03T07:36:30.000Z</time>
        <extensions>
          <ns3:TrackPointExtension>
            <ns3:hr>173</ns3:hr>
            <ns3:cad>0</ns3:cad>
          </ns3:TrackPointExtension>
        </extensions>
      </trkpt>
      <trkpt lat="44.690257497131824493408203125" lon="6.77688497118651866912841796875">
        <ele>2149.60009765625</ele>
        <time>2026-09-03T07:36:31.000Z</time>
        <extensions>
          <ns3:TrackPointExtension>
            <ns3:hr>173</ns3:hr>
            <ns3:cad>0</ns3:cad>
          </ns3:TrackPointExtension>
        </extensions>
      </trkpt>
      <trkpt lat="44.6902506239712238311767578125" lon="6.77689217962324619293212890625">
        <ele>2149.800048828125</ele>
        <time>2026-09-03T07:36:32.000Z</time>
        <extensions>
          <ns3:TrackPointExtension>
            <ns3:hr>173</ns3:hr>
            <ns3:cad>0</ns3:cad>
          </ns3:TrackPointExtension>
        </extensions>
      </trkpt>
      <trkpt lat="44.69024534337222576141357421875" lon="6.776897124946117401123046875">
        <ele>2150</ele>
        <time>2026-09-03T07:36:33.000Z</time>
        <extensions>
          <ns3:TrackPointExtension>
            <ns3:hr>173</ns3:hr>
            <ns3:cad>0</ns3:cad>
          </ns3:TrackPointExtension>
        </extensions>
      </trkpt>
      <trkpt lat="44.690242744982242584228515625" lon="6.7769023217260837554931640625">
        <ele>2150.39990234375</ele>
        <time>2026-09-03T07:36:34.000Z</time>
        <extensions>
          <ns3:TrackPointExtension>
            <ns3:hr>173</ns3:hr>
            <ns3:cad>0</ns3:cad>
          </ns3:TrackPointExtension>
        </extensions>
      </trkpt>
      <trkpt lat="44.69023444689810276031494140625" lon="6.7769108712673187255859375">
        <ele>2150.60009765625</ele>
        <time>2026-09-03T07:36:35.000Z</time>
        <extensions>
          <ns3:TrackPointExtension>
            <ns3:hr>174</ns3:hr>
            <ns3:cad>0</ns3:cad>
          </ns3:TrackPointExtension>
        </extensions>
      </trkpt>
      <trkpt lat="44.69022757373750209808349609375" lon="6.77692436613142490386962890625">
        <ele>2150.60009765625</ele>
        <time>2026-09-03T07:36:36.000Z</time>
        <extensions>
          <ns3:TrackPointExtension>
            <ns3:hr>174</ns3:hr>
            <ns3:cad>0</ns3:cad>
          </ns3:TrackPointExtension>
        </extensions>
      </trkpt>
      <trkpt lat="44.69022028148174285888671875" lon="6.77692872472107410430908203125">
        <ele>2151</ele>
        <time>2026-09-03T07:36:37.000Z</time>
        <extensions>
          <ns3:TrackPointExtension>
            <ns3:hr>174</ns3:hr>
            <ns3:cad>0</ns3:cad>
          </ns3:TrackPointExtension>
        </extensions>
      </trkpt>
      <trkpt lat="44.690215252339839935302734375" lon="6.7769341729581356048583984375">
        <ele>2151</ele>
        <time>2026-09-03T07:36:38.000Z</time>
        <extensions>
          <ns3:TrackPointExtension>
            <ns3:hr>174</ns3:hr>
            <ns3:cad>0</ns3:cad>
          </ns3:TrackPointExtension>
        </extensions>
      </trkpt>
      <trkpt lat="44.69020829536020755767822265625" lon="6.77693811245262622833251953125">
        <ele>2151.199951171875</ele>
        <time>2026-09-03T07:36:39.000Z</time>
        <extensions>
          <ns3:TrackPointExtension>
            <ns3:hr>175</ns3:hr>
            <ns3:cad>0</ns3:cad>
          </ns3:TrackPointExtension>
        </extensions>
      </trkpt>
      <trkpt lat="44.6901927888393402099609375" lon="6.7769311554729938507080078125">
        <ele>2151.39990234375</ele>
        <time>2026-09-03T07:36:40.000Z</time>
        <extensions>
          <ns3:TrackPointExtension>
            <ns3:hr>176</ns3:hr>
            <ns3:cad>0</ns3:cad>
          </ns3:TrackPointExtension>
        </extensions>
      </trkpt>
      <trkpt lat="44.6901849098503589630126953125" lon="6.77693157456815242767333984375">
        <ele>2151.60009765625</ele>
        <time>2026-09-03T07:36:41.000Z</time>
        <extensions>
          <ns3:TrackPointExtension>
            <ns3:hr>176</ns3:hr>
            <ns3:cad>0</ns3:cad>
          </ns3:TrackPointExtension>
        </extensions>
      </trkpt>
      <trkpt lat="44.69017677940428256988525390625" lon="6.77693475969135761260986328125">
        <ele>2151.800048828125</ele>
        <time>2026-09-03T07:36:42.000Z</time>
        <extensions>
          <ns3:TrackPointExtension>
            <ns3:hr>177</ns3:hr>
            <ns3:cad>0</ns3:cad>
          </ns3:TrackPointExtension>
        </extensions>
      </trkpt>
      <trkpt lat="44.690169990062713623046875" lon="6.77693945355713367462158203125">
        <ele>2152</ele>
        <time>2026-09-03T07:36:43.000Z</time>
        <extensions>
          <ns3:TrackPointExtension>
            <ns3:hr>177</ns3:hr>
            <ns3:cad>0</ns3:cad>
          </ns3:TrackPointExtension>
        </extensions>
      </trkpt>
      <trkpt lat="44.69016655348241329193115234375" lon="6.7769445665180683135986328125">
        <ele>2152.199951171875</ele>
        <time>2026-09-03T07:36:44.000Z</time>
        <extensions>
          <ns3:TrackPointExtension>
            <ns3:hr>178</ns3:hr>
            <ns3:cad>40</ns3:cad>
          </ns3:TrackPointExtension>
        </extensions>
      </trkpt>
      <trkpt lat="44.69016202725470066070556640625" lon="6.77694951184093952178955078125">
        <ele>2152.60009765625</ele>
        <time>2026-09-03T07:36:45.000Z</time>
        <extensions>
          <ns3:TrackPointExtension>
            <ns3:hr>178</ns3:hr>
            <ns3:cad>40</ns3:cad>
          </ns3:TrackPointExtension>
        </extensions>
      </trkpt>
      <trkpt lat="44.690163619816303253173828125" lon="6.776947081089019775390625">
        <ele>2152.800048828125</ele>
        <time>2026-09-03T07:36:46.000Z</time>
        <extensions>
          <ns3:TrackPointExtension>
            <ns3:hr>178</ns3:hr>
            <ns3:cad>40</ns3:cad>
          </ns3:TrackPointExtension>
        </extensions>
      </trkpt>
      <trkpt lat="44.69016152434051036834716796875" lon="6.77695035003125667572021484375">
        <ele>2153.199951171875</ele>
        <time>2026-09-03T07:36:47.000Z</time>
        <extensions>
          <ns3:TrackPointExtension>
            <ns3:hr>177</ns3:hr>
            <ns3:cad>0</ns3:cad>
          </ns3:TrackPointExtension>
        </extensions>
      </trkpt>
      <trkpt lat="44.690162949264049530029296875" lon="6.77695286460220813751220703125">
        <ele>2153.39990234375</ele>
        <time>2026-09-03T07:36:48.000Z</time>
        <extensions>
          <ns3:TrackPointExtension>
            <ns3:hr>177</ns3:hr>
            <ns3:cad>0</ns3:cad>
          </ns3:TrackPointExtension>
        </extensions>
      </trkpt>
      <trkpt lat="44.69016487710177898406982421875" lon="6.7769532836973667144775390625">
        <ele>2153.60009765625</ele>
        <time>2026-09-03T07:36:49.000Z</time>
        <extensions>
          <ns3:TrackPointExtension>
            <ns3:hr>177</ns3:hr>
            <ns3:cad>50</ns3:cad>
          </ns3:TrackPointExtension>
        </extensions>
      </trkpt>
      <trkpt lat="44.6901708282530307769775390625" lon="6.77695487625896930694580078125">
        <ele>2153.800048828125</ele>
        <time>2026-09-03T07:36:50.000Z</time>
        <extensions>
          <ns3:TrackPointExtension>
            <ns3:hr>177</ns3:hr>
            <ns3:cad>50</ns3:cad>
          </ns3:TrackPointExtension>
        </extensions>
      </trkpt>
      <trkpt lat="44.69018382020294666290283203125" lon="6.7769583128392696380615234375">
        <ele>2154</ele>
        <time>2026-09-03T07:36:51.000Z</time>
        <extensions>
          <ns3:TrackPointExtension>
            <ns3:hr>177</ns3:hr>
            <ns3:cad>50</ns3:cad>
          </ns3:TrackPointExtension>
        </extensions>
      </trkpt>
      <trkpt lat="44.6901959739625453948974609375" lon="6.77696384489536285400390625">
        <ele>2154.199951171875</ele>
        <time>2026-09-03T07:36:52.000Z</time>
        <extensions>
          <ns3:TrackPointExtension>
            <ns3:hr>177</ns3:hr>
            <ns3:cad>0</ns3:cad>
          </ns3:TrackPointExtension>
        </extensions>
      </trkpt>
      <trkpt lat="44.69020418822765350341796875" lon="6.7769690416753292083740234375">
        <ele>2154.39990234375</ele>
        <time>2026-09-03T07:36:53.000Z</time>
        <extensions>
          <ns3:TrackPointExtension>
            <ns3:hr>177</ns3:hr>
            <ns3:cad>0</ns3:cad>
          </ns3:TrackPointExtension>
        </extensions>
      </trkpt>
      <trkpt lat="44.69021131284534931182861328125" lon="6.7769730649888515472412109375">
        <ele>2154.39990234375</ele>
        <time>2026-09-03T07:36:54.000Z</time>
        <extensions>
          <ns3:TrackPointExtension>
            <ns3:hr>176</ns3:hr>
            <ns3:cad>0</ns3:cad>
          </ns3:TrackPointExtension>
        </extensions>
      </trkpt>
      <trkpt lat="44.6902196109294891357421875" lon="6.7769752442836761474609375">
        <ele>2154.60009765625</ele>
        <time>2026-09-03T07:36:55.000Z</time>
        <extensions>
          <ns3:TrackPointExtension>
            <ns3:hr>176</ns3:hr>
            <ns3:cad>0</ns3:cad>
          </ns3:TrackPointExtension>
        </extensions>
      </trkpt>
      <trkpt lat="44.690228998661041259765625" lon="6.77697650156915187835693359375">
        <ele>2154.800048828125</ele>
        <time>2026-09-03T07:36:56.000Z</time>
        <extensions>
          <ns3:TrackPointExtension>
            <ns3:hr>176</ns3:hr>
            <ns3:cad>0</ns3:cad>
          </ns3:TrackPointExtension>
        </extensions>
      </trkpt>
      <trkpt lat="44.690244756639003753662109375" lon="6.77698236890137195587158203125">
        <ele>2155</ele>
        <time>2026-09-03T07:36:57.000Z</time>
        <extensions>
          <ns3:TrackPointExtension>
            <ns3:hr>175</ns3:hr>
            <ns3:cad>0</ns3:cad>
          </ns3:TrackPointExtension>
        </extensions>
      </trkpt>
      <trkpt lat="44.6902596764266490936279296875" lon="6.77698907442390918731689453125">
        <ele>2155</ele>
        <time>2026-09-03T07:36:58.000Z</time>
        <extensions>
          <ns3:TrackPointExtension>
            <ns3:hr>175</ns3:hr>
            <ns3:cad>0</ns3:cad>
          </ns3:TrackPointExtension>
        </extensions>
      </trkpt>
      <trkpt lat="44.6902692317962646484375" lon="6.776994355022907257080078125">
        <ele>2155.199951171875</ele>
        <time>2026-09-03T07:36:59.000Z</time>
        <extensions>
          <ns3:TrackPointExtension>
            <ns3:hr>174</ns3:hr>
            <ns3:cad>0</ns3:cad>
          </ns3:TrackPointExtension>
        </extensions>
      </trkpt>
      <trkpt lat="44.69028155319392681121826171875" lon="6.77701388485729694366455078125">
        <ele>2155.39990234375</ele>
        <time>2026-09-03T07:37:00.000Z</time>
        <extensions>
          <ns3:TrackPointExtension>
            <ns3:hr>174</ns3:hr>
            <ns3:cad>0</ns3:cad>
          </ns3:TrackPointExtension>
        </extensions>
      </trkpt>
      <trkpt lat="44.6902901865541934967041015625" lon="6.7770262062549591064453125">
        <ele>2155.39990234375</ele>
        <time>2026-09-03T07:37:01.000Z</time>
        <extensions>
          <ns3:TrackPointExtension>
            <ns3:hr>173</ns3:hr>
            <ns3:cad>0</ns3:cad>
          </ns3:TrackPointExtension>
        </extensions>
      </trkpt>
      <trkpt lat="44.6902955509722232818603515625" lon="6.7770449817180633544921875">
        <ele>2155.60009765625</ele>
        <time>2026-09-03T07:37:02.000Z</time>
        <extensions>
          <ns3:TrackPointExtension>
            <ns3:hr>173</ns3:hr>
            <ns3:cad>57</ns3:cad>
          </ns3:TrackPointExtension>
        </extensions>
      </trkpt>
      <trkpt lat="44.69030066393315792083740234375" lon="6.7770583927631378173828125">
        <ele>2155.60009765625</ele>
        <time>2026-09-03T07:37:03.000Z</time>
        <extensions>
          <ns3:TrackPointExtension>
            <ns3:hr>172</ns3:hr>
            <ns3:cad>57</ns3:cad>
          </ns3:TrackPointExtension>
        </extensions>
      </trkpt>
      <trkpt lat="44.69030435197055339813232421875" lon="6.77707004360854625701904296875">
        <ele>2155.800048828125</ele>
        <time>2026-09-03T07:37:04.000Z</time>
        <extensions>
          <ns3:TrackPointExtension>
            <ns3:hr>172</ns3:hr>
            <ns3:cad>57</ns3:cad>
          </ns3:TrackPointExtension>
        </extensions>
      </trkpt>
      <trkpt lat="44.69030770473182201385498046875" lon="6.77707892842590808868408203125">
        <ele>2156</ele>
        <time>2026-09-03T07:37:05.000Z</time>
        <extensions>
          <ns3:TrackPointExtension>
            <ns3:hr>172</ns3:hr>
            <ns3:cad>57</ns3:cad>
          </ns3:TrackPointExtension>
        </extensions>
      </trkpt>
      <trkpt lat="44.69031139276921749114990234375" lon="6.77708663977682590484619140625">
        <ele>2156</ele>
        <time>2026-09-03T07:37:06.000Z</time>
        <extensions>
          <ns3:TrackPointExtension>
            <ns3:hr>171</ns3:hr>
            <ns3:cad>57</ns3:cad>
          </ns3:TrackPointExtension>
        </extensions>
      </trkpt>
      <trkpt lat="44.69031759537756443023681640625" lon="6.7770974524319171905517578125">
        <ele>2156.199951171875</ele>
        <time>2026-09-03T07:37:07.000Z</time>
        <extensions>
          <ns3:TrackPointExtension>
            <ns3:hr>171</ns3:hr>
            <ns3:cad>57</ns3:cad>
          </ns3:TrackPointExtension>
        </extensions>
      </trkpt>
      <trkpt lat="44.69032480381429195404052734375" lon="6.77710776217281818389892578125">
        <ele>2156.39990234375</ele>
        <time>2026-09-03T07:37:08.000Z</time>
        <extensions>
          <ns3:TrackPointExtension>
            <ns3:hr>171</ns3:hr>
            <ns3:cad>57</ns3:cad>
          </ns3:TrackPointExtension>
        </extensions>
      </trkpt>
      <trkpt lat="44.6903295814990997314453125" lon="6.77711798809468746185302734375">
        <ele>2156.60009765625</ele>
        <time>2026-09-03T07:37:09.000Z</time>
        <extensions>
          <ns3:TrackPointExtension>
            <ns3:hr>170</ns3:hr>
            <ns3:cad>57</ns3:cad>
          </ns3:TrackPointExtension>
        </extensions>
      </trkpt>
      <trkpt lat="44.69033486209809780120849609375" lon="6.77712486125528812408447265625">
        <ele>2156.800048828125</ele>
        <time>2026-09-03T07:37:10.000Z</time>
        <extensions>
          <ns3:TrackPointExtension>
            <ns3:hr>170</ns3:hr>
            <ns3:cad>57</ns3:cad>
          </ns3:TrackPointExtension>
        </extensions>
      </trkpt>
      <trkpt lat="44.690341316163539886474609375" lon="6.777130477130413055419921875">
        <ele>2157</ele>
        <time>2026-09-03T07:37:11.000Z</time>
        <extensions>
          <ns3:TrackPointExtension>
            <ns3:hr>170</ns3:hr>
            <ns3:cad>48</ns3:cad>
          </ns3:TrackPointExtension>
        </extensions>
      </trkpt>
      <trkpt lat="44.69034969806671142578125" lon="6.77713525481522083282470703125">
        <ele>2157</ele>
        <time>2026-09-03T07:37:12.000Z</time>
        <extensions>
          <ns3:TrackPointExtension>
            <ns3:hr>169</ns3:hr>
            <ns3:cad>47</ns3:cad>
          </ns3:TrackPointExtension>
        </extensions>
      </trkpt>
      <trkpt lat="44.69035439193248748779296875" lon="6.77713827230036258697509765625">
        <ele>2157.199951171875</ele>
        <time>2026-09-03T07:37:13.000Z</time>
        <extensions>
          <ns3:TrackPointExtension>
            <ns3:hr>169</ns3:hr>
            <ns3:cad>47</ns3:cad>
          </ns3:TrackPointExtension>
        </extensions>
      </trkpt>
      <trkpt lat="44.6903629414737224578857421875" lon="6.77714665420353412628173828125">
        <ele>2157.39990234375</ele>
        <time>2026-09-03T07:37:14.000Z</time>
        <extensions>
          <ns3:TrackPointExtension>
            <ns3:hr>169</ns3:hr>
            <ns3:cad>51</ns3:cad>
          </ns3:TrackPointExtension>
        </extensions>
      </trkpt>
      <trkpt lat="44.69036973081529140472412109375" lon="6.7771574668586254119873046875">
        <ele>2157.60009765625</ele>
        <time>2026-09-03T07:37:15.000Z</time>
        <extensions>
          <ns3:TrackPointExtension>
            <ns3:hr>169</ns3:hr>
            <ns3:cad>51</ns3:cad>
          </ns3:TrackPointExtension>
        </extensions>
      </trkpt>
      <trkpt lat="44.6903751790523529052734375" lon="6.77716727368533611297607421875">
        <ele>2157.800048828125</ele>
        <time>2026-09-03T07:37:16.000Z</time>
        <extensions>
          <ns3:TrackPointExtension>
            <ns3:hr>169</ns3:hr>
            <ns3:cad>51</ns3:cad>
          </ns3:TrackPointExtension>
        </extensions>
      </trkpt>
      <trkpt lat="44.69037861563265323638916015625" lon="6.7771749012172222137451171875">
        <ele>2157.800048828125</ele>
        <time>2026-09-03T07:37:17.000Z</time>
        <extensions>
          <ns3:TrackPointExtension>
            <ns3:hr>168</ns3:hr>
            <ns3:cad>51</ns3:cad>
          </ns3:TrackPointExtension>
        </extensions>
      </trkpt>
      <trkpt lat="44.69038314186036586761474609375" lon="6.77718378603458404541015625">
        <ele>2158</ele>
        <time>2026-09-03T07:37:18.000Z</time>
        <extensions>
          <ns3:TrackPointExtension>
            <ns3:hr>168</ns3:hr>
            <ns3:cad>54</ns3:cad>
          </ns3:TrackPointExtension>
        </extensions>
      </trkpt>
      <trkpt lat="44.69040158204734325408935546875" lon="6.777190156280994415283203125">
        <ele>2158.199951171875</ele>
        <time>2026-09-03T07:37:19.000Z</time>
        <extensions>
          <ns3:TrackPointExtension>
            <ns3:hr>168</ns3:hr>
            <ns3:cad>54</ns3:cad>
          </ns3:TrackPointExtension>
        </extensions>
      </trkpt>
      <trkpt lat="44.69040744937956333160400390625" lon="6.77719174884259700775146484375">
        <ele>2158.39990234375</ele>
        <time>2026-09-03T07:37:20.000Z</time>
        <extensions>
          <ns3:TrackPointExtension>
            <ns3:hr>167</ns3:hr>
            <ns3:cad>54</ns3:cad>
          </ns3:TrackPointExtension>
        </extensions>
      </trkpt>
      <trkpt lat="44.690410383045673370361328125" lon="6.77719292230904102325439453125">
        <ele>2158.60009765625</ele>
        <time>2026-09-03T07:37:21.000Z</time>
        <extensions>
          <ns3:TrackPointExtension>
            <ns3:hr>167</ns3:hr>
            <ns3:cad>53</ns3:cad>
          </ns3:TrackPointExtension>
        </extensions>
      </trkpt>
      <trkpt lat="44.69041583128273487091064453125" lon="6.7771926708519458770751953125">
        <ele>2158.800048828125</ele>
        <time>2026-09-03T07:37:22.000Z</time>
        <extensions>
          <ns3:TrackPointExtension>
            <ns3:hr>167</ns3:hr>
            <ns3:cad>0</ns3:cad>
          </ns3:TrackPointExtension>
        </extensions>
      </trkpt>
      <trkpt lat="44.6904202736914157867431640625" lon="6.7771926708519458770751953125">
        <ele>2158.800048828125</ele>
        <time>2026-09-03T07:37:23.000Z</time>
        <extensions>
          <ns3:TrackPointExtension>
            <ns3:hr>167</ns3:hr>
            <ns3:cad>0</ns3:cad>
          </ns3:TrackPointExtension>
        </extensions>
      </trkpt>
      <trkpt lat="44.69042404554784297943115234375" lon="6.77719317376613616943359375">
        <ele>2158.800048828125</ele>
        <time>2026-09-03T07:37:24.000Z</time>
        <extensions>
          <ns3:TrackPointExtension>
            <ns3:hr>166</ns3:hr>
            <ns3:cad>0</ns3:cad>
          </ns3:TrackPointExtension>
        </extensions>
      </trkpt>
      <trkpt lat="44.690425805747509002685546875" lon="6.7771923355758190155029296875">
        <ele>2158.800048828125</ele>
        <time>2026-09-03T07:37:25.000Z</time>
        <extensions>
          <ns3:TrackPointExtension>
            <ns3:hr>166</ns3:hr>
            <ns3:cad>0</ns3:cad>
          </ns3:TrackPointExtension>
        </extensions>
      </trkpt>
      <trkpt lat="44.69042672775685787200927734375" lon="6.777192838490009307861328125">
        <ele>2158.800048828125</ele>
        <time>2026-09-03T07:37:26.000Z</time>
        <extensions>
          <ns3:TrackPointExtension>
            <ns3:hr>165</ns3:hr>
            <ns3:cad>0</ns3:cad>
          </ns3:TrackPointExtension>
        </extensions>
      </trkpt>
      <trkpt lat="44.6904269792139530181884765625" lon="6.77719241939485073089599609375">
        <ele>2158.60009765625</ele>
        <time>2026-09-03T07:37:27.000Z</time>
        <extensions>
          <ns3:TrackPointExtension>
            <ns3:hr>165</ns3:hr>
            <ns3:cad>0</ns3:cad>
          </ns3:TrackPointExtension>
        </extensions>
      </trkpt>
      <trkpt lat="44.69042739830911159515380859375" lon="6.77719191648066043853759765625">
        <ele>2158.60009765625</ele>
        <time>2026-09-03T07:37:28.000Z</time>
        <extensions>
          <ns3:TrackPointExtension>
            <ns3:hr>165</ns3:hr>
            <ns3:cad>0</ns3:cad>
          </ns3:TrackPointExtension>
        </extensions>
      </trkpt>
      <trkpt lat="44.69042940996587276458740234375" lon="6.77719208411872386932373046875">
        <ele>2158.60009765625</ele>
        <time>2026-09-03T07:37:29.000Z</time>
        <extensions>
          <ns3:TrackPointExtension>
            <ns3:hr>165</ns3:hr>
            <ns3:cad>0</ns3:cad>
          </ns3:TrackPointExtension>
        </extensions>
      </trkpt>
      <trkpt lat="44.69042823649942874908447265625" lon="6.7771923355758190155029296875">
        <ele>2158.60009765625</ele>
        <time>2026-09-03T07:37:30.000Z</time>
        <extensions>
          <ns3:TrackPointExtension>
            <ns3:hr>164</ns3:hr>
            <ns3:cad>0</ns3:cad>
          </ns3:TrackPointExtension>
        </extensions>
      </trkpt>
      <trkpt lat="44.690427817404270172119140625" lon="6.7771983705461025238037109375">
        <ele>2158.60009765625</ele>
        <time>2026-09-03T07:37:31.000Z</time>
        <extensions>
          <ns3:TrackPointExtension>
            <ns3:hr>161</ns3:hr>
            <ns3:cad>0</ns3:cad>
          </ns3:TrackPointExtension>
        </extensions>
      </trkpt>
      <trkpt lat="44.69042505137622356414794921875" lon="6.77719493396580219268798828125">
        <ele>2158.800048828125</ele>
        <time>2026-09-03T07:37:32.000Z</time>
        <extensions>
          <ns3:TrackPointExtension>
            <ns3:hr>161</ns3:hr>
            <ns3:cad>0</ns3:cad>
          </ns3:TrackPointExtension>
        </extensions>
      </trkpt>
      <trkpt lat="44.6904269792139530181884765625" lon="6.77720348350703716278076171875">
        <ele>2158.800048828125</ele>
        <time>2026-09-03T07:37:33.000Z</time>
        <extensions>
          <ns3:TrackPointExtension>
            <ns3:hr>161</ns3:hr>
            <ns3:cad>0</ns3:cad>
          </ns3:TrackPointExtension>
        </extensions>
      </trkpt>
      <trkpt lat="44.69042890705168247222900390625" lon="6.77720599807798862457275390625">
        <ele>2159</ele>
        <time>2026-09-03T07:37:34.000Z</time>
        <extensions>
          <ns3:TrackPointExtension>
            <ns3:hr>160</ns3:hr>
            <ns3:cad>0</ns3:cad>
          </ns3:TrackPointExtension>
        </extensions>
      </trkpt>
      <trkpt lat="44.6904306672513484954833984375" lon="6.77721329033374786376953125">
        <ele>2159.199951171875</ele>
        <time>2026-09-03T07:37:35.000Z</time>
        <extensions>
          <ns3:TrackPointExtension>
            <ns3:hr>160</ns3:hr>
            <ns3:cad>47</ns3:cad>
          </ns3:TrackPointExtension>
        </extensions>
      </trkpt>
      <trkpt lat="44.69043276272714138031005859375" lon="6.77722536027431488037109375">
        <ele>2159.60009765625</ele>
        <time>2026-09-03T07:37:36.000Z</time>
        <extensions>
          <ns3:TrackPointExtension>
            <ns3:hr>160</ns3:hr>
            <ns3:cad>47</ns3:cad>
          </ns3:TrackPointExtension>
        </extensions>
      </trkpt>
      <trkpt lat="44.690436534583568572998046875" lon="6.77723784931004047393798828125">
        <ele>2159.800048828125</ele>
        <time>2026-09-03T07:37:37.000Z</time>
        <extensions>
          <ns3:TrackPointExtension>
            <ns3:hr>160</ns3:hr>
            <ns3:cad>48</ns3:cad>
          </ns3:TrackPointExtension>
        </extensions>
      </trkpt>
      <trkpt lat="44.69044064171612262725830078125" lon="6.77725293673574924468994140625">
        <ele>2160</ele>
        <time>2026-09-03T07:37:38.000Z</time>
        <extensions>
          <ns3:TrackPointExtension>
            <ns3:hr>159</ns3:hr>
            <ns3:cad>54</ns3:cad>
          </ns3:TrackPointExtension>
        </extensions>
      </trkpt>
      <trkpt lat="44.69044215045869350433349609375" lon="6.77726483903825283050537109375">
        <ele>2160</ele>
        <time>2026-09-03T07:37:39.000Z</time>
        <extensions>
          <ns3:TrackPointExtension>
            <ns3:hr>158</ns3:hr>
            <ns3:cad>54</ns3:cad>
          </ns3:TrackPointExtension>
        </extensions>
      </trkpt>
      <trkpt lat="44.69044516794383525848388671875" lon="6.7772774957120418548583984375">
        <ele>2160.199951171875</ele>
        <time>2026-09-03T07:37:40.000Z</time>
        <extensions>
          <ns3:TrackPointExtension>
            <ns3:hr>158</ns3:hr>
            <ns3:cad>54</ns3:cad>
          </ns3:TrackPointExtension>
        </extensions>
      </trkpt>
      <trkpt lat="44.6904449164867401123046875" lon="6.7772875539958477020263671875">
        <ele>2160.39990234375</ele>
        <time>2026-09-03T07:37:41.000Z</time>
        <extensions>
          <ns3:TrackPointExtension>
            <ns3:hr>158</ns3:hr>
            <ns3:cad>54</ns3:cad>
          </ns3:TrackPointExtension>
        </extensions>
      </trkpt>
      <trkpt lat="44.69044466502964496612548828125" lon="6.7773029766976833343505859375">
        <ele>2160.39990234375</ele>
        <time>2026-09-03T07:37:42.000Z</time>
        <extensions>
          <ns3:TrackPointExtension>
            <ns3:hr>157</ns3:hr>
            <ns3:cad>54</ns3:cad>
          </ns3:TrackPointExtension>
        </extensions>
      </trkpt>
      <trkpt lat="44.6904430724680423736572265625" lon="6.77731596864759922027587890625">
        <ele>2160.60009765625</ele>
        <time>2026-09-03T07:37:43.000Z</time>
        <extensions>
          <ns3:TrackPointExtension>
            <ns3:hr>157</ns3:hr>
            <ns3:cad>54</ns3:cad>
          </ns3:TrackPointExtension>
        </extensions>
      </trkpt>
      <trkpt lat="44.69044349156320095062255859375" lon="6.77732870914041996002197265625">
        <ele>2160.800048828125</ele>
        <time>2026-09-03T07:37:44.000Z</time>
        <extensions>
          <ns3:TrackPointExtension>
            <ns3:hr>157</ns3:hr>
            <ns3:cad>0</ns3:cad>
          </ns3:TrackPointExtension>
        </extensions>
      </trkpt>
      <trkpt lat="44.690445251762866973876953125" lon="6.77733776159584522247314453125">
        <ele>2161</ele>
        <time>2026-09-03T07:37:45.000Z</time>
        <extensions>
          <ns3:TrackPointExtension>
            <ns3:hr>157</ns3:hr>
            <ns3:cad>0</ns3:cad>
          </ns3:TrackPointExtension>
        </extensions>
      </trkpt>
      <trkpt lat="44.6904460899531841278076171875" lon="6.7773455567657947540283203125">
        <ele>2161.199951171875</ele>
        <time>2026-09-03T07:37:46.000Z</time>
        <extensions>
          <ns3:TrackPointExtension>
            <ns3:hr>157</ns3:hr>
            <ns3:cad>0</ns3:cad>
          </ns3:TrackPointExtension>
        </extensions>
      </trkpt>
      <trkpt lat="44.6904484368860721588134765625" lon="6.77735385484993457794189453125">
        <ele>2161.60009765625</ele>
        <time>2026-09-03T07:37:47.000Z</time>
        <extensions>
          <ns3:TrackPointExtension>
            <ns3:hr>157</ns3:hr>
            <ns3:cad>0</ns3:cad>
          </ns3:TrackPointExtension>
        </extensions>
      </trkpt>
      <trkpt lat="44.69045069999992847442626953125" lon="6.77736273966729640960693359375">
        <ele>2161.800048828125</ele>
        <time>2026-09-03T07:37:48.000Z</time>
        <extensions>
          <ns3:TrackPointExtension>
            <ns3:hr>157</ns3:hr>
            <ns3:cad>0</ns3:cad>
          </ns3:TrackPointExtension>
        </extensions>
      </trkpt>
      <trkpt lat="44.69045338220894336700439453125" lon="6.77737263031303882598876953125">
        <ele>2162</ele>
        <time>2026-09-03T07:37:49.000Z</time>
        <extensions>
          <ns3:TrackPointExtension>
            <ns3:hr>157</ns3:hr>
            <ns3:cad>0</ns3:cad>
          </ns3:TrackPointExtension>
        </extensions>
      </trkpt>
      <trkpt lat="44.69045673497021198272705078125" lon="6.77738000638782978057861328125">
        <ele>2162.199951171875</ele>
        <time>2026-09-03T07:37:50.000Z</time>
        <extensions>
          <ns3:TrackPointExtension>
            <ns3:hr>157</ns3:hr>
            <ns3:cad>0</ns3:cad>
          </ns3:TrackPointExtension>
        </extensions>
      </trkpt>
      <trkpt lat="44.69045824371278285980224609375" lon="6.777391321957111358642578125">
        <ele>2162.39990234375</ele>
        <time>2026-09-03T07:37:51.000Z</time>
        <extensions>
          <ns3:TrackPointExtension>
            <ns3:hr>157</ns3:hr>
            <ns3:cad>0</ns3:cad>
          </ns3:TrackPointExtension>
        </extensions>
      </trkpt>
      <trkpt lat="44.69045363366603851318359375" lon="6.777401380240917205810546875">
        <ele>2162.60009765625</ele>
        <time>2026-09-03T07:37:52.000Z</time>
        <extensions>
          <ns3:TrackPointExtension>
            <ns3:hr>157</ns3:hr>
            <ns3:cad>0</ns3:cad>
          </ns3:TrackPointExtension>
        </extensions>
      </trkpt>
      <trkpt lat="44.69044785015285015106201171875" lon="6.7774178087711334228515625">
        <ele>2162.800048828125</ele>
        <time>2026-09-03T07:37:53.000Z</time>
        <extensions>
          <ns3:TrackPointExtension>
            <ns3:hr>157</ns3:hr>
            <ns3:cad>0</ns3:cad>
          </ns3:TrackPointExtension>
        </extensions>
      </trkpt>
      <trkpt lat="44.690448939800262451171875" lon="6.77743230946362018585205078125">
        <ele>2163</ele>
        <time>2026-09-03T07:37:54.000Z</time>
        <extensions>
          <ns3:TrackPointExtension>
            <ns3:hr>157</ns3:hr>
            <ns3:cad>0</ns3:cad>
          </ns3:TrackPointExtension>
        </extensions>
      </trkpt>
      <trkpt lat="44.690445922315120697021484375" lon="6.77745762281119823455810546875">
        <ele>2163.199951171875</ele>
        <time>2026-09-03T07:37:55.000Z</time>
        <extensions>
          <ns3:TrackPointExtension>
            <ns3:hr>158</ns3:hr>
            <ns3:cad>0</ns3:cad>
          </ns3:TrackPointExtension>
        </extensions>
      </trkpt>
      <trkpt lat="44.69044617377221584320068359375" lon="6.77747237496078014373779296875">
        <ele>2163.39990234375</ele>
        <time>2026-09-03T07:37:56.000Z</time>
        <extensions>
          <ns3:TrackPointExtension>
            <ns3:hr>158</ns3:hr>
            <ns3:cad>0</ns3:cad>
          </ns3:TrackPointExtension>
        </extensions>
      </trkpt>
      <trkpt lat="44.69044449739158153533935546875" lon="6.7774863727390766143798828125">
        <ele>2163.800048828125</ele>
        <time>2026-09-03T07:37:57.000Z</time>
        <extensions>
          <ns3:TrackPointExtension>
            <ns3:hr>158</ns3:hr>
            <ns3:cad>0</ns3:cad>
          </ns3:TrackPointExtension>
        </extensions>
      </trkpt>
      <trkpt lat="44.69044349156320095062255859375" lon="6.77749634720385074615478515625">
        <ele>2163.800048828125</ele>
        <time>2026-09-03T07:37:58.000Z</time>
        <extensions>
          <ns3:TrackPointExtension>
            <ns3:hr>159</ns3:hr>
            <ns3:cad>0</ns3:cad>
          </ns3:TrackPointExtension>
        </extensions>
      </trkpt>
      <trkpt lat="44.69044516794383525848388671875" lon="6.77750657312572002410888671875">
        <ele>2164.199951171875</ele>
        <time>2026-09-03T07:37:59.000Z</time>
        <extensions>
          <ns3:TrackPointExtension>
            <ns3:hr>159</ns3:hr>
            <ns3:cad>0</ns3:cad>
          </ns3:TrackPointExtension>
        </extensions>
      </trkpt>
      <trkpt lat="44.6904474310576915740966796875" lon="6.77752132527530193328857421875">
        <ele>2164.199951171875</ele>
        <time>2026-09-03T07:38:00.000Z</time>
        <extensions>
          <ns3:TrackPointExtension>
            <ns3:hr>160</ns3:hr>
            <ns3:cad>0</ns3:cad>
          </ns3:TrackPointExtension>
        </extensions>
      </trkpt>
      <trkpt lat="44.690449945628643035888671875" lon="6.777526438236236572265625">
        <ele>2164.39990234375</ele>
        <time>2026-09-03T07:38:01.000Z</time>
        <extensions>
          <ns3:TrackPointExtension>
            <ns3:hr>160</ns3:hr>
            <ns3:cad>0</ns3:cad>
          </ns3:TrackPointExtension>
        </extensions>
      </trkpt>
      <trkpt lat="44.6904531307518482208251953125" lon="6.77754186093807220458984375">
        <ele>2164.60009765625</ele>
        <time>2026-09-03T07:38:02.000Z</time>
        <extensions>
          <ns3:TrackPointExtension>
            <ns3:hr>160</ns3:hr>
            <ns3:cad>0</ns3:cad>
          </ns3:TrackPointExtension>
        </extensions>
      </trkpt>
      <trkpt lat="44.690455980598926544189453125" lon="6.7775537632405757904052734375">
        <ele>2164.800048828125</ele>
        <time>2026-09-03T07:38:03.000Z</time>
        <extensions>
          <ns3:TrackPointExtension>
            <ns3:hr>160</ns3:hr>
            <ns3:cad>0</ns3:cad>
          </ns3:TrackPointExtension>
        </extensions>
      </trkpt>
      <trkpt lat="44.69045975245535373687744140625" lon="6.77757346071302890777587890625">
        <ele>2165</ele>
        <time>2026-09-03T07:38:04.000Z</time>
        <extensions>
          <ns3:TrackPointExtension>
            <ns3:hr>161</ns3:hr>
            <ns3:cad>0</ns3:cad>
          </ns3:TrackPointExtension>
        </extensions>
      </trkpt>
      <trkpt lat="44.69046846963465213775634765625" lon="6.7775839380919933319091796875">
        <ele>2165.199951171875</ele>
        <time>2026-09-03T07:38:05.000Z</time>
        <extensions>
          <ns3:TrackPointExtension>
            <ns3:hr>161</ns3:hr>
            <ns3:cad>0</ns3:cad>
          </ns3:TrackPointExtension>
        </extensions>
      </trkpt>
      <trkpt lat="44.69047299586236476898193359375" lon="6.77759408019483089447021484375">
        <ele>2165.39990234375</ele>
        <time>2026-09-03T07:38:06.000Z</time>
        <extensions>
          <ns3:TrackPointExtension>
            <ns3:hr>161</ns3:hr>
            <ns3:cad>0</ns3:cad>
          </ns3:TrackPointExtension>
        </extensions>
      </trkpt>
      <trkpt lat="44.690475761890411376953125" lon="6.7776087485253810882568359375">
        <ele>2165.60009765625</ele>
        <time>2026-09-03T07:38:07.000Z</time>
        <extensions>
          <ns3:TrackPointExtension>
            <ns3:hr>161</ns3:hr>
            <ns3:cad>0</ns3:cad>
          </ns3:TrackPointExtension>
        </extensions>
      </trkpt>
      <trkpt lat="44.69047735445201396942138671875" lon="6.77761117927730083465576171875">
        <ele>2165.800048828125</ele>
        <time>2026-09-03T07:38:08.000Z</time>
        <extensions>
          <ns3:TrackPointExtension>
            <ns3:hr>160</ns3:hr>
            <ns3:cad>0</ns3:cad>
          </ns3:TrackPointExtension>
        </extensions>
      </trkpt>
      <trkpt lat="44.69047836028039455413818359375" lon="6.7776265181601047515869140625">
        <ele>2166</ele>
        <time>2026-09-03T07:38:09.000Z</time>
        <extensions>
          <ns3:TrackPointExtension>
            <ns3:hr>161</ns3:hr>
            <ns3:cad>0</ns3:cad>
          </ns3:TrackPointExtension>
        </extensions>
      </trkpt>
      <trkpt lat="44.690477438271045684814453125" lon="6.777629368007183074951171875">
        <ele>2166.199951171875</ele>
        <time>2026-09-03T07:38:10.000Z</time>
        <extensions>
          <ns3:TrackPointExtension>
            <ns3:hr>161</ns3:hr>
            <ns3:cad>0</ns3:cad>
          </ns3:TrackPointExtension>
        </extensions>
      </trkpt>
      <trkpt lat="44.69047567807137966156005859375" lon="6.7776375822722911834716796875">
        <ele>2166.39990234375</ele>
        <time>2026-09-03T07:38:11.000Z</time>
        <extensions>
          <ns3:TrackPointExtension>
            <ns3:hr>161</ns3:hr>
            <ns3:cad>0</ns3:cad>
          </ns3:TrackPointExtension>
        </extensions>
      </trkpt>
      <trkpt lat="44.6904735825955867767333984375" lon="6.77764780819416046142578125">
        <ele>2166.60009765625</ele>
        <time>2026-09-03T07:38:12.000Z</time>
        <extensions>
          <ns3:TrackPointExtension>
            <ns3:hr>161</ns3:hr>
            <ns3:cad>0</ns3:cad>
          </ns3:TrackPointExtension>
        </extensions>
      </trkpt>
      <trkpt lat="44.69047215767204761505126953125" lon="6.777656190097332000732421875">
        <ele>2166.800048828125</ele>
        <time>2026-09-03T07:38:13.000Z</time>
        <extensions>
          <ns3:TrackPointExtension>
            <ns3:hr>162</ns3:hr>
            <ns3:cad>0</ns3:cad>
          </ns3:TrackPointExtension>
        </extensions>
      </trkpt>
      <trkpt lat="44.69047383405268192291259765625" lon="6.7776647396385669708251953125">
        <ele>2167</ele>
        <time>2026-09-03T07:38:14.000Z</time>
        <extensions>
          <ns3:TrackPointExtension>
            <ns3:hr>162</ns3:hr>
            <ns3:cad>0</ns3:cad>
          </ns3:TrackPointExtension>
        </extensions>
      </trkpt>
      <trkpt lat="44.6904719062149524688720703125" lon="6.7776794917881488800048828125">
        <ele>2167</ele>
        <time>2026-09-03T07:38:15.000Z</time>
        <extensions>
          <ns3:TrackPointExtension>
            <ns3:hr>163</ns3:hr>
            <ns3:cad>50</ns3:cad>
          </ns3:TrackPointExtension>
        </extensions>
      </trkpt>
      <trkpt lat="44.69046964310109615325927734375" lon="6.77769483067095279693603515625">
        <ele>2167.199951171875</ele>
        <time>2026-09-03T07:38:16.000Z</time>
        <extensions>
          <ns3:TrackPointExtension>
            <ns3:hr>163</ns3:hr>
            <ns3:cad>50</ns3:cad>
          </ns3:TrackPointExtension>
        </extensions>
      </trkpt>
      <trkpt lat="44.69046897254884243011474609375" lon="6.77770656533539295196533203125">
        <ele>2167.39990234375</ele>
        <time>2026-09-03T07:38:17.000Z</time>
        <extensions>
          <ns3:TrackPointExtension>
            <ns3:hr>163</ns3:hr>
            <ns3:cad>50</ns3:cad>
          </ns3:TrackPointExtension>
        </extensions>
      </trkpt>
      <trkpt lat="44.69047106802463531494140625" lon="6.77771025337278842926025390625">
        <ele>2167.60009765625</ele>
        <time>2026-09-03T07:38:18.000Z</time>
        <extensions>
          <ns3:TrackPointExtension>
            <ns3:hr>164</ns3:hr>
            <ns3:cad>50</ns3:cad>
          </ns3:TrackPointExtension>
        </extensions>
      </trkpt>
      <trkpt lat="44.69047299586236476898193359375" lon="6.77772081457078456878662109375">
        <ele>2168</ele>
        <time>2026-09-03T07:38:19.000Z</time>
        <extensions>
          <ns3:TrackPointExtension>
            <ns3:hr>164</ns3:hr>
            <ns3:cad>54</ns3:cad>
          </ns3:TrackPointExtension>
        </extensions>
      </trkpt>
      <trkpt lat="44.69047282822430133819580078125" lon="6.77772835828363895416259765625">
        <ele>2168.199951171875</ele>
        <time>2026-09-03T07:38:20.000Z</time>
        <extensions>
          <ns3:TrackPointExtension>
            <ns3:hr>164</ns3:hr>
            <ns3:cad>54</ns3:cad>
          </ns3:TrackPointExtension>
        </extensions>
      </trkpt>
      <trkpt lat="44.69047567807137966156005859375" lon="6.77774436771869659423828125">
        <ele>2168.39990234375</ele>
        <time>2026-09-03T07:38:21.000Z</time>
        <extensions>
          <ns3:TrackPointExtension>
            <ns3:hr>165</ns3:hr>
            <ns3:cad>0</ns3:cad>
          </ns3:TrackPointExtension>
        </extensions>
      </trkpt>
      <trkpt lat="44.69047534279525279998779296875" lon="6.77776155062019824981689453125">
        <ele>2168.60009765625</ele>
        <time>2026-09-03T07:38:22.000Z</time>
        <extensions>
          <ns3:TrackPointExtension>
            <ns3:hr>165</ns3:hr>
            <ns3:cad>0</ns3:cad>
          </ns3:TrackPointExtension>
        </extensions>
      </trkpt>
      <trkpt lat="44.69047383405268192291259765625" lon="6.77778501994907855987548828125">
        <ele>2168.800048828125</ele>
        <time>2026-09-03T07:38:23.000Z</time>
        <extensions>
          <ns3:TrackPointExtension>
            <ns3:hr>166</ns3:hr>
            <ns3:cad>0</ns3:cad>
          </ns3:TrackPointExtension>
        </extensions>
      </trkpt>
      <trkpt lat="44.69047014601528644561767578125" lon="6.77780211903154850006103515625">
        <ele>2169</ele>
        <time>2026-09-03T07:38:24.000Z</time>
        <extensions>
          <ns3:TrackPointExtension>
            <ns3:hr>166</ns3:hr>
            <ns3:cad>0</ns3:cad>
          </ns3:TrackPointExtension>
        </extensions>
      </trkpt>
      <trkpt lat="44.6904655359685420989990234375" lon="6.7778196372091770172119140625">
        <ele>2169.39990234375</ele>
        <time>2026-09-03T07:38:25.000Z</time>
        <extensions>
          <ns3:TrackPointExtension>
            <ns3:hr>165</ns3:hr>
            <ns3:cad>0</ns3:cad>
          </ns3:TrackPointExtension>
        </extensions>
      </trkpt>
      <trkpt lat="44.6904591657221317291259765625" lon="6.7778367362916469573974609375">
        <ele>2169.39990234375</ele>
        <time>2026-09-03T07:38:26.000Z</time>
        <extensions>
          <ns3:TrackPointExtension>
            <ns3:hr>164</ns3:hr>
            <ns3:cad>0</ns3:cad>
          </ns3:TrackPointExtension>
        </extensions>
      </trkpt>
      <trkpt lat="44.69045489095151424407958984375" lon="6.7778456211090087890625">
        <ele>2169.60009765625</ele>
        <time>2026-09-03T07:38:27.000Z</time>
        <extensions>
          <ns3:TrackPointExtension>
            <ns3:hr>164</ns3:hr>
            <ns3:cad>0</ns3:cad>
          </ns3:TrackPointExtension>
        </extensions>
      </trkpt>
      <trkpt lat="44.6904501132667064666748046875" lon="6.7778571881353855133056640625">
        <ele>2169.800048828125</ele>
        <time>2026-09-03T07:38:28.000Z</time>
        <extensions>
          <ns3:TrackPointExtension>
            <ns3:hr>163</ns3:hr>
            <ns3:cad>0</ns3:cad>
          </ns3:TrackPointExtension>
        </extensions>
      </trkpt>
      <trkpt lat="44.6904368698596954345703125" lon="6.777858026325702667236328125">
        <ele>2170</ele>
        <time>2026-09-03T07:38:29.000Z</time>
        <extensions>
          <ns3:TrackPointExtension>
            <ns3:hr>162</ns3:hr>
            <ns3:cad>0</ns3:cad>
          </ns3:TrackPointExtension>
        </extensions>
      </trkpt>
      <trkpt lat="44.6904175914824008941650390625" lon="6.77785408683121204376220703125">
        <ele>2170.199951171875</ele>
        <time>2026-09-03T07:38:30.000Z</time>
        <extensions>
          <ns3:TrackPointExtension>
            <ns3:hr>161</ns3:hr>
            <ns3:cad>0</ns3:cad>
          </ns3:TrackPointExtension>
        </extensions>
      </trkpt>
      <trkpt lat="44.69040174968540668487548828125" lon="6.77785190753638744354248046875">
        <ele>2170.39990234375</ele>
        <time>2026-09-03T07:38:31.000Z</time>
        <extensions>
          <ns3:TrackPointExtension>
            <ns3:hr>161</ns3:hr>
            <ns3:cad>0</ns3:cad>
          </ns3:TrackPointExtension>
        </extensions>
      </trkpt>
      <trkpt lat="44.69039269722998142242431640625" lon="6.7778571881353855133056640625">
        <ele>2170.60009765625</ele>
        <time>2026-09-03T07:38:32.000Z</time>
        <extensions>
          <ns3:TrackPointExtension>
            <ns3:hr>160</ns3:hr>
            <ns3:cad>0</ns3:cad>
          </ns3:TrackPointExtension>
        </extensions>
      </trkpt>
      <trkpt lat="44.6903850696980953216552734375" lon="6.7778571881353855133056640625">
        <ele>2170.60009765625</ele>
        <time>2026-09-03T07:38:33.000Z</time>
        <extensions>
          <ns3:TrackPointExtension>
            <ns3:hr>160</ns3:hr>
            <ns3:cad>0</ns3:cad>
          </ns3:TrackPointExtension>
        </extensions>
      </trkpt>
      <trkpt lat="44.6903776936233043670654296875" lon="6.77785425446927547454833984375">
        <ele>2170.800048828125</ele>
        <time>2026-09-03T07:38:34.000Z</time>
        <extensions>
          <ns3:TrackPointExtension>
            <ns3:hr>160</ns3:hr>
            <ns3:cad>0</ns3:cad>
          </ns3:TrackPointExtension>
        </extensions>
      </trkpt>
      <trkpt lat="44.6903693117201328277587890625" lon="6.777858696877956390380859375">
        <ele>2171</ele>
        <time>2026-09-03T07:38:35.000Z</time>
        <extensions>
          <ns3:TrackPointExtension>
            <ns3:hr>160</ns3:hr>
            <ns3:cad>0</ns3:cad>
          </ns3:TrackPointExtension>
        </extensions>
      </trkpt>
      <trkpt lat="44.6903719939291477203369140625" lon="6.77785878069698810577392578125">
        <ele>2171.199951171875</ele>
        <time>2026-09-03T07:38:36.000Z</time>
        <extensions>
          <ns3:TrackPointExtension>
            <ns3:hr>160</ns3:hr>
            <ns3:cad>0</ns3:cad>
          </ns3:TrackPointExtension>
        </extensions>
      </trkpt>
      <trkpt lat="44.69036755152046680450439453125" lon="6.77786431275308132171630859375">
        <ele>2171.60009765625</ele>
        <time>2026-09-03T07:38:37.000Z</time>
        <extensions>
          <ns3:TrackPointExtension>
            <ns3:hr>160</ns3:hr>
            <ns3:cad>0</ns3:cad>
          </ns3:TrackPointExtension>
        </extensions>
      </trkpt>
      <trkpt lat="44.69037207774817943572998046875" lon="6.77786632440984249114990234375">
        <ele>2171.800048828125</ele>
        <time>2026-09-03T07:38:38.000Z</time>
        <extensions>
          <ns3:TrackPointExtension>
            <ns3:hr>160</ns3:hr>
            <ns3:cad>0</ns3:cad>
          </ns3:TrackPointExtension>
        </extensions>
      </trkpt>
      <trkpt lat="44.69036403112113475799560546875" lon="6.777874119579792022705078125">
        <ele>2172.199951171875</ele>
        <time>2026-09-03T07:38:39.000Z</time>
        <extensions>
          <ns3:TrackPointExtension>
            <ns3:hr>160</ns3:hr>
            <ns3:cad>0</ns3:cad>
          </ns3:TrackPointExtension>
        </extensions>
      </trkpt>
      <trkpt lat="44.690360091626644134521484375" lon="6.77787956781685352325439453125">
        <ele>2172.39990234375</ele>
        <time>2026-09-03T07:38:40.000Z</time>
        <extensions>
          <ns3:TrackPointExtension>
            <ns3:hr>160</ns3:hr>
            <ns3:cad>0</ns3:cad>
          </ns3:TrackPointExtension>
        </extensions>
      </trkpt>
      <trkpt lat="44.6903535537421703338623046875" lon="6.77788652479648590087890625">
        <ele>2172.60009765625</ele>
        <time>2026-09-03T07:38:41.000Z</time>
        <extensions>
          <ns3:TrackPointExtension>
            <ns3:hr>160</ns3:hr>
            <ns3:cad>0</ns3:cad>
          </ns3:TrackPointExtension>
        </extensions>
      </trkpt>
      <trkpt lat="44.690344333648681640625" lon="6.77789482288062572479248046875">
        <ele>2172.800048828125</ele>
        <time>2026-09-03T07:38:42.000Z</time>
        <extensions>
          <ns3:TrackPointExtension>
            <ns3:hr>160</ns3:hr>
            <ns3:cad>0</ns3:cad>
          </ns3:TrackPointExtension>
        </extensions>
      </trkpt>
      <trkpt lat="44.6903367899358272552490234375" lon="6.7778974212706089019775390625">
        <ele>2173</ele>
        <time>2026-09-03T07:38:43.000Z</time>
        <extensions>
          <ns3:TrackPointExtension>
            <ns3:hr>160</ns3:hr>
            <ns3:cad>0</ns3:cad>
          </ns3:TrackPointExtension>
        </extensions>
      </trkpt>
      <trkpt lat="44.69033637084066867828369140625" lon="6.7778974212706089019775390625">
        <ele>2173.199951171875</ele>
        <time>2026-09-03T07:38:44.000Z</time>
        <extensions>
          <ns3:TrackPointExtension>
            <ns3:hr>161</ns3:hr>
            <ns3:cad>0</ns3:cad>
          </ns3:TrackPointExtension>
        </extensions>
      </trkpt>
      <trkpt lat="44.690325558185577392578125" lon="6.7779051326215267181396484375">
        <ele>2173.39990234375</ele>
        <time>2026-09-03T07:38:45.000Z</time>
        <extensions>
          <ns3:TrackPointExtension>
            <ns3:hr>160</ns3:hr>
            <ns3:cad>0</ns3:cad>
          </ns3:TrackPointExtension>
        </extensions>
      </trkpt>
      <trkpt lat="44.69031818211078643798828125" lon="6.77791007794439792633056640625">
        <ele>2173.60009765625</ele>
        <time>2026-09-03T07:38:46.000Z</time>
        <extensions>
          <ns3:TrackPointExtension>
            <ns3:hr>160</ns3:hr>
            <ns3:cad>0</ns3:cad>
          </ns3:TrackPointExtension>
        </extensions>
      </trkpt>
      <trkpt lat="44.6903136558830738067626953125" lon="6.77791628055274486541748046875">
        <ele>2173.800048828125</ele>
        <time>2026-09-03T07:38:47.000Z</time>
        <extensions>
          <ns3:TrackPointExtension>
            <ns3:hr>160</ns3:hr>
            <ns3:cad>0</ns3:cad>
          </ns3:TrackPointExtension>
        </extensions>
      </trkpt>
      <trkpt lat="44.69030116684734821319580078125" lon="6.7779274284839630126953125">
        <ele>2174</ele>
        <time>2026-09-03T07:38:48.000Z</time>
        <extensions>
          <ns3:TrackPointExtension>
            <ns3:hr>160</ns3:hr>
            <ns3:cad>0</ns3:cad>
          </ns3:TrackPointExtension>
        </extensions>
      </trkpt>
      <trkpt lat="44.69029362313449382781982421875" lon="6.7779349721968173980712890625">
        <ele>2174.199951171875</ele>
        <time>2026-09-03T07:38:49.000Z</time>
        <extensions>
          <ns3:TrackPointExtension>
            <ns3:hr>159</ns3:hr>
            <ns3:cad>0</ns3:cad>
          </ns3:TrackPointExtension>
        </extensions>
      </trkpt>
      <trkpt lat="44.69028691761195659637451171875" lon="6.77793991751968860626220703125">
        <ele>2174.39990234375</ele>
        <time>2026-09-03T07:38:50.000Z</time>
        <extensions>
          <ns3:TrackPointExtension>
            <ns3:hr>160</ns3:hr>
            <ns3:cad>0</ns3:cad>
          </ns3:TrackPointExtension>
        </extensions>
      </trkpt>
      <trkpt lat="44.69027719460427761077880859375" lon="6.77794285118579864501953125">
        <ele>2174.60009765625</ele>
        <time>2026-09-03T07:38:51.000Z</time>
        <extensions>
          <ns3:TrackPointExtension>
            <ns3:hr>160</ns3:hr>
            <ns3:cad>0</ns3:cad>
          </ns3:TrackPointExtension>
        </extensions>
      </trkpt>
      <trkpt lat="44.6902757696807384490966796875" lon="6.77794595248997211456298828125">
        <ele>2175</ele>
        <time>2026-09-03T07:38:52.000Z</time>
        <extensions>
          <ns3:TrackPointExtension>
            <ns3:hr>160</ns3:hr>
            <ns3:cad>0</ns3:cad>
          </ns3:TrackPointExtension>
        </extensions>
      </trkpt>
      <trkpt lat="44.69026763923466205596923828125" lon="6.7779560945928096771240234375">
        <ele>2175</ele>
        <time>2026-09-03T07:38:53.000Z</time>
        <extensions>
          <ns3:TrackPointExtension>
            <ns3:hr>160</ns3:hr>
            <ns3:cad>0</ns3:cad>
          </ns3:TrackPointExtension>
        </extensions>
      </trkpt>
      <trkpt lat="44.69026445411145687103271484375" lon="6.777960620820522308349609375">
        <ele>2175.199951171875</ele>
        <time>2026-09-03T07:38:54.000Z</time>
        <extensions>
          <ns3:TrackPointExtension>
            <ns3:hr>160</ns3:hr>
            <ns3:cad>0</ns3:cad>
          </ns3:TrackPointExtension>
        </extensions>
      </trkpt>
      <trkpt lat="44.6902516297996044158935546875" lon="6.777972020208835601806640625">
        <ele>2175.39990234375</ele>
        <time>2026-09-03T07:38:55.000Z</time>
        <extensions>
          <ns3:TrackPointExtension>
            <ns3:hr>160</ns3:hr>
            <ns3:cad>0</ns3:cad>
          </ns3:TrackPointExtension>
        </extensions>
      </trkpt>
      <trkpt lat="44.690243415534496307373046875" lon="6.77798098884522914886474609375">
        <ele>2175.60009765625</ele>
        <time>2026-09-03T07:38:56.000Z</time>
        <extensions>
          <ns3:TrackPointExtension>
            <ns3:hr>160</ns3:hr>
            <ns3:cad>0</ns3:cad>
          </ns3:TrackPointExtension>
        </extensions>
      </trkpt>
      <trkpt lat="44.6902372129261493682861328125" lon="6.777984760701656341552734375">
        <ele>2175.800048828125</ele>
        <time>2026-09-03T07:38:57.000Z</time>
        <extensions>
          <ns3:TrackPointExtension>
            <ns3:hr>161</ns3:hr>
            <ns3:cad>0</ns3:cad>
          </ns3:TrackPointExtension>
        </extensions>
      </trkpt>
      <trkpt lat="44.6902321837842464447021484375" lon="6.77799339406192302703857421875">
        <ele>2176</ele>
        <time>2026-09-03T07:38:58.000Z</time>
        <extensions>
          <ns3:TrackPointExtension>
            <ns3:hr>161</ns3:hr>
            <ns3:cad>0</ns3:cad>
          </ns3:TrackPointExtension>
        </extensions>
      </trkpt>
      <trkpt lat="44.69023310579359531402587890625" lon="6.7779996804893016815185546875">
        <ele>2176</ele>
        <time>2026-09-03T07:38:59.000Z</time>
        <extensions>
          <ns3:TrackPointExtension>
            <ns3:hr>161</ns3:hr>
            <ns3:cad>0</ns3:cad>
          </ns3:TrackPointExtension>
        </extensions>
      </trkpt>
      <trkpt lat="44.69022966921329498291015625" lon="6.778010912239551544189453125">
        <ele>2176.199951171875</ele>
        <time>2026-09-03T07:39:00.000Z</time>
        <extensions>
          <ns3:TrackPointExtension>
            <ns3:hr>161</ns3:hr>
            <ns3:cad>0</ns3:cad>
          </ns3:TrackPointExtension>
        </extensions>
      </trkpt>
      <trkpt lat="44.69022908248007297515869140625" lon="6.77801661193370819091796875">
        <ele>2176.39990234375</ele>
        <time>2026-09-03T07:39:01.000Z</time>
        <extensions>
          <ns3:TrackPointExtension>
            <ns3:hr>161</ns3:hr>
            <ns3:cad>0</ns3:cad>
          </ns3:TrackPointExtension>
        </extensions>
      </trkpt>
      <trkpt lat="44.6902248077094554901123046875" lon="6.77802641876041889190673828125">
        <ele>2176.60009765625</ele>
        <time>2026-09-03T07:39:02.000Z</time>
        <extensions>
          <ns3:TrackPointExtension>
            <ns3:hr>161</ns3:hr>
            <ns3:cad>0</ns3:cad>
          </ns3:TrackPointExtension>
        </extensions>
      </trkpt>
      <trkpt lat="44.69022355042397975921630859375" lon="6.77803362719714641571044921875">
        <ele>2176.800048828125</ele>
        <time>2026-09-03T07:39:03.000Z</time>
        <extensions>
          <ns3:TrackPointExtension>
            <ns3:hr>161</ns3:hr>
            <ns3:cad>0</ns3:cad>
          </ns3:TrackPointExtension>
        </extensions>
      </trkpt>
      <trkpt lat="44.69021734781563282012939453125" lon="6.77804167382419109344482421875">
        <ele>2177.199951171875</ele>
        <time>2026-09-03T07:39:04.000Z</time>
        <extensions>
          <ns3:TrackPointExtension>
            <ns3:hr>162</ns3:hr>
            <ns3:cad>0</ns3:cad>
          </ns3:TrackPointExtension>
        </extensions>
      </trkpt>
      <trkpt lat="44.6902144141495227813720703125" lon="6.77805055864155292510986328125">
        <ele>2177.39990234375</ele>
        <time>2026-09-03T07:39:05.000Z</time>
        <extensions>
          <ns3:TrackPointExtension>
            <ns3:hr>162</ns3:hr>
            <ns3:cad>0</ns3:cad>
          </ns3:TrackPointExtension>
        </extensions>
      </trkpt>
      <trkpt lat="44.6902060322463512420654296875" lon="6.778059192001819610595703125">
        <ele>2177.60009765625</ele>
        <time>2026-09-03T07:39:06.000Z</time>
        <extensions>
          <ns3:TrackPointExtension>
            <ns3:hr>162</ns3:hr>
            <ns3:cad>0</ns3:cad>
          </ns3:TrackPointExtension>
        </extensions>
      </trkpt>
      <trkpt lat="44.6901993267238140106201171875" lon="6.77807469852268695831298828125">
        <ele>2177.800048828125</ele>
        <time>2026-09-03T07:39:07.000Z</time>
        <extensions>
          <ns3:TrackPointExtension>
            <ns3:hr>162</ns3:hr>
            <ns3:cad>0</ns3:cad>
          </ns3:TrackPointExtension>
        </extensions>
      </trkpt>
      <trkpt lat="44.69019471667706966400146484375" lon="6.77807830274105072021484375">
        <ele>2178</ele>
        <time>2026-09-03T07:39:08.000Z</time>
        <extensions>
          <ns3:TrackPointExtension>
            <ns3:hr>162</ns3:hr>
            <ns3:cad>0</ns3:cad>
          </ns3:TrackPointExtension>
        </extensions>
      </trkpt>
      <trkpt lat="44.69019404612481594085693359375" lon="6.778077967464923858642578125">
        <ele>2178.199951171875</ele>
        <time>2026-09-03T07:39:09.000Z</time>
        <extensions>
          <ns3:TrackPointExtension>
            <ns3:hr>162</ns3:hr>
            <ns3:cad>0</ns3:cad>
          </ns3:TrackPointExtension>
        </extensions>
      </trkpt>
      <trkpt lat="44.69018935225903987884521484375" lon="6.77807972766458988189697265625">
        <ele>2178.199951171875</ele>
        <time>2026-09-03T07:39:10.000Z</time>
        <extensions>
          <ns3:TrackPointExtension>
            <ns3:hr>162</ns3:hr>
            <ns3:cad>0</ns3:cad>
          </ns3:TrackPointExtension>
        </extensions>
      </trkpt>
      <trkpt lat="44.69017610885202884674072265625" lon="6.77808291278779506683349609375">
        <ele>2178.39990234375</ele>
        <time>2026-09-03T07:39:11.000Z</time>
        <extensions>
          <ns3:TrackPointExtension>
            <ns3:hr>162</ns3:hr>
            <ns3:cad>0</ns3:cad>
          </ns3:TrackPointExtension>
        </extensions>
      </trkpt>
      <trkpt lat="44.69016538001596927642822265625" lon="6.77808710373938083648681640625">
        <ele>2178.60009765625</ele>
        <time>2026-09-03T07:39:12.000Z</time>
        <extensions>
          <ns3:TrackPointExtension>
            <ns3:hr>163</ns3:hr>
            <ns3:cad>0</ns3:cad>
          </ns3:TrackPointExtension>
        </extensions>
      </trkpt>
      <trkpt lat="44.69015029259026050567626953125" lon="6.7780912108719348907470703125">
        <ele>2178.800048828125</ele>
        <time>2026-09-03T07:39:13.000Z</time>
        <extensions>
          <ns3:TrackPointExtension>
            <ns3:hr>163</ns3:hr>
            <ns3:cad>0</ns3:cad>
          </ns3:TrackPointExtension>
        </extensions>
      </trkpt>
      <trkpt lat="44.6901386417448520660400390625" lon="6.77809447981417179107666015625">
        <ele>2179</ele>
        <time>2026-09-03T07:39:14.000Z</time>
        <extensions>
          <ns3:TrackPointExtension>
            <ns3:hr>163</ns3:hr>
            <ns3:cad>0</ns3:cad>
          </ns3:TrackPointExtension>
        </extensions>
      </trkpt>
      <trkpt lat="44.6901312656700611114501953125" lon="6.77809548564255237579345703125">
        <ele>2179.39990234375</ele>
        <time>2026-09-03T07:39:15.000Z</time>
        <extensions>
          <ns3:TrackPointExtension>
            <ns3:hr>163</ns3:hr>
            <ns3:cad>0</ns3:cad>
          </ns3:TrackPointExtension>
        </extensions>
      </trkpt>
      <trkpt lat="44.69012279994785785675048828125" lon="6.778102107346057891845703125">
        <ele>2179.60009765625</ele>
        <time>2026-09-03T07:39:16.000Z</time>
        <extensions>
          <ns3:TrackPointExtension>
            <ns3:hr>163</ns3:hr>
            <ns3:cad>0</ns3:cad>
          </ns3:TrackPointExtension>
        </extensions>
      </trkpt>
      <trkpt lat="44.69012313522398471832275390625" lon="6.7781046219170093536376953125">
        <ele>2179.800048828125</ele>
        <time>2026-09-03T07:39:17.000Z</time>
        <extensions>
          <ns3:TrackPointExtension>
            <ns3:hr>163</ns3:hr>
            <ns3:cad>0</ns3:cad>
          </ns3:TrackPointExtension>
        </extensions>
      </trkpt>
      <trkpt lat="44.69012229703366756439208984375" lon="6.778107471764087677001953125">
        <ele>2180</ele>
        <time>2026-09-03T07:39:18.000Z</time>
        <extensions>
          <ns3:TrackPointExtension>
            <ns3:hr>164</ns3:hr>
            <ns3:cad>0</ns3:cad>
          </ns3:TrackPointExtension>
        </extensions>
      </trkpt>
      <trkpt lat="44.6901191957294940948486328125" lon="6.77811107598245143890380859375">
        <ele>2180.199951171875</ele>
        <time>2026-09-03T07:39:19.000Z</time>
        <extensions>
          <ns3:TrackPointExtension>
            <ns3:hr>163</ns3:hr>
            <ns3:cad>0</ns3:cad>
          </ns3:TrackPointExtension>
        </extensions>
      </trkpt>
      <trkpt lat="44.69011777080595493316650390625" lon="6.778120882809162139892578125">
        <ele>2180.39990234375</ele>
        <time>2026-09-03T07:39:20.000Z</time>
        <extensions>
          <ns3:TrackPointExtension>
            <ns3:hr>164</ns3:hr>
            <ns3:cad>0</ns3:cad>
          </ns3:TrackPointExtension>
        </extensions>
      </trkpt>
      <trkpt lat="44.69011592678725719451904296875" lon="6.77811996079981327056884765625">
        <ele>2180.60009765625</ele>
        <time>2026-09-03T07:39:21.000Z</time>
        <extensions>
          <ns3:TrackPointExtension>
            <ns3:hr>164</ns3:hr>
            <ns3:cad>0</ns3:cad>
          </ns3:TrackPointExtension>
        </extensions>
      </trkpt>
      <trkpt lat="44.69011676497757434844970703125" lon="6.77812834270298480987548828125">
        <ele>2180.800048828125</ele>
        <time>2026-09-03T07:39:22.000Z</time>
        <extensions>
          <ns3:TrackPointExtension>
            <ns3:hr>163</ns3:hr>
            <ns3:cad>0</ns3:cad>
          </ns3:TrackPointExtension>
        </extensions>
      </trkpt>
      <trkpt lat="44.69011927954852581024169921875" lon="6.77813337184488773345947265625">
        <ele>2181</ele>
        <time>2026-09-03T07:39:23.000Z</time>
        <extensions>
          <ns3:TrackPointExtension>
            <ns3:hr>164</ns3:hr>
            <ns3:cad>0</ns3:cad>
          </ns3:TrackPointExtension>
        </extensions>
      </trkpt>
      <trkpt lat="44.69011844135820865631103515625" lon="6.7781418375670909881591796875">
        <ele>2181.199951171875</ele>
        <time>2026-09-03T07:39:24.000Z</time>
        <extensions>
          <ns3:TrackPointExtension>
            <ns3:hr>164</ns3:hr>
            <ns3:cad>0</ns3:cad>
          </ns3:TrackPointExtension>
        </extensions>
      </trkpt>
      <trkpt lat="44.69012129120528697967529296875" lon="6.7781549133360385894775390625">
        <ele>2181.39990234375</ele>
        <time>2026-09-03T07:39:25.000Z</time>
        <extensions>
          <ns3:TrackPointExtension>
            <ns3:hr>164</ns3:hr>
            <ns3:cad>0</ns3:cad>
          </ns3:TrackPointExtension>
        </extensions>
      </trkpt>
      <trkpt lat="44.6901242248713970184326171875" lon="6.77816287614405155181884765625">
        <ele>2181.60009765625</ele>
        <time>2026-09-03T07:39:26.000Z</time>
        <extensions>
          <ns3:TrackPointExtension>
            <ns3:hr>163</ns3:hr>
            <ns3:cad>0</ns3:cad>
          </ns3:TrackPointExtension>
        </extensions>
      </trkpt>
      <trkpt lat="44.690125398337841033935546875" lon="6.778181903064250946044921875">
        <ele>2181.800048828125</ele>
        <time>2026-09-03T07:39:27.000Z</time>
        <extensions>
          <ns3:TrackPointExtension>
            <ns3:hr>163</ns3:hr>
            <ns3:cad>0</ns3:cad>
          </ns3:TrackPointExtension>
        </extensions>
      </trkpt>
      <trkpt lat="44.69012548215687274932861328125" lon="6.77819070406258106231689453125">
        <ele>2182</ele>
        <time>2026-09-03T07:39:28.000Z</time>
        <extensions>
          <ns3:TrackPointExtension>
            <ns3:hr>163</ns3:hr>
            <ns3:cad>0</ns3:cad>
          </ns3:TrackPointExtension>
        </extensions>
      </trkpt>
      <trkpt lat="44.690124057233333587646484375" lon="6.7782041989266872406005859375">
        <ele>2182.199951171875</ele>
        <time>2026-09-03T07:39:29.000Z</time>
        <extensions>
          <ns3:TrackPointExtension>
            <ns3:hr>163</ns3:hr>
            <ns3:cad>0</ns3:cad>
          </ns3:TrackPointExtension>
        </extensions>
      </trkpt>
      <trkpt lat="44.690120033919811248779296875" lon="6.77821434102952480316162109375">
        <ele>2182.39990234375</ele>
        <time>2026-09-03T07:39:30.000Z</time>
        <extensions>
          <ns3:TrackPointExtension>
            <ns3:hr>164</ns3:hr>
            <ns3:cad>0</ns3:cad>
          </ns3:TrackPointExtension>
        </extensions>
      </trkpt>
      <trkpt lat="44.69011793844401836395263671875" lon="6.77822314202785491943359375">
        <ele>2182.60009765625</ele>
        <time>2026-09-03T07:39:31.000Z</time>
        <extensions>
          <ns3:TrackPointExtension>
            <ns3:hr>163</ns3:hr>
            <ns3:cad>0</ns3:cad>
          </ns3:TrackPointExtension>
        </extensions>
      </trkpt>
      <trkpt lat="44.6901148371398448944091796875" lon="6.77823387086391448974609375">
        <ele>2182.800048828125</ele>
        <time>2026-09-03T07:39:32.000Z</time>
        <extensions>
          <ns3:TrackPointExtension>
            <ns3:hr>163</ns3:hr>
            <ns3:cad>0</ns3:cad>
          </ns3:TrackPointExtension>
        </extensions>
      </trkpt>
      <trkpt lat="44.69011433422565460205078125" lon="6.7782380618155002593994140625">
        <ele>2183</ele>
        <time>2026-09-03T07:39:33.000Z</time>
        <extensions>
          <ns3:TrackPointExtension>
            <ns3:hr>163</ns3:hr>
            <ns3:cad>0</ns3:cad>
          </ns3:TrackPointExtension>
        </extensions>
      </trkpt>
      <trkpt lat="44.690109305083751678466796875" lon="6.77824317477643489837646484375">
        <ele>2183.199951171875</ele>
        <time>2026-09-03T07:39:34.000Z</time>
        <extensions>
          <ns3:TrackPointExtension>
            <ns3:hr>163</ns3:hr>
            <ns3:cad>0</ns3:cad>
          </ns3:TrackPointExtension>
        </extensions>
      </trkpt>
      <trkpt lat="44.690107293426990509033203125" lon="6.7782484553754329681396484375">
        <ele>2183.199951171875</ele>
        <time>2026-09-03T07:39:35.000Z</time>
        <extensions>
          <ns3:TrackPointExtension>
            <ns3:hr>164</ns3:hr>
            <ns3:cad>0</ns3:cad>
          </ns3:TrackPointExtension>
        </extensions>
      </trkpt>
      <trkpt lat="44.69010251574218273162841796875" lon="6.778257004916667938232421875">
        <ele>2183.39990234375</ele>
        <time>2026-09-03T07:39:36.000Z</time>
        <extensions>
          <ns3:TrackPointExtension>
            <ns3:hr>163</ns3:hr>
            <ns3:cad>0</ns3:cad>
          </ns3:TrackPointExtension>
        </extensions>
      </trkpt>
      <trkpt lat="44.690099246799945831298828125" lon="6.77826597355306148529052734375">
        <ele>2183.60009765625</ele>
        <time>2026-09-03T07:39:37.000Z</time>
        <extensions>
          <ns3:TrackPointExtension>
            <ns3:hr>163</ns3:hr>
            <ns3:cad>0</ns3:cad>
          </ns3:TrackPointExtension>
        </extensions>
      </trkpt>
      <trkpt lat="44.690094888210296630859375" lon="6.778277456760406494140625">
        <ele>2183.800048828125</ele>
        <time>2026-09-03T07:39:38.000Z</time>
        <extensions>
          <ns3:TrackPointExtension>
            <ns3:hr>164</ns3:hr>
            <ns3:cad>0</ns3:cad>
          </ns3:TrackPointExtension>
        </extensions>
      </trkpt>
      <trkpt lat="44.69008826650679111480712890625" lon="6.7782841622829437255859375">
        <ele>2184</ele>
        <time>2026-09-03T07:39:39.000Z</time>
        <extensions>
          <ns3:TrackPointExtension>
            <ns3:hr>164</ns3:hr>
            <ns3:cad>0</ns3:cad>
          </ns3:TrackPointExtension>
        </extensions>
      </trkpt>
      <trkpt lat="44.6900856681168079376220703125" lon="6.778288520872592926025390625">
        <ele>2184.199951171875</ele>
        <time>2026-09-03T07:39:40.000Z</time>
        <extensions>
          <ns3:TrackPointExtension>
            <ns3:hr>165</ns3:hr>
            <ns3:cad>0</ns3:cad>
          </ns3:TrackPointExtension>
        </extensions>
      </trkpt>
      <trkpt lat="44.6900823153555393218994140625" lon="6.77829690277576446533203125">
        <ele>2184.39990234375</ele>
        <time>2026-09-03T07:39:41.000Z</time>
        <extensions>
          <ns3:TrackPointExtension>
            <ns3:hr>165</ns3:hr>
            <ns3:cad>0</ns3:cad>
          </ns3:TrackPointExtension>
        </extensions>
      </trkpt>
      <trkpt lat="44.69007569365203380584716796875" lon="6.77830084227025508880615234375">
        <ele>2184.60009765625</ele>
        <time>2026-09-03T07:39:42.000Z</time>
        <extensions>
          <ns3:TrackPointExtension>
            <ns3:hr>165</ns3:hr>
            <ns3:cad>0</ns3:cad>
          </ns3:TrackPointExtension>
        </extensions>
      </trkpt>
      <trkpt lat="44.69007133506238460540771484375" lon="6.7783057875931262969970703125">
        <ele>2184.800048828125</ele>
        <time>2026-09-03T07:39:43.000Z</time>
        <extensions>
          <ns3:TrackPointExtension>
            <ns3:hr>166</ns3:hr>
            <ns3:cad>0</ns3:cad>
          </ns3:TrackPointExtension>
        </extensions>
      </trkpt>
      <trkpt lat="44.69005960039794445037841796875" lon="6.7783141694962978363037109375">
        <ele>2185</ele>
        <time>2026-09-03T07:39:44.000Z</time>
        <extensions>
          <ns3:TrackPointExtension>
            <ns3:hr>166</ns3:hr>
            <ns3:cad>0</ns3:cad>
          </ns3:TrackPointExtension>
        </extensions>
      </trkpt>
      <trkpt lat="44.69005038030445575714111328125" lon="6.77832531742751598358154296875">
        <ele>2185.199951171875</ele>
        <time>2026-09-03T07:39:45.000Z</time>
        <extensions>
          <ns3:TrackPointExtension>
            <ns3:hr>166</ns3:hr>
            <ns3:cad>0</ns3:cad>
          </ns3:TrackPointExtension>
        </extensions>
      </trkpt>
      <trkpt lat="44.6900414116680622100830078125" lon="6.77833721973001956939697265625">
        <ele>2185.60009765625</ele>
        <time>2026-09-03T07:39:46.000Z</time>
        <extensions>
          <ns3:TrackPointExtension>
            <ns3:hr>167</ns3:hr>
            <ns3:cad>0</ns3:cad>
          </ns3:TrackPointExtension>
        </extensions>
      </trkpt>
      <trkpt lat="44.69003520905971527099609375" lon="6.77834451198577880859375">
        <ele>2185.800048828125</ele>
        <time>2026-09-03T07:39:47.000Z</time>
        <extensions>
          <ns3:TrackPointExtension>
            <ns3:hr>167</ns3:hr>
            <ns3:cad>0</ns3:cad>
          </ns3:TrackPointExtension>
        </extensions>
      </trkpt>
      <trkpt lat="44.69003118574619293212890625" lon="6.77834945730865001678466796875">
        <ele>2186</ele>
        <time>2026-09-03T07:39:48.000Z</time>
        <extensions>
          <ns3:TrackPointExtension>
            <ns3:hr>167</ns3:hr>
            <ns3:cad>0</ns3:cad>
          </ns3:TrackPointExtension>
        </extensions>
      </trkpt>
      <trkpt lat="44.6900223009288311004638671875" lon="6.77835968323051929473876953125">
        <ele>2186.199951171875</ele>
        <time>2026-09-03T07:39:49.000Z</time>
        <extensions>
          <ns3:TrackPointExtension>
            <ns3:hr>167</ns3:hr>
            <ns3:cad>0</ns3:cad>
          </ns3:TrackPointExtension>
        </extensions>
      </trkpt>
      <trkpt lat="44.6900212951004505157470703125" lon="6.778366304934024810791015625">
        <ele>2186.39990234375</ele>
        <time>2026-09-03T07:39:50.000Z</time>
        <extensions>
          <ns3:TrackPointExtension>
            <ns3:hr>167</ns3:hr>
            <ns3:cad>0</ns3:cad>
          </ns3:TrackPointExtension>
        </extensions>
      </trkpt>
      <trkpt lat="44.69001333229243755340576171875" lon="6.77837577648460865020751953125">
        <ele>2186.60009765625</ele>
        <time>2026-09-03T07:39:51.000Z</time>
        <extensions>
          <ns3:TrackPointExtension>
            <ns3:hr>166</ns3:hr>
            <ns3:cad>0</ns3:cad>
          </ns3:TrackPointExtension>
        </extensions>
      </trkpt>
      <trkpt lat="44.69001182354986667633056640625" lon="6.778381727635860443115234375">
        <ele>2186.800048828125</ele>
        <time>2026-09-03T07:39:52.000Z</time>
        <extensions>
          <ns3:TrackPointExtension>
            <ns3:hr>166</ns3:hr>
            <ns3:cad>0</ns3:cad>
          </ns3:TrackPointExtension>
        </extensions>
      </trkpt>
      <trkpt lat="44.69000595621764659881591796875" lon="6.7783912830054759979248046875">
        <ele>2187</ele>
        <time>2026-09-03T07:39:53.000Z</time>
        <extensions>
          <ns3:TrackPointExtension>
            <ns3:hr>166</ns3:hr>
            <ns3:cad>0</ns3:cad>
          </ns3:TrackPointExtension>
        </extensions>
      </trkpt>
      <trkpt lat="44.69000495038926601409912109375" lon="6.778398491442203521728515625">
        <ele>2187.199951171875</ele>
        <time>2026-09-03T07:39:54.000Z</time>
        <extensions>
          <ns3:TrackPointExtension>
            <ns3:hr>166</ns3:hr>
            <ns3:cad>0</ns3:cad>
          </ns3:TrackPointExtension>
        </extensions>
      </trkpt>
      <trkpt lat="44.69000293873250484466552734375" lon="6.77840142510831356048583984375">
        <ele>2187.39990234375</ele>
        <time>2026-09-03T07:39:55.000Z</time>
        <extensions>
          <ns3:TrackPointExtension>
            <ns3:hr>166</ns3:hr>
            <ns3:cad>0</ns3:cad>
          </ns3:TrackPointExtension>
        </extensions>
      </trkpt>
      <trkpt lat="44.68999824486672878265380859375" lon="6.77841047756373882293701171875">
        <ele>2187.60009765625</ele>
        <time>2026-09-03T07:39:56.000Z</time>
        <extensions>
          <ns3:TrackPointExtension>
            <ns3:hr>167</ns3:hr>
            <ns3:cad>0</ns3:cad>
          </ns3:TrackPointExtension>
        </extensions>
      </trkpt>
      <trkpt lat="44.68999925069510936737060546875" lon="6.77842187695205211639404296875">
        <ele>2187.60009765625</ele>
        <time>2026-09-03T07:39:57.000Z</time>
        <extensions>
          <ns3:TrackPointExtension>
            <ns3:hr>166</ns3:hr>
            <ns3:cad>0</ns3:cad>
          </ns3:TrackPointExtension>
        </extensions>
      </trkpt>
      <trkpt lat="44.690001346170902252197265625" lon="6.77843361161649227142333984375">
        <ele>2187.800048828125</ele>
        <time>2026-09-03T07:39:58.000Z</time>
        <extensions>
          <ns3:TrackPointExtension>
            <ns3:hr>166</ns3:hr>
            <ns3:cad>0</ns3:cad>
          </ns3:TrackPointExtension>
        </extensions>
      </trkpt>
      <trkpt lat="44.690002687275409698486328125" lon="6.7784452624619007110595703125">
        <ele>2187.800048828125</ele>
        <time>2026-09-03T07:39:59.000Z</time>
        <extensions>
          <ns3:TrackPointExtension>
            <ns3:hr>166</ns3:hr>
            <ns3:cad>0</ns3:cad>
          </ns3:TrackPointExtension>
        </extensions>
      </trkpt>
      <trkpt lat="44.69000075943768024444580078125" lon="6.77845272235572338104248046875">
        <ele>2188</ele>
        <time>2026-09-03T07:40:00.000Z</time>
        <extensions>
          <ns3:TrackPointExtension>
            <ns3:hr>166</ns3:hr>
            <ns3:cad>0</ns3:cad>
          </ns3:TrackPointExtension>
        </extensions>
      </trkpt>
      <trkpt lat="44.689997322857379913330078125" lon="6.7784643732011318206787109375">
        <ele>2188.199951171875</ele>
        <time>2026-09-03T07:40:01.000Z</time>
        <extensions>
          <ns3:TrackPointExtension>
            <ns3:hr>166</ns3:hr>
            <ns3:cad>0</ns3:cad>
          </ns3:TrackPointExtension>
        </extensions>
      </trkpt>
      <trkpt lat="44.6899931319057941436767578125" lon="6.778468899428844451904296875">
        <ele>2188.39990234375</ele>
        <time>2026-09-03T07:40:02.000Z</time>
        <extensions>
          <ns3:TrackPointExtension>
            <ns3:hr>167</ns3:hr>
            <ns3:cad>0</ns3:cad>
          </ns3:TrackPointExtension>
        </extensions>
      </trkpt>
      <trkpt lat="44.68999153934419155120849609375" lon="6.7784797959029674530029296875">
        <ele>2188.60009765625</ele>
        <time>2026-09-03T07:40:03.000Z</time>
        <extensions>
          <ns3:TrackPointExtension>
            <ns3:hr>166</ns3:hr>
            <ns3:cad>0</ns3:cad>
          </ns3:TrackPointExtension>
        </extensions>
      </trkpt>
      <trkpt lat="44.6899914555251598358154296875" lon="6.778484322130680084228515625">
        <ele>2188.800048828125</ele>
        <time>2026-09-03T07:40:04.000Z</time>
        <extensions>
          <ns3:TrackPointExtension>
            <ns3:hr>167</ns3:hr>
            <ns3:cad>0</ns3:cad>
          </ns3:TrackPointExtension>
        </extensions>
      </trkpt>
      <trkpt lat="44.6899881027638912200927734375" lon="6.7784948833286762237548828125">
        <ele>2189</ele>
        <time>2026-09-03T07:40:05.000Z</time>
        <extensions>
          <ns3:TrackPointExtension>
            <ns3:hr>167</ns3:hr>
            <ns3:cad>0</ns3:cad>
          </ns3:TrackPointExtension>
        </extensions>
      </trkpt>
      <trkpt lat="44.689987935125827789306640625" lon="6.778506450355052947998046875">
        <ele>2189.199951171875</ele>
        <time>2026-09-03T07:40:06.000Z</time>
        <extensions>
          <ns3:TrackPointExtension>
            <ns3:hr>167</ns3:hr>
            <ns3:cad>0</ns3:cad>
          </ns3:TrackPointExtension>
        </extensions>
      </trkpt>
      <trkpt lat="44.68998533673584461212158203125" lon="6.77852162159979343414306640625">
        <ele>2189.39990234375</ele>
        <time>2026-09-03T07:40:07.000Z</time>
        <extensions>
          <ns3:TrackPointExtension>
            <ns3:hr>167</ns3:hr>
            <ns3:cad>0</ns3:cad>
          </ns3:TrackPointExtension>
        </extensions>
      </trkpt>
      <trkpt lat="44.689985923469066619873046875" lon="6.7785404808819293975830078125">
        <ele>2189.60009765625</ele>
        <time>2026-09-03T07:40:08.000Z</time>
        <extensions>
          <ns3:TrackPointExtension>
            <ns3:hr>168</ns3:hr>
            <ns3:cad>0</ns3:cad>
          </ns3:TrackPointExtension>
        </extensions>
      </trkpt>
      <trkpt lat="44.68998692929744720458984375" lon="6.7785602621734142303466796875">
        <ele>2189.800048828125</ele>
        <time>2026-09-03T07:40:09.000Z</time>
        <extensions>
          <ns3:TrackPointExtension>
            <ns3:hr>167</ns3:hr>
            <ns3:cad>0</ns3:cad>
          </ns3:TrackPointExtension>
        </extensions>
      </trkpt>
      <trkpt lat="44.6899881027638912200927734375" lon="6.77858029492199420928955078125">
        <ele>2189.800048828125</ele>
        <time>2026-09-03T07:40:10.000Z</time>
        <extensions>
          <ns3:TrackPointExtension>
            <ns3:hr>167</ns3:hr>
            <ns3:cad>0</ns3:cad>
          </ns3:TrackPointExtension>
        </extensions>
      </trkpt>
      <trkpt lat="44.6899837441742420196533203125" lon="6.77858968265354633331298828125">
        <ele>2190</ele>
        <time>2026-09-03T07:40:11.000Z</time>
        <extensions>
          <ns3:TrackPointExtension>
            <ns3:hr>167</ns3:hr>
            <ns3:cad>0</ns3:cad>
          </ns3:TrackPointExtension>
        </extensions>
      </trkpt>
      <trkpt lat="44.6899837441742420196533203125" lon="6.778613738715648651123046875">
        <ele>2190.199951171875</ele>
        <time>2026-09-03T07:40:12.000Z</time>
        <extensions>
          <ns3:TrackPointExtension>
            <ns3:hr>167</ns3:hr>
            <ns3:cad>0</ns3:cad>
          </ns3:TrackPointExtension>
        </extensions>
      </trkpt>
      <trkpt lat="44.6899817325174808502197265625" lon="6.778628490865230560302734375">
        <ele>2190.39990234375</ele>
        <time>2026-09-03T07:40:13.000Z</time>
        <extensions>
          <ns3:TrackPointExtension>
            <ns3:hr>167</ns3:hr>
            <ns3:cad>0</ns3:cad>
          </ns3:TrackPointExtension>
        </extensions>
      </trkpt>
      <trkpt lat="44.68997997231781482696533203125" lon="6.77864491939544677734375">
        <ele>2190.60009765625</ele>
        <time>2026-09-03T07:40:14.000Z</time>
        <extensions>
          <ns3:TrackPointExtension>
            <ns3:hr>167</ns3:hr>
            <ns3:cad>0</ns3:cad>
          </ns3:TrackPointExtension>
        </extensions>
      </trkpt>
      <trkpt lat="44.6899797208607196807861328125" lon="6.77866168320178985595703125">
        <ele>2190.60009765625</ele>
        <time>2026-09-03T07:40:15.000Z</time>
        <extensions>
          <ns3:TrackPointExtension>
            <ns3:hr>167</ns3:hr>
            <ns3:cad>0</ns3:cad>
          </ns3:TrackPointExtension>
        </extensions>
      </trkpt>
      <trkpt lat="44.689977206289768218994140625" lon="6.77867685444653034210205078125">
        <ele>2190.800048828125</ele>
        <time>2026-09-03T07:40:16.000Z</time>
        <extensions>
          <ns3:TrackPointExtension>
            <ns3:hr>167</ns3:hr>
            <ns3:cad>0</ns3:cad>
          </ns3:TrackPointExtension>
        </extensions>
      </trkpt>
      <trkpt lat="44.68997594900429248809814453125" lon="6.77869060076773166656494140625">
        <ele>2191</ele>
        <time>2026-09-03T07:40:17.000Z</time>
        <extensions>
          <ns3:TrackPointExtension>
            <ns3:hr>167</ns3:hr>
            <ns3:cad>0</ns3:cad>
          </ns3:TrackPointExtension>
        </extensions>
      </trkpt>
      <trkpt lat="44.68997620046138763427734375" lon="6.77869252860546112060546875">
        <ele>2191.199951171875</ele>
        <time>2026-09-03T07:40:18.000Z</time>
        <extensions>
          <ns3:TrackPointExtension>
            <ns3:hr>167</ns3:hr>
            <ns3:cad>0</ns3:cad>
          </ns3:TrackPointExtension>
        </extensions>
      </trkpt>
      <trkpt lat="44.6899733506143093109130859375" lon="6.77870300598442554473876953125">
        <ele>2191.39990234375</ele>
        <time>2026-09-03T07:40:19.000Z</time>
        <extensions>
          <ns3:TrackPointExtension>
            <ns3:hr>167</ns3:hr>
            <ns3:cad>0</ns3:cad>
          </ns3:TrackPointExtension>
        </extensions>
      </trkpt>
      <trkpt lat="44.68996924348175525665283203125" lon="6.77871289663016796112060546875">
        <ele>2191.60009765625</ele>
        <time>2026-09-03T07:40:20.000Z</time>
        <extensions>
          <ns3:TrackPointExtension>
            <ns3:hr>167</ns3:hr>
            <ns3:cad>0</ns3:cad>
          </ns3:TrackPointExtension>
        </extensions>
      </trkpt>
      <trkpt lat="44.6899636276066303253173828125" lon="6.77872563712298870086669921875">
        <ele>2191.800048828125</ele>
        <time>2026-09-03T07:40:21.000Z</time>
        <extensions>
          <ns3:TrackPointExtension>
            <ns3:hr>168</ns3:hr>
            <ns3:cad>0</ns3:cad>
          </ns3:TrackPointExtension>
        </extensions>
      </trkpt>
      <trkpt lat="44.6899612806737422943115234375" lon="6.7787369526922702789306640625">
        <ele>2192</ele>
        <time>2026-09-03T07:40:22.000Z</time>
        <extensions>
          <ns3:TrackPointExtension>
            <ns3:hr>167</ns3:hr>
            <ns3:cad>0</ns3:cad>
          </ns3:TrackPointExtension>
        </extensions>
      </trkpt>
      <trkpt lat="44.689963124692440032958984375" lon="6.77875078283250331878662109375">
        <ele>2192.199951171875</ele>
        <time>2026-09-03T07:40:23.000Z</time>
        <extensions>
          <ns3:TrackPointExtension>
            <ns3:hr>167</ns3:hr>
            <ns3:cad>0</ns3:cad>
          </ns3:TrackPointExtension>
        </extensions>
      </trkpt>
      <trkpt lat="44.68996421433985233306884765625" lon="6.7787590809166431427001953125">
        <ele>2192.39990234375</ele>
        <time>2026-09-03T07:40:24.000Z</time>
        <extensions>
          <ns3:TrackPointExtension>
            <ns3:hr>167</ns3:hr>
            <ns3:cad>0</ns3:cad>
          </ns3:TrackPointExtension>
        </extensions>
      </trkpt>
      <trkpt lat="44.68996119685471057891845703125" lon="6.77876989357173442840576171875">
        <ele>2192.60009765625</ele>
        <time>2026-09-03T07:40:25.000Z</time>
        <extensions>
          <ns3:TrackPointExtension>
            <ns3:hr>168</ns3:hr>
            <ns3:cad>0</ns3:cad>
          </ns3:TrackPointExtension>
        </extensions>
      </trkpt>
      <trkpt lat="44.68995801173150539398193359375" lon="6.77877978421747684478759765625">
        <ele>2192.800048828125</ele>
        <time>2026-09-03T07:40:26.000Z</time>
        <extensions>
          <ns3:TrackPointExtension>
            <ns3:hr>167</ns3:hr>
            <ns3:cad>0</ns3:cad>
          </ns3:TrackPointExtension>
        </extensions>
      </trkpt>
      <trkpt lat="44.68995633535087108612060546875" lon="6.7787897586822509765625">
        <ele>2193</ele>
        <time>2026-09-03T07:40:27.000Z</time>
        <extensions>
          <ns3:TrackPointExtension>
            <ns3:hr>167</ns3:hr>
            <ns3:cad>0</ns3:cad>
          </ns3:TrackPointExtension>
        </extensions>
      </trkpt>
      <trkpt lat="44.68994845636188983917236328125" lon="6.7788053490221500396728515625">
        <ele>2193.199951171875</ele>
        <time>2026-09-03T07:40:28.000Z</time>
        <extensions>
          <ns3:TrackPointExtension>
            <ns3:hr>167</ns3:hr>
            <ns3:cad>0</ns3:cad>
          </ns3:TrackPointExtension>
        </extensions>
      </trkpt>
      <trkpt lat="44.68994225375354290008544921875" lon="6.77881783805787563323974609375">
        <ele>2193.199951171875</ele>
        <time>2026-09-03T07:40:29.000Z</time>
        <extensions>
          <ns3:TrackPointExtension>
            <ns3:hr>167</ns3:hr>
            <ns3:cad>0</ns3:cad>
          </ns3:TrackPointExtension>
        </extensions>
      </trkpt>
      <trkpt lat="44.68993873335421085357666015625" lon="6.77883041091263294219970703125">
        <ele>2193.39990234375</ele>
        <time>2026-09-03T07:40:30.000Z</time>
        <extensions>
          <ns3:TrackPointExtension>
            <ns3:hr>167</ns3:hr>
            <ns3:cad>0</ns3:cad>
          </ns3:TrackPointExtension>
        </extensions>
      </trkpt>
      <trkpt lat="44.68993487767875194549560546875" lon="6.77883845753967761993408203125">
        <ele>2193.60009765625</ele>
        <time>2026-09-03T07:40:31.000Z</time>
        <extensions>
          <ns3:TrackPointExtension>
            <ns3:hr>166</ns3:hr>
            <ns3:cad>47</ns3:cad>
          </ns3:TrackPointExtension>
        </extensions>
      </trkpt>
      <trkpt lat="44.6899347938597202301025390625" lon="6.778839044272899627685546875">
        <ele>2193.60009765625</ele>
        <time>2026-09-03T07:40:32.000Z</time>
        <extensions>
          <ns3:TrackPointExtension>
            <ns3:hr>166</ns3:hr>
            <ns3:cad>47</ns3:cad>
          </ns3:TrackPointExtension>
        </extensions>
      </trkpt>
      <trkpt lat="44.6899314410984516143798828125" lon="6.778845749795436859130859375">
        <ele>2193.800048828125</ele>
        <time>2026-09-03T07:40:33.000Z</time>
        <extensions>
          <ns3:TrackPointExtension>
            <ns3:hr>166</ns3:hr>
            <ns3:cad>47</ns3:cad>
          </ns3:TrackPointExtension>
        </extensions>
      </trkpt>
      <trkpt lat="44.68993051908910274505615234375" lon="6.7788502760231494903564453125">
        <ele>2194</ele>
        <time>2026-09-03T07:40:34.000Z</time>
        <extensions>
          <ns3:TrackPointExtension>
            <ns3:hr>166</ns3:hr>
            <ns3:cad>47</ns3:cad>
          </ns3:TrackPointExtension>
        </extensions>
      </trkpt>
      <trkpt lat="44.689923226833343505859375" lon="6.77886595018208026885986328125">
        <ele>2194.199951171875</ele>
        <time>2026-09-03T07:40:35.000Z</time>
        <extensions>
          <ns3:TrackPointExtension>
            <ns3:hr>165</ns3:hr>
            <ns3:cad>47</ns3:cad>
          </ns3:TrackPointExtension>
        </extensions>
      </trkpt>
      <trkpt lat="44.68991979025304317474365234375" lon="6.7788693867623805999755859375">
        <ele>2194.199951171875</ele>
        <time>2026-09-03T07:40:36.000Z</time>
        <extensions>
          <ns3:TrackPointExtension>
            <ns3:hr>165</ns3:hr>
            <ns3:cad>47</ns3:cad>
          </ns3:TrackPointExtension>
        </extensions>
      </trkpt>
      <trkpt lat="44.68990889377892017364501953125" lon="6.778873912990093231201171875">
        <ele>2194.39990234375</ele>
        <time>2026-09-03T07:40:37.000Z</time>
        <extensions>
          <ns3:TrackPointExtension>
            <ns3:hr>165</ns3:hr>
            <ns3:cad>47</ns3:cad>
          </ns3:TrackPointExtension>
        </extensions>
      </trkpt>
      <trkpt lat="44.68990378081798553466796875" lon="6.77888271398842334747314453125">
        <ele>2194.60009765625</ele>
        <time>2026-09-03T07:40:38.000Z</time>
        <extensions>
          <ns3:TrackPointExtension>
            <ns3:hr>165</ns3:hr>
            <ns3:cad>47</ns3:cad>
          </ns3:TrackPointExtension>
        </extensions>
      </trkpt>
      <trkpt lat="44.68989296816289424896240234375" lon="6.77889159880578517913818359375">
        <ele>2194.800048828125</ele>
        <time>2026-09-03T07:40:39.000Z</time>
        <extensions>
          <ns3:TrackPointExtension>
            <ns3:hr>165</ns3:hr>
            <ns3:cad>47</ns3:cad>
          </ns3:TrackPointExtension>
        </extensions>
      </trkpt>
      <trkpt lat="44.68988341279327869415283203125" lon="6.77890266291797161102294921875">
        <ele>2194.800048828125</ele>
        <time>2026-09-03T07:40:40.000Z</time>
        <extensions>
          <ns3:TrackPointExtension>
            <ns3:hr>165</ns3:hr>
            <ns3:cad>47</ns3:cad>
          </ns3:TrackPointExtension>
        </extensions>
      </trkpt>
      <trkpt lat="44.68987385742366313934326171875" lon="6.7789123021066188812255859375">
        <ele>2195</ele>
        <time>2026-09-03T07:40:41.000Z</time>
        <extensions>
          <ns3:TrackPointExtension>
            <ns3:hr>165</ns3:hr>
            <ns3:cad>47</ns3:cad>
          </ns3:TrackPointExtension>
        </extensions>
      </trkpt>
      <trkpt lat="44.68986178748309612274169921875" lon="6.77892722189426422119140625">
        <ele>2195.199951171875</ele>
        <time>2026-09-03T07:40:42.000Z</time>
        <extensions>
          <ns3:TrackPointExtension>
            <ns3:hr>165</ns3:hr>
            <ns3:cad>47</ns3:cad>
          </ns3:TrackPointExtension>
        </extensions>
      </trkpt>
      <trkpt lat="44.6898549981415271759033203125" lon="6.778934933245182037353515625">
        <ele>2195.199951171875</ele>
        <time>2026-09-03T07:40:43.000Z</time>
        <extensions>
          <ns3:TrackPointExtension>
            <ns3:hr>164</ns3:hr>
            <ns3:cad>0</ns3:cad>
          </ns3:TrackPointExtension>
        </extensions>
      </trkpt>
      <trkpt lat="44.68984343111515045166015625" lon="6.77894859574735164642333984375">
        <ele>2195.39990234375</ele>
        <time>2026-09-03T07:40:44.000Z</time>
        <extensions>
          <ns3:TrackPointExtension>
            <ns3:hr>164</ns3:hr>
            <ns3:cad>0</ns3:cad>
          </ns3:TrackPointExtension>
        </extensions>
      </trkpt>
      <trkpt lat="44.6898362226784229278564453125" lon="6.7789600789546966552734375">
        <ele>2195.60009765625</ele>
        <time>2026-09-03T07:40:45.000Z</time>
        <extensions>
          <ns3:TrackPointExtension>
            <ns3:hr>164</ns3:hr>
            <ns3:cad>0</ns3:cad>
          </ns3:TrackPointExtension>
        </extensions>
      </trkpt>
      <trkpt lat="44.689825661480426788330078125" lon="6.778973154723644256591796875">
        <ele>2195.60009765625</ele>
        <time>2026-09-03T07:40:46.000Z</time>
        <extensions>
          <ns3:TrackPointExtension>
            <ns3:hr>164</ns3:hr>
            <ns3:cad>0</ns3:cad>
          </ns3:TrackPointExtension>
        </extensions>
      </trkpt>
      <trkpt lat="44.68981686048209667205810546875" lon="6.77898480556905269622802734375">
        <ele>2195.800048828125</ele>
        <time>2026-09-03T07:40:47.000Z</time>
        <extensions>
          <ns3:TrackPointExtension>
            <ns3:hr>164</ns3:hr>
            <ns3:cad>0</ns3:cad>
          </ns3:TrackPointExtension>
        </extensions>
      </trkpt>
      <trkpt lat="44.6898120827972888946533203125" lon="6.77899821661412715911865234375">
        <ele>2195.800048828125</ele>
        <time>2026-09-03T07:40:48.000Z</time>
        <extensions>
          <ns3:TrackPointExtension>
            <ns3:hr>164</ns3:hr>
            <ns3:cad>0</ns3:cad>
          </ns3:TrackPointExtension>
        </extensions>
      </trkpt>
      <trkpt lat="44.6898070536553859710693359375" lon="6.77901196293532848358154296875">
        <ele>2196</ele>
        <time>2026-09-03T07:40:49.000Z</time>
        <extensions>
          <ns3:TrackPointExtension>
            <ns3:hr>164</ns3:hr>
            <ns3:cad>0</ns3:cad>
          </ns3:TrackPointExtension>
        </extensions>
      </trkpt>
      <trkpt lat="44.6898026950657367706298828125" lon="6.77902252413332462310791015625">
        <ele>2196</ele>
        <time>2026-09-03T07:40:50.000Z</time>
        <extensions>
          <ns3:TrackPointExtension>
            <ns3:hr>164</ns3:hr>
            <ns3:cad>52</ns3:cad>
          </ns3:TrackPointExtension>
        </extensions>
      </trkpt>
      <trkpt lat="44.6897936426103115081787109375" lon="6.77904247306287288665771484375">
        <ele>2196.199951171875</ele>
        <time>2026-09-03T07:40:51.000Z</time>
        <extensions>
          <ns3:TrackPointExtension>
            <ns3:hr>164</ns3:hr>
            <ns3:cad>52</ns3:cad>
          </ns3:TrackPointExtension>
        </extensions>
      </trkpt>
      <trkpt lat="44.6897862665355205535888671875" lon="6.77905999124050140380859375">
        <ele>2196.60009765625</ele>
        <time>2026-09-03T07:40:52.000Z</time>
        <extensions>
          <ns3:TrackPointExtension>
            <ns3:hr>164</ns3:hr>
            <ns3:cad>52</ns3:cad>
          </ns3:TrackPointExtension>
        </extensions>
      </trkpt>
      <trkpt lat="44.68978316523134708404541015625" lon="6.77906728349626064300537109375">
        <ele>2196.800048828125</ele>
        <time>2026-09-03T07:40:53.000Z</time>
        <extensions>
          <ns3:TrackPointExtension>
            <ns3:hr>165</ns3:hr>
            <ns3:cad>53</ns3:cad>
          </ns3:TrackPointExtension>
        </extensions>
      </trkpt>
      <trkpt lat="44.68977964483201503753662109375" lon="6.77907482720911502838134765625">
        <ele>2197</ele>
        <time>2026-09-03T07:40:54.000Z</time>
        <extensions>
          <ns3:TrackPointExtension>
            <ns3:hr>165</ns3:hr>
            <ns3:cad>53</ns3:cad>
          </ns3:TrackPointExtension>
        </extensions>
      </trkpt>
      <trkpt lat="44.689775370061397552490234375" lon="6.7790869809687137603759765625">
        <ele>2197.199951171875</ele>
        <time>2026-09-03T07:40:55.000Z</time>
        <extensions>
          <ns3:TrackPointExtension>
            <ns3:hr>166</ns3:hr>
            <ns3:cad>53</ns3:cad>
          </ns3:TrackPointExtension>
        </extensions>
      </trkpt>
      <trkpt lat="44.689772017300128936767578125" lon="6.7790970392525196075439453125">
        <ele>2197.199951171875</ele>
        <time>2026-09-03T07:40:56.000Z</time>
        <extensions>
          <ns3:TrackPointExtension>
            <ns3:hr>166</ns3:hr>
            <ns3:cad>55</ns3:cad>
          </ns3:TrackPointExtension>
        </extensions>
      </trkpt>
      <trkpt lat="44.6897651441395282745361328125" lon="6.77910818718373775482177734375">
        <ele>2197.199951171875</ele>
        <time>2026-09-03T07:40:57.000Z</time>
        <extensions>
          <ns3:TrackPointExtension>
            <ns3:hr>166</ns3:hr>
            <ns3:cad>55</ns3:cad>
          </ns3:TrackPointExtension>
        </extensions>
      </trkpt>
      <trkpt lat="44.68975869007408618927001953125" lon="6.77912210114300251007080078125">
        <ele>2197</ele>
        <time>2026-09-03T07:40:58.000Z</time>
        <extensions>
          <ns3:TrackPointExtension>
            <ns3:hr>166</ns3:hr>
            <ns3:cad>55</ns3:cad>
          </ns3:TrackPointExtension>
        </extensions>
      </trkpt>
      <trkpt lat="44.68975164927542209625244140625" lon="6.77913132123649120330810546875">
        <ele>2197</ele>
        <time>2026-09-03T07:40:59.000Z</time>
        <extensions>
          <ns3:TrackPointExtension>
            <ns3:hr>166</ns3:hr>
            <ns3:cad>55</ns3:cad>
          </ns3:TrackPointExtension>
        </extensions>
      </trkpt>
      <trkpt lat="44.689744524657726287841796875" lon="6.77913551218807697296142578125">
        <ele>2197.199951171875</ele>
        <time>2026-09-03T07:41:00.000Z</time>
        <extensions>
          <ns3:TrackPointExtension>
            <ns3:hr>166</ns3:hr>
            <ns3:cad>55</ns3:cad>
          </ns3:TrackPointExtension>
        </extensions>
      </trkpt>
      <trkpt lat="44.6897369809448719024658203125" lon="6.7791453190147876739501953125">
        <ele>2197.199951171875</ele>
        <time>2026-09-03T07:41:01.000Z</time>
        <extensions>
          <ns3:TrackPointExtension>
            <ns3:hr>166</ns3:hr>
            <ns3:cad>57</ns3:cad>
          </ns3:TrackPointExtension>
        </extensions>
      </trkpt>
      <trkpt lat="44.68973320908844470977783203125" lon="6.77915596403181552886962890625">
        <ele>2197.60009765625</ele>
        <time>2026-09-03T07:41:02.000Z</time>
        <extensions>
          <ns3:TrackPointExtension>
            <ns3:hr>166</ns3:hr>
            <ns3:cad>57</ns3:cad>
          </ns3:TrackPointExtension>
        </extensions>
      </trkpt>
      <trkpt lat="44.68972901813685894012451171875" lon="6.779168955981731414794921875">
        <ele>2197.800048828125</ele>
        <time>2026-09-03T07:41:03.000Z</time>
        <extensions>
          <ns3:TrackPointExtension>
            <ns3:hr>166</ns3:hr>
            <ns3:cad>56</ns3:cad>
          </ns3:TrackPointExtension>
        </extensions>
      </trkpt>
      <trkpt lat="44.68972465954720973968505859375" lon="6.7791801877319812774658203125">
        <ele>2198</ele>
        <time>2026-09-03T07:41:04.000Z</time>
        <extensions>
          <ns3:TrackPointExtension>
            <ns3:hr>166</ns3:hr>
            <ns3:cad>55</ns3:cad>
          </ns3:TrackPointExtension>
        </extensions>
      </trkpt>
      <trkpt lat="44.68971862457692623138427734375" lon="6.77919049747288227081298828125">
        <ele>2198</ele>
        <time>2026-09-03T07:41:05.000Z</time>
        <extensions>
          <ns3:TrackPointExtension>
            <ns3:hr>165</ns3:hr>
            <ns3:cad>55</ns3:cad>
          </ns3:TrackPointExtension>
        </extensions>
      </trkpt>
      <trkpt lat="44.68971191905438899993896484375" lon="6.7791979573667049407958984375">
        <ele>2198.199951171875</ele>
        <time>2026-09-03T07:41:06.000Z</time>
        <extensions>
          <ns3:TrackPointExtension>
            <ns3:hr>166</ns3:hr>
            <ns3:cad>54</ns3:cad>
          </ns3:TrackPointExtension>
        </extensions>
      </trkpt>
      <trkpt lat="44.68970638699829578399658203125" lon="6.77920977585017681121826171875">
        <ele>2198.199951171875</ele>
        <time>2026-09-03T07:41:07.000Z</time>
        <extensions>
          <ns3:TrackPointExtension>
            <ns3:hr>166</ns3:hr>
            <ns3:cad>52</ns3:cad>
          </ns3:TrackPointExtension>
        </extensions>
      </trkpt>
      <trkpt lat="44.68970001675188541412353515625" lon="6.779225952923297882080078125">
        <ele>2198.199951171875</ele>
        <time>2026-09-03T07:41:08.000Z</time>
        <extensions>
          <ns3:TrackPointExtension>
            <ns3:hr>165</ns3:hr>
            <ns3:cad>52</ns3:cad>
          </ns3:TrackPointExtension>
        </extensions>
      </trkpt>
      <trkpt lat="44.6896912157535552978515625" lon="6.7792391963303089141845703125">
        <ele>2198.199951171875</ele>
        <time>2026-09-03T07:41:09.000Z</time>
        <extensions>
          <ns3:TrackPointExtension>
            <ns3:hr>164</ns3:hr>
            <ns3:cad>52</ns3:cad>
          </ns3:TrackPointExtension>
        </extensions>
      </trkpt>
      <trkpt lat="44.68968157656490802764892578125" lon="6.77925151772797107696533203125">
        <ele>2198.39990234375</ele>
        <time>2026-09-03T07:41:10.000Z</time>
        <extensions>
          <ns3:TrackPointExtension>
            <ns3:hr>164</ns3:hr>
            <ns3:cad>52</ns3:cad>
          </ns3:TrackPointExtension>
        </extensions>
      </trkpt>
      <trkpt lat="44.68967453576624393463134765625" lon="6.77925989963114261627197265625">
        <ele>2198.39990234375</ele>
        <time>2026-09-03T07:41:11.000Z</time>
        <extensions>
          <ns3:TrackPointExtension>
            <ns3:hr>164</ns3:hr>
            <ns3:cad>52</ns3:cad>
          </ns3:TrackPointExtension>
        </extensions>
      </trkpt>
      <trkpt lat="44.689665734767913818359375" lon="6.77927029319107532501220703125">
        <ele>2198.39990234375</ele>
        <time>2026-09-03T07:41:12.000Z</time>
        <extensions>
          <ns3:TrackPointExtension>
            <ns3:hr>163</ns3:hr>
            <ns3:cad>50</ns3:cad>
          </ns3:TrackPointExtension>
        </extensions>
      </trkpt>
      <trkpt lat="44.6896581910550594329833984375" lon="6.7792792618274688720703125">
        <ele>2198.60009765625</ele>
        <time>2026-09-03T07:41:13.000Z</time>
        <extensions>
          <ns3:TrackPointExtension>
            <ns3:hr>162</ns3:hr>
            <ns3:cad>50</ns3:cad>
          </ns3:TrackPointExtension>
        </extensions>
      </trkpt>
      <trkpt lat="44.6896531619131565093994140625" lon="6.77928823046386241912841796875">
        <ele>2198.60009765625</ele>
        <time>2026-09-03T07:41:14.000Z</time>
        <extensions>
          <ns3:TrackPointExtension>
            <ns3:hr>161</ns3:hr>
            <ns3:cad>52</ns3:cad>
          </ns3:TrackPointExtension>
        </extensions>
      </trkpt>
      <trkpt lat="44.68964737839996814727783203125" lon="6.779297702014446258544921875">
        <ele>2198.60009765625</ele>
        <time>2026-09-03T07:41:15.000Z</time>
        <extensions>
          <ns3:TrackPointExtension>
            <ns3:hr>161</ns3:hr>
            <ns3:cad>53</ns3:cad>
          </ns3:TrackPointExtension>
        </extensions>
      </trkpt>
      <trkpt lat="44.68964100815355777740478515625" lon="6.7793059162795543670654296875">
        <ele>2198.800048828125</ele>
        <time>2026-09-03T07:41:16.000Z</time>
        <extensions>
          <ns3:TrackPointExtension>
            <ns3:hr>160</ns3:hr>
            <ns3:cad>53</ns3:cad>
          </ns3:TrackPointExtension>
        </extensions>
      </trkpt>
      <trkpt lat="44.6896333806216716766357421875" lon="6.77931605838239192962646484375">
        <ele>2199</ele>
        <time>2026-09-03T07:41:17.000Z</time>
        <extensions>
          <ns3:TrackPointExtension>
            <ns3:hr>160</ns3:hr>
            <ns3:cad>53</ns3:cad>
          </ns3:TrackPointExtension>
        </extensions>
      </trkpt>
      <trkpt lat="44.68962726183235645294189453125" lon="6.7793262004852294921875">
        <ele>2199.199951171875</ele>
        <time>2026-09-03T07:41:18.000Z</time>
        <extensions>
          <ns3:TrackPointExtension>
            <ns3:hr>160</ns3:hr>
            <ns3:cad>53</ns3:cad>
          </ns3:TrackPointExtension>
        </extensions>
      </trkpt>
      <trkpt lat="44.6896187961101531982421875" lon="6.77933667786419391632080078125">
        <ele>2199.199951171875</ele>
        <time>2026-09-03T07:41:19.000Z</time>
        <extensions>
          <ns3:TrackPointExtension>
            <ns3:hr>161</ns3:hr>
            <ns3:cad>53</ns3:cad>
          </ns3:TrackPointExtension>
        </extensions>
      </trkpt>
      <trkpt lat="44.6896112523972988128662109375" lon="6.779342629015445709228515625">
        <ele>2199.39990234375</ele>
        <time>2026-09-03T07:41:20.000Z</time>
        <extensions>
          <ns3:TrackPointExtension>
            <ns3:hr>161</ns3:hr>
            <ns3:cad>53</ns3:cad>
          </ns3:TrackPointExtension>
        </extensions>
      </trkpt>
      <trkpt lat="44.68960513360798358917236328125" lon="6.7793495021760463714599609375">
        <ele>2199.60009765625</ele>
        <time>2026-09-03T07:41:21.000Z</time>
        <extensions>
          <ns3:TrackPointExtension>
            <ns3:hr>161</ns3:hr>
            <ns3:cad>53</ns3:cad>
          </ns3:TrackPointExtension>
        </extensions>
      </trkpt>
      <trkpt lat="44.6895985119044780731201171875" lon="6.7793572135269641876220703125">
        <ele>2199.800048828125</ele>
        <time>2026-09-03T07:41:22.000Z</time>
        <extensions>
          <ns3:TrackPointExtension>
            <ns3:hr>162</ns3:hr>
            <ns3:cad>53</ns3:cad>
          </ns3:TrackPointExtension>
        </extensions>
      </trkpt>
      <trkpt lat="44.689590297639369964599609375" lon="6.77936576306819915771484375">
        <ele>2199.800048828125</ele>
        <time>2026-09-03T07:41:23.000Z</time>
        <extensions>
          <ns3:TrackPointExtension>
            <ns3:hr>162</ns3:hr>
            <ns3:cad>55</ns3:cad>
          </ns3:TrackPointExtension>
        </extensions>
      </trkpt>
      <trkpt lat="44.6895810775458812713623046875" lon="6.7793749831616878509521484375">
        <ele>2200</ele>
        <time>2026-09-03T07:41:24.000Z</time>
        <extensions>
          <ns3:TrackPointExtension>
            <ns3:hr>162</ns3:hr>
            <ns3:cad>56</ns3:cad>
          </ns3:TrackPointExtension>
        </extensions>
      </trkpt>
      <trkpt lat="44.68957328237593173980712890625" lon="6.77938428707420825958251953125">
        <ele>2200.199951171875</ele>
        <time>2026-09-03T07:41:25.000Z</time>
        <extensions>
          <ns3:TrackPointExtension>
            <ns3:hr>162</ns3:hr>
            <ns3:cad>56</ns3:cad>
          </ns3:TrackPointExtension>
        </extensions>
      </trkpt>
      <trkpt lat="44.68956624157726764678955078125" lon="6.7793945968151092529296875">
        <ele>2200.199951171875</ele>
        <time>2026-09-03T07:41:26.000Z</time>
        <extensions>
          <ns3:TrackPointExtension>
            <ns3:hr>162</ns3:hr>
            <ns3:cad>56</ns3:cad>
          </ns3:TrackPointExtension>
        </extensions>
      </trkpt>
      <trkpt lat="44.6895555965602397918701171875" lon="6.77940373308956623077392578125">
        <ele>2200.39990234375</ele>
        <time>2026-09-03T07:41:27.000Z</time>
        <extensions>
          <ns3:TrackPointExtension>
            <ns3:hr>162</ns3:hr>
            <ns3:cad>56</ns3:cad>
          </ns3:TrackPointExtension>
        </extensions>
      </trkpt>
      <trkpt lat="44.6895478852093219757080078125" lon="6.77941580303013324737548828125">
        <ele>2200.60009765625</ele>
        <time>2026-09-03T07:41:28.000Z</time>
        <extensions>
          <ns3:TrackPointExtension>
            <ns3:hr>162</ns3:hr>
            <ns3:cad>55</ns3:cad>
          </ns3:TrackPointExtension>
        </extensions>
      </trkpt>
      <trkpt lat="44.6895384974777698516845703125" lon="6.77942074835300445556640625">
        <ele>2200.800048828125</ele>
        <time>2026-09-03T07:41:29.000Z</time>
        <extensions>
          <ns3:TrackPointExtension>
            <ns3:hr>162</ns3:hr>
            <ns3:cad>55</ns3:cad>
          </ns3:TrackPointExtension>
        </extensions>
      </trkpt>
      <trkpt lat="44.6895304508507251739501953125" lon="6.77942954935133457183837890625">
        <ele>2201</ele>
        <time>2026-09-03T07:41:30.000Z</time>
        <extensions>
          <ns3:TrackPointExtension>
            <ns3:hr>161</ns3:hr>
            <ns3:cad>55</ns3:cad>
          </ns3:TrackPointExtension>
        </extensions>
      </trkpt>
      <trkpt lat="44.68951963819563388824462890625" lon="6.77943591959774494171142578125">
        <ele>2201.199951171875</ele>
        <time>2026-09-03T07:41:31.000Z</time>
        <extensions>
          <ns3:TrackPointExtension>
            <ns3:hr>162</ns3:hr>
            <ns3:cad>55</ns3:cad>
          </ns3:TrackPointExtension>
        </extensions>
      </trkpt>
      <trkpt lat="44.68951108865439891815185546875" lon="6.7794400267302989959716796875">
        <ele>2201.39990234375</ele>
        <time>2026-09-03T07:41:32.000Z</time>
        <extensions>
          <ns3:TrackPointExtension>
            <ns3:hr>163</ns3:hr>
            <ns3:cad>55</ns3:cad>
          </ns3:TrackPointExtension>
        </extensions>
      </trkpt>
      <trkpt lat="44.68950522132217884063720703125" lon="6.779441870748996734619140625">
        <ele>2201.60009765625</ele>
        <time>2026-09-03T07:41:33.000Z</time>
        <extensions>
          <ns3:TrackPointExtension>
            <ns3:hr>164</ns3:hr>
            <ns3:cad>55</ns3:cad>
          </ns3:TrackPointExtension>
        </extensions>
      </trkpt>
      <trkpt lat="44.68949600122869014739990234375" lon="6.77944815717637538909912109375">
        <ele>2201.800048828125</ele>
        <time>2026-09-03T07:41:34.000Z</time>
        <extensions>
          <ns3:TrackPointExtension>
            <ns3:hr>165</ns3:hr>
            <ns3:cad>55</ns3:cad>
          </ns3:TrackPointExtension>
        </extensions>
      </trkpt>
      <trkpt lat="44.68948778696358203887939453125" lon="6.779453940689563751220703125">
        <ele>2201.800048828125</ele>
        <time>2026-09-03T07:41:35.000Z</time>
        <extensions>
          <ns3:TrackPointExtension>
            <ns3:hr>165</ns3:hr>
            <ns3:cad>55</ns3:cad>
          </ns3:TrackPointExtension>
        </extensions>
      </trkpt>
      <trkpt lat="44.6894768066704273223876953125" lon="6.77946324460208415985107421875">
        <ele>2202</ele>
        <time>2026-09-03T07:41:36.000Z</time>
        <extensions>
          <ns3:TrackPointExtension>
            <ns3:hr>166</ns3:hr>
            <ns3:cad>55</ns3:cad>
          </ns3:TrackPointExtension>
        </extensions>
      </trkpt>
      <trkpt lat="44.68946984969079494476318359375" lon="6.779468692839145660400390625">
        <ele>2202</ele>
        <time>2026-09-03T07:41:37.000Z</time>
        <extensions>
          <ns3:TrackPointExtension>
            <ns3:hr>166</ns3:hr>
            <ns3:cad>55</ns3:cad>
          </ns3:TrackPointExtension>
        </extensions>
      </trkpt>
      <trkpt lat="44.6894590370357036590576171875" lon="6.779477410018444061279296875">
        <ele>2202.199951171875</ele>
        <time>2026-09-03T07:41:38.000Z</time>
        <extensions>
          <ns3:TrackPointExtension>
            <ns3:hr>166</ns3:hr>
            <ns3:cad>0</ns3:cad>
          </ns3:TrackPointExtension>
        </extensions>
      </trkpt>
      <trkpt lat="44.68945107422769069671630859375" lon="6.77948336116969585418701171875">
        <ele>2202.199951171875</ele>
        <time>2026-09-03T07:41:39.000Z</time>
        <extensions>
          <ns3:TrackPointExtension>
            <ns3:hr>165</ns3:hr>
            <ns3:cad>0</ns3:cad>
          </ns3:TrackPointExtension>
        </extensions>
      </trkpt>
      <trkpt lat="44.68943967483937740325927734375" lon="6.77949249744415283203125">
        <ele>2202.199951171875</ele>
        <time>2026-09-03T07:41:40.000Z</time>
        <extensions>
          <ns3:TrackPointExtension>
            <ns3:hr>165</ns3:hr>
            <ns3:cad>0</ns3:cad>
          </ns3:TrackPointExtension>
        </extensions>
      </trkpt>
      <trkpt lat="44.68943213112652301788330078125" lon="6.77949928678572177886962890625">
        <ele>2202.39990234375</ele>
        <time>2026-09-03T07:41:41.000Z</time>
        <extensions>
          <ns3:TrackPointExtension>
            <ns3:hr>165</ns3:hr>
            <ns3:cad>0</ns3:cad>
          </ns3:TrackPointExtension>
        </extensions>
      </trkpt>
      <trkpt lat="44.6894201450049877166748046875" lon="6.779508925974369049072265625">
        <ele>2202.39990234375</ele>
        <time>2026-09-03T07:41:42.000Z</time>
        <extensions>
          <ns3:TrackPointExtension>
            <ns3:hr>165</ns3:hr>
            <ns3:cad>0</ns3:cad>
          </ns3:TrackPointExtension>
        </extensions>
      </trkpt>
      <trkpt lat="44.68940832652151584625244140625" lon="6.77951923571527004241943359375">
        <ele>2202.60009765625</ele>
        <time>2026-09-03T07:41:43.000Z</time>
        <extensions>
          <ns3:TrackPointExtension>
            <ns3:hr>165</ns3:hr>
            <ns3:cad>0</ns3:cad>
          </ns3:TrackPointExtension>
        </extensions>
      </trkpt>
      <trkpt lat="44.68939307145774364471435546875" lon="6.7795278690755367279052734375">
        <ele>2202.800048828125</ele>
        <time>2026-09-03T07:41:44.000Z</time>
        <extensions>
          <ns3:TrackPointExtension>
            <ns3:hr>165</ns3:hr>
            <ns3:cad>0</ns3:cad>
          </ns3:TrackPointExtension>
        </extensions>
      </trkpt>
      <trkpt lat="44.6893812529742717742919921875" lon="6.779534406960010528564453125">
        <ele>2202.800048828125</ele>
        <time>2026-09-03T07:41:45.000Z</time>
        <extensions>
          <ns3:TrackPointExtension>
            <ns3:hr>165</ns3:hr>
            <ns3:cad>0</ns3:cad>
          </ns3:TrackPointExtension>
        </extensions>
      </trkpt>
      <trkpt lat="44.6893671713769435882568359375" lon="6.77953029982745647430419921875">
        <ele>2203</ele>
        <time>2026-09-03T07:41:46.000Z</time>
        <extensions>
          <ns3:TrackPointExtension>
            <ns3:hr>165</ns3:hr>
            <ns3:cad>0</ns3:cad>
          </ns3:TrackPointExtension>
        </extensions>
      </trkpt>
      <trkpt lat="44.689356274902820587158203125" lon="6.7795369215309619903564453125">
        <ele>2203.199951171875</ele>
        <time>2026-09-03T07:41:47.000Z</time>
        <extensions>
          <ns3:TrackPointExtension>
            <ns3:hr>164</ns3:hr>
            <ns3:cad>0</ns3:cad>
          </ns3:TrackPointExtension>
        </extensions>
      </trkpt>
      <trkpt lat="44.68934454023838043212890625" lon="6.77954538725316524505615234375">
        <ele>2203.199951171875</ele>
        <time>2026-09-03T07:41:48.000Z</time>
        <extensions>
          <ns3:TrackPointExtension>
            <ns3:hr>164</ns3:hr>
            <ns3:cad>0</ns3:cad>
          </ns3:TrackPointExtension>
        </extensions>
      </trkpt>
      <trkpt lat="44.6893353201448917388916015625" lon="6.77955150604248046875">
        <ele>2203.39990234375</ele>
        <time>2026-09-03T07:41:49.000Z</time>
        <extensions>
          <ns3:TrackPointExtension>
            <ns3:hr>164</ns3:hr>
            <ns3:cad>0</ns3:cad>
          </ns3:TrackPointExtension>
        </extensions>
      </trkpt>
      <trkpt lat="44.6893269382417201995849609375" lon="6.77955695427954196929931640625">
        <ele>2203.60009765625</ele>
        <time>2026-09-03T07:41:50.000Z</time>
        <extensions>
          <ns3:TrackPointExtension>
            <ns3:hr>164</ns3:hr>
            <ns3:cad>0</ns3:cad>
          </ns3:TrackPointExtension>
        </extensions>
      </trkpt>
      <trkpt lat="44.689315371215343475341796875" lon="6.77956114523112773895263671875">
        <ele>2203.800048828125</ele>
        <time>2026-09-03T07:41:51.000Z</time>
        <extensions>
          <ns3:TrackPointExtension>
            <ns3:hr>164</ns3:hr>
            <ns3:cad>56</ns3:cad>
          </ns3:TrackPointExtension>
        </extensions>
      </trkpt>
      <trkpt lat="44.68930489383637905120849609375" lon="6.7795657552778720855712890625">
        <ele>2203.800048828125</ele>
        <time>2026-09-03T07:41:52.000Z</time>
        <extensions>
          <ns3:TrackPointExtension>
            <ns3:hr>164</ns3:hr>
            <ns3:cad>56</ns3:cad>
          </ns3:TrackPointExtension>
        </extensions>
      </trkpt>
      <trkpt lat="44.68929223716259002685546875" lon="6.779570281505584716796875">
        <ele>2204</ele>
        <time>2026-09-03T07:41:53.000Z</time>
        <extensions>
          <ns3:TrackPointExtension>
            <ns3:hr>164</ns3:hr>
            <ns3:cad>56</ns3:cad>
          </ns3:TrackPointExtension>
        </extensions>
      </trkpt>
      <trkpt lat="44.68927622772753238677978515625" lon="6.7795731313526630401611328125">
        <ele>2204</ele>
        <time>2026-09-03T07:41:54.000Z</time>
        <extensions>
          <ns3:TrackPointExtension>
            <ns3:hr>164</ns3:hr>
            <ns3:cad>53</ns3:cad>
          </ns3:TrackPointExtension>
        </extensions>
      </trkpt>
      <trkpt lat="44.68926273286342620849609375" lon="6.7795744724571704864501953125">
        <ele>2204.199951171875</ele>
        <time>2026-09-03T07:41:55.000Z</time>
        <extensions>
          <ns3:TrackPointExtension>
            <ns3:hr>164</ns3:hr>
            <ns3:cad>53</ns3:cad>
          </ns3:TrackPointExtension>
        </extensions>
      </trkpt>
      <trkpt lat="44.68925007618963718414306640625" lon="6.7795761488378047943115234375">
        <ele>2204.39990234375</ele>
        <time>2026-09-03T07:41:56.000Z</time>
        <extensions>
          <ns3:TrackPointExtension>
            <ns3:hr>164</ns3:hr>
            <ns3:cad>53</ns3:cad>
          </ns3:TrackPointExtension>
        </extensions>
      </trkpt>
      <trkpt lat="44.68924068845808506011962890625" lon="6.77957656793296337127685546875">
        <ele>2204.39990234375</ele>
        <time>2026-09-03T07:41:57.000Z</time>
        <extensions>
          <ns3:TrackPointExtension>
            <ns3:hr>163</ns3:hr>
            <ns3:cad>53</ns3:cad>
          </ns3:TrackPointExtension>
        </extensions>
      </trkpt>
      <trkpt lat="44.6892323903739452362060546875" lon="6.77957740612328052520751953125">
        <ele>2204.60009765625</ele>
        <time>2026-09-03T07:41:58.000Z</time>
        <extensions>
          <ns3:TrackPointExtension>
            <ns3:hr>163</ns3:hr>
            <ns3:cad>0</ns3:cad>
          </ns3:TrackPointExtension>
        </extensions>
      </trkpt>
      <trkpt lat="44.6892219968140125274658203125" lon="6.779580675065517425537109375">
        <ele>2204.60009765625</ele>
        <time>2026-09-03T07:41:59.000Z</time>
        <extensions>
          <ns3:TrackPointExtension>
            <ns3:hr>163</ns3:hr>
            <ns3:cad>0</ns3:cad>
          </ns3:TrackPointExtension>
        </extensions>
      </trkpt>
      <trkpt lat="44.68921311199665069580078125" lon="6.7795868776738643646240234375">
        <ele>2204.800048828125</ele>
        <time>2026-09-03T07:42:00.000Z</time>
        <extensions>
          <ns3:TrackPointExtension>
            <ns3:hr>162</ns3:hr>
            <ns3:cad>0</ns3:cad>
          </ns3:TrackPointExtension>
        </extensions>
      </trkpt>
      <trkpt lat="44.68920162878930568695068359375" lon="6.77959148772060871124267578125">
        <ele>2204.800048828125</ele>
        <time>2026-09-03T07:42:01.000Z</time>
        <extensions>
          <ns3:TrackPointExtension>
            <ns3:hr>162</ns3:hr>
            <ns3:cad>0</ns3:cad>
          </ns3:TrackPointExtension>
        </extensions>
      </trkpt>
      <trkpt lat="44.68919106759130954742431640625" lon="6.779598779976367950439453125">
        <ele>2205</ele>
        <time>2026-09-03T07:42:02.000Z</time>
        <extensions>
          <ns3:TrackPointExtension>
            <ns3:hr>161</ns3:hr>
            <ns3:cad>0</ns3:cad>
          </ns3:TrackPointExtension>
        </extensions>
      </trkpt>
      <trkpt lat="44.689177237451076507568359375" lon="6.77960623987019062042236328125">
        <ele>2205</ele>
        <time>2026-09-03T07:42:03.000Z</time>
        <extensions>
          <ns3:TrackPointExtension>
            <ns3:hr>160</ns3:hr>
            <ns3:cad>0</ns3:cad>
          </ns3:TrackPointExtension>
        </extensions>
      </trkpt>
      <trkpt lat="44.6891628205776214599609375" lon="6.779610849916934967041015625">
        <ele>2205.199951171875</ele>
        <time>2026-09-03T07:42:04.000Z</time>
        <extensions>
          <ns3:TrackPointExtension>
            <ns3:hr>160</ns3:hr>
            <ns3:cad>0</ns3:cad>
          </ns3:TrackPointExtension>
        </extensions>
      </trkpt>
      <trkpt lat="44.68915008008480072021484375" lon="6.7796147055923938751220703125">
        <ele>2205.39990234375</ele>
        <time>2026-09-03T07:42:05.000Z</time>
        <extensions>
          <ns3:TrackPointExtension>
            <ns3:hr>159</ns3:hr>
            <ns3:cad>0</ns3:cad>
          </ns3:TrackPointExtension>
        </extensions>
      </trkpt>
      <trkpt lat="44.68913859687745571136474609375" lon="6.77961495704948902130126953125">
        <ele>2205.39990234375</ele>
        <time>2026-09-03T07:42:06.000Z</time>
        <extensions>
          <ns3:TrackPointExtension>
            <ns3:hr>158</ns3:hr>
            <ns3:cad>0</ns3:cad>
          </ns3:TrackPointExtension>
        </extensions>
      </trkpt>
      <trkpt lat="44.68912619166076183319091796875" lon="6.77961026318371295928955078125">
        <ele>2205.60009765625</ele>
        <time>2026-09-03T07:42:07.000Z</time>
        <extensions>
          <ns3:TrackPointExtension>
            <ns3:hr>157</ns3:hr>
            <ns3:cad>0</ns3:cad>
          </ns3:TrackPointExtension>
        </extensions>
      </trkpt>
      <trkpt lat="44.68911445699632167816162109375" lon="6.7796093411743640899658203125">
        <ele>2205.60009765625</ele>
        <time>2026-09-03T07:42:08.000Z</time>
        <extensions>
          <ns3:TrackPointExtension>
            <ns3:hr>157</ns3:hr>
            <ns3:cad>0</ns3:cad>
          </ns3:TrackPointExtension>
        </extensions>
      </trkpt>
      <trkpt lat="44.68910054303705692291259765625" lon="6.77960691042244434356689453125">
        <ele>2205.800048828125</ele>
        <time>2026-09-03T07:42:09.000Z</time>
        <extensions>
          <ns3:TrackPointExtension>
            <ns3:hr>156</ns3:hr>
            <ns3:cad>0</ns3:cad>
          </ns3:TrackPointExtension>
        </extensions>
      </trkpt>
      <trkpt lat="44.6890912391245365142822265625" lon="6.77960791625082492828369140625">
        <ele>2205.800048828125</ele>
        <time>2026-09-03T07:42:10.000Z</time>
        <extensions>
          <ns3:TrackPointExtension>
            <ns3:hr>156</ns3:hr>
            <ns3:cad>0</ns3:cad>
          </ns3:TrackPointExtension>
        </extensions>
      </trkpt>
      <trkpt lat="44.68907757662236690521240234375" lon="6.77960313856601715087890625">
        <ele>2206</ele>
        <time>2026-09-03T07:42:11.000Z</time>
        <extensions>
          <ns3:TrackPointExtension>
            <ns3:hr>156</ns3:hr>
            <ns3:cad>0</ns3:cad>
          </ns3:TrackPointExtension>
        </extensions>
      </trkpt>
      <trkpt lat="44.6890654228627681732177734375" lon="6.77959970198571681976318359375">
        <ele>2206</ele>
        <time>2026-09-03T07:42:12.000Z</time>
        <extensions>
          <ns3:TrackPointExtension>
            <ns3:hr>155</ns3:hr>
            <ns3:cad>0</ns3:cad>
          </ns3:TrackPointExtension>
        </extensions>
      </trkpt>
      <trkpt lat="44.68905159272253513336181640625" lon="6.779594756662845611572265625">
        <ele>2206.199951171875</ele>
        <time>2026-09-03T07:42:13.000Z</time>
        <extensions>
          <ns3:TrackPointExtension>
            <ns3:hr>155</ns3:hr>
            <ns3:cad>0</ns3:cad>
          </ns3:TrackPointExtension>
        </extensions>
      </trkpt>
      <trkpt lat="44.68904203735291957855224609375" lon="6.77958880551159381866455078125">
        <ele>2206.39990234375</ele>
        <time>2026-09-03T07:42:14.000Z</time>
        <extensions>
          <ns3:TrackPointExtension>
            <ns3:hr>155</ns3:hr>
            <ns3:cad>0</ns3:cad>
          </ns3:TrackPointExtension>
        </extensions>
      </trkpt>
      <trkpt lat="44.68902477063238620758056640625" lon="6.77958025597035884857177734375">
        <ele>2206.60009765625</ele>
        <time>2026-09-03T07:42:15.000Z</time>
        <extensions>
          <ns3:TrackPointExtension>
            <ns3:hr>155</ns3:hr>
            <ns3:cad>0</ns3:cad>
          </ns3:TrackPointExtension>
        </extensions>
      </trkpt>
      <trkpt lat="44.68901270069181919097900390625" lon="6.7795771546661853790283203125">
        <ele>2206.60009765625</ele>
        <time>2026-09-03T07:42:16.000Z</time>
        <extensions>
          <ns3:TrackPointExtension>
            <ns3:hr>155</ns3:hr>
            <ns3:cad>0</ns3:cad>
          </ns3:TrackPointExtension>
        </extensions>
      </trkpt>
      <trkpt lat="44.68900163657963275909423828125" lon="6.77958126179873943328857421875">
        <ele>2206.800048828125</ele>
        <time>2026-09-03T07:42:17.000Z</time>
        <extensions>
          <ns3:TrackPointExtension>
            <ns3:hr>155</ns3:hr>
            <ns3:cad>0</ns3:cad>
          </ns3:TrackPointExtension>
        </extensions>
      </trkpt>
      <trkpt lat="44.6889930032193660736083984375" lon="6.77958570420742034912109375">
        <ele>2206.800048828125</ele>
        <time>2026-09-03T07:42:18.000Z</time>
        <extensions>
          <ns3:TrackPointExtension>
            <ns3:hr>155</ns3:hr>
            <ns3:cad>0</ns3:cad>
          </ns3:TrackPointExtension>
        </extensions>
      </trkpt>
      <trkpt lat="44.688976071774959564208984375" lon="6.77959349937736988067626953125">
        <ele>2206.800048828125</ele>
        <time>2026-09-03T07:42:19.000Z</time>
        <extensions>
          <ns3:TrackPointExtension>
            <ns3:hr>155</ns3:hr>
            <ns3:cad>0</ns3:cad>
          </ns3:TrackPointExtension>
        </extensions>
      </trkpt>
      <trkpt lat="44.688966013491153717041015625" lon="6.779598109424114227294921875">
        <ele>2207</ele>
        <time>2026-09-03T07:42:20.000Z</time>
        <extensions>
          <ns3:TrackPointExtension>
            <ns3:hr>155</ns3:hr>
            <ns3:cad>0</ns3:cad>
          </ns3:TrackPointExtension>
        </extensions>
      </trkpt>
      <trkpt lat="44.688954614102840423583984375" lon="6.779601462185382843017578125">
        <ele>2207</ele>
        <time>2026-09-03T07:42:21.000Z</time>
        <extensions>
          <ns3:TrackPointExtension>
            <ns3:hr>154</ns3:hr>
            <ns3:cad>0</ns3:cad>
          </ns3:TrackPointExtension>
        </extensions>
      </trkpt>
      <trkpt lat="44.6889443881809711456298828125" lon="6.77960255183279514312744140625">
        <ele>2207.199951171875</ele>
        <time>2026-09-03T07:42:22.000Z</time>
        <extensions>
          <ns3:TrackPointExtension>
            <ns3:hr>155</ns3:hr>
            <ns3:cad>0</ns3:cad>
          </ns3:TrackPointExtension>
        </extensions>
      </trkpt>
      <trkpt lat="44.68893089331686496734619140625" lon="6.77960054017603397369384765625">
        <ele>2207.199951171875</ele>
        <time>2026-09-03T07:42:23.000Z</time>
        <extensions>
          <ns3:TrackPointExtension>
            <ns3:hr>155</ns3:hr>
            <ns3:cad>0</ns3:cad>
          </ns3:TrackPointExtension>
        </extensions>
      </trkpt>
      <trkpt lat="44.68892066739499568939208984375" lon="6.77960020489990711212158203125">
        <ele>2207.39990234375</ele>
        <time>2026-09-03T07:42:24.000Z</time>
        <extensions>
          <ns3:TrackPointExtension>
            <ns3:hr>154</ns3:hr>
            <ns3:cad>0</ns3:cad>
          </ns3:TrackPointExtension>
        </extensions>
      </trkpt>
      <trkpt lat="44.68890675343573093414306640625" lon="6.7795976065099239349365234375">
        <ele>2207.39990234375</ele>
        <time>2026-09-03T07:42:25.000Z</time>
        <extensions>
          <ns3:TrackPointExtension>
            <ns3:hr>154</ns3:hr>
            <ns3:cad>0</ns3:cad>
          </ns3:TrackPointExtension>
        </extensions>
      </trkpt>
      <trkpt lat="44.68889661133289337158203125" lon="6.779595427215099334716796875">
        <ele>2207.60009765625</ele>
        <time>2026-09-03T07:42:26.000Z</time>
        <extensions>
          <ns3:TrackPointExtension>
            <ns3:hr>154</ns3:hr>
            <ns3:cad>0</ns3:cad>
          </ns3:TrackPointExtension>
        </extensions>
      </trkpt>
      <trkpt lat="44.68888630159199237823486328125" lon="6.7795979417860507965087890625">
        <ele>2207.800048828125</ele>
        <time>2026-09-03T07:42:27.000Z</time>
        <extensions>
          <ns3:TrackPointExtension>
            <ns3:hr>154</ns3:hr>
            <ns3:cad>0</ns3:cad>
          </ns3:TrackPointExtension>
        </extensions>
      </trkpt>
      <trkpt lat="44.68887540511786937713623046875" lon="6.77960037253797054290771484375">
        <ele>2208</ele>
        <time>2026-09-03T07:42:28.000Z</time>
        <extensions>
          <ns3:TrackPointExtension>
            <ns3:hr>154</ns3:hr>
            <ns3:cad>0</ns3:cad>
          </ns3:TrackPointExtension>
        </extensions>
      </trkpt>
      <trkpt lat="44.688863418996334075927734375" lon="6.7795959301292896270751953125">
        <ele>2208.199951171875</ele>
        <time>2026-09-03T07:42:29.000Z</time>
        <extensions>
          <ns3:TrackPointExtension>
            <ns3:hr>154</ns3:hr>
            <ns3:cad>0</ns3:cad>
          </ns3:TrackPointExtension>
        </extensions>
      </trkpt>
      <trkpt lat="44.68885109759867191314697265625" lon="6.77959869615733623504638671875">
        <ele>2208.39990234375</ele>
        <time>2026-09-03T07:42:30.000Z</time>
        <extensions>
          <ns3:TrackPointExtension>
            <ns3:hr>154</ns3:hr>
            <ns3:cad>0</ns3:cad>
          </ns3:TrackPointExtension>
        </extensions>
      </trkpt>
      <trkpt lat="44.68884254805743694305419921875" lon="6.779596097767353057861328125">
        <ele>2208.60009765625</ele>
        <time>2026-09-03T07:42:31.000Z</time>
        <extensions>
          <ns3:TrackPointExtension>
            <ns3:hr>154</ns3:hr>
            <ns3:cad>0</ns3:cad>
          </ns3:TrackPointExtension>
        </extensions>
      </trkpt>
      <trkpt lat="44.68882913701236248016357421875" lon="6.77959819324314594268798828125">
        <ele>2208.800048828125</ele>
        <time>2026-09-03T07:42:32.000Z</time>
        <extensions>
          <ns3:TrackPointExtension>
            <ns3:hr>153</ns3:hr>
            <ns3:cad>0</ns3:cad>
          </ns3:TrackPointExtension>
        </extensions>
      </trkpt>
      <trkpt lat="44.68882041983306407928466796875" lon="6.7795972712337970733642578125">
        <ele>2209</ele>
        <time>2026-09-03T07:42:33.000Z</time>
        <extensions>
          <ns3:TrackPointExtension>
            <ns3:hr>153</ns3:hr>
            <ns3:cad>0</ns3:cad>
          </ns3:TrackPointExtension>
        </extensions>
      </trkpt>
      <trkpt lat="44.688802398741245269775390625" lon="6.779597438871860504150390625">
        <ele>2209</ele>
        <time>2026-09-03T07:42:34.000Z</time>
        <extensions>
          <ns3:TrackPointExtension>
            <ns3:hr>153</ns3:hr>
            <ns3:cad>0</ns3:cad>
          </ns3:TrackPointExtension>
        </extensions>
      </trkpt>
      <trkpt lat="44.688796363770961761474609375" lon="6.77960121072828769683837890625">
        <ele>2209.199951171875</ele>
        <time>2026-09-03T07:42:35.000Z</time>
        <extensions>
          <ns3:TrackPointExtension>
            <ns3:hr>152</ns3:hr>
            <ns3:cad>0</ns3:cad>
          </ns3:TrackPointExtension>
        </extensions>
      </trkpt>
      <trkpt lat="44.68877968378365039825439453125" lon="6.77960372529923915863037109375">
        <ele>2209.39990234375</ele>
        <time>2026-09-03T07:42:36.000Z</time>
        <extensions>
          <ns3:TrackPointExtension>
            <ns3:hr>152</ns3:hr>
            <ns3:cad>0</ns3:cad>
          </ns3:TrackPointExtension>
        </extensions>
      </trkpt>
      <trkpt lat="44.6887740679085254669189453125" lon="6.7796051502227783203125">
        <ele>2209.60009765625</ele>
        <time>2026-09-03T07:42:37.000Z</time>
        <extensions>
          <ns3:TrackPointExtension>
            <ns3:hr>152</ns3:hr>
            <ns3:cad>0</ns3:cad>
          </ns3:TrackPointExtension>
        </extensions>
      </trkpt>
      <trkpt lat="44.6887613274157047271728515625" lon="6.77960674278438091278076171875">
        <ele>2209.800048828125</ele>
        <time>2026-09-03T07:42:38.000Z</time>
        <extensions>
          <ns3:TrackPointExtension>
            <ns3:hr>153</ns3:hr>
            <ns3:cad>0</ns3:cad>
          </ns3:TrackPointExtension>
        </extensions>
      </trkpt>
      <trkpt lat="44.68875185586512088775634765625" lon="6.77961311303079128265380859375">
        <ele>2209.800048828125</ele>
        <time>2026-09-03T07:42:39.000Z</time>
        <extensions>
          <ns3:TrackPointExtension>
            <ns3:hr>152</ns3:hr>
            <ns3:cad>0</ns3:cad>
          </ns3:TrackPointExtension>
        </extensions>
      </trkpt>
      <trkpt lat="44.68874045647680759429931640625" lon="6.7796140350401401519775390625">
        <ele>2210.199951171875</ele>
        <time>2026-09-03T07:42:40.000Z</time>
        <extensions>
          <ns3:TrackPointExtension>
            <ns3:hr>152</ns3:hr>
            <ns3:cad>0</ns3:cad>
          </ns3:TrackPointExtension>
        </extensions>
      </trkpt>
      <trkpt lat="44.68873140402138233184814453125" lon="6.77961378358304500579833984375">
        <ele>2210.39990234375</ele>
        <time>2026-09-03T07:42:41.000Z</time>
        <extensions>
          <ns3:TrackPointExtension>
            <ns3:hr>153</ns3:hr>
            <ns3:cad>0</ns3:cad>
          </ns3:TrackPointExtension>
        </extensions>
      </trkpt>
      <trkpt lat="44.688718579709529876708984375" lon="6.77961344830691814422607421875">
        <ele>2210.60009765625</ele>
        <time>2026-09-03T07:42:42.000Z</time>
        <extensions>
          <ns3:TrackPointExtension>
            <ns3:hr>153</ns3:hr>
            <ns3:cad>0</ns3:cad>
          </ns3:TrackPointExtension>
        </extensions>
      </trkpt>
      <trkpt lat="44.6887103654444217681884765625" lon="6.77961411885917186737060546875">
        <ele>2210.800048828125</ele>
        <time>2026-09-03T07:42:43.000Z</time>
        <extensions>
          <ns3:TrackPointExtension>
            <ns3:hr>153</ns3:hr>
            <ns3:cad>0</ns3:cad>
          </ns3:TrackPointExtension>
        </extensions>
      </trkpt>
      <trkpt lat="44.688695110380649566650390625" lon="6.77961361594498157501220703125">
        <ele>2211</ele>
        <time>2026-09-03T07:42:44.000Z</time>
        <extensions>
          <ns3:TrackPointExtension>
            <ns3:hr>153</ns3:hr>
            <ns3:cad>0</ns3:cad>
          </ns3:TrackPointExtension>
        </extensions>
      </trkpt>
      <trkpt lat="44.688685052096843719482421875" lon="6.77961386740207672119140625">
        <ele>2211.199951171875</ele>
        <time>2026-09-03T07:42:45.000Z</time>
        <extensions>
          <ns3:TrackPointExtension>
            <ns3:hr>153</ns3:hr>
            <ns3:cad>0</ns3:cad>
          </ns3:TrackPointExtension>
        </extensions>
      </trkpt>
      <trkpt lat="44.68867306597530841827392578125" lon="6.7796126939356327056884765625">
        <ele>2211.39990234375</ele>
        <time>2026-09-03T07:42:46.000Z</time>
        <extensions>
          <ns3:TrackPointExtension>
            <ns3:hr>153</ns3:hr>
            <ns3:cad>0</ns3:cad>
          </ns3:TrackPointExtension>
        </extensions>
      </trkpt>
      <trkpt lat="44.6886612474918365478515625" lon="6.77961512468755245208740234375">
        <ele>2211.39990234375</ele>
        <time>2026-09-03T07:42:47.000Z</time>
        <extensions>
          <ns3:TrackPointExtension>
            <ns3:hr>152</ns3:hr>
            <ns3:cad>0</ns3:cad>
          </ns3:TrackPointExtension>
        </extensions>
      </trkpt>
      <trkpt lat="44.68864825554192066192626953125" lon="6.77961562760174274444580078125">
        <ele>2211.60009765625</ele>
        <time>2026-09-03T07:42:48.000Z</time>
        <extensions>
          <ns3:TrackPointExtension>
            <ns3:hr>153</ns3:hr>
            <ns3:cad>0</ns3:cad>
          </ns3:TrackPointExtension>
        </extensions>
      </trkpt>
      <trkpt lat="44.688635431230068206787109375" lon="6.7796193994581699371337890625">
        <ele>2211.800048828125</ele>
        <time>2026-09-03T07:42:49.000Z</time>
        <extensions>
          <ns3:TrackPointExtension>
            <ns3:hr>153</ns3:hr>
            <ns3:cad>0</ns3:cad>
          </ns3:TrackPointExtension>
        </extensions>
      </trkpt>
      <trkpt lat="44.68862746842205524444580078125" lon="6.7796200700104236602783203125">
        <ele>2212</ele>
        <time>2026-09-03T07:42:50.000Z</time>
        <extensions>
          <ns3:TrackPointExtension>
            <ns3:hr>152</ns3:hr>
            <ns3:cad>0</ns3:cad>
          </ns3:TrackPointExtension>
        </extensions>
      </trkpt>
      <trkpt lat="44.688614308834075927734375" lon="6.7796217463910579681396484375">
        <ele>2212</ele>
        <time>2026-09-03T07:42:51.000Z</time>
        <extensions>
          <ns3:TrackPointExtension>
            <ns3:hr>152</ns3:hr>
            <ns3:cad>0</ns3:cad>
          </ns3:TrackPointExtension>
        </extensions>
      </trkpt>
      <trkpt lat="44.68861036933958530426025390625" lon="6.77962199784815311431884765625">
        <ele>2212.199951171875</ele>
        <time>2026-09-03T07:42:52.000Z</time>
        <extensions>
          <ns3:TrackPointExtension>
            <ns3:hr>152</ns3:hr>
            <ns3:cad>0</ns3:cad>
          </ns3:TrackPointExtension>
        </extensions>
      </trkpt>
      <trkpt lat="44.68859695829451084136962890625" lon="6.77962183021008968353271484375">
        <ele>2212.39990234375</ele>
        <time>2026-09-03T07:42:53.000Z</time>
        <extensions>
          <ns3:TrackPointExtension>
            <ns3:hr>153</ns3:hr>
            <ns3:cad>0</ns3:cad>
          </ns3:TrackPointExtension>
        </extensions>
      </trkpt>
      <trkpt lat="44.6885879896581172943115234375" lon="6.77962250076234340667724609375">
        <ele>2212.39990234375</ele>
        <time>2026-09-03T07:42:54.000Z</time>
        <extensions>
          <ns3:TrackPointExtension>
            <ns3:hr>152</ns3:hr>
            <ns3:cad>0</ns3:cad>
          </ns3:TrackPointExtension>
        </extensions>
      </trkpt>
      <trkpt lat="44.6885742433369159698486328125" lon="6.77962283603847026824951171875">
        <ele>2212.60009765625</ele>
        <time>2026-09-03T07:42:55.000Z</time>
        <extensions>
          <ns3:TrackPointExtension>
            <ns3:hr>152</ns3:hr>
            <ns3:cad>0</ns3:cad>
          </ns3:TrackPointExtension>
        </extensions>
      </trkpt>
      <trkpt lat="44.688563011586666107177734375" lon="6.77962082438170909881591796875">
        <ele>2212.60009765625</ele>
        <time>2026-09-03T07:42:56.000Z</time>
        <extensions>
          <ns3:TrackPointExtension>
            <ns3:hr>152</ns3:hr>
            <ns3:cad>0</ns3:cad>
          </ns3:TrackPointExtension>
        </extensions>
      </trkpt>
      <trkpt lat="44.6885534562170505523681640625" lon="6.7796200700104236602783203125">
        <ele>2212.800048828125</ele>
        <time>2026-09-03T07:42:57.000Z</time>
        <extensions>
          <ns3:TrackPointExtension>
            <ns3:hr>153</ns3:hr>
            <ns3:cad>0</ns3:cad>
          </ns3:TrackPointExtension>
        </extensions>
      </trkpt>
      <trkpt lat="44.688546247780323028564453125" lon="6.77962518297135829925537109375">
        <ele>2213</ele>
        <time>2026-09-03T07:42:58.000Z</time>
        <extensions>
          <ns3:TrackPointExtension>
            <ns3:hr>152</ns3:hr>
            <ns3:cad>0</ns3:cad>
          </ns3:TrackPointExtension>
        </extensions>
      </trkpt>
      <trkpt lat="44.68853593803942203521728515625" lon="6.77964068949222564697265625">
        <ele>2213.199951171875</ele>
        <time>2026-09-03T07:42:59.000Z</time>
        <extensions>
          <ns3:TrackPointExtension>
            <ns3:hr>152</ns3:hr>
            <ns3:cad>0</ns3:cad>
          </ns3:TrackPointExtension>
        </extensions>
      </trkpt>
      <trkpt lat="44.6885276399552822113037109375" lon="6.77964932285249233245849609375">
        <ele>2213.39990234375</ele>
        <time>2026-09-03T07:43:00.000Z</time>
        <extensions>
          <ns3:TrackPointExtension>
            <ns3:hr>152</ns3:hr>
            <ns3:cad>0</ns3:cad>
          </ns3:TrackPointExtension>
        </extensions>
      </trkpt>
      <trkpt lat="44.68851573765277862548828125" lon="6.77965820766985416412353515625">
        <ele>2213.60009765625</ele>
        <time>2026-09-03T07:43:01.000Z</time>
        <extensions>
          <ns3:TrackPointExtension>
            <ns3:hr>152</ns3:hr>
            <ns3:cad>0</ns3:cad>
          </ns3:TrackPointExtension>
        </extensions>
      </trkpt>
      <trkpt lat="44.68850626610219478607177734375" lon="6.779665835201740264892578125">
        <ele>2213.800048828125</ele>
        <time>2026-09-03T07:43:02.000Z</time>
        <extensions>
          <ns3:TrackPointExtension>
            <ns3:hr>152</ns3:hr>
            <ns3:cad>0</ns3:cad>
          </ns3:TrackPointExtension>
        </extensions>
      </trkpt>
      <trkpt lat="44.6884941123425960540771484375" lon="6.77967044524848461151123046875">
        <ele>2214</ele>
        <time>2026-09-03T07:43:03.000Z</time>
        <extensions>
          <ns3:TrackPointExtension>
            <ns3:hr>152</ns3:hr>
            <ns3:cad>0</ns3:cad>
          </ns3:TrackPointExtension>
        </extensions>
      </trkpt>
      <trkpt lat="44.68848095275461673736572265625" lon="6.77967312745749950408935546875">
        <ele>2214.199951171875</ele>
        <time>2026-09-03T07:43:04.000Z</time>
        <extensions>
          <ns3:TrackPointExtension>
            <ns3:hr>152</ns3:hr>
            <ns3:cad>0</ns3:cad>
          </ns3:TrackPointExtension>
        </extensions>
      </trkpt>
      <trkpt lat="44.6884719841182231903076171875" lon="6.77966256625950336456298828125">
        <ele>2214.39990234375</ele>
        <time>2026-09-03T07:43:05.000Z</time>
        <extensions>
          <ns3:TrackPointExtension>
            <ns3:hr>152</ns3:hr>
            <ns3:cad>0</ns3:cad>
          </ns3:TrackPointExtension>
        </extensions>
      </trkpt>
      <trkpt lat="44.688465110957622528076171875" lon="6.77964915521442890167236328125">
        <ele>2214.39990234375</ele>
        <time>2026-09-03T07:43:06.000Z</time>
        <extensions>
          <ns3:TrackPointExtension>
            <ns3:hr>151</ns3:hr>
            <ns3:cad>0</ns3:cad>
          </ns3:TrackPointExtension>
        </extensions>
      </trkpt>
      <trkpt lat="44.6884632669389247894287109375" lon="6.77964077331125736236572265625">
        <ele>2214.800048828125</ele>
        <time>2026-09-03T07:43:07.000Z</time>
        <extensions>
          <ns3:TrackPointExtension>
            <ns3:hr>152</ns3:hr>
            <ns3:cad>0</ns3:cad>
          </ns3:TrackPointExtension>
        </extensions>
      </trkpt>
      <trkpt lat="44.6884636022150516510009765625" lon="6.77963155321776866912841796875">
        <ele>2215</ele>
        <time>2026-09-03T07:43:08.000Z</time>
        <extensions>
          <ns3:TrackPointExtension>
            <ns3:hr>152</ns3:hr>
            <ns3:cad>0</ns3:cad>
          </ns3:TrackPointExtension>
        </extensions>
      </trkpt>
      <trkpt lat="44.6884629316627979278564453125" lon="6.77962350659072399139404296875">
        <ele>2215.199951171875</ele>
        <time>2026-09-03T07:43:09.000Z</time>
        <extensions>
          <ns3:TrackPointExtension>
            <ns3:hr>151</ns3:hr>
            <ns3:cad>0</ns3:cad>
          </ns3:TrackPointExtension>
        </extensions>
      </trkpt>
      <trkpt lat="44.68845999799668788909912109375" lon="6.779610849916934967041015625">
        <ele>2215.39990234375</ele>
        <time>2026-09-03T07:43:10.000Z</time>
        <extensions>
          <ns3:TrackPointExtension>
            <ns3:hr>152</ns3:hr>
            <ns3:cad>0</ns3:cad>
          </ns3:TrackPointExtension>
        </extensions>
      </trkpt>
      <trkpt lat="44.68845698051154613494873046875" lon="6.7796093411743640899658203125">
        <ele>2215.60009765625</ele>
        <time>2026-09-03T07:43:11.000Z</time>
        <extensions>
          <ns3:TrackPointExtension>
            <ns3:hr>152</ns3:hr>
            <ns3:cad>0</ns3:cad>
          </ns3:TrackPointExtension>
        </extensions>
      </trkpt>
      <trkpt lat="44.6884495206177234649658203125" lon="6.77959769032895565032958984375">
        <ele>2215.800048828125</ele>
        <time>2026-09-03T07:43:12.000Z</time>
        <extensions>
          <ns3:TrackPointExtension>
            <ns3:hr>152</ns3:hr>
            <ns3:cad>0</ns3:cad>
          </ns3:TrackPointExtension>
        </extensions>
      </trkpt>
      <trkpt lat="44.68844021670520305633544921875" lon="6.77959777414798736572265625">
        <ele>2216</ele>
        <time>2026-09-03T07:43:13.000Z</time>
        <extensions>
          <ns3:TrackPointExtension>
            <ns3:hr>151</ns3:hr>
            <ns3:cad>0</ns3:cad>
          </ns3:TrackPointExtension>
        </extensions>
      </trkpt>
      <trkpt lat="44.6884238719940185546875" lon="6.7795952595770359039306640625">
        <ele>2216.199951171875</ele>
        <time>2026-09-03T07:43:14.000Z</time>
        <extensions>
          <ns3:TrackPointExtension>
            <ns3:hr>152</ns3:hr>
            <ns3:cad>0</ns3:cad>
          </ns3:TrackPointExtension>
        </extensions>
      </trkpt>
      <trkpt lat="44.68841381371021270751953125" lon="6.77959199063479900360107421875">
        <ele>2216.39990234375</ele>
        <time>2026-09-03T07:43:15.000Z</time>
        <extensions>
          <ns3:TrackPointExtension>
            <ns3:hr>152</ns3:hr>
            <ns3:cad>0</ns3:cad>
          </ns3:TrackPointExtension>
        </extensions>
      </trkpt>
      <trkpt lat="44.68840350396931171417236328125" lon="6.779591403901576995849609375">
        <ele>2216.39990234375</ele>
        <time>2026-09-03T07:43:16.000Z</time>
        <extensions>
          <ns3:TrackPointExtension>
            <ns3:hr>151</ns3:hr>
            <ns3:cad>0</ns3:cad>
          </ns3:TrackPointExtension>
        </extensions>
      </trkpt>
      <trkpt lat="44.68838975764811038970947265625" lon="6.77959400229156017303466796875">
        <ele>2216.60009765625</ele>
        <time>2026-09-03T07:43:17.000Z</time>
        <extensions>
          <ns3:TrackPointExtension>
            <ns3:hr>151</ns3:hr>
            <ns3:cad>0</ns3:cad>
          </ns3:TrackPointExtension>
        </extensions>
      </trkpt>
      <trkpt lat="44.6883814595639705657958984375" lon="6.77958981133997440338134765625">
        <ele>2216.60009765625</ele>
        <time>2026-09-03T07:43:18.000Z</time>
        <extensions>
          <ns3:TrackPointExtension>
            <ns3:hr>151</ns3:hr>
            <ns3:cad>0</ns3:cad>
          </ns3:TrackPointExtension>
        </extensions>
      </trkpt>
      <trkpt lat="44.688367210328578948974609375" lon="6.779587380588054656982421875">
        <ele>2216.800048828125</ele>
        <time>2026-09-03T07:43:19.000Z</time>
        <extensions>
          <ns3:TrackPointExtension>
            <ns3:hr>151</ns3:hr>
            <ns3:cad>0</ns3:cad>
          </ns3:TrackPointExtension>
        </extensions>
      </trkpt>
      <trkpt lat="44.6883594989776611328125" lon="6.779588051140308380126953125">
        <ele>2216.800048828125</ele>
        <time>2026-09-03T07:43:20.000Z</time>
        <extensions>
          <ns3:TrackPointExtension>
            <ns3:hr>151</ns3:hr>
            <ns3:cad>0</ns3:cad>
          </ns3:TrackPointExtension>
        </extensions>
      </trkpt>
      <trkpt lat="44.68834340572357177734375" lon="6.779588721692562103271484375">
        <ele>2217</ele>
        <time>2026-09-03T07:43:21.000Z</time>
        <extensions>
          <ns3:TrackPointExtension>
            <ns3:hr>151</ns3:hr>
            <ns3:cad>0</ns3:cad>
          </ns3:TrackPointExtension>
        </extensions>
      </trkpt>
      <trkpt lat="44.688332341611385345458984375" lon="6.7795929126441478729248046875">
        <ele>2217</ele>
        <time>2026-09-03T07:43:22.000Z</time>
        <extensions>
          <ns3:TrackPointExtension>
            <ns3:hr>152</ns3:hr>
            <ns3:cad>0</ns3:cad>
          </ns3:TrackPointExtension>
        </extensions>
      </trkpt>
      <trkpt lat="44.68831867910921573638916015625" lon="6.779591403901576995849609375">
        <ele>2217.199951171875</ele>
        <time>2026-09-03T07:43:23.000Z</time>
        <extensions>
          <ns3:TrackPointExtension>
            <ns3:hr>151</ns3:hr>
            <ns3:cad>0</ns3:cad>
          </ns3:TrackPointExtension>
        </extensions>
      </trkpt>
      <trkpt lat="44.68830593861639499664306640625" lon="6.77959299646317958831787109375">
        <ele>2217.39990234375</ele>
        <time>2026-09-03T07:43:24.000Z</time>
        <extensions>
          <ns3:TrackPointExtension>
            <ns3:hr>151</ns3:hr>
            <ns3:cad>0</ns3:cad>
          </ns3:TrackPointExtension>
        </extensions>
      </trkpt>
      <trkpt lat="44.68829705379903316497802734375" lon="6.7795932479202747344970703125">
        <ele>2217.60009765625</ele>
        <time>2026-09-03T07:43:25.000Z</time>
        <extensions>
          <ns3:TrackPointExtension>
            <ns3:hr>151</ns3:hr>
            <ns3:cad>0</ns3:cad>
          </ns3:TrackPointExtension>
        </extensions>
      </trkpt>
      <trkpt lat="44.68828682787716388702392578125" lon="6.779596097767353057861328125">
        <ele>2217.60009765625</ele>
        <time>2026-09-03T07:43:26.000Z</time>
        <extensions>
          <ns3:TrackPointExtension>
            <ns3:hr>151</ns3:hr>
            <ns3:cad>0</ns3:cad>
          </ns3:TrackPointExtension>
        </extensions>
      </trkpt>
      <trkpt lat="44.6882778592407703399658203125" lon="6.77960188128054141998291015625">
        <ele>2217.800048828125</ele>
        <time>2026-09-03T07:43:27.000Z</time>
        <extensions>
          <ns3:TrackPointExtension>
            <ns3:hr>151</ns3:hr>
            <ns3:cad>0</ns3:cad>
          </ns3:TrackPointExtension>
        </extensions>
      </trkpt>
      <trkpt lat="44.68827425502240657806396484375" lon="6.77961009554564952850341796875">
        <ele>2218</ele>
        <time>2026-09-03T07:43:28.000Z</time>
        <extensions>
          <ns3:TrackPointExtension>
            <ns3:hr>151</ns3:hr>
            <ns3:cad>0</ns3:cad>
          </ns3:TrackPointExtension>
        </extensions>
      </trkpt>
      <trkpt lat="44.68827710486948490142822265625" lon="6.77961914800107479095458984375">
        <ele>2218.199951171875</ele>
        <time>2026-09-03T07:43:29.000Z</time>
        <extensions>
          <ns3:TrackPointExtension>
            <ns3:hr>152</ns3:hr>
            <ns3:cad>0</ns3:cad>
          </ns3:TrackPointExtension>
        </extensions>
      </trkpt>
      <trkpt lat="44.68828179873526096343994140625" lon="6.779632307589054107666015625">
        <ele>2218.39990234375</ele>
        <time>2026-09-03T07:43:30.000Z</time>
        <extensions>
          <ns3:TrackPointExtension>
            <ns3:hr>151</ns3:hr>
            <ns3:cad>0</ns3:cad>
          </ns3:TrackPointExtension>
        </extensions>
      </trkpt>
      <trkpt lat="44.68828464858233928680419921875" lon="6.77963624708354473114013671875">
        <ele>2218.39990234375</ele>
        <time>2026-09-03T07:43:31.000Z</time>
        <extensions>
          <ns3:TrackPointExtension>
            <ns3:hr>151</ns3:hr>
            <ns3:cad>0</ns3:cad>
          </ns3:TrackPointExtension>
        </extensions>
      </trkpt>
      <trkpt lat="44.6882932819426059722900390625" lon="6.7796520888805389404296875">
        <ele>2218.60009765625</ele>
        <time>2026-09-03T07:43:32.000Z</time>
        <extensions>
          <ns3:TrackPointExtension>
            <ns3:hr>151</ns3:hr>
            <ns3:cad>0</ns3:cad>
          </ns3:TrackPointExtension>
        </extensions>
      </trkpt>
      <trkpt lat="44.68829738907516002655029296875" lon="6.7796616442501544952392578125">
        <ele>2218.800048828125</ele>
        <time>2026-09-03T07:43:33.000Z</time>
        <extensions>
          <ns3:TrackPointExtension>
            <ns3:hr>152</ns3:hr>
            <ns3:cad>0</ns3:cad>
          </ns3:TrackPointExtension>
        </extensions>
      </trkpt>
      <trkpt lat="44.68830049037933349609375" lon="6.77967664785683155059814453125">
        <ele>2218.800048828125</ele>
        <time>2026-09-03T07:43:34.000Z</time>
        <extensions>
          <ns3:TrackPointExtension>
            <ns3:hr>151</ns3:hr>
            <ns3:cad>0</ns3:cad>
          </ns3:TrackPointExtension>
        </extensions>
      </trkpt>
      <trkpt lat="44.6882999874651432037353515625" lon="6.7796896398067474365234375">
        <ele>2219</ele>
        <time>2026-09-03T07:43:35.000Z</time>
        <extensions>
          <ns3:TrackPointExtension>
            <ns3:hr>151</ns3:hr>
            <ns3:cad>0</ns3:cad>
          </ns3:TrackPointExtension>
        </extensions>
      </trkpt>
      <trkpt lat="44.688301496207714080810546875" lon="6.77970548160374164581298828125">
        <ele>2219.199951171875</ele>
        <time>2026-09-03T07:43:36.000Z</time>
        <extensions>
          <ns3:TrackPointExtension>
            <ns3:hr>151</ns3:hr>
            <ns3:cad>0</ns3:cad>
          </ns3:TrackPointExtension>
        </extensions>
      </trkpt>
      <trkpt lat="44.68830593861639499664306640625" lon="6.7797142826020717620849609375">
        <ele>2219.199951171875</ele>
        <time>2026-09-03T07:43:37.000Z</time>
        <extensions>
          <ns3:TrackPointExtension>
            <ns3:hr>152</ns3:hr>
            <ns3:cad>0</ns3:cad>
          </ns3:TrackPointExtension>
        </extensions>
      </trkpt>
      <trkpt lat="44.68830845318734645843505859375" lon="6.7797310464084148406982421875">
        <ele>2219.39990234375</ele>
        <time>2026-09-03T07:43:38.000Z</time>
        <extensions>
          <ns3:TrackPointExtension>
            <ns3:hr>151</ns3:hr>
            <ns3:cad>0</ns3:cad>
          </ns3:TrackPointExtension>
        </extensions>
      </trkpt>
      <trkpt lat="44.68831230886280536651611328125" lon="6.77974705584347248077392578125">
        <ele>2219.60009765625</ele>
        <time>2026-09-03T07:43:39.000Z</time>
        <extensions>
          <ns3:TrackPointExtension>
            <ns3:hr>151</ns3:hr>
            <ns3:cad>0</ns3:cad>
          </ns3:TrackPointExtension>
        </extensions>
      </trkpt>
      <trkpt lat="44.68831415288150310516357421875" lon="6.77976071834564208984375">
        <ele>2219.800048828125</ele>
        <time>2026-09-03T07:43:40.000Z</time>
        <extensions>
          <ns3:TrackPointExtension>
            <ns3:hr>151</ns3:hr>
            <ns3:cad>0</ns3:cad>
          </ns3:TrackPointExtension>
        </extensions>
      </trkpt>
      <trkpt lat="44.6883160807192325592041015625" lon="6.77977572195231914520263671875">
        <ele>2219.800048828125</ele>
        <time>2026-09-03T07:43:41.000Z</time>
        <extensions>
          <ns3:TrackPointExtension>
            <ns3:hr>152</ns3:hr>
            <ns3:cad>0</ns3:cad>
          </ns3:TrackPointExtension>
        </extensions>
      </trkpt>
      <trkpt lat="44.6883194334805011749267578125" lon="6.77978594787418842315673828125">
        <ele>2220</ele>
        <time>2026-09-03T07:43:42.000Z</time>
        <extensions>
          <ns3:TrackPointExtension>
            <ns3:hr>151</ns3:hr>
            <ns3:cad>0</ns3:cad>
          </ns3:TrackPointExtension>
        </extensions>
      </trkpt>
      <trkpt lat="44.68831993639469146728515625" lon="6.77980438806116580963134765625">
        <ele>2220</ele>
        <time>2026-09-03T07:43:43.000Z</time>
        <extensions>
          <ns3:TrackPointExtension>
            <ns3:hr>151</ns3:hr>
            <ns3:cad>0</ns3:cad>
          </ns3:TrackPointExtension>
        </extensions>
      </trkpt>
      <trkpt lat="44.6883165836334228515625" lon="6.77981637418270111083984375">
        <ele>2220.199951171875</ele>
        <time>2026-09-03T07:43:44.000Z</time>
        <extensions>
          <ns3:TrackPointExtension>
            <ns3:hr>151</ns3:hr>
            <ns3:cad>0</ns3:cad>
          </ns3:TrackPointExtension>
        </extensions>
      </trkpt>
      <trkpt lat="44.68830929137766361236572265625" lon="6.77983649075031280517578125">
        <ele>2220.39990234375</ele>
        <time>2026-09-03T07:43:45.000Z</time>
        <extensions>
          <ns3:TrackPointExtension>
            <ns3:hr>151</ns3:hr>
            <ns3:cad>0</ns3:cad>
          </ns3:TrackPointExtension>
        </extensions>
      </trkpt>
      <trkpt lat="44.6883060224354267120361328125" lon="6.77984512411057949066162109375">
        <ele>2220.39990234375</ele>
        <time>2026-09-03T07:43:46.000Z</time>
        <extensions>
          <ns3:TrackPointExtension>
            <ns3:hr>151</ns3:hr>
            <ns3:cad>0</ns3:cad>
          </ns3:TrackPointExtension>
        </extensions>
      </trkpt>
      <trkpt lat="44.6882949583232402801513671875" lon="6.77986088208854198455810546875">
        <ele>2220.60009765625</ele>
        <time>2026-09-03T07:43:47.000Z</time>
        <extensions>
          <ns3:TrackPointExtension>
            <ns3:hr>150</ns3:hr>
            <ns3:cad>0</ns3:cad>
          </ns3:TrackPointExtension>
        </extensions>
      </trkpt>
      <trkpt lat="44.68828531913459300994873046875" lon="6.7798693478107452392578125">
        <ele>2220.60009765625</ele>
        <time>2026-09-03T07:43:48.000Z</time>
        <extensions>
          <ns3:TrackPointExtension>
            <ns3:hr>150</ns3:hr>
            <ns3:cad>0</ns3:cad>
          </ns3:TrackPointExtension>
        </extensions>
      </trkpt>
      <trkpt lat="44.6882696449756622314453125" lon="6.77987010218203067779541015625">
        <ele>2220.800048828125</ele>
        <time>2026-09-03T07:43:49.000Z</time>
        <extensions>
          <ns3:TrackPointExtension>
            <ns3:hr>150</ns3:hr>
            <ns3:cad>0</ns3:cad>
          </ns3:TrackPointExtension>
        </extensions>
      </trkpt>
      <trkpt lat="44.6882537193596363067626953125" lon="6.77986473776400089263916015625">
        <ele>2221</ele>
        <time>2026-09-03T07:43:50.000Z</time>
        <extensions>
          <ns3:TrackPointExtension>
            <ns3:hr>149</ns3:hr>
            <ns3:cad>0</ns3:cad>
          </ns3:TrackPointExtension>
        </extensions>
      </trkpt>
      <trkpt lat="44.68824022449553012847900390625" lon="6.77984864450991153717041015625">
        <ele>2221.199951171875</ele>
        <time>2026-09-03T07:43:51.000Z</time>
        <extensions>
          <ns3:TrackPointExtension>
            <ns3:hr>149</ns3:hr>
            <ns3:cad>0</ns3:cad>
          </ns3:TrackPointExtension>
        </extensions>
      </trkpt>
      <trkpt lat="44.68823452480137348175048828125" lon="6.77983774803578853607177734375">
        <ele>2221.39990234375</ele>
        <time>2026-09-03T07:43:52.000Z</time>
        <extensions>
          <ns3:TrackPointExtension>
            <ns3:hr>149</ns3:hr>
            <ns3:cad>0</ns3:cad>
          </ns3:TrackPointExtension>
        </extensions>
      </trkpt>
      <trkpt lat="44.688235111534595489501953125" lon="6.7798299528658390045166015625">
        <ele>2221.60009765625</ele>
        <time>2026-09-03T07:43:53.000Z</time>
        <extensions>
          <ns3:TrackPointExtension>
            <ns3:hr>149</ns3:hr>
            <ns3:cad>0</ns3:cad>
          </ns3:TrackPointExtension>
        </extensions>
      </trkpt>
      <trkpt lat="44.6882299147546291351318359375" lon="6.77981679327785968780517578125">
        <ele>2221.800048828125</ele>
        <time>2026-09-03T07:43:54.000Z</time>
        <extensions>
          <ns3:TrackPointExtension>
            <ns3:hr>149</ns3:hr>
            <ns3:cad>0</ns3:cad>
          </ns3:TrackPointExtension>
        </extensions>
      </trkpt>
      <trkpt lat="44.68822999857366085052490234375" lon="6.77981226705014705657958984375">
        <ele>2222</ele>
        <time>2026-09-03T07:43:55.000Z</time>
        <extensions>
          <ns3:TrackPointExtension>
            <ns3:hr>150</ns3:hr>
            <ns3:cad>0</ns3:cad>
          </ns3:TrackPointExtension>
        </extensions>
      </trkpt>
      <trkpt lat="44.68822211958467960357666015625" lon="6.7797982692718505859375">
        <ele>2222.199951171875</ele>
        <time>2026-09-03T07:43:56.000Z</time>
        <extensions>
          <ns3:TrackPointExtension>
            <ns3:hr>151</ns3:hr>
            <ns3:cad>0</ns3:cad>
          </ns3:TrackPointExtension>
        </extensions>
      </trkpt>
      <trkpt lat="44.68820937909185886383056640625" lon="6.7797907255589962005615234375">
        <ele>2222.199951171875</ele>
        <time>2026-09-03T07:43:57.000Z</time>
        <extensions>
          <ns3:TrackPointExtension>
            <ns3:hr>151</ns3:hr>
            <ns3:cad>0</ns3:cad>
          </ns3:TrackPointExtension>
        </extensions>
      </trkpt>
      <trkpt lat="44.68819948844611644744873046875" lon="6.77978594787418842315673828125">
        <ele>2222.39990234375</ele>
        <time>2026-09-03T07:43:58.000Z</time>
        <extensions>
          <ns3:TrackPointExtension>
            <ns3:hr>151</ns3:hr>
            <ns3:cad>0</ns3:cad>
          </ns3:TrackPointExtension>
        </extensions>
      </trkpt>
      <trkpt lat="44.68818792141973972320556640625" lon="6.77978829480707645416259765625">
        <ele>2222.60009765625</ele>
        <time>2026-09-03T07:43:59.000Z</time>
        <extensions>
          <ns3:TrackPointExtension>
            <ns3:hr>152</ns3:hr>
            <ns3:cad>0</ns3:cad>
          </ns3:TrackPointExtension>
        </extensions>
      </trkpt>
      <trkpt lat="44.68817618675529956817626953125" lon="6.77979667671024799346923828125">
        <ele>2222.800048828125</ele>
        <time>2026-09-03T07:44:00.000Z</time>
        <extensions>
          <ns3:TrackPointExtension>
            <ns3:hr>152</ns3:hr>
            <ns3:cad>0</ns3:cad>
          </ns3:TrackPointExtension>
        </extensions>
      </trkpt>
      <trkpt lat="44.688172750174999237060546875" lon="6.77980556152760982513427734375">
        <ele>2223</ele>
        <time>2026-09-03T07:44:01.000Z</time>
        <extensions>
          <ns3:TrackPointExtension>
            <ns3:hr>152</ns3:hr>
            <ns3:cad>0</ns3:cad>
          </ns3:TrackPointExtension>
        </extensions>
      </trkpt>
      <trkpt lat="44.6881752647459506988525390625" lon="6.7798108421266078948974609375">
        <ele>2223.199951171875</ele>
        <time>2026-09-03T07:44:02.000Z</time>
        <extensions>
          <ns3:TrackPointExtension>
            <ns3:hr>153</ns3:hr>
            <ns3:cad>0</ns3:cad>
          </ns3:TrackPointExtension>
        </extensions>
      </trkpt>
      <trkpt lat="44.68817870132625102996826171875" lon="6.77981863729655742645263671875">
        <ele>2223.39990234375</ele>
        <time>2026-09-03T07:44:03.000Z</time>
        <extensions>
          <ns3:TrackPointExtension>
            <ns3:hr>153</ns3:hr>
            <ns3:cad>0</ns3:cad>
          </ns3:TrackPointExtension>
        </extensions>
      </trkpt>
      <trkpt lat="44.68818272463977336883544921875" lon="6.7798289470374584197998046875">
        <ele>2223.60009765625</ele>
        <time>2026-09-03T07:44:04.000Z</time>
        <extensions>
          <ns3:TrackPointExtension>
            <ns3:hr>153</ns3:hr>
            <ns3:cad>0</ns3:cad>
          </ns3:TrackPointExtension>
        </extensions>
      </trkpt>
      <trkpt lat="44.68818716704845428466796875" lon="6.7798460461199283599853515625">
        <ele>2223.800048828125</ele>
        <time>2026-09-03T07:44:05.000Z</time>
        <extensions>
          <ns3:TrackPointExtension>
            <ns3:hr>154</ns3:hr>
            <ns3:cad>0</ns3:cad>
          </ns3:TrackPointExtension>
        </extensions>
      </trkpt>
      <trkpt lat="44.68818875961005687713623046875" lon="6.7798537574708461761474609375">
        <ele>2224</ele>
        <time>2026-09-03T07:44:06.000Z</time>
        <extensions>
          <ns3:TrackPointExtension>
            <ns3:hr>154</ns3:hr>
            <ns3:cad>0</ns3:cad>
          </ns3:TrackPointExtension>
        </extensions>
      </trkpt>
      <trkpt lat="44.68819119036197662353515625" lon="6.77987110801041126251220703125">
        <ele>2224.199951171875</ele>
        <time>2026-09-03T07:44:07.000Z</time>
        <extensions>
          <ns3:TrackPointExtension>
            <ns3:hr>155</ns3:hr>
            <ns3:cad>0</ns3:cad>
          </ns3:TrackPointExtension>
        </extensions>
      </trkpt>
      <trkpt lat="44.6881873346865177154541015625" lon="6.7798758856952190399169921875">
        <ele>2224.39990234375</ele>
        <time>2026-09-03T07:44:08.000Z</time>
        <extensions>
          <ns3:TrackPointExtension>
            <ns3:hr>155</ns3:hr>
            <ns3:cad>0</ns3:cad>
          </ns3:TrackPointExtension>
        </extensions>
      </trkpt>
      <trkpt lat="44.68818540684878826141357421875" lon="6.77989524789154529571533203125">
        <ele>2224.60009765625</ele>
        <time>2026-09-03T07:44:09.000Z</time>
        <extensions>
          <ns3:TrackPointExtension>
            <ns3:hr>156</ns3:hr>
            <ns3:cad>0</ns3:cad>
          </ns3:TrackPointExtension>
        </extensions>
      </trkpt>
      <trkpt lat="44.68819010071456432342529296875" lon="6.77990681491792201995849609375">
        <ele>2224.60009765625</ele>
        <time>2026-09-03T07:44:10.000Z</time>
        <extensions>
          <ns3:TrackPointExtension>
            <ns3:hr>156</ns3:hr>
            <ns3:cad>0</ns3:cad>
          </ns3:TrackPointExtension>
        </extensions>
      </trkpt>
      <trkpt lat="44.6881893463432788848876953125" lon="6.7799261771142482757568359375">
        <ele>2224.800048828125</ele>
        <time>2026-09-03T07:44:11.000Z</time>
        <extensions>
          <ns3:TrackPointExtension>
            <ns3:hr>156</ns3:hr>
            <ns3:cad>0</ns3:cad>
          </ns3:TrackPointExtension>
        </extensions>
      </trkpt>
      <trkpt lat="44.6881910227239131927490234375" lon="6.7799375765025615692138671875">
        <ele>2225</ele>
        <time>2026-09-03T07:44:12.000Z</time>
        <extensions>
          <ns3:TrackPointExtension>
            <ns3:hr>157</ns3:hr>
            <ns3:cad>0</ns3:cad>
          </ns3:TrackPointExtension>
        </extensions>
      </trkpt>
      <trkpt lat="44.68818708322942256927490234375" lon="6.779954843223094940185546875">
        <ele>2225</ele>
        <time>2026-09-03T07:44:13.000Z</time>
        <extensions>
          <ns3:TrackPointExtension>
            <ns3:hr>157</ns3:hr>
            <ns3:cad>0</ns3:cad>
          </ns3:TrackPointExtension>
        </extensions>
      </trkpt>
      <trkpt lat="44.688186161220073699951171875" lon="6.7799699306488037109375">
        <ele>2225.199951171875</ele>
        <time>2026-09-03T07:44:14.000Z</time>
        <extensions>
          <ns3:TrackPointExtension>
            <ns3:hr>157</ns3:hr>
            <ns3:cad>0</ns3:cad>
          </ns3:TrackPointExtension>
        </extensions>
      </trkpt>
      <trkpt lat="44.68817970715463161468505859375" lon="6.7799932323396205902099609375">
        <ele>2225.39990234375</ele>
        <time>2026-09-03T07:44:15.000Z</time>
        <extensions>
          <ns3:TrackPointExtension>
            <ns3:hr>157</ns3:hr>
            <ns3:cad>0</ns3:cad>
          </ns3:TrackPointExtension>
        </extensions>
      </trkpt>
      <trkpt lat="44.6881802938878536224365234375" lon="6.7800133489072322845458984375">
        <ele>2225.39990234375</ele>
        <time>2026-09-03T07:44:16.000Z</time>
        <extensions>
          <ns3:TrackPointExtension>
            <ns3:hr>157</ns3:hr>
            <ns3:cad>0</ns3:cad>
          </ns3:TrackPointExtension>
        </extensions>
      </trkpt>
      <trkpt lat="44.68818121589720249176025390625" lon="6.78003086708486080169677734375">
        <ele>2225.60009765625</ele>
        <time>2026-09-03T07:44:17.000Z</time>
        <extensions>
          <ns3:TrackPointExtension>
            <ns3:hr>158</ns3:hr>
            <ns3:cad>0</ns3:cad>
          </ns3:TrackPointExtension>
        </extensions>
      </trkpt>
      <trkpt lat="44.6881878376007080078125" lon="6.78004645742475986480712890625">
        <ele>2225.60009765625</ele>
        <time>2026-09-03T07:44:18.000Z</time>
        <extensions>
          <ns3:TrackPointExtension>
            <ns3:hr>157</ns3:hr>
            <ns3:cad>0</ns3:cad>
          </ns3:TrackPointExtension>
        </extensions>
      </trkpt>
      <trkpt lat="44.68819898553192615509033203125" lon="6.78006573580205440521240234375">
        <ele>2225.800048828125</ele>
        <time>2026-09-03T07:44:19.000Z</time>
        <extensions>
          <ns3:TrackPointExtension>
            <ns3:hr>157</ns3:hr>
            <ns3:cad>0</ns3:cad>
          </ns3:TrackPointExtension>
        </extensions>
      </trkpt>
      <trkpt lat="44.688206613063812255859375" lon="6.78007654845714569091796875">
        <ele>2225.800048828125</ele>
        <time>2026-09-03T07:44:20.000Z</time>
        <extensions>
          <ns3:TrackPointExtension>
            <ns3:hr>157</ns3:hr>
            <ns3:cad>0</ns3:cad>
          </ns3:TrackPointExtension>
        </extensions>
      </trkpt>
      <trkpt lat="44.6882181800901889801025390625" lon="6.78008954040706157684326171875">
        <ele>2226</ele>
        <time>2026-09-03T07:44:21.000Z</time>
        <extensions>
          <ns3:TrackPointExtension>
            <ns3:hr>157</ns3:hr>
            <ns3:cad>0</ns3:cad>
          </ns3:TrackPointExtension>
        </extensions>
      </trkpt>
      <trkpt lat="44.68822899274528026580810546875" lon="6.78010068833827972412109375">
        <ele>2226</ele>
        <time>2026-09-03T07:44:22.000Z</time>
        <extensions>
          <ns3:TrackPointExtension>
            <ns3:hr>157</ns3:hr>
            <ns3:cad>0</ns3:cad>
          </ns3:TrackPointExtension>
        </extensions>
      </trkpt>
      <trkpt lat="44.688233435153961181640625" lon="6.7801092378795146942138671875">
        <ele>2226.199951171875</ele>
        <time>2026-09-03T07:44:23.000Z</time>
        <extensions>
          <ns3:TrackPointExtension>
            <ns3:hr>157</ns3:hr>
            <ns3:cad>0</ns3:cad>
          </ns3:TrackPointExtension>
        </extensions>
      </trkpt>
      <trkpt lat="44.68824072740972042083740234375" lon="6.780121140182018280029296875">
        <ele>2226.39990234375</ele>
        <time>2026-09-03T07:44:24.000Z</time>
        <extensions>
          <ns3:TrackPointExtension>
            <ns3:hr>157</ns3:hr>
            <ns3:cad>0</ns3:cad>
          </ns3:TrackPointExtension>
        </extensions>
      </trkpt>
      <trkpt lat="44.68824206851422786712646484375" lon="6.7801273427903652191162109375">
        <ele>2226.39990234375</ele>
        <time>2026-09-03T07:44:25.000Z</time>
        <extensions>
          <ns3:TrackPointExtension>
            <ns3:hr>157</ns3:hr>
            <ns3:cad>0</ns3:cad>
          </ns3:TrackPointExtension>
        </extensions>
      </trkpt>
      <trkpt lat="44.6882453374564647674560546875" lon="6.78014469332993030548095703125">
        <ele>2226.60009765625</ele>
        <time>2026-09-03T07:44:26.000Z</time>
        <extensions>
          <ns3:TrackPointExtension>
            <ns3:hr>157</ns3:hr>
            <ns3:cad>0</ns3:cad>
          </ns3:TrackPointExtension>
        </extensions>
      </trkpt>
      <trkpt lat="44.6882455050945281982421875" lon="6.78015123121440410614013671875">
        <ele>2226.800048828125</ele>
        <time>2026-09-03T07:44:27.000Z</time>
        <extensions>
          <ns3:TrackPointExtension>
            <ns3:hr>157</ns3:hr>
            <ns3:cad>0</ns3:cad>
          </ns3:TrackPointExtension>
        </extensions>
      </trkpt>
      <trkpt lat="44.68824575655162334442138671875" lon="6.780172772705554962158203125">
        <ele>2227</ele>
        <time>2026-09-03T07:44:28.000Z</time>
        <extensions>
          <ns3:TrackPointExtension>
            <ns3:hr>156</ns3:hr>
            <ns3:cad>0</ns3:cad>
          </ns3:TrackPointExtension>
        </extensions>
      </trkpt>
      <trkpt lat="44.68824961222708225250244140625" lon="6.7801885306835174560546875">
        <ele>2227.199951171875</ele>
        <time>2026-09-03T07:44:29.000Z</time>
        <extensions>
          <ns3:TrackPointExtension>
            <ns3:hr>156</ns3:hr>
            <ns3:cad>0</ns3:cad>
          </ns3:TrackPointExtension>
        </extensions>
      </trkpt>
      <trkpt lat="44.688253886997699737548828125" lon="6.78020152263343334197998046875">
        <ele>2227.39990234375</ele>
        <time>2026-09-03T07:44:30.000Z</time>
        <extensions>
          <ns3:TrackPointExtension>
            <ns3:hr>156</ns3:hr>
            <ns3:cad>0</ns3:cad>
          </ns3:TrackPointExtension>
        </extensions>
      </trkpt>
      <trkpt lat="44.6882621012628078460693359375" lon="6.7802138440310955047607421875">
        <ele>2227.60009765625</ele>
        <time>2026-09-03T07:44:31.000Z</time>
        <extensions>
          <ns3:TrackPointExtension>
            <ns3:hr>156</ns3:hr>
            <ns3:cad>0</ns3:cad>
          </ns3:TrackPointExtension>
        </extensions>
      </trkpt>
      <trkpt lat="44.68826956115663051605224609375" lon="6.780215688049793243408203125">
        <ele>2227.800048828125</ele>
        <time>2026-09-03T07:44:32.000Z</time>
        <extensions>
          <ns3:TrackPointExtension>
            <ns3:hr>155</ns3:hr>
            <ns3:cad>0</ns3:cad>
          </ns3:TrackPointExtension>
        </extensions>
      </trkpt>
      <trkpt lat="44.68827903270721435546875" lon="6.780221052467823028564453125">
        <ele>2228.199951171875</ele>
        <time>2026-09-03T07:44:33.000Z</time>
        <extensions>
          <ns3:TrackPointExtension>
            <ns3:hr>155</ns3:hr>
            <ns3:cad>0</ns3:cad>
          </ns3:TrackPointExtension>
        </extensions>
      </trkpt>
      <trkpt lat="44.68828330747783184051513671875" lon="6.78022406995296478271484375">
        <ele>2228.39990234375</ele>
        <time>2026-09-03T07:44:34.000Z</time>
        <extensions>
          <ns3:TrackPointExtension>
            <ns3:hr>155</ns3:hr>
            <ns3:cad>0</ns3:cad>
          </ns3:TrackPointExtension>
        </extensions>
      </trkpt>
      <trkpt lat="44.6882872469723224639892578125" lon="6.78022683598101139068603515625">
        <ele>2228.60009765625</ele>
        <time>2026-09-03T07:44:35.000Z</time>
        <extensions>
          <ns3:TrackPointExtension>
            <ns3:hr>155</ns3:hr>
            <ns3:cad>0</ns3:cad>
          </ns3:TrackPointExtension>
        </extensions>
      </trkpt>
      <trkpt lat="44.68828883953392505645751953125" lon="6.78022935055196285247802734375">
        <ele>2228.800048828125</ele>
        <time>2026-09-03T07:44:36.000Z</time>
        <extensions>
          <ns3:TrackPointExtension>
            <ns3:hr>155</ns3:hr>
            <ns3:cad>0</ns3:cad>
          </ns3:TrackPointExtension>
        </extensions>
      </trkpt>
      <trkpt lat="44.68829470686614513397216796875" lon="6.78023387677967548370361328125">
        <ele>2229</ele>
        <time>2026-09-03T07:44:37.000Z</time>
        <extensions>
          <ns3:TrackPointExtension>
            <ns3:hr>155</ns3:hr>
            <ns3:cad>0</ns3:cad>
          </ns3:TrackPointExtension>
        </extensions>
      </trkpt>
      <trkpt lat="44.68830124475061893463134765625" lon="6.78023471496999263763427734375">
        <ele>2229.39990234375</ele>
        <time>2026-09-03T07:44:38.000Z</time>
        <extensions>
          <ns3:TrackPointExtension>
            <ns3:hr>154</ns3:hr>
            <ns3:cad>0</ns3:cad>
          </ns3:TrackPointExtension>
        </extensions>
      </trkpt>
      <trkpt lat="44.6883107163012027740478515625" lon="6.78023655898869037628173828125">
        <ele>2229.60009765625</ele>
        <time>2026-09-03T07:44:39.000Z</time>
        <extensions>
          <ns3:TrackPointExtension>
            <ns3:hr>154</ns3:hr>
            <ns3:cad>0</ns3:cad>
          </ns3:TrackPointExtension>
        </extensions>
      </trkpt>
      <trkpt lat="44.68832052312791347503662109375" lon="6.78024552762508392333984375">
        <ele>2229.60009765625</ele>
        <time>2026-09-03T07:44:40.000Z</time>
        <extensions>
          <ns3:TrackPointExtension>
            <ns3:hr>153</ns3:hr>
            <ns3:cad>0</ns3:cad>
          </ns3:TrackPointExtension>
        </extensions>
      </trkpt>
      <trkpt lat="44.68832605518400669097900390625" lon="6.780261956155300140380859375">
        <ele>2229.800048828125</ele>
        <time>2026-09-03T07:44:41.000Z</time>
        <extensions>
          <ns3:TrackPointExtension>
            <ns3:hr>153</ns3:hr>
            <ns3:cad>0</ns3:cad>
          </ns3:TrackPointExtension>
        </extensions>
      </trkpt>
      <trkpt lat="44.6883281506597995758056640625" lon="6.78027427755296230316162109375">
        <ele>2230</ele>
        <time>2026-09-03T07:44:42.000Z</time>
        <extensions>
          <ns3:TrackPointExtension>
            <ns3:hr>153</ns3:hr>
            <ns3:cad>0</ns3:cad>
          </ns3:TrackPointExtension>
        </extensions>
      </trkpt>
      <trkpt lat="44.68832940794527530670166015625" lon="6.78028400056064128875732421875">
        <ele>2230.199951171875</ele>
        <time>2026-09-03T07:44:43.000Z</time>
        <extensions>
          <ns3:TrackPointExtension>
            <ns3:hr>154</ns3:hr>
            <ns3:cad>0</ns3:cad>
          </ns3:TrackPointExtension>
        </extensions>
      </trkpt>
      <trkpt lat="44.68833334743976593017578125" lon="6.78030319511890411376953125">
        <ele>2230.199951171875</ele>
        <time>2026-09-03T07:44:44.000Z</time>
        <extensions>
          <ns3:TrackPointExtension>
            <ns3:hr>154</ns3:hr>
            <ns3:cad>0</ns3:cad>
          </ns3:TrackPointExtension>
        </extensions>
      </trkpt>
      <trkpt lat="44.688337035477161407470703125" lon="6.78030990064144134521484375">
        <ele>2230.39990234375</ele>
        <time>2026-09-03T07:44:45.000Z</time>
        <extensions>
          <ns3:TrackPointExtension>
            <ns3:hr>154</ns3:hr>
            <ns3:cad>0</ns3:cad>
          </ns3:TrackPointExtension>
        </extensions>
      </trkpt>
      <trkpt lat="44.68833913095295429229736328125" lon="6.78032406605780124664306640625">
        <ele>2230.60009765625</ele>
        <time>2026-09-03T07:44:46.000Z</time>
        <extensions>
          <ns3:TrackPointExtension>
            <ns3:hr>154</ns3:hr>
            <ns3:cad>0</ns3:cad>
          </ns3:TrackPointExtension>
        </extensions>
      </trkpt>
      <trkpt lat="44.688339717686176300048828125" lon="6.78033328615128993988037109375">
        <ele>2230.800048828125</ele>
        <time>2026-09-03T07:44:47.000Z</time>
        <extensions>
          <ns3:TrackPointExtension>
            <ns3:hr>153</ns3:hr>
            <ns3:cad>0</ns3:cad>
          </ns3:TrackPointExtension>
        </extensions>
      </trkpt>
      <trkpt lat="44.6883429028093814849853515625" lon="6.78035256452858448028564453125">
        <ele>2231</ele>
        <time>2026-09-03T07:44:48.000Z</time>
        <extensions>
          <ns3:TrackPointExtension>
            <ns3:hr>154</ns3:hr>
            <ns3:cad>0</ns3:cad>
          </ns3:TrackPointExtension>
        </extensions>
      </trkpt>
      <trkpt lat="44.688343070447444915771484375" lon="6.78036597557365894317626953125">
        <ele>2231.199951171875</ele>
        <time>2026-09-03T07:44:49.000Z</time>
        <extensions>
          <ns3:TrackPointExtension>
            <ns3:hr>154</ns3:hr>
            <ns3:cad>0</ns3:cad>
          </ns3:TrackPointExtension>
        </extensions>
      </trkpt>
      <trkpt lat="44.688337035477161407470703125" lon="6.78037670440971851348876953125">
        <ele>2231.39990234375</ele>
        <time>2026-09-03T07:44:50.000Z</time>
        <extensions>
          <ns3:TrackPointExtension>
            <ns3:hr>154</ns3:hr>
            <ns3:cad>0</ns3:cad>
          </ns3:TrackPointExtension>
        </extensions>
      </trkpt>
      <trkpt lat="44.6883315034210681915283203125" lon="6.78038743324577808380126953125">
        <ele>2231.60009765625</ele>
        <time>2026-09-03T07:44:51.000Z</time>
        <extensions>
          <ns3:TrackPointExtension>
            <ns3:hr>154</ns3:hr>
            <ns3:cad>0</ns3:cad>
          </ns3:TrackPointExtension>
        </extensions>
      </trkpt>
      <trkpt lat="44.68832194805145263671875" lon="6.78038776852190494537353515625">
        <ele>2231.60009765625</ele>
        <time>2026-09-03T07:44:52.000Z</time>
        <extensions>
          <ns3:TrackPointExtension>
            <ns3:hr>153</ns3:hr>
            <ns3:cad>0</ns3:cad>
          </ns3:TrackPointExtension>
        </extensions>
      </trkpt>
      <trkpt lat="44.6883125603199005126953125" lon="6.78039279766380786895751953125">
        <ele>2231.800048828125</ele>
        <time>2026-09-03T07:44:53.000Z</time>
        <extensions>
          <ns3:TrackPointExtension>
            <ns3:hr>154</ns3:hr>
            <ns3:cad>0</ns3:cad>
          </ns3:TrackPointExtension>
        </extensions>
      </trkpt>
      <trkpt lat="44.6883080340921878814697265625" lon="6.7803969047963619232177734375">
        <ele>2232</ele>
        <time>2026-09-03T07:44:54.000Z</time>
        <extensions>
          <ns3:TrackPointExtension>
            <ns3:hr>154</ns3:hr>
            <ns3:cad>0</ns3:cad>
          </ns3:TrackPointExtension>
        </extensions>
      </trkpt>
      <trkpt lat="44.68829671852290630340576171875" lon="6.7803990840911865234375">
        <ele>2232.199951171875</ele>
        <time>2026-09-03T07:44:55.000Z</time>
        <extensions>
          <ns3:TrackPointExtension>
            <ns3:hr>154</ns3:hr>
            <ns3:cad>0</ns3:cad>
          </ns3:TrackPointExtension>
        </extensions>
      </trkpt>
      <trkpt lat="44.68828900717198848724365234375" lon="6.7804062925279140472412109375">
        <ele>2232.60009765625</ele>
        <time>2026-09-03T07:44:56.000Z</time>
        <extensions>
          <ns3:TrackPointExtension>
            <ns3:hr>154</ns3:hr>
            <ns3:cad>0</ns3:cad>
          </ns3:TrackPointExtension>
        </extensions>
      </trkpt>
      <trkpt lat="44.688276350498199462890625" lon="6.7804099805653095245361328125">
        <ele>2232.800048828125</ele>
        <time>2026-09-03T07:44:57.000Z</time>
        <extensions>
          <ns3:TrackPointExtension>
            <ns3:hr>154</ns3:hr>
            <ns3:cad>53</ns3:cad>
          </ns3:TrackPointExtension>
        </extensions>
      </trkpt>
      <trkpt lat="44.6882684715092182159423828125" lon="6.780413500964641571044921875">
        <ele>2232.800048828125</ele>
        <time>2026-09-03T07:44:58.000Z</time>
        <extensions>
          <ns3:TrackPointExtension>
            <ns3:hr>154</ns3:hr>
            <ns3:cad>53</ns3:cad>
          </ns3:TrackPointExtension>
        </extensions>
      </trkpt>
      <trkpt lat="44.688259251415729522705078125" lon="6.78041693754494190216064453125">
        <ele>2233</ele>
        <time>2026-09-03T07:44:59.000Z</time>
        <extensions>
          <ns3:TrackPointExtension>
            <ns3:hr>154</ns3:hr>
            <ns3:cad>53</ns3:cad>
          </ns3:TrackPointExtension>
        </extensions>
      </trkpt>
      <trkpt lat="44.688252545893192291259765625" lon="6.78041978739202022552490234375">
        <ele>2233.199951171875</ele>
        <time>2026-09-03T07:45:00.000Z</time>
        <extensions>
          <ns3:TrackPointExtension>
            <ns3:hr>154</ns3:hr>
            <ns3:cad>53</ns3:cad>
          </ns3:TrackPointExtension>
        </extensions>
      </trkpt>
      <trkpt lat="44.68824290670454502105712890625" lon="6.7804218828678131103515625">
        <ele>2233.39990234375</ele>
        <time>2026-09-03T07:45:01.000Z</time>
        <extensions>
          <ns3:TrackPointExtension>
            <ns3:hr>155</ns3:hr>
            <ns3:cad>53</ns3:cad>
          </ns3:TrackPointExtension>
        </extensions>
      </trkpt>
      <trkpt lat="44.68823016621172428131103515625" lon="6.78042783401906490325927734375">
        <ele>2233.60009765625</ele>
        <time>2026-09-03T07:45:02.000Z</time>
        <extensions>
          <ns3:TrackPointExtension>
            <ns3:hr>154</ns3:hr>
            <ns3:cad>0</ns3:cad>
          </ns3:TrackPointExtension>
        </extensions>
      </trkpt>
      <trkpt lat="44.6882205270230770111083984375" lon="6.78043101914227008819580078125">
        <ele>2233.60009765625</ele>
        <time>2026-09-03T07:45:03.000Z</time>
        <extensions>
          <ns3:TrackPointExtension>
            <ns3:hr>154</ns3:hr>
            <ns3:cad>0</ns3:cad>
          </ns3:TrackPointExtension>
        </extensions>
      </trkpt>
      <trkpt lat="44.6882074512541294097900390625" lon="6.7804364673793315887451171875">
        <ele>2233.800048828125</ele>
        <time>2026-09-03T07:45:04.000Z</time>
        <extensions>
          <ns3:TrackPointExtension>
            <ns3:hr>154</ns3:hr>
            <ns3:cad>0</ns3:cad>
          </ns3:TrackPointExtension>
        </extensions>
      </trkpt>
      <trkpt lat="44.6881957165896892547607421875" lon="6.7804460227489471435546875">
        <ele>2234</ele>
        <time>2026-09-03T07:45:05.000Z</time>
        <extensions>
          <ns3:TrackPointExtension>
            <ns3:hr>155</ns3:hr>
            <ns3:cad>0</ns3:cad>
          </ns3:TrackPointExtension>
        </extensions>
      </trkpt>
      <trkpt lat="44.6881799586117267608642578125" lon="6.78045348264276981353759765625">
        <ele>2234.199951171875</ele>
        <time>2026-09-03T07:45:06.000Z</time>
        <extensions>
          <ns3:TrackPointExtension>
            <ns3:hr>154</ns3:hr>
            <ns3:cad>0</ns3:cad>
          </ns3:TrackPointExtension>
        </extensions>
      </trkpt>
      <trkpt lat="44.68816629610955715179443359375" lon="6.7804602719843387603759765625">
        <ele>2234.39990234375</ele>
        <time>2026-09-03T07:45:07.000Z</time>
        <extensions>
          <ns3:TrackPointExtension>
            <ns3:hr>154</ns3:hr>
            <ns3:cad>0</ns3:cad>
          </ns3:TrackPointExtension>
        </extensions>
      </trkpt>
      <trkpt lat="44.68815573491156101226806640625" lon="6.78046622313559055328369140625">
        <ele>2234.60009765625</ele>
        <time>2026-09-03T07:45:08.000Z</time>
        <extensions>
          <ns3:TrackPointExtension>
            <ns3:hr>155</ns3:hr>
            <ns3:cad>0</ns3:cad>
          </ns3:TrackPointExtension>
        </extensions>
      </trkpt>
      <trkpt lat="44.68814450316131114959716796875" lon="6.78047125227749347686767578125">
        <ele>2234.800048828125</ele>
        <time>2026-09-03T07:45:09.000Z</time>
        <extensions>
          <ns3:TrackPointExtension>
            <ns3:hr>154</ns3:hr>
            <ns3:cad>0</ns3:cad>
          </ns3:TrackPointExtension>
        </extensions>
      </trkpt>
      <trkpt lat="44.6881403960287570953369140625" lon="6.78048533387482166290283203125">
        <ele>2235</ele>
        <time>2026-09-03T07:45:10.000Z</time>
        <extensions>
          <ns3:TrackPointExtension>
            <ns3:hr>154</ns3:hr>
            <ns3:cad>0</ns3:cad>
          </ns3:TrackPointExtension>
        </extensions>
      </trkpt>
      <trkpt lat="44.68812874518334865570068359375" lon="6.78048969246447086334228515625">
        <ele>2235.199951171875</ele>
        <time>2026-09-03T07:45:11.000Z</time>
        <extensions>
          <ns3:TrackPointExtension>
            <ns3:hr>154</ns3:hr>
            <ns3:cad>0</ns3:cad>
          </ns3:TrackPointExtension>
        </extensions>
      </trkpt>
      <trkpt lat="44.68812279403209686279296875" lon="6.780489943921566009521484375">
        <ele>2235.199951171875</ele>
        <time>2026-09-03T07:45:12.000Z</time>
        <extensions>
          <ns3:TrackPointExtension>
            <ns3:hr>154</ns3:hr>
            <ns3:cad>0</ns3:cad>
          </ns3:TrackPointExtension>
        </extensions>
      </trkpt>
      <trkpt lat="44.68811633996665477752685546875" lon="6.7804914526641368865966796875">
        <ele>2235.199951171875</ele>
        <time>2026-09-03T07:45:13.000Z</time>
        <extensions>
          <ns3:TrackPointExtension>
            <ns3:hr>155</ns3:hr>
            <ns3:cad>0</ns3:cad>
          </ns3:TrackPointExtension>
        </extensions>
      </trkpt>
      <trkpt lat="44.68810745514929294586181640625" lon="6.78049773909151554107666015625">
        <ele>2235.39990234375</ele>
        <time>2026-09-03T07:45:14.000Z</time>
        <extensions>
          <ns3:TrackPointExtension>
            <ns3:hr>154</ns3:hr>
            <ns3:cad>0</ns3:cad>
          </ns3:TrackPointExtension>
        </extensions>
      </trkpt>
      <trkpt lat="44.68809253536164760589599609375" lon="6.78050301969051361083984375">
        <ele>2235.60009765625</ele>
        <time>2026-09-03T07:45:15.000Z</time>
        <extensions>
          <ns3:TrackPointExtension>
            <ns3:hr>154</ns3:hr>
            <ns3:cad>0</ns3:cad>
          </ns3:TrackPointExtension>
        </extensions>
      </trkpt>
      <trkpt lat="44.68808532692492008209228515625" lon="6.78051031194627285003662109375">
        <ele>2235.800048828125</ele>
        <time>2026-09-03T07:45:16.000Z</time>
        <extensions>
          <ns3:TrackPointExtension>
            <ns3:hr>154</ns3:hr>
            <ns3:cad>0</ns3:cad>
          </ns3:TrackPointExtension>
        </extensions>
      </trkpt>
      <trkpt lat="44.6880776993930339813232421875" lon="6.78051215596497058868408203125">
        <ele>2236</ele>
        <time>2026-09-03T07:45:17.000Z</time>
        <extensions>
          <ns3:TrackPointExtension>
            <ns3:hr>154</ns3:hr>
            <ns3:cad>0</ns3:cad>
          </ns3:TrackPointExtension>
        </extensions>
      </trkpt>
      <trkpt lat="44.6880673058331012725830078125" lon="6.78051936440169811248779296875">
        <ele>2236.199951171875</ele>
        <time>2026-09-03T07:45:18.000Z</time>
        <extensions>
          <ns3:TrackPointExtension>
            <ns3:hr>154</ns3:hr>
            <ns3:cad>0</ns3:cad>
          </ns3:TrackPointExtension>
        </extensions>
      </trkpt>
      <trkpt lat="44.688056744635105133056640625" lon="6.78051936440169811248779296875">
        <ele>2236.39990234375</ele>
        <time>2026-09-03T07:45:19.000Z</time>
        <extensions>
          <ns3:TrackPointExtension>
            <ns3:hr>154</ns3:hr>
            <ns3:cad>0</ns3:cad>
          </ns3:TrackPointExtension>
        </extensions>
      </trkpt>
      <trkpt lat="44.68804878182709217071533203125" lon="6.780518777668476104736328125">
        <ele>2236.60009765625</ele>
        <time>2026-09-03T07:45:20.000Z</time>
        <extensions>
          <ns3:TrackPointExtension>
            <ns3:hr>154</ns3:hr>
            <ns3:cad>0</ns3:cad>
          </ns3:TrackPointExtension>
        </extensions>
      </trkpt>
      <trkpt lat="44.6880441717803478240966796875" lon="6.78051643073558807373046875">
        <ele>2236.800048828125</ele>
        <time>2026-09-03T07:45:21.000Z</time>
        <extensions>
          <ns3:TrackPointExtension>
            <ns3:hr>154</ns3:hr>
            <ns3:cad>0</ns3:cad>
          </ns3:TrackPointExtension>
        </extensions>
      </trkpt>
      <trkpt lat="44.68803419731557369232177734375" lon="6.7805169336497783660888671875">
        <ele>2236.800048828125</ele>
        <time>2026-09-03T07:45:22.000Z</time>
        <extensions>
          <ns3:TrackPointExtension>
            <ns3:hr>154</ns3:hr>
            <ns3:cad>0</ns3:cad>
          </ns3:TrackPointExtension>
        </extensions>
      </trkpt>
      <trkpt lat="44.688030593097209930419921875" lon="6.7805157601833343505859375">
        <ele>2236.800048828125</ele>
        <time>2026-09-03T07:45:23.000Z</time>
        <extensions>
          <ns3:TrackPointExtension>
            <ns3:hr>154</ns3:hr>
            <ns3:cad>0</ns3:cad>
          </ns3:TrackPointExtension>
        </extensions>
      </trkpt>
      <trkpt lat="44.68801684677600860595703125" lon="6.78051634691655635833740234375">
        <ele>2237</ele>
        <time>2026-09-03T07:45:24.000Z</time>
        <extensions>
          <ns3:TrackPointExtension>
            <ns3:hr>154</ns3:hr>
            <ns3:cad>0</ns3:cad>
          </ns3:TrackPointExtension>
        </extensions>
      </trkpt>
      <trkpt lat="44.6880143322050571441650390625" lon="6.7805229686200618743896484375">
        <ele>2237</ele>
        <time>2026-09-03T07:45:25.000Z</time>
        <extensions>
          <ns3:TrackPointExtension>
            <ns3:hr>155</ns3:hr>
            <ns3:cad>43</ns3:cad>
          </ns3:TrackPointExtension>
        </extensions>
      </trkpt>
      <trkpt lat="44.68800670467317104339599609375" lon="6.780523471534252166748046875">
        <ele>2237.199951171875</ele>
        <time>2026-09-03T07:45:26.000Z</time>
        <extensions>
          <ns3:TrackPointExtension>
            <ns3:hr>155</ns3:hr>
            <ns3:cad>43</ns3:cad>
          </ns3:TrackPointExtension>
        </extensions>
      </trkpt>
      <trkpt lat="44.68799614347517490386962890625" lon="6.78052506409585475921630859375">
        <ele>2237.39990234375</ele>
        <time>2026-09-03T07:45:27.000Z</time>
        <extensions>
          <ns3:TrackPointExtension>
            <ns3:hr>155</ns3:hr>
            <ns3:cad>43</ns3:cad>
          </ns3:TrackPointExtension>
        </extensions>
      </trkpt>
      <trkpt lat="44.687981307506561279296875" lon="6.7805259861052036285400390625">
        <ele>2237.60009765625</ele>
        <time>2026-09-03T07:45:28.000Z</time>
        <extensions>
          <ns3:TrackPointExtension>
            <ns3:hr>155</ns3:hr>
            <ns3:cad>43</ns3:cad>
          </ns3:TrackPointExtension>
        </extensions>
      </trkpt>
      <trkpt lat="44.68797535635530948638916015625" lon="6.78052623756229877471923828125">
        <ele>2237.800048828125</ele>
        <time>2026-09-03T07:45:29.000Z</time>
        <extensions>
          <ns3:TrackPointExtension>
            <ns3:hr>154</ns3:hr>
            <ns3:cad>43</ns3:cad>
          </ns3:TrackPointExtension>
        </extensions>
      </trkpt>
      <trkpt lat="44.68796714209020137786865234375" lon="6.780523471534252166748046875">
        <ele>2238</ele>
        <time>2026-09-03T07:45:30.000Z</time>
        <extensions>
          <ns3:TrackPointExtension>
            <ns3:hr>155</ns3:hr>
            <ns3:cad>0</ns3:cad>
          </ns3:TrackPointExtension>
        </extensions>
      </trkpt>
      <trkpt lat="44.687958844006061553955078125" lon="6.78051852621138095855712890625">
        <ele>2238.199951171875</ele>
        <time>2026-09-03T07:45:31.000Z</time>
        <extensions>
          <ns3:TrackPointExtension>
            <ns3:hr>155</ns3:hr>
            <ns3:cad>0</ns3:cad>
          </ns3:TrackPointExtension>
        </extensions>
      </trkpt>
      <trkpt lat="44.68795322813093662261962890625" lon="6.78051508963108062744140625">
        <ele>2238.39990234375</ele>
        <time>2026-09-03T07:45:32.000Z</time>
        <extensions>
          <ns3:TrackPointExtension>
            <ns3:hr>155</ns3:hr>
            <ns3:cad>0</ns3:cad>
          </ns3:TrackPointExtension>
        </extensions>
      </trkpt>
      <trkpt lat="44.6879409067332744598388671875" lon="6.780507378280162811279296875">
        <ele>2238.60009765625</ele>
        <time>2026-09-03T07:45:33.000Z</time>
        <extensions>
          <ns3:TrackPointExtension>
            <ns3:hr>154</ns3:hr>
            <ns3:cad>0</ns3:cad>
          </ns3:TrackPointExtension>
        </extensions>
      </trkpt>
      <trkpt lat="44.68793378211557865142822265625" lon="6.7805023491382598876953125">
        <ele>2238.800048828125</ele>
        <time>2026-09-03T07:45:34.000Z</time>
        <extensions>
          <ns3:TrackPointExtension>
            <ns3:hr>154</ns3:hr>
            <ns3:cad>0</ns3:cad>
          </ns3:TrackPointExtension>
        </extensions>
      </trkpt>
      <trkpt lat="44.68792431056499481201171875" lon="6.7804974876344203948974609375">
        <ele>2239</ele>
        <time>2026-09-03T07:45:35.000Z</time>
        <extensions>
          <ns3:TrackPointExtension>
            <ns3:hr>154</ns3:hr>
            <ns3:cad>0</ns3:cad>
          </ns3:TrackPointExtension>
        </extensions>
      </trkpt>
      <trkpt lat="44.6879155933856964111328125" lon="6.78049656562507152557373046875">
        <ele>2239.199951171875</ele>
        <time>2026-09-03T07:45:36.000Z</time>
        <extensions>
          <ns3:TrackPointExtension>
            <ns3:hr>155</ns3:hr>
            <ns3:cad>0</ns3:cad>
          </ns3:TrackPointExtension>
        </extensions>
      </trkpt>
      <trkpt lat="44.68790763057768344879150390625" lon="6.78049153648316860198974609375">
        <ele>2239.39990234375</ele>
        <time>2026-09-03T07:45:37.000Z</time>
        <extensions>
          <ns3:TrackPointExtension>
            <ns3:hr>155</ns3:hr>
            <ns3:cad>0</ns3:cad>
          </ns3:TrackPointExtension>
        </extensions>
      </trkpt>
      <trkpt lat="44.6878953091800212860107421875" lon="6.78048801608383655548095703125">
        <ele>2239.60009765625</ele>
        <time>2026-09-03T07:45:38.000Z</time>
        <extensions>
          <ns3:TrackPointExtension>
            <ns3:hr>155</ns3:hr>
            <ns3:cad>0</ns3:cad>
          </ns3:TrackPointExtension>
        </extensions>
      </trkpt>
      <trkpt lat="44.68788483180105686187744140625" lon="6.7804782092571258544921875">
        <ele>2239.800048828125</ele>
        <time>2026-09-03T07:45:39.000Z</time>
        <extensions>
          <ns3:TrackPointExtension>
            <ns3:hr>156</ns3:hr>
            <ns3:cad>0</ns3:cad>
          </ns3:TrackPointExtension>
        </extensions>
      </trkpt>
      <trkpt lat="44.6878772042691707611083984375" lon="6.78047460503876209259033203125">
        <ele>2240</ele>
        <time>2026-09-03T07:45:40.000Z</time>
        <extensions>
          <ns3:TrackPointExtension>
            <ns3:hr>156</ns3:hr>
            <ns3:cad>0</ns3:cad>
          </ns3:TrackPointExtension>
        </extensions>
      </trkpt>
      <trkpt lat="44.68786857090890407562255859375" lon="6.78046857006847858428955078125">
        <ele>2240.199951171875</ele>
        <time>2026-09-03T07:45:41.000Z</time>
        <extensions>
          <ns3:TrackPointExtension>
            <ns3:hr>156</ns3:hr>
            <ns3:cad>0</ns3:cad>
          </ns3:TrackPointExtension>
        </extensions>
      </trkpt>
      <trkpt lat="44.68785884790122509002685546875" lon="6.7804619483649730682373046875">
        <ele>2240.39990234375</ele>
        <time>2026-09-03T07:45:42.000Z</time>
        <extensions>
          <ns3:TrackPointExtension>
            <ns3:hr>157</ns3:hr>
            <ns3:cad>0</ns3:cad>
          </ns3:TrackPointExtension>
        </extensions>
      </trkpt>
      <trkpt lat="44.68785348348319530487060546875" lon="6.78046337328851222991943359375">
        <ele>2240.60009765625</ele>
        <time>2026-09-03T07:45:43.000Z</time>
        <extensions>
          <ns3:TrackPointExtension>
            <ns3:hr>157</ns3:hr>
            <ns3:cad>0</ns3:cad>
          </ns3:TrackPointExtension>
        </extensions>
      </trkpt>
      <trkpt lat="44.687841497361660003662109375" lon="6.7804594337940216064453125">
        <ele>2240.800048828125</ele>
        <time>2026-09-03T07:45:44.000Z</time>
        <extensions>
          <ns3:TrackPointExtension>
            <ns3:hr>157</ns3:hr>
            <ns3:cad>0</ns3:cad>
          </ns3:TrackPointExtension>
        </extensions>
      </trkpt>
      <trkpt lat="44.68783386982977390289306640625" lon="6.78046538494527339935302734375">
        <ele>2241</ele>
        <time>2026-09-03T07:45:45.000Z</time>
        <extensions>
          <ns3:TrackPointExtension>
            <ns3:hr>157</ns3:hr>
            <ns3:cad>0</ns3:cad>
          </ns3:TrackPointExtension>
        </extensions>
      </trkpt>
      <trkpt lat="44.68782104551792144775390625" lon="6.78046421147882938385009765625">
        <ele>2241.199951171875</ele>
        <time>2026-09-03T07:45:46.000Z</time>
        <extensions>
          <ns3:TrackPointExtension>
            <ns3:hr>158</ns3:hr>
            <ns3:cad>0</ns3:cad>
          </ns3:TrackPointExtension>
        </extensions>
      </trkpt>
      <trkpt lat="44.68781190924346446990966796875" lon="6.7804653011262416839599609375">
        <ele>2241.199951171875</ele>
        <time>2026-09-03T07:45:47.000Z</time>
        <extensions>
          <ns3:TrackPointExtension>
            <ns3:hr>159</ns3:hr>
            <ns3:cad>0</ns3:cad>
          </ns3:TrackPointExtension>
        </extensions>
      </trkpt>
      <trkpt lat="44.6877987496554851531982421875" lon="6.7804639600217342376708984375">
        <ele>2241.39990234375</ele>
        <time>2026-09-03T07:45:48.000Z</time>
        <extensions>
          <ns3:TrackPointExtension>
            <ns3:hr>159</ns3:hr>
            <ns3:cad>0</ns3:cad>
          </ns3:TrackPointExtension>
        </extensions>
      </trkpt>
      <trkpt lat="44.6877866797149181365966796875" lon="6.7804632894694805145263671875">
        <ele>2241.60009765625</ele>
        <time>2026-09-03T07:45:49.000Z</time>
        <extensions>
          <ns3:TrackPointExtension>
            <ns3:hr>160</ns3:hr>
            <ns3:cad>0</ns3:cad>
          </ns3:TrackPointExtension>
        </extensions>
      </trkpt>
      <trkpt lat="44.68777670525014400482177734375" lon="6.7804599367082118988037109375">
        <ele>2241.800048828125</ele>
        <time>2026-09-03T07:45:50.000Z</time>
        <extensions>
          <ns3:TrackPointExtension>
            <ns3:hr>160</ns3:hr>
            <ns3:cad>0</ns3:cad>
          </ns3:TrackPointExtension>
        </extensions>
      </trkpt>
      <trkpt lat="44.68776614405214786529541015625" lon="6.78046722896397113800048828125">
        <ele>2242</ele>
        <time>2026-09-03T07:45:51.000Z</time>
        <extensions>
          <ns3:TrackPointExtension>
            <ns3:hr>160</ns3:hr>
            <ns3:cad>0</ns3:cad>
          </ns3:TrackPointExtension>
        </extensions>
      </trkpt>
      <trkpt lat="44.6877565048635005950927734375" lon="6.78047225810587406158447265625">
        <ele>2242</ele>
        <time>2026-09-03T07:45:52.000Z</time>
        <extensions>
          <ns3:TrackPointExtension>
            <ns3:hr>160</ns3:hr>
            <ns3:cad>0</ns3:cad>
          </ns3:TrackPointExtension>
        </extensions>
      </trkpt>
      <trkpt lat="44.68773965723812580108642578125" lon="6.7804763652384281158447265625">
        <ele>2242.199951171875</ele>
        <time>2026-09-03T07:45:53.000Z</time>
        <extensions>
          <ns3:TrackPointExtension>
            <ns3:hr>159</ns3:hr>
            <ns3:cad>0</ns3:cad>
          </ns3:TrackPointExtension>
        </extensions>
      </trkpt>
      <trkpt lat="44.68772339634597301483154296875" lon="6.78048466332256793975830078125">
        <ele>2242.39990234375</ele>
        <time>2026-09-03T07:45:54.000Z</time>
        <extensions>
          <ns3:TrackPointExtension>
            <ns3:hr>160</ns3:hr>
            <ns3:cad>0</ns3:cad>
          </ns3:TrackPointExtension>
        </extensions>
      </trkpt>
      <trkpt lat="44.6877109073102474212646484375" lon="6.7804830707609653472900390625">
        <ele>2242.60009765625</ele>
        <time>2026-09-03T07:45:55.000Z</time>
        <extensions>
          <ns3:TrackPointExtension>
            <ns3:hr>160</ns3:hr>
            <ns3:cad>0</ns3:cad>
          </ns3:TrackPointExtension>
        </extensions>
      </trkpt>
      <trkpt lat="44.68770042993128299713134765625" lon="6.7804847471415996551513671875">
        <ele>2242.800048828125</ele>
        <time>2026-09-03T07:45:56.000Z</time>
        <extensions>
          <ns3:TrackPointExtension>
            <ns3:hr>160</ns3:hr>
            <ns3:cad>0</ns3:cad>
          </ns3:TrackPointExtension>
        </extensions>
      </trkpt>
      <trkpt lat="44.68769238330423831939697265625" lon="6.780490614473819732666015625">
        <ele>2243</ele>
        <time>2026-09-03T07:45:57.000Z</time>
        <extensions>
          <ns3:TrackPointExtension>
            <ns3:hr>161</ns3:hr>
            <ns3:cad>0</ns3:cad>
          </ns3:TrackPointExtension>
        </extensions>
      </trkpt>
      <trkpt lat="44.68767880462110042572021484375" lon="6.78049371577799320220947265625">
        <ele>2243.199951171875</ele>
        <time>2026-09-03T07:45:58.000Z</time>
        <extensions>
          <ns3:TrackPointExtension>
            <ns3:hr>160</ns3:hr>
            <ns3:cad>0</ns3:cad>
          </ns3:TrackPointExtension>
        </extensions>
      </trkpt>
      <trkpt lat="44.687667824327945709228515625" lon="6.78049522452056407928466796875">
        <ele>2243.199951171875</ele>
        <time>2026-09-03T07:45:59.000Z</time>
        <extensions>
          <ns3:TrackPointExtension>
            <ns3:hr>160</ns3:hr>
            <ns3:cad>0</ns3:cad>
          </ns3:TrackPointExtension>
        </extensions>
      </trkpt>
      <trkpt lat="44.68766354955732822418212890625" lon="6.780500672757625579833984375">
        <ele>2243.39990234375</ele>
        <time>2026-09-03T07:46:00.000Z</time>
        <extensions>
          <ns3:TrackPointExtension>
            <ns3:hr>160</ns3:hr>
            <ns3:cad>54</ns3:cad>
          </ns3:TrackPointExtension>
        </extensions>
      </trkpt>
      <trkpt lat="44.6876545809209346771240234375" lon="6.78050260059535503387451171875">
        <ele>2243.39990234375</ele>
        <time>2026-09-03T07:46:01.000Z</time>
        <extensions>
          <ns3:TrackPointExtension>
            <ns3:hr>160</ns3:hr>
            <ns3:cad>54</ns3:cad>
          </ns3:TrackPointExtension>
        </extensions>
      </trkpt>
      <trkpt lat="44.6876488812267780303955078125" lon="6.780503690242767333984375">
        <ele>2243.39990234375</ele>
        <time>2026-09-03T07:46:02.000Z</time>
        <extensions>
          <ns3:TrackPointExtension>
            <ns3:hr>160</ns3:hr>
            <ns3:cad>54</ns3:cad>
          </ns3:TrackPointExtension>
        </extensions>
      </trkpt>
      <trkpt lat="44.687638990581035614013671875" lon="6.78050762973725795745849609375">
        <ele>2243.39990234375</ele>
        <time>2026-09-03T07:46:03.000Z</time>
        <extensions>
          <ns3:TrackPointExtension>
            <ns3:hr>160</ns3:hr>
            <ns3:cad>0</ns3:cad>
          </ns3:TrackPointExtension>
        </extensions>
      </trkpt>
      <trkpt lat="44.68763421289622783660888671875" lon="6.78051215596497058868408203125">
        <ele>2243.60009765625</ele>
        <time>2026-09-03T07:46:04.000Z</time>
        <extensions>
          <ns3:TrackPointExtension>
            <ns3:hr>159</ns3:hr>
            <ns3:cad>0</ns3:cad>
          </ns3:TrackPointExtension>
        </extensions>
      </trkpt>
      <trkpt lat="44.68762482516467571258544921875" lon="6.78051752038300037384033203125">
        <ele>2243.800048828125</ele>
        <time>2026-09-03T07:46:05.000Z</time>
        <extensions>
          <ns3:TrackPointExtension>
            <ns3:hr>159</ns3:hr>
            <ns3:cad>0</ns3:cad>
          </ns3:TrackPointExtension>
        </extensions>
      </trkpt>
      <trkpt lat="44.68761627562344074249267578125" lon="6.7805229686200618743896484375">
        <ele>2243.800048828125</ele>
        <time>2026-09-03T07:46:06.000Z</time>
        <extensions>
          <ns3:TrackPointExtension>
            <ns3:hr>159</ns3:hr>
            <ns3:cad>0</ns3:cad>
          </ns3:TrackPointExtension>
        </extensions>
      </trkpt>
      <trkpt lat="44.68760236166417598724365234375" lon="6.7805293388664722442626953125">
        <ele>2244</ele>
        <time>2026-09-03T07:46:07.000Z</time>
        <extensions>
          <ns3:TrackPointExtension>
            <ns3:hr>159</ns3:hr>
            <ns3:cad>0</ns3:cad>
          </ns3:TrackPointExtension>
        </extensions>
      </trkpt>
      <trkpt lat="44.6875905431807041168212890625" lon="6.78053813986480236053466796875">
        <ele>2244.199951171875</ele>
        <time>2026-09-03T07:46:08.000Z</time>
        <extensions>
          <ns3:TrackPointExtension>
            <ns3:hr>158</ns3:hr>
            <ns3:cad>0</ns3:cad>
          </ns3:TrackPointExtension>
        </extensions>
      </trkpt>
      <trkpt lat="44.6875767968595027923583984375" lon="6.780545599758625030517578125">
        <ele>2244.199951171875</ele>
        <time>2026-09-03T07:46:09.000Z</time>
        <extensions>
          <ns3:TrackPointExtension>
            <ns3:hr>158</ns3:hr>
            <ns3:cad>0</ns3:cad>
          </ns3:TrackPointExtension>
        </extensions>
      </trkpt>
      <trkpt lat="44.687565900385379791259765625" lon="6.7805531434714794158935546875">
        <ele>2244.39990234375</ele>
        <time>2026-09-03T07:46:10.000Z</time>
        <extensions>
          <ns3:TrackPointExtension>
            <ns3:hr>158</ns3:hr>
            <ns3:cad>0</ns3:cad>
          </ns3:TrackPointExtension>
        </extensions>
      </trkpt>
      <trkpt lat="44.68755072914063930511474609375" lon="6.7805511318147182464599609375">
        <ele>2244.60009765625</ele>
        <time>2026-09-03T07:46:11.000Z</time>
        <extensions>
          <ns3:TrackPointExtension>
            <ns3:hr>158</ns3:hr>
            <ns3:cad>0</ns3:cad>
          </ns3:TrackPointExtension>
        </extensions>
      </trkpt>
      <trkpt lat="44.687541089951992034912109375" lon="6.7805615253746509552001953125">
        <ele>2244.800048828125</ele>
        <time>2026-09-03T07:46:12.000Z</time>
        <extensions>
          <ns3:TrackPointExtension>
            <ns3:hr>158</ns3:hr>
            <ns3:cad>0</ns3:cad>
          </ns3:TrackPointExtension>
        </extensions>
      </trkpt>
      <trkpt lat="44.68753111548721790313720703125" lon="6.780565045773983001708984375">
        <ele>2245</ele>
        <time>2026-09-03T07:46:13.000Z</time>
        <extensions>
          <ns3:TrackPointExtension>
            <ns3:hr>158</ns3:hr>
            <ns3:cad>0</ns3:cad>
          </ns3:TrackPointExtension>
        </extensions>
      </trkpt>
      <trkpt lat="44.68752239830791950225830078125" lon="6.7805692367255687713623046875">
        <ele>2245.199951171875</ele>
        <time>2026-09-03T07:46:14.000Z</time>
        <extensions>
          <ns3:TrackPointExtension>
            <ns3:hr>158</ns3:hr>
            <ns3:cad>0</ns3:cad>
          </ns3:TrackPointExtension>
        </extensions>
      </trkpt>
      <trkpt lat="44.68751728534698486328125" lon="6.78056898526847362518310546875">
        <ele>2245.39990234375</ele>
        <time>2026-09-03T07:46:15.000Z</time>
        <extensions>
          <ns3:TrackPointExtension>
            <ns3:hr>158</ns3:hr>
            <ns3:cad>0</ns3:cad>
          </ns3:TrackPointExtension>
        </extensions>
      </trkpt>
      <trkpt lat="44.687507562339305877685546875" lon="6.780579127371311187744140625">
        <ele>2245.39990234375</ele>
        <time>2026-09-03T07:46:16.000Z</time>
        <extensions>
          <ns3:TrackPointExtension>
            <ns3:hr>158</ns3:hr>
            <ns3:cad>0</ns3:cad>
          </ns3:TrackPointExtension>
        </extensions>
      </trkpt>
      <trkpt lat="44.68750429339706897735595703125" lon="6.780585832893848419189453125">
        <ele>2245.60009765625</ele>
        <time>2026-09-03T07:46:17.000Z</time>
        <extensions>
          <ns3:TrackPointExtension>
            <ns3:hr>158</ns3:hr>
            <ns3:cad>0</ns3:cad>
          </ns3:TrackPointExtension>
        </extensions>
      </trkpt>
      <trkpt lat="44.6874970011413097381591796875" lon="6.78058826364576816558837890625">
        <ele>2245.60009765625</ele>
        <time>2026-09-03T07:46:18.000Z</time>
        <extensions>
          <ns3:TrackPointExtension>
            <ns3:hr>158</ns3:hr>
            <ns3:cad>0</ns3:cad>
          </ns3:TrackPointExtension>
        </extensions>
      </trkpt>
      <trkpt lat="44.68749138526618480682373046875" lon="6.78059949539601802825927734375">
        <ele>2245.800048828125</ele>
        <time>2026-09-03T07:46:19.000Z</time>
        <extensions>
          <ns3:TrackPointExtension>
            <ns3:hr>158</ns3:hr>
            <ns3:cad>0</ns3:cad>
          </ns3:TrackPointExtension>
        </extensions>
      </trkpt>
      <trkpt lat="44.68748115934431552886962890625" lon="6.78061223588883876800537109375">
        <ele>2246</ele>
        <time>2026-09-03T07:46:20.000Z</time>
        <extensions>
          <ns3:TrackPointExtension>
            <ns3:hr>158</ns3:hr>
            <ns3:cad>0</ns3:cad>
          </ns3:TrackPointExtension>
        </extensions>
      </trkpt>
      <trkpt lat="44.68747395090758800506591796875" lon="6.78061609156429767608642578125">
        <ele>2246.199951171875</ele>
        <time>2026-09-03T07:46:21.000Z</time>
        <extensions>
          <ns3:TrackPointExtension>
            <ns3:hr>159</ns3:hr>
            <ns3:cad>0</ns3:cad>
          </ns3:TrackPointExtension>
        </extensions>
      </trkpt>
      <trkpt lat="44.68746925704181194305419921875" lon="6.7806248925626277923583984375">
        <ele>2246.39990234375</ele>
        <time>2026-09-03T07:46:22.000Z</time>
        <extensions>
          <ns3:TrackPointExtension>
            <ns3:hr>159</ns3:hr>
            <ns3:cad>0</ns3:cad>
          </ns3:TrackPointExtension>
        </extensions>
      </trkpt>
      <trkpt lat="44.68746238388121128082275390625" lon="6.7806346155703067779541015625">
        <ele>2246.39990234375</ele>
        <time>2026-09-03T07:46:23.000Z</time>
        <extensions>
          <ns3:TrackPointExtension>
            <ns3:hr>160</ns3:hr>
            <ns3:cad>0</ns3:cad>
          </ns3:TrackPointExtension>
        </extensions>
      </trkpt>
      <trkpt lat="44.68745869584381580352783203125" lon="6.7806342802941799163818359375">
        <ele>2246.60009765625</ele>
        <time>2026-09-03T07:46:24.000Z</time>
        <extensions>
          <ns3:TrackPointExtension>
            <ns3:hr>160</ns3:hr>
            <ns3:cad>0</ns3:cad>
          </ns3:TrackPointExtension>
        </extensions>
      </trkpt>
      <trkpt lat="44.68745148740708827972412109375" lon="6.78063939325511455535888671875">
        <ele>2246.800048828125</ele>
        <time>2026-09-03T07:46:25.000Z</time>
        <extensions>
          <ns3:TrackPointExtension>
            <ns3:hr>160</ns3:hr>
            <ns3:cad>0</ns3:cad>
          </ns3:TrackPointExtension>
        </extensions>
      </trkpt>
      <trkpt lat="44.6874493919312953948974609375" lon="6.78063989616930484771728515625">
        <ele>2246.800048828125</ele>
        <time>2026-09-03T07:46:26.000Z</time>
        <extensions>
          <ns3:TrackPointExtension>
            <ns3:hr>160</ns3:hr>
            <ns3:cad>0</ns3:cad>
          </ns3:TrackPointExtension>
        </extensions>
      </trkpt>
      <trkpt lat="44.687441848218441009521484375" lon="6.78064811043441295623779296875">
        <ele>2247</ele>
        <time>2026-09-03T07:46:27.000Z</time>
        <extensions>
          <ns3:TrackPointExtension>
            <ns3:hr>159</ns3:hr>
            <ns3:cad>0</ns3:cad>
          </ns3:TrackPointExtension>
        </extensions>
      </trkpt>
      <trkpt lat="44.6874403394758701324462890625" lon="6.780650205910205841064453125">
        <ele>2247.199951171875</ele>
        <time>2026-09-03T07:46:28.000Z</time>
        <extensions>
          <ns3:TrackPointExtension>
            <ns3:hr>159</ns3:hr>
            <ns3:cad>0</ns3:cad>
          </ns3:TrackPointExtension>
        </extensions>
      </trkpt>
      <trkpt lat="44.68742919154465198516845703125" lon="6.78066403605043888092041015625">
        <ele>2247.60009765625</ele>
        <time>2026-09-03T07:46:29.000Z</time>
        <extensions>
          <ns3:TrackPointExtension>
            <ns3:hr>159</ns3:hr>
            <ns3:cad>0</ns3:cad>
          </ns3:TrackPointExtension>
        </extensions>
      </trkpt>
      <trkpt lat="44.6874239109456539154052734375" lon="6.78067392669618129730224609375">
        <ele>2247.800048828125</ele>
        <time>2026-09-03T07:46:30.000Z</time>
        <extensions>
          <ns3:TrackPointExtension>
            <ns3:hr>159</ns3:hr>
            <ns3:cad>0</ns3:cad>
          </ns3:TrackPointExtension>
        </extensions>
      </trkpt>
      <trkpt lat="44.6874121762812137603759765625" lon="6.78069488145411014556884765625">
        <ele>2248</ele>
        <time>2026-09-03T07:46:31.000Z</time>
        <extensions>
          <ns3:TrackPointExtension>
            <ns3:hr>158</ns3:hr>
            <ns3:cad>0</ns3:cad>
          </ns3:TrackPointExtension>
        </extensions>
      </trkpt>
      <trkpt lat="44.6874051354825496673583984375" lon="6.78071089088916778564453125">
        <ele>2248</ele>
        <time>2026-09-03T07:46:32.000Z</time>
        <extensions>
          <ns3:TrackPointExtension>
            <ns3:hr>158</ns3:hr>
            <ns3:cad>0</ns3:cad>
          </ns3:TrackPointExtension>
        </extensions>
      </trkpt>
      <trkpt lat="44.68739516101777553558349609375" lon="6.7807222902774810791015625">
        <ele>2248.199951171875</ele>
        <time>2026-09-03T07:46:33.000Z</time>
        <extensions>
          <ns3:TrackPointExtension>
            <ns3:hr>158</ns3:hr>
            <ns3:cad>0</ns3:cad>
          </ns3:TrackPointExtension>
        </extensions>
      </trkpt>
      <trkpt lat="44.68738644383847713470458984375" lon="6.78073209710419178009033203125">
        <ele>2248.39990234375</ele>
        <time>2026-09-03T07:46:34.000Z</time>
        <extensions>
          <ns3:TrackPointExtension>
            <ns3:hr>158</ns3:hr>
            <ns3:cad>0</ns3:cad>
          </ns3:TrackPointExtension>
        </extensions>
      </trkpt>
      <trkpt lat="44.68738158233463764190673828125" lon="6.78073645569384098052978515625">
        <ele>2248.60009765625</ele>
        <time>2026-09-03T07:46:35.000Z</time>
        <extensions>
          <ns3:TrackPointExtension>
            <ns3:hr>159</ns3:hr>
            <ns3:cad>0</ns3:cad>
          </ns3:TrackPointExtension>
        </extensions>
      </trkpt>
      <trkpt lat="44.68737353570759296417236328125" lon="6.7807509563863277435302734375">
        <ele>2248.800048828125</ele>
        <time>2026-09-03T07:46:36.000Z</time>
        <extensions>
          <ns3:TrackPointExtension>
            <ns3:hr>159</ns3:hr>
            <ns3:cad>0</ns3:cad>
          </ns3:TrackPointExtension>
        </extensions>
      </trkpt>
      <trkpt lat="44.68736850656569004058837890625" lon="6.78075782954692840576171875">
        <ele>2248.800048828125</ele>
        <time>2026-09-03T07:46:37.000Z</time>
        <extensions>
          <ns3:TrackPointExtension>
            <ns3:hr>159</ns3:hr>
            <ns3:cad>0</ns3:cad>
          </ns3:TrackPointExtension>
        </extensions>
      </trkpt>
      <trkpt lat="44.68736096285283565521240234375" lon="6.780769564211368560791015625">
        <ele>2249</ele>
        <time>2026-09-03T07:46:38.000Z</time>
        <extensions>
          <ns3:TrackPointExtension>
            <ns3:hr>159</ns3:hr>
            <ns3:cad>0</ns3:cad>
          </ns3:TrackPointExtension>
        </extensions>
      </trkpt>
      <trkpt lat="44.68735476024448871612548828125" lon="6.78077953867614269256591796875">
        <ele>2249</ele>
        <time>2026-09-03T07:46:39.000Z</time>
        <extensions>
          <ns3:TrackPointExtension>
            <ns3:hr>160</ns3:hr>
            <ns3:cad>0</ns3:cad>
          </ns3:TrackPointExtension>
        </extensions>
      </trkpt>
      <trkpt lat="44.6873454563319683074951171875" lon="6.7807935364544391632080078125">
        <ele>2249.199951171875</ele>
        <time>2026-09-03T07:46:40.000Z</time>
        <extensions>
          <ns3:TrackPointExtension>
            <ns3:hr>160</ns3:hr>
            <ns3:cad>0</ns3:cad>
          </ns3:TrackPointExtension>
        </extensions>
      </trkpt>
      <trkpt lat="44.68734101392328739166259765625" lon="6.7808032594621181488037109375">
        <ele>2249.199951171875</ele>
        <time>2026-09-03T07:46:41.000Z</time>
        <extensions>
          <ns3:TrackPointExtension>
            <ns3:hr>160</ns3:hr>
            <ns3:cad>0</ns3:cad>
          </ns3:TrackPointExtension>
        </extensions>
      </trkpt>
      <trkpt lat="44.68733833171427249908447265625" lon="6.78081910125911235809326171875">
        <ele>2249.199951171875</ele>
        <time>2026-09-03T07:46:42.000Z</time>
        <extensions>
          <ns3:TrackPointExtension>
            <ns3:hr>160</ns3:hr>
            <ns3:cad>0</ns3:cad>
          </ns3:TrackPointExtension>
        </extensions>
      </trkpt>
      <trkpt lat="44.68733682297170162200927734375" lon="6.78082647733390331268310546875">
        <ele>2249.39990234375</ele>
        <time>2026-09-03T07:46:43.000Z</time>
        <extensions>
          <ns3:TrackPointExtension>
            <ns3:hr>160</ns3:hr>
            <ns3:cad>0</ns3:cad>
          </ns3:TrackPointExtension>
        </extensions>
      </trkpt>
      <trkpt lat="44.68733690679073333740234375" lon="6.7808327637612819671630859375">
        <ele>2249.60009765625</ele>
        <time>2026-09-03T07:46:44.000Z</time>
        <extensions>
          <ns3:TrackPointExtension>
            <ns3:hr>160</ns3:hr>
            <ns3:cad>0</ns3:cad>
          </ns3:TrackPointExtension>
        </extensions>
      </trkpt>
      <trkpt lat="44.687335230410099029541015625" lon="6.7808374576270580291748046875">
        <ele>2249.60009765625</ele>
        <time>2026-09-03T07:46:45.000Z</time>
        <extensions>
          <ns3:TrackPointExtension>
            <ns3:hr>160</ns3:hr>
            <ns3:cad>0</ns3:cad>
          </ns3:TrackPointExtension>
        </extensions>
      </trkpt>
      <trkpt lat="44.68733531422913074493408203125" lon="6.78083754144608974456787109375">
        <ele>2249.800048828125</ele>
        <time>2026-09-03T07:46:46.000Z</time>
        <extensions>
          <ns3:TrackPointExtension>
            <ns3:hr>160</ns3:hr>
            <ns3:cad>0</ns3:cad>
          </ns3:TrackPointExtension>
        </extensions>
      </trkpt>
      <trkpt lat="44.68733531422913074493408203125" lon="6.78083754144608974456787109375">
        <ele>2249.800048828125</ele>
        <time>2026-09-03T07:46:47.000Z</time>
        <extensions>
          <ns3:TrackPointExtension>
            <ns3:hr>161</ns3:hr>
            <ns3:cad>0</ns3:cad>
          </ns3:TrackPointExtension>
        </extensions>
      </trkpt>
      <trkpt lat="44.68733531422913074493408203125" lon="6.78083754144608974456787109375">
        <ele>2249.800048828125</ele>
        <time>2026-09-03T07:46:48.000Z</time>
        <extensions>
          <ns3:TrackPointExtension>
            <ns3:hr>160</ns3:hr>
            <ns3:cad>0</ns3:cad>
          </ns3:TrackPointExtension>
        </extensions>
      </trkpt>
      <trkpt lat="44.68733531422913074493408203125" lon="6.78083754144608974456787109375">
        <ele>2249.800048828125</ele>
        <time>2026-09-03T07:46:49.000Z</time>
        <extensions>
          <ns3:TrackPointExtension>
            <ns3:hr>160</ns3:hr>
            <ns3:cad>0</ns3:cad>
          </ns3:TrackPointExtension>
        </extensions>
      </trkpt>
      <trkpt lat="44.68733531422913074493408203125" lon="6.78083754144608974456787109375">
        <ele>2249.800048828125</ele>
        <time>2026-09-03T07:46:50.000Z</time>
        <extensions>
          <ns3:TrackPointExtension>
            <ns3:hr>160</ns3:hr>
            <ns3:cad>0</ns3:cad>
          </ns3:TrackPointExtension>
        </extensions>
      </trkpt>
      <trkpt lat="44.68733531422913074493408203125" lon="6.78083754144608974456787109375">
        <ele>2249.800048828125</ele>
        <time>2026-09-03T07:46:51.000Z</time>
        <extensions>
          <ns3:TrackPointExtension>
            <ns3:hr>160</ns3:hr>
            <ns3:cad>0</ns3:cad>
          </ns3:TrackPointExtension>
        </extensions>
      </trkpt>
      <trkpt lat="44.68733531422913074493408203125" lon="6.78083829581737518310546875">
        <ele>2249.60009765625</ele>
        <time>2026-09-03T07:46:52.000Z</time>
        <extensions>
          <ns3:TrackPointExtension>
            <ns3:hr>160</ns3:hr>
            <ns3:cad>0</ns3:cad>
          </ns3:TrackPointExtension>
        </extensions>
      </trkpt>
      <trkpt lat="44.68732751905918121337890625" lon="6.78085170686244964599609375">
        <ele>2249.800048828125</ele>
        <time>2026-09-03T07:46:53.000Z</time>
        <extensions>
          <ns3:TrackPointExtension>
            <ns3:hr>159</ns3:hr>
            <ns3:cad>0</ns3:cad>
          </ns3:TrackPointExtension>
        </extensions>
      </trkpt>
      <trkpt lat="44.68732089735567569732666015625" lon="6.7808589152991771697998046875">
        <ele>2249.800048828125</ele>
        <time>2026-09-03T07:46:54.000Z</time>
        <extensions>
          <ns3:TrackPointExtension>
            <ns3:hr>150</ns3:hr>
            <ns3:cad>0</ns3:cad>
          </ns3:TrackPointExtension>
        </extensions>
      </trkpt>
      <trkpt lat="44.68731016851961612701416015625" lon="6.780862770974636077880859375">
        <ele>2249.800048828125</ele>
        <time>2026-09-03T07:46:55.000Z</time>
        <extensions>
          <ns3:TrackPointExtension>
            <ns3:hr>143</ns3:hr>
            <ns3:cad>0</ns3:cad>
          </ns3:TrackPointExtension>
        </extensions>
      </trkpt>
      <trkpt lat="44.6872986853122711181640625" lon="6.78086587227880954742431640625">
        <ele>2250</ele>
        <time>2026-09-03T07:46:56.000Z</time>
        <extensions>
          <ns3:TrackPointExtension>
            <ns3:hr>144</ns3:hr>
            <ns3:cad>0</ns3:cad>
          </ns3:TrackPointExtension>
        </extensions>
      </trkpt>
      <trkpt lat="44.687286950647830963134765625" lon="6.78086805157363414764404296875">
        <ele>2250</ele>
        <time>2026-09-03T07:46:57.000Z</time>
        <extensions>
          <ns3:TrackPointExtension>
            <ns3:hr>144</ns3:hr>
            <ns3:cad>0</ns3:cad>
          </ns3:TrackPointExtension>
        </extensions>
      </trkpt>
      <trkpt lat="44.687276221811771392822265625" lon="6.78087458945810794830322265625">
        <ele>2250</ele>
        <time>2026-09-03T07:46:58.000Z</time>
        <extensions>
          <ns3:TrackPointExtension>
            <ns3:hr>144</ns3:hr>
            <ns3:cad>0</ns3:cad>
          </ns3:TrackPointExtension>
        </extensions>
      </trkpt>
      <trkpt lat="44.68726641498506069183349609375" lon="6.7808793671429157257080078125">
        <ele>2250</ele>
        <time>2026-09-03T07:46:59.000Z</time>
        <extensions>
          <ns3:TrackPointExtension>
            <ns3:hr>144</ns3:hr>
            <ns3:cad>0</ns3:cad>
          </ns3:TrackPointExtension>
        </extensions>
      </trkpt>
      <trkpt lat="44.687254093587398529052734375" lon="6.78088389337062835693359375">
        <ele>2250</ele>
        <time>2026-09-03T07:47:00.000Z</time>
        <extensions>
          <ns3:TrackPointExtension>
            <ns3:hr>144</ns3:hr>
            <ns3:cad>0</ns3:cad>
          </ns3:TrackPointExtension>
        </extensions>
      </trkpt>
      <trkpt lat="44.68724512495100498199462890625" lon="6.78088724613189697265625">
        <ele>2249.800048828125</ele>
        <time>2026-09-03T07:47:01.000Z</time>
        <extensions>
          <ns3:TrackPointExtension>
            <ns3:hr>145</ns3:hr>
            <ns3:cad>0</ns3:cad>
          </ns3:TrackPointExtension>
        </extensions>
      </trkpt>
      <trkpt lat="44.68723364174365997314453125" lon="6.7808924429118633270263671875">
        <ele>2249.800048828125</ele>
        <time>2026-09-03T07:47:02.000Z</time>
        <extensions>
          <ns3:TrackPointExtension>
            <ns3:hr>145</ns3:hr>
            <ns3:cad>0</ns3:cad>
          </ns3:TrackPointExtension>
        </extensions>
      </trkpt>
      <trkpt lat="44.68722115270793437957763671875" lon="6.7808966338634490966796875">
        <ele>2249.60009765625</ele>
        <time>2026-09-03T07:47:03.000Z</time>
        <extensions>
          <ns3:TrackPointExtension>
            <ns3:hr>145</ns3:hr>
            <ns3:cad>0</ns3:cad>
          </ns3:TrackPointExtension>
        </extensions>
      </trkpt>
      <trkpt lat="44.68721008859574794769287109375" lon="6.78089302964508533477783203125">
        <ele>2249.39990234375</ele>
        <time>2026-09-03T07:47:04.000Z</time>
        <extensions>
          <ns3:TrackPointExtension>
            <ns3:hr>145</ns3:hr>
            <ns3:cad>0</ns3:cad>
          </ns3:TrackPointExtension>
        </extensions>
      </trkpt>
      <trkpt lat="44.68719969503581523895263671875" lon="6.78088716231286525726318359375">
        <ele>2249.199951171875</ele>
        <time>2026-09-03T07:47:05.000Z</time>
        <extensions>
          <ns3:TrackPointExtension>
            <ns3:hr>144</ns3:hr>
            <ns3:cad>0</ns3:cad>
          </ns3:TrackPointExtension>
        </extensions>
      </trkpt>
      <trkpt lat="44.6871875412762165069580078125" lon="6.780872829258441925048828125">
        <ele>2249.199951171875</ele>
        <time>2026-09-03T07:47:06.000Z</time>
        <extensions>
          <ns3:TrackPointExtension>
            <ns3:hr>144</ns3:hr>
            <ns3:cad>0</ns3:cad>
          </ns3:TrackPointExtension>
        </extensions>
      </trkpt>
      <trkpt lat="44.6871828474104404449462890625" lon="6.78086419589817523956298828125">
        <ele>2249</ele>
        <time>2026-09-03T07:47:07.000Z</time>
        <extensions>
          <ns3:TrackPointExtension>
            <ns3:hr>143</ns3:hr>
            <ns3:cad>0</ns3:cad>
          </ns3:TrackPointExtension>
        </extensions>
      </trkpt>
      <trkpt lat="44.68717287294566631317138671875" lon="6.7808495275676250457763671875">
        <ele>2249</ele>
        <time>2026-09-03T07:47:08.000Z</time>
        <extensions>
          <ns3:TrackPointExtension>
            <ns3:hr>143</ns3:hr>
            <ns3:cad>0</ns3:cad>
          </ns3:TrackPointExtension>
        </extensions>
      </trkpt>
      <trkpt lat="44.6871758066117763519287109375" lon="6.78085396997630596160888671875">
        <ele>2249</ele>
        <time>2026-09-03T07:47:09.000Z</time>
        <extensions>
          <ns3:TrackPointExtension>
            <ns3:hr>143</ns3:hr>
            <ns3:cad>0</ns3:cad>
          </ns3:TrackPointExtension>
        </extensions>
      </trkpt>
      <trkpt lat="44.68716851435601711273193359375" lon="6.78084634244441986083984375">
        <ele>2249.199951171875</ele>
        <time>2026-09-03T07:47:10.000Z</time>
        <extensions>
          <ns3:TrackPointExtension>
            <ns3:hr>142</ns3:hr>
            <ns3:cad>0</ns3:cad>
          </ns3:TrackPointExtension>
        </extensions>
      </trkpt>
      <trkpt lat="44.6871566958725452423095703125" lon="6.78083787672221660614013671875">
        <ele>2249.39990234375</ele>
        <time>2026-09-03T07:47:11.000Z</time>
        <extensions>
          <ns3:TrackPointExtension>
            <ns3:hr>142</ns3:hr>
            <ns3:cad>0</ns3:cad>
          </ns3:TrackPointExtension>
        </extensions>
      </trkpt>
      <trkpt lat="44.687145464122295379638671875" lon="6.78083435632288455963134765625">
        <ele>2249.39990234375</ele>
        <time>2026-09-03T07:47:12.000Z</time>
        <extensions>
          <ns3:TrackPointExtension>
            <ns3:hr>141</ns3:hr>
            <ns3:cad>0</ns3:cad>
          </ns3:TrackPointExtension>
        </extensions>
      </trkpt>
      <trkpt lat="44.6871372498571872711181640625" lon="6.78083485923707485198974609375">
        <ele>2249.60009765625</ele>
        <time>2026-09-03T07:47:13.000Z</time>
        <extensions>
          <ns3:TrackPointExtension>
            <ns3:hr>141</ns3:hr>
            <ns3:cad>0</ns3:cad>
          </ns3:TrackPointExtension>
        </extensions>
      </trkpt>
      <trkpt lat="44.68712006695568561553955078125" lon="6.7808351106941699981689453125">
        <ele>2249.60009765625</ele>
        <time>2026-09-03T07:47:14.000Z</time>
        <extensions>
          <ns3:TrackPointExtension>
            <ns3:hr>140</ns3:hr>
            <ns3:cad>0</ns3:cad>
          </ns3:TrackPointExtension>
        </extensions>
      </trkpt>
      <trkpt lat="44.6871047280728816986083984375" lon="6.78083217702805995941162109375">
        <ele>2249.800048828125</ele>
        <time>2026-09-03T07:47:15.000Z</time>
        <extensions>
          <ns3:TrackPointExtension>
            <ns3:hr>140</ns3:hr>
            <ns3:cad>0</ns3:cad>
          </ns3:TrackPointExtension>
        </extensions>
      </trkpt>
      <trkpt lat="44.68709223903715610504150390625" lon="6.78083385340869426727294921875">
        <ele>2249.800048828125</ele>
        <time>2026-09-03T07:47:16.000Z</time>
        <extensions>
          <ns3:TrackPointExtension>
            <ns3:hr>139</ns3:hr>
            <ns3:cad>0</ns3:cad>
          </ns3:TrackPointExtension>
        </extensions>
      </trkpt>
      <trkpt lat="44.687085114419460296630859375" lon="6.780831255018711090087890625">
        <ele>2249.800048828125</ele>
        <time>2026-09-03T07:47:17.000Z</time>
        <extensions>
          <ns3:TrackPointExtension>
            <ns3:hr>138</ns3:hr>
            <ns3:cad>0</ns3:cad>
          </ns3:TrackPointExtension>
        </extensions>
      </trkpt>
      <trkpt lat="44.68708620406687259674072265625" lon="6.78082228638231754302978515625">
        <ele>2249.60009765625</ele>
        <time>2026-09-03T07:47:18.000Z</time>
        <extensions>
          <ns3:TrackPointExtension>
            <ns3:hr>138</ns3:hr>
            <ns3:cad>0</ns3:cad>
          </ns3:TrackPointExtension>
        </extensions>
      </trkpt>
      <trkpt lat="44.6870862878859043121337890625" lon="6.78080937825143337249755859375">
        <ele>2249.60009765625</ele>
        <time>2026-09-03T07:47:19.000Z</time>
        <extensions>
          <ns3:TrackPointExtension>
            <ns3:hr>138</ns3:hr>
            <ns3:cad>0</ns3:cad>
          </ns3:TrackPointExtension>
        </extensions>
      </trkpt>
      <trkpt lat="44.68709710054099559783935546875" lon="6.78079479373991489410400390625">
        <ele>2249.800048828125</ele>
        <time>2026-09-03T07:47:20.000Z</time>
        <extensions>
          <ns3:TrackPointExtension>
            <ns3:hr>138</ns3:hr>
            <ns3:cad>0</ns3:cad>
          </ns3:TrackPointExtension>
        </extensions>
      </trkpt>
      <trkpt lat="44.6870976872742176055908203125" lon="6.7807831428945064544677734375">
        <ele>2250</ele>
        <time>2026-09-03T07:47:21.000Z</time>
        <extensions>
          <ns3:TrackPointExtension>
            <ns3:hr>138</ns3:hr>
            <ns3:cad>0</ns3:cad>
          </ns3:TrackPointExtension>
        </extensions>
      </trkpt>
      <trkpt lat="44.6870936639606952667236328125" lon="6.7807704024016857147216796875">
        <ele>2250.199951171875</ele>
        <time>2026-09-03T07:47:22.000Z</time>
        <extensions>
          <ns3:TrackPointExtension>
            <ns3:hr>138</ns3:hr>
            <ns3:cad>0</ns3:cad>
          </ns3:TrackPointExtension>
        </extensions>
      </trkpt>
      <trkpt lat="44.68709358014166355133056640625" lon="6.780763529241085052490234375">
        <ele>2250.39990234375</ele>
        <time>2026-09-03T07:47:23.000Z</time>
        <extensions>
          <ns3:TrackPointExtension>
            <ns3:hr>138</ns3:hr>
            <ns3:cad>0</ns3:cad>
          </ns3:TrackPointExtension>
        </extensions>
      </trkpt>
      <trkpt lat="44.6870916523039340972900390625" lon="6.7807613499462604522705078125">
        <ele>2250.800048828125</ele>
        <time>2026-09-03T07:47:24.000Z</time>
        <extensions>
          <ns3:TrackPointExtension>
            <ns3:hr>139</ns3:hr>
            <ns3:cad>0</ns3:cad>
          </ns3:TrackPointExtension>
        </extensions>
      </trkpt>
      <trkpt lat="44.68708972446620464324951171875" lon="6.78075338713824748992919921875">
        <ele>2251</ele>
        <time>2026-09-03T07:47:25.000Z</time>
        <extensions>
          <ns3:TrackPointExtension>
            <ns3:hr>138</ns3:hr>
            <ns3:cad>0</ns3:cad>
          </ns3:TrackPointExtension>
        </extensions>
      </trkpt>
      <trkpt lat="44.68708653934299945831298828125" lon="6.78074282594025135040283203125">
        <ele>2251.199951171875</ele>
        <time>2026-09-03T07:47:26.000Z</time>
        <extensions>
          <ns3:TrackPointExtension>
            <ns3:hr>138</ns3:hr>
            <ns3:cad>0</ns3:cad>
          </ns3:TrackPointExtension>
        </extensions>
      </trkpt>
      <trkpt lat="44.68708167783915996551513671875" lon="6.78073477931320667266845703125">
        <ele>2251.39990234375</ele>
        <time>2026-09-03T07:47:27.000Z</time>
        <extensions>
          <ns3:TrackPointExtension>
            <ns3:hr>138</ns3:hr>
            <ns3:cad>0</ns3:cad>
          </ns3:TrackPointExtension>
        </extensions>
      </trkpt>
      <trkpt lat="44.6870839409530162811279296875" lon="6.780730001628398895263671875">
        <ele>2251.60009765625</ele>
        <time>2026-09-03T07:47:28.000Z</time>
        <extensions>
          <ns3:TrackPointExtension>
            <ns3:hr>138</ns3:hr>
            <ns3:cad>0</ns3:cad>
          </ns3:TrackPointExtension>
        </extensions>
      </trkpt>
      <trkpt lat="44.68707807362079620361328125" lon="6.78072790615260601043701171875">
        <ele>2251.800048828125</ele>
        <time>2026-09-03T07:47:29.000Z</time>
        <extensions>
          <ns3:TrackPointExtension>
            <ns3:hr>138</ns3:hr>
            <ns3:cad>0</ns3:cad>
          </ns3:TrackPointExtension>
        </extensions>
      </trkpt>
      <trkpt lat="44.6870782412588596343994140625" lon="6.78071751259267330169677734375">
        <ele>2251.800048828125</ele>
        <time>2026-09-03T07:47:30.000Z</time>
        <extensions>
          <ns3:TrackPointExtension>
            <ns3:hr>138</ns3:hr>
            <ns3:cad>0</ns3:cad>
          </ns3:TrackPointExtension>
        </extensions>
      </trkpt>
      <trkpt lat="44.68706809915602207183837890625" lon="6.78071566857397556304931640625">
        <ele>2252</ele>
        <time>2026-09-03T07:47:31.000Z</time>
        <extensions>
          <ns3:TrackPointExtension>
            <ns3:hr>137</ns3:hr>
            <ns3:cad>0</ns3:cad>
          </ns3:TrackPointExtension>
        </extensions>
      </trkpt>
      <trkpt lat="44.6870626509189605712890625" lon="6.78071248345077037811279296875">
        <ele>2252</ele>
        <time>2026-09-03T07:47:32.000Z</time>
        <extensions>
          <ns3:TrackPointExtension>
            <ns3:hr>137</ns3:hr>
            <ns3:cad>0</ns3:cad>
          </ns3:TrackPointExtension>
        </extensions>
      </trkpt>
      <trkpt lat="44.687055610120296478271484375" lon="6.780713237822055816650390625">
        <ele>2251.800048828125</ele>
        <time>2026-09-03T07:47:33.000Z</time>
        <extensions>
          <ns3:TrackPointExtension>
            <ns3:hr>137</ns3:hr>
            <ns3:cad>0</ns3:cad>
          </ns3:TrackPointExtension>
        </extensions>
      </trkpt>
      <trkpt lat="44.68704865314066410064697265625" lon="6.78071265108883380889892578125">
        <ele>2251.800048828125</ele>
        <time>2026-09-03T07:47:34.000Z</time>
        <extensions>
          <ns3:TrackPointExtension>
            <ns3:hr>137</ns3:hr>
            <ns3:cad>0</ns3:cad>
          </ns3:TrackPointExtension>
        </extensions>
      </trkpt>
      <trkpt lat="44.68704127706587314605712890625" lon="6.78071089088916778564453125">
        <ele>2251.800048828125</ele>
        <time>2026-09-03T07:47:35.000Z</time>
        <extensions>
          <ns3:TrackPointExtension>
            <ns3:hr>136</ns3:hr>
            <ns3:cad>0</ns3:cad>
          </ns3:TrackPointExtension>
        </extensions>
      </trkpt>
      <trkpt lat="44.6870376728475093841552734375" lon="6.78071047179400920867919921875">
        <ele>2251.800048828125</ele>
        <time>2026-09-03T07:47:36.000Z</time>
        <extensions>
          <ns3:TrackPointExtension>
            <ns3:hr>136</ns3:hr>
            <ns3:cad>0</ns3:cad>
          </ns3:TrackPointExtension>
        </extensions>
      </trkpt>
      <trkpt lat="44.68703272752463817596435546875" lon="6.78071491420269012451171875">
        <ele>2251.60009765625</ele>
        <time>2026-09-03T07:47:37.000Z</time>
        <extensions>
          <ns3:TrackPointExtension>
            <ns3:hr>135</ns3:hr>
            <ns3:cad>0</ns3:cad>
          </ns3:TrackPointExtension>
        </extensions>
      </trkpt>
      <trkpt lat="44.6870276145637035369873046875" lon="6.7807134054601192474365234375">
        <ele>2251.60009765625</ele>
        <time>2026-09-03T07:47:38.000Z</time>
        <extensions>
          <ns3:TrackPointExtension>
            <ns3:hr>135</ns3:hr>
            <ns3:cad>0</ns3:cad>
          </ns3:TrackPointExtension>
        </extensions>
      </trkpt>
      <trkpt lat="44.68702266924083232879638671875" lon="6.78071357309818267822265625">
        <ele>2251.60009765625</ele>
        <time>2026-09-03T07:47:39.000Z</time>
        <extensions>
          <ns3:TrackPointExtension>
            <ns3:hr>134</ns3:hr>
            <ns3:cad>0</ns3:cad>
          </ns3:TrackPointExtension>
        </extensions>
      </trkpt>
      <trkpt lat="44.6870239265263080596923828125" lon="6.78071466274559497833251953125">
        <ele>2251.60009765625</ele>
        <time>2026-09-03T07:47:40.000Z</time>
        <extensions>
          <ns3:TrackPointExtension>
            <ns3:hr>134</ns3:hr>
            <ns3:cad>0</ns3:cad>
          </ns3:TrackPointExtension>
        </extensions>
      </trkpt>
      <trkpt lat="44.68702317215502262115478515625" lon="6.7807160876691341400146484375">
        <ele>2251.60009765625</ele>
        <time>2026-09-03T07:47:41.000Z</time>
        <extensions>
          <ns3:TrackPointExtension>
            <ns3:hr>133</ns3:hr>
            <ns3:cad>0</ns3:cad>
          </ns3:TrackPointExtension>
        </extensions>
      </trkpt>
      <trkpt lat="44.687022753059864044189453125" lon="6.7807164229452610015869140625">
        <ele>2251.60009765625</ele>
        <time>2026-09-03T07:47:42.000Z</time>
        <extensions>
          <ns3:TrackPointExtension>
            <ns3:hr>133</ns3:hr>
            <ns3:cad>0</ns3:cad>
          </ns3:TrackPointExtension>
        </extensions>
      </trkpt>
      <trkpt lat="44.68702082522213459014892578125" lon="6.7807209491729736328125">
        <ele>2251.60009765625</ele>
        <time>2026-09-03T07:47:43.000Z</time>
        <extensions>
          <ns3:TrackPointExtension>
            <ns3:hr>133</ns3:hr>
            <ns3:cad>0</ns3:cad>
          </ns3:TrackPointExtension>
        </extensions>
      </trkpt>
      <trkpt lat="44.68702099286019802093505859375" lon="6.7807258106768131256103515625">
        <ele>2251.60009765625</ele>
        <time>2026-09-03T07:47:44.000Z</time>
        <extensions>
          <ns3:TrackPointExtension>
            <ns3:hr>132</ns3:hr>
            <ns3:cad>0</ns3:cad>
          </ns3:TrackPointExtension>
        </extensions>
      </trkpt>
      <trkpt lat="44.687022753059864044189453125" lon="6.7807248048484325408935546875">
        <ele>2251.60009765625</ele>
        <time>2026-09-03T07:47:45.000Z</time>
        <extensions>
          <ns3:TrackPointExtension>
            <ns3:hr>131</ns3:hr>
            <ns3:cad>0</ns3:cad>
          </ns3:TrackPointExtension>
        </extensions>
      </trkpt>
      <trkpt lat="44.687026105821132659912109375" lon="6.78072706796228885650634765625">
        <ele>2251.60009765625</ele>
        <time>2026-09-03T07:47:46.000Z</time>
        <extensions>
          <ns3:TrackPointExtension>
            <ns3:hr>130</ns3:hr>
            <ns3:cad>0</ns3:cad>
          </ns3:TrackPointExtension>
        </extensions>
      </trkpt>
      <trkpt lat="44.687027446925640106201171875" lon="6.78072874434292316436767578125">
        <ele>2251.39990234375</ele>
        <time>2026-09-03T07:47:47.000Z</time>
        <extensions>
          <ns3:TrackPointExtension>
            <ns3:hr>128</ns3:hr>
            <ns3:cad>0</ns3:cad>
          </ns3:TrackPointExtension>
        </extensions>
      </trkpt>
      <trkpt lat="44.687027446925640106201171875" lon="6.78072874434292316436767578125">
        <ele>2251.39990234375</ele>
        <time>2026-09-03T07:47:48.000Z</time>
        <extensions>
          <ns3:TrackPointExtension>
            <ns3:hr>126</ns3:hr>
            <ns3:cad>0</ns3:cad>
          </ns3:TrackPointExtension>
        </extensions>
      </trkpt>
      <trkpt lat="44.687027446925640106201171875" lon="6.78072874434292316436767578125">
        <ele>2251.199951171875</ele>
        <time>2026-09-03T07:47:49.000Z</time>
        <extensions>
          <ns3:TrackPointExtension>
            <ns3:hr>125</ns3:hr>
            <ns3:cad>0</ns3:cad>
          </ns3:TrackPointExtension>
        </extensions>
      </trkpt>
      <trkpt lat="44.687027446925640106201171875" lon="6.78072874434292316436767578125">
        <ele>2251.199951171875</ele>
        <time>2026-09-03T07:47:50.000Z</time>
        <extensions>
          <ns3:TrackPointExtension>
            <ns3:hr>125</ns3:hr>
            <ns3:cad>0</ns3:cad>
          </ns3:TrackPointExtension>
        </extensions>
      </trkpt>
      <trkpt lat="44.687027446925640106201171875" lon="6.78072874434292316436767578125">
        <ele>2251</ele>
        <time>2026-09-03T07:47:51.000Z</time>
        <extensions>
          <ns3:TrackPointExtension>
            <ns3:hr>125</ns3:hr>
            <ns3:cad>0</ns3:cad>
          </ns3:TrackPointExtension>
        </extensions>
      </trkpt>
      <trkpt lat="44.687027446925640106201171875" lon="6.78072874434292316436767578125">
        <ele>2251</ele>
        <time>2026-09-03T07:47:52.000Z</time>
        <extensions>
          <ns3:TrackPointExtension>
            <ns3:hr>125</ns3:hr>
            <ns3:cad>0</ns3:cad>
          </ns3:TrackPointExtension>
        </extensions>
      </trkpt>
      <trkpt lat="44.687027446925640106201171875" lon="6.78072874434292316436767578125">
        <ele>2251</ele>
        <time>2026-09-03T07:47:53.000Z</time>
        <extensions>
          <ns3:TrackPointExtension>
            <ns3:hr>125</ns3:hr>
            <ns3:cad>0</ns3:cad>
          </ns3:TrackPointExtension>
        </extensions>
      </trkpt>
      <trkpt lat="44.687027446925640106201171875" lon="6.78072874434292316436767578125">
        <ele>2251</ele>
        <time>2026-09-03T07:47:54.000Z</time>
        <extensions>
          <ns3:TrackPointExtension>
            <ns3:hr>124</ns3:hr>
            <ns3:cad>0</ns3:cad>
          </ns3:TrackPointExtension>
        </extensions>
      </trkpt>
      <trkpt lat="44.687027446925640106201171875" lon="6.78072874434292316436767578125">
        <ele>2251</ele>
        <time>2026-09-03T07:47:55.000Z</time>
        <extensions>
          <ns3:TrackPointExtension>
            <ns3:hr>123</ns3:hr>
            <ns3:cad>0</ns3:cad>
          </ns3:TrackPointExtension>
        </extensions>
      </trkpt>
      <trkpt lat="44.687027446925640106201171875" lon="6.78072874434292316436767578125">
        <ele>2251</ele>
        <time>2026-09-03T07:47:56.000Z</time>
        <extensions>
          <ns3:TrackPointExtension>
            <ns3:hr>123</ns3:hr>
            <ns3:cad>0</ns3:cad>
          </ns3:TrackPointExtension>
        </extensions>
      </trkpt>
      <trkpt lat="44.687027446925640106201171875" lon="6.78072874434292316436767578125">
        <ele>2251</ele>
        <time>2026-09-03T07:47:57.000Z</time>
        <extensions>
          <ns3:TrackPointExtension>
            <ns3:hr>123</ns3:hr>
            <ns3:cad>0</ns3:cad>
          </ns3:TrackPointExtension>
        </extensions>
      </trkpt>
      <trkpt lat="44.687027446925640106201171875" lon="6.78072874434292316436767578125">
        <ele>2251</ele>
        <time>2026-09-03T07:47:58.000Z</time>
        <extensions>
          <ns3:TrackPointExtension>
            <ns3:hr>122</ns3:hr>
            <ns3:cad>0</ns3:cad>
          </ns3:TrackPointExtension>
        </extensions>
      </trkpt>
      <trkpt lat="44.687027446925640106201171875" lon="6.78072874434292316436767578125">
        <ele>2251</ele>
        <time>2026-09-03T07:47:59.000Z</time>
        <extensions>
          <ns3:TrackPointExtension>
            <ns3:hr>122</ns3:hr>
            <ns3:cad>0</ns3:cad>
          </ns3:TrackPointExtension>
        </extensions>
      </trkpt>
      <trkpt lat="44.687027446925640106201171875" lon="6.78072874434292316436767578125">
        <ele>2251</ele>
        <time>2026-09-03T07:48:00.000Z</time>
        <extensions>
          <ns3:TrackPointExtension>
            <ns3:hr>122</ns3:hr>
            <ns3:cad>0</ns3:cad>
          </ns3:TrackPointExtension>
        </extensions>
      </trkpt>
      <trkpt lat="44.687027446925640106201171875" lon="6.78072874434292316436767578125">
        <ele>2251</ele>
        <time>2026-09-03T07:48:01.000Z</time>
        <extensions>
          <ns3:TrackPointExtension>
            <ns3:hr>121</ns3:hr>
            <ns3:cad>0</ns3:cad>
          </ns3:TrackPointExtension>
        </extensions>
      </trkpt>
      <trkpt lat="44.687027446925640106201171875" lon="6.78072874434292316436767578125">
        <ele>2251</ele>
        <time>2026-09-03T07:48:02.000Z</time>
        <extensions>
          <ns3:TrackPointExtension>
            <ns3:hr>121</ns3:hr>
            <ns3:cad>0</ns3:cad>
          </ns3:TrackPointExtension>
        </extensions>
      </trkpt>
      <trkpt lat="44.687027446925640106201171875" lon="6.78072874434292316436767578125">
        <ele>2250.800048828125</ele>
        <time>2026-09-03T07:48:03.000Z</time>
        <extensions>
          <ns3:TrackPointExtension>
            <ns3:hr>121</ns3:hr>
            <ns3:cad>0</ns3:cad>
          </ns3:TrackPointExtension>
        </extensions>
      </trkpt>
      <trkpt lat="44.687027446925640106201171875" lon="6.78072874434292316436767578125">
        <ele>2250.800048828125</ele>
        <time>2026-09-03T07:48:04.000Z</time>
        <extensions>
          <ns3:TrackPointExtension>
            <ns3:hr>120</ns3:hr>
            <ns3:cad>0</ns3:cad>
          </ns3:TrackPointExtension>
        </extensions>
      </trkpt>
      <trkpt lat="44.687027446925640106201171875" lon="6.78072874434292316436767578125">
        <ele>2250.800048828125</ele>
        <time>2026-09-03T07:48:05.000Z</time>
        <extensions>
          <ns3:TrackPointExtension>
            <ns3:hr>120</ns3:hr>
            <ns3:cad>0</ns3:cad>
          </ns3:TrackPointExtension>
        </extensions>
      </trkpt>
      <trkpt lat="44.687027446925640106201171875" lon="6.78072874434292316436767578125">
        <ele>2250.800048828125</ele>
        <time>2026-09-03T07:48:06.000Z</time>
        <extensions>
          <ns3:TrackPointExtension>
            <ns3:hr>120</ns3:hr>
            <ns3:cad>0</ns3:cad>
          </ns3:TrackPointExtension>
        </extensions>
      </trkpt>
      <trkpt lat="44.687027446925640106201171875" lon="6.78072874434292316436767578125">
        <ele>2251</ele>
        <time>2026-09-03T07:48:07.000Z</time>
        <extensions>
          <ns3:TrackPointExtension>
            <ns3:hr>120</ns3:hr>
            <ns3:cad>0</ns3:cad>
          </ns3:TrackPointExtension>
        </extensions>
      </trkpt>
      <trkpt lat="44.687027446925640106201171875" lon="6.78072874434292316436767578125">
        <ele>2251</ele>
        <time>2026-09-03T07:48:08.000Z</time>
        <extensions>
          <ns3:TrackPointExtension>
            <ns3:hr>120</ns3:hr>
            <ns3:cad>0</ns3:cad>
          </ns3:TrackPointExtension>
        </extensions>
      </trkpt>
      <trkpt lat="44.687027446925640106201171875" lon="6.78072874434292316436767578125">
        <ele>2251</ele>
        <time>2026-09-03T07:48:09.000Z</time>
        <extensions>
          <ns3:TrackPointExtension>
            <ns3:hr>120</ns3:hr>
            <ns3:cad>0</ns3:cad>
          </ns3:TrackPointExtension>
        </extensions>
      </trkpt>
      <trkpt lat="44.687027446925640106201171875" lon="6.78072874434292316436767578125">
        <ele>2251</ele>
        <time>2026-09-03T07:48:10.000Z</time>
        <extensions>
          <ns3:TrackPointExtension>
            <ns3:hr>119</ns3:hr>
            <ns3:cad>0</ns3:cad>
          </ns3:TrackPointExtension>
        </extensions>
      </trkpt>
      <trkpt lat="44.68702317215502262115478515625" lon="6.78071164526045322418212890625">
        <ele>2251</ele>
        <time>2026-09-03T07:48:11.000Z</time>
        <extensions>
          <ns3:TrackPointExtension>
            <ns3:hr>119</ns3:hr>
            <ns3:cad>0</ns3:cad>
          </ns3:TrackPointExtension>
        </extensions>
      </trkpt>
      <trkpt lat="44.68702484853565692901611328125" lon="6.78070846013724803924560546875">
        <ele>2251</ele>
        <time>2026-09-03T07:48:12.000Z</time>
        <extensions>
          <ns3:TrackPointExtension>
            <ns3:hr>119</ns3:hr>
            <ns3:cad>0</ns3:cad>
          </ns3:TrackPointExtension>
        </extensions>
      </trkpt>
      <trkpt lat="44.687028788030147552490234375" lon="6.7807043530046939849853515625">
        <ele>2251</ele>
        <time>2026-09-03T07:48:13.000Z</time>
        <extensions>
          <ns3:TrackPointExtension>
            <ns3:hr>119</ns3:hr>
            <ns3:cad>0</ns3:cad>
          </ns3:TrackPointExtension>
        </extensions>
      </trkpt>
      <trkpt lat="44.687031470239162445068359375" lon="6.7807026766240596771240234375">
        <ele>2251</ele>
        <time>2026-09-03T07:48:14.000Z</time>
        <extensions>
          <ns3:TrackPointExtension>
            <ns3:hr>119</ns3:hr>
            <ns3:cad>0</ns3:cad>
          </ns3:TrackPointExtension>
        </extensions>
      </trkpt>
      <trkpt lat="44.687034152448177337646484375" lon="6.78069806657731533050537109375">
        <ele>2251</ele>
        <time>2026-09-03T07:48:15.000Z</time>
        <extensions>
          <ns3:TrackPointExtension>
            <ns3:hr>119</ns3:hr>
            <ns3:cad>0</ns3:cad>
          </ns3:TrackPointExtension>
        </extensions>
      </trkpt>
      <trkpt lat="44.6870366670191287994384765625" lon="6.78069538436830043792724609375">
        <ele>2251.199951171875</ele>
        <time>2026-09-03T07:48:16.000Z</time>
        <extensions>
          <ns3:TrackPointExtension>
            <ns3:hr>119</ns3:hr>
            <ns3:cad>0</ns3:cad>
          </ns3:TrackPointExtension>
        </extensions>
      </trkpt>
      <trkpt lat="44.68703792430460453033447265625" lon="6.780692450702190399169921875">
        <ele>2251.199951171875</ele>
        <time>2026-09-03T07:48:17.000Z</time>
        <extensions>
          <ns3:TrackPointExtension>
            <ns3:hr>118</ns3:hr>
            <ns3:cad>0</ns3:cad>
          </ns3:TrackPointExtension>
        </extensions>
      </trkpt>
      <trkpt lat="44.68703021295368671417236328125" lon="6.7806862480938434600830078125">
        <ele>2251.199951171875</ele>
        <time>2026-09-03T07:48:18.000Z</time>
        <extensions>
          <ns3:TrackPointExtension>
            <ns3:hr>118</ns3:hr>
            <ns3:cad>0</ns3:cad>
          </ns3:TrackPointExtension>
        </extensions>
      </trkpt>
      <trkpt lat="44.6870262734591960906982421875" lon="6.7806849069893360137939453125">
        <ele>2251</ele>
        <time>2026-09-03T07:48:19.000Z</time>
        <extensions>
          <ns3:TrackPointExtension>
            <ns3:hr>118</ns3:hr>
            <ns3:cad>0</ns3:cad>
          </ns3:TrackPointExtension>
        </extensions>
      </trkpt>
      <trkpt lat="44.6870296262204647064208984375" lon="6.780682392418384552001953125">
        <ele>2251</ele>
        <time>2026-09-03T07:48:20.000Z</time>
        <extensions>
          <ns3:TrackPointExtension>
            <ns3:hr>118</ns3:hr>
            <ns3:cad>0</ns3:cad>
          </ns3:TrackPointExtension>
        </extensions>
      </trkpt>
      <trkpt lat="44.68703138642013072967529296875" lon="6.78068004548549652099609375">
        <ele>2251</ele>
        <time>2026-09-03T07:48:21.000Z</time>
        <extensions>
          <ns3:TrackPointExtension>
            <ns3:hr>118</ns3:hr>
            <ns3:cad>0</ns3:cad>
          </ns3:TrackPointExtension>
        </extensions>
      </trkpt>
      <trkpt lat="44.6870326437056064605712890625" lon="6.78067157976329326629638671875">
        <ele>2251</ele>
        <time>2026-09-03T07:48:22.000Z</time>
        <extensions>
          <ns3:TrackPointExtension>
            <ns3:hr>118</ns3:hr>
            <ns3:cad>0</ns3:cad>
          </ns3:TrackPointExtension>
        </extensions>
      </trkpt>
      <trkpt lat="44.68703054822981357574462890625" lon="6.78066370077431201934814453125">
        <ele>2251</ele>
        <time>2026-09-03T07:48:23.000Z</time>
        <extensions>
          <ns3:TrackPointExtension>
            <ns3:hr>118</ns3:hr>
            <ns3:cad>0</ns3:cad>
          </ns3:TrackPointExtension>
        </extensions>
      </trkpt>
      <trkpt lat="44.68703339807689189910888671875" lon="6.78066068328917026519775390625">
        <ele>2251</ele>
        <time>2026-09-03T07:48:24.000Z</time>
        <extensions>
          <ns3:TrackPointExtension>
            <ns3:hr>118</ns3:hr>
            <ns3:cad>0</ns3:cad>
          </ns3:TrackPointExtension>
        </extensions>
      </trkpt>
      <trkpt lat="44.6870343200862407684326171875" lon="6.78066370077431201934814453125">
        <ele>2251</ele>
        <time>2026-09-03T07:48:25.000Z</time>
        <extensions>
          <ns3:TrackPointExtension>
            <ns3:hr>118</ns3:hr>
            <ns3:cad>0</ns3:cad>
          </ns3:TrackPointExtension>
        </extensions>
      </trkpt>
      <trkpt lat="44.68703390099108219146728515625" lon="6.78066688589751720428466796875">
        <ele>2251</ele>
        <time>2026-09-03T07:48:26.000Z</time>
        <extensions>
          <ns3:TrackPointExtension>
            <ns3:hr>118</ns3:hr>
            <ns3:cad>0</ns3:cad>
          </ns3:TrackPointExtension>
        </extensions>
      </trkpt>
      <trkpt lat="44.68703406862914562225341796875" lon="6.78067862056195735931396484375">
        <ele>2251</ele>
        <time>2026-09-03T07:48:27.000Z</time>
        <extensions>
          <ns3:TrackPointExtension>
            <ns3:hr>118</ns3:hr>
            <ns3:cad>0</ns3:cad>
          </ns3:TrackPointExtension>
        </extensions>
      </trkpt>
      <trkpt lat="44.68703038059175014495849609375" lon="6.78068633191287517547607421875">
        <ele>2251</ele>
        <time>2026-09-03T07:48:28.000Z</time>
        <extensions>
          <ns3:TrackPointExtension>
            <ns3:hr>118</ns3:hr>
            <ns3:cad>0</ns3:cad>
          </ns3:TrackPointExtension>
        </extensions>
      </trkpt>
      <trkpt lat="44.68703272752463817596435546875" lon="6.78068297915160655975341796875">
        <ele>2251</ele>
        <time>2026-09-03T07:48:29.000Z</time>
        <extensions>
          <ns3:TrackPointExtension>
            <ns3:hr>118</ns3:hr>
            <ns3:cad>0</ns3:cad>
          </ns3:TrackPointExtension>
        </extensions>
      </trkpt>
      <trkpt lat="44.68702887184917926788330078125" lon="6.7806885950267314910888671875">
        <ele>2251.199951171875</ele>
        <time>2026-09-03T07:48:30.000Z</time>
        <extensions>
          <ns3:TrackPointExtension>
            <ns3:hr>118</ns3:hr>
            <ns3:cad>0</ns3:cad>
          </ns3:TrackPointExtension>
        </extensions>
      </trkpt>
      <trkpt lat="44.6870309673249721527099609375" lon="6.7806828953325748443603515625">
        <ele>2251</ele>
        <time>2026-09-03T07:48:31.000Z</time>
        <extensions>
          <ns3:TrackPointExtension>
            <ns3:hr>118</ns3:hr>
            <ns3:cad>0</ns3:cad>
          </ns3:TrackPointExtension>
        </extensions>
      </trkpt>
      <trkpt lat="44.68702870421111583709716796875" lon="6.78068582899868488311767578125">
        <ele>2251</ele>
        <time>2026-09-03T07:48:32.000Z</time>
        <extensions>
          <ns3:TrackPointExtension>
            <ns3:hr>118</ns3:hr>
            <ns3:cad>0</ns3:cad>
          </ns3:TrackPointExtension>
        </extensions>
      </trkpt>
      <trkpt lat="44.68702283687889575958251953125" lon="6.78068113513290882110595703125">
        <ele>2251</ele>
        <time>2026-09-03T07:48:33.000Z</time>
        <extensions>
          <ns3:TrackPointExtension>
            <ns3:hr>117</ns3:hr>
            <ns3:cad>0</ns3:cad>
          </ns3:TrackPointExtension>
        </extensions>
      </trkpt>
      <trkpt lat="44.6870222501456737518310546875" lon="6.78068465553224086761474609375">
        <ele>2250.800048828125</ele>
        <time>2026-09-03T07:48:34.000Z</time>
        <extensions>
          <ns3:TrackPointExtension>
            <ns3:hr>117</ns3:hr>
            <ns3:cad>0</ns3:cad>
          </ns3:TrackPointExtension>
        </extensions>
      </trkpt>
      <trkpt lat="44.68702233396470546722412109375" lon="6.780683733522891998291015625">
        <ele>2250.800048828125</ele>
        <time>2026-09-03T07:48:35.000Z</time>
        <extensions>
          <ns3:TrackPointExtension>
            <ns3:hr>117</ns3:hr>
            <ns3:cad>0</ns3:cad>
          </ns3:TrackPointExtension>
        </extensions>
      </trkpt>
      <trkpt lat="44.6870222501456737518310546875" lon="6.7806808836758136749267578125">
        <ele>2250.800048828125</ele>
        <time>2026-09-03T07:48:36.000Z</time>
        <extensions>
          <ns3:TrackPointExtension>
            <ns3:hr>117</ns3:hr>
            <ns3:cad>0</ns3:cad>
          </ns3:TrackPointExtension>
        </extensions>
      </trkpt>
      <trkpt lat="44.68702283687889575958251953125" lon="6.7806780338287353515625">
        <ele>2250.60009765625</ele>
        <time>2026-09-03T07:48:37.000Z</time>
        <extensions>
          <ns3:TrackPointExtension>
            <ns3:hr>117</ns3:hr>
            <ns3:cad>0</ns3:cad>
          </ns3:TrackPointExtension>
        </extensions>
      </trkpt>
      <trkpt lat="44.68702149577438831329345703125" lon="6.78067468106746673583984375">
        <ele>2250.60009765625</ele>
        <time>2026-09-03T07:48:38.000Z</time>
        <extensions>
          <ns3:TrackPointExtension>
            <ns3:hr>117</ns3:hr>
            <ns3:cad>0</ns3:cad>
          </ns3:TrackPointExtension>
        </extensions>
      </trkpt>
      <trkpt lat="44.68701965175569057464599609375" lon="6.78067359142005443572998046875">
        <ele>2250.60009765625</ele>
        <time>2026-09-03T07:48:39.000Z</time>
        <extensions>
          <ns3:TrackPointExtension>
            <ns3:hr>117</ns3:hr>
            <ns3:cad>0</ns3:cad>
          </ns3:TrackPointExtension>
        </extensions>
      </trkpt>
      <trkpt lat="44.6870212443172931671142578125" lon="6.7806704901158809661865234375">
        <ele>2250.39990234375</ele>
        <time>2026-09-03T07:48:40.000Z</time>
        <extensions>
          <ns3:TrackPointExtension>
            <ns3:hr>116</ns3:hr>
            <ns3:cad>0</ns3:cad>
          </ns3:TrackPointExtension>
        </extensions>
      </trkpt>
      <trkpt lat="44.6870232559740543365478515625" lon="6.78067342378199100494384765625">
        <ele>2250.39990234375</ele>
        <time>2026-09-03T07:48:41.000Z</time>
        <extensions>
          <ns3:TrackPointExtension>
            <ns3:hr>116</ns3:hr>
            <ns3:cad>0</ns3:cad>
          </ns3:TrackPointExtension>
        </extensions>
      </trkpt>
      <trkpt lat="44.687023423612117767333984375" lon="6.78067333996295928955078125">
        <ele>2250.39990234375</ele>
        <time>2026-09-03T07:48:42.000Z</time>
        <extensions>
          <ns3:TrackPointExtension>
            <ns3:hr>115</ns3:hr>
            <ns3:cad>0</ns3:cad>
          </ns3:TrackPointExtension>
        </extensions>
      </trkpt>
      <trkpt lat="44.687022753059864044189453125" lon="6.7806771956384181976318359375">
        <ele>2250.60009765625</ele>
        <time>2026-09-03T07:48:43.000Z</time>
        <extensions>
          <ns3:TrackPointExtension>
            <ns3:hr>114</ns3:hr>
            <ns3:cad>0</ns3:cad>
          </ns3:TrackPointExtension>
        </extensions>
      </trkpt>
      <trkpt lat="44.68702266924083232879638671875" lon="6.7806775309145450592041015625">
        <ele>2250.60009765625</ele>
        <time>2026-09-03T07:48:44.000Z</time>
        <extensions>
          <ns3:TrackPointExtension>
            <ns3:hr>114</ns3:hr>
            <ns3:cad>0</ns3:cad>
          </ns3:TrackPointExtension>
        </extensions>
      </trkpt>
      <trkpt lat="44.6870165504515171051025390625" lon="6.7806785367429256439208984375">
        <ele>2250.60009765625</ele>
        <time>2026-09-03T07:48:45.000Z</time>
        <extensions>
          <ns3:TrackPointExtension>
            <ns3:hr>113</ns3:hr>
            <ns3:cad>0</ns3:cad>
          </ns3:TrackPointExtension>
        </extensions>
      </trkpt>
      <trkpt lat="44.6870143711566925048828125" lon="6.78067811764776706695556640625">
        <ele>2250.60009765625</ele>
        <time>2026-09-03T07:48:46.000Z</time>
        <extensions>
          <ns3:TrackPointExtension>
            <ns3:hr>113</ns3:hr>
            <ns3:cad>0</ns3:cad>
          </ns3:TrackPointExtension>
        </extensions>
      </trkpt>
      <trkpt lat="44.68701076693832874298095703125" lon="6.78067736327648162841796875">
        <ele>2250.60009765625</ele>
        <time>2026-09-03T07:48:47.000Z</time>
        <extensions>
          <ns3:TrackPointExtension>
            <ns3:hr>113</ns3:hr>
            <ns3:cad>0</ns3:cad>
          </ns3:TrackPointExtension>
        </extensions>
      </trkpt>
      <trkpt lat="44.68700967729091644287109375" lon="6.780675686895847320556640625">
        <ele>2250.39990234375</ele>
        <time>2026-09-03T07:48:48.000Z</time>
        <extensions>
          <ns3:TrackPointExtension>
            <ns3:hr>112</ns3:hr>
            <ns3:cad>0</ns3:cad>
          </ns3:TrackPointExtension>
        </extensions>
      </trkpt>
      <trkpt lat="44.6870091743767261505126953125" lon="6.780675016343593597412109375">
        <ele>2250.39990234375</ele>
        <time>2026-09-03T07:48:49.000Z</time>
        <extensions>
          <ns3:TrackPointExtension>
            <ns3:hr>112</ns3:hr>
            <ns3:cad>0</ns3:cad>
          </ns3:TrackPointExtension>
        </extensions>
      </trkpt>
      <trkpt lat="44.687009342014789581298828125" lon="6.78067426197230815887451171875">
        <ele>2250.39990234375</ele>
        <time>2026-09-03T07:48:50.000Z</time>
        <extensions>
          <ns3:TrackPointExtension>
            <ns3:hr>112</ns3:hr>
            <ns3:cad>0</ns3:cad>
          </ns3:TrackPointExtension>
        </extensions>
      </trkpt>
      <trkpt lat="44.68700909055769443511962890625" lon="6.7806735076010227203369140625">
        <ele>2250.39990234375</ele>
        <time>2026-09-03T07:48:51.000Z</time>
        <extensions>
          <ns3:TrackPointExtension>
            <ns3:hr>113</ns3:hr>
            <ns3:cad>0</ns3:cad>
          </ns3:TrackPointExtension>
        </extensions>
      </trkpt>
      <trkpt lat="44.68701110221445560455322265625" lon="6.7806728370487689971923828125">
        <ele>2250.39990234375</ele>
        <time>2026-09-03T07:48:52.000Z</time>
        <extensions>
          <ns3:TrackPointExtension>
            <ns3:hr>112</ns3:hr>
            <ns3:cad>0</ns3:cad>
          </ns3:TrackPointExtension>
        </extensions>
      </trkpt>
      <trkpt lat="44.68701344914734363555908203125" lon="6.78067308850586414337158203125">
        <ele>2250.39990234375</ele>
        <time>2026-09-03T07:48:53.000Z</time>
        <extensions>
          <ns3:TrackPointExtension>
            <ns3:hr>112</ns3:hr>
            <ns3:cad>0</ns3:cad>
          </ns3:TrackPointExtension>
        </extensions>
      </trkpt>
      <trkpt lat="44.68701445497572422027587890625" lon="6.78067308850586414337158203125">
        <ele>2250.39990234375</ele>
        <time>2026-09-03T07:48:54.000Z</time>
        <extensions>
          <ns3:TrackPointExtension>
            <ns3:hr>112</ns3:hr>
            <ns3:cad>0</ns3:cad>
          </ns3:TrackPointExtension>
        </extensions>
      </trkpt>
      <trkpt lat="44.687017388641834259033203125" lon="6.78067442961037158966064453125">
        <ele>2250.39990234375</ele>
        <time>2026-09-03T07:48:55.000Z</time>
        <extensions>
          <ns3:TrackPointExtension>
            <ns3:hr>112</ns3:hr>
            <ns3:cad>0</ns3:cad>
          </ns3:TrackPointExtension>
        </extensions>
      </trkpt>
      <trkpt lat="44.6870197355747222900390625" lon="6.780676357448101043701171875">
        <ele>2250.39990234375</ele>
        <time>2026-09-03T07:48:56.000Z</time>
        <extensions>
          <ns3:TrackPointExtension>
            <ns3:hr>112</ns3:hr>
            <ns3:cad>0</ns3:cad>
          </ns3:TrackPointExtension>
        </extensions>
      </trkpt>
      <trkpt lat="44.68701906502246856689453125" lon="6.78067602217197418212890625">
        <ele>2250.39990234375</ele>
        <time>2026-09-03T07:48:57.000Z</time>
        <extensions>
          <ns3:TrackPointExtension>
            <ns3:hr>112</ns3:hr>
            <ns3:cad>0</ns3:cad>
          </ns3:TrackPointExtension>
        </extensions>
      </trkpt>
      <trkpt lat="44.68701931647956371307373046875" lon="6.780675686895847320556640625">
        <ele>2250.39990234375</ele>
        <time>2026-09-03T07:48:58.000Z</time>
        <extensions>
          <ns3:TrackPointExtension>
            <ns3:hr>112</ns3:hr>
            <ns3:cad>0</ns3:cad>
          </ns3:TrackPointExtension>
        </extensions>
      </trkpt>
      <trkpt lat="44.687020741403102874755859375" lon="6.78067602217197418212890625">
        <ele>2250.39990234375</ele>
        <time>2026-09-03T07:48:59.000Z</time>
        <extensions>
          <ns3:TrackPointExtension>
            <ns3:hr>112</ns3:hr>
            <ns3:cad>0</ns3:cad>
          </ns3:TrackPointExtension>
        </extensions>
      </trkpt>
      <trkpt lat="44.68702518381178379058837890625" lon="6.780677698552608489990234375">
        <ele>2250.199951171875</ele>
        <time>2026-09-03T07:49:00.000Z</time>
        <extensions>
          <ns3:TrackPointExtension>
            <ns3:hr>112</ns3:hr>
            <ns3:cad>0</ns3:cad>
          </ns3:TrackPointExtension>
        </extensions>
      </trkpt>
      <trkpt lat="44.68702417798340320587158203125" lon="6.7806788720190525054931640625">
        <ele>2250.199951171875</ele>
        <time>2026-09-03T07:49:01.000Z</time>
        <extensions>
          <ns3:TrackPointExtension>
            <ns3:hr>112</ns3:hr>
            <ns3:cad>0</ns3:cad>
          </ns3:TrackPointExtension>
        </extensions>
      </trkpt>
      <trkpt lat="44.6870256029069423675537109375" lon="6.78068281151354312896728515625">
        <ele>2250.199951171875</ele>
        <time>2026-09-03T07:49:02.000Z</time>
        <extensions>
          <ns3:TrackPointExtension>
            <ns3:hr>112</ns3:hr>
            <ns3:cad>0</ns3:cad>
          </ns3:TrackPointExtension>
        </extensions>
      </trkpt>
      <trkpt lat="44.68702635727822780609130859375" lon="6.7806815542280673980712890625">
        <ele>2250.199951171875</ele>
        <time>2026-09-03T07:49:03.000Z</time>
        <extensions>
          <ns3:TrackPointExtension>
            <ns3:hr>113</ns3:hr>
            <ns3:cad>0</ns3:cad>
          </ns3:TrackPointExtension>
        </extensions>
      </trkpt>
      <trkpt lat="44.68702434562146663665771484375" lon="6.7806802131235599517822265625">
        <ele>2250.199951171875</ele>
        <time>2026-09-03T07:49:04.000Z</time>
        <extensions>
          <ns3:TrackPointExtension>
            <ns3:hr>112</ns3:hr>
            <ns3:cad>0</ns3:cad>
          </ns3:TrackPointExtension>
        </extensions>
      </trkpt>
      <trkpt lat="44.68702174723148345947265625" lon="6.780679710209369659423828125">
        <ele>2250.199951171875</ele>
        <time>2026-09-03T07:49:05.000Z</time>
        <extensions>
          <ns3:TrackPointExtension>
            <ns3:hr>112</ns3:hr>
            <ns3:cad>0</ns3:cad>
          </ns3:TrackPointExtension>
        </extensions>
      </trkpt>
      <trkpt lat="44.6870182268321514129638671875" lon="6.78067736327648162841796875">
        <ele>2250.199951171875</ele>
        <time>2026-09-03T07:49:06.000Z</time>
        <extensions>
          <ns3:TrackPointExtension>
            <ns3:hr>112</ns3:hr>
            <ns3:cad>0</ns3:cad>
          </ns3:TrackPointExtension>
        </extensions>
      </trkpt>
      <trkpt lat="44.6870152093470096588134765625" lon="6.78067543543875217437744140625">
        <ele>2250.199951171875</ele>
        <time>2026-09-03T07:49:07.000Z</time>
        <extensions>
          <ns3:TrackPointExtension>
            <ns3:hr>112</ns3:hr>
            <ns3:cad>0</ns3:cad>
          </ns3:TrackPointExtension>
        </extensions>
      </trkpt>
      <trkpt lat="44.68701797537505626678466796875" lon="6.7806735076010227203369140625">
        <ele>2250.199951171875</ele>
        <time>2026-09-03T07:49:08.000Z</time>
        <extensions>
          <ns3:TrackPointExtension>
            <ns3:hr>113</ns3:hr>
            <ns3:cad>0</ns3:cad>
          </ns3:TrackPointExtension>
        </extensions>
      </trkpt>
      <trkpt lat="44.687019400298595428466796875" lon="6.7806738428771495819091796875">
        <ele>2250.199951171875</ele>
        <time>2026-09-03T07:49:09.000Z</time>
        <extensions>
          <ns3:TrackPointExtension>
            <ns3:hr>112</ns3:hr>
            <ns3:cad>0</ns3:cad>
          </ns3:TrackPointExtension>
        </extensions>
      </trkpt>
      <trkpt lat="44.68701663427054882049560546875" lon="6.78067325614392757415771484375">
        <ele>2250.199951171875</ele>
        <time>2026-09-03T07:49:10.000Z</time>
        <extensions>
          <ns3:TrackPointExtension>
            <ns3:hr>112</ns3:hr>
            <ns3:cad>0</ns3:cad>
          </ns3:TrackPointExtension>
        </extensions>
      </trkpt>
      <trkpt lat="44.68701504170894622802734375" lon="6.7806728370487689971923828125">
        <ele>2250.199951171875</ele>
        <time>2026-09-03T07:49:11.000Z</time>
        <extensions>
          <ns3:TrackPointExtension>
            <ns3:hr>113</ns3:hr>
            <ns3:cad>0</ns3:cad>
          </ns3:TrackPointExtension>
        </extensions>
      </trkpt>
      <trkpt lat="44.68701311387121677398681640625" lon="6.78067191503942012786865234375">
        <ele>2250.199951171875</ele>
        <time>2026-09-03T07:49:12.000Z</time>
        <extensions>
          <ns3:TrackPointExtension>
            <ns3:hr>112</ns3:hr>
            <ns3:cad>0</ns3:cad>
          </ns3:TrackPointExtension>
        </extensions>
      </trkpt>
      <trkpt lat="44.68701244331896305084228515625" lon="6.78067007102072238922119140625">
        <ele>2250.199951171875</ele>
        <time>2026-09-03T07:49:13.000Z</time>
        <extensions>
          <ns3:TrackPointExtension>
            <ns3:hr>112</ns3:hr>
            <ns3:cad>0</ns3:cad>
          </ns3:TrackPointExtension>
        </extensions>
      </trkpt>
      <trkpt lat="44.68700825236737728118896484375" lon="6.7806659638881683349609375">
        <ele>2250.199951171875</ele>
        <time>2026-09-03T07:49:14.000Z</time>
        <extensions>
          <ns3:TrackPointExtension>
            <ns3:hr>112</ns3:hr>
            <ns3:cad>0</ns3:cad>
          </ns3:TrackPointExtension>
        </extensions>
      </trkpt>
      <trkpt lat="44.68700255267322063446044921875" lon="6.780664622783660888671875">
        <ele>2250</ele>
        <time>2026-09-03T07:49:15.000Z</time>
        <extensions>
          <ns3:TrackPointExtension>
            <ns3:hr>112</ns3:hr>
            <ns3:cad>0</ns3:cad>
          </ns3:TrackPointExtension>
        </extensions>
      </trkpt>
      <trkpt lat="44.6870007924735546112060546875" lon="6.7806657962501049041748046875">
        <ele>2250</ele>
        <time>2026-09-03T07:49:16.000Z</time>
        <extensions>
          <ns3:TrackPointExtension>
            <ns3:hr>112</ns3:hr>
            <ns3:cad>0</ns3:cad>
          </ns3:TrackPointExtension>
        </extensions>
      </trkpt>
      <trkpt lat="44.68699635006487369537353515625" lon="6.78066487424075603485107421875">
        <ele>2249.800048828125</ele>
        <time>2026-09-03T07:49:17.000Z</time>
        <extensions>
          <ns3:TrackPointExtension>
            <ns3:hr>112</ns3:hr>
            <ns3:cad>0</ns3:cad>
          </ns3:TrackPointExtension>
        </extensions>
      </trkpt>
      <trkpt lat="44.686992578208446502685546875" lon="6.780664287507534027099609375">
        <ele>2249.800048828125</ele>
        <time>2026-09-03T07:49:18.000Z</time>
        <extensions>
          <ns3:TrackPointExtension>
            <ns3:hr>111</ns3:hr>
            <ns3:cad>0</ns3:cad>
          </ns3:TrackPointExtension>
        </extensions>
      </trkpt>
      <trkpt lat="44.6869883872568607330322265625" lon="6.7806634493172168731689453125">
        <ele>2249.800048828125</ele>
        <time>2026-09-03T07:49:19.000Z</time>
        <extensions>
          <ns3:TrackPointExtension>
            <ns3:hr>109</ns3:hr>
            <ns3:cad>0</ns3:cad>
          </ns3:TrackPointExtension>
        </extensions>
      </trkpt>
      <trkpt lat="44.6869867108762264251708984375" lon="6.78066303022205829620361328125">
        <ele>2249.800048828125</ele>
        <time>2026-09-03T07:49:20.000Z</time>
        <extensions>
          <ns3:TrackPointExtension>
            <ns3:hr>107</ns3:hr>
            <ns3:cad>0</ns3:cad>
          </ns3:TrackPointExtension>
        </extensions>
      </trkpt>
      <trkpt lat="44.6869843639433383941650390625" lon="6.78066269494593143463134765625">
        <ele>2249.800048828125</ele>
        <time>2026-09-03T07:49:21.000Z</time>
        <extensions>
          <ns3:TrackPointExtension>
            <ns3:hr>103</ns3:hr>
            <ns3:cad>0</ns3:cad>
          </ns3:TrackPointExtension>
        </extensions>
      </trkpt>
      <trkpt lat="44.6869813464581966400146484375" lon="6.78066168911755084991455078125">
        <ele>2249.60009765625</ele>
        <time>2026-09-03T07:49:22.000Z</time>
        <extensions>
          <ns3:TrackPointExtension>
            <ns3:hr>100</ns3:hr>
            <ns3:cad>0</ns3:cad>
          </ns3:TrackPointExtension>
        </extensions>
      </trkpt>
      <trkpt lat="44.68697891570627689361572265625" lon="6.78066135384142398834228515625">
        <ele>2249.60009765625</ele>
        <time>2026-09-03T07:49:23.000Z</time>
        <extensions>
          <ns3:TrackPointExtension>
            <ns3:hr>99</ns3:hr>
            <ns3:cad>0</ns3:cad>
          </ns3:TrackPointExtension>
        </extensions>
      </trkpt>
      <trkpt lat="44.686975814402103424072265625" lon="6.78066068328917026519775390625">
        <ele>2249.60009765625</ele>
        <time>2026-09-03T07:49:24.000Z</time>
        <extensions>
          <ns3:TrackPointExtension>
            <ns3:hr>98</ns3:hr>
            <ns3:cad>0</ns3:cad>
          </ns3:TrackPointExtension>
        </extensions>
      </trkpt>
      <trkpt lat="44.6869739703834056854248046875" lon="6.780660264194011688232421875">
        <ele>2249.60009765625</ele>
        <time>2026-09-03T07:49:25.000Z</time>
        <extensions>
          <ns3:TrackPointExtension>
            <ns3:hr>97</ns3:hr>
            <ns3:cad>0</ns3:cad>
          </ns3:TrackPointExtension>
        </extensions>
      </trkpt>
      <trkpt lat="44.6869739703834056854248046875" lon="6.780660264194011688232421875">
        <ele>2249.60009765625</ele>
        <time>2026-09-03T07:49:26.000Z</time>
        <extensions>
          <ns3:TrackPointExtension>
            <ns3:hr>97</ns3:hr>
            <ns3:cad>0</ns3:cad>
          </ns3:TrackPointExtension>
        </extensions>
      </trkpt>
      <trkpt lat="44.6869739703834056854248046875" lon="6.780660264194011688232421875">
        <ele>2249.60009765625</ele>
        <time>2026-09-03T07:49:27.000Z</time>
        <extensions>
          <ns3:TrackPointExtension>
            <ns3:hr>97</ns3:hr>
            <ns3:cad>0</ns3:cad>
          </ns3:TrackPointExtension>
        </extensions>
      </trkpt>
      <trkpt lat="44.6869739703834056854248046875" lon="6.780660264194011688232421875">
        <ele>2249.60009765625</ele>
        <time>2026-09-03T07:49:28.000Z</time>
        <extensions>
          <ns3:TrackPointExtension>
            <ns3:hr>98</ns3:hr>
            <ns3:cad>0</ns3:cad>
          </ns3:TrackPointExtension>
        </extensions>
      </trkpt>
      <trkpt lat="44.6869739703834056854248046875" lon="6.780660264194011688232421875">
        <ele>2249.60009765625</ele>
        <time>2026-09-03T07:49:29.000Z</time>
        <extensions>
          <ns3:TrackPointExtension>
            <ns3:hr>99</ns3:hr>
            <ns3:cad>0</ns3:cad>
          </ns3:TrackPointExtension>
        </extensions>
      </trkpt>
      <trkpt lat="44.6869739703834056854248046875" lon="6.780660264194011688232421875">
        <ele>2249.60009765625</ele>
        <time>2026-09-03T07:49:30.000Z</time>
        <extensions>
          <ns3:TrackPointExtension>
            <ns3:hr>99</ns3:hr>
            <ns3:cad>0</ns3:cad>
          </ns3:TrackPointExtension>
        </extensions>
      </trkpt>
      <trkpt lat="44.6869739703834056854248046875" lon="6.780660264194011688232421875">
        <ele>2249.60009765625</ele>
        <time>2026-09-03T07:49:31.000Z</time>
        <extensions>
          <ns3:TrackPointExtension>
            <ns3:hr>99</ns3:hr>
            <ns3:cad>0</ns3:cad>
          </ns3:TrackPointExtension>
        </extensions>
      </trkpt>
      <trkpt lat="44.6869739703834056854248046875" lon="6.780660264194011688232421875">
        <ele>2249.60009765625</ele>
        <time>2026-09-03T07:49:32.000Z</time>
        <extensions>
          <ns3:TrackPointExtension>
            <ns3:hr>99</ns3:hr>
            <ns3:cad>0</ns3:cad>
          </ns3:TrackPointExtension>
        </extensions>
      </trkpt>
      <trkpt lat="44.6869739703834056854248046875" lon="6.780660264194011688232421875">
        <ele>2249.60009765625</ele>
        <time>2026-09-03T07:49:33.000Z</time>
        <extensions>
          <ns3:TrackPointExtension>
            <ns3:hr>99</ns3:hr>
            <ns3:cad>0</ns3:cad>
          </ns3:TrackPointExtension>
        </extensions>
      </trkpt>
      <trkpt lat="44.6869739703834056854248046875" lon="6.780660264194011688232421875">
        <ele>2249.60009765625</ele>
        <time>2026-09-03T07:49:34.000Z</time>
        <extensions>
          <ns3:TrackPointExtension>
            <ns3:hr>100</ns3:hr>
            <ns3:cad>0</ns3:cad>
          </ns3:TrackPointExtension>
        </extensions>
      </trkpt>
      <trkpt lat="44.6869739703834056854248046875" lon="6.780660264194011688232421875">
        <ele>2249.60009765625</ele>
        <time>2026-09-03T07:49:35.000Z</time>
        <extensions>
          <ns3:TrackPointExtension>
            <ns3:hr>100</ns3:hr>
            <ns3:cad>0</ns3:cad>
          </ns3:TrackPointExtension>
        </extensions>
      </trkpt>
      <trkpt lat="44.6869739703834056854248046875" lon="6.780660264194011688232421875">
        <ele>2249.60009765625</ele>
        <time>2026-09-03T07:49:36.000Z</time>
        <extensions>
          <ns3:TrackPointExtension>
            <ns3:hr>100</ns3:hr>
            <ns3:cad>0</ns3:cad>
          </ns3:TrackPointExtension>
        </extensions>
      </trkpt>
      <trkpt lat="44.6869739703834056854248046875" lon="6.780660264194011688232421875">
        <ele>2249.60009765625</ele>
        <time>2026-09-03T07:49:37.000Z</time>
        <extensions>
          <ns3:TrackPointExtension>
            <ns3:hr>100</ns3:hr>
            <ns3:cad>0</ns3:cad>
          </ns3:TrackPointExtension>
        </extensions>
      </trkpt>
      <trkpt lat="44.6869739703834056854248046875" lon="6.780660264194011688232421875">
        <ele>2249.60009765625</ele>
        <time>2026-09-03T07:49:38.000Z</time>
        <extensions>
          <ns3:TrackPointExtension>
            <ns3:hr>99</ns3:hr>
            <ns3:cad>0</ns3:cad>
          </ns3:TrackPointExtension>
        </extensions>
      </trkpt>
      <trkpt lat="44.6869739703834056854248046875" lon="6.780660264194011688232421875">
        <ele>2249.60009765625</ele>
        <time>2026-09-03T07:49:39.000Z</time>
        <extensions>
          <ns3:TrackPointExtension>
            <ns3:hr>99</ns3:hr>
            <ns3:cad>0</ns3:cad>
          </ns3:TrackPointExtension>
        </extensions>
      </trkpt>
      <trkpt lat="44.6869739703834056854248046875" lon="6.780660264194011688232421875">
        <ele>2249.39990234375</ele>
        <time>2026-09-03T07:49:40.000Z</time>
        <extensions>
          <ns3:TrackPointExtension>
            <ns3:hr>99</ns3:hr>
            <ns3:cad>0</ns3:cad>
          </ns3:TrackPointExtension>
        </extensions>
      </trkpt>
      <trkpt lat="44.6869739703834056854248046875" lon="6.780660264194011688232421875">
        <ele>2249.60009765625</ele>
        <time>2026-09-03T07:49:41.000Z</time>
        <extensions>
          <ns3:TrackPointExtension>
            <ns3:hr>98</ns3:hr>
            <ns3:cad>0</ns3:cad>
          </ns3:TrackPointExtension>
        </extensions>
      </trkpt>
      <trkpt lat="44.6869739703834056854248046875" lon="6.780660264194011688232421875">
        <ele>2249.39990234375</ele>
        <time>2026-09-03T07:49:42.000Z</time>
        <extensions>
          <ns3:TrackPointExtension>
            <ns3:hr>98</ns3:hr>
            <ns3:cad>0</ns3:cad>
          </ns3:TrackPointExtension>
        </extensions>
      </trkpt>
      <trkpt lat="44.6869739703834056854248046875" lon="6.780660264194011688232421875">
        <ele>2249.39990234375</ele>
        <time>2026-09-03T07:49:43.000Z</time>
        <extensions>
          <ns3:TrackPointExtension>
            <ns3:hr>98</ns3:hr>
            <ns3:cad>0</ns3:cad>
          </ns3:TrackPointExtension>
        </extensions>
      </trkpt>
      <trkpt lat="44.6869739703834056854248046875" lon="6.780660264194011688232421875">
        <ele>2249.39990234375</ele>
        <time>2026-09-03T07:49:44.000Z</time>
        <extensions>
          <ns3:TrackPointExtension>
            <ns3:hr>98</ns3:hr>
            <ns3:cad>0</ns3:cad>
          </ns3:TrackPointExtension>
        </extensions>
      </trkpt>
      <trkpt lat="44.6869739703834056854248046875" lon="6.780660264194011688232421875">
        <ele>2249.39990234375</ele>
        <time>2026-09-03T07:49:45.000Z</time>
        <extensions>
          <ns3:TrackPointExtension>
            <ns3:hr>98</ns3:hr>
            <ns3:cad>0</ns3:cad>
          </ns3:TrackPointExtension>
        </extensions>
      </trkpt>
      <trkpt lat="44.6869739703834056854248046875" lon="6.780660264194011688232421875">
        <ele>2249.60009765625</ele>
        <time>2026-09-03T07:49:46.000Z</time>
        <extensions>
          <ns3:TrackPointExtension>
            <ns3:hr>98</ns3:hr>
            <ns3:cad>0</ns3:cad>
          </ns3:TrackPointExtension>
        </extensions>
      </trkpt>
      <trkpt lat="44.6869739703834056854248046875" lon="6.780660264194011688232421875">
        <ele>2249.60009765625</ele>
        <time>2026-09-03T07:49:47.000Z</time>
        <extensions>
          <ns3:TrackPointExtension>
            <ns3:hr>95</ns3:hr>
            <ns3:cad>0</ns3:cad>
          </ns3:TrackPointExtension>
        </extensions>
      </trkpt>
      <trkpt lat="44.6869739703834056854248046875" lon="6.780660264194011688232421875">
        <ele>2249.60009765625</ele>
        <time>2026-09-03T07:49:48.000Z</time>
        <extensions>
          <ns3:TrackPointExtension>
            <ns3:hr>93</ns3:hr>
            <ns3:cad>0</ns3:cad>
          </ns3:TrackPointExtension>
        </extensions>
      </trkpt>
      <trkpt lat="44.6869739703834056854248046875" lon="6.780660264194011688232421875">
        <ele>2249.60009765625</ele>
        <time>2026-09-03T07:49:49.000Z</time>
        <extensions>
          <ns3:TrackPointExtension>
            <ns3:hr>92</ns3:hr>
            <ns3:cad>0</ns3:cad>
          </ns3:TrackPointExtension>
        </extensions>
      </trkpt>
      <trkpt lat="44.6869739703834056854248046875" lon="6.780660264194011688232421875">
        <ele>2249.60009765625</ele>
        <time>2026-09-03T07:49:50.000Z</time>
        <extensions>
          <ns3:TrackPointExtension>
            <ns3:hr>93</ns3:hr>
            <ns3:cad>0</ns3:cad>
          </ns3:TrackPointExtension>
        </extensions>
      </trkpt>
      <trkpt lat="44.6869739703834056854248046875" lon="6.780660264194011688232421875">
        <ele>2249.60009765625</ele>
        <time>2026-09-03T07:49:51.000Z</time>
        <extensions>
          <ns3:TrackPointExtension>
            <ns3:hr>94</ns3:hr>
            <ns3:cad>0</ns3:cad>
          </ns3:TrackPointExtension>
        </extensions>
      </trkpt>
      <trkpt lat="44.6869739703834056854248046875" lon="6.780660264194011688232421875">
        <ele>2249.60009765625</ele>
        <time>2026-09-03T07:49:52.000Z</time>
        <extensions>
          <ns3:TrackPointExtension>
            <ns3:hr>96</ns3:hr>
            <ns3:cad>0</ns3:cad>
          </ns3:TrackPointExtension>
        </extensions>
      </trkpt>
      <trkpt lat="44.6869739703834056854248046875" lon="6.780660264194011688232421875">
        <ele>2249.60009765625</ele>
        <time>2026-09-03T07:49:53.000Z</time>
        <extensions>
          <ns3:TrackPointExtension>
            <ns3:hr>97</ns3:hr>
            <ns3:cad>0</ns3:cad>
          </ns3:TrackPointExtension>
        </extensions>
      </trkpt>
      <trkpt lat="44.6869739703834056854248046875" lon="6.780660264194011688232421875">
        <ele>2249.60009765625</ele>
        <time>2026-09-03T07:49:54.000Z</time>
        <extensions>
          <ns3:TrackPointExtension>
            <ns3:hr>97</ns3:hr>
            <ns3:cad>0</ns3:cad>
          </ns3:TrackPointExtension>
        </extensions>
      </trkpt>
      <trkpt lat="44.6869739703834056854248046875" lon="6.780660264194011688232421875">
        <ele>2249.60009765625</ele>
        <time>2026-09-03T07:49:55.000Z</time>
        <extensions>
          <ns3:TrackPointExtension>
            <ns3:hr>97</ns3:hr>
            <ns3:cad>0</ns3:cad>
          </ns3:TrackPointExtension>
        </extensions>
      </trkpt>
      <trkpt lat="44.6869739703834056854248046875" lon="6.780660264194011688232421875">
        <ele>2249.60009765625</ele>
        <time>2026-09-03T07:49:56.000Z</time>
        <extensions>
          <ns3:TrackPointExtension>
            <ns3:hr>98</ns3:hr>
            <ns3:cad>0</ns3:cad>
          </ns3:TrackPointExtension>
        </extensions>
      </trkpt>
      <trkpt lat="44.6869739703834056854248046875" lon="6.780660264194011688232421875">
        <ele>2249.60009765625</ele>
        <time>2026-09-03T07:49:57.000Z</time>
        <extensions>
          <ns3:TrackPointExtension>
            <ns3:hr>97</ns3:hr>
            <ns3:cad>0</ns3:cad>
          </ns3:TrackPointExtension>
        </extensions>
      </trkpt>
      <trkpt lat="44.6869739703834056854248046875" lon="6.780660264194011688232421875">
        <ele>2249.60009765625</ele>
        <time>2026-09-03T07:49:58.000Z</time>
        <extensions>
          <ns3:TrackPointExtension>
            <ns3:hr>97</ns3:hr>
            <ns3:cad>0</ns3:cad>
          </ns3:TrackPointExtension>
        </extensions>
      </trkpt>
      <trkpt lat="44.6869739703834056854248046875" lon="6.780660264194011688232421875">
        <ele>2249.60009765625</ele>
        <time>2026-09-03T07:49:59.000Z</time>
        <extensions>
          <ns3:TrackPointExtension>
            <ns3:hr>97</ns3:hr>
            <ns3:cad>0</ns3:cad>
          </ns3:TrackPointExtension>
        </extensions>
      </trkpt>
      <trkpt lat="44.6869739703834056854248046875" lon="6.780660264194011688232421875">
        <ele>2249.60009765625</ele>
        <time>2026-09-03T07:50:00.000Z</time>
        <extensions>
          <ns3:TrackPointExtension>
            <ns3:hr>97</ns3:hr>
            <ns3:cad>0</ns3:cad>
          </ns3:TrackPointExtension>
        </extensions>
      </trkpt>
      <trkpt lat="44.6869739703834056854248046875" lon="6.780660264194011688232421875">
        <ele>2249.60009765625</ele>
        <time>2026-09-03T07:50:01.000Z</time>
        <extensions>
          <ns3:TrackPointExtension>
            <ns3:hr>97</ns3:hr>
            <ns3:cad>0</ns3:cad>
          </ns3:TrackPointExtension>
        </extensions>
      </trkpt>
      <trkpt lat="44.6869739703834056854248046875" lon="6.780660264194011688232421875">
        <ele>2249.60009765625</ele>
        <time>2026-09-03T07:50:02.000Z</time>
        <extensions>
          <ns3:TrackPointExtension>
            <ns3:hr>98</ns3:hr>
            <ns3:cad>0</ns3:cad>
          </ns3:TrackPointExtension>
        </extensions>
      </trkpt>
      <trkpt lat="44.6869739703834056854248046875" lon="6.780660264194011688232421875">
        <ele>2249.60009765625</ele>
        <time>2026-09-03T07:50:03.000Z</time>
        <extensions>
          <ns3:TrackPointExtension>
            <ns3:hr>97</ns3:hr>
            <ns3:cad>0</ns3:cad>
          </ns3:TrackPointExtension>
        </extensions>
      </trkpt>
      <trkpt lat="44.6869739703834056854248046875" lon="6.780660264194011688232421875">
        <ele>2249.60009765625</ele>
        <time>2026-09-03T07:50:04.000Z</time>
        <extensions>
          <ns3:TrackPointExtension>
            <ns3:hr>97</ns3:hr>
            <ns3:cad>0</ns3:cad>
          </ns3:TrackPointExtension>
        </extensions>
      </trkpt>
      <trkpt lat="44.6869739703834056854248046875" lon="6.780660264194011688232421875">
        <ele>2249.60009765625</ele>
        <time>2026-09-03T07:50:05.000Z</time>
        <extensions>
          <ns3:TrackPointExtension>
            <ns3:hr>98</ns3:hr>
            <ns3:cad>0</ns3:cad>
          </ns3:TrackPointExtension>
        </extensions>
      </trkpt>
      <trkpt lat="44.6869739703834056854248046875" lon="6.780660264194011688232421875">
        <ele>2249.60009765625</ele>
        <time>2026-09-03T07:50:06.000Z</time>
        <extensions>
          <ns3:TrackPointExtension>
            <ns3:hr>97</ns3:hr>
            <ns3:cad>0</ns3:cad>
          </ns3:TrackPointExtension>
        </extensions>
      </trkpt>
      <trkpt lat="44.6869739703834056854248046875" lon="6.780660264194011688232421875">
        <ele>2249.60009765625</ele>
        <time>2026-09-03T07:50:07.000Z</time>
        <extensions>
          <ns3:TrackPointExtension>
            <ns3:hr>97</ns3:hr>
            <ns3:cad>0</ns3:cad>
          </ns3:TrackPointExtension>
        </extensions>
      </trkpt>
      <trkpt lat="44.6869739703834056854248046875" lon="6.780660264194011688232421875">
        <ele>2249.60009765625</ele>
        <time>2026-09-03T07:50:08.000Z</time>
        <extensions>
          <ns3:TrackPointExtension>
            <ns3:hr>98</ns3:hr>
            <ns3:cad>0</ns3:cad>
          </ns3:TrackPointExtension>
        </extensions>
      </trkpt>
      <trkpt lat="44.6869739703834056854248046875" lon="6.780660264194011688232421875">
        <ele>2249.60009765625</ele>
        <time>2026-09-03T07:50:09.000Z</time>
        <extensions>
          <ns3:TrackPointExtension>
            <ns3:hr>97</ns3:hr>
            <ns3:cad>0</ns3:cad>
          </ns3:TrackPointExtension>
        </extensions>
      </trkpt>
      <trkpt lat="44.6869739703834056854248046875" lon="6.780660264194011688232421875">
        <ele>2249.60009765625</ele>
        <time>2026-09-03T07:50:10.000Z</time>
        <extensions>
          <ns3:TrackPointExtension>
            <ns3:hr>97</ns3:hr>
            <ns3:cad>0</ns3:cad>
          </ns3:TrackPointExtension>
        </extensions>
      </trkpt>
      <trkpt lat="44.6869739703834056854248046875" lon="6.780660264194011688232421875">
        <ele>2249.60009765625</ele>
        <time>2026-09-03T07:50:11.000Z</time>
        <extensions>
          <ns3:TrackPointExtension>
            <ns3:hr>97</ns3:hr>
            <ns3:cad>0</ns3:cad>
          </ns3:TrackPointExtension>
        </extensions>
      </trkpt>
      <trkpt lat="44.6869739703834056854248046875" lon="6.780660264194011688232421875">
        <ele>2249.60009765625</ele>
        <time>2026-09-03T07:50:12.000Z</time>
        <extensions>
          <ns3:TrackPointExtension>
            <ns3:hr>98</ns3:hr>
            <ns3:cad>0</ns3:cad>
          </ns3:TrackPointExtension>
        </extensions>
      </trkpt>
      <trkpt lat="44.6869739703834056854248046875" lon="6.780660264194011688232421875">
        <ele>2249.60009765625</ele>
        <time>2026-09-03T07:50:13.000Z</time>
        <extensions>
          <ns3:TrackPointExtension>
            <ns3:hr>97</ns3:hr>
            <ns3:cad>0</ns3:cad>
          </ns3:TrackPointExtension>
        </extensions>
      </trkpt>
      <trkpt lat="44.6869739703834056854248046875" lon="6.780660264194011688232421875">
        <ele>2249.60009765625</ele>
        <time>2026-09-03T07:50:14.000Z</time>
        <extensions>
          <ns3:TrackPointExtension>
            <ns3:hr>97</ns3:hr>
            <ns3:cad>0</ns3:cad>
          </ns3:TrackPointExtension>
        </extensions>
      </trkpt>
      <trkpt lat="44.6869739703834056854248046875" lon="6.780660264194011688232421875">
        <ele>2249.60009765625</ele>
        <time>2026-09-03T07:50:15.000Z</time>
        <extensions>
          <ns3:TrackPointExtension>
            <ns3:hr>98</ns3:hr>
            <ns3:cad>0</ns3:cad>
          </ns3:TrackPointExtension>
        </extensions>
      </trkpt>
      <trkpt lat="44.6869739703834056854248046875" lon="6.780660264194011688232421875">
        <ele>2249.60009765625</ele>
        <time>2026-09-03T07:50:16.000Z</time>
        <extensions>
          <ns3:TrackPointExtension>
            <ns3:hr>97</ns3:hr>
            <ns3:cad>0</ns3:cad>
          </ns3:TrackPointExtension>
        </extensions>
      </trkpt>
      <trkpt lat="44.6869739703834056854248046875" lon="6.780660264194011688232421875">
        <ele>2249.60009765625</ele>
        <time>2026-09-03T07:50:17.000Z</time>
        <extensions>
          <ns3:TrackPointExtension>
            <ns3:hr>97</ns3:hr>
            <ns3:cad>0</ns3:cad>
          </ns3:TrackPointExtension>
        </extensions>
      </trkpt>
      <trkpt lat="44.6869739703834056854248046875" lon="6.780660264194011688232421875">
        <ele>2249.60009765625</ele>
        <time>2026-09-03T07:50:18.000Z</time>
        <extensions>
          <ns3:TrackPointExtension>
            <ns3:hr>98</ns3:hr>
            <ns3:cad>0</ns3:cad>
          </ns3:TrackPointExtension>
        </extensions>
      </trkpt>
      <trkpt lat="44.6869739703834056854248046875" lon="6.780660264194011688232421875">
        <ele>2249.60009765625</ele>
        <time>2026-09-03T07:50:19.000Z</time>
        <extensions>
          <ns3:TrackPointExtension>
            <ns3:hr>97</ns3:hr>
            <ns3:cad>0</ns3:cad>
          </ns3:TrackPointExtension>
        </extensions>
      </trkpt>
      <trkpt lat="44.6869739703834056854248046875" lon="6.780660264194011688232421875">
        <ele>2249.60009765625</ele>
        <time>2026-09-03T07:50:20.000Z</time>
        <extensions>
          <ns3:TrackPointExtension>
            <ns3:hr>98</ns3:hr>
            <ns3:cad>0</ns3:cad>
          </ns3:TrackPointExtension>
        </extensions>
      </trkpt>
      <trkpt lat="44.6869739703834056854248046875" lon="6.780660264194011688232421875">
        <ele>2249.60009765625</ele>
        <time>2026-09-03T07:50:21.000Z</time>
        <extensions>
          <ns3:TrackPointExtension>
            <ns3:hr>99</ns3:hr>
            <ns3:cad>0</ns3:cad>
          </ns3:TrackPointExtension>
        </extensions>
      </trkpt>
      <trkpt lat="44.6869739703834056854248046875" lon="6.780660264194011688232421875">
        <ele>2249.60009765625</ele>
        <time>2026-09-03T07:50:22.000Z</time>
        <extensions>
          <ns3:TrackPointExtension>
            <ns3:hr>100</ns3:hr>
            <ns3:cad>0</ns3:cad>
          </ns3:TrackPointExtension>
        </extensions>
      </trkpt>
      <trkpt lat="44.6869739703834056854248046875" lon="6.780660264194011688232421875">
        <ele>2249.60009765625</ele>
        <time>2026-09-03T07:50:23.000Z</time>
        <extensions>
          <ns3:TrackPointExtension>
            <ns3:hr>100</ns3:hr>
            <ns3:cad>0</ns3:cad>
          </ns3:TrackPointExtension>
        </extensions>
      </trkpt>
      <trkpt lat="44.6869739703834056854248046875" lon="6.780660264194011688232421875">
        <ele>2249.60009765625</ele>
        <time>2026-09-03T07:50:24.000Z</time>
        <extensions>
          <ns3:TrackPointExtension>
            <ns3:hr>100</ns3:hr>
            <ns3:cad>0</ns3:cad>
          </ns3:TrackPointExtension>
        </extensions>
      </trkpt>
      <trkpt lat="44.6869739703834056854248046875" lon="6.780660264194011688232421875">
        <ele>2249.60009765625</ele>
        <time>2026-09-03T07:50:25.000Z</time>
        <extensions>
          <ns3:TrackPointExtension>
            <ns3:hr>99</ns3:hr>
            <ns3:cad>0</ns3:cad>
          </ns3:TrackPointExtension>
        </extensions>
      </trkpt>
      <trkpt lat="44.6869739703834056854248046875" lon="6.780660264194011688232421875">
        <ele>2249.60009765625</ele>
        <time>2026-09-03T07:50:26.000Z</time>
        <extensions>
          <ns3:TrackPointExtension>
            <ns3:hr>97</ns3:hr>
            <ns3:cad>0</ns3:cad>
          </ns3:TrackPointExtension>
        </extensions>
      </trkpt>
      <trkpt lat="44.6869739703834056854248046875" lon="6.780660264194011688232421875">
        <ele>2249.60009765625</ele>
        <time>2026-09-03T07:50:27.000Z</time>
        <extensions>
          <ns3:TrackPointExtension>
            <ns3:hr>95</ns3:hr>
            <ns3:cad>0</ns3:cad>
          </ns3:TrackPointExtension>
        </extensions>
      </trkpt>
      <trkpt lat="44.6869739703834056854248046875" lon="6.780660264194011688232421875">
        <ele>2249.39990234375</ele>
        <time>2026-09-03T07:50:28.000Z</time>
        <extensions>
          <ns3:TrackPointExtension>
            <ns3:hr>94</ns3:hr>
            <ns3:cad>0</ns3:cad>
          </ns3:TrackPointExtension>
        </extensions>
      </trkpt>
      <trkpt lat="44.6869739703834056854248046875" lon="6.780660264194011688232421875">
        <ele>2249.39990234375</ele>
        <time>2026-09-03T07:50:29.000Z</time>
        <extensions>
          <ns3:TrackPointExtension>
            <ns3:hr>94</ns3:hr>
            <ns3:cad>0</ns3:cad>
          </ns3:TrackPointExtension>
        </extensions>
      </trkpt>
      <trkpt lat="44.6869739703834056854248046875" lon="6.780660264194011688232421875">
        <ele>2249.39990234375</ele>
        <time>2026-09-03T07:50:30.000Z</time>
        <extensions>
          <ns3:TrackPointExtension>
            <ns3:hr>94</ns3:hr>
            <ns3:cad>0</ns3:cad>
          </ns3:TrackPointExtension>
        </extensions>
      </trkpt>
      <trkpt lat="44.6869739703834056854248046875" lon="6.780660264194011688232421875">
        <ele>2249.39990234375</ele>
        <time>2026-09-03T07:50:31.000Z</time>
        <extensions>
          <ns3:TrackPointExtension>
            <ns3:hr>93</ns3:hr>
            <ns3:cad>0</ns3:cad>
          </ns3:TrackPointExtension>
        </extensions>
      </trkpt>
      <trkpt lat="44.6869739703834056854248046875" lon="6.780660264194011688232421875">
        <ele>2249.39990234375</ele>
        <time>2026-09-03T07:50:32.000Z</time>
        <extensions>
          <ns3:TrackPointExtension>
            <ns3:hr>93</ns3:hr>
            <ns3:cad>0</ns3:cad>
          </ns3:TrackPointExtension>
        </extensions>
      </trkpt>
      <trkpt lat="44.6869739703834056854248046875" lon="6.780660264194011688232421875">
        <ele>2249.39990234375</ele>
        <time>2026-09-03T07:50:33.000Z</time>
        <extensions>
          <ns3:TrackPointExtension>
            <ns3:hr>93</ns3:hr>
            <ns3:cad>0</ns3:cad>
          </ns3:TrackPointExtension>
        </extensions>
      </trkpt>
      <trkpt lat="44.6869739703834056854248046875" lon="6.780660264194011688232421875">
        <ele>2249.39990234375</ele>
        <time>2026-09-03T07:50:34.000Z</time>
        <extensions>
          <ns3:TrackPointExtension>
            <ns3:hr>93</ns3:hr>
            <ns3:cad>0</ns3:cad>
          </ns3:TrackPointExtension>
        </extensions>
      </trkpt>
      <trkpt lat="44.6869739703834056854248046875" lon="6.780660264194011688232421875">
        <ele>2249.39990234375</ele>
        <time>2026-09-03T07:50:35.000Z</time>
        <extensions>
          <ns3:TrackPointExtension>
            <ns3:hr>93</ns3:hr>
            <ns3:cad>0</ns3:cad>
          </ns3:TrackPointExtension>
        </extensions>
      </trkpt>
      <trkpt lat="44.6869739703834056854248046875" lon="6.780660264194011688232421875">
        <ele>2249.39990234375</ele>
        <time>2026-09-03T07:50:36.000Z</time>
        <extensions>
          <ns3:TrackPointExtension>
            <ns3:hr>94</ns3:hr>
            <ns3:cad>0</ns3:cad>
          </ns3:TrackPointExtension>
        </extensions>
      </trkpt>
      <trkpt lat="44.6869739703834056854248046875" lon="6.780660264194011688232421875">
        <ele>2249.39990234375</ele>
        <time>2026-09-03T07:50:37.000Z</time>
        <extensions>
          <ns3:TrackPointExtension>
            <ns3:hr>94</ns3:hr>
            <ns3:cad>0</ns3:cad>
          </ns3:TrackPointExtension>
        </extensions>
      </trkpt>
      <trkpt lat="44.6869739703834056854248046875" lon="6.780660264194011688232421875">
        <ele>2249.39990234375</ele>
        <time>2026-09-03T07:50:38.000Z</time>
        <extensions>
          <ns3:TrackPointExtension>
            <ns3:hr>95</ns3:hr>
            <ns3:cad>0</ns3:cad>
          </ns3:TrackPointExtension>
        </extensions>
      </trkpt>
      <trkpt lat="44.6869739703834056854248046875" lon="6.780660264194011688232421875">
        <ele>2249.39990234375</ele>
        <time>2026-09-03T07:50:39.000Z</time>
        <extensions>
          <ns3:TrackPointExtension>
            <ns3:hr>96</ns3:hr>
            <ns3:cad>0</ns3:cad>
          </ns3:TrackPointExtension>
        </extensions>
      </trkpt>
      <trkpt lat="44.6869739703834056854248046875" lon="6.780660264194011688232421875">
        <ele>2249.39990234375</ele>
        <time>2026-09-03T07:50:40.000Z</time>
        <extensions>
          <ns3:TrackPointExtension>
            <ns3:hr>95</ns3:hr>
            <ns3:cad>0</ns3:cad>
          </ns3:TrackPointExtension>
        </extensions>
      </trkpt>
      <trkpt lat="44.6869739703834056854248046875" lon="6.780660264194011688232421875">
        <ele>2249.39990234375</ele>
        <time>2026-09-03T07:50:41.000Z</time>
        <extensions>
          <ns3:TrackPointExtension>
            <ns3:hr>94</ns3:hr>
            <ns3:cad>0</ns3:cad>
          </ns3:TrackPointExtension>
        </extensions>
      </trkpt>
      <trkpt lat="44.6869739703834056854248046875" lon="6.780660264194011688232421875">
        <ele>2249.39990234375</ele>
        <time>2026-09-03T07:50:42.000Z</time>
        <extensions>
          <ns3:TrackPointExtension>
            <ns3:hr>94</ns3:hr>
            <ns3:cad>0</ns3:cad>
          </ns3:TrackPointExtension>
        </extensions>
      </trkpt>
      <trkpt lat="44.6869739703834056854248046875" lon="6.780660264194011688232421875">
        <ele>2249.39990234375</ele>
        <time>2026-09-03T07:50:43.000Z</time>
        <extensions>
          <ns3:TrackPointExtension>
            <ns3:hr>92</ns3:hr>
            <ns3:cad>0</ns3:cad>
          </ns3:TrackPointExtension>
        </extensions>
      </trkpt>
      <trkpt lat="44.6869739703834056854248046875" lon="6.780660264194011688232421875">
        <ele>2249.199951171875</ele>
        <time>2026-09-03T07:50:44.000Z</time>
        <extensions>
          <ns3:TrackPointExtension>
            <ns3:hr>91</ns3:hr>
            <ns3:cad>0</ns3:cad>
          </ns3:TrackPointExtension>
        </extensions>
      </trkpt>
      <trkpt lat="44.6869739703834056854248046875" lon="6.780660264194011688232421875">
        <ele>2249.199951171875</ele>
        <time>2026-09-03T07:50:45.000Z</time>
        <extensions>
          <ns3:TrackPointExtension>
            <ns3:hr>91</ns3:hr>
            <ns3:cad>0</ns3:cad>
          </ns3:TrackPointExtension>
        </extensions>
      </trkpt>
      <trkpt lat="44.6869739703834056854248046875" lon="6.780660264194011688232421875">
        <ele>2249.39990234375</ele>
        <time>2026-09-03T07:50:46.000Z</time>
        <extensions>
          <ns3:TrackPointExtension>
            <ns3:hr>92</ns3:hr>
            <ns3:cad>0</ns3:cad>
          </ns3:TrackPointExtension>
        </extensions>
      </trkpt>
      <trkpt lat="44.6869739703834056854248046875" lon="6.780660264194011688232421875">
        <ele>2249.199951171875</ele>
        <time>2026-09-03T07:50:47.000Z</time>
        <extensions>
          <ns3:TrackPointExtension>
            <ns3:hr>92</ns3:hr>
            <ns3:cad>0</ns3:cad>
          </ns3:TrackPointExtension>
        </extensions>
      </trkpt>
      <trkpt lat="44.6869739703834056854248046875" lon="6.780660264194011688232421875">
        <ele>2249.39990234375</ele>
        <time>2026-09-03T07:50:48.000Z</time>
        <extensions>
          <ns3:TrackPointExtension>
            <ns3:hr>92</ns3:hr>
            <ns3:cad>0</ns3:cad>
          </ns3:TrackPointExtension>
        </extensions>
      </trkpt>
      <trkpt lat="44.6869739703834056854248046875" lon="6.780660264194011688232421875">
        <ele>2249.39990234375</ele>
        <time>2026-09-03T07:50:49.000Z</time>
        <extensions>
          <ns3:TrackPointExtension>
            <ns3:hr>91</ns3:hr>
            <ns3:cad>0</ns3:cad>
          </ns3:TrackPointExtension>
        </extensions>
      </trkpt>
      <trkpt lat="44.6869739703834056854248046875" lon="6.780660264194011688232421875">
        <ele>2249.39990234375</ele>
        <time>2026-09-03T07:50:50.000Z</time>
        <extensions>
          <ns3:TrackPointExtension>
            <ns3:hr>91</ns3:hr>
            <ns3:cad>0</ns3:cad>
          </ns3:TrackPointExtension>
        </extensions>
      </trkpt>
      <trkpt lat="44.6869739703834056854248046875" lon="6.780660264194011688232421875">
        <ele>2249.39990234375</ele>
        <time>2026-09-03T07:50:51.000Z</time>
        <extensions>
          <ns3:TrackPointExtension>
            <ns3:hr>90</ns3:hr>
            <ns3:cad>0</ns3:cad>
          </ns3:TrackPointExtension>
        </extensions>
      </trkpt>
      <trkpt lat="44.6869739703834056854248046875" lon="6.780660264194011688232421875">
        <ele>2249.39990234375</ele>
        <time>2026-09-03T07:50:52.000Z</time>
        <extensions>
          <ns3:TrackPointExtension>
            <ns3:hr>89</ns3:hr>
            <ns3:cad>0</ns3:cad>
          </ns3:TrackPointExtension>
        </extensions>
      </trkpt>
      <trkpt lat="44.6869739703834056854248046875" lon="6.780660264194011688232421875">
        <ele>2249.39990234375</ele>
        <time>2026-09-03T07:50:53.000Z</time>
        <extensions>
          <ns3:TrackPointExtension>
            <ns3:hr>87</ns3:hr>
            <ns3:cad>0</ns3:cad>
          </ns3:TrackPointExtension>
        </extensions>
      </trkpt>
      <trkpt lat="44.6869739703834056854248046875" lon="6.780660264194011688232421875">
        <ele>2249.39990234375</ele>
        <time>2026-09-03T07:50:54.000Z</time>
        <extensions>
          <ns3:TrackPointExtension>
            <ns3:hr>88</ns3:hr>
            <ns3:cad>0</ns3:cad>
          </ns3:TrackPointExtension>
        </extensions>
      </trkpt>
      <trkpt lat="44.6869739703834056854248046875" lon="6.780660264194011688232421875">
        <ele>2249.39990234375</ele>
        <time>2026-09-03T07:50:55.000Z</time>
        <extensions>
          <ns3:TrackPointExtension>
            <ns3:hr>88</ns3:hr>
            <ns3:cad>0</ns3:cad>
          </ns3:TrackPointExtension>
        </extensions>
      </trkpt>
      <trkpt lat="44.6869739703834056854248046875" lon="6.780660264194011688232421875">
        <ele>2249.39990234375</ele>
        <time>2026-09-03T07:50:56.000Z</time>
        <extensions>
          <ns3:TrackPointExtension>
            <ns3:hr>89</ns3:hr>
            <ns3:cad>0</ns3:cad>
          </ns3:TrackPointExtension>
        </extensions>
      </trkpt>
      <trkpt lat="44.6869739703834056854248046875" lon="6.780660264194011688232421875">
        <ele>2249.39990234375</ele>
        <time>2026-09-03T07:50:57.000Z</time>
        <extensions>
          <ns3:TrackPointExtension>
            <ns3:hr>90</ns3:hr>
            <ns3:cad>0</ns3:cad>
          </ns3:TrackPointExtension>
        </extensions>
      </trkpt>
      <trkpt lat="44.6869739703834056854248046875" lon="6.780660264194011688232421875">
        <ele>2249.39990234375</ele>
        <time>2026-09-03T07:50:58.000Z</time>
        <extensions>
          <ns3:TrackPointExtension>
            <ns3:hr>93</ns3:hr>
            <ns3:cad>0</ns3:cad>
          </ns3:TrackPointExtension>
        </extensions>
      </trkpt>
      <trkpt lat="44.6869739703834056854248046875" lon="6.780660264194011688232421875">
        <ele>2249.39990234375</ele>
        <time>2026-09-03T07:50:59.000Z</time>
        <extensions>
          <ns3:TrackPointExtension>
            <ns3:hr>94</ns3:hr>
            <ns3:cad>0</ns3:cad>
          </ns3:TrackPointExtension>
        </extensions>
      </trkpt>
      <trkpt lat="44.6869739703834056854248046875" lon="6.780660264194011688232421875">
        <ele>2249.39990234375</ele>
        <time>2026-09-03T07:51:00.000Z</time>
        <extensions>
          <ns3:TrackPointExtension>
            <ns3:hr>94</ns3:hr>
            <ns3:cad>0</ns3:cad>
          </ns3:TrackPointExtension>
        </extensions>
      </trkpt>
      <trkpt lat="44.6869739703834056854248046875" lon="6.780660264194011688232421875">
        <ele>2249.39990234375</ele>
        <time>2026-09-03T07:51:01.000Z</time>
        <extensions>
          <ns3:TrackPointExtension>
            <ns3:hr>93</ns3:hr>
            <ns3:cad>0</ns3:cad>
          </ns3:TrackPointExtension>
        </extensions>
      </trkpt>
      <trkpt lat="44.6869739703834056854248046875" lon="6.780660264194011688232421875">
        <ele>2249.39990234375</ele>
        <time>2026-09-03T07:51:02.000Z</time>
        <extensions>
          <ns3:TrackPointExtension>
            <ns3:hr>91</ns3:hr>
            <ns3:cad>0</ns3:cad>
          </ns3:TrackPointExtension>
        </extensions>
      </trkpt>
      <trkpt lat="44.6869739703834056854248046875" lon="6.780660264194011688232421875">
        <ele>2249.39990234375</ele>
        <time>2026-09-03T07:51:03.000Z</time>
        <extensions>
          <ns3:TrackPointExtension>
            <ns3:hr>90</ns3:hr>
            <ns3:cad>0</ns3:cad>
          </ns3:TrackPointExtension>
        </extensions>
      </trkpt>
      <trkpt lat="44.6869739703834056854248046875" lon="6.780660264194011688232421875">
        <ele>2249.39990234375</ele>
        <time>2026-09-03T07:51:04.000Z</time>
        <extensions>
          <ns3:TrackPointExtension>
            <ns3:hr>87</ns3:hr>
            <ns3:cad>0</ns3:cad>
          </ns3:TrackPointExtension>
        </extensions>
      </trkpt>
      <trkpt lat="44.6869739703834056854248046875" lon="6.780660264194011688232421875">
        <ele>2249.39990234375</ele>
        <time>2026-09-03T07:51:05.000Z</time>
        <extensions>
          <ns3:TrackPointExtension>
            <ns3:hr>85</ns3:hr>
            <ns3:cad>0</ns3:cad>
          </ns3:TrackPointExtension>
        </extensions>
      </trkpt>
      <trkpt lat="44.6869739703834056854248046875" lon="6.780660264194011688232421875">
        <ele>2249.39990234375</ele>
        <time>2026-09-03T07:51:06.000Z</time>
        <extensions>
          <ns3:TrackPointExtension>
            <ns3:hr>85</ns3:hr>
            <ns3:cad>0</ns3:cad>
          </ns3:TrackPointExtension>
        </extensions>
      </trkpt>
      <trkpt lat="44.6869739703834056854248046875" lon="6.780660264194011688232421875">
        <ele>2249.39990234375</ele>
        <time>2026-09-03T07:51:07.000Z</time>
        <extensions>
          <ns3:TrackPointExtension>
            <ns3:hr>85</ns3:hr>
            <ns3:cad>0</ns3:cad>
          </ns3:TrackPointExtension>
        </extensions>
      </trkpt>
      <trkpt lat="44.6869739703834056854248046875" lon="6.780660264194011688232421875">
        <ele>2249.39990234375</ele>
        <time>2026-09-03T07:51:08.000Z</time>
        <extensions>
          <ns3:TrackPointExtension>
            <ns3:hr>85</ns3:hr>
            <ns3:cad>0</ns3:cad>
          </ns3:TrackPointExtension>
        </extensions>
      </trkpt>
      <trkpt lat="44.6869739703834056854248046875" lon="6.780660264194011688232421875">
        <ele>2249.39990234375</ele>
        <time>2026-09-03T07:51:09.000Z</time>
        <extensions>
          <ns3:TrackPointExtension>
            <ns3:hr>84</ns3:hr>
            <ns3:cad>0</ns3:cad>
          </ns3:TrackPointExtension>
        </extensions>
      </trkpt>
      <trkpt lat="44.6869739703834056854248046875" lon="6.780660264194011688232421875">
        <ele>2249.199951171875</ele>
        <time>2026-09-03T07:51:10.000Z</time>
        <extensions>
          <ns3:TrackPointExtension>
            <ns3:hr>84</ns3:hr>
            <ns3:cad>0</ns3:cad>
          </ns3:TrackPointExtension>
        </extensions>
      </trkpt>
      <trkpt lat="44.6869739703834056854248046875" lon="6.780660264194011688232421875">
        <ele>2249.199951171875</ele>
        <time>2026-09-03T07:51:11.000Z</time>
        <extensions>
          <ns3:TrackPointExtension>
            <ns3:hr>84</ns3:hr>
            <ns3:cad>0</ns3:cad>
          </ns3:TrackPointExtension>
        </extensions>
      </trkpt>
      <trkpt lat="44.6869739703834056854248046875" lon="6.780660264194011688232421875">
        <ele>2249.199951171875</ele>
        <time>2026-09-03T07:51:12.000Z</time>
        <extensions>
          <ns3:TrackPointExtension>
            <ns3:hr>83</ns3:hr>
            <ns3:cad>0</ns3:cad>
          </ns3:TrackPointExtension>
        </extensions>
      </trkpt>
      <trkpt lat="44.6869739703834056854248046875" lon="6.780660264194011688232421875">
        <ele>2249.199951171875</ele>
        <time>2026-09-03T07:51:13.000Z</time>
        <extensions>
          <ns3:TrackPointExtension>
            <ns3:hr>83</ns3:hr>
            <ns3:cad>0</ns3:cad>
          </ns3:TrackPointExtension>
        </extensions>
      </trkpt>
      <trkpt lat="44.6869739703834056854248046875" lon="6.780660264194011688232421875">
        <ele>2249.199951171875</ele>
        <time>2026-09-03T07:51:14.000Z</time>
        <extensions>
          <ns3:TrackPointExtension>
            <ns3:hr>84</ns3:hr>
            <ns3:cad>0</ns3:cad>
          </ns3:TrackPointExtension>
        </extensions>
      </trkpt>
      <trkpt lat="44.6869739703834056854248046875" lon="6.780660264194011688232421875">
        <ele>2249.199951171875</ele>
        <time>2026-09-03T07:51:15.000Z</time>
        <extensions>
          <ns3:TrackPointExtension>
            <ns3:hr>85</ns3:hr>
            <ns3:cad>0</ns3:cad>
          </ns3:TrackPointExtension>
        </extensions>
      </trkpt>
      <trkpt lat="44.6869739703834056854248046875" lon="6.780660264194011688232421875">
        <ele>2249.199951171875</ele>
        <time>2026-09-03T07:51:16.000Z</time>
        <extensions>
          <ns3:TrackPointExtension>
            <ns3:hr>86</ns3:hr>
            <ns3:cad>0</ns3:cad>
          </ns3:TrackPointExtension>
        </extensions>
      </trkpt>
      <trkpt lat="44.6869739703834056854248046875" lon="6.780660264194011688232421875">
        <ele>2249.199951171875</ele>
        <time>2026-09-03T07:51:17.000Z</time>
        <extensions>
          <ns3:TrackPointExtension>
            <ns3:hr>87</ns3:hr>
            <ns3:cad>0</ns3:cad>
          </ns3:TrackPointExtension>
        </extensions>
      </trkpt>
      <trkpt lat="44.6869739703834056854248046875" lon="6.780660264194011688232421875">
        <ele>2249.199951171875</ele>
        <time>2026-09-03T07:51:18.000Z</time>
        <extensions>
          <ns3:TrackPointExtension>
            <ns3:hr>92</ns3:hr>
            <ns3:cad>0</ns3:cad>
          </ns3:TrackPointExtension>
        </extensions>
      </trkpt>
      <trkpt lat="44.6869739703834056854248046875" lon="6.780660264194011688232421875">
        <ele>2249.199951171875</ele>
        <time>2026-09-03T07:51:19.000Z</time>
        <extensions>
          <ns3:TrackPointExtension>
            <ns3:hr>93</ns3:hr>
            <ns3:cad>0</ns3:cad>
          </ns3:TrackPointExtension>
        </extensions>
      </trkpt>
      <trkpt lat="44.6869739703834056854248046875" lon="6.780660264194011688232421875">
        <ele>2249</ele>
        <time>2026-09-03T07:51:20.000Z</time>
        <extensions>
          <ns3:TrackPointExtension>
            <ns3:hr>93</ns3:hr>
            <ns3:cad>0</ns3:cad>
          </ns3:TrackPointExtension>
        </extensions>
      </trkpt>
      <trkpt lat="44.6869739703834056854248046875" lon="6.780660264194011688232421875">
        <ele>2249</ele>
        <time>2026-09-03T07:51:21.000Z</time>
        <extensions>
          <ns3:TrackPointExtension>
            <ns3:hr>93</ns3:hr>
            <ns3:cad>0</ns3:cad>
          </ns3:TrackPointExtension>
        </extensions>
      </trkpt>
      <trkpt lat="44.6869739703834056854248046875" lon="6.780660264194011688232421875">
        <ele>2249</ele>
        <time>2026-09-03T07:51:22.000Z</time>
        <extensions>
          <ns3:TrackPointExtension>
            <ns3:hr>93</ns3:hr>
            <ns3:cad>0</ns3:cad>
          </ns3:TrackPointExtension>
        </extensions>
      </trkpt>
      <trkpt lat="44.6869739703834056854248046875" lon="6.780660264194011688232421875">
        <ele>2249</ele>
        <time>2026-09-03T07:51:23.000Z</time>
        <extensions>
          <ns3:TrackPointExtension>
            <ns3:hr>92</ns3:hr>
            <ns3:cad>0</ns3:cad>
          </ns3:TrackPointExtension>
        </extensions>
      </trkpt>
      <trkpt lat="44.6869739703834056854248046875" lon="6.780660264194011688232421875">
        <ele>2249</ele>
        <time>2026-09-03T07:51:24.000Z</time>
        <extensions>
          <ns3:TrackPointExtension>
            <ns3:hr>91</ns3:hr>
            <ns3:cad>0</ns3:cad>
          </ns3:TrackPointExtension>
        </extensions>
      </trkpt>
      <trkpt lat="44.6869739703834056854248046875" lon="6.780660264194011688232421875">
        <ele>2249</ele>
        <time>2026-09-03T07:51:25.000Z</time>
        <extensions>
          <ns3:TrackPointExtension>
            <ns3:hr>90</ns3:hr>
            <ns3:cad>0</ns3:cad>
          </ns3:TrackPointExtension>
        </extensions>
      </trkpt>
      <trkpt lat="44.6869739703834056854248046875" lon="6.780660264194011688232421875">
        <ele>2249</ele>
        <time>2026-09-03T07:51:26.000Z</time>
        <extensions>
          <ns3:TrackPointExtension>
            <ns3:hr>90</ns3:hr>
            <ns3:cad>0</ns3:cad>
          </ns3:TrackPointExtension>
        </extensions>
      </trkpt>
      <trkpt lat="44.6869739703834056854248046875" lon="6.780660264194011688232421875">
        <ele>2249</ele>
        <time>2026-09-03T07:51:27.000Z</time>
        <extensions>
          <ns3:TrackPointExtension>
            <ns3:hr>90</ns3:hr>
            <ns3:cad>0</ns3:cad>
          </ns3:TrackPointExtension>
        </extensions>
      </trkpt>
      <trkpt lat="44.6869739703834056854248046875" lon="6.780660264194011688232421875">
        <ele>2249</ele>
        <time>2026-09-03T07:51:28.000Z</time>
        <extensions>
          <ns3:TrackPointExtension>
            <ns3:hr>89</ns3:hr>
            <ns3:cad>0</ns3:cad>
          </ns3:TrackPointExtension>
        </extensions>
      </trkpt>
      <trkpt lat="44.6869739703834056854248046875" lon="6.780660264194011688232421875">
        <ele>2249</ele>
        <time>2026-09-03T07:51:29.000Z</time>
        <extensions>
          <ns3:TrackPointExtension>
            <ns3:hr>88</ns3:hr>
            <ns3:cad>0</ns3:cad>
          </ns3:TrackPointExtension>
        </extensions>
      </trkpt>
      <trkpt lat="44.6869739703834056854248046875" lon="6.780660264194011688232421875">
        <ele>2249</ele>
        <time>2026-09-03T07:51:30.000Z</time>
        <extensions>
          <ns3:TrackPointExtension>
            <ns3:hr>86</ns3:hr>
            <ns3:cad>0</ns3:cad>
          </ns3:TrackPointExtension>
        </extensions>
      </trkpt>
      <trkpt lat="44.6869739703834056854248046875" lon="6.780660264194011688232421875">
        <ele>2249</ele>
        <time>2026-09-03T07:51:31.000Z</time>
        <extensions>
          <ns3:TrackPointExtension>
            <ns3:hr>86</ns3:hr>
            <ns3:cad>0</ns3:cad>
          </ns3:TrackPointExtension>
        </extensions>
      </trkpt>
      <trkpt lat="44.6869739703834056854248046875" lon="6.780660264194011688232421875">
        <ele>2249</ele>
        <time>2026-09-03T07:51:32.000Z</time>
        <extensions>
          <ns3:TrackPointExtension>
            <ns3:hr>87</ns3:hr>
            <ns3:cad>0</ns3:cad>
          </ns3:TrackPointExtension>
        </extensions>
      </trkpt>
      <trkpt lat="44.6869739703834056854248046875" lon="6.780660264194011688232421875">
        <ele>2249</ele>
        <time>2026-09-03T07:51:33.000Z</time>
        <extensions>
          <ns3:TrackPointExtension>
            <ns3:hr>87</ns3:hr>
            <ns3:cad>0</ns3:cad>
          </ns3:TrackPointExtension>
        </extensions>
      </trkpt>
      <trkpt lat="44.6869739703834056854248046875" lon="6.780660264194011688232421875">
        <ele>2249</ele>
        <time>2026-09-03T07:51:34.000Z</time>
        <extensions>
          <ns3:TrackPointExtension>
            <ns3:hr>87</ns3:hr>
            <ns3:cad>0</ns3:cad>
          </ns3:TrackPointExtension>
        </extensions>
      </trkpt>
      <trkpt lat="44.6869739703834056854248046875" lon="6.780660264194011688232421875">
        <ele>2249</ele>
        <time>2026-09-03T07:51:35.000Z</time>
        <extensions>
          <ns3:TrackPointExtension>
            <ns3:hr>87</ns3:hr>
            <ns3:cad>0</ns3:cad>
          </ns3:TrackPointExtension>
        </extensions>
      </trkpt>
      <trkpt lat="44.6869739703834056854248046875" lon="6.780660264194011688232421875">
        <ele>2249</ele>
        <time>2026-09-03T07:51:36.000Z</time>
        <extensions>
          <ns3:TrackPointExtension>
            <ns3:hr>88</ns3:hr>
            <ns3:cad>0</ns3:cad>
          </ns3:TrackPointExtension>
        </extensions>
      </trkpt>
      <trkpt lat="44.6869739703834056854248046875" lon="6.780660264194011688232421875">
        <ele>2248.800048828125</ele>
        <time>2026-09-03T07:51:37.000Z</time>
        <extensions>
          <ns3:TrackPointExtension>
            <ns3:hr>90</ns3:hr>
            <ns3:cad>0</ns3:cad>
          </ns3:TrackPointExtension>
        </extensions>
      </trkpt>
      <trkpt lat="44.6869739703834056854248046875" lon="6.780660264194011688232421875">
        <ele>2248.800048828125</ele>
        <time>2026-09-03T07:51:38.000Z</time>
        <extensions>
          <ns3:TrackPointExtension>
            <ns3:hr>91</ns3:hr>
            <ns3:cad>0</ns3:cad>
          </ns3:TrackPointExtension>
        </extensions>
      </trkpt>
      <trkpt lat="44.6869739703834056854248046875" lon="6.780660264194011688232421875">
        <ele>2248.800048828125</ele>
        <time>2026-09-03T07:51:39.000Z</time>
        <extensions>
          <ns3:TrackPointExtension>
            <ns3:hr>91</ns3:hr>
            <ns3:cad>0</ns3:cad>
          </ns3:TrackPointExtension>
        </extensions>
      </trkpt>
      <trkpt lat="44.6869739703834056854248046875" lon="6.780660264194011688232421875">
        <ele>2248.60009765625</ele>
        <time>2026-09-03T07:51:40.000Z</time>
        <extensions>
          <ns3:TrackPointExtension>
            <ns3:hr>91</ns3:hr>
            <ns3:cad>0</ns3:cad>
          </ns3:TrackPointExtension>
        </extensions>
      </trkpt>
      <trkpt lat="44.6869739703834056854248046875" lon="6.780660264194011688232421875">
        <ele>2248.60009765625</ele>
        <time>2026-09-03T07:51:41.000Z</time>
        <extensions>
          <ns3:TrackPointExtension>
            <ns3:hr>91</ns3:hr>
            <ns3:cad>0</ns3:cad>
          </ns3:TrackPointExtension>
        </extensions>
      </trkpt>
      <trkpt lat="44.6869739703834056854248046875" lon="6.780660264194011688232421875">
        <ele>2248.60009765625</ele>
        <time>2026-09-03T07:51:42.000Z</time>
        <extensions>
          <ns3:TrackPointExtension>
            <ns3:hr>92</ns3:hr>
            <ns3:cad>0</ns3:cad>
          </ns3:TrackPointExtension>
        </extensions>
      </trkpt>
      <trkpt lat="44.6869739703834056854248046875" lon="6.780660264194011688232421875">
        <ele>2248.60009765625</ele>
        <time>2026-09-03T07:51:43.000Z</time>
        <extensions>
          <ns3:TrackPointExtension>
            <ns3:hr>91</ns3:hr>
            <ns3:cad>0</ns3:cad>
          </ns3:TrackPointExtension>
        </extensions>
      </trkpt>
      <trkpt lat="44.6869739703834056854248046875" lon="6.780660264194011688232421875">
        <ele>2248.60009765625</ele>
        <time>2026-09-03T07:51:44.000Z</time>
        <extensions>
          <ns3:TrackPointExtension>
            <ns3:hr>91</ns3:hr>
            <ns3:cad>0</ns3:cad>
          </ns3:TrackPointExtension>
        </extensions>
      </trkpt>
      <trkpt lat="44.6869739703834056854248046875" lon="6.780660264194011688232421875">
        <ele>2248.60009765625</ele>
        <time>2026-09-03T07:51:45.000Z</time>
        <extensions>
          <ns3:TrackPointExtension>
            <ns3:hr>90</ns3:hr>
            <ns3:cad>0</ns3:cad>
          </ns3:TrackPointExtension>
        </extensions>
      </trkpt>
      <trkpt lat="44.6869739703834056854248046875" lon="6.780660264194011688232421875">
        <ele>2248.60009765625</ele>
        <time>2026-09-03T07:51:46.000Z</time>
        <extensions>
          <ns3:TrackPointExtension>
            <ns3:hr>90</ns3:hr>
            <ns3:cad>0</ns3:cad>
          </ns3:TrackPointExtension>
        </extensions>
      </trkpt>
      <trkpt lat="44.6869739703834056854248046875" lon="6.780660264194011688232421875">
        <ele>2248.60009765625</ele>
        <time>2026-09-03T07:51:47.000Z</time>
        <extensions>
          <ns3:TrackPointExtension>
            <ns3:hr>90</ns3:hr>
            <ns3:cad>0</ns3:cad>
          </ns3:TrackPointExtension>
        </extensions>
      </trkpt>
      <trkpt lat="44.6869739703834056854248046875" lon="6.780660264194011688232421875">
        <ele>2248.60009765625</ele>
        <time>2026-09-03T07:51:48.000Z</time>
        <extensions>
          <ns3:TrackPointExtension>
            <ns3:hr>90</ns3:hr>
            <ns3:cad>0</ns3:cad>
          </ns3:TrackPointExtension>
        </extensions>
      </trkpt>
      <trkpt lat="44.6869739703834056854248046875" lon="6.780660264194011688232421875">
        <ele>2248.60009765625</ele>
        <time>2026-09-03T07:51:49.000Z</time>
        <extensions>
          <ns3:TrackPointExtension>
            <ns3:hr>88</ns3:hr>
            <ns3:cad>0</ns3:cad>
          </ns3:TrackPointExtension>
        </extensions>
      </trkpt>
      <trkpt lat="44.6869739703834056854248046875" lon="6.780660264194011688232421875">
        <ele>2248.60009765625</ele>
        <time>2026-09-03T07:51:50.000Z</time>
        <extensions>
          <ns3:TrackPointExtension>
            <ns3:hr>87</ns3:hr>
            <ns3:cad>0</ns3:cad>
          </ns3:TrackPointExtension>
        </extensions>
      </trkpt>
      <trkpt lat="44.6869739703834056854248046875" lon="6.780660264194011688232421875">
        <ele>2248.60009765625</ele>
        <time>2026-09-03T07:51:51.000Z</time>
        <extensions>
          <ns3:TrackPointExtension>
            <ns3:hr>86</ns3:hr>
            <ns3:cad>0</ns3:cad>
          </ns3:TrackPointExtension>
        </extensions>
      </trkpt>
      <trkpt lat="44.6869739703834056854248046875" lon="6.780660264194011688232421875">
        <ele>2248.39990234375</ele>
        <time>2026-09-03T07:51:52.000Z</time>
        <extensions>
          <ns3:TrackPointExtension>
            <ns3:hr>86</ns3:hr>
            <ns3:cad>0</ns3:cad>
          </ns3:TrackPointExtension>
        </extensions>
      </trkpt>
      <trkpt lat="44.6869739703834056854248046875" lon="6.780660264194011688232421875">
        <ele>2248.39990234375</ele>
        <time>2026-09-03T07:51:53.000Z</time>
        <extensions>
          <ns3:TrackPointExtension>
            <ns3:hr>86</ns3:hr>
            <ns3:cad>0</ns3:cad>
          </ns3:TrackPointExtension>
        </extensions>
      </trkpt>
      <trkpt lat="44.6869739703834056854248046875" lon="6.780660264194011688232421875">
        <ele>2248.39990234375</ele>
        <time>2026-09-03T07:51:54.000Z</time>
        <extensions>
          <ns3:TrackPointExtension>
            <ns3:hr>85</ns3:hr>
            <ns3:cad>0</ns3:cad>
          </ns3:TrackPointExtension>
        </extensions>
      </trkpt>
      <trkpt lat="44.6869739703834056854248046875" lon="6.780660264194011688232421875">
        <ele>2248.39990234375</ele>
        <time>2026-09-03T07:51:55.000Z</time>
        <extensions>
          <ns3:TrackPointExtension>
            <ns3:hr>85</ns3:hr>
            <ns3:cad>0</ns3:cad>
          </ns3:TrackPointExtension>
        </extensions>
      </trkpt>
      <trkpt lat="44.6869739703834056854248046875" lon="6.780660264194011688232421875">
        <ele>2248.39990234375</ele>
        <time>2026-09-03T07:51:56.000Z</time>
        <extensions>
          <ns3:TrackPointExtension>
            <ns3:hr>85</ns3:hr>
            <ns3:cad>0</ns3:cad>
          </ns3:TrackPointExtension>
        </extensions>
      </trkpt>
      <trkpt lat="44.6869739703834056854248046875" lon="6.780660264194011688232421875">
        <ele>2248.39990234375</ele>
        <time>2026-09-03T07:51:57.000Z</time>
        <extensions>
          <ns3:TrackPointExtension>
            <ns3:hr>85</ns3:hr>
            <ns3:cad>0</ns3:cad>
          </ns3:TrackPointExtension>
        </extensions>
      </trkpt>
      <trkpt lat="44.6869739703834056854248046875" lon="6.780660264194011688232421875">
        <ele>2248.39990234375</ele>
        <time>2026-09-03T07:51:58.000Z</time>
        <extensions>
          <ns3:TrackPointExtension>
            <ns3:hr>86</ns3:hr>
            <ns3:cad>0</ns3:cad>
          </ns3:TrackPointExtension>
        </extensions>
      </trkpt>
      <trkpt lat="44.6869739703834056854248046875" lon="6.780660264194011688232421875">
        <ele>2248.39990234375</ele>
        <time>2026-09-03T07:51:59.000Z</time>
        <extensions>
          <ns3:TrackPointExtension>
            <ns3:hr>88</ns3:hr>
            <ns3:cad>0</ns3:cad>
          </ns3:TrackPointExtension>
        </extensions>
      </trkpt>
      <trkpt lat="44.6869739703834056854248046875" lon="6.780660264194011688232421875">
        <ele>2248.39990234375</ele>
        <time>2026-09-03T07:52:00.000Z</time>
        <extensions>
          <ns3:TrackPointExtension>
            <ns3:hr>90</ns3:hr>
            <ns3:cad>0</ns3:cad>
          </ns3:TrackPointExtension>
        </extensions>
      </trkpt>
      <trkpt lat="44.6869739703834056854248046875" lon="6.780660264194011688232421875">
        <ele>2248.199951171875</ele>
        <time>2026-09-03T07:52:01.000Z</time>
        <extensions>
          <ns3:TrackPointExtension>
            <ns3:hr>90</ns3:hr>
            <ns3:cad>0</ns3:cad>
          </ns3:TrackPointExtension>
        </extensions>
      </trkpt>
      <trkpt lat="44.6869739703834056854248046875" lon="6.780660264194011688232421875">
        <ele>2248.199951171875</ele>
        <time>2026-09-03T07:52:02.000Z</time>
        <extensions>
          <ns3:TrackPointExtension>
            <ns3:hr>91</ns3:hr>
            <ns3:cad>0</ns3:cad>
          </ns3:TrackPointExtension>
        </extensions>
      </trkpt>
      <trkpt lat="44.6869739703834056854248046875" lon="6.780660264194011688232421875">
        <ele>2248.199951171875</ele>
        <time>2026-09-03T07:52:03.000Z</time>
        <extensions>
          <ns3:TrackPointExtension>
            <ns3:hr>91</ns3:hr>
            <ns3:cad>0</ns3:cad>
          </ns3:TrackPointExtension>
        </extensions>
      </trkpt>
      <trkpt lat="44.6869739703834056854248046875" lon="6.780660264194011688232421875">
        <ele>2248.199951171875</ele>
        <time>2026-09-03T07:52:04.000Z</time>
        <extensions>
          <ns3:TrackPointExtension>
            <ns3:hr>91</ns3:hr>
            <ns3:cad>0</ns3:cad>
          </ns3:TrackPointExtension>
        </extensions>
      </trkpt>
      <trkpt lat="44.6869739703834056854248046875" lon="6.780660264194011688232421875">
        <ele>2248.199951171875</ele>
        <time>2026-09-03T07:52:05.000Z</time>
        <extensions>
          <ns3:TrackPointExtension>
            <ns3:hr>92</ns3:hr>
            <ns3:cad>0</ns3:cad>
          </ns3:TrackPointExtension>
        </extensions>
      </trkpt>
      <trkpt lat="44.6869739703834056854248046875" lon="6.780660264194011688232421875">
        <ele>2248.39990234375</ele>
        <time>2026-09-03T07:52:06.000Z</time>
        <extensions>
          <ns3:TrackPointExtension>
            <ns3:hr>92</ns3:hr>
            <ns3:cad>0</ns3:cad>
          </ns3:TrackPointExtension>
        </extensions>
      </trkpt>
      <trkpt lat="44.6869739703834056854248046875" lon="6.780660264194011688232421875">
        <ele>2248.39990234375</ele>
        <time>2026-09-03T07:52:07.000Z</time>
        <extensions>
          <ns3:TrackPointExtension>
            <ns3:hr>91</ns3:hr>
            <ns3:cad>0</ns3:cad>
          </ns3:TrackPointExtension>
        </extensions>
      </trkpt>
      <trkpt lat="44.6869739703834056854248046875" lon="6.780660264194011688232421875">
        <ele>2248.39990234375</ele>
        <time>2026-09-03T07:52:08.000Z</time>
        <extensions>
          <ns3:TrackPointExtension>
            <ns3:hr>91</ns3:hr>
            <ns3:cad>0</ns3:cad>
          </ns3:TrackPointExtension>
        </extensions>
      </trkpt>
      <trkpt lat="44.6869739703834056854248046875" lon="6.780660264194011688232421875">
        <ele>2248.39990234375</ele>
        <time>2026-09-03T07:52:09.000Z</time>
        <extensions>
          <ns3:TrackPointExtension>
            <ns3:hr>91</ns3:hr>
            <ns3:cad>0</ns3:cad>
          </ns3:TrackPointExtension>
        </extensions>
      </trkpt>
      <trkpt lat="44.6869739703834056854248046875" lon="6.780660264194011688232421875">
        <ele>2248.39990234375</ele>
        <time>2026-09-03T07:52:10.000Z</time>
        <extensions>
          <ns3:TrackPointExtension>
            <ns3:hr>92</ns3:hr>
            <ns3:cad>0</ns3:cad>
          </ns3:TrackPointExtension>
        </extensions>
      </trkpt>
      <trkpt lat="44.6869739703834056854248046875" lon="6.780660264194011688232421875">
        <ele>2248.39990234375</ele>
        <time>2026-09-03T07:52:11.000Z</time>
        <extensions>
          <ns3:TrackPointExtension>
            <ns3:hr>90</ns3:hr>
            <ns3:cad>0</ns3:cad>
          </ns3:TrackPointExtension>
        </extensions>
      </trkpt>
      <trkpt lat="44.6869739703834056854248046875" lon="6.780660264194011688232421875">
        <ele>2248.199951171875</ele>
        <time>2026-09-03T07:52:12.000Z</time>
        <extensions>
          <ns3:TrackPointExtension>
            <ns3:hr>90</ns3:hr>
            <ns3:cad>0</ns3:cad>
          </ns3:TrackPointExtension>
        </extensions>
      </trkpt>
      <trkpt lat="44.6869739703834056854248046875" lon="6.780660264194011688232421875">
        <ele>2248.199951171875</ele>
        <time>2026-09-03T07:52:13.000Z</time>
        <extensions>
          <ns3:TrackPointExtension>
            <ns3:hr>90</ns3:hr>
            <ns3:cad>0</ns3:cad>
          </ns3:TrackPointExtension>
        </extensions>
      </trkpt>
      <trkpt lat="44.6869739703834056854248046875" lon="6.780660264194011688232421875">
        <ele>2248.199951171875</ele>
        <time>2026-09-03T07:52:14.000Z</time>
        <extensions>
          <ns3:TrackPointExtension>
            <ns3:hr>89</ns3:hr>
            <ns3:cad>0</ns3:cad>
          </ns3:TrackPointExtension>
        </extensions>
      </trkpt>
      <trkpt lat="44.6869739703834056854248046875" lon="6.780660264194011688232421875">
        <ele>2248.199951171875</ele>
        <time>2026-09-03T07:52:15.000Z</time>
        <extensions>
          <ns3:TrackPointExtension>
            <ns3:hr>89</ns3:hr>
            <ns3:cad>0</ns3:cad>
          </ns3:TrackPointExtension>
        </extensions>
      </trkpt>
      <trkpt lat="44.6869739703834056854248046875" lon="6.780660264194011688232421875">
        <ele>2248.199951171875</ele>
        <time>2026-09-03T07:52:16.000Z</time>
        <extensions>
          <ns3:TrackPointExtension>
            <ns3:hr>89</ns3:hr>
            <ns3:cad>0</ns3:cad>
          </ns3:TrackPointExtension>
        </extensions>
      </trkpt>
      <trkpt lat="44.68698478303849697113037109375" lon="6.7806731723248958587646484375">
        <ele>2248.199951171875</ele>
        <time>2026-09-03T07:52:17.000Z</time>
        <extensions>
          <ns3:TrackPointExtension>
            <ns3:hr>90</ns3:hr>
            <ns3:cad>0</ns3:cad>
          </ns3:TrackPointExtension>
        </extensions>
      </trkpt>
      <trkpt lat="44.686987884342670440673828125" lon="6.78067577071487903594970703125">
        <ele>2248.199951171875</ele>
        <time>2026-09-03T07:52:18.000Z</time>
        <extensions>
          <ns3:TrackPointExtension>
            <ns3:hr>90</ns3:hr>
            <ns3:cad>0</ns3:cad>
          </ns3:TrackPointExtension>
        </extensions>
      </trkpt>
      <trkpt lat="44.686987884342670440673828125" lon="6.78067577071487903594970703125">
        <ele>2248.39990234375</ele>
        <time>2026-09-03T07:52:19.000Z</time>
        <extensions>
          <ns3:TrackPointExtension>
            <ns3:hr>91</ns3:hr>
            <ns3:cad>0</ns3:cad>
          </ns3:TrackPointExtension>
        </extensions>
      </trkpt>
      <trkpt lat="44.686987884342670440673828125" lon="6.78067577071487903594970703125">
        <ele>2248.199951171875</ele>
        <time>2026-09-03T07:52:20.000Z</time>
        <extensions>
          <ns3:TrackPointExtension>
            <ns3:hr>92</ns3:hr>
            <ns3:cad>0</ns3:cad>
          </ns3:TrackPointExtension>
        </extensions>
      </trkpt>
      <trkpt lat="44.686987884342670440673828125" lon="6.78067577071487903594970703125">
        <ele>2248.199951171875</ele>
        <time>2026-09-03T07:52:21.000Z</time>
        <extensions>
          <ns3:TrackPointExtension>
            <ns3:hr>92</ns3:hr>
            <ns3:cad>0</ns3:cad>
          </ns3:TrackPointExtension>
        </extensions>
      </trkpt>
      <trkpt lat="44.686987884342670440673828125" lon="6.78067577071487903594970703125">
        <ele>2248.199951171875</ele>
        <time>2026-09-03T07:52:22.000Z</time>
        <extensions>
          <ns3:TrackPointExtension>
            <ns3:hr>92</ns3:hr>
            <ns3:cad>0</ns3:cad>
          </ns3:TrackPointExtension>
        </extensions>
      </trkpt>
      <trkpt lat="44.686987884342670440673828125" lon="6.78067577071487903594970703125">
        <ele>2248.199951171875</ele>
        <time>2026-09-03T07:52:23.000Z</time>
        <extensions>
          <ns3:TrackPointExtension>
            <ns3:hr>92</ns3:hr>
            <ns3:cad>0</ns3:cad>
          </ns3:TrackPointExtension>
        </extensions>
      </trkpt>
      <trkpt lat="44.686987884342670440673828125" lon="6.78067577071487903594970703125">
        <ele>2248.199951171875</ele>
        <time>2026-09-03T07:52:24.000Z</time>
        <extensions>
          <ns3:TrackPointExtension>
            <ns3:hr>92</ns3:hr>
            <ns3:cad>0</ns3:cad>
          </ns3:TrackPointExtension>
        </extensions>
      </trkpt>
      <trkpt lat="44.686987884342670440673828125" lon="6.78067577071487903594970703125">
        <ele>2248.199951171875</ele>
        <time>2026-09-03T07:52:25.000Z</time>
        <extensions>
          <ns3:TrackPointExtension>
            <ns3:hr>91</ns3:hr>
            <ns3:cad>0</ns3:cad>
          </ns3:TrackPointExtension>
        </extensions>
      </trkpt>
      <trkpt lat="44.686987884342670440673828125" lon="6.78067577071487903594970703125">
        <ele>2248.199951171875</ele>
        <time>2026-09-03T07:52:26.000Z</time>
        <extensions>
          <ns3:TrackPointExtension>
            <ns3:hr>91</ns3:hr>
            <ns3:cad>0</ns3:cad>
          </ns3:TrackPointExtension>
        </extensions>
      </trkpt>
      <trkpt lat="44.686987884342670440673828125" lon="6.78067577071487903594970703125">
        <ele>2248.199951171875</ele>
        <time>2026-09-03T07:52:27.000Z</time>
        <extensions>
          <ns3:TrackPointExtension>
            <ns3:hr>91</ns3:hr>
            <ns3:cad>0</ns3:cad>
          </ns3:TrackPointExtension>
        </extensions>
      </trkpt>
      <trkpt lat="44.686999954283237457275390625" lon="6.78068465553224086761474609375">
        <ele>2248</ele>
        <time>2026-09-03T07:52:28.000Z</time>
        <extensions>
          <ns3:TrackPointExtension>
            <ns3:hr>91</ns3:hr>
            <ns3:cad>0</ns3:cad>
          </ns3:TrackPointExtension>
        </extensions>
      </trkpt>
      <trkpt lat="44.6870009601116180419921875" lon="6.78068540990352630615234375">
        <ele>2248</ele>
        <time>2026-09-03T07:52:29.000Z</time>
        <extensions>
          <ns3:TrackPointExtension>
            <ns3:hr>91</ns3:hr>
            <ns3:cad>0</ns3:cad>
          </ns3:TrackPointExtension>
        </extensions>
      </trkpt>
      <trkpt lat="44.68701160512864589691162109375" lon="6.78069672547280788421630859375">
        <ele>2248.199951171875</ele>
        <time>2026-09-03T07:52:30.000Z</time>
        <extensions>
          <ns3:TrackPointExtension>
            <ns3:hr>92</ns3:hr>
            <ns3:cad>0</ns3:cad>
          </ns3:TrackPointExtension>
        </extensions>
      </trkpt>
      <trkpt lat="44.68702199868857860565185546875" lon="6.7806956358253955841064453125">
        <ele>2248.199951171875</ele>
        <time>2026-09-03T07:52:31.000Z</time>
        <extensions>
          <ns3:TrackPointExtension>
            <ns3:hr>92</ns3:hr>
            <ns3:cad>0</ns3:cad>
          </ns3:TrackPointExtension>
        </extensions>
      </trkpt>
      <trkpt lat="44.6870291233062744140625" lon="6.7806942947208881378173828125">
        <ele>2248.199951171875</ele>
        <time>2026-09-03T07:52:32.000Z</time>
        <extensions>
          <ns3:TrackPointExtension>
            <ns3:hr>92</ns3:hr>
            <ns3:cad>0</ns3:cad>
          </ns3:TrackPointExtension>
        </extensions>
      </trkpt>
      <trkpt lat="44.68703507445752620697021484375" lon="6.780700497329235076904296875">
        <ele>2248.199951171875</ele>
        <time>2026-09-03T07:52:33.000Z</time>
        <extensions>
          <ns3:TrackPointExtension>
            <ns3:hr>92</ns3:hr>
            <ns3:cad>0</ns3:cad>
          </ns3:TrackPointExtension>
        </extensions>
      </trkpt>
      <trkpt lat="44.6870396845042705535888671875" lon="6.7806976474821567535400390625">
        <ele>2248.199951171875</ele>
        <time>2026-09-03T07:52:34.000Z</time>
        <extensions>
          <ns3:TrackPointExtension>
            <ns3:hr>92</ns3:hr>
            <ns3:cad>0</ns3:cad>
          </ns3:TrackPointExtension>
        </extensions>
      </trkpt>
      <trkpt lat="44.6870453841984272003173828125" lon="6.78069555200636386871337890625">
        <ele>2248.199951171875</ele>
        <time>2026-09-03T07:52:35.000Z</time>
        <extensions>
          <ns3:TrackPointExtension>
            <ns3:hr>92</ns3:hr>
            <ns3:cad>0</ns3:cad>
          </ns3:TrackPointExtension>
        </extensions>
      </trkpt>
      <trkpt lat="44.68704991042613983154296875" lon="6.78069613873958587646484375">
        <ele>2248.199951171875</ele>
        <time>2026-09-03T07:52:36.000Z</time>
        <extensions>
          <ns3:TrackPointExtension>
            <ns3:hr>92</ns3:hr>
            <ns3:cad>0</ns3:cad>
          </ns3:TrackPointExtension>
        </extensions>
      </trkpt>
      <trkpt lat="44.68705032952129840850830078125" lon="6.78069672547280788421630859375">
        <ele>2248.199951171875</ele>
        <time>2026-09-03T07:52:37.000Z</time>
        <extensions>
          <ns3:TrackPointExtension>
            <ns3:hr>91</ns3:hr>
            <ns3:cad>0</ns3:cad>
          </ns3:TrackPointExtension>
        </extensions>
      </trkpt>
      <trkpt lat="44.6870514191687107086181640625" lon="6.78069571964442729949951171875">
        <ele>2248.199951171875</ele>
        <time>2026-09-03T07:52:38.000Z</time>
        <extensions>
          <ns3:TrackPointExtension>
            <ns3:hr>91</ns3:hr>
            <ns3:cad>0</ns3:cad>
          </ns3:TrackPointExtension>
        </extensions>
      </trkpt>
      <trkpt lat="44.68705049715936183929443359375" lon="6.7806979827582836151123046875">
        <ele>2248.199951171875</ele>
        <time>2026-09-03T07:52:39.000Z</time>
        <extensions>
          <ns3:TrackPointExtension>
            <ns3:hr>91</ns3:hr>
            <ns3:cad>0</ns3:cad>
          </ns3:TrackPointExtension>
        </extensions>
      </trkpt>
      <trkpt lat="44.68705150298774242401123046875" lon="6.78069840185344219207763671875">
        <ele>2248.199951171875</ele>
        <time>2026-09-03T07:52:40.000Z</time>
        <extensions>
          <ns3:TrackPointExtension>
            <ns3:hr>91</ns3:hr>
            <ns3:cad>0</ns3:cad>
          </ns3:TrackPointExtension>
        </extensions>
      </trkpt>
      <trkpt lat="44.68705393373966217041015625" lon="6.7806983180344104766845703125">
        <ele>2248.199951171875</ele>
        <time>2026-09-03T07:52:41.000Z</time>
        <extensions>
          <ns3:TrackPointExtension>
            <ns3:hr>90</ns3:hr>
            <ns3:cad>0</ns3:cad>
          </ns3:TrackPointExtension>
        </extensions>
      </trkpt>
      <trkpt lat="44.68705259263515472412109375" lon="6.7807003296911716461181640625">
        <ele>2248.39990234375</ele>
        <time>2026-09-03T07:52:42.000Z</time>
        <extensions>
          <ns3:TrackPointExtension>
            <ns3:hr>87</ns3:hr>
            <ns3:cad>0</ns3:cad>
          </ns3:TrackPointExtension>
        </extensions>
      </trkpt>
      <trkpt lat="44.68704932369291782379150390625" lon="6.78069756366312503814697265625">
        <ele>2248.39990234375</ele>
        <time>2026-09-03T07:52:43.000Z</time>
        <extensions>
          <ns3:TrackPointExtension>
            <ns3:hr>85</ns3:hr>
            <ns3:cad>0</ns3:cad>
          </ns3:TrackPointExtension>
        </extensions>
      </trkpt>
      <trkpt lat="44.6870492398738861083984375" lon="6.78070359863340854644775390625">
        <ele>2248.199951171875</ele>
        <time>2026-09-03T07:52:44.000Z</time>
        <extensions>
          <ns3:TrackPointExtension>
            <ns3:hr>84</ns3:hr>
            <ns3:cad>0</ns3:cad>
          </ns3:TrackPointExtension>
        </extensions>
      </trkpt>
      <trkpt lat="44.68704898841679096221923828125" lon="6.78070879541337490081787109375">
        <ele>2248.199951171875</ele>
        <time>2026-09-03T07:52:45.000Z</time>
        <extensions>
          <ns3:TrackPointExtension>
            <ns3:hr>83</ns3:hr>
            <ns3:cad>0</ns3:cad>
          </ns3:TrackPointExtension>
        </extensions>
      </trkpt>
      <trkpt lat="44.68704697676002979278564453125" lon="6.78071399219334125518798828125">
        <ele>2248.199951171875</ele>
        <time>2026-09-03T07:52:46.000Z</time>
        <extensions>
          <ns3:TrackPointExtension>
            <ns3:hr>81</ns3:hr>
            <ns3:cad>0</ns3:cad>
          </ns3:TrackPointExtension>
        </extensions>
      </trkpt>
      <trkpt lat="44.68704580329358577728271484375" lon="6.7807180993258953094482421875">
        <ele>2248.199951171875</ele>
        <time>2026-09-03T07:52:47.000Z</time>
        <extensions>
          <ns3:TrackPointExtension>
            <ns3:hr>81</ns3:hr>
            <ns3:cad>0</ns3:cad>
          </ns3:TrackPointExtension>
        </extensions>
      </trkpt>
      <trkpt lat="44.68704194761812686920166015625" lon="6.78071784786880016326904296875">
        <ele>2248.199951171875</ele>
        <time>2026-09-03T07:52:48.000Z</time>
        <extensions>
          <ns3:TrackPointExtension>
            <ns3:hr>80</ns3:hr>
            <ns3:cad>0</ns3:cad>
          </ns3:TrackPointExtension>
        </extensions>
      </trkpt>
      <trkpt lat="44.6870403550565242767333984375" lon="6.7807160876691341400146484375">
        <ele>2248.199951171875</ele>
        <time>2026-09-03T07:52:49.000Z</time>
        <extensions>
          <ns3:TrackPointExtension>
            <ns3:hr>80</ns3:hr>
            <ns3:cad>0</ns3:cad>
          </ns3:TrackPointExtension>
        </extensions>
      </trkpt>
      <trkpt lat="44.68703825958073139190673828125" lon="6.78071633912622928619384765625">
        <ele>2248.199951171875</ele>
        <time>2026-09-03T07:52:50.000Z</time>
        <extensions>
          <ns3:TrackPointExtension>
            <ns3:hr>80</ns3:hr>
            <ns3:cad>0</ns3:cad>
          </ns3:TrackPointExtension>
        </extensions>
      </trkpt>
      <trkpt lat="44.68703725375235080718994140625" lon="6.780713908374309539794921875">
        <ele>2248.199951171875</ele>
        <time>2026-09-03T07:52:51.000Z</time>
        <extensions>
          <ns3:TrackPointExtension>
            <ns3:hr>80</ns3:hr>
            <ns3:cad>0</ns3:cad>
          </ns3:TrackPointExtension>
        </extensions>
      </trkpt>
      <trkpt lat="44.68703591264784336090087890625" lon="6.78071348927915096282958984375">
        <ele>2248.199951171875</ele>
        <time>2026-09-03T07:52:52.000Z</time>
        <extensions>
          <ns3:TrackPointExtension>
            <ns3:hr>80</ns3:hr>
            <ns3:cad>0</ns3:cad>
          </ns3:TrackPointExtension>
        </extensions>
      </trkpt>
      <trkpt lat="44.687035493552684783935546875" lon="6.78071130998432636260986328125">
        <ele>2248.199951171875</ele>
        <time>2026-09-03T07:52:53.000Z</time>
        <extensions>
          <ns3:TrackPointExtension>
            <ns3:hr>81</ns3:hr>
            <ns3:cad>0</ns3:cad>
          </ns3:TrackPointExtension>
        </extensions>
      </trkpt>
      <trkpt lat="44.6870390139520168304443359375" lon="6.7807123996317386627197265625">
        <ele>2248.199951171875</ele>
        <time>2026-09-03T07:52:54.000Z</time>
        <extensions>
          <ns3:TrackPointExtension>
            <ns3:hr>80</ns3:hr>
            <ns3:cad>0</ns3:cad>
          </ns3:TrackPointExtension>
        </extensions>
      </trkpt>
      <trkpt lat="44.6870393492281436920166015625" lon="6.7807137407362461090087890625">
        <ele>2248.199951171875</ele>
        <time>2026-09-03T07:52:55.000Z</time>
        <extensions>
          <ns3:TrackPointExtension>
            <ns3:hr>80</ns3:hr>
            <ns3:cad>0</ns3:cad>
          </ns3:TrackPointExtension>
        </extensions>
      </trkpt>
      <trkpt lat="44.687037169933319091796875" lon="6.78071399219334125518798828125">
        <ele>2248.199951171875</ele>
        <time>2026-09-03T07:52:56.000Z</time>
        <extensions>
          <ns3:TrackPointExtension>
            <ns3:hr>80</ns3:hr>
            <ns3:cad>0</ns3:cad>
          </ns3:TrackPointExtension>
        </extensions>
      </trkpt>
      <trkpt lat="44.6870292909443378448486328125" lon="6.7807130701839923858642578125">
        <ele>2248.39990234375</ele>
        <time>2026-09-03T07:52:57.000Z</time>
        <extensions>
          <ns3:TrackPointExtension>
            <ns3:hr>80</ns3:hr>
            <ns3:cad>0</ns3:cad>
          </ns3:TrackPointExtension>
        </extensions>
      </trkpt>
      <trkpt lat="44.68702442944049835205078125" lon="6.78071399219334125518798828125">
        <ele>2248.199951171875</ele>
        <time>2026-09-03T07:52:58.000Z</time>
        <extensions>
          <ns3:TrackPointExtension>
            <ns3:hr>79</ns3:hr>
            <ns3:cad>0</ns3:cad>
          </ns3:TrackPointExtension>
        </extensions>
      </trkpt>
      <trkpt lat="44.68702250160276889801025390625" lon="6.7807137407362461090087890625">
        <ele>2248.199951171875</ele>
        <time>2026-09-03T07:52:59.000Z</time>
        <extensions>
          <ns3:TrackPointExtension>
            <ns3:hr>79</ns3:hr>
            <ns3:cad>0</ns3:cad>
          </ns3:TrackPointExtension>
        </extensions>
      </trkpt>
      <trkpt lat="44.68702065758407115936279296875" lon="6.78071265108883380889892578125">
        <ele>2248.199951171875</ele>
        <time>2026-09-03T07:53:00.000Z</time>
        <extensions>
          <ns3:TrackPointExtension>
            <ns3:hr>79</ns3:hr>
            <ns3:cad>0</ns3:cad>
          </ns3:TrackPointExtension>
        </extensions>
      </trkpt>
      <trkpt lat="44.68701696954667568206787109375" lon="6.78071281872689723968505859375">
        <ele>2248.199951171875</ele>
        <time>2026-09-03T07:53:01.000Z</time>
        <extensions>
          <ns3:TrackPointExtension>
            <ns3:hr>80</ns3:hr>
            <ns3:cad>0</ns3:cad>
          </ns3:TrackPointExtension>
        </extensions>
      </trkpt>
      <trkpt lat="44.68701512552797794342041015625" lon="6.78071265108883380889892578125">
        <ele>2248.199951171875</ele>
        <time>2026-09-03T07:53:02.000Z</time>
        <extensions>
          <ns3:TrackPointExtension>
            <ns3:hr>80</ns3:hr>
            <ns3:cad>0</ns3:cad>
          </ns3:TrackPointExtension>
        </extensions>
      </trkpt>
      <trkpt lat="44.68701479025185108184814453125" lon="6.7807144112884998321533203125">
        <ele>2248.199951171875</ele>
        <time>2026-09-03T07:53:03.000Z</time>
        <extensions>
          <ns3:TrackPointExtension>
            <ns3:hr>80</ns3:hr>
            <ns3:cad>0</ns3:cad>
          </ns3:TrackPointExtension>
        </extensions>
      </trkpt>
      <trkpt lat="44.68701579608023166656494140625" lon="6.78071558475494384765625">
        <ele>2248</ele>
        <time>2026-09-03T07:53:04.000Z</time>
        <extensions>
          <ns3:TrackPointExtension>
            <ns3:hr>80</ns3:hr>
            <ns3:cad>0</ns3:cad>
          </ns3:TrackPointExtension>
        </extensions>
      </trkpt>
      <trkpt lat="44.68701629899442195892333984375" lon="6.78071533329784870147705078125">
        <ele>2248</ele>
        <time>2026-09-03T07:53:05.000Z</time>
        <extensions>
          <ns3:TrackPointExtension>
            <ns3:hr>80</ns3:hr>
            <ns3:cad>0</ns3:cad>
          </ns3:TrackPointExtension>
        </extensions>
      </trkpt>
      <trkpt lat="44.6870172210037708282470703125" lon="6.78071617148816585540771484375">
        <ele>2248</ele>
        <time>2026-09-03T07:53:06.000Z</time>
        <extensions>
          <ns3:TrackPointExtension>
            <ns3:hr>80</ns3:hr>
            <ns3:cad>0</ns3:cad>
          </ns3:TrackPointExtension>
        </extensions>
      </trkpt>
      <trkpt lat="44.68701638281345367431640625" lon="6.780716590583324432373046875">
        <ele>2248.199951171875</ele>
        <time>2026-09-03T07:53:07.000Z</time>
        <extensions>
          <ns3:TrackPointExtension>
            <ns3:hr>81</ns3:hr>
            <ns3:cad>0</ns3:cad>
          </ns3:TrackPointExtension>
        </extensions>
      </trkpt>
      <trkpt lat="44.6870168857276439666748046875" lon="6.78071583621203899383544921875">
        <ele>2248.199951171875</ele>
        <time>2026-09-03T07:53:08.000Z</time>
        <extensions>
          <ns3:TrackPointExtension>
            <ns3:hr>81</ns3:hr>
            <ns3:cad>0</ns3:cad>
          </ns3:TrackPointExtension>
        </extensions>
      </trkpt>
      <trkpt lat="44.6870172210037708282470703125" lon="6.78071466274559497833251953125">
        <ele>2248.199951171875</ele>
        <time>2026-09-03T07:53:09.000Z</time>
        <extensions>
          <ns3:TrackPointExtension>
            <ns3:hr>81</ns3:hr>
            <ns3:cad>0</ns3:cad>
          </ns3:TrackPointExtension>
        </extensions>
      </trkpt>
      <trkpt lat="44.6870170533657073974609375" lon="6.7807150818407535552978515625">
        <ele>2248.199951171875</ele>
        <time>2026-09-03T07:53:10.000Z</time>
        <extensions>
          <ns3:TrackPointExtension>
            <ns3:hr>83</ns3:hr>
            <ns3:cad>0</ns3:cad>
          </ns3:TrackPointExtension>
        </extensions>
      </trkpt>
      <trkpt lat="44.6870170533657073974609375" lon="6.7807150818407535552978515625">
        <ele>2248.199951171875</ele>
        <time>2026-09-03T07:53:11.000Z</time>
        <extensions>
          <ns3:TrackPointExtension>
            <ns3:hr>84</ns3:hr>
            <ns3:cad>0</ns3:cad>
          </ns3:TrackPointExtension>
        </extensions>
      </trkpt>
      <trkpt lat="44.6870170533657073974609375" lon="6.7807150818407535552978515625">
        <ele>2248</ele>
        <time>2026-09-03T07:53:12.000Z</time>
        <extensions>
          <ns3:TrackPointExtension>
            <ns3:hr>84</ns3:hr>
            <ns3:cad>0</ns3:cad>
          </ns3:TrackPointExtension>
        </extensions>
      </trkpt>
      <trkpt lat="44.6870170533657073974609375" lon="6.7807150818407535552978515625">
        <ele>2248</ele>
        <time>2026-09-03T07:53:13.000Z</time>
        <extensions>
          <ns3:TrackPointExtension>
            <ns3:hr>83</ns3:hr>
            <ns3:cad>0</ns3:cad>
          </ns3:TrackPointExtension>
        </extensions>
      </trkpt>
      <trkpt lat="44.6870170533657073974609375" lon="6.7807150818407535552978515625">
        <ele>2248</ele>
        <time>2026-09-03T07:53:14.000Z</time>
        <extensions>
          <ns3:TrackPointExtension>
            <ns3:hr>83</ns3:hr>
            <ns3:cad>0</ns3:cad>
          </ns3:TrackPointExtension>
        </extensions>
      </trkpt>
      <trkpt lat="44.6870170533657073974609375" lon="6.7807150818407535552978515625">
        <ele>2248</ele>
        <time>2026-09-03T07:53:15.000Z</time>
        <extensions>
          <ns3:TrackPointExtension>
            <ns3:hr>83</ns3:hr>
            <ns3:cad>0</ns3:cad>
          </ns3:TrackPointExtension>
        </extensions>
      </trkpt>
      <trkpt lat="44.6870170533657073974609375" lon="6.7807150818407535552978515625">
        <ele>2247.800048828125</ele>
        <time>2026-09-03T07:53:16.000Z</time>
        <extensions>
          <ns3:TrackPointExtension>
            <ns3:hr>83</ns3:hr>
            <ns3:cad>0</ns3:cad>
          </ns3:TrackPointExtension>
        </extensions>
      </trkpt>
      <trkpt lat="44.6870170533657073974609375" lon="6.7807150818407535552978515625">
        <ele>2247.800048828125</ele>
        <time>2026-09-03T07:53:17.000Z</time>
        <extensions>
          <ns3:TrackPointExtension>
            <ns3:hr>83</ns3:hr>
            <ns3:cad>0</ns3:cad>
          </ns3:TrackPointExtension>
        </extensions>
      </trkpt>
      <trkpt lat="44.6870170533657073974609375" lon="6.7807150818407535552978515625">
        <ele>2247.800048828125</ele>
        <time>2026-09-03T07:53:18.000Z</time>
        <extensions>
          <ns3:TrackPointExtension>
            <ns3:hr>83</ns3:hr>
            <ns3:cad>0</ns3:cad>
          </ns3:TrackPointExtension>
        </extensions>
      </trkpt>
      <trkpt lat="44.6870170533657073974609375" lon="6.7807150818407535552978515625">
        <ele>2247.800048828125</ele>
        <time>2026-09-03T07:53:19.000Z</time>
        <extensions>
          <ns3:TrackPointExtension>
            <ns3:hr>83</ns3:hr>
            <ns3:cad>0</ns3:cad>
          </ns3:TrackPointExtension>
        </extensions>
      </trkpt>
      <trkpt lat="44.6870170533657073974609375" lon="6.7807150818407535552978515625">
        <ele>2248</ele>
        <time>2026-09-03T07:53:20.000Z</time>
        <extensions>
          <ns3:TrackPointExtension>
            <ns3:hr>83</ns3:hr>
            <ns3:cad>0</ns3:cad>
          </ns3:TrackPointExtension>
        </extensions>
      </trkpt>
      <trkpt lat="44.6870170533657073974609375" lon="6.7807150818407535552978515625">
        <ele>2248</ele>
        <time>2026-09-03T07:53:21.000Z</time>
        <extensions>
          <ns3:TrackPointExtension>
            <ns3:hr>83</ns3:hr>
            <ns3:cad>0</ns3:cad>
          </ns3:TrackPointExtension>
        </extensions>
      </trkpt>
      <trkpt lat="44.6870170533657073974609375" lon="6.7807150818407535552978515625">
        <ele>2248</ele>
        <time>2026-09-03T07:53:22.000Z</time>
        <extensions>
          <ns3:TrackPointExtension>
            <ns3:hr>83</ns3:hr>
            <ns3:cad>0</ns3:cad>
          </ns3:TrackPointExtension>
        </extensions>
      </trkpt>
      <trkpt lat="44.6870170533657073974609375" lon="6.7807150818407535552978515625">
        <ele>2248</ele>
        <time>2026-09-03T07:53:23.000Z</time>
        <extensions>
          <ns3:TrackPointExtension>
            <ns3:hr>84</ns3:hr>
            <ns3:cad>0</ns3:cad>
          </ns3:TrackPointExtension>
        </extensions>
      </trkpt>
      <trkpt lat="44.6870170533657073974609375" lon="6.7807150818407535552978515625">
        <ele>2248</ele>
        <time>2026-09-03T07:53:24.000Z</time>
        <extensions>
          <ns3:TrackPointExtension>
            <ns3:hr>84</ns3:hr>
            <ns3:cad>0</ns3:cad>
          </ns3:TrackPointExtension>
        </extensions>
      </trkpt>
      <trkpt lat="44.6870242618024349212646484375" lon="6.780708543956279754638671875">
        <ele>2248</ele>
        <time>2026-09-03T07:53:25.000Z</time>
        <extensions>
          <ns3:TrackPointExtension>
            <ns3:hr>85</ns3:hr>
            <ns3:cad>0</ns3:cad>
          </ns3:TrackPointExtension>
        </extensions>
      </trkpt>
      <trkpt lat="44.68702870421111583709716796875" lon="6.7807097174227237701416015625">
        <ele>2248</ele>
        <time>2026-09-03T07:53:26.000Z</time>
        <extensions>
          <ns3:TrackPointExtension>
            <ns3:hr>85</ns3:hr>
            <ns3:cad>0</ns3:cad>
          </ns3:TrackPointExtension>
        </extensions>
      </trkpt>
      <trkpt lat="44.68703004531562328338623046875" lon="6.78070913068950176239013671875">
        <ele>2248</ele>
        <time>2026-09-03T07:53:27.000Z</time>
        <extensions>
          <ns3:TrackPointExtension>
            <ns3:hr>85</ns3:hr>
            <ns3:cad>0</ns3:cad>
          </ns3:TrackPointExtension>
        </extensions>
      </trkpt>
      <trkpt lat="44.6870331466197967529296875" lon="6.78071063943207263946533203125">
        <ele>2248.199951171875</ele>
        <time>2026-09-03T07:53:28.000Z</time>
        <extensions>
          <ns3:TrackPointExtension>
            <ns3:hr>86</ns3:hr>
            <ns3:cad>0</ns3:cad>
          </ns3:TrackPointExtension>
        </extensions>
      </trkpt>
      <trkpt lat="44.68703323043882846832275390625" lon="6.78071223199367523193359375">
        <ele>2248.39990234375</ele>
        <time>2026-09-03T07:53:29.000Z</time>
        <extensions>
          <ns3:TrackPointExtension>
            <ns3:hr>85</ns3:hr>
            <ns3:cad>0</ns3:cad>
          </ns3:TrackPointExtension>
        </extensions>
      </trkpt>
      <trkpt lat="44.68703423626720905303955078125" lon="6.78071298636496067047119140625">
        <ele>2248.39990234375</ele>
        <time>2026-09-03T07:53:30.000Z</time>
        <extensions>
          <ns3:TrackPointExtension>
            <ns3:hr>85</ns3:hr>
            <ns3:cad>0</ns3:cad>
          </ns3:TrackPointExtension>
        </extensions>
      </trkpt>
      <trkpt lat="44.6870363317430019378662109375" lon="6.78070963360369205474853515625">
        <ele>2248.60009765625</ele>
        <time>2026-09-03T07:53:31.000Z</time>
        <extensions>
          <ns3:TrackPointExtension>
            <ns3:hr>85</ns3:hr>
            <ns3:cad>0</ns3:cad>
          </ns3:TrackPointExtension>
        </extensions>
      </trkpt>
      <trkpt lat="44.68703960068523883819580078125" lon="6.78070929832756519317626953125">
        <ele>2248.60009765625</ele>
        <time>2026-09-03T07:53:32.000Z</time>
        <extensions>
          <ns3:TrackPointExtension>
            <ns3:hr>85</ns3:hr>
            <ns3:cad>0</ns3:cad>
          </ns3:TrackPointExtension>
        </extensions>
      </trkpt>
      <trkpt lat="44.6870420314371585845947265625" lon="6.780709214508533477783203125">
        <ele>2248.60009765625</ele>
        <time>2026-09-03T07:53:33.000Z</time>
        <extensions>
          <ns3:TrackPointExtension>
            <ns3:hr>85</ns3:hr>
            <ns3:cad>0</ns3:cad>
          </ns3:TrackPointExtension>
        </extensions>
      </trkpt>
      <trkpt lat="44.687041528522968292236328125" lon="6.78070846013724803924560546875">
        <ele>2248.60009765625</ele>
        <time>2026-09-03T07:53:34.000Z</time>
        <extensions>
          <ns3:TrackPointExtension>
            <ns3:hr>85</ns3:hr>
            <ns3:cad>0</ns3:cad>
          </ns3:TrackPointExtension>
        </extensions>
      </trkpt>
      <trkpt lat="44.68703960068523883819580078125" lon="6.7807087115943431854248046875">
        <ele>2248.39990234375</ele>
        <time>2026-09-03T07:53:35.000Z</time>
        <extensions>
          <ns3:TrackPointExtension>
            <ns3:hr>85</ns3:hr>
            <ns3:cad>0</ns3:cad>
          </ns3:TrackPointExtension>
        </extensions>
      </trkpt>
      <trkpt lat="44.68703943304717540740966796875" lon="6.7807115614414215087890625">
        <ele>2248.39990234375</ele>
        <time>2026-09-03T07:53:36.000Z</time>
        <extensions>
          <ns3:TrackPointExtension>
            <ns3:hr>85</ns3:hr>
            <ns3:cad>0</ns3:cad>
          </ns3:TrackPointExtension>
        </extensions>
      </trkpt>
      <trkpt lat="44.68703725375235080718994140625" lon="6.78071030415594577789306640625">
        <ele>2248.39990234375</ele>
        <time>2026-09-03T07:53:37.000Z</time>
        <extensions>
          <ns3:TrackPointExtension>
            <ns3:hr>86</ns3:hr>
            <ns3:cad>0</ns3:cad>
          </ns3:TrackPointExtension>
        </extensions>
      </trkpt>
      <trkpt lat="44.687029458582401275634765625" lon="6.78070829249918460845947265625">
        <ele>2248.39990234375</ele>
        <time>2026-09-03T07:53:38.000Z</time>
        <extensions>
          <ns3:TrackPointExtension>
            <ns3:hr>86</ns3:hr>
            <ns3:cad>0</ns3:cad>
          </ns3:TrackPointExtension>
        </extensions>
      </trkpt>
      <trkpt lat="44.68702350743114948272705078125" lon="6.7807070352137088775634765625">
        <ele>2248.39990234375</ele>
        <time>2026-09-03T07:53:39.000Z</time>
        <extensions>
          <ns3:TrackPointExtension>
            <ns3:hr>86</ns3:hr>
            <ns3:cad>0</ns3:cad>
          </ns3:TrackPointExtension>
        </extensions>
      </trkpt>
      <trkpt lat="44.68701948411762714385986328125" lon="6.780697815120220184326171875">
        <ele>2248.199951171875</ele>
        <time>2026-09-03T07:53:40.000Z</time>
        <extensions>
          <ns3:TrackPointExtension>
            <ns3:hr>86</ns3:hr>
            <ns3:cad>0</ns3:cad>
          </ns3:TrackPointExtension>
        </extensions>
      </trkpt>
      <trkpt lat="44.68701638281345367431640625" lon="6.7806979827582836151123046875">
        <ele>2248.199951171875</ele>
        <time>2026-09-03T07:53:41.000Z</time>
        <extensions>
          <ns3:TrackPointExtension>
            <ns3:hr>87</ns3:hr>
            <ns3:cad>0</ns3:cad>
          </ns3:TrackPointExtension>
        </extensions>
      </trkpt>
      <trkpt lat="44.68701143749058246612548828125" lon="6.7806999944150447845458984375">
        <ele>2247.800048828125</ele>
        <time>2026-09-03T07:53:42.000Z</time>
        <extensions>
          <ns3:TrackPointExtension>
            <ns3:hr>91</ns3:hr>
            <ns3:cad>0</ns3:cad>
          </ns3:TrackPointExtension>
        </extensions>
      </trkpt>
      <trkpt lat="44.68701411969959735870361328125" lon="6.78070611320436000823974609375">
        <ele>2247.60009765625</ele>
        <time>2026-09-03T07:53:43.000Z</time>
        <extensions>
          <ns3:TrackPointExtension>
            <ns3:hr>91</ns3:hr>
            <ns3:cad>0</ns3:cad>
          </ns3:TrackPointExtension>
        </extensions>
      </trkpt>
      <trkpt lat="44.6870142035186290740966796875" lon="6.780713908374309539794921875">
        <ele>2247.199951171875</ele>
        <time>2026-09-03T07:53:44.000Z</time>
        <extensions>
          <ns3:TrackPointExtension>
            <ns3:hr>91</ns3:hr>
            <ns3:cad>0</ns3:cad>
          </ns3:TrackPointExtension>
        </extensions>
      </trkpt>
      <trkpt lat="44.687015376985073089599609375" lon="6.7807288281619548797607421875">
        <ele>2247</ele>
        <time>2026-09-03T07:53:45.000Z</time>
        <extensions>
          <ns3:TrackPointExtension>
            <ns3:hr>91</ns3:hr>
            <ns3:cad>60</ns3:cad>
          </ns3:TrackPointExtension>
        </extensions>
      </trkpt>
      <trkpt lat="44.68701629899442195892333984375" lon="6.78074165247380733489990234375">
        <ele>2246.800048828125</ele>
        <time>2026-09-03T07:53:46.000Z</time>
        <extensions>
          <ns3:TrackPointExtension>
            <ns3:hr>91</ns3:hr>
            <ns3:cad>60</ns3:cad>
          </ns3:TrackPointExtension>
        </extensions>
      </trkpt>
      <trkpt lat="44.6870195679366588592529296875" lon="6.78075539879500865936279296875">
        <ele>2246.800048828125</ele>
        <time>2026-09-03T07:53:47.000Z</time>
        <extensions>
          <ns3:TrackPointExtension>
            <ns3:hr>91</ns3:hr>
            <ns3:cad>0</ns3:cad>
          </ns3:TrackPointExtension>
        </extensions>
      </trkpt>
      <trkpt lat="44.6870259381830692291259765625" lon="6.78076327778398990631103515625">
        <ele>2246.60009765625</ele>
        <time>2026-09-03T07:53:48.000Z</time>
        <extensions>
          <ns3:TrackPointExtension>
            <ns3:hr>91</ns3:hr>
            <ns3:cad>0</ns3:cad>
          </ns3:TrackPointExtension>
        </extensions>
      </trkpt>
      <trkpt lat="44.68703507445752620697021484375" lon="6.78076948039233684539794921875">
        <ele>2246.60009765625</ele>
        <time>2026-09-03T07:53:49.000Z</time>
        <extensions>
          <ns3:TrackPointExtension>
            <ns3:hr>91</ns3:hr>
            <ns3:cad>75</ns3:cad>
          </ns3:TrackPointExtension>
        </extensions>
      </trkpt>
      <trkpt lat="44.6870430372655391693115234375" lon="6.78077124059200286865234375">
        <ele>2246.39990234375</ele>
        <time>2026-09-03T07:53:50.000Z</time>
        <extensions>
          <ns3:TrackPointExtension>
            <ns3:hr>91</ns3:hr>
            <ns3:cad>75</ns3:cad>
          </ns3:TrackPointExtension>
        </extensions>
      </trkpt>
      <trkpt lat="44.68705167062580585479736328125" lon="6.78077735938131809234619140625">
        <ele>2246.39990234375</ele>
        <time>2026-09-03T07:53:51.000Z</time>
        <extensions>
          <ns3:TrackPointExtension>
            <ns3:hr>91</ns3:hr>
            <ns3:cad>62</ns3:cad>
          </ns3:TrackPointExtension>
        </extensions>
      </trkpt>
      <trkpt lat="44.68705938197672367095947265625" lon="6.780780963599681854248046875">
        <ele>2246.39990234375</ele>
        <time>2026-09-03T07:53:52.000Z</time>
        <extensions>
          <ns3:TrackPointExtension>
            <ns3:hr>91</ns3:hr>
            <ns3:cad>62</ns3:cad>
          </ns3:TrackPointExtension>
        </extensions>
      </trkpt>
      <trkpt lat="44.6870668418705463409423828125" lon="6.78078607656061649322509765625">
        <ele>2246.39990234375</ele>
        <time>2026-09-03T07:53:53.000Z</time>
        <extensions>
          <ns3:TrackPointExtension>
            <ns3:hr>92</ns3:hr>
            <ns3:cad>62</ns3:cad>
          </ns3:TrackPointExtension>
        </extensions>
      </trkpt>
      <trkpt lat="44.687078408896923065185546875" lon="6.78079077042639255523681640625">
        <ele>2246.60009765625</ele>
        <time>2026-09-03T07:53:54.000Z</time>
        <extensions>
          <ns3:TrackPointExtension>
            <ns3:hr>92</ns3:hr>
            <ns3:cad>62</ns3:cad>
          </ns3:TrackPointExtension>
        </extensions>
      </trkpt>
      <trkpt lat="44.6870893053710460662841796875" lon="6.7807958833873271942138671875">
        <ele>2246.60009765625</ele>
        <time>2026-09-03T07:53:55.000Z</time>
        <extensions>
          <ns3:TrackPointExtension>
            <ns3:hr>92</ns3:hr>
            <ns3:cad>60</ns3:cad>
          </ns3:TrackPointExtension>
        </extensions>
      </trkpt>
      <trkpt lat="44.687099866569042205810546875" lon="6.78080518729984760284423828125">
        <ele>2246.60009765625</ele>
        <time>2026-09-03T07:53:56.000Z</time>
        <extensions>
          <ns3:TrackPointExtension>
            <ns3:hr>92</ns3:hr>
            <ns3:cad>58</ns3:cad>
          </ns3:TrackPointExtension>
        </extensions>
      </trkpt>
      <trkpt lat="44.687109254300594329833984375" lon="6.78081206046044826507568359375">
        <ele>2246.60009765625</ele>
        <time>2026-09-03T07:53:57.000Z</time>
        <extensions>
          <ns3:TrackPointExtension>
            <ns3:hr>92</ns3:hr>
            <ns3:cad>58</ns3:cad>
          </ns3:TrackPointExtension>
        </extensions>
      </trkpt>
      <trkpt lat="44.68712098896503448486328125" lon="6.78082027472555637359619140625">
        <ele>2246.39990234375</ele>
        <time>2026-09-03T07:53:58.000Z</time>
        <extensions>
          <ns3:TrackPointExtension>
            <ns3:hr>92</ns3:hr>
            <ns3:cad>58</ns3:cad>
          </ns3:TrackPointExtension>
        </extensions>
      </trkpt>
      <trkpt lat="44.68713146634399890899658203125" lon="6.78083150647580623626708984375">
        <ele>2246.199951171875</ele>
        <time>2026-09-03T07:53:59.000Z</time>
        <extensions>
          <ns3:TrackPointExtension>
            <ns3:hr>92</ns3:hr>
            <ns3:cad>58</ns3:cad>
          </ns3:TrackPointExtension>
        </extensions>
      </trkpt>
      <trkpt lat="44.687139093875885009765625" lon="6.7808411456644535064697265625">
        <ele>2246</ele>
        <time>2026-09-03T07:54:00.000Z</time>
        <extensions>
          <ns3:TrackPointExtension>
            <ns3:hr>91</ns3:hr>
            <ns3:cad>58</ns3:cad>
          </ns3:TrackPointExtension>
        </extensions>
      </trkpt>
      <trkpt lat="44.68714185990393161773681640625" lon="6.78085179068148136138916015625">
        <ele>2245.800048828125</ele>
        <time>2026-09-03T07:54:01.000Z</time>
        <extensions>
          <ns3:TrackPointExtension>
            <ns3:hr>91</ns3:hr>
            <ns3:cad>58</ns3:cad>
          </ns3:TrackPointExtension>
        </extensions>
      </trkpt>
      <trkpt lat="44.6871404349803924560546875" lon="6.7808626033365726470947265625">
        <ele>2245.60009765625</ele>
        <time>2026-09-03T07:54:02.000Z</time>
        <extensions>
          <ns3:TrackPointExtension>
            <ns3:hr>91</ns3:hr>
            <ns3:cad>58</ns3:cad>
          </ns3:TrackPointExtension>
        </extensions>
      </trkpt>
      <trkpt lat="44.68713716603815555572509765625" lon="6.78086972795426845550537109375">
        <ele>2245.39990234375</ele>
        <time>2026-09-03T07:54:03.000Z</time>
        <extensions>
          <ns3:TrackPointExtension>
            <ns3:hr>90</ns3:hr>
            <ns3:cad>58</ns3:cad>
          </ns3:TrackPointExtension>
        </extensions>
      </trkpt>
      <trkpt lat="44.68713280744850635528564453125" lon="6.78087358362972736358642578125">
        <ele>2245.199951171875</ele>
        <time>2026-09-03T07:54:04.000Z</time>
        <extensions>
          <ns3:TrackPointExtension>
            <ns3:hr>90</ns3:hr>
            <ns3:cad>60</ns3:cad>
          </ns3:TrackPointExtension>
        </extensions>
      </trkpt>
      <trkpt lat="44.68712643720209598541259765625" lon="6.78088028915226459503173828125">
        <ele>2245</ele>
        <time>2026-09-03T07:54:05.000Z</time>
        <extensions>
          <ns3:TrackPointExtension>
            <ns3:hr>90</ns3:hr>
            <ns3:cad>60</ns3:cad>
          </ns3:TrackPointExtension>
        </extensions>
      </trkpt>
      <trkpt lat="44.68711688183248043060302734375" lon="6.78088724613189697265625">
        <ele>2244.800048828125</ele>
        <time>2026-09-03T07:54:06.000Z</time>
        <extensions>
          <ns3:TrackPointExtension>
            <ns3:hr>91</ns3:hr>
            <ns3:cad>60</ns3:cad>
          </ns3:TrackPointExtension>
        </extensions>
      </trkpt>
      <trkpt lat="44.68710414133965969085693359375" lon="6.780889928340911865234375">
        <ele>2244.60009765625</ele>
        <time>2026-09-03T07:54:07.000Z</time>
        <extensions>
          <ns3:TrackPointExtension>
            <ns3:hr>91</ns3:hr>
            <ns3:cad>60</ns3:cad>
          </ns3:TrackPointExtension>
        </extensions>
      </trkpt>
      <trkpt lat="44.68708888627588748931884765625" lon="6.7808947898447513580322265625">
        <ele>2244.39990234375</ele>
        <time>2026-09-03T07:54:08.000Z</time>
        <extensions>
          <ns3:TrackPointExtension>
            <ns3:hr>91</ns3:hr>
            <ns3:cad>59</ns3:cad>
          </ns3:TrackPointExtension>
        </extensions>
      </trkpt>
      <trkpt lat="44.6870733797550201416015625" lon="6.78089797496795654296875">
        <ele>2244.199951171875</ele>
        <time>2026-09-03T07:54:09.000Z</time>
        <extensions>
          <ns3:TrackPointExtension>
            <ns3:hr>90</ns3:hr>
            <ns3:cad>59</ns3:cad>
          </ns3:TrackPointExtension>
        </extensions>
      </trkpt>
      <trkpt lat="44.68705921433866024017333984375" lon="6.7809025011956691741943359375">
        <ele>2244</ele>
        <time>2026-09-03T07:54:10.000Z</time>
        <extensions>
          <ns3:TrackPointExtension>
            <ns3:hr>90</ns3:hr>
            <ns3:cad>59</ns3:cad>
          </ns3:TrackPointExtension>
        </extensions>
      </trkpt>
      <trkpt lat="44.6870473958551883697509765625" lon="6.7809068597853183746337890625">
        <ele>2243.800048828125</ele>
        <time>2026-09-03T07:54:11.000Z</time>
        <extensions>
          <ns3:TrackPointExtension>
            <ns3:hr>90</ns3:hr>
            <ns3:cad>62</ns3:cad>
          </ns3:TrackPointExtension>
        </extensions>
      </trkpt>
      <trkpt lat="44.687038175761699676513671875" lon="6.78091247566044330596923828125">
        <ele>2243.800048828125</ele>
        <time>2026-09-03T07:54:12.000Z</time>
        <extensions>
          <ns3:TrackPointExtension>
            <ns3:hr>89</ns3:hr>
            <ns3:cad>62</ns3:cad>
          </ns3:TrackPointExtension>
        </extensions>
      </trkpt>
      <trkpt lat="44.6870276145637035369873046875" lon="6.7809169180691242218017578125">
        <ele>2243.60009765625</ele>
        <time>2026-09-03T07:54:13.000Z</time>
        <extensions>
          <ns3:TrackPointExtension>
            <ns3:hr>90</ns3:hr>
            <ns3:cad>62</ns3:cad>
          </ns3:TrackPointExtension>
        </extensions>
      </trkpt>
      <trkpt lat="44.68701780773699283599853515625" lon="6.780921779572963714599609375">
        <ele>2243.60009765625</ele>
        <time>2026-09-03T07:54:14.000Z</time>
        <extensions>
          <ns3:TrackPointExtension>
            <ns3:hr>90</ns3:hr>
            <ns3:cad>62</ns3:cad>
          </ns3:TrackPointExtension>
        </extensions>
      </trkpt>
      <trkpt lat="44.68700967729091644287109375" lon="6.78092907182872295379638671875">
        <ele>2243.39990234375</ele>
        <time>2026-09-03T07:54:15.000Z</time>
        <extensions>
          <ns3:TrackPointExtension>
            <ns3:hr>90</ns3:hr>
            <ns3:cad>60</ns3:cad>
          </ns3:TrackPointExtension>
        </extensions>
      </trkpt>
      <trkpt lat="44.6869987808167934417724609375" lon="6.78093661554157733917236328125">
        <ele>2243.199951171875</ele>
        <time>2026-09-03T07:54:16.000Z</time>
        <extensions>
          <ns3:TrackPointExtension>
            <ns3:hr>90</ns3:hr>
            <ns3:cad>58</ns3:cad>
          </ns3:TrackPointExtension>
        </extensions>
      </trkpt>
      <trkpt lat="44.68699081800878047943115234375" lon="6.780944578349590301513671875">
        <ele>2243</ele>
        <time>2026-09-03T07:54:17.000Z</time>
        <extensions>
          <ns3:TrackPointExtension>
            <ns3:hr>89</ns3:hr>
            <ns3:cad>58</ns3:cad>
          </ns3:TrackPointExtension>
        </extensions>
      </trkpt>
      <trkpt lat="44.686983525753021240234375" lon="6.7809529602527618408203125">
        <ele>2242.800048828125</ele>
        <time>2026-09-03T07:54:18.000Z</time>
        <extensions>
          <ns3:TrackPointExtension>
            <ns3:hr>89</ns3:hr>
            <ns3:cad>58</ns3:cad>
          </ns3:TrackPointExtension>
        </extensions>
      </trkpt>
      <trkpt lat="44.6869763173162937164306640625" lon="6.78096192888915538787841796875">
        <ele>2242.800048828125</ele>
        <time>2026-09-03T07:54:19.000Z</time>
        <extensions>
          <ns3:TrackPointExtension>
            <ns3:hr>89</ns3:hr>
            <ns3:cad>61</ns3:cad>
          </ns3:TrackPointExtension>
        </extensions>
      </trkpt>
      <trkpt lat="44.68696868978440761566162109375" lon="6.78097081370651721954345703125">
        <ele>2242.60009765625</ele>
        <time>2026-09-03T07:54:20.000Z</time>
        <extensions>
          <ns3:TrackPointExtension>
            <ns3:hr>89</ns3:hr>
            <ns3:cad>61</ns3:cad>
          </ns3:TrackPointExtension>
        </extensions>
      </trkpt>
      <trkpt lat="44.6869568713009357452392578125" lon="6.7809849791228771209716796875">
        <ele>2242.39990234375</ele>
        <time>2026-09-03T07:54:21.000Z</time>
        <extensions>
          <ns3:TrackPointExtension>
            <ns3:hr>89</ns3:hr>
            <ns3:cad>60</ns3:cad>
          </ns3:TrackPointExtension>
        </extensions>
      </trkpt>
      <trkpt lat="44.68693851493299007415771484375" lon="6.78100182674825191497802734375">
        <ele>2242.39990234375</ele>
        <time>2026-09-03T07:54:22.000Z</time>
        <extensions>
          <ns3:TrackPointExtension>
            <ns3:hr>89</ns3:hr>
            <ns3:cad>60</ns3:cad>
          </ns3:TrackPointExtension>
        </extensions>
      </trkpt>
      <trkpt lat="44.68692242167890071868896484375" lon="6.78101523779332637786865234375">
        <ele>2242</ele>
        <time>2026-09-03T07:54:23.000Z</time>
        <extensions>
          <ns3:TrackPointExtension>
            <ns3:hr>89</ns3:hr>
            <ns3:cad>60</ns3:cad>
          </ns3:TrackPointExtension>
        </extensions>
      </trkpt>
      <trkpt lat="44.6869059093296527862548828125" lon="6.78103007376194000244140625">
        <ele>2241.60009765625</ele>
        <time>2026-09-03T07:54:24.000Z</time>
        <extensions>
          <ns3:TrackPointExtension>
            <ns3:hr>88</ns3:hr>
            <ns3:cad>60</ns3:cad>
          </ns3:TrackPointExtension>
        </extensions>
      </trkpt>
      <trkpt lat="44.68688302673399448394775390625" lon="6.78104675374925136566162109375">
        <ele>2241.199951171875</ele>
        <time>2026-09-03T07:54:25.000Z</time>
        <extensions>
          <ns3:TrackPointExtension>
            <ns3:hr>89</ns3:hr>
            <ns3:cad>60</ns3:cad>
          </ns3:TrackPointExtension>
        </extensions>
      </trkpt>
      <trkpt lat="44.68685545027256011962890625" lon="6.781059913337230682373046875">
        <ele>2240.800048828125</ele>
        <time>2026-09-03T07:54:26.000Z</time>
        <extensions>
          <ns3:TrackPointExtension>
            <ns3:hr>89</ns3:hr>
            <ns3:cad>60</ns3:cad>
          </ns3:TrackPointExtension>
        </extensions>
      </trkpt>
      <trkpt lat="44.68683206476271152496337890625" lon="6.7810667864978313446044921875">
        <ele>2240.199951171875</ele>
        <time>2026-09-03T07:54:27.000Z</time>
        <extensions>
          <ns3:TrackPointExtension>
            <ns3:hr>88</ns3:hr>
            <ns3:cad>60</ns3:cad>
          </ns3:TrackPointExtension>
        </extensions>
      </trkpt>
      <trkpt lat="44.68680038116872310638427734375" lon="6.78107994608581066131591796875">
        <ele>2240</ele>
        <time>2026-09-03T07:54:28.000Z</time>
        <extensions>
          <ns3:TrackPointExtension>
            <ns3:hr>89</ns3:hr>
            <ns3:cad>83</ns3:cad>
          </ns3:TrackPointExtension>
        </extensions>
      </trkpt>
      <trkpt lat="44.68677339144051074981689453125" lon="6.78108849562704563140869140625">
        <ele>2239.60009765625</ele>
        <time>2026-09-03T07:54:29.000Z</time>
        <extensions>
          <ns3:TrackPointExtension>
            <ns3:hr>89</ns3:hr>
            <ns3:cad>85</ns3:cad>
          </ns3:TrackPointExtension>
        </extensions>
      </trkpt>
      <trkpt lat="44.68674154020845890045166015625" lon="6.78110274486243724822998046875">
        <ele>2239.199951171875</ele>
        <time>2026-09-03T07:54:30.000Z</time>
        <extensions>
          <ns3:TrackPointExtension>
            <ns3:hr>90</ns3:hr>
            <ns3:cad>85</ns3:cad>
          </ns3:TrackPointExtension>
        </extensions>
      </trkpt>
      <trkpt lat="44.6867191605269908905029296875" lon="6.78111732937395572662353515625">
        <ele>2239</ele>
        <time>2026-09-03T07:54:31.000Z</time>
        <extensions>
          <ns3:TrackPointExtension>
            <ns3:hr>91</ns3:hr>
            <ns3:cad>85</ns3:cad>
          </ns3:TrackPointExtension>
        </extensions>
      </trkpt>
      <trkpt lat="44.68669862486422061920166015625" lon="6.7811325006186962127685546875">
        <ele>2238.60009765625</ele>
        <time>2026-09-03T07:54:32.000Z</time>
        <extensions>
          <ns3:TrackPointExtension>
            <ns3:hr>92</ns3:hr>
            <ns3:cad>85</ns3:cad>
          </ns3:TrackPointExtension>
        </extensions>
      </trkpt>
      <trkpt lat="44.6866624988615512847900390625" lon="6.7811472527682781219482421875">
        <ele>2238.39990234375</ele>
        <time>2026-09-03T07:54:33.000Z</time>
        <extensions>
          <ns3:TrackPointExtension>
            <ns3:hr>94</ns3:hr>
            <ns3:cad>85</ns3:cad>
          </ns3:TrackPointExtension>
        </extensions>
      </trkpt>
      <trkpt lat="44.68663819134235382080078125" lon="6.7811568081378936767578125">
        <ele>2238.199951171875</ele>
        <time>2026-09-03T07:54:34.000Z</time>
        <extensions>
          <ns3:TrackPointExtension>
            <ns3:hr>95</ns3:hr>
            <ns3:cad>85</ns3:cad>
          </ns3:TrackPointExtension>
        </extensions>
      </trkpt>
      <trkpt lat="44.68660960905253887176513671875" lon="6.78117533214390277862548828125">
        <ele>2237.800048828125</ele>
        <time>2026-09-03T07:54:35.000Z</time>
        <extensions>
          <ns3:TrackPointExtension>
            <ns3:hr>97</ns3:hr>
            <ns3:cad>85</ns3:cad>
          </ns3:TrackPointExtension>
        </extensions>
      </trkpt>
      <trkpt lat="44.68658211641013622283935546875" lon="6.78118824027478694915771484375">
        <ele>2237.39990234375</ele>
        <time>2026-09-03T07:54:36.000Z</time>
        <extensions>
          <ns3:TrackPointExtension>
            <ns3:hr>98</ns3:hr>
            <ns3:cad>85</ns3:cad>
          </ns3:TrackPointExtension>
        </extensions>
      </trkpt>
      <trkpt lat="44.6865565516054630279541015625" lon="6.781204752624034881591796875">
        <ele>2237</ele>
        <time>2026-09-03T07:54:37.000Z</time>
        <extensions>
          <ns3:TrackPointExtension>
            <ns3:hr>100</ns3:hr>
            <ns3:cad>85</ns3:cad>
          </ns3:TrackPointExtension>
        </extensions>
      </trkpt>
      <trkpt lat="44.68652863986790180206298828125" lon="6.78122009150683879852294921875">
        <ele>2236.60009765625</ele>
        <time>2026-09-03T07:54:38.000Z</time>
        <extensions>
          <ns3:TrackPointExtension>
            <ns3:hr>101</ns3:hr>
            <ns3:cad>85</ns3:cad>
          </ns3:TrackPointExtension>
        </extensions>
      </trkpt>
      <trkpt lat="44.6865059249103069305419921875" lon="6.78123165853321552276611328125">
        <ele>2236.199951171875</ele>
        <time>2026-09-03T07:54:39.000Z</time>
        <extensions>
          <ns3:TrackPointExtension>
            <ns3:hr>103</ns3:hr>
            <ns3:cad>85</ns3:cad>
          </ns3:TrackPointExtension>
        </extensions>
      </trkpt>
      <trkpt lat="44.68648153357207775115966796875" lon="6.78124691359698772430419921875">
        <ele>2235.60009765625</ele>
        <time>2026-09-03T07:54:40.000Z</time>
        <extensions>
          <ns3:TrackPointExtension>
            <ns3:hr>103</ns3:hr>
            <ns3:cad>85</ns3:cad>
          </ns3:TrackPointExtension>
        </extensions>
      </trkpt>
      <trkpt lat="44.686463177204132080078125" lon="6.78126082755625247955322265625">
        <ele>2235.199951171875</ele>
        <time>2026-09-03T07:54:41.000Z</time>
        <extensions>
          <ns3:TrackPointExtension>
            <ns3:hr>103</ns3:hr>
            <ns3:cad>85</ns3:cad>
          </ns3:TrackPointExtension>
        </extensions>
      </trkpt>
      <trkpt lat="44.68643836677074432373046875" lon="6.78128463216125965118408203125">
        <ele>2234.60009765625</ele>
        <time>2026-09-03T07:54:42.000Z</time>
        <extensions>
          <ns3:TrackPointExtension>
            <ns3:hr>102</ns3:hr>
            <ns3:cad>85</ns3:cad>
          </ns3:TrackPointExtension>
        </extensions>
      </trkpt>
      <trkpt lat="44.68642084859311580657958984375" lon="6.78129837848246097564697265625">
        <ele>2234</ele>
        <time>2026-09-03T07:54:43.000Z</time>
        <extensions>
          <ns3:TrackPointExtension>
            <ns3:hr>102</ns3:hr>
            <ns3:cad>85</ns3:cad>
          </ns3:TrackPointExtension>
        </extensions>
      </trkpt>
      <trkpt lat="44.686398468911647796630859375" lon="6.78132117725908756256103515625">
        <ele>2233.60009765625</ele>
        <time>2026-09-03T07:54:44.000Z</time>
        <extensions>
          <ns3:TrackPointExtension>
            <ns3:hr>101</ns3:hr>
            <ns3:cad>85</ns3:cad>
          </ns3:TrackPointExtension>
        </extensions>
      </trkpt>
      <trkpt lat="44.68638514168560504913330078125" lon="6.78133458830416202545166015625">
        <ele>2233.39990234375</ele>
        <time>2026-09-03T07:54:45.000Z</time>
        <extensions>
          <ns3:TrackPointExtension>
            <ns3:hr>101</ns3:hr>
            <ns3:cad>85</ns3:cad>
          </ns3:TrackPointExtension>
        </extensions>
      </trkpt>
      <trkpt lat="44.68637675978243350982666015625" lon="6.78134062327444553375244140625">
        <ele>2233</ele>
        <time>2026-09-03T07:54:46.000Z</time>
        <extensions>
          <ns3:TrackPointExtension>
            <ns3:hr>100</ns3:hr>
            <ns3:cad>85</ns3:cad>
          </ns3:TrackPointExtension>
        </extensions>
      </trkpt>
      <trkpt lat="44.68636737205088138580322265625" lon="6.78135151974856853485107421875">
        <ele>2232.800048828125</ele>
        <time>2026-09-03T07:54:47.000Z</time>
        <extensions>
          <ns3:TrackPointExtension>
            <ns3:hr>101</ns3:hr>
            <ns3:cad>85</ns3:cad>
          </ns3:TrackPointExtension>
        </extensions>
      </trkpt>
      <trkpt lat="44.686362929642200469970703125" lon="6.781358309090137481689453125">
        <ele>2232.60009765625</ele>
        <time>2026-09-03T07:54:48.000Z</time>
        <extensions>
          <ns3:TrackPointExtension>
            <ns3:hr>102</ns3:hr>
            <ns3:cad>85</ns3:cad>
          </ns3:TrackPointExtension>
        </extensions>
      </trkpt>
      <trkpt lat="44.68635412864387035369873046875" lon="6.78136937320232391357421875">
        <ele>2232.60009765625</ele>
        <time>2026-09-03T07:54:49.000Z</time>
        <extensions>
          <ns3:TrackPointExtension>
            <ns3:hr>102</ns3:hr>
            <ns3:cad>85</ns3:cad>
          </ns3:TrackPointExtension>
        </extensions>
      </trkpt>
      <trkpt lat="44.6863436512649059295654296875" lon="6.781381107866764068603515625">
        <ele>2232.39990234375</ele>
        <time>2026-09-03T07:54:50.000Z</time>
        <extensions>
          <ns3:TrackPointExtension>
            <ns3:hr>103</ns3:hr>
            <ns3:cad>85</ns3:cad>
          </ns3:TrackPointExtension>
        </extensions>
      </trkpt>
      <trkpt lat="44.68633904121816158294677734375" lon="6.7813953571021556854248046875">
        <ele>2232.199951171875</ele>
        <time>2026-09-03T07:54:51.000Z</time>
        <extensions>
          <ns3:TrackPointExtension>
            <ns3:hr>103</ns3:hr>
            <ns3:cad>85</ns3:cad>
          </ns3:TrackPointExtension>
        </extensions>
      </trkpt>
      <trkpt lat="44.68632227741181850433349609375" lon="6.78140298463404178619384765625">
        <ele>2232</ele>
        <time>2026-09-03T07:54:52.000Z</time>
        <extensions>
          <ns3:TrackPointExtension>
            <ns3:hr>104</ns3:hr>
            <ns3:cad>85</ns3:cad>
          </ns3:TrackPointExtension>
        </extensions>
      </trkpt>
      <trkpt lat="44.68630786053836345672607421875" lon="6.7813940159976482391357421875">
        <ele>2231.800048828125</ele>
        <time>2026-09-03T07:54:53.000Z</time>
        <extensions>
          <ns3:TrackPointExtension>
            <ns3:hr>104</ns3:hr>
            <ns3:cad>60</ns3:cad>
          </ns3:TrackPointExtension>
        </extensions>
      </trkpt>
      <trkpt lat="44.6863027475774288177490234375" lon="6.78137607872486114501953125">
        <ele>2231.60009765625</ele>
        <time>2026-09-03T07:54:54.000Z</time>
        <extensions>
          <ns3:TrackPointExtension>
            <ns3:hr>104</ns3:hr>
            <ns3:cad>60</ns3:cad>
          </ns3:TrackPointExtension>
        </extensions>
      </trkpt>
      <trkpt lat="44.68630266375839710235595703125" lon="6.7813584767282009124755859375">
        <ele>2231.39990234375</ele>
        <time>2026-09-03T07:54:55.000Z</time>
        <extensions>
          <ns3:TrackPointExtension>
            <ns3:hr>104</ns3:hr>
            <ns3:cad>60</ns3:cad>
          </ns3:TrackPointExtension>
        </extensions>
      </trkpt>
      <trkpt lat="44.6863054297864437103271484375" lon="6.78134045563638210296630859375">
        <ele>2231.39990234375</ele>
        <time>2026-09-03T07:54:56.000Z</time>
        <extensions>
          <ns3:TrackPointExtension>
            <ns3:hr>104</ns3:hr>
            <ns3:cad>60</ns3:cad>
          </ns3:TrackPointExtension>
        </extensions>
      </trkpt>
      <trkpt lat="44.68630987219512462615966796875" lon="6.7813249491155147552490234375">
        <ele>2231.199951171875</ele>
        <time>2026-09-03T07:54:57.000Z</time>
        <extensions>
          <ns3:TrackPointExtension>
            <ns3:hr>104</ns3:hr>
            <ns3:cad>60</ns3:cad>
          </ns3:TrackPointExtension>
        </extensions>
      </trkpt>
      <trkpt lat="44.6863104589283466339111328125" lon="6.78131279535591602325439453125">
        <ele>2231</ele>
        <time>2026-09-03T07:54:58.000Z</time>
        <extensions>
          <ns3:TrackPointExtension>
            <ns3:hr>104</ns3:hr>
            <ns3:cad>60</ns3:cad>
          </ns3:TrackPointExtension>
        </extensions>
      </trkpt>
      <trkpt lat="44.686311967670917510986328125" lon="6.78129695355892181396484375">
        <ele>2230.800048828125</ele>
        <time>2026-09-03T07:54:59.000Z</time>
        <extensions>
          <ns3:TrackPointExtension>
            <ns3:hr>104</ns3:hr>
            <ns3:cad>60</ns3:cad>
          </ns3:TrackPointExtension>
        </extensions>
      </trkpt>
      <trkpt lat="44.68631506897509098052978515625" lon="6.78127725608646869659423828125">
        <ele>2230.60009765625</ele>
        <time>2026-09-03T07:55:00.000Z</time>
        <extensions>
          <ns3:TrackPointExtension>
            <ns3:hr>104</ns3:hr>
            <ns3:cad>60</ns3:cad>
          </ns3:TrackPointExtension>
        </extensions>
      </trkpt>
      <trkpt lat="44.68631708063185214996337890625" lon="6.78125630132853984832763671875">
        <ele>2230.39990234375</ele>
        <time>2026-09-03T07:55:01.000Z</time>
        <extensions>
          <ns3:TrackPointExtension>
            <ns3:hr>104</ns3:hr>
            <ns3:cad>60</ns3:cad>
          </ns3:TrackPointExtension>
        </extensions>
      </trkpt>
      <trkpt lat="44.6863188408315181732177734375" lon="6.78123903460800647735595703125">
        <ele>2230.199951171875</ele>
        <time>2026-09-03T07:55:02.000Z</time>
        <extensions>
          <ns3:TrackPointExtension>
            <ns3:hr>103</ns3:hr>
            <ns3:cad>60</ns3:cad>
          </ns3:TrackPointExtension>
        </extensions>
      </trkpt>
      <trkpt lat="44.68631900846958160400390625" lon="6.78121405653655529022216796875">
        <ele>2230.199951171875</ele>
        <time>2026-09-03T07:55:03.000Z</time>
        <extensions>
          <ns3:TrackPointExtension>
            <ns3:hr>103</ns3:hr>
            <ns3:cad>61</ns3:cad>
          </ns3:TrackPointExtension>
        </extensions>
      </trkpt>
      <trkpt lat="44.68631942756474018096923828125" lon="6.781189329922199249267578125">
        <ele>2230</ele>
        <time>2026-09-03T07:55:04.000Z</time>
        <extensions>
          <ns3:TrackPointExtension>
            <ns3:hr>102</ns3:hr>
            <ns3:cad>61</ns3:cad>
          </ns3:TrackPointExtension>
        </extensions>
      </trkpt>
      <trkpt lat="44.68631775118410587310791015625" lon="6.7811675369739532470703125">
        <ele>2229.60009765625</ele>
        <time>2026-09-03T07:55:05.000Z</time>
        <extensions>
          <ns3:TrackPointExtension>
            <ns3:hr>102</ns3:hr>
            <ns3:cad>60</ns3:cad>
          </ns3:TrackPointExtension>
        </extensions>
      </trkpt>
      <trkpt lat="44.68631322495639324188232421875" lon="6.78115219809114933013916015625">
        <ele>2229.39990234375</ele>
        <time>2026-09-03T07:55:06.000Z</time>
        <extensions>
          <ns3:TrackPointExtension>
            <ns3:hr>101</ns3:hr>
            <ns3:cad>60</ns3:cad>
          </ns3:TrackPointExtension>
        </extensions>
      </trkpt>
      <trkpt lat="44.686305262148380279541015625" lon="6.781141720712184906005859375">
        <ele>2229.199951171875</ele>
        <time>2026-09-03T07:55:07.000Z</time>
        <extensions>
          <ns3:TrackPointExtension>
            <ns3:hr>100</ns3:hr>
            <ns3:cad>60</ns3:cad>
          </ns3:TrackPointExtension>
        </extensions>
      </trkpt>
      <trkpt lat="44.686290509998798370361328125" lon="6.78114473819732666015625">
        <ele>2229</ele>
        <time>2026-09-03T07:55:08.000Z</time>
        <extensions>
          <ns3:TrackPointExtension>
            <ns3:hr>100</ns3:hr>
            <ns3:cad>63</ns3:cad>
          </ns3:TrackPointExtension>
        </extensions>
      </trkpt>
      <trkpt lat="44.6862789429724216461181640625" lon="6.7811529524624347686767578125">
        <ele>2228.60009765625</ele>
        <time>2026-09-03T07:55:09.000Z</time>
        <extensions>
          <ns3:TrackPointExtension>
            <ns3:hr>99</ns3:hr>
            <ns3:cad>63</ns3:cad>
          </ns3:TrackPointExtension>
        </extensions>
      </trkpt>
      <trkpt lat="44.68626201152801513671875" lon="6.7811606638133525848388671875">
        <ele>2228.39990234375</ele>
        <time>2026-09-03T07:55:10.000Z</time>
        <extensions>
          <ns3:TrackPointExtension>
            <ns3:hr>99</ns3:hr>
            <ns3:cad>63</ns3:cad>
          </ns3:TrackPointExtension>
        </extensions>
      </trkpt>
      <trkpt lat="44.68624524772167205810546875" lon="6.7811777628958225250244140625">
        <ele>2227.800048828125</ele>
        <time>2026-09-03T07:55:11.000Z</time>
        <extensions>
          <ns3:TrackPointExtension>
            <ns3:hr>100</ns3:hr>
            <ns3:cad>63</ns3:cad>
          </ns3:TrackPointExtension>
        </extensions>
      </trkpt>
      <trkpt lat="44.686224460601806640625" lon="6.7811951972544193267822265625">
        <ele>2227.39990234375</ele>
        <time>2026-09-03T07:55:12.000Z</time>
        <extensions>
          <ns3:TrackPointExtension>
            <ns3:hr>100</ns3:hr>
            <ns3:cad>63</ns3:cad>
          </ns3:TrackPointExtension>
        </extensions>
      </trkpt>
      <trkpt lat="44.6862058527767658233642578125" lon="6.78121305070817470550537109375">
        <ele>2226.800048828125</ele>
        <time>2026-09-03T07:55:13.000Z</time>
        <extensions>
          <ns3:TrackPointExtension>
            <ns3:hr>100</ns3:hr>
            <ns3:cad>83</ns3:cad>
          </ns3:TrackPointExtension>
        </extensions>
      </trkpt>
      <trkpt lat="44.68618489801883697509765625" lon="6.781234256923198699951171875">
        <ele>2226.39990234375</ele>
        <time>2026-09-03T07:55:14.000Z</time>
        <extensions>
          <ns3:TrackPointExtension>
            <ns3:hr>100</ns3:hr>
            <ns3:cad>83</ns3:cad>
          </ns3:TrackPointExtension>
        </extensions>
      </trkpt>
      <trkpt lat="44.6861669607460498809814453125" lon="6.78125345148146152496337890625">
        <ele>2226</ele>
        <time>2026-09-03T07:55:15.000Z</time>
        <extensions>
          <ns3:TrackPointExtension>
            <ns3:hr>99</ns3:hr>
            <ns3:cad>83</ns3:cad>
          </ns3:TrackPointExtension>
        </extensions>
      </trkpt>
      <trkpt lat="44.6861471794545650482177734375" lon="6.7812568880617618560791015625">
        <ele>2225.800048828125</ele>
        <time>2026-09-03T07:55:16.000Z</time>
        <extensions>
          <ns3:TrackPointExtension>
            <ns3:hr>100</ns3:hr>
            <ns3:cad>83</ns3:cad>
          </ns3:TrackPointExtension>
        </extensions>
      </trkpt>
      <trkpt lat="44.68611926771700382232666015625" lon="6.7812667787075042724609375">
        <ele>2225.60009765625</ele>
        <time>2026-09-03T07:55:17.000Z</time>
        <extensions>
          <ns3:TrackPointExtension>
            <ns3:hr>100</ns3:hr>
            <ns3:cad>45</ns3:cad>
          </ns3:TrackPointExtension>
        </extensions>
      </trkpt>
      <trkpt lat="44.68610652722418308258056640625" lon="6.781285889446735382080078125">
        <ele>2225.199951171875</ele>
        <time>2026-09-03T07:55:18.000Z</time>
        <extensions>
          <ns3:TrackPointExtension>
            <ns3:hr>100</ns3:hr>
            <ns3:cad>45</ns3:cad>
          </ns3:TrackPointExtension>
        </extensions>
      </trkpt>
      <trkpt lat="44.6860797889530658721923828125" lon="6.78130558691918849945068359375">
        <ele>2224.800048828125</ele>
        <time>2026-09-03T07:55:19.000Z</time>
        <extensions>
          <ns3:TrackPointExtension>
            <ns3:hr>101</ns3:hr>
            <ns3:cad>45</ns3:cad>
          </ns3:TrackPointExtension>
        </extensions>
      </trkpt>
      <trkpt lat="44.6860556490719318389892578125" lon="6.78131497465074062347412109375">
        <ele>2224.39990234375</ele>
        <time>2026-09-03T07:55:20.000Z</time>
        <extensions>
          <ns3:TrackPointExtension>
            <ns3:hr>101</ns3:hr>
            <ns3:cad>45</ns3:cad>
          </ns3:TrackPointExtension>
        </extensions>
      </trkpt>
      <trkpt lat="44.686030335724353790283203125" lon="6.78132721222937107086181640625">
        <ele>2224</ele>
        <time>2026-09-03T07:55:21.000Z</time>
        <extensions>
          <ns3:TrackPointExtension>
            <ns3:hr>102</ns3:hr>
            <ns3:cad>45</ns3:cad>
          </ns3:TrackPointExtension>
        </extensions>
      </trkpt>
      <trkpt lat="44.6860053576529026031494140625" lon="6.78133056499063968658447265625">
        <ele>2223.60009765625</ele>
        <time>2026-09-03T07:55:22.000Z</time>
        <extensions>
          <ns3:TrackPointExtension>
            <ns3:hr>102</ns3:hr>
            <ns3:cad>45</ns3:cad>
          </ns3:TrackPointExtension>
        </extensions>
      </trkpt>
      <trkpt lat="44.68598482199013233184814453125" lon="6.7813350073993206024169921875">
        <ele>2223.199951171875</ele>
        <time>2026-09-03T07:55:23.000Z</time>
        <extensions>
          <ns3:TrackPointExtension>
            <ns3:hr>103</ns3:hr>
            <ns3:cad>45</ns3:cad>
          </ns3:TrackPointExtension>
        </extensions>
      </trkpt>
      <trkpt lat="44.68596093356609344482421875" lon="6.78134330548346042633056640625">
        <ele>2223</ele>
        <time>2026-09-03T07:55:24.000Z</time>
        <extensions>
          <ns3:TrackPointExtension>
            <ns3:hr>103</ns3:hr>
            <ns3:cad>45</ns3:cad>
          </ns3:TrackPointExtension>
        </extensions>
      </trkpt>
      <trkpt lat="44.68594743870198726654052734375" lon="6.7813490889966487884521484375">
        <ele>2222.60009765625</ele>
        <time>2026-09-03T07:55:25.000Z</time>
        <extensions>
          <ns3:TrackPointExtension>
            <ns3:hr>103</ns3:hr>
            <ns3:cad>45</ns3:cad>
          </ns3:TrackPointExtension>
        </extensions>
      </trkpt>
      <trkpt lat="44.68591793440282344818115234375" lon="6.78135436959564685821533203125">
        <ele>2222.60009765625</ele>
        <time>2026-09-03T07:55:26.000Z</time>
        <extensions>
          <ns3:TrackPointExtension>
            <ns3:hr>103</ns3:hr>
            <ns3:cad>87</ns3:cad>
          </ns3:TrackPointExtension>
        </extensions>
      </trkpt>
      <trkpt lat="44.68589714728295803070068359375" lon="6.781356632709503173828125">
        <ele>2222.199951171875</ele>
        <time>2026-09-03T07:55:27.000Z</time>
        <extensions>
          <ns3:TrackPointExtension>
            <ns3:hr>104</ns3:hr>
            <ns3:cad>87</ns3:cad>
          </ns3:TrackPointExtension>
        </extensions>
      </trkpt>
      <trkpt lat="44.68587501905858516693115234375" lon="6.78135872818529605865478515625">
        <ele>2222</ele>
        <time>2026-09-03T07:55:28.000Z</time>
        <extensions>
          <ns3:TrackPointExtension>
            <ns3:hr>104</ns3:hr>
            <ns3:cad>87</ns3:cad>
          </ns3:TrackPointExtension>
        </extensions>
      </trkpt>
      <trkpt lat="44.68585104681551456451416015625" lon="6.7813635058701038360595703125">
        <ele>2221.60009765625</ele>
        <time>2026-09-03T07:55:29.000Z</time>
        <extensions>
          <ns3:TrackPointExtension>
            <ns3:hr>104</ns3:hr>
            <ns3:cad>85</ns3:cad>
          </ns3:TrackPointExtension>
        </extensions>
      </trkpt>
      <trkpt lat="44.6858367137610912322998046875" lon="6.78136945702135562896728515625">
        <ele>2221.199951171875</ele>
        <time>2026-09-03T07:55:30.000Z</time>
        <extensions>
          <ns3:TrackPointExtension>
            <ns3:hr>105</ns3:hr>
            <ns3:cad>85</ns3:cad>
          </ns3:TrackPointExtension>
        </extensions>
      </trkpt>
      <trkpt lat="44.68581181950867176055908203125" lon="6.78137113340198993682861328125">
        <ele>2220.800048828125</ele>
        <time>2026-09-03T07:55:31.000Z</time>
        <extensions>
          <ns3:TrackPointExtension>
            <ns3:hr>106</ns3:hr>
            <ns3:cad>87</ns3:cad>
          </ns3:TrackPointExtension>
        </extensions>
      </trkpt>
      <trkpt lat="44.68579731881618499755859375" lon="6.7813785932958126068115234375">
        <ele>2220.60009765625</ele>
        <time>2026-09-03T07:55:32.000Z</time>
        <extensions>
          <ns3:TrackPointExtension>
            <ns3:hr>106</ns3:hr>
            <ns3:cad>87</ns3:cad>
          </ns3:TrackPointExtension>
        </extensions>
      </trkpt>
      <trkpt lat="44.68577477149665355682373046875" lon="6.78138186223804950714111328125">
        <ele>2220.39990234375</ele>
        <time>2026-09-03T07:55:33.000Z</time>
        <extensions>
          <ns3:TrackPointExtension>
            <ns3:hr>107</ns3:hr>
            <ns3:cad>87</ns3:cad>
          </ns3:TrackPointExtension>
        </extensions>
      </trkpt>
      <trkpt lat="44.6857552416622638702392578125" lon="6.78137767128646373748779296875">
        <ele>2220.199951171875</ele>
        <time>2026-09-03T07:55:34.000Z</time>
        <extensions>
          <ns3:TrackPointExtension>
            <ns3:hr>108</ns3:hr>
            <ns3:cad>87</ns3:cad>
          </ns3:TrackPointExtension>
        </extensions>
      </trkpt>
      <trkpt lat="44.68574040569365024566650390625" lon="6.78137985058128833770751953125">
        <ele>2220</ele>
        <time>2026-09-03T07:55:35.000Z</time>
        <extensions>
          <ns3:TrackPointExtension>
            <ns3:hr>109</ns3:hr>
            <ns3:cad>83</ns3:cad>
          </ns3:TrackPointExtension>
        </extensions>
      </trkpt>
      <trkpt lat="44.6857146732509136199951171875" lon="6.7813873104751110076904296875">
        <ele>2219.60009765625</ele>
        <time>2026-09-03T07:55:36.000Z</time>
        <extensions>
          <ns3:TrackPointExtension>
            <ns3:hr>109</ns3:hr>
            <ns3:cad>83</ns3:cad>
          </ns3:TrackPointExtension>
        </extensions>
      </trkpt>
      <trkpt lat="44.68569447286427021026611328125" lon="6.78138940595090389251708984375">
        <ele>2219.39990234375</ele>
        <time>2026-09-03T07:55:37.000Z</time>
        <extensions>
          <ns3:TrackPointExtension>
            <ns3:hr>110</ns3:hr>
            <ns3:cad>83</ns3:cad>
          </ns3:TrackPointExtension>
        </extensions>
      </trkpt>
      <trkpt lat="44.68567502684891223907470703125" lon="6.7813933454453945159912109375">
        <ele>2219</ele>
        <time>2026-09-03T07:55:38.000Z</time>
        <extensions>
          <ns3:TrackPointExtension>
            <ns3:hr>110</ns3:hr>
            <ns3:cad>83</ns3:cad>
          </ns3:TrackPointExtension>
        </extensions>
      </trkpt>
      <trkpt lat="44.6856516413390636444091796875" lon="6.78140248171985149383544921875">
        <ele>2218.60009765625</ele>
        <time>2026-09-03T07:55:39.000Z</time>
        <extensions>
          <ns3:TrackPointExtension>
            <ns3:hr>110</ns3:hr>
            <ns3:cad>82</ns3:cad>
          </ns3:TrackPointExtension>
        </extensions>
      </trkpt>
      <trkpt lat="44.685632698237895965576171875" lon="6.781407929956912994384765625">
        <ele>2218.39990234375</ele>
        <time>2026-09-03T07:55:40.000Z</time>
        <extensions>
          <ns3:TrackPointExtension>
            <ns3:hr>110</ns3:hr>
            <ns3:cad>81</ns3:cad>
          </ns3:TrackPointExtension>
        </extensions>
      </trkpt>
      <trkpt lat="44.68561492860317230224609375" lon="6.7814151383936405181884765625">
        <ele>2218.39990234375</ele>
        <time>2026-09-03T07:55:41.000Z</time>
        <extensions>
          <ns3:TrackPointExtension>
            <ns3:hr>111</ns3:hr>
            <ns3:cad>81</ns3:cad>
          </ns3:TrackPointExtension>
        </extensions>
      </trkpt>
      <trkpt lat="44.685597829520702362060546875" lon="6.7814154736697673797607421875">
        <ele>2218.39990234375</ele>
        <time>2026-09-03T07:55:42.000Z</time>
        <extensions>
          <ns3:TrackPointExtension>
            <ns3:hr>111</ns3:hr>
            <ns3:cad>82</ns3:cad>
          </ns3:TrackPointExtension>
        </extensions>
      </trkpt>
      <trkpt lat="44.685581736266613006591796875" lon="6.781419999897480010986328125">
        <ele>2218.39990234375</ele>
        <time>2026-09-03T07:55:43.000Z</time>
        <extensions>
          <ns3:TrackPointExtension>
            <ns3:hr>111</ns3:hr>
            <ns3:cad>82</ns3:cad>
          </ns3:TrackPointExtension>
        </extensions>
      </trkpt>
      <trkpt lat="44.68556421808898448944091796875" lon="6.7814191617071628570556640625">
        <ele>2218.199951171875</ele>
        <time>2026-09-03T07:55:44.000Z</time>
        <extensions>
          <ns3:TrackPointExtension>
            <ns3:hr>111</ns3:hr>
            <ns3:cad>82</ns3:cad>
          </ns3:TrackPointExtension>
        </extensions>
      </trkpt>
      <trkpt lat="44.68554661609232425689697265625" lon="6.78142125718295574188232421875">
        <ele>2218.199951171875</ele>
        <time>2026-09-03T07:55:45.000Z</time>
        <extensions>
          <ns3:TrackPointExtension>
            <ns3:hr>111</ns3:hr>
            <ns3:cad>68</ns3:cad>
          </ns3:TrackPointExtension>
        </extensions>
      </trkpt>
      <trkpt lat="44.6855332888662815093994140625" lon="6.78142293356359004974365234375">
        <ele>2218</ele>
        <time>2026-09-03T07:55:46.000Z</time>
        <extensions>
          <ns3:TrackPointExtension>
            <ns3:hr>111</ns3:hr>
            <ns3:cad>67</ns3:cad>
          </ns3:TrackPointExtension>
        </extensions>
      </trkpt>
      <trkpt lat="44.68551996164023876190185546875" lon="6.781419999897480010986328125">
        <ele>2218</ele>
        <time>2026-09-03T07:55:47.000Z</time>
        <extensions>
          <ns3:TrackPointExtension>
            <ns3:hr>112</ns3:hr>
            <ns3:cad>67</ns3:cad>
          </ns3:TrackPointExtension>
        </extensions>
      </trkpt>
      <trkpt lat="44.68550671823322772979736328125" lon="6.7814245261251926422119140625">
        <ele>2217.800048828125</ele>
        <time>2026-09-03T07:55:48.000Z</time>
        <extensions>
          <ns3:TrackPointExtension>
            <ns3:hr>111</ns3:hr>
            <ns3:cad>67</ns3:cad>
          </ns3:TrackPointExtension>
        </extensions>
      </trkpt>
      <trkpt lat="44.685492217540740966796875" lon="6.78142033517360687255859375">
        <ele>2217.800048828125</ele>
        <time>2026-09-03T07:55:49.000Z</time>
        <extensions>
          <ns3:TrackPointExtension>
            <ns3:hr>111</ns3:hr>
            <ns3:cad>67</ns3:cad>
          </ns3:TrackPointExtension>
        </extensions>
      </trkpt>
      <trkpt lat="44.68547151423990726470947265625" lon="6.7814134620130062103271484375">
        <ele>2217.60009765625</ele>
        <time>2026-09-03T07:55:50.000Z</time>
        <extensions>
          <ns3:TrackPointExtension>
            <ns3:hr>111</ns3:hr>
            <ns3:cad>67</ns3:cad>
          </ns3:TrackPointExtension>
        </extensions>
      </trkpt>
      <trkpt lat="44.68546112067997455596923828125" lon="6.78140298463404178619384765625">
        <ele>2217.60009765625</ele>
        <time>2026-09-03T07:55:51.000Z</time>
        <extensions>
          <ns3:TrackPointExtension>
            <ns3:hr>110</ns3:hr>
            <ns3:cad>61</ns3:cad>
          </ns3:TrackPointExtension>
        </extensions>
      </trkpt>
      <trkpt lat="44.6854498051106929779052734375" lon="6.781391836702823638916015625">
        <ele>2217.39990234375</ele>
        <time>2026-09-03T07:55:52.000Z</time>
        <extensions>
          <ns3:TrackPointExtension>
            <ns3:hr>110</ns3:hr>
            <ns3:cad>61</ns3:cad>
          </ns3:TrackPointExtension>
        </extensions>
      </trkpt>
      <trkpt lat="44.6854427643120288848876953125" lon="6.78138202987611293792724609375">
        <ele>2217.39990234375</ele>
        <time>2026-09-03T07:55:53.000Z</time>
        <extensions>
          <ns3:TrackPointExtension>
            <ns3:hr>110</ns3:hr>
            <ns3:cad>61</ns3:cad>
          </ns3:TrackPointExtension>
        </extensions>
      </trkpt>
      <trkpt lat="44.6854306943714618682861328125" lon="6.78136727772653102874755859375">
        <ele>2217.199951171875</ele>
        <time>2026-09-03T07:55:54.000Z</time>
        <extensions>
          <ns3:TrackPointExtension>
            <ns3:hr>110</ns3:hr>
            <ns3:cad>61</ns3:cad>
          </ns3:TrackPointExtension>
        </extensions>
      </trkpt>
      <trkpt lat="44.685421474277973175048828125" lon="6.78135101683437824249267578125">
        <ele>2217.199951171875</ele>
        <time>2026-09-03T07:55:55.000Z</time>
        <extensions>
          <ns3:TrackPointExtension>
            <ns3:hr>110</ns3:hr>
            <ns3:cad>61</ns3:cad>
          </ns3:TrackPointExtension>
        </extensions>
      </trkpt>
      <trkpt lat="44.6854115836322307586669921875" lon="6.7813376896083354949951171875">
        <ele>2217</ele>
        <time>2026-09-03T07:55:56.000Z</time>
        <extensions>
          <ns3:TrackPointExtension>
            <ns3:hr>110</ns3:hr>
            <ns3:cad>61</ns3:cad>
          </ns3:TrackPointExtension>
        </extensions>
      </trkpt>
      <trkpt lat="44.6853928081691265106201171875" lon="6.78132888861000537872314453125">
        <ele>2216.800048828125</ele>
        <time>2026-09-03T07:55:57.000Z</time>
        <extensions>
          <ns3:TrackPointExtension>
            <ns3:hr>109</ns3:hr>
            <ns3:cad>61</ns3:cad>
          </ns3:TrackPointExtension>
        </extensions>
      </trkpt>
      <trkpt lat="44.68537847511470317840576171875" lon="6.7813239432871341705322265625">
        <ele>2216.800048828125</ele>
        <time>2026-09-03T07:55:58.000Z</time>
        <extensions>
          <ns3:TrackPointExtension>
            <ns3:hr>109</ns3:hr>
            <ns3:cad>61</ns3:cad>
          </ns3:TrackPointExtension>
        </extensions>
      </trkpt>
      <trkpt lat="44.68535902909934520721435546875" lon="6.7813162319362163543701171875">
        <ele>2216.39990234375</ele>
        <time>2026-09-03T07:55:59.000Z</time>
        <extensions>
          <ns3:TrackPointExtension>
            <ns3:hr>109</ns3:hr>
            <ns3:cad>61</ns3:cad>
          </ns3:TrackPointExtension>
        </extensions>
      </trkpt>
      <trkpt lat="44.68533505685627460479736328125" lon="6.7813128791749477386474609375">
        <ele>2216</ele>
        <time>2026-09-03T07:56:00.000Z</time>
        <extensions>
          <ns3:TrackPointExtension>
            <ns3:hr>109</ns3:hr>
            <ns3:cad>61</ns3:cad>
          </ns3:TrackPointExtension>
        </extensions>
      </trkpt>
      <trkpt lat="44.68530521728098392486572265625" lon="6.78130634129047393798828125">
        <ele>2215.60009765625</ele>
        <time>2026-09-03T07:56:01.000Z</time>
        <extensions>
          <ns3:TrackPointExtension>
            <ns3:hr>109</ns3:hr>
            <ns3:cad>61</ns3:cad>
          </ns3:TrackPointExtension>
        </extensions>
      </trkpt>
      <trkpt lat="44.6852801553905010223388671875" lon="6.78130231797695159912109375">
        <ele>2215</ele>
        <time>2026-09-03T07:56:02.000Z</time>
        <extensions>
          <ns3:TrackPointExtension>
            <ns3:hr>109</ns3:hr>
            <ns3:cad>61</ns3:cad>
          </ns3:TrackPointExtension>
        </extensions>
      </trkpt>
      <trkpt lat="44.6852553449571132659912109375" lon="6.78130005486309528350830078125">
        <ele>2214.60009765625</ele>
        <time>2026-09-03T07:56:03.000Z</time>
        <extensions>
          <ns3:TrackPointExtension>
            <ns3:hr>109</ns3:hr>
            <ns3:cad>0</ns3:cad>
          </ns3:TrackPointExtension>
        </extensions>
      </trkpt>
      <trkpt lat="44.6852322109043598175048828125" lon="6.78129234351217746734619140625">
        <ele>2214</ele>
        <time>2026-09-03T07:56:04.000Z</time>
        <extensions>
          <ns3:TrackPointExtension>
            <ns3:hr>108</ns3:hr>
            <ns3:cad>0</ns3:cad>
          </ns3:TrackPointExtension>
        </extensions>
      </trkpt>
      <trkpt lat="44.6852120943367481231689453125" lon="6.78128362633287906646728515625">
        <ele>2213.39990234375</ele>
        <time>2026-09-03T07:56:05.000Z</time>
        <extensions>
          <ns3:TrackPointExtension>
            <ns3:hr>109</ns3:hr>
            <ns3:cad>0</ns3:cad>
          </ns3:TrackPointExtension>
        </extensions>
      </trkpt>
      <trkpt lat="44.6851926483213901519775390625" lon="6.7812793515622615814208984375">
        <ele>2213</ele>
        <time>2026-09-03T07:56:06.000Z</time>
        <extensions>
          <ns3:TrackPointExtension>
            <ns3:hr>109</ns3:hr>
            <ns3:cad>0</ns3:cad>
          </ns3:TrackPointExtension>
        </extensions>
      </trkpt>
      <trkpt lat="44.68517295084893703460693359375" lon="6.7812721431255340576171875">
        <ele>2212.60009765625</ele>
        <time>2026-09-03T07:56:07.000Z</time>
        <extensions>
          <ns3:TrackPointExtension>
            <ns3:hr>109</ns3:hr>
            <ns3:cad>0</ns3:cad>
          </ns3:TrackPointExtension>
        </extensions>
      </trkpt>
      <trkpt lat="44.68516297638416290283203125" lon="6.78125403821468353271484375">
        <ele>2212.199951171875</ele>
        <time>2026-09-03T07:56:08.000Z</time>
        <extensions>
          <ns3:TrackPointExtension>
            <ns3:hr>108</ns3:hr>
            <ns3:cad>52</ns3:cad>
          </ns3:TrackPointExtension>
        </extensions>
      </trkpt>
      <trkpt lat="44.68516163527965545654296875" lon="6.78123266436159610748291015625">
        <ele>2212</ele>
        <time>2026-09-03T07:56:09.000Z</time>
        <extensions>
          <ns3:TrackPointExtension>
            <ns3:hr>109</ns3:hr>
            <ns3:cad>52</ns3:cad>
          </ns3:TrackPointExtension>
        </extensions>
      </trkpt>
      <trkpt lat="44.68516825698316097259521484375" lon="6.78120148368179798126220703125">
        <ele>2211.60009765625</ele>
        <time>2026-09-03T07:56:10.000Z</time>
        <extensions>
          <ns3:TrackPointExtension>
            <ns3:hr>108</ns3:hr>
            <ns3:cad>52</ns3:cad>
          </ns3:TrackPointExtension>
        </extensions>
      </trkpt>
      <trkpt lat="44.68517831526696681976318359375" lon="6.781173236668109893798828125">
        <ele>2211.199951171875</ele>
        <time>2026-09-03T07:56:11.000Z</time>
        <extensions>
          <ns3:TrackPointExtension>
            <ns3:hr>108</ns3:hr>
            <ns3:cad>52</ns3:cad>
          </ns3:TrackPointExtension>
        </extensions>
      </trkpt>
      <trkpt lat="44.6851963363587856292724609375" lon="6.7811353504657745361328125">
        <ele>2211</ele>
        <time>2026-09-03T07:56:12.000Z</time>
        <extensions>
          <ns3:TrackPointExtension>
            <ns3:hr>108</ns3:hr>
            <ns3:cad>52</ns3:cad>
          </ns3:TrackPointExtension>
        </extensions>
      </trkpt>
      <trkpt lat="44.68521335162222385406494140625" lon="6.78109989501535892486572265625">
        <ele>2210.39990234375</ele>
        <time>2026-09-03T07:56:13.000Z</time>
        <extensions>
          <ns3:TrackPointExtension>
            <ns3:hr>109</ns3:hr>
            <ns3:cad>52</ns3:cad>
          </ns3:TrackPointExtension>
        </extensions>
      </trkpt>
      <trkpt lat="44.68522860668599605560302734375" lon="6.7810651101171970367431640625">
        <ele>2210.199951171875</ele>
        <time>2026-09-03T07:56:14.000Z</time>
        <extensions>
          <ns3:TrackPointExtension>
            <ns3:hr>109</ns3:hr>
            <ns3:cad>85</ns3:cad>
          </ns3:TrackPointExtension>
        </extensions>
      </trkpt>
      <trkpt lat="44.68523539602756500244140625" lon="6.78102672100067138671875">
        <ele>2209.800048828125</ele>
        <time>2026-09-03T07:56:15.000Z</time>
        <extensions>
          <ns3:TrackPointExtension>
            <ns3:hr>109</ns3:hr>
            <ns3:cad>85</ns3:cad>
          </ns3:TrackPointExtension>
        </extensions>
      </trkpt>
      <trkpt lat="44.6852181293070316314697265625" lon="6.78101054392755031585693359375">
        <ele>2209.39990234375</ele>
        <time>2026-09-03T07:56:16.000Z</time>
        <extensions>
          <ns3:TrackPointExtension>
            <ns3:hr>109</ns3:hr>
            <ns3:cad>85</ns3:cad>
          </ns3:TrackPointExtension>
        </extensions>
      </trkpt>
      <trkpt lat="44.68520681373775005340576171875" lon="6.78101205267012119293212890625">
        <ele>2208.800048828125</ele>
        <time>2026-09-03T07:56:17.000Z</time>
        <extensions>
          <ns3:TrackPointExtension>
            <ns3:hr>109</ns3:hr>
            <ns3:cad>85</ns3:cad>
          </ns3:TrackPointExtension>
        </extensions>
      </trkpt>
      <trkpt lat="44.68518552370369434356689453125" lon="6.78101607598364353179931640625">
        <ele>2208.39990234375</ele>
        <time>2026-09-03T07:56:18.000Z</time>
        <extensions>
          <ns3:TrackPointExtension>
            <ns3:hr>110</ns3:hr>
            <ns3:cad>85</ns3:cad>
          </ns3:TrackPointExtension>
        </extensions>
      </trkpt>
      <trkpt lat="44.68516767024993896484375" lon="6.78101406432688236236572265625">
        <ele>2207.800048828125</ele>
        <time>2026-09-03T07:56:19.000Z</time>
        <extensions>
          <ns3:TrackPointExtension>
            <ns3:hr>110</ns3:hr>
            <ns3:cad>87</ns3:cad>
          </ns3:TrackPointExtension>
        </extensions>
      </trkpt>
      <trkpt lat="44.68513875268399715423583984375" lon="6.78100769408047199249267578125">
        <ele>2207.39990234375</ele>
        <time>2026-09-03T07:56:20.000Z</time>
        <extensions>
          <ns3:TrackPointExtension>
            <ns3:hr>110</ns3:hr>
            <ns3:cad>87</ns3:cad>
          </ns3:TrackPointExtension>
        </extensions>
      </trkpt>
      <trkpt lat="44.68511603772640228271484375" lon="6.7809983901679515838623046875">
        <ele>2207</ele>
        <time>2026-09-03T07:56:21.000Z</time>
        <extensions>
          <ns3:TrackPointExtension>
            <ns3:hr>111</ns3:hr>
            <ns3:cad>90</ns3:cad>
          </ns3:TrackPointExtension>
        </extensions>
      </trkpt>
      <trkpt lat="44.68509256839752197265625" lon="6.7809977196156978607177734375">
        <ele>2206.60009765625</ele>
        <time>2026-09-03T07:56:22.000Z</time>
        <extensions>
          <ns3:TrackPointExtension>
            <ns3:hr>111</ns3:hr>
            <ns3:cad>90</ns3:cad>
          </ns3:TrackPointExtension>
        </extensions>
      </trkpt>
      <trkpt lat="44.68506834469735622406005859375" lon="6.7809947021305561065673828125">
        <ele>2206.199951171875</ele>
        <time>2026-09-03T07:56:23.000Z</time>
        <extensions>
          <ns3:TrackPointExtension>
            <ns3:hr>112</ns3:hr>
            <ns3:cad>90</ns3:cad>
          </ns3:TrackPointExtension>
        </extensions>
      </trkpt>
      <trkpt lat="44.6850397624075412750244140625" lon="6.781002245843410491943359375">
        <ele>2205.800048828125</ele>
        <time>2026-09-03T07:56:24.000Z</time>
        <extensions>
          <ns3:TrackPointExtension>
            <ns3:hr>111</ns3:hr>
            <ns3:cad>90</ns3:cad>
          </ns3:TrackPointExtension>
        </extensions>
      </trkpt>
      <trkpt lat="44.6850069053471088409423828125" lon="6.78099495358765125274658203125">
        <ele>2205.39990234375</ele>
        <time>2026-09-03T07:56:25.000Z</time>
        <extensions>
          <ns3:TrackPointExtension>
            <ns3:hr>110</ns3:hr>
            <ns3:cad>90</ns3:cad>
          </ns3:TrackPointExtension>
        </extensions>
      </trkpt>
      <trkpt lat="44.684982597827911376953125" lon="6.7809916846454143524169921875">
        <ele>2205</ele>
        <time>2026-09-03T07:56:26.000Z</time>
        <extensions>
          <ns3:TrackPointExtension>
            <ns3:hr>109</ns3:hr>
            <ns3:cad>88</ns3:cad>
          </ns3:TrackPointExtension>
        </extensions>
      </trkpt>
      <trkpt lat="44.6849515847861766815185546875" lon="6.780982799828052520751953125">
        <ele>2204.60009765625</ele>
        <time>2026-09-03T07:56:27.000Z</time>
        <extensions>
          <ns3:TrackPointExtension>
            <ns3:hr>108</ns3:hr>
            <ns3:cad>88</ns3:cad>
          </ns3:TrackPointExtension>
        </extensions>
      </trkpt>
      <trkpt lat="44.68492149375379085540771484375" lon="6.78097969852387905120849609375">
        <ele>2204.199951171875</ele>
        <time>2026-09-03T07:56:28.000Z</time>
        <extensions>
          <ns3:TrackPointExtension>
            <ns3:hr>109</ns3:hr>
            <ns3:cad>88</ns3:cad>
          </ns3:TrackPointExtension>
        </extensions>
      </trkpt>
      <trkpt lat="44.68489668332040309906005859375" lon="6.7809675447642803192138671875">
        <ele>2203.800048828125</ele>
        <time>2026-09-03T07:56:29.000Z</time>
        <extensions>
          <ns3:TrackPointExtension>
            <ns3:hr>110</ns3:hr>
            <ns3:cad>88</ns3:cad>
          </ns3:TrackPointExtension>
        </extensions>
      </trkpt>
      <trkpt lat="44.68486525118350982666015625" lon="6.78096226416528224945068359375">
        <ele>2203.39990234375</ele>
        <time>2026-09-03T07:56:30.000Z</time>
        <extensions>
          <ns3:TrackPointExtension>
            <ns3:hr>111</ns3:hr>
            <ns3:cad>86</ns3:cad>
          </ns3:TrackPointExtension>
        </extensions>
      </trkpt>
      <trkpt lat="44.68484203331172466278076171875" lon="6.78096109069883823394775390625">
        <ele>2203</ele>
        <time>2026-09-03T07:56:31.000Z</time>
        <extensions>
          <ns3:TrackPointExtension>
            <ns3:hr>112</ns3:hr>
            <ns3:cad>86</ns3:cad>
          </ns3:TrackPointExtension>
        </extensions>
      </trkpt>
      <trkpt lat="44.6848080866038799285888671875" lon="6.780946254730224609375">
        <ele>2202.60009765625</ele>
        <time>2026-09-03T07:56:32.000Z</time>
        <extensions>
          <ns3:TrackPointExtension>
            <ns3:hr>113</ns3:hr>
            <ns3:cad>86</ns3:cad>
          </ns3:TrackPointExtension>
        </extensions>
      </trkpt>
      <trkpt lat="44.68477849848568439483642578125" lon="6.7809397168457508087158203125">
        <ele>2202.199951171875</ele>
        <time>2026-09-03T07:56:33.000Z</time>
        <extensions>
          <ns3:TrackPointExtension>
            <ns3:hr>113</ns3:hr>
            <ns3:cad>91</ns3:cad>
          </ns3:TrackPointExtension>
        </extensions>
      </trkpt>
      <trkpt lat="44.68475000001490116119384765625" lon="6.78092488087713718414306640625">
        <ele>2202</ele>
        <time>2026-09-03T07:56:34.000Z</time>
        <extensions>
          <ns3:TrackPointExtension>
            <ns3:hr>114</ns3:hr>
            <ns3:cad>91</ns3:cad>
          </ns3:TrackPointExtension>
        </extensions>
      </trkpt>
      <trkpt lat="44.68473021872341632843017578125" lon="6.78091415204107761383056640625">
        <ele>2201.39990234375</ele>
        <time>2026-09-03T07:56:35.000Z</time>
        <extensions>
          <ns3:TrackPointExtension>
            <ns3:hr>115</ns3:hr>
            <ns3:cad>91</ns3:cad>
          </ns3:TrackPointExtension>
        </extensions>
      </trkpt>
      <trkpt lat="44.6847061626613140106201171875" lon="6.780887581408023834228515625">
        <ele>2201</ele>
        <time>2026-09-03T07:56:36.000Z</time>
        <extensions>
          <ns3:TrackPointExtension>
            <ns3:hr>115</ns3:hr>
            <ns3:cad>92</ns3:cad>
          </ns3:TrackPointExtension>
        </extensions>
      </trkpt>
      <trkpt lat="44.684690572321414947509765625" lon="6.780876182019710540771484375">
        <ele>2200.39990234375</ele>
        <time>2026-09-03T07:56:37.000Z</time>
        <extensions>
          <ns3:TrackPointExtension>
            <ns3:hr>116</ns3:hr>
            <ns3:cad>92</ns3:cad>
          </ns3:TrackPointExtension>
        </extensions>
      </trkpt>
      <trkpt lat="44.68466048128902912139892578125" lon="6.7808377929031848907470703125">
        <ele>2200</ele>
        <time>2026-09-03T07:56:38.000Z</time>
        <extensions>
          <ns3:TrackPointExtension>
            <ns3:hr>117</ns3:hr>
            <ns3:cad>92</ns3:cad>
          </ns3:TrackPointExtension>
        </extensions>
      </trkpt>
      <trkpt lat="44.68464338220655918121337890625" lon="6.78081038407981395721435546875">
        <ele>2199.800048828125</ele>
        <time>2026-09-03T07:56:39.000Z</time>
        <extensions>
          <ns3:TrackPointExtension>
            <ns3:hr>118</ns3:hr>
            <ns3:cad>92</ns3:cad>
          </ns3:TrackPointExtension>
        </extensions>
      </trkpt>
      <trkpt lat="44.68461773358285427093505859375" lon="6.780793704092502593994140625">
        <ele>2199.60009765625</ele>
        <time>2026-09-03T07:56:40.000Z</time>
        <extensions>
          <ns3:TrackPointExtension>
            <ns3:hr>119</ns3:hr>
            <ns3:cad>89</ns3:cad>
          </ns3:TrackPointExtension>
        </extensions>
      </trkpt>
      <trkpt lat="44.68459434807300567626953125" lon="6.78076763637363910675048828125">
        <ele>2199.199951171875</ele>
        <time>2026-09-03T07:56:41.000Z</time>
        <extensions>
          <ns3:TrackPointExtension>
            <ns3:hr>120</ns3:hr>
            <ns3:cad>88</ns3:cad>
          </ns3:TrackPointExtension>
        </extensions>
      </trkpt>
      <trkpt lat="44.6845708787441253662109375" lon="6.7807455919682979583740234375">
        <ele>2198.800048828125</ele>
        <time>2026-09-03T07:56:42.000Z</time>
        <extensions>
          <ns3:TrackPointExtension>
            <ns3:hr>120</ns3:hr>
            <ns3:cad>88</ns3:cad>
          </ns3:TrackPointExtension>
        </extensions>
      </trkpt>
      <trkpt lat="44.6845485828816890716552734375" lon="6.780732683837413787841796875">
        <ele>2198.60009765625</ele>
        <time>2026-09-03T07:56:43.000Z</time>
        <extensions>
          <ns3:TrackPointExtension>
            <ns3:hr>121</ns3:hr>
            <ns3:cad>88</ns3:cad>
          </ns3:TrackPointExtension>
        </extensions>
      </trkpt>
      <trkpt lat="44.68452938832342624664306640625" lon="6.780711226165294647216796875">
        <ele>2198</ele>
        <time>2026-09-03T07:56:44.000Z</time>
        <extensions>
          <ns3:TrackPointExtension>
            <ns3:hr>121</ns3:hr>
            <ns3:cad>88</ns3:cad>
          </ns3:TrackPointExtension>
        </extensions>
      </trkpt>
      <trkpt lat="44.68450826592743396759033203125" lon="6.78069412708282470703125">
        <ele>2197.60009765625</ele>
        <time>2026-09-03T07:56:45.000Z</time>
        <extensions>
          <ns3:TrackPointExtension>
            <ns3:hr>122</ns3:hr>
            <ns3:cad>88</ns3:cad>
          </ns3:TrackPointExtension>
        </extensions>
      </trkpt>
      <trkpt lat="44.6844902448356151580810546875" lon="6.78068616427481174468994140625">
        <ele>2197.199951171875</ele>
        <time>2026-09-03T07:56:46.000Z</time>
        <extensions>
          <ns3:TrackPointExtension>
            <ns3:hr>121</ns3:hr>
            <ns3:cad>88</ns3:cad>
          </ns3:TrackPointExtension>
        </extensions>
      </trkpt>
      <trkpt lat="44.6844728104770183563232421875" lon="6.7806780338287353515625">
        <ele>2196.800048828125</ele>
        <time>2026-09-03T07:56:47.000Z</time>
        <extensions>
          <ns3:TrackPointExtension>
            <ns3:hr>122</ns3:hr>
            <ns3:cad>88</ns3:cad>
          </ns3:TrackPointExtension>
        </extensions>
      </trkpt>
      <trkpt lat="44.68445076607167720794677734375" lon="6.78067107684910297393798828125">
        <ele>2196.39990234375</ele>
        <time>2026-09-03T07:56:48.000Z</time>
        <extensions>
          <ns3:TrackPointExtension>
            <ns3:hr>122</ns3:hr>
            <ns3:cad>88</ns3:cad>
          </ns3:TrackPointExtension>
        </extensions>
      </trkpt>
      <trkpt lat="44.68443400226533412933349609375" lon="6.78067266941070556640625">
        <ele>2195.800048828125</ele>
        <time>2026-09-03T07:56:49.000Z</time>
        <extensions>
          <ns3:TrackPointExtension>
            <ns3:hr>122</ns3:hr>
            <ns3:cad>88</ns3:cad>
          </ns3:TrackPointExtension>
        </extensions>
      </trkpt>
      <trkpt lat="44.68441522680222988128662109375" lon="6.78066940046846866607666015625">
        <ele>2195.60009765625</ele>
        <time>2026-09-03T07:56:50.000Z</time>
        <extensions>
          <ns3:TrackPointExtension>
            <ns3:hr>122</ns3:hr>
            <ns3:cad>88</ns3:cad>
          </ns3:TrackPointExtension>
        </extensions>
      </trkpt>
      <trkpt lat="44.68439343385398387908935546875" lon="6.7806604318320751190185546875">
        <ele>2195.199951171875</ele>
        <time>2026-09-03T07:56:51.000Z</time>
        <extensions>
          <ns3:TrackPointExtension>
            <ns3:hr>123</ns3:hr>
            <ns3:cad>0</ns3:cad>
          </ns3:TrackPointExtension>
        </extensions>
      </trkpt>
      <trkpt lat="44.6843723952770233154296875" lon="6.7806498706340789794921875">
        <ele>2194.800048828125</ele>
        <time>2026-09-03T07:56:52.000Z</time>
        <extensions>
          <ns3:TrackPointExtension>
            <ns3:hr>123</ns3:hr>
            <ns3:cad>0</ns3:cad>
          </ns3:TrackPointExtension>
        </extensions>
      </trkpt>
      <trkpt lat="44.68435965478420257568359375" lon="6.7806389741599559783935546875">
        <ele>2194.39990234375</ele>
        <time>2026-09-03T07:56:53.000Z</time>
        <extensions>
          <ns3:TrackPointExtension>
            <ns3:hr>124</ns3:hr>
            <ns3:cad>0</ns3:cad>
          </ns3:TrackPointExtension>
        </extensions>
      </trkpt>
      <trkpt lat="44.68435571528971195220947265625" lon="6.7806178517639636993408203125">
        <ele>2194</ele>
        <time>2026-09-03T07:56:54.000Z</time>
        <extensions>
          <ns3:TrackPointExtension>
            <ns3:hr>124</ns3:hr>
            <ns3:cad>0</ns3:cad>
          </ns3:TrackPointExtension>
        </extensions>
      </trkpt>
      <trkpt lat="44.68435487709939479827880859375" lon="6.78059848956763744354248046875">
        <ele>2193.800048828125</ele>
        <time>2026-09-03T07:56:55.000Z</time>
        <extensions>
          <ns3:TrackPointExtension>
            <ns3:hr>125</ns3:hr>
            <ns3:cad>0</ns3:cad>
          </ns3:TrackPointExtension>
        </extensions>
      </trkpt>
      <trkpt lat="44.684370048344135284423828125" lon="6.78059597499668598175048828125">
        <ele>2193.39990234375</ele>
        <time>2026-09-03T07:56:56.000Z</time>
        <extensions>
          <ns3:TrackPointExtension>
            <ns3:hr>125</ns3:hr>
            <ns3:cad>0</ns3:cad>
          </ns3:TrackPointExtension>
        </extensions>
      </trkpt>
      <trkpt lat="44.6843913383781909942626953125" lon="6.78058155812323093414306640625">
        <ele>2193</ele>
        <time>2026-09-03T07:56:57.000Z</time>
        <extensions>
          <ns3:TrackPointExtension>
            <ns3:hr>126</ns3:hr>
            <ns3:cad>93</ns3:cad>
          </ns3:TrackPointExtension>
        </extensions>
      </trkpt>
      <trkpt lat="44.6843983791768550872802734375" lon="6.78056596778333187103271484375">
        <ele>2192.60009765625</ele>
        <time>2026-09-03T07:56:58.000Z</time>
        <extensions>
          <ns3:TrackPointExtension>
            <ns3:hr>126</ns3:hr>
            <ns3:cad>93</ns3:cad>
          </ns3:TrackPointExtension>
        </extensions>
      </trkpt>
      <trkpt lat="44.6844174899160861968994140625" lon="6.78055205382406711578369140625">
        <ele>2192.199951171875</ele>
        <time>2026-09-03T07:56:59.000Z</time>
        <extensions>
          <ns3:TrackPointExtension>
            <ns3:hr>125</ns3:hr>
            <ns3:cad>93</ns3:cad>
          </ns3:TrackPointExtension>
        </extensions>
      </trkpt>
      <trkpt lat="44.684430062770843505859375" lon="6.7805357091128826141357421875">
        <ele>2191.60009765625</ele>
        <time>2026-09-03T07:57:00.000Z</time>
        <extensions>
          <ns3:TrackPointExtension>
            <ns3:hr>124</ns3:hr>
            <ns3:cad>93</ns3:cad>
          </ns3:TrackPointExtension>
        </extensions>
      </trkpt>
      <trkpt lat="44.684444479644298553466796875" lon="6.78052338771522045135498046875">
        <ele>2191.199951171875</ele>
        <time>2026-09-03T07:57:01.000Z</time>
        <extensions>
          <ns3:TrackPointExtension>
            <ns3:hr>123</ns3:hr>
            <ns3:cad>93</ns3:cad>
          </ns3:TrackPointExtension>
        </extensions>
      </trkpt>
      <trkpt lat="44.68445931561291217803955078125" lon="6.7805048637092113494873046875">
        <ele>2190.800048828125</ele>
        <time>2026-09-03T07:57:02.000Z</time>
        <extensions>
          <ns3:TrackPointExtension>
            <ns3:hr>122</ns3:hr>
            <ns3:cad>93</ns3:cad>
          </ns3:TrackPointExtension>
        </extensions>
      </trkpt>
      <trkpt lat="44.68447892926633358001708984375" lon="6.78048960864543914794921875">
        <ele>2190.39990234375</ele>
        <time>2026-09-03T07:57:03.000Z</time>
        <extensions>
          <ns3:TrackPointExtension>
            <ns3:hr>121</ns3:hr>
            <ns3:cad>93</ns3:cad>
          </ns3:TrackPointExtension>
        </extensions>
      </trkpt>
      <trkpt lat="44.6844957768917083740234375" lon="6.78047955036163330078125">
        <ele>2190</ele>
        <time>2026-09-03T07:57:04.000Z</time>
        <extensions>
          <ns3:TrackPointExtension>
            <ns3:hr>121</ns3:hr>
            <ns3:cad>93</ns3:cad>
          </ns3:TrackPointExtension>
        </extensions>
      </trkpt>
      <trkpt lat="44.68450759537518024444580078125" lon="6.7804699949920177459716796875">
        <ele>2189.60009765625</ele>
        <time>2026-09-03T07:57:05.000Z</time>
        <extensions>
          <ns3:TrackPointExtension>
            <ns3:hr>120</ns3:hr>
            <ns3:cad>94</ns3:cad>
          </ns3:TrackPointExtension>
        </extensions>
      </trkpt>
      <trkpt lat="44.6844942681491374969482421875" lon="6.780465804040431976318359375">
        <ele>2189.199951171875</ele>
        <time>2026-09-03T07:57:06.000Z</time>
        <extensions>
          <ns3:TrackPointExtension>
            <ns3:hr>120</ns3:hr>
            <ns3:cad>92</ns3:cad>
          </ns3:TrackPointExtension>
        </extensions>
      </trkpt>
      <trkpt lat="44.68447792343795299530029296875" lon="6.78045582957565784454345703125">
        <ele>2188.800048828125</ele>
        <time>2026-09-03T07:57:07.000Z</time>
        <extensions>
          <ns3:TrackPointExtension>
            <ns3:hr>120</ns3:hr>
            <ns3:cad>90</ns3:cad>
          </ns3:TrackPointExtension>
        </extensions>
      </trkpt>
      <trkpt lat="44.68446157872676849365234375" lon="6.7804525606334209442138671875">
        <ele>2188.199951171875</ele>
        <time>2026-09-03T07:57:08.000Z</time>
        <extensions>
          <ns3:TrackPointExtension>
            <ns3:hr>120</ns3:hr>
            <ns3:cad>88</ns3:cad>
          </ns3:TrackPointExtension>
        </extensions>
      </trkpt>
      <trkpt lat="44.684439785778522491455078125" lon="6.78044325672090053558349609375">
        <ele>2188</ele>
        <time>2026-09-03T07:57:09.000Z</time>
        <extensions>
          <ns3:TrackPointExtension>
            <ns3:hr>119</ns3:hr>
            <ns3:cad>88</ns3:cad>
          </ns3:TrackPointExtension>
        </extensions>
      </trkpt>
      <trkpt lat="44.6844148077070713043212890625" lon="6.7804364673793315887451171875">
        <ele>2187.800048828125</ele>
        <time>2026-09-03T07:57:10.000Z</time>
        <extensions>
          <ns3:TrackPointExtension>
            <ns3:hr>119</ns3:hr>
            <ns3:cad>88</ns3:cad>
          </ns3:TrackPointExtension>
        </extensions>
      </trkpt>
      <trkpt lat="44.68439376913011074066162109375" lon="6.78043462336063385009765625">
        <ele>2187.60009765625</ele>
        <time>2026-09-03T07:57:11.000Z</time>
        <extensions>
          <ns3:TrackPointExtension>
            <ns3:hr>119</ns3:hr>
            <ns3:cad>88</ns3:cad>
          </ns3:TrackPointExtension>
        </extensions>
      </trkpt>
      <trkpt lat="44.68436627648770809173583984375" lon="6.78042297251522541046142578125">
        <ele>2187.199951171875</ele>
        <time>2026-09-03T07:57:12.000Z</time>
        <extensions>
          <ns3:TrackPointExtension>
            <ns3:hr>119</ns3:hr>
            <ns3:cad>83</ns3:cad>
          </ns3:TrackPointExtension>
        </extensions>
      </trkpt>
      <trkpt lat="44.684345237910747528076171875" lon="6.78041006438434123992919921875">
        <ele>2187</ele>
        <time>2026-09-03T07:57:13.000Z</time>
        <extensions>
          <ns3:TrackPointExtension>
            <ns3:hr>119</ns3:hr>
            <ns3:cad>83</ns3:cad>
          </ns3:TrackPointExtension>
        </extensions>
      </trkpt>
      <trkpt lat="44.68432604335248470306396484375" lon="6.78039598278701305389404296875">
        <ele>2186.60009765625</ele>
        <time>2026-09-03T07:57:14.000Z</time>
        <extensions>
          <ns3:TrackPointExtension>
            <ns3:hr>118</ns3:hr>
            <ns3:cad>82</ns3:cad>
          </ns3:TrackPointExtension>
        </extensions>
      </trkpt>
      <trkpt lat="44.68430592678487300872802734375" lon="6.7803848348557949066162109375">
        <ele>2186.199951171875</ele>
        <time>2026-09-03T07:57:15.000Z</time>
        <extensions>
          <ns3:TrackPointExtension>
            <ns3:hr>119</ns3:hr>
            <ns3:cad>82</ns3:cad>
          </ns3:TrackPointExtension>
        </extensions>
      </trkpt>
      <trkpt lat="44.68428698368370532989501953125" lon="6.7803762853145599365234375">
        <ele>2185.60009765625</ele>
        <time>2026-09-03T07:57:16.000Z</time>
        <extensions>
          <ns3:TrackPointExtension>
            <ns3:hr>118</ns3:hr>
            <ns3:cad>81</ns3:cad>
          </ns3:TrackPointExtension>
        </extensions>
      </trkpt>
      <trkpt lat="44.68426787294447422027587890625" lon="6.78037226200103759765625">
        <ele>2185.199951171875</ele>
        <time>2026-09-03T07:57:17.000Z</time>
        <extensions>
          <ns3:TrackPointExtension>
            <ns3:hr>119</ns3:hr>
            <ns3:cad>81</ns3:cad>
          </ns3:TrackPointExtension>
        </extensions>
      </trkpt>
      <trkpt lat="44.6842478401958942413330078125" lon="6.78037217818200588226318359375">
        <ele>2185</ele>
        <time>2026-09-03T07:57:18.000Z</time>
        <extensions>
          <ns3:TrackPointExtension>
            <ns3:hr>119</ns3:hr>
            <ns3:cad>81</ns3:cad>
          </ns3:TrackPointExtension>
        </extensions>
      </trkpt>
      <trkpt lat="44.68423434533178806304931640625" lon="6.7803526483476161956787109375">
        <ele>2184.60009765625</ele>
        <time>2026-09-03T07:57:19.000Z</time>
        <extensions>
          <ns3:TrackPointExtension>
            <ns3:hr>119</ns3:hr>
            <ns3:cad>81</ns3:cad>
          </ns3:TrackPointExtension>
        </extensions>
      </trkpt>
      <trkpt lat="44.68424406833946704864501953125" lon="6.78033093921840190887451171875">
        <ele>2184.199951171875</ele>
        <time>2026-09-03T07:57:20.000Z</time>
        <extensions>
          <ns3:TrackPointExtension>
            <ns3:hr>119</ns3:hr>
            <ns3:cad>81</ns3:cad>
          </ns3:TrackPointExtension>
        </extensions>
      </trkpt>
      <trkpt lat="44.684256054461002349853515625" lon="6.780316941440105438232421875">
        <ele>2183.800048828125</ele>
        <time>2026-09-03T07:57:21.000Z</time>
        <extensions>
          <ns3:TrackPointExtension>
            <ns3:hr>119</ns3:hr>
            <ns3:cad>81</ns3:cad>
          </ns3:TrackPointExtension>
        </extensions>
      </trkpt>
      <trkpt lat="44.6842756681144237518310546875" lon="6.78029472939670085906982421875">
        <ele>2183.39990234375</ele>
        <time>2026-09-03T07:57:22.000Z</time>
        <extensions>
          <ns3:TrackPointExtension>
            <ns3:hr>119</ns3:hr>
            <ns3:cad>81</ns3:cad>
          </ns3:TrackPointExtension>
        </extensions>
      </trkpt>
      <trkpt lat="44.6842890791594982147216796875" lon="6.78027343936264514923095703125">
        <ele>2182.800048828125</ele>
        <time>2026-09-03T07:57:23.000Z</time>
        <extensions>
          <ns3:TrackPointExtension>
            <ns3:hr>119</ns3:hr>
            <ns3:cad>81</ns3:cad>
          </ns3:TrackPointExtension>
        </extensions>
      </trkpt>
      <trkpt lat="44.68430492095649242401123046875" lon="6.78024795837700366973876953125">
        <ele>2182.39990234375</ele>
        <time>2026-09-03T07:57:24.000Z</time>
        <extensions>
          <ns3:TrackPointExtension>
            <ns3:hr>119</ns3:hr>
            <ns3:cad>81</ns3:cad>
          </ns3:TrackPointExtension>
        </extensions>
      </trkpt>
      <trkpt lat="44.6843222714960575103759765625" lon="6.78022968582808971405029296875">
        <ele>2182</ele>
        <time>2026-09-03T07:57:25.000Z</time>
        <extensions>
          <ns3:TrackPointExtension>
            <ns3:hr>118</ns3:hr>
            <ns3:cad>87</ns3:cad>
          </ns3:TrackPointExtension>
        </extensions>
      </trkpt>
      <trkpt lat="44.68433325178921222686767578125" lon="6.780207641422748565673828125">
        <ele>2181.60009765625</ele>
        <time>2026-09-03T07:57:26.000Z</time>
        <extensions>
          <ns3:TrackPointExtension>
            <ns3:hr>117</ns3:hr>
            <ns3:cad>87</ns3:cad>
          </ns3:TrackPointExtension>
        </extensions>
      </trkpt>
      <trkpt lat="44.6843547932803630828857421875" lon="6.78017989732325077056884765625">
        <ele>2181.199951171875</ele>
        <time>2026-09-03T07:57:27.000Z</time>
        <extensions>
          <ns3:TrackPointExtension>
            <ns3:hr>117</ns3:hr>
            <ns3:cad>86</ns3:cad>
          </ns3:TrackPointExtension>
        </extensions>
      </trkpt>
      <trkpt lat="44.68436392955482006072998046875" lon="6.78016011603176593780517578125">
        <ele>2180.60009765625</ele>
        <time>2026-09-03T07:57:28.000Z</time>
        <extensions>
          <ns3:TrackPointExtension>
            <ns3:hr>116</ns3:hr>
            <ns3:cad>86</ns3:cad>
          </ns3:TrackPointExtension>
        </extensions>
      </trkpt>
      <trkpt lat="44.6843819506466388702392578125" lon="6.78013698197901248931884765625">
        <ele>2180.39990234375</ele>
        <time>2026-09-03T07:57:29.000Z</time>
        <extensions>
          <ns3:TrackPointExtension>
            <ns3:hr>116</ns3:hr>
            <ns3:cad>86</ns3:cad>
          </ns3:TrackPointExtension>
        </extensions>
      </trkpt>
      <trkpt lat="44.68439041636884212493896484375" lon="6.7801159434020519256591796875">
        <ele>2180</ele>
        <time>2026-09-03T07:57:30.000Z</time>
        <extensions>
          <ns3:TrackPointExtension>
            <ns3:hr>116</ns3:hr>
            <ns3:cad>86</ns3:cad>
          </ns3:TrackPointExtension>
        </extensions>
      </trkpt>
      <trkpt lat="44.68438957817852497100830078125" lon="6.7801048792898654937744140625">
        <ele>2179.60009765625</ele>
        <time>2026-09-03T07:57:31.000Z</time>
        <extensions>
          <ns3:TrackPointExtension>
            <ns3:hr>116</ns3:hr>
            <ns3:cad>86</ns3:cad>
          </ns3:TrackPointExtension>
        </extensions>
      </trkpt>
      <trkpt lat="44.68436879105865955352783203125" lon="6.780109070241451263427734375">
        <ele>2179.39990234375</ele>
        <time>2026-09-03T07:57:32.000Z</time>
        <extensions>
          <ns3:TrackPointExtension>
            <ns3:hr>116</ns3:hr>
            <ns3:cad>86</ns3:cad>
          </ns3:TrackPointExtension>
        </extensions>
      </trkpt>
      <trkpt lat="44.6843527816236019134521484375" lon="6.7801078967750072479248046875">
        <ele>2179</ele>
        <time>2026-09-03T07:57:33.000Z</time>
        <extensions>
          <ns3:TrackPointExtension>
            <ns3:hr>116</ns3:hr>
            <ns3:cad>86</ns3:cad>
          </ns3:TrackPointExtension>
        </extensions>
      </trkpt>
      <trkpt lat="44.68433073721826076507568359375" lon="6.78010471165180206298828125">
        <ele>2178.60009765625</ele>
        <time>2026-09-03T07:57:34.000Z</time>
        <extensions>
          <ns3:TrackPointExtension>
            <ns3:hr>116</ns3:hr>
            <ns3:cad>87</ns3:cad>
          </ns3:TrackPointExtension>
        </extensions>
      </trkpt>
      <trkpt lat="44.68431430868804454803466796875" lon="6.78009775467216968536376953125">
        <ele>2178</ele>
        <time>2026-09-03T07:57:35.000Z</time>
        <extensions>
          <ns3:TrackPointExtension>
            <ns3:hr>116</ns3:hr>
            <ns3:cad>87</ns3:cad>
          </ns3:TrackPointExtension>
        </extensions>
      </trkpt>
      <trkpt lat="44.68429469503462314605712890625" lon="6.780091635882854461669921875">
        <ele>2177.60009765625</ele>
        <time>2026-09-03T07:57:36.000Z</time>
        <extensions>
          <ns3:TrackPointExtension>
            <ns3:hr>115</ns3:hr>
            <ns3:cad>87</ns3:cad>
          </ns3:TrackPointExtension>
        </extensions>
      </trkpt>
      <trkpt lat="44.68427608720958232879638671875" lon="6.78009607829153537750244140625">
        <ele>2177.199951171875</ele>
        <time>2026-09-03T07:57:37.000Z</time>
        <extensions>
          <ns3:TrackPointExtension>
            <ns3:hr>115</ns3:hr>
            <ns3:cad>87</ns3:cad>
          </ns3:TrackPointExtension>
        </extensions>
      </trkpt>
      <trkpt lat="44.6842515282332897186279296875" lon="6.7800973355770111083984375">
        <ele>2176.800048828125</ele>
        <time>2026-09-03T07:57:38.000Z</time>
        <extensions>
          <ns3:TrackPointExtension>
            <ns3:hr>116</ns3:hr>
            <ns3:cad>89</ns3:cad>
          </ns3:TrackPointExtension>
        </extensions>
      </trkpt>
      <trkpt lat="44.6842294000089168548583984375" lon="6.78009800612926483154296875">
        <ele>2176.39990234375</ele>
        <time>2026-09-03T07:57:39.000Z</time>
        <extensions>
          <ns3:TrackPointExtension>
            <ns3:hr>116</ns3:hr>
            <ns3:cad>90</ns3:cad>
          </ns3:TrackPointExtension>
        </extensions>
      </trkpt>
      <trkpt lat="44.68420869670808315277099609375" lon="6.7800981737673282623291015625">
        <ele>2176.199951171875</ele>
        <time>2026-09-03T07:57:40.000Z</time>
        <extensions>
          <ns3:TrackPointExtension>
            <ns3:hr>116</ns3:hr>
            <ns3:cad>90</ns3:cad>
          </ns3:TrackPointExtension>
        </extensions>
      </trkpt>
      <trkpt lat="44.684190340340137481689453125" lon="6.7801015265285968780517578125">
        <ele>2175.800048828125</ele>
        <time>2026-09-03T07:57:41.000Z</time>
        <extensions>
          <ns3:TrackPointExtension>
            <ns3:hr>117</ns3:hr>
            <ns3:cad>91</ns3:cad>
          </ns3:TrackPointExtension>
        </extensions>
      </trkpt>
      <trkpt lat="44.68416410498321056365966796875" lon="6.7801065556704998016357421875">
        <ele>2175.39990234375</ele>
        <time>2026-09-03T07:57:42.000Z</time>
        <extensions>
          <ns3:TrackPointExtension>
            <ns3:hr>118</ns3:hr>
            <ns3:cad>92</ns3:cad>
          </ns3:TrackPointExtension>
        </extensions>
      </trkpt>
      <trkpt lat="44.68414667062461376190185546875" lon="6.780101358890533447265625">
        <ele>2174.800048828125</ele>
        <time>2026-09-03T07:57:43.000Z</time>
        <extensions>
          <ns3:TrackPointExtension>
            <ns3:hr>118</ns3:hr>
            <ns3:cad>92</ns3:cad>
          </ns3:TrackPointExtension>
        </extensions>
      </trkpt>
      <trkpt lat="44.68412420712411403656005859375" lon="6.78009943105280399322509765625">
        <ele>2174.39990234375</ele>
        <time>2026-09-03T07:57:44.000Z</time>
        <extensions>
          <ns3:TrackPointExtension>
            <ns3:hr>118</ns3:hr>
            <ns3:cad>90</ns3:cad>
          </ns3:TrackPointExtension>
        </extensions>
      </trkpt>
      <trkpt lat="44.68410886824131011962890625" lon="6.78010093979537487030029296875">
        <ele>2174</ele>
        <time>2026-09-03T07:57:45.000Z</time>
        <extensions>
          <ns3:TrackPointExtension>
            <ns3:hr>118</ns3:hr>
            <ns3:cad>90</ns3:cad>
          </ns3:TrackPointExtension>
        </extensions>
      </trkpt>
      <trkpt lat="44.6840889193117618560791015625" lon="6.78009808994829654693603515625">
        <ele>2173.60009765625</ele>
        <time>2026-09-03T07:57:46.000Z</time>
        <extensions>
          <ns3:TrackPointExtension>
            <ns3:hr>119</ns3:hr>
            <ns3:cad>90</ns3:cad>
          </ns3:TrackPointExtension>
        </extensions>
      </trkpt>
      <trkpt lat="44.6840704791247844696044921875" lon="6.78009658120572566986083984375">
        <ele>2173</ele>
        <time>2026-09-03T07:57:47.000Z</time>
        <extensions>
          <ns3:TrackPointExtension>
            <ns3:hr>119</ns3:hr>
            <ns3:cad>90</ns3:cad>
          </ns3:TrackPointExtension>
        </extensions>
      </trkpt>
      <trkpt lat="44.68405120074748992919921875" lon="6.78009239025413990020751953125">
        <ele>2172.60009765625</ele>
        <time>2026-09-03T07:57:48.000Z</time>
        <extensions>
          <ns3:TrackPointExtension>
            <ns3:hr>119</ns3:hr>
            <ns3:cad>90</ns3:cad>
          </ns3:TrackPointExtension>
        </extensions>
      </trkpt>
      <trkpt lat="44.68403535895049571990966796875" lon="6.78009456954896450042724609375">
        <ele>2172.199951171875</ele>
        <time>2026-09-03T07:57:49.000Z</time>
        <extensions>
          <ns3:TrackPointExtension>
            <ns3:hr>119</ns3:hr>
            <ns3:cad>90</ns3:cad>
          </ns3:TrackPointExtension>
        </extensions>
      </trkpt>
      <trkpt lat="44.68401708640158176422119140625" lon="6.78009155206382274627685546875">
        <ele>2171.800048828125</ele>
        <time>2026-09-03T07:57:50.000Z</time>
        <extensions>
          <ns3:TrackPointExtension>
            <ns3:hr>119</ns3:hr>
            <ns3:cad>90</ns3:cad>
          </ns3:TrackPointExtension>
        </extensions>
      </trkpt>
      <trkpt lat="44.684003926813602447509765625" lon="6.78009306080639362335205078125">
        <ele>2171.39990234375</ele>
        <time>2026-09-03T07:57:51.000Z</time>
        <extensions>
          <ns3:TrackPointExtension>
            <ns3:hr>120</ns3:hr>
            <ns3:cad>90</ns3:cad>
          </ns3:TrackPointExtension>
        </extensions>
      </trkpt>
      <trkpt lat="44.6839836426079273223876953125" lon="6.7800919711589813232421875">
        <ele>2171</ele>
        <time>2026-09-03T07:57:52.000Z</time>
        <extensions>
          <ns3:TrackPointExtension>
            <ns3:hr>120</ns3:hr>
            <ns3:cad>90</ns3:cad>
          </ns3:TrackPointExtension>
        </extensions>
      </trkpt>
      <trkpt lat="44.6839638613164424896240234375" lon="6.7800864391028881072998046875">
        <ele>2170.60009765625</ele>
        <time>2026-09-03T07:57:53.000Z</time>
        <extensions>
          <ns3:TrackPointExtension>
            <ns3:hr>120</ns3:hr>
            <ns3:cad>92</ns3:cad>
          </ns3:TrackPointExtension>
        </extensions>
      </trkpt>
      <trkpt lat="44.6839407272636890411376953125" lon="6.78008736111223697662353515625">
        <ele>2170.199951171875</ele>
        <time>2026-09-03T07:57:54.000Z</time>
        <extensions>
          <ns3:TrackPointExtension>
            <ns3:hr>120</ns3:hr>
            <ns3:cad>92</ns3:cad>
          </ns3:TrackPointExtension>
        </extensions>
      </trkpt>
      <trkpt lat="44.683927483856678009033203125" lon="6.7800934799015522003173828125">
        <ele>2169.800048828125</ele>
        <time>2026-09-03T07:57:55.000Z</time>
        <extensions>
          <ns3:TrackPointExtension>
            <ns3:hr>121</ns3:hr>
            <ns3:cad>91</ns3:cad>
          </ns3:TrackPointExtension>
        </extensions>
      </trkpt>
      <trkpt lat="44.6839108876883983612060546875" lon="6.7800924740731716156005859375">
        <ele>2169.39990234375</ele>
        <time>2026-09-03T07:57:56.000Z</time>
        <extensions>
          <ns3:TrackPointExtension>
            <ns3:hr>121</ns3:hr>
            <ns3:cad>90</ns3:cad>
          </ns3:TrackPointExtension>
        </extensions>
      </trkpt>
      <trkpt lat="44.68389152549207210540771484375" lon="6.78009037859737873077392578125">
        <ele>2169</ele>
        <time>2026-09-03T07:57:57.000Z</time>
        <extensions>
          <ns3:TrackPointExtension>
            <ns3:hr>120</ns3:hr>
            <ns3:cad>90</ns3:cad>
          </ns3:TrackPointExtension>
        </extensions>
      </trkpt>
      <trkpt lat="44.68387660570442676544189453125" lon="6.78009331226348876953125">
        <ele>2168.800048828125</ele>
        <time>2026-09-03T07:57:58.000Z</time>
        <extensions>
          <ns3:TrackPointExtension>
            <ns3:hr>120</ns3:hr>
            <ns3:cad>90</ns3:cad>
          </ns3:TrackPointExtension>
        </extensions>
      </trkpt>
      <trkpt lat="44.6838515438139438629150390625" lon="6.78009808994829654693603515625">
        <ele>2168.39990234375</ele>
        <time>2026-09-03T07:57:59.000Z</time>
        <extensions>
          <ns3:TrackPointExtension>
            <ns3:hr>120</ns3:hr>
            <ns3:cad>87</ns3:cad>
          </ns3:TrackPointExtension>
        </extensions>
      </trkpt>
      <trkpt lat="44.68383301980793476104736328125" lon="6.78009959869086742401123046875">
        <ele>2168</ele>
        <time>2026-09-03T07:58:00.000Z</time>
        <extensions>
          <ns3:TrackPointExtension>
            <ns3:hr>120</ns3:hr>
            <ns3:cad>87</ns3:cad>
          </ns3:TrackPointExtension>
        </extensions>
      </trkpt>
      <trkpt lat="44.6838136576116085052490234375" lon="6.78010873496532440185546875">
        <ele>2167.60009765625</ele>
        <time>2026-09-03T07:58:01.000Z</time>
        <extensions>
          <ns3:TrackPointExtension>
            <ns3:hr>120</ns3:hr>
            <ns3:cad>85</ns3:cad>
          </ns3:TrackPointExtension>
        </extensions>
      </trkpt>
      <trkpt lat="44.683797061443328857421875" lon="6.78011083044111728668212890625">
        <ele>2167.199951171875</ele>
        <time>2026-09-03T07:58:02.000Z</time>
        <extensions>
          <ns3:TrackPointExtension>
            <ns3:hr>120</ns3:hr>
            <ns3:cad>84</ns3:cad>
          </ns3:TrackPointExtension>
        </extensions>
      </trkpt>
      <trkpt lat="44.6837781183421611785888671875" lon="6.78011250682175159454345703125">
        <ele>2166.800048828125</ele>
        <time>2026-09-03T07:58:03.000Z</time>
        <extensions>
          <ns3:TrackPointExtension>
            <ns3:hr>120</ns3:hr>
            <ns3:cad>84</ns3:cad>
          </ns3:TrackPointExtension>
        </extensions>
      </trkpt>
      <trkpt lat="44.6837492845952510833740234375" lon="6.7801166139543056488037109375">
        <ele>2166.39990234375</ele>
        <time>2026-09-03T07:58:04.000Z</time>
        <extensions>
          <ns3:TrackPointExtension>
            <ns3:hr>120</ns3:hr>
            <ns3:cad>83</ns3:cad>
          </ns3:TrackPointExtension>
        </extensions>
      </trkpt>
      <trkpt lat="44.68373327516019344329833984375" lon="6.7801201343536376953125">
        <ele>2166.199951171875</ele>
        <time>2026-09-03T07:58:05.000Z</time>
        <extensions>
          <ns3:TrackPointExtension>
            <ns3:hr>120</ns3:hr>
            <ns3:cad>83</ns3:cad>
          </ns3:TrackPointExtension>
        </extensions>
      </trkpt>
      <trkpt lat="44.68371617607772350311279296875" lon="6.7801196314394474029541015625">
        <ele>2166</ele>
        <time>2026-09-03T07:58:06.000Z</time>
        <extensions>
          <ns3:TrackPointExtension>
            <ns3:hr>120</ns3:hr>
            <ns3:cad>83</ns3:cad>
          </ns3:TrackPointExtension>
        </extensions>
      </trkpt>
      <trkpt lat="44.68370527960360050201416015625" lon="6.78011334501206874847412109375">
        <ele>2165.60009765625</ele>
        <time>2026-09-03T07:58:07.000Z</time>
        <extensions>
          <ns3:TrackPointExtension>
            <ns3:hr>120</ns3:hr>
            <ns3:cad>83</ns3:cad>
          </ns3:TrackPointExtension>
        </extensions>
      </trkpt>
      <trkpt lat="44.6837077103555202484130859375" lon="6.78009004332125186920166015625">
        <ele>2165.39990234375</ele>
        <time>2026-09-03T07:58:08.000Z</time>
        <extensions>
          <ns3:TrackPointExtension>
            <ns3:hr>120</ns3:hr>
            <ns3:cad>85</ns3:cad>
          </ns3:TrackPointExtension>
        </extensions>
      </trkpt>
      <trkpt lat="44.68371282331645488739013671875" lon="6.7800767160952091217041015625">
        <ele>2165.199951171875</ele>
        <time>2026-09-03T07:58:09.000Z</time>
        <extensions>
          <ns3:TrackPointExtension>
            <ns3:hr>120</ns3:hr>
            <ns3:cad>85</ns3:cad>
          </ns3:TrackPointExtension>
        </extensions>
      </trkpt>
      <trkpt lat="44.68371936120092868804931640625" lon="6.7800626344978809356689453125">
        <ele>2164.800048828125</ele>
        <time>2026-09-03T07:58:10.000Z</time>
        <extensions>
          <ns3:TrackPointExtension>
            <ns3:hr>120</ns3:hr>
            <ns3:cad>87</ns3:cad>
          </ns3:TrackPointExtension>
        </extensions>
      </trkpt>
      <trkpt lat="44.6837286651134490966796875" lon="6.7800498940050601959228515625">
        <ele>2164.199951171875</ele>
        <time>2026-09-03T07:58:11.000Z</time>
        <extensions>
          <ns3:TrackPointExtension>
            <ns3:hr>120</ns3:hr>
            <ns3:cad>88</ns3:cad>
          </ns3:TrackPointExtension>
        </extensions>
      </trkpt>
      <trkpt lat="44.6837415732443332672119140625" lon="6.78003153763711452484130859375">
        <ele>2163.800048828125</ele>
        <time>2026-09-03T07:58:12.000Z</time>
        <extensions>
          <ns3:TrackPointExtension>
            <ns3:hr>119</ns3:hr>
            <ns3:cad>88</ns3:cad>
          </ns3:TrackPointExtension>
        </extensions>
      </trkpt>
      <trkpt lat="44.683757163584232330322265625" lon="6.7800167016685009002685546875">
        <ele>2163.39990234375</ele>
        <time>2026-09-03T07:58:13.000Z</time>
        <extensions>
          <ns3:TrackPointExtension>
            <ns3:hr>120</ns3:hr>
            <ns3:cad>88</ns3:cad>
          </ns3:TrackPointExtension>
        </extensions>
      </trkpt>
      <trkpt lat="44.68376060016453266143798828125" lon="6.77999733947217464447021484375">
        <ele>2162.800048828125</ele>
        <time>2026-09-03T07:58:14.000Z</time>
        <extensions>
          <ns3:TrackPointExtension>
            <ns3:hr>120</ns3:hr>
            <ns3:cad>88</ns3:cad>
          </ns3:TrackPointExtension>
        </extensions>
      </trkpt>
      <trkpt lat="44.683751128613948822021484375" lon="6.779986359179019927978515625">
        <ele>2162.60009765625</ele>
        <time>2026-09-03T07:58:15.000Z</time>
        <extensions>
          <ns3:TrackPointExtension>
            <ns3:hr>119</ns3:hr>
            <ns3:cad>88</ns3:cad>
          </ns3:TrackPointExtension>
        </extensions>
      </trkpt>
      <trkpt lat="44.68373696319758892059326171875" lon="6.779980324208736419677734375">
        <ele>2162.199951171875</ele>
        <time>2026-09-03T07:58:16.000Z</time>
        <extensions>
          <ns3:TrackPointExtension>
            <ns3:hr>120</ns3:hr>
            <ns3:cad>91</ns3:cad>
          </ns3:TrackPointExtension>
        </extensions>
      </trkpt>
      <trkpt lat="44.68371517024934291839599609375" lon="6.779970936477184295654296875">
        <ele>2162</ele>
        <time>2026-09-03T07:58:17.000Z</time>
        <extensions>
          <ns3:TrackPointExtension>
            <ns3:hr>119</ns3:hr>
            <ns3:cad>91</ns3:cad>
          </ns3:TrackPointExtension>
        </extensions>
      </trkpt>
      <trkpt lat="44.6837003342807292938232421875" lon="6.77996481768786907196044921875">
        <ele>2161.60009765625</ele>
        <time>2026-09-03T07:58:18.000Z</time>
        <extensions>
          <ns3:TrackPointExtension>
            <ns3:hr>119</ns3:hr>
            <ns3:cad>91</ns3:cad>
          </ns3:TrackPointExtension>
        </extensions>
      </trkpt>
      <trkpt lat="44.68368197791278362274169921875" lon="6.7799556814134120941162109375">
        <ele>2161.199951171875</ele>
        <time>2026-09-03T07:58:19.000Z</time>
        <extensions>
          <ns3:TrackPointExtension>
            <ns3:hr>119</ns3:hr>
            <ns3:cad>89</ns3:cad>
          </ns3:TrackPointExtension>
        </extensions>
      </trkpt>
      <trkpt lat="44.68366487883031368255615234375" lon="6.77995056845247745513916015625">
        <ele>2160.60009765625</ele>
        <time>2026-09-03T07:58:20.000Z</time>
        <extensions>
          <ns3:TrackPointExtension>
            <ns3:hr>119</ns3:hr>
            <ns3:cad>89</ns3:cad>
          </ns3:TrackPointExtension>
        </extensions>
      </trkpt>
      <trkpt lat="44.68363973312079906463623046875" lon="6.77994268946349620819091796875">
        <ele>2160.199951171875</ele>
        <time>2026-09-03T07:58:21.000Z</time>
        <extensions>
          <ns3:TrackPointExtension>
            <ns3:hr>119</ns3:hr>
            <ns3:cad>89</ns3:cad>
          </ns3:TrackPointExtension>
        </extensions>
      </trkpt>
      <trkpt lat="44.68362246640026569366455078125" lon="6.77994185127317905426025390625">
        <ele>2159.800048828125</ele>
        <time>2026-09-03T07:58:22.000Z</time>
        <extensions>
          <ns3:TrackPointExtension>
            <ns3:hr>120</ns3:hr>
            <ns3:cad>89</ns3:cad>
          </ns3:TrackPointExtension>
        </extensions>
      </trkpt>
      <trkpt lat="44.68359949998557567596435546875" lon="6.7799392528831958770751953125">
        <ele>2159.39990234375</ele>
        <time>2026-09-03T07:58:23.000Z</time>
        <extensions>
          <ns3:TrackPointExtension>
            <ns3:hr>120</ns3:hr>
            <ns3:cad>89</ns3:cad>
          </ns3:TrackPointExtension>
        </extensions>
      </trkpt>
      <trkpt lat="44.683577120304107666015625" lon="6.77993841469287872314453125">
        <ele>2159.199951171875</ele>
        <time>2026-09-03T07:58:24.000Z</time>
        <extensions>
          <ns3:TrackPointExtension>
            <ns3:hr>120</ns3:hr>
            <ns3:cad>89</ns3:cad>
          </ns3:TrackPointExtension>
        </extensions>
      </trkpt>
      <trkpt lat="44.683555662631988525390625" lon="6.7799332179129123687744140625">
        <ele>2158.800048828125</ele>
        <time>2026-09-03T07:58:25.000Z</time>
        <extensions>
          <ns3:TrackPointExtension>
            <ns3:hr>120</ns3:hr>
            <ns3:cad>89</ns3:cad>
          </ns3:TrackPointExtension>
        </extensions>
      </trkpt>
      <trkpt lat="44.68353194184601306915283203125" lon="6.7799322120845317840576171875">
        <ele>2158.39990234375</ele>
        <time>2026-09-03T07:58:26.000Z</time>
        <extensions>
          <ns3:TrackPointExtension>
            <ns3:hr>120</ns3:hr>
            <ns3:cad>87</ns3:cad>
          </ns3:TrackPointExtension>
        </extensions>
      </trkpt>
      <trkpt lat="44.68351584859192371368408203125" lon="6.7799338884651660919189453125">
        <ele>2158</ele>
        <time>2026-09-03T07:58:27.000Z</time>
        <extensions>
          <ns3:TrackPointExtension>
            <ns3:hr>120</ns3:hr>
            <ns3:cad>87</ns3:cad>
          </ns3:TrackPointExtension>
        </extensions>
      </trkpt>
      <trkpt lat="44.68349933624267578125" lon="6.77993950434029102325439453125">
        <ele>2157.60009765625</ele>
        <time>2026-09-03T07:58:28.000Z</time>
        <extensions>
          <ns3:TrackPointExtension>
            <ns3:hr>120</ns3:hr>
            <ns3:cad>87</ns3:cad>
          </ns3:TrackPointExtension>
        </extensions>
      </trkpt>
      <trkpt lat="44.68347813002765178680419921875" lon="6.77994235418736934661865234375">
        <ele>2157.39990234375</ele>
        <time>2026-09-03T07:58:29.000Z</time>
        <extensions>
          <ns3:TrackPointExtension>
            <ns3:hr>120</ns3:hr>
            <ns3:cad>87</ns3:cad>
          </ns3:TrackPointExtension>
        </extensions>
      </trkpt>
      <trkpt lat="44.6834552474319934844970703125" lon="6.77994302473962306976318359375">
        <ele>2157</ele>
        <time>2026-09-03T07:58:30.000Z</time>
        <extensions>
          <ns3:TrackPointExtension>
            <ns3:hr>119</ns3:hr>
            <ns3:cad>86</ns3:cad>
          </ns3:TrackPointExtension>
        </extensions>
      </trkpt>
      <trkpt lat="44.68343588523566722869873046875" lon="6.7799484729766845703125">
        <ele>2156.60009765625</ele>
        <time>2026-09-03T07:58:31.000Z</time>
        <extensions>
          <ns3:TrackPointExtension>
            <ns3:hr>120</ns3:hr>
            <ns3:cad>86</ns3:cad>
          </ns3:TrackPointExtension>
        </extensions>
      </trkpt>
      <trkpt lat="44.6834160201251506805419921875" lon="6.7799444496631622314453125">
        <ele>2156.199951171875</ele>
        <time>2026-09-03T07:58:32.000Z</time>
        <extensions>
          <ns3:TrackPointExtension>
            <ns3:hr>119</ns3:hr>
            <ns3:cad>86</ns3:cad>
          </ns3:TrackPointExtension>
        </extensions>
      </trkpt>
      <trkpt lat="44.68339598737657070159912109375" lon="6.7799498140811920166015625">
        <ele>2155.800048828125</ele>
        <time>2026-09-03T07:58:33.000Z</time>
        <extensions>
          <ns3:TrackPointExtension>
            <ns3:hr>119</ns3:hr>
            <ns3:cad>87</ns3:cad>
          </ns3:TrackPointExtension>
        </extensions>
      </trkpt>
      <trkpt lat="44.683376960456371307373046875" lon="6.77995023317635059356689453125">
        <ele>2155.199951171875</ele>
        <time>2026-09-03T07:58:34.000Z</time>
        <extensions>
          <ns3:TrackPointExtension>
            <ns3:hr>118</ns3:hr>
            <ns3:cad>89</ns3:cad>
          </ns3:TrackPointExtension>
        </extensions>
      </trkpt>
      <trkpt lat="44.68336346559226512908935546875" lon="6.77995174191892147064208984375">
        <ele>2154.800048828125</ele>
        <time>2026-09-03T07:58:35.000Z</time>
        <extensions>
          <ns3:TrackPointExtension>
            <ns3:hr>117</ns3:hr>
            <ns3:cad>89</ns3:cad>
          </ns3:TrackPointExtension>
        </extensions>
      </trkpt>
      <trkpt lat="44.68333781696856021881103515625" lon="6.77995308302342891693115234375">
        <ele>2154.60009765625</ele>
        <time>2026-09-03T07:58:36.000Z</time>
        <extensions>
          <ns3:TrackPointExtension>
            <ns3:hr>117</ns3:hr>
            <ns3:cad>89</ns3:cad>
          </ns3:TrackPointExtension>
        </extensions>
      </trkpt>
      <trkpt lat="44.68331719748675823211669921875" lon="6.77995258010923862457275390625">
        <ele>2154.199951171875</ele>
        <time>2026-09-03T07:58:37.000Z</time>
        <extensions>
          <ns3:TrackPointExtension>
            <ns3:hr>117</ns3:hr>
            <ns3:cad>89</ns3:cad>
          </ns3:TrackPointExtension>
        </extensions>
      </trkpt>
      <trkpt lat="44.68329121358692646026611328125" lon="6.779957525432109832763671875">
        <ele>2153.800048828125</ele>
        <time>2026-09-03T07:58:38.000Z</time>
        <extensions>
          <ns3:TrackPointExtension>
            <ns3:hr>117</ns3:hr>
            <ns3:cad>89</ns3:cad>
          </ns3:TrackPointExtension>
        </extensions>
      </trkpt>
      <trkpt lat="44.6832661516964435577392578125" lon="6.77996565587818622589111328125">
        <ele>2153.39990234375</ele>
        <time>2026-09-03T07:58:39.000Z</time>
        <extensions>
          <ns3:TrackPointExtension>
            <ns3:hr>117</ns3:hr>
            <ns3:cad>85</ns3:cad>
          </ns3:TrackPointExtension>
        </extensions>
      </trkpt>
      <trkpt lat="44.6832440234720706939697265625" lon="6.7799717746675014495849609375">
        <ele>2153</ele>
        <time>2026-09-03T07:58:40.000Z</time>
        <extensions>
          <ns3:TrackPointExtension>
            <ns3:hr>117</ns3:hr>
            <ns3:cad>84</ns3:cad>
          </ns3:TrackPointExtension>
        </extensions>
      </trkpt>
      <trkpt lat="44.683217704296112060546875" lon="6.779976971447467803955078125">
        <ele>2152.60009765625</ele>
        <time>2026-09-03T07:58:41.000Z</time>
        <extensions>
          <ns3:TrackPointExtension>
            <ns3:hr>117</ns3:hr>
            <ns3:cad>84</ns3:cad>
          </ns3:TrackPointExtension>
        </extensions>
      </trkpt>
      <trkpt lat="44.6832091547548770904541015625" lon="6.7799808271229267120361328125">
        <ele>2152.39990234375</ele>
        <time>2026-09-03T07:58:42.000Z</time>
        <extensions>
          <ns3:TrackPointExtension>
            <ns3:hr>117</ns3:hr>
            <ns3:cad>84</ns3:cad>
          </ns3:TrackPointExtension>
        </extensions>
      </trkpt>
      <trkpt lat="44.6831887029111385345458984375" lon="6.779984347522258758544921875">
        <ele>2152</ele>
        <time>2026-09-03T07:58:43.000Z</time>
        <extensions>
          <ns3:TrackPointExtension>
            <ns3:hr>117</ns3:hr>
            <ns3:cad>84</ns3:cad>
          </ns3:TrackPointExtension>
        </extensions>
      </trkpt>
      <trkpt lat="44.68317168764770030975341796875" lon="6.77998803555965423583984375">
        <ele>2151.800048828125</ele>
        <time>2026-09-03T07:58:44.000Z</time>
        <extensions>
          <ns3:TrackPointExtension>
            <ns3:hr>117</ns3:hr>
            <ns3:cad>84</ns3:cad>
          </ns3:TrackPointExtension>
        </extensions>
      </trkpt>
      <trkpt lat="44.68315609730780124664306640625" lon="6.77999281324446201324462890625">
        <ele>2151.60009765625</ele>
        <time>2026-09-03T07:58:45.000Z</time>
        <extensions>
          <ns3:TrackPointExtension>
            <ns3:hr>117</ns3:hr>
            <ns3:cad>85</ns3:cad>
          </ns3:TrackPointExtension>
        </extensions>
      </trkpt>
      <trkpt lat="44.68313681893050670623779296875" lon="6.78000739775598049163818359375">
        <ele>2151.39990234375</ele>
        <time>2026-09-03T07:58:46.000Z</time>
        <extensions>
          <ns3:TrackPointExtension>
            <ns3:hr>118</ns3:hr>
            <ns3:cad>85</ns3:cad>
          </ns3:TrackPointExtension>
        </extensions>
      </trkpt>
      <trkpt lat="44.6831224858760833740234375" lon="6.78002952598035335540771484375">
        <ele>2151</ele>
        <time>2026-09-03T07:58:47.000Z</time>
        <extensions>
          <ns3:TrackPointExtension>
            <ns3:hr>118</ns3:hr>
            <ns3:cad>85</ns3:cad>
          </ns3:TrackPointExtension>
        </extensions>
      </trkpt>
      <trkpt lat="44.6831068955361843109130859375" lon="6.7800502292811870574951171875">
        <ele>2150.800048828125</ele>
        <time>2026-09-03T07:58:48.000Z</time>
        <extensions>
          <ns3:TrackPointExtension>
            <ns3:hr>118</ns3:hr>
            <ns3:cad>85</ns3:cad>
          </ns3:TrackPointExtension>
        </extensions>
      </trkpt>
      <trkpt lat="44.6830876171588897705078125" lon="6.7800713516771793365478515625">
        <ele>2150.60009765625</ele>
        <time>2026-09-03T07:58:49.000Z</time>
        <extensions>
          <ns3:TrackPointExtension>
            <ns3:hr>118</ns3:hr>
            <ns3:cad>84</ns3:cad>
          </ns3:TrackPointExtension>
        </extensions>
      </trkpt>
      <trkpt lat="44.683067835867404937744140625" lon="6.78009130060672760009765625">
        <ele>2150.39990234375</ele>
        <time>2026-09-03T07:58:50.000Z</time>
        <extensions>
          <ns3:TrackPointExtension>
            <ns3:hr>119</ns3:hr>
            <ns3:cad>84</ns3:cad>
          </ns3:TrackPointExtension>
        </extensions>
      </trkpt>
      <trkpt lat="44.683049730956554412841796875" lon="6.78010295145213603973388671875">
        <ele>2150.39990234375</ele>
        <time>2026-09-03T07:58:51.000Z</time>
        <extensions>
          <ns3:TrackPointExtension>
            <ns3:hr>119</ns3:hr>
            <ns3:cad>84</ns3:cad>
          </ns3:TrackPointExtension>
        </extensions>
      </trkpt>
      <trkpt lat="44.683023579418659210205078125" lon="6.78011904470622539520263671875">
        <ele>2150.39990234375</ele>
        <time>2026-09-03T07:58:52.000Z</time>
        <extensions>
          <ns3:TrackPointExtension>
            <ns3:hr>119</ns3:hr>
            <ns3:cad>84</ns3:cad>
          </ns3:TrackPointExtension>
        </extensions>
      </trkpt>
      <trkpt lat="44.68301159329712390899658203125" lon="6.78013362921774387359619140625">
        <ele>2150.199951171875</ele>
        <time>2026-09-03T07:58:53.000Z</time>
        <extensions>
          <ns3:TrackPointExtension>
            <ns3:hr>119</ns3:hr>
            <ns3:cad>84</ns3:cad>
          </ns3:TrackPointExtension>
        </extensions>
      </trkpt>
      <trkpt lat="44.6830069832503795623779296875" lon="6.780156008899211883544921875">
        <ele>2150</ele>
        <time>2026-09-03T07:58:54.000Z</time>
        <extensions>
          <ns3:TrackPointExtension>
            <ns3:hr>119</ns3:hr>
            <ns3:cad>80</ns3:cad>
          </ns3:TrackPointExtension>
        </extensions>
      </trkpt>
      <trkpt lat="44.68299348838627338409423828125" lon="6.78017017431557178497314453125">
        <ele>2149.800048828125</ele>
        <time>2026-09-03T07:58:55.000Z</time>
        <extensions>
          <ns3:TrackPointExtension>
            <ns3:hr>119</ns3:hr>
            <ns3:cad>80</ns3:cad>
          </ns3:TrackPointExtension>
        </extensions>
      </trkpt>
      <trkpt lat="44.68298292718827724456787109375" lon="6.780176796019077301025390625">
        <ele>2149.800048828125</ele>
        <time>2026-09-03T07:58:56.000Z</time>
        <extensions>
          <ns3:TrackPointExtension>
            <ns3:hr>119</ns3:hr>
            <ns3:cad>80</ns3:cad>
          </ns3:TrackPointExtension>
        </extensions>
      </trkpt>
      <trkpt lat="44.6829610504209995269775390625" lon="6.7801860161125659942626953125">
        <ele>2149.60009765625</ele>
        <time>2026-09-03T07:58:57.000Z</time>
        <extensions>
          <ns3:TrackPointExtension>
            <ns3:hr>119</ns3:hr>
            <ns3:cad>80</ns3:cad>
          </ns3:TrackPointExtension>
        </extensions>
      </trkpt>
      <trkpt lat="44.68294269405305385589599609375" lon="6.78019565530121326446533203125">
        <ele>2149.60009765625</ele>
        <time>2026-09-03T07:58:58.000Z</time>
        <extensions>
          <ns3:TrackPointExtension>
            <ns3:hr>119</ns3:hr>
            <ns3:cad>80</ns3:cad>
          </ns3:TrackPointExtension>
        </extensions>
      </trkpt>
      <trkpt lat="44.6829248405992984771728515625" lon="6.780208647251129150390625">
        <ele>2149.60009765625</ele>
        <time>2026-09-03T07:58:59.000Z</time>
        <extensions>
          <ns3:TrackPointExtension>
            <ns3:hr>119</ns3:hr>
            <ns3:cad>80</ns3:cad>
          </ns3:TrackPointExtension>
        </extensions>
      </trkpt>
      <trkpt lat="44.6829104237258434295654296875" lon="6.78021811880171298980712890625">
        <ele>2149.60009765625</ele>
        <time>2026-09-03T07:59:00.000Z</time>
        <extensions>
          <ns3:TrackPointExtension>
            <ns3:hr>118</ns3:hr>
            <ns3:cad>80</ns3:cad>
          </ns3:TrackPointExtension>
        </extensions>
      </trkpt>
      <trkpt lat="44.68289810232818126678466796875" lon="6.78022281266748905181884765625">
        <ele>2149.39990234375</ele>
        <time>2026-09-03T07:59:01.000Z</time>
        <extensions>
          <ns3:TrackPointExtension>
            <ns3:hr>117</ns3:hr>
            <ns3:cad>80</ns3:cad>
          </ns3:TrackPointExtension>
        </extensions>
      </trkpt>
      <trkpt lat="44.68288402073085308074951171875" lon="6.78022515960037708282470703125">
        <ele>2149.39990234375</ele>
        <time>2026-09-03T07:59:02.000Z</time>
        <extensions>
          <ns3:TrackPointExtension>
            <ns3:hr>116</ns3:hr>
            <ns3:cad>80</ns3:cad>
          </ns3:TrackPointExtension>
        </extensions>
      </trkpt>
      <trkpt lat="44.6828722022473812103271484375" lon="6.7802296020090579986572265625">
        <ele>2149.199951171875</ele>
        <time>2026-09-03T07:59:03.000Z</time>
        <extensions>
          <ns3:TrackPointExtension>
            <ns3:hr>115</ns3:hr>
            <ns3:cad>80</ns3:cad>
          </ns3:TrackPointExtension>
        </extensions>
      </trkpt>
      <trkpt lat="44.68285887502133846282958984375" lon="6.78023002110421657562255859375">
        <ele>2149.199951171875</ele>
        <time>2026-09-03T07:59:04.000Z</time>
        <extensions>
          <ns3:TrackPointExtension>
            <ns3:hr>115</ns3:hr>
            <ns3:cad>80</ns3:cad>
          </ns3:TrackPointExtension>
        </extensions>
      </trkpt>
      <trkpt lat="44.68284395523369312286376953125" lon="6.78022750653326511383056640625">
        <ele>2149</ele>
        <time>2026-09-03T07:59:05.000Z</time>
        <extensions>
          <ns3:TrackPointExtension>
            <ns3:hr>115</ns3:hr>
            <ns3:cad>80</ns3:cad>
          </ns3:TrackPointExtension>
        </extensions>
      </trkpt>
      <trkpt lat="44.68283473514020442962646484375" lon="6.78023890592157840728759765625">
        <ele>2149</ele>
        <time>2026-09-03T07:59:06.000Z</time>
        <extensions>
          <ns3:TrackPointExtension>
            <ns3:hr>114</ns3:hr>
            <ns3:cad>80</ns3:cad>
          </ns3:TrackPointExtension>
        </extensions>
      </trkpt>
      <trkpt lat="44.68282031826674938201904296875" lon="6.7802555859088897705078125">
        <ele>2148.800048828125</ele>
        <time>2026-09-03T07:59:07.000Z</time>
        <extensions>
          <ns3:TrackPointExtension>
            <ns3:hr>114</ns3:hr>
            <ns3:cad>65</ns3:cad>
          </ns3:TrackPointExtension>
        </extensions>
      </trkpt>
      <trkpt lat="44.68280254863202571868896484375" lon="6.78026170469820499420166015625">
        <ele>2148.60009765625</ele>
        <time>2026-09-03T07:59:08.000Z</time>
        <extensions>
          <ns3:TrackPointExtension>
            <ns3:hr>114</ns3:hr>
            <ns3:cad>65</ns3:cad>
          </ns3:TrackPointExtension>
        </extensions>
      </trkpt>
      <trkpt lat="44.68278645537793636322021484375" lon="6.7802624590694904327392578125">
        <ele>2148.199951171875</ele>
        <time>2026-09-03T07:59:09.000Z</time>
        <extensions>
          <ns3:TrackPointExtension>
            <ns3:hr>114</ns3:hr>
            <ns3:cad>65</ns3:cad>
          </ns3:TrackPointExtension>
        </extensions>
      </trkpt>
      <trkpt lat="44.6827649138867855072021484375" lon="6.78025868721306324005126953125">
        <ele>2147.800048828125</ele>
        <time>2026-09-03T07:59:10.000Z</time>
        <extensions>
          <ns3:TrackPointExtension>
            <ns3:hr>113</ns3:hr>
            <ns3:cad>65</ns3:cad>
          </ns3:TrackPointExtension>
        </extensions>
      </trkpt>
      <trkpt lat="44.68274337239563465118408203125" lon="6.78025047294795513153076171875">
        <ele>2147.60009765625</ele>
        <time>2026-09-03T07:59:11.000Z</time>
        <extensions>
          <ns3:TrackPointExtension>
            <ns3:hr>113</ns3:hr>
            <ns3:cad>65</ns3:cad>
          </ns3:TrackPointExtension>
        </extensions>
      </trkpt>
      <trkpt lat="44.68272526748478412628173828125" lon="6.780245862901210784912109375">
        <ele>2147.199951171875</ele>
        <time>2026-09-03T07:59:12.000Z</time>
        <extensions>
          <ns3:TrackPointExtension>
            <ns3:hr>113</ns3:hr>
            <ns3:cad>65</ns3:cad>
          </ns3:TrackPointExtension>
        </extensions>
      </trkpt>
      <trkpt lat="44.6826971881091594696044921875" lon="6.780251562595367431640625">
        <ele>2147</ele>
        <time>2026-09-03T07:59:13.000Z</time>
        <extensions>
          <ns3:TrackPointExtension>
            <ns3:hr>113</ns3:hr>
            <ns3:cad>65</ns3:cad>
          </ns3:TrackPointExtension>
        </extensions>
      </trkpt>
      <trkpt lat="44.68267749063670635223388671875" lon="6.7802517302334308624267578125">
        <ele>2146.800048828125</ele>
        <time>2026-09-03T07:59:14.000Z</time>
        <extensions>
          <ns3:TrackPointExtension>
            <ns3:hr>112</ns3:hr>
            <ns3:cad>83</ns3:cad>
          </ns3:TrackPointExtension>
        </extensions>
      </trkpt>
      <trkpt lat="44.68264999799430370330810546875" lon="6.78024661727249622344970703125">
        <ele>2146.39990234375</ele>
        <time>2026-09-03T07:59:15.000Z</time>
        <extensions>
          <ns3:TrackPointExtension>
            <ns3:hr>112</ns3:hr>
            <ns3:cad>83</ns3:cad>
          </ns3:TrackPointExtension>
        </extensions>
      </trkpt>
      <trkpt lat="44.6826297976076602935791015625" lon="6.78023773245513439178466796875">
        <ele>2146.199951171875</ele>
        <time>2026-09-03T07:59:16.000Z</time>
        <extensions>
          <ns3:TrackPointExtension>
            <ns3:hr>112</ns3:hr>
            <ns3:cad>83</ns3:cad>
          </ns3:TrackPointExtension>
        </extensions>
      </trkpt>
      <trkpt lat="44.68261160887777805328369140625" lon="6.7802379839122295379638671875">
        <ele>2145.800048828125</ele>
        <time>2026-09-03T07:59:17.000Z</time>
        <extensions>
          <ns3:TrackPointExtension>
            <ns3:hr>112</ns3:hr>
            <ns3:cad>83</ns3:cad>
          </ns3:TrackPointExtension>
        </extensions>
      </trkpt>
      <trkpt lat="44.68258830718696117401123046875" lon="6.78023169748485088348388671875">
        <ele>2145.60009765625</ele>
        <time>2026-09-03T07:59:18.000Z</time>
        <extensions>
          <ns3:TrackPointExtension>
            <ns3:hr>113</ns3:hr>
            <ns3:cad>83</ns3:cad>
          </ns3:TrackPointExtension>
        </extensions>
      </trkpt>
      <trkpt lat="44.682570956647396087646484375" lon="6.7802332900464534759521484375">
        <ele>2145.199951171875</ele>
        <time>2026-09-03T07:59:19.000Z</time>
        <extensions>
          <ns3:TrackPointExtension>
            <ns3:hr>113</ns3:hr>
            <ns3:cad>84</ns3:cad>
          </ns3:TrackPointExtension>
        </extensions>
      </trkpt>
      <trkpt lat="44.68254606239497661590576171875" lon="6.780222393572330474853515625">
        <ele>2144.800048828125</ele>
        <time>2026-09-03T07:59:20.000Z</time>
        <extensions>
          <ns3:TrackPointExtension>
            <ns3:hr>113</ns3:hr>
            <ns3:cad>85</ns3:cad>
          </ns3:TrackPointExtension>
        </extensions>
      </trkpt>
      <trkpt lat="44.68253307044506072998046875" lon="6.7802061326801776885986328125">
        <ele>2144.60009765625</ele>
        <time>2026-09-03T07:59:21.000Z</time>
        <extensions>
          <ns3:TrackPointExtension>
            <ns3:hr>113</ns3:hr>
            <ns3:cad>85</ns3:cad>
          </ns3:TrackPointExtension>
        </extensions>
      </trkpt>
      <trkpt lat="44.68254111707210540771484375" lon="6.78018249571323394775390625">
        <ele>2144.199951171875</ele>
        <time>2026-09-03T07:59:22.000Z</time>
        <extensions>
          <ns3:TrackPointExtension>
            <ns3:hr>113</ns3:hr>
            <ns3:cad>85</ns3:cad>
          </ns3:TrackPointExtension>
        </extensions>
      </trkpt>
      <trkpt lat="44.68254455365240573883056640625" lon="6.78017587400972843170166015625">
        <ele>2144</ele>
        <time>2026-09-03T07:59:23.000Z</time>
        <extensions>
          <ns3:TrackPointExtension>
            <ns3:hr>114</ns3:hr>
            <ns3:cad>85</ns3:cad>
          </ns3:TrackPointExtension>
        </extensions>
      </trkpt>
      <trkpt lat="44.68255226500332355499267578125" lon="6.780161373317241668701171875">
        <ele>2143.60009765625</ele>
        <time>2026-09-03T07:59:24.000Z</time>
        <extensions>
          <ns3:TrackPointExtension>
            <ns3:hr>114</ns3:hr>
            <ns3:cad>85</ns3:cad>
          </ns3:TrackPointExtension>
        </extensions>
      </trkpt>
      <trkpt lat="44.68256299383938312530517578125" lon="6.78015030920505523681640625">
        <ele>2143.199951171875</ele>
        <time>2026-09-03T07:59:25.000Z</time>
        <extensions>
          <ns3:TrackPointExtension>
            <ns3:hr>114</ns3:hr>
            <ns3:cad>85</ns3:cad>
          </ns3:TrackPointExtension>
        </extensions>
      </trkpt>
      <trkpt lat="44.6825751475989818572998046875" lon="6.7801347188651561737060546875">
        <ele>2143</ele>
        <time>2026-09-03T07:59:26.000Z</time>
        <extensions>
          <ns3:TrackPointExtension>
            <ns3:hr>114</ns3:hr>
            <ns3:cad>85</ns3:cad>
          </ns3:TrackPointExtension>
        </extensions>
      </trkpt>
      <trkpt lat="44.68259132467210292816162109375" lon="6.78011049516499042510986328125">
        <ele>2142.60009765625</ele>
        <time>2026-09-03T07:59:27.000Z</time>
        <extensions>
          <ns3:TrackPointExtension>
            <ns3:hr>113</ns3:hr>
            <ns3:cad>86</ns3:cad>
          </ns3:TrackPointExtension>
        </extensions>
      </trkpt>
      <trkpt lat="44.682603813707828521728515625" lon="6.78008803166449069976806640625">
        <ele>2142.199951171875</ele>
        <time>2026-09-03T07:59:28.000Z</time>
        <extensions>
          <ns3:TrackPointExtension>
            <ns3:hr>113</ns3:hr>
            <ns3:cad>86</ns3:cad>
          </ns3:TrackPointExtension>
        </extensions>
      </trkpt>
      <trkpt lat="44.68261948786675930023193359375" lon="6.780059449374675750732421875">
        <ele>2141.800048828125</ele>
        <time>2026-09-03T07:59:29.000Z</time>
        <extensions>
          <ns3:TrackPointExtension>
            <ns3:hr>113</ns3:hr>
            <ns3:cad>86</ns3:cad>
          </ns3:TrackPointExtension>
        </extensions>
      </trkpt>
      <trkpt lat="44.6826343238353729248046875" lon="6.78003966808319091796875">
        <ele>2141.60009765625</ele>
        <time>2026-09-03T07:59:30.000Z</time>
        <extensions>
          <ns3:TrackPointExtension>
            <ns3:hr>114</ns3:hr>
            <ns3:cad>85</ns3:cad>
          </ns3:TrackPointExtension>
        </extensions>
      </trkpt>
      <trkpt lat="44.68264664523303508758544921875" lon="6.78001862950623035430908203125">
        <ele>2141.39990234375</ele>
        <time>2026-09-03T07:59:31.000Z</time>
        <extensions>
          <ns3:TrackPointExtension>
            <ns3:hr>113</ns3:hr>
            <ns3:cad>85</ns3:cad>
          </ns3:TrackPointExtension>
        </extensions>
      </trkpt>
      <trkpt lat="44.682662151753902435302734375" lon="6.7799942381680011749267578125">
        <ele>2141</ele>
        <time>2026-09-03T07:59:32.000Z</time>
        <extensions>
          <ns3:TrackPointExtension>
            <ns3:hr>114</ns3:hr>
            <ns3:cad>84</ns3:cad>
          </ns3:TrackPointExtension>
        </extensions>
      </trkpt>
      <trkpt lat="44.68267262913286685943603515625" lon="6.77996749989688396453857421875">
        <ele>2140.800048828125</ele>
        <time>2026-09-03T07:59:33.000Z</time>
        <extensions>
          <ns3:TrackPointExtension>
            <ns3:hr>114</ns3:hr>
            <ns3:cad>84</ns3:cad>
          </ns3:TrackPointExtension>
        </extensions>
      </trkpt>
      <trkpt lat="44.68268654309213161468505859375" lon="6.779930032789707183837890625">
        <ele>2140.39990234375</ele>
        <time>2026-09-03T07:59:34.000Z</time>
        <extensions>
          <ns3:TrackPointExtension>
            <ns3:hr>114</ns3:hr>
            <ns3:cad>84</ns3:cad>
          </ns3:TrackPointExtension>
        </extensions>
      </trkpt>
      <trkpt lat="44.68269760720431804656982421875" lon="6.779894493520259857177734375">
        <ele>2140</ele>
        <time>2026-09-03T07:59:35.000Z</time>
        <extensions>
          <ns3:TrackPointExtension>
            <ns3:hr>114</ns3:hr>
            <ns3:cad>84</ns3:cad>
          </ns3:TrackPointExtension>
        </extensions>
      </trkpt>
      <trkpt lat="44.682712443172931671142578125" lon="6.77986658178269863128662109375">
        <ele>2139.60009765625</ele>
        <time>2026-09-03T07:59:36.000Z</time>
        <extensions>
          <ns3:TrackPointExtension>
            <ns3:hr>115</ns3:hr>
            <ns3:cad>84</ns3:cad>
          </ns3:TrackPointExtension>
        </extensions>
      </trkpt>
      <trkpt lat="44.6827228367328643798828125" lon="6.77984612993896007537841796875">
        <ele>2139.199951171875</ele>
        <time>2026-09-03T07:59:37.000Z</time>
        <extensions>
          <ns3:TrackPointExtension>
            <ns3:hr>115</ns3:hr>
            <ns3:cad>86</ns3:cad>
          </ns3:TrackPointExtension>
        </extensions>
      </trkpt>
      <trkpt lat="44.682739265263080596923828125" lon="6.7798121832311153411865234375">
        <ele>2139</ele>
        <time>2026-09-03T07:59:38.000Z</time>
        <extensions>
          <ns3:TrackPointExtension>
            <ns3:hr>116</ns3:hr>
            <ns3:cad>88</ns3:cad>
          </ns3:TrackPointExtension>
        </extensions>
      </trkpt>
      <trkpt lat="44.68276198022067546844482421875" lon="6.7797853611409664154052734375">
        <ele>2138.800048828125</ele>
        <time>2026-09-03T07:59:39.000Z</time>
        <extensions>
          <ns3:TrackPointExtension>
            <ns3:hr>116</ns3:hr>
            <ns3:cad>88</ns3:cad>
          </ns3:TrackPointExtension>
        </extensions>
      </trkpt>
      <trkpt lat="44.68277472071349620819091796875" lon="6.77975929342210292816162109375">
        <ele>2138.60009765625</ele>
        <time>2026-09-03T07:59:40.000Z</time>
        <extensions>
          <ns3:TrackPointExtension>
            <ns3:hr>117</ns3:hr>
            <ns3:cad>88</ns3:cad>
          </ns3:TrackPointExtension>
        </extensions>
      </trkpt>
      <trkpt lat="44.68279232271015644073486328125" lon="6.779728867113590240478515625">
        <ele>2138.39990234375</ele>
        <time>2026-09-03T07:59:41.000Z</time>
        <extensions>
          <ns3:TrackPointExtension>
            <ns3:hr>118</ns3:hr>
            <ns3:cad>88</ns3:cad>
          </ns3:TrackPointExtension>
        </extensions>
      </trkpt>
      <trkpt lat="44.6828091703355312347412109375" lon="6.77970279939472675323486328125">
        <ele>2138.199951171875</ele>
        <time>2026-09-03T07:59:42.000Z</time>
        <extensions>
          <ns3:TrackPointExtension>
            <ns3:hr>118</ns3:hr>
            <ns3:cad>88</ns3:cad>
          </ns3:TrackPointExtension>
        </extensions>
      </trkpt>
      <trkpt lat="44.68282165937125682830810546875" lon="6.77967513911426067352294921875">
        <ele>2138</ele>
        <time>2026-09-03T07:59:43.000Z</time>
        <extensions>
          <ns3:TrackPointExtension>
            <ns3:hr>119</ns3:hr>
            <ns3:cad>86</ns3:cad>
          </ns3:TrackPointExtension>
        </extensions>
      </trkpt>
      <trkpt lat="44.6828406862914562225341796875" lon="6.77965301088988780975341796875">
        <ele>2137.60009765625</ele>
        <time>2026-09-03T07:59:44.000Z</time>
        <extensions>
          <ns3:TrackPointExtension>
            <ns3:hr>119</ns3:hr>
            <ns3:cad>85</ns3:cad>
          </ns3:TrackPointExtension>
        </extensions>
      </trkpt>
      <trkpt lat="44.68285401351749897003173828125" lon="6.7796351574361324310302734375">
        <ele>2137.199951171875</ele>
        <time>2026-09-03T07:59:45.000Z</time>
        <extensions>
          <ns3:TrackPointExtension>
            <ns3:hr>119</ns3:hr>
            <ns3:cad>84</ns3:cad>
          </ns3:TrackPointExtension>
        </extensions>
      </trkpt>
      <trkpt lat="44.68287513591349124908447265625" lon="6.77960875444114208221435546875">
        <ele>2136.800048828125</ele>
        <time>2026-09-03T07:59:46.000Z</time>
        <extensions>
          <ns3:TrackPointExtension>
            <ns3:hr>120</ns3:hr>
            <ns3:cad>83</ns3:cad>
          </ns3:TrackPointExtension>
        </extensions>
      </trkpt>
      <trkpt lat="44.6828891336917877197265625" lon="6.77959517575800418853759765625">
        <ele>2136.39990234375</ele>
        <time>2026-09-03T07:59:47.000Z</time>
        <extensions>
          <ns3:TrackPointExtension>
            <ns3:hr>120</ns3:hr>
            <ns3:cad>83</ns3:cad>
          </ns3:TrackPointExtension>
        </extensions>
      </trkpt>
      <trkpt lat="44.682910256087779998779296875" lon="6.77956692874431610107421875">
        <ele>2136.199951171875</ele>
        <time>2026-09-03T07:59:48.000Z</time>
        <extensions>
          <ns3:TrackPointExtension>
            <ns3:hr>120</ns3:hr>
            <ns3:cad>83</ns3:cad>
          </ns3:TrackPointExtension>
        </extensions>
      </trkpt>
      <trkpt lat="44.68292157165706157684326171875" lon="6.77954572252929210662841796875">
        <ele>2135.800048828125</ele>
        <time>2026-09-03T07:59:49.000Z</time>
        <extensions>
          <ns3:TrackPointExtension>
            <ns3:hr>120</ns3:hr>
            <ns3:cad>84</ns3:cad>
          </ns3:TrackPointExtension>
        </extensions>
      </trkpt>
      <trkpt lat="44.6829355694353580474853515625" lon="6.77951370365917682647705078125">
        <ele>2135.199951171875</ele>
        <time>2026-09-03T07:59:50.000Z</time>
        <extensions>
          <ns3:TrackPointExtension>
            <ns3:hr>120</ns3:hr>
            <ns3:cad>85</ns3:cad>
          </ns3:TrackPointExtension>
        </extensions>
      </trkpt>
      <trkpt lat="44.68294621445238590240478515625" lon="6.7794866301119327545166015625">
        <ele>2134.800048828125</ele>
        <time>2026-09-03T07:59:51.000Z</time>
        <extensions>
          <ns3:TrackPointExtension>
            <ns3:hr>120</ns3:hr>
            <ns3:cad>85</ns3:cad>
          </ns3:TrackPointExtension>
        </extensions>
      </trkpt>
      <trkpt lat="44.68294118531048297882080078125" lon="6.7794712074100971221923828125">
        <ele>2134.60009765625</ele>
        <time>2026-09-03T07:59:52.000Z</time>
        <extensions>
          <ns3:TrackPointExtension>
            <ns3:hr>121</ns3:hr>
            <ns3:cad>85</ns3:cad>
          </ns3:TrackPointExtension>
        </extensions>
      </trkpt>
      <trkpt lat="44.68292492441833019256591796875" lon="6.7794557847082614898681640625">
        <ele>2134</ele>
        <time>2026-09-03T07:59:53.000Z</time>
        <extensions>
          <ns3:TrackPointExtension>
            <ns3:hr>121</ns3:hr>
            <ns3:cad>85</ns3:cad>
          </ns3:TrackPointExtension>
        </extensions>
      </trkpt>
      <trkpt lat="44.68290916644036769866943359375" lon="6.779457293450832366943359375">
        <ele>2133.60009765625</ele>
        <time>2026-09-03T07:59:54.000Z</time>
        <extensions>
          <ns3:TrackPointExtension>
            <ns3:hr>121</ns3:hr>
            <ns3:cad>85</ns3:cad>
          </ns3:TrackPointExtension>
        </extensions>
      </trkpt>
      <trkpt lat="44.6828862838447093963623046875" lon="6.7794547788798809051513671875">
        <ele>2133.199951171875</ele>
        <time>2026-09-03T07:59:55.000Z</time>
        <extensions>
          <ns3:TrackPointExtension>
            <ns3:hr>121</ns3:hr>
            <ns3:cad>86</ns3:cad>
          </ns3:TrackPointExtension>
        </extensions>
      </trkpt>
      <trkpt lat="44.68287362717092037200927734375" lon="6.77944597788155078887939453125">
        <ele>2132.800048828125</ele>
        <time>2026-09-03T07:59:56.000Z</time>
        <extensions>
          <ns3:TrackPointExtension>
            <ns3:hr>120</ns3:hr>
            <ns3:cad>86</ns3:cad>
          </ns3:TrackPointExtension>
        </extensions>
      </trkpt>
      <trkpt lat="44.68284697271883487701416015625" lon="6.77944086492061614990234375">
        <ele>2132.39990234375</ele>
        <time>2026-09-03T07:59:57.000Z</time>
        <extensions>
          <ns3:TrackPointExtension>
            <ns3:hr>121</ns3:hr>
            <ns3:cad>85</ns3:cad>
          </ns3:TrackPointExtension>
        </extensions>
      </trkpt>
      <trkpt lat="44.68282685615122318267822265625" lon="6.77942669950425624847412109375">
        <ele>2132</ele>
        <time>2026-09-03T07:59:58.000Z</time>
        <extensions>
          <ns3:TrackPointExtension>
            <ns3:hr>120</ns3:hr>
            <ns3:cad>85</ns3:cad>
          </ns3:TrackPointExtension>
        </extensions>
      </trkpt>
      <trkpt lat="44.68280439265072345733642578125" lon="6.77942812442779541015625">
        <ele>2131.60009765625</ele>
        <time>2026-09-03T07:59:59.000Z</time>
        <extensions>
          <ns3:TrackPointExtension>
            <ns3:hr>120</ns3:hr>
            <ns3:cad>85</ns3:cad>
          </ns3:TrackPointExtension>
        </extensions>
      </trkpt>
      <trkpt lat="44.68277849256992340087890625" lon="6.77943290211260318756103515625">
        <ele>2131.199951171875</ele>
        <time>2026-09-03T08:00:00.000Z</time>
        <extensions>
          <ns3:TrackPointExtension>
            <ns3:hr>121</ns3:hr>
            <ns3:cad>85</ns3:cad>
          </ns3:TrackPointExtension>
        </extensions>
      </trkpt>
      <trkpt lat="44.68276105821132659912109375" lon="6.77944581024348735809326171875">
        <ele>2130.60009765625</ele>
        <time>2026-09-03T08:00:01.000Z</time>
        <extensions>
          <ns3:TrackPointExtension>
            <ns3:hr>121</ns3:hr>
            <ns3:cad>85</ns3:cad>
          </ns3:TrackPointExtension>
        </extensions>
      </trkpt>
      <trkpt lat="44.68273482285439968109130859375" lon="6.77945620380342006683349609375">
        <ele>2130.199951171875</ele>
        <time>2026-09-03T08:00:02.000Z</time>
        <extensions>
          <ns3:TrackPointExtension>
            <ns3:hr>121</ns3:hr>
            <ns3:cad>85</ns3:cad>
          </ns3:TrackPointExtension>
        </extensions>
      </trkpt>
      <trkpt lat="44.68271722085773944854736328125" lon="6.7794643342494964599609375">
        <ele>2129.800048828125</ele>
        <time>2026-09-03T08:00:03.000Z</time>
        <extensions>
          <ns3:TrackPointExtension>
            <ns3:hr>121</ns3:hr>
            <ns3:cad>85</ns3:cad>
          </ns3:TrackPointExtension>
        </extensions>
      </trkpt>
      <trkpt lat="44.68269056640565395355224609375" lon="6.77949392236769199371337890625">
        <ele>2129.39990234375</ele>
        <time>2026-09-03T08:00:04.000Z</time>
        <extensions>
          <ns3:TrackPointExtension>
            <ns3:hr>121</ns3:hr>
            <ns3:cad>85</ns3:cad>
          </ns3:TrackPointExtension>
        </extensions>
      </trkpt>
      <trkpt lat="44.682668857276439666748046875" lon="6.77951705642044544219970703125">
        <ele>2129</ele>
        <time>2026-09-03T08:00:05.000Z</time>
        <extensions>
          <ns3:TrackPointExtension>
            <ns3:hr>122</ns3:hr>
            <ns3:cad>85</ns3:cad>
          </ns3:TrackPointExtension>
        </extensions>
      </trkpt>
      <trkpt lat="44.68264848925173282623291015625" lon="6.7795399390161037445068359375">
        <ele>2128.60009765625</ele>
        <time>2026-09-03T08:00:06.000Z</time>
        <extensions>
          <ns3:TrackPointExtension>
            <ns3:hr>122</ns3:hr>
            <ns3:cad>85</ns3:cad>
          </ns3:TrackPointExtension>
        </extensions>
      </trkpt>
      <trkpt lat="44.6826173923909664154052734375" lon="6.77954220212996006011962890625">
        <ele>2128.199951171875</ele>
        <time>2026-09-03T08:00:07.000Z</time>
        <extensions>
          <ns3:TrackPointExtension>
            <ns3:hr>122</ns3:hr>
            <ns3:cad>86</ns3:cad>
          </ns3:TrackPointExtension>
        </extensions>
      </trkpt>
      <trkpt lat="44.68259568326175212860107421875" lon="6.77953750826418399810791015625">
        <ele>2127.60009765625</ele>
        <time>2026-09-03T08:00:08.000Z</time>
        <extensions>
          <ns3:TrackPointExtension>
            <ns3:hr>123</ns3:hr>
            <ns3:cad>86</ns3:cad>
          </ns3:TrackPointExtension>
        </extensions>
      </trkpt>
      <trkpt lat="44.68256869353353977203369140625" lon="6.77953164093196392059326171875">
        <ele>2127.39990234375</ele>
        <time>2026-09-03T08:00:09.000Z</time>
        <extensions>
          <ns3:TrackPointExtension>
            <ns3:hr>123</ns3:hr>
            <ns3:cad>86</ns3:cad>
          </ns3:TrackPointExtension>
        </extensions>
      </trkpt>
      <trkpt lat="44.682541787624359130859375" lon="6.7795288749039173126220703125">
        <ele>2127</ele>
        <time>2026-09-03T08:00:10.000Z</time>
        <extensions>
          <ns3:TrackPointExtension>
            <ns3:hr>123</ns3:hr>
            <ns3:cad>84</ns3:cad>
          </ns3:TrackPointExtension>
        </extensions>
      </trkpt>
      <trkpt lat="44.682514630258083343505859375" lon="6.77953147329390048980712890625">
        <ele>2126.60009765625</ele>
        <time>2026-09-03T08:00:11.000Z</time>
        <extensions>
          <ns3:TrackPointExtension>
            <ns3:hr>124</ns3:hr>
            <ns3:cad>84</ns3:cad>
          </ns3:TrackPointExtension>
        </extensions>
      </trkpt>
      <trkpt lat="44.68248252756893634796142578125" lon="6.779525019228458404541015625">
        <ele>2126.39990234375</ele>
        <time>2026-09-03T08:00:12.000Z</time>
        <extensions>
          <ns3:TrackPointExtension>
            <ns3:hr>124</ns3:hr>
            <ns3:cad>83</ns3:cad>
          </ns3:TrackPointExtension>
        </extensions>
      </trkpt>
      <trkpt lat="44.68246157281100749969482421875" lon="6.779522337019443511962890625">
        <ele>2126</ele>
        <time>2026-09-03T08:00:13.000Z</time>
        <extensions>
          <ns3:TrackPointExtension>
            <ns3:hr>124</ns3:hr>
            <ns3:cad>83</ns3:cad>
          </ns3:TrackPointExtension>
        </extensions>
      </trkpt>
      <trkpt lat="44.68243156559765338897705078125" lon="6.77952007390558719635009765625">
        <ele>2125.60009765625</ele>
        <time>2026-09-03T08:00:14.000Z</time>
        <extensions>
          <ns3:TrackPointExtension>
            <ns3:hr>124</ns3:hr>
            <ns3:cad>83</ns3:cad>
          </ns3:TrackPointExtension>
        </extensions>
      </trkpt>
      <trkpt lat="44.68240541405975818634033203125" lon="6.77951638586819171905517578125">
        <ele>2125.199951171875</ele>
        <time>2026-09-03T08:00:15.000Z</time>
        <extensions>
          <ns3:TrackPointExtension>
            <ns3:hr>124</ns3:hr>
            <ns3:cad>83</ns3:cad>
          </ns3:TrackPointExtension>
        </extensions>
      </trkpt>
      <trkpt lat="44.6823776699602603912353515625" lon="6.7795179784297943115234375">
        <ele>2124.800048828125</ele>
        <time>2026-09-03T08:00:16.000Z</time>
        <extensions>
          <ns3:TrackPointExtension>
            <ns3:hr>125</ns3:hr>
            <ns3:cad>83</ns3:cad>
          </ns3:TrackPointExtension>
        </extensions>
      </trkpt>
      <trkpt lat="44.68234305270016193389892578125" lon="6.7795087583363056182861328125">
        <ele>2124.39990234375</ele>
        <time>2026-09-03T08:00:17.000Z</time>
        <extensions>
          <ns3:TrackPointExtension>
            <ns3:hr>124</ns3:hr>
            <ns3:cad>83</ns3:cad>
          </ns3:TrackPointExtension>
        </extensions>
      </trkpt>
      <trkpt lat="44.682321846485137939453125" lon="6.77950523793697357177734375">
        <ele>2124</ele>
        <time>2026-09-03T08:00:18.000Z</time>
        <extensions>
          <ns3:TrackPointExtension>
            <ns3:hr>125</ns3:hr>
            <ns3:cad>84</ns3:cad>
          </ns3:TrackPointExtension>
        </extensions>
      </trkpt>
      <trkpt lat="44.68229074962437152862548828125" lon="6.7795018851757049560546875">
        <ele>2123.60009765625</ele>
        <time>2026-09-03T08:00:19.000Z</time>
        <extensions>
          <ns3:TrackPointExtension>
            <ns3:hr>125</ns3:hr>
            <ns3:cad>85</ns3:cad>
          </ns3:TrackPointExtension>
        </extensions>
      </trkpt>
      <trkpt lat="44.68226216733455657958984375" lon="6.77949249744415283203125">
        <ele>2123.199951171875</ele>
        <time>2026-09-03T08:00:20.000Z</time>
        <extensions>
          <ns3:TrackPointExtension>
            <ns3:hr>125</ns3:hr>
            <ns3:cad>85</ns3:cad>
          </ns3:TrackPointExtension>
        </extensions>
      </trkpt>
      <trkpt lat="44.68223534524440765380859375" lon="6.77949316799640655517578125">
        <ele>2122.800048828125</ele>
        <time>2026-09-03T08:00:21.000Z</time>
        <extensions>
          <ns3:TrackPointExtension>
            <ns3:hr>125</ns3:hr>
            <ns3:cad>85</ns3:cad>
          </ns3:TrackPointExtension>
        </extensions>
      </trkpt>
      <trkpt lat="44.68220475129783153533935546875" lon="6.779486797749996185302734375">
        <ele>2122.60009765625</ele>
        <time>2026-09-03T08:00:22.000Z</time>
        <extensions>
          <ns3:TrackPointExtension>
            <ns3:hr>125</ns3:hr>
            <ns3:cad>85</ns3:cad>
          </ns3:TrackPointExtension>
        </extensions>
      </trkpt>
      <trkpt lat="44.6821835450828075408935546875" lon="6.7794849537312984466552734375">
        <ele>2122.199951171875</ele>
        <time>2026-09-03T08:00:23.000Z</time>
        <extensions>
          <ns3:TrackPointExtension>
            <ns3:hr>126</ns3:hr>
            <ns3:cad>84</ns3:cad>
          </ns3:TrackPointExtension>
        </extensions>
      </trkpt>
      <trkpt lat="44.68214859254658222198486328125" lon="6.77947682328522205352783203125">
        <ele>2121.800048828125</ele>
        <time>2026-09-03T08:00:24.000Z</time>
        <extensions>
          <ns3:TrackPointExtension>
            <ns3:hr>126</ns3:hr>
            <ns3:cad>84</ns3:cad>
          </ns3:TrackPointExtension>
        </extensions>
      </trkpt>
      <trkpt lat="44.68212914653122425079345703125" lon="6.7794658429920673370361328125">
        <ele>2121.60009765625</ele>
        <time>2026-09-03T08:00:25.000Z</time>
        <extensions>
          <ns3:TrackPointExtension>
            <ns3:hr>126</ns3:hr>
            <ns3:cad>84</ns3:cad>
          </ns3:TrackPointExtension>
        </extensions>
      </trkpt>
      <trkpt lat="44.68210081569850444793701171875" lon="6.7794541083276271820068359375">
        <ele>2121.199951171875</ele>
        <time>2026-09-03T08:00:26.000Z</time>
        <extensions>
          <ns3:TrackPointExtension>
            <ns3:hr>126</ns3:hr>
            <ns3:cad>84</ns3:cad>
          </ns3:TrackPointExtension>
        </extensions>
      </trkpt>
      <trkpt lat="44.68207432888448238372802734375" lon="6.77943960763514041900634765625">
        <ele>2121</ele>
        <time>2026-09-03T08:00:27.000Z</time>
        <extensions>
          <ns3:TrackPointExtension>
            <ns3:hr>127</ns3:hr>
            <ns3:cad>84</ns3:cad>
          </ns3:TrackPointExtension>
        </extensions>
      </trkpt>
      <trkpt lat="44.68204800970852375030517578125" lon="6.7794313095510005950927734375">
        <ele>2120.60009765625</ele>
        <time>2026-09-03T08:00:28.000Z</time>
        <extensions>
          <ns3:TrackPointExtension>
            <ns3:hr>127</ns3:hr>
            <ns3:cad>84</ns3:cad>
          </ns3:TrackPointExtension>
        </extensions>
      </trkpt>
      <trkpt lat="44.68202319927513599395751953125" lon="6.7794080078601837158203125">
        <ele>2120.39990234375</ele>
        <time>2026-09-03T08:00:29.000Z</time>
        <extensions>
          <ns3:TrackPointExtension>
            <ns3:hr>127</ns3:hr>
            <ns3:cad>84</ns3:cad>
          </ns3:TrackPointExtension>
        </extensions>
      </trkpt>
      <trkpt lat="44.68199503608047962188720703125" lon="6.7794007994234561920166015625">
        <ele>2120.199951171875</ele>
        <time>2026-09-03T08:00:30.000Z</time>
        <extensions>
          <ns3:TrackPointExtension>
            <ns3:hr>128</ns3:hr>
            <ns3:cad>85</ns3:cad>
          </ns3:TrackPointExtension>
        </extensions>
      </trkpt>
      <trkpt lat="44.68196318484842777252197265625" lon="6.77938663400709629058837890625">
        <ele>2119.800048828125</ele>
        <time>2026-09-03T08:00:31.000Z</time>
        <extensions>
          <ns3:TrackPointExtension>
            <ns3:hr>128</ns3:hr>
            <ns3:cad>85</ns3:cad>
          </ns3:TrackPointExtension>
        </extensions>
      </trkpt>
      <trkpt lat="44.6819396317005157470703125" lon="6.77937112748622894287109375">
        <ele>2119.60009765625</ele>
        <time>2026-09-03T08:00:32.000Z</time>
        <extensions>
          <ns3:TrackPointExtension>
            <ns3:hr>128</ns3:hr>
            <ns3:cad>86</ns3:cad>
          </ns3:TrackPointExtension>
        </extensions>
      </trkpt>
      <trkpt lat="44.6819136478006839752197265625" lon="6.7793495021760463714599609375">
        <ele>2119.39990234375</ele>
        <time>2026-09-03T08:00:33.000Z</time>
        <extensions>
          <ns3:TrackPointExtension>
            <ns3:hr>129</ns3:hr>
            <ns3:cad>87</ns3:cad>
          </ns3:TrackPointExtension>
        </extensions>
      </trkpt>
      <trkpt lat="44.68188959173858165740966796875" lon="6.779327206313610076904296875">
        <ele>2119.199951171875</ele>
        <time>2026-09-03T08:00:34.000Z</time>
        <extensions>
          <ns3:TrackPointExtension>
            <ns3:hr>129</ns3:hr>
            <ns3:cad>87</ns3:cad>
          </ns3:TrackPointExtension>
        </extensions>
      </trkpt>
      <trkpt lat="44.681864865124225616455078125" lon="6.7793132923543453216552734375">
        <ele>2119</ele>
        <time>2026-09-03T08:00:35.000Z</time>
        <extensions>
          <ns3:TrackPointExtension>
            <ns3:hr>129</ns3:hr>
            <ns3:cad>87</ns3:cad>
          </ns3:TrackPointExtension>
        </extensions>
      </trkpt>
      <trkpt lat="44.681838713586330413818359375" lon="6.779289655387401580810546875">
        <ele>2118.60009765625</ele>
        <time>2026-09-03T08:00:36.000Z</time>
        <extensions>
          <ns3:TrackPointExtension>
            <ns3:hr>129</ns3:hr>
            <ns3:cad>86</ns3:cad>
          </ns3:TrackPointExtension>
        </extensions>
      </trkpt>
      <trkpt lat="44.681813232600688934326171875" lon="6.7792764119803905487060546875">
        <ele>2118.39990234375</ele>
        <time>2026-09-03T08:00:37.000Z</time>
        <extensions>
          <ns3:TrackPointExtension>
            <ns3:hr>129</ns3:hr>
            <ns3:cad>86</ns3:cad>
          </ns3:TrackPointExtension>
        </extensions>
      </trkpt>
      <trkpt lat="44.681785069406032562255859375" lon="6.77925713360309600830078125">
        <ele>2118</ele>
        <time>2026-09-03T08:00:38.000Z</time>
        <extensions>
          <ns3:TrackPointExtension>
            <ns3:hr>129</ns3:hr>
            <ns3:cad>85</ns3:cad>
          </ns3:TrackPointExtension>
        </extensions>
      </trkpt>
      <trkpt lat="44.68175849877297878265380859375" lon="6.7792502604424953460693359375">
        <ele>2117.60009765625</ele>
        <time>2026-09-03T08:00:39.000Z</time>
        <extensions>
          <ns3:TrackPointExtension>
            <ns3:hr>130</ns3:hr>
            <ns3:cad>85</ns3:cad>
          </ns3:TrackPointExtension>
        </extensions>
      </trkpt>
      <trkpt lat="44.68173301778733730316162109375" lon="6.77923877723515033721923828125">
        <ele>2117.199951171875</ele>
        <time>2026-09-03T08:00:40.000Z</time>
        <extensions>
          <ns3:TrackPointExtension>
            <ns3:hr>130</ns3:hr>
            <ns3:cad>84</ns3:cad>
          </ns3:TrackPointExtension>
        </extensions>
      </trkpt>
      <trkpt lat="44.68171457760035991668701171875" lon="6.7792288027703762054443359375">
        <ele>2117</ele>
        <time>2026-09-03T08:00:41.000Z</time>
        <extensions>
          <ns3:TrackPointExtension>
            <ns3:hr>130</ns3:hr>
            <ns3:cad>83</ns3:cad>
          </ns3:TrackPointExtension>
        </extensions>
      </trkpt>
      <trkpt lat="44.68170292675495147705078125" lon="6.77922251634299755096435546875">
        <ele>2116.800048828125</ele>
        <time>2026-09-03T08:00:42.000Z</time>
        <extensions>
          <ns3:TrackPointExtension>
            <ns3:hr>130</ns3:hr>
            <ns3:cad>83</ns3:cad>
          </ns3:TrackPointExtension>
        </extensions>
      </trkpt>
      <trkpt lat="44.68169513158500194549560546875" lon="6.77921958267688751220703125">
        <ele>2116.60009765625</ele>
        <time>2026-09-03T08:00:43.000Z</time>
        <extensions>
          <ns3:TrackPointExtension>
            <ns3:hr>131</ns3:hr>
            <ns3:cad>83</ns3:cad>
          </ns3:TrackPointExtension>
        </extensions>
      </trkpt>
      <trkpt lat="44.68168859370052814483642578125" lon="6.77921715192496776580810546875">
        <ele>2116.39990234375</ele>
        <time>2026-09-03T08:00:44.000Z</time>
        <extensions>
          <ns3:TrackPointExtension>
            <ns3:hr>131</ns3:hr>
            <ns3:cad>83</ns3:cad>
          </ns3:TrackPointExtension>
        </extensions>
      </trkpt>
      <trkpt lat="44.6816863305866718292236328125" lon="6.77921396680176258087158203125">
        <ele>2116.199951171875</ele>
        <time>2026-09-03T08:00:45.000Z</time>
        <extensions>
          <ns3:TrackPointExtension>
            <ns3:hr>131</ns3:hr>
            <ns3:cad>83</ns3:cad>
          </ns3:TrackPointExtension>
        </extensions>
      </trkpt>
      <trkpt lat="44.68168691731989383697509765625" lon="6.77921430207788944244384765625">
        <ele>2116</ele>
        <time>2026-09-03T08:00:46.000Z</time>
        <extensions>
          <ns3:TrackPointExtension>
            <ns3:hr>131</ns3:hr>
            <ns3:cad>83</ns3:cad>
          </ns3:TrackPointExtension>
        </extensions>
      </trkpt>
      <trkpt lat="44.6816863305866718292236328125" lon="6.7792147211730480194091796875">
        <ele>2116</ele>
        <time>2026-09-03T08:00:47.000Z</time>
        <extensions>
          <ns3:TrackPointExtension>
            <ns3:hr>132</ns3:hr>
            <ns3:cad>0</ns3:cad>
          </ns3:TrackPointExtension>
        </extensions>
      </trkpt>
      <trkpt lat="44.6816863305866718292236328125" lon="6.77921463735401630401611328125">
        <ele>2116</ele>
        <time>2026-09-03T08:00:48.000Z</time>
        <extensions>
          <ns3:TrackPointExtension>
            <ns3:hr>131</ns3:hr>
            <ns3:cad>0</ns3:cad>
          </ns3:TrackPointExtension>
        </extensions>
      </trkpt>
      <trkpt lat="44.6816863305866718292236328125" lon="6.77921463735401630401611328125">
        <ele>2115.800048828125</ele>
        <time>2026-09-03T08:00:49.000Z</time>
        <extensions>
          <ns3:TrackPointExtension>
            <ns3:hr>130</ns3:hr>
            <ns3:cad>0</ns3:cad>
          </ns3:TrackPointExtension>
        </extensions>
      </trkpt>
      <trkpt lat="44.68168641440570354461669921875" lon="6.77921446971595287322998046875">
        <ele>2115.800048828125</ele>
        <time>2026-09-03T08:00:50.000Z</time>
        <extensions>
          <ns3:TrackPointExtension>
            <ns3:hr>130</ns3:hr>
            <ns3:cad>0</ns3:cad>
          </ns3:TrackPointExtension>
        </extensions>
      </trkpt>
      <trkpt lat="44.68167836777865886688232421875" lon="6.77921161986887454986572265625">
        <ele>2115.800048828125</ele>
        <time>2026-09-03T08:00:51.000Z</time>
        <extensions>
          <ns3:TrackPointExtension>
            <ns3:hr>129</ns3:hr>
            <ns3:cad>0</ns3:cad>
          </ns3:TrackPointExtension>
        </extensions>
      </trkpt>
      <trkpt lat="44.6816662140190601348876953125" lon="6.7792163975536823272705078125">
        <ele>2115.60009765625</ele>
        <time>2026-09-03T08:00:52.000Z</time>
        <extensions>
          <ns3:TrackPointExtension>
            <ns3:hr>129</ns3:hr>
            <ns3:cad>0</ns3:cad>
          </ns3:TrackPointExtension>
        </extensions>
      </trkpt>
      <trkpt lat="44.6816531382501125335693359375" lon="6.77922000177204608917236328125">
        <ele>2115.39990234375</ele>
        <time>2026-09-03T08:00:53.000Z</time>
        <extensions>
          <ns3:TrackPointExtension>
            <ns3:hr>128</ns3:hr>
            <ns3:cad>0</ns3:cad>
          </ns3:TrackPointExtension>
        </extensions>
      </trkpt>
      <trkpt lat="44.6816343627870082855224609375" lon="6.77922855131328105926513671875">
        <ele>2115.199951171875</ele>
        <time>2026-09-03T08:00:54.000Z</time>
        <extensions>
          <ns3:TrackPointExtension>
            <ns3:hr>128</ns3:hr>
            <ns3:cad>0</ns3:cad>
          </ns3:TrackPointExtension>
        </extensions>
      </trkpt>
      <trkpt lat="44.68162782490253448486328125" lon="6.7792459018528461456298828125">
        <ele>2114.800048828125</ele>
        <time>2026-09-03T08:00:55.000Z</time>
        <extensions>
          <ns3:TrackPointExtension>
            <ns3:hr>128</ns3:hr>
            <ns3:cad>0</ns3:cad>
          </ns3:TrackPointExtension>
        </extensions>
      </trkpt>
      <trkpt lat="44.68159840442240238189697265625" lon="6.7792676948010921478271484375">
        <ele>2114.39990234375</ele>
        <time>2026-09-03T08:00:56.000Z</time>
        <extensions>
          <ns3:TrackPointExtension>
            <ns3:hr>127</ns3:hr>
            <ns3:cad>0</ns3:cad>
          </ns3:TrackPointExtension>
        </extensions>
      </trkpt>
      <trkpt lat="44.68157728202641010284423828125" lon="6.7792797647416591644287109375">
        <ele>2114</ele>
        <time>2026-09-03T08:00:57.000Z</time>
        <extensions>
          <ns3:TrackPointExtension>
            <ns3:hr>127</ns3:hr>
            <ns3:cad>83</ns3:cad>
          </ns3:TrackPointExtension>
        </extensions>
      </trkpt>
      <trkpt lat="44.68155808746814727783203125" lon="6.77929426543414592742919921875">
        <ele>2113.60009765625</ele>
        <time>2026-09-03T08:00:58.000Z</time>
        <extensions>
          <ns3:TrackPointExtension>
            <ns3:hr>127</ns3:hr>
            <ns3:cad>83</ns3:cad>
          </ns3:TrackPointExtension>
        </extensions>
      </trkpt>
      <trkpt lat="44.6815364621579647064208984375" lon="6.7793039046227931976318359375">
        <ele>2113.199951171875</ele>
        <time>2026-09-03T08:00:59.000Z</time>
        <extensions>
          <ns3:TrackPointExtension>
            <ns3:hr>127</ns3:hr>
            <ns3:cad>83</ns3:cad>
          </ns3:TrackPointExtension>
        </extensions>
      </trkpt>
      <trkpt lat="44.6815292537212371826171875" lon="6.77926610223948955535888671875">
        <ele>2113</ele>
        <time>2026-09-03T08:01:00.000Z</time>
        <extensions>
          <ns3:TrackPointExtension>
            <ns3:hr>128</ns3:hr>
            <ns3:cad>83</ns3:cad>
          </ns3:TrackPointExtension>
        </extensions>
      </trkpt>
      <trkpt lat="44.6815357916057109832763671875" lon="6.7792224325239658355712890625">
        <ele>2112.60009765625</ele>
        <time>2026-09-03T08:01:01.000Z</time>
        <extensions>
          <ns3:TrackPointExtension>
            <ns3:hr>128</ns3:hr>
            <ns3:cad>83</ns3:cad>
          </ns3:TrackPointExtension>
        </extensions>
      </trkpt>
      <trkpt lat="44.68154132366180419921875" lon="6.77919066511094570159912109375">
        <ele>2112.39990234375</ele>
        <time>2026-09-03T08:01:02.000Z</time>
        <extensions>
          <ns3:TrackPointExtension>
            <ns3:hr>129</ns3:hr>
            <ns3:cad>85</ns3:cad>
          </ns3:TrackPointExtension>
        </extensions>
      </trkpt>
      <trkpt lat="44.681543670594692230224609375" lon="6.77915361709892749786376953125">
        <ele>2112.199951171875</ele>
        <time>2026-09-03T08:01:03.000Z</time>
        <extensions>
          <ns3:TrackPointExtension>
            <ns3:hr>129</ns3:hr>
            <ns3:cad>85</ns3:cad>
          </ns3:TrackPointExtension>
        </extensions>
      </trkpt>
      <trkpt lat="44.68155364505946636199951171875" lon="6.779114305973052978515625">
        <ele>2111.800048828125</ele>
        <time>2026-09-03T08:01:04.000Z</time>
        <extensions>
          <ns3:TrackPointExtension>
            <ns3:hr>129</ns3:hr>
            <ns3:cad>84</ns3:cad>
          </ns3:TrackPointExtension>
        </extensions>
      </trkpt>
      <trkpt lat="44.68155364505946636199951171875" lon="6.77908639423549175262451171875">
        <ele>2111.39990234375</ele>
        <time>2026-09-03T08:01:05.000Z</time>
        <extensions>
          <ns3:TrackPointExtension>
            <ns3:hr>129</ns3:hr>
            <ns3:cad>82</ns3:cad>
          </ns3:TrackPointExtension>
        </extensions>
      </trkpt>
      <trkpt lat="44.681563787162303924560546875" lon="6.77904347889125347137451171875">
        <ele>2111</ele>
        <time>2026-09-03T08:01:06.000Z</time>
        <extensions>
          <ns3:TrackPointExtension>
            <ns3:hr>128</ns3:hr>
            <ns3:cad>82</ns3:cad>
          </ns3:TrackPointExtension>
        </extensions>
      </trkpt>
      <trkpt lat="44.68157661147415637969970703125" lon="6.77901347167789936065673828125">
        <ele>2110.60009765625</ele>
        <time>2026-09-03T08:01:07.000Z</time>
        <extensions>
          <ns3:TrackPointExtension>
            <ns3:hr>129</ns3:hr>
            <ns3:cad>83</ns3:cad>
          </ns3:TrackPointExtension>
        </extensions>
      </trkpt>
      <trkpt lat="44.6815901063382625579833984375" lon="6.7789800278842449188232421875">
        <ele>2110.39990234375</ele>
        <time>2026-09-03T08:01:08.000Z</time>
        <extensions>
          <ns3:TrackPointExtension>
            <ns3:hr>129</ns3:hr>
            <ns3:cad>83</ns3:cad>
          </ns3:TrackPointExtension>
        </extensions>
      </trkpt>
      <trkpt lat="44.68160896562039852142333984375" lon="6.77894423715770244598388671875">
        <ele>2110</ele>
        <time>2026-09-03T08:01:09.000Z</time>
        <extensions>
          <ns3:TrackPointExtension>
            <ns3:hr>130</ns3:hr>
            <ns3:cad>83</ns3:cad>
          </ns3:TrackPointExtension>
        </extensions>
      </trkpt>
      <trkpt lat="44.68161952681839466094970703125" lon="6.77892160601913928985595703125">
        <ele>2109.60009765625</ele>
        <time>2026-09-03T08:01:10.000Z</time>
        <extensions>
          <ns3:TrackPointExtension>
            <ns3:hr>130</ns3:hr>
            <ns3:cad>83</ns3:cad>
          </ns3:TrackPointExtension>
        </extensions>
      </trkpt>
      <trkpt lat="44.681640565395355224609375" lon="6.77888724021613597869873046875">
        <ele>2109.39990234375</ele>
        <time>2026-09-03T08:01:11.000Z</time>
        <extensions>
          <ns3:TrackPointExtension>
            <ns3:hr>131</ns3:hr>
            <ns3:cad>83</ns3:cad>
          </ns3:TrackPointExtension>
        </extensions>
      </trkpt>
      <trkpt lat="44.68166328035295009613037109375" lon="6.77886486053466796875">
        <ele>2109</ele>
        <time>2026-09-03T08:01:12.000Z</time>
        <extensions>
          <ns3:TrackPointExtension>
            <ns3:hr>131</ns3:hr>
            <ns3:cad>84</ns3:cad>
          </ns3:TrackPointExtension>
        </extensions>
      </trkpt>
      <trkpt lat="44.68168121762573719024658203125" lon="6.7788435705006122589111328125">
        <ele>2108.60009765625</ele>
        <time>2026-09-03T08:01:13.000Z</time>
        <extensions>
          <ns3:TrackPointExtension>
            <ns3:hr>131</ns3:hr>
            <ns3:cad>84</ns3:cad>
          </ns3:TrackPointExtension>
        </extensions>
      </trkpt>
      <trkpt lat="44.681705273687839508056640625" lon="6.7788164131343364715576171875">
        <ele>2108.199951171875</ele>
        <time>2026-09-03T08:01:14.000Z</time>
        <extensions>
          <ns3:TrackPointExtension>
            <ns3:hr>131</ns3:hr>
            <ns3:cad>84</ns3:cad>
          </ns3:TrackPointExtension>
        </extensions>
      </trkpt>
      <trkpt lat="44.6817218698561191558837890625" lon="6.77879453636705875396728515625">
        <ele>2107.800048828125</ele>
        <time>2026-09-03T08:01:15.000Z</time>
        <extensions>
          <ns3:TrackPointExtension>
            <ns3:hr>131</ns3:hr>
            <ns3:cad>83</ns3:cad>
          </ns3:TrackPointExtension>
        </extensions>
      </trkpt>
      <trkpt lat="44.68174718320369720458984375" lon="6.77877291105687618255615234375">
        <ele>2107.39990234375</ele>
        <time>2026-09-03T08:01:16.000Z</time>
        <extensions>
          <ns3:TrackPointExtension>
            <ns3:hr>131</ns3:hr>
            <ns3:cad>83</ns3:cad>
          </ns3:TrackPointExtension>
        </extensions>
      </trkpt>
      <trkpt lat="44.6817721612751483917236328125" lon="6.77875229157507419586181640625">
        <ele>2107</ele>
        <time>2026-09-03T08:01:17.000Z</time>
        <extensions>
          <ns3:TrackPointExtension>
            <ns3:hr>130</ns3:hr>
            <ns3:cad>83</ns3:cad>
          </ns3:TrackPointExtension>
        </extensions>
      </trkpt>
      <trkpt lat="44.6817947924137115478515625" lon="6.77873670123517513275146484375">
        <ele>2106.60009765625</ele>
        <time>2026-09-03T08:01:18.000Z</time>
        <extensions>
          <ns3:TrackPointExtension>
            <ns3:hr>130</ns3:hr>
            <ns3:cad>83</ns3:cad>
          </ns3:TrackPointExtension>
        </extensions>
      </trkpt>
      <trkpt lat="44.68182094395160675048828125" lon="6.778724379837512969970703125">
        <ele>2106</ele>
        <time>2026-09-03T08:01:19.000Z</time>
        <extensions>
          <ns3:TrackPointExtension>
            <ns3:hr>130</ns3:hr>
            <ns3:cad>83</ns3:cad>
          </ns3:TrackPointExtension>
        </extensions>
      </trkpt>
      <trkpt lat="44.68184147961437702178955078125" lon="6.77871155552566051483154296875">
        <ele>2105.60009765625</ele>
        <time>2026-09-03T08:01:20.000Z</time>
        <extensions>
          <ns3:TrackPointExtension>
            <ns3:hr>130</ns3:hr>
            <ns3:cad>84</ns3:cad>
          </ns3:TrackPointExtension>
        </extensions>
      </trkpt>
      <trkpt lat="44.681863524019718170166015625" lon="6.77869378589093685150146484375">
        <ele>2105.199951171875</ele>
        <time>2026-09-03T08:01:21.000Z</time>
        <extensions>
          <ns3:TrackPointExtension>
            <ns3:hr>130</ns3:hr>
            <ns3:cad>84</ns3:cad>
          </ns3:TrackPointExtension>
        </extensions>
      </trkpt>
      <trkpt lat="44.68188120983541011810302734375" lon="6.77868372760713100433349609375">
        <ele>2104.800048828125</ele>
        <time>2026-09-03T08:01:22.000Z</time>
        <extensions>
          <ns3:TrackPointExtension>
            <ns3:hr>131</ns3:hr>
            <ns3:cad>85</ns3:cad>
          </ns3:TrackPointExtension>
        </extensions>
      </trkpt>
      <trkpt lat="44.68190367333590984344482421875" lon="6.7786752618849277496337890625">
        <ele>2104.199951171875</ele>
        <time>2026-09-03T08:01:23.000Z</time>
        <extensions>
          <ns3:TrackPointExtension>
            <ns3:hr>131</ns3:hr>
            <ns3:cad>86</ns3:cad>
          </ns3:TrackPointExtension>
        </extensions>
      </trkpt>
      <trkpt lat="44.68192060478031635284423828125" lon="6.7786668799817562103271484375">
        <ele>2104</ele>
        <time>2026-09-03T08:01:24.000Z</time>
        <extensions>
          <ns3:TrackPointExtension>
            <ns3:hr>131</ns3:hr>
            <ns3:cad>86</ns3:cad>
          </ns3:TrackPointExtension>
        </extensions>
      </trkpt>
      <trkpt lat="44.681942649185657501220703125" lon="6.77865221165120601654052734375">
        <ele>2103.60009765625</ele>
        <time>2026-09-03T08:01:25.000Z</time>
        <extensions>
          <ns3:TrackPointExtension>
            <ns3:hr>131</ns3:hr>
            <ns3:cad>86</ns3:cad>
          </ns3:TrackPointExtension>
        </extensions>
      </trkpt>
      <trkpt lat="44.681970141828060150146484375" lon="6.7786457575857639312744140625">
        <ele>2103.199951171875</ele>
        <time>2026-09-03T08:01:26.000Z</time>
        <extensions>
          <ns3:TrackPointExtension>
            <ns3:hr>131</ns3:hr>
            <ns3:cad>86</ns3:cad>
          </ns3:TrackPointExtension>
        </extensions>
      </trkpt>
      <trkpt lat="44.6819959580898284912109375" lon="6.77864835597574710845947265625">
        <ele>2102.800048828125</ele>
        <time>2026-09-03T08:01:27.000Z</time>
        <extensions>
          <ns3:TrackPointExtension>
            <ns3:hr>131</ns3:hr>
            <ns3:cad>85</ns3:cad>
          </ns3:TrackPointExtension>
        </extensions>
      </trkpt>
      <trkpt lat="44.6820219419896602630615234375" lon="6.778651960194110870361328125">
        <ele>2102.199951171875</ele>
        <time>2026-09-03T08:01:28.000Z</time>
        <extensions>
          <ns3:TrackPointExtension>
            <ns3:hr>131</ns3:hr>
            <ns3:cad>84</ns3:cad>
          </ns3:TrackPointExtension>
        </extensions>
      </trkpt>
      <trkpt lat="44.68204465694725513458251953125" lon="6.77865019999444484710693359375">
        <ele>2101.800048828125</ele>
        <time>2026-09-03T08:01:29.000Z</time>
        <extensions>
          <ns3:TrackPointExtension>
            <ns3:hr>131</ns3:hr>
            <ns3:cad>84</ns3:cad>
          </ns3:TrackPointExtension>
        </extensions>
      </trkpt>
      <trkpt lat="44.68206100165843963623046875" lon="6.7786534689366817474365234375">
        <ele>2101.39990234375</ele>
        <time>2026-09-03T08:01:30.000Z</time>
        <extensions>
          <ns3:TrackPointExtension>
            <ns3:hr>131</ns3:hr>
            <ns3:cad>84</ns3:cad>
          </ns3:TrackPointExtension>
        </extensions>
      </trkpt>
      <trkpt lat="44.682091176509857177734375" lon="6.77865321747958660125732421875">
        <ele>2101</ele>
        <time>2026-09-03T08:01:31.000Z</time>
        <extensions>
          <ns3:TrackPointExtension>
            <ns3:hr>131</ns3:hr>
            <ns3:cad>84</ns3:cad>
          </ns3:TrackPointExtension>
        </extensions>
      </trkpt>
      <trkpt lat="44.6821151487529277801513671875" lon="6.77864667959511280059814453125">
        <ele>2100.39990234375</ele>
        <time>2026-09-03T08:01:32.000Z</time>
        <extensions>
          <ns3:TrackPointExtension>
            <ns3:hr>131</ns3:hr>
            <ns3:cad>84</ns3:cad>
          </ns3:TrackPointExtension>
        </extensions>
      </trkpt>
      <trkpt lat="44.6821449883282184600830078125" lon="6.77863762713968753814697265625">
        <ele>2100.199951171875</ele>
        <time>2026-09-03T08:01:33.000Z</time>
        <extensions>
          <ns3:TrackPointExtension>
            <ns3:hr>132</ns3:hr>
            <ns3:cad>84</ns3:cad>
          </ns3:TrackPointExtension>
        </extensions>
      </trkpt>
      <trkpt lat="44.68217021785676479339599609375" lon="6.77862823940813541412353515625">
        <ele>2099.800048828125</ele>
        <time>2026-09-03T08:01:34.000Z</time>
        <extensions>
          <ns3:TrackPointExtension>
            <ns3:hr>132</ns3:hr>
            <ns3:cad>84</ns3:cad>
          </ns3:TrackPointExtension>
        </extensions>
      </trkpt>
      <trkpt lat="44.6821905858814716339111328125" lon="6.7786165885627269744873046875">
        <ele>2099.39990234375</ele>
        <time>2026-09-03T08:01:35.000Z</time>
        <extensions>
          <ns3:TrackPointExtension>
            <ns3:hr>132</ns3:hr>
            <ns3:cad>84</ns3:cad>
          </ns3:TrackPointExtension>
        </extensions>
      </trkpt>
      <trkpt lat="44.68221162445843219757080078125" lon="6.778607033193111419677734375">
        <ele>2099</ele>
        <time>2026-09-03T08:01:36.000Z</time>
        <extensions>
          <ns3:TrackPointExtension>
            <ns3:hr>132</ns3:hr>
            <ns3:cad>85</ns3:cad>
          </ns3:TrackPointExtension>
        </extensions>
      </trkpt>
      <trkpt lat="44.6822328306734561920166015625" lon="6.7785899341106414794921875">
        <ele>2098.60009765625</ele>
        <time>2026-09-03T08:01:37.000Z</time>
        <extensions>
          <ns3:TrackPointExtension>
            <ns3:hr>132</ns3:hr>
            <ns3:cad>85</ns3:cad>
          </ns3:TrackPointExtension>
        </extensions>
      </trkpt>
      <trkpt lat="44.68225412070751190185546875" lon="6.77857945673167705535888671875">
        <ele>2098</ele>
        <time>2026-09-03T08:01:38.000Z</time>
        <extensions>
          <ns3:TrackPointExtension>
            <ns3:hr>133</ns3:hr>
            <ns3:cad>85</ns3:cad>
          </ns3:TrackPointExtension>
        </extensions>
      </trkpt>
      <trkpt lat="44.68227365054190158843994140625" lon="6.77856772206723690032958984375">
        <ele>2097.60009765625</ele>
        <time>2026-09-03T08:01:39.000Z</time>
        <extensions>
          <ns3:TrackPointExtension>
            <ns3:hr>132</ns3:hr>
            <ns3:cad>85</ns3:cad>
          </ns3:TrackPointExtension>
        </extensions>
      </trkpt>
      <trkpt lat="44.68229393474757671356201171875" lon="6.77855841815471649169921875">
        <ele>2097.199951171875</ele>
        <time>2026-09-03T08:01:40.000Z</time>
        <extensions>
          <ns3:TrackPointExtension>
            <ns3:hr>132</ns3:hr>
            <ns3:cad>86</ns3:cad>
          </ns3:TrackPointExtension>
        </extensions>
      </trkpt>
      <trkpt lat="44.682311117649078369140625" lon="6.77854768931865692138671875">
        <ele>2096.800048828125</ele>
        <time>2026-09-03T08:01:41.000Z</time>
        <extensions>
          <ns3:TrackPointExtension>
            <ns3:hr>132</ns3:hr>
            <ns3:cad>87</ns3:cad>
          </ns3:TrackPointExtension>
        </extensions>
      </trkpt>
      <trkpt lat="44.68233525753021240234375" lon="6.7785491980612277984619140625">
        <ele>2096.39990234375</ele>
        <time>2026-09-03T08:01:42.000Z</time>
        <extensions>
          <ns3:TrackPointExtension>
            <ns3:hr>132</ns3:hr>
            <ns3:cad>87</ns3:cad>
          </ns3:TrackPointExtension>
        </extensions>
      </trkpt>
      <trkpt lat="44.682352356612682342529296875" lon="6.7785441689193248748779296875">
        <ele>2096</ele>
        <time>2026-09-03T08:01:43.000Z</time>
        <extensions>
          <ns3:TrackPointExtension>
            <ns3:hr>132</ns3:hr>
            <ns3:cad>87</ns3:cad>
          </ns3:TrackPointExtension>
        </extensions>
      </trkpt>
      <trkpt lat="44.682371132075786590576171875" lon="6.7785176821053028106689453125">
        <ele>2095.60009765625</ele>
        <time>2026-09-03T08:01:44.000Z</time>
        <extensions>
          <ns3:TrackPointExtension>
            <ns3:hr>132</ns3:hr>
            <ns3:cad>87</ns3:cad>
          </ns3:TrackPointExtension>
        </extensions>
      </trkpt>
      <trkpt lat="44.682383872568607330322265625" lon="6.77849270403385162353515625">
        <ele>2095.199951171875</ele>
        <time>2026-09-03T08:01:45.000Z</time>
        <extensions>
          <ns3:TrackPointExtension>
            <ns3:hr>132</ns3:hr>
            <ns3:cad>88</ns3:cad>
          </ns3:TrackPointExtension>
        </extensions>
      </trkpt>
      <trkpt lat="44.682388566434383392333984375" lon="6.7784556560218334197998046875">
        <ele>2094.800048828125</ele>
        <time>2026-09-03T08:01:46.000Z</time>
        <extensions>
          <ns3:TrackPointExtension>
            <ns3:hr>132</ns3:hr>
            <ns3:cad>87</ns3:cad>
          </ns3:TrackPointExtension>
        </extensions>
      </trkpt>
      <trkpt lat="44.68239803798496723175048828125" lon="6.77842707373201847076416015625">
        <ele>2094.39990234375</ele>
        <time>2026-09-03T08:01:47.000Z</time>
        <extensions>
          <ns3:TrackPointExtension>
            <ns3:hr>132</ns3:hr>
            <ns3:cad>87</ns3:cad>
          </ns3:TrackPointExtension>
        </extensions>
      </trkpt>
      <trkpt lat="44.68240072019398212432861328125" lon="6.7783994972705841064453125">
        <ele>2094</ele>
        <time>2026-09-03T08:01:48.000Z</time>
        <extensions>
          <ns3:TrackPointExtension>
            <ns3:hr>132</ns3:hr>
            <ns3:cad>86</ns3:cad>
          </ns3:TrackPointExtension>
        </extensions>
      </trkpt>
      <trkpt lat="44.68240105547010898590087890625" lon="6.7783728428184986114501953125">
        <ele>2093.60009765625</ele>
        <time>2026-09-03T08:01:49.000Z</time>
        <extensions>
          <ns3:TrackPointExtension>
            <ns3:hr>132</ns3:hr>
            <ns3:cad>85</ns3:cad>
          </ns3:TrackPointExtension>
        </extensions>
      </trkpt>
      <trkpt lat="44.68239963054656982421875" lon="6.7783476971089839935302734375">
        <ele>2093.39990234375</ele>
        <time>2026-09-03T08:01:50.000Z</time>
        <extensions>
          <ns3:TrackPointExtension>
            <ns3:hr>132</ns3:hr>
            <ns3:cad>85</ns3:cad>
          </ns3:TrackPointExtension>
        </extensions>
      </trkpt>
      <trkpt lat="44.6823902428150177001953125" lon="6.77832364104688167572021484375">
        <ele>2093</ele>
        <time>2026-09-03T08:01:51.000Z</time>
        <extensions>
          <ns3:TrackPointExtension>
            <ns3:hr>132</ns3:hr>
            <ns3:cad>85</ns3:cad>
          </ns3:TrackPointExtension>
        </extensions>
      </trkpt>
      <trkpt lat="44.6823743171989917755126953125" lon="6.778306625783443450927734375">
        <ele>2092.60009765625</ele>
        <time>2026-09-03T08:01:52.000Z</time>
        <extensions>
          <ns3:TrackPointExtension>
            <ns3:hr>132</ns3:hr>
            <ns3:cad>86</ns3:cad>
          </ns3:TrackPointExtension>
        </extensions>
      </trkpt>
      <trkpt lat="44.682354368269443511962890625" lon="6.77829782478511333465576171875">
        <ele>2092.199951171875</ele>
        <time>2026-09-03T08:01:53.000Z</time>
        <extensions>
          <ns3:TrackPointExtension>
            <ns3:hr>132</ns3:hr>
            <ns3:cad>87</ns3:cad>
          </ns3:TrackPointExtension>
        </extensions>
      </trkpt>
      <trkpt lat="44.68233366496860980987548828125" lon="6.77830419503152370452880859375">
        <ele>2092</ele>
        <time>2026-09-03T08:01:54.000Z</time>
        <extensions>
          <ns3:TrackPointExtension>
            <ns3:hr>132</ns3:hr>
            <ns3:cad>87</ns3:cad>
          </ns3:TrackPointExtension>
        </extensions>
      </trkpt>
      <trkpt lat="44.68231203965842723846435546875" lon="6.77831525914371013641357421875">
        <ele>2091.60009765625</ele>
        <time>2026-09-03T08:01:55.000Z</time>
        <extensions>
          <ns3:TrackPointExtension>
            <ns3:hr>132</ns3:hr>
            <ns3:cad>88</ns3:cad>
          </ns3:TrackPointExtension>
        </extensions>
      </trkpt>
      <trkpt lat="44.68229460529983043670654296875" lon="6.77832833491265773773193359375">
        <ele>2091.199951171875</ele>
        <time>2026-09-03T08:01:56.000Z</time>
        <extensions>
          <ns3:TrackPointExtension>
            <ns3:hr>131</ns3:hr>
            <ns3:cad>88</ns3:cad>
          </ns3:TrackPointExtension>
        </extensions>
      </trkpt>
      <trkpt lat="44.68228303827345371246337890625" lon="6.77833805792033672332763671875">
        <ele>2090.800048828125</ele>
        <time>2026-09-03T08:01:57.000Z</time>
        <extensions>
          <ns3:TrackPointExtension>
            <ns3:hr>131</ns3:hr>
            <ns3:cad>88</ns3:cad>
          </ns3:TrackPointExtension>
        </extensions>
      </trkpt>
      <trkpt lat="44.68226753175258636474609375" lon="6.7783379741013050079345703125">
        <ele>2090.39990234375</ele>
        <time>2026-09-03T08:01:58.000Z</time>
        <extensions>
          <ns3:TrackPointExtension>
            <ns3:hr>131</ns3:hr>
            <ns3:cad>88</ns3:cad>
          </ns3:TrackPointExtension>
        </extensions>
      </trkpt>
      <trkpt lat="44.682251773774623870849609375" lon="6.778334788978099822998046875">
        <ele>2090</ele>
        <time>2026-09-03T08:01:59.000Z</time>
        <extensions>
          <ns3:TrackPointExtension>
            <ns3:hr>130</ns3:hr>
            <ns3:cad>88</ns3:cad>
          </ns3:TrackPointExtension>
        </extensions>
      </trkpt>
      <trkpt lat="44.68223626725375652313232421875" lon="6.77833470515906810760498046875">
        <ele>2089.800048828125</ele>
        <time>2026-09-03T08:02:00.000Z</time>
        <extensions>
          <ns3:TrackPointExtension>
            <ns3:hr>129</ns3:hr>
            <ns3:cad>88</ns3:cad>
          </ns3:TrackPointExtension>
        </extensions>
      </trkpt>
      <trkpt lat="44.68222470022737979888916015625" lon="6.7783289216458797454833984375">
        <ele>2089.60009765625</ele>
        <time>2026-09-03T08:02:01.000Z</time>
        <extensions>
          <ns3:TrackPointExtension>
            <ns3:hr>129</ns3:hr>
            <ns3:cad>88</ns3:cad>
          </ns3:TrackPointExtension>
        </extensions>
      </trkpt>
      <trkpt lat="44.6822117082774639129638671875" lon="6.7783259041607379913330078125">
        <ele>2089.39990234375</ele>
        <time>2026-09-03T08:02:02.000Z</time>
        <extensions>
          <ns3:TrackPointExtension>
            <ns3:hr>128</ns3:hr>
            <ns3:cad>88</ns3:cad>
          </ns3:TrackPointExtension>
        </extensions>
      </trkpt>
      <trkpt lat="44.68219452537596225738525390625" lon="6.778309978544712066650390625">
        <ele>2089.199951171875</ele>
        <time>2026-09-03T08:02:03.000Z</time>
        <extensions>
          <ns3:TrackPointExtension>
            <ns3:hr>127</ns3:hr>
            <ns3:cad>67</ns3:cad>
          </ns3:TrackPointExtension>
        </extensions>
      </trkpt>
      <trkpt lat="44.6821781806647777557373046875" lon="6.778302602469921112060546875">
        <ele>2088.800048828125</ele>
        <time>2026-09-03T08:02:04.000Z</time>
        <extensions>
          <ns3:TrackPointExtension>
            <ns3:hr>126</ns3:hr>
            <ns3:cad>66</ns3:cad>
          </ns3:TrackPointExtension>
        </extensions>
      </trkpt>
      <trkpt lat="44.68215613625943660736083984375" lon="6.7782866768538951873779296875">
        <ele>2088.60009765625</ele>
        <time>2026-09-03T08:02:05.000Z</time>
        <extensions>
          <ns3:TrackPointExtension>
            <ns3:hr>126</ns3:hr>
            <ns3:cad>66</ns3:cad>
          </ns3:TrackPointExtension>
        </extensions>
      </trkpt>
      <trkpt lat="44.68213501386344432830810546875" lon="6.77826941013336181640625">
        <ele>2088.39990234375</ele>
        <time>2026-09-03T08:02:06.000Z</time>
        <extensions>
          <ns3:TrackPointExtension>
            <ns3:hr>125</ns3:hr>
            <ns3:cad>66</ns3:cad>
          </ns3:TrackPointExtension>
        </extensions>
      </trkpt>
      <trkpt lat="44.68211640603840351104736328125" lon="6.7782548256218433380126953125">
        <ele>2088.199951171875</ele>
        <time>2026-09-03T08:02:07.000Z</time>
        <extensions>
          <ns3:TrackPointExtension>
            <ns3:hr>125</ns3:hr>
            <ns3:cad>66</ns3:cad>
          </ns3:TrackPointExtension>
        </extensions>
      </trkpt>
      <trkpt lat="44.68209109269082546234130859375" lon="6.7782316915690898895263671875">
        <ele>2088</ele>
        <time>2026-09-03T08:02:08.000Z</time>
        <extensions>
          <ns3:TrackPointExtension>
            <ns3:hr>124</ns3:hr>
            <ns3:cad>66</ns3:cad>
          </ns3:TrackPointExtension>
        </extensions>
      </trkpt>
      <trkpt lat="44.68207047320902347564697265625" lon="6.778210736811161041259765625">
        <ele>2087.60009765625</ele>
        <time>2026-09-03T08:02:09.000Z</time>
        <extensions>
          <ns3:TrackPointExtension>
            <ns3:hr>124</ns3:hr>
            <ns3:cad>79</ns3:cad>
          </ns3:TrackPointExtension>
        </extensions>
      </trkpt>
      <trkpt lat="44.68205287121236324310302734375" lon="6.7781941406428813934326171875">
        <ele>2087.199951171875</ele>
        <time>2026-09-03T08:02:10.000Z</time>
        <extensions>
          <ns3:TrackPointExtension>
            <ns3:hr>124</ns3:hr>
            <ns3:cad>79</ns3:cad>
          </ns3:TrackPointExtension>
        </extensions>
      </trkpt>
      <trkpt lat="44.68202806077897548675537109375" lon="6.778181903064250946044921875">
        <ele>2086.800048828125</ele>
        <time>2026-09-03T08:02:11.000Z</time>
        <extensions>
          <ns3:TrackPointExtension>
            <ns3:hr>123</ns3:hr>
            <ns3:cad>80</ns3:cad>
          </ns3:TrackPointExtension>
        </extensions>
      </trkpt>
      <trkpt lat="44.6820098720490932464599609375" lon="6.7781730182468891143798828125">
        <ele>2086.39990234375</ele>
        <time>2026-09-03T08:02:12.000Z</time>
        <extensions>
          <ns3:TrackPointExtension>
            <ns3:hr>123</ns3:hr>
            <ns3:cad>82</ns3:cad>
          </ns3:TrackPointExtension>
        </extensions>
      </trkpt>
      <trkpt lat="44.6819870732724666595458984375" lon="6.778161786496639251708984375">
        <ele>2086</ele>
        <time>2026-09-03T08:02:13.000Z</time>
        <extensions>
          <ns3:TrackPointExtension>
            <ns3:hr>123</ns3:hr>
            <ns3:cad>82</ns3:cad>
          </ns3:TrackPointExtension>
        </extensions>
      </trkpt>
      <trkpt lat="44.68197139911353588104248046875" lon="6.77814778871834278106689453125">
        <ele>2085.60009765625</ele>
        <time>2026-09-03T08:02:14.000Z</time>
        <extensions>
          <ns3:TrackPointExtension>
            <ns3:hr>123</ns3:hr>
            <ns3:cad>82</ns3:cad>
          </ns3:TrackPointExtension>
        </extensions>
      </trkpt>
      <trkpt lat="44.68194968998432159423828125" lon="6.77812549285590648651123046875">
        <ele>2085.199951171875</ele>
        <time>2026-09-03T08:02:15.000Z</time>
        <extensions>
          <ns3:TrackPointExtension>
            <ns3:hr>123</ns3:hr>
            <ns3:cad>84</ns3:cad>
          </ns3:TrackPointExtension>
        </extensions>
      </trkpt>
      <trkpt lat="44.68192881904542446136474609375" lon="6.7781130038201808929443359375">
        <ele>2084.800048828125</ele>
        <time>2026-09-03T08:02:16.000Z</time>
        <extensions>
          <ns3:TrackPointExtension>
            <ns3:hr>123</ns3:hr>
            <ns3:cad>85</ns3:cad>
          </ns3:TrackPointExtension>
        </extensions>
      </trkpt>
      <trkpt lat="44.68190467916429042816162109375" lon="6.77809682674705982208251953125">
        <ele>2084.39990234375</ele>
        <time>2026-09-03T08:02:17.000Z</time>
        <extensions>
          <ns3:TrackPointExtension>
            <ns3:hr>123</ns3:hr>
            <ns3:cad>87</ns3:cad>
          </ns3:TrackPointExtension>
        </extensions>
      </trkpt>
      <trkpt lat="44.6818851493299007415771484375" lon="6.77807855419814586639404296875">
        <ele>2084</ele>
        <time>2026-09-03T08:02:18.000Z</time>
        <extensions>
          <ns3:TrackPointExtension>
            <ns3:hr>123</ns3:hr>
            <ns3:cad>87</ns3:cad>
          </ns3:TrackPointExtension>
        </extensions>
      </trkpt>
      <trkpt lat="44.68186478130519390106201171875" lon="6.77806983701884746551513671875">
        <ele>2083.60009765625</ele>
        <time>2026-09-03T08:02:19.000Z</time>
        <extensions>
          <ns3:TrackPointExtension>
            <ns3:hr>123</ns3:hr>
            <ns3:cad>87</ns3:cad>
          </ns3:TrackPointExtension>
        </extensions>
      </trkpt>
      <trkpt lat="44.6818455867469310760498046875" lon="6.77806044928729534149169921875">
        <ele>2083.39990234375</ele>
        <time>2026-09-03T08:02:20.000Z</time>
        <extensions>
          <ns3:TrackPointExtension>
            <ns3:hr>123</ns3:hr>
            <ns3:cad>86</ns3:cad>
          </ns3:TrackPointExtension>
        </extensions>
      </trkpt>
      <trkpt lat="44.6818304993212223052978515625" lon="6.7780508100986480712890625">
        <ele>2083</ele>
        <time>2026-09-03T08:02:21.000Z</time>
        <extensions>
          <ns3:TrackPointExtension>
            <ns3:hr>122</ns3:hr>
            <ns3:cad>86</ns3:cad>
          </ns3:TrackPointExtension>
        </extensions>
      </trkpt>
      <trkpt lat="44.681813903152942657470703125" lon="6.77804536186158657073974609375">
        <ele>2082.800048828125</ele>
        <time>2026-09-03T08:02:22.000Z</time>
        <extensions>
          <ns3:TrackPointExtension>
            <ns3:hr>123</ns3:hr>
            <ns3:cad>86</ns3:cad>
          </ns3:TrackPointExtension>
        </extensions>
      </trkpt>
      <trkpt lat="44.68179420568048954010009765625" lon="6.77805726416409015655517578125">
        <ele>2082.39990234375</ele>
        <time>2026-09-03T08:02:23.000Z</time>
        <extensions>
          <ns3:TrackPointExtension>
            <ns3:hr>123</ns3:hr>
            <ns3:cad>87</ns3:cad>
          </ns3:TrackPointExtension>
        </extensions>
      </trkpt>
      <trkpt lat="44.6817706525325775146484375" lon="6.7780576832592487335205078125">
        <ele>2082</ele>
        <time>2026-09-03T08:02:24.000Z</time>
        <extensions>
          <ns3:TrackPointExtension>
            <ns3:hr>123</ns3:hr>
            <ns3:cad>87</ns3:cad>
          </ns3:TrackPointExtension>
        </extensions>
      </trkpt>
      <trkpt lat="44.68175414018332958221435546875" lon="6.77804502658545970916748046875">
        <ele>2081.60009765625</ele>
        <time>2026-09-03T08:02:25.000Z</time>
        <extensions>
          <ns3:TrackPointExtension>
            <ns3:hr>122</ns3:hr>
            <ns3:cad>87</ns3:cad>
          </ns3:TrackPointExtension>
        </extensions>
      </trkpt>
      <trkpt lat="44.6817411482334136962890625" lon="6.7780239880084991455078125">
        <ele>2081.39990234375</ele>
        <time>2026-09-03T08:02:26.000Z</time>
        <extensions>
          <ns3:TrackPointExtension>
            <ns3:hr>123</ns3:hr>
            <ns3:cad>87</ns3:cad>
          </ns3:TrackPointExtension>
        </extensions>
      </trkpt>
      <trkpt lat="44.68174743466079235076904296875" lon="6.77800496108829975128173828125">
        <ele>2081</ele>
        <time>2026-09-03T08:02:27.000Z</time>
        <extensions>
          <ns3:TrackPointExtension>
            <ns3:hr>122</ns3:hr>
            <ns3:cad>85</ns3:cad>
          </ns3:TrackPointExtension>
        </extensions>
      </trkpt>
      <trkpt lat="44.68176788650453090667724609375" lon="6.7779923044145107269287109375">
        <ele>2080.800048828125</ele>
        <time>2026-09-03T08:02:28.000Z</time>
        <extensions>
          <ns3:TrackPointExtension>
            <ns3:hr>121</ns3:hr>
            <ns3:cad>85</ns3:cad>
          </ns3:TrackPointExtension>
        </extensions>
      </trkpt>
      <trkpt lat="44.68178548850119113922119140625" lon="6.77798442542552947998046875">
        <ele>2080.39990234375</ele>
        <time>2026-09-03T08:02:29.000Z</time>
        <extensions>
          <ns3:TrackPointExtension>
            <ns3:hr>121</ns3:hr>
            <ns3:cad>85</ns3:cad>
          </ns3:TrackPointExtension>
        </extensions>
      </trkpt>
      <trkpt lat="44.68181029893457889556884765625" lon="6.77797696553170680999755859375">
        <ele>2080</ele>
        <time>2026-09-03T08:02:30.000Z</time>
        <extensions>
          <ns3:TrackPointExtension>
            <ns3:hr>121</ns3:hr>
            <ns3:cad>82</ns3:cad>
          </ns3:TrackPointExtension>
        </extensions>
      </trkpt>
      <trkpt lat="44.6818264760076999664306640625" lon="6.7779731936752796173095703125">
        <ele>2079.800048828125</ele>
        <time>2026-09-03T08:02:31.000Z</time>
        <extensions>
          <ns3:TrackPointExtension>
            <ns3:hr>121</ns3:hr>
            <ns3:cad>82</ns3:cad>
          </ns3:TrackPointExtension>
        </extensions>
      </trkpt>
      <trkpt lat="44.68185044825077056884765625" lon="6.777967326343059539794921875">
        <ele>2079.39990234375</ele>
        <time>2026-09-03T08:02:32.000Z</time>
        <extensions>
          <ns3:TrackPointExtension>
            <ns3:hr>120</ns3:hr>
            <ns3:cad>82</ns3:cad>
          </ns3:TrackPointExtension>
        </extensions>
      </trkpt>
      <trkpt lat="44.68186561949551105499267578125" lon="6.777963973581790924072265625">
        <ele>2079</ele>
        <time>2026-09-03T08:02:33.000Z</time>
        <extensions>
          <ns3:TrackPointExtension>
            <ns3:hr>120</ns3:hr>
            <ns3:cad>82</ns3:cad>
          </ns3:TrackPointExtension>
        </extensions>
      </trkpt>
      <trkpt lat="44.681883640587329864501953125" lon="6.77794896997511386871337890625">
        <ele>2078.39990234375</ele>
        <time>2026-09-03T08:02:34.000Z</time>
        <extensions>
          <ns3:TrackPointExtension>
            <ns3:hr>120</ns3:hr>
            <ns3:cad>82</ns3:cad>
          </ns3:TrackPointExtension>
        </extensions>
      </trkpt>
      <trkpt lat="44.68190115876495838165283203125" lon="6.77792231552302837371826171875">
        <ele>2078</ele>
        <time>2026-09-03T08:02:35.000Z</time>
        <extensions>
          <ns3:TrackPointExtension>
            <ns3:hr>120</ns3:hr>
            <ns3:cad>82</ns3:cad>
          </ns3:TrackPointExtension>
        </extensions>
      </trkpt>
      <trkpt lat="44.68190736137330532073974609375" lon="6.7778987623751163482666015625">
        <ele>2077.39990234375</ele>
        <time>2026-09-03T08:02:36.000Z</time>
        <extensions>
          <ns3:TrackPointExtension>
            <ns3:hr>120</ns3:hr>
            <ns3:cad>82</ns3:cad>
          </ns3:TrackPointExtension>
        </extensions>
      </trkpt>
      <trkpt lat="44.681896381080150604248046875" lon="6.77787085063755512237548828125">
        <ele>2077</ele>
        <time>2026-09-03T08:02:37.000Z</time>
        <extensions>
          <ns3:TrackPointExtension>
            <ns3:hr>120</ns3:hr>
            <ns3:cad>90</ns3:cad>
          </ns3:TrackPointExtension>
        </extensions>
      </trkpt>
      <trkpt lat="44.68188154511153697967529296875" lon="6.777859367430210113525390625">
        <ele>2076.60009765625</ele>
        <time>2026-09-03T08:02:38.000Z</time>
        <extensions>
          <ns3:TrackPointExtension>
            <ns3:hr>120</ns3:hr>
            <ns3:cad>90</ns3:cad>
          </ns3:TrackPointExtension>
        </extensions>
      </trkpt>
      <trkpt lat="44.68186008743941783905029296875" lon="6.77786431275308132171630859375">
        <ele>2076.199951171875</ele>
        <time>2026-09-03T08:02:39.000Z</time>
        <extensions>
          <ns3:TrackPointExtension>
            <ns3:hr>119</ns3:hr>
            <ns3:cad>90</ns3:cad>
          </ns3:TrackPointExtension>
        </extensions>
      </trkpt>
      <trkpt lat="44.6818296611309051513671875" lon="6.777869425714015960693359375">
        <ele>2075.800048828125</ele>
        <time>2026-09-03T08:02:40.000Z</time>
        <extensions>
          <ns3:TrackPointExtension>
            <ns3:hr>118</ns3:hr>
            <ns3:cad>90</ns3:cad>
          </ns3:TrackPointExtension>
        </extensions>
      </trkpt>
      <trkpt lat="44.68180677853524684906005859375" lon="6.77786934189498424530029296875">
        <ele>2075.60009765625</ele>
        <time>2026-09-03T08:02:41.000Z</time>
        <extensions>
          <ns3:TrackPointExtension>
            <ns3:hr>118</ns3:hr>
            <ns3:cad>88</ns3:cad>
          </ns3:TrackPointExtension>
        </extensions>
      </trkpt>
      <trkpt lat="44.6817788667976856231689453125" lon="6.77786649204790592193603515625">
        <ele>2075.39990234375</ele>
        <time>2026-09-03T08:02:42.000Z</time>
        <extensions>
          <ns3:TrackPointExtension>
            <ns3:hr>117</ns3:hr>
            <ns3:cad>86</ns3:cad>
          </ns3:TrackPointExtension>
        </extensions>
      </trkpt>
      <trkpt lat="44.68175749294459819793701171875" lon="6.7778625525534152984619140625">
        <ele>2075.199951171875</ele>
        <time>2026-09-03T08:02:43.000Z</time>
        <extensions>
          <ns3:TrackPointExtension>
            <ns3:hr>116</ns3:hr>
            <ns3:cad>86</ns3:cad>
          </ns3:TrackPointExtension>
        </extensions>
      </trkpt>
      <trkpt lat="44.68173100613057613372802734375" lon="6.7778635583817958831787109375">
        <ele>2075.199951171875</ele>
        <time>2026-09-03T08:02:44.000Z</time>
        <extensions>
          <ns3:TrackPointExtension>
            <ns3:hr>116</ns3:hr>
            <ns3:cad>84</ns3:cad>
          </ns3:TrackPointExtension>
        </extensions>
      </trkpt>
      <trkpt lat="44.68169999308884143829345703125" lon="6.7778662405908107757568359375">
        <ele>2075.199951171875</ele>
        <time>2026-09-03T08:02:45.000Z</time>
        <extensions>
          <ns3:TrackPointExtension>
            <ns3:hr>116</ns3:hr>
            <ns3:cad>84</ns3:cad>
          </ns3:TrackPointExtension>
        </extensions>
      </trkpt>
      <trkpt lat="44.6816725842654705047607421875" lon="6.777873449027538299560546875">
        <ele>2075.199951171875</ele>
        <time>2026-09-03T08:02:46.000Z</time>
        <extensions>
          <ns3:TrackPointExtension>
            <ns3:hr>117</ns3:hr>
            <ns3:cad>84</ns3:cad>
          </ns3:TrackPointExtension>
        </extensions>
      </trkpt>
      <trkpt lat="44.6816420741379261016845703125" lon="6.777868755161762237548828125">
        <ele>2075</ele>
        <time>2026-09-03T08:02:47.000Z</time>
        <extensions>
          <ns3:TrackPointExtension>
            <ns3:hr>117</ns3:hr>
            <ns3:cad>85</ns3:cad>
          </ns3:TrackPointExtension>
        </extensions>
      </trkpt>
      <trkpt lat="44.68162070028483867645263671875" lon="6.7778648994863033294677734375">
        <ele>2074.800048828125</ele>
        <time>2026-09-03T08:02:48.000Z</time>
        <extensions>
          <ns3:TrackPointExtension>
            <ns3:hr>117</ns3:hr>
            <ns3:cad>85</ns3:cad>
          </ns3:TrackPointExtension>
        </extensions>
      </trkpt>
      <trkpt lat="44.68160075135529041290283203125" lon="6.77786062471568584442138671875">
        <ele>2074.800048828125</ele>
        <time>2026-09-03T08:02:49.000Z</time>
        <extensions>
          <ns3:TrackPointExtension>
            <ns3:hr>117</ns3:hr>
            <ns3:cad>85</ns3:cad>
          </ns3:TrackPointExtension>
        </extensions>
      </trkpt>
      <trkpt lat="44.68157744966447353363037109375" lon="6.77786129526793956756591796875">
        <ele>2074.60009765625</ele>
        <time>2026-09-03T08:02:50.000Z</time>
        <extensions>
          <ns3:TrackPointExtension>
            <ns3:hr>118</ns3:hr>
            <ns3:cad>85</ns3:cad>
          </ns3:TrackPointExtension>
        </extensions>
      </trkpt>
      <trkpt lat="44.68155674636363983154296875" lon="6.77786950953304767608642578125">
        <ele>2074.39990234375</ele>
        <time>2026-09-03T08:02:51.000Z</time>
        <extensions>
          <ns3:TrackPointExtension>
            <ns3:hr>119</ns3:hr>
            <ns3:cad>86</ns3:cad>
          </ns3:TrackPointExtension>
        </extensions>
      </trkpt>
      <trkpt lat="44.681538976728916168212890625" lon="6.77787302993237972259521484375">
        <ele>2074.39990234375</ele>
        <time>2026-09-03T08:02:52.000Z</time>
        <extensions>
          <ns3:TrackPointExtension>
            <ns3:hr>119</ns3:hr>
            <ns3:cad>86</ns3:cad>
          </ns3:TrackPointExtension>
        </extensions>
      </trkpt>
      <trkpt lat="44.681530259549617767333984375" lon="6.77787202410399913787841796875">
        <ele>2074.199951171875</ele>
        <time>2026-09-03T08:02:53.000Z</time>
        <extensions>
          <ns3:TrackPointExtension>
            <ns3:hr>119</ns3:hr>
            <ns3:cad>86</ns3:cad>
          </ns3:TrackPointExtension>
        </extensions>
      </trkpt>
      <trkpt lat="44.68152414076030254364013671875" lon="6.7778709344565868377685546875">
        <ele>2074</ele>
        <time>2026-09-03T08:02:54.000Z</time>
        <extensions>
          <ns3:TrackPointExtension>
            <ns3:hr>119</ns3:hr>
            <ns3:cad>86</ns3:cad>
          </ns3:TrackPointExtension>
        </extensions>
      </trkpt>
      <trkpt lat="44.68152279965579509735107421875" lon="6.7778699286282062530517578125">
        <ele>2073.800048828125</ele>
        <time>2026-09-03T08:02:55.000Z</time>
        <extensions>
          <ns3:TrackPointExtension>
            <ns3:hr>120</ns3:hr>
            <ns3:cad>81</ns3:cad>
          </ns3:TrackPointExtension>
        </extensions>
      </trkpt>
      <trkpt lat="44.6815193630754947662353515625" lon="6.7778699286282062530517578125">
        <ele>2073.60009765625</ele>
        <time>2026-09-03T08:02:56.000Z</time>
        <extensions>
          <ns3:TrackPointExtension>
            <ns3:hr>120</ns3:hr>
            <ns3:cad>0</ns3:cad>
          </ns3:TrackPointExtension>
        </extensions>
      </trkpt>
      <trkpt lat="44.6815143339335918426513671875" lon="6.77788912318646907806396484375">
        <ele>2073.60009765625</ele>
        <time>2026-09-03T08:02:57.000Z</time>
        <extensions>
          <ns3:TrackPointExtension>
            <ns3:hr>120</ns3:hr>
            <ns3:cad>0</ns3:cad>
          </ns3:TrackPointExtension>
        </extensions>
      </trkpt>
      <trkpt lat="44.68150117434561252593994140625" lon="6.77788786590099334716796875">
        <ele>2073.60009765625</ele>
        <time>2026-09-03T08:02:58.000Z</time>
        <extensions>
          <ns3:TrackPointExtension>
            <ns3:hr>119</ns3:hr>
            <ns3:cad>0</ns3:cad>
          </ns3:TrackPointExtension>
        </extensions>
      </trkpt>
      <trkpt lat="44.68148089013993740081787109375" lon="6.77788241766393184661865234375">
        <ele>2073.39990234375</ele>
        <time>2026-09-03T08:02:59.000Z</time>
        <extensions>
          <ns3:TrackPointExtension>
            <ns3:hr>119</ns3:hr>
            <ns3:cad>0</ns3:cad>
          </ns3:TrackPointExtension>
        </extensions>
      </trkpt>
      <trkpt lat="44.68147401697933673858642578125" lon="6.7778561823070049285888671875">
        <ele>2073.39990234375</ele>
        <time>2026-09-03T08:03:00.000Z</time>
        <extensions>
          <ns3:TrackPointExtension>
            <ns3:hr>119</ns3:hr>
            <ns3:cad>0</ns3:cad>
          </ns3:TrackPointExtension>
        </extensions>
      </trkpt>
      <trkpt lat="44.68147896230220794677734375" lon="6.777845956385135650634765625">
        <ele>2073.199951171875</ele>
        <time>2026-09-03T08:03:01.000Z</time>
        <extensions>
          <ns3:TrackPointExtension>
            <ns3:hr>119</ns3:hr>
            <ns3:cad>0</ns3:cad>
          </ns3:TrackPointExtension>
        </extensions>
      </trkpt>
      <trkpt lat="44.68148172833025455474853515625" lon="6.7778320424258708953857421875">
        <ele>2072.800048828125</ele>
        <time>2026-09-03T08:03:02.000Z</time>
        <extensions>
          <ns3:TrackPointExtension>
            <ns3:hr>118</ns3:hr>
            <ns3:cad>0</ns3:cad>
          </ns3:TrackPointExtension>
        </extensions>
      </trkpt>
      <trkpt lat="44.6814905293285846710205078125" lon="6.77782139740884304046630859375">
        <ele>2072.60009765625</ele>
        <time>2026-09-03T08:03:03.000Z</time>
        <extensions>
          <ns3:TrackPointExtension>
            <ns3:hr>118</ns3:hr>
            <ns3:cad>0</ns3:cad>
          </ns3:TrackPointExtension>
        </extensions>
      </trkpt>
      <trkpt lat="44.68151517212390899658203125" lon="6.77782592363655567169189453125">
        <ele>2072.199951171875</ele>
        <time>2026-09-03T08:03:04.000Z</time>
        <extensions>
          <ns3:TrackPointExtension>
            <ns3:hr>117</ns3:hr>
            <ns3:cad>0</ns3:cad>
          </ns3:TrackPointExtension>
        </extensions>
      </trkpt>
      <trkpt lat="44.68153201974928379058837890625" lon="6.77781544625759124755859375">
        <ele>2071.800048828125</ele>
        <time>2026-09-03T08:03:05.000Z</time>
        <extensions>
          <ns3:TrackPointExtension>
            <ns3:hr>115</ns3:hr>
            <ns3:cad>0</ns3:cad>
          </ns3:TrackPointExtension>
        </extensions>
      </trkpt>
      <trkpt lat="44.68155565671622753143310546875" lon="6.77780496887862682342529296875">
        <ele>2071.39990234375</ele>
        <time>2026-09-03T08:03:06.000Z</time>
        <extensions>
          <ns3:TrackPointExtension>
            <ns3:hr>114</ns3:hr>
            <ns3:cad>0</ns3:cad>
          </ns3:TrackPointExtension>
        </extensions>
      </trkpt>
      <trkpt lat="44.681577198207378387451171875" lon="6.77779792807996273040771484375">
        <ele>2070.800048828125</ele>
        <time>2026-09-03T08:03:07.000Z</time>
        <extensions>
          <ns3:TrackPointExtension>
            <ns3:hr>114</ns3:hr>
            <ns3:cad>0</ns3:cad>
          </ns3:TrackPointExtension>
        </extensions>
      </trkpt>
      <trkpt lat="44.68159119598567485809326171875" lon="6.77777496166527271270751953125">
        <ele>2070.39990234375</ele>
        <time>2026-09-03T08:03:08.000Z</time>
        <extensions>
          <ns3:TrackPointExtension>
            <ns3:hr>113</ns3:hr>
            <ns3:cad>0</ns3:cad>
          </ns3:TrackPointExtension>
        </extensions>
      </trkpt>
      <trkpt lat="44.681602679193019866943359375" lon="6.777751408517360687255859375">
        <ele>2070</ele>
        <time>2026-09-03T08:03:09.000Z</time>
        <extensions>
          <ns3:TrackPointExtension>
            <ns3:hr>113</ns3:hr>
            <ns3:cad>82</ns3:cad>
          </ns3:TrackPointExtension>
        </extensions>
      </trkpt>
      <trkpt lat="44.6816182695329189300537109375" lon="6.77772701717913150787353515625">
        <ele>2069.60009765625</ele>
        <time>2026-09-03T08:03:10.000Z</time>
        <extensions>
          <ns3:TrackPointExtension>
            <ns3:hr>113</ns3:hr>
            <ns3:cad>82</ns3:cad>
          </ns3:TrackPointExtension>
        </extensions>
      </trkpt>
      <trkpt lat="44.68162690289318561553955078125" lon="6.77770656533539295196533203125">
        <ele>2069.199951171875</ele>
        <time>2026-09-03T08:03:11.000Z</time>
        <extensions>
          <ns3:TrackPointExtension>
            <ns3:hr>112</ns3:hr>
            <ns3:cad>82</ns3:cad>
          </ns3:TrackPointExtension>
        </extensions>
      </trkpt>
      <trkpt lat="44.68162086792290210723876953125" lon="6.7776833474636077880859375">
        <ele>2068.800048828125</ele>
        <time>2026-09-03T08:03:12.000Z</time>
        <extensions>
          <ns3:TrackPointExtension>
            <ns3:hr>110</ns3:hr>
            <ns3:cad>85</ns3:cad>
          </ns3:TrackPointExtension>
        </extensions>
      </trkpt>
      <trkpt lat="44.68161835335195064544677734375" lon="6.77767856977880001068115234375">
        <ele>2068.39990234375</ele>
        <time>2026-09-03T08:03:13.000Z</time>
        <extensions>
          <ns3:TrackPointExtension>
            <ns3:hr>109</ns3:hr>
            <ns3:cad>88</ns3:cad>
          </ns3:TrackPointExtension>
        </extensions>
      </trkpt>
      <trkpt lat="44.681602679193019866943359375" lon="6.77768410183489322662353515625">
        <ele>2068</ele>
        <time>2026-09-03T08:03:14.000Z</time>
        <extensions>
          <ns3:TrackPointExtension>
            <ns3:hr>109</ns3:hr>
            <ns3:cad>88</ns3:cad>
          </ns3:TrackPointExtension>
        </extensions>
      </trkpt>
      <trkpt lat="44.681592620909214019775390625" lon="6.77768711932003498077392578125">
        <ele>2067.60009765625</ele>
        <time>2026-09-03T08:03:15.000Z</time>
        <extensions>
          <ns3:TrackPointExtension>
            <ns3:hr>108</ns3:hr>
            <ns3:cad>88</ns3:cad>
          </ns3:TrackPointExtension>
        </extensions>
      </trkpt>
      <trkpt lat="44.68158432282507419586181640625" lon="6.777682006359100341796875">
        <ele>2067.199951171875</ele>
        <time>2026-09-03T08:03:16.000Z</time>
        <extensions>
          <ns3:TrackPointExtension>
            <ns3:hr>108</ns3:hr>
            <ns3:cad>90</ns3:cad>
          </ns3:TrackPointExtension>
        </extensions>
      </trkpt>
      <trkpt lat="44.6815770305693149566650390625" lon="6.77766784094274044036865234375">
        <ele>2067</ele>
        <time>2026-09-03T08:03:17.000Z</time>
        <extensions>
          <ns3:TrackPointExtension>
            <ns3:hr>107</ns3:hr>
            <ns3:cad>90</ns3:cad>
          </ns3:TrackPointExtension>
        </extensions>
      </trkpt>
      <trkpt lat="44.6815793775022029876708984375" lon="6.777628026902675628662109375">
        <ele>2066.800048828125</ele>
        <time>2026-09-03T08:03:18.000Z</time>
        <extensions>
          <ns3:TrackPointExtension>
            <ns3:hr>107</ns3:hr>
            <ns3:cad>90</ns3:cad>
          </ns3:TrackPointExtension>
        </extensions>
      </trkpt>
      <trkpt lat="44.68157820403575897216796875" lon="6.7775916494429111480712890625">
        <ele>2066.39990234375</ele>
        <time>2026-09-03T08:03:19.000Z</time>
        <extensions>
          <ns3:TrackPointExtension>
            <ns3:hr>107</ns3:hr>
            <ns3:cad>82</ns3:cad>
          </ns3:TrackPointExtension>
        </extensions>
      </trkpt>
      <trkpt lat="44.6815730072557926177978515625" lon="6.7775510810315608978271484375">
        <ele>2066.199951171875</ele>
        <time>2026-09-03T08:03:20.000Z</time>
        <extensions>
          <ns3:TrackPointExtension>
            <ns3:hr>107</ns3:hr>
            <ns3:cad>82</ns3:cad>
          </ns3:TrackPointExtension>
        </extensions>
      </trkpt>
      <trkpt lat="44.68156856484711170196533203125" lon="6.777521409094333648681640625">
        <ele>2065.800048828125</ele>
        <time>2026-09-03T08:03:21.000Z</time>
        <extensions>
          <ns3:TrackPointExtension>
            <ns3:hr>107</ns3:hr>
            <ns3:cad>82</ns3:cad>
          </ns3:TrackPointExtension>
        </extensions>
      </trkpt>
      <trkpt lat="44.68155113048851490020751953125" lon="6.77749047987163066864013671875">
        <ele>2065.60009765625</ele>
        <time>2026-09-03T08:03:22.000Z</time>
        <extensions>
          <ns3:TrackPointExtension>
            <ns3:hr>107</ns3:hr>
            <ns3:cad>82</ns3:cad>
          </ns3:TrackPointExtension>
        </extensions>
      </trkpt>
      <trkpt lat="44.6815337799489498138427734375" lon="6.77746449597179889678955078125">
        <ele>2065.39990234375</ele>
        <time>2026-09-03T08:03:23.000Z</time>
        <extensions>
          <ns3:TrackPointExtension>
            <ns3:hr>108</ns3:hr>
            <ns3:cad>82</ns3:cad>
          </ns3:TrackPointExtension>
        </extensions>
      </trkpt>
      <trkpt lat="44.681517519056797027587890625" lon="6.77744002081453800201416015625">
        <ele>2065</ele>
        <time>2026-09-03T08:03:24.000Z</time>
        <extensions>
          <ns3:TrackPointExtension>
            <ns3:hr>109</ns3:hr>
            <ns3:cad>85</ns3:cad>
          </ns3:TrackPointExtension>
        </extensions>
      </trkpt>
      <trkpt lat="44.68149639666080474853515625" lon="6.7774256877601146697998046875">
        <ele>2064.800048828125</ele>
        <time>2026-09-03T08:03:25.000Z</time>
        <extensions>
          <ns3:TrackPointExtension>
            <ns3:hr>109</ns3:hr>
            <ns3:cad>85</ns3:cad>
          </ns3:TrackPointExtension>
        </extensions>
      </trkpt>
      <trkpt lat="44.6814747713506221771240234375" lon="6.7774085886776447296142578125">
        <ele>2064.39990234375</ele>
        <time>2026-09-03T08:03:26.000Z</time>
        <extensions>
          <ns3:TrackPointExtension>
            <ns3:hr>110</ns3:hr>
            <ns3:cad>85</ns3:cad>
          </ns3:TrackPointExtension>
        </extensions>
      </trkpt>
      <trkpt lat="44.6814526431262493133544921875" lon="6.77738939411938190460205078125">
        <ele>2064.199951171875</ele>
        <time>2026-09-03T08:03:27.000Z</time>
        <extensions>
          <ns3:TrackPointExtension>
            <ns3:hr>110</ns3:hr>
            <ns3:cad>85</ns3:cad>
          </ns3:TrackPointExtension>
        </extensions>
      </trkpt>
      <trkpt lat="44.68142774887382984161376953125" lon="6.7773760668933391571044921875">
        <ele>2063.60009765625</ele>
        <time>2026-09-03T08:03:28.000Z</time>
        <extensions>
          <ns3:TrackPointExtension>
            <ns3:hr>110</ns3:hr>
            <ns3:cad>85</ns3:cad>
          </ns3:TrackPointExtension>
        </extensions>
      </trkpt>
      <trkpt lat="44.68140427954494953155517578125" lon="6.77734765224158763885498046875">
        <ele>2063</ele>
        <time>2026-09-03T08:03:29.000Z</time>
        <extensions>
          <ns3:TrackPointExtension>
            <ns3:hr>110</ns3:hr>
            <ns3:cad>85</ns3:cad>
          </ns3:TrackPointExtension>
        </extensions>
      </trkpt>
      <trkpt lat="44.68138349242508411407470703125" lon="6.77732460200786590576171875">
        <ele>2062.60009765625</ele>
        <time>2026-09-03T08:03:30.000Z</time>
        <extensions>
          <ns3:TrackPointExtension>
            <ns3:hr>111</ns3:hr>
            <ns3:cad>85</ns3:cad>
          </ns3:TrackPointExtension>
        </extensions>
      </trkpt>
      <trkpt lat="44.681357927620410919189453125" lon="6.777295768260955810546875">
        <ele>2062</ele>
        <time>2026-09-03T08:03:31.000Z</time>
        <extensions>
          <ns3:TrackPointExtension>
            <ns3:hr>111</ns3:hr>
            <ns3:cad>85</ns3:cad>
          </ns3:TrackPointExtension>
        </extensions>
      </trkpt>
      <trkpt lat="44.68133638612926006317138671875" lon="6.7772754840552806854248046875">
        <ele>2061.60009765625</ele>
        <time>2026-09-03T08:03:32.000Z</time>
        <extensions>
          <ns3:TrackPointExtension>
            <ns3:hr>112</ns3:hr>
            <ns3:cad>85</ns3:cad>
          </ns3:TrackPointExtension>
        </extensions>
      </trkpt>
      <trkpt lat="44.6813128329813480377197265625" lon="6.77726450376212596893310546875">
        <ele>2061.199951171875</ele>
        <time>2026-09-03T08:03:33.000Z</time>
        <extensions>
          <ns3:TrackPointExtension>
            <ns3:hr>112</ns3:hr>
            <ns3:cad>85</ns3:cad>
          </ns3:TrackPointExtension>
        </extensions>
      </trkpt>
      <trkpt lat="44.68128743581473827362060546875" lon="6.77724824286997318267822265625">
        <ele>2060.800048828125</ele>
        <time>2026-09-03T08:03:34.000Z</time>
        <extensions>
          <ns3:TrackPointExtension>
            <ns3:hr>113</ns3:hr>
            <ns3:cad>85</ns3:cad>
          </ns3:TrackPointExtension>
        </extensions>
      </trkpt>
      <trkpt lat="44.68127243220806121826171875" lon="6.77722929976880550384521484375">
        <ele>2060.60009765625</ele>
        <time>2026-09-03T08:03:35.000Z</time>
        <extensions>
          <ns3:TrackPointExtension>
            <ns3:hr>114</ns3:hr>
            <ns3:cad>84</ns3:cad>
          </ns3:TrackPointExtension>
        </extensions>
      </trkpt>
      <trkpt lat="44.6812514774501323699951171875" lon="6.77720499224960803985595703125">
        <ele>2060.199951171875</ele>
        <time>2026-09-03T08:03:36.000Z</time>
        <extensions>
          <ns3:TrackPointExtension>
            <ns3:hr>114</ns3:hr>
            <ns3:cad>84</ns3:cad>
          </ns3:TrackPointExtension>
        </extensions>
      </trkpt>
      <trkpt lat="44.6812350489199161529541015625" lon="6.77718135528266429901123046875">
        <ele>2059.800048828125</ele>
        <time>2026-09-03T08:03:37.000Z</time>
        <extensions>
          <ns3:TrackPointExtension>
            <ns3:hr>115</ns3:hr>
            <ns3:cad>84</ns3:cad>
          </ns3:TrackPointExtension>
        </extensions>
      </trkpt>
      <trkpt lat="44.6812182851135730743408203125" lon="6.77715956233441829681396484375">
        <ele>2059.39990234375</ele>
        <time>2026-09-03T08:03:38.000Z</time>
        <extensions>
          <ns3:TrackPointExtension>
            <ns3:hr>115</ns3:hr>
            <ns3:cad>84</ns3:cad>
          </ns3:TrackPointExtension>
        </extensions>
      </trkpt>
      <trkpt lat="44.68119875527918338775634765625" lon="6.7771360091865062713623046875">
        <ele>2059</ele>
        <time>2026-09-03T08:03:39.000Z</time>
        <extensions>
          <ns3:TrackPointExtension>
            <ns3:hr>116</ns3:hr>
            <ns3:cad>83</ns3:cad>
          </ns3:TrackPointExtension>
        </extensions>
      </trkpt>
      <trkpt lat="44.6811814047396183013916015625" lon="6.77711782045662403106689453125">
        <ele>2058.60009765625</ele>
        <time>2026-09-03T08:03:40.000Z</time>
        <extensions>
          <ns3:TrackPointExtension>
            <ns3:hr>116</ns3:hr>
            <ns3:cad>83</ns3:cad>
          </ns3:TrackPointExtension>
        </extensions>
      </trkpt>
      <trkpt lat="44.68116573058068752288818359375" lon="6.77709166891872882843017578125">
        <ele>2058.199951171875</ele>
        <time>2026-09-03T08:03:41.000Z</time>
        <extensions>
          <ns3:TrackPointExtension>
            <ns3:hr>117</ns3:hr>
            <ns3:cad>83</ns3:cad>
          </ns3:TrackPointExtension>
        </extensions>
      </trkpt>
      <trkpt lat="44.68115441501140594482421875" lon="6.77707490511238574981689453125">
        <ele>2057.60009765625</ele>
        <time>2026-09-03T08:03:42.000Z</time>
        <extensions>
          <ns3:TrackPointExtension>
            <ns3:hr>117</ns3:hr>
            <ns3:cad>84</ns3:cad>
          </ns3:TrackPointExtension>
        </extensions>
      </trkpt>
      <trkpt lat="44.6811394952237606048583984375" lon="6.77705126814544200897216796875">
        <ele>2057.199951171875</ele>
        <time>2026-09-03T08:03:43.000Z</time>
        <extensions>
          <ns3:TrackPointExtension>
            <ns3:hr>117</ns3:hr>
            <ns3:cad>86</ns3:cad>
          </ns3:TrackPointExtension>
        </extensions>
      </trkpt>
      <trkpt lat="44.6811227314174175262451171875" lon="6.7770369350910186767578125">
        <ele>2056.800048828125</ele>
        <time>2026-09-03T08:03:44.000Z</time>
        <extensions>
          <ns3:TrackPointExtension>
            <ns3:hr>117</ns3:hr>
            <ns3:cad>86</ns3:cad>
          </ns3:TrackPointExtension>
        </extensions>
      </trkpt>
      <trkpt lat="44.68110638670623302459716796875" lon="6.77704489789903163909912109375">
        <ele>2056.39990234375</ele>
        <time>2026-09-03T08:03:45.000Z</time>
        <extensions>
          <ns3:TrackPointExtension>
            <ns3:hr>118</ns3:hr>
            <ns3:cad>86</ns3:cad>
          </ns3:TrackPointExtension>
        </extensions>
      </trkpt>
      <trkpt lat="44.6810959093272686004638671875" lon="6.77706836722791194915771484375">
        <ele>2056.199951171875</ele>
        <time>2026-09-03T08:03:46.000Z</time>
        <extensions>
          <ns3:TrackPointExtension>
            <ns3:hr>118</ns3:hr>
            <ns3:cad>87</ns3:cad>
          </ns3:TrackPointExtension>
        </extensions>
      </trkpt>
      <trkpt lat="44.68108375556766986846923828125" lon="6.77709585987031459808349609375">
        <ele>2055.800048828125</ele>
        <time>2026-09-03T08:03:47.000Z</time>
        <extensions>
          <ns3:TrackPointExtension>
            <ns3:hr>118</ns3:hr>
            <ns3:cad>87</ns3:cad>
          </ns3:TrackPointExtension>
        </extensions>
      </trkpt>
      <trkpt lat="44.68108124099671840667724609375" lon="6.77713911049067974090576171875">
        <ele>2055.39990234375</ele>
        <time>2026-09-03T08:03:48.000Z</time>
        <extensions>
          <ns3:TrackPointExtension>
            <ns3:hr>118</ns3:hr>
            <ns3:cad>87</ns3:cad>
          </ns3:TrackPointExtension>
        </extensions>
      </trkpt>
      <trkpt lat="44.681071937084197998046875" lon="6.7771661840379238128662109375">
        <ele>2055.199951171875</ele>
        <time>2026-09-03T08:03:49.000Z</time>
        <extensions>
          <ns3:TrackPointExtension>
            <ns3:hr>117</ns3:hr>
            <ns3:cad>87</ns3:cad>
          </ns3:TrackPointExtension>
        </extensions>
      </trkpt>
      <trkpt lat="44.68106347136199474334716796875" lon="6.7771970294415950775146484375">
        <ele>2055</ele>
        <time>2026-09-03T08:03:50.000Z</time>
        <extensions>
          <ns3:TrackPointExtension>
            <ns3:hr>117</ns3:hr>
            <ns3:cad>87</ns3:cad>
          </ns3:TrackPointExtension>
        </extensions>
      </trkpt>
      <trkpt lat="44.68105223961174488067626953125" lon="6.7772292159497737884521484375">
        <ele>2054.60009765625</ele>
        <time>2026-09-03T08:03:51.000Z</time>
        <extensions>
          <ns3:TrackPointExtension>
            <ns3:hr>117</ns3:hr>
            <ns3:cad>85</ns3:cad>
          </ns3:TrackPointExtension>
        </extensions>
      </trkpt>
      <trkpt lat="44.68104268424212932586669921875" lon="6.7772583849728107452392578125">
        <ele>2054.39990234375</ele>
        <time>2026-09-03T08:03:52.000Z</time>
        <extensions>
          <ns3:TrackPointExtension>
            <ns3:hr>116</ns3:hr>
            <ns3:cad>84</ns3:cad>
          </ns3:TrackPointExtension>
        </extensions>
      </trkpt>
      <trkpt lat="44.681028015911579132080078125" lon="6.7772929184138774871826171875">
        <ele>2054.199951171875</ele>
        <time>2026-09-03T08:03:53.000Z</time>
        <extensions>
          <ns3:TrackPointExtension>
            <ns3:hr>116</ns3:hr>
            <ns3:cad>83</ns3:cad>
          </ns3:TrackPointExtension>
        </extensions>
      </trkpt>
      <trkpt lat="44.68100815080106258392333984375" lon="6.7773183993995189666748046875">
        <ele>2053.800048828125</ele>
        <time>2026-09-03T08:03:54.000Z</time>
        <extensions>
          <ns3:TrackPointExtension>
            <ns3:hr>115</ns3:hr>
            <ns3:cad>83</ns3:cad>
          </ns3:TrackPointExtension>
        </extensions>
      </trkpt>
      <trkpt lat="44.68099373392760753631591796875" lon="6.77733826451003551483154296875">
        <ele>2053.60009765625</ele>
        <time>2026-09-03T08:03:55.000Z</time>
        <extensions>
          <ns3:TrackPointExtension>
            <ns3:hr>114</ns3:hr>
            <ns3:cad>83</ns3:cad>
          </ns3:TrackPointExtension>
        </extensions>
      </trkpt>
      <trkpt lat="44.6809721924364566802978515625" lon="6.77735402248799800872802734375">
        <ele>2053.199951171875</ele>
        <time>2026-09-03T08:03:56.000Z</time>
        <extensions>
          <ns3:TrackPointExtension>
            <ns3:hr>114</ns3:hr>
            <ns3:cad>82</ns3:cad>
          </ns3:TrackPointExtension>
        </extensions>
      </trkpt>
      <trkpt lat="44.68095316551625728607177734375" lon="6.7773636616766452789306640625">
        <ele>2053</ele>
        <time>2026-09-03T08:03:57.000Z</time>
        <extensions>
          <ns3:TrackPointExtension>
            <ns3:hr>114</ns3:hr>
            <ns3:cad>83</ns3:cad>
          </ns3:TrackPointExtension>
        </extensions>
      </trkpt>
      <trkpt lat="44.68092441558837890625" lon="6.7773663438856601715087890625">
        <ele>2052.800048828125</ele>
        <time>2026-09-03T08:03:58.000Z</time>
        <extensions>
          <ns3:TrackPointExtension>
            <ns3:hr>114</ns3:hr>
            <ns3:cad>83</ns3:cad>
          </ns3:TrackPointExtension>
        </extensions>
      </trkpt>
      <trkpt lat="44.68089801259338855743408203125" lon="6.7773690260946750640869140625">
        <ele>2052.800048828125</ele>
        <time>2026-09-03T08:03:59.000Z</time>
        <extensions>
          <ns3:TrackPointExtension>
            <ns3:hr>114</ns3:hr>
            <ns3:cad>84</ns3:cad>
          </ns3:TrackPointExtension>
        </extensions>
      </trkpt>
      <trkpt lat="44.680877141654491424560546875" lon="6.77737313322722911834716796875">
        <ele>2052.800048828125</ele>
        <time>2026-09-03T08:04:00.000Z</time>
        <extensions>
          <ns3:TrackPointExtension>
            <ns3:hr>114</ns3:hr>
            <ns3:cad>85</ns3:cad>
          </ns3:TrackPointExtension>
        </extensions>
      </trkpt>
      <trkpt lat="44.68085342086851596832275390625" lon="6.7773703671991825103759765625">
        <ele>2052.800048828125</ele>
        <time>2026-09-03T08:04:01.000Z</time>
        <extensions>
          <ns3:TrackPointExtension>
            <ns3:hr>114</ns3:hr>
            <ns3:cad>85</ns3:cad>
          </ns3:TrackPointExtension>
        </extensions>
      </trkpt>
      <trkpt lat="44.68083984218537807464599609375" lon="6.77737330086529254913330078125">
        <ele>2052.800048828125</ele>
        <time>2026-09-03T08:04:02.000Z</time>
        <extensions>
          <ns3:TrackPointExtension>
            <ns3:hr>114</ns3:hr>
            <ns3:cad>85</ns3:cad>
          </ns3:TrackPointExtension>
        </extensions>
      </trkpt>
      <trkpt lat="44.68082316219806671142578125" lon="6.77738017402589321136474609375">
        <ele>2052.800048828125</ele>
        <time>2026-09-03T08:04:03.000Z</time>
        <extensions>
          <ns3:TrackPointExtension>
            <ns3:hr>114</ns3:hr>
            <ns3:cad>84</ns3:cad>
          </ns3:TrackPointExtension>
        </extensions>
      </trkpt>
      <trkpt lat="44.6808032132685184478759765625" lon="6.7773787491023540496826171875">
        <ele>2052.60009765625</ele>
        <time>2026-09-03T08:04:04.000Z</time>
        <extensions>
          <ns3:TrackPointExtension>
            <ns3:hr>114</ns3:hr>
            <ns3:cad>83</ns3:cad>
          </ns3:TrackPointExtension>
        </extensions>
      </trkpt>
      <trkpt lat="44.6807787381112575531005859375" lon="6.7773837782442569732666015625">
        <ele>2052.199951171875</ele>
        <time>2026-09-03T08:04:05.000Z</time>
        <extensions>
          <ns3:TrackPointExtension>
            <ns3:hr>113</ns3:hr>
            <ns3:cad>83</ns3:cad>
          </ns3:TrackPointExtension>
        </extensions>
      </trkpt>
      <trkpt lat="44.68075283803045749664306640625" lon="6.777385286986827850341796875">
        <ele>2051.800048828125</ele>
        <time>2026-09-03T08:04:06.000Z</time>
        <extensions>
          <ns3:TrackPointExtension>
            <ns3:hr>114</ns3:hr>
            <ns3:cad>83</ns3:cad>
          </ns3:TrackPointExtension>
        </extensions>
      </trkpt>
      <trkpt lat="44.6807287819683551788330078125" lon="6.77737933583557605743408203125">
        <ele>2051.199951171875</ele>
        <time>2026-09-03T08:04:07.000Z</time>
        <extensions>
          <ns3:TrackPointExtension>
            <ns3:hr>114</ns3:hr>
            <ns3:cad>83</ns3:cad>
          </ns3:TrackPointExtension>
        </extensions>
      </trkpt>
      <trkpt lat="44.68070405535399913787841796875" lon="6.77738268859684467315673828125">
        <ele>2050.800048828125</ele>
        <time>2026-09-03T08:04:08.000Z</time>
        <extensions>
          <ns3:TrackPointExtension>
            <ns3:hr>114</ns3:hr>
            <ns3:cad>83</ns3:cad>
          </ns3:TrackPointExtension>
        </extensions>
      </trkpt>
      <trkpt lat="44.68067807145416736602783203125" lon="6.777378581464290618896484375">
        <ele>2050.39990234375</ele>
        <time>2026-09-03T08:04:09.000Z</time>
        <extensions>
          <ns3:TrackPointExtension>
            <ns3:hr>114</ns3:hr>
            <ns3:cad>83</ns3:cad>
          </ns3:TrackPointExtension>
        </extensions>
      </trkpt>
      <trkpt lat="44.68065175227820873260498046875" lon="6.7773861251771450042724609375">
        <ele>2050</ele>
        <time>2026-09-03T08:04:10.000Z</time>
        <extensions>
          <ns3:TrackPointExtension>
            <ns3:hr>114</ns3:hr>
            <ns3:cad>83</ns3:cad>
          </ns3:TrackPointExtension>
        </extensions>
      </trkpt>
      <trkpt lat="44.68063096515834331512451171875" lon="6.777387969195842742919921875">
        <ele>2049.800048828125</ele>
        <time>2026-09-03T08:04:11.000Z</time>
        <extensions>
          <ns3:TrackPointExtension>
            <ns3:hr>114</ns3:hr>
            <ns3:cad>83</ns3:cad>
          </ns3:TrackPointExtension>
        </extensions>
      </trkpt>
      <trkpt lat="44.6806084178388118743896484375" lon="6.77739660255610942840576171875">
        <ele>2049.39990234375</ele>
        <time>2026-09-03T08:04:12.000Z</time>
        <extensions>
          <ns3:TrackPointExtension>
            <ns3:hr>114</ns3:hr>
            <ns3:cad>83</ns3:cad>
          </ns3:TrackPointExtension>
        </extensions>
      </trkpt>
      <trkpt lat="44.680596850812435150146484375" lon="6.77737430669367313385009765625">
        <ele>2049</ele>
        <time>2026-09-03T08:04:13.000Z</time>
        <extensions>
          <ns3:TrackPointExtension>
            <ns3:hr>114</ns3:hr>
            <ns3:cad>85</ns3:cad>
          </ns3:TrackPointExtension>
        </extensions>
      </trkpt>
      <trkpt lat="44.68059743754565715789794921875" lon="6.7773512564599514007568359375">
        <ele>2048.60009765625</ele>
        <time>2026-09-03T08:04:14.000Z</time>
        <extensions>
          <ns3:TrackPointExtension>
            <ns3:hr>114</ns3:hr>
            <ns3:cad>85</ns3:cad>
          </ns3:TrackPointExtension>
        </extensions>
      </trkpt>
      <trkpt lat="44.68060213141143321990966796875" lon="6.7773341573774814605712890625">
        <ele>2048.199951171875</ele>
        <time>2026-09-03T08:04:15.000Z</time>
        <extensions>
          <ns3:TrackPointExtension>
            <ns3:hr>115</ns3:hr>
            <ns3:cad>85</ns3:cad>
          </ns3:TrackPointExtension>
        </extensions>
      </trkpt>
      <trkpt lat="44.68060665763914585113525390625" lon="6.7773016355931758880615234375">
        <ele>2047.800048828125</ele>
        <time>2026-09-03T08:04:16.000Z</time>
        <extensions>
          <ns3:TrackPointExtension>
            <ns3:hr>114</ns3:hr>
            <ns3:cad>85</ns3:cad>
          </ns3:TrackPointExtension>
        </extensions>
      </trkpt>
      <trkpt lat="44.6806065738201141357421875" lon="6.7772781662642955780029296875">
        <ele>2047.4000244140625</ele>
        <time>2026-09-03T08:04:17.000Z</time>
        <extensions>
          <ns3:TrackPointExtension>
            <ns3:hr>114</ns3:hr>
            <ns3:cad>85</ns3:cad>
          </ns3:TrackPointExtension>
        </extensions>
      </trkpt>
      <trkpt lat="44.6806074120104312896728515625" lon="6.77725109271705150604248046875">
        <ele>2047</ele>
        <time>2026-09-03T08:04:18.000Z</time>
        <extensions>
          <ns3:TrackPointExtension>
            <ns3:hr>115</ns3:hr>
            <ns3:cad>85</ns3:cad>
          </ns3:TrackPointExtension>
        </extensions>
      </trkpt>
      <trkpt lat="44.6806064061820507049560546875" lon="6.77723298780620098114013671875">
        <ele>2046.4000244140625</ele>
        <time>2026-09-03T08:04:19.000Z</time>
        <extensions>
          <ns3:TrackPointExtension>
            <ns3:hr>114</ns3:hr>
            <ns3:cad>85</ns3:cad>
          </ns3:TrackPointExtension>
        </extensions>
      </trkpt>
      <trkpt lat="44.68061688356101512908935546875" lon="6.7771956883370876312255859375">
        <ele>2046</ele>
        <time>2026-09-03T08:04:20.000Z</time>
        <extensions>
          <ns3:TrackPointExtension>
            <ns3:hr>114</ns3:hr>
            <ns3:cad>84</ns3:cad>
          </ns3:TrackPointExtension>
        </extensions>
      </trkpt>
      <trkpt lat="44.68061537481844425201416015625" lon="6.7771675251424312591552734375">
        <ele>2045.5999755859375</ele>
        <time>2026-09-03T08:04:21.000Z</time>
        <extensions>
          <ns3:TrackPointExtension>
            <ns3:hr>115</ns3:hr>
            <ns3:cad>84</ns3:cad>
          </ns3:TrackPointExtension>
        </extensions>
      </trkpt>
      <trkpt lat="44.6806151233613491058349609375" lon="6.77712854929268360137939453125">
        <ele>2045.199951171875</ele>
        <time>2026-09-03T08:04:22.000Z</time>
        <extensions>
          <ns3:TrackPointExtension>
            <ns3:hr>115</ns3:hr>
            <ns3:cad>85</ns3:cad>
          </ns3:TrackPointExtension>
        </extensions>
      </trkpt>
      <trkpt lat="44.68061068095266819000244140625" lon="6.7770932614803314208984375">
        <ele>2045</ele>
        <time>2026-09-03T08:04:23.000Z</time>
        <extensions>
          <ns3:TrackPointExtension>
            <ns3:hr>115</ns3:hr>
            <ns3:cad>86</ns3:cad>
          </ns3:TrackPointExtension>
        </extensions>
      </trkpt>
      <trkpt lat="44.6806023828685283660888671875" lon="6.77706442773342132568359375">
        <ele>2044.5999755859375</ele>
        <time>2026-09-03T08:04:24.000Z</time>
        <extensions>
          <ns3:TrackPointExtension>
            <ns3:hr>115</ns3:hr>
            <ns3:cad>87</ns3:cad>
          </ns3:TrackPointExtension>
        </extensions>
      </trkpt>
      <trkpt lat="44.6805986948311328887939453125" lon="6.77702008746564388275146484375">
        <ele>2044.199951171875</ele>
        <time>2026-09-03T08:04:25.000Z</time>
        <extensions>
          <ns3:TrackPointExtension>
            <ns3:hr>114</ns3:hr>
            <ns3:cad>87</ns3:cad>
          </ns3:TrackPointExtension>
        </extensions>
      </trkpt>
      <trkpt lat="44.68059249222278594970703125" lon="6.77699259482324123382568359375">
        <ele>2043.800048828125</ele>
        <time>2026-09-03T08:04:26.000Z</time>
        <extensions>
          <ns3:TrackPointExtension>
            <ns3:hr>115</ns3:hr>
            <ns3:cad>87</ns3:cad>
          </ns3:TrackPointExtension>
        </extensions>
      </trkpt>
      <trkpt lat="44.6805815957486629486083984375" lon="6.77696040831506252288818359375">
        <ele>2043.5999755859375</ele>
        <time>2026-09-03T08:04:27.000Z</time>
        <extensions>
          <ns3:TrackPointExtension>
            <ns3:hr>115</ns3:hr>
            <ns3:cad>87</ns3:cad>
          </ns3:TrackPointExtension>
        </extensions>
      </trkpt>
      <trkpt lat="44.68057363294064998626708984375" lon="6.7769288085401058197021484375">
        <ele>2043.4000244140625</ele>
        <time>2026-09-03T08:04:28.000Z</time>
        <extensions>
          <ns3:TrackPointExtension>
            <ns3:hr>114</ns3:hr>
            <ns3:cad>84</ns3:cad>
          </ns3:TrackPointExtension>
        </extensions>
      </trkpt>
      <trkpt lat="44.6805551089346408843994140625" lon="6.77690123207867145538330078125">
        <ele>2043.199951171875</ele>
        <time>2026-09-03T08:04:29.000Z</time>
        <extensions>
          <ns3:TrackPointExtension>
            <ns3:hr>115</ns3:hr>
            <ns3:cad>83</ns3:cad>
          </ns3:TrackPointExtension>
        </extensions>
      </trkpt>
      <trkpt lat="44.68053725548088550567626953125" lon="6.77686820738017559051513671875">
        <ele>2042.800048828125</ele>
        <time>2026-09-03T08:04:30.000Z</time>
        <extensions>
          <ns3:TrackPointExtension>
            <ns3:hr>115</ns3:hr>
            <ns3:cad>82</ns3:cad>
          </ns3:TrackPointExtension>
        </extensions>
      </trkpt>
      <trkpt lat="44.68052334152162075042724609375" lon="6.77684607915580272674560546875">
        <ele>2042.5999755859375</ele>
        <time>2026-09-03T08:04:31.000Z</time>
        <extensions>
          <ns3:TrackPointExtension>
            <ns3:hr>115</ns3:hr>
            <ns3:cad>82</ns3:cad>
          </ns3:TrackPointExtension>
        </extensions>
      </trkpt>
      <trkpt lat="44.68050691299140453338623046875" lon="6.77681632339954376220703125">
        <ele>2042.199951171875</ele>
        <time>2026-09-03T08:04:32.000Z</time>
        <extensions>
          <ns3:TrackPointExtension>
            <ns3:hr>115</ns3:hr>
            <ns3:cad>82</ns3:cad>
          </ns3:TrackPointExtension>
        </extensions>
      </trkpt>
      <trkpt lat="44.68049718998372554779052734375" lon="6.77678723819553852081298828125">
        <ele>2041.800048828125</ele>
        <time>2026-09-03T08:04:33.000Z</time>
        <extensions>
          <ns3:TrackPointExtension>
            <ns3:hr>116</ns3:hr>
            <ns3:cad>83</ns3:cad>
          </ns3:TrackPointExtension>
        </extensions>
      </trkpt>
      <trkpt lat="44.6804897300899028778076171875" lon="6.7767618410289287567138671875">
        <ele>2041.4000244140625</ele>
        <time>2026-09-03T08:04:34.000Z</time>
        <extensions>
          <ns3:TrackPointExtension>
            <ns3:hr>116</ns3:hr>
            <ns3:cad>84</ns3:cad>
          </ns3:TrackPointExtension>
        </extensions>
      </trkpt>
      <trkpt lat="44.680478163063526153564453125" lon="6.7767249606549739837646484375">
        <ele>2041</ele>
        <time>2026-09-03T08:04:35.000Z</time>
        <extensions>
          <ns3:TrackPointExtension>
            <ns3:hr>116</ns3:hr>
            <ns3:cad>85</ns3:cad>
          </ns3:TrackPointExtension>
        </extensions>
      </trkpt>
      <trkpt lat="44.6804726310074329376220703125" lon="6.77670543082058429718017578125">
        <ele>2040.800048828125</ele>
        <time>2026-09-03T08:04:36.000Z</time>
        <extensions>
          <ns3:TrackPointExtension>
            <ns3:hr>116</ns3:hr>
            <ns3:cad>85</ns3:cad>
          </ns3:TrackPointExtension>
        </extensions>
      </trkpt>
      <trkpt lat="44.68046064488589763641357421875" lon="6.77669872529804706573486328125">
        <ele>2040.5999755859375</ele>
        <time>2026-09-03T08:04:37.000Z</time>
        <extensions>
          <ns3:TrackPointExtension>
            <ns3:hr>117</ns3:hr>
            <ns3:cad>85</ns3:cad>
          </ns3:TrackPointExtension>
        </extensions>
      </trkpt>
      <trkpt lat="44.6804444678127765655517578125" lon="6.77670995704829692840576171875">
        <ele>2040.199951171875</ele>
        <time>2026-09-03T08:04:38.000Z</time>
        <extensions>
          <ns3:TrackPointExtension>
            <ns3:hr>117</ns3:hr>
            <ns3:cad>84</ns3:cad>
          </ns3:TrackPointExtension>
        </extensions>
      </trkpt>
      <trkpt lat="44.680432565510272979736328125" lon="6.77673510275781154632568359375">
        <ele>2040</ele>
        <time>2026-09-03T08:04:39.000Z</time>
        <extensions>
          <ns3:TrackPointExtension>
            <ns3:hr>116</ns3:hr>
            <ns3:cad>84</ns3:cad>
          </ns3:TrackPointExtension>
        </extensions>
      </trkpt>
      <trkpt lat="44.6804215013980865478515625" lon="6.776761002838611602783203125">
        <ele>2039.800048828125</ele>
        <time>2026-09-03T08:04:40.000Z</time>
        <extensions>
          <ns3:TrackPointExtension>
            <ns3:hr>116</ns3:hr>
            <ns3:cad>84</ns3:cad>
          </ns3:TrackPointExtension>
        </extensions>
      </trkpt>
      <trkpt lat="44.68040297739207744598388671875" lon="6.77678405307233333587646484375">
        <ele>2039.4000244140625</ele>
        <time>2026-09-03T08:04:41.000Z</time>
        <extensions>
          <ns3:TrackPointExtension>
            <ns3:hr>116</ns3:hr>
            <ns3:cad>84</ns3:cad>
          </ns3:TrackPointExtension>
        </extensions>
      </trkpt>
      <trkpt lat="44.68038118444383144378662109375" lon="6.77680333144962787628173828125">
        <ele>2039</ele>
        <time>2026-09-03T08:04:42.000Z</time>
        <extensions>
          <ns3:TrackPointExtension>
            <ns3:hr>116</ns3:hr>
            <ns3:cad>84</ns3:cad>
          </ns3:TrackPointExtension>
        </extensions>
      </trkpt>
      <trkpt lat="44.68036425299942493438720703125" lon="6.776818670332431793212890625">
        <ele>2038.800048828125</ele>
        <time>2026-09-03T08:04:43.000Z</time>
        <extensions>
          <ns3:TrackPointExtension>
            <ns3:hr>116</ns3:hr>
            <ns3:cad>84</ns3:cad>
          </ns3:TrackPointExtension>
        </extensions>
      </trkpt>
      <trkpt lat="44.6803395263850688934326171875" lon="6.77683786489069461822509765625">
        <ele>2038.4000244140625</ele>
        <time>2026-09-03T08:04:44.000Z</time>
        <extensions>
          <ns3:TrackPointExtension>
            <ns3:hr>116</ns3:hr>
            <ns3:cad>83</ns3:cad>
          </ns3:TrackPointExtension>
        </extensions>
      </trkpt>
      <trkpt lat="44.68032066710293292999267578125" lon="6.7768446542322635650634765625">
        <ele>2038</ele>
        <time>2026-09-03T08:04:45.000Z</time>
        <extensions>
          <ns3:TrackPointExtension>
            <ns3:hr>116</ns3:hr>
            <ns3:cad>83</ns3:cad>
          </ns3:TrackPointExtension>
        </extensions>
      </trkpt>
      <trkpt lat="44.68029401265084743499755859375" lon="6.77685094065964221954345703125">
        <ele>2037.800048828125</ele>
        <time>2026-09-03T08:04:46.000Z</time>
        <extensions>
          <ns3:TrackPointExtension>
            <ns3:hr>116</ns3:hr>
            <ns3:cad>83</ns3:cad>
          </ns3:TrackPointExtension>
        </extensions>
      </trkpt>
      <trkpt lat="44.680271632969379425048828125" lon="6.77685630507767200469970703125">
        <ele>2037.5999755859375</ele>
        <time>2026-09-03T08:04:47.000Z</time>
        <extensions>
          <ns3:TrackPointExtension>
            <ns3:hr>116</ns3:hr>
            <ns3:cad>83</ns3:cad>
          </ns3:TrackPointExtension>
        </extensions>
      </trkpt>
      <trkpt lat="44.6802496723830699920654296875" lon="6.77686518989503383636474609375">
        <ele>2037.4000244140625</ele>
        <time>2026-09-03T08:04:48.000Z</time>
        <extensions>
          <ns3:TrackPointExtension>
            <ns3:hr>116</ns3:hr>
            <ns3:cad>83</ns3:cad>
          </ns3:TrackPointExtension>
        </extensions>
      </trkpt>
      <trkpt lat="44.68022100627422332763671875" lon="6.7768855579197406768798828125">
        <ele>2037.199951171875</ele>
        <time>2026-09-03T08:04:49.000Z</time>
        <extensions>
          <ns3:TrackPointExtension>
            <ns3:hr>115</ns3:hr>
            <ns3:cad>84</ns3:cad>
          </ns3:TrackPointExtension>
        </extensions>
      </trkpt>
      <trkpt lat="44.68019896186888217926025390625" lon="6.7769080214202404022216796875">
        <ele>2037</ele>
        <time>2026-09-03T08:04:50.000Z</time>
        <extensions>
          <ns3:TrackPointExtension>
            <ns3:hr>115</ns3:hr>
            <ns3:cad>84</ns3:cad>
          </ns3:TrackPointExtension>
        </extensions>
      </trkpt>
      <trkpt lat="44.68017599545419216156005859375" lon="6.7769324965775012969970703125">
        <ele>2036.800048828125</ele>
        <time>2026-09-03T08:04:51.000Z</time>
        <extensions>
          <ns3:TrackPointExtension>
            <ns3:hr>115</ns3:hr>
            <ns3:cad>84</ns3:cad>
          </ns3:TrackPointExtension>
        </extensions>
      </trkpt>
      <trkpt lat="44.68015403486788272857666015625" lon="6.77694666199386119842529296875">
        <ele>2036.5999755859375</ele>
        <time>2026-09-03T08:04:52.000Z</time>
        <extensions>
          <ns3:TrackPointExtension>
            <ns3:hr>116</ns3:hr>
            <ns3:cad>84</ns3:cad>
          </ns3:TrackPointExtension>
        </extensions>
      </trkpt>
      <trkpt lat="44.6801383607089519500732421875" lon="6.776965521275997161865234375">
        <ele>2036.4000244140625</ele>
        <time>2026-09-03T08:04:53.000Z</time>
        <extensions>
          <ns3:TrackPointExtension>
            <ns3:hr>115</ns3:hr>
            <ns3:cad>83</ns3:cad>
          </ns3:TrackPointExtension>
        </extensions>
      </trkpt>
      <trkpt lat="44.6801157295703887939453125" lon="6.776986308395862579345703125">
        <ele>2036.199951171875</ele>
        <time>2026-09-03T08:04:54.000Z</time>
        <extensions>
          <ns3:TrackPointExtension>
            <ns3:hr>115</ns3:hr>
            <ns3:cad>83</ns3:cad>
          </ns3:TrackPointExtension>
        </extensions>
      </trkpt>
      <trkpt lat="44.680100977420806884765625" lon="6.776998378336429595947265625">
        <ele>2035.800048828125</ele>
        <time>2026-09-03T08:04:55.000Z</time>
        <extensions>
          <ns3:TrackPointExtension>
            <ns3:hr>115</ns3:hr>
            <ns3:cad>83</ns3:cad>
          </ns3:TrackPointExtension>
        </extensions>
      </trkpt>
      <trkpt lat="44.68007474206387996673583984375" lon="6.77701287902891635894775390625">
        <ele>2035.4000244140625</ele>
        <time>2026-09-03T08:04:56.000Z</time>
        <extensions>
          <ns3:TrackPointExtension>
            <ns3:hr>115</ns3:hr>
            <ns3:cad>83</ns3:cad>
          </ns3:TrackPointExtension>
        </extensions>
      </trkpt>
      <trkpt lat="44.6800535358488559722900390625" lon="6.77702528424561023712158203125">
        <ele>2035.199951171875</ele>
        <time>2026-09-03T08:04:57.000Z</time>
        <extensions>
          <ns3:TrackPointExtension>
            <ns3:hr>116</ns3:hr>
            <ns3:cad>83</ns3:cad>
          </ns3:TrackPointExtension>
        </extensions>
      </trkpt>
      <trkpt lat="44.68003132380545139312744140625" lon="6.7770424671471118927001953125">
        <ele>2034.800048828125</ele>
        <time>2026-09-03T08:04:58.000Z</time>
        <extensions>
          <ns3:TrackPointExtension>
            <ns3:hr>115</ns3:hr>
            <ns3:cad>84</ns3:cad>
          </ns3:TrackPointExtension>
        </extensions>
      </trkpt>
      <trkpt lat="44.68000131659209728240966796875" lon="6.77705906331539154052734375">
        <ele>2034.5999755859375</ele>
        <time>2026-09-03T08:04:59.000Z</time>
        <extensions>
          <ns3:TrackPointExtension>
            <ns3:hr>115</ns3:hr>
            <ns3:cad>85</ns3:cad>
          </ns3:TrackPointExtension>
        </extensions>
      </trkpt>
      <trkpt lat="44.6799827925860881805419921875" lon="6.7770833708345890045166015625">
        <ele>2034.199951171875</ele>
        <time>2026-09-03T08:05:00.000Z</time>
        <extensions>
          <ns3:TrackPointExtension>
            <ns3:hr>115</ns3:hr>
            <ns3:cad>85</ns3:cad>
          </ns3:TrackPointExtension>
        </extensions>
      </trkpt>
      <trkpt lat="44.67995689250528812408447265625" lon="6.7771091870963573455810546875">
        <ele>2033.800048828125</ele>
        <time>2026-09-03T08:05:01.000Z</time>
        <extensions>
          <ns3:TrackPointExtension>
            <ns3:hr>116</ns3:hr>
            <ns3:cad>85</ns3:cad>
          </ns3:TrackPointExtension>
        </extensions>
      </trkpt>
      <trkpt lat="44.67992889694869518280029296875" lon="6.77712636999785900115966796875">
        <ele>2033.4000244140625</ele>
        <time>2026-09-03T08:05:02.000Z</time>
        <extensions>
          <ns3:TrackPointExtension>
            <ns3:hr>115</ns3:hr>
            <ns3:cad>85</ns3:cad>
          </ns3:TrackPointExtension>
        </extensions>
      </trkpt>
      <trkpt lat="44.67990995384752750396728515625" lon="6.777144558727741241455078125">
        <ele>2033.199951171875</ele>
        <time>2026-09-03T08:05:03.000Z</time>
        <extensions>
          <ns3:TrackPointExtension>
            <ns3:hr>115</ns3:hr>
            <ns3:cad>84</ns3:cad>
          </ns3:TrackPointExtension>
        </extensions>
      </trkpt>
      <trkpt lat="44.67988145537674427032470703125" lon="6.77716576494276523590087890625">
        <ele>2032.800048828125</ele>
        <time>2026-09-03T08:05:04.000Z</time>
        <extensions>
          <ns3:TrackPointExtension>
            <ns3:hr>116</ns3:hr>
            <ns3:cad>84</ns3:cad>
          </ns3:TrackPointExtension>
        </extensions>
      </trkpt>
      <trkpt lat="44.6798607520759105682373046875" lon="6.77717800252139568328857421875">
        <ele>2032.5999755859375</ele>
        <time>2026-09-03T08:05:05.000Z</time>
        <extensions>
          <ns3:TrackPointExtension>
            <ns3:hr>116</ns3:hr>
            <ns3:cad>84</ns3:cad>
          </ns3:TrackPointExtension>
        </extensions>
      </trkpt>
      <trkpt lat="44.6798379532992839813232421875" lon="6.77718722261488437652587890625">
        <ele>2032.4000244140625</ele>
        <time>2026-09-03T08:05:06.000Z</time>
        <extensions>
          <ns3:TrackPointExtension>
            <ns3:hr>116</ns3:hr>
            <ns3:cad>83</ns3:cad>
          </ns3:TrackPointExtension>
        </extensions>
      </trkpt>
      <trkpt lat="44.679809622466564178466796875" lon="6.7771859653294086456298828125">
        <ele>2032.199951171875</ele>
        <time>2026-09-03T08:05:07.000Z</time>
        <extensions>
          <ns3:TrackPointExtension>
            <ns3:hr>116</ns3:hr>
            <ns3:cad>83</ns3:cad>
          </ns3:TrackPointExtension>
        </extensions>
      </trkpt>
      <trkpt lat="44.6797876618802547454833984375" lon="6.77719007246196269989013671875">
        <ele>2032</ele>
        <time>2026-09-03T08:05:08.000Z</time>
        <extensions>
          <ns3:TrackPointExtension>
            <ns3:hr>116</ns3:hr>
            <ns3:cad>83</ns3:cad>
          </ns3:TrackPointExtension>
        </extensions>
      </trkpt>
      <trkpt lat="44.67975337989628314971923828125" lon="6.77718378603458404541015625">
        <ele>2031.800048828125</ele>
        <time>2026-09-03T08:05:09.000Z</time>
        <extensions>
          <ns3:TrackPointExtension>
            <ns3:hr>116</ns3:hr>
            <ns3:cad>83</ns3:cad>
          </ns3:TrackPointExtension>
        </extensions>
      </trkpt>
      <trkpt lat="44.6797296591103076934814453125" lon="6.77718085236847400665283203125">
        <ele>2031.800048828125</ele>
        <time>2026-09-03T08:05:10.000Z</time>
        <extensions>
          <ns3:TrackPointExtension>
            <ns3:hr>116</ns3:hr>
            <ns3:cad>83</ns3:cad>
          </ns3:TrackPointExtension>
        </extensions>
      </trkpt>
      <trkpt lat="44.67970359139144420623779296875" lon="6.77717280574142932891845703125">
        <ele>2031.5999755859375</ele>
        <time>2026-09-03T08:05:11.000Z</time>
        <extensions>
          <ns3:TrackPointExtension>
            <ns3:hr>116</ns3:hr>
            <ns3:cad>82</ns3:cad>
          </ns3:TrackPointExtension>
        </extensions>
      </trkpt>
      <trkpt lat="44.6796797029674053192138671875" lon="6.77716291509568691253662109375">
        <ele>2031.4000244140625</ele>
        <time>2026-09-03T08:05:12.000Z</time>
        <extensions>
          <ns3:TrackPointExtension>
            <ns3:hr>117</ns3:hr>
            <ns3:cad>82</ns3:cad>
          </ns3:TrackPointExtension>
        </extensions>
      </trkpt>
      <trkpt lat="44.67966034077107906341552734375" lon="6.77715637721121311187744140625">
        <ele>2031</ele>
        <time>2026-09-03T08:05:13.000Z</time>
        <extensions>
          <ns3:TrackPointExtension>
            <ns3:hr>117</ns3:hr>
            <ns3:cad>82</ns3:cad>
          </ns3:TrackPointExtension>
        </extensions>
      </trkpt>
      <trkpt lat="44.679634273052215576171875" lon="6.77713609300553798675537109375">
        <ele>2030.800048828125</ele>
        <time>2026-09-03T08:05:14.000Z</time>
        <extensions>
          <ns3:TrackPointExtension>
            <ns3:hr>117</ns3:hr>
            <ns3:cad>83</ns3:cad>
          </ns3:TrackPointExtension>
        </extensions>
      </trkpt>
      <trkpt lat="44.679613821208477020263671875" lon="6.77712368778884410858154296875">
        <ele>2030.5999755859375</ele>
        <time>2026-09-03T08:05:15.000Z</time>
        <extensions>
          <ns3:TrackPointExtension>
            <ns3:hr>117</ns3:hr>
            <ns3:cad>83</ns3:cad>
          </ns3:TrackPointExtension>
        </extensions>
      </trkpt>
      <trkpt lat="44.679589010775089263916015625" lon="6.777108013629913330078125">
        <ele>2030.199951171875</ele>
        <time>2026-09-03T08:05:16.000Z</time>
        <extensions>
          <ns3:TrackPointExtension>
            <ns3:hr>117</ns3:hr>
            <ns3:cad>83</ns3:cad>
          </ns3:TrackPointExtension>
        </extensions>
      </trkpt>
      <trkpt lat="44.679558165371417999267578125" lon="6.7771054990589618682861328125">
        <ele>2030</ele>
        <time>2026-09-03T08:05:17.000Z</time>
        <extensions>
          <ns3:TrackPointExtension>
            <ns3:hr>117</ns3:hr>
            <ns3:cad>84</ns3:cad>
          </ns3:TrackPointExtension>
        </extensions>
      </trkpt>
      <trkpt lat="44.67953293584287166595458984375" lon="6.77710658870637416839599609375">
        <ele>2029.800048828125</ele>
        <time>2026-09-03T08:05:18.000Z</time>
        <extensions>
          <ns3:TrackPointExtension>
            <ns3:hr>117</ns3:hr>
            <ns3:cad>84</ns3:cad>
          </ns3:TrackPointExtension>
        </extensions>
      </trkpt>
      <trkpt lat="44.679499156773090362548828125" lon="6.77710658870637416839599609375">
        <ele>2029.4000244140625</ele>
        <time>2026-09-03T08:05:19.000Z</time>
        <extensions>
          <ns3:TrackPointExtension>
            <ns3:hr>117</ns3:hr>
            <ns3:cad>84</ns3:cad>
          </ns3:TrackPointExtension>
        </extensions>
      </trkpt>
      <trkpt lat="44.6794741787016391754150390625" lon="6.77711312659084796905517578125">
        <ele>2029.4000244140625</ele>
        <time>2026-09-03T08:05:20.000Z</time>
        <extensions>
          <ns3:TrackPointExtension>
            <ns3:hr>116</ns3:hr>
            <ns3:cad>84</ns3:cad>
          </ns3:TrackPointExtension>
        </extensions>
      </trkpt>
      <trkpt lat="44.6794426627457141876220703125" lon="6.7771118693053722381591796875">
        <ele>2029.199951171875</ele>
        <time>2026-09-03T08:05:21.000Z</time>
        <extensions>
          <ns3:TrackPointExtension>
            <ns3:hr>116</ns3:hr>
            <ns3:cad>83</ns3:cad>
          </ns3:TrackPointExtension>
        </extensions>
      </trkpt>
      <trkpt lat="44.679421372711658477783203125" lon="6.7771138809621334075927734375">
        <ele>2029.199951171875</ele>
        <time>2026-09-03T08:05:22.000Z</time>
        <extensions>
          <ns3:TrackPointExtension>
            <ns3:hr>116</ns3:hr>
            <ns3:cad>83</ns3:cad>
          </ns3:TrackPointExtension>
        </extensions>
      </trkpt>
      <trkpt lat="44.6794047765433788299560546875" lon="6.77712016738951206207275390625">
        <ele>2029.4000244140625</ele>
        <time>2026-09-03T08:05:23.000Z</time>
        <extensions>
          <ns3:TrackPointExtension>
            <ns3:hr>116</ns3:hr>
            <ns3:cad>84</ns3:cad>
          </ns3:TrackPointExtension>
        </extensions>
      </trkpt>
      <trkpt lat="44.67939220368862152099609375" lon="6.77713072858750820159912109375">
        <ele>2029.4000244140625</ele>
        <time>2026-09-03T08:05:24.000Z</time>
        <extensions>
          <ns3:TrackPointExtension>
            <ns3:hr>116</ns3:hr>
            <ns3:cad>84</ns3:cad>
          </ns3:TrackPointExtension>
        </extensions>
      </trkpt>
      <trkpt lat="44.6793762780725955963134765625" lon="6.77713374607264995574951171875">
        <ele>2029.5999755859375</ele>
        <time>2026-09-03T08:05:25.000Z</time>
        <extensions>
          <ns3:TrackPointExtension>
            <ns3:hr>116</ns3:hr>
            <ns3:cad>84</ns3:cad>
          </ns3:TrackPointExtension>
        </extensions>
      </trkpt>
      <trkpt lat="44.6793618611991405487060546875" lon="6.77713290788233280181884765625">
        <ele>2029.800048828125</ele>
        <time>2026-09-03T08:05:26.000Z</time>
        <extensions>
          <ns3:TrackPointExtension>
            <ns3:hr>116</ns3:hr>
            <ns3:cad>84</ns3:cad>
          </ns3:TrackPointExtension>
        </extensions>
      </trkpt>
      <trkpt lat="44.67934752814471721649169921875" lon="6.77712888456881046295166015625">
        <ele>2029.800048828125</ele>
        <time>2026-09-03T08:05:27.000Z</time>
        <extensions>
          <ns3:TrackPointExtension>
            <ns3:hr>116</ns3:hr>
            <ns3:cad>84</ns3:cad>
          </ns3:TrackPointExtension>
        </extensions>
      </trkpt>
      <trkpt lat="44.67933394946157932281494140625" lon="6.7771242745220661163330078125">
        <ele>2030</ele>
        <time>2026-09-03T08:05:28.000Z</time>
        <extensions>
          <ns3:TrackPointExtension>
            <ns3:hr>116</ns3:hr>
            <ns3:cad>84</ns3:cad>
          </ns3:TrackPointExtension>
        </extensions>
      </trkpt>
      <trkpt lat="44.6793199516832828521728515625" lon="6.7771158926188945770263671875">
        <ele>2030</ele>
        <time>2026-09-03T08:05:29.000Z</time>
        <extensions>
          <ns3:TrackPointExtension>
            <ns3:hr>117</ns3:hr>
            <ns3:cad>75</ns3:cad>
          </ns3:TrackPointExtension>
        </extensions>
      </trkpt>
      <trkpt lat="44.67930461280047893524169921875" lon="6.77710960619151592254638671875">
        <ele>2030.199951171875</ele>
        <time>2026-09-03T08:05:30.000Z</time>
        <extensions>
          <ns3:TrackPointExtension>
            <ns3:hr>117</ns3:hr>
            <ns3:cad>75</ns3:cad>
          </ns3:TrackPointExtension>
        </extensions>
      </trkpt>
      <trkpt lat="44.67929220758378505706787109375" lon="6.77710273303091526031494140625">
        <ele>2030.199951171875</ele>
        <time>2026-09-03T08:05:31.000Z</time>
        <extensions>
          <ns3:TrackPointExtension>
            <ns3:hr>117</ns3:hr>
            <ns3:cad>75</ns3:cad>
          </ns3:TrackPointExtension>
        </extensions>
      </trkpt>
      <trkpt lat="44.67927661724388599395751953125" lon="6.7770947702229022979736328125">
        <ele>2030.4000244140625</ele>
        <time>2026-09-03T08:05:32.000Z</time>
        <extensions>
          <ns3:TrackPointExtension>
            <ns3:hr>117</ns3:hr>
            <ns3:cad>75</ns3:cad>
          </ns3:TrackPointExtension>
        </extensions>
      </trkpt>
      <trkpt lat="44.67926203273236751556396484375" lon="6.77709267474710941314697265625">
        <ele>2030.4000244140625</ele>
        <time>2026-09-03T08:05:33.000Z</time>
        <extensions>
          <ns3:TrackPointExtension>
            <ns3:hr>118</ns3:hr>
            <ns3:cad>63</ns3:cad>
          </ns3:TrackPointExtension>
        </extensions>
      </trkpt>
      <trkpt lat="44.6792461909353733062744140625" lon="6.77708982490003108978271484375">
        <ele>2030.4000244140625</ele>
        <time>2026-09-03T08:05:34.000Z</time>
        <extensions>
          <ns3:TrackPointExtension>
            <ns3:hr>118</ns3:hr>
            <ns3:cad>62</ns3:cad>
          </ns3:TrackPointExtension>
        </extensions>
      </trkpt>
      <trkpt lat="44.679232276976108551025390625" lon="6.77708865143358707427978515625">
        <ele>2030.5999755859375</ele>
        <time>2026-09-03T08:05:35.000Z</time>
        <extensions>
          <ns3:TrackPointExtension>
            <ns3:hr>118</ns3:hr>
            <ns3:cad>62</ns3:cad>
          </ns3:TrackPointExtension>
        </extensions>
      </trkpt>
      <trkpt lat="44.67921911738812923431396484375" lon="6.777091920375823974609375">
        <ele>2030.5999755859375</ele>
        <time>2026-09-03T08:05:36.000Z</time>
        <extensions>
          <ns3:TrackPointExtension>
            <ns3:hr>117</ns3:hr>
            <ns3:cad>62</ns3:cad>
          </ns3:TrackPointExtension>
        </extensions>
      </trkpt>
      <trkpt lat="44.679206795990467071533203125" lon="6.77709250710904598236083984375">
        <ele>2030.5999755859375</ele>
        <time>2026-09-03T08:05:37.000Z</time>
        <extensions>
          <ns3:TrackPointExtension>
            <ns3:hr>117</ns3:hr>
            <ns3:cad>63</ns3:cad>
          </ns3:TrackPointExtension>
        </extensions>
      </trkpt>
      <trkpt lat="44.6791930496692657470703125" lon="6.77709267474710941314697265625">
        <ele>2030.5999755859375</ele>
        <time>2026-09-03T08:05:38.000Z</time>
        <extensions>
          <ns3:TrackPointExtension>
            <ns3:hr>118</ns3:hr>
            <ns3:cad>64</ns3:cad>
          </ns3:TrackPointExtension>
        </extensions>
      </trkpt>
      <trkpt lat="44.679179303348064422607421875" lon="6.77709267474710941314697265625">
        <ele>2030.800048828125</ele>
        <time>2026-09-03T08:05:39.000Z</time>
        <extensions>
          <ns3:TrackPointExtension>
            <ns3:hr>118</ns3:hr>
            <ns3:cad>65</ns3:cad>
          </ns3:TrackPointExtension>
        </extensions>
      </trkpt>
      <trkpt lat="44.679165892302989959716796875" lon="6.7770934291183948516845703125">
        <ele>2030.800048828125</ele>
        <time>2026-09-03T08:05:40.000Z</time>
        <extensions>
          <ns3:TrackPointExtension>
            <ns3:hr>118</ns3:hr>
            <ns3:cad>65</ns3:cad>
          </ns3:TrackPointExtension>
        </extensions>
      </trkpt>
      <trkpt lat="44.67915658839046955108642578125" lon="6.7770940996706485748291015625">
        <ele>2030.800048828125</ele>
        <time>2026-09-03T08:05:41.000Z</time>
        <extensions>
          <ns3:TrackPointExtension>
            <ns3:hr>117</ns3:hr>
            <ns3:cad>63</ns3:cad>
          </ns3:TrackPointExtension>
        </extensions>
      </trkpt>
      <trkpt lat="44.679144434630870819091796875" lon="6.777094937860965728759765625">
        <ele>2030.800048828125</ele>
        <time>2026-09-03T08:05:42.000Z</time>
        <extensions>
          <ns3:TrackPointExtension>
            <ns3:hr>118</ns3:hr>
            <ns3:cad>62</ns3:cad>
          </ns3:TrackPointExtension>
        </extensions>
      </trkpt>
      <trkpt lat="44.67913529835641384124755859375" lon="6.77709401585161685943603515625">
        <ele>2030.800048828125</ele>
        <time>2026-09-03T08:05:43.000Z</time>
        <extensions>
          <ns3:TrackPointExtension>
            <ns3:hr>118</ns3:hr>
            <ns3:cad>62</ns3:cad>
          </ns3:TrackPointExtension>
        </extensions>
      </trkpt>
      <trkpt lat="44.67912741936743259429931640625" lon="6.77709183655679225921630859375">
        <ele>2030.800048828125</ele>
        <time>2026-09-03T08:05:44.000Z</time>
        <extensions>
          <ns3:TrackPointExtension>
            <ns3:hr>118</ns3:hr>
            <ns3:cad>62</ns3:cad>
          </ns3:TrackPointExtension>
        </extensions>
      </trkpt>
      <trkpt lat="44.67912071384489536285400390625" lon="6.7770803533494472503662109375">
        <ele>2030.5999755859375</ele>
        <time>2026-09-03T08:05:45.000Z</time>
        <extensions>
          <ns3:TrackPointExtension>
            <ns3:hr>118</ns3:hr>
            <ns3:cad>62</ns3:cad>
          </ns3:TrackPointExtension>
        </extensions>
      </trkpt>
      <trkpt lat="44.679113924503326416015625" lon="6.77706602029502391815185546875">
        <ele>2030.4000244140625</ele>
        <time>2026-09-03T08:05:46.000Z</time>
        <extensions>
          <ns3:TrackPointExtension>
            <ns3:hr>119</ns3:hr>
            <ns3:cad>62</ns3:cad>
          </ns3:TrackPointExtension>
        </extensions>
      </trkpt>
      <trkpt lat="44.67910520732402801513671875" lon="6.777044646441936492919921875">
        <ele>2030</ele>
        <time>2026-09-03T08:05:47.000Z</time>
        <extensions>
          <ns3:TrackPointExtension>
            <ns3:hr>119</ns3:hr>
            <ns3:cad>62</ns3:cad>
          </ns3:TrackPointExtension>
        </extensions>
      </trkpt>
      <trkpt lat="44.67909447848796844482421875" lon="6.77701212465763092041015625">
        <ele>2029.5999755859375</ele>
        <time>2026-09-03T08:05:48.000Z</time>
        <extensions>
          <ns3:TrackPointExtension>
            <ns3:hr>119</ns3:hr>
            <ns3:cad>62</ns3:cad>
          </ns3:TrackPointExtension>
        </extensions>
      </trkpt>
      <trkpt lat="44.6790855936706066131591796875" lon="6.77698538638651371002197265625">
        <ele>2029.199951171875</ele>
        <time>2026-09-03T08:05:49.000Z</time>
        <extensions>
          <ns3:TrackPointExtension>
            <ns3:hr>119</ns3:hr>
            <ns3:cad>62</ns3:cad>
          </ns3:TrackPointExtension>
        </extensions>
      </trkpt>
      <trkpt lat="44.67907964251935482025146484375" lon="6.7769579775631427764892578125">
        <ele>2028.5999755859375</ele>
        <time>2026-09-03T08:05:50.000Z</time>
        <extensions>
          <ns3:TrackPointExtension>
            <ns3:hr>118</ns3:hr>
            <ns3:cad>86</ns3:cad>
          </ns3:TrackPointExtension>
        </extensions>
      </trkpt>
      <trkpt lat="44.67907377518713474273681640625" lon="6.7769336700439453125">
        <ele>2028</ele>
        <time>2026-09-03T08:05:51.000Z</time>
        <extensions>
          <ns3:TrackPointExtension>
            <ns3:hr>118</ns3:hr>
            <ns3:cad>87</ns3:cad>
          </ns3:TrackPointExtension>
        </extensions>
      </trkpt>
      <trkpt lat="44.67906421981751918792724609375" lon="6.77690575830638408660888671875">
        <ele>2027.5999755859375</ele>
        <time>2026-09-03T08:05:52.000Z</time>
        <extensions>
          <ns3:TrackPointExtension>
            <ns3:hr>118</ns3:hr>
            <ns3:cad>87</ns3:cad>
          </ns3:TrackPointExtension>
        </extensions>
      </trkpt>
      <trkpt lat="44.67905416153371334075927734375" lon="6.77687960676848888397216796875">
        <ele>2027</ele>
        <time>2026-09-03T08:05:53.000Z</time>
        <extensions>
          <ns3:TrackPointExtension>
            <ns3:hr>117</ns3:hr>
            <ns3:cad>88</ns3:cad>
          </ns3:TrackPointExtension>
        </extensions>
      </trkpt>
      <trkpt lat="44.67904577963054180145263671875" lon="6.77685898728668689727783203125">
        <ele>2026.5999755859375</ele>
        <time>2026-09-03T08:05:54.000Z</time>
        <extensions>
          <ns3:TrackPointExtension>
            <ns3:hr>117</ns3:hr>
            <ns3:cad>88</ns3:cad>
          </ns3:TrackPointExtension>
        </extensions>
      </trkpt>
      <trkpt lat="44.6790416724979877471923828125" lon="6.77683317102491855621337890625">
        <ele>2026</ele>
        <time>2026-09-03T08:05:55.000Z</time>
        <extensions>
          <ns3:TrackPointExtension>
            <ns3:hr>117</ns3:hr>
            <ns3:cad>88</ns3:cad>
          </ns3:TrackPointExtension>
        </extensions>
      </trkpt>
      <trkpt lat="44.6790336258709430694580078125" lon="6.776805929839611053466796875">
        <ele>2025.5999755859375</ele>
        <time>2026-09-03T08:05:56.000Z</time>
        <extensions>
          <ns3:TrackPointExtension>
            <ns3:hr>116</ns3:hr>
            <ns3:cad>88</ns3:cad>
          </ns3:TrackPointExtension>
        </extensions>
      </trkpt>
      <trkpt lat="44.6790259145200252532958984375" lon="6.7767779342830181121826171875">
        <ele>2025.199951171875</ele>
        <time>2026-09-03T08:05:57.000Z</time>
        <extensions>
          <ns3:TrackPointExtension>
            <ns3:hr>116</ns3:hr>
            <ns3:cad>88</ns3:cad>
          </ns3:TrackPointExtension>
        </extensions>
      </trkpt>
      <trkpt lat="44.67902013100683689117431640625" lon="6.77675019018352031707763671875">
        <ele>2024.5999755859375</ele>
        <time>2026-09-03T08:05:58.000Z</time>
        <extensions>
          <ns3:TrackPointExtension>
            <ns3:hr>116</ns3:hr>
            <ns3:cad>89</ns3:cad>
          </ns3:TrackPointExtension>
        </extensions>
      </trkpt>
      <trkpt lat="44.67900772579014301300048828125" lon="6.7767202667891979217529296875">
        <ele>2024.199951171875</ele>
        <time>2026-09-03T08:05:59.000Z</time>
        <extensions>
          <ns3:TrackPointExtension>
            <ns3:hr>116</ns3:hr>
            <ns3:cad>89</ns3:cad>
          </ns3:TrackPointExtension>
        </extensions>
      </trkpt>
      <trkpt lat="44.678998254239559173583984375" lon="6.77669939585030078887939453125">
        <ele>2023.5999755859375</ele>
        <time>2026-09-03T08:06:00.000Z</time>
        <extensions>
          <ns3:TrackPointExtension>
            <ns3:hr>116</ns3:hr>
            <ns3:cad>94</ns3:cad>
          </ns3:TrackPointExtension>
        </extensions>
      </trkpt>
      <trkpt lat="44.67898928560316562652587890625" lon="6.77667492069303989410400390625">
        <ele>2023.199951171875</ele>
        <time>2026-09-03T08:06:01.000Z</time>
        <extensions>
          <ns3:TrackPointExtension>
            <ns3:hr>116</ns3:hr>
            <ns3:cad>96</ns3:cad>
          </ns3:TrackPointExtension>
        </extensions>
      </trkpt>
      <trkpt lat="44.6789789758622646331787109375" lon="6.7766522057354450225830078125">
        <ele>2022.5999755859375</ele>
        <time>2026-09-03T08:06:02.000Z</time>
        <extensions>
          <ns3:TrackPointExtension>
            <ns3:hr>115</ns3:hr>
            <ns3:cad>96</ns3:cad>
          </ns3:TrackPointExtension>
        </extensions>
      </trkpt>
      <trkpt lat="44.6789726056158542633056640625" lon="6.776628904044628143310546875">
        <ele>2022</ele>
        <time>2026-09-03T08:06:03.000Z</time>
        <extensions>
          <ns3:TrackPointExtension>
            <ns3:hr>115</ns3:hr>
            <ns3:cad>96</ns3:cad>
          </ns3:TrackPointExtension>
        </extensions>
      </trkpt>
      <trkpt lat="44.67896028421819210052490234375" lon="6.776605434715747833251953125">
        <ele>2021.5999755859375</ele>
        <time>2026-09-03T08:06:04.000Z</time>
        <extensions>
          <ns3:TrackPointExtension>
            <ns3:hr>115</ns3:hr>
            <ns3:cad>96</ns3:cad>
          </ns3:TrackPointExtension>
        </extensions>
      </trkpt>
      <trkpt lat="44.67895324341952800750732421875" lon="6.77657366730272769927978515625">
        <ele>2021</ele>
        <time>2026-09-03T08:06:05.000Z</time>
        <extensions>
          <ns3:TrackPointExtension>
            <ns3:hr>115</ns3:hr>
            <ns3:cad>95</ns3:cad>
          </ns3:TrackPointExtension>
        </extensions>
      </trkpt>
      <trkpt lat="44.67894000001251697540283203125" lon="6.77654567174613475799560546875">
        <ele>2020.5999755859375</ele>
        <time>2026-09-03T08:06:06.000Z</time>
        <extensions>
          <ns3:TrackPointExtension>
            <ns3:hr>114</ns3:hr>
            <ns3:cad>95</ns3:cad>
          </ns3:TrackPointExtension>
        </extensions>
      </trkpt>
      <trkpt lat="44.6789239905774593353271484375" lon="6.77651323378086090087890625">
        <ele>2020</ele>
        <time>2026-09-03T08:06:07.000Z</time>
        <extensions>
          <ns3:TrackPointExtension>
            <ns3:hr>115</ns3:hr>
            <ns3:cad>95</ns3:cad>
          </ns3:TrackPointExtension>
        </extensions>
      </trkpt>
      <trkpt lat="44.678913094103336334228515625" lon="6.77648331038653850555419921875">
        <ele>2019.4000244140625</ele>
        <time>2026-09-03T08:06:08.000Z</time>
        <extensions>
          <ns3:TrackPointExtension>
            <ns3:hr>115</ns3:hr>
            <ns3:cad>95</ns3:cad>
          </ns3:TrackPointExtension>
        </extensions>
      </trkpt>
      <trkpt lat="44.67890270054340362548828125" lon="6.77645330317318439483642578125">
        <ele>2019</ele>
        <time>2026-09-03T08:06:09.000Z</time>
        <extensions>
          <ns3:TrackPointExtension>
            <ns3:hr>115</ns3:hr>
            <ns3:cad>95</ns3:cad>
          </ns3:TrackPointExtension>
        </extensions>
      </trkpt>
      <trkpt lat="44.67889725230634212493896484375" lon="6.77641072310507297515869140625">
        <ele>2018.4000244140625</ele>
        <time>2026-09-03T08:06:10.000Z</time>
        <extensions>
          <ns3:TrackPointExtension>
            <ns3:hr>116</ns3:hr>
            <ns3:cad>87</ns3:cad>
          </ns3:TrackPointExtension>
        </extensions>
      </trkpt>
      <trkpt lat="44.67889440245926380157470703125" lon="6.776376776397228240966796875">
        <ele>2018.199951171875</ele>
        <time>2026-09-03T08:06:11.000Z</time>
        <extensions>
          <ns3:TrackPointExtension>
            <ns3:hr>116</ns3:hr>
            <ns3:cad>85</ns3:cad>
          </ns3:TrackPointExtension>
        </extensions>
      </trkpt>
      <trkpt lat="44.67889197170734405517578125" lon="6.7763330228626728057861328125">
        <ele>2017.800048828125</ele>
        <time>2026-09-03T08:06:12.000Z</time>
        <extensions>
          <ns3:TrackPointExtension>
            <ns3:hr>115</ns3:hr>
            <ns3:cad>85</ns3:cad>
          </ns3:TrackPointExtension>
        </extensions>
      </trkpt>
      <trkpt lat="44.67889465391635894775390625" lon="6.7762981541454792022705078125">
        <ele>2017.5999755859375</ele>
        <time>2026-09-03T08:06:13.000Z</time>
        <extensions>
          <ns3:TrackPointExtension>
            <ns3:hr>114</ns3:hr>
            <ns3:cad>84</ns3:cad>
          </ns3:TrackPointExtension>
        </extensions>
      </trkpt>
      <trkpt lat="44.6788884513080120086669921875" lon="6.776266135275363922119140625">
        <ele>2017.199951171875</ele>
        <time>2026-09-03T08:06:14.000Z</time>
        <extensions>
          <ns3:TrackPointExtension>
            <ns3:hr>115</ns3:hr>
            <ns3:cad>84</ns3:cad>
          </ns3:TrackPointExtension>
        </extensions>
      </trkpt>
      <trkpt lat="44.67889063060283660888671875" lon="6.7762233875691890716552734375">
        <ele>2017</ele>
        <time>2026-09-03T08:06:15.000Z</time>
        <extensions>
          <ns3:TrackPointExtension>
            <ns3:hr>115</ns3:hr>
            <ns3:cad>83</ns3:cad>
          </ns3:TrackPointExtension>
        </extensions>
      </trkpt>
      <trkpt lat="44.67888518236577510833740234375" lon="6.7761948890984058380126953125">
        <ele>2016.800048828125</ele>
        <time>2026-09-03T08:06:16.000Z</time>
        <extensions>
          <ns3:TrackPointExtension>
            <ns3:hr>116</ns3:hr>
            <ns3:cad>84</ns3:cad>
          </ns3:TrackPointExtension>
        </extensions>
      </trkpt>
      <trkpt lat="44.67888350598514080047607421875" lon="6.77614971064031124114990234375">
        <ele>2016.4000244140625</ele>
        <time>2026-09-03T08:06:17.000Z</time>
        <extensions>
          <ns3:TrackPointExtension>
            <ns3:hr>116</ns3:hr>
            <ns3:cad>83</ns3:cad>
          </ns3:TrackPointExtension>
        </extensions>
      </trkpt>
      <trkpt lat="44.67889172025024890899658203125" lon="6.77611081860959529876708984375">
        <ele>2016.199951171875</ele>
        <time>2026-09-03T08:06:18.000Z</time>
        <extensions>
          <ns3:TrackPointExtension>
            <ns3:hr>116</ns3:hr>
            <ns3:cad>84</ns3:cad>
          </ns3:TrackPointExtension>
        </extensions>
      </trkpt>
      <trkpt lat="44.67889524064958095550537109375" lon="6.7760701663792133331298828125">
        <ele>2015.800048828125</ele>
        <time>2026-09-03T08:06:19.000Z</time>
        <extensions>
          <ns3:TrackPointExtension>
            <ns3:hr>116</ns3:hr>
            <ns3:cad>83</ns3:cad>
          </ns3:TrackPointExtension>
        </extensions>
      </trkpt>
      <trkpt lat="44.67889641411602497100830078125" lon="6.77602213807404041290283203125">
        <ele>2015.5999755859375</ele>
        <time>2026-09-03T08:06:20.000Z</time>
        <extensions>
          <ns3:TrackPointExtension>
            <ns3:hr>117</ns3:hr>
            <ns3:cad>84</ns3:cad>
          </ns3:TrackPointExtension>
        </extensions>
      </trkpt>
      <trkpt lat="44.678892977535724639892578125" lon="6.775988526642322540283203125">
        <ele>2015.199951171875</ele>
        <time>2026-09-03T08:06:21.000Z</time>
        <extensions>
          <ns3:TrackPointExtension>
            <ns3:hr>117</ns3:hr>
            <ns3:cad>84</ns3:cad>
          </ns3:TrackPointExtension>
        </extensions>
      </trkpt>
      <trkpt lat="44.67889674939215183258056640625" lon="6.77593530155718326568603515625">
        <ele>2015</ele>
        <time>2026-09-03T08:06:22.000Z</time>
        <extensions>
          <ns3:TrackPointExtension>
            <ns3:hr>118</ns3:hr>
            <ns3:cad>84</ns3:cad>
          </ns3:TrackPointExtension>
        </extensions>
      </trkpt>
      <trkpt lat="44.67890228144824504852294921875" lon="6.77589833736419677734375">
        <ele>2014.800048828125</ele>
        <time>2026-09-03T08:06:23.000Z</time>
        <extensions>
          <ns3:TrackPointExtension>
            <ns3:hr>119</ns3:hr>
            <ns3:cad>83</ns3:cad>
          </ns3:TrackPointExtension>
        </extensions>
      </trkpt>
      <trkpt lat="44.6789125911891460418701171875" lon="6.77585936151444911956787109375">
        <ele>2014.5999755859375</ele>
        <time>2026-09-03T08:06:24.000Z</time>
        <extensions>
          <ns3:TrackPointExtension>
            <ns3:hr>119</ns3:hr>
            <ns3:cad>83</ns3:cad>
          </ns3:TrackPointExtension>
        </extensions>
      </trkpt>
      <trkpt lat="44.67893220484256744384765625" lon="6.77582315169274806976318359375">
        <ele>2014.5999755859375</ele>
        <time>2026-09-03T08:06:25.000Z</time>
        <extensions>
          <ns3:TrackPointExtension>
            <ns3:hr>120</ns3:hr>
            <ns3:cad>83</ns3:cad>
          </ns3:TrackPointExtension>
        </extensions>
      </trkpt>
      <trkpt lat="44.67894561588764190673828125" lon="6.77579649724066257476806640625">
        <ele>2014.4000244140625</ele>
        <time>2026-09-03T08:06:26.000Z</time>
        <extensions>
          <ns3:TrackPointExtension>
            <ns3:hr>120</ns3:hr>
            <ns3:cad>84</ns3:cad>
          </ns3:TrackPointExtension>
        </extensions>
      </trkpt>
      <trkpt lat="44.67897201888263225555419921875" lon="6.7757664062082767486572265625">
        <ele>2014.199951171875</ele>
        <time>2026-09-03T08:06:27.000Z</time>
        <extensions>
          <ns3:TrackPointExtension>
            <ns3:hr>121</ns3:hr>
            <ns3:cad>84</ns3:cad>
          </ns3:TrackPointExtension>
        </extensions>
      </trkpt>
      <trkpt lat="44.6789930574595928192138671875" lon="6.77574519999325275421142578125">
        <ele>2014</ele>
        <time>2026-09-03T08:06:28.000Z</time>
        <extensions>
          <ns3:TrackPointExtension>
            <ns3:hr>122</ns3:hr>
            <ns3:cad>84</ns3:cad>
          </ns3:TrackPointExtension>
        </extensions>
      </trkpt>
      <trkpt lat="44.67901828698813915252685546875" lon="6.77572474814951419830322265625">
        <ele>2013.800048828125</ele>
        <time>2026-09-03T08:06:29.000Z</time>
        <extensions>
          <ns3:TrackPointExtension>
            <ns3:hr>122</ns3:hr>
            <ns3:cad>84</ns3:cad>
          </ns3:TrackPointExtension>
        </extensions>
      </trkpt>
      <trkpt lat="44.6790455281734466552734375" lon="6.775699518620967864990234375">
        <ele>2013.800048828125</ele>
        <time>2026-09-03T08:06:30.000Z</time>
        <extensions>
          <ns3:TrackPointExtension>
            <ns3:hr>123</ns3:hr>
            <ns3:cad>84</ns3:cad>
          </ns3:TrackPointExtension>
        </extensions>
      </trkpt>
      <trkpt lat="44.67906388454139232635498046875" lon="6.7756809107959270477294921875">
        <ele>2013.5999755859375</ele>
        <time>2026-09-03T08:06:31.000Z</time>
        <extensions>
          <ns3:TrackPointExtension>
            <ns3:hr>123</ns3:hr>
            <ns3:cad>83</ns3:cad>
          </ns3:TrackPointExtension>
        </extensions>
      </trkpt>
      <trkpt lat="44.6790959872305393218994140625" lon="6.775654256343841552734375">
        <ele>2013.5999755859375</ele>
        <time>2026-09-03T08:06:32.000Z</time>
        <extensions>
          <ns3:TrackPointExtension>
            <ns3:hr>124</ns3:hr>
            <ns3:cad>83</ns3:cad>
          </ns3:TrackPointExtension>
        </extensions>
      </trkpt>
      <trkpt lat="44.6791197918355464935302734375" lon="6.7756309546530246734619140625">
        <ele>2013.4000244140625</ele>
        <time>2026-09-03T08:06:33.000Z</time>
        <extensions>
          <ns3:TrackPointExtension>
            <ns3:hr>125</ns3:hr>
            <ns3:cad>83</ns3:cad>
          </ns3:TrackPointExtension>
        </extensions>
      </trkpt>
      <trkpt lat="44.6791313588619232177734375" lon="6.77560589276254177093505859375">
        <ele>2013.4000244140625</ele>
        <time>2026-09-03T08:06:34.000Z</time>
        <extensions>
          <ns3:TrackPointExtension>
            <ns3:hr>125</ns3:hr>
            <ns3:cad>83</ns3:cad>
          </ns3:TrackPointExtension>
        </extensions>
      </trkpt>
      <trkpt lat="44.6791385672986507415771484375" lon="6.77556884475052356719970703125">
        <ele>2013.199951171875</ele>
        <time>2026-09-03T08:06:35.000Z</time>
        <extensions>
          <ns3:TrackPointExtension>
            <ns3:hr>125</ns3:hr>
            <ns3:cad>84</ns3:cad>
          </ns3:TrackPointExtension>
        </extensions>
      </trkpt>
      <trkpt lat="44.67913739383220672607421875" lon="6.77553917281329631805419921875">
        <ele>2012.800048828125</ele>
        <time>2026-09-03T08:06:36.000Z</time>
        <extensions>
          <ns3:TrackPointExtension>
            <ns3:hr>126</ns3:hr>
            <ns3:cad>84</ns3:cad>
          </ns3:TrackPointExtension>
        </extensions>
      </trkpt>
      <trkpt lat="44.67912641353905200958251953125" lon="6.775495000183582305908203125">
        <ele>2012.5999755859375</ele>
        <time>2026-09-03T08:06:37.000Z</time>
        <extensions>
          <ns3:TrackPointExtension>
            <ns3:hr>126</ns3:hr>
            <ns3:cad>84</ns3:cad>
          </ns3:TrackPointExtension>
        </extensions>
      </trkpt>
      <trkpt lat="44.67912222258746623992919921875" lon="6.77546272985637187957763671875">
        <ele>2012.4000244140625</ele>
        <time>2026-09-03T08:06:38.000Z</time>
        <extensions>
          <ns3:TrackPointExtension>
            <ns3:hr>126</ns3:hr>
            <ns3:cad>83</ns3:cad>
          </ns3:TrackPointExtension>
        </extensions>
      </trkpt>
      <trkpt lat="44.6791167743504047393798828125" lon="6.7754314653575420379638671875">
        <ele>2012.199951171875</ele>
        <time>2026-09-03T08:06:39.000Z</time>
        <extensions>
          <ns3:TrackPointExtension>
            <ns3:hr>127</ns3:hr>
            <ns3:cad>83</ns3:cad>
          </ns3:TrackPointExtension>
        </extensions>
      </trkpt>
      <trkpt lat="44.6791124157607555389404296875" lon="6.77540103904902935028076171875">
        <ele>2011.800048828125</ele>
        <time>2026-09-03T08:06:40.000Z</time>
        <extensions>
          <ns3:TrackPointExtension>
            <ns3:hr>127</ns3:hr>
            <ns3:cad>83</ns3:cad>
          </ns3:TrackPointExtension>
        </extensions>
      </trkpt>
      <trkpt lat="44.67910529114305973052978515625" lon="6.775367259979248046875">
        <ele>2011.4000244140625</ele>
        <time>2026-09-03T08:06:41.000Z</time>
        <extensions>
          <ns3:TrackPointExtension>
            <ns3:hr>127</ns3:hr>
            <ns3:cad>83</ns3:cad>
          </ns3:TrackPointExtension>
        </extensions>
      </trkpt>
      <trkpt lat="44.679102189838886260986328125" lon="6.77532928995788097381591796875">
        <ele>2011.199951171875</ele>
        <time>2026-09-03T08:06:42.000Z</time>
        <extensions>
          <ns3:TrackPointExtension>
            <ns3:hr>128</ns3:hr>
            <ns3:cad>84</ns3:cad>
          </ns3:TrackPointExtension>
        </extensions>
      </trkpt>
      <trkpt lat="44.679097495973110198974609375" lon="6.77530162967741489410400390625">
        <ele>2010.800048828125</ele>
        <time>2026-09-03T08:06:43.000Z</time>
        <extensions>
          <ns3:TrackPointExtension>
            <ns3:hr>128</ns3:hr>
            <ns3:cad>86</ns3:cad>
          </ns3:TrackPointExtension>
        </extensions>
      </trkpt>
      <trkpt lat="44.67909523285925388336181640625" lon="6.77526600658893585205078125">
        <ele>2010.800048828125</ele>
        <time>2026-09-03T08:06:44.000Z</time>
        <extensions>
          <ns3:TrackPointExtension>
            <ns3:hr>128</ns3:hr>
            <ns3:cad>88</ns3:cad>
          </ns3:TrackPointExtension>
        </extensions>
      </trkpt>
      <trkpt lat="44.67909439466893672943115234375" lon="6.77523608319461345672607421875">
        <ele>2010.5999755859375</ele>
        <time>2026-09-03T08:06:45.000Z</time>
        <extensions>
          <ns3:TrackPointExtension>
            <ns3:hr>128</ns3:hr>
            <ns3:cad>88</ns3:cad>
          </ns3:TrackPointExtension>
        </extensions>
      </trkpt>
      <trkpt lat="44.67909422703087329864501953125" lon="6.775211356580257415771484375">
        <ele>2010.4000244140625</ele>
        <time>2026-09-03T08:06:46.000Z</time>
        <extensions>
          <ns3:TrackPointExtension>
            <ns3:hr>128</ns3:hr>
            <ns3:cad>88</ns3:cad>
          </ns3:TrackPointExtension>
        </extensions>
      </trkpt>
      <trkpt lat="44.67909422703087329864501953125" lon="6.77518528886139392852783203125">
        <ele>2010.4000244140625</ele>
        <time>2026-09-03T08:06:47.000Z</time>
        <extensions>
          <ns3:TrackPointExtension>
            <ns3:hr>129</ns3:hr>
            <ns3:cad>85</ns3:cad>
          </ns3:TrackPointExtension>
        </extensions>
      </trkpt>
      <trkpt lat="44.679096825420856475830078125" lon="6.77515796385705471038818359375">
        <ele>2010.4000244140625</ele>
        <time>2026-09-03T08:06:48.000Z</time>
        <extensions>
          <ns3:TrackPointExtension>
            <ns3:hr>129</ns3:hr>
            <ns3:cad>84</ns3:cad>
          </ns3:TrackPointExtension>
        </extensions>
      </trkpt>
      <trkpt lat="44.67909623868763446807861328125" lon="6.77512678317725658416748046875">
        <ele>2010.199951171875</ele>
        <time>2026-09-03T08:06:49.000Z</time>
        <extensions>
          <ns3:TrackPointExtension>
            <ns3:hr>129</ns3:hr>
            <ns3:cad>84</ns3:cad>
          </ns3:TrackPointExtension>
        </extensions>
      </trkpt>
      <trkpt lat="44.6790919639170169830322265625" lon="6.77509442903101444244384765625">
        <ele>2010</ele>
        <time>2026-09-03T08:06:50.000Z</time>
        <extensions>
          <ns3:TrackPointExtension>
            <ns3:hr>129</ns3:hr>
            <ns3:cad>84</ns3:cad>
          </ns3:TrackPointExtension>
        </extensions>
      </trkpt>
      <trkpt lat="44.679078720510005950927734375" lon="6.77505855448544025421142578125">
        <ele>2009.800048828125</ele>
        <time>2026-09-03T08:06:51.000Z</time>
        <extensions>
          <ns3:TrackPointExtension>
            <ns3:hr>128</ns3:hr>
            <ns3:cad>84</ns3:cad>
          </ns3:TrackPointExtension>
        </extensions>
      </trkpt>
      <trkpt lat="44.67906053178012371063232421875" lon="6.77501681260764598846435546875">
        <ele>2009.800048828125</ele>
        <time>2026-09-03T08:06:52.000Z</time>
        <extensions>
          <ns3:TrackPointExtension>
            <ns3:hr>128</ns3:hr>
            <ns3:cad>83</ns3:cad>
          </ns3:TrackPointExtension>
        </extensions>
      </trkpt>
      <trkpt lat="44.67904527671635150909423828125" lon="6.77499351091682910919189453125">
        <ele>2009.4000244140625</ele>
        <time>2026-09-03T08:06:53.000Z</time>
        <extensions>
          <ns3:TrackPointExtension>
            <ns3:hr>128</ns3:hr>
            <ns3:cad>80</ns3:cad>
          </ns3:TrackPointExtension>
        </extensions>
      </trkpt>
      <trkpt lat="44.6790282614529132843017578125" lon="6.77497875876724720001220703125">
        <ele>2009.199951171875</ele>
        <time>2026-09-03T08:06:54.000Z</time>
        <extensions>
          <ns3:TrackPointExtension>
            <ns3:hr>129</ns3:hr>
            <ns3:cad>80</ns3:cad>
          </ns3:TrackPointExtension>
        </extensions>
      </trkpt>
      <trkpt lat="44.67901409603655338287353515625" lon="6.77497037686407566070556640625">
        <ele>2009.199951171875</ele>
        <time>2026-09-03T08:06:55.000Z</time>
        <extensions>
          <ns3:TrackPointExtension>
            <ns3:hr>129</ns3:hr>
            <ns3:cad>81</ns3:cad>
          </ns3:TrackPointExtension>
        </extensions>
      </trkpt>
      <trkpt lat="44.67899884097278118133544921875" lon="6.77496585063636302947998046875">
        <ele>2009</ele>
        <time>2026-09-03T08:06:56.000Z</time>
        <extensions>
          <ns3:TrackPointExtension>
            <ns3:hr>129</ns3:hr>
            <ns3:cad>81</ns3:cad>
          </ns3:TrackPointExtension>
        </extensions>
      </trkpt>
      <trkpt lat="44.67897914350032806396484375" lon="6.7749654315412044525146484375">
        <ele>2008.5999755859375</ele>
        <time>2026-09-03T08:06:57.000Z</time>
        <extensions>
          <ns3:TrackPointExtension>
            <ns3:hr>129</ns3:hr>
            <ns3:cad>81</ns3:cad>
          </ns3:TrackPointExtension>
        </extensions>
      </trkpt>
      <trkpt lat="44.678965397179126739501953125" lon="6.7749654315412044525146484375">
        <ele>2008.4000244140625</ele>
        <time>2026-09-03T08:06:58.000Z</time>
        <extensions>
          <ns3:TrackPointExtension>
            <ns3:hr>129</ns3:hr>
            <ns3:cad>78</ns3:cad>
          </ns3:TrackPointExtension>
        </extensions>
      </trkpt>
      <trkpt lat="44.67895844019949436187744140625" lon="6.77496970631182193756103515625">
        <ele>2008</ele>
        <time>2026-09-03T08:06:59.000Z</time>
        <extensions>
          <ns3:TrackPointExtension>
            <ns3:hr>130</ns3:hr>
            <ns3:cad>78</ns3:cad>
          </ns3:TrackPointExtension>
        </extensions>
      </trkpt>
      <trkpt lat="44.6789543330669403076171875" lon="6.77497255615890026092529296875">
        <ele>2007.800048828125</ele>
        <time>2026-09-03T08:07:00.000Z</time>
        <extensions>
          <ns3:TrackPointExtension>
            <ns3:hr>130</ns3:hr>
            <ns3:cad>81</ns3:cad>
          </ns3:TrackPointExtension>
        </extensions>
      </trkpt>
      <trkpt lat="44.67894184403121471405029296875" lon="6.77496618591248989105224609375">
        <ele>2007.4000244140625</ele>
        <time>2026-09-03T08:07:01.000Z</time>
        <extensions>
          <ns3:TrackPointExtension>
            <ns3:hr>130</ns3:hr>
            <ns3:cad>81</ns3:cad>
          </ns3:TrackPointExtension>
        </extensions>
      </trkpt>
      <trkpt lat="44.6789306960999965667724609375" lon="6.77496283315122127532958984375">
        <ele>2007</ele>
        <time>2026-09-03T08:07:02.000Z</time>
        <extensions>
          <ns3:TrackPointExtension>
            <ns3:hr>129</ns3:hr>
            <ns3:cad>81</ns3:cad>
          </ns3:TrackPointExtension>
        </extensions>
      </trkpt>
      <trkpt lat="44.67891745269298553466796875" lon="6.7749570496380329132080078125">
        <ele>2006.5999755859375</ele>
        <time>2026-09-03T08:07:03.000Z</time>
        <extensions>
          <ns3:TrackPointExtension>
            <ns3:hr>129</ns3:hr>
            <ns3:cad>81</ns3:cad>
          </ns3:TrackPointExtension>
        </extensions>
      </trkpt>
      <trkpt lat="44.678905047476291656494140625" lon="6.77495889365673065185546875">
        <ele>2006.199951171875</ele>
        <time>2026-09-03T08:07:04.000Z</time>
        <extensions>
          <ns3:TrackPointExtension>
            <ns3:hr>129</ns3:hr>
            <ns3:cad>81</ns3:cad>
          </ns3:TrackPointExtension>
        </extensions>
      </trkpt>
      <trkpt lat="44.67889222316443920135498046875" lon="6.77495830692350864410400390625">
        <ele>2005.800048828125</ele>
        <time>2026-09-03T08:07:05.000Z</time>
        <extensions>
          <ns3:TrackPointExtension>
            <ns3:hr>128</ns3:hr>
            <ns3:cad>81</ns3:cad>
          </ns3:TrackPointExtension>
        </extensions>
      </trkpt>
      <trkpt lat="44.67887931503355503082275390625" lon="6.774957887828350067138671875">
        <ele>2005.199951171875</ele>
        <time>2026-09-03T08:07:06.000Z</time>
        <extensions>
          <ns3:TrackPointExtension>
            <ns3:hr>128</ns3:hr>
            <ns3:cad>81</ns3:cad>
          </ns3:TrackPointExtension>
        </extensions>
      </trkpt>
      <trkpt lat="44.67886724509298801422119140625" lon="6.77496216259896755218505859375">
        <ele>2004.800048828125</ele>
        <time>2026-09-03T08:07:07.000Z</time>
        <extensions>
          <ns3:TrackPointExtension>
            <ns3:hr>127</ns3:hr>
            <ns3:cad>81</ns3:cad>
          </ns3:TrackPointExtension>
        </extensions>
      </trkpt>
      <trkpt lat="44.67885634861886501312255859375" lon="6.774972975254058837890625">
        <ele>2004.4000244140625</ele>
        <time>2026-09-03T08:07:08.000Z</time>
        <extensions>
          <ns3:TrackPointExtension>
            <ns3:hr>126</ns3:hr>
            <ns3:cad>81</ns3:cad>
          </ns3:TrackPointExtension>
        </extensions>
      </trkpt>
      <trkpt lat="44.67883807606995105743408203125" lon="6.77497356198728084564208984375">
        <ele>2003.800048828125</ele>
        <time>2026-09-03T08:07:09.000Z</time>
        <extensions>
          <ns3:TrackPointExtension>
            <ns3:hr>126</ns3:hr>
            <ns3:cad>87</ns3:cad>
          </ns3:TrackPointExtension>
        </extensions>
      </trkpt>
      <trkpt lat="44.67881728895008563995361328125" lon="6.774976663291454315185546875">
        <ele>2003.4000244140625</ele>
        <time>2026-09-03T08:07:10.000Z</time>
        <extensions>
          <ns3:TrackPointExtension>
            <ns3:hr>125</ns3:hr>
            <ns3:cad>87</ns3:cad>
          </ns3:TrackPointExtension>
        </extensions>
      </trkpt>
      <trkpt lat="44.67879918403923511505126953125" lon="6.77498429082334041595458984375">
        <ele>2002.800048828125</ele>
        <time>2026-09-03T08:07:11.000Z</time>
        <extensions>
          <ns3:TrackPointExtension>
            <ns3:hr>125</ns3:hr>
            <ns3:cad>87</ns3:cad>
          </ns3:TrackPointExtension>
        </extensions>
      </trkpt>
      <trkpt lat="44.67878174968063831329345703125" lon="6.77498546428978443145751953125">
        <ele>2002.199951171875</ele>
        <time>2026-09-03T08:07:12.000Z</time>
        <extensions>
          <ns3:TrackPointExtension>
            <ns3:hr>125</ns3:hr>
            <ns3:cad>87</ns3:cad>
          </ns3:TrackPointExtension>
        </extensions>
      </trkpt>
      <trkpt lat="44.67876113019883632659912109375" lon="6.7749912478029727935791015625">
        <ele>2001.5999755859375</ele>
        <time>2026-09-03T08:07:13.000Z</time>
        <extensions>
          <ns3:TrackPointExtension>
            <ns3:hr>125</ns3:hr>
            <ns3:cad>86</ns3:cad>
          </ns3:TrackPointExtension>
        </extensions>
      </trkpt>
      <trkpt lat="44.6787343919277191162109375" lon="6.775001473724842071533203125">
        <ele>2001.4000244140625</ele>
        <time>2026-09-03T08:07:14.000Z</time>
        <extensions>
          <ns3:TrackPointExtension>
            <ns3:hr>126</ns3:hr>
            <ns3:cad>86</ns3:cad>
          </ns3:TrackPointExtension>
        </extensions>
      </trkpt>
      <trkpt lat="44.6787164546549320220947265625" lon="6.775007508695125579833984375">
        <ele>2001</ele>
        <time>2026-09-03T08:07:15.000Z</time>
        <extensions>
          <ns3:TrackPointExtension>
            <ns3:hr>127</ns3:hr>
            <ns3:cad>86</ns3:cad>
          </ns3:TrackPointExtension>
        </extensions>
      </trkpt>
      <trkpt lat="44.67869893647730350494384765625" lon="6.77500574849545955657958984375">
        <ele>2001</ele>
        <time>2026-09-03T08:07:16.000Z</time>
        <extensions>
          <ns3:TrackPointExtension>
            <ns3:hr>128</ns3:hr>
            <ns3:cad>86</ns3:cad>
          </ns3:TrackPointExtension>
        </extensions>
      </trkpt>
      <trkpt lat="44.6786807477474212646484375" lon="6.77500273101031780242919921875">
        <ele>2000.800048828125</ele>
        <time>2026-09-03T08:07:17.000Z</time>
        <extensions>
          <ns3:TrackPointExtension>
            <ns3:hr>132</ns3:hr>
            <ns3:cad>83</ns3:cad>
          </ns3:TrackPointExtension>
        </extensions>
      </trkpt>
      <trkpt lat="44.6786614693701267242431640625" lon="6.77500105462968349456787109375">
        <ele>2000.4000244140625</ele>
        <time>2026-09-03T08:07:18.000Z</time>
        <extensions>
          <ns3:TrackPointExtension>
            <ns3:hr>132</ns3:hr>
            <ns3:cad>82</ns3:cad>
          </ns3:TrackPointExtension>
        </extensions>
      </trkpt>
      <trkpt lat="44.6786406822502613067626953125" lon="6.7749959416687488555908203125">
        <ele>2000.199951171875</ele>
        <time>2026-09-03T08:07:19.000Z</time>
        <extensions>
          <ns3:TrackPointExtension>
            <ns3:hr>133</ns3:hr>
            <ns3:cad>82</ns3:cad>
          </ns3:TrackPointExtension>
        </extensions>
      </trkpt>
      <trkpt lat="44.67862517572939395904541015625" lon="6.77499552257359027862548828125">
        <ele>1999.800048828125</ele>
        <time>2026-09-03T08:07:20.000Z</time>
        <extensions>
          <ns3:TrackPointExtension>
            <ns3:hr>132</ns3:hr>
            <ns3:cad>82</ns3:cad>
          </ns3:TrackPointExtension>
        </extensions>
      </trkpt>
      <trkpt lat="44.6786048077046871185302734375" lon="6.77498512901365756988525390625">
        <ele>1999.5999755859375</ele>
        <time>2026-09-03T08:07:21.000Z</time>
        <extensions>
          <ns3:TrackPointExtension>
            <ns3:hr>132</ns3:hr>
            <ns3:cad>84</ns3:cad>
          </ns3:TrackPointExtension>
        </extensions>
      </trkpt>
      <trkpt lat="44.6785860322415828704833984375" lon="6.77497389726340770721435546875">
        <ele>1999.199951171875</ele>
        <time>2026-09-03T08:07:22.000Z</time>
        <extensions>
          <ns3:TrackPointExtension>
            <ns3:hr>132</ns3:hr>
            <ns3:cad>84</ns3:cad>
          </ns3:TrackPointExtension>
        </extensions>
      </trkpt>
      <trkpt lat="44.6785639040172100067138671875" lon="6.77495797164738178253173828125">
        <ele>1999</ele>
        <time>2026-09-03T08:07:23.000Z</time>
        <extensions>
          <ns3:TrackPointExtension>
            <ns3:hr>132</ns3:hr>
            <ns3:cad>84</ns3:cad>
          </ns3:TrackPointExtension>
        </extensions>
      </trkpt>
      <trkpt lat="44.67855057679116725921630859375" lon="6.77494556643068790435791015625">
        <ele>1998.800048828125</ele>
        <time>2026-09-03T08:07:24.000Z</time>
        <extensions>
          <ns3:TrackPointExtension>
            <ns3:hr>132</ns3:hr>
            <ns3:cad>83</ns3:cad>
          </ns3:TrackPointExtension>
        </extensions>
      </trkpt>
      <trkpt lat="44.67854118905961513519287109375" lon="6.77493466995656490325927734375">
        <ele>1998.4000244140625</ele>
        <time>2026-09-03T08:07:25.000Z</time>
        <extensions>
          <ns3:TrackPointExtension>
            <ns3:hr>131</ns3:hr>
            <ns3:cad>83</ns3:cad>
          </ns3:TrackPointExtension>
        </extensions>
      </trkpt>
      <trkpt lat="44.678532890975475311279296875" lon="6.7749208398163318634033203125">
        <ele>1998</ele>
        <time>2026-09-03T08:07:26.000Z</time>
        <extensions>
          <ns3:TrackPointExtension>
            <ns3:hr>131</ns3:hr>
            <ns3:cad>82</ns3:cad>
          </ns3:TrackPointExtension>
        </extensions>
      </trkpt>
      <trkpt lat="44.67852073721587657928466796875" lon="6.77490935660898685455322265625">
        <ele>1997.800048828125</ele>
        <time>2026-09-03T08:07:27.000Z</time>
        <extensions>
          <ns3:TrackPointExtension>
            <ns3:hr>131</ns3:hr>
            <ns3:cad>82</ns3:cad>
          </ns3:TrackPointExtension>
        </extensions>
      </trkpt>
      <trkpt lat="44.67851218767464160919189453125" lon="6.77489393390715122222900390625">
        <ele>1997.4000244140625</ele>
        <time>2026-09-03T08:07:28.000Z</time>
        <extensions>
          <ns3:TrackPointExtension>
            <ns3:hr>130</ns3:hr>
            <ns3:cad>83</ns3:cad>
          </ns3:TrackPointExtension>
        </extensions>
      </trkpt>
      <trkpt lat="44.6785109303891658782958984375" lon="6.7748836241662502288818359375">
        <ele>1997.199951171875</ele>
        <time>2026-09-03T08:07:29.000Z</time>
        <extensions>
          <ns3:TrackPointExtension>
            <ns3:hr>130</ns3:hr>
            <ns3:cad>83</ns3:cad>
          </ns3:TrackPointExtension>
        </extensions>
      </trkpt>
      <trkpt lat="44.6785117685794830322265625" lon="6.7748916707932949066162109375">
        <ele>1997</ele>
        <time>2026-09-03T08:07:30.000Z</time>
        <extensions>
          <ns3:TrackPointExtension>
            <ns3:hr>130</ns3:hr>
            <ns3:cad>83</ns3:cad>
          </ns3:TrackPointExtension>
        </extensions>
      </trkpt>
      <trkpt lat="44.67852341942489147186279296875" lon="6.7748956941068172454833984375">
        <ele>1996.5999755859375</ele>
        <time>2026-09-03T08:07:31.000Z</time>
        <extensions>
          <ns3:TrackPointExtension>
            <ns3:hr>129</ns3:hr>
            <ns3:cad>83</ns3:cad>
          </ns3:TrackPointExtension>
        </extensions>
      </trkpt>
      <trkpt lat="44.6785317175090312957763671875" lon="6.774897538125514984130859375">
        <ele>1996.199951171875</ele>
        <time>2026-09-03T08:07:32.000Z</time>
        <extensions>
          <ns3:TrackPointExtension>
            <ns3:hr>129</ns3:hr>
            <ns3:cad>83</ns3:cad>
          </ns3:TrackPointExtension>
        </extensions>
      </trkpt>
      <trkpt lat="44.67854789458215236663818359375" lon="6.77490466274321079254150390625">
        <ele>1995.800048828125</ele>
        <time>2026-09-03T08:07:33.000Z</time>
        <extensions>
          <ns3:TrackPointExtension>
            <ns3:hr>128</ns3:hr>
            <ns3:cad>83</ns3:cad>
          </ns3:TrackPointExtension>
        </extensions>
      </trkpt>
      <trkpt lat="44.6785588748753070831298828125" lon="6.77490751259028911590576171875">
        <ele>1995.4000244140625</ele>
        <time>2026-09-03T08:07:34.000Z</time>
        <extensions>
          <ns3:TrackPointExtension>
            <ns3:hr>127</ns3:hr>
            <ns3:cad>83</ns3:cad>
          </ns3:TrackPointExtension>
        </extensions>
      </trkpt>
      <trkpt lat="44.6785729564726352691650390625" lon="6.77490332163870334625244140625">
        <ele>1995</ele>
        <time>2026-09-03T08:07:35.000Z</time>
        <extensions>
          <ns3:TrackPointExtension>
            <ns3:hr>126</ns3:hr>
            <ns3:cad>81</ns3:cad>
          </ns3:TrackPointExtension>
        </extensions>
      </trkpt>
      <trkpt lat="44.67858846299350261688232421875" lon="6.77489452064037322998046875">
        <ele>1994.4000244140625</ele>
        <time>2026-09-03T08:07:36.000Z</time>
        <extensions>
          <ns3:TrackPointExtension>
            <ns3:hr>125</ns3:hr>
            <ns3:cad>81</ns3:cad>
          </ns3:TrackPointExtension>
        </extensions>
      </trkpt>
      <trkpt lat="44.67860338278114795684814453125" lon="6.774881444871425628662109375">
        <ele>1994</ele>
        <time>2026-09-03T08:07:37.000Z</time>
        <extensions>
          <ns3:TrackPointExtension>
            <ns3:hr>125</ns3:hr>
            <ns3:cad>84</ns3:cad>
          </ns3:TrackPointExtension>
        </extensions>
      </trkpt>
      <trkpt lat="44.678622074425220489501953125" lon="6.7748732306063175201416015625">
        <ele>1993.5999755859375</ele>
        <time>2026-09-03T08:07:38.000Z</time>
        <extensions>
          <ns3:TrackPointExtension>
            <ns3:hr>125</ns3:hr>
            <ns3:cad>85</ns3:cad>
          </ns3:TrackPointExtension>
        </extensions>
      </trkpt>
      <trkpt lat="44.678636826574802398681640625" lon="6.77486208267509937286376953125">
        <ele>1993.199951171875</ele>
        <time>2026-09-03T08:07:39.000Z</time>
        <extensions>
          <ns3:TrackPointExtension>
            <ns3:hr>124</ns3:hr>
            <ns3:cad>86</ns3:cad>
          </ns3:TrackPointExtension>
        </extensions>
      </trkpt>
      <trkpt lat="44.67864294536411762237548828125" lon="6.774858646094799041748046875">
        <ele>1992.800048828125</ele>
        <time>2026-09-03T08:07:40.000Z</time>
        <extensions>
          <ns3:TrackPointExtension>
            <ns3:hr>124</ns3:hr>
            <ns3:cad>86</ns3:cad>
          </ns3:TrackPointExtension>
        </extensions>
      </trkpt>
      <trkpt lat="44.678647220134735107421875" lon="6.77484984509646892547607421875">
        <ele>1992.5999755859375</ele>
        <time>2026-09-03T08:07:41.000Z</time>
        <extensions>
          <ns3:TrackPointExtension>
            <ns3:hr>124</ns3:hr>
            <ns3:cad>86</ns3:cad>
          </ns3:TrackPointExtension>
        </extensions>
      </trkpt>
      <trkpt lat="44.6786504052579402923583984375" lon="6.77484297193586826324462890625">
        <ele>1992.199951171875</ele>
        <time>2026-09-03T08:07:42.000Z</time>
        <extensions>
          <ns3:TrackPointExtension>
            <ns3:hr>124</ns3:hr>
            <ns3:cad>83</ns3:cad>
          </ns3:TrackPointExtension>
        </extensions>
      </trkpt>
      <trkpt lat="44.67865484766662120819091796875" lon="6.77483459003269672393798828125">
        <ele>1991.800048828125</ele>
        <time>2026-09-03T08:07:43.000Z</time>
        <extensions>
          <ns3:TrackPointExtension>
            <ns3:hr>124</ns3:hr>
            <ns3:cad>0</ns3:cad>
          </ns3:TrackPointExtension>
        </extensions>
      </trkpt>
      <trkpt lat="44.6786547638475894927978515625" lon="6.77483693696558475494384765625">
        <ele>1991.5999755859375</ele>
        <time>2026-09-03T08:07:44.000Z</time>
        <extensions>
          <ns3:TrackPointExtension>
            <ns3:hr>123</ns3:hr>
            <ns3:cad>0</ns3:cad>
          </ns3:TrackPointExtension>
        </extensions>
      </trkpt>
      <trkpt lat="44.6786458790302276611328125" lon="6.7748346738517284393310546875">
        <ele>1991.199951171875</ele>
        <time>2026-09-03T08:07:45.000Z</time>
        <extensions>
          <ns3:TrackPointExtension>
            <ns3:hr>122</ns3:hr>
            <ns3:cad>0</ns3:cad>
          </ns3:TrackPointExtension>
        </extensions>
      </trkpt>
      <trkpt lat="44.67863045632839202880859375" lon="6.774833500385284423828125">
        <ele>1991</ele>
        <time>2026-09-03T08:07:46.000Z</time>
        <extensions>
          <ns3:TrackPointExtension>
            <ns3:hr>123</ns3:hr>
            <ns3:cad>0</ns3:cad>
          </ns3:TrackPointExtension>
        </extensions>
      </trkpt>
      <trkpt lat="44.67861796729266643524169921875" lon="6.77483291365206241607666015625">
        <ele>1990.800048828125</ele>
        <time>2026-09-03T08:07:47.000Z</time>
        <extensions>
          <ns3:TrackPointExtension>
            <ns3:hr>125</ns3:hr>
            <ns3:cad>0</ns3:cad>
          </ns3:TrackPointExtension>
        </extensions>
      </trkpt>
      <trkpt lat="44.67860254459083080291748046875" lon="6.77483123727142810821533203125">
        <ele>1990.4000244140625</ele>
        <time>2026-09-03T08:07:48.000Z</time>
        <extensions>
          <ns3:TrackPointExtension>
            <ns3:hr>126</ns3:hr>
            <ns3:cad>0</ns3:cad>
          </ns3:TrackPointExtension>
        </extensions>
      </trkpt>
      <trkpt lat="44.67858779244124889373779296875" lon="6.77482352592051029205322265625">
        <ele>1990</ele>
        <time>2026-09-03T08:07:49.000Z</time>
        <extensions>
          <ns3:TrackPointExtension>
            <ns3:hr>126</ns3:hr>
            <ns3:cad>0</ns3:cad>
          </ns3:TrackPointExtension>
        </extensions>
      </trkpt>
      <trkpt lat="44.6785732917487621307373046875" lon="6.77481531165540218353271484375">
        <ele>1989.4000244140625</ele>
        <time>2026-09-03T08:07:50.000Z</time>
        <extensions>
          <ns3:TrackPointExtension>
            <ns3:hr>125</ns3:hr>
            <ns3:cad>0</ns3:cad>
          </ns3:TrackPointExtension>
        </extensions>
      </trkpt>
      <trkpt lat="44.67855912633240222930908203125" lon="6.774804331362247467041015625">
        <ele>1988.800048828125</ele>
        <time>2026-09-03T08:07:51.000Z</time>
        <extensions>
          <ns3:TrackPointExtension>
            <ns3:hr>124</ns3:hr>
            <ns3:cad>83</ns3:cad>
          </ns3:TrackPointExtension>
        </extensions>
      </trkpt>
      <trkpt lat="44.678542949259281158447265625" lon="6.77479326725006103515625">
        <ele>1988.4000244140625</ele>
        <time>2026-09-03T08:07:52.000Z</time>
        <extensions>
          <ns3:TrackPointExtension>
            <ns3:hr>124</ns3:hr>
            <ns3:cad>83</ns3:cad>
          </ns3:TrackPointExtension>
        </extensions>
      </trkpt>
      <trkpt lat="44.67852844856679439544677734375" lon="6.77477943710982799530029296875">
        <ele>1988</ele>
        <time>2026-09-03T08:07:53.000Z</time>
        <extensions>
          <ns3:TrackPointExtension>
            <ns3:hr>124</ns3:hr>
            <ns3:cad>83</ns3:cad>
          </ns3:TrackPointExtension>
        </extensions>
      </trkpt>
      <trkpt lat="44.678509421646595001220703125" lon="6.774754039943218231201171875">
        <ele>1987.5999755859375</ele>
        <time>2026-09-03T08:07:54.000Z</time>
        <extensions>
          <ns3:TrackPointExtension>
            <ns3:hr>124</ns3:hr>
            <ns3:cad>83</ns3:cad>
          </ns3:TrackPointExtension>
        </extensions>
      </trkpt>
      <trkpt lat="44.67849693261086940765380859375" lon="6.7747357673943042755126953125">
        <ele>1987.199951171875</ele>
        <time>2026-09-03T08:07:55.000Z</time>
        <extensions>
          <ns3:TrackPointExtension>
            <ns3:hr>124</ns3:hr>
            <ns3:cad>83</ns3:cad>
          </ns3:TrackPointExtension>
        </extensions>
      </trkpt>
      <trkpt lat="44.67848385684192180633544921875" lon="6.77471539936959743499755859375">
        <ele>1987</ele>
        <time>2026-09-03T08:07:56.000Z</time>
        <extensions>
          <ns3:TrackPointExtension>
            <ns3:hr>123</ns3:hr>
            <ns3:cad>83</ns3:cad>
          </ns3:TrackPointExtension>
        </extensions>
      </trkpt>
      <trkpt lat="44.67847933061420917510986328125" lon="6.7746931873261928558349609375">
        <ele>1986.5999755859375</ele>
        <time>2026-09-03T08:07:57.000Z</time>
        <extensions>
          <ns3:TrackPointExtension>
            <ns3:hr>123</ns3:hr>
            <ns3:cad>83</ns3:cad>
          </ns3:TrackPointExtension>
        </extensions>
      </trkpt>
      <trkpt lat="44.67848570086061954498291015625" lon="6.774688325822353363037109375">
        <ele>1986.199951171875</ele>
        <time>2026-09-03T08:07:58.000Z</time>
        <extensions>
          <ns3:TrackPointExtension>
            <ns3:hr>123</ns3:hr>
            <ns3:cad>83</ns3:cad>
          </ns3:TrackPointExtension>
        </extensions>
      </trkpt>
      <trkpt lat="44.67849307693541049957275390625" lon="6.7746972106397151947021484375">
        <ele>1986</ele>
        <time>2026-09-03T08:07:59.000Z</time>
        <extensions>
          <ns3:TrackPointExtension>
            <ns3:hr>123</ns3:hr>
            <ns3:cad>83</ns3:cad>
          </ns3:TrackPointExtension>
        </extensions>
      </trkpt>
      <trkpt lat="44.6785092540085315704345703125" lon="6.7747193388640880584716796875">
        <ele>1985.5999755859375</ele>
        <time>2026-09-03T08:08:00.000Z</time>
        <extensions>
          <ns3:TrackPointExtension>
            <ns3:hr>123</ns3:hr>
            <ns3:cad>83</ns3:cad>
          </ns3:TrackPointExtension>
        </extensions>
      </trkpt>
      <trkpt lat="44.67852375470101833343505859375" lon="6.77473551593720912933349609375">
        <ele>1985.199951171875</ele>
        <time>2026-09-03T08:08:01.000Z</time>
        <extensions>
          <ns3:TrackPointExtension>
            <ns3:hr>123</ns3:hr>
            <ns3:cad>83</ns3:cad>
          </ns3:TrackPointExtension>
        </extensions>
      </trkpt>
      <trkpt lat="44.67854303307831287384033203125" lon="6.774748004972934722900390625">
        <ele>1985</ele>
        <time>2026-09-03T08:08:02.000Z</time>
        <extensions>
          <ns3:TrackPointExtension>
            <ns3:hr>122</ns3:hr>
            <ns3:cad>83</ns3:cad>
          </ns3:TrackPointExtension>
        </extensions>
      </trkpt>
      <trkpt lat="44.67855870723724365234375" lon="6.774754710495471954345703125">
        <ele>1984.5999755859375</ele>
        <time>2026-09-03T08:08:03.000Z</time>
        <extensions>
          <ns3:TrackPointExtension>
            <ns3:hr>122</ns3:hr>
            <ns3:cad>83</ns3:cad>
          </ns3:TrackPointExtension>
        </extensions>
      </trkpt>
      <trkpt lat="44.67856700532138347625732421875" lon="6.774758398532867431640625">
        <ele>1984.199951171875</ele>
        <time>2026-09-03T08:08:04.000Z</time>
        <extensions>
          <ns3:TrackPointExtension>
            <ns3:hr>122</ns3:hr>
            <ns3:cad>83</ns3:cad>
          </ns3:TrackPointExtension>
        </extensions>
      </trkpt>
      <trkpt lat="44.67856298200786113739013671875" lon="6.77474993281066417694091796875">
        <ele>1984</ele>
        <time>2026-09-03T08:08:05.000Z</time>
        <extensions>
          <ns3:TrackPointExtension>
            <ns3:hr>121</ns3:hr>
            <ns3:cad>86</ns3:cad>
          </ns3:TrackPointExtension>
        </extensions>
      </trkpt>
      <trkpt lat="44.6785533428192138671875" lon="6.7747263796627521514892578125">
        <ele>1983.5999755859375</ele>
        <time>2026-09-03T08:08:06.000Z</time>
        <extensions>
          <ns3:TrackPointExtension>
            <ns3:hr>121</ns3:hr>
            <ns3:cad>86</ns3:cad>
          </ns3:TrackPointExtension>
        </extensions>
      </trkpt>
      <trkpt lat="44.6785431168973445892333984375" lon="6.77471439354121685028076171875">
        <ele>1983.199951171875</ele>
        <time>2026-09-03T08:08:07.000Z</time>
        <extensions>
          <ns3:TrackPointExtension>
            <ns3:hr>121</ns3:hr>
            <ns3:cad>83</ns3:cad>
          </ns3:TrackPointExtension>
        </extensions>
      </trkpt>
      <trkpt lat="44.67853331007063388824462890625" lon="6.77470131777226924896240234375">
        <ele>1982.5999755859375</ele>
        <time>2026-09-03T08:08:08.000Z</time>
        <extensions>
          <ns3:TrackPointExtension>
            <ns3:hr>121</ns3:hr>
            <ns3:cad>83</ns3:cad>
          </ns3:TrackPointExtension>
        </extensions>
      </trkpt>
      <trkpt lat="44.67852107249200344085693359375" lon="6.7746837995946407318115234375">
        <ele>1982.199951171875</ele>
        <time>2026-09-03T08:08:09.000Z</time>
        <extensions>
          <ns3:TrackPointExtension>
            <ns3:hr>120</ns3:hr>
            <ns3:cad>86</ns3:cad>
          </ns3:TrackPointExtension>
        </extensions>
      </trkpt>
      <trkpt lat="44.67850849963724613189697265625" lon="6.77466829307377338409423828125">
        <ele>1981.5999755859375</ele>
        <time>2026-09-03T08:08:10.000Z</time>
        <extensions>
          <ns3:TrackPointExtension>
            <ns3:hr>120</ns3:hr>
            <ns3:cad>86</ns3:cad>
          </ns3:TrackPointExtension>
        </extensions>
      </trkpt>
      <trkpt lat="44.6785048954188823699951171875" lon="6.77466091699898242950439453125">
        <ele>1981.199951171875</ele>
        <time>2026-09-03T08:08:11.000Z</time>
        <extensions>
          <ns3:TrackPointExtension>
            <ns3:hr>120</ns3:hr>
            <ns3:cad>86</ns3:cad>
          </ns3:TrackPointExtension>
        </extensions>
      </trkpt>
      <trkpt lat="44.678504057228565216064453125" lon="6.7746522836387157440185546875">
        <ele>1981</ele>
        <time>2026-09-03T08:08:12.000Z</time>
        <extensions>
          <ns3:TrackPointExtension>
            <ns3:hr>119</ns3:hr>
            <ns3:cad>78</ns3:cad>
          </ns3:TrackPointExtension>
        </extensions>
      </trkpt>
      <trkpt lat="44.67849710024893283843994140625" lon="6.7746371962130069732666015625">
        <ele>1980.5999755859375</ele>
        <time>2026-09-03T08:08:13.000Z</time>
        <extensions>
          <ns3:TrackPointExtension>
            <ns3:hr>119</ns3:hr>
            <ns3:cad>71</ns3:cad>
          </ns3:TrackPointExtension>
        </extensions>
      </trkpt>
      <trkpt lat="44.67848938889801502227783203125" lon="6.77462655119597911834716796875">
        <ele>1980.4000244140625</ele>
        <time>2026-09-03T08:08:14.000Z</time>
        <extensions>
          <ns3:TrackPointExtension>
            <ns3:hr>118</ns3:hr>
            <ns3:cad>71</ns3:cad>
          </ns3:TrackPointExtension>
        </extensions>
      </trkpt>
      <trkpt lat="44.678478576242923736572265625" lon="6.77460626699030399322509765625">
        <ele>1980</ele>
        <time>2026-09-03T08:08:15.000Z</time>
        <extensions>
          <ns3:TrackPointExtension>
            <ns3:hr>117</ns3:hr>
            <ns3:cad>71</ns3:cad>
          </ns3:TrackPointExtension>
        </extensions>
      </trkpt>
      <trkpt lat="44.6784903109073638916015625" lon="6.77460107021033763885498046875">
        <ele>1979.5999755859375</ele>
        <time>2026-09-03T08:08:16.000Z</time>
        <extensions>
          <ns3:TrackPointExtension>
            <ns3:hr>116</ns3:hr>
            <ns3:cad>85</ns3:cad>
          </ns3:TrackPointExtension>
        </extensions>
      </trkpt>
      <trkpt lat="44.6785035543143749237060546875" lon="6.77460693754255771636962890625">
        <ele>1979.4000244140625</ele>
        <time>2026-09-03T08:08:17.000Z</time>
        <extensions>
          <ns3:TrackPointExtension>
            <ns3:hr>115</ns3:hr>
            <ns3:cad>85</ns3:cad>
          </ns3:TrackPointExtension>
        </extensions>
      </trkpt>
      <trkpt lat="44.67851034365594387054443359375" lon="6.77460609935224056243896484375">
        <ele>1979</ele>
        <time>2026-09-03T08:08:18.000Z</time>
        <extensions>
          <ns3:TrackPointExtension>
            <ns3:hr>115</ns3:hr>
            <ns3:cad>85</ns3:cad>
          </ns3:TrackPointExtension>
        </extensions>
      </trkpt>
      <trkpt lat="44.678524844348430633544921875" lon="6.77460827864706516265869140625">
        <ele>1978.800048828125</ele>
        <time>2026-09-03T08:08:19.000Z</time>
        <extensions>
          <ns3:TrackPointExtension>
            <ns3:hr>114</ns3:hr>
            <ns3:cad>85</ns3:cad>
          </ns3:TrackPointExtension>
        </extensions>
      </trkpt>
      <trkpt lat="44.6785400994122028350830078125" lon="6.77461020648479461669921875">
        <ele>1978.4000244140625</ele>
        <time>2026-09-03T08:08:20.000Z</time>
        <extensions>
          <ns3:TrackPointExtension>
            <ns3:hr>114</ns3:hr>
            <ns3:cad>85</ns3:cad>
          </ns3:TrackPointExtension>
        </extensions>
      </trkpt>
      <trkpt lat="44.67855007387697696685791015625" lon="6.77461481653153896331787109375">
        <ele>1978.199951171875</ele>
        <time>2026-09-03T08:08:21.000Z</time>
        <extensions>
          <ns3:TrackPointExtension>
            <ns3:hr>113</ns3:hr>
            <ns3:cad>85</ns3:cad>
          </ns3:TrackPointExtension>
        </extensions>
      </trkpt>
      <trkpt lat="44.67855376191437244415283203125" lon="6.77460350096225738525390625">
        <ele>1977.800048828125</ele>
        <time>2026-09-03T08:08:22.000Z</time>
        <extensions>
          <ns3:TrackPointExtension>
            <ns3:hr>112</ns3:hr>
            <ns3:cad>68</ns3:cad>
          </ns3:TrackPointExtension>
        </extensions>
      </trkpt>
      <trkpt lat="44.678547643125057220458984375" lon="6.774593777954578399658203125">
        <ele>1977.5999755859375</ele>
        <time>2026-09-03T08:08:23.000Z</time>
        <extensions>
          <ns3:TrackPointExtension>
            <ns3:hr>111</ns3:hr>
            <ns3:cad>68</ns3:cad>
          </ns3:TrackPointExtension>
        </extensions>
      </trkpt>
      <trkpt lat="44.6785400994122028350830078125" lon="6.77458045072853565216064453125">
        <ele>1977.199951171875</ele>
        <time>2026-09-03T08:08:24.000Z</time>
        <extensions>
          <ns3:TrackPointExtension>
            <ns3:hr>111</ns3:hr>
            <ns3:cad>68</ns3:cad>
          </ns3:TrackPointExtension>
        </extensions>
      </trkpt>
      <trkpt lat="44.67852090485394001007080078125" lon="6.77456787787377834320068359375">
        <ele>1976.800048828125</ele>
        <time>2026-09-03T08:08:25.000Z</time>
        <extensions>
          <ns3:TrackPointExtension>
            <ns3:hr>110</ns3:hr>
            <ns3:cad>68</ns3:cad>
          </ns3:TrackPointExtension>
        </extensions>
      </trkpt>
      <trkpt lat="44.678507745265960693359375" lon="6.77455396391451358795166015625">
        <ele>1976.199951171875</ele>
        <time>2026-09-03T08:08:26.000Z</time>
        <extensions>
          <ns3:TrackPointExtension>
            <ns3:hr>109</ns3:hr>
            <ns3:cad>68</ns3:cad>
          </ns3:TrackPointExtension>
        </extensions>
      </trkpt>
      <trkpt lat="44.67849433422088623046875" lon="6.774541474878787994384765625">
        <ele>1975.800048828125</ele>
        <time>2026-09-03T08:08:27.000Z</time>
        <extensions>
          <ns3:TrackPointExtension>
            <ns3:hr>109</ns3:hr>
            <ns3:cad>68</ns3:cad>
          </ns3:TrackPointExtension>
        </extensions>
      </trkpt>
      <trkpt lat="44.6784837730228900909423828125" lon="6.77452613599598407745361328125">
        <ele>1975.4000244140625</ele>
        <time>2026-09-03T08:08:28.000Z</time>
        <extensions>
          <ns3:TrackPointExtension>
            <ns3:hr>108</ns3:hr>
            <ns3:cad>68</ns3:cad>
          </ns3:TrackPointExtension>
        </extensions>
      </trkpt>
      <trkpt lat="44.67847220599651336669921875" lon="6.7745081149041652679443359375">
        <ele>1975</ele>
        <time>2026-09-03T08:08:29.000Z</time>
        <extensions>
          <ns3:TrackPointExtension>
            <ns3:hr>108</ns3:hr>
            <ns3:cad>68</ns3:cad>
          </ns3:TrackPointExtension>
        </extensions>
      </trkpt>
      <trkpt lat="44.6784626506268978118896484375" lon="6.774489171802997589111328125">
        <ele>1974.5999755859375</ele>
        <time>2026-09-03T08:08:30.000Z</time>
        <extensions>
          <ns3:TrackPointExtension>
            <ns3:hr>108</ns3:hr>
            <ns3:cad>68</ns3:cad>
          </ns3:TrackPointExtension>
        </extensions>
      </trkpt>
      <trkpt lat="44.6784505806863307952880859375" lon="6.774466373026371002197265625">
        <ele>1974.4000244140625</ele>
        <time>2026-09-03T08:08:31.000Z</time>
        <extensions>
          <ns3:TrackPointExtension>
            <ns3:hr>108</ns3:hr>
            <ns3:cad>83</ns3:cad>
          </ns3:TrackPointExtension>
        </extensions>
      </trkpt>
      <trkpt lat="44.67844127677381038665771484375" lon="6.77445170469582080841064453125">
        <ele>1974</ele>
        <time>2026-09-03T08:08:32.000Z</time>
        <extensions>
          <ns3:TrackPointExtension>
            <ns3:hr>108</ns3:hr>
            <ns3:cad>83</ns3:cad>
          </ns3:TrackPointExtension>
        </extensions>
      </trkpt>
      <trkpt lat="44.678427278995513916015625" lon="6.77443376742303371429443359375">
        <ele>1973.4000244140625</ele>
        <time>2026-09-03T08:08:33.000Z</time>
        <extensions>
          <ns3:TrackPointExtension>
            <ns3:hr>109</ns3:hr>
            <ns3:cad>83</ns3:cad>
          </ns3:TrackPointExtension>
        </extensions>
      </trkpt>
      <trkpt lat="44.67841898091137409210205078125" lon="6.7744182609021663665771484375">
        <ele>1973</ele>
        <time>2026-09-03T08:08:34.000Z</time>
        <extensions>
          <ns3:TrackPointExtension>
            <ns3:hr>109</ns3:hr>
            <ns3:cad>96</ns3:cad>
          </ns3:TrackPointExtension>
        </extensions>
      </trkpt>
      <trkpt lat="44.67840858735144138336181640625" lon="6.77440593950450420379638671875">
        <ele>1972.800048828125</ele>
        <time>2026-09-03T08:08:35.000Z</time>
        <extensions>
          <ns3:TrackPointExtension>
            <ns3:hr>109</ns3:hr>
            <ns3:cad>96</ns3:cad>
          </ns3:TrackPointExtension>
        </extensions>
      </trkpt>
      <trkpt lat="44.67839735560119152069091796875" lon="6.77438464947044849395751953125">
        <ele>1972.4000244140625</ele>
        <time>2026-09-03T08:08:36.000Z</time>
        <extensions>
          <ns3:TrackPointExtension>
            <ns3:hr>110</ns3:hr>
            <ns3:cad>83</ns3:cad>
          </ns3:TrackPointExtension>
        </extensions>
      </trkpt>
      <trkpt lat="44.67839031480252742767333984375" lon="6.77437090314924716949462890625">
        <ele>1972.199951171875</ele>
        <time>2026-09-03T08:08:37.000Z</time>
        <extensions>
          <ns3:TrackPointExtension>
            <ns3:hr>110</ns3:hr>
            <ns3:cad>83</ns3:cad>
          </ns3:TrackPointExtension>
        </extensions>
      </trkpt>
      <trkpt lat="44.67838394455611705780029296875" lon="6.77436553873121738433837890625">
        <ele>1971.800048828125</ele>
        <time>2026-09-03T08:08:38.000Z</time>
        <extensions>
          <ns3:TrackPointExtension>
            <ns3:hr>110</ns3:hr>
            <ns3:cad>83</ns3:cad>
          </ns3:TrackPointExtension>
        </extensions>
      </trkpt>
      <trkpt lat="44.67837254516780376434326171875" lon="6.7743542231619358062744140625">
        <ele>1971.5999755859375</ele>
        <time>2026-09-03T08:08:39.000Z</time>
        <extensions>
          <ns3:TrackPointExtension>
            <ns3:hr>109</ns3:hr>
            <ns3:cad>0</ns3:cad>
          </ns3:TrackPointExtension>
        </extensions>
      </trkpt>
      <trkpt lat="44.67836298979818820953369140625" lon="6.77435137331485748291015625">
        <ele>1971.199951171875</ele>
        <time>2026-09-03T08:08:40.000Z</time>
        <extensions>
          <ns3:TrackPointExtension>
            <ns3:hr>109</ns3:hr>
            <ns3:cad>0</ns3:cad>
          </ns3:TrackPointExtension>
        </extensions>
      </trkpt>
      <trkpt lat="44.6783503331243991851806640625" lon="6.77434508688747882843017578125">
        <ele>1971</ele>
        <time>2026-09-03T08:08:41.000Z</time>
        <extensions>
          <ns3:TrackPointExtension>
            <ns3:hr>108</ns3:hr>
            <ns3:cad>69</ns3:cad>
          </ns3:TrackPointExtension>
        </extensions>
      </trkpt>
      <trkpt lat="44.67834035865962505340576171875" lon="6.77433737553656101226806640625">
        <ele>1970.5999755859375</ele>
        <time>2026-09-03T08:08:42.000Z</time>
        <extensions>
          <ns3:TrackPointExtension>
            <ns3:hr>107</ns3:hr>
            <ns3:cad>69</ns3:cad>
          </ns3:TrackPointExtension>
        </extensions>
      </trkpt>
      <trkpt lat="44.6783375926315784454345703125" lon="6.77432497031986713409423828125">
        <ele>1970.4000244140625</ele>
        <time>2026-09-03T08:08:43.000Z</time>
        <extensions>
          <ns3:TrackPointExtension>
            <ns3:hr>107</ns3:hr>
            <ns3:cad>69</ns3:cad>
          </ns3:TrackPointExtension>
        </extensions>
      </trkpt>
      <trkpt lat="44.67834522016346454620361328125" lon="6.7743136547505855560302734375">
        <ele>1970</ele>
        <time>2026-09-03T08:08:44.000Z</time>
        <extensions>
          <ns3:TrackPointExtension>
            <ns3:hr>106</ns3:hr>
            <ns3:cad>69</ns3:cad>
          </ns3:TrackPointExtension>
        </extensions>
      </trkpt>
      <trkpt lat="44.67835955321788787841796875" lon="6.77430418320000171661376953125">
        <ele>1969.800048828125</ele>
        <time>2026-09-03T08:08:45.000Z</time>
        <extensions>
          <ns3:TrackPointExtension>
            <ns3:hr>105</ns3:hr>
            <ns3:cad>69</ns3:cad>
          </ns3:TrackPointExtension>
        </extensions>
      </trkpt>
      <trkpt lat="44.6783768199384212493896484375" lon="6.77430099807679653167724609375">
        <ele>1969.4000244140625</ele>
        <time>2026-09-03T08:08:46.000Z</time>
        <extensions>
          <ns3:TrackPointExtension>
            <ns3:hr>105</ns3:hr>
            <ns3:cad>69</ns3:cad>
          </ns3:TrackPointExtension>
        </extensions>
      </trkpt>
      <trkpt lat="44.6783919073641300201416015625" lon="6.7742930352687835693359375">
        <ele>1969</ele>
        <time>2026-09-03T08:08:47.000Z</time>
        <extensions>
          <ns3:TrackPointExtension>
            <ns3:hr>105</ns3:hr>
            <ns3:cad>69</ns3:cad>
          </ns3:TrackPointExtension>
        </extensions>
      </trkpt>
      <trkpt lat="44.6784043125808238983154296875" lon="6.7742878384888172149658203125">
        <ele>1968.5999755859375</ele>
        <time>2026-09-03T08:08:48.000Z</time>
        <extensions>
          <ns3:TrackPointExtension>
            <ns3:hr>105</ns3:hr>
            <ns3:cad>69</ns3:cad>
          </ns3:TrackPointExtension>
        </extensions>
      </trkpt>
      <trkpt lat="44.6784178912639617919921875" lon="6.774283982813358306884765625">
        <ele>1968</ele>
        <time>2026-09-03T08:08:49.000Z</time>
        <extensions>
          <ns3:TrackPointExtension>
            <ns3:hr>105</ns3:hr>
            <ns3:cad>69</ns3:cad>
          </ns3:TrackPointExtension>
        </extensions>
      </trkpt>
      <trkpt lat="44.678424932062625885009765625" lon="6.774288006126880645751953125">
        <ele>1967.800048828125</ele>
        <time>2026-09-03T08:08:50.000Z</time>
        <extensions>
          <ns3:TrackPointExtension>
            <ns3:hr>104</ns3:hr>
            <ns3:cad>69</ns3:cad>
          </ns3:TrackPointExtension>
        </extensions>
      </trkpt>
      <trkpt lat="44.67843775637447834014892578125" lon="6.77430854178965091705322265625">
        <ele>1967.4000244140625</ele>
        <time>2026-09-03T08:08:51.000Z</time>
        <extensions>
          <ns3:TrackPointExtension>
            <ns3:hr>103</ns3:hr>
            <ns3:cad>69</ns3:cad>
          </ns3:TrackPointExtension>
        </extensions>
      </trkpt>
      <trkpt lat="44.6784447133541107177734375" lon="6.7743243835866451263427734375">
        <ele>1967.199951171875</ele>
        <time>2026-09-03T08:08:52.000Z</time>
        <extensions>
          <ns3:TrackPointExtension>
            <ns3:hr>103</ns3:hr>
            <ns3:cad>69</ns3:cad>
          </ns3:TrackPointExtension>
        </extensions>
      </trkpt>
      <trkpt lat="44.67845552600920200347900390625" lon="6.77432916127145290374755859375">
        <ele>1967</ele>
        <time>2026-09-03T08:08:53.000Z</time>
        <extensions>
          <ns3:TrackPointExtension>
            <ns3:hr>102</ns3:hr>
            <ns3:cad>82</ns3:cad>
          </ns3:TrackPointExtension>
        </extensions>
      </trkpt>
      <trkpt lat="44.678467176854610443115234375" lon="6.77433553151786327362060546875">
        <ele>1966.800048828125</ele>
        <time>2026-09-03T08:08:54.000Z</time>
        <extensions>
          <ns3:TrackPointExtension>
            <ns3:hr>102</ns3:hr>
            <ns3:cad>82</ns3:cad>
          </ns3:TrackPointExtension>
        </extensions>
      </trkpt>
      <trkpt lat="44.67848972417414188385009765625" lon="6.77435271441936492919921875">
        <ele>1966.5999755859375</ele>
        <time>2026-09-03T08:08:55.000Z</time>
        <extensions>
          <ns3:TrackPointExtension>
            <ns3:hr>102</ns3:hr>
            <ns3:cad>82</ns3:cad>
          </ns3:TrackPointExtension>
        </extensions>
      </trkpt>
      <trkpt lat="44.67851034365594387054443359375" lon="6.77436880767345428466796875">
        <ele>1966.4000244140625</ele>
        <time>2026-09-03T08:08:56.000Z</time>
        <extensions>
          <ns3:TrackPointExtension>
            <ns3:hr>102</ns3:hr>
            <ns3:cad>82</ns3:cad>
          </ns3:TrackPointExtension>
        </extensions>
      </trkpt>
      <trkpt lat="44.67852476052939891815185546875" lon="6.77437911741435527801513671875">
        <ele>1966.199951171875</ele>
        <time>2026-09-03T08:08:57.000Z</time>
        <extensions>
          <ns3:TrackPointExtension>
            <ns3:hr>102</ns3:hr>
            <ns3:cad>79</ns3:cad>
          </ns3:TrackPointExtension>
        </extensions>
      </trkpt>
      <trkpt lat="44.67855040915310382843017578125" lon="6.77438892424106597900390625">
        <ele>1966</ele>
        <time>2026-09-03T08:08:58.000Z</time>
        <extensions>
          <ns3:TrackPointExtension>
            <ns3:hr>101</ns3:hr>
            <ns3:cad>79</ns3:cad>
          </ns3:TrackPointExtension>
        </extensions>
      </trkpt>
      <trkpt lat="44.6785672567784786224365234375" lon="6.77439789287745952606201171875">
        <ele>1965.5999755859375</ele>
        <time>2026-09-03T08:08:59.000Z</time>
        <extensions>
          <ns3:TrackPointExtension>
            <ns3:hr>101</ns3:hr>
            <ns3:cad>79</ns3:cad>
          </ns3:TrackPointExtension>
        </extensions>
      </trkpt>
      <trkpt lat="44.6785823442041873931884765625" lon="6.77440443076193332672119140625">
        <ele>1965.199951171875</ele>
        <time>2026-09-03T08:09:00.000Z</time>
        <extensions>
          <ns3:TrackPointExtension>
            <ns3:hr>101</ns3:hr>
            <ns3:cad>79</ns3:cad>
          </ns3:TrackPointExtension>
        </extensions>
      </trkpt>
      <trkpt lat="44.678595922887325286865234375" lon="6.774402670562267303466796875">
        <ele>1965</ele>
        <time>2026-09-03T08:09:01.000Z</time>
        <extensions>
          <ns3:TrackPointExtension>
            <ns3:hr>102</ns3:hr>
            <ns3:cad>79</ns3:cad>
          </ns3:TrackPointExtension>
        </extensions>
      </trkpt>
      <trkpt lat="44.6785977669060230255126953125" lon="6.774396635591983795166015625">
        <ele>1964.5999755859375</ele>
        <time>2026-09-03T08:09:02.000Z</time>
        <extensions>
          <ns3:TrackPointExtension>
            <ns3:hr>102</ns3:hr>
            <ns3:cad>79</ns3:cad>
          </ns3:TrackPointExtension>
        </extensions>
      </trkpt>
      <trkpt lat="44.67858712188899517059326171875" lon="6.77438599057495594024658203125">
        <ele>1964.199951171875</ele>
        <time>2026-09-03T08:09:03.000Z</time>
        <extensions>
          <ns3:TrackPointExtension>
            <ns3:hr>102</ns3:hr>
            <ns3:cad>79</ns3:cad>
          </ns3:TrackPointExtension>
        </extensions>
      </trkpt>
      <trkpt lat="44.67857873998582363128662109375" lon="6.7743743397295475006103515625">
        <ele>1964</ele>
        <time>2026-09-03T08:09:04.000Z</time>
        <extensions>
          <ns3:TrackPointExtension>
            <ns3:hr>101</ns3:hr>
            <ns3:cad>79</ns3:cad>
          </ns3:TrackPointExtension>
        </extensions>
      </trkpt>
      <trkpt lat="44.678566418588161468505859375" lon="6.7743574082851409912109375">
        <ele>1963.4000244140625</ele>
        <time>2026-09-03T08:09:05.000Z</time>
        <extensions>
          <ns3:TrackPointExtension>
            <ns3:hr>100</ns3:hr>
            <ns3:cad>79</ns3:cad>
          </ns3:TrackPointExtension>
        </extensions>
      </trkpt>
      <trkpt lat="44.6785551868379116058349609375" lon="6.77434709854423999786376953125">
        <ele>1962.800048828125</ele>
        <time>2026-09-03T08:09:06.000Z</time>
        <extensions>
          <ns3:TrackPointExtension>
            <ns3:hr>100</ns3:hr>
            <ns3:cad>79</ns3:cad>
          </ns3:TrackPointExtension>
        </extensions>
      </trkpt>
      <trkpt lat="44.67854328453540802001953125" lon="6.77432731725275516510009765625">
        <ele>1962.4000244140625</ele>
        <time>2026-09-03T08:09:07.000Z</time>
        <extensions>
          <ns3:TrackPointExtension>
            <ns3:hr>99</ns3:hr>
            <ns3:cad>75</ns3:cad>
          </ns3:TrackPointExtension>
        </extensions>
      </trkpt>
      <trkpt lat="44.67853364534676074981689453125" lon="6.7743079550564289093017578125">
        <ele>1962</ele>
        <time>2026-09-03T08:09:08.000Z</time>
        <extensions>
          <ns3:TrackPointExtension>
            <ns3:hr>98</ns3:hr>
            <ns3:cad>75</ns3:cad>
          </ns3:TrackPointExtension>
        </extensions>
      </trkpt>
      <trkpt lat="44.67852258123457431793212890625" lon="6.77428842522203922271728515625">
        <ele>1961.5999755859375</ele>
        <time>2026-09-03T08:09:09.000Z</time>
        <extensions>
          <ns3:TrackPointExtension>
            <ns3:hr>97</ns3:hr>
            <ns3:cad>81</ns3:cad>
          </ns3:TrackPointExtension>
        </extensions>
      </trkpt>
      <trkpt lat="44.67851202003657817840576171875" lon="6.77426881156861782073974609375">
        <ele>1961.199951171875</ele>
        <time>2026-09-03T08:09:10.000Z</time>
        <extensions>
          <ns3:TrackPointExtension>
            <ns3:hr>97</ns3:hr>
            <ns3:cad>82</ns3:cad>
          </ns3:TrackPointExtension>
        </extensions>
      </trkpt>
      <trkpt lat="44.6784988604485988616943359375" lon="6.77425305359065532684326171875">
        <ele>1961</ele>
        <time>2026-09-03T08:09:11.000Z</time>
        <extensions>
          <ns3:TrackPointExtension>
            <ns3:hr>97</ns3:hr>
            <ns3:cad>82</ns3:cad>
          </ns3:TrackPointExtension>
        </extensions>
      </trkpt>
      <trkpt lat="44.67848829925060272216796875" lon="6.7742378823459148406982421875">
        <ele>1960.5999755859375</ele>
        <time>2026-09-03T08:09:12.000Z</time>
        <extensions>
          <ns3:TrackPointExtension>
            <ns3:hr>97</ns3:hr>
            <ns3:cad>82</ns3:cad>
          </ns3:TrackPointExtension>
        </extensions>
      </trkpt>
      <trkpt lat="44.678471200168132781982421875" lon="6.7742170952260494232177734375">
        <ele>1960.199951171875</ele>
        <time>2026-09-03T08:09:13.000Z</time>
        <extensions>
          <ns3:TrackPointExtension>
            <ns3:hr>98</ns3:hr>
            <ns3:cad>82</ns3:cad>
          </ns3:TrackPointExtension>
        </extensions>
      </trkpt>
      <trkpt lat="44.67845535837113857269287109375" lon="6.77420192398130893707275390625">
        <ele>1959.800048828125</ele>
        <time>2026-09-03T08:09:14.000Z</time>
        <extensions>
          <ns3:TrackPointExtension>
            <ns3:hr>98</ns3:hr>
            <ns3:cad>83</ns3:cad>
          </ns3:TrackPointExtension>
        </extensions>
      </trkpt>
      <trkpt lat="44.6784358285367488861083984375" lon="6.77417946048080921173095703125">
        <ele>1959.4000244140625</ele>
        <time>2026-09-03T08:09:15.000Z</time>
        <extensions>
          <ns3:TrackPointExtension>
            <ns3:hr>98</ns3:hr>
            <ns3:cad>84</ns3:cad>
          </ns3:TrackPointExtension>
        </extensions>
      </trkpt>
      <trkpt lat="44.6784143708646297454833984375" lon="6.77415582351386547088623046875">
        <ele>1959</ele>
        <time>2026-09-03T08:09:16.000Z</time>
        <extensions>
          <ns3:TrackPointExtension>
            <ns3:hr>98</ns3:hr>
            <ns3:cad>84</ns3:cad>
          </ns3:TrackPointExtension>
        </extensions>
      </trkpt>
      <trkpt lat="44.67839802615344524383544921875" lon="6.7741346172988414764404296875">
        <ele>1958.5999755859375</ele>
        <time>2026-09-03T08:09:17.000Z</time>
        <extensions>
          <ns3:TrackPointExtension>
            <ns3:hr>99</ns3:hr>
            <ns3:cad>84</ns3:cad>
          </ns3:TrackPointExtension>
        </extensions>
      </trkpt>
      <trkpt lat="44.678381346166133880615234375" lon="6.77411559037864208221435546875">
        <ele>1958.4000244140625</ele>
        <time>2026-09-03T08:09:18.000Z</time>
        <extensions>
          <ns3:TrackPointExtension>
            <ns3:hr>99</ns3:hr>
            <ns3:cad>82</ns3:cad>
          </ns3:TrackPointExtension>
        </extensions>
      </trkpt>
      <trkpt lat="44.6783620677888393402099609375" lon="6.7741000838577747344970703125">
        <ele>1958</ele>
        <time>2026-09-03T08:09:19.000Z</time>
        <extensions>
          <ns3:TrackPointExtension>
            <ns3:hr>99</ns3:hr>
            <ns3:cad>82</ns3:cad>
          </ns3:TrackPointExtension>
        </extensions>
      </trkpt>
      <trkpt lat="44.67835678718984127044677734375" lon="6.7740784585475921630859375">
        <ele>1957.800048828125</ele>
        <time>2026-09-03T08:09:20.000Z</time>
        <extensions>
          <ns3:TrackPointExtension>
            <ns3:hr>100</ns3:hr>
            <ns3:cad>82</ns3:cad>
          </ns3:TrackPointExtension>
        </extensions>
      </trkpt>
      <trkpt lat="44.6783546917140483856201171875" lon="6.77406647242605686187744140625">
        <ele>1957.5999755859375</ele>
        <time>2026-09-03T08:09:21.000Z</time>
        <extensions>
          <ns3:TrackPointExtension>
            <ns3:hr>100</ns3:hr>
            <ns3:cad>81</ns3:cad>
          </ns3:TrackPointExtension>
        </extensions>
      </trkpt>
      <trkpt lat="44.67835779301822185516357421875" lon="6.77405339665710926055908203125">
        <ele>1957.199951171875</ele>
        <time>2026-09-03T08:09:22.000Z</time>
        <extensions>
          <ns3:TrackPointExtension>
            <ns3:hr>101</ns3:hr>
            <ns3:cad>70</ns3:cad>
          </ns3:TrackPointExtension>
        </extensions>
      </trkpt>
      <trkpt lat="44.67836768366396427154541015625" lon="6.77404853515326976776123046875">
        <ele>1957</ele>
        <time>2026-09-03T08:09:23.000Z</time>
        <extensions>
          <ns3:TrackPointExtension>
            <ns3:hr>101</ns3:hr>
            <ns3:cad>70</ns3:cad>
          </ns3:TrackPointExtension>
        </extensions>
      </trkpt>
      <trkpt lat="44.67838176526129245758056640625" lon="6.77405306138098239898681640625">
        <ele>1956.800048828125</ele>
        <time>2026-09-03T08:09:24.000Z</time>
        <extensions>
          <ns3:TrackPointExtension>
            <ns3:hr>101</ns3:hr>
            <ns3:cad>70</ns3:cad>
          </ns3:TrackPointExtension>
        </extensions>
      </trkpt>
      <trkpt lat="44.67838997952640056610107421875" lon="6.77405306138098239898681640625">
        <ele>1956.4000244140625</ele>
        <time>2026-09-03T08:09:25.000Z</time>
        <extensions>
          <ns3:TrackPointExtension>
            <ns3:hr>101</ns3:hr>
            <ns3:cad>70</ns3:cad>
          </ns3:TrackPointExtension>
        </extensions>
      </trkpt>
      <trkpt lat="44.67839316464960575103759765625" lon="6.77405633032321929931640625">
        <ele>1956.199951171875</ele>
        <time>2026-09-03T08:09:26.000Z</time>
        <extensions>
          <ns3:TrackPointExtension>
            <ns3:hr>101</ns3:hr>
            <ns3:cad>70</ns3:cad>
          </ns3:TrackPointExtension>
        </extensions>
      </trkpt>
      <trkpt lat="44.6784039773046970367431640625" lon="6.7740615271031856536865234375">
        <ele>1955.800048828125</ele>
        <time>2026-09-03T08:09:27.000Z</time>
        <extensions>
          <ns3:TrackPointExtension>
            <ns3:hr>101</ns3:hr>
            <ns3:cad>70</ns3:cad>
          </ns3:TrackPointExtension>
        </extensions>
      </trkpt>
      <trkpt lat="44.6784120239317417144775390625" lon="6.77406915463507175445556640625">
        <ele>1955.4000244140625</ele>
        <time>2026-09-03T08:09:28.000Z</time>
        <extensions>
          <ns3:TrackPointExtension>
            <ns3:hr>101</ns3:hr>
            <ns3:cad>70</ns3:cad>
          </ns3:TrackPointExtension>
        </extensions>
      </trkpt>
      <trkpt lat="44.67842233367264270782470703125" lon="6.77406898699700832366943359375">
        <ele>1955</ele>
        <time>2026-09-03T08:09:29.000Z</time>
        <extensions>
          <ns3:TrackPointExtension>
            <ns3:hr>101</ns3:hr>
            <ns3:cad>69</ns3:cad>
          </ns3:TrackPointExtension>
        </extensions>
      </trkpt>
      <trkpt lat="44.6784447133541107177734375" lon="6.77407686598598957061767578125">
        <ele>1954.5999755859375</ele>
        <time>2026-09-03T08:09:30.000Z</time>
        <extensions>
          <ns3:TrackPointExtension>
            <ns3:hr>100</ns3:hr>
            <ns3:cad>69</ns3:cad>
          </ns3:TrackPointExtension>
        </extensions>
      </trkpt>
      <trkpt lat="44.678464494645595550537109375" lon="6.774081476032733917236328125">
        <ele>1954.199951171875</ele>
        <time>2026-09-03T08:09:31.000Z</time>
        <extensions>
          <ns3:TrackPointExtension>
            <ns3:hr>100</ns3:hr>
            <ns3:cad>79</ns3:cad>
          </ns3:TrackPointExtension>
        </extensions>
      </trkpt>
      <trkpt lat="44.6784837730228900909423828125" lon="6.77407535724341869354248046875">
        <ele>1953.5999755859375</ele>
        <time>2026-09-03T08:09:32.000Z</time>
        <extensions>
          <ns3:TrackPointExtension>
            <ns3:hr>99</ns3:hr>
            <ns3:cad>79</ns3:cad>
          </ns3:TrackPointExtension>
        </extensions>
      </trkpt>
      <trkpt lat="44.67850179411470890045166015625" lon="6.77406948991119861602783203125">
        <ele>1953.199951171875</ele>
        <time>2026-09-03T08:09:33.000Z</time>
        <extensions>
          <ns3:TrackPointExtension>
            <ns3:hr>99</ns3:hr>
            <ns3:cad>79</ns3:cad>
          </ns3:TrackPointExtension>
        </extensions>
      </trkpt>
      <trkpt lat="44.6785116009414196014404296875" lon="6.77406169474124908447265625">
        <ele>1953</ele>
        <time>2026-09-03T08:09:34.000Z</time>
        <extensions>
          <ns3:TrackPointExtension>
            <ns3:hr>98</ns3:hr>
            <ns3:cad>79</ns3:cad>
          </ns3:TrackPointExtension>
        </extensions>
      </trkpt>
      <trkpt lat="44.67851822264492511749267578125" lon="6.7740524746477603912353515625">
        <ele>1952.5999755859375</ele>
        <time>2026-09-03T08:09:35.000Z</time>
        <extensions>
          <ns3:TrackPointExtension>
            <ns3:hr>97</ns3:hr>
            <ns3:cad>79</ns3:cad>
          </ns3:TrackPointExtension>
        </extensions>
      </trkpt>
      <trkpt lat="44.67851579189300537109375" lon="6.7740387283265590667724609375">
        <ele>1952.4000244140625</ele>
        <time>2026-09-03T08:09:36.000Z</time>
        <extensions>
          <ns3:TrackPointExtension>
            <ns3:hr>98</ns3:hr>
            <ns3:cad>79</ns3:cad>
          </ns3:TrackPointExtension>
        </extensions>
      </trkpt>
      <trkpt lat="44.67850497923791408538818359375" lon="6.77401299588382244110107421875">
        <ele>1952.199951171875</ele>
        <time>2026-09-03T08:09:37.000Z</time>
        <extensions>
          <ns3:TrackPointExtension>
            <ns3:hr>98</ns3:hr>
            <ns3:cad>80</ns3:cad>
          </ns3:TrackPointExtension>
        </extensions>
      </trkpt>
      <trkpt lat="44.67848687432706356048583984375" lon="6.77399933338165283203125">
        <ele>1952</ele>
        <time>2026-09-03T08:09:38.000Z</time>
        <extensions>
          <ns3:TrackPointExtension>
            <ns3:hr>98</ns3:hr>
            <ns3:cad>80</ns3:cad>
          </ns3:TrackPointExtension>
        </extensions>
      </trkpt>
      <trkpt lat="44.6784700267016887664794921875" lon="6.77397997118532657623291015625">
        <ele>1951.5999755859375</ele>
        <time>2026-09-03T08:09:39.000Z</time>
        <extensions>
          <ns3:TrackPointExtension>
            <ns3:hr>97</ns3:hr>
            <ns3:cad>80</ns3:cad>
          </ns3:TrackPointExtension>
        </extensions>
      </trkpt>
      <trkpt lat="44.6784566156566143035888671875" lon="6.77396974526345729827880859375">
        <ele>1951.199951171875</ele>
        <time>2026-09-03T08:09:40.000Z</time>
        <extensions>
          <ns3:TrackPointExtension>
            <ns3:hr>98</ns3:hr>
            <ns3:cad>80</ns3:cad>
          </ns3:TrackPointExtension>
        </extensions>
      </trkpt>
      <trkpt lat="44.678449742496013641357421875" lon="6.77396253682672977447509765625">
        <ele>1950.800048828125</ele>
        <time>2026-09-03T08:09:41.000Z</time>
        <extensions>
          <ns3:TrackPointExtension>
            <ns3:hr>98</ns3:hr>
            <ns3:cad>72</ns3:cad>
          </ns3:TrackPointExtension>
        </extensions>
      </trkpt>
      <trkpt lat="44.6784375049173831939697265625" lon="6.7739562503993511199951171875">
        <ele>1950.800048828125</ele>
        <time>2026-09-03T08:09:42.000Z</time>
        <extensions>
          <ns3:TrackPointExtension>
            <ns3:hr>98</ns3:hr>
            <ns3:cad>72</ns3:cad>
          </ns3:TrackPointExtension>
        </extensions>
      </trkpt>
      <trkpt lat="44.67842183075845241546630859375" lon="6.77394040860235691070556640625">
        <ele>1950.5999755859375</ele>
        <time>2026-09-03T08:09:43.000Z</time>
        <extensions>
          <ns3:TrackPointExtension>
            <ns3:hr>98</ns3:hr>
            <ns3:cad>65</ns3:cad>
          </ns3:TrackPointExtension>
        </extensions>
      </trkpt>
      <trkpt lat="44.67841043137013912200927734375" lon="6.7739290930330753326416015625">
        <ele>1950.4000244140625</ele>
        <time>2026-09-03T08:09:44.000Z</time>
        <extensions>
          <ns3:TrackPointExtension>
            <ns3:hr>97</ns3:hr>
            <ns3:cad>65</ns3:cad>
          </ns3:TrackPointExtension>
        </extensions>
      </trkpt>
      <trkpt lat="44.678400456905364990234375" lon="6.77391861565411090850830078125">
        <ele>1950.199951171875</ele>
        <time>2026-09-03T08:09:45.000Z</time>
        <extensions>
          <ns3:TrackPointExtension>
            <ns3:hr>97</ns3:hr>
            <ns3:cad>65</ns3:cad>
          </ns3:TrackPointExtension>
        </extensions>
      </trkpt>
      <trkpt lat="44.678391404449939727783203125" lon="6.77390688098967075347900390625">
        <ele>1950</ele>
        <time>2026-09-03T08:09:46.000Z</time>
        <extensions>
          <ns3:TrackPointExtension>
            <ns3:hr>96</ns3:hr>
            <ns3:cad>65</ns3:cad>
          </ns3:TrackPointExtension>
        </extensions>
      </trkpt>
      <trkpt lat="44.67838235199451446533203125" lon="6.7738982476294040679931640625">
        <ele>1949.5999755859375</ele>
        <time>2026-09-03T08:09:47.000Z</time>
        <extensions>
          <ns3:TrackPointExtension>
            <ns3:hr>96</ns3:hr>
            <ns3:cad>65</ns3:cad>
          </ns3:TrackPointExtension>
        </extensions>
      </trkpt>
      <trkpt lat="44.6783696115016937255859375" lon="6.7738945595920085906982421875">
        <ele>1949.199951171875</ele>
        <time>2026-09-03T08:09:48.000Z</time>
        <extensions>
          <ns3:TrackPointExtension>
            <ns3:hr>95</ns3:hr>
            <ns3:cad>65</ns3:cad>
          </ns3:TrackPointExtension>
        </extensions>
      </trkpt>
      <trkpt lat="44.67835511080920696258544921875" lon="6.77388659678399562835693359375">
        <ele>1948.800048828125</ele>
        <time>2026-09-03T08:09:49.000Z</time>
        <extensions>
          <ns3:TrackPointExtension>
            <ns3:hr>95</ns3:hr>
            <ns3:cad>65</ns3:cad>
          </ns3:TrackPointExtension>
        </extensions>
      </trkpt>
      <trkpt lat="44.67834052629768848419189453125" lon="6.77387938834726810455322265625">
        <ele>1948.4000244140625</ele>
        <time>2026-09-03T08:09:50.000Z</time>
        <extensions>
          <ns3:TrackPointExtension>
            <ns3:hr>95</ns3:hr>
            <ns3:cad>65</ns3:cad>
          </ns3:TrackPointExtension>
        </extensions>
      </trkpt>
      <trkpt lat="44.6783245168626308441162109375" lon="6.77387402392923831939697265625">
        <ele>1948</ele>
        <time>2026-09-03T08:09:51.000Z</time>
        <extensions>
          <ns3:TrackPointExtension>
            <ns3:hr>95</ns3:hr>
            <ns3:cad>65</ns3:cad>
          </ns3:TrackPointExtension>
        </extensions>
      </trkpt>
      <trkpt lat="44.67830750159919261932373046875" lon="6.77386782132089138031005859375">
        <ele>1947.5999755859375</ele>
        <time>2026-09-03T08:09:52.000Z</time>
        <extensions>
          <ns3:TrackPointExtension>
            <ns3:hr>95</ns3:hr>
            <ns3:cad>65</ns3:cad>
          </ns3:TrackPointExtension>
        </extensions>
      </trkpt>
      <trkpt lat="44.67829115688800811767578125" lon="6.77386027760803699493408203125">
        <ele>1947.199951171875</ele>
        <time>2026-09-03T08:09:53.000Z</time>
        <extensions>
          <ns3:TrackPointExtension>
            <ns3:hr>95</ns3:hr>
            <ns3:cad>65</ns3:cad>
          </ns3:TrackPointExtension>
        </extensions>
      </trkpt>
      <trkpt lat="44.67827581800520420074462890625" lon="6.77385357208549976348876953125">
        <ele>1946.800048828125</ele>
        <time>2026-09-03T08:09:54.000Z</time>
        <extensions>
          <ns3:TrackPointExtension>
            <ns3:hr>95</ns3:hr>
            <ns3:cad>65</ns3:cad>
          </ns3:TrackPointExtension>
        </extensions>
      </trkpt>
      <trkpt lat="44.6782624907791614532470703125" lon="6.7738462798297405242919921875">
        <ele>1946.5999755859375</ele>
        <time>2026-09-03T08:09:55.000Z</time>
        <extensions>
          <ns3:TrackPointExtension>
            <ns3:hr>95</ns3:hr>
            <ns3:cad>83</ns3:cad>
          </ns3:TrackPointExtension>
        </extensions>
      </trkpt>
      <trkpt lat="44.6782463975250720977783203125" lon="6.77383412607014179229736328125">
        <ele>1946.4000244140625</ele>
        <time>2026-09-03T08:09:56.000Z</time>
        <extensions>
          <ns3:TrackPointExtension>
            <ns3:hr>95</ns3:hr>
            <ns3:cad>84</ns3:cad>
          </ns3:TrackPointExtension>
        </extensions>
      </trkpt>
      <trkpt lat="44.67822502367198467254638671875" lon="6.7738244868814945220947265625">
        <ele>1946.199951171875</ele>
        <time>2026-09-03T08:09:57.000Z</time>
        <extensions>
          <ns3:TrackPointExtension>
            <ns3:hr>95</ns3:hr>
            <ns3:cad>84</ns3:cad>
          </ns3:TrackPointExtension>
        </extensions>
      </trkpt>
      <trkpt lat="44.67820926569402217864990234375" lon="6.7738161049783229827880859375">
        <ele>1946</ele>
        <time>2026-09-03T08:09:58.000Z</time>
        <extensions>
          <ns3:TrackPointExtension>
            <ns3:hr>95</ns3:hr>
            <ns3:cad>84</ns3:cad>
          </ns3:TrackPointExtension>
        </extensions>
      </trkpt>
      <trkpt lat="44.67818965204060077667236328125" lon="6.7738110758364200592041015625">
        <ele>1945.800048828125</ele>
        <time>2026-09-03T08:09:59.000Z</time>
        <extensions>
          <ns3:TrackPointExtension>
            <ns3:hr>96</ns3:hr>
            <ns3:cad>84</ns3:cad>
          </ns3:TrackPointExtension>
        </extensions>
      </trkpt>
      <trkpt lat="44.67817573808133602142333984375" lon="6.77381199784576892852783203125">
        <ele>1945.4000244140625</ele>
        <time>2026-09-03T08:10:00.000Z</time>
        <extensions>
          <ns3:TrackPointExtension>
            <ns3:hr>96</ns3:hr>
            <ns3:cad>84</ns3:cad>
          </ns3:TrackPointExtension>
        </extensions>
      </trkpt>
      <trkpt lat="44.67816148884594440460205078125" lon="6.77381224930286407470703125">
        <ele>1945</ele>
        <time>2026-09-03T08:10:01.000Z</time>
        <extensions>
          <ns3:TrackPointExtension>
            <ns3:hr>97</ns3:hr>
            <ns3:cad>84</ns3:cad>
          </ns3:TrackPointExtension>
        </extensions>
      </trkpt>
      <trkpt lat="44.67814958654344081878662109375" lon="6.77381400950253009796142578125">
        <ele>1944.5999755859375</ele>
        <time>2026-09-03T08:10:02.000Z</time>
        <extensions>
          <ns3:TrackPointExtension>
            <ns3:hr>98</ns3:hr>
            <ns3:cad>84</ns3:cad>
          </ns3:TrackPointExtension>
        </extensions>
      </trkpt>
      <trkpt lat="44.678137935698032379150390625" lon="6.77381183020770549774169921875">
        <ele>1944.4000244140625</ele>
        <time>2026-09-03T08:10:03.000Z</time>
        <extensions>
          <ns3:TrackPointExtension>
            <ns3:hr>100</ns3:hr>
            <ns3:cad>84</ns3:cad>
          </ns3:TrackPointExtension>
        </extensions>
      </trkpt>
      <trkpt lat="44.67812159098684787750244140625" lon="6.7738013528287410736083984375">
        <ele>1944</ele>
        <time>2026-09-03T08:10:04.000Z</time>
        <extensions>
          <ns3:TrackPointExtension>
            <ns3:hr>102</ns3:hr>
            <ns3:cad>84</ns3:cad>
          </ns3:TrackPointExtension>
        </extensions>
      </trkpt>
      <trkpt lat="44.67810952104628086090087890625" lon="6.77379808388650417327880859375">
        <ele>1943.800048828125</ele>
        <time>2026-09-03T08:10:05.000Z</time>
        <extensions>
          <ns3:TrackPointExtension>
            <ns3:hr>104</ns3:hr>
            <ns3:cad>84</ns3:cad>
          </ns3:TrackPointExtension>
        </extensions>
      </trkpt>
      <trkpt lat="44.6780965290963649749755859375" lon="6.77380478940904140472412109375">
        <ele>1943.4000244140625</ele>
        <time>2026-09-03T08:10:06.000Z</time>
        <extensions>
          <ns3:TrackPointExtension>
            <ns3:hr>106</ns3:hr>
            <ns3:cad>84</ns3:cad>
          </ns3:TrackPointExtension>
        </extensions>
      </trkpt>
      <trkpt lat="44.6780844591557979583740234375" lon="6.77380311302840709686279296875">
        <ele>1943</ele>
        <time>2026-09-03T08:10:07.000Z</time>
        <extensions>
          <ns3:TrackPointExtension>
            <ns3:hr>107</ns3:hr>
            <ns3:cad>84</ns3:cad>
          </ns3:TrackPointExtension>
        </extensions>
      </trkpt>
      <trkpt lat="44.67807280831038951873779296875" lon="6.77380822598934173583984375">
        <ele>1942.5999755859375</ele>
        <time>2026-09-03T08:10:08.000Z</time>
        <extensions>
          <ns3:TrackPointExtension>
            <ns3:hr>107</ns3:hr>
            <ns3:cad>84</ns3:cad>
          </ns3:TrackPointExtension>
        </extensions>
      </trkpt>
      <trkpt lat="44.67806006781756877899169921875" lon="6.7738164402544498443603515625">
        <ele>1942.4000244140625</ele>
        <time>2026-09-03T08:10:09.000Z</time>
        <extensions>
          <ns3:TrackPointExtension>
            <ns3:hr>107</ns3:hr>
            <ns3:cad>84</ns3:cad>
          </ns3:TrackPointExtension>
        </extensions>
      </trkpt>
      <trkpt lat="44.6780442260205745697021484375" lon="6.77381937392055988311767578125">
        <ele>1942</ele>
        <time>2026-09-03T08:10:10.000Z</time>
        <extensions>
          <ns3:TrackPointExtension>
            <ns3:hr>106</ns3:hr>
            <ns3:cad>84</ns3:cad>
          </ns3:TrackPointExtension>
        </extensions>
      </trkpt>
      <trkpt lat="44.6780274622142314910888671875" lon="6.77382700145244598388671875">
        <ele>1941.800048828125</ele>
        <time>2026-09-03T08:10:11.000Z</time>
        <extensions>
          <ns3:TrackPointExtension>
            <ns3:hr>105</ns3:hr>
            <ns3:cad>84</ns3:cad>
          </ns3:TrackPointExtension>
        </extensions>
      </trkpt>
      <trkpt lat="44.67801614664494991302490234375" lon="6.773833371698856353759765625">
        <ele>1941.5999755859375</ele>
        <time>2026-09-03T08:10:12.000Z</time>
        <extensions>
          <ns3:TrackPointExtension>
            <ns3:hr>105</ns3:hr>
            <ns3:cad>73</ns3:cad>
          </ns3:TrackPointExtension>
        </extensions>
      </trkpt>
      <trkpt lat="44.67799603007733821868896484375" lon="6.773836053907871246337890625">
        <ele>1941.4000244140625</ele>
        <time>2026-09-03T08:10:13.000Z</time>
        <extensions>
          <ns3:TrackPointExtension>
            <ns3:hr>105</ns3:hr>
            <ns3:cad>73</ns3:cad>
          </ns3:TrackPointExtension>
        </extensions>
      </trkpt>
      <trkpt lat="44.6779858879745006561279296875" lon="6.77383370697498321533203125">
        <ele>1941.199951171875</ele>
        <time>2026-09-03T08:10:14.000Z</time>
        <extensions>
          <ns3:TrackPointExtension>
            <ns3:hr>104</ns3:hr>
            <ns3:cad>73</ns3:cad>
          </ns3:TrackPointExtension>
        </extensions>
      </trkpt>
      <trkpt lat="44.67797088436782360076904296875" lon="6.77383898757398128509521484375">
        <ele>1941</ele>
        <time>2026-09-03T08:10:15.000Z</time>
        <extensions>
          <ns3:TrackPointExtension>
            <ns3:hr>104</ns3:hr>
            <ns3:cad>73</ns3:cad>
          </ns3:TrackPointExtension>
        </extensions>
      </trkpt>
      <trkpt lat="44.677958898246288299560546875" lon="6.77384552545845508575439453125">
        <ele>1940.800048828125</ele>
        <time>2026-09-03T08:10:16.000Z</time>
        <extensions>
          <ns3:TrackPointExtension>
            <ns3:hr>104</ns3:hr>
            <ns3:cad>75</ns3:cad>
          </ns3:TrackPointExtension>
        </extensions>
      </trkpt>
      <trkpt lat="44.677946157753467559814453125" lon="6.7738523148000240325927734375">
        <ele>1940.4000244140625</ele>
        <time>2026-09-03T08:10:17.000Z</time>
        <extensions>
          <ns3:TrackPointExtension>
            <ns3:hr>104</ns3:hr>
            <ns3:cad>75</ns3:cad>
          </ns3:TrackPointExtension>
        </extensions>
      </trkpt>
      <trkpt lat="44.67793442308902740478515625" lon="6.773851811885833740234375">
        <ele>1940.199951171875</ele>
        <time>2026-09-03T08:10:18.000Z</time>
        <extensions>
          <ns3:TrackPointExtension>
            <ns3:hr>104</ns3:hr>
            <ns3:cad>75</ns3:cad>
          </ns3:TrackPointExtension>
        </extensions>
      </trkpt>
      <trkpt lat="44.677920006215572357177734375" lon="6.77385675720870494842529296875">
        <ele>1940</ele>
        <time>2026-09-03T08:10:19.000Z</time>
        <extensions>
          <ns3:TrackPointExtension>
            <ns3:hr>105</ns3:hr>
            <ns3:cad>0</ns3:cad>
          </ns3:TrackPointExtension>
        </extensions>
      </trkpt>
      <trkpt lat="44.67791187576949596405029296875" lon="6.77384711802005767822265625">
        <ele>1940</ele>
        <time>2026-09-03T08:10:20.000Z</time>
        <extensions>
          <ns3:TrackPointExtension>
            <ns3:hr>104</ns3:hr>
            <ns3:cad>0</ns3:cad>
          </ns3:TrackPointExtension>
        </extensions>
      </trkpt>
      <trkpt lat="44.6779208444058895111083984375" lon="6.77383965812623500823974609375">
        <ele>1939.800048828125</ele>
        <time>2026-09-03T08:10:21.000Z</time>
        <extensions>
          <ns3:TrackPointExtension>
            <ns3:hr>104</ns3:hr>
            <ns3:cad>0</ns3:cad>
          </ns3:TrackPointExtension>
        </extensions>
      </trkpt>
      <trkpt lat="44.67792729847133159637451171875" lon="6.77383110858500003814697265625">
        <ele>1939.5999755859375</ele>
        <time>2026-09-03T08:10:22.000Z</time>
        <extensions>
          <ns3:TrackPointExtension>
            <ns3:hr>103</ns3:hr>
            <ns3:cad>0</ns3:cad>
          </ns3:TrackPointExtension>
        </extensions>
      </trkpt>
      <trkpt lat="44.6779362671077251434326171875" lon="6.77381970919668674468994140625">
        <ele>1939.4000244140625</ele>
        <time>2026-09-03T08:10:23.000Z</time>
        <extensions>
          <ns3:TrackPointExtension>
            <ns3:hr>102</ns3:hr>
            <ns3:cad>0</ns3:cad>
          </ns3:TrackPointExtension>
        </extensions>
      </trkpt>
      <trkpt lat="44.6779469959437847137451171875" lon="6.773807220160961151123046875">
        <ele>1939.199951171875</ele>
        <time>2026-09-03T08:10:24.000Z</time>
        <extensions>
          <ns3:TrackPointExtension>
            <ns3:hr>102</ns3:hr>
            <ns3:cad>112</ns3:cad>
          </ns3:TrackPointExtension>
        </extensions>
      </trkpt>
      <trkpt lat="44.67796451412141323089599609375" lon="6.773792803287506103515625">
        <ele>1938.800048828125</ele>
        <time>2026-09-03T08:10:25.000Z</time>
        <extensions>
          <ns3:TrackPointExtension>
            <ns3:hr>102</ns3:hr>
            <ns3:cad>112</ns3:cad>
          </ns3:TrackPointExtension>
        </extensions>
      </trkpt>
      <trkpt lat="44.6779805235564708709716796875" lon="6.77377796731889247894287109375">
        <ele>1938.4000244140625</ele>
        <time>2026-09-03T08:10:26.000Z</time>
        <extensions>
          <ns3:TrackPointExtension>
            <ns3:hr>101</ns3:hr>
            <ns3:cad>83</ns3:cad>
          </ns3:TrackPointExtension>
        </extensions>
      </trkpt>
      <trkpt lat="44.67799418605864048004150390625" lon="6.7737654782831668853759765625">
        <ele>1938</ele>
        <time>2026-09-03T08:10:27.000Z</time>
        <extensions>
          <ns3:TrackPointExtension>
            <ns3:hr>101</ns3:hr>
            <ns3:cad>83</ns3:cad>
          </ns3:TrackPointExtension>
        </extensions>
      </trkpt>
      <trkpt lat="44.67800742946565151214599609375" lon="6.7737512290477752685546875">
        <ele>1937.800048828125</ele>
        <time>2026-09-03T08:10:28.000Z</time>
        <extensions>
          <ns3:TrackPointExtension>
            <ns3:hr>101</ns3:hr>
            <ns3:cad>83</ns3:cad>
          </ns3:TrackPointExtension>
        </extensions>
      </trkpt>
      <trkpt lat="44.6780184097588062286376953125" lon="6.77373848855495452880859375">
        <ele>1937.5999755859375</ele>
        <time>2026-09-03T08:10:29.000Z</time>
        <extensions>
          <ns3:TrackPointExtension>
            <ns3:hr>102</ns3:hr>
            <ns3:cad>83</ns3:cad>
          </ns3:TrackPointExtension>
        </extensions>
      </trkpt>
      <trkpt lat="44.67803508974611759185791015625" lon="6.77372985519468784332275390625">
        <ele>1937.5999755859375</ele>
        <time>2026-09-03T08:10:30.000Z</time>
        <extensions>
          <ns3:TrackPointExtension>
            <ns3:hr>103</ns3:hr>
            <ns3:cad>83</ns3:cad>
          </ns3:TrackPointExtension>
        </extensions>
      </trkpt>
      <trkpt lat="44.6780489198863506317138671875" lon="6.77372449077665805816650390625">
        <ele>1937.4000244140625</ele>
        <time>2026-09-03T08:10:31.000Z</time>
        <extensions>
          <ns3:TrackPointExtension>
            <ns3:hr>104</ns3:hr>
            <ns3:cad>82</ns3:cad>
          </ns3:TrackPointExtension>
        </extensions>
      </trkpt>
      <trkpt lat="44.678066857159137725830078125" lon="6.77371744997799396514892578125">
        <ele>1937.4000244140625</ele>
        <time>2026-09-03T08:10:32.000Z</time>
        <extensions>
          <ns3:TrackPointExtension>
            <ns3:hr>104</ns3:hr>
            <ns3:cad>80</ns3:cad>
          </ns3:TrackPointExtension>
        </extensions>
      </trkpt>
      <trkpt lat="44.67808303423225879669189453125" lon="6.77371040917932987213134765625">
        <ele>1937.199951171875</ele>
        <time>2026-09-03T08:10:33.000Z</time>
        <extensions>
          <ns3:TrackPointExtension>
            <ns3:hr>105</ns3:hr>
            <ns3:cad>80</ns3:cad>
          </ns3:TrackPointExtension>
        </extensions>
      </trkpt>
      <trkpt lat="44.678096361458301544189453125" lon="6.77370856516063213348388671875">
        <ele>1937</ele>
        <time>2026-09-03T08:10:34.000Z</time>
        <extensions>
          <ns3:TrackPointExtension>
            <ns3:hr>105</ns3:hr>
            <ns3:cad>80</ns3:cad>
          </ns3:TrackPointExtension>
        </extensions>
      </trkpt>
      <trkpt lat="44.6781079284846782684326171875" lon="6.773695237934589385986328125">
        <ele>1936.800048828125</ele>
        <time>2026-09-03T08:10:35.000Z</time>
        <extensions>
          <ns3:TrackPointExtension>
            <ns3:hr>105</ns3:hr>
            <ns3:cad>66</ns3:cad>
          </ns3:TrackPointExtension>
        </extensions>
      </trkpt>
      <trkpt lat="44.67812293209135532379150390625" lon="6.77368056960403919219970703125">
        <ele>1936.5999755859375</ele>
        <time>2026-09-03T08:10:36.000Z</time>
        <extensions>
          <ns3:TrackPointExtension>
            <ns3:hr>106</ns3:hr>
            <ns3:cad>62</ns3:cad>
          </ns3:TrackPointExtension>
        </extensions>
      </trkpt>
      <trkpt lat="44.67814019881188869476318359375" lon="6.7736652307212352752685546875">
        <ele>1936.4000244140625</ele>
        <time>2026-09-03T08:10:37.000Z</time>
        <extensions>
          <ns3:TrackPointExtension>
            <ns3:hr>105</ns3:hr>
            <ns3:cad>62</ns3:cad>
          </ns3:TrackPointExtension>
        </extensions>
      </trkpt>
      <trkpt lat="44.6781585551798343658447265625" lon="6.77364771254360675811767578125">
        <ele>1936.199951171875</ele>
        <time>2026-09-03T08:10:38.000Z</time>
        <extensions>
          <ns3:TrackPointExtension>
            <ns3:hr>105</ns3:hr>
            <ns3:cad>78</ns3:cad>
          </ns3:TrackPointExtension>
        </extensions>
      </trkpt>
      <trkpt lat="44.678180515766143798828125" lon="6.7736484669148921966552734375">
        <ele>1936</ele>
        <time>2026-09-03T08:10:39.000Z</time>
        <extensions>
          <ns3:TrackPointExtension>
            <ns3:hr>105</ns3:hr>
            <ns3:cad>78</ns3:cad>
          </ns3:TrackPointExtension>
        </extensions>
      </trkpt>
      <trkpt lat="44.67819987796247005462646484375" lon="6.77364218048751354217529296875">
        <ele>1935.800048828125</ele>
        <time>2026-09-03T08:10:40.000Z</time>
        <extensions>
          <ns3:TrackPointExtension>
            <ns3:hr>105</ns3:hr>
            <ns3:cad>78</ns3:cad>
          </ns3:TrackPointExtension>
        </extensions>
      </trkpt>
      <trkpt lat="44.6782205812633037567138671875" lon="6.77363530732691287994384765625">
        <ele>1935.4000244140625</ele>
        <time>2026-09-03T08:10:41.000Z</time>
        <extensions>
          <ns3:TrackPointExtension>
            <ns3:hr>104</ns3:hr>
            <ns3:cad>81</ns3:cad>
          </ns3:TrackPointExtension>
        </extensions>
      </trkpt>
      <trkpt lat="44.67823575250804424285888671875" lon="6.7736280150711536407470703125">
        <ele>1935.199951171875</ele>
        <time>2026-09-03T08:10:42.000Z</time>
        <extensions>
          <ns3:TrackPointExtension>
            <ns3:hr>104</ns3:hr>
            <ns3:cad>81</ns3:cad>
          </ns3:TrackPointExtension>
        </extensions>
      </trkpt>
      <trkpt lat="44.67825754545629024505615234375" lon="6.77361971698701381683349609375">
        <ele>1935</ele>
        <time>2026-09-03T08:10:43.000Z</time>
        <extensions>
          <ns3:TrackPointExtension>
            <ns3:hr>104</ns3:hr>
            <ns3:cad>82</ns3:cad>
          </ns3:TrackPointExtension>
        </extensions>
      </trkpt>
      <trkpt lat="44.67827095650136470794677734375" lon="6.773614101111888885498046875">
        <ele>1934.5999755859375</ele>
        <time>2026-09-03T08:10:44.000Z</time>
        <extensions>
          <ns3:TrackPointExtension>
            <ns3:hr>104</ns3:hr>
            <ns3:cad>83</ns3:cad>
          </ns3:TrackPointExtension>
        </extensions>
      </trkpt>
      <trkpt lat="44.67828805558383464813232421875" lon="6.7736072279512882232666015625">
        <ele>1934.4000244140625</ele>
        <time>2026-09-03T08:10:45.000Z</time>
        <extensions>
          <ns3:TrackPointExtension>
            <ns3:hr>105</ns3:hr>
            <ns3:cad>83</ns3:cad>
          </ns3:TrackPointExtension>
        </extensions>
      </trkpt>
      <trkpt lat="44.678308255970478057861328125" lon="6.77360312081873416900634765625">
        <ele>1934</ele>
        <time>2026-09-03T08:10:46.000Z</time>
        <extensions>
          <ns3:TrackPointExtension>
            <ns3:hr>105</ns3:hr>
            <ns3:cad>83</ns3:cad>
          </ns3:TrackPointExtension>
        </extensions>
      </trkpt>
      <trkpt lat="44.6783292107284069061279296875" lon="6.7735998518764972686767578125">
        <ele>1933.5999755859375</ele>
        <time>2026-09-03T08:10:47.000Z</time>
        <extensions>
          <ns3:TrackPointExtension>
            <ns3:hr>106</ns3:hr>
            <ns3:cad>83</ns3:cad>
          </ns3:TrackPointExtension>
        </extensions>
      </trkpt>
      <trkpt lat="44.6783516742289066314697265625" lon="6.7735924758017063140869140625">
        <ele>1933.199951171875</ele>
        <time>2026-09-03T08:10:48.000Z</time>
        <extensions>
          <ns3:TrackPointExtension>
            <ns3:hr>106</ns3:hr>
            <ns3:cad>83</ns3:cad>
          </ns3:TrackPointExtension>
        </extensions>
      </trkpt>
      <trkpt lat="44.67837170697748661041259765625" lon="6.77358535118401050567626953125">
        <ele>1932.5999755859375</ele>
        <time>2026-09-03T08:10:49.000Z</time>
        <extensions>
          <ns3:TrackPointExtension>
            <ns3:hr>106</ns3:hr>
            <ns3:cad>83</ns3:cad>
          </ns3:TrackPointExtension>
        </extensions>
      </trkpt>
      <trkpt lat="44.678394086658954620361328125" lon="6.77357495762407779693603515625">
        <ele>1932.199951171875</ele>
        <time>2026-09-03T08:10:50.000Z</time>
        <extensions>
          <ns3:TrackPointExtension>
            <ns3:hr>107</ns3:hr>
            <ns3:cad>83</ns3:cad>
          </ns3:TrackPointExtension>
        </extensions>
      </trkpt>
      <trkpt lat="44.6784113533794879913330078125" lon="6.77357219159603118896484375">
        <ele>1931.800048828125</ele>
        <time>2026-09-03T08:10:51.000Z</time>
        <extensions>
          <ns3:TrackPointExtension>
            <ns3:hr>107</ns3:hr>
            <ns3:cad>83</ns3:cad>
          </ns3:TrackPointExtension>
        </extensions>
      </trkpt>
      <trkpt lat="44.67842350713908672332763671875" lon="6.77356959320604801177978515625">
        <ele>1931.5999755859375</ele>
        <time>2026-09-03T08:10:52.000Z</time>
        <extensions>
          <ns3:TrackPointExtension>
            <ns3:hr>107</ns3:hr>
            <ns3:cad>83</ns3:cad>
          </ns3:TrackPointExtension>
        </extensions>
      </trkpt>
      <trkpt lat="44.67843892984092235565185546875" lon="6.773567497730255126953125">
        <ele>1931.4000244140625</ele>
        <time>2026-09-03T08:10:53.000Z</time>
        <extensions>
          <ns3:TrackPointExtension>
            <ns3:hr>108</ns3:hr>
            <ns3:cad>82</ns3:cad>
          </ns3:TrackPointExtension>
        </extensions>
      </trkpt>
      <trkpt lat="44.6784492395818233489990234375" lon="6.7735636420547962188720703125">
        <ele>1931.199951171875</ele>
        <time>2026-09-03T08:10:54.000Z</time>
        <extensions>
          <ns3:TrackPointExtension>
            <ns3:hr>108</ns3:hr>
            <ns3:cad>82</ns3:cad>
          </ns3:TrackPointExtension>
        </extensions>
      </trkpt>
      <trkpt lat="44.67846013605594635009765625" lon="6.7735582776367664337158203125">
        <ele>1931.199951171875</ele>
        <time>2026-09-03T08:10:55.000Z</time>
        <extensions>
          <ns3:TrackPointExtension>
            <ns3:hr>109</ns3:hr>
            <ns3:cad>82</ns3:cad>
          </ns3:TrackPointExtension>
        </extensions>
      </trkpt>
      <trkpt lat="44.67847480438649654388427734375" lon="6.773556768894195556640625">
        <ele>1931</ele>
        <time>2026-09-03T08:10:56.000Z</time>
        <extensions>
          <ns3:TrackPointExtension>
            <ns3:hr>109</ns3:hr>
            <ns3:cad>82</ns3:cad>
          </ns3:TrackPointExtension>
        </extensions>
      </trkpt>
      <trkpt lat="44.67848771251738071441650390625" lon="6.77356255240738391876220703125">
        <ele>1930.5999755859375</ele>
        <time>2026-09-03T08:10:57.000Z</time>
        <extensions>
          <ns3:TrackPointExtension>
            <ns3:hr>109</ns3:hr>
            <ns3:cad>83</ns3:cad>
          </ns3:TrackPointExtension>
        </extensions>
      </trkpt>
      <trkpt lat="44.67850430868566036224365234375" lon="6.7735616303980350494384765625">
        <ele>1930.199951171875</ele>
        <time>2026-09-03T08:10:58.000Z</time>
        <extensions>
          <ns3:TrackPointExtension>
            <ns3:hr>109</ns3:hr>
            <ns3:cad>83</ns3:cad>
          </ns3:TrackPointExtension>
        </extensions>
      </trkpt>
      <trkpt lat="44.6785159595310688018798828125" lon="6.77355769090354442596435546875">
        <ele>1929.800048828125</ele>
        <time>2026-09-03T08:10:59.000Z</time>
        <extensions>
          <ns3:TrackPointExtension>
            <ns3:hr>108</ns3:hr>
            <ns3:cad>83</ns3:cad>
          </ns3:TrackPointExtension>
        </extensions>
      </trkpt>
      <trkpt lat="44.6785126067698001861572265625" lon="6.77354562096297740936279296875">
        <ele>1929.4000244140625</ele>
        <time>2026-09-03T08:11:00.000Z</time>
        <extensions>
          <ns3:TrackPointExtension>
            <ns3:hr>109</ns3:hr>
            <ns3:cad>83</ns3:cad>
          </ns3:TrackPointExtension>
        </extensions>
      </trkpt>
      <trkpt lat="44.67850531451404094696044921875" lon="6.77354126237332820892333984375">
        <ele>1929.199951171875</ele>
        <time>2026-09-03T08:11:01.000Z</time>
        <extensions>
          <ns3:TrackPointExtension>
            <ns3:hr>109</ns3:hr>
            <ns3:cad>83</ns3:cad>
          </ns3:TrackPointExtension>
        </extensions>
      </trkpt>
      <trkpt lat="44.67849374748766422271728515625" lon="6.77353204227983951568603515625">
        <ele>1928.800048828125</ele>
        <time>2026-09-03T08:11:02.000Z</time>
        <extensions>
          <ns3:TrackPointExtension>
            <ns3:hr>109</ns3:hr>
            <ns3:cad>78</ns3:cad>
          </ns3:TrackPointExtension>
        </extensions>
      </trkpt>
      <trkpt lat="44.6784854494035243988037109375" lon="6.77352114580571651458740234375">
        <ele>1928.4000244140625</ele>
        <time>2026-09-03T08:11:03.000Z</time>
        <extensions>
          <ns3:TrackPointExtension>
            <ns3:hr>109</ns3:hr>
            <ns3:cad>78</ns3:cad>
          </ns3:TrackPointExtension>
        </extensions>
      </trkpt>
      <trkpt lat="44.6784747205674648284912109375" lon="6.77351276390254497528076171875">
        <ele>1928.199951171875</ele>
        <time>2026-09-03T08:11:04.000Z</time>
        <extensions>
          <ns3:TrackPointExtension>
            <ns3:hr>108</ns3:hr>
            <ns3:cad>78</ns3:cad>
          </ns3:TrackPointExtension>
        </extensions>
      </trkpt>
      <trkpt lat="44.67847463674843311309814453125" lon="6.77349952049553394317626953125">
        <ele>1928</ele>
        <time>2026-09-03T08:11:05.000Z</time>
        <extensions>
          <ns3:TrackPointExtension>
            <ns3:hr>107</ns3:hr>
            <ns3:cad>78</ns3:cad>
          </ns3:TrackPointExtension>
        </extensions>
      </trkpt>
      <trkpt lat="44.678487963974475860595703125" lon="6.77349507808685302734375">
        <ele>1927.800048828125</ele>
        <time>2026-09-03T08:11:06.000Z</time>
        <extensions>
          <ns3:TrackPointExtension>
            <ns3:hr>107</ns3:hr>
            <ns3:cad>78</ns3:cad>
          </ns3:TrackPointExtension>
        </extensions>
      </trkpt>
      <trkpt lat="44.678499698638916015625" lon="6.77349113859236240386962890625">
        <ele>1927.5999755859375</ele>
        <time>2026-09-03T08:11:07.000Z</time>
        <extensions>
          <ns3:TrackPointExtension>
            <ns3:hr>105</ns3:hr>
            <ns3:cad>79</ns3:cad>
          </ns3:TrackPointExtension>
        </extensions>
      </trkpt>
      <trkpt lat="44.67850011773407459259033203125" lon="6.7734892107546329498291015625">
        <ele>1927.199951171875</ele>
        <time>2026-09-03T08:11:08.000Z</time>
        <extensions>
          <ns3:TrackPointExtension>
            <ns3:hr>104</ns3:hr>
            <ns3:cad>79</ns3:cad>
          </ns3:TrackPointExtension>
        </extensions>
      </trkpt>
      <trkpt lat="44.67849106527864933013916015625" lon="6.7734811641275882720947265625">
        <ele>1926.800048828125</ele>
        <time>2026-09-03T08:11:09.000Z</time>
        <extensions>
          <ns3:TrackPointExtension>
            <ns3:hr>103</ns3:hr>
            <ns3:cad>79</ns3:cad>
          </ns3:TrackPointExtension>
        </extensions>
      </trkpt>
      <trkpt lat="44.678478576242923736572265625" lon="6.773471944034099578857421875">
        <ele>1926.4000244140625</ele>
        <time>2026-09-03T08:11:10.000Z</time>
        <extensions>
          <ns3:TrackPointExtension>
            <ns3:hr>102</ns3:hr>
            <ns3:cad>79</ns3:cad>
          </ns3:TrackPointExtension>
        </extensions>
      </trkpt>
      <trkpt lat="44.67846415936946868896484375" lon="6.7734603770077228546142578125">
        <ele>1926</ele>
        <time>2026-09-03T08:11:11.000Z</time>
        <extensions>
          <ns3:TrackPointExtension>
            <ns3:hr>101</ns3:hr>
            <ns3:cad>74</ns3:cad>
          </ns3:TrackPointExtension>
        </extensions>
      </trkpt>
      <trkpt lat="44.67844479717314243316650390625" lon="6.77344570867717266082763671875">
        <ele>1925.5999755859375</ele>
        <time>2026-09-03T08:11:12.000Z</time>
        <extensions>
          <ns3:TrackPointExtension>
            <ns3:hr>100</ns3:hr>
            <ns3:cad>74</ns3:cad>
          </ns3:TrackPointExtension>
        </extensions>
      </trkpt>
      <trkpt lat="44.678429625928401947021484375" lon="6.7734385840594768524169921875">
        <ele>1925</ele>
        <time>2026-09-03T08:11:13.000Z</time>
        <extensions>
          <ns3:TrackPointExtension>
            <ns3:hr>100</ns3:hr>
            <ns3:cad>74</ns3:cad>
          </ns3:TrackPointExtension>
        </extensions>
      </trkpt>
      <trkpt lat="44.678412191569805145263671875" lon="6.77342760376632213592529296875">
        <ele>1924.5999755859375</ele>
        <time>2026-09-03T08:11:14.000Z</time>
        <extensions>
          <ns3:TrackPointExtension>
            <ns3:hr>99</ns3:hr>
            <ns3:cad>74</ns3:cad>
          </ns3:TrackPointExtension>
        </extensions>
      </trkpt>
      <trkpt lat="44.67839634977281093597412109375" lon="6.77341402508318424224853515625">
        <ele>1924.4000244140625</ele>
        <time>2026-09-03T08:11:15.000Z</time>
        <extensions>
          <ns3:TrackPointExtension>
            <ns3:hr>99</ns3:hr>
            <ns3:cad>74</ns3:cad>
          </ns3:TrackPointExtension>
        </extensions>
      </trkpt>
      <trkpt lat="44.67838042415678501129150390625" lon="6.77340530790388584136962890625">
        <ele>1924</ele>
        <time>2026-09-03T08:11:16.000Z</time>
        <extensions>
          <ns3:TrackPointExtension>
            <ns3:hr>99</ns3:hr>
            <ns3:cad>80</ns3:cad>
          </ns3:TrackPointExtension>
        </extensions>
      </trkpt>
      <trkpt lat="44.67836349271237850189208984375" lon="6.77338980138301849365234375">
        <ele>1923.800048828125</ele>
        <time>2026-09-03T08:11:17.000Z</time>
        <extensions>
          <ns3:TrackPointExtension>
            <ns3:hr>99</ns3:hr>
            <ns3:cad>81</ns3:cad>
          </ns3:TrackPointExtension>
        </extensions>
      </trkpt>
      <trkpt lat="44.67834941111505031585693359375" lon="6.77337764762341976165771484375">
        <ele>1923.4000244140625</ele>
        <time>2026-09-03T08:11:18.000Z</time>
        <extensions>
          <ns3:TrackPointExtension>
            <ns3:hr>99</ns3:hr>
            <ns3:cad>81</ns3:cad>
          </ns3:TrackPointExtension>
        </extensions>
      </trkpt>
      <trkpt lat="44.678340442478656768798828125" lon="6.7733782343566417694091796875">
        <ele>1923.199951171875</ele>
        <time>2026-09-03T08:11:19.000Z</time>
        <extensions>
          <ns3:TrackPointExtension>
            <ns3:hr>99</ns3:hr>
            <ns3:cad>81</ns3:cad>
          </ns3:TrackPointExtension>
        </extensions>
      </trkpt>
      <trkpt lat="44.678323008120059967041015625" lon="6.77337127737700939178466796875">
        <ele>1922.800048828125</ele>
        <time>2026-09-03T08:11:20.000Z</time>
        <extensions>
          <ns3:TrackPointExtension>
            <ns3:hr>99</ns3:hr>
            <ns3:cad>82</ns3:cad>
          </ns3:TrackPointExtension>
        </extensions>
      </trkpt>
      <trkpt lat="44.67830800451338291168212890625" lon="6.77336557768285274505615234375">
        <ele>1922.5999755859375</ele>
        <time>2026-09-03T08:11:21.000Z</time>
        <extensions>
          <ns3:TrackPointExtension>
            <ns3:hr>99</ns3:hr>
            <ns3:cad>82</ns3:cad>
          </ns3:TrackPointExtension>
        </extensions>
      </trkpt>
      <trkpt lat="44.67830800451338291168212890625" lon="6.77335401065647602081298828125">
        <ele>1922.4000244140625</ele>
        <time>2026-09-03T08:11:22.000Z</time>
        <extensions>
          <ns3:TrackPointExtension>
            <ns3:hr>99</ns3:hr>
            <ns3:cad>82</ns3:cad>
          </ns3:TrackPointExtension>
        </extensions>
      </trkpt>
      <trkpt lat="44.678314290940761566162109375" lon="6.77335166372358798980712890625">
        <ele>1922</ele>
        <time>2026-09-03T08:11:23.000Z</time>
        <extensions>
          <ns3:TrackPointExtension>
            <ns3:hr>100</ns3:hr>
            <ns3:cad>82</ns3:cad>
          </ns3:TrackPointExtension>
        </extensions>
      </trkpt>
      <trkpt lat="44.67832108028233051300048828125" lon="6.77334931679069995880126953125">
        <ele>1921.5999755859375</ele>
        <time>2026-09-03T08:11:24.000Z</time>
        <extensions>
          <ns3:TrackPointExtension>
            <ns3:hr>99</ns3:hr>
            <ns3:cad>82</ns3:cad>
          </ns3:TrackPointExtension>
        </extensions>
      </trkpt>
      <trkpt lat="44.67832309193909168243408203125" lon="6.7733515799045562744140625">
        <ele>1921.199951171875</ele>
        <time>2026-09-03T08:11:25.000Z</time>
        <extensions>
          <ns3:TrackPointExtension>
            <ns3:hr>99</ns3:hr>
            <ns3:cad>82</ns3:cad>
          </ns3:TrackPointExtension>
        </extensions>
      </trkpt>
      <trkpt lat="44.67832602560520172119140625" lon="6.7733440361917018890380859375">
        <ele>1920.800048828125</ele>
        <time>2026-09-03T08:11:26.000Z</time>
        <extensions>
          <ns3:TrackPointExtension>
            <ns3:hr>99</ns3:hr>
            <ns3:cad>82</ns3:cad>
          </ns3:TrackPointExtension>
        </extensions>
      </trkpt>
      <trkpt lat="44.67833315022289752960205078125" lon="6.7733369953930377960205078125">
        <ele>1920.4000244140625</ele>
        <time>2026-09-03T08:11:27.000Z</time>
        <extensions>
          <ns3:TrackPointExtension>
            <ns3:hr>99</ns3:hr>
            <ns3:cad>82</ns3:cad>
          </ns3:TrackPointExtension>
        </extensions>
      </trkpt>
      <trkpt lat="44.67833532951772212982177734375" lon="6.7733309604227542877197265625">
        <ele>1920</ele>
        <time>2026-09-03T08:11:28.000Z</time>
        <extensions>
          <ns3:TrackPointExtension>
            <ns3:hr>98</ns3:hr>
            <ns3:cad>82</ns3:cad>
          </ns3:TrackPointExtension>
        </extensions>
      </trkpt>
      <trkpt lat="44.67834748327732086181640625" lon="6.77332819439470767974853515625">
        <ele>1919.5999755859375</ele>
        <time>2026-09-03T08:11:29.000Z</time>
        <extensions>
          <ns3:TrackPointExtension>
            <ns3:hr>98</ns3:hr>
            <ns3:cad>82</ns3:cad>
          </ns3:TrackPointExtension>
        </extensions>
      </trkpt>
      <trkpt lat="44.6783562004566192626953125" lon="6.77332274615764617919921875">
        <ele>1919.199951171875</ele>
        <time>2026-09-03T08:11:30.000Z</time>
        <extensions>
          <ns3:TrackPointExtension>
            <ns3:hr>98</ns3:hr>
            <ns3:cad>82</ns3:cad>
          </ns3:TrackPointExtension>
        </extensions>
      </trkpt>
      <trkpt lat="44.67836483381688594818115234375" lon="6.7733198963105678558349609375">
        <ele>1918.800048828125</ele>
        <time>2026-09-03T08:11:31.000Z</time>
        <extensions>
          <ns3:TrackPointExtension>
            <ns3:hr>98</ns3:hr>
            <ns3:cad>82</ns3:cad>
          </ns3:TrackPointExtension>
        </extensions>
      </trkpt>
      <trkpt lat="44.67837656848132610321044921875" lon="6.7733193933963775634765625">
        <ele>1918.4000244140625</ele>
        <time>2026-09-03T08:11:32.000Z</time>
        <extensions>
          <ns3:TrackPointExtension>
            <ns3:hr>97</ns3:hr>
            <ns3:cad>82</ns3:cad>
          </ns3:TrackPointExtension>
        </extensions>
      </trkpt>
      <trkpt lat="44.6783868782222270965576171875" lon="6.77330958656966686248779296875">
        <ele>1918</ele>
        <time>2026-09-03T08:11:33.000Z</time>
        <extensions>
          <ns3:TrackPointExtension>
            <ns3:hr>97</ns3:hr>
            <ns3:cad>83</ns3:cad>
          </ns3:TrackPointExtension>
        </extensions>
      </trkpt>
      <trkpt lat="44.6783922426402568817138671875" lon="6.77330195903778076171875">
        <ele>1917.5999755859375</ele>
        <time>2026-09-03T08:11:34.000Z</time>
        <extensions>
          <ns3:TrackPointExtension>
            <ns3:hr>97</ns3:hr>
            <ns3:cad>83</ns3:cad>
          </ns3:TrackPointExtension>
        </extensions>
      </trkpt>
      <trkpt lat="44.6783959306776523590087890625" lon="6.77328527905046939849853515625">
        <ele>1917.199951171875</ele>
        <time>2026-09-03T08:11:35.000Z</time>
        <extensions>
          <ns3:TrackPointExtension>
            <ns3:hr>97</ns3:hr>
            <ns3:cad>83</ns3:cad>
          </ns3:TrackPointExtension>
        </extensions>
      </trkpt>
      <trkpt lat="44.67840858735144138336181640625" lon="6.77327270619571208953857421875">
        <ele>1916.800048828125</ele>
        <time>2026-09-03T08:11:36.000Z</time>
        <extensions>
          <ns3:TrackPointExtension>
            <ns3:hr>97</ns3:hr>
            <ns3:cad>83</ns3:cad>
          </ns3:TrackPointExtension>
        </extensions>
      </trkpt>
      <trkpt lat="44.67841990292072296142578125" lon="6.77325778640806674957275390625">
        <ele>1916.4000244140625</ele>
        <time>2026-09-03T08:11:37.000Z</time>
        <extensions>
          <ns3:TrackPointExtension>
            <ns3:hr>97</ns3:hr>
            <ns3:cad>78</ns3:cad>
          </ns3:TrackPointExtension>
        </extensions>
      </trkpt>
      <trkpt lat="44.6784331463277339935302734375" lon="6.7732384242117404937744140625">
        <ele>1915.800048828125</ele>
        <time>2026-09-03T08:11:38.000Z</time>
        <extensions>
          <ns3:TrackPointExtension>
            <ns3:hr>97</ns3:hr>
            <ns3:cad>76</ns3:cad>
          </ns3:TrackPointExtension>
        </extensions>
      </trkpt>
      <trkpt lat="44.67844404280185699462890625" lon="6.773218810558319091796875">
        <ele>1915.4000244140625</ele>
        <time>2026-09-03T08:11:39.000Z</time>
        <extensions>
          <ns3:TrackPointExtension>
            <ns3:hr>97</ns3:hr>
            <ns3:cad>76</ns3:cad>
          </ns3:TrackPointExtension>
        </extensions>
      </trkpt>
      <trkpt lat="44.678463824093341827392578125" lon="6.77320162765681743621826171875">
        <ele>1915.199951171875</ele>
        <time>2026-09-03T08:11:40.000Z</time>
        <extensions>
          <ns3:TrackPointExtension>
            <ns3:hr>97</ns3:hr>
            <ns3:cad>80</ns3:cad>
          </ns3:TrackPointExtension>
        </extensions>
      </trkpt>
      <trkpt lat="44.67848234809935092926025390625" lon="6.7731955088675022125244140625">
        <ele>1915</ele>
        <time>2026-09-03T08:11:41.000Z</time>
        <extensions>
          <ns3:TrackPointExtension>
            <ns3:hr>97</ns3:hr>
            <ns3:cad>81</ns3:cad>
          </ns3:TrackPointExtension>
        </extensions>
      </trkpt>
      <trkpt lat="44.67850036919116973876953125" lon="6.77319911308586597442626953125">
        <ele>1914.800048828125</ele>
        <time>2026-09-03T08:11:42.000Z</time>
        <extensions>
          <ns3:TrackPointExtension>
            <ns3:hr>98</ns3:hr>
            <ns3:cad>80</ns3:cad>
          </ns3:TrackPointExtension>
        </extensions>
      </trkpt>
      <trkpt lat="44.6785169653594493865966796875" lon="6.7732075788080692291259765625">
        <ele>1914.800048828125</ele>
        <time>2026-09-03T08:11:43.000Z</time>
        <extensions>
          <ns3:TrackPointExtension>
            <ns3:hr>98</ns3:hr>
            <ns3:cad>79</ns3:cad>
          </ns3:TrackPointExtension>
        </extensions>
      </trkpt>
      <trkpt lat="44.678526185452938079833984375" lon="6.77320741117000579833984375">
        <ele>1914.5999755859375</ele>
        <time>2026-09-03T08:11:44.000Z</time>
        <extensions>
          <ns3:TrackPointExtension>
            <ns3:hr>99</ns3:hr>
            <ns3:cad>79</ns3:cad>
          </ns3:TrackPointExtension>
        </extensions>
      </trkpt>
      <trkpt lat="44.67852476052939891815185546875" lon="6.77319693379104137420654296875">
        <ele>1914.4000244140625</ele>
        <time>2026-09-03T08:11:45.000Z</time>
        <extensions>
          <ns3:TrackPointExtension>
            <ns3:hr>99</ns3:hr>
            <ns3:cad>79</ns3:cad>
          </ns3:TrackPointExtension>
        </extensions>
      </trkpt>
      <trkpt lat="44.67851621098816394805908203125" lon="6.7731804214417934417724609375">
        <ele>1914.199951171875</ele>
        <time>2026-09-03T08:11:46.000Z</time>
        <extensions>
          <ns3:TrackPointExtension>
            <ns3:hr>99</ns3:hr>
            <ns3:cad>79</ns3:cad>
          </ns3:TrackPointExtension>
        </extensions>
      </trkpt>
      <trkpt lat="44.678506739437580108642578125" lon="6.7731753922998905181884765625">
        <ele>1913.800048828125</ele>
        <time>2026-09-03T08:11:47.000Z</time>
        <extensions>
          <ns3:TrackPointExtension>
            <ns3:hr>100</ns3:hr>
            <ns3:cad>79</ns3:cad>
          </ns3:TrackPointExtension>
        </extensions>
      </trkpt>
      <trkpt lat="44.67849676497280597686767578125" lon="6.77316986024379730224609375">
        <ele>1913.5999755859375</ele>
        <time>2026-09-03T08:11:48.000Z</time>
        <extensions>
          <ns3:TrackPointExtension>
            <ns3:hr>100</ns3:hr>
            <ns3:cad>79</ns3:cad>
          </ns3:TrackPointExtension>
        </extensions>
      </trkpt>
      <trkpt lat="44.678487293422222137451171875" lon="6.77315913140773773193359375">
        <ele>1913.199951171875</ele>
        <time>2026-09-03T08:11:49.000Z</time>
        <extensions>
          <ns3:TrackPointExtension>
            <ns3:hr>101</ns3:hr>
            <ns3:cad>79</ns3:cad>
          </ns3:TrackPointExtension>
        </extensions>
      </trkpt>
      <trkpt lat="44.6784901432693004608154296875" lon="6.7731512524187564849853515625">
        <ele>1913</ele>
        <time>2026-09-03T08:11:50.000Z</time>
        <extensions>
          <ns3:TrackPointExtension>
            <ns3:hr>101</ns3:hr>
            <ns3:cad>79</ns3:cad>
          </ns3:TrackPointExtension>
        </extensions>
      </trkpt>
      <trkpt lat="44.67849726788699626922607421875" lon="6.77313792519271373748779296875">
        <ele>1912.5999755859375</ele>
        <time>2026-09-03T08:11:51.000Z</time>
        <extensions>
          <ns3:TrackPointExtension>
            <ns3:hr>102</ns3:hr>
            <ns3:cad>79</ns3:cad>
          </ns3:TrackPointExtension>
        </extensions>
      </trkpt>
      <trkpt lat="44.6785112656652927398681640625" lon="6.77314169704914093017578125">
        <ele>1912.4000244140625</ele>
        <time>2026-09-03T08:11:52.000Z</time>
        <extensions>
          <ns3:TrackPointExtension>
            <ns3:hr>102</ns3:hr>
            <ns3:cad>79</ns3:cad>
          </ns3:TrackPointExtension>
        </extensions>
      </trkpt>
      <trkpt lat="44.67852182686328887939453125" lon="6.7731425352394580841064453125">
        <ele>1912</ele>
        <time>2026-09-03T08:11:53.000Z</time>
        <extensions>
          <ns3:TrackPointExtension>
            <ns3:hr>102</ns3:hr>
            <ns3:cad>75</ns3:cad>
          </ns3:TrackPointExtension>
        </extensions>
      </trkpt>
      <trkpt lat="44.67853347770869731903076171875" lon="6.773146726191043853759765625">
        <ele>1911.5999755859375</ele>
        <time>2026-09-03T08:11:54.000Z</time>
        <extensions>
          <ns3:TrackPointExtension>
            <ns3:hr>101</ns3:hr>
            <ns3:cad>75</ns3:cad>
          </ns3:TrackPointExtension>
        </extensions>
      </trkpt>
      <trkpt lat="44.678541608154773712158203125" lon="6.77314328961074352264404296875">
        <ele>1911.199951171875</ele>
        <time>2026-09-03T08:11:55.000Z</time>
        <extensions>
          <ns3:TrackPointExtension>
            <ns3:hr>101</ns3:hr>
            <ns3:cad>79</ns3:cad>
          </ns3:TrackPointExtension>
        </extensions>
      </trkpt>
      <trkpt lat="44.6785343997180461883544921875" lon="6.773133315145969390869140625">
        <ele>1910.800048828125</ele>
        <time>2026-09-03T08:11:56.000Z</time>
        <extensions>
          <ns3:TrackPointExtension>
            <ns3:hr>101</ns3:hr>
            <ns3:cad>79</ns3:cad>
          </ns3:TrackPointExtension>
        </extensions>
      </trkpt>
      <trkpt lat="44.67852811329066753387451171875" lon="6.7731247656047344207763671875">
        <ele>1910.5999755859375</ele>
        <time>2026-09-03T08:11:57.000Z</time>
        <extensions>
          <ns3:TrackPointExtension>
            <ns3:hr>101</ns3:hr>
            <ns3:cad>79</ns3:cad>
          </ns3:TrackPointExtension>
        </extensions>
      </trkpt>
      <trkpt lat="44.67852258123457431793212890625" lon="6.77312317304313182830810546875">
        <ele>1910.199951171875</ele>
        <time>2026-09-03T08:11:58.000Z</time>
        <extensions>
          <ns3:TrackPointExtension>
            <ns3:hr>101</ns3:hr>
            <ns3:cad>78</ns3:cad>
          </ns3:TrackPointExtension>
        </extensions>
      </trkpt>
      <trkpt lat="44.6785116009414196014404296875" lon="6.77312049083411693572998046875">
        <ele>1910</ele>
        <time>2026-09-03T08:11:59.000Z</time>
        <extensions>
          <ns3:TrackPointExtension>
            <ns3:hr>100</ns3:hr>
            <ns3:cad>78</ns3:cad>
          </ns3:TrackPointExtension>
        </extensions>
      </trkpt>
      <trkpt lat="44.67850313521921634674072265625" lon="6.773113198578357696533203125">
        <ele>1909.800048828125</ele>
        <time>2026-09-03T08:12:00.000Z</time>
        <extensions>
          <ns3:TrackPointExtension>
            <ns3:hr>101</ns3:hr>
            <ns3:cad>78</ns3:cad>
          </ns3:TrackPointExtension>
        </extensions>
      </trkpt>
      <trkpt lat="44.67851537279784679412841796875" lon="6.773086376488208770751953125">
        <ele>1909.5999755859375</ele>
        <time>2026-09-03T08:12:01.000Z</time>
        <extensions>
          <ns3:TrackPointExtension>
            <ns3:hr>101</ns3:hr>
            <ns3:cad>78</ns3:cad>
          </ns3:TrackPointExtension>
        </extensions>
      </trkpt>
      <trkpt lat="44.678524844348430633544921875" lon="6.7730833590030670166015625">
        <ele>1909.199951171875</ele>
        <time>2026-09-03T08:12:02.000Z</time>
        <extensions>
          <ns3:TrackPointExtension>
            <ns3:hr>101</ns3:hr>
            <ns3:cad>80</ns3:cad>
          </ns3:TrackPointExtension>
        </extensions>
      </trkpt>
      <trkpt lat="44.67853398062288761138916015625" lon="6.7730771563947200775146484375">
        <ele>1909</ele>
        <time>2026-09-03T08:12:03.000Z</time>
        <extensions>
          <ns3:TrackPointExtension>
            <ns3:hr>101</ns3:hr>
            <ns3:cad>80</ns3:cad>
          </ns3:TrackPointExtension>
        </extensions>
      </trkpt>
      <trkpt lat="44.6785424463450908660888671875" lon="6.7730761505663394927978515625">
        <ele>1908.5999755859375</ele>
        <time>2026-09-03T08:12:04.000Z</time>
        <extensions>
          <ns3:TrackPointExtension>
            <ns3:hr>101</ns3:hr>
            <ns3:cad>80</ns3:cad>
          </ns3:TrackPointExtension>
        </extensions>
      </trkpt>
      <trkpt lat="44.67855133116245269775390625" lon="6.7730701155960559844970703125">
        <ele>1908.199951171875</ele>
        <time>2026-09-03T08:12:05.000Z</time>
        <extensions>
          <ns3:TrackPointExtension>
            <ns3:hr>101</ns3:hr>
            <ns3:cad>80</ns3:cad>
          </ns3:TrackPointExtension>
        </extensions>
      </trkpt>
      <trkpt lat="44.6785484813153743743896484375" lon="6.77306282334029674530029296875">
        <ele>1908</ele>
        <time>2026-09-03T08:12:06.000Z</time>
        <extensions>
          <ns3:TrackPointExtension>
            <ns3:hr>100</ns3:hr>
            <ns3:cad>80</ns3:cad>
          </ns3:TrackPointExtension>
        </extensions>
      </trkpt>
      <trkpt lat="44.67853968031704425811767578125" lon="6.773064248263835906982421875">
        <ele>1907.5999755859375</ele>
        <time>2026-09-03T08:12:07.000Z</time>
        <extensions>
          <ns3:TrackPointExtension>
            <ns3:hr>100</ns3:hr>
            <ns3:cad>80</ns3:cad>
          </ns3:TrackPointExtension>
        </extensions>
      </trkpt>
      <trkpt lat="44.67853096313774585723876953125" lon="6.77306332625448703765869140625">
        <ele>1907.4000244140625</ele>
        <time>2026-09-03T08:12:08.000Z</time>
        <extensions>
          <ns3:TrackPointExtension>
            <ns3:hr>101</ns3:hr>
            <ns3:cad>80</ns3:cad>
          </ns3:TrackPointExtension>
        </extensions>
      </trkpt>
      <trkpt lat="44.67851855792105197906494140625" lon="6.7730645835399627685546875">
        <ele>1907</ele>
        <time>2026-09-03T08:12:09.000Z</time>
        <extensions>
          <ns3:TrackPointExtension>
            <ns3:hr>101</ns3:hr>
            <ns3:cad>80</ns3:cad>
          </ns3:TrackPointExtension>
        </extensions>
      </trkpt>
      <trkpt lat="44.67850816436111927032470703125" lon="6.7730613984167575836181640625">
        <ele>1906.5999755859375</ele>
        <time>2026-09-03T08:12:10.000Z</time>
        <extensions>
          <ns3:TrackPointExtension>
            <ns3:hr>103</ns3:hr>
            <ns3:cad>80</ns3:cad>
          </ns3:TrackPointExtension>
        </extensions>
      </trkpt>
      <trkpt lat="44.6784956753253936767578125" lon="6.77305729128420352935791015625">
        <ele>1906.4000244140625</ele>
        <time>2026-09-03T08:12:11.000Z</time>
        <extensions>
          <ns3:TrackPointExtension>
            <ns3:hr>105</ns3:hr>
            <ns3:cad>77</ns3:cad>
          </ns3:TrackPointExtension>
        </extensions>
      </trkpt>
      <trkpt lat="44.67848201282322406768798828125" lon="6.7730605602264404296875">
        <ele>1906</ele>
        <time>2026-09-03T08:12:12.000Z</time>
        <extensions>
          <ns3:TrackPointExtension>
            <ns3:hr>105</ns3:hr>
            <ns3:cad>77</ns3:cad>
          </ns3:TrackPointExtension>
        </extensions>
      </trkpt>
      <trkpt lat="44.67847061343491077423095703125" lon="6.77306198514997959136962890625">
        <ele>1905.800048828125</ele>
        <time>2026-09-03T08:12:13.000Z</time>
        <extensions>
          <ns3:TrackPointExtension>
            <ns3:hr>107</ns3:hr>
            <ns3:cad>80</ns3:cad>
          </ns3:TrackPointExtension>
        </extensions>
      </trkpt>
      <trkpt lat="44.678455777466297149658203125" lon="6.773056872189044952392578125">
        <ele>1905.5999755859375</ele>
        <time>2026-09-03T08:12:14.000Z</time>
        <extensions>
          <ns3:TrackPointExtension>
            <ns3:hr>108</ns3:hr>
            <ns3:cad>80</ns3:cad>
          </ns3:TrackPointExtension>
        </extensions>
      </trkpt>
      <trkpt lat="44.67845334671437740325927734375" lon="6.7730446346104145050048828125">
        <ele>1905.4000244140625</ele>
        <time>2026-09-03T08:12:15.000Z</time>
        <extensions>
          <ns3:TrackPointExtension>
            <ns3:hr>110</ns3:hr>
            <ns3:cad>80</ns3:cad>
          </ns3:TrackPointExtension>
        </extensions>
      </trkpt>
      <trkpt lat="44.67846508137881755828857421875" lon="6.77303306758403778076171875">
        <ele>1905.199951171875</ele>
        <time>2026-09-03T08:12:16.000Z</time>
        <extensions>
          <ns3:TrackPointExtension>
            <ns3:hr>110</ns3:hr>
            <ns3:cad>80</ns3:cad>
          </ns3:TrackPointExtension>
        </extensions>
      </trkpt>
      <trkpt lat="44.6784794144332408905029296875" lon="6.77302493713796138763427734375">
        <ele>1904.800048828125</ele>
        <time>2026-09-03T08:12:17.000Z</time>
        <extensions>
          <ns3:TrackPointExtension>
            <ns3:hr>110</ns3:hr>
            <ns3:cad>80</ns3:cad>
          </ns3:TrackPointExtension>
        </extensions>
      </trkpt>
      <trkpt lat="44.67848989181220531463623046875" lon="6.77301303483545780181884765625">
        <ele>1904.4000244140625</ele>
        <time>2026-09-03T08:12:18.000Z</time>
        <extensions>
          <ns3:TrackPointExtension>
            <ns3:hr>109</ns3:hr>
            <ns3:cad>80</ns3:cad>
          </ns3:TrackPointExtension>
        </extensions>
      </trkpt>
      <trkpt lat="44.67850481159985065460205078125" lon="6.7730020545423030853271484375">
        <ele>1904.199951171875</ele>
        <time>2026-09-03T08:12:19.000Z</time>
        <extensions>
          <ns3:TrackPointExtension>
            <ns3:hr>109</ns3:hr>
            <ns3:cad>80</ns3:cad>
          </ns3:TrackPointExtension>
        </extensions>
      </trkpt>
      <trkpt lat="44.678510762751102447509765625" lon="6.7729854583740234375">
        <ele>1903.800048828125</ele>
        <time>2026-09-03T08:12:20.000Z</time>
        <extensions>
          <ns3:TrackPointExtension>
            <ns3:hr>108</ns3:hr>
            <ns3:cad>80</ns3:cad>
          </ns3:TrackPointExtension>
        </extensions>
      </trkpt>
      <trkpt lat="44.67851352877914905548095703125" lon="6.77297514863312244415283203125">
        <ele>1903.5999755859375</ele>
        <time>2026-09-03T08:12:21.000Z</time>
        <extensions>
          <ns3:TrackPointExtension>
            <ns3:hr>108</ns3:hr>
            <ns3:cad>80</ns3:cad>
          </ns3:TrackPointExtension>
        </extensions>
      </trkpt>
      <trkpt lat="44.67851302586495876312255859375" lon="6.77296257577836513519287109375">
        <ele>1903.4000244140625</ele>
        <time>2026-09-03T08:12:22.000Z</time>
        <extensions>
          <ns3:TrackPointExtension>
            <ns3:hr>108</ns3:hr>
            <ns3:cad>79</ns3:cad>
          </ns3:TrackPointExtension>
        </extensions>
      </trkpt>
      <trkpt lat="44.67852107249200344085693359375" lon="6.7729470692574977874755859375">
        <ele>1903</ele>
        <time>2026-09-03T08:12:23.000Z</time>
        <extensions>
          <ns3:TrackPointExtension>
            <ns3:hr>107</ns3:hr>
            <ns3:cad>79</ns3:cad>
          </ns3:TrackPointExtension>
        </extensions>
      </trkpt>
      <trkpt lat="44.67853180132806301116943359375" lon="6.772942878305912017822265625">
        <ele>1902.800048828125</ele>
        <time>2026-09-03T08:12:24.000Z</time>
        <extensions>
          <ns3:TrackPointExtension>
            <ns3:hr>107</ns3:hr>
            <ns3:cad>79</ns3:cad>
          </ns3:TrackPointExtension>
        </extensions>
      </trkpt>
      <trkpt lat="44.67854085378348827362060546875" lon="6.7729403637349605560302734375">
        <ele>1902.5999755859375</ele>
        <time>2026-09-03T08:12:25.000Z</time>
        <extensions>
          <ns3:TrackPointExtension>
            <ns3:hr>108</ns3:hr>
            <ns3:cad>79</ns3:cad>
          </ns3:TrackPointExtension>
        </extensions>
      </trkpt>
      <trkpt lat="44.67855258844792842864990234375" lon="6.7729373462498188018798828125">
        <ele>1902.199951171875</ele>
        <time>2026-09-03T08:12:26.000Z</time>
        <extensions>
          <ns3:TrackPointExtension>
            <ns3:hr>108</ns3:hr>
            <ns3:cad>79</ns3:cad>
          </ns3:TrackPointExtension>
        </extensions>
      </trkpt>
      <trkpt lat="44.67856046743690967559814453125" lon="6.77293525077402591705322265625">
        <ele>1901.800048828125</ele>
        <time>2026-09-03T08:12:27.000Z</time>
        <extensions>
          <ns3:TrackPointExtension>
            <ns3:hr>107</ns3:hr>
            <ns3:cad>79</ns3:cad>
          </ns3:TrackPointExtension>
        </extensions>
      </trkpt>
      <trkpt lat="44.6785672567784786224365234375" lon="6.77293273620307445526123046875">
        <ele>1901.4000244140625</ele>
        <time>2026-09-03T08:12:28.000Z</time>
        <extensions>
          <ns3:TrackPointExtension>
            <ns3:hr>107</ns3:hr>
            <ns3:cad>79</ns3:cad>
          </ns3:TrackPointExtension>
        </extensions>
      </trkpt>
      <trkpt lat="44.67857773415744304656982421875" lon="6.772934161126613616943359375">
        <ele>1901.199951171875</ele>
        <time>2026-09-03T08:12:29.000Z</time>
        <extensions>
          <ns3:TrackPointExtension>
            <ns3:hr>107</ns3:hr>
            <ns3:cad>79</ns3:cad>
          </ns3:TrackPointExtension>
        </extensions>
      </trkpt>
      <trkpt lat="44.67858745716512203216552734375" lon="6.77292577922344207763671875">
        <ele>1900.800048828125</ele>
        <time>2026-09-03T08:12:30.000Z</time>
        <extensions>
          <ns3:TrackPointExtension>
            <ns3:hr>106</ns3:hr>
            <ns3:cad>79</ns3:cad>
          </ns3:TrackPointExtension>
        </extensions>
      </trkpt>
      <trkpt lat="44.6785954199731349945068359375" lon="6.7729172296822071075439453125">
        <ele>1900.5999755859375</ele>
        <time>2026-09-03T08:12:31.000Z</time>
        <extensions>
          <ns3:TrackPointExtension>
            <ns3:hr>106</ns3:hr>
            <ns3:cad>79</ns3:cad>
          </ns3:TrackPointExtension>
        </extensions>
      </trkpt>
      <trkpt lat="44.67859248630702495574951171875" lon="6.7729135416448116302490234375">
        <ele>1900.199951171875</ele>
        <time>2026-09-03T08:12:32.000Z</time>
        <extensions>
          <ns3:TrackPointExtension>
            <ns3:hr>106</ns3:hr>
            <ns3:cad>79</ns3:cad>
          </ns3:TrackPointExtension>
        </extensions>
      </trkpt>
      <trkpt lat="44.67858980409801006317138671875" lon="6.77291094325482845306396484375">
        <ele>1900</ele>
        <time>2026-09-03T08:12:33.000Z</time>
        <extensions>
          <ns3:TrackPointExtension>
            <ns3:hr>106</ns3:hr>
            <ns3:cad>79</ns3:cad>
          </ns3:TrackPointExtension>
        </extensions>
      </trkpt>
      <trkpt lat="44.67858242802321910858154296875" lon="6.772885210812091827392578125">
        <ele>1899.800048828125</ele>
        <time>2026-09-03T08:12:34.000Z</time>
        <extensions>
          <ns3:TrackPointExtension>
            <ns3:hr>106</ns3:hr>
            <ns3:cad>79</ns3:cad>
          </ns3:TrackPointExtension>
        </extensions>
      </trkpt>
      <trkpt lat="44.67857639305293560028076171875" lon="6.772873811423778533935546875">
        <ele>1899.5999755859375</ele>
        <time>2026-09-03T08:12:35.000Z</time>
        <extensions>
          <ns3:TrackPointExtension>
            <ns3:hr>106</ns3:hr>
            <ns3:cad>79</ns3:cad>
          </ns3:TrackPointExtension>
        </extensions>
      </trkpt>
      <trkpt lat="44.67856583185493946075439453125" lon="6.7728625796735286712646484375">
        <ele>1899.199951171875</ele>
        <time>2026-09-03T08:12:36.000Z</time>
        <extensions>
          <ns3:TrackPointExtension>
            <ns3:hr>105</ns3:hr>
            <ns3:cad>79</ns3:cad>
          </ns3:TrackPointExtension>
        </extensions>
      </trkpt>
      <trkpt lat="44.67854940332472324371337890625" lon="6.77286366932094097137451171875">
        <ele>1899</ele>
        <time>2026-09-03T08:12:37.000Z</time>
        <extensions>
          <ns3:TrackPointExtension>
            <ns3:hr>105</ns3:hr>
            <ns3:cad>83</ns3:cad>
          </ns3:TrackPointExtension>
        </extensions>
      </trkpt>
      <trkpt lat="44.6785330586135387420654296875" lon="6.77286098711192607879638671875">
        <ele>1898.800048828125</ele>
        <time>2026-09-03T08:12:38.000Z</time>
        <extensions>
          <ns3:TrackPointExtension>
            <ns3:hr>106</ns3:hr>
            <ns3:cad>83</ns3:cad>
          </ns3:TrackPointExtension>
        </extensions>
      </trkpt>
      <trkpt lat="44.67852140776813030242919921875" lon="6.77286299876868724822998046875">
        <ele>1898.199951171875</ele>
        <time>2026-09-03T08:12:39.000Z</time>
        <extensions>
          <ns3:TrackPointExtension>
            <ns3:hr>106</ns3:hr>
            <ns3:cad>83</ns3:cad>
          </ns3:TrackPointExtension>
        </extensions>
      </trkpt>
      <trkpt lat="44.678504727780818939208984375" lon="6.77286299876868724822998046875">
        <ele>1898</ele>
        <time>2026-09-03T08:12:40.000Z</time>
        <extensions>
          <ns3:TrackPointExtension>
            <ns3:hr>106</ns3:hr>
            <ns3:cad>81</ns3:cad>
          </ns3:TrackPointExtension>
        </extensions>
      </trkpt>
      <trkpt lat="44.678487293422222137451171875" lon="6.77286936901509761810302734375">
        <ele>1897.5999755859375</ele>
        <time>2026-09-03T08:12:41.000Z</time>
        <extensions>
          <ns3:TrackPointExtension>
            <ns3:hr>105</ns3:hr>
            <ns3:cad>81</ns3:cad>
          </ns3:TrackPointExtension>
        </extensions>
      </trkpt>
      <trkpt lat="44.67847128398716449737548828125" lon="6.77287305705249309539794921875">
        <ele>1897</ele>
        <time>2026-09-03T08:12:42.000Z</time>
        <extensions>
          <ns3:TrackPointExtension>
            <ns3:hr>106</ns3:hr>
            <ns3:cad>83</ns3:cad>
          </ns3:TrackPointExtension>
        </extensions>
      </trkpt>
      <trkpt lat="44.67845284380018711090087890625" lon="6.77287079393863677978515625">
        <ele>1896.5999755859375</ele>
        <time>2026-09-03T08:12:43.000Z</time>
        <extensions>
          <ns3:TrackPointExtension>
            <ns3:hr>106</ns3:hr>
            <ns3:cad>83</ns3:cad>
          </ns3:TrackPointExtension>
        </extensions>
      </trkpt>
      <trkpt lat="44.67844211496412754058837890625" lon="6.7728749848902225494384765625">
        <ele>1896</ele>
        <time>2026-09-03T08:12:44.000Z</time>
        <extensions>
          <ns3:TrackPointExtension>
            <ns3:hr>106</ns3:hr>
            <ns3:cad>83</ns3:cad>
          </ns3:TrackPointExtension>
        </extensions>
      </trkpt>
      <trkpt lat="44.67842199839651584625244140625" lon="6.77288286387920379638671875">
        <ele>1895.5999755859375</ele>
        <time>2026-09-03T08:12:45.000Z</time>
        <extensions>
          <ns3:TrackPointExtension>
            <ns3:hr>106</ns3:hr>
            <ns3:cad>85</ns3:cad>
          </ns3:TrackPointExtension>
        </extensions>
      </trkpt>
      <trkpt lat="44.6784026362001895904541015625" lon="6.77289719693362712860107421875">
        <ele>1895.4000244140625</ele>
        <time>2026-09-03T08:12:46.000Z</time>
        <extensions>
          <ns3:TrackPointExtension>
            <ns3:hr>105</ns3:hr>
            <ns3:cad>86</ns3:cad>
          </ns3:TrackPointExtension>
        </extensions>
      </trkpt>
      <trkpt lat="44.67838914133608341217041015625" lon="6.77290608175098896026611328125">
        <ele>1895</ele>
        <time>2026-09-03T08:12:47.000Z</time>
        <extensions>
          <ns3:TrackPointExtension>
            <ns3:hr>105</ns3:hr>
            <ns3:cad>87</ns3:cad>
          </ns3:TrackPointExtension>
        </extensions>
      </trkpt>
      <trkpt lat="44.6783781610429286956787109375" lon="6.77291714586317539215087890625">
        <ele>1894.800048828125</ele>
        <time>2026-09-03T08:12:48.000Z</time>
        <extensions>
          <ns3:TrackPointExtension>
            <ns3:hr>104</ns3:hr>
            <ns3:cad>87</ns3:cad>
          </ns3:TrackPointExtension>
        </extensions>
      </trkpt>
      <trkpt lat="44.67836148105561733245849609375" lon="6.77291781641542911529541015625">
        <ele>1894.5999755859375</ele>
        <time>2026-09-03T08:12:49.000Z</time>
        <extensions>
          <ns3:TrackPointExtension>
            <ns3:hr>105</ns3:hr>
            <ns3:cad>87</ns3:cad>
          </ns3:TrackPointExtension>
        </extensions>
      </trkpt>
      <trkpt lat="44.67834589071571826934814453125" lon="6.772925443947315216064453125">
        <ele>1894.199951171875</ele>
        <time>2026-09-03T08:12:50.000Z</time>
        <extensions>
          <ns3:TrackPointExtension>
            <ns3:hr>105</ns3:hr>
            <ns3:cad>83</ns3:cad>
          </ns3:TrackPointExtension>
        </extensions>
      </trkpt>
      <trkpt lat="44.678326360881328582763671875" lon="6.7729128710925579071044921875">
        <ele>1893.800048828125</ele>
        <time>2026-09-03T08:12:51.000Z</time>
        <extensions>
          <ns3:TrackPointExtension>
            <ns3:hr>106</ns3:hr>
            <ns3:cad>83</ns3:cad>
          </ns3:TrackPointExtension>
        </extensions>
      </trkpt>
      <trkpt lat="44.67831755988299846649169921875" lon="6.7728982865810394287109375">
        <ele>1893.5999755859375</ele>
        <time>2026-09-03T08:12:52.000Z</time>
        <extensions>
          <ns3:TrackPointExtension>
            <ns3:hr>106</ns3:hr>
            <ns3:cad>83</ns3:cad>
          </ns3:TrackPointExtension>
        </extensions>
      </trkpt>
      <trkpt lat="44.678322337567806243896484375" lon="6.772888563573360443115234375">
        <ele>1893.199951171875</ele>
        <time>2026-09-03T08:12:53.000Z</time>
        <extensions>
          <ns3:TrackPointExtension>
            <ns3:hr>107</ns3:hr>
            <ns3:cad>83</ns3:cad>
          </ns3:TrackPointExtension>
        </extensions>
      </trkpt>
      <trkpt lat="44.67833516187965869903564453125" lon="6.772876493632793426513671875">
        <ele>1892.800048828125</ele>
        <time>2026-09-03T08:12:54.000Z</time>
        <extensions>
          <ns3:TrackPointExtension>
            <ns3:hr>106</ns3:hr>
            <ns3:cad>83</ns3:cad>
          </ns3:TrackPointExtension>
        </extensions>
      </trkpt>
      <trkpt lat="44.67834438197314739227294921875" lon="6.77286542952060699462890625">
        <ele>1892.199951171875</ele>
        <time>2026-09-03T08:12:55.000Z</time>
        <extensions>
          <ns3:TrackPointExtension>
            <ns3:hr>105</ns3:hr>
            <ns3:cad>83</ns3:cad>
          </ns3:TrackPointExtension>
        </extensions>
      </trkpt>
      <trkpt lat="44.67835008166730403900146484375" lon="6.77285109646618366241455078125">
        <ele>1891.800048828125</ele>
        <time>2026-09-03T08:12:56.000Z</time>
        <extensions>
          <ns3:TrackPointExtension>
            <ns3:hr>104</ns3:hr>
            <ns3:cad>83</ns3:cad>
          </ns3:TrackPointExtension>
        </extensions>
      </trkpt>
      <trkpt lat="44.67835485935211181640625" lon="6.7728344164788722991943359375">
        <ele>1891.199951171875</ele>
        <time>2026-09-03T08:12:57.000Z</time>
        <extensions>
          <ns3:TrackPointExtension>
            <ns3:hr>103</ns3:hr>
            <ns3:cad>83</ns3:cad>
          </ns3:TrackPointExtension>
        </extensions>
      </trkpt>
      <trkpt lat="44.67835729010403156280517578125" lon="6.77282662130892276763916015625">
        <ele>1890.800048828125</ele>
        <time>2026-09-03T08:12:58.000Z</time>
        <extensions>
          <ns3:TrackPointExtension>
            <ns3:hr>102</ns3:hr>
            <ns3:cad>83</ns3:cad>
          </ns3:TrackPointExtension>
        </extensions>
      </trkpt>
      <trkpt lat="44.67835846357047557830810546875" lon="6.77282008342444896697998046875">
        <ele>1890.4000244140625</ele>
        <time>2026-09-03T08:12:59.000Z</time>
        <extensions>
          <ns3:TrackPointExtension>
            <ns3:hr>101</ns3:hr>
            <ns3:cad>84</ns3:cad>
          </ns3:TrackPointExtension>
        </extensions>
      </trkpt>
      <trkpt lat="44.6783587150275707244873046875" lon="6.772816814482212066650390625">
        <ele>1890</ele>
        <time>2026-09-03T08:13:00.000Z</time>
        <extensions>
          <ns3:TrackPointExtension>
            <ns3:hr>100</ns3:hr>
            <ns3:cad>84</ns3:cad>
          </ns3:TrackPointExtension>
        </extensions>
      </trkpt>
      <trkpt lat="44.67836265452206134796142578125" lon="6.77280968986451625823974609375">
        <ele>1889.800048828125</ele>
        <time>2026-09-03T08:13:01.000Z</time>
        <extensions>
          <ns3:TrackPointExtension>
            <ns3:hr>100</ns3:hr>
            <ns3:cad>48</ns3:cad>
          </ns3:TrackPointExtension>
        </extensions>
      </trkpt>
      <trkpt lat="44.678363911807537078857421875" lon="6.77279837429523468017578125">
        <ele>1889.800048828125</ele>
        <time>2026-09-03T08:13:02.000Z</time>
        <extensions>
          <ns3:TrackPointExtension>
            <ns3:hr>99</ns3:hr>
            <ns3:cad>48</ns3:cad>
          </ns3:TrackPointExtension>
        </extensions>
      </trkpt>
      <trkpt lat="44.6783650852739810943603515625" lon="6.772790662944316864013671875">
        <ele>1889.5999755859375</ele>
        <time>2026-09-03T08:13:03.000Z</time>
        <extensions>
          <ns3:TrackPointExtension>
            <ns3:hr>99</ns3:hr>
            <ns3:cad>79</ns3:cad>
          </ns3:TrackPointExtension>
        </extensions>
      </trkpt>
      <trkpt lat="44.67837003059685230255126953125" lon="6.7727676965296268463134765625">
        <ele>1889.5999755859375</ele>
        <time>2026-09-03T08:13:04.000Z</time>
        <extensions>
          <ns3:TrackPointExtension>
            <ns3:hr>99</ns3:hr>
            <ns3:cad>79</ns3:cad>
          </ns3:TrackPointExtension>
        </extensions>
      </trkpt>
      <trkpt lat="44.67837908305227756500244140625" lon="6.7727556265890598297119140625">
        <ele>1889.5999755859375</ele>
        <time>2026-09-03T08:13:05.000Z</time>
        <extensions>
          <ns3:TrackPointExtension>
            <ns3:hr>98</ns3:hr>
            <ns3:cad>79</ns3:cad>
          </ns3:TrackPointExtension>
        </extensions>
      </trkpt>
      <trkpt lat="44.67838126234710216522216796875" lon="6.77274246700108051300048828125">
        <ele>1889.4000244140625</ele>
        <time>2026-09-03T08:13:06.000Z</time>
        <extensions>
          <ns3:TrackPointExtension>
            <ns3:hr>98</ns3:hr>
            <ns3:cad>71</ns3:cad>
          </ns3:TrackPointExtension>
        </extensions>
      </trkpt>
      <trkpt lat="44.67838444747030735015869140625" lon="6.7727261222898960113525390625">
        <ele>1889</ele>
        <time>2026-09-03T08:13:07.000Z</time>
        <extensions>
          <ns3:TrackPointExtension>
            <ns3:hr>98</ns3:hr>
            <ns3:cad>71</ns3:cad>
          </ns3:TrackPointExtension>
        </extensions>
      </trkpt>
      <trkpt lat="44.6783803403377532958984375" lon="6.77271254360675811767578125">
        <ele>1888.5999755859375</ele>
        <time>2026-09-03T08:13:08.000Z</time>
        <extensions>
          <ns3:TrackPointExtension>
            <ns3:hr>97</ns3:hr>
            <ns3:cad>71</ns3:cad>
          </ns3:TrackPointExtension>
        </extensions>
      </trkpt>
      <trkpt lat="44.67837355099618434906005859375" lon="6.77270776592195034027099609375">
        <ele>1888.199951171875</ele>
        <time>2026-09-03T08:13:09.000Z</time>
        <extensions>
          <ns3:TrackPointExtension>
            <ns3:hr>96</ns3:hr>
            <ns3:cad>71</ns3:cad>
          </ns3:TrackPointExtension>
        </extensions>
      </trkpt>
      <trkpt lat="44.67836617492139339447021484375" lon="6.77270692773163318634033203125">
        <ele>1887.800048828125</ele>
        <time>2026-09-03T08:13:10.000Z</time>
        <extensions>
          <ns3:TrackPointExtension>
            <ns3:hr>96</ns3:hr>
            <ns3:cad>71</ns3:cad>
          </ns3:TrackPointExtension>
        </extensions>
      </trkpt>
      <trkpt lat="44.678355865180492401123046875" lon="6.77271899767220020294189453125">
        <ele>1887.4000244140625</ele>
        <time>2026-09-03T08:13:11.000Z</time>
        <extensions>
          <ns3:TrackPointExtension>
            <ns3:hr>96</ns3:hr>
            <ns3:cad>71</ns3:cad>
          </ns3:TrackPointExtension>
        </extensions>
      </trkpt>
      <trkpt lat="44.6783426217734813690185546875" lon="6.77272737957537174224853515625">
        <ele>1887</ele>
        <time>2026-09-03T08:13:12.000Z</time>
        <extensions>
          <ns3:TrackPointExtension>
            <ns3:hr>96</ns3:hr>
            <ns3:cad>66</ns3:cad>
          </ns3:TrackPointExtension>
        </extensions>
      </trkpt>
      <trkpt lat="44.6783315576612949371337890625" lon="6.77273307926952838897705078125">
        <ele>1886.5999755859375</ele>
        <time>2026-09-03T08:13:13.000Z</time>
        <extensions>
          <ns3:TrackPointExtension>
            <ns3:hr>96</ns3:hr>
            <ns3:cad>66</ns3:cad>
          </ns3:TrackPointExtension>
        </extensions>
      </trkpt>
      <trkpt lat="44.67831437475979328155517578125" lon="6.7727358452975749969482421875">
        <ele>1886.199951171875</ele>
        <time>2026-09-03T08:13:14.000Z</time>
        <extensions>
          <ns3:TrackPointExtension>
            <ns3:hr>95</ns3:hr>
            <ns3:cad>83</ns3:cad>
          </ns3:TrackPointExtension>
        </extensions>
      </trkpt>
      <trkpt lat="44.678296186029911041259765625" lon="6.77273240871727466583251953125">
        <ele>1885.5999755859375</ele>
        <time>2026-09-03T08:13:15.000Z</time>
        <extensions>
          <ns3:TrackPointExtension>
            <ns3:hr>96</ns3:hr>
            <ns3:cad>83</ns3:cad>
          </ns3:TrackPointExtension>
        </extensions>
      </trkpt>
      <trkpt lat="44.6782769076526165008544921875" lon="6.77273056469857692718505859375">
        <ele>1885.199951171875</ele>
        <time>2026-09-03T08:13:16.000Z</time>
        <extensions>
          <ns3:TrackPointExtension>
            <ns3:hr>96</ns3:hr>
            <ns3:cad>81</ns3:cad>
          </ns3:TrackPointExtension>
        </extensions>
      </trkpt>
      <trkpt lat="44.67825871892273426055908203125" lon="6.77272637374699115753173828125">
        <ele>1884.800048828125</ele>
        <time>2026-09-03T08:13:17.000Z</time>
        <extensions>
          <ns3:TrackPointExtension>
            <ns3:hr>97</ns3:hr>
            <ns3:cad>81</ns3:cad>
          </ns3:TrackPointExtension>
        </extensions>
      </trkpt>
      <trkpt lat="44.678239859640598297119140625" lon="6.77272402681410312652587890625">
        <ele>1884.5999755859375</ele>
        <time>2026-09-03T08:13:18.000Z</time>
        <extensions>
          <ns3:TrackPointExtension>
            <ns3:hr>97</ns3:hr>
            <ns3:cad>81</ns3:cad>
          </ns3:TrackPointExtension>
        </extensions>
      </trkpt>
      <trkpt lat="44.6782269515097141265869140625" lon="6.7727271281182765960693359375">
        <ele>1884.199951171875</ele>
        <time>2026-09-03T08:13:19.000Z</time>
        <extensions>
          <ns3:TrackPointExtension>
            <ns3:hr>97</ns3:hr>
            <ns3:cad>81</ns3:cad>
          </ns3:TrackPointExtension>
        </extensions>
      </trkpt>
      <trkpt lat="44.67821412719786167144775390625" lon="6.77273408509790897369384765625">
        <ele>1884.199951171875</ele>
        <time>2026-09-03T08:13:20.000Z</time>
        <extensions>
          <ns3:TrackPointExtension>
            <ns3:hr>97</ns3:hr>
            <ns3:cad>81</ns3:cad>
          </ns3:TrackPointExtension>
        </extensions>
      </trkpt>
      <trkpt lat="44.6781981177628040313720703125" lon="6.7727402038872241973876953125">
        <ele>1884</ele>
        <time>2026-09-03T08:13:21.000Z</time>
        <extensions>
          <ns3:TrackPointExtension>
            <ns3:hr>97</ns3:hr>
            <ns3:cad>81</ns3:cad>
          </ns3:TrackPointExtension>
        </extensions>
      </trkpt>
      <trkpt lat="44.67818663455545902252197265625" lon="6.77275118418037891387939453125">
        <ele>1883.800048828125</ele>
        <time>2026-09-03T08:13:22.000Z</time>
        <extensions>
          <ns3:TrackPointExtension>
            <ns3:hr>97</ns3:hr>
            <ns3:cad>81</ns3:cad>
          </ns3:TrackPointExtension>
        </extensions>
      </trkpt>
      <trkpt lat="44.67818026430904865264892578125" lon="6.77275269292294979095458984375">
        <ele>1883.5999755859375</ele>
        <time>2026-09-03T08:13:23.000Z</time>
        <extensions>
          <ns3:TrackPointExtension>
            <ns3:hr>98</ns3:hr>
            <ns3:cad>81</ns3:cad>
          </ns3:TrackPointExtension>
        </extensions>
      </trkpt>
      <trkpt lat="44.6781630814075469970703125" lon="6.772758476436138153076171875">
        <ele>1883.4000244140625</ele>
        <time>2026-09-03T08:13:24.000Z</time>
        <extensions>
          <ns3:TrackPointExtension>
            <ns3:hr>98</ns3:hr>
            <ns3:cad>81</ns3:cad>
          </ns3:TrackPointExtension>
        </extensions>
      </trkpt>
      <trkpt lat="44.6781562082469463348388671875" lon="6.77275990135967731475830078125">
        <ele>1883</ele>
        <time>2026-09-03T08:13:25.000Z</time>
        <extensions>
          <ns3:TrackPointExtension>
            <ns3:hr>98</ns3:hr>
            <ns3:cad>81</ns3:cad>
          </ns3:TrackPointExtension>
        </extensions>
      </trkpt>
      <trkpt lat="44.678146652877330780029296875" lon="6.7727613262832164764404296875">
        <ele>1882.5999755859375</ele>
        <time>2026-09-03T08:13:26.000Z</time>
        <extensions>
          <ns3:TrackPointExtension>
            <ns3:hr>98</ns3:hr>
            <ns3:cad>81</ns3:cad>
          </ns3:TrackPointExtension>
        </extensions>
      </trkpt>
      <trkpt lat="44.678131900727748870849609375" lon="6.77276325412094593048095703125">
        <ele>1882.199951171875</ele>
        <time>2026-09-03T08:13:27.000Z</time>
        <extensions>
          <ns3:TrackPointExtension>
            <ns3:hr>98</ns3:hr>
            <ns3:cad>81</ns3:cad>
          </ns3:TrackPointExtension>
        </extensions>
      </trkpt>
      <trkpt lat="44.67812611721456050872802734375" lon="6.77276509813964366912841796875">
        <ele>1882</ele>
        <time>2026-09-03T08:13:28.000Z</time>
        <extensions>
          <ns3:TrackPointExtension>
            <ns3:hr>98</ns3:hr>
            <ns3:cad>81</ns3:cad>
          </ns3:TrackPointExtension>
        </extensions>
      </trkpt>
      <trkpt lat="44.67811890877783298492431640625" lon="6.77276912145316600799560546875">
        <ele>1881.5999755859375</ele>
        <time>2026-09-03T08:13:29.000Z</time>
        <extensions>
          <ns3:TrackPointExtension>
            <ns3:hr>99</ns3:hr>
            <ns3:cad>81</ns3:cad>
          </ns3:TrackPointExtension>
        </extensions>
      </trkpt>
      <trkpt lat="44.67811974696815013885498046875" lon="6.772773899137973785400390625">
        <ele>1881.4000244140625</ele>
        <time>2026-09-03T08:13:30.000Z</time>
        <extensions>
          <ns3:TrackPointExtension>
            <ns3:hr>98</ns3:hr>
            <ns3:cad>0</ns3:cad>
          </ns3:TrackPointExtension>
        </extensions>
      </trkpt>
      <trkpt lat="44.67811924405395984649658203125" lon="6.77277565933763980865478515625">
        <ele>1881.4000244140625</ele>
        <time>2026-09-03T08:13:31.000Z</time>
        <extensions>
          <ns3:TrackPointExtension>
            <ns3:hr>98</ns3:hr>
            <ns3:cad>0</ns3:cad>
          </ns3:TrackPointExtension>
        </extensions>
      </trkpt>
      <trkpt lat="44.67811941169202327728271484375" lon="6.7727750726044178009033203125">
        <ele>1881.199951171875</ele>
        <time>2026-09-03T08:13:32.000Z</time>
        <extensions>
          <ns3:TrackPointExtension>
            <ns3:hr>99</ns3:hr>
            <ns3:cad>0</ns3:cad>
          </ns3:TrackPointExtension>
        </extensions>
      </trkpt>
      <trkpt lat="44.67811941169202327728271484375" lon="6.7727750726044178009033203125">
        <ele>1881.199951171875</ele>
        <time>2026-09-03T08:13:33.000Z</time>
        <extensions>
          <ns3:TrackPointExtension>
            <ns3:hr>99</ns3:hr>
            <ns3:cad>0</ns3:cad>
          </ns3:TrackPointExtension>
        </extensions>
      </trkpt>
      <trkpt lat="44.67811941169202327728271484375" lon="6.7727750726044178009033203125">
        <ele>1881.4000244140625</ele>
        <time>2026-09-03T08:13:34.000Z</time>
        <extensions>
          <ns3:TrackPointExtension>
            <ns3:hr>100</ns3:hr>
            <ns3:cad>0</ns3:cad>
          </ns3:TrackPointExtension>
        </extensions>
      </trkpt>
      <trkpt lat="44.67811941169202327728271484375" lon="6.7727750726044178009033203125">
        <ele>1881.4000244140625</ele>
        <time>2026-09-03T08:13:35.000Z</time>
        <extensions>
          <ns3:TrackPointExtension>
            <ns3:hr>100</ns3:hr>
            <ns3:cad>0</ns3:cad>
          </ns3:TrackPointExtension>
        </extensions>
      </trkpt>
      <trkpt lat="44.67811941169202327728271484375" lon="6.7727750726044178009033203125">
        <ele>1881.5999755859375</ele>
        <time>2026-09-03T08:13:36.000Z</time>
        <extensions>
          <ns3:TrackPointExtension>
            <ns3:hr>102</ns3:hr>
            <ns3:cad>0</ns3:cad>
          </ns3:TrackPointExtension>
        </extensions>
      </trkpt>
      <trkpt lat="44.67811941169202327728271484375" lon="6.7727750726044178009033203125">
        <ele>1881.5999755859375</ele>
        <time>2026-09-03T08:13:37.000Z</time>
        <extensions>
          <ns3:TrackPointExtension>
            <ns3:hr>103</ns3:hr>
            <ns3:cad>0</ns3:cad>
          </ns3:TrackPointExtension>
        </extensions>
      </trkpt>
      <trkpt lat="44.67811941169202327728271484375" lon="6.7727750726044178009033203125">
        <ele>1881.5999755859375</ele>
        <time>2026-09-03T08:13:38.000Z</time>
        <extensions>
          <ns3:TrackPointExtension>
            <ns3:hr>103</ns3:hr>
            <ns3:cad>0</ns3:cad>
          </ns3:TrackPointExtension>
        </extensions>
      </trkpt>
      <trkpt lat="44.67811941169202327728271484375" lon="6.7727750726044178009033203125">
        <ele>1881.5999755859375</ele>
        <time>2026-09-03T08:13:39.000Z</time>
        <extensions>
          <ns3:TrackPointExtension>
            <ns3:hr>104</ns3:hr>
            <ns3:cad>0</ns3:cad>
          </ns3:TrackPointExtension>
        </extensions>
      </trkpt>
      <trkpt lat="44.67811941169202327728271484375" lon="6.7727750726044178009033203125">
        <ele>1881.5999755859375</ele>
        <time>2026-09-03T08:13:40.000Z</time>
        <extensions>
          <ns3:TrackPointExtension>
            <ns3:hr>104</ns3:hr>
            <ns3:cad>0</ns3:cad>
          </ns3:TrackPointExtension>
        </extensions>
      </trkpt>
      <trkpt lat="44.67811941169202327728271484375" lon="6.7727750726044178009033203125">
        <ele>1881.5999755859375</ele>
        <time>2026-09-03T08:13:41.000Z</time>
        <extensions>
          <ns3:TrackPointExtension>
            <ns3:hr>104</ns3:hr>
            <ns3:cad>0</ns3:cad>
          </ns3:TrackPointExtension>
        </extensions>
      </trkpt>
      <trkpt lat="44.67811941169202327728271484375" lon="6.7727750726044178009033203125">
        <ele>1881.5999755859375</ele>
        <time>2026-09-03T08:13:42.000Z</time>
        <extensions>
          <ns3:TrackPointExtension>
            <ns3:hr>104</ns3:hr>
            <ns3:cad>0</ns3:cad>
          </ns3:TrackPointExtension>
        </extensions>
      </trkpt>
      <trkpt lat="44.67811941169202327728271484375" lon="6.7727750726044178009033203125">
        <ele>1881.4000244140625</ele>
        <time>2026-09-03T08:13:43.000Z</time>
        <extensions>
          <ns3:TrackPointExtension>
            <ns3:hr>103</ns3:hr>
            <ns3:cad>0</ns3:cad>
          </ns3:TrackPointExtension>
        </extensions>
      </trkpt>
      <trkpt lat="44.67811941169202327728271484375" lon="6.7727750726044178009033203125">
        <ele>1881.4000244140625</ele>
        <time>2026-09-03T08:13:44.000Z</time>
        <extensions>
          <ns3:TrackPointExtension>
            <ns3:hr>103</ns3:hr>
            <ns3:cad>0</ns3:cad>
          </ns3:TrackPointExtension>
        </extensions>
      </trkpt>
      <trkpt lat="44.67811941169202327728271484375" lon="6.7727750726044178009033203125">
        <ele>1881.4000244140625</ele>
        <time>2026-09-03T08:13:45.000Z</time>
        <extensions>
          <ns3:TrackPointExtension>
            <ns3:hr>103</ns3:hr>
            <ns3:cad>0</ns3:cad>
          </ns3:TrackPointExtension>
        </extensions>
      </trkpt>
      <trkpt lat="44.67811941169202327728271484375" lon="6.7727750726044178009033203125">
        <ele>1881.4000244140625</ele>
        <time>2026-09-03T08:13:46.000Z</time>
        <extensions>
          <ns3:TrackPointExtension>
            <ns3:hr>103</ns3:hr>
            <ns3:cad>0</ns3:cad>
          </ns3:TrackPointExtension>
        </extensions>
      </trkpt>
      <trkpt lat="44.67811941169202327728271484375" lon="6.7727750726044178009033203125">
        <ele>1881.199951171875</ele>
        <time>2026-09-03T08:13:47.000Z</time>
        <extensions>
          <ns3:TrackPointExtension>
            <ns3:hr>103</ns3:hr>
            <ns3:cad>0</ns3:cad>
          </ns3:TrackPointExtension>
        </extensions>
      </trkpt>
      <trkpt lat="44.67811941169202327728271484375" lon="6.7727750726044178009033203125">
        <ele>1881.4000244140625</ele>
        <time>2026-09-03T08:13:48.000Z</time>
        <extensions>
          <ns3:TrackPointExtension>
            <ns3:hr>103</ns3:hr>
            <ns3:cad>0</ns3:cad>
          </ns3:TrackPointExtension>
        </extensions>
      </trkpt>
      <trkpt lat="44.67811941169202327728271484375" lon="6.7727750726044178009033203125">
        <ele>1881.4000244140625</ele>
        <time>2026-09-03T08:13:49.000Z</time>
        <extensions>
          <ns3:TrackPointExtension>
            <ns3:hr>102</ns3:hr>
            <ns3:cad>0</ns3:cad>
          </ns3:TrackPointExtension>
        </extensions>
      </trkpt>
      <trkpt lat="44.67811941169202327728271484375" lon="6.7727750726044178009033203125">
        <ele>1881.4000244140625</ele>
        <time>2026-09-03T08:13:50.000Z</time>
        <extensions>
          <ns3:TrackPointExtension>
            <ns3:hr>101</ns3:hr>
            <ns3:cad>0</ns3:cad>
          </ns3:TrackPointExtension>
        </extensions>
      </trkpt>
      <trkpt lat="44.67811941169202327728271484375" lon="6.7727750726044178009033203125">
        <ele>1881.4000244140625</ele>
        <time>2026-09-03T08:13:51.000Z</time>
        <extensions>
          <ns3:TrackPointExtension>
            <ns3:hr>100</ns3:hr>
            <ns3:cad>0</ns3:cad>
          </ns3:TrackPointExtension>
        </extensions>
      </trkpt>
      <trkpt lat="44.67810952104628086090087890625" lon="6.7727854661643505096435546875">
        <ele>1881.4000244140625</ele>
        <time>2026-09-03T08:13:52.000Z</time>
        <extensions>
          <ns3:TrackPointExtension>
            <ns3:hr>100</ns3:hr>
            <ns3:cad>0</ns3:cad>
          </ns3:TrackPointExtension>
        </extensions>
      </trkpt>
      <trkpt lat="44.6781089343130588531494140625" lon="6.77278697490692138671875">
        <ele>1881.4000244140625</ele>
        <time>2026-09-03T08:13:53.000Z</time>
        <extensions>
          <ns3:TrackPointExtension>
            <ns3:hr>98</ns3:hr>
            <ns3:cad>0</ns3:cad>
          </ns3:TrackPointExtension>
        </extensions>
      </trkpt>
      <trkpt lat="44.67810549773275852203369140625" lon="6.7727955244481563568115234375">
        <ele>1881.199951171875</ele>
        <time>2026-09-03T08:13:54.000Z</time>
        <extensions>
          <ns3:TrackPointExtension>
            <ns3:hr>98</ns3:hr>
            <ns3:cad>0</ns3:cad>
          </ns3:TrackPointExtension>
        </extensions>
      </trkpt>
      <trkpt lat="44.67810147441923618316650390625" lon="6.77280130796134471893310546875">
        <ele>1881.199951171875</ele>
        <time>2026-09-03T08:13:55.000Z</time>
        <extensions>
          <ns3:TrackPointExtension>
            <ns3:hr>97</ns3:hr>
            <ns3:cad>0</ns3:cad>
          </ns3:TrackPointExtension>
        </extensions>
      </trkpt>
      <trkpt lat="44.67809778638184070587158203125" lon="6.77280834876000881195068359375">
        <ele>1881.199951171875</ele>
        <time>2026-09-03T08:13:56.000Z</time>
        <extensions>
          <ns3:TrackPointExtension>
            <ns3:hr>98</ns3:hr>
            <ns3:cad>0</ns3:cad>
          </ns3:TrackPointExtension>
        </extensions>
      </trkpt>
      <trkpt lat="44.678097702562808990478515625" lon="6.77279342897236347198486328125">
        <ele>1881.4000244140625</ele>
        <time>2026-09-03T08:13:57.000Z</time>
        <extensions>
          <ns3:TrackPointExtension>
            <ns3:hr>99</ns3:hr>
            <ns3:cad>0</ns3:cad>
          </ns3:TrackPointExtension>
        </extensions>
      </trkpt>
      <trkpt lat="44.67810767702758312225341796875" lon="6.772781275212764739990234375">
        <ele>1881.4000244140625</ele>
        <time>2026-09-03T08:13:58.000Z</time>
        <extensions>
          <ns3:TrackPointExtension>
            <ns3:hr>99</ns3:hr>
            <ns3:cad>0</ns3:cad>
          </ns3:TrackPointExtension>
        </extensions>
      </trkpt>
      <trkpt lat="44.678116478025913238525390625" lon="6.772771887481212615966796875">
        <ele>1881.4000244140625</ele>
        <time>2026-09-03T08:13:59.000Z</time>
        <extensions>
          <ns3:TrackPointExtension>
            <ns3:hr>99</ns3:hr>
            <ns3:cad>0</ns3:cad>
          </ns3:TrackPointExtension>
        </extensions>
      </trkpt>
      <trkpt lat="44.67812955379486083984375" lon="6.7727556265890598297119140625">
        <ele>1881.199951171875</ele>
        <time>2026-09-03T08:14:00.000Z</time>
        <extensions>
          <ns3:TrackPointExtension>
            <ns3:hr>99</ns3:hr>
            <ns3:cad>0</ns3:cad>
          </ns3:TrackPointExtension>
        </extensions>
      </trkpt>
      <trkpt lat="44.67813919298350811004638671875" lon="6.7727391980588436126708984375">
        <ele>1880.800048828125</ele>
        <time>2026-09-03T08:14:01.000Z</time>
        <extensions>
          <ns3:TrackPointExtension>
            <ns3:hr>100</ns3:hr>
            <ns3:cad>0</ns3:cad>
          </ns3:TrackPointExtension>
        </extensions>
      </trkpt>
      <trkpt lat="44.67814858071506023406982421875" lon="6.772726960480213165283203125">
        <ele>1880.4000244140625</ele>
        <time>2026-09-03T08:14:02.000Z</time>
        <extensions>
          <ns3:TrackPointExtension>
            <ns3:hr>100</ns3:hr>
            <ns3:cad>83</ns3:cad>
          </ns3:TrackPointExtension>
        </extensions>
      </trkpt>
      <trkpt lat="44.678158052265644073486328125" lon="6.7727177403867244720458984375">
        <ele>1879.800048828125</ele>
        <time>2026-09-03T08:14:03.000Z</time>
        <extensions>
          <ns3:TrackPointExtension>
            <ns3:hr>100</ns3:hr>
            <ns3:cad>83</ns3:cad>
          </ns3:TrackPointExtension>
        </extensions>
      </trkpt>
      <trkpt lat="44.67816702090203762054443359375" lon="6.77271111868321895599365234375">
        <ele>1879.4000244140625</ele>
        <time>2026-09-03T08:14:04.000Z</time>
        <extensions>
          <ns3:TrackPointExtension>
            <ns3:hr>101</ns3:hr>
            <ns3:cad>0</ns3:cad>
          </ns3:TrackPointExtension>
        </extensions>
      </trkpt>
      <trkpt lat="44.678176827728748321533203125" lon="6.772708855569362640380859375">
        <ele>1879</ele>
        <time>2026-09-03T08:14:05.000Z</time>
        <extensions>
          <ns3:TrackPointExtension>
            <ns3:hr>101</ns3:hr>
            <ns3:cad>0</ns3:cad>
          </ns3:TrackPointExtension>
        </extensions>
      </trkpt>
      <trkpt lat="44.678184203803539276123046875" lon="6.77271254360675811767578125">
        <ele>1878.800048828125</ele>
        <time>2026-09-03T08:14:06.000Z</time>
        <extensions>
          <ns3:TrackPointExtension>
            <ns3:hr>101</ns3:hr>
            <ns3:cad>0</ns3:cad>
          </ns3:TrackPointExtension>
        </extensions>
      </trkpt>
      <trkpt lat="44.67818629927933216094970703125" lon="6.7727127112448215484619140625">
        <ele>1878.4000244140625</ele>
        <time>2026-09-03T08:14:07.000Z</time>
        <extensions>
          <ns3:TrackPointExtension>
            <ns3:hr>101</ns3:hr>
            <ns3:cad>0</ns3:cad>
          </ns3:TrackPointExtension>
        </extensions>
      </trkpt>
      <trkpt lat="44.678192250430583953857421875" lon="6.77271095104515552520751953125">
        <ele>1878.199951171875</ele>
        <time>2026-09-03T08:14:08.000Z</time>
        <extensions>
          <ns3:TrackPointExtension>
            <ns3:hr>101</ns3:hr>
            <ns3:cad>0</ns3:cad>
          </ns3:TrackPointExtension>
        </extensions>
      </trkpt>
      <trkpt lat="44.67819971032440662384033203125" lon="6.7727076821029186248779296875">
        <ele>1877.800048828125</ele>
        <time>2026-09-03T08:14:09.000Z</time>
        <extensions>
          <ns3:TrackPointExtension>
            <ns3:hr>102</ns3:hr>
            <ns3:cad>0</ns3:cad>
          </ns3:TrackPointExtension>
        </extensions>
      </trkpt>
      <trkpt lat="44.67821228317916393280029296875" lon="6.7726996354758739471435546875">
        <ele>1877.4000244140625</ele>
        <time>2026-09-03T08:14:10.000Z</time>
        <extensions>
          <ns3:TrackPointExtension>
            <ns3:hr>104</ns3:hr>
            <ns3:cad>74</ns3:cad>
          </ns3:TrackPointExtension>
        </extensions>
      </trkpt>
      <trkpt lat="44.67822284437716007232666015625" lon="6.77268974483013153076171875">
        <ele>1877</ele>
        <time>2026-09-03T08:14:11.000Z</time>
        <extensions>
          <ns3:TrackPointExtension>
            <ns3:hr>103</ns3:hr>
            <ns3:cad>74</ns3:cad>
          </ns3:TrackPointExtension>
        </extensions>
      </trkpt>
      <trkpt lat="44.67823617160320281982421875" lon="6.7726741544902324676513671875">
        <ele>1876.5999755859375</ele>
        <time>2026-09-03T08:14:12.000Z</time>
        <extensions>
          <ns3:TrackPointExtension>
            <ns3:hr>105</ns3:hr>
            <ns3:cad>74</ns3:cad>
          </ns3:TrackPointExtension>
        </extensions>
      </trkpt>
      <trkpt lat="44.67824631370604038238525390625" lon="6.77265780977904796600341796875">
        <ele>1876.199951171875</ele>
        <time>2026-09-03T08:14:13.000Z</time>
        <extensions>
          <ns3:TrackPointExtension>
            <ns3:hr>105</ns3:hr>
            <ns3:cad>74</ns3:cad>
          </ns3:TrackPointExtension>
        </extensions>
      </trkpt>
      <trkpt lat="44.67826207168400287628173828125" lon="6.77263702265918254852294921875">
        <ele>1875.5999755859375</ele>
        <time>2026-09-03T08:14:14.000Z</time>
        <extensions>
          <ns3:TrackPointExtension>
            <ns3:hr>106</ns3:hr>
            <ns3:cad>74</ns3:cad>
          </ns3:TrackPointExtension>
        </extensions>
      </trkpt>
      <trkpt lat="44.6782688610255718231201171875" lon="6.77262076176702976226806640625">
        <ele>1875.199951171875</ele>
        <time>2026-09-03T08:14:15.000Z</time>
        <extensions>
          <ns3:TrackPointExtension>
            <ns3:hr>106</ns3:hr>
            <ns3:cad>74</ns3:cad>
          </ns3:TrackPointExtension>
        </extensions>
      </trkpt>
      <trkpt lat="44.6782645024359226226806640625" lon="6.77261020056903362274169921875">
        <ele>1874.800048828125</ele>
        <time>2026-09-03T08:14:16.000Z</time>
        <extensions>
          <ns3:TrackPointExtension>
            <ns3:hr>106</ns3:hr>
            <ns3:cad>74</ns3:cad>
          </ns3:TrackPointExtension>
        </extensions>
      </trkpt>
      <trkpt lat="44.67826902866363525390625" lon="6.77259662188589572906494140625">
        <ele>1874.4000244140625</ele>
        <time>2026-09-03T08:14:17.000Z</time>
        <extensions>
          <ns3:TrackPointExtension>
            <ns3:hr>106</ns3:hr>
            <ns3:cad>74</ns3:cad>
          </ns3:TrackPointExtension>
        </extensions>
      </trkpt>
      <trkpt lat="44.678270705044269561767578125" lon="6.7725925147533416748046875">
        <ele>1874.199951171875</ele>
        <time>2026-09-03T08:14:18.000Z</time>
        <extensions>
          <ns3:TrackPointExtension>
            <ns3:hr>106</ns3:hr>
            <ns3:cad>0</ns3:cad>
          </ns3:TrackPointExtension>
        </extensions>
      </trkpt>
      <trkpt lat="44.678278081119060516357421875" lon="6.77257977426052093505859375">
        <ele>1874</ele>
        <time>2026-09-03T08:14:19.000Z</time>
        <extensions>
          <ns3:TrackPointExtension>
            <ns3:hr>106</ns3:hr>
            <ns3:cad>0</ns3:cad>
          </ns3:TrackPointExtension>
        </extensions>
      </trkpt>
      <trkpt lat="44.67828487046062946319580078125" lon="6.7725712247192859649658203125">
        <ele>1874</ele>
        <time>2026-09-03T08:14:20.000Z</time>
        <extensions>
          <ns3:TrackPointExtension>
            <ns3:hr>107</ns3:hr>
            <ns3:cad>73</ns3:cad>
          </ns3:TrackPointExtension>
        </extensions>
      </trkpt>
      <trkpt lat="44.67828721739351749420166015625" lon="6.772559322416782379150390625">
        <ele>1873.5999755859375</ele>
        <time>2026-09-03T08:14:21.000Z</time>
        <extensions>
          <ns3:TrackPointExtension>
            <ns3:hr>106</ns3:hr>
            <ns3:cad>73</ns3:cad>
          </ns3:TrackPointExtension>
        </extensions>
      </trkpt>
      <trkpt lat="44.67828906141221523284912109375" lon="6.77254213951528072357177734375">
        <ele>1873.4000244140625</ele>
        <time>2026-09-03T08:14:22.000Z</time>
        <extensions>
          <ns3:TrackPointExtension>
            <ns3:hr>107</ns3:hr>
            <ns3:cad>73</ns3:cad>
          </ns3:TrackPointExtension>
        </extensions>
      </trkpt>
      <trkpt lat="44.67829492874443531036376953125" lon="6.77252436988055706024169921875">
        <ele>1873</ele>
        <time>2026-09-03T08:14:23.000Z</time>
        <extensions>
          <ns3:TrackPointExtension>
            <ns3:hr>106</ns3:hr>
            <ns3:cad>73</ns3:cad>
          </ns3:TrackPointExtension>
        </extensions>
      </trkpt>
      <trkpt lat="44.67829576693475246429443359375" lon="6.7725098691880702972412109375">
        <ele>1872.5999755859375</ele>
        <time>2026-09-03T08:14:24.000Z</time>
        <extensions>
          <ns3:TrackPointExtension>
            <ns3:hr>106</ns3:hr>
            <ns3:cad>73</ns3:cad>
          </ns3:TrackPointExtension>
        </extensions>
      </trkpt>
      <trkpt lat="44.67830364592373371124267578125" lon="6.77249603904783725738525390625">
        <ele>1872.199951171875</ele>
        <time>2026-09-03T08:14:25.000Z</time>
        <extensions>
          <ns3:TrackPointExtension>
            <ns3:hr>106</ns3:hr>
            <ns3:cad>73</ns3:cad>
          </ns3:TrackPointExtension>
        </extensions>
      </trkpt>
      <trkpt lat="44.67831571586430072784423828125" lon="6.7724853940308094024658203125">
        <ele>1871.800048828125</ele>
        <time>2026-09-03T08:14:26.000Z</time>
        <extensions>
          <ns3:TrackPointExtension>
            <ns3:hr>107</ns3:hr>
            <ns3:cad>73</ns3:cad>
          </ns3:TrackPointExtension>
        </extensions>
      </trkpt>
      <trkpt lat="44.67832191847264766693115234375" lon="6.7724780179560184478759765625">
        <ele>1871.4000244140625</ele>
        <time>2026-09-03T08:14:27.000Z</time>
        <extensions>
          <ns3:TrackPointExtension>
            <ns3:hr>107</ns3:hr>
            <ns3:cad>73</ns3:cad>
          </ns3:TrackPointExtension>
        </extensions>
      </trkpt>
      <trkpt lat="44.67832661233842372894287109375" lon="6.77247407846152782440185546875">
        <ele>1871</ele>
        <time>2026-09-03T08:14:28.000Z</time>
        <extensions>
          <ns3:TrackPointExtension>
            <ns3:hr>107</ns3:hr>
            <ns3:cad>73</ns3:cad>
          </ns3:TrackPointExtension>
        </extensions>
      </trkpt>
      <trkpt lat="44.67834002338349819183349609375" lon="6.77246536128222942352294921875">
        <ele>1870.5999755859375</ele>
        <time>2026-09-03T08:14:29.000Z</time>
        <extensions>
          <ns3:TrackPointExtension>
            <ns3:hr>107</ns3:hr>
            <ns3:cad>75</ns3:cad>
          </ns3:TrackPointExtension>
        </extensions>
      </trkpt>
      <trkpt lat="44.6783489920198917388916015625" lon="6.77246167324483394622802734375">
        <ele>1870.199951171875</ele>
        <time>2026-09-03T08:14:30.000Z</time>
        <extensions>
          <ns3:TrackPointExtension>
            <ns3:hr>107</ns3:hr>
            <ns3:cad>76</ns3:cad>
          </ns3:TrackPointExtension>
        </extensions>
      </trkpt>
      <trkpt lat="44.67836164869368076324462890625" lon="6.77245731465518474578857421875">
        <ele>1869.800048828125</ele>
        <time>2026-09-03T08:14:31.000Z</time>
        <extensions>
          <ns3:TrackPointExtension>
            <ns3:hr>107</ns3:hr>
            <ns3:cad>77</ns3:cad>
          </ns3:TrackPointExtension>
        </extensions>
      </trkpt>
      <trkpt lat="44.67837162315845489501953125" lon="6.7724575661122798919677734375">
        <ele>1869.4000244140625</ele>
        <time>2026-09-03T08:14:32.000Z</time>
        <extensions>
          <ns3:TrackPointExtension>
            <ns3:hr>107</ns3:hr>
            <ns3:cad>77</ns3:cad>
          </ns3:TrackPointExtension>
        </extensions>
      </trkpt>
      <trkpt lat="44.67838495038449764251708984375" lon="6.77245463244616985321044921875">
        <ele>1869</ele>
        <time>2026-09-03T08:14:33.000Z</time>
        <extensions>
          <ns3:TrackPointExtension>
            <ns3:hr>107</ns3:hr>
            <ns3:cad>77</ns3:cad>
          </ns3:TrackPointExtension>
        </extensions>
      </trkpt>
      <trkpt lat="44.6783996187150478363037109375" lon="6.77245345897972583770751953125">
        <ele>1868.5999755859375</ele>
        <time>2026-09-03T08:14:34.000Z</time>
        <extensions>
          <ns3:TrackPointExtension>
            <ns3:hr>107</ns3:hr>
            <ns3:cad>77</ns3:cad>
          </ns3:TrackPointExtension>
        </extensions>
      </trkpt>
      <trkpt lat="44.67840112745761871337890625" lon="6.77244759164750576019287109375">
        <ele>1868.199951171875</ele>
        <time>2026-09-03T08:14:35.000Z</time>
        <extensions>
          <ns3:TrackPointExtension>
            <ns3:hr>106</ns3:hr>
            <ns3:cad>86</ns3:cad>
          </ns3:TrackPointExtension>
        </extensions>
      </trkpt>
      <trkpt lat="44.67839173972606658935546875" lon="6.77243895828723907470703125">
        <ele>1867.800048828125</ele>
        <time>2026-09-03T08:14:36.000Z</time>
        <extensions>
          <ns3:TrackPointExtension>
            <ns3:hr>106</ns3:hr>
            <ns3:cad>86</ns3:cad>
          </ns3:TrackPointExtension>
        </extensions>
      </trkpt>
      <trkpt lat="44.67837589792907238006591796875" lon="6.772423870861530303955078125">
        <ele>1867.4000244140625</ele>
        <time>2026-09-03T08:14:37.000Z</time>
        <extensions>
          <ns3:TrackPointExtension>
            <ns3:hr>106</ns3:hr>
            <ns3:cad>82</ns3:cad>
          </ns3:TrackPointExtension>
        </extensions>
      </trkpt>
      <trkpt lat="44.678364582359790802001953125" lon="6.772413812577724456787109375">
        <ele>1867</ele>
        <time>2026-09-03T08:14:38.000Z</time>
        <extensions>
          <ns3:TrackPointExtension>
            <ns3:hr>105</ns3:hr>
            <ns3:cad>82</ns3:cad>
          </ns3:TrackPointExtension>
        </extensions>
      </trkpt>
      <trkpt lat="44.67834689654409885406494140625" lon="6.7724074423313140869140625">
        <ele>1866.5999755859375</ele>
        <time>2026-09-03T08:14:39.000Z</time>
        <extensions>
          <ns3:TrackPointExtension>
            <ns3:hr>105</ns3:hr>
            <ns3:cad>83</ns3:cad>
          </ns3:TrackPointExtension>
        </extensions>
      </trkpt>
      <trkpt lat="44.6783365868031978607177734375" lon="6.77239495329558849334716796875">
        <ele>1866.199951171875</ele>
        <time>2026-09-03T08:14:40.000Z</time>
        <extensions>
          <ns3:TrackPointExtension>
            <ns3:hr>105</ns3:hr>
            <ns3:cad>83</ns3:cad>
          </ns3:TrackPointExtension>
        </extensions>
      </trkpt>
      <trkpt lat="44.67832426540553569793701171875" lon="6.772386319935321807861328125">
        <ele>1865.800048828125</ele>
        <time>2026-09-03T08:14:41.000Z</time>
        <extensions>
          <ns3:TrackPointExtension>
            <ns3:hr>104</ns3:hr>
            <ns3:cad>83</ns3:cad>
          </ns3:TrackPointExtension>
        </extensions>
      </trkpt>
      <trkpt lat="44.67831035144627094268798828125" lon="6.7723807878792285919189453125">
        <ele>1865.4000244140625</ele>
        <time>2026-09-03T08:14:42.000Z</time>
        <extensions>
          <ns3:TrackPointExtension>
            <ns3:hr>104</ns3:hr>
            <ns3:cad>83</ns3:cad>
          </ns3:TrackPointExtension>
        </extensions>
      </trkpt>
      <trkpt lat="44.67829710803925991058349609375" lon="6.77238372154533863067626953125">
        <ele>1865.199951171875</ele>
        <time>2026-09-03T08:14:43.000Z</time>
        <extensions>
          <ns3:TrackPointExtension>
            <ns3:hr>104</ns3:hr>
            <ns3:cad>85</ns3:cad>
          </ns3:TrackPointExtension>
        </extensions>
      </trkpt>
      <trkpt lat="44.6782837808132171630859375" lon="6.772382296621799468994140625">
        <ele>1864.800048828125</ele>
        <time>2026-09-03T08:14:44.000Z</time>
        <extensions>
          <ns3:TrackPointExtension>
            <ns3:hr>104</ns3:hr>
            <ns3:cad>85</ns3:cad>
          </ns3:TrackPointExtension>
        </extensions>
      </trkpt>
      <trkpt lat="44.6782728843390941619873046875" lon="6.77238305099308490753173828125">
        <ele>1864.5999755859375</ele>
        <time>2026-09-03T08:14:45.000Z</time>
        <extensions>
          <ns3:TrackPointExtension>
            <ns3:hr>103</ns3:hr>
            <ns3:cad>85</ns3:cad>
          </ns3:TrackPointExtension>
        </extensions>
      </trkpt>
      <trkpt lat="44.67827045358717441558837890625" lon="6.77238271571695804595947265625">
        <ele>1864.4000244140625</ele>
        <time>2026-09-03T08:14:46.000Z</time>
        <extensions>
          <ns3:TrackPointExtension>
            <ns3:hr>103</ns3:hr>
            <ns3:cad>85</ns3:cad>
          </ns3:TrackPointExtension>
        </extensions>
      </trkpt>
      <trkpt lat="44.6782574616372585296630859375" lon="6.7723846435546875">
        <ele>1864</ele>
        <time>2026-09-03T08:14:47.000Z</time>
        <extensions>
          <ns3:TrackPointExtension>
            <ns3:hr>103</ns3:hr>
            <ns3:cad>85</ns3:cad>
          </ns3:TrackPointExtension>
        </extensions>
      </trkpt>
      <trkpt lat="44.6782494150102138519287109375" lon="6.77238707430660724639892578125">
        <ele>1863.5999755859375</ele>
        <time>2026-09-03T08:14:48.000Z</time>
        <extensions>
          <ns3:TrackPointExtension>
            <ns3:hr>103</ns3:hr>
            <ns3:cad>85</ns3:cad>
          </ns3:TrackPointExtension>
        </extensions>
      </trkpt>
      <trkpt lat="44.67823809944093227386474609375" lon="6.7723874934017658233642578125">
        <ele>1863.199951171875</ele>
        <time>2026-09-03T08:14:49.000Z</time>
        <extensions>
          <ns3:TrackPointExtension>
            <ns3:hr>104</ns3:hr>
            <ns3:cad>85</ns3:cad>
          </ns3:TrackPointExtension>
        </extensions>
      </trkpt>
      <trkpt lat="44.678228460252285003662109375" lon="6.77239009179174900054931640625">
        <ele>1862.800048828125</ele>
        <time>2026-09-03T08:14:50.000Z</time>
        <extensions>
          <ns3:TrackPointExtension>
            <ns3:hr>103</ns3:hr>
            <ns3:cad>85</ns3:cad>
          </ns3:TrackPointExtension>
        </extensions>
      </trkpt>
      <trkpt lat="44.6782178990542888641357421875" lon="6.77240299992263317108154296875">
        <ele>1862.4000244140625</ele>
        <time>2026-09-03T08:14:51.000Z</time>
        <extensions>
          <ns3:TrackPointExtension>
            <ns3:hr>103</ns3:hr>
            <ns3:cad>85</ns3:cad>
          </ns3:TrackPointExtension>
        </extensions>
      </trkpt>
      <trkpt lat="44.67819216661155223846435546875" lon="6.77241423167288303375244140625">
        <ele>1862</ele>
        <time>2026-09-03T08:14:52.000Z</time>
        <extensions>
          <ns3:TrackPointExtension>
            <ns3:hr>103</ns3:hr>
            <ns3:cad>85</ns3:cad>
          </ns3:TrackPointExtension>
        </extensions>
      </trkpt>
      <trkpt lat="44.6781689487397670745849609375" lon="6.7724176682531833648681640625">
        <ele>1861.5999755859375</ele>
        <time>2026-09-03T08:14:53.000Z</time>
        <extensions>
          <ns3:TrackPointExtension>
            <ns3:hr>103</ns3:hr>
            <ns3:cad>80</ns3:cad>
          </ns3:TrackPointExtension>
        </extensions>
      </trkpt>
      <trkpt lat="44.678145982325077056884765625" lon="6.77242630161345005035400390625">
        <ele>1861.199951171875</ele>
        <time>2026-09-03T08:14:54.000Z</time>
        <extensions>
          <ns3:TrackPointExtension>
            <ns3:hr>102</ns3:hr>
            <ns3:cad>80</ns3:cad>
          </ns3:TrackPointExtension>
        </extensions>
      </trkpt>
      <trkpt lat="44.6781243570148944854736328125" lon="6.7724391259253025054931640625">
        <ele>1861</ele>
        <time>2026-09-03T08:14:55.000Z</time>
        <extensions>
          <ns3:TrackPointExtension>
            <ns3:hr>102</ns3:hr>
            <ns3:cad>80</ns3:cad>
          </ns3:TrackPointExtension>
        </extensions>
      </trkpt>
      <trkpt lat="44.6781075932085514068603515625" lon="6.77244893275201320648193359375">
        <ele>1860.800048828125</ele>
        <time>2026-09-03T08:14:56.000Z</time>
        <extensions>
          <ns3:TrackPointExtension>
            <ns3:hr>102</ns3:hr>
            <ns3:cad>81</ns3:cad>
          </ns3:TrackPointExtension>
        </extensions>
      </trkpt>
      <trkpt lat="44.67809376306831836700439453125" lon="6.77245907485485076904296875">
        <ele>1860.5999755859375</ele>
        <time>2026-09-03T08:14:57.000Z</time>
        <extensions>
          <ns3:TrackPointExtension>
            <ns3:hr>101</ns3:hr>
            <ns3:cad>81</ns3:cad>
          </ns3:TrackPointExtension>
        </extensions>
      </trkpt>
      <trkpt lat="44.67808135785162448883056640625" lon="6.77246854640543460845947265625">
        <ele>1860.5999755859375</ele>
        <time>2026-09-03T08:14:58.000Z</time>
        <extensions>
          <ns3:TrackPointExtension>
            <ns3:hr>102</ns3:hr>
            <ns3:cad>81</ns3:cad>
          </ns3:TrackPointExtension>
        </extensions>
      </trkpt>
      <trkpt lat="44.67806451022624969482421875" lon="6.77247860468924045562744140625">
        <ele>1860.5999755859375</ele>
        <time>2026-09-03T08:14:59.000Z</time>
        <extensions>
          <ns3:TrackPointExtension>
            <ns3:hr>103</ns3:hr>
            <ns3:cad>81</ns3:cad>
          </ns3:TrackPointExtension>
        </extensions>
      </trkpt>
      <trkpt lat="44.678045399487018585205078125" lon="6.77248732186853885650634765625">
        <ele>1860.5999755859375</ele>
        <time>2026-09-03T08:15:00.000Z</time>
        <extensions>
          <ns3:TrackPointExtension>
            <ns3:hr>103</ns3:hr>
            <ns3:cad>81</ns3:cad>
          </ns3:TrackPointExtension>
        </extensions>
      </trkpt>
      <trkpt lat="44.6780288033187389373779296875" lon="6.77249385975301265716552734375">
        <ele>1860.199951171875</ele>
        <time>2026-09-03T08:15:01.000Z</time>
        <extensions>
          <ns3:TrackPointExtension>
            <ns3:hr>104</ns3:hr>
            <ns3:cad>81</ns3:cad>
          </ns3:TrackPointExtension>
        </extensions>
      </trkpt>
      <trkpt lat="44.67801379971206188201904296875" lon="6.77250073291361331939697265625">
        <ele>1860</ele>
        <time>2026-09-03T08:15:02.000Z</time>
        <extensions>
          <ns3:TrackPointExtension>
            <ns3:hr>104</ns3:hr>
            <ns3:cad>81</ns3:cad>
          </ns3:TrackPointExtension>
        </extensions>
      </trkpt>
      <trkpt lat="44.678005836904048919677734375" lon="6.77250274457037448883056640625">
        <ele>1859.800048828125</ele>
        <time>2026-09-03T08:15:03.000Z</time>
        <extensions>
          <ns3:TrackPointExtension>
            <ns3:hr>104</ns3:hr>
            <ns3:cad>0</ns3:cad>
          </ns3:TrackPointExtension>
        </extensions>
      </trkpt>
      <trkpt lat="44.67799854464828968048095703125" lon="6.77251146174967288970947265625">
        <ele>1859.4000244140625</ele>
        <time>2026-09-03T08:15:04.000Z</time>
        <extensions>
          <ns3:TrackPointExtension>
            <ns3:hr>104</ns3:hr>
            <ns3:cad>0</ns3:cad>
          </ns3:TrackPointExtension>
        </extensions>
      </trkpt>
      <trkpt lat="44.67799334786832332611083984375" lon="6.77251833491027355194091796875">
        <ele>1859.199951171875</ele>
        <time>2026-09-03T08:15:05.000Z</time>
        <extensions>
          <ns3:TrackPointExtension>
            <ns3:hr>104</ns3:hr>
            <ns3:cad>80</ns3:cad>
          </ns3:TrackPointExtension>
        </extensions>
      </trkpt>
      <trkpt lat="44.67798194848001003265380859375" lon="6.7725356854498386383056640625">
        <ele>1859</ele>
        <time>2026-09-03T08:15:06.000Z</time>
        <extensions>
          <ns3:TrackPointExtension>
            <ns3:hr>104</ns3:hr>
            <ns3:cad>80</ns3:cad>
          </ns3:TrackPointExtension>
        </extensions>
      </trkpt>
      <trkpt lat="44.67796920798718929290771484375" lon="6.7725447379052639007568359375">
        <ele>1858.800048828125</ele>
        <time>2026-09-03T08:15:07.000Z</time>
        <extensions>
          <ns3:TrackPointExtension>
            <ns3:hr>104</ns3:hr>
            <ns3:cad>80</ns3:cad>
          </ns3:TrackPointExtension>
        </extensions>
      </trkpt>
      <trkpt lat="44.6779523603618144989013671875" lon="6.77255119197070598602294921875">
        <ele>1858.4000244140625</ele>
        <time>2026-09-03T08:15:08.000Z</time>
        <extensions>
          <ns3:TrackPointExtension>
            <ns3:hr>104</ns3:hr>
            <ns3:cad>83</ns3:cad>
          </ns3:TrackPointExtension>
        </extensions>
      </trkpt>
      <trkpt lat="44.67793668620288372039794921875" lon="6.77255504764616489410400390625">
        <ele>1858.199951171875</ele>
        <time>2026-09-03T08:15:09.000Z</time>
        <extensions>
          <ns3:TrackPointExtension>
            <ns3:hr>104</ns3:hr>
            <ns3:cad>83</ns3:cad>
          </ns3:TrackPointExtension>
        </extensions>
      </trkpt>
      <trkpt lat="44.67792612500488758087158203125" lon="6.77255370654165744781494140625">
        <ele>1857.800048828125</ele>
        <time>2026-09-03T08:15:10.000Z</time>
        <extensions>
          <ns3:TrackPointExtension>
            <ns3:hr>105</ns3:hr>
            <ns3:cad>0</ns3:cad>
          </ns3:TrackPointExtension>
        </extensions>
      </trkpt>
      <trkpt lat="44.677896536886692047119140625" lon="6.77256208844482898712158203125">
        <ele>1857.199951171875</ele>
        <time>2026-09-03T08:15:11.000Z</time>
        <extensions>
          <ns3:TrackPointExtension>
            <ns3:hr>105</ns3:hr>
            <ns3:cad>0</ns3:cad>
          </ns3:TrackPointExtension>
        </extensions>
      </trkpt>
      <trkpt lat="44.67787675559520721435546875" lon="6.772562675178050994873046875">
        <ele>1856.5999755859375</ele>
        <time>2026-09-03T08:15:12.000Z</time>
        <extensions>
          <ns3:TrackPointExtension>
            <ns3:hr>105</ns3:hr>
            <ns3:cad>83</ns3:cad>
          </ns3:TrackPointExtension>
        </extensions>
      </trkpt>
      <trkpt lat="44.67785932123661041259765625" lon="6.7725588195025920867919921875">
        <ele>1856.199951171875</ele>
        <time>2026-09-03T08:15:13.000Z</time>
        <extensions>
          <ns3:TrackPointExtension>
            <ns3:hr>105</ns3:hr>
            <ns3:cad>83</ns3:cad>
          </ns3:TrackPointExtension>
        </extensions>
      </trkpt>
      <trkpt lat="44.6778403781354427337646484375" lon="6.77255437709391117095947265625">
        <ele>1855.5999755859375</ele>
        <time>2026-09-03T08:15:14.000Z</time>
        <extensions>
          <ns3:TrackPointExtension>
            <ns3:hr>105</ns3:hr>
            <ns3:cad>84</ns3:cad>
          </ns3:TrackPointExtension>
        </extensions>
      </trkpt>
      <trkpt lat="44.6778306551277637481689453125" lon="6.772550605237483978271484375">
        <ele>1855.199951171875</ele>
        <time>2026-09-03T08:15:15.000Z</time>
        <extensions>
          <ns3:TrackPointExtension>
            <ns3:hr>105</ns3:hr>
            <ns3:cad>84</ns3:cad>
          </ns3:TrackPointExtension>
        </extensions>
      </trkpt>
      <trkpt lat="44.67781213112175464630126953125" lon="6.772537529468536376953125">
        <ele>1855</ele>
        <time>2026-09-03T08:15:16.000Z</time>
        <extensions>
          <ns3:TrackPointExtension>
            <ns3:hr>105</ns3:hr>
            <ns3:cad>85</ns3:cad>
          </ns3:TrackPointExtension>
        </extensions>
      </trkpt>
      <trkpt lat="44.67780475504696369171142578125" lon="6.77253744564950466156005859375">
        <ele>1854.5999755859375</ele>
        <time>2026-09-03T08:15:17.000Z</time>
        <extensions>
          <ns3:TrackPointExtension>
            <ns3:hr>105</ns3:hr>
            <ns3:cad>85</ns3:cad>
          </ns3:TrackPointExtension>
        </extensions>
      </trkpt>
      <trkpt lat="44.67779888771474361419677734375" lon="6.7725236155092716217041015625">
        <ele>1854.199951171875</ele>
        <time>2026-09-03T08:15:18.000Z</time>
        <extensions>
          <ns3:TrackPointExtension>
            <ns3:hr>106</ns3:hr>
            <ns3:cad>85</ns3:cad>
          </ns3:TrackPointExtension>
        </extensions>
      </trkpt>
      <trkpt lat="44.67781447805464267730712890625" lon="6.7725192569196224212646484375">
        <ele>1853.800048828125</ele>
        <time>2026-09-03T08:15:19.000Z</time>
        <extensions>
          <ns3:TrackPointExtension>
            <ns3:hr>106</ns3:hr>
            <ns3:cad>85</ns3:cad>
          </ns3:TrackPointExtension>
        </extensions>
      </trkpt>
      <trkpt lat="44.67782604508101940155029296875" lon="6.77251531742513179779052734375">
        <ele>1853.5999755859375</ele>
        <time>2026-09-03T08:15:20.000Z</time>
        <extensions>
          <ns3:TrackPointExtension>
            <ns3:hr>106</ns3:hr>
            <ns3:cad>85</ns3:cad>
          </ns3:TrackPointExtension>
        </extensions>
      </trkpt>
      <trkpt lat="44.6778286434710025787353515625" lon="6.7725075222551822662353515625">
        <ele>1853.199951171875</ele>
        <time>2026-09-03T08:15:21.000Z</time>
        <extensions>
          <ns3:TrackPointExtension>
            <ns3:hr>106</ns3:hr>
            <ns3:cad>85</ns3:cad>
          </ns3:TrackPointExtension>
        </extensions>
      </trkpt>
      <trkpt lat="44.67783157713711261749267578125" lon="6.77249855361878871917724609375">
        <ele>1853</ele>
        <time>2026-09-03T08:15:22.000Z</time>
        <extensions>
          <ns3:TrackPointExtension>
            <ns3:hr>107</ns3:hr>
            <ns3:cad>85</ns3:cad>
          </ns3:TrackPointExtension>
        </extensions>
      </trkpt>
      <trkpt lat="44.677848257124423980712890625" lon="6.77248899824917316436767578125">
        <ele>1852.800048828125</ele>
        <time>2026-09-03T08:15:23.000Z</time>
        <extensions>
          <ns3:TrackPointExtension>
            <ns3:hr>106</ns3:hr>
            <ns3:cad>85</ns3:cad>
          </ns3:TrackPointExtension>
        </extensions>
      </trkpt>
      <trkpt lat="44.67786870896816253662109375" lon="6.7724812030792236328125">
        <ele>1852.5999755859375</ele>
        <time>2026-09-03T08:15:24.000Z</time>
        <extensions>
          <ns3:TrackPointExtension>
            <ns3:hr>105</ns3:hr>
            <ns3:cad>85</ns3:cad>
          </ns3:TrackPointExtension>
        </extensions>
      </trkpt>
      <trkpt lat="44.67789025045931339263916015625" lon="6.772466786205768585205078125">
        <ele>1852.4000244140625</ele>
        <time>2026-09-03T08:15:25.000Z</time>
        <extensions>
          <ns3:TrackPointExtension>
            <ns3:hr>105</ns3:hr>
            <ns3:cad>85</ns3:cad>
          </ns3:TrackPointExtension>
        </extensions>
      </trkpt>
      <trkpt lat="44.67790768481791019439697265625" lon="6.77244708873331546783447265625">
        <ele>1852.199951171875</ele>
        <time>2026-09-03T08:15:26.000Z</time>
        <extensions>
          <ns3:TrackPointExtension>
            <ns3:hr>105</ns3:hr>
            <ns3:cad>85</ns3:cad>
          </ns3:TrackPointExtension>
        </extensions>
      </trkpt>
      <trkpt lat="44.67792746610939502716064453125" lon="6.7724310792982578277587890625">
        <ele>1851.800048828125</ele>
        <time>2026-09-03T08:15:27.000Z</time>
        <extensions>
          <ns3:TrackPointExtension>
            <ns3:hr>105</ns3:hr>
            <ns3:cad>85</ns3:cad>
          </ns3:TrackPointExtension>
        </extensions>
      </trkpt>
      <trkpt lat="44.67794054187834262847900390625" lon="6.7724128067493438720703125">
        <ele>1851.5999755859375</ele>
        <time>2026-09-03T08:15:28.000Z</time>
        <extensions>
          <ns3:TrackPointExtension>
            <ns3:hr>105</ns3:hr>
            <ns3:cad>85</ns3:cad>
          </ns3:TrackPointExtension>
        </extensions>
      </trkpt>
      <trkpt lat="44.67794657684862613677978515625" lon="6.77239092998206615447998046875">
        <ele>1851.4000244140625</ele>
        <time>2026-09-03T08:15:29.000Z</time>
        <extensions>
          <ns3:TrackPointExtension>
            <ns3:hr>106</ns3:hr>
            <ns3:cad>85</ns3:cad>
          </ns3:TrackPointExtension>
        </extensions>
      </trkpt>
      <trkpt lat="44.67795613221824169158935546875" lon="6.77237248979508876800537109375">
        <ele>1851</ele>
        <time>2026-09-03T08:15:30.000Z</time>
        <extensions>
          <ns3:TrackPointExtension>
            <ns3:hr>106</ns3:hr>
            <ns3:cad>83</ns3:cad>
          </ns3:TrackPointExtension>
        </extensions>
      </trkpt>
      <trkpt lat="44.67796468175947666168212890625" lon="6.77235136739909648895263671875">
        <ele>1850.800048828125</ele>
        <time>2026-09-03T08:15:31.000Z</time>
        <extensions>
          <ns3:TrackPointExtension>
            <ns3:hr>106</ns3:hr>
            <ns3:cad>83</ns3:cad>
          </ns3:TrackPointExtension>
        </extensions>
      </trkpt>
      <trkpt lat="44.67797943390905857086181640625" lon="6.7723350226879119873046875">
        <ele>1850.5999755859375</ele>
        <time>2026-09-03T08:15:32.000Z</time>
        <extensions>
          <ns3:TrackPointExtension>
            <ns3:hr>106</ns3:hr>
            <ns3:cad>83</ns3:cad>
          </ns3:TrackPointExtension>
        </extensions>
      </trkpt>
      <trkpt lat="44.677987061440944671630859375" lon="6.77231666631996631622314453125">
        <ele>1850.199951171875</ele>
        <time>2026-09-03T08:15:33.000Z</time>
        <extensions>
          <ns3:TrackPointExtension>
            <ns3:hr>106</ns3:hr>
            <ns3:cad>83</ns3:cad>
          </ns3:TrackPointExtension>
        </extensions>
      </trkpt>
      <trkpt lat="44.67800223268568515777587890625" lon="6.77230224944651126861572265625">
        <ele>1849.800048828125</ele>
        <time>2026-09-03T08:15:34.000Z</time>
        <extensions>
          <ns3:TrackPointExtension>
            <ns3:hr>107</ns3:hr>
            <ns3:cad>89</ns3:cad>
          </ns3:TrackPointExtension>
        </extensions>
      </trkpt>
      <trkpt lat="44.6780150569975376129150390625" lon="6.77228179760277271270751953125">
        <ele>1849.199951171875</ele>
        <time>2026-09-03T08:15:35.000Z</time>
        <extensions>
          <ns3:TrackPointExtension>
            <ns3:hr>107</ns3:hr>
            <ns3:cad>89</ns3:cad>
          </ns3:TrackPointExtension>
        </extensions>
      </trkpt>
      <trkpt lat="44.67803098261356353759765625" lon="6.772267632186412811279296875">
        <ele>1848.800048828125</ele>
        <time>2026-09-03T08:15:36.000Z</time>
        <extensions>
          <ns3:TrackPointExtension>
            <ns3:hr>107</ns3:hr>
            <ns3:cad>89</ns3:cad>
          </ns3:TrackPointExtension>
        </extensions>
      </trkpt>
      <trkpt lat="44.678045399487018585205078125" lon="6.77224977873265743255615234375">
        <ele>1848.199951171875</ele>
        <time>2026-09-03T08:15:37.000Z</time>
        <extensions>
          <ns3:TrackPointExtension>
            <ns3:hr>107</ns3:hr>
            <ns3:cad>91</ns3:cad>
          </ns3:TrackPointExtension>
        </extensions>
      </trkpt>
      <trkpt lat="44.678065516054630279541015625" lon="6.77223913371562957763671875">
        <ele>1847.800048828125</ele>
        <time>2026-09-03T08:15:38.000Z</time>
        <extensions>
          <ns3:TrackPointExtension>
            <ns3:hr>107</ns3:hr>
            <ns3:cad>91</ns3:cad>
          </ns3:TrackPointExtension>
        </extensions>
      </trkpt>
      <trkpt lat="44.67807850800454616546630859375" lon="6.77223519422113895416259765625">
        <ele>1847.199951171875</ele>
        <time>2026-09-03T08:15:39.000Z</time>
        <extensions>
          <ns3:TrackPointExtension>
            <ns3:hr>108</ns3:hr>
            <ns3:cad>88</ns3:cad>
          </ns3:TrackPointExtension>
        </extensions>
      </trkpt>
      <trkpt lat="44.6780774183571338653564453125" lon="6.772227399051189422607421875">
        <ele>1846.800048828125</ele>
        <time>2026-09-03T08:15:40.000Z</time>
        <extensions>
          <ns3:TrackPointExtension>
            <ns3:hr>108</ns3:hr>
            <ns3:cad>88</ns3:cad>
          </ns3:TrackPointExtension>
        </extensions>
      </trkpt>
      <trkpt lat="44.6780851297080516815185546875" lon="6.772224046289920806884765625">
        <ele>1846.5999755859375</ele>
        <time>2026-09-03T08:15:41.000Z</time>
        <extensions>
          <ns3:TrackPointExtension>
            <ns3:hr>108</ns3:hr>
            <ns3:cad>86</ns3:cad>
          </ns3:TrackPointExtension>
        </extensions>
      </trkpt>
      <trkpt lat="44.678089655935764312744140625" lon="6.77220954559743404388427734375">
        <ele>1846.199951171875</ele>
        <time>2026-09-03T08:15:42.000Z</time>
        <extensions>
          <ns3:TrackPointExtension>
            <ns3:hr>108</ns3:hr>
            <ns3:cad>86</ns3:cad>
          </ns3:TrackPointExtension>
        </extensions>
      </trkpt>
      <trkpt lat="44.6780985407531261444091796875" lon="6.772198565304279327392578125">
        <ele>1846</ele>
        <time>2026-09-03T08:15:43.000Z</time>
        <extensions>
          <ns3:TrackPointExtension>
            <ns3:hr>108</ns3:hr>
            <ns3:cad>86</ns3:cad>
          </ns3:TrackPointExtension>
        </extensions>
      </trkpt>
      <trkpt lat="44.678102396428585052490234375" lon="6.77219060249626636505126953125">
        <ele>1845.5999755859375</ele>
        <time>2026-09-03T08:15:44.000Z</time>
        <extensions>
          <ns3:TrackPointExtension>
            <ns3:hr>108</ns3:hr>
            <ns3:cad>86</ns3:cad>
          </ns3:TrackPointExtension>
        </extensions>
      </trkpt>
      <trkpt lat="44.67809862457215785980224609375" lon="6.772189848124980926513671875">
        <ele>1845.199951171875</ele>
        <time>2026-09-03T08:15:45.000Z</time>
        <extensions>
          <ns3:TrackPointExtension>
            <ns3:hr>109</ns3:hr>
            <ns3:cad>83</ns3:cad>
          </ns3:TrackPointExtension>
        </extensions>
      </trkpt>
      <trkpt lat="44.678089320659637451171875" lon="6.77219797857105731964111328125">
        <ele>1845</ele>
        <time>2026-09-03T08:15:46.000Z</time>
        <extensions>
          <ns3:TrackPointExtension>
            <ns3:hr>108</ns3:hr>
            <ns3:cad>83</ns3:cad>
          </ns3:TrackPointExtension>
        </extensions>
      </trkpt>
      <trkpt lat="44.6780844591557979583740234375" lon="6.77220560610294342041015625">
        <ele>1844.5999755859375</ele>
        <time>2026-09-03T08:15:47.000Z</time>
        <extensions>
          <ns3:TrackPointExtension>
            <ns3:hr>108</ns3:hr>
            <ns3:cad>83</ns3:cad>
          </ns3:TrackPointExtension>
        </extensions>
      </trkpt>
      <trkpt lat="44.67807658016681671142578125" lon="6.772201247513294219970703125">
        <ele>1844.199951171875</ele>
        <time>2026-09-03T08:15:48.000Z</time>
        <extensions>
          <ns3:TrackPointExtension>
            <ns3:hr>108</ns3:hr>
            <ns3:cad>83</ns3:cad>
          </ns3:TrackPointExtension>
        </extensions>
      </trkpt>
      <trkpt lat="44.67808370478451251983642578125" lon="6.772192530333995819091796875">
        <ele>1844</ele>
        <time>2026-09-03T08:15:49.000Z</time>
        <extensions>
          <ns3:TrackPointExtension>
            <ns3:hr>108</ns3:hr>
            <ns3:cad>83</ns3:cad>
          </ns3:TrackPointExtension>
        </extensions>
      </trkpt>
      <trkpt lat="44.6780854649841785430908203125" lon="6.772193871438503265380859375">
        <ele>1843.800048828125</ele>
        <time>2026-09-03T08:15:50.000Z</time>
        <extensions>
          <ns3:TrackPointExtension>
            <ns3:hr>108</ns3:hr>
            <ns3:cad>83</ns3:cad>
          </ns3:TrackPointExtension>
        </extensions>
      </trkpt>
      <trkpt lat="44.678074233233928680419921875" lon="6.7721910215914249420166015625">
        <ele>1843.5999755859375</ele>
        <time>2026-09-03T08:15:51.000Z</time>
        <extensions>
          <ns3:TrackPointExtension>
            <ns3:hr>107</ns3:hr>
            <ns3:cad>76</ns3:cad>
          </ns3:TrackPointExtension>
        </extensions>
      </trkpt>
      <trkpt lat="44.67806710861623287200927734375" lon="6.77218808792531490325927734375">
        <ele>1843.199951171875</ele>
        <time>2026-09-03T08:15:52.000Z</time>
        <extensions>
          <ns3:TrackPointExtension>
            <ns3:hr>107</ns3:hr>
            <ns3:cad>76</ns3:cad>
          </ns3:TrackPointExtension>
        </extensions>
      </trkpt>
      <trkpt lat="44.6780584752559661865234375" lon="6.7721875011920928955078125">
        <ele>1842.800048828125</ele>
        <time>2026-09-03T08:15:53.000Z</time>
        <extensions>
          <ns3:TrackPointExtension>
            <ns3:hr>106</ns3:hr>
            <ns3:cad>76</ns3:cad>
          </ns3:TrackPointExtension>
        </extensions>
      </trkpt>
      <trkpt lat="44.67804229818284511566162109375" lon="6.7721901834011077880859375">
        <ele>1842.5999755859375</ele>
        <time>2026-09-03T08:15:54.000Z</time>
        <extensions>
          <ns3:TrackPointExtension>
            <ns3:hr>105</ns3:hr>
            <ns3:cad>0</ns3:cad>
          </ns3:TrackPointExtension>
        </extensions>
      </trkpt>
      <trkpt lat="44.67802670784294605255126953125" lon="6.772189177572727203369140625">
        <ele>1842.199951171875</ele>
        <time>2026-09-03T08:15:55.000Z</time>
        <extensions>
          <ns3:TrackPointExtension>
            <ns3:hr>104</ns3:hr>
            <ns3:cad>0</ns3:cad>
          </ns3:TrackPointExtension>
        </extensions>
      </trkpt>
      <trkpt lat="44.67801245860755443572998046875" lon="6.7721859924495220184326171875">
        <ele>1841.800048828125</ele>
        <time>2026-09-03T08:15:56.000Z</time>
        <extensions>
          <ns3:TrackPointExtension>
            <ns3:hr>104</ns3:hr>
            <ns3:cad>81</ns3:cad>
          </ns3:TrackPointExtension>
        </extensions>
      </trkpt>
      <trkpt lat="44.67799938283860683441162109375" lon="6.77217920310795307159423828125">
        <ele>1841.4000244140625</ele>
        <time>2026-09-03T08:15:57.000Z</time>
        <extensions>
          <ns3:TrackPointExtension>
            <ns3:hr>104</ns3:hr>
            <ns3:cad>81</ns3:cad>
          </ns3:TrackPointExtension>
        </extensions>
      </trkpt>
      <trkpt lat="44.6779862232506275177001953125" lon="6.77217610180377960205078125">
        <ele>1841</ele>
        <time>2026-09-03T08:15:58.000Z</time>
        <extensions>
          <ns3:TrackPointExtension>
            <ns3:hr>104</ns3:hr>
            <ns3:cad>81</ns3:cad>
          </ns3:TrackPointExtension>
        </extensions>
      </trkpt>
      <trkpt lat="44.677970297634601593017578125" lon="6.77217635326087474822998046875">
        <ele>1840.5999755859375</ele>
        <time>2026-09-03T08:15:59.000Z</time>
        <extensions>
          <ns3:TrackPointExtension>
            <ns3:hr>104</ns3:hr>
            <ns3:cad>83</ns3:cad>
          </ns3:TrackPointExtension>
        </extensions>
      </trkpt>
      <trkpt lat="44.67796820215880870819091796875" lon="6.77217735908925533294677734375">
        <ele>1840.199951171875</ele>
        <time>2026-09-03T08:16:00.000Z</time>
        <extensions>
          <ns3:TrackPointExtension>
            <ns3:hr>104</ns3:hr>
            <ns3:cad>83</ns3:cad>
          </ns3:TrackPointExtension>
        </extensions>
      </trkpt>
      <trkpt lat="44.67795914970338344573974609375" lon="6.77217853255569934844970703125">
        <ele>1839.800048828125</ele>
        <time>2026-09-03T08:16:01.000Z</time>
        <extensions>
          <ns3:TrackPointExtension>
            <ns3:hr>105</ns3:hr>
            <ns3:cad>83</ns3:cad>
          </ns3:TrackPointExtension>
        </extensions>
      </trkpt>
      <trkpt lat="44.6779412962496280670166015625" lon="6.77218951284885406494140625">
        <ele>1839.5999755859375</ele>
        <time>2026-09-03T08:16:02.000Z</time>
        <extensions>
          <ns3:TrackPointExtension>
            <ns3:hr>105</ns3:hr>
            <ns3:cad>83</ns3:cad>
          </ns3:TrackPointExtension>
        </extensions>
      </trkpt>
      <trkpt lat="44.67792771756649017333984375" lon="6.7721963860094547271728515625">
        <ele>1839.199951171875</ele>
        <time>2026-09-03T08:16:03.000Z</time>
        <extensions>
          <ns3:TrackPointExtension>
            <ns3:hr>107</ns3:hr>
            <ns3:cad>83</ns3:cad>
          </ns3:TrackPointExtension>
        </extensions>
      </trkpt>
      <trkpt lat="44.677912630140781402587890625" lon="6.77219429053366184234619140625">
        <ele>1839</ele>
        <time>2026-09-03T08:16:04.000Z</time>
        <extensions>
          <ns3:TrackPointExtension>
            <ns3:hr>110</ns3:hr>
            <ns3:cad>83</ns3:cad>
          </ns3:TrackPointExtension>
        </extensions>
      </trkpt>
      <trkpt lat="44.6778960339725017547607421875" lon="6.772192530333995819091796875">
        <ele>1838.5999755859375</ele>
        <time>2026-09-03T08:16:05.000Z</time>
        <extensions>
          <ns3:TrackPointExtension>
            <ns3:hr>112</ns3:hr>
            <ns3:cad>83</ns3:cad>
          </ns3:TrackPointExtension>
        </extensions>
      </trkpt>
      <trkpt lat="44.67788052745163440704345703125" lon="6.77219630219042301177978515625">
        <ele>1838.199951171875</ele>
        <time>2026-09-03T08:16:06.000Z</time>
        <extensions>
          <ns3:TrackPointExtension>
            <ns3:hr>113</ns3:hr>
            <ns3:cad>83</ns3:cad>
          </ns3:TrackPointExtension>
        </extensions>
      </trkpt>
      <trkpt lat="44.67786929570138454437255859375" lon="6.7721960507333278656005859375">
        <ele>1837.800048828125</ele>
        <time>2026-09-03T08:16:07.000Z</time>
        <extensions>
          <ns3:TrackPointExtension>
            <ns3:hr>114</ns3:hr>
            <ns3:cad>75</ns3:cad>
          </ns3:TrackPointExtension>
        </extensions>
      </trkpt>
      <trkpt lat="44.67785806395113468170166015625" lon="6.7721983976662158966064453125">
        <ele>1837.4000244140625</ele>
        <time>2026-09-03T08:16:08.000Z</time>
        <extensions>
          <ns3:TrackPointExtension>
            <ns3:hr>115</ns3:hr>
            <ns3:cad>75</ns3:cad>
          </ns3:TrackPointExtension>
        </extensions>
      </trkpt>
      <trkpt lat="44.67784414999186992645263671875" lon="6.77220116369426250457763671875">
        <ele>1837</ele>
        <time>2026-09-03T08:16:09.000Z</time>
        <extensions>
          <ns3:TrackPointExtension>
            <ns3:hr>115</ns3:hr>
            <ns3:cad>75</ns3:cad>
          </ns3:TrackPointExtension>
        </extensions>
      </trkpt>
      <trkpt lat="44.6778350137174129486083984375" lon="6.77219697274267673492431640625">
        <ele>1836.800048828125</ele>
        <time>2026-09-03T08:16:10.000Z</time>
        <extensions>
          <ns3:TrackPointExtension>
            <ns3:hr>116</ns3:hr>
            <ns3:cad>75</ns3:cad>
          </ns3:TrackPointExtension>
        </extensions>
      </trkpt>
      <trkpt lat="44.67782353051006793975830078125" lon="6.77219864912331104278564453125">
        <ele>1836.4000244140625</ele>
        <time>2026-09-03T08:16:11.000Z</time>
        <extensions>
          <ns3:TrackPointExtension>
            <ns3:hr>116</ns3:hr>
            <ns3:cad>75</ns3:cad>
          </ns3:TrackPointExtension>
        </extensions>
      </trkpt>
      <trkpt lat="44.677814058959484100341796875" lon="6.7721983976662158966064453125">
        <ele>1836</ele>
        <time>2026-09-03T08:16:12.000Z</time>
        <extensions>
          <ns3:TrackPointExtension>
            <ns3:hr>116</ns3:hr>
            <ns3:cad>77</ns3:cad>
          </ns3:TrackPointExtension>
        </extensions>
      </trkpt>
      <trkpt lat="44.67780391685664653778076171875" lon="6.7721937038004398345947265625">
        <ele>1835.800048828125</ele>
        <time>2026-09-03T08:16:13.000Z</time>
        <extensions>
          <ns3:TrackPointExtension>
            <ns3:hr>117</ns3:hr>
            <ns3:cad>77</ns3:cad>
          </ns3:TrackPointExtension>
        </extensions>
      </trkpt>
      <trkpt lat="44.6777910925447940826416015625" lon="6.7721873335540294647216796875">
        <ele>1835.4000244140625</ele>
        <time>2026-09-03T08:16:14.000Z</time>
        <extensions>
          <ns3:TrackPointExtension>
            <ns3:hr>116</ns3:hr>
            <ns3:cad>77</ns3:cad>
          </ns3:TrackPointExtension>
        </extensions>
      </trkpt>
      <trkpt lat="44.6777726523578166961669921875" lon="6.77220384590327739715576171875">
        <ele>1835</ele>
        <time>2026-09-03T08:16:15.000Z</time>
        <extensions>
          <ns3:TrackPointExtension>
            <ns3:hr>116</ns3:hr>
            <ns3:cad>77</ns3:cad>
          </ns3:TrackPointExtension>
        </extensions>
      </trkpt>
      <trkpt lat="44.6777553856372833251953125" lon="6.7722030915319919586181640625">
        <ele>1834.800048828125</ele>
        <time>2026-09-03T08:16:16.000Z</time>
        <extensions>
          <ns3:TrackPointExtension>
            <ns3:hr>117</ns3:hr>
            <ns3:cad>77</ns3:cad>
          </ns3:TrackPointExtension>
        </extensions>
      </trkpt>
      <trkpt lat="44.67774172313511371612548828125" lon="6.7722030915319919586181640625">
        <ele>1834.4000244140625</ele>
        <time>2026-09-03T08:16:17.000Z</time>
        <extensions>
          <ns3:TrackPointExtension>
            <ns3:hr>116</ns3:hr>
            <ns3:cad>40</ns3:cad>
          </ns3:TrackPointExtension>
        </extensions>
      </trkpt>
      <trkpt lat="44.67772562988102436065673828125" lon="6.7721987329423427581787109375">
        <ele>1834.199951171875</ele>
        <time>2026-09-03T08:16:18.000Z</time>
        <extensions>
          <ns3:TrackPointExtension>
            <ns3:hr>116</ns3:hr>
            <ns3:cad>40</ns3:cad>
          </ns3:TrackPointExtension>
        </extensions>
      </trkpt>
      <trkpt lat="44.67771037481725215911865234375" lon="6.77219646982848644256591796875">
        <ele>1833.800048828125</ele>
        <time>2026-09-03T08:16:19.000Z</time>
        <extensions>
          <ns3:TrackPointExtension>
            <ns3:hr>116</ns3:hr>
            <ns3:cad>80</ns3:cad>
          </ns3:TrackPointExtension>
        </extensions>
      </trkpt>
      <trkpt lat="44.677703417837619781494140625" lon="6.772193871438503265380859375">
        <ele>1833.4000244140625</ele>
        <time>2026-09-03T08:16:20.000Z</time>
        <extensions>
          <ns3:TrackPointExtension>
            <ns3:hr>116</ns3:hr>
            <ns3:cad>80</ns3:cad>
          </ns3:TrackPointExtension>
        </extensions>
      </trkpt>
      <trkpt lat="44.67768891714513301849365234375" lon="6.772197894752025604248046875">
        <ele>1833.199951171875</ele>
        <time>2026-09-03T08:16:21.000Z</time>
        <extensions>
          <ns3:TrackPointExtension>
            <ns3:hr>117</ns3:hr>
            <ns3:cad>80</ns3:cad>
          </ns3:TrackPointExtension>
        </extensions>
      </trkpt>
      <trkpt lat="44.67767617665231227874755859375" lon="6.7721973918378353118896484375">
        <ele>1832.800048828125</ele>
        <time>2026-09-03T08:16:22.000Z</time>
        <extensions>
          <ns3:TrackPointExtension>
            <ns3:hr>116</ns3:hr>
            <ns3:cad>80</ns3:cad>
          </ns3:TrackPointExtension>
        </extensions>
      </trkpt>
      <trkpt lat="44.67765974812209606170654296875" lon="6.77219546400010585784912109375">
        <ele>1832.5999755859375</ele>
        <time>2026-09-03T08:16:23.000Z</time>
        <extensions>
          <ns3:TrackPointExtension>
            <ns3:hr>116</ns3:hr>
            <ns3:cad>80</ns3:cad>
          </ns3:TrackPointExtension>
        </extensions>
      </trkpt>
      <trkpt lat="44.6776418946683406829833984375" lon="6.77219479344785213470458984375">
        <ele>1832.199951171875</ele>
        <time>2026-09-03T08:16:24.000Z</time>
        <extensions>
          <ns3:TrackPointExtension>
            <ns3:hr>117</ns3:hr>
            <ns3:cad>80</ns3:cad>
          </ns3:TrackPointExtension>
        </extensions>
      </trkpt>
      <trkpt lat="44.6776258014142513275146484375" lon="6.7721901834011077880859375">
        <ele>1832</ele>
        <time>2026-09-03T08:16:25.000Z</time>
        <extensions>
          <ns3:TrackPointExtension>
            <ns3:hr>116</ns3:hr>
            <ns3:cad>80</ns3:cad>
          </ns3:TrackPointExtension>
        </extensions>
      </trkpt>
      <trkpt lat="44.6776120550930500030517578125" lon="6.77218959666788578033447265625">
        <ele>1831.5999755859375</ele>
        <time>2026-09-03T08:16:26.000Z</time>
        <extensions>
          <ns3:TrackPointExtension>
            <ns3:hr>116</ns3:hr>
            <ns3:cad>80</ns3:cad>
          </ns3:TrackPointExtension>
        </extensions>
      </trkpt>
      <trkpt lat="44.677592106163501739501953125" lon="6.772193871438503265380859375">
        <ele>1831.199951171875</ele>
        <time>2026-09-03T08:16:27.000Z</time>
        <extensions>
          <ns3:TrackPointExtension>
            <ns3:hr>115</ns3:hr>
            <ns3:cad>80</ns3:cad>
          </ns3:TrackPointExtension>
        </extensions>
      </trkpt>
      <trkpt lat="44.67757768929004669189453125" lon="6.7721977271139621734619140625">
        <ele>1830.800048828125</ele>
        <time>2026-09-03T08:16:28.000Z</time>
        <extensions>
          <ns3:TrackPointExtension>
            <ns3:hr>115</ns3:hr>
            <ns3:cad>80</ns3:cad>
          </ns3:TrackPointExtension>
        </extensions>
      </trkpt>
      <trkpt lat="44.67756117694079875946044921875" lon="6.7721973918378353118896484375">
        <ele>1830.5999755859375</ele>
        <time>2026-09-03T08:16:29.000Z</time>
        <extensions>
          <ns3:TrackPointExtension>
            <ns3:hr>114</ns3:hr>
            <ns3:cad>80</ns3:cad>
          </ns3:TrackPointExtension>
        </extensions>
      </trkpt>
      <trkpt lat="44.6775470115244388580322265625" lon="6.77219311706721782684326171875">
        <ele>1830.199951171875</ele>
        <time>2026-09-03T08:16:30.000Z</time>
        <extensions>
          <ns3:TrackPointExtension>
            <ns3:hr>114</ns3:hr>
            <ns3:cad>80</ns3:cad>
          </ns3:TrackPointExtension>
        </extensions>
      </trkpt>
      <trkpt lat="44.6775332652032375335693359375" lon="6.77218758501112461090087890625">
        <ele>1829.5999755859375</ele>
        <time>2026-09-03T08:16:31.000Z</time>
        <extensions>
          <ns3:TrackPointExtension>
            <ns3:hr>114</ns3:hr>
            <ns3:cad>80</ns3:cad>
          </ns3:TrackPointExtension>
        </extensions>
      </trkpt>
      <trkpt lat="44.67751708813011646270751953125" lon="6.77218121476471424102783203125">
        <ele>1829.199951171875</ele>
        <time>2026-09-03T08:16:32.000Z</time>
        <extensions>
          <ns3:TrackPointExtension>
            <ns3:hr>114</ns3:hr>
            <ns3:cad>82</ns3:cad>
          </ns3:TrackPointExtension>
        </extensions>
      </trkpt>
      <trkpt lat="44.6775040961802005767822265625" lon="6.77217543125152587890625">
        <ele>1828.800048828125</ele>
        <time>2026-09-03T08:16:33.000Z</time>
        <extensions>
          <ns3:TrackPointExtension>
            <ns3:hr>115</ns3:hr>
            <ns3:cad>82</ns3:cad>
          </ns3:TrackPointExtension>
        </extensions>
      </trkpt>
      <trkpt lat="44.67748892493546009063720703125" lon="6.7721715755760669708251953125">
        <ele>1828.5999755859375</ele>
        <time>2026-09-03T08:16:34.000Z</time>
        <extensions>
          <ns3:TrackPointExtension>
            <ns3:hr>115</ns3:hr>
            <ns3:cad>83</ns3:cad>
          </ns3:TrackPointExtension>
        </extensions>
      </trkpt>
      <trkpt lat="44.67746998183429241180419921875" lon="6.77216981537640094757080078125">
        <ele>1828.199951171875</ele>
        <time>2026-09-03T08:16:35.000Z</time>
        <extensions>
          <ns3:TrackPointExtension>
            <ns3:hr>115</ns3:hr>
            <ns3:cad>85</ns3:cad>
          </ns3:TrackPointExtension>
        </extensions>
      </trkpt>
      <trkpt lat="44.6774578280746936798095703125" lon="6.77217073738574981689453125">
        <ele>1827.800048828125</ele>
        <time>2026-09-03T08:16:36.000Z</time>
        <extensions>
          <ns3:TrackPointExtension>
            <ns3:hr>116</ns3:hr>
            <ns3:cad>85</ns3:cad>
          </ns3:TrackPointExtension>
        </extensions>
      </trkpt>
      <trkpt lat="44.677447266876697540283203125" lon="6.7721702344715595245361328125">
        <ele>1827.5999755859375</ele>
        <time>2026-09-03T08:16:37.000Z</time>
        <extensions>
          <ns3:TrackPointExtension>
            <ns3:hr>116</ns3:hr>
            <ns3:cad>85</ns3:cad>
          </ns3:TrackPointExtension>
        </extensions>
      </trkpt>
      <trkpt lat="44.6774367056787014007568359375" lon="6.77216964773833751678466796875">
        <ele>1827.4000244140625</ele>
        <time>2026-09-03T08:16:38.000Z</time>
        <extensions>
          <ns3:TrackPointExtension>
            <ns3:hr>116</ns3:hr>
            <ns3:cad>85</ns3:cad>
          </ns3:TrackPointExtension>
        </extensions>
      </trkpt>
      <trkpt lat="44.67743326909840106964111328125" lon="6.77216361276805400848388671875">
        <ele>1827</ele>
        <time>2026-09-03T08:16:39.000Z</time>
        <extensions>
          <ns3:TrackPointExtension>
            <ns3:hr>117</ns3:hr>
            <ns3:cad>85</ns3:cad>
          </ns3:TrackPointExtension>
        </extensions>
      </trkpt>
      <trkpt lat="44.677424468100070953369140625" lon="6.77216646261513233184814453125">
        <ele>1826.800048828125</ele>
        <time>2026-09-03T08:16:40.000Z</time>
        <extensions>
          <ns3:TrackPointExtension>
            <ns3:hr>117</ns3:hr>
            <ns3:cad>79</ns3:cad>
          </ns3:TrackPointExtension>
        </extensions>
      </trkpt>
      <trkpt lat="44.6774160861968994140625" lon="6.77216411568224430084228515625">
        <ele>1826.800048828125</ele>
        <time>2026-09-03T08:16:41.000Z</time>
        <extensions>
          <ns3:TrackPointExtension>
            <ns3:hr>117</ns3:hr>
            <ns3:cad>68</ns3:cad>
          </ns3:TrackPointExtension>
        </extensions>
      </trkpt>
      <trkpt lat="44.67740728519856929779052734375" lon="6.77215942181646823883056640625">
        <ele>1826.5999755859375</ele>
        <time>2026-09-03T08:16:42.000Z</time>
        <extensions>
          <ns3:TrackPointExtension>
            <ns3:hr>117</ns3:hr>
            <ns3:cad>0</ns3:cad>
          </ns3:TrackPointExtension>
        </extensions>
      </trkpt>
      <trkpt lat="44.67739404179155826568603515625" lon="6.77215321920812129974365234375">
        <ele>1826.199951171875</ele>
        <time>2026-09-03T08:16:43.000Z</time>
        <extensions>
          <ns3:TrackPointExtension>
            <ns3:hr>117</ns3:hr>
            <ns3:cad>0</ns3:cad>
          </ns3:TrackPointExtension>
        </extensions>
      </trkpt>
      <trkpt lat="44.6773776970803737640380859375" lon="6.77216537296772003173828125">
        <ele>1825.800048828125</ele>
        <time>2026-09-03T08:16:44.000Z</time>
        <extensions>
          <ns3:TrackPointExtension>
            <ns3:hr>117</ns3:hr>
            <ns3:cad>0</ns3:cad>
          </ns3:TrackPointExtension>
        </extensions>
      </trkpt>
      <trkpt lat="44.67736168764531612396240234375" lon="6.77216545678675174713134765625">
        <ele>1825.4000244140625</ele>
        <time>2026-09-03T08:16:45.000Z</time>
        <extensions>
          <ns3:TrackPointExtension>
            <ns3:hr>117</ns3:hr>
            <ns3:cad>0</ns3:cad>
          </ns3:TrackPointExtension>
        </extensions>
      </trkpt>
      <trkpt lat="44.6773458458483219146728515625" lon="6.7721662111580371856689453125">
        <ele>1824.800048828125</ele>
        <time>2026-09-03T08:16:46.000Z</time>
        <extensions>
          <ns3:TrackPointExtension>
            <ns3:hr>117</ns3:hr>
            <ns3:cad>0</ns3:cad>
          </ns3:TrackPointExtension>
        </extensions>
      </trkpt>
      <trkpt lat="44.67733117751777172088623046875" lon="6.77216813899576663970947265625">
        <ele>1824.199951171875</ele>
        <time>2026-09-03T08:16:47.000Z</time>
        <extensions>
          <ns3:TrackPointExtension>
            <ns3:hr>116</ns3:hr>
            <ns3:cad>0</ns3:cad>
          </ns3:TrackPointExtension>
        </extensions>
      </trkpt>
      <trkpt lat="44.6773166768252849578857421875" lon="6.77216998301446437835693359375">
        <ele>1823.800048828125</ele>
        <time>2026-09-03T08:16:48.000Z</time>
        <extensions>
          <ns3:TrackPointExtension>
            <ns3:hr>116</ns3:hr>
            <ns3:cad>0</ns3:cad>
          </ns3:TrackPointExtension>
        </extensions>
      </trkpt>
      <trkpt lat="44.6773029305040836334228515625" lon="6.77216964773833751678466796875">
        <ele>1823.4000244140625</ele>
        <time>2026-09-03T08:16:49.000Z</time>
        <extensions>
          <ns3:TrackPointExtension>
            <ns3:hr>115</ns3:hr>
            <ns3:cad>85</ns3:cad>
          </ns3:TrackPointExtension>
        </extensions>
      </trkpt>
      <trkpt lat="44.67729127965867519378662109375" lon="6.7721668817102909088134765625">
        <ele>1823</ele>
        <time>2026-09-03T08:16:50.000Z</time>
        <extensions>
          <ns3:TrackPointExtension>
            <ns3:hr>115</ns3:hr>
            <ns3:cad>85</ns3:cad>
          </ns3:TrackPointExtension>
        </extensions>
      </trkpt>
      <trkpt lat="44.67728138901293277740478515625" lon="6.772167049348354339599609375">
        <ele>1822.5999755859375</ele>
        <time>2026-09-03T08:16:51.000Z</time>
        <extensions>
          <ns3:TrackPointExtension>
            <ns3:hr>114</ns3:hr>
            <ns3:cad>88</ns3:cad>
          </ns3:TrackPointExtension>
        </extensions>
      </trkpt>
      <trkpt lat="44.6772687323391437530517578125" lon="6.77215958945453166961669921875">
        <ele>1822.199951171875</ele>
        <time>2026-09-03T08:16:52.000Z</time>
        <extensions>
          <ns3:TrackPointExtension>
            <ns3:hr>114</ns3:hr>
            <ns3:cad>89</ns3:cad>
          </ns3:TrackPointExtension>
        </extensions>
      </trkpt>
      <trkpt lat="44.67726093716919422149658203125" lon="6.7721588350832462310791015625">
        <ele>1821.800048828125</ele>
        <time>2026-09-03T08:16:53.000Z</time>
        <extensions>
          <ns3:TrackPointExtension>
            <ns3:hr>115</ns3:hr>
            <ns3:cad>89</ns3:cad>
          </ns3:TrackPointExtension>
        </extensions>
      </trkpt>
      <trkpt lat="44.6772486157715320587158203125" lon="6.77215808071196079254150390625">
        <ele>1821.5999755859375</ele>
        <time>2026-09-03T08:16:54.000Z</time>
        <extensions>
          <ns3:TrackPointExtension>
            <ns3:hr>115</ns3:hr>
            <ns3:cad>89</ns3:cad>
          </ns3:TrackPointExtension>
        </extensions>
      </trkpt>
      <trkpt lat="44.67723143287003040313720703125" lon="6.7721524648368358612060546875">
        <ele>1821.199951171875</ele>
        <time>2026-09-03T08:16:55.000Z</time>
        <extensions>
          <ns3:TrackPointExtension>
            <ns3:hr>115</ns3:hr>
            <ns3:cad>89</ns3:cad>
          </ns3:TrackPointExtension>
        </extensions>
      </trkpt>
      <trkpt lat="44.6772221289575099945068359375" lon="6.7721484415233135223388671875">
        <ele>1820.800048828125</ele>
        <time>2026-09-03T08:16:56.000Z</time>
        <extensions>
          <ns3:TrackPointExtension>
            <ns3:hr>115</ns3:hr>
            <ns3:cad>85</ns3:cad>
          </ns3:TrackPointExtension>
        </extensions>
      </trkpt>
      <trkpt lat="44.6772043593227863311767578125" lon="6.77214701659977436065673828125">
        <ele>1820.4000244140625</ele>
        <time>2026-09-03T08:16:57.000Z</time>
        <extensions>
          <ns3:TrackPointExtension>
            <ns3:hr>115</ns3:hr>
            <ns3:cad>85</ns3:cad>
          </ns3:TrackPointExtension>
        </extensions>
      </trkpt>
      <trkpt lat="44.677186422049999237060546875" lon="6.77215053699910640716552734375">
        <ele>1820</ele>
        <time>2026-09-03T08:16:58.000Z</time>
        <extensions>
          <ns3:TrackPointExtension>
            <ns3:hr>115</ns3:hr>
            <ns3:cad>85</ns3:cad>
          </ns3:TrackPointExtension>
        </extensions>
      </trkpt>
      <trkpt lat="44.677171669900417327880859375" lon="6.77214550785720348358154296875">
        <ele>1819.800048828125</ele>
        <time>2026-09-03T08:16:59.000Z</time>
        <extensions>
          <ns3:TrackPointExtension>
            <ns3:hr>116</ns3:hr>
            <ns3:cad>85</ns3:cad>
          </ns3:TrackPointExtension>
        </extensions>
      </trkpt>
      <trkpt lat="44.677155911922454833984375" lon="6.77213989198207855224609375">
        <ele>1819.4000244140625</ele>
        <time>2026-09-03T08:17:00.000Z</time>
        <extensions>
          <ns3:TrackPointExtension>
            <ns3:hr>116</ns3:hr>
            <ns3:cad>85</ns3:cad>
          </ns3:TrackPointExtension>
        </extensions>
      </trkpt>
      <trkpt lat="44.67714040540158748626708984375" lon="6.77212974987924098968505859375">
        <ele>1819</ele>
        <time>2026-09-03T08:17:01.000Z</time>
        <extensions>
          <ns3:TrackPointExtension>
            <ns3:hr>115</ns3:hr>
            <ns3:cad>85</ns3:cad>
          </ns3:TrackPointExtension>
        </extensions>
      </trkpt>
      <trkpt lat="44.67712464742362499237060546875" lon="6.77211902104318141937255859375">
        <ele>1818.5999755859375</ele>
        <time>2026-09-03T08:17:02.000Z</time>
        <extensions>
          <ns3:TrackPointExtension>
            <ns3:hr>115</ns3:hr>
            <ns3:cad>85</ns3:cad>
          </ns3:TrackPointExtension>
        </extensions>
      </trkpt>
      <trkpt lat="44.6771067939698696136474609375" lon="6.77210963331162929534912109375">
        <ele>1818.199951171875</ele>
        <time>2026-09-03T08:17:03.000Z</time>
        <extensions>
          <ns3:TrackPointExtension>
            <ns3:hr>114</ns3:hr>
            <ns3:cad>85</ns3:cad>
          </ns3:TrackPointExtension>
        </extensions>
      </trkpt>
      <trkpt lat="44.67707988806068897247314453125" lon="6.7720981501042842864990234375">
        <ele>1817.800048828125</ele>
        <time>2026-09-03T08:17:04.000Z</time>
        <extensions>
          <ns3:TrackPointExtension>
            <ns3:hr>114</ns3:hr>
            <ns3:cad>85</ns3:cad>
          </ns3:TrackPointExtension>
        </extensions>
      </trkpt>
      <trkpt lat="44.677063040435314178466796875" lon="6.77209001965820789337158203125">
        <ele>1817.4000244140625</ele>
        <time>2026-09-03T08:17:05.000Z</time>
        <extensions>
          <ns3:TrackPointExtension>
            <ns3:hr>114</ns3:hr>
            <ns3:cad>85</ns3:cad>
          </ns3:TrackPointExtension>
        </extensions>
      </trkpt>
      <trkpt lat="44.67704736627638339996337890625" lon="6.77207577042281627655029296875">
        <ele>1817</ele>
        <time>2026-09-03T08:17:06.000Z</time>
        <extensions>
          <ns3:TrackPointExtension>
            <ns3:hr>115</ns3:hr>
            <ns3:cad>85</ns3:cad>
          </ns3:TrackPointExtension>
        </extensions>
      </trkpt>
      <trkpt lat="44.67703278176486492156982421875" lon="6.7720723338425159454345703125">
        <ele>1816.5999755859375</ele>
        <time>2026-09-03T08:17:07.000Z</time>
        <extensions>
          <ns3:TrackPointExtension>
            <ns3:hr>115</ns3:hr>
            <ns3:cad>85</ns3:cad>
          </ns3:TrackPointExtension>
        </extensions>
      </trkpt>
      <trkpt lat="44.6770152635872364044189453125" lon="6.7720703221857547760009765625">
        <ele>1816.4000244140625</ele>
        <time>2026-09-03T08:17:08.000Z</time>
        <extensions>
          <ns3:TrackPointExtension>
            <ns3:hr>115</ns3:hr>
            <ns3:cad>80</ns3:cad>
          </ns3:TrackPointExtension>
        </extensions>
      </trkpt>
      <trkpt lat="44.6769964881241321563720703125" lon="6.7720694839954376220703125">
        <ele>1816</ele>
        <time>2026-09-03T08:17:09.000Z</time>
        <extensions>
          <ns3:TrackPointExtension>
            <ns3:hr>116</ns3:hr>
            <ns3:cad>80</ns3:cad>
          </ns3:TrackPointExtension>
        </extensions>
      </trkpt>
      <trkpt lat="44.67698282562196254730224609375" lon="6.77205967716872692108154296875">
        <ele>1815.5999755859375</ele>
        <time>2026-09-03T08:17:10.000Z</time>
        <extensions>
          <ns3:TrackPointExtension>
            <ns3:hr>117</ns3:hr>
            <ns3:cad>80</ns3:cad>
          </ns3:TrackPointExtension>
        </extensions>
      </trkpt>
      <trkpt lat="44.67696882784366607666015625" lon="6.7720461823046207427978515625">
        <ele>1815.199951171875</ele>
        <time>2026-09-03T08:17:11.000Z</time>
        <extensions>
          <ns3:TrackPointExtension>
            <ns3:hr>117</ns3:hr>
            <ns3:cad>81</ns3:cad>
          </ns3:TrackPointExtension>
        </extensions>
      </trkpt>
      <trkpt lat="44.67695818282663822174072265625" lon="6.772032268345355987548828125">
        <ele>1814.800048828125</ele>
        <time>2026-09-03T08:17:12.000Z</time>
        <extensions>
          <ns3:TrackPointExtension>
            <ns3:hr>117</ns3:hr>
            <ns3:cad>81</ns3:cad>
          </ns3:TrackPointExtension>
        </extensions>
      </trkpt>
      <trkpt lat="44.6769384853541851043701171875" lon="6.7720270715653896331787109375">
        <ele>1814.199951171875</ele>
        <time>2026-09-03T08:17:13.000Z</time>
        <extensions>
          <ns3:TrackPointExtension>
            <ns3:hr>117</ns3:hr>
            <ns3:cad>81</ns3:cad>
          </ns3:TrackPointExtension>
        </extensions>
      </trkpt>
      <trkpt lat="44.67692398466169834136962890625" lon="6.77201340906322002410888671875">
        <ele>1813.800048828125</ele>
        <time>2026-09-03T08:17:14.000Z</time>
        <extensions>
          <ns3:TrackPointExtension>
            <ns3:hr>118</ns3:hr>
            <ns3:cad>81</ns3:cad>
          </ns3:TrackPointExtension>
        </extensions>
      </trkpt>
      <trkpt lat="44.6769116632640361785888671875" lon="6.77200536243617534637451171875">
        <ele>1813.4000244140625</ele>
        <time>2026-09-03T08:17:15.000Z</time>
        <extensions>
          <ns3:TrackPointExtension>
            <ns3:hr>117</ns3:hr>
            <ns3:cad>81</ns3:cad>
          </ns3:TrackPointExtension>
        </extensions>
      </trkpt>
      <trkpt lat="44.67690018005669116973876953125" lon="6.77199530415236949920654296875">
        <ele>1813</ele>
        <time>2026-09-03T08:17:16.000Z</time>
        <extensions>
          <ns3:TrackPointExtension>
            <ns3:hr>116</ns3:hr>
            <ns3:cad>81</ns3:cad>
          </ns3:TrackPointExtension>
        </extensions>
      </trkpt>
      <trkpt lat="44.676891379058361053466796875" lon="6.77198708988726139068603515625">
        <ele>1812.800048828125</ele>
        <time>2026-09-03T08:17:17.000Z</time>
        <extensions>
          <ns3:TrackPointExtension>
            <ns3:hr>115</ns3:hr>
            <ns3:cad>81</ns3:cad>
          </ns3:TrackPointExtension>
        </extensions>
      </trkpt>
      <trkpt lat="44.6768767945468425750732421875" lon="6.771992705762386322021484375">
        <ele>1812.199951171875</ele>
        <time>2026-09-03T08:17:18.000Z</time>
        <extensions>
          <ns3:TrackPointExtension>
            <ns3:hr>115</ns3:hr>
            <ns3:cad>81</ns3:cad>
          </ns3:TrackPointExtension>
        </extensions>
      </trkpt>
      <trkpt lat="44.67686958611011505126953125" lon="6.771996058523654937744140625">
        <ele>1811.800048828125</ele>
        <time>2026-09-03T08:17:19.000Z</time>
        <extensions>
          <ns3:TrackPointExtension>
            <ns3:hr>115</ns3:hr>
            <ns3:cad>81</ns3:cad>
          </ns3:TrackPointExtension>
        </extensions>
      </trkpt>
      <trkpt lat="44.67684812843799591064453125" lon="6.7719962261617183685302734375">
        <ele>1811.4000244140625</ele>
        <time>2026-09-03T08:17:20.000Z</time>
        <extensions>
          <ns3:TrackPointExtension>
            <ns3:hr>114</ns3:hr>
            <ns3:cad>81</ns3:cad>
          </ns3:TrackPointExtension>
        </extensions>
      </trkpt>
      <trkpt lat="44.6768328733742237091064453125" lon="6.77200066857039928436279296875">
        <ele>1811</ele>
        <time>2026-09-03T08:17:21.000Z</time>
        <extensions>
          <ns3:TrackPointExtension>
            <ns3:hr>114</ns3:hr>
            <ns3:cad>0</ns3:cad>
          </ns3:TrackPointExtension>
        </extensions>
      </trkpt>
      <trkpt lat="44.67681728303432464599609375" lon="6.77200050093233585357666015625">
        <ele>1810.800048828125</ele>
        <time>2026-09-03T08:17:22.000Z</time>
        <extensions>
          <ns3:TrackPointExtension>
            <ns3:hr>114</ns3:hr>
            <ns3:cad>0</ns3:cad>
          </ns3:TrackPointExtension>
        </extensions>
      </trkpt>
      <trkpt lat="44.676812253892421722412109375" lon="6.77199295721948146820068359375">
        <ele>1810.4000244140625</ele>
        <time>2026-09-03T08:17:23.000Z</time>
        <extensions>
          <ns3:TrackPointExtension>
            <ns3:hr>114</ns3:hr>
            <ns3:cad>0</ns3:cad>
          </ns3:TrackPointExtension>
        </extensions>
      </trkpt>
      <trkpt lat="44.676797501742839813232421875" lon="6.771991364657878875732421875">
        <ele>1810</ele>
        <time>2026-09-03T08:17:24.000Z</time>
        <extensions>
          <ns3:TrackPointExtension>
            <ns3:hr>114</ns3:hr>
            <ns3:cad>82</ns3:cad>
          </ns3:TrackPointExtension>
        </extensions>
      </trkpt>
      <trkpt lat="44.67678450979292392730712890625" lon="6.77199128083884716033935546875">
        <ele>1809.5999755859375</ele>
        <time>2026-09-03T08:17:25.000Z</time>
        <extensions>
          <ns3:TrackPointExtension>
            <ns3:hr>114</ns3:hr>
            <ns3:cad>82</ns3:cad>
          </ns3:TrackPointExtension>
        </extensions>
      </trkpt>
      <trkpt lat="44.67677227221429347991943359375" lon="6.77197854034602642059326171875">
        <ele>1809.199951171875</ele>
        <time>2026-09-03T08:17:26.000Z</time>
        <extensions>
          <ns3:TrackPointExtension>
            <ns3:hr>114</ns3:hr>
            <ns3:cad>82</ns3:cad>
          </ns3:TrackPointExtension>
        </extensions>
      </trkpt>
      <trkpt lat="44.67676271684467792510986328125" lon="6.77196596749126911163330078125">
        <ele>1809</ele>
        <time>2026-09-03T08:17:27.000Z</time>
        <extensions>
          <ns3:TrackPointExtension>
            <ns3:hr>113</ns3:hr>
            <ns3:cad>82</ns3:cad>
          </ns3:TrackPointExtension>
        </extensions>
      </trkpt>
      <trkpt lat="44.6767772175371646881103515625" lon="6.77195213735103607177734375">
        <ele>1808.5999755859375</ele>
        <time>2026-09-03T08:17:28.000Z</time>
        <extensions>
          <ns3:TrackPointExtension>
            <ns3:hr>114</ns3:hr>
            <ns3:cad>82</ns3:cad>
          </ns3:TrackPointExtension>
        </extensions>
      </trkpt>
      <trkpt lat="44.67678752727806568145751953125" lon="6.77193948067724704742431640625">
        <ele>1808.199951171875</ele>
        <time>2026-09-03T08:17:29.000Z</time>
        <extensions>
          <ns3:TrackPointExtension>
            <ns3:hr>114</ns3:hr>
            <ns3:cad>82</ns3:cad>
          </ns3:TrackPointExtension>
        </extensions>
      </trkpt>
      <trkpt lat="44.67680227942764759063720703125" lon="6.77192422561347484588623046875">
        <ele>1807.800048828125</ele>
        <time>2026-09-03T08:17:30.000Z</time>
        <extensions>
          <ns3:TrackPointExtension>
            <ns3:hr>114</ns3:hr>
            <ns3:cad>82</ns3:cad>
          </ns3:TrackPointExtension>
        </extensions>
      </trkpt>
      <trkpt lat="44.67681384645402431488037109375" lon="6.77191550843417644500732421875">
        <ele>1807.5999755859375</ele>
        <time>2026-09-03T08:17:31.000Z</time>
        <extensions>
          <ns3:TrackPointExtension>
            <ns3:hr>114</ns3:hr>
            <ns3:cad>82</ns3:cad>
          </ns3:TrackPointExtension>
        </extensions>
      </trkpt>
      <trkpt lat="44.67682189308106899261474609375" lon="6.771900840103626251220703125">
        <ele>1807.199951171875</ele>
        <time>2026-09-03T08:17:32.000Z</time>
        <extensions>
          <ns3:TrackPointExtension>
            <ns3:hr>113</ns3:hr>
            <ns3:cad>82</ns3:cad>
          </ns3:TrackPointExtension>
        </extensions>
      </trkpt>
      <trkpt lat="44.6768218092620372772216796875" lon="6.77188566885888576507568359375">
        <ele>1807</ele>
        <time>2026-09-03T08:17:33.000Z</time>
        <extensions>
          <ns3:TrackPointExtension>
            <ns3:hr>113</ns3:hr>
            <ns3:cad>82</ns3:cad>
          </ns3:TrackPointExtension>
        </extensions>
      </trkpt>
      <trkpt lat="44.67681971378624439239501953125" lon="6.7718694917857646942138671875">
        <ele>1806.5999755859375</ele>
        <time>2026-09-03T08:17:34.000Z</time>
        <extensions>
          <ns3:TrackPointExtension>
            <ns3:hr>112</ns3:hr>
            <ns3:cad>82</ns3:cad>
          </ns3:TrackPointExtension>
        </extensions>
      </trkpt>
      <trkpt lat="44.6768139302730560302734375" lon="6.7718590982258319854736328125">
        <ele>1806.4000244140625</ele>
        <time>2026-09-03T08:17:35.000Z</time>
        <extensions>
          <ns3:TrackPointExtension>
            <ns3:hr>112</ns3:hr>
            <ns3:cad>82</ns3:cad>
          </ns3:TrackPointExtension>
        </extensions>
      </trkpt>
      <trkpt lat="44.676804877817630767822265625" lon="6.771847866475582122802734375">
        <ele>1806.199951171875</ele>
        <time>2026-09-03T08:17:36.000Z</time>
        <extensions>
          <ns3:TrackPointExtension>
            <ns3:hr>112</ns3:hr>
            <ns3:cad>82</ns3:cad>
          </ns3:TrackPointExtension>
        </extensions>
      </trkpt>
      <trkpt lat="44.6767959930002689361572265625" lon="6.77185021340847015380859375">
        <ele>1805.800048828125</ele>
        <time>2026-09-03T08:17:37.000Z</time>
        <extensions>
          <ns3:TrackPointExtension>
            <ns3:hr>111</ns3:hr>
            <ns3:cad>82</ns3:cad>
          </ns3:TrackPointExtension>
        </extensions>
      </trkpt>
      <trkpt lat="44.676789455115795135498046875" lon="6.7718530632555484771728515625">
        <ele>1805.4000244140625</ele>
        <time>2026-09-03T08:17:38.000Z</time>
        <extensions>
          <ns3:TrackPointExtension>
            <ns3:hr>111</ns3:hr>
            <ns3:cad>82</ns3:cad>
          </ns3:TrackPointExtension>
        </extensions>
      </trkpt>
      <trkpt lat="44.67677964828908443450927734375" lon="6.77185691893100738525390625">
        <ele>1805.199951171875</ele>
        <time>2026-09-03T08:17:39.000Z</time>
        <extensions>
          <ns3:TrackPointExtension>
            <ns3:hr>111</ns3:hr>
            <ns3:cad>82</ns3:cad>
          </ns3:TrackPointExtension>
        </extensions>
      </trkpt>
      <trkpt lat="44.67676757834851741790771484375" lon="6.7718549072742462158203125">
        <ele>1804.800048828125</ele>
        <time>2026-09-03T08:17:40.000Z</time>
        <extensions>
          <ns3:TrackPointExtension>
            <ns3:hr>111</ns3:hr>
            <ns3:cad>82</ns3:cad>
          </ns3:TrackPointExtension>
        </extensions>
      </trkpt>
      <trkpt lat="44.6767584420740604400634765625" lon="6.7718533985316753387451171875">
        <ele>1804.5999755859375</ele>
        <time>2026-09-03T08:17:41.000Z</time>
        <extensions>
          <ns3:TrackPointExtension>
            <ns3:hr>111</ns3:hr>
            <ns3:cad>79</ns3:cad>
          </ns3:TrackPointExtension>
        </extensions>
      </trkpt>
      <trkpt lat="44.676740504801273345947265625" lon="6.77185582928359508514404296875">
        <ele>1804.199951171875</ele>
        <time>2026-09-03T08:17:42.000Z</time>
        <extensions>
          <ns3:TrackPointExtension>
            <ns3:hr>111</ns3:hr>
            <ns3:cad>79</ns3:cad>
          </ns3:TrackPointExtension>
        </extensions>
      </trkpt>
      <trkpt lat="44.67672650702297687530517578125" lon="6.77186052314937114715576171875">
        <ele>1803.800048828125</ele>
        <time>2026-09-03T08:17:43.000Z</time>
        <extensions>
          <ns3:TrackPointExtension>
            <ns3:hr>111</ns3:hr>
            <ns3:cad>79</ns3:cad>
          </ns3:TrackPointExtension>
        </extensions>
      </trkpt>
      <trkpt lat="44.67671259306371212005615234375" lon="6.7718621157109737396240234375">
        <ele>1803.4000244140625</ele>
        <time>2026-09-03T08:17:44.000Z</time>
        <extensions>
          <ns3:TrackPointExtension>
            <ns3:hr>111</ns3:hr>
            <ns3:cad>79</ns3:cad>
          </ns3:TrackPointExtension>
        </extensions>
      </trkpt>
      <trkpt lat="44.6767034567892551422119140625" lon="6.771861277520656585693359375">
        <ele>1803</ele>
        <time>2026-09-03T08:17:45.000Z</time>
        <extensions>
          <ns3:TrackPointExtension>
            <ns3:hr>111</ns3:hr>
            <ns3:cad>79</ns3:cad>
          </ns3:TrackPointExtension>
        </extensions>
      </trkpt>
      <trkpt lat="44.6766846813261508941650390625" lon="6.77185750566422939300537109375">
        <ele>1802.5999755859375</ele>
        <time>2026-09-03T08:17:46.000Z</time>
        <extensions>
          <ns3:TrackPointExtension>
            <ns3:hr>111</ns3:hr>
            <ns3:cad>79</ns3:cad>
          </ns3:TrackPointExtension>
        </extensions>
      </trkpt>
      <trkpt lat="44.67667453922331333160400390625" lon="6.77185817621648311614990234375">
        <ele>1802.4000244140625</ele>
        <time>2026-09-03T08:17:47.000Z</time>
        <extensions>
          <ns3:TrackPointExtension>
            <ns3:hr>111</ns3:hr>
            <ns3:cad>79</ns3:cad>
          </ns3:TrackPointExtension>
        </extensions>
      </trkpt>
      <trkpt lat="44.67666129581630229949951171875" lon="6.771860606968402862548828125">
        <ele>1802</ele>
        <time>2026-09-03T08:17:48.000Z</time>
        <extensions>
          <ns3:TrackPointExtension>
            <ns3:hr>112</ns3:hr>
            <ns3:cad>79</ns3:cad>
          </ns3:TrackPointExtension>
        </extensions>
      </trkpt>
      <trkpt lat="44.67664696276187896728515625" lon="6.77185918204486370086669921875">
        <ele>1801.5999755859375</ele>
        <time>2026-09-03T08:17:49.000Z</time>
        <extensions>
          <ns3:TrackPointExtension>
            <ns3:hr>111</ns3:hr>
            <ns3:cad>79</ns3:cad>
          </ns3:TrackPointExtension>
        </extensions>
      </trkpt>
      <trkpt lat="44.67664067633450031280517578125" lon="6.77185096777975559234619140625">
        <ele>1801.199951171875</ele>
        <time>2026-09-03T08:17:50.000Z</time>
        <extensions>
          <ns3:TrackPointExtension>
            <ns3:hr>111</ns3:hr>
            <ns3:cad>79</ns3:cad>
          </ns3:TrackPointExtension>
        </extensions>
      </trkpt>
      <trkpt lat="44.67663698829710483551025390625" lon="6.7718631215393543243408203125">
        <ele>1800.800048828125</ele>
        <time>2026-09-03T08:17:51.000Z</time>
        <extensions>
          <ns3:TrackPointExtension>
            <ns3:hr>111</ns3:hr>
            <ns3:cad>79</ns3:cad>
          </ns3:TrackPointExtension>
        </extensions>
      </trkpt>
      <trkpt lat="44.67662223614752292633056640625" lon="6.77186555229127407073974609375">
        <ele>1800.4000244140625</ele>
        <time>2026-09-03T08:17:52.000Z</time>
        <extensions>
          <ns3:TrackPointExtension>
            <ns3:hr>111</ns3:hr>
            <ns3:cad>79</ns3:cad>
          </ns3:TrackPointExtension>
        </extensions>
      </trkpt>
      <trkpt lat="44.6766092441976070404052734375" lon="6.7718701623380184173583984375">
        <ele>1800.199951171875</ele>
        <time>2026-09-03T08:17:53.000Z</time>
        <extensions>
          <ns3:TrackPointExtension>
            <ns3:hr>111</ns3:hr>
            <ns3:cad>80</ns3:cad>
          </ns3:TrackPointExtension>
        </extensions>
      </trkpt>
      <trkpt lat="44.676592648029327392578125" lon="6.77187192253768444061279296875">
        <ele>1799.5999755859375</ele>
        <time>2026-09-03T08:17:54.000Z</time>
        <extensions>
          <ns3:TrackPointExtension>
            <ns3:hr>112</ns3:hr>
            <ns3:cad>81</ns3:cad>
          </ns3:TrackPointExtension>
        </extensions>
      </trkpt>
      <trkpt lat="44.676577560603618621826171875" lon="6.771869994699954986572265625">
        <ele>1799.199951171875</ele>
        <time>2026-09-03T08:17:55.000Z</time>
        <extensions>
          <ns3:TrackPointExtension>
            <ns3:hr>112</ns3:hr>
            <ns3:cad>81</ns3:cad>
          </ns3:TrackPointExtension>
        </extensions>
      </trkpt>
      <trkpt lat="44.67656255699694156646728515625" lon="6.771865971386432647705078125">
        <ele>1798.800048828125</ele>
        <time>2026-09-03T08:17:56.000Z</time>
        <extensions>
          <ns3:TrackPointExtension>
            <ns3:hr>112</ns3:hr>
            <ns3:cad>81</ns3:cad>
          </ns3:TrackPointExtension>
        </extensions>
      </trkpt>
      <trkpt lat="44.67654361389577388763427734375" lon="6.7718607746064662933349609375">
        <ele>1798.4000244140625</ele>
        <time>2026-09-03T08:17:57.000Z</time>
        <extensions>
          <ns3:TrackPointExtension>
            <ns3:hr>112</ns3:hr>
            <ns3:cad>81</ns3:cad>
          </ns3:TrackPointExtension>
        </extensions>
      </trkpt>
      <trkpt lat="44.67652651481330394744873046875" lon="6.77186052314937114715576171875">
        <ele>1798</ele>
        <time>2026-09-03T08:17:58.000Z</time>
        <extensions>
          <ns3:TrackPointExtension>
            <ns3:hr>112</ns3:hr>
            <ns3:cad>81</ns3:cad>
          </ns3:TrackPointExtension>
        </extensions>
      </trkpt>
      <trkpt lat="44.6765096671879291534423828125" lon="6.77186035551130771636962890625">
        <ele>1797.5999755859375</ele>
        <time>2026-09-03T08:17:59.000Z</time>
        <extensions>
          <ns3:TrackPointExtension>
            <ns3:hr>113</ns3:hr>
            <ns3:cad>80</ns3:cad>
          </ns3:TrackPointExtension>
        </extensions>
      </trkpt>
      <trkpt lat="44.676488377153873443603515625" lon="6.771866977214813232421875">
        <ele>1797.4000244140625</ele>
        <time>2026-09-03T08:18:00.000Z</time>
        <extensions>
          <ns3:TrackPointExtension>
            <ns3:hr>113</ns3:hr>
            <ns3:cad>81</ns3:cad>
          </ns3:TrackPointExtension>
        </extensions>
      </trkpt>
      <trkpt lat="44.6764734573662281036376953125" lon="6.771878041326999664306640625">
        <ele>1797</ele>
        <time>2026-09-03T08:18:01.000Z</time>
        <extensions>
          <ns3:TrackPointExtension>
            <ns3:hr>114</ns3:hr>
            <ns3:cad>81</ns3:cad>
          </ns3:TrackPointExtension>
        </extensions>
      </trkpt>
      <trkpt lat="44.67645275406539440155029296875" lon="6.7718817293643951416015625">
        <ele>1796.800048828125</ele>
        <time>2026-09-03T08:18:02.000Z</time>
        <extensions>
          <ns3:TrackPointExtension>
            <ns3:hr>114</ns3:hr>
            <ns3:cad>81</ns3:cad>
          </ns3:TrackPointExtension>
        </extensions>
      </trkpt>
      <trkpt lat="44.6764437854290008544921875" lon="6.77187041379511356353759765625">
        <ele>1796.4000244140625</ele>
        <time>2026-09-03T08:18:03.000Z</time>
        <extensions>
          <ns3:TrackPointExtension>
            <ns3:hr>115</ns3:hr>
            <ns3:cad>82</ns3:cad>
          </ns3:TrackPointExtension>
        </extensions>
      </trkpt>
      <trkpt lat="44.6764466352760791778564453125" lon="6.77185289561748504638671875">
        <ele>1796.199951171875</ele>
        <time>2026-09-03T08:18:04.000Z</time>
        <extensions>
          <ns3:TrackPointExtension>
            <ns3:hr>115</ns3:hr>
            <ns3:cad>83</ns3:cad>
          </ns3:TrackPointExtension>
        </extensions>
      </trkpt>
      <trkpt lat="44.676455520093441009521484375" lon="6.77184526808559894561767578125">
        <ele>1796</ele>
        <time>2026-09-03T08:18:05.000Z</time>
        <extensions>
          <ns3:TrackPointExtension>
            <ns3:hr>115</ns3:hr>
            <ns3:cad>83</ns3:cad>
          </ns3:TrackPointExtension>
        </extensions>
      </trkpt>
      <trkpt lat="44.67646750621497631072998046875" lon="6.7718406580388545989990234375">
        <ele>1795.800048828125</ele>
        <time>2026-09-03T08:18:06.000Z</time>
        <extensions>
          <ns3:TrackPointExtension>
            <ns3:hr>115</ns3:hr>
            <ns3:cad>62</ns3:cad>
          </ns3:TrackPointExtension>
        </extensions>
      </trkpt>
      <trkpt lat="44.676483012735843658447265625" lon="6.77182900719344615936279296875">
        <ele>1795.5999755859375</ele>
        <time>2026-09-03T08:18:07.000Z</time>
        <extensions>
          <ns3:TrackPointExtension>
            <ns3:hr>115</ns3:hr>
            <ns3:cad>62</ns3:cad>
          </ns3:TrackPointExtension>
        </extensions>
      </trkpt>
      <trkpt lat="44.6765001118183135986328125" lon="6.77182347513735294342041015625">
        <ele>1795.199951171875</ele>
        <time>2026-09-03T08:18:08.000Z</time>
        <extensions>
          <ns3:TrackPointExtension>
            <ns3:hr>115</ns3:hr>
            <ns3:cad>62</ns3:cad>
          </ns3:TrackPointExtension>
        </extensions>
      </trkpt>
      <trkpt lat="44.67650908045470714569091796875" lon="6.771817021071910858154296875">
        <ele>1795</ele>
        <time>2026-09-03T08:18:09.000Z</time>
        <extensions>
          <ns3:TrackPointExtension>
            <ns3:hr>115</ns3:hr>
            <ns3:cad>80</ns3:cad>
          </ns3:TrackPointExtension>
        </extensions>
      </trkpt>
      <trkpt lat="44.67651226557791233062744140625" lon="6.7718067951500415802001953125">
        <ele>1794.5999755859375</ele>
        <time>2026-09-03T08:18:10.000Z</time>
        <extensions>
          <ns3:TrackPointExtension>
            <ns3:hr>115</ns3:hr>
            <ns3:cad>80</ns3:cad>
          </ns3:TrackPointExtension>
        </extensions>
      </trkpt>
      <trkpt lat="44.67652224004268646240234375" lon="6.7717920430004596710205078125">
        <ele>1794.199951171875</ele>
        <time>2026-09-03T08:18:11.000Z</time>
        <extensions>
          <ns3:TrackPointExtension>
            <ns3:hr>115</ns3:hr>
            <ns3:cad>66</ns3:cad>
          </ns3:TrackPointExtension>
        </extensions>
      </trkpt>
      <trkpt lat="44.67653288505971431732177734375" lon="6.77178760059177875518798828125">
        <ele>1794</ele>
        <time>2026-09-03T08:18:12.000Z</time>
        <extensions>
          <ns3:TrackPointExtension>
            <ns3:hr>116</ns3:hr>
            <ns3:cad>66</ns3:cad>
          </ns3:TrackPointExtension>
        </extensions>
      </trkpt>
      <trkpt lat="44.67654445208609104156494140625" lon="6.7717779614031314849853515625">
        <ele>1794</ele>
        <time>2026-09-03T08:18:13.000Z</time>
        <extensions>
          <ns3:TrackPointExtension>
            <ns3:hr>115</ns3:hr>
            <ns3:cad>66</ns3:cad>
          </ns3:TrackPointExtension>
        </extensions>
      </trkpt>
      <trkpt lat="44.676560461521148681640625" lon="6.77176580764353275299072265625">
        <ele>1793.800048828125</ele>
        <time>2026-09-03T08:18:14.000Z</time>
        <extensions>
          <ns3:TrackPointExtension>
            <ns3:hr>115</ns3:hr>
            <ns3:cad>66</ns3:cad>
          </ns3:TrackPointExtension>
        </extensions>
      </trkpt>
      <trkpt lat="44.676574207842350006103515625" lon="6.77175440825521945953369140625">
        <ele>1793.4000244140625</ele>
        <time>2026-09-03T08:18:15.000Z</time>
        <extensions>
          <ns3:TrackPointExtension>
            <ns3:hr>116</ns3:hr>
            <ns3:cad>0</ns3:cad>
          </ns3:TrackPointExtension>
        </extensions>
      </trkpt>
      <trkpt lat="44.6765859425067901611328125" lon="6.77174217067658901214599609375">
        <ele>1793</ele>
        <time>2026-09-03T08:18:16.000Z</time>
        <extensions>
          <ns3:TrackPointExtension>
            <ns3:hr>115</ns3:hr>
            <ns3:cad>0</ns3:cad>
          </ns3:TrackPointExtension>
        </extensions>
      </trkpt>
      <trkpt lat="44.67659558169543743133544921875" lon="6.77172951400279998779296875">
        <ele>1792.5999755859375</ele>
        <time>2026-09-03T08:18:17.000Z</time>
        <extensions>
          <ns3:TrackPointExtension>
            <ns3:hr>115</ns3:hr>
            <ns3:cad>0</ns3:cad>
          </ns3:TrackPointExtension>
        </extensions>
      </trkpt>
      <trkpt lat="44.67660245485603809356689453125" lon="6.77171342074871063232421875">
        <ele>1792.4000244140625</ele>
        <time>2026-09-03T08:18:18.000Z</time>
        <extensions>
          <ns3:TrackPointExtension>
            <ns3:hr>116</ns3:hr>
            <ns3:cad>0</ns3:cad>
          </ns3:TrackPointExtension>
        </extensions>
      </trkpt>
      <trkpt lat="44.67660379596054553985595703125" lon="6.77169389091432094573974609375">
        <ele>1792</ele>
        <time>2026-09-03T08:18:19.000Z</time>
        <extensions>
          <ns3:TrackPointExtension>
            <ns3:hr>116</ns3:hr>
            <ns3:cad>0</ns3:cad>
          </ns3:TrackPointExtension>
        </extensions>
      </trkpt>
      <trkpt lat="44.676599688827991485595703125" lon="6.771674193441867828369140625">
        <ele>1791.5999755859375</ele>
        <time>2026-09-03T08:18:20.000Z</time>
        <extensions>
          <ns3:TrackPointExtension>
            <ns3:hr>116</ns3:hr>
            <ns3:cad>0</ns3:cad>
          </ns3:TrackPointExtension>
        </extensions>
      </trkpt>
      <trkpt lat="44.67658736743032932281494140625" lon="6.771668493747711181640625">
        <ele>1791.199951171875</ele>
        <time>2026-09-03T08:18:21.000Z</time>
        <extensions>
          <ns3:TrackPointExtension>
            <ns3:hr>116</ns3:hr>
            <ns3:cad>0</ns3:cad>
          </ns3:TrackPointExtension>
        </extensions>
      </trkpt>
      <trkpt lat="44.67656976543366909027099609375" lon="6.7716609500348567962646484375">
        <ele>1790.800048828125</ele>
        <time>2026-09-03T08:18:22.000Z</time>
        <extensions>
          <ns3:TrackPointExtension>
            <ns3:hr>115</ns3:hr>
            <ns3:cad>75</ns3:cad>
          </ns3:TrackPointExtension>
        </extensions>
      </trkpt>
      <trkpt lat="44.67656054534018039703369140625" lon="6.7716760374605655670166015625">
        <ele>1790.4000244140625</ele>
        <time>2026-09-03T08:18:23.000Z</time>
        <extensions>
          <ns3:TrackPointExtension>
            <ns3:hr>115</ns3:hr>
            <ns3:cad>79</ns3:cad>
          </ns3:TrackPointExtension>
        </extensions>
      </trkpt>
      <trkpt lat="44.676547385752201080322265625" lon="6.77167997695505619049072265625">
        <ele>1790.199951171875</ele>
        <time>2026-09-03T08:18:24.000Z</time>
        <extensions>
          <ns3:TrackPointExtension>
            <ns3:hr>115</ns3:hr>
            <ns3:cad>79</ns3:cad>
          </ns3:TrackPointExtension>
        </extensions>
      </trkpt>
      <trkpt lat="44.6765334717929363250732421875" lon="6.7716887779533863067626953125">
        <ele>1789.800048828125</ele>
        <time>2026-09-03T08:18:25.000Z</time>
        <extensions>
          <ns3:TrackPointExtension>
            <ns3:hr>115</ns3:hr>
            <ns3:cad>75</ns3:cad>
          </ns3:TrackPointExtension>
        </extensions>
      </trkpt>
      <trkpt lat="44.67652400024235248565673828125" lon="6.7716948129236698150634765625">
        <ele>1789.4000244140625</ele>
        <time>2026-09-03T08:18:26.000Z</time>
        <extensions>
          <ns3:TrackPointExtension>
            <ns3:hr>114</ns3:hr>
            <ns3:cad>75</ns3:cad>
          </ns3:TrackPointExtension>
        </extensions>
      </trkpt>
      <trkpt lat="44.67651612125337123870849609375" lon="6.7717015184462070465087890625">
        <ele>1789</ele>
        <time>2026-09-03T08:18:27.000Z</time>
        <extensions>
          <ns3:TrackPointExtension>
            <ns3:hr>114</ns3:hr>
            <ns3:cad>75</ns3:cad>
          </ns3:TrackPointExtension>
        </extensions>
      </trkpt>
      <trkpt lat="44.67649885453283786773681640625" lon="6.77168659865856170654296875">
        <ele>1788.800048828125</ele>
        <time>2026-09-03T08:18:28.000Z</time>
        <extensions>
          <ns3:TrackPointExtension>
            <ns3:hr>114</ns3:hr>
            <ns3:cad>75</ns3:cad>
          </ns3:TrackPointExtension>
        </extensions>
      </trkpt>
      <trkpt lat="44.67648494057357311248779296875" lon="6.7716725170612335205078125">
        <ele>1788.4000244140625</ele>
        <time>2026-09-03T08:18:29.000Z</time>
        <extensions>
          <ns3:TrackPointExtension>
            <ns3:hr>113</ns3:hr>
            <ns3:cad>75</ns3:cad>
          </ns3:TrackPointExtension>
        </extensions>
      </trkpt>
      <trkpt lat="44.67647555284202098846435546875" lon="6.7716716788709163665771484375">
        <ele>1788</ele>
        <time>2026-09-03T08:18:30.000Z</time>
        <extensions>
          <ns3:TrackPointExtension>
            <ns3:hr>113</ns3:hr>
            <ns3:cad>75</ns3:cad>
          </ns3:TrackPointExtension>
        </extensions>
      </trkpt>
      <trkpt lat="44.67646582983434200286865234375" lon="6.7716700024902820587158203125">
        <ele>1787.800048828125</ele>
        <time>2026-09-03T08:18:31.000Z</time>
        <extensions>
          <ns3:TrackPointExtension>
            <ns3:hr>113</ns3:hr>
            <ns3:cad>75</ns3:cad>
          </ns3:TrackPointExtension>
        </extensions>
      </trkpt>
      <trkpt lat="44.6764462999999523162841796875" lon="6.77166338078677654266357421875">
        <ele>1787.4000244140625</ele>
        <time>2026-09-03T08:18:32.000Z</time>
        <extensions>
          <ns3:TrackPointExtension>
            <ns3:hr>113</ns3:hr>
            <ns3:cad>75</ns3:cad>
          </ns3:TrackPointExtension>
        </extensions>
      </trkpt>
      <trkpt lat="44.67643297277390956878662109375" lon="6.77165977656841278076171875">
        <ele>1787.199951171875</ele>
        <time>2026-09-03T08:18:33.000Z</time>
        <extensions>
          <ns3:TrackPointExtension>
            <ns3:hr>112</ns3:hr>
            <ns3:cad>75</ns3:cad>
          </ns3:TrackPointExtension>
        </extensions>
      </trkpt>
      <trkpt lat="44.6764174662530422210693359375" lon="6.7716552503407001495361328125">
        <ele>1786.800048828125</ele>
        <time>2026-09-03T08:18:34.000Z</time>
        <extensions>
          <ns3:TrackPointExtension>
            <ns3:hr>112</ns3:hr>
            <ns3:cad>75</ns3:cad>
          </ns3:TrackPointExtension>
        </extensions>
      </trkpt>
      <trkpt lat="44.6763990260660648345947265625" lon="6.771657429635524749755859375">
        <ele>1786.4000244140625</ele>
        <time>2026-09-03T08:18:35.000Z</time>
        <extensions>
          <ns3:TrackPointExtension>
            <ns3:hr>112</ns3:hr>
            <ns3:cad>75</ns3:cad>
          </ns3:TrackPointExtension>
        </extensions>
      </trkpt>
      <trkpt lat="44.67637983150780200958251953125" lon="6.7716515623033046722412109375">
        <ele>1786</ele>
        <time>2026-09-03T08:18:36.000Z</time>
        <extensions>
          <ns3:TrackPointExtension>
            <ns3:hr>112</ns3:hr>
            <ns3:cad>75</ns3:cad>
          </ns3:TrackPointExtension>
        </extensions>
      </trkpt>
      <trkpt lat="44.6763628162443637847900390625" lon="6.77164209075272083282470703125">
        <ele>1785.800048828125</ele>
        <time>2026-09-03T08:18:37.000Z</time>
        <extensions>
          <ns3:TrackPointExtension>
            <ns3:hr>112</ns3:hr>
            <ns3:cad>75</ns3:cad>
          </ns3:TrackPointExtension>
        </extensions>
      </trkpt>
      <trkpt lat="44.6763480640947818756103515625" lon="6.77163538523018360137939453125">
        <ele>1785.5999755859375</ele>
        <time>2026-09-03T08:18:38.000Z</time>
        <extensions>
          <ns3:TrackPointExtension>
            <ns3:hr>112</ns3:hr>
            <ns3:cad>75</ns3:cad>
          </ns3:TrackPointExtension>
        </extensions>
      </trkpt>
      <trkpt lat="44.676336832344532012939453125" lon="6.77163354121148586273193359375">
        <ele>1785.199951171875</ele>
        <time>2026-09-03T08:18:39.000Z</time>
        <extensions>
          <ns3:TrackPointExtension>
            <ns3:hr>112</ns3:hr>
            <ns3:cad>75</ns3:cad>
          </ns3:TrackPointExtension>
        </extensions>
      </trkpt>
      <trkpt lat="44.6763266064226627349853515625" lon="6.77162733860313892364501953125">
        <ele>1785</ele>
        <time>2026-09-03T08:18:40.000Z</time>
        <extensions>
          <ns3:TrackPointExtension>
            <ns3:hr>112</ns3:hr>
            <ns3:cad>75</ns3:cad>
          </ns3:TrackPointExtension>
        </extensions>
      </trkpt>
      <trkpt lat="44.6763162128627300262451171875" lon="6.771612502634525299072265625">
        <ele>1784.800048828125</ele>
        <time>2026-09-03T08:18:41.000Z</time>
        <extensions>
          <ns3:TrackPointExtension>
            <ns3:hr>112</ns3:hr>
            <ns3:cad>75</ns3:cad>
          </ns3:TrackPointExtension>
        </extensions>
      </trkpt>
      <trkpt lat="44.67630623839795589447021484375" lon="6.77159531973302364349365234375">
        <ele>1784.5999755859375</ele>
        <time>2026-09-03T08:18:42.000Z</time>
        <extensions>
          <ns3:TrackPointExtension>
            <ns3:hr>112</ns3:hr>
            <ns3:cad>75</ns3:cad>
          </ns3:TrackPointExtension>
        </extensions>
      </trkpt>
      <trkpt lat="44.6762974373996257781982421875" lon="6.7715774662792682647705078125">
        <ele>1784.199951171875</ele>
        <time>2026-09-03T08:18:43.000Z</time>
        <extensions>
          <ns3:TrackPointExtension>
            <ns3:hr>112</ns3:hr>
            <ns3:cad>75</ns3:cad>
          </ns3:TrackPointExtension>
        </extensions>
      </trkpt>
      <trkpt lat="44.67628352344036102294921875" lon="6.7715633846819400787353515625">
        <ele>1783.800048828125</ele>
        <time>2026-09-03T08:18:44.000Z</time>
        <extensions>
          <ns3:TrackPointExtension>
            <ns3:hr>112</ns3:hr>
            <ns3:cad>72</ns3:cad>
          </ns3:TrackPointExtension>
        </extensions>
      </trkpt>
      <trkpt lat="44.67627103440463542938232421875" lon="6.7715593613684177398681640625">
        <ele>1783.5999755859375</ele>
        <time>2026-09-03T08:18:45.000Z</time>
        <extensions>
          <ns3:TrackPointExtension>
            <ns3:hr>112</ns3:hr>
            <ns3:cad>68</ns3:cad>
          </ns3:TrackPointExtension>
        </extensions>
      </trkpt>
      <trkpt lat="44.67625804245471954345703125" lon="6.77156581543385982513427734375">
        <ele>1783.199951171875</ele>
        <time>2026-09-03T08:18:46.000Z</time>
        <extensions>
          <ns3:TrackPointExtension>
            <ns3:hr>113</ns3:hr>
            <ns3:cad>68</ns3:cad>
          </ns3:TrackPointExtension>
        </extensions>
      </trkpt>
      <trkpt lat="44.67624488286674022674560546875" lon="6.771562881767749786376953125">
        <ele>1783</ele>
        <time>2026-09-03T08:18:47.000Z</time>
        <extensions>
          <ns3:TrackPointExtension>
            <ns3:hr>112</ns3:hr>
            <ns3:cad>68</ns3:cad>
          </ns3:TrackPointExtension>
        </extensions>
      </trkpt>
      <trkpt lat="44.67622593976557254791259765625" lon="6.77154972217977046966552734375">
        <ele>1782.5999755859375</ele>
        <time>2026-09-03T08:18:48.000Z</time>
        <extensions>
          <ns3:TrackPointExtension>
            <ns3:hr>112</ns3:hr>
            <ns3:cad>68</ns3:cad>
          </ns3:TrackPointExtension>
        </extensions>
      </trkpt>
      <trkpt lat="44.67620733194053173065185546875" lon="6.77154050208628177642822265625">
        <ele>1782.4000244140625</ele>
        <time>2026-09-03T08:18:49.000Z</time>
        <extensions>
          <ns3:TrackPointExtension>
            <ns3:hr>112</ns3:hr>
            <ns3:cad>68</ns3:cad>
          </ns3:TrackPointExtension>
        </extensions>
      </trkpt>
      <trkpt lat="44.6761981956660747528076171875" lon="6.77153128199279308319091796875">
        <ele>1782</ele>
        <time>2026-09-03T08:18:50.000Z</time>
        <extensions>
          <ns3:TrackPointExtension>
            <ns3:hr>111</ns3:hr>
            <ns3:cad>68</ns3:cad>
          </ns3:TrackPointExtension>
        </extensions>
      </trkpt>
      <trkpt lat="44.6761854551732540130615234375" lon="6.771523989737033843994140625">
        <ele>1781.5999755859375</ele>
        <time>2026-09-03T08:18:51.000Z</time>
        <extensions>
          <ns3:TrackPointExtension>
            <ns3:hr>111</ns3:hr>
            <ns3:cad>68</ns3:cad>
          </ns3:TrackPointExtension>
        </extensions>
      </trkpt>
      <trkpt lat="44.67617690563201904296875" lon="6.771517284214496612548828125">
        <ele>1781.4000244140625</ele>
        <time>2026-09-03T08:18:52.000Z</time>
        <extensions>
          <ns3:TrackPointExtension>
            <ns3:hr>111</ns3:hr>
            <ns3:cad>75</ns3:cad>
          </ns3:TrackPointExtension>
        </extensions>
      </trkpt>
      <trkpt lat="44.67616022564470767974853515625" lon="6.7715114168822765350341796875">
        <ele>1781.199951171875</ele>
        <time>2026-09-03T08:18:53.000Z</time>
        <extensions>
          <ns3:TrackPointExtension>
            <ns3:hr>110</ns3:hr>
            <ns3:cad>75</ns3:cad>
          </ns3:TrackPointExtension>
        </extensions>
      </trkpt>
      <trkpt lat="44.676141031086444854736328125" lon="6.7715117521584033966064453125">
        <ele>1780.800048828125</ele>
        <time>2026-09-03T08:18:54.000Z</time>
        <extensions>
          <ns3:TrackPointExtension>
            <ns3:hr>109</ns3:hr>
            <ns3:cad>75</ns3:cad>
          </ns3:TrackPointExtension>
        </extensions>
      </trkpt>
      <trkpt lat="44.6761247701942920684814453125" lon="6.771513260900974273681640625">
        <ele>1780.4000244140625</ele>
        <time>2026-09-03T08:18:55.000Z</time>
        <extensions>
          <ns3:TrackPointExtension>
            <ns3:hr>109</ns3:hr>
            <ns3:cad>68</ns3:cad>
          </ns3:TrackPointExtension>
        </extensions>
      </trkpt>
      <trkpt lat="44.67611186206340789794921875" lon="6.7714976705610752105712890625">
        <ele>1780.199951171875</ele>
        <time>2026-09-03T08:18:56.000Z</time>
        <extensions>
          <ns3:TrackPointExtension>
            <ns3:hr>108</ns3:hr>
            <ns3:cad>68</ns3:cad>
          </ns3:TrackPointExtension>
        </extensions>
      </trkpt>
      <trkpt lat="44.67609501443803310394287109375" lon="6.77149406634271144866943359375">
        <ele>1779.800048828125</ele>
        <time>2026-09-03T08:18:57.000Z</time>
        <extensions>
          <ns3:TrackPointExtension>
            <ns3:hr>106</ns3:hr>
            <ns3:cad>77</ns3:cad>
          </ns3:TrackPointExtension>
        </extensions>
      </trkpt>
      <trkpt lat="44.67607741244137287139892578125" lon="6.771497167646884918212890625">
        <ele>1779.4000244140625</ele>
        <time>2026-09-03T08:18:58.000Z</time>
        <extensions>
          <ns3:TrackPointExtension>
            <ns3:hr>106</ns3:hr>
            <ns3:cad>77</ns3:cad>
          </ns3:TrackPointExtension>
        </extensions>
      </trkpt>
      <trkpt lat="44.6760637499392032623291015625" lon="6.7714970000088214874267578125">
        <ele>1779</ele>
        <time>2026-09-03T08:18:59.000Z</time>
        <extensions>
          <ns3:TrackPointExtension>
            <ns3:hr>105</ns3:hr>
            <ns3:cad>77</ns3:cad>
          </ns3:TrackPointExtension>
        </extensions>
      </trkpt>
      <trkpt lat="44.67605276964604854583740234375" lon="6.771497838199138641357421875">
        <ele>1778.800048828125</ele>
        <time>2026-09-03T08:19:00.000Z</time>
        <extensions>
          <ns3:TrackPointExtension>
            <ns3:hr>104</ns3:hr>
            <ns3:cad>77</ns3:cad>
          </ns3:TrackPointExtension>
        </extensions>
      </trkpt>
      <trkpt lat="44.676044471561908721923828125" lon="6.77149482071399688720703125">
        <ele>1778.5999755859375</ele>
        <time>2026-09-03T08:19:01.000Z</time>
        <extensions>
          <ns3:TrackPointExtension>
            <ns3:hr>105</ns3:hr>
            <ns3:cad>77</ns3:cad>
          </ns3:TrackPointExtension>
        </extensions>
      </trkpt>
      <trkpt lat="44.67603147961199283599853515625" lon="6.77150161005556583404541015625">
        <ele>1778.4000244140625</ele>
        <time>2026-09-03T08:19:02.000Z</time>
        <extensions>
          <ns3:TrackPointExtension>
            <ns3:hr>104</ns3:hr>
            <ns3:cad>77</ns3:cad>
          </ns3:TrackPointExtension>
        </extensions>
      </trkpt>
      <trkpt lat="44.6760164760053157806396484375" lon="6.7715033702552318572998046875">
        <ele>1778.199951171875</ele>
        <time>2026-09-03T08:19:03.000Z</time>
        <extensions>
          <ns3:TrackPointExtension>
            <ns3:hr>104</ns3:hr>
            <ns3:cad>71</ns3:cad>
          </ns3:TrackPointExtension>
        </extensions>
      </trkpt>
      <trkpt lat="44.6759985387325286865234375" lon="6.77150630392134189605712890625">
        <ele>1777.800048828125</ele>
        <time>2026-09-03T08:19:04.000Z</time>
        <extensions>
          <ns3:TrackPointExtension>
            <ns3:hr>104</ns3:hr>
            <ns3:cad>0</ns3:cad>
          </ns3:TrackPointExtension>
        </extensions>
      </trkpt>
      <trkpt lat="44.675984121859073638916015625" lon="6.77150286734104156494140625">
        <ele>1777.5999755859375</ele>
        <time>2026-09-03T08:19:05.000Z</time>
        <extensions>
          <ns3:TrackPointExtension>
            <ns3:hr>104</ns3:hr>
            <ns3:cad>0</ns3:cad>
          </ns3:TrackPointExtension>
        </extensions>
      </trkpt>
      <trkpt lat="44.675975739955902099609375" lon="6.771507225930690765380859375">
        <ele>1777.199951171875</ele>
        <time>2026-09-03T08:19:06.000Z</time>
        <extensions>
          <ns3:TrackPointExtension>
            <ns3:hr>104</ns3:hr>
            <ns3:cad>79</ns3:cad>
          </ns3:TrackPointExtension>
        </extensions>
      </trkpt>
      <trkpt lat="44.6759578026831150054931640625" lon="6.7715026997029781341552734375">
        <ele>1776.800048828125</ele>
        <time>2026-09-03T08:19:07.000Z</time>
        <extensions>
          <ns3:TrackPointExtension>
            <ns3:hr>104</ns3:hr>
            <ns3:cad>79</ns3:cad>
          </ns3:TrackPointExtension>
        </extensions>
      </trkpt>
      <trkpt lat="44.675931148231029510498046875" lon="6.77149976603686809539794921875">
        <ele>1776.4000244140625</ele>
        <time>2026-09-03T08:19:08.000Z</time>
        <extensions>
          <ns3:TrackPointExtension>
            <ns3:hr>104</ns3:hr>
            <ns3:cad>79</ns3:cad>
          </ns3:TrackPointExtension>
        </extensions>
      </trkpt>
      <trkpt lat="44.675911702215671539306640625" lon="6.77149440161883831024169921875">
        <ele>1776</ele>
        <time>2026-09-03T08:19:09.000Z</time>
        <extensions>
          <ns3:TrackPointExtension>
            <ns3:hr>104</ns3:hr>
            <ns3:cad>79</ns3:cad>
          </ns3:TrackPointExtension>
        </extensions>
      </trkpt>
      <trkpt lat="44.67589116655290126800537109375" lon="6.771498508751392364501953125">
        <ele>1775.5999755859375</ele>
        <time>2026-09-03T08:19:10.000Z</time>
        <extensions>
          <ns3:TrackPointExtension>
            <ns3:hr>103</ns3:hr>
            <ns3:cad>80</ns3:cad>
          </ns3:TrackPointExtension>
        </extensions>
      </trkpt>
      <trkpt lat="44.67586568556725978851318359375" lon="6.77149440161883831024169921875">
        <ele>1775.4000244140625</ele>
        <time>2026-09-03T08:19:11.000Z</time>
        <extensions>
          <ns3:TrackPointExtension>
            <ns3:hr>104</ns3:hr>
            <ns3:cad>80</ns3:cad>
          </ns3:TrackPointExtension>
        </extensions>
      </trkpt>
      <trkpt lat="44.67584305442869663238525390625" lon="6.77149121649563312530517578125">
        <ele>1775</ele>
        <time>2026-09-03T08:19:12.000Z</time>
        <extensions>
          <ns3:TrackPointExtension>
            <ns3:hr>104</ns3:hr>
            <ns3:cad>80</ns3:cad>
          </ns3:TrackPointExtension>
        </extensions>
      </trkpt>
      <trkpt lat="44.67582277022302150726318359375" lon="6.7714901268482208251953125">
        <ele>1774.5999755859375</ele>
        <time>2026-09-03T08:19:13.000Z</time>
        <extensions>
          <ns3:TrackPointExtension>
            <ns3:hr>105</ns3:hr>
            <ns3:cad>81</ns3:cad>
          </ns3:TrackPointExtension>
        </extensions>
      </trkpt>
      <trkpt lat="44.67579712159931659698486328125" lon="6.771495155990123748779296875">
        <ele>1774.4000244140625</ele>
        <time>2026-09-03T08:19:14.000Z</time>
        <extensions>
          <ns3:TrackPointExtension>
            <ns3:hr>105</ns3:hr>
            <ns3:cad>81</ns3:cad>
          </ns3:TrackPointExtension>
        </extensions>
      </trkpt>
      <trkpt lat="44.6757794357836246490478515625" lon="6.77149406634271144866943359375">
        <ele>1774</ele>
        <time>2026-09-03T08:19:15.000Z</time>
        <extensions>
          <ns3:TrackPointExtension>
            <ns3:hr>106</ns3:hr>
            <ns3:cad>81</ns3:cad>
          </ns3:TrackPointExtension>
        </extensions>
      </trkpt>
      <trkpt lat="44.675758145749568939208984375" lon="6.7714874446392059326171875">
        <ele>1773.5999755859375</ele>
        <time>2026-09-03T08:19:16.000Z</time>
        <extensions>
          <ns3:TrackPointExtension>
            <ns3:hr>106</ns3:hr>
            <ns3:cad>80</ns3:cad>
          </ns3:TrackPointExtension>
        </extensions>
      </trkpt>
      <trkpt lat="44.6757361851632595062255859375" lon="6.77147470414638519287109375">
        <ele>1773.199951171875</ele>
        <time>2026-09-03T08:19:17.000Z</time>
        <extensions>
          <ns3:TrackPointExtension>
            <ns3:hr>107</ns3:hr>
            <ns3:cad>80</ns3:cad>
          </ns3:TrackPointExtension>
        </extensions>
      </trkpt>
      <trkpt lat="44.6757167391479015350341796875" lon="6.77146707661449909210205078125">
        <ele>1772.800048828125</ele>
        <time>2026-09-03T08:19:18.000Z</time>
        <extensions>
          <ns3:TrackPointExtension>
            <ns3:hr>107</ns3:hr>
            <ns3:cad>80</ns3:cad>
          </ns3:TrackPointExtension>
        </extensions>
      </trkpt>
      <trkpt lat="44.67569435946643352508544921875" lon="6.771466992795467376708984375">
        <ele>1772.4000244140625</ele>
        <time>2026-09-03T08:19:19.000Z</time>
        <extensions>
          <ns3:TrackPointExtension>
            <ns3:hr>108</ns3:hr>
            <ns3:cad>80</ns3:cad>
          </ns3:TrackPointExtension>
        </extensions>
      </trkpt>
      <trkpt lat="44.67567793093621730804443359375" lon="6.77146523259580135345458984375">
        <ele>1772</ele>
        <time>2026-09-03T08:19:20.000Z</time>
        <extensions>
          <ns3:TrackPointExtension>
            <ns3:hr>109</ns3:hr>
            <ns3:cad>81</ns3:cad>
          </ns3:TrackPointExtension>
        </extensions>
      </trkpt>
      <trkpt lat="44.67565630562603473663330078125" lon="6.7714607901871204376220703125">
        <ele>1771.5999755859375</ele>
        <time>2026-09-03T08:19:21.000Z</time>
        <extensions>
          <ns3:TrackPointExtension>
            <ns3:hr>109</ns3:hr>
            <ns3:cad>82</ns3:cad>
          </ns3:TrackPointExtension>
        </extensions>
      </trkpt>
      <trkpt lat="44.67563283629715442657470703125" lon="6.77145324647426605224609375">
        <ele>1771.199951171875</ele>
        <time>2026-09-03T08:19:22.000Z</time>
        <extensions>
          <ns3:TrackPointExtension>
            <ns3:hr>110</ns3:hr>
            <ns3:cad>83</ns3:cad>
          </ns3:TrackPointExtension>
        </extensions>
      </trkpt>
      <trkpt lat="44.6756104566156864166259765625" lon="6.7714490555226802825927734375">
        <ele>1770.800048828125</ele>
        <time>2026-09-03T08:19:23.000Z</time>
        <extensions>
          <ns3:TrackPointExtension>
            <ns3:hr>110</ns3:hr>
            <ns3:cad>85</ns3:cad>
          </ns3:TrackPointExtension>
        </extensions>
      </trkpt>
      <trkpt lat="44.67559059150516986846923828125" lon="6.77143991924822330474853515625">
        <ele>1770.4000244140625</ele>
        <time>2026-09-03T08:19:24.000Z</time>
        <extensions>
          <ns3:TrackPointExtension>
            <ns3:hr>111</ns3:hr>
            <ns3:cad>85</ns3:cad>
          </ns3:TrackPointExtension>
        </extensions>
      </trkpt>
      <trkpt lat="44.67557684518396854400634765625" lon="6.771430112421512603759765625">
        <ele>1770.199951171875</ele>
        <time>2026-09-03T08:19:25.000Z</time>
        <extensions>
          <ns3:TrackPointExtension>
            <ns3:hr>112</ns3:hr>
            <ns3:cad>85</ns3:cad>
          </ns3:TrackPointExtension>
        </extensions>
      </trkpt>
      <trkpt lat="44.67555857263505458831787109375" lon="6.77140899002552032470703125">
        <ele>1769.800048828125</ele>
        <time>2026-09-03T08:19:26.000Z</time>
        <extensions>
          <ns3:TrackPointExtension>
            <ns3:hr>113</ns3:hr>
            <ns3:cad>84</ns3:cad>
          </ns3:TrackPointExtension>
        </extensions>
      </trkpt>
      <trkpt lat="44.67553711496293544769287109375" lon="6.771397925913333892822265625">
        <ele>1769.4000244140625</ele>
        <time>2026-09-03T08:19:27.000Z</time>
        <extensions>
          <ns3:TrackPointExtension>
            <ns3:hr>113</ns3:hr>
            <ns3:cad>84</ns3:cad>
          </ns3:TrackPointExtension>
        </extensions>
      </trkpt>
      <trkpt lat="44.675518758594989776611328125" lon="6.771384179592132568359375">
        <ele>1769</ele>
        <time>2026-09-03T08:19:28.000Z</time>
        <extensions>
          <ns3:TrackPointExtension>
            <ns3:hr>114</ns3:hr>
            <ns3:cad>85</ns3:cad>
          </ns3:TrackPointExtension>
        </extensions>
      </trkpt>
      <trkpt lat="44.67549872584640979766845703125" lon="6.7713613808155059814453125">
        <ele>1768.4000244140625</ele>
        <time>2026-09-03T08:19:29.000Z</time>
        <extensions>
          <ns3:TrackPointExtension>
            <ns3:hr>116</ns3:hr>
            <ns3:cad>85</ns3:cad>
          </ns3:TrackPointExtension>
        </extensions>
      </trkpt>
      <trkpt lat="44.67547953128814697265625" lon="6.77134168334305286407470703125">
        <ele>1768</ele>
        <time>2026-09-03T08:19:30.000Z</time>
        <extensions>
          <ns3:TrackPointExtension>
            <ns3:hr>119</ns3:hr>
            <ns3:cad>85</ns3:cad>
          </ns3:TrackPointExtension>
        </extensions>
      </trkpt>
      <trkpt lat="44.67545916326344013214111328125" lon="6.7713270150125026702880859375">
        <ele>1767.5999755859375</ele>
        <time>2026-09-03T08:19:31.000Z</time>
        <extensions>
          <ns3:TrackPointExtension>
            <ns3:hr>124</ns3:hr>
            <ns3:cad>85</ns3:cad>
          </ns3:TrackPointExtension>
        </extensions>
      </trkpt>
      <trkpt lat="44.67544290237128734588623046875" lon="6.7713142745196819305419921875">
        <ele>1767.4000244140625</ele>
        <time>2026-09-03T08:19:32.000Z</time>
        <extensions>
          <ns3:TrackPointExtension>
            <ns3:hr>127</ns3:hr>
            <ns3:cad>85</ns3:cad>
          </ns3:TrackPointExtension>
        </extensions>
      </trkpt>
      <trkpt lat="44.67542731203138828277587890625" lon="6.77130882628262042999267578125">
        <ele>1767</ele>
        <time>2026-09-03T08:19:33.000Z</time>
        <extensions>
          <ns3:TrackPointExtension>
            <ns3:hr>128</ns3:hr>
            <ns3:cad>85</ns3:cad>
          </ns3:TrackPointExtension>
        </extensions>
      </trkpt>
      <trkpt lat="44.67541038058698177337646484375" lon="6.77130379714071750640869140625">
        <ele>1766.5999755859375</ele>
        <time>2026-09-03T08:19:34.000Z</time>
        <extensions>
          <ns3:TrackPointExtension>
            <ns3:hr>129</ns3:hr>
            <ns3:cad>85</ns3:cad>
          </ns3:TrackPointExtension>
        </extensions>
      </trkpt>
      <trkpt lat="44.67538691125810146331787109375" lon="6.77129239775240421295166015625">
        <ele>1766.199951171875</ele>
        <time>2026-09-03T08:19:35.000Z</time>
        <extensions>
          <ns3:TrackPointExtension>
            <ns3:hr>129</ns3:hr>
            <ns3:cad>84</ns3:cad>
          </ns3:TrackPointExtension>
        </extensions>
      </trkpt>
      <trkpt lat="44.675370566546916961669921875" lon="6.77127814851701259613037109375">
        <ele>1765.800048828125</ele>
        <time>2026-09-03T08:19:36.000Z</time>
        <extensions>
          <ns3:TrackPointExtension>
            <ns3:hr>130</ns3:hr>
            <ns3:cad>84</ns3:cad>
          </ns3:TrackPointExtension>
        </extensions>
      </trkpt>
      <trkpt lat="44.67535145580768585205078125" lon="6.7712663300335407257080078125">
        <ele>1765.4000244140625</ele>
        <time>2026-09-03T08:19:37.000Z</time>
        <extensions>
          <ns3:TrackPointExtension>
            <ns3:hr>130</ns3:hr>
            <ns3:cad>84</ns3:cad>
          </ns3:TrackPointExtension>
        </extensions>
      </trkpt>
      <trkpt lat="44.67533092014491558074951171875" lon="6.7712505720555782318115234375">
        <ele>1764.800048828125</ele>
        <time>2026-09-03T08:19:38.000Z</time>
        <extensions>
          <ns3:TrackPointExtension>
            <ns3:hr>131</ns3:hr>
            <ns3:cad>84</ns3:cad>
          </ns3:TrackPointExtension>
        </extensions>
      </trkpt>
      <trkpt lat="44.67531164176762104034423828125" lon="6.7712411843240261077880859375">
        <ele>1764.4000244140625</ele>
        <time>2026-09-03T08:19:39.000Z</time>
        <extensions>
          <ns3:TrackPointExtension>
            <ns3:hr>131</ns3:hr>
            <ns3:cad>83</ns3:cad>
          </ns3:TrackPointExtension>
        </extensions>
      </trkpt>
      <trkpt lat="44.67528582550585269927978515625" lon="6.7712271027266979217529296875">
        <ele>1764</ele>
        <time>2026-09-03T08:19:40.000Z</time>
        <extensions>
          <ns3:TrackPointExtension>
            <ns3:hr>132</ns3:hr>
            <ns3:cad>83</ns3:cad>
          </ns3:TrackPointExtension>
        </extensions>
      </trkpt>
      <trkpt lat="44.67527073808014392852783203125" lon="6.771207489073276519775390625">
        <ele>1763.4000244140625</ele>
        <time>2026-09-03T08:19:41.000Z</time>
        <extensions>
          <ns3:TrackPointExtension>
            <ns3:hr>132</ns3:hr>
            <ns3:cad>83</ns3:cad>
          </ns3:TrackPointExtension>
        </extensions>
      </trkpt>
      <trkpt lat="44.67524777166545391082763671875" lon="6.771192736923694610595703125">
        <ele>1762.800048828125</ele>
        <time>2026-09-03T08:19:42.000Z</time>
        <extensions>
          <ns3:TrackPointExtension>
            <ns3:hr>132</ns3:hr>
            <ns3:cad>83</ns3:cad>
          </ns3:TrackPointExtension>
        </extensions>
      </trkpt>
      <trkpt lat="44.6752255596220493316650390625" lon="6.771177984774112701416015625">
        <ele>1762.199951171875</ele>
        <time>2026-09-03T08:19:43.000Z</time>
        <extensions>
          <ns3:TrackPointExtension>
            <ns3:hr>133</ns3:hr>
            <ns3:cad>84</ns3:cad>
          </ns3:TrackPointExtension>
        </extensions>
      </trkpt>
      <trkpt lat="44.67520485632121562957763671875" lon="6.77116759121417999267578125">
        <ele>1761.800048828125</ele>
        <time>2026-09-03T08:19:44.000Z</time>
        <extensions>
          <ns3:TrackPointExtension>
            <ns3:hr>134</ns3:hr>
            <ns3:cad>84</ns3:cad>
          </ns3:TrackPointExtension>
        </extensions>
      </trkpt>
      <trkpt lat="44.67518105171620845794677734375" lon="6.77115392871201038360595703125">
        <ele>1761.5999755859375</ele>
        <time>2026-09-03T08:19:45.000Z</time>
        <extensions>
          <ns3:TrackPointExtension>
            <ns3:hr>134</ns3:hr>
            <ns3:cad>84</ns3:cad>
          </ns3:TrackPointExtension>
        </extensions>
      </trkpt>
      <trkpt lat="44.67516026459634304046630859375" lon="6.77113884128630161285400390625">
        <ele>1761.199951171875</ele>
        <time>2026-09-03T08:19:46.000Z</time>
        <extensions>
          <ns3:TrackPointExtension>
            <ns3:hr>135</ns3:hr>
            <ns3:cad>84</ns3:cad>
          </ns3:TrackPointExtension>
        </extensions>
      </trkpt>
      <trkpt lat="44.67513620853424072265625" lon="6.771125681698322296142578125">
        <ele>1760.800048828125</ele>
        <time>2026-09-03T08:19:47.000Z</time>
        <extensions>
          <ns3:TrackPointExtension>
            <ns3:hr>135</ns3:hr>
            <ns3:cad>84</ns3:cad>
          </ns3:TrackPointExtension>
        </extensions>
      </trkpt>
      <trkpt lat="44.67511617578566074371337890625" lon="6.77111260592937469482421875">
        <ele>1760.4000244140625</ele>
        <time>2026-09-03T08:19:48.000Z</time>
        <extensions>
          <ns3:TrackPointExtension>
            <ns3:hr>136</ns3:hr>
            <ns3:cad>84</ns3:cad>
          </ns3:TrackPointExtension>
        </extensions>
      </trkpt>
      <trkpt lat="44.6750934608280658721923828125" lon="6.77110246382653713226318359375">
        <ele>1759.800048828125</ele>
        <time>2026-09-03T08:19:49.000Z</time>
        <extensions>
          <ns3:TrackPointExtension>
            <ns3:hr>136</ns3:hr>
            <ns3:cad>84</ns3:cad>
          </ns3:TrackPointExtension>
        </extensions>
      </trkpt>
      <trkpt lat="44.67506848275661468505859375" lon="6.77108553238213062286376953125">
        <ele>1759.4000244140625</ele>
        <time>2026-09-03T08:19:50.000Z</time>
        <extensions>
          <ns3:TrackPointExtension>
            <ns3:hr>137</ns3:hr>
            <ns3:cad>84</ns3:cad>
          </ns3:TrackPointExtension>
        </extensions>
      </trkpt>
      <trkpt lat="44.675046689808368682861328125" lon="6.77107396535575389862060546875">
        <ele>1758.800048828125</ele>
        <time>2026-09-03T08:19:51.000Z</time>
        <extensions>
          <ns3:TrackPointExtension>
            <ns3:hr>137</ns3:hr>
            <ns3:cad>84</ns3:cad>
          </ns3:TrackPointExtension>
        </extensions>
      </trkpt>
      <trkpt lat="44.67502280138432979583740234375" lon="6.77106524817645549774169921875">
        <ele>1758.4000244140625</ele>
        <time>2026-09-03T08:19:52.000Z</time>
        <extensions>
          <ns3:TrackPointExtension>
            <ns3:hr>137</ns3:hr>
            <ns3:cad>84</ns3:cad>
          </ns3:TrackPointExtension>
        </extensions>
      </trkpt>
      <trkpt lat="44.6749995835125446319580078125" lon="6.77104630507528781890869140625">
        <ele>1758</ele>
        <time>2026-09-03T08:19:53.000Z</time>
        <extensions>
          <ns3:TrackPointExtension>
            <ns3:hr>138</ns3:hr>
            <ns3:cad>86</ns3:cad>
          </ns3:TrackPointExtension>
        </extensions>
      </trkpt>
      <trkpt lat="44.67497770674526691436767578125" lon="6.77103457041084766387939453125">
        <ele>1757.4000244140625</ele>
        <time>2026-09-03T08:19:54.000Z</time>
        <extensions>
          <ns3:TrackPointExtension>
            <ns3:hr>138</ns3:hr>
            <ns3:cad>86</ns3:cad>
          </ns3:TrackPointExtension>
        </extensions>
      </trkpt>
      <trkpt lat="44.674951471388339996337890625" lon="6.77101847715675830841064453125">
        <ele>1756.800048828125</ele>
        <time>2026-09-03T08:19:55.000Z</time>
        <extensions>
          <ns3:TrackPointExtension>
            <ns3:hr>139</ns3:hr>
            <ns3:cad>84</ns3:cad>
          </ns3:TrackPointExtension>
        </extensions>
      </trkpt>
      <trkpt lat="44.67493428848683834075927734375" lon="6.77100397646427154541015625">
        <ele>1756.4000244140625</ele>
        <time>2026-09-03T08:19:56.000Z</time>
        <extensions>
          <ns3:TrackPointExtension>
            <ns3:hr>139</ns3:hr>
            <ns3:cad>83</ns3:cad>
          </ns3:TrackPointExtension>
        </extensions>
      </trkpt>
      <trkpt lat="44.674908556044101715087890625" lon="6.7709914036095142364501953125">
        <ele>1756</ele>
        <time>2026-09-03T08:19:57.000Z</time>
        <extensions>
          <ns3:TrackPointExtension>
            <ns3:hr>140</ns3:hr>
            <ns3:cad>83</ns3:cad>
          </ns3:TrackPointExtension>
        </extensions>
      </trkpt>
      <trkpt lat="44.6748822368681430816650390625" lon="6.770972795784473419189453125">
        <ele>1755.5999755859375</ele>
        <time>2026-09-03T08:19:58.000Z</time>
        <extensions>
          <ns3:TrackPointExtension>
            <ns3:hr>140</ns3:hr>
            <ns3:cad>83</ns3:cad>
          </ns3:TrackPointExtension>
        </extensions>
      </trkpt>
      <trkpt lat="44.6748585999011993408203125" lon="6.77096583880484104156494140625">
        <ele>1755</ele>
        <time>2026-09-03T08:19:59.000Z</time>
        <extensions>
          <ns3:TrackPointExtension>
            <ns3:hr>140</ns3:hr>
            <ns3:cad>83</ns3:cad>
          </ns3:TrackPointExtension>
        </extensions>
      </trkpt>
      <trkpt lat="44.67482951469719409942626953125" lon="6.7709538526833057403564453125">
        <ele>1754.5999755859375</ele>
        <time>2026-09-03T08:20:00.000Z</time>
        <extensions>
          <ns3:TrackPointExtension>
            <ns3:hr>141</ns3:hr>
            <ns3:cad>83</ns3:cad>
          </ns3:TrackPointExtension>
        </extensions>
      </trkpt>
      <trkpt lat="44.67480805702507495880126953125" lon="6.77095024846494197845458984375">
        <ele>1754.199951171875</ele>
        <time>2026-09-03T08:20:01.000Z</time>
        <extensions>
          <ns3:TrackPointExtension>
            <ns3:hr>141</ns3:hr>
            <ns3:cad>84</ns3:cad>
          </ns3:TrackPointExtension>
        </extensions>
      </trkpt>
      <trkpt lat="44.67478039674460887908935546875" lon="6.770939268171787261962890625">
        <ele>1753.5999755859375</ele>
        <time>2026-09-03T08:20:02.000Z</time>
        <extensions>
          <ns3:TrackPointExtension>
            <ns3:hr>142</ns3:hr>
            <ns3:cad>84</ns3:cad>
          </ns3:TrackPointExtension>
        </extensions>
      </trkpt>
      <trkpt lat="44.67475525103509426116943359375" lon="6.7709330655634403228759765625">
        <ele>1753.199951171875</ele>
        <time>2026-09-03T08:20:03.000Z</time>
        <extensions>
          <ns3:TrackPointExtension>
            <ns3:hr>142</ns3:hr>
            <ns3:cad>84</ns3:cad>
          </ns3:TrackPointExtension>
        </extensions>
      </trkpt>
      <trkpt lat="44.674730859696865081787109375" lon="6.7709268629550933837890625">
        <ele>1752.800048828125</ele>
        <time>2026-09-03T08:20:04.000Z</time>
        <extensions>
          <ns3:TrackPointExtension>
            <ns3:hr>143</ns3:hr>
            <ns3:cad>85</ns3:cad>
          </ns3:TrackPointExtension>
        </extensions>
      </trkpt>
      <trkpt lat="44.67470814473927021026611328125" lon="6.7709142901003360748291015625">
        <ele>1752.4000244140625</ele>
        <time>2026-09-03T08:20:05.000Z</time>
        <extensions>
          <ns3:TrackPointExtension>
            <ns3:hr>143</ns3:hr>
            <ns3:cad>85</ns3:cad>
          </ns3:TrackPointExtension>
        </extensions>
      </trkpt>
      <trkpt lat="44.674687944352626800537109375" lon="6.77090984769165515899658203125">
        <ele>1752</ele>
        <time>2026-09-03T08:20:06.000Z</time>
        <extensions>
          <ns3:TrackPointExtension>
            <ns3:hr>144</ns3:hr>
            <ns3:cad>84</ns3:cad>
          </ns3:TrackPointExtension>
        </extensions>
      </trkpt>
      <trkpt lat="44.6746602840721607208251953125" lon="6.77089442498981952667236328125">
        <ele>1751.5999755859375</ele>
        <time>2026-09-03T08:20:07.000Z</time>
        <extensions>
          <ns3:TrackPointExtension>
            <ns3:hr>144</ns3:hr>
            <ns3:cad>84</ns3:cad>
          </ns3:TrackPointExtension>
        </extensions>
      </trkpt>
      <trkpt lat="44.6746413409709930419921875" lon="6.7708804272115230560302734375">
        <ele>1751.199951171875</ele>
        <time>2026-09-03T08:20:08.000Z</time>
        <extensions>
          <ns3:TrackPointExtension>
            <ns3:hr>145</ns3:hr>
            <ns3:cad>84</ns3:cad>
          </ns3:TrackPointExtension>
        </extensions>
      </trkpt>
      <trkpt lat="44.6746170334517955780029296875" lon="6.77086475305259227752685546875">
        <ele>1750.800048828125</ele>
        <time>2026-09-03T08:20:09.000Z</time>
        <extensions>
          <ns3:TrackPointExtension>
            <ns3:hr>145</ns3:hr>
            <ns3:cad>84</ns3:cad>
          </ns3:TrackPointExtension>
        </extensions>
      </trkpt>
      <trkpt lat="44.6745975874364376068115234375" lon="6.770843379199504852294921875">
        <ele>1750.199951171875</ele>
        <time>2026-09-03T08:20:10.000Z</time>
        <extensions>
          <ns3:TrackPointExtension>
            <ns3:hr>145</ns3:hr>
            <ns3:cad>84</ns3:cad>
          </ns3:TrackPointExtension>
        </extensions>
      </trkpt>
      <trkpt lat="44.67457939870655536651611328125" lon="6.770828627049922943115234375">
        <ele>1749.800048828125</ele>
        <time>2026-09-03T08:20:11.000Z</time>
        <extensions>
          <ns3:TrackPointExtension>
            <ns3:hr>146</ns3:hr>
            <ns3:cad>84</ns3:cad>
          </ns3:TrackPointExtension>
        </extensions>
      </trkpt>
      <trkpt lat="44.674562551081180572509765625" lon="6.77080742083489894866943359375">
        <ele>1749.4000244140625</ele>
        <time>2026-09-03T08:20:12.000Z</time>
        <extensions>
          <ns3:TrackPointExtension>
            <ns3:hr>146</ns3:hr>
            <ns3:cad>84</ns3:cad>
          </ns3:TrackPointExtension>
        </extensions>
      </trkpt>
      <trkpt lat="44.67454469762742519378662109375" lon="6.77080146968364715576171875">
        <ele>1748.800048828125</ele>
        <time>2026-09-03T08:20:13.000Z</time>
        <extensions>
          <ns3:TrackPointExtension>
            <ns3:hr>146</ns3:hr>
            <ns3:cad>84</ns3:cad>
          </ns3:TrackPointExtension>
        </extensions>
      </trkpt>
      <trkpt lat="44.67452843673527240753173828125" lon="6.77078613080084323883056640625">
        <ele>1748.4000244140625</ele>
        <time>2026-09-03T08:20:14.000Z</time>
        <extensions>
          <ns3:TrackPointExtension>
            <ns3:hr>147</ns3:hr>
            <ns3:cad>85</ns3:cad>
          </ns3:TrackPointExtension>
        </extensions>
      </trkpt>
      <trkpt lat="44.67450764961540699005126953125" lon="6.7707774974405765533447265625">
        <ele>1747.800048828125</ele>
        <time>2026-09-03T08:20:15.000Z</time>
        <extensions>
          <ns3:TrackPointExtension>
            <ns3:hr>147</ns3:hr>
            <ns3:cad>87</ns3:cad>
          </ns3:TrackPointExtension>
        </extensions>
      </trkpt>
      <trkpt lat="44.67449071817100048065185546875" lon="6.77075897343456745147705078125">
        <ele>1747.4000244140625</ele>
        <time>2026-09-03T08:20:16.000Z</time>
        <extensions>
          <ns3:TrackPointExtension>
            <ns3:hr>147</ns3:hr>
            <ns3:cad>90</ns3:cad>
          </ns3:TrackPointExtension>
        </extensions>
      </trkpt>
      <trkpt lat="44.67447512783110141754150390625" lon="6.77074589766561985015869140625">
        <ele>1746.800048828125</ele>
        <time>2026-09-03T08:20:17.000Z</time>
        <extensions>
          <ns3:TrackPointExtension>
            <ns3:hr>148</ns3:hr>
            <ns3:cad>90</ns3:cad>
          </ns3:TrackPointExtension>
        </extensions>
      </trkpt>
      <trkpt lat="44.6744470484554767608642578125" lon="6.77073600701987743377685546875">
        <ele>1746.4000244140625</ele>
        <time>2026-09-03T08:20:18.000Z</time>
        <extensions>
          <ns3:TrackPointExtension>
            <ns3:hr>148</ns3:hr>
            <ns3:cad>90</ns3:cad>
          </ns3:TrackPointExtension>
        </extensions>
      </trkpt>
      <trkpt lat="44.67442584224045276641845703125" lon="6.77072963677346706390380859375">
        <ele>1745.800048828125</ele>
        <time>2026-09-03T08:20:19.000Z</time>
        <extensions>
          <ns3:TrackPointExtension>
            <ns3:hr>148</ns3:hr>
            <ns3:cad>90</ns3:cad>
          </ns3:TrackPointExtension>
        </extensions>
      </trkpt>
      <trkpt lat="44.67440337873995304107666015625" lon="6.7707137949764728546142578125">
        <ele>1745.199951171875</ele>
        <time>2026-09-03T08:20:20.000Z</time>
        <extensions>
          <ns3:TrackPointExtension>
            <ns3:hr>146</ns3:hr>
            <ns3:cad>90</ns3:cad>
          </ns3:TrackPointExtension>
        </extensions>
      </trkpt>
      <trkpt lat="44.67438208870589733123779296875" lon="6.7706846259534358978271484375">
        <ele>1744.800048828125</ele>
        <time>2026-09-03T08:20:21.000Z</time>
        <extensions>
          <ns3:TrackPointExtension>
            <ns3:hr>146</ns3:hr>
            <ns3:cad>90</ns3:cad>
          </ns3:TrackPointExtension>
        </extensions>
      </trkpt>
      <trkpt lat="44.67436834238469600677490234375" lon="6.77066266536712646484375">
        <ele>1744.4000244140625</ele>
        <time>2026-09-03T08:20:22.000Z</time>
        <extensions>
          <ns3:TrackPointExtension>
            <ns3:hr>146</ns3:hr>
            <ns3:cad>85</ns3:cad>
          </ns3:TrackPointExtension>
        </extensions>
      </trkpt>
      <trkpt lat="44.67435141094028949737548828125" lon="6.77062888629734516143798828125">
        <ele>1743.800048828125</ele>
        <time>2026-09-03T08:20:23.000Z</time>
        <extensions>
          <ns3:TrackPointExtension>
            <ns3:hr>145</ns3:hr>
            <ns3:cad>83</ns3:cad>
          </ns3:TrackPointExtension>
        </extensions>
      </trkpt>
      <trkpt lat="44.67433783225715160369873046875" lon="6.77060005255043506622314453125">
        <ele>1743.5999755859375</ele>
        <time>2026-09-03T08:20:24.000Z</time>
        <extensions>
          <ns3:TrackPointExtension>
            <ns3:hr>144</ns3:hr>
            <ns3:cad>83</ns3:cad>
          </ns3:TrackPointExtension>
        </extensions>
      </trkpt>
      <trkpt lat="44.6743250079452991485595703125" lon="6.77057205699384212493896484375">
        <ele>1743</ele>
        <time>2026-09-03T08:20:25.000Z</time>
        <extensions>
          <ns3:TrackPointExtension>
            <ns3:hr>144</ns3:hr>
            <ns3:cad>83</ns3:cad>
          </ns3:TrackPointExtension>
        </extensions>
      </trkpt>
      <trkpt lat="44.6743109263479709625244140625" lon="6.7705451510846614837646484375">
        <ele>1742.5999755859375</ele>
        <time>2026-09-03T08:20:26.000Z</time>
        <extensions>
          <ns3:TrackPointExtension>
            <ns3:hr>144</ns3:hr>
            <ns3:cad>85</ns3:cad>
          </ns3:TrackPointExtension>
        </extensions>
      </trkpt>
      <trkpt lat="44.6742980182170867919921875" lon="6.77053048275411128997802734375">
        <ele>1742.199951171875</ele>
        <time>2026-09-03T08:20:27.000Z</time>
        <extensions>
          <ns3:TrackPointExtension>
            <ns3:hr>144</ns3:hr>
            <ns3:cad>85</ns3:cad>
          </ns3:TrackPointExtension>
        </extensions>
      </trkpt>
      <trkpt lat="44.6742797456681728363037109375" lon="6.7705109529197216033935546875">
        <ele>1741.5999755859375</ele>
        <time>2026-09-03T08:20:28.000Z</time>
        <extensions>
          <ns3:TrackPointExtension>
            <ns3:hr>144</ns3:hr>
            <ns3:cad>85</ns3:cad>
          </ns3:TrackPointExtension>
        </extensions>
      </trkpt>
      <trkpt lat="44.67426558025181293487548828125" lon="6.7704864777624607086181640625">
        <ele>1741.199951171875</ele>
        <time>2026-09-03T08:20:29.000Z</time>
        <extensions>
          <ns3:TrackPointExtension>
            <ns3:hr>145</ns3:hr>
            <ns3:cad>84</ns3:cad>
          </ns3:TrackPointExtension>
        </extensions>
      </trkpt>
      <trkpt lat="44.674245379865169525146484375" lon="6.77046191878616809844970703125">
        <ele>1740.5999755859375</ele>
        <time>2026-09-03T08:20:30.000Z</time>
        <extensions>
          <ns3:TrackPointExtension>
            <ns3:hr>145</ns3:hr>
            <ns3:cad>83</ns3:cad>
          </ns3:TrackPointExtension>
        </extensions>
      </trkpt>
      <trkpt lat="44.67422987334430217742919921875" lon="6.7704469151794910430908203125">
        <ele>1740.199951171875</ele>
        <time>2026-09-03T08:20:31.000Z</time>
        <extensions>
          <ns3:TrackPointExtension>
            <ns3:hr>144</ns3:hr>
            <ns3:cad>83</ns3:cad>
          </ns3:TrackPointExtension>
        </extensions>
      </trkpt>
      <trkpt lat="44.67421445064246654510498046875" lon="6.77042369730770587921142578125">
        <ele>1739.5999755859375</ele>
        <time>2026-09-03T08:20:32.000Z</time>
        <extensions>
          <ns3:TrackPointExtension>
            <ns3:hr>144</ns3:hr>
            <ns3:cad>84</ns3:cad>
          </ns3:TrackPointExtension>
        </extensions>
      </trkpt>
      <trkpt lat="44.67419718392193317413330078125" lon="6.77040492184460163116455078125">
        <ele>1739.199951171875</ele>
        <time>2026-09-03T08:20:33.000Z</time>
        <extensions>
          <ns3:TrackPointExtension>
            <ns3:hr>144</ns3:hr>
            <ns3:cad>86</ns3:cad>
          </ns3:TrackPointExtension>
        </extensions>
      </trkpt>
      <trkpt lat="44.67417824082076549530029296875" lon="6.7703852243721485137939453125">
        <ele>1738.800048828125</ele>
        <time>2026-09-03T08:20:34.000Z</time>
        <extensions>
          <ns3:TrackPointExtension>
            <ns3:hr>144</ns3:hr>
            <ns3:cad>86</ns3:cad>
          </ns3:TrackPointExtension>
        </extensions>
      </trkpt>
      <trkpt lat="44.67416197992861270904541015625" lon="6.77037625573575496673583984375">
        <ele>1738.4000244140625</ele>
        <time>2026-09-03T08:20:35.000Z</time>
        <extensions>
          <ns3:TrackPointExtension>
            <ns3:hr>144</ns3:hr>
            <ns3:cad>89</ns3:cad>
          </ns3:TrackPointExtension>
        </extensions>
      </trkpt>
      <trkpt lat="44.6741372533142566680908203125" lon="6.77036686800420284271240234375">
        <ele>1738</ele>
        <time>2026-09-03T08:20:36.000Z</time>
        <extensions>
          <ns3:TrackPointExtension>
            <ns3:hr>143</ns3:hr>
            <ns3:cad>89</ns3:cad>
          </ns3:TrackPointExtension>
        </extensions>
      </trkpt>
      <trkpt lat="44.67411621473729610443115234375" lon="6.77036200650036334991455078125">
        <ele>1737.4000244140625</ele>
        <time>2026-09-03T08:20:37.000Z</time>
        <extensions>
          <ns3:TrackPointExtension>
            <ns3:hr>141</ns3:hr>
            <ns3:cad>89</ns3:cad>
          </ns3:TrackPointExtension>
        </extensions>
      </trkpt>
      <trkpt lat="44.674097187817096710205078125" lon="6.7703604139387607574462890625">
        <ele>1737</ele>
        <time>2026-09-03T08:20:38.000Z</time>
        <extensions>
          <ns3:TrackPointExtension>
            <ns3:hr>140</ns3:hr>
            <ns3:cad>89</ns3:cad>
          </ns3:TrackPointExtension>
        </extensions>
      </trkpt>
      <trkpt lat="44.6740742214024066925048828125" lon="6.77035630680620670318603515625">
        <ele>1736.5999755859375</ele>
        <time>2026-09-03T08:20:39.000Z</time>
        <extensions>
          <ns3:TrackPointExtension>
            <ns3:hr>139</ns3:hr>
            <ns3:cad>84</ns3:cad>
          </ns3:TrackPointExtension>
        </extensions>
      </trkpt>
      <trkpt lat="44.67405469156801700592041015625" lon="6.770346499979496002197265625">
        <ele>1736</ele>
        <time>2026-09-03T08:20:40.000Z</time>
        <extensions>
          <ns3:TrackPointExtension>
            <ns3:hr>138</ns3:hr>
            <ns3:cad>83</ns3:cad>
          </ns3:TrackPointExtension>
        </extensions>
      </trkpt>
      <trkpt lat="44.67403356917202472686767578125" lon="6.77034188993275165557861328125">
        <ele>1735.5999755859375</ele>
        <time>2026-09-03T08:20:41.000Z</time>
        <extensions>
          <ns3:TrackPointExtension>
            <ns3:hr>138</ns3:hr>
            <ns3:cad>83</ns3:cad>
          </ns3:TrackPointExtension>
        </extensions>
      </trkpt>
      <trkpt lat="44.6740095131099224090576171875" lon="6.77032780833542346954345703125">
        <ele>1735.4000244140625</ele>
        <time>2026-09-03T08:20:42.000Z</time>
        <extensions>
          <ns3:TrackPointExtension>
            <ns3:hr>138</ns3:hr>
            <ns3:cad>83</ns3:cad>
          </ns3:TrackPointExtension>
        </extensions>
      </trkpt>
      <trkpt lat="44.67399031855165958404541015625" lon="6.7703168280422687530517578125">
        <ele>1735</ele>
        <time>2026-09-03T08:20:43.000Z</time>
        <extensions>
          <ns3:TrackPointExtension>
            <ns3:hr>138</ns3:hr>
            <ns3:cad>83</ns3:cad>
          </ns3:TrackPointExtension>
        </extensions>
      </trkpt>
      <trkpt lat="44.673969112336635589599609375" lon="6.7702990584075450897216796875">
        <ele>1734.5999755859375</ele>
        <time>2026-09-03T08:20:44.000Z</time>
        <extensions>
          <ns3:TrackPointExtension>
            <ns3:hr>138</ns3:hr>
            <ns3:cad>83</ns3:cad>
          </ns3:TrackPointExtension>
        </extensions>
      </trkpt>
      <trkpt lat="44.673943631350994110107421875" lon="6.77028246223926544189453125">
        <ele>1734.199951171875</ele>
        <time>2026-09-03T08:20:45.000Z</time>
        <extensions>
          <ns3:TrackPointExtension>
            <ns3:hr>137</ns3:hr>
            <ns3:cad>83</ns3:cad>
          </ns3:TrackPointExtension>
        </extensions>
      </trkpt>
      <trkpt lat="44.6739199943840503692626953125" lon="6.7702777683734893798828125">
        <ele>1733.800048828125</ele>
        <time>2026-09-03T08:20:46.000Z</time>
        <extensions>
          <ns3:TrackPointExtension>
            <ns3:hr>136</ns3:hr>
            <ns3:cad>82</ns3:cad>
          </ns3:TrackPointExtension>
        </extensions>
      </trkpt>
      <trkpt lat="44.673897363245487213134765625" lon="6.77027751691639423370361328125">
        <ele>1733.4000244140625</ele>
        <time>2026-09-03T08:20:47.000Z</time>
        <extensions>
          <ns3:TrackPointExtension>
            <ns3:hr>136</ns3:hr>
            <ns3:cad>82</ns3:cad>
          </ns3:TrackPointExtension>
        </extensions>
      </trkpt>
      <trkpt lat="44.67387414537370204925537109375" lon="6.770280115306377410888671875">
        <ele>1733</ele>
        <time>2026-09-03T08:20:48.000Z</time>
        <extensions>
          <ns3:TrackPointExtension>
            <ns3:hr>136</ns3:hr>
            <ns3:cad>82</ns3:cad>
          </ns3:TrackPointExtension>
        </extensions>
      </trkpt>
      <trkpt lat="44.673856794834136962890625" lon="6.77027969621121883392333984375">
        <ele>1732.5999755859375</ele>
        <time>2026-09-03T08:20:49.000Z</time>
        <extensions>
          <ns3:TrackPointExtension>
            <ns3:hr>136</ns3:hr>
            <ns3:cad>80</ns3:cad>
          </ns3:TrackPointExtension>
        </extensions>
      </trkpt>
      <trkpt lat="44.6738366782665252685546875" lon="6.77026997320353984832763671875">
        <ele>1732.4000244140625</ele>
        <time>2026-09-03T08:20:50.000Z</time>
        <extensions>
          <ns3:TrackPointExtension>
            <ns3:hr>136</ns3:hr>
            <ns3:cad>80</ns3:cad>
          </ns3:TrackPointExtension>
        </extensions>
      </trkpt>
      <trkpt lat="44.67381664551794528961181640625" lon="6.770255304872989654541015625">
        <ele>1732</ele>
        <time>2026-09-03T08:20:51.000Z</time>
        <extensions>
          <ns3:TrackPointExtension>
            <ns3:hr>136</ns3:hr>
            <ns3:cad>81</ns3:cad>
          </ns3:TrackPointExtension>
        </extensions>
      </trkpt>
      <trkpt lat="44.6738029830157756805419921875" lon="6.77024650387465953826904296875">
        <ele>1731.5999755859375</ele>
        <time>2026-09-03T08:20:52.000Z</time>
        <extensions>
          <ns3:TrackPointExtension>
            <ns3:hr>136</ns3:hr>
            <ns3:cad>81</ns3:cad>
          </ns3:TrackPointExtension>
        </extensions>
      </trkpt>
      <trkpt lat="44.67378429137170314788818359375" lon="6.77022772841155529022216796875">
        <ele>1731.199951171875</ele>
        <time>2026-09-03T08:20:53.000Z</time>
        <extensions>
          <ns3:TrackPointExtension>
            <ns3:hr>136</ns3:hr>
            <ns3:cad>80</ns3:cad>
          </ns3:TrackPointExtension>
        </extensions>
      </trkpt>
      <trkpt lat="44.6737701259553432464599609375" lon="6.7702118866145610809326171875">
        <ele>1730.800048828125</ele>
        <time>2026-09-03T08:20:54.000Z</time>
        <extensions>
          <ns3:TrackPointExtension>
            <ns3:hr>135</ns3:hr>
            <ns3:cad>80</ns3:cad>
          </ns3:TrackPointExtension>
        </extensions>
      </trkpt>
      <trkpt lat="44.673749171197414398193359375" lon="6.77019252441823482513427734375">
        <ele>1730.4000244140625</ele>
        <time>2026-09-03T08:20:55.000Z</time>
        <extensions>
          <ns3:TrackPointExtension>
            <ns3:hr>136</ns3:hr>
            <ns3:cad>80</ns3:cad>
          </ns3:TrackPointExtension>
        </extensions>
      </trkpt>
      <trkpt lat="44.673733077943325042724609375" lon="6.77018187940120697021484375">
        <ele>1730</ele>
        <time>2026-09-03T08:20:56.000Z</time>
        <extensions>
          <ns3:TrackPointExtension>
            <ns3:hr>136</ns3:hr>
            <ns3:cad>81</ns3:cad>
          </ns3:TrackPointExtension>
        </extensions>
      </trkpt>
      <trkpt lat="44.67371455393731594085693359375" lon="6.7701817117631435394287109375">
        <ele>1729.5999755859375</ele>
        <time>2026-09-03T08:20:57.000Z</time>
        <extensions>
          <ns3:TrackPointExtension>
            <ns3:hr>136</ns3:hr>
            <ns3:cad>82</ns3:cad>
          </ns3:TrackPointExtension>
        </extensions>
      </trkpt>
      <trkpt lat="44.67369242571294307708740234375" lon="6.77017341367900371551513671875">
        <ele>1729</ele>
        <time>2026-09-03T08:20:58.000Z</time>
        <extensions>
          <ns3:TrackPointExtension>
            <ns3:hr>136</ns3:hr>
            <ns3:cad>83</ns3:cad>
          </ns3:TrackPointExtension>
        </extensions>
      </trkpt>
      <trkpt lat="44.67367448844015598297119140625" lon="6.7701758444309234619140625">
        <ele>1728.5999755859375</ele>
        <time>2026-09-03T08:20:59.000Z</time>
        <extensions>
          <ns3:TrackPointExtension>
            <ns3:hr>136</ns3:hr>
            <ns3:cad>83</ns3:cad>
          </ns3:TrackPointExtension>
        </extensions>
      </trkpt>
      <trkpt lat="44.6736564673483371734619140625" lon="6.77017441950738430023193359375">
        <ele>1728.199951171875</ele>
        <time>2026-09-03T08:21:00.000Z</time>
        <extensions>
          <ns3:TrackPointExtension>
            <ns3:hr>135</ns3:hr>
            <ns3:cad>83</ns3:cad>
          </ns3:TrackPointExtension>
        </extensions>
      </trkpt>
      <trkpt lat="44.67364029027521610260009765625" lon="6.77016871981322765350341796875">
        <ele>1728</ele>
        <time>2026-09-03T08:21:01.000Z</time>
        <extensions>
          <ns3:TrackPointExtension>
            <ns3:hr>135</ns3:hr>
            <ns3:cad>83</ns3:cad>
          </ns3:TrackPointExtension>
        </extensions>
      </trkpt>
      <trkpt lat="44.67361740767955780029296875" lon="6.77015832625329494476318359375">
        <ele>1727.800048828125</ele>
        <time>2026-09-03T08:21:02.000Z</time>
        <extensions>
          <ns3:TrackPointExtension>
            <ns3:hr>135</ns3:hr>
            <ns3:cad>83</ns3:cad>
          </ns3:TrackPointExtension>
        </extensions>
      </trkpt>
      <trkpt lat="44.6736024878919124603271484375" lon="6.77015078254044055938720703125">
        <ele>1727.4000244140625</ele>
        <time>2026-09-03T08:21:03.000Z</time>
        <extensions>
          <ns3:TrackPointExtension>
            <ns3:hr>135</ns3:hr>
            <ns3:cad>83</ns3:cad>
          </ns3:TrackPointExtension>
        </extensions>
      </trkpt>
      <trkpt lat="44.67358161695301532745361328125" lon="6.770144663751125335693359375">
        <ele>1727</ele>
        <time>2026-09-03T08:21:04.000Z</time>
        <extensions>
          <ns3:TrackPointExtension>
            <ns3:hr>135</ns3:hr>
            <ns3:cad>81</ns3:cad>
          </ns3:TrackPointExtension>
        </extensions>
      </trkpt>
      <trkpt lat="44.6735669486224651336669921875" lon="6.77014022134244441986083984375">
        <ele>1726.5999755859375</ele>
        <time>2026-09-03T08:21:05.000Z</time>
        <extensions>
          <ns3:TrackPointExtension>
            <ns3:hr>135</ns3:hr>
            <ns3:cad>81</ns3:cad>
          </ns3:TrackPointExtension>
        </extensions>
      </trkpt>
      <trkpt lat="44.673548676073551177978515625" lon="6.77013116888701915740966796875">
        <ele>1726.199951171875</ele>
        <time>2026-09-03T08:21:06.000Z</time>
        <extensions>
          <ns3:TrackPointExtension>
            <ns3:hr>135</ns3:hr>
            <ns3:cad>81</ns3:cad>
          </ns3:TrackPointExtension>
        </extensions>
      </trkpt>
      <trkpt lat="44.67353132553398609161376953125" lon="6.77011976949870586395263671875">
        <ele>1725.800048828125</ele>
        <time>2026-09-03T08:21:07.000Z</time>
        <extensions>
          <ns3:TrackPointExtension>
            <ns3:hr>135</ns3:hr>
            <ns3:cad>83</ns3:cad>
          </ns3:TrackPointExtension>
        </extensions>
      </trkpt>
      <trkpt lat="44.673517160117626190185546875" lon="6.77011893130838871002197265625">
        <ele>1725.4000244140625</ele>
        <time>2026-09-03T08:21:08.000Z</time>
        <extensions>
          <ns3:TrackPointExtension>
            <ns3:hr>134</ns3:hr>
            <ns3:cad>83</ns3:cad>
          </ns3:TrackPointExtension>
        </extensions>
      </trkpt>
      <trkpt lat="44.673492349684238433837890625" lon="6.770105771720409393310546875">
        <ele>1725</ele>
        <time>2026-09-03T08:21:09.000Z</time>
        <extensions>
          <ns3:TrackPointExtension>
            <ns3:hr>134</ns3:hr>
            <ns3:cad>83</ns3:cad>
          </ns3:TrackPointExtension>
        </extensions>
      </trkpt>
      <trkpt lat="44.67348187230527400970458984375" lon="6.77008858881890773773193359375">
        <ele>1724.4000244140625</ele>
        <time>2026-09-03T08:21:10.000Z</time>
        <extensions>
          <ns3:TrackPointExtension>
            <ns3:hr>133</ns3:hr>
            <ns3:cad>83</ns3:cad>
          </ns3:TrackPointExtension>
        </extensions>
      </trkpt>
      <trkpt lat="44.67346376739442348480224609375" lon="6.7700714059174060821533203125">
        <ele>1724</ele>
        <time>2026-09-03T08:21:11.000Z</time>
        <extensions>
          <ns3:TrackPointExtension>
            <ns3:hr>133</ns3:hr>
            <ns3:cad>85</ns3:cad>
          </ns3:TrackPointExtension>
        </extensions>
      </trkpt>
      <trkpt lat="44.6734378673136234283447265625" lon="6.77005313336849212646484375">
        <ele>1723.5999755859375</ele>
        <time>2026-09-03T08:21:12.000Z</time>
        <extensions>
          <ns3:TrackPointExtension>
            <ns3:hr>132</ns3:hr>
            <ns3:cad>85</ns3:cad>
          </ns3:TrackPointExtension>
        </extensions>
      </trkpt>
      <trkpt lat="44.67342051677405834197998046875" lon="6.7700311727821826934814453125">
        <ele>1723</ele>
        <time>2026-09-03T08:21:13.000Z</time>
        <extensions>
          <ns3:TrackPointExtension>
            <ns3:hr>131</ns3:hr>
            <ns3:cad>85</ns3:cad>
          </ns3:TrackPointExtension>
        </extensions>
      </trkpt>
      <trkpt lat="44.67340107075870037078857421875" lon="6.770012564957141876220703125">
        <ele>1722.5999755859375</ele>
        <time>2026-09-03T08:21:14.000Z</time>
        <extensions>
          <ns3:TrackPointExtension>
            <ns3:hr>130</ns3:hr>
            <ns3:cad>85</ns3:cad>
          </ns3:TrackPointExtension>
        </extensions>
      </trkpt>
      <trkpt lat="44.673381038010120391845703125" lon="6.76999806426465511322021484375">
        <ele>1722.199951171875</ele>
        <time>2026-09-03T08:21:15.000Z</time>
        <extensions>
          <ns3:TrackPointExtension>
            <ns3:hr>129</ns3:hr>
            <ns3:cad>81</ns3:cad>
          </ns3:TrackPointExtension>
        </extensions>
      </trkpt>
      <trkpt lat="44.67336050234735012054443359375" lon="6.7699855752289295196533203125">
        <ele>1721.800048828125</ele>
        <time>2026-09-03T08:21:16.000Z</time>
        <extensions>
          <ns3:TrackPointExtension>
            <ns3:hr>129</ns3:hr>
            <ns3:cad>81</ns3:cad>
          </ns3:TrackPointExtension>
        </extensions>
      </trkpt>
      <trkpt lat="44.6733372844755649566650390625" lon="6.769975684583187103271484375">
        <ele>1721.4000244140625</ele>
        <time>2026-09-03T08:21:17.000Z</time>
        <extensions>
          <ns3:TrackPointExtension>
            <ns3:hr>129</ns3:hr>
            <ns3:cad>81</ns3:cad>
          </ns3:TrackPointExtension>
        </extensions>
      </trkpt>
      <trkpt lat="44.6733175031840801239013671875" lon="6.76995967514812946319580078125">
        <ele>1721</ele>
        <time>2026-09-03T08:21:18.000Z</time>
        <extensions>
          <ns3:TrackPointExtension>
            <ns3:hr>129</ns3:hr>
            <ns3:cad>82</ns3:cad>
          </ns3:TrackPointExtension>
        </extensions>
      </trkpt>
      <trkpt lat="44.67329612933099269866943359375" lon="6.7699505388736724853515625">
        <ele>1720.5999755859375</ele>
        <time>2026-09-03T08:21:19.000Z</time>
        <extensions>
          <ns3:TrackPointExtension>
            <ns3:hr>129</ns3:hr>
            <ns3:cad>82</ns3:cad>
          </ns3:TrackPointExtension>
        </extensions>
      </trkpt>
      <trkpt lat="44.67327274382114410400390625" lon="6.76993670873343944549560546875">
        <ele>1720.199951171875</ele>
        <time>2026-09-03T08:21:20.000Z</time>
        <extensions>
          <ns3:TrackPointExtension>
            <ns3:hr>128</ns3:hr>
            <ns3:cad>82</ns3:cad>
          </ns3:TrackPointExtension>
        </extensions>
      </trkpt>
      <trkpt lat="44.67325438745319843292236328125" lon="6.76992581225931644439697265625">
        <ele>1719.800048828125</ele>
        <time>2026-09-03T08:21:21.000Z</time>
        <extensions>
          <ns3:TrackPointExtension>
            <ns3:hr>129</ns3:hr>
            <ns3:cad>81</ns3:cad>
          </ns3:TrackPointExtension>
        </extensions>
      </trkpt>
      <trkpt lat="44.67323251068592071533203125" lon="6.76991768181324005126953125">
        <ele>1719.4000244140625</ele>
        <time>2026-09-03T08:21:22.000Z</time>
        <extensions>
          <ns3:TrackPointExtension>
            <ns3:hr>129</ns3:hr>
            <ns3:cad>81</ns3:cad>
          </ns3:TrackPointExtension>
        </extensions>
      </trkpt>
      <trkpt lat="44.6732088737189769744873046875" lon="6.76990921609103679656982421875">
        <ele>1718.800048828125</ele>
        <time>2026-09-03T08:21:23.000Z</time>
        <extensions>
          <ns3:TrackPointExtension>
            <ns3:hr>129</ns3:hr>
            <ns3:cad>82</ns3:cad>
          </ns3:TrackPointExtension>
        </extensions>
      </trkpt>
      <trkpt lat="44.67318423092365264892578125" lon="6.769905947148799896240234375">
        <ele>1718.4000244140625</ele>
        <time>2026-09-03T08:21:24.000Z</time>
        <extensions>
          <ns3:TrackPointExtension>
            <ns3:hr>129</ns3:hr>
            <ns3:cad>82</ns3:cad>
          </ns3:TrackPointExtension>
        </extensions>
      </trkpt>
      <trkpt lat="44.67315430752933025360107421875" lon="6.7699027620255947113037109375">
        <ele>1718</ele>
        <time>2026-09-03T08:21:25.000Z</time>
        <extensions>
          <ns3:TrackPointExtension>
            <ns3:hr>129</ns3:hr>
            <ns3:cad>83</ns3:cad>
          </ns3:TrackPointExtension>
        </extensions>
      </trkpt>
      <trkpt lat="44.67313000001013278961181640625" lon="6.76989546976983547210693359375">
        <ele>1717.5999755859375</ele>
        <time>2026-09-03T08:21:26.000Z</time>
        <extensions>
          <ns3:TrackPointExtension>
            <ns3:hr>129</ns3:hr>
            <ns3:cad>83</ns3:cad>
          </ns3:TrackPointExtension>
        </extensions>
      </trkpt>
      <trkpt lat="44.67310510575771331787109375" lon="6.76989412866532802581787109375">
        <ele>1717.199951171875</ele>
        <time>2026-09-03T08:21:27.000Z</time>
        <extensions>
          <ns3:TrackPointExtension>
            <ns3:hr>129</ns3:hr>
            <ns3:cad>83</ns3:cad>
          </ns3:TrackPointExtension>
        </extensions>
      </trkpt>
      <trkpt lat="44.67307853512465953826904296875" lon="6.7698900215327739715576171875">
        <ele>1716.800048828125</ele>
        <time>2026-09-03T08:21:28.000Z</time>
        <extensions>
          <ns3:TrackPointExtension>
            <ns3:hr>129</ns3:hr>
            <ns3:cad>83</ns3:cad>
          </ns3:TrackPointExtension>
        </extensions>
      </trkpt>
      <trkpt lat="44.673057831823825836181640625" lon="6.7698880098760128021240234375">
        <ele>1716.4000244140625</ele>
        <time>2026-09-03T08:21:29.000Z</time>
        <extensions>
          <ns3:TrackPointExtension>
            <ns3:hr>130</ns3:hr>
            <ns3:cad>82</ns3:cad>
          </ns3:TrackPointExtension>
        </extensions>
      </trkpt>
      <trkpt lat="44.67303025536239147186279296875" lon="6.76988289691507816314697265625">
        <ele>1716</ele>
        <time>2026-09-03T08:21:30.000Z</time>
        <extensions>
          <ns3:TrackPointExtension>
            <ns3:hr>130</ns3:hr>
            <ns3:cad>82</ns3:cad>
          </ns3:TrackPointExtension>
        </extensions>
      </trkpt>
      <trkpt lat="44.673008210957050323486328125" lon="6.7698735930025577545166015625">
        <ele>1715.5999755859375</ele>
        <time>2026-09-03T08:21:31.000Z</time>
        <extensions>
          <ns3:TrackPointExtension>
            <ns3:hr>130</ns3:hr>
            <ns3:cad>82</ns3:cad>
          </ns3:TrackPointExtension>
        </extensions>
      </trkpt>
      <trkpt lat="44.67298884876072406768798828125" lon="6.7698672227561473846435546875">
        <ele>1715.199951171875</ele>
        <time>2026-09-03T08:21:32.000Z</time>
        <extensions>
          <ns3:TrackPointExtension>
            <ns3:hr>129</ns3:hr>
            <ns3:cad>82</ns3:cad>
          </ns3:TrackPointExtension>
        </extensions>
      </trkpt>
      <trkpt lat="44.67295884154736995697021484375" lon="6.7698568291962146759033203125">
        <ele>1714.800048828125</ele>
        <time>2026-09-03T08:21:33.000Z</time>
        <extensions>
          <ns3:TrackPointExtension>
            <ns3:hr>130</ns3:hr>
            <ns3:cad>82</ns3:cad>
          </ns3:TrackPointExtension>
        </extensions>
      </trkpt>
      <trkpt lat="44.6729362942278385162353515625" lon="6.769852302968502044677734375">
        <ele>1714.4000244140625</ele>
        <time>2026-09-03T08:21:34.000Z</time>
        <extensions>
          <ns3:TrackPointExtension>
            <ns3:hr>130</ns3:hr>
            <ns3:cad>82</ns3:cad>
          </ns3:TrackPointExtension>
        </extensions>
      </trkpt>
      <trkpt lat="44.67290838249027729034423828125" lon="6.76984794437885284423828125">
        <ele>1714</ele>
        <time>2026-09-03T08:21:35.000Z</time>
        <extensions>
          <ns3:TrackPointExtension>
            <ns3:hr>130</ns3:hr>
            <ns3:cad>83</ns3:cad>
          </ns3:TrackPointExtension>
        </extensions>
      </trkpt>
      <trkpt lat="44.6728818118572235107421875" lon="6.7698424123227596282958984375">
        <ele>1713.5999755859375</ele>
        <time>2026-09-03T08:21:36.000Z</time>
        <extensions>
          <ns3:TrackPointExtension>
            <ns3:hr>130</ns3:hr>
            <ns3:cad>83</ns3:cad>
          </ns3:TrackPointExtension>
        </extensions>
      </trkpt>
      <trkpt lat="44.67285691760480403900146484375" lon="6.7698397301137447357177734375">
        <ele>1713.4000244140625</ele>
        <time>2026-09-03T08:21:37.000Z</time>
        <extensions>
          <ns3:TrackPointExtension>
            <ns3:hr>130</ns3:hr>
            <ns3:cad>84</ns3:cad>
          </ns3:TrackPointExtension>
        </extensions>
      </trkpt>
      <trkpt lat="44.6728266589343547821044921875" lon="6.76983411423861980438232421875">
        <ele>1713</ele>
        <time>2026-09-03T08:21:38.000Z</time>
        <extensions>
          <ns3:TrackPointExtension>
            <ns3:hr>130</ns3:hr>
            <ns3:cad>84</ns3:cad>
          </ns3:TrackPointExtension>
        </extensions>
      </trkpt>
      <trkpt lat="44.672803692519664764404296875" lon="6.769831180572509765625">
        <ele>1712.800048828125</ele>
        <time>2026-09-03T08:21:39.000Z</time>
        <extensions>
          <ns3:TrackPointExtension>
            <ns3:hr>130</ns3:hr>
            <ns3:cad>84</ns3:cad>
          </ns3:TrackPointExtension>
        </extensions>
      </trkpt>
      <trkpt lat="44.67277242802083492279052734375" lon="6.7698256485164165496826171875">
        <ele>1712.5999755859375</ele>
        <time>2026-09-03T08:21:40.000Z</time>
        <extensions>
          <ns3:TrackPointExtension>
            <ns3:hr>130</ns3:hr>
            <ns3:cad>84</ns3:cad>
          </ns3:TrackPointExtension>
        </extensions>
      </trkpt>
      <trkpt lat="44.67274703085422515869140625" lon="6.76982271485030651092529296875">
        <ele>1712.199951171875</ele>
        <time>2026-09-03T08:21:41.000Z</time>
        <extensions>
          <ns3:TrackPointExtension>
            <ns3:hr>131</ns3:hr>
            <ns3:cad>83</ns3:cad>
          </ns3:TrackPointExtension>
        </extensions>
      </trkpt>
      <trkpt lat="44.67272414825856685638427734375" lon="6.76982246339321136474609375">
        <ele>1711.800048828125</ele>
        <time>2026-09-03T08:21:42.000Z</time>
        <extensions>
          <ns3:TrackPointExtension>
            <ns3:hr>131</ns3:hr>
            <ns3:cad>83</ns3:cad>
          </ns3:TrackPointExtension>
        </extensions>
      </trkpt>
      <trkpt lat="44.672690369188785552978515625" lon="6.769815422594547271728515625">
        <ele>1711.5999755859375</ele>
        <time>2026-09-03T08:21:43.000Z</time>
        <extensions>
          <ns3:TrackPointExtension>
            <ns3:hr>131</ns3:hr>
            <ns3:cad>83</ns3:cad>
          </ns3:TrackPointExtension>
        </extensions>
      </trkpt>
      <trkpt lat="44.672669582068920135498046875" lon="6.7698072083294391632080078125">
        <ele>1711.199951171875</ele>
        <time>2026-09-03T08:21:44.000Z</time>
        <extensions>
          <ns3:TrackPointExtension>
            <ns3:hr>131</ns3:hr>
            <ns3:cad>83</ns3:cad>
          </ns3:TrackPointExtension>
        </extensions>
      </trkpt>
      <trkpt lat="44.67264418490231037139892578125" lon="6.76979941315948963165283203125">
        <ele>1710.800048828125</ele>
        <time>2026-09-03T08:21:45.000Z</time>
        <extensions>
          <ns3:TrackPointExtension>
            <ns3:hr>131</ns3:hr>
            <ns3:cad>82</ns3:cad>
          </ns3:TrackPointExtension>
        </extensions>
      </trkpt>
      <trkpt lat="44.67261887155473232269287109375" lon="6.76978818140923976898193359375">
        <ele>1710.4000244140625</ele>
        <time>2026-09-03T08:21:46.000Z</time>
        <extensions>
          <ns3:TrackPointExtension>
            <ns3:hr>131</ns3:hr>
            <ns3:cad>82</ns3:cad>
          </ns3:TrackPointExtension>
        </extensions>
      </trkpt>
      <trkpt lat="44.6725969947874546051025390625" lon="6.76978114061057567596435546875">
        <ele>1710</ele>
        <time>2026-09-03T08:21:47.000Z</time>
        <extensions>
          <ns3:TrackPointExtension>
            <ns3:hr>131</ns3:hr>
            <ns3:cad>82</ns3:cad>
          </ns3:TrackPointExtension>
        </extensions>
      </trkpt>
      <trkpt lat="44.67256522737443447113037109375" lon="6.76976789720356464385986328125">
        <ele>1709.5999755859375</ele>
        <time>2026-09-03T08:21:48.000Z</time>
        <extensions>
          <ns3:TrackPointExtension>
            <ns3:hr>132</ns3:hr>
            <ns3:cad>82</ns3:cad>
          </ns3:TrackPointExtension>
        </extensions>
      </trkpt>
      <trkpt lat="44.67254376970231533050537109375" lon="6.769756413996219635009765625">
        <ele>1709.199951171875</ele>
        <time>2026-09-03T08:21:49.000Z</time>
        <extensions>
          <ns3:TrackPointExtension>
            <ns3:hr>131</ns3:hr>
            <ns3:cad>82</ns3:cad>
          </ns3:TrackPointExtension>
        </extensions>
      </trkpt>
      <trkpt lat="44.67251778580248355865478515625" lon="6.76975331269204616546630859375">
        <ele>1708.800048828125</ele>
        <time>2026-09-03T08:21:50.000Z</time>
        <extensions>
          <ns3:TrackPointExtension>
            <ns3:hr>131</ns3:hr>
            <ns3:cad>83</ns3:cad>
          </ns3:TrackPointExtension>
        </extensions>
      </trkpt>
      <trkpt lat="44.67249624431133270263671875" lon="6.76974995993077754974365234375">
        <ele>1708.199951171875</ele>
        <time>2026-09-03T08:21:51.000Z</time>
        <extensions>
          <ns3:TrackPointExtension>
            <ns3:hr>132</ns3:hr>
            <ns3:cad>84</ns3:cad>
          </ns3:TrackPointExtension>
        </extensions>
      </trkpt>
      <trkpt lat="44.67247604392468929290771484375" lon="6.76975901238620281219482421875">
        <ele>1707.800048828125</ele>
        <time>2026-09-03T08:21:52.000Z</time>
        <extensions>
          <ns3:TrackPointExtension>
            <ns3:hr>132</ns3:hr>
            <ns3:cad>84</ns3:cad>
          </ns3:TrackPointExtension>
        </extensions>
      </trkpt>
      <trkpt lat="44.6724501438438892364501953125" lon="6.7697656340897083282470703125">
        <ele>1707.199951171875</ele>
        <time>2026-09-03T08:21:53.000Z</time>
        <extensions>
          <ns3:TrackPointExtension>
            <ns3:hr>132</ns3:hr>
            <ns3:cad>84</ns3:cad>
          </ns3:TrackPointExtension>
        </extensions>
      </trkpt>
      <trkpt lat="44.67242692597210407257080078125" lon="6.7697720043361186981201171875">
        <ele>1706.5999755859375</ele>
        <time>2026-09-03T08:21:54.000Z</time>
        <extensions>
          <ns3:TrackPointExtension>
            <ns3:hr>132</ns3:hr>
            <ns3:cad>84</ns3:cad>
          </ns3:TrackPointExtension>
        </extensions>
      </trkpt>
      <trkpt lat="44.67240161262452602386474609375" lon="6.7697810567915439605712890625">
        <ele>1706.199951171875</ele>
        <time>2026-09-03T08:21:55.000Z</time>
        <extensions>
          <ns3:TrackPointExtension>
            <ns3:hr>132</ns3:hr>
            <ns3:cad>83</ns3:cad>
          </ns3:TrackPointExtension>
        </extensions>
      </trkpt>
      <trkpt lat="44.67237361706793308258056640625" lon="6.769783906638622283935546875">
        <ele>1705.5999755859375</ele>
        <time>2026-09-03T08:21:56.000Z</time>
        <extensions>
          <ns3:TrackPointExtension>
            <ns3:hr>132</ns3:hr>
            <ns3:cad>83</ns3:cad>
          </ns3:TrackPointExtension>
        </extensions>
      </trkpt>
      <trkpt lat="44.6723512373864650726318359375" lon="6.76979153417050838470458984375">
        <ele>1705.199951171875</ele>
        <time>2026-09-03T08:21:57.000Z</time>
        <extensions>
          <ns3:TrackPointExtension>
            <ns3:hr>133</ns3:hr>
            <ns3:cad>83</ns3:cad>
          </ns3:TrackPointExtension>
        </extensions>
      </trkpt>
      <trkpt lat="44.6723257564008235931396484375" lon="6.76979069598019123077392578125">
        <ele>1704.800048828125</ele>
        <time>2026-09-03T08:21:58.000Z</time>
        <extensions>
          <ns3:TrackPointExtension>
            <ns3:hr>133</ns3:hr>
            <ns3:cad>84</ns3:cad>
          </ns3:TrackPointExtension>
        </extensions>
      </trkpt>
      <trkpt lat="44.67230371199548244476318359375" lon="6.76979027688503265380859375">
        <ele>1704.199951171875</ele>
        <time>2026-09-03T08:21:59.000Z</time>
        <extensions>
          <ns3:TrackPointExtension>
            <ns3:hr>133</ns3:hr>
            <ns3:cad>84</ns3:cad>
          </ns3:TrackPointExtension>
        </extensions>
      </trkpt>
      <trkpt lat="44.67227890156209468841552734375" lon="6.76979086361825466156005859375">
        <ele>1703.800048828125</ele>
        <time>2026-09-03T08:22:00.000Z</time>
        <extensions>
          <ns3:TrackPointExtension>
            <ns3:hr>133</ns3:hr>
            <ns3:cad>84</ns3:cad>
          </ns3:TrackPointExtension>
        </extensions>
      </trkpt>
      <trkpt lat="44.67225308530032634735107421875" lon="6.769782565534114837646484375">
        <ele>1703.4000244140625</ele>
        <time>2026-09-03T08:22:01.000Z</time>
        <extensions>
          <ns3:TrackPointExtension>
            <ns3:hr>133</ns3:hr>
            <ns3:cad>85</ns3:cad>
          </ns3:TrackPointExtension>
        </extensions>
      </trkpt>
      <trkpt lat="44.67223414219915866851806640625" lon="6.7697730101644992828369140625">
        <ele>1702.800048828125</ele>
        <time>2026-09-03T08:22:02.000Z</time>
        <extensions>
          <ns3:TrackPointExtension>
            <ns3:hr>133</ns3:hr>
            <ns3:cad>85</ns3:cad>
          </ns3:TrackPointExtension>
        </extensions>
      </trkpt>
      <trkpt lat="44.67220648191869258880615234375" lon="6.7697632871568202972412109375">
        <ele>1702.4000244140625</ele>
        <time>2026-09-03T08:22:03.000Z</time>
        <extensions>
          <ns3:TrackPointExtension>
            <ns3:hr>134</ns3:hr>
            <ns3:cad>85</ns3:cad>
          </ns3:TrackPointExtension>
        </extensions>
      </trkpt>
      <trkpt lat="44.672181420028209686279296875" lon="6.76976085640490055084228515625">
        <ele>1701.800048828125</ele>
        <time>2026-09-03T08:22:04.000Z</time>
        <extensions>
          <ns3:TrackPointExtension>
            <ns3:hr>134</ns3:hr>
            <ns3:cad>84</ns3:cad>
          </ns3:TrackPointExtension>
        </extensions>
      </trkpt>
      <trkpt lat="44.672162644565105438232421875" lon="6.769764460623264312744140625">
        <ele>1701.4000244140625</ele>
        <time>2026-09-03T08:22:05.000Z</time>
        <extensions>
          <ns3:TrackPointExtension>
            <ns3:hr>134</ns3:hr>
            <ns3:cad>83</ns3:cad>
          </ns3:TrackPointExtension>
        </extensions>
      </trkpt>
      <trkpt lat="44.67213951051235198974609375" lon="6.76975415088236331939697265625">
        <ele>1701.199951171875</ele>
        <time>2026-09-03T08:22:06.000Z</time>
        <extensions>
          <ns3:TrackPointExtension>
            <ns3:hr>134</ns3:hr>
            <ns3:cad>83</ns3:cad>
          </ns3:TrackPointExtension>
        </extensions>
      </trkpt>
      <trkpt lat="44.672118388116359710693359375" lon="6.7697502113878726959228515625">
        <ele>1700.800048828125</ele>
        <time>2026-09-03T08:22:07.000Z</time>
        <extensions>
          <ns3:TrackPointExtension>
            <ns3:hr>135</ns3:hr>
            <ns3:cad>83</ns3:cad>
          </ns3:TrackPointExtension>
        </extensions>
      </trkpt>
      <trkpt lat="44.67209315858781337738037109375" lon="6.769748032093048095703125">
        <ele>1700.4000244140625</ele>
        <time>2026-09-03T08:22:08.000Z</time>
        <extensions>
          <ns3:TrackPointExtension>
            <ns3:hr>135</ns3:hr>
            <ns3:cad>83</ns3:cad>
          </ns3:TrackPointExtension>
        </extensions>
      </trkpt>
      <trkpt lat="44.6720682643353939056396484375" lon="6.76974325440824031829833984375">
        <ele>1700.199951171875</ele>
        <time>2026-09-03T08:22:09.000Z</time>
        <extensions>
          <ns3:TrackPointExtension>
            <ns3:hr>135</ns3:hr>
            <ns3:cad>83</ns3:cad>
          </ns3:TrackPointExtension>
        </extensions>
      </trkpt>
      <trkpt lat="44.67204789631068706512451171875" lon="6.7697344534099102020263671875">
        <ele>1699.800048828125</ele>
        <time>2026-09-03T08:22:10.000Z</time>
        <extensions>
          <ns3:TrackPointExtension>
            <ns3:hr>135</ns3:hr>
            <ns3:cad>82</ns3:cad>
          </ns3:TrackPointExtension>
        </extensions>
      </trkpt>
      <trkpt lat="44.672028534114360809326171875" lon="6.7697294242680072784423828125">
        <ele>1699.4000244140625</ele>
        <time>2026-09-03T08:22:11.000Z</time>
        <extensions>
          <ns3:TrackPointExtension>
            <ns3:hr>135</ns3:hr>
            <ns3:cad>82</ns3:cad>
          </ns3:TrackPointExtension>
        </extensions>
      </trkpt>
      <trkpt lat="44.6720136143267154693603515625" lon="6.76972816698253154754638671875">
        <ele>1699.199951171875</ele>
        <time>2026-09-03T08:22:12.000Z</time>
        <extensions>
          <ns3:TrackPointExtension>
            <ns3:hr>135</ns3:hr>
            <ns3:cad>82</ns3:cad>
          </ns3:TrackPointExtension>
        </extensions>
      </trkpt>
      <trkpt lat="44.6720012091100215911865234375" lon="6.7697264067828655242919921875">
        <ele>1699</ele>
        <time>2026-09-03T08:22:13.000Z</time>
        <extensions>
          <ns3:TrackPointExtension>
            <ns3:hr>135</ns3:hr>
            <ns3:cad>82</ns3:cad>
          </ns3:TrackPointExtension>
        </extensions>
      </trkpt>
      <trkpt lat="44.6719918213784694671630859375" lon="6.76972414366900920867919921875">
        <ele>1698.800048828125</ele>
        <time>2026-09-03T08:22:14.000Z</time>
        <extensions>
          <ns3:TrackPointExtension>
            <ns3:hr>135</ns3:hr>
            <ns3:cad>82</ns3:cad>
          </ns3:TrackPointExtension>
        </extensions>
      </trkpt>
      <trkpt lat="44.67199056409299373626708984375" lon="6.76972079090774059295654296875">
        <ele>1698.5999755859375</ele>
        <time>2026-09-03T08:22:15.000Z</time>
        <extensions>
          <ns3:TrackPointExtension>
            <ns3:hr>135</ns3:hr>
            <ns3:cad>82</ns3:cad>
          </ns3:TrackPointExtension>
        </extensions>
      </trkpt>
      <trkpt lat="44.67199190519750118255615234375" lon="6.76971794106066226959228515625">
        <ele>1698.4000244140625</ele>
        <time>2026-09-03T08:22:16.000Z</time>
        <extensions>
          <ns3:TrackPointExtension>
            <ns3:hr>135</ns3:hr>
            <ns3:cad>0</ns3:cad>
          </ns3:TrackPointExtension>
        </extensions>
      </trkpt>
      <trkpt lat="44.67199265956878662109375" lon="6.7697160132229328155517578125">
        <ele>1698.4000244140625</ele>
        <time>2026-09-03T08:22:17.000Z</time>
        <extensions>
          <ns3:TrackPointExtension>
            <ns3:hr>135</ns3:hr>
            <ns3:cad>0</ns3:cad>
          </ns3:TrackPointExtension>
        </extensions>
      </trkpt>
      <trkpt lat="44.67199274338781833648681640625" lon="6.7697156779468059539794921875">
        <ele>1698.4000244140625</ele>
        <time>2026-09-03T08:22:18.000Z</time>
        <extensions>
          <ns3:TrackPointExtension>
            <ns3:hr>134</ns3:hr>
            <ns3:cad>0</ns3:cad>
          </ns3:TrackPointExtension>
        </extensions>
      </trkpt>
      <trkpt lat="44.67199274338781833648681640625" lon="6.7697156779468059539794921875">
        <ele>1698.4000244140625</ele>
        <time>2026-09-03T08:22:19.000Z</time>
        <extensions>
          <ns3:TrackPointExtension>
            <ns3:hr>133</ns3:hr>
            <ns3:cad>0</ns3:cad>
          </ns3:TrackPointExtension>
        </extensions>
      </trkpt>
      <trkpt lat="44.67199274338781833648681640625" lon="6.7697150073945522308349609375">
        <ele>1698.4000244140625</ele>
        <time>2026-09-03T08:22:20.000Z</time>
        <extensions>
          <ns3:TrackPointExtension>
            <ns3:hr>132</ns3:hr>
            <ns3:cad>0</ns3:cad>
          </ns3:TrackPointExtension>
        </extensions>
      </trkpt>
      <trkpt lat="44.67198050580918788909912109375" lon="6.76970805041491985321044921875">
        <ele>1698.4000244140625</ele>
        <time>2026-09-03T08:22:21.000Z</time>
        <extensions>
          <ns3:TrackPointExtension>
            <ns3:hr>131</ns3:hr>
            <ns3:cad>0</ns3:cad>
          </ns3:TrackPointExtension>
        </extensions>
      </trkpt>
      <trkpt lat="44.67196558602154254913330078125" lon="6.7697037756443023681640625">
        <ele>1698.4000244140625</ele>
        <time>2026-09-03T08:22:22.000Z</time>
        <extensions>
          <ns3:TrackPointExtension>
            <ns3:hr>131</ns3:hr>
            <ns3:cad>0</ns3:cad>
          </ns3:TrackPointExtension>
        </extensions>
      </trkpt>
      <trkpt lat="44.6719509176909923553466796875" lon="6.7697019316256046295166015625">
        <ele>1698.4000244140625</ele>
        <time>2026-09-03T08:22:23.000Z</time>
        <extensions>
          <ns3:TrackPointExtension>
            <ns3:hr>131</ns3:hr>
            <ns3:cad>0</ns3:cad>
          </ns3:TrackPointExtension>
        </extensions>
      </trkpt>
      <trkpt lat="44.67193826101720333099365234375" lon="6.76970570348203182220458984375">
        <ele>1698.199951171875</ele>
        <time>2026-09-03T08:22:24.000Z</time>
        <extensions>
          <ns3:TrackPointExtension>
            <ns3:hr>131</ns3:hr>
            <ns3:cad>0</ns3:cad>
          </ns3:TrackPointExtension>
        </extensions>
      </trkpt>
      <trkpt lat="44.671925939619541168212890625" lon="6.76970670931041240692138671875">
        <ele>1698</ele>
        <time>2026-09-03T08:22:25.000Z</time>
        <extensions>
          <ns3:TrackPointExtension>
            <ns3:hr>130</ns3:hr>
            <ns3:cad>0</ns3:cad>
          </ns3:TrackPointExtension>
        </extensions>
      </trkpt>
      <trkpt lat="44.6719153784215450286865234375" lon="6.76970788277685642242431640625">
        <ele>1697.800048828125</ele>
        <time>2026-09-03T08:22:26.000Z</time>
        <extensions>
          <ns3:TrackPointExtension>
            <ns3:hr>130</ns3:hr>
            <ns3:cad>0</ns3:cad>
          </ns3:TrackPointExtension>
        </extensions>
      </trkpt>
      <trkpt lat="44.67190406285226345062255859375" lon="6.76970578730106353759765625">
        <ele>1697.5999755859375</ele>
        <time>2026-09-03T08:22:27.000Z</time>
        <extensions>
          <ns3:TrackPointExtension>
            <ns3:hr>129</ns3:hr>
            <ns3:cad>63</ns3:cad>
          </ns3:TrackPointExtension>
        </extensions>
      </trkpt>
      <trkpt lat="44.6718922443687915802001953125" lon="6.76970721222460269927978515625">
        <ele>1697.4000244140625</ele>
        <time>2026-09-03T08:22:28.000Z</time>
        <extensions>
          <ns3:TrackPointExtension>
            <ns3:hr>129</ns3:hr>
            <ns3:cad>63</ns3:cad>
          </ns3:TrackPointExtension>
        </extensions>
      </trkpt>
      <trkpt lat="44.67187908478081226348876953125" lon="6.769706122577190399169921875">
        <ele>1697</ele>
        <time>2026-09-03T08:22:29.000Z</time>
        <extensions>
          <ns3:TrackPointExtension>
            <ns3:hr>128</ns3:hr>
            <ns3:cad>62</ns3:cad>
          </ns3:TrackPointExtension>
        </extensions>
      </trkpt>
      <trkpt lat="44.67186148278415203094482421875" lon="6.7697036080062389373779296875">
        <ele>1696.5999755859375</ele>
        <time>2026-09-03T08:22:30.000Z</time>
        <extensions>
          <ns3:TrackPointExtension>
            <ns3:hr>128</ns3:hr>
            <ns3:cad>62</ns3:cad>
          </ns3:TrackPointExtension>
        </extensions>
      </trkpt>
      <trkpt lat="44.67184471897780895233154296875" lon="6.76969799213111400604248046875">
        <ele>1696.199951171875</ele>
        <time>2026-09-03T08:22:31.000Z</time>
        <extensions>
          <ns3:TrackPointExtension>
            <ns3:hr>127</ns3:hr>
            <ns3:cad>62</ns3:cad>
          </ns3:TrackPointExtension>
        </extensions>
      </trkpt>
      <trkpt lat="44.67182912863790988922119140625" lon="6.76969095133244991302490234375">
        <ele>1695.800048828125</ele>
        <time>2026-09-03T08:22:32.000Z</time>
        <extensions>
          <ns3:TrackPointExtension>
            <ns3:hr>127</ns3:hr>
            <ns3:cad>62</ns3:cad>
          </ns3:TrackPointExtension>
        </extensions>
      </trkpt>
      <trkpt lat="44.67180700041353702545166015625" lon="6.76968030631542205810546875">
        <ele>1695.4000244140625</ele>
        <time>2026-09-03T08:22:33.000Z</time>
        <extensions>
          <ns3:TrackPointExtension>
            <ns3:hr>127</ns3:hr>
            <ns3:cad>62</ns3:cad>
          </ns3:TrackPointExtension>
        </extensions>
      </trkpt>
      <trkpt lat="44.67178839258849620819091796875" lon="6.769672594964504241943359375">
        <ele>1695</ele>
        <time>2026-09-03T08:22:34.000Z</time>
        <extensions>
          <ns3:TrackPointExtension>
            <ns3:hr>127</ns3:hr>
            <ns3:cad>62</ns3:cad>
          </ns3:TrackPointExtension>
        </extensions>
      </trkpt>
      <trkpt lat="44.67176743783056735992431640625" lon="6.76966127939522266387939453125">
        <ele>1694.800048828125</ele>
        <time>2026-09-03T08:22:35.000Z</time>
        <extensions>
          <ns3:TrackPointExtension>
            <ns3:hr>127</ns3:hr>
            <ns3:cad>64</ns3:cad>
          </ns3:TrackPointExtension>
        </extensions>
      </trkpt>
      <trkpt lat="44.67174530960619449615478515625" lon="6.76964669488370418548583984375">
        <ele>1694.4000244140625</ele>
        <time>2026-09-03T08:22:36.000Z</time>
        <extensions>
          <ns3:TrackPointExtension>
            <ns3:hr>126</ns3:hr>
            <ns3:cad>64</ns3:cad>
          </ns3:TrackPointExtension>
        </extensions>
      </trkpt>
      <trkpt lat="44.67172217555344104766845703125" lon="6.769633032381534576416015625">
        <ele>1693.800048828125</ele>
        <time>2026-09-03T08:22:37.000Z</time>
        <extensions>
          <ns3:TrackPointExtension>
            <ns3:hr>126</ns3:hr>
            <ns3:cad>64</ns3:cad>
          </ns3:TrackPointExtension>
        </extensions>
      </trkpt>
      <trkpt lat="44.67169535346329212188720703125" lon="6.76961593329906463623046875">
        <ele>1693.4000244140625</ele>
        <time>2026-09-03T08:22:38.000Z</time>
        <extensions>
          <ns3:TrackPointExtension>
            <ns3:hr>126</ns3:hr>
            <ns3:cad>80</ns3:cad>
          </ns3:TrackPointExtension>
        </extensions>
      </trkpt>
      <trkpt lat="44.6716692857444286346435546875" lon="6.76959506236016750335693359375">
        <ele>1693</ele>
        <time>2026-09-03T08:22:39.000Z</time>
        <extensions>
          <ns3:TrackPointExtension>
            <ns3:hr>127</ns3:hr>
            <ns3:cad>80</ns3:cad>
          </ns3:TrackPointExtension>
        </extensions>
      </trkpt>
      <trkpt lat="44.6716426312923431396484375" lon="6.76957729272544384002685546875">
        <ele>1692.800048828125</ele>
        <time>2026-09-03T08:22:40.000Z</time>
        <extensions>
          <ns3:TrackPointExtension>
            <ns3:hr>126</ns3:hr>
            <ns3:cad>81</ns3:cad>
          </ns3:TrackPointExtension>
        </extensions>
      </trkpt>
      <trkpt lat="44.6716186590492725372314453125" lon="6.7695534043014049530029296875">
        <ele>1692.4000244140625</ele>
        <time>2026-09-03T08:22:41.000Z</time>
        <extensions>
          <ns3:TrackPointExtension>
            <ns3:hr>126</ns3:hr>
            <ns3:cad>81</ns3:cad>
          </ns3:TrackPointExtension>
        </extensions>
      </trkpt>
      <trkpt lat="44.6715978719294071197509765625" lon="6.76954376511275768280029296875">
        <ele>1692.4000244140625</ele>
        <time>2026-09-03T08:22:42.000Z</time>
        <extensions>
          <ns3:TrackPointExtension>
            <ns3:hr>127</ns3:hr>
            <ns3:cad>82</ns3:cad>
          </ns3:TrackPointExtension>
        </extensions>
      </trkpt>
      <trkpt lat="44.67156593687832355499267578125" lon="6.7695240676403045654296875">
        <ele>1692.199951171875</ele>
        <time>2026-09-03T08:22:43.000Z</time>
        <extensions>
          <ns3:TrackPointExtension>
            <ns3:hr>126</ns3:hr>
            <ns3:cad>83</ns3:cad>
          </ns3:TrackPointExtension>
        </extensions>
      </trkpt>
      <trkpt lat="44.67154297046363353729248046875" lon="6.7695125006139278411865234375">
        <ele>1691.800048828125</ele>
        <time>2026-09-03T08:22:44.000Z</time>
        <extensions>
          <ns3:TrackPointExtension>
            <ns3:hr>127</ns3:hr>
            <ns3:cad>83</ns3:cad>
          </ns3:TrackPointExtension>
        </extensions>
      </trkpt>
      <trkpt lat="44.67151748947799205780029296875" lon="6.7695131711661815643310546875">
        <ele>1691.5999755859375</ele>
        <time>2026-09-03T08:22:45.000Z</time>
        <extensions>
          <ns3:TrackPointExtension>
            <ns3:hr>127</ns3:hr>
            <ns3:cad>83</ns3:cad>
          </ns3:TrackPointExtension>
        </extensions>
      </trkpt>
      <trkpt lat="44.67148530296981334686279296875" lon="6.76950554363429546356201171875">
        <ele>1691.4000244140625</ele>
        <time>2026-09-03T08:22:46.000Z</time>
        <extensions>
          <ns3:TrackPointExtension>
            <ns3:hr>127</ns3:hr>
            <ns3:cad>82</ns3:cad>
          </ns3:TrackPointExtension>
        </extensions>
      </trkpt>
      <trkpt lat="44.671465270221233367919921875" lon="6.7695052921772003173828125">
        <ele>1691</ele>
        <time>2026-09-03T08:22:47.000Z</time>
        <extensions>
          <ns3:TrackPointExtension>
            <ns3:hr>128</ns3:hr>
            <ns3:cad>82</ns3:cad>
          </ns3:TrackPointExtension>
        </extensions>
      </trkpt>
      <trkpt lat="44.67143316753208637237548828125" lon="6.76950462162494659423828125">
        <ele>1690.5999755859375</ele>
        <time>2026-09-03T08:22:48.000Z</time>
        <extensions>
          <ns3:TrackPointExtension>
            <ns3:hr>128</ns3:hr>
            <ns3:cad>82</ns3:cad>
          </ns3:TrackPointExtension>
        </extensions>
      </trkpt>
      <trkpt lat="44.6714057587087154388427734375" lon="6.76949867047369480133056640625">
        <ele>1690.199951171875</ele>
        <time>2026-09-03T08:22:49.000Z</time>
        <extensions>
          <ns3:TrackPointExtension>
            <ns3:hr>129</ns3:hr>
            <ns3:cad>84</ns3:cad>
          </ns3:TrackPointExtension>
        </extensions>
      </trkpt>
      <trkpt lat="44.671382792294025421142578125" lon="6.7694974131882190704345703125">
        <ele>1689.800048828125</ele>
        <time>2026-09-03T08:22:50.000Z</time>
        <extensions>
          <ns3:TrackPointExtension>
            <ns3:hr>129</ns3:hr>
            <ns3:cad>84</ns3:cad>
          </ns3:TrackPointExtension>
        </extensions>
      </trkpt>
      <trkpt lat="44.67135203070938587188720703125" lon="6.76948961801826953887939453125">
        <ele>1689.4000244140625</ele>
        <time>2026-09-03T08:22:51.000Z</time>
        <extensions>
          <ns3:TrackPointExtension>
            <ns3:hr>130</ns3:hr>
            <ns3:cad>84</ns3:cad>
          </ns3:TrackPointExtension>
        </extensions>
      </trkpt>
      <trkpt lat="44.67133224941790103912353515625" lon="6.769479475915431976318359375">
        <ele>1688.800048828125</ele>
        <time>2026-09-03T08:22:52.000Z</time>
        <extensions>
          <ns3:TrackPointExtension>
            <ns3:hr>131</ns3:hr>
            <ns3:cad>83</ns3:cad>
          </ns3:TrackPointExtension>
        </extensions>
      </trkpt>
      <trkpt lat="44.671303667128086090087890625" lon="6.76947318948805332183837890625">
        <ele>1688.4000244140625</ele>
        <time>2026-09-03T08:22:53.000Z</time>
        <extensions>
          <ns3:TrackPointExtension>
            <ns3:hr>132</ns3:hr>
            <ns3:cad>83</ns3:cad>
          </ns3:TrackPointExtension>
        </extensions>
      </trkpt>
      <trkpt lat="44.67127508483827114105224609375" lon="6.76946044899523258209228515625">
        <ele>1688</ele>
        <time>2026-09-03T08:22:54.000Z</time>
        <extensions>
          <ns3:TrackPointExtension>
            <ns3:hr>133</ns3:hr>
            <ns3:cad>83</ns3:cad>
          </ns3:TrackPointExtension>
        </extensions>
      </trkpt>
      <trkpt lat="44.67124893330037593841552734375" lon="6.76945642568171024322509765625">
        <ele>1687.5999755859375</ele>
        <time>2026-09-03T08:22:55.000Z</time>
        <extensions>
          <ns3:TrackPointExtension>
            <ns3:hr>135</ns3:hr>
            <ns3:cad>83</ns3:cad>
          </ns3:TrackPointExtension>
        </extensions>
      </trkpt>
      <trkpt lat="44.67121389694511890411376953125" lon="6.7694504745304584503173828125">
        <ele>1687.199951171875</ele>
        <time>2026-09-03T08:22:56.000Z</time>
        <extensions>
          <ns3:TrackPointExtension>
            <ns3:hr>136</ns3:hr>
            <ns3:cad>83</ns3:cad>
          </ns3:TrackPointExtension>
        </extensions>
      </trkpt>
      <trkpt lat="44.67118858359754085540771484375" lon="6.76944603212177753448486328125">
        <ele>1686.800048828125</ele>
        <time>2026-09-03T08:22:57.000Z</time>
        <extensions>
          <ns3:TrackPointExtension>
            <ns3:hr>137</ns3:hr>
            <ns3:cad>83</ns3:cad>
          </ns3:TrackPointExtension>
        </extensions>
      </trkpt>
      <trkpt lat="44.671162851154804229736328125" lon="6.769444942474365234375">
        <ele>1686.4000244140625</ele>
        <time>2026-09-03T08:22:58.000Z</time>
        <extensions>
          <ns3:TrackPointExtension>
            <ns3:hr>138</ns3:hr>
            <ns3:cad>83</ns3:cad>
          </ns3:TrackPointExtension>
        </extensions>
      </trkpt>
      <trkpt lat="44.67112965881824493408203125" lon="6.76943899132311344146728515625">
        <ele>1686.199951171875</ele>
        <time>2026-09-03T08:22:59.000Z</time>
        <extensions>
          <ns3:TrackPointExtension>
            <ns3:hr>139</ns3:hr>
            <ns3:cad>83</ns3:cad>
          </ns3:TrackPointExtension>
        </extensions>
      </trkpt>
      <trkpt lat="44.671107195317745208740234375" lon="6.76945072598755359649658203125">
        <ele>1685.5999755859375</ele>
        <time>2026-09-03T08:23:00.000Z</time>
        <extensions>
          <ns3:TrackPointExtension>
            <ns3:hr>139</ns3:hr>
            <ns3:cad>83</ns3:cad>
          </ns3:TrackPointExtension>
        </extensions>
      </trkpt>
      <trkpt lat="44.67107375152409076690673828125" lon="6.769460700452327728271484375">
        <ele>1685.199951171875</ele>
        <time>2026-09-03T08:23:01.000Z</time>
        <extensions>
          <ns3:TrackPointExtension>
            <ns3:hr>140</ns3:hr>
            <ns3:cad>83</ns3:cad>
          </ns3:TrackPointExtension>
        </extensions>
      </trkpt>
      <trkpt lat="44.67104827053844928741455078125" lon="6.7694675736129283905029296875">
        <ele>1684.800048828125</ele>
        <time>2026-09-03T08:23:02.000Z</time>
        <extensions>
          <ns3:TrackPointExtension>
            <ns3:hr>140</ns3:hr>
            <ns3:cad>83</ns3:cad>
          </ns3:TrackPointExtension>
        </extensions>
      </trkpt>
      <trkpt lat="44.671026058495044708251953125" lon="6.76947419531643390655517578125">
        <ele>1684.199951171875</ele>
        <time>2026-09-03T08:23:03.000Z</time>
        <extensions>
          <ns3:TrackPointExtension>
            <ns3:hr>140</ns3:hr>
            <ns3:cad>83</ns3:cad>
          </ns3:TrackPointExtension>
        </extensions>
      </trkpt>
      <trkpt lat="44.67099613510072231292724609375" lon="6.7694799788296222686767578125">
        <ele>1683.800048828125</ele>
        <time>2026-09-03T08:23:04.000Z</time>
        <extensions>
          <ns3:TrackPointExtension>
            <ns3:hr>141</ns3:hr>
            <ns3:cad>83</ns3:cad>
          </ns3:TrackPointExtension>
        </extensions>
      </trkpt>
      <trkpt lat="44.67097551561892032623291015625" lon="6.7694947309792041778564453125">
        <ele>1683.5999755859375</ele>
        <time>2026-09-03T08:23:05.000Z</time>
        <extensions>
          <ns3:TrackPointExtension>
            <ns3:hr>141</ns3:hr>
            <ns3:cad>83</ns3:cad>
          </ns3:TrackPointExtension>
        </extensions>
      </trkpt>
      <trkpt lat="44.67094265855848789215087890625" lon="6.76950864493846893310546875">
        <ele>1683.199951171875</ele>
        <time>2026-09-03T08:23:06.000Z</time>
        <extensions>
          <ns3:TrackPointExtension>
            <ns3:hr>141</ns3:hr>
            <ns3:cad>83</ns3:cad>
          </ns3:TrackPointExtension>
        </extensions>
      </trkpt>
      <trkpt lat="44.6709149144589900970458984375" lon="6.76951266825199127197265625">
        <ele>1682.800048828125</ele>
        <time>2026-09-03T08:23:07.000Z</time>
        <extensions>
          <ns3:TrackPointExtension>
            <ns3:hr>142</ns3:hr>
            <ns3:cad>83</ns3:cad>
          </ns3:TrackPointExtension>
        </extensions>
      </trkpt>
      <trkpt lat="44.67089538462460041046142578125" lon="6.7695228941738605499267578125">
        <ele>1682.4000244140625</ele>
        <time>2026-09-03T08:23:08.000Z</time>
        <extensions>
          <ns3:TrackPointExtension>
            <ns3:hr>142</ns3:hr>
            <ns3:cad>83</ns3:cad>
          </ns3:TrackPointExtension>
        </extensions>
      </trkpt>
      <trkpt lat="44.67086680233478546142578125" lon="6.76952867768704891204833984375">
        <ele>1682</ele>
        <time>2026-09-03T08:23:09.000Z</time>
        <extensions>
          <ns3:TrackPointExtension>
            <ns3:hr>142</ns3:hr>
            <ns3:cad>83</ns3:cad>
          </ns3:TrackPointExtension>
        </extensions>
      </trkpt>
      <trkpt lat="44.670840986073017120361328125" lon="6.76953680813312530517578125">
        <ele>1681.5999755859375</ele>
        <time>2026-09-03T08:23:10.000Z</time>
        <extensions>
          <ns3:TrackPointExtension>
            <ns3:hr>143</ns3:hr>
            <ns3:cad>83</ns3:cad>
          </ns3:TrackPointExtension>
        </extensions>
      </trkpt>
      <trkpt lat="44.67080913484096527099609375" lon="6.76954887807369232177734375">
        <ele>1681.199951171875</ele>
        <time>2026-09-03T08:23:11.000Z</time>
        <extensions>
          <ns3:TrackPointExtension>
            <ns3:hr>143</ns3:hr>
            <ns3:cad>84</ns3:cad>
          </ns3:TrackPointExtension>
        </extensions>
      </trkpt>
      <trkpt lat="44.6707811392843723297119140625" lon="6.76954929716885089874267578125">
        <ele>1680.800048828125</ele>
        <time>2026-09-03T08:23:12.000Z</time>
        <extensions>
          <ns3:TrackPointExtension>
            <ns3:hr>143</ns3:hr>
            <ns3:cad>84</ns3:cad>
          </ns3:TrackPointExtension>
        </extensions>
      </trkpt>
      <trkpt lat="44.67075590975582599639892578125" lon="6.769559271633625030517578125">
        <ele>1680.4000244140625</ele>
        <time>2026-09-03T08:23:13.000Z</time>
        <extensions>
          <ns3:TrackPointExtension>
            <ns3:hr>143</ns3:hr>
            <ns3:cad>85</ns3:cad>
          </ns3:TrackPointExtension>
        </extensions>
      </trkpt>
      <trkpt lat="44.6707238070666790008544921875" lon="6.76956488750874996185302734375">
        <ele>1680.199951171875</ele>
        <time>2026-09-03T08:23:14.000Z</time>
        <extensions>
          <ns3:TrackPointExtension>
            <ns3:hr>143</ns3:hr>
            <ns3:cad>85</ns3:cad>
          </ns3:TrackPointExtension>
        </extensions>
      </trkpt>
      <trkpt lat="44.67070410959422588348388671875" lon="6.76957678981125354766845703125">
        <ele>1679.800048828125</ele>
        <time>2026-09-03T08:23:15.000Z</time>
        <extensions>
          <ns3:TrackPointExtension>
            <ns3:hr>144</ns3:hr>
            <ns3:cad>84</ns3:cad>
          </ns3:TrackPointExtension>
        </extensions>
      </trkpt>
      <trkpt lat="44.67067393474280834197998046875" lon="6.7695876024663448333740234375">
        <ele>1679.4000244140625</ele>
        <time>2026-09-03T08:23:16.000Z</time>
        <extensions>
          <ns3:TrackPointExtension>
            <ns3:hr>144</ns3:hr>
            <ns3:cad>84</ns3:cad>
          </ns3:TrackPointExtension>
        </extensions>
      </trkpt>
      <trkpt lat="44.67064593918621540069580078125" lon="6.7695906199514865875244140625">
        <ele>1679.199951171875</ele>
        <time>2026-09-03T08:23:17.000Z</time>
        <extensions>
          <ns3:TrackPointExtension>
            <ns3:hr>145</ns3:hr>
            <ns3:cad>83</ns3:cad>
          </ns3:TrackPointExtension>
        </extensions>
      </trkpt>
      <trkpt lat="44.67062246985733509063720703125" lon="6.7696036957204341888427734375">
        <ele>1678.5999755859375</ele>
        <time>2026-09-03T08:23:18.000Z</time>
        <extensions>
          <ns3:TrackPointExtension>
            <ns3:hr>145</ns3:hr>
            <ns3:cad>83</ns3:cad>
          </ns3:TrackPointExtension>
        </extensions>
      </trkpt>
      <trkpt lat="44.67059145681560039520263671875" lon="6.7696114070713520050048828125">
        <ele>1678.199951171875</ele>
        <time>2026-09-03T08:23:19.000Z</time>
        <extensions>
          <ns3:TrackPointExtension>
            <ns3:hr>145</ns3:hr>
            <ns3:cad>82</ns3:cad>
          </ns3:TrackPointExtension>
        </extensions>
      </trkpt>
      <trkpt lat="44.67056899331510066986083984375" lon="6.76962054334580898284912109375">
        <ele>1677.800048828125</ele>
        <time>2026-09-03T08:23:20.000Z</time>
        <extensions>
          <ns3:TrackPointExtension>
            <ns3:hr>145</ns3:hr>
            <ns3:cad>82</ns3:cad>
          </ns3:TrackPointExtension>
        </extensions>
      </trkpt>
      <trkpt lat="44.67054736800491809844970703125" lon="6.76963110454380512237548828125">
        <ele>1677.5999755859375</ele>
        <time>2026-09-03T08:23:21.000Z</time>
        <extensions>
          <ns3:TrackPointExtension>
            <ns3:hr>145</ns3:hr>
            <ns3:cad>82</ns3:cad>
          </ns3:TrackPointExtension>
        </extensions>
      </trkpt>
      <trkpt lat="44.6705206297338008880615234375" lon="6.76963764242827892303466796875">
        <ele>1677.4000244140625</ele>
        <time>2026-09-03T08:23:22.000Z</time>
        <extensions>
          <ns3:TrackPointExtension>
            <ns3:hr>146</ns3:hr>
            <ns3:cad>82</ns3:cad>
          </ns3:TrackPointExtension>
        </extensions>
      </trkpt>
      <trkpt lat="44.6705011837184429168701171875" lon="6.76964518614113330841064453125">
        <ele>1677</ele>
        <time>2026-09-03T08:23:23.000Z</time>
        <extensions>
          <ns3:TrackPointExtension>
            <ns3:hr>146</ns3:hr>
            <ns3:cad>82</ns3:cad>
          </ns3:TrackPointExtension>
        </extensions>
      </trkpt>
      <trkpt lat="44.67047654092311859130859375" lon="6.76964853890240192413330078125">
        <ele>1676.5999755859375</ele>
        <time>2026-09-03T08:23:24.000Z</time>
        <extensions>
          <ns3:TrackPointExtension>
            <ns3:hr>146</ns3:hr>
            <ns3:cad>82</ns3:cad>
          </ns3:TrackPointExtension>
        </extensions>
      </trkpt>
      <trkpt lat="44.67045466415584087371826171875" lon="6.7696489579975605010986328125">
        <ele>1676.199951171875</ele>
        <time>2026-09-03T08:23:25.000Z</time>
        <extensions>
          <ns3:TrackPointExtension>
            <ns3:hr>146</ns3:hr>
            <ns3:cad>82</ns3:cad>
          </ns3:TrackPointExtension>
        </extensions>
      </trkpt>
      <trkpt lat="44.67043488286435604095458984375" lon="6.76966044120490550994873046875">
        <ele>1675.5999755859375</ele>
        <time>2026-09-03T08:23:26.000Z</time>
        <extensions>
          <ns3:TrackPointExtension>
            <ns3:hr>146</ns3:hr>
            <ns3:cad>82</ns3:cad>
          </ns3:TrackPointExtension>
        </extensions>
      </trkpt>
      <trkpt lat="44.6704039536416530609130859375" lon="6.76966488361358642578125">
        <ele>1675</ele>
        <time>2026-09-03T08:23:27.000Z</time>
        <extensions>
          <ns3:TrackPointExtension>
            <ns3:hr>146</ns3:hr>
            <ns3:cad>82</ns3:cad>
          </ns3:TrackPointExtension>
        </extensions>
      </trkpt>
      <trkpt lat="44.67037864029407501220703125" lon="6.7696673981845378875732421875">
        <ele>1674.4000244140625</ele>
        <time>2026-09-03T08:23:28.000Z</time>
        <extensions>
          <ns3:TrackPointExtension>
            <ns3:hr>147</ns3:hr>
            <ns3:cad>82</ns3:cad>
          </ns3:TrackPointExtension>
        </extensions>
      </trkpt>
      <trkpt lat="44.6703506447374820709228515625" lon="6.769669912755489349365234375">
        <ele>1674</ele>
        <time>2026-09-03T08:23:29.000Z</time>
        <extensions>
          <ns3:TrackPointExtension>
            <ns3:hr>147</ns3:hr>
            <ns3:cad>82</ns3:cad>
          </ns3:TrackPointExtension>
        </extensions>
      </trkpt>
      <trkpt lat="44.6703229844570159912109375" lon="6.769672594964504241943359375">
        <ele>1673.5999755859375</ele>
        <time>2026-09-03T08:23:30.000Z</time>
        <extensions>
          <ns3:TrackPointExtension>
            <ns3:hr>147</ns3:hr>
            <ns3:cad>82</ns3:cad>
          </ns3:TrackPointExtension>
        </extensions>
      </trkpt>
      <trkpt lat="44.67030345462262630462646484375" lon="6.76968592219054698944091796875">
        <ele>1673</ele>
        <time>2026-09-03T08:23:31.000Z</time>
        <extensions>
          <ns3:TrackPointExtension>
            <ns3:hr>147</ns3:hr>
            <ns3:cad>83</ns3:cad>
          </ns3:TrackPointExtension>
        </extensions>
      </trkpt>
      <trkpt lat="44.6702800691127777099609375" lon="6.76969497464597225189208984375">
        <ele>1672.800048828125</ele>
        <time>2026-09-03T08:23:32.000Z</time>
        <extensions>
          <ns3:TrackPointExtension>
            <ns3:hr>148</ns3:hr>
            <ns3:cad>84</ns3:cad>
          </ns3:TrackPointExtension>
        </extensions>
      </trkpt>
      <trkpt lat="44.67025819234549999237060546875" lon="6.76970385946333408355712890625">
        <ele>1672.4000244140625</ele>
        <time>2026-09-03T08:23:33.000Z</time>
        <extensions>
          <ns3:TrackPointExtension>
            <ns3:hr>148</ns3:hr>
            <ns3:cad>84</ns3:cad>
          </ns3:TrackPointExtension>
        </extensions>
      </trkpt>
      <trkpt lat="44.67024377547204494476318359375" lon="6.7697203718125820159912109375">
        <ele>1672.199951171875</ele>
        <time>2026-09-03T08:23:34.000Z</time>
        <extensions>
          <ns3:TrackPointExtension>
            <ns3:hr>148</ns3:hr>
            <ns3:cad>85</ns3:cad>
          </ns3:TrackPointExtension>
        </extensions>
      </trkpt>
      <trkpt lat="44.6702410094439983367919921875" lon="6.76972850225865840911865234375">
        <ele>1672.199951171875</ele>
        <time>2026-09-03T08:23:35.000Z</time>
        <extensions>
          <ns3:TrackPointExtension>
            <ns3:hr>148</ns3:hr>
            <ns3:cad>85</ns3:cad>
          </ns3:TrackPointExtension>
        </extensions>
      </trkpt>
      <trkpt lat="44.67024645768105983734130859375" lon="6.76973260939121246337890625">
        <ele>1672</ele>
        <time>2026-09-03T08:23:36.000Z</time>
        <extensions>
          <ns3:TrackPointExtension>
            <ns3:hr>148</ns3:hr>
            <ns3:cad>85</ns3:cad>
          </ns3:TrackPointExtension>
        </extensions>
      </trkpt>
      <trkpt lat="44.67025525867938995361328125" lon="6.7697354592382907867431640625">
        <ele>1672</ele>
        <time>2026-09-03T08:23:37.000Z</time>
        <extensions>
          <ns3:TrackPointExtension>
            <ns3:hr>148</ns3:hr>
            <ns3:cad>83</ns3:cad>
          </ns3:TrackPointExtension>
        </extensions>
      </trkpt>
      <trkpt lat="44.67026171274483203887939453125" lon="6.7697364650666713714599609375">
        <ele>1671.800048828125</ele>
        <time>2026-09-03T08:23:38.000Z</time>
        <extensions>
          <ns3:TrackPointExtension>
            <ns3:hr>148</ns3:hr>
            <ns3:cad>0</ns3:cad>
          </ns3:TrackPointExtension>
        </extensions>
      </trkpt>
      <trkpt lat="44.670270346105098724365234375" lon="6.76973302848637104034423828125">
        <ele>1671.800048828125</ele>
        <time>2026-09-03T08:23:39.000Z</time>
        <extensions>
          <ns3:TrackPointExtension>
            <ns3:hr>148</ns3:hr>
            <ns3:cad>0</ns3:cad>
          </ns3:TrackPointExtension>
        </extensions>
      </trkpt>
      <trkpt lat="44.67027730308473110198974609375" lon="6.76973235793411731719970703125">
        <ele>1671.800048828125</ele>
        <time>2026-09-03T08:23:40.000Z</time>
        <extensions>
          <ns3:TrackPointExtension>
            <ns3:hr>148</ns3:hr>
            <ns3:cad>0</ns3:cad>
          </ns3:TrackPointExtension>
        </extensions>
      </trkpt>
      <trkpt lat="44.67027629725635051727294921875" lon="6.7697280831634998321533203125">
        <ele>1671.800048828125</ele>
        <time>2026-09-03T08:23:41.000Z</time>
        <extensions>
          <ns3:TrackPointExtension>
            <ns3:hr>148</ns3:hr>
            <ns3:cad>0</ns3:cad>
          </ns3:TrackPointExtension>
        </extensions>
      </trkpt>
      <trkpt lat="44.67027629725635051727294921875" lon="6.7697280831634998321533203125">
        <ele>1671.800048828125</ele>
        <time>2026-09-03T08:23:42.000Z</time>
        <extensions>
          <ns3:TrackPointExtension>
            <ns3:hr>147</ns3:hr>
            <ns3:cad>0</ns3:cad>
          </ns3:TrackPointExtension>
        </extensions>
      </trkpt>
      <trkpt lat="44.67027629725635051727294921875" lon="6.7697280831634998321533203125">
        <ele>1671.800048828125</ele>
        <time>2026-09-03T08:23:43.000Z</time>
        <extensions>
          <ns3:TrackPointExtension>
            <ns3:hr>146</ns3:hr>
            <ns3:cad>0</ns3:cad>
          </ns3:TrackPointExtension>
        </extensions>
      </trkpt>
      <trkpt lat="44.67027629725635051727294921875" lon="6.7697280831634998321533203125">
        <ele>1671.800048828125</ele>
        <time>2026-09-03T08:23:44.000Z</time>
        <extensions>
          <ns3:TrackPointExtension>
            <ns3:hr>146</ns3:hr>
            <ns3:cad>0</ns3:cad>
          </ns3:TrackPointExtension>
        </extensions>
      </trkpt>
      <trkpt lat="44.67027629725635051727294921875" lon="6.7697280831634998321533203125">
        <ele>1671.800048828125</ele>
        <time>2026-09-03T08:23:45.000Z</time>
        <extensions>
          <ns3:TrackPointExtension>
            <ns3:hr>145</ns3:hr>
            <ns3:cad>0</ns3:cad>
          </ns3:TrackPointExtension>
        </extensions>
      </trkpt>
      <trkpt lat="44.67027629725635051727294921875" lon="6.7697280831634998321533203125">
        <ele>1671.800048828125</ele>
        <time>2026-09-03T08:23:46.000Z</time>
        <extensions>
          <ns3:TrackPointExtension>
            <ns3:hr>144</ns3:hr>
            <ns3:cad>0</ns3:cad>
          </ns3:TrackPointExtension>
        </extensions>
      </trkpt>
      <trkpt lat="44.67027629725635051727294921875" lon="6.7697280831634998321533203125">
        <ele>1671.800048828125</ele>
        <time>2026-09-03T08:23:47.000Z</time>
        <extensions>
          <ns3:TrackPointExtension>
            <ns3:hr>144</ns3:hr>
            <ns3:cad>0</ns3:cad>
          </ns3:TrackPointExtension>
        </extensions>
      </trkpt>
      <trkpt lat="44.67027629725635051727294921875" lon="6.7697280831634998321533203125">
        <ele>1671.800048828125</ele>
        <time>2026-09-03T08:23:48.000Z</time>
        <extensions>
          <ns3:TrackPointExtension>
            <ns3:hr>143</ns3:hr>
            <ns3:cad>0</ns3:cad>
          </ns3:TrackPointExtension>
        </extensions>
      </trkpt>
      <trkpt lat="44.670275710523128509521484375" lon="6.769726239144802093505859375">
        <ele>1671.800048828125</ele>
        <time>2026-09-03T08:23:49.000Z</time>
        <extensions>
          <ns3:TrackPointExtension>
            <ns3:hr>143</ns3:hr>
            <ns3:cad>0</ns3:cad>
          </ns3:TrackPointExtension>
        </extensions>
      </trkpt>
      <trkpt lat="44.67027001082897186279296875" lon="6.76973721943795680999755859375">
        <ele>1671.800048828125</ele>
        <time>2026-09-03T08:23:50.000Z</time>
        <extensions>
          <ns3:TrackPointExtension>
            <ns3:hr>142</ns3:hr>
            <ns3:cad>0</ns3:cad>
          </ns3:TrackPointExtension>
        </extensions>
      </trkpt>
      <trkpt lat="44.670262634754180908203125" lon="6.76975532434880733489990234375">
        <ele>1671.800048828125</ele>
        <time>2026-09-03T08:23:51.000Z</time>
        <extensions>
          <ns3:TrackPointExtension>
            <ns3:hr>142</ns3:hr>
            <ns3:cad>0</ns3:cad>
          </ns3:TrackPointExtension>
        </extensions>
      </trkpt>
      <trkpt lat="44.67025735415518283843994140625" lon="6.7697736807167530059814453125">
        <ele>1671.800048828125</ele>
        <time>2026-09-03T08:23:52.000Z</time>
        <extensions>
          <ns3:TrackPointExtension>
            <ns3:hr>141</ns3:hr>
            <ns3:cad>0</ns3:cad>
          </ns3:TrackPointExtension>
        </extensions>
      </trkpt>
      <trkpt lat="44.670254252851009368896484375" lon="6.7697924561798572540283203125">
        <ele>1671.800048828125</ele>
        <time>2026-09-03T08:23:53.000Z</time>
        <extensions>
          <ns3:TrackPointExtension>
            <ns3:hr>141</ns3:hr>
            <ns3:cad>0</ns3:cad>
          </ns3:TrackPointExtension>
        </extensions>
      </trkpt>
      <trkpt lat="44.67025333084166049957275390625" lon="6.7698085494339466094970703125">
        <ele>1671.800048828125</ele>
        <time>2026-09-03T08:23:54.000Z</time>
        <extensions>
          <ns3:TrackPointExtension>
            <ns3:hr>140</ns3:hr>
            <ns3:cad>0</ns3:cad>
          </ns3:TrackPointExtension>
        </extensions>
      </trkpt>
      <trkpt lat="44.67025198973715305328369140625" lon="6.76982774399220943450927734375">
        <ele>1671.5999755859375</ele>
        <time>2026-09-03T08:23:55.000Z</time>
        <extensions>
          <ns3:TrackPointExtension>
            <ns3:hr>140</ns3:hr>
            <ns3:cad>0</ns3:cad>
          </ns3:TrackPointExtension>
        </extensions>
      </trkpt>
      <trkpt lat="44.6702477149665355682373046875" lon="6.76983880810439586639404296875">
        <ele>1671.5999755859375</ele>
        <time>2026-09-03T08:23:56.000Z</time>
        <extensions>
          <ns3:TrackPointExtension>
            <ns3:hr>140</ns3:hr>
            <ns3:cad>57</ns3:cad>
          </ns3:TrackPointExtension>
        </extensions>
      </trkpt>
      <trkpt lat="44.6702452003955841064453125" lon="6.7698534764349460601806640625">
        <ele>1671.4000244140625</ele>
        <time>2026-09-03T08:23:57.000Z</time>
        <extensions>
          <ns3:TrackPointExtension>
            <ns3:hr>139</ns3:hr>
            <ns3:cad>57</ns3:cad>
          </ns3:TrackPointExtension>
        </extensions>
      </trkpt>
      <trkpt lat="44.670246541500091552734375" lon="6.7698685638606548309326171875">
        <ele>1671.4000244140625</ele>
        <time>2026-09-03T08:23:58.000Z</time>
        <extensions>
          <ns3:TrackPointExtension>
            <ns3:hr>139</ns3:hr>
            <ns3:cad>57</ns3:cad>
          </ns3:TrackPointExtension>
        </extensions>
      </trkpt>
      <trkpt lat="44.67024712823331356048583984375" lon="6.76988423801958560943603515625">
        <ele>1671.199951171875</ele>
        <time>2026-09-03T08:23:59.000Z</time>
        <extensions>
          <ns3:TrackPointExtension>
            <ns3:hr>137</ns3:hr>
            <ns3:cad>59</ns3:cad>
          </ns3:TrackPointExtension>
        </extensions>
      </trkpt>
      <trkpt lat="44.67024913989007472991943359375" lon="6.7698997445404529571533203125">
        <ele>1671</ele>
        <time>2026-09-03T08:24:00.000Z</time>
        <extensions>
          <ns3:TrackPointExtension>
            <ns3:hr>137</ns3:hr>
            <ns3:cad>61</ns3:cad>
          </ns3:TrackPointExtension>
        </extensions>
      </trkpt>
      <trkpt lat="44.67025500722229480743408203125" lon="6.769914664328098297119140625">
        <ele>1670.800048828125</ele>
        <time>2026-09-03T08:24:01.000Z</time>
        <extensions>
          <ns3:TrackPointExtension>
            <ns3:hr>135</ns3:hr>
            <ns3:cad>62</ns3:cad>
          </ns3:TrackPointExtension>
        </extensions>
      </trkpt>
      <trkpt lat="44.670258946716785430908203125" lon="6.7699289135634899139404296875">
        <ele>1670.5999755859375</ele>
        <time>2026-09-03T08:24:02.000Z</time>
        <extensions>
          <ns3:TrackPointExtension>
            <ns3:hr>134</ns3:hr>
            <ns3:cad>62</ns3:cad>
          </ns3:TrackPointExtension>
        </extensions>
      </trkpt>
      <trkpt lat="44.6702638082206249237060546875" lon="6.76994442008435726165771484375">
        <ele>1670.5999755859375</ele>
        <time>2026-09-03T08:24:03.000Z</time>
        <extensions>
          <ns3:TrackPointExtension>
            <ns3:hr>134</ns3:hr>
            <ns3:cad>62</ns3:cad>
          </ns3:TrackPointExtension>
        </extensions>
      </trkpt>
      <trkpt lat="44.6702698431909084320068359375" lon="6.7699577473104000091552734375">
        <ele>1670.5999755859375</ele>
        <time>2026-09-03T08:24:04.000Z</time>
        <extensions>
          <ns3:TrackPointExtension>
            <ns3:hr>133</ns3:hr>
            <ns3:cad>61</ns3:cad>
          </ns3:TrackPointExtension>
        </extensions>
      </trkpt>
      <trkpt lat="44.6702755428850650787353515625" lon="6.76997509784996509552001953125">
        <ele>1670.5999755859375</ele>
        <time>2026-09-03T08:24:05.000Z</time>
        <extensions>
          <ns3:TrackPointExtension>
            <ns3:hr>132</ns3:hr>
            <ns3:cad>61</ns3:cad>
          </ns3:TrackPointExtension>
        </extensions>
      </trkpt>
      <trkpt lat="44.6702800691127777099609375" lon="6.769981719553470611572265625">
        <ele>1670.4000244140625</ele>
        <time>2026-09-03T08:24:06.000Z</time>
        <extensions>
          <ns3:TrackPointExtension>
            <ns3:hr>131</ns3:hr>
            <ns3:cad>59</ns3:cad>
          </ns3:TrackPointExtension>
        </extensions>
      </trkpt>
      <trkpt lat="44.670283086597919464111328125" lon="6.76997174508869647979736328125">
        <ele>1670.4000244140625</ele>
        <time>2026-09-03T08:24:07.000Z</time>
        <extensions>
          <ns3:TrackPointExtension>
            <ns3:hr>131</ns3:hr>
            <ns3:cad>59</ns3:cad>
          </ns3:TrackPointExtension>
        </extensions>
      </trkpt>
      <trkpt lat="44.67028585262596607208251953125" lon="6.769960261881351470947265625">
        <ele>1670.199951171875</ele>
        <time>2026-09-03T08:24:08.000Z</time>
        <extensions>
          <ns3:TrackPointExtension>
            <ns3:hr>130</ns3:hr>
            <ns3:cad>57</ns3:cad>
          </ns3:TrackPointExtension>
        </extensions>
      </trkpt>
      <trkpt lat="44.6702892892062664031982421875" lon="6.76994760520756244659423828125">
        <ele>1670.199951171875</ele>
        <time>2026-09-03T08:24:09.000Z</time>
        <extensions>
          <ns3:TrackPointExtension>
            <ns3:hr>129</ns3:hr>
            <ns3:cad>56</ns3:cad>
          </ns3:TrackPointExtension>
        </extensions>
      </trkpt>
      <trkpt lat="44.67029322870075702667236328125" lon="6.76994257606565952301025390625">
        <ele>1670.199951171875</ele>
        <time>2026-09-03T08:24:10.000Z</time>
        <extensions>
          <ns3:TrackPointExtension>
            <ns3:hr>129</ns3:hr>
            <ns3:cad>56</ns3:cad>
          </ns3:TrackPointExtension>
        </extensions>
      </trkpt>
      <trkpt lat="44.67029909603297710418701171875" lon="6.7699371278285980224609375">
        <ele>1670.199951171875</ele>
        <time>2026-09-03T08:24:11.000Z</time>
        <extensions>
          <ns3:TrackPointExtension>
            <ns3:hr>128</ns3:hr>
            <ns3:cad>56</ns3:cad>
          </ns3:TrackPointExtension>
        </extensions>
      </trkpt>
      <trkpt lat="44.67030311934649944305419921875" lon="6.76993452943861484527587890625">
        <ele>1670.199951171875</ele>
        <time>2026-09-03T08:24:12.000Z</time>
        <extensions>
          <ns3:TrackPointExtension>
            <ns3:hr>128</ns3:hr>
            <ns3:cad>0</ns3:cad>
          </ns3:TrackPointExtension>
        </extensions>
      </trkpt>
      <trkpt lat="44.67030345462262630462646484375" lon="6.769934780895709991455078125">
        <ele>1670</ele>
        <time>2026-09-03T08:24:13.000Z</time>
        <extensions>
          <ns3:TrackPointExtension>
            <ns3:hr>127</ns3:hr>
            <ns3:cad>0</ns3:cad>
          </ns3:TrackPointExtension>
        </extensions>
      </trkpt>
      <trkpt lat="44.67030362226068973541259765625" lon="6.76993519999086856842041015625">
        <ele>1670</ele>
        <time>2026-09-03T08:24:14.000Z</time>
        <extensions>
          <ns3:TrackPointExtension>
            <ns3:hr>127</ns3:hr>
            <ns3:cad>0</ns3:cad>
          </ns3:TrackPointExtension>
        </extensions>
      </trkpt>
      <trkpt lat="44.670302532613277435302734375" lon="6.76993511617183685302734375">
        <ele>1670</ele>
        <time>2026-09-03T08:24:15.000Z</time>
        <extensions>
          <ns3:TrackPointExtension>
            <ns3:hr>127</ns3:hr>
            <ns3:cad>0</ns3:cad>
          </ns3:TrackPointExtension>
        </extensions>
      </trkpt>
      <trkpt lat="44.670301862061023712158203125" lon="6.7699369601905345916748046875">
        <ele>1670</ele>
        <time>2026-09-03T08:24:16.000Z</time>
        <extensions>
          <ns3:TrackPointExtension>
            <ns3:hr>126</ns3:hr>
            <ns3:cad>0</ns3:cad>
          </ns3:TrackPointExtension>
        </extensions>
      </trkpt>
      <trkpt lat="44.67030429281294345855712890625" lon="6.76993134431540966033935546875">
        <ele>1670</ele>
        <time>2026-09-03T08:24:17.000Z</time>
        <extensions>
          <ns3:TrackPointExtension>
            <ns3:hr>126</ns3:hr>
            <ns3:cad>0</ns3:cad>
          </ns3:TrackPointExtension>
        </extensions>
      </trkpt>
      <trkpt lat="44.670311249792575836181640625" lon="6.76992438733577728271484375">
        <ele>1669.800048828125</ele>
        <time>2026-09-03T08:24:18.000Z</time>
        <extensions>
          <ns3:TrackPointExtension>
            <ns3:hr>125</ns3:hr>
            <ns3:cad>0</ns3:cad>
          </ns3:TrackPointExtension>
        </extensions>
      </trkpt>
      <trkpt lat="44.67031896114349365234375" lon="6.76992413587868213653564453125">
        <ele>1670</ele>
        <time>2026-09-03T08:24:19.000Z</time>
        <extensions>
          <ns3:TrackPointExtension>
            <ns3:hr>125</ns3:hr>
            <ns3:cad>0</ns3:cad>
          </ns3:TrackPointExtension>
        </extensions>
      </trkpt>
      <trkpt lat="44.67032524757087230682373046875" lon="6.76992078311741352081298828125">
        <ele>1670</ele>
        <time>2026-09-03T08:24:20.000Z</time>
        <extensions>
          <ns3:TrackPointExtension>
            <ns3:hr>124</ns3:hr>
            <ns3:cad>0</ns3:cad>
          </ns3:TrackPointExtension>
        </extensions>
      </trkpt>
      <trkpt lat="44.6703325398266315460205078125" lon="6.769918017089366912841796875">
        <ele>1670</ele>
        <time>2026-09-03T08:24:21.000Z</time>
        <extensions>
          <ns3:TrackPointExtension>
            <ns3:hr>123</ns3:hr>
            <ns3:cad>0</ns3:cad>
          </ns3:TrackPointExtension>
        </extensions>
      </trkpt>
      <trkpt lat="44.6703449450433254241943359375" lon="6.76991592161357402801513671875">
        <ele>1670</ele>
        <time>2026-09-03T08:24:22.000Z</time>
        <extensions>
          <ns3:TrackPointExtension>
            <ns3:hr>123</ns3:hr>
            <ns3:cad>0</ns3:cad>
          </ns3:TrackPointExtension>
        </extensions>
      </trkpt>
      <trkpt lat="44.67035609297454357147216796875" lon="6.7699155025184154510498046875">
        <ele>1670</ele>
        <time>2026-09-03T08:24:23.000Z</time>
        <extensions>
          <ns3:TrackPointExtension>
            <ns3:hr>122</ns3:hr>
            <ns3:cad>0</ns3:cad>
          </ns3:TrackPointExtension>
        </extensions>
      </trkpt>
      <trkpt lat="44.6703647263348102569580078125" lon="6.7699141614139080047607421875">
        <ele>1670</ele>
        <time>2026-09-03T08:24:24.000Z</time>
        <extensions>
          <ns3:TrackPointExtension>
            <ns3:hr>122</ns3:hr>
            <ns3:cad>51</ns3:cad>
          </ns3:TrackPointExtension>
        </extensions>
      </trkpt>
      <trkpt lat="44.6703721024096012115478515625" lon="6.76991441287100315093994140625">
        <ele>1670</ele>
        <time>2026-09-03T08:24:25.000Z</time>
        <extensions>
          <ns3:TrackPointExtension>
            <ns3:hr>121</ns3:hr>
            <ns3:cad>52</ns3:cad>
          </ns3:TrackPointExtension>
        </extensions>
      </trkpt>
      <trkpt lat="44.6703757904469966888427734375" lon="6.76991357468068599700927734375">
        <ele>1670</ele>
        <time>2026-09-03T08:24:26.000Z</time>
        <extensions>
          <ns3:TrackPointExtension>
            <ns3:hr>121</ns3:hr>
            <ns3:cad>51</ns3:cad>
          </ns3:TrackPointExtension>
        </extensions>
      </trkpt>
      <trkpt lat="44.67037838883697986602783203125" lon="6.769913993775844573974609375">
        <ele>1670</ele>
        <time>2026-09-03T08:24:27.000Z</time>
        <extensions>
          <ns3:TrackPointExtension>
            <ns3:hr>120</ns3:hr>
            <ns3:cad>0</ns3:cad>
          </ns3:TrackPointExtension>
        </extensions>
      </trkpt>
      <trkpt lat="44.670379646122455596923828125" lon="6.76991508342325687408447265625">
        <ele>1670</ele>
        <time>2026-09-03T08:24:28.000Z</time>
        <extensions>
          <ns3:TrackPointExtension>
            <ns3:hr>120</ns3:hr>
            <ns3:cad>0</ns3:cad>
          </ns3:TrackPointExtension>
        </extensions>
      </trkpt>
      <trkpt lat="44.6703819930553436279296875" lon="6.76991608925163745880126953125">
        <ele>1670</ele>
        <time>2026-09-03T08:24:29.000Z</time>
        <extensions>
          <ns3:TrackPointExtension>
            <ns3:hr>119</ns3:hr>
            <ns3:cad>0</ns3:cad>
          </ns3:TrackPointExtension>
        </extensions>
      </trkpt>
      <trkpt lat="44.6703838370740413665771484375" lon="6.7699168436229228973388671875">
        <ele>1669.800048828125</ele>
        <time>2026-09-03T08:24:30.000Z</time>
        <extensions>
          <ns3:TrackPointExtension>
            <ns3:hr>119</ns3:hr>
            <ns3:cad>0</ns3:cad>
          </ns3:TrackPointExtension>
        </extensions>
      </trkpt>
      <trkpt lat="44.670386016368865966796875" lon="6.7699185200035572052001953125">
        <ele>1669.800048828125</ele>
        <time>2026-09-03T08:24:31.000Z</time>
        <extensions>
          <ns3:TrackPointExtension>
            <ns3:hr>119</ns3:hr>
            <ns3:cad>0</ns3:cad>
          </ns3:TrackPointExtension>
        </extensions>
      </trkpt>
      <trkpt lat="44.67038895003497600555419921875" lon="6.76991893909871578216552734375">
        <ele>1670</ele>
        <time>2026-09-03T08:24:32.000Z</time>
        <extensions>
          <ns3:TrackPointExtension>
            <ns3:hr>118</ns3:hr>
            <ns3:cad>0</ns3:cad>
          </ns3:TrackPointExtension>
        </extensions>
      </trkpt>
      <trkpt lat="44.67039599083364009857177734375" lon="6.76991810090839862823486328125">
        <ele>1670</ele>
        <time>2026-09-03T08:24:33.000Z</time>
        <extensions>
          <ns3:TrackPointExtension>
            <ns3:hr>117</ns3:hr>
            <ns3:cad>0</ns3:cad>
          </ns3:TrackPointExtension>
        </extensions>
      </trkpt>
      <trkpt lat="44.67040403746068477630615234375" lon="6.7699101381003856658935546875">
        <ele>1670</ele>
        <time>2026-09-03T08:24:34.000Z</time>
        <extensions>
          <ns3:TrackPointExtension>
            <ns3:hr>117</ns3:hr>
            <ns3:cad>0</ns3:cad>
          </ns3:TrackPointExtension>
        </extensions>
      </trkpt>
      <trkpt lat="44.670406468212604522705078125" lon="6.7699081264436244964599609375">
        <ele>1670</ele>
        <time>2026-09-03T08:24:35.000Z</time>
        <extensions>
          <ns3:TrackPointExtension>
            <ns3:hr>116</ns3:hr>
            <ns3:cad>0</ns3:cad>
          </ns3:TrackPointExtension>
        </extensions>
      </trkpt>
      <trkpt lat="44.67040688730776309967041015625" lon="6.76990561187267303466796875">
        <ele>1670</ele>
        <time>2026-09-03T08:24:36.000Z</time>
        <extensions>
          <ns3:TrackPointExtension>
            <ns3:hr>116</ns3:hr>
            <ns3:cad>0</ns3:cad>
          </ns3:TrackPointExtension>
        </extensions>
      </trkpt>
      <trkpt lat="44.67041082680225372314453125" lon="6.76990703679621219635009765625">
        <ele>1670</ele>
        <time>2026-09-03T08:24:37.000Z</time>
        <extensions>
          <ns3:TrackPointExtension>
            <ns3:hr>116</ns3:hr>
            <ns3:cad>0</ns3:cad>
          </ns3:TrackPointExtension>
        </extensions>
      </trkpt>
      <trkpt lat="44.67041292227804660797119140625" lon="6.76990888081490993499755859375">
        <ele>1670</ele>
        <time>2026-09-03T08:24:38.000Z</time>
        <extensions>
          <ns3:TrackPointExtension>
            <ns3:hr>116</ns3:hr>
            <ns3:cad>0</ns3:cad>
          </ns3:TrackPointExtension>
        </extensions>
      </trkpt>
      <trkpt lat="44.67041308991611003875732421875" lon="6.769909970462322235107421875">
        <ele>1670</ele>
        <time>2026-09-03T08:24:39.000Z</time>
        <extensions>
          <ns3:TrackPointExtension>
            <ns3:hr>116</ns3:hr>
            <ns3:cad>0</ns3:cad>
          </ns3:TrackPointExtension>
        </extensions>
      </trkpt>
      <trkpt lat="44.67041308991611003875732421875" lon="6.76991139538586139678955078125">
        <ele>1670</ele>
        <time>2026-09-03T08:24:40.000Z</time>
        <extensions>
          <ns3:TrackPointExtension>
            <ns3:hr>117</ns3:hr>
            <ns3:cad>0</ns3:cad>
          </ns3:TrackPointExtension>
        </extensions>
      </trkpt>
      <trkpt lat="44.6704133413732051849365234375" lon="6.76991122774779796600341796875">
        <ele>1670</ele>
        <time>2026-09-03T08:24:41.000Z</time>
        <extensions>
          <ns3:TrackPointExtension>
            <ns3:hr>117</ns3:hr>
            <ns3:cad>0</ns3:cad>
          </ns3:TrackPointExtension>
        </extensions>
      </trkpt>
      <trkpt lat="44.6704133413732051849365234375" lon="6.76991122774779796600341796875">
        <ele>1670</ele>
        <time>2026-09-03T08:24:42.000Z</time>
        <extensions>
          <ns3:TrackPointExtension>
            <ns3:hr>117</ns3:hr>
            <ns3:cad>0</ns3:cad>
          </ns3:TrackPointExtension>
        </extensions>
      </trkpt>
      <trkpt lat="44.6704133413732051849365234375" lon="6.76991122774779796600341796875">
        <ele>1670</ele>
        <time>2026-09-03T08:24:43.000Z</time>
        <extensions>
          <ns3:TrackPointExtension>
            <ns3:hr>117</ns3:hr>
            <ns3:cad>0</ns3:cad>
          </ns3:TrackPointExtension>
        </extensions>
      </trkpt>
      <trkpt lat="44.6704133413732051849365234375" lon="6.76991122774779796600341796875">
        <ele>1670</ele>
        <time>2026-09-03T08:24:44.000Z</time>
        <extensions>
          <ns3:TrackPointExtension>
            <ns3:hr>117</ns3:hr>
            <ns3:cad>0</ns3:cad>
          </ns3:TrackPointExtension>
        </extensions>
      </trkpt>
      <trkpt lat="44.6704133413732051849365234375" lon="6.76991122774779796600341796875">
        <ele>1670</ele>
        <time>2026-09-03T08:24:45.000Z</time>
        <extensions>
          <ns3:TrackPointExtension>
            <ns3:hr>117</ns3:hr>
            <ns3:cad>0</ns3:cad>
          </ns3:TrackPointExtension>
        </extensions>
      </trkpt>
      <trkpt lat="44.6704133413732051849365234375" lon="6.76991122774779796600341796875">
        <ele>1670</ele>
        <time>2026-09-03T08:24:46.000Z</time>
        <extensions>
          <ns3:TrackPointExtension>
            <ns3:hr>117</ns3:hr>
            <ns3:cad>0</ns3:cad>
          </ns3:TrackPointExtension>
        </extensions>
      </trkpt>
      <trkpt lat="44.6704133413732051849365234375" lon="6.76991122774779796600341796875">
        <ele>1670</ele>
        <time>2026-09-03T08:24:47.000Z</time>
        <extensions>
          <ns3:TrackPointExtension>
            <ns3:hr>117</ns3:hr>
            <ns3:cad>0</ns3:cad>
          </ns3:TrackPointExtension>
        </extensions>
      </trkpt>
      <trkpt lat="44.6704113297164440155029296875" lon="6.769912652671337127685546875">
        <ele>1670</ele>
        <time>2026-09-03T08:24:48.000Z</time>
        <extensions>
          <ns3:TrackPointExtension>
            <ns3:hr>117</ns3:hr>
            <ns3:cad>0</ns3:cad>
          </ns3:TrackPointExtension>
        </extensions>
      </trkpt>
      <trkpt lat="44.6704089827835559844970703125" lon="6.76991558633744716644287109375">
        <ele>1670</ele>
        <time>2026-09-03T08:24:49.000Z</time>
        <extensions>
          <ns3:TrackPointExtension>
            <ns3:hr>117</ns3:hr>
            <ns3:cad>0</ns3:cad>
          </ns3:TrackPointExtension>
        </extensions>
      </trkpt>
      <trkpt lat="44.67040118761360645294189453125" lon="6.7699242196977138519287109375">
        <ele>1670</ele>
        <time>2026-09-03T08:24:50.000Z</time>
        <extensions>
          <ns3:TrackPointExtension>
            <ns3:hr>116</ns3:hr>
            <ns3:cad>0</ns3:cad>
          </ns3:TrackPointExtension>
        </extensions>
      </trkpt>
      <trkpt lat="44.67038475908339023590087890625" lon="6.769926734268665313720703125">
        <ele>1669.800048828125</ele>
        <time>2026-09-03T08:24:51.000Z</time>
        <extensions>
          <ns3:TrackPointExtension>
            <ns3:hr>117</ns3:hr>
            <ns3:cad>0</ns3:cad>
          </ns3:TrackPointExtension>
        </extensions>
      </trkpt>
      <trkpt lat="44.67037327587604522705078125" lon="6.76992841064929962158203125">
        <ele>1669.800048828125</ele>
        <time>2026-09-03T08:24:52.000Z</time>
        <extensions>
          <ns3:TrackPointExtension>
            <ns3:hr>116</ns3:hr>
            <ns3:cad>0</ns3:cad>
          </ns3:TrackPointExtension>
        </extensions>
      </trkpt>
      <trkpt lat="44.670360870659351348876953125" lon="6.76993117667734622955322265625">
        <ele>1669.800048828125</ele>
        <time>2026-09-03T08:24:53.000Z</time>
        <extensions>
          <ns3:TrackPointExtension>
            <ns3:hr>115</ns3:hr>
            <ns3:cad>0</ns3:cad>
          </ns3:TrackPointExtension>
        </extensions>
      </trkpt>
      <trkpt lat="44.67035123147070407867431640625" lon="6.769933439791202545166015625">
        <ele>1669.5999755859375</ele>
        <time>2026-09-03T08:24:54.000Z</time>
        <extensions>
          <ns3:TrackPointExtension>
            <ns3:hr>115</ns3:hr>
            <ns3:cad>53</ns3:cad>
          </ns3:TrackPointExtension>
        </extensions>
      </trkpt>
      <trkpt lat="44.67034569941461086273193359375" lon="6.76993603818118572235107421875">
        <ele>1669.5999755859375</ele>
        <time>2026-09-03T08:24:55.000Z</time>
        <extensions>
          <ns3:TrackPointExtension>
            <ns3:hr>115</ns3:hr>
            <ns3:cad>54</ns3:cad>
          </ns3:TrackPointExtension>
        </extensions>
      </trkpt>
      <trkpt lat="44.67034419067203998565673828125" lon="6.7699372954666614532470703125">
        <ele>1669.4000244140625</ele>
        <time>2026-09-03T08:24:56.000Z</time>
        <extensions>
          <ns3:TrackPointExtension>
            <ns3:hr>114</ns3:hr>
            <ns3:cad>54</ns3:cad>
          </ns3:TrackPointExtension>
        </extensions>
      </trkpt>
      <trkpt lat="44.67034377157688140869140625" lon="6.7699376307427883148193359375">
        <ele>1669.4000244140625</ele>
        <time>2026-09-03T08:24:57.000Z</time>
        <extensions>
          <ns3:TrackPointExtension>
            <ns3:hr>114</ns3:hr>
            <ns3:cad>0</ns3:cad>
          </ns3:TrackPointExtension>
        </extensions>
      </trkpt>
      <trkpt lat="44.67034318484365940093994140625" lon="6.76993788219988346099853515625">
        <ele>1669.199951171875</ele>
        <time>2026-09-03T08:24:58.000Z</time>
        <extensions>
          <ns3:TrackPointExtension>
            <ns3:hr>114</ns3:hr>
            <ns3:cad>0</ns3:cad>
          </ns3:TrackPointExtension>
        </extensions>
      </trkpt>
      <trkpt lat="44.6703409217298030853271484375" lon="6.76993721164762973785400390625">
        <ele>1669.199951171875</ele>
        <time>2026-09-03T08:24:59.000Z</time>
        <extensions>
          <ns3:TrackPointExtension>
            <ns3:hr>114</ns3:hr>
            <ns3:cad>0</ns3:cad>
          </ns3:TrackPointExtension>
        </extensions>
      </trkpt>
      <trkpt lat="44.67033765278756618499755859375" lon="6.769937463104724884033203125">
        <ele>1669.199951171875</ele>
        <time>2026-09-03T08:25:00.000Z</time>
        <extensions>
          <ns3:TrackPointExtension>
            <ns3:hr>114</ns3:hr>
            <ns3:cad>0</ns3:cad>
          </ns3:TrackPointExtension>
        </extensions>
      </trkpt>
      <trkpt lat="44.67033463530242443084716796875" lon="6.7699379660189151763916015625">
        <ele>1669.199951171875</ele>
        <time>2026-09-03T08:25:01.000Z</time>
        <extensions>
          <ns3:TrackPointExtension>
            <ns3:hr>114</ns3:hr>
            <ns3:cad>0</ns3:cad>
          </ns3:TrackPointExtension>
        </extensions>
      </trkpt>
      <trkpt lat="44.67033379711210727691650390625" lon="6.7699383012950420379638671875">
        <ele>1669.199951171875</ele>
        <time>2026-09-03T08:25:02.000Z</time>
        <extensions>
          <ns3:TrackPointExtension>
            <ns3:hr>114</ns3:hr>
            <ns3:cad>0</ns3:cad>
          </ns3:TrackPointExtension>
        </extensions>
      </trkpt>
      <trkpt lat="44.6703365631401538848876953125" lon="6.769938804209232330322265625">
        <ele>1669</ele>
        <time>2026-09-03T08:25:03.000Z</time>
        <extensions>
          <ns3:TrackPointExtension>
            <ns3:hr>115</ns3:hr>
            <ns3:cad>0</ns3:cad>
          </ns3:TrackPointExtension>
        </extensions>
      </trkpt>
      <trkpt lat="44.6703419275581836700439453125" lon="6.76993905566632747650146484375">
        <ele>1669</ele>
        <time>2026-09-03T08:25:04.000Z</time>
        <extensions>
          <ns3:TrackPointExtension>
            <ns3:hr>115</ns3:hr>
            <ns3:cad>0</ns3:cad>
          </ns3:TrackPointExtension>
        </extensions>
      </trkpt>
      <trkpt lat="44.670340083539485931396484375" lon="6.769938133656978607177734375">
        <ele>1669</ele>
        <time>2026-09-03T08:25:05.000Z</time>
        <extensions>
          <ns3:TrackPointExtension>
            <ns3:hr>115</ns3:hr>
            <ns3:cad>0</ns3:cad>
          </ns3:TrackPointExtension>
        </extensions>
      </trkpt>
      <trkpt lat="44.6703362278640270233154296875" lon="6.7699371278285980224609375">
        <ele>1669</ele>
        <time>2026-09-03T08:25:06.000Z</time>
        <extensions>
          <ns3:TrackPointExtension>
            <ns3:hr>116</ns3:hr>
            <ns3:cad>0</ns3:cad>
          </ns3:TrackPointExtension>
        </extensions>
      </trkpt>
      <trkpt lat="44.6703338809311389923095703125" lon="6.76993243396282196044921875">
        <ele>1669.199951171875</ele>
        <time>2026-09-03T08:25:07.000Z</time>
        <extensions>
          <ns3:TrackPointExtension>
            <ns3:hr>116</ns3:hr>
            <ns3:cad>0</ns3:cad>
          </ns3:TrackPointExtension>
        </extensions>
      </trkpt>
      <trkpt lat="44.67033312655985355377197265625" lon="6.76993151195347309112548828125">
        <ele>1669.199951171875</ele>
        <time>2026-09-03T08:25:08.000Z</time>
        <extensions>
          <ns3:TrackPointExtension>
            <ns3:hr>116</ns3:hr>
            <ns3:cad>0</ns3:cad>
          </ns3:TrackPointExtension>
        </extensions>
      </trkpt>
      <trkpt lat="44.67033304274082183837890625" lon="6.769931428134441375732421875">
        <ele>1669.199951171875</ele>
        <time>2026-09-03T08:25:09.000Z</time>
        <extensions>
          <ns3:TrackPointExtension>
            <ns3:hr>116</ns3:hr>
            <ns3:cad>0</ns3:cad>
          </ns3:TrackPointExtension>
        </extensions>
      </trkpt>
      <trkpt lat="44.67033304274082183837890625" lon="6.769931428134441375732421875">
        <ele>1669.199951171875</ele>
        <time>2026-09-03T08:25:10.000Z</time>
        <extensions>
          <ns3:TrackPointExtension>
            <ns3:hr>116</ns3:hr>
            <ns3:cad>0</ns3:cad>
          </ns3:TrackPointExtension>
        </extensions>
      </trkpt>
      <trkpt lat="44.67033304274082183837890625" lon="6.769931428134441375732421875">
        <ele>1669.199951171875</ele>
        <time>2026-09-03T08:25:11.000Z</time>
        <extensions>
          <ns3:TrackPointExtension>
            <ns3:hr>116</ns3:hr>
            <ns3:cad>0</ns3:cad>
          </ns3:TrackPointExtension>
        </extensions>
      </trkpt>
      <trkpt lat="44.67033304274082183837890625" lon="6.769931428134441375732421875">
        <ele>1669.199951171875</ele>
        <time>2026-09-03T08:25:12.000Z</time>
        <extensions>
          <ns3:TrackPointExtension>
            <ns3:hr>116</ns3:hr>
            <ns3:cad>0</ns3:cad>
          </ns3:TrackPointExtension>
        </extensions>
      </trkpt>
      <trkpt lat="44.670332372188568115234375" lon="6.76993109285831451416015625">
        <ele>1669.199951171875</ele>
        <time>2026-09-03T08:25:13.000Z</time>
        <extensions>
          <ns3:TrackPointExtension>
            <ns3:hr>116</ns3:hr>
            <ns3:cad>0</ns3:cad>
          </ns3:TrackPointExtension>
        </extensions>
      </trkpt>
      <trkpt lat="44.6703151054680347442626953125" lon="6.76993318833410739898681640625">
        <ele>1669</ele>
        <time>2026-09-03T08:25:14.000Z</time>
        <extensions>
          <ns3:TrackPointExtension>
            <ns3:hr>115</ns3:hr>
            <ns3:cad>0</ns3:cad>
          </ns3:TrackPointExtension>
        </extensions>
      </trkpt>
      <trkpt lat="44.67030429281294345855712890625" lon="6.7699342779815196990966796875">
        <ele>1668.800048828125</ele>
        <time>2026-09-03T08:25:15.000Z</time>
        <extensions>
          <ns3:TrackPointExtension>
            <ns3:hr>115</ns3:hr>
            <ns3:cad>0</ns3:cad>
          </ns3:TrackPointExtension>
        </extensions>
      </trkpt>
      <trkpt lat="44.67029691673815250396728515625" lon="6.76993503235280513763427734375">
        <ele>1668.5999755859375</ele>
        <time>2026-09-03T08:25:16.000Z</time>
        <extensions>
          <ns3:TrackPointExtension>
            <ns3:hr>115</ns3:hr>
            <ns3:cad>0</ns3:cad>
          </ns3:TrackPointExtension>
        </extensions>
      </trkpt>
      <trkpt lat="44.67030026949942111968994140625" lon="6.76993788219988346099853515625">
        <ele>1668.4000244140625</ele>
        <time>2026-09-03T08:25:17.000Z</time>
        <extensions>
          <ns3:TrackPointExtension>
            <ns3:hr>115</ns3:hr>
            <ns3:cad>0</ns3:cad>
          </ns3:TrackPointExtension>
        </extensions>
      </trkpt>
      <trkpt lat="44.67030596919357776641845703125" lon="6.7699332721531391143798828125">
        <ele>1668.199951171875</ele>
        <time>2026-09-03T08:25:18.000Z</time>
        <extensions>
          <ns3:TrackPointExtension>
            <ns3:hr>115</ns3:hr>
            <ns3:cad>0</ns3:cad>
          </ns3:TrackPointExtension>
        </extensions>
      </trkpt>
      <trkpt lat="44.67030110768973827362060546875" lon="6.76993587054312229156494140625">
        <ele>1668.199951171875</ele>
        <time>2026-09-03T08:25:19.000Z</time>
        <extensions>
          <ns3:TrackPointExtension>
            <ns3:hr>115</ns3:hr>
            <ns3:cad>0</ns3:cad>
          </ns3:TrackPointExtension>
        </extensions>
      </trkpt>
      <trkpt lat="44.670293815433979034423828125" lon="6.76993570290505886077880859375">
        <ele>1668</ele>
        <time>2026-09-03T08:25:20.000Z</time>
        <extensions>
          <ns3:TrackPointExtension>
            <ns3:hr>115</ns3:hr>
            <ns3:cad>0</ns3:cad>
          </ns3:TrackPointExtension>
        </extensions>
      </trkpt>
      <trkpt lat="44.67028870247304439544677734375" lon="6.7699342779815196990966796875">
        <ele>1668</ele>
        <time>2026-09-03T08:25:21.000Z</time>
        <extensions>
          <ns3:TrackPointExtension>
            <ns3:hr>114</ns3:hr>
            <ns3:cad>0</ns3:cad>
          </ns3:TrackPointExtension>
        </extensions>
      </trkpt>
      <trkpt lat="44.6702889539301395416259765625" lon="6.76992732100188732147216796875">
        <ele>1668</ele>
        <time>2026-09-03T08:25:22.000Z</time>
        <extensions>
          <ns3:TrackPointExtension>
            <ns3:hr>114</ns3:hr>
            <ns3:cad>0</ns3:cad>
          </ns3:TrackPointExtension>
        </extensions>
      </trkpt>
      <trkpt lat="44.6702892892062664031982421875" lon="6.76992841064929962158203125">
        <ele>1668</ele>
        <time>2026-09-03T08:25:23.000Z</time>
        <extensions>
          <ns3:TrackPointExtension>
            <ns3:hr>113</ns3:hr>
            <ns3:cad>0</ns3:cad>
          </ns3:TrackPointExtension>
        </extensions>
      </trkpt>
      <trkpt lat="44.6702879481017589569091796875" lon="6.76993067376315593719482421875">
        <ele>1667.800048828125</ele>
        <time>2026-09-03T08:25:24.000Z</time>
        <extensions>
          <ns3:TrackPointExtension>
            <ns3:hr>111</ns3:hr>
            <ns3:cad>0</ns3:cad>
          </ns3:TrackPointExtension>
        </extensions>
      </trkpt>
      <trkpt lat="44.67029121704399585723876953125" lon="6.76992832683026790618896484375">
        <ele>1667.800048828125</ele>
        <time>2026-09-03T08:25:25.000Z</time>
        <extensions>
          <ns3:TrackPointExtension>
            <ns3:hr>110</ns3:hr>
            <ns3:cad>0</ns3:cad>
          </ns3:TrackPointExtension>
        </extensions>
      </trkpt>
      <trkpt lat="44.67028685845434665679931640625" lon="6.76993251778185367584228515625">
        <ele>1667.800048828125</ele>
        <time>2026-09-03T08:25:26.000Z</time>
        <extensions>
          <ns3:TrackPointExtension>
            <ns3:hr>110</ns3:hr>
            <ns3:cad>0</ns3:cad>
          </ns3:TrackPointExtension>
        </extensions>
      </trkpt>
      <trkpt lat="44.670282416045665740966796875" lon="6.7699433304369449615478515625">
        <ele>1667.800048828125</ele>
        <time>2026-09-03T08:25:27.000Z</time>
        <extensions>
          <ns3:TrackPointExtension>
            <ns3:hr>109</ns3:hr>
            <ns3:cad>0</ns3:cad>
          </ns3:TrackPointExtension>
        </extensions>
      </trkpt>
      <trkpt lat="44.67027763836085796356201171875" lon="6.76995548419654369354248046875">
        <ele>1667.800048828125</ele>
        <time>2026-09-03T08:25:28.000Z</time>
        <extensions>
          <ns3:TrackPointExtension>
            <ns3:hr>109</ns3:hr>
            <ns3:cad>0</ns3:cad>
          </ns3:TrackPointExtension>
        </extensions>
      </trkpt>
      <trkpt lat="44.67027294449508190155029296875" lon="6.7699731700122356414794921875">
        <ele>1667.800048828125</ele>
        <time>2026-09-03T08:25:29.000Z</time>
        <extensions>
          <ns3:TrackPointExtension>
            <ns3:hr>108</ns3:hr>
            <ns3:cad>0</ns3:cad>
          </ns3:TrackPointExtension>
        </extensions>
      </trkpt>
      <trkpt lat="44.67026975937187671661376953125" lon="6.7699919454753398895263671875">
        <ele>1667.800048828125</ele>
        <time>2026-09-03T08:25:30.000Z</time>
        <extensions>
          <ns3:TrackPointExtension>
            <ns3:hr>108</ns3:hr>
            <ns3:cad>0</ns3:cad>
          </ns3:TrackPointExtension>
        </extensions>
      </trkpt>
      <trkpt lat="44.6702668257057666778564453125" lon="6.77000644616782665252685546875">
        <ele>1667.800048828125</ele>
        <time>2026-09-03T08:25:31.000Z</time>
        <extensions>
          <ns3:TrackPointExtension>
            <ns3:hr>108</ns3:hr>
            <ns3:cad>0</ns3:cad>
          </ns3:TrackPointExtension>
        </extensions>
      </trkpt>
      <trkpt lat="44.6702688373625278472900390625" lon="6.77002237178385257720947265625">
        <ele>1667.5999755859375</ele>
        <time>2026-09-03T08:25:32.000Z</time>
        <extensions>
          <ns3:TrackPointExtension>
            <ns3:hr>108</ns3:hr>
            <ns3:cad>0</ns3:cad>
          </ns3:TrackPointExtension>
        </extensions>
      </trkpt>
      <trkpt lat="44.67027110047638416290283203125" lon="6.77004064433276653289794921875">
        <ele>1667.5999755859375</ele>
        <time>2026-09-03T08:25:33.000Z</time>
        <extensions>
          <ns3:TrackPointExtension>
            <ns3:hr>107</ns3:hr>
            <ns3:cad>0</ns3:cad>
          </ns3:TrackPointExtension>
        </extensions>
      </trkpt>
      <trkpt lat="44.67027344740927219390869140625" lon="6.7700600065290927886962890625">
        <ele>1667.5999755859375</ele>
        <time>2026-09-03T08:25:34.000Z</time>
        <extensions>
          <ns3:TrackPointExtension>
            <ns3:hr>107</ns3:hr>
            <ns3:cad>56</ns3:cad>
          </ns3:TrackPointExtension>
        </extensions>
      </trkpt>
      <trkpt lat="44.67027395032346248626708984375" lon="6.770074926316738128662109375">
        <ele>1667.4000244140625</ele>
        <time>2026-09-03T08:25:35.000Z</time>
        <extensions>
          <ns3:TrackPointExtension>
            <ns3:hr>107</ns3:hr>
            <ns3:cad>58</ns3:cad>
          </ns3:TrackPointExtension>
        </extensions>
      </trkpt>
      <trkpt lat="44.67027428559958934783935546875" lon="6.7700878344476222991943359375">
        <ele>1667.4000244140625</ele>
        <time>2026-09-03T08:25:36.000Z</time>
        <extensions>
          <ns3:TrackPointExtension>
            <ns3:hr>106</ns3:hr>
            <ns3:cad>58</ns3:cad>
          </ns3:TrackPointExtension>
        </extensions>
      </trkpt>
      <trkpt lat="44.6702762134373188018798828125" lon="6.77010065875947475433349609375">
        <ele>1667.4000244140625</ele>
        <time>2026-09-03T08:25:37.000Z</time>
        <extensions>
          <ns3:TrackPointExtension>
            <ns3:hr>106</ns3:hr>
            <ns3:cad>59</ns3:cad>
          </ns3:TrackPointExtension>
        </extensions>
      </trkpt>
      <trkpt lat="44.67027830891311168670654296875" lon="6.77011306397616863250732421875">
        <ele>1667.199951171875</ele>
        <time>2026-09-03T08:25:38.000Z</time>
        <extensions>
          <ns3:TrackPointExtension>
            <ns3:hr>106</ns3:hr>
            <ns3:cad>60</ns3:cad>
          </ns3:TrackPointExtension>
        </extensions>
      </trkpt>
      <trkpt lat="44.67028015293180942535400390625" lon="6.7701260559260845184326171875">
        <ele>1667.199951171875</ele>
        <time>2026-09-03T08:25:39.000Z</time>
        <extensions>
          <ns3:TrackPointExtension>
            <ns3:hr>106</ns3:hr>
            <ns3:cad>59</ns3:cad>
          </ns3:TrackPointExtension>
        </extensions>
      </trkpt>
      <trkpt lat="44.67028350569307804107666015625" lon="6.7701398022472858428955078125">
        <ele>1667.199951171875</ele>
        <time>2026-09-03T08:25:40.000Z</time>
        <extensions>
          <ns3:TrackPointExtension>
            <ns3:hr>106</ns3:hr>
            <ns3:cad>59</ns3:cad>
          </ns3:TrackPointExtension>
        </extensions>
      </trkpt>
      <trkpt lat="44.67028618790209293365478515625" lon="6.770153045654296875">
        <ele>1667.199951171875</ele>
        <time>2026-09-03T08:25:41.000Z</time>
        <extensions>
          <ns3:TrackPointExtension>
            <ns3:hr>105</ns3:hr>
            <ns3:cad>59</ns3:cad>
          </ns3:TrackPointExtension>
        </extensions>
      </trkpt>
      <trkpt lat="44.6702896244823932647705078125" lon="6.77016519941389560699462890625">
        <ele>1667.199951171875</ele>
        <time>2026-09-03T08:25:42.000Z</time>
        <extensions>
          <ns3:TrackPointExtension>
            <ns3:hr>105</ns3:hr>
            <ns3:cad>58</ns3:cad>
          </ns3:TrackPointExtension>
        </extensions>
      </trkpt>
      <trkpt lat="44.67029322870075702667236328125" lon="6.77017793990671634674072265625">
        <ele>1667.199951171875</ele>
        <time>2026-09-03T08:25:43.000Z</time>
        <extensions>
          <ns3:TrackPointExtension>
            <ns3:hr>104</ns3:hr>
            <ns3:cad>58</ns3:cad>
          </ns3:TrackPointExtension>
        </extensions>
      </trkpt>
      <trkpt lat="44.67029750347137451171875" lon="6.77019269205629825592041015625">
        <ele>1667.199951171875</ele>
        <time>2026-09-03T08:25:44.000Z</time>
        <extensions>
          <ns3:TrackPointExtension>
            <ns3:hr>103</ns3:hr>
            <ns3:cad>58</ns3:cad>
          </ns3:TrackPointExtension>
        </extensions>
      </trkpt>
      <trkpt lat="44.67030177824199199676513671875" lon="6.77020828239619731903076171875">
        <ele>1667.199951171875</ele>
        <time>2026-09-03T08:25:45.000Z</time>
        <extensions>
          <ns3:TrackPointExtension>
            <ns3:hr>102</ns3:hr>
            <ns3:cad>59</ns3:cad>
          </ns3:TrackPointExtension>
        </extensions>
      </trkpt>
      <trkpt lat="44.6703043766319751739501953125" lon="6.77022404037415981292724609375">
        <ele>1667</ele>
        <time>2026-09-03T08:25:46.000Z</time>
        <extensions>
          <ns3:TrackPointExtension>
            <ns3:hr>101</ns3:hr>
            <ns3:cad>59</ns3:cad>
          </ns3:TrackPointExtension>
        </extensions>
      </trkpt>
      <trkpt lat="44.670305214822292327880859375" lon="6.77023996599018573760986328125">
        <ele>1667</ele>
        <time>2026-09-03T08:25:47.000Z</time>
        <extensions>
          <ns3:TrackPointExtension>
            <ns3:hr>100</ns3:hr>
            <ns3:cad>59</ns3:cad>
          </ns3:TrackPointExtension>
        </extensions>
      </trkpt>
      <trkpt lat="44.67030580155551433563232421875" lon="6.770256645977497100830078125">
        <ele>1666.800048828125</ele>
        <time>2026-09-03T08:25:48.000Z</time>
        <extensions>
          <ns3:TrackPointExtension>
            <ns3:hr>100</ns3:hr>
            <ns3:cad>60</ns3:cad>
          </ns3:TrackPointExtension>
        </extensions>
      </trkpt>
      <trkpt lat="44.6703068912029266357421875" lon="6.77027449943125247955322265625">
        <ele>1666.800048828125</ele>
        <time>2026-09-03T08:25:49.000Z</time>
        <extensions>
          <ns3:TrackPointExtension>
            <ns3:hr>100</ns3:hr>
            <ns3:cad>61</ns3:cad>
          </ns3:TrackPointExtension>
        </extensions>
      </trkpt>
      <trkpt lat="44.67030965723097324371337890625" lon="6.7702965438365936279296875">
        <ele>1666.5999755859375</ele>
        <time>2026-09-03T08:25:50.000Z</time>
        <extensions>
          <ns3:TrackPointExtension>
            <ns3:hr>100</ns3:hr>
            <ns3:cad>62</ns3:cad>
          </ns3:TrackPointExtension>
        </extensions>
      </trkpt>
      <trkpt lat="44.67031083069741725921630859375" lon="6.770324371755123138427734375">
        <ele>1666.5999755859375</ele>
        <time>2026-09-03T08:25:51.000Z</time>
        <extensions>
          <ns3:TrackPointExtension>
            <ns3:hr>100</ns3:hr>
            <ns3:cad>62</ns3:cad>
          </ns3:TrackPointExtension>
        </extensions>
      </trkpt>
      <trkpt lat="44.670311249792575836181640625" lon="6.77034842781722545623779296875">
        <ele>1666.5999755859375</ele>
        <time>2026-09-03T08:25:52.000Z</time>
        <extensions>
          <ns3:TrackPointExtension>
            <ns3:hr>101</ns3:hr>
            <ns3:cad>62</ns3:cad>
          </ns3:TrackPointExtension>
        </extensions>
      </trkpt>
      <trkpt lat="44.67031166888773441314697265625" lon="6.770386733114719390869140625">
        <ele>1666.5999755859375</ele>
        <time>2026-09-03T08:25:53.000Z</time>
        <extensions>
          <ns3:TrackPointExtension>
            <ns3:hr>101</ns3:hr>
            <ns3:cad>123</ns3:cad>
          </ns3:TrackPointExtension>
        </extensions>
      </trkpt>
      <trkpt lat="44.67031016014516353607177734375" lon="6.770426966249942779541015625">
        <ele>1666.4000244140625</ele>
        <time>2026-09-03T08:25:54.000Z</time>
        <extensions>
          <ns3:TrackPointExtension>
            <ns3:hr>101</ns3:hr>
            <ns3:cad>123</ns3:cad>
          </ns3:TrackPointExtension>
        </extensions>
      </trkpt>
      <trkpt lat="44.67031250707805156707763671875" lon="6.7704626731574535369873046875">
        <ele>1666.199951171875</ele>
        <time>2026-09-03T08:25:55.000Z</time>
        <extensions>
          <ns3:TrackPointExtension>
            <ns3:hr>101</ns3:hr>
            <ns3:cad>88</ns3:cad>
          </ns3:TrackPointExtension>
        </extensions>
      </trkpt>
      <trkpt lat="44.67031368054449558258056640625" lon="6.77050382830202579498291015625">
        <ele>1666.199951171875</ele>
        <time>2026-09-03T08:25:56.000Z</time>
        <extensions>
          <ns3:TrackPointExtension>
            <ns3:hr>102</ns3:hr>
            <ns3:cad>83</ns3:cad>
          </ns3:TrackPointExtension>
        </extensions>
      </trkpt>
      <trkpt lat="44.67031770385801792144775390625" lon="6.77053350023925304412841796875">
        <ele>1666</ele>
        <time>2026-09-03T08:25:57.000Z</time>
        <extensions>
          <ns3:TrackPointExtension>
            <ns3:hr>102</ns3:hr>
            <ns3:cad>83</ns3:cad>
          </ns3:TrackPointExtension>
        </extensions>
      </trkpt>
      <trkpt lat="44.6703164465725421905517578125" lon="6.7705716378986835479736328125">
        <ele>1666</ele>
        <time>2026-09-03T08:25:58.000Z</time>
        <extensions>
          <ns3:TrackPointExtension>
            <ns3:hr>103</ns3:hr>
            <ns3:cad>83</ns3:cad>
          </ns3:TrackPointExtension>
        </extensions>
      </trkpt>
      <trkpt lat="44.670314602553844451904296875" lon="6.77060474641621112823486328125">
        <ele>1665.800048828125</ele>
        <time>2026-09-03T08:25:59.000Z</time>
        <extensions>
          <ns3:TrackPointExtension>
            <ns3:hr>104</ns3:hr>
            <ns3:cad>84</ns3:cad>
          </ns3:TrackPointExtension>
        </extensions>
      </trkpt>
      <trkpt lat="44.670318625867366790771484375" lon="6.77063358016312122344970703125">
        <ele>1665.800048828125</ele>
        <time>2026-09-03T08:26:00.000Z</time>
        <extensions>
          <ns3:TrackPointExtension>
            <ns3:hr>105</ns3:hr>
            <ns3:cad>84</ns3:cad>
          </ns3:TrackPointExtension>
        </extensions>
      </trkpt>
      <trkpt lat="44.67031787149608135223388671875" lon="6.77067683078348636627197265625">
        <ele>1665.5999755859375</ele>
        <time>2026-09-03T08:26:01.000Z</time>
        <extensions>
          <ns3:TrackPointExtension>
            <ns3:hr>106</ns3:hr>
            <ns3:cad>83</ns3:cad>
          </ns3:TrackPointExtension>
        </extensions>
      </trkpt>
      <trkpt lat="44.67031753621995449066162109375" lon="6.77070717327296733856201171875">
        <ele>1665.5999755859375</ele>
        <time>2026-09-03T08:26:02.000Z</time>
        <extensions>
          <ns3:TrackPointExtension>
            <ns3:hr>106</ns3:hr>
            <ns3:cad>83</ns3:cad>
          </ns3:TrackPointExtension>
        </extensions>
      </trkpt>
      <trkpt lat="44.67031435109674930572509765625" lon="6.77074774168431758880615234375">
        <ele>1665.5999755859375</ele>
        <time>2026-09-03T08:26:03.000Z</time>
        <extensions>
          <ns3:TrackPointExtension>
            <ns3:hr>106</ns3:hr>
            <ns3:cad>83</ns3:cad>
          </ns3:TrackPointExtension>
        </extensions>
      </trkpt>
      <trkpt lat="44.67031066305935382843017578125" lon="6.770785041153430938720703125">
        <ele>1665.5999755859375</ele>
        <time>2026-09-03T08:26:04.000Z</time>
        <extensions>
          <ns3:TrackPointExtension>
            <ns3:hr>106</ns3:hr>
            <ns3:cad>84</ns3:cad>
          </ns3:TrackPointExtension>
        </extensions>
      </trkpt>
      <trkpt lat="44.67031250707805156707763671875" lon="6.7708163894712924957275390625">
        <ele>1665.5999755859375</ele>
        <time>2026-09-03T08:26:05.000Z</time>
        <extensions>
          <ns3:TrackPointExtension>
            <ns3:hr>107</ns3:hr>
            <ns3:cad>85</ns3:cad>
          </ns3:TrackPointExtension>
        </extensions>
      </trkpt>
      <trkpt lat="44.67031083069741725921630859375" lon="6.77085989154875278472900390625">
        <ele>1665.5999755859375</ele>
        <time>2026-09-03T08:26:06.000Z</time>
        <extensions>
          <ns3:TrackPointExtension>
            <ns3:hr>107</ns3:hr>
            <ns3:cad>85</ns3:cad>
          </ns3:TrackPointExtension>
        </extensions>
      </trkpt>
      <trkpt lat="44.6703043766319751739501953125" lon="6.770888306200504302978515625">
        <ele>1665.4000244140625</ele>
        <time>2026-09-03T08:26:07.000Z</time>
        <extensions>
          <ns3:TrackPointExtension>
            <ns3:hr>108</ns3:hr>
            <ns3:cad>85</ns3:cad>
          </ns3:TrackPointExtension>
        </extensions>
      </trkpt>
      <trkpt lat="44.67030194588005542755126953125" lon="6.77092619240283966064453125">
        <ele>1665.4000244140625</ele>
        <time>2026-09-03T08:26:08.000Z</time>
        <extensions>
          <ns3:TrackPointExtension>
            <ns3:hr>109</ns3:hr>
            <ns3:cad>83</ns3:cad>
          </ns3:TrackPointExtension>
        </extensions>
      </trkpt>
      <trkpt lat="44.67029591090977191925048828125" lon="6.77095972001552581787109375">
        <ele>1665.4000244140625</ele>
        <time>2026-09-03T08:26:09.000Z</time>
        <extensions>
          <ns3:TrackPointExtension>
            <ns3:hr>110</ns3:hr>
            <ns3:cad>83</ns3:cad>
          </ns3:TrackPointExtension>
        </extensions>
      </trkpt>
      <trkpt lat="44.67029322870075702667236328125" lon="6.7709917388856410980224609375">
        <ele>1665.4000244140625</ele>
        <time>2026-09-03T08:26:10.000Z</time>
        <extensions>
          <ns3:TrackPointExtension>
            <ns3:hr>111</ns3:hr>
            <ns3:cad>83</ns3:cad>
          </ns3:TrackPointExtension>
        </extensions>
      </trkpt>
      <trkpt lat="44.67029138468205928802490234375" lon="6.77103540860116481781005859375">
        <ele>1665.199951171875</ele>
        <time>2026-09-03T08:26:11.000Z</time>
        <extensions>
          <ns3:TrackPointExtension>
            <ns3:hr>113</ns3:hr>
            <ns3:cad>83</ns3:cad>
          </ns3:TrackPointExtension>
        </extensions>
      </trkpt>
      <trkpt lat="44.67029021121561527252197265625" lon="6.77105938084423542022705078125">
        <ele>1665.199951171875</ele>
        <time>2026-09-03T08:26:12.000Z</time>
        <extensions>
          <ns3:TrackPointExtension>
            <ns3:hr>114</ns3:hr>
            <ns3:cad>83</ns3:cad>
          </ns3:TrackPointExtension>
        </extensions>
      </trkpt>
      <trkpt lat="44.6702896244823932647705078125" lon="6.77109383046627044677734375">
        <ele>1665.199951171875</ele>
        <time>2026-09-03T08:26:13.000Z</time>
        <extensions>
          <ns3:TrackPointExtension>
            <ns3:hr>115</ns3:hr>
            <ns3:cad>83</ns3:cad>
          </ns3:TrackPointExtension>
        </extensions>
      </trkpt>
      <trkpt lat="44.6702839247882366180419921875" lon="6.7711318843066692352294921875">
        <ele>1665.199951171875</ele>
        <time>2026-09-03T08:26:14.000Z</time>
        <extensions>
          <ns3:TrackPointExtension>
            <ns3:hr>116</ns3:hr>
            <ns3:cad>83</ns3:cad>
          </ns3:TrackPointExtension>
        </extensions>
      </trkpt>
      <trkpt lat="44.6702882833778858184814453125" lon="6.77116298116743564605712890625">
        <ele>1665.199951171875</ele>
        <time>2026-09-03T08:26:15.000Z</time>
        <extensions>
          <ns3:TrackPointExtension>
            <ns3:hr>117</ns3:hr>
            <ns3:cad>83</ns3:cad>
          </ns3:TrackPointExtension>
        </extensions>
      </trkpt>
      <trkpt lat="44.67028484679758548736572265625" lon="6.7712053097784519195556640625">
        <ele>1665.199951171875</ele>
        <time>2026-09-03T08:26:16.000Z</time>
        <extensions>
          <ns3:TrackPointExtension>
            <ns3:hr>118</ns3:hr>
            <ns3:cad>83</ns3:cad>
          </ns3:TrackPointExtension>
        </extensions>
      </trkpt>
      <trkpt lat="44.6702752076089382171630859375" lon="6.77123330533504486083984375">
        <ele>1665.199951171875</ele>
        <time>2026-09-03T08:26:17.000Z</time>
        <extensions>
          <ns3:TrackPointExtension>
            <ns3:hr>120</ns3:hr>
            <ns3:cad>83</ns3:cad>
          </ns3:TrackPointExtension>
        </extensions>
      </trkpt>
      <trkpt lat="44.6702718548476696014404296875" lon="6.77126792259514331817626953125">
        <ele>1665</ele>
        <time>2026-09-03T08:26:18.000Z</time>
        <extensions>
          <ns3:TrackPointExtension>
            <ns3:hr>121</ns3:hr>
            <ns3:cad>83</ns3:cad>
          </ns3:TrackPointExtension>
        </extensions>
      </trkpt>
      <trkpt lat="44.6702648140490055084228515625" lon="6.771304048597812652587890625">
        <ele>1665</ele>
        <time>2026-09-03T08:26:19.000Z</time>
        <extensions>
          <ns3:TrackPointExtension>
            <ns3:hr>122</ns3:hr>
            <ns3:cad>83</ns3:cad>
          </ns3:TrackPointExtension>
        </extensions>
      </trkpt>
      <trkpt lat="44.67026489786803722381591796875" lon="6.77133045159280300140380859375">
        <ele>1665</ele>
        <time>2026-09-03T08:26:20.000Z</time>
        <extensions>
          <ns3:TrackPointExtension>
            <ns3:hr>123</ns3:hr>
            <ns3:cad>83</ns3:cad>
          </ns3:TrackPointExtension>
        </extensions>
      </trkpt>
      <trkpt lat="44.67025634832680225372314453125" lon="6.77136967889964580535888671875">
        <ele>1664.800048828125</ele>
        <time>2026-09-03T08:26:21.000Z</time>
        <extensions>
          <ns3:TrackPointExtension>
            <ns3:hr>124</ns3:hr>
            <ns3:cad>83</ns3:cad>
          </ns3:TrackPointExtension>
        </extensions>
      </trkpt>
      <trkpt lat="44.6702467091381549835205078125" lon="6.77139951847493648529052734375">
        <ele>1664.800048828125</ele>
        <time>2026-09-03T08:26:22.000Z</time>
        <extensions>
          <ns3:TrackPointExtension>
            <ns3:hr>125</ns3:hr>
            <ns3:cad>83</ns3:cad>
          </ns3:TrackPointExtension>
        </extensions>
      </trkpt>
      <trkpt lat="44.67024344019591808319091796875" lon="6.77142768166959285736083984375">
        <ele>1664.5999755859375</ele>
        <time>2026-09-03T08:26:23.000Z</time>
        <extensions>
          <ns3:TrackPointExtension>
            <ns3:hr>126</ns3:hr>
            <ns3:cad>83</ns3:cad>
          </ns3:TrackPointExtension>
        </extensions>
      </trkpt>
      <trkpt lat="44.6702371537685394287109375" lon="6.77146556787192821502685546875">
        <ele>1664.5999755859375</ele>
        <time>2026-09-03T08:26:24.000Z</time>
        <extensions>
          <ns3:TrackPointExtension>
            <ns3:hr>129</ns3:hr>
            <ns3:cad>83</ns3:cad>
          </ns3:TrackPointExtension>
        </extensions>
      </trkpt>
      <trkpt lat="44.6702302806079387664794921875" lon="6.77149775438010692596435546875">
        <ele>1664.4000244140625</ele>
        <time>2026-09-03T08:26:25.000Z</time>
        <extensions>
          <ns3:TrackPointExtension>
            <ns3:hr>129</ns3:hr>
            <ns3:cad>83</ns3:cad>
          </ns3:TrackPointExtension>
        </extensions>
      </trkpt>
      <trkpt lat="44.6702239103615283966064453125" lon="6.77153497003018856048583984375">
        <ele>1664.4000244140625</ele>
        <time>2026-09-03T08:26:26.000Z</time>
        <extensions>
          <ns3:TrackPointExtension>
            <ns3:hr>130</ns3:hr>
            <ns3:cad>84</ns3:cad>
          </ns3:TrackPointExtension>
        </extensions>
      </trkpt>
      <trkpt lat="44.67021795921027660369873046875" lon="6.771570257842540740966796875">
        <ele>1664.199951171875</ele>
        <time>2026-09-03T08:26:27.000Z</time>
        <extensions>
          <ns3:TrackPointExtension>
            <ns3:hr>131</ns3:hr>
            <ns3:cad>84</ns3:cad>
          </ns3:TrackPointExtension>
        </extensions>
      </trkpt>
      <trkpt lat="44.67021544463932514190673828125" lon="6.7716042883694171905517578125">
        <ele>1664.199951171875</ele>
        <time>2026-09-03T08:26:28.000Z</time>
        <extensions>
          <ns3:TrackPointExtension>
            <ns3:hr>131</ns3:hr>
            <ns3:cad>84</ns3:cad>
          </ns3:TrackPointExtension>
        </extensions>
      </trkpt>
      <trkpt lat="44.67020974494516849517822265625" lon="6.77164611406624317169189453125">
        <ele>1664</ele>
        <time>2026-09-03T08:26:29.000Z</time>
        <extensions>
          <ns3:TrackPointExtension>
            <ns3:hr>132</ns3:hr>
            <ns3:cad>83</ns3:cad>
          </ns3:TrackPointExtension>
        </extensions>
      </trkpt>
      <trkpt lat="44.6702051348984241485595703125" lon="6.7716787196695804595947265625">
        <ele>1664</ele>
        <time>2026-09-03T08:26:30.000Z</time>
        <extensions>
          <ns3:TrackPointExtension>
            <ns3:hr>132</ns3:hr>
            <ns3:cad>83</ns3:cad>
          </ns3:TrackPointExtension>
        </extensions>
      </trkpt>
      <trkpt lat="44.670203626155853271484375" lon="6.77171149291098117828369140625">
        <ele>1664</ele>
        <time>2026-09-03T08:26:31.000Z</time>
        <extensions>
          <ns3:TrackPointExtension>
            <ns3:hr>133</ns3:hr>
            <ns3:cad>83</ns3:cad>
          </ns3:TrackPointExtension>
        </extensions>
      </trkpt>
      <trkpt lat="44.67019566334784030914306640625" lon="6.77175222896039485931396484375">
        <ele>1663.800048828125</ele>
        <time>2026-09-03T08:26:32.000Z</time>
        <extensions>
          <ns3:TrackPointExtension>
            <ns3:hr>134</ns3:hr>
            <ns3:cad>83</ns3:cad>
          </ns3:TrackPointExtension>
        </extensions>
      </trkpt>
      <trkpt lat="44.67019432224333286285400390625" lon="6.7717798054218292236328125">
        <ele>1663.800048828125</ele>
        <time>2026-09-03T08:26:33.000Z</time>
        <extensions>
          <ns3:TrackPointExtension>
            <ns3:hr>135</ns3:hr>
            <ns3:cad>83</ns3:cad>
          </ns3:TrackPointExtension>
        </extensions>
      </trkpt>
      <trkpt lat="44.670191220939159393310546875" lon="6.77181777544319629669189453125">
        <ele>1663.800048828125</ele>
        <time>2026-09-03T08:26:34.000Z</time>
        <extensions>
          <ns3:TrackPointExtension>
            <ns3:hr>135</ns3:hr>
            <ns3:cad>83</ns3:cad>
          </ns3:TrackPointExtension>
        </extensions>
      </trkpt>
      <trkpt lat="44.6701863594353199005126953125" lon="6.77184761501848697662353515625">
        <ele>1663.5999755859375</ele>
        <time>2026-09-03T08:26:35.000Z</time>
        <extensions>
          <ns3:TrackPointExtension>
            <ns3:hr>136</ns3:hr>
            <ns3:cad>83</ns3:cad>
          </ns3:TrackPointExtension>
        </extensions>
      </trkpt>
      <trkpt lat="44.67018728144466876983642578125" lon="6.77188374102115631103515625">
        <ele>1663.5999755859375</ele>
        <time>2026-09-03T08:26:36.000Z</time>
        <extensions>
          <ns3:TrackPointExtension>
            <ns3:hr>136</ns3:hr>
            <ns3:cad>83</ns3:cad>
          </ns3:TrackPointExtension>
        </extensions>
      </trkpt>
      <trkpt lat="44.670184515416622161865234375" lon="6.77192640490829944610595703125">
        <ele>1663.5999755859375</ele>
        <time>2026-09-03T08:26:37.000Z</time>
        <extensions>
          <ns3:TrackPointExtension>
            <ns3:hr>136</ns3:hr>
            <ns3:cad>83</ns3:cad>
          </ns3:TrackPointExtension>
        </extensions>
      </trkpt>
      <trkpt lat="44.67018057592213153839111328125" lon="6.77195926196873188018798828125">
        <ele>1663.5999755859375</ele>
        <time>2026-09-03T08:26:38.000Z</time>
        <extensions>
          <ns3:TrackPointExtension>
            <ns3:hr>136</ns3:hr>
            <ns3:cad>83</ns3:cad>
          </ns3:TrackPointExtension>
        </extensions>
      </trkpt>
      <trkpt lat="44.6701752953231334686279296875" lon="6.77200586535036563873291015625">
        <ele>1663.5999755859375</ele>
        <time>2026-09-03T08:26:39.000Z</time>
        <extensions>
          <ns3:TrackPointExtension>
            <ns3:hr>136</ns3:hr>
            <ns3:cad>83</ns3:cad>
          </ns3:TrackPointExtension>
        </extensions>
      </trkpt>
      <trkpt lat="44.67016808688640594482421875" lon="6.77203821949660778045654296875">
        <ele>1663.5999755859375</ele>
        <time>2026-09-03T08:26:40.000Z</time>
        <extensions>
          <ns3:TrackPointExtension>
            <ns3:hr>137</ns3:hr>
            <ns3:cad>83</ns3:cad>
          </ns3:TrackPointExtension>
        </extensions>
      </trkpt>
      <trkpt lat="44.67016984708607196807861328125" lon="6.77207493223249912261962890625">
        <ele>1663.5999755859375</ele>
        <time>2026-09-03T08:26:41.000Z</time>
        <extensions>
          <ns3:TrackPointExtension>
            <ns3:hr>136</ns3:hr>
            <ns3:cad>83</ns3:cad>
          </ns3:TrackPointExtension>
        </extensions>
      </trkpt>
      <trkpt lat="44.67016875743865966796875" lon="6.77211483009159564971923828125">
        <ele>1663.4000244140625</ele>
        <time>2026-09-03T08:26:42.000Z</time>
        <extensions>
          <ns3:TrackPointExtension>
            <ns3:hr>137</ns3:hr>
            <ns3:cad>83</ns3:cad>
          </ns3:TrackPointExtension>
        </extensions>
      </trkpt>
      <trkpt lat="44.6701727807521820068359375" lon="6.77214793860912322998046875">
        <ele>1663.4000244140625</ele>
        <time>2026-09-03T08:26:43.000Z</time>
        <extensions>
          <ns3:TrackPointExtension>
            <ns3:hr>137</ns3:hr>
            <ns3:cad>83</ns3:cad>
          </ns3:TrackPointExtension>
        </extensions>
      </trkpt>
      <trkpt lat="44.67017035000026226043701171875" lon="6.77219496108591556549072265625">
        <ele>1663.4000244140625</ele>
        <time>2026-09-03T08:26:44.000Z</time>
        <extensions>
          <ns3:TrackPointExtension>
            <ns3:hr>138</ns3:hr>
            <ns3:cad>83</ns3:cad>
          </ns3:TrackPointExtension>
        </extensions>
      </trkpt>
      <trkpt lat="44.67016850598156452178955078125" lon="6.7722277343273162841796875">
        <ele>1663.199951171875</ele>
        <time>2026-09-03T08:26:45.000Z</time>
        <extensions>
          <ns3:TrackPointExtension>
            <ns3:hr>138</ns3:hr>
            <ns3:cad>83</ns3:cad>
          </ns3:TrackPointExtension>
        </extensions>
      </trkpt>
      <trkpt lat="44.67017303220927715301513671875" lon="6.772255562245845794677734375">
        <ele>1663.199951171875</ele>
        <time>2026-09-03T08:26:46.000Z</time>
        <extensions>
          <ns3:TrackPointExtension>
            <ns3:hr>138</ns3:hr>
            <ns3:cad>84</ns3:cad>
          </ns3:TrackPointExtension>
        </extensions>
      </trkpt>
      <trkpt lat="44.6701756305992603302001953125" lon="6.7722988128662109375">
        <ele>1663.199951171875</ele>
        <time>2026-09-03T08:26:47.000Z</time>
        <extensions>
          <ns3:TrackPointExtension>
            <ns3:hr>139</ns3:hr>
            <ns3:cad>84</ns3:cad>
          </ns3:TrackPointExtension>
        </extensions>
      </trkpt>
      <trkpt lat="44.67018325813114643096923828125" lon="6.77232236601412296295166015625">
        <ele>1663.199951171875</ele>
        <time>2026-09-03T08:26:48.000Z</time>
        <extensions>
          <ns3:TrackPointExtension>
            <ns3:hr>139</ns3:hr>
            <ns3:cad>84</ns3:cad>
          </ns3:TrackPointExtension>
        </extensions>
      </trkpt>
      <trkpt lat="44.6701870299875736236572265625" lon="6.7723623476922512054443359375">
        <ele>1663.199951171875</ele>
        <time>2026-09-03T08:26:49.000Z</time>
        <extensions>
          <ns3:TrackPointExtension>
            <ns3:hr>140</ns3:hr>
            <ns3:cad>83</ns3:cad>
          </ns3:TrackPointExtension>
        </extensions>
      </trkpt>
      <trkpt lat="44.67018677853047847747802734375" lon="6.7723972164094448089599609375">
        <ele>1663.199951171875</ele>
        <time>2026-09-03T08:26:50.000Z</time>
        <extensions>
          <ns3:TrackPointExtension>
            <ns3:hr>140</ns3:hr>
            <ns3:cad>83</ns3:cad>
          </ns3:TrackPointExtension>
        </extensions>
      </trkpt>
      <trkpt lat="44.67018946073949337005615234375" lon="6.77243015728890895843505859375">
        <ele>1663.199951171875</ele>
        <time>2026-09-03T08:26:51.000Z</time>
        <extensions>
          <ns3:TrackPointExtension>
            <ns3:hr>140</ns3:hr>
            <ns3:cad>83</ns3:cad>
          </ns3:TrackPointExtension>
        </extensions>
      </trkpt>
      <trkpt lat="44.67019197531044483184814453125" lon="6.77247793413698673248291015625">
        <ele>1663</ele>
        <time>2026-09-03T08:26:52.000Z</time>
        <extensions>
          <ns3:TrackPointExtension>
            <ns3:hr>141</ns3:hr>
            <ns3:cad>82</ns3:cad>
          </ns3:TrackPointExtension>
        </extensions>
      </trkpt>
      <trkpt lat="44.67018962837755680084228515625" lon="6.77250609733164310455322265625">
        <ele>1663</ele>
        <time>2026-09-03T08:26:53.000Z</time>
        <extensions>
          <ns3:TrackPointExtension>
            <ns3:hr>141</ns3:hr>
            <ns3:cad>82</ns3:cad>
          </ns3:TrackPointExtension>
        </extensions>
      </trkpt>
      <trkpt lat="44.67019063420593738555908203125" lon="6.7725437320768833160400390625">
        <ele>1663</ele>
        <time>2026-09-03T08:26:54.000Z</time>
        <extensions>
          <ns3:TrackPointExtension>
            <ns3:hr>141</ns3:hr>
            <ns3:cad>82</ns3:cad>
          </ns3:TrackPointExtension>
        </extensions>
      </trkpt>
      <trkpt lat="44.67018677853047847747802734375" lon="6.7725816182792186737060546875">
        <ele>1663.199951171875</ele>
        <time>2026-09-03T08:26:55.000Z</time>
        <extensions>
          <ns3:TrackPointExtension>
            <ns3:hr>141</ns3:hr>
            <ns3:cad>82</ns3:cad>
          </ns3:TrackPointExtension>
        </extensions>
      </trkpt>
      <trkpt lat="44.6701903827488422393798828125" lon="6.77260986529290676116943359375">
        <ele>1663</ele>
        <time>2026-09-03T08:26:56.000Z</time>
        <extensions>
          <ns3:TrackPointExtension>
            <ns3:hr>142</ns3:hr>
            <ns3:cad>83</ns3:cad>
          </ns3:TrackPointExtension>
        </extensions>
      </trkpt>
      <trkpt lat="44.6701903827488422393798828125" lon="6.77265143953263759613037109375">
        <ele>1663</ele>
        <time>2026-09-03T08:26:57.000Z</time>
        <extensions>
          <ns3:TrackPointExtension>
            <ns3:hr>142</ns3:hr>
            <ns3:cad>83</ns3:cad>
          </ns3:TrackPointExtension>
        </extensions>
      </trkpt>
      <trkpt lat="44.6701873652637004852294921875" lon="6.77268429659307003021240234375">
        <ele>1662.800048828125</ele>
        <time>2026-09-03T08:26:58.000Z</time>
        <extensions>
          <ns3:TrackPointExtension>
            <ns3:hr>142</ns3:hr>
            <ns3:cad>83</ns3:cad>
          </ns3:TrackPointExtension>
        </extensions>
      </trkpt>
      <trkpt lat="44.6701923944056034088134765625" lon="6.77271547727286815643310546875">
        <ele>1662.800048828125</ele>
        <time>2026-09-03T08:26:59.000Z</time>
        <extensions>
          <ns3:TrackPointExtension>
            <ns3:hr>142</ns3:hr>
            <ns3:cad>83</ns3:cad>
          </ns3:TrackPointExtension>
        </extensions>
      </trkpt>
      <trkpt lat="44.6701957471668720245361328125" lon="6.77275185473263263702392578125">
        <ele>1662.800048828125</ele>
        <time>2026-09-03T08:27:00.000Z</time>
        <extensions>
          <ns3:TrackPointExtension>
            <ns3:hr>142</ns3:hr>
            <ns3:cad>83</ns3:cad>
          </ns3:TrackPointExtension>
        </extensions>
      </trkpt>
      <trkpt lat="44.6701960824429988861083984375" lon="6.7727847956120967864990234375">
        <ele>1662.800048828125</ele>
        <time>2026-09-03T08:27:01.000Z</time>
        <extensions>
          <ns3:TrackPointExtension>
            <ns3:hr>143</ns3:hr>
            <ns3:cad>83</ns3:cad>
          </ns3:TrackPointExtension>
        </extensions>
      </trkpt>
      <trkpt lat="44.67019851319491863250732421875" lon="6.7728233523666858673095703125">
        <ele>1662.5999755859375</ele>
        <time>2026-09-03T08:27:02.000Z</time>
        <extensions>
          <ns3:TrackPointExtension>
            <ns3:hr>143</ns3:hr>
            <ns3:cad>82</ns3:cad>
          </ns3:TrackPointExtension>
        </extensions>
      </trkpt>
      <trkpt lat="44.67019935138523578643798828125" lon="6.77285880781710147857666015625">
        <ele>1662.5999755859375</ele>
        <time>2026-09-03T08:27:03.000Z</time>
        <extensions>
          <ns3:TrackPointExtension>
            <ns3:hr>143</ns3:hr>
            <ns3:cad>82</ns3:cad>
          </ns3:TrackPointExtension>
        </extensions>
      </trkpt>
      <trkpt lat="44.67020370997488498687744140625" lon="6.77288956940174102783203125">
        <ele>1662.4000244140625</ele>
        <time>2026-09-03T08:27:04.000Z</time>
        <extensions>
          <ns3:TrackPointExtension>
            <ns3:hr>143</ns3:hr>
            <ns3:cad>82</ns3:cad>
          </ns3:TrackPointExtension>
        </extensions>
      </trkpt>
      <trkpt lat="44.670208990573883056640625" lon="6.77292837761342525482177734375">
        <ele>1662.4000244140625</ele>
        <time>2026-09-03T08:27:05.000Z</time>
        <extensions>
          <ns3:TrackPointExtension>
            <ns3:hr>143</ns3:hr>
            <ns3:cad>82</ns3:cad>
          </ns3:TrackPointExtension>
        </extensions>
      </trkpt>
      <trkpt lat="44.67020873911678791046142578125" lon="6.77296240814030170440673828125">
        <ele>1662.199951171875</ele>
        <time>2026-09-03T08:27:06.000Z</time>
        <extensions>
          <ns3:TrackPointExtension>
            <ns3:hr>144</ns3:hr>
            <ns3:cad>82</ns3:cad>
          </ns3:TrackPointExtension>
        </extensions>
      </trkpt>
      <trkpt lat="44.67021410353481769561767578125" lon="6.772993169724941253662109375">
        <ele>1662.199951171875</ele>
        <time>2026-09-03T08:27:07.000Z</time>
        <extensions>
          <ns3:TrackPointExtension>
            <ns3:hr>144</ns3:hr>
            <ns3:cad>83</ns3:cad>
          </ns3:TrackPointExtension>
        </extensions>
      </trkpt>
      <trkpt lat="44.67021611519157886505126953125" lon="6.773032061755657196044921875">
        <ele>1662</ele>
        <time>2026-09-03T08:27:08.000Z</time>
        <extensions>
          <ns3:TrackPointExtension>
            <ns3:hr>144</ns3:hr>
            <ns3:cad>84</ns3:cad>
          </ns3:TrackPointExtension>
        </extensions>
      </trkpt>
      <trkpt lat="44.6702205576002597808837890625" lon="6.7730605602264404296875">
        <ele>1662</ele>
        <time>2026-09-03T08:27:09.000Z</time>
        <extensions>
          <ns3:TrackPointExtension>
            <ns3:hr>144</ns3:hr>
            <ns3:cad>84</ns3:cad>
          </ns3:TrackPointExtension>
        </extensions>
      </trkpt>
      <trkpt lat="44.67022617347538471221923828125" lon="6.7730967700481414794921875">
        <ele>1661.800048828125</ele>
        <time>2026-09-03T08:27:10.000Z</time>
        <extensions>
          <ns3:TrackPointExtension>
            <ns3:hr>144</ns3:hr>
            <ns3:cad>83</ns3:cad>
          </ns3:TrackPointExtension>
        </extensions>
      </trkpt>
      <trkpt lat="44.67022441327571868896484375" lon="6.7731354944407939910888671875">
        <ele>1661.800048828125</ele>
        <time>2026-09-03T08:27:11.000Z</time>
        <extensions>
          <ns3:TrackPointExtension>
            <ns3:hr>144</ns3:hr>
            <ns3:cad>83</ns3:cad>
          </ns3:TrackPointExtension>
        </extensions>
      </trkpt>
      <trkpt lat="44.67022977769374847412109375" lon="6.7731691896915435791015625">
        <ele>1661.5999755859375</ele>
        <time>2026-09-03T08:27:12.000Z</time>
        <extensions>
          <ns3:TrackPointExtension>
            <ns3:hr>144</ns3:hr>
            <ns3:cad>82</ns3:cad>
          </ns3:TrackPointExtension>
        </extensions>
      </trkpt>
      <trkpt lat="44.67023204080760478973388671875" lon="6.7732102610170841217041015625">
        <ele>1661.5999755859375</ele>
        <time>2026-09-03T08:27:13.000Z</time>
        <extensions>
          <ns3:TrackPointExtension>
            <ns3:hr>144</ns3:hr>
            <ns3:cad>82</ns3:cad>
          </ns3:TrackPointExtension>
        </extensions>
      </trkpt>
      <trkpt lat="44.67023321427404880523681640625" lon="6.773242615163326263427734375">
        <ele>1661.5999755859375</ele>
        <time>2026-09-03T08:27:14.000Z</time>
        <extensions>
          <ns3:TrackPointExtension>
            <ns3:hr>144</ns3:hr>
            <ns3:cad>82</ns3:cad>
          </ns3:TrackPointExtension>
        </extensions>
      </trkpt>
      <trkpt lat="44.6702410094439983367919921875" lon="6.77327455021440982818603515625">
        <ele>1661.5999755859375</ele>
        <time>2026-09-03T08:27:15.000Z</time>
        <extensions>
          <ns3:TrackPointExtension>
            <ns3:hr>145</ns3:hr>
            <ns3:cad>82</ns3:cad>
          </ns3:TrackPointExtension>
        </extensions>
      </trkpt>
      <trkpt lat="44.670246876776218414306640625" lon="6.77330925129354000091552734375">
        <ele>1661.4000244140625</ele>
        <time>2026-09-03T08:27:16.000Z</time>
        <extensions>
          <ns3:TrackPointExtension>
            <ns3:hr>145</ns3:hr>
            <ns3:cad>82</ns3:cad>
          </ns3:TrackPointExtension>
        </extensions>
      </trkpt>
      <trkpt lat="44.6702530793845653533935546875" lon="6.77333959378302097320556640625">
        <ele>1661.4000244140625</ele>
        <time>2026-09-03T08:27:17.000Z</time>
        <extensions>
          <ns3:TrackPointExtension>
            <ns3:hr>145</ns3:hr>
            <ns3:cad>82</ns3:cad>
          </ns3:TrackPointExtension>
        </extensions>
      </trkpt>
      <trkpt lat="44.67025634832680225372314453125" lon="6.77337697707116603851318359375">
        <ele>1661.199951171875</ele>
        <time>2026-09-03T08:27:18.000Z</time>
        <extensions>
          <ns3:TrackPointExtension>
            <ns3:hr>146</ns3:hr>
            <ns3:cad>82</ns3:cad>
          </ns3:TrackPointExtension>
        </extensions>
      </trkpt>
      <trkpt lat="44.67025718651711940765380859375" lon="6.773408241569995880126953125">
        <ele>1661.199951171875</ele>
        <time>2026-09-03T08:27:19.000Z</time>
        <extensions>
          <ns3:TrackPointExtension>
            <ns3:hr>146</ns3:hr>
            <ns3:cad>83</ns3:cad>
          </ns3:TrackPointExtension>
        </extensions>
      </trkpt>
      <trkpt lat="44.6702607907354831695556640625" lon="6.7734436132013797760009765625">
        <ele>1661.199951171875</ele>
        <time>2026-09-03T08:27:20.000Z</time>
        <extensions>
          <ns3:TrackPointExtension>
            <ns3:hr>146</ns3:hr>
            <ns3:cad>83</ns3:cad>
          </ns3:TrackPointExtension>
        </extensions>
      </trkpt>
      <trkpt lat="44.67026489786803722381591796875" lon="6.77348409779369831085205078125">
        <ele>1661.4000244140625</ele>
        <time>2026-09-03T08:27:21.000Z</time>
        <extensions>
          <ns3:TrackPointExtension>
            <ns3:hr>146</ns3:hr>
            <ns3:cad>82</ns3:cad>
          </ns3:TrackPointExtension>
        </extensions>
      </trkpt>
      <trkpt lat="44.6702720224857330322265625" lon="6.7735076509416103363037109375">
        <ele>1661.4000244140625</ele>
        <time>2026-09-03T08:27:22.000Z</time>
        <extensions>
          <ns3:TrackPointExtension>
            <ns3:hr>146</ns3:hr>
            <ns3:cad>82</ns3:cad>
          </ns3:TrackPointExtension>
        </extensions>
      </trkpt>
      <trkpt lat="44.670275039970874786376953125" lon="6.77355148829519748687744140625">
        <ele>1661.4000244140625</ele>
        <time>2026-09-03T08:27:23.000Z</time>
        <extensions>
          <ns3:TrackPointExtension>
            <ns3:hr>147</ns3:hr>
            <ns3:cad>82</ns3:cad>
          </ns3:TrackPointExtension>
        </extensions>
      </trkpt>
      <trkpt lat="44.67027277685701847076416015625" lon="6.7735824175179004669189453125">
        <ele>1661.4000244140625</ele>
        <time>2026-09-03T08:27:24.000Z</time>
        <extensions>
          <ns3:TrackPointExtension>
            <ns3:hr>147</ns3:hr>
            <ns3:cad>82</ns3:cad>
          </ns3:TrackPointExtension>
        </extensions>
      </trkpt>
      <trkpt lat="44.67027780599892139434814453125" lon="6.77361510694026947021484375">
        <ele>1661.199951171875</ele>
        <time>2026-09-03T08:27:25.000Z</time>
        <extensions>
          <ns3:TrackPointExtension>
            <ns3:hr>147</ns3:hr>
            <ns3:cad>82</ns3:cad>
          </ns3:TrackPointExtension>
        </extensions>
      </trkpt>
      <trkpt lat="44.67027596198022365570068359375" lon="6.773656345903873443603515625">
        <ele>1661.199951171875</ele>
        <time>2026-09-03T08:27:26.000Z</time>
        <extensions>
          <ns3:TrackPointExtension>
            <ns3:hr>148</ns3:hr>
            <ns3:cad>83</ns3:cad>
          </ns3:TrackPointExtension>
        </extensions>
      </trkpt>
      <trkpt lat="44.67027260921895503997802734375" lon="6.7736836709082126617431640625">
        <ele>1661.199951171875</ele>
        <time>2026-09-03T08:27:27.000Z</time>
        <extensions>
          <ns3:TrackPointExtension>
            <ns3:hr>148</ns3:hr>
            <ns3:cad>83</ns3:cad>
          </ns3:TrackPointExtension>
        </extensions>
      </trkpt>
      <trkpt lat="44.6702731959521770477294921875" lon="6.77371971309185028076171875">
        <ele>1661.199951171875</ele>
        <time>2026-09-03T08:27:28.000Z</time>
        <extensions>
          <ns3:TrackPointExtension>
            <ns3:hr>148</ns3:hr>
            <ns3:cad>83</ns3:cad>
          </ns3:TrackPointExtension>
        </extensions>
      </trkpt>
      <trkpt lat="44.67027227394282817840576171875" lon="6.7737540788948535919189453125">
        <ele>1661.199951171875</ele>
        <time>2026-09-03T08:27:29.000Z</time>
        <extensions>
          <ns3:TrackPointExtension>
            <ns3:hr>148</ns3:hr>
            <ns3:cad>83</ns3:cad>
          </ns3:TrackPointExtension>
        </extensions>
      </trkpt>
      <trkpt lat="44.6702762134373188018798828125" lon="6.7737842537462711334228515625">
        <ele>1661</ele>
        <time>2026-09-03T08:27:30.000Z</time>
        <extensions>
          <ns3:TrackPointExtension>
            <ns3:hr>148</ns3:hr>
            <ns3:cad>83</ns3:cad>
          </ns3:TrackPointExtension>
        </extensions>
      </trkpt>
      <trkpt lat="44.67027814127504825592041015625" lon="6.77382373251020908355712890625">
        <ele>1661</ele>
        <time>2026-09-03T08:27:31.000Z</time>
        <extensions>
          <ns3:TrackPointExtension>
            <ns3:hr>148</ns3:hr>
            <ns3:cad>83</ns3:cad>
          </ns3:TrackPointExtension>
        </extensions>
      </trkpt>
      <trkpt lat="44.67027671635150909423828125" lon="6.77385558374226093292236328125">
        <ele>1661</ele>
        <time>2026-09-03T08:27:32.000Z</time>
        <extensions>
          <ns3:TrackPointExtension>
            <ns3:hr>148</ns3:hr>
            <ns3:cad>83</ns3:cad>
          </ns3:TrackPointExtension>
        </extensions>
      </trkpt>
      <trkpt lat="44.67027864418923854827880859375" lon="6.77389045245945453643798828125">
        <ele>1660.800048828125</ele>
        <time>2026-09-03T08:27:33.000Z</time>
        <extensions>
          <ns3:TrackPointExtension>
            <ns3:hr>147</ns3:hr>
            <ns3:cad>83</ns3:cad>
          </ns3:TrackPointExtension>
        </extensions>
      </trkpt>
      <trkpt lat="44.67027965001761913299560546875" lon="6.77393001504242420196533203125">
        <ele>1660.800048828125</ele>
        <time>2026-09-03T08:27:34.000Z</time>
        <extensions>
          <ns3:TrackPointExtension>
            <ns3:hr>148</ns3:hr>
            <ns3:cad>83</ns3:cad>
          </ns3:TrackPointExtension>
        </extensions>
      </trkpt>
      <trkpt lat="44.6702800691127777099609375" lon="6.773961447179317474365234375">
        <ele>1660.800048828125</ele>
        <time>2026-09-03T08:27:35.000Z</time>
        <extensions>
          <ns3:TrackPointExtension>
            <ns3:hr>148</ns3:hr>
            <ns3:cad>82</ns3:cad>
          </ns3:TrackPointExtension>
        </extensions>
      </trkpt>
      <trkpt lat="44.67028015293180942535400390625" lon="6.77400042302906513214111328125">
        <ele>1660.800048828125</ele>
        <time>2026-09-03T08:27:36.000Z</time>
        <extensions>
          <ns3:TrackPointExtension>
            <ns3:hr>148</ns3:hr>
            <ns3:cad>82</ns3:cad>
          </ns3:TrackPointExtension>
        </extensions>
      </trkpt>
      <trkpt lat="44.67028048820793628692626953125" lon="6.77403881214559078216552734375">
        <ele>1660.5999755859375</ele>
        <time>2026-09-03T08:27:37.000Z</time>
        <extensions>
          <ns3:TrackPointExtension>
            <ns3:hr>147</ns3:hr>
            <ns3:cad>82</ns3:cad>
          </ns3:TrackPointExtension>
        </extensions>
      </trkpt>
      <trkpt lat="44.670283086597919464111328125" lon="6.7740719206631183624267578125">
        <ele>1660.5999755859375</ele>
        <time>2026-09-03T08:27:38.000Z</time>
        <extensions>
          <ns3:TrackPointExtension>
            <ns3:hr>148</ns3:hr>
            <ns3:cad>82</ns3:cad>
          </ns3:TrackPointExtension>
        </extensions>
      </trkpt>
      <trkpt lat="44.67028333805501461029052734375" lon="6.77411056123673915863037109375">
        <ele>1660.4000244140625</ele>
        <time>2026-09-03T08:27:39.000Z</time>
        <extensions>
          <ns3:TrackPointExtension>
            <ns3:hr>148</ns3:hr>
            <ns3:cad>82</ns3:cad>
          </ns3:TrackPointExtension>
        </extensions>
      </trkpt>
      <trkpt lat="44.67028585262596607208251953125" lon="6.77413755096495151519775390625">
        <ele>1660.4000244140625</ele>
        <time>2026-09-03T08:27:40.000Z</time>
        <extensions>
          <ns3:TrackPointExtension>
            <ns3:hr>148</ns3:hr>
            <ns3:cad>82</ns3:cad>
          </ns3:TrackPointExtension>
        </extensions>
      </trkpt>
      <trkpt lat="44.67029306106269359588623046875" lon="6.77416923455893993377685546875">
        <ele>1660.199951171875</ele>
        <time>2026-09-03T08:27:41.000Z</time>
        <extensions>
          <ns3:TrackPointExtension>
            <ns3:hr>147</ns3:hr>
            <ns3:cad>82</ns3:cad>
          </ns3:TrackPointExtension>
        </extensions>
      </trkpt>
      <trkpt lat="44.67029624618589878082275390625" lon="6.774208880960941314697265625">
        <ele>1660.199951171875</ele>
        <time>2026-09-03T08:27:42.000Z</time>
        <extensions>
          <ns3:TrackPointExtension>
            <ns3:hr>148</ns3:hr>
            <ns3:cad>82</ns3:cad>
          </ns3:TrackPointExtension>
        </extensions>
      </trkpt>
      <trkpt lat="44.67029825784265995025634765625" lon="6.77423997782170772552490234375">
        <ele>1660.199951171875</ele>
        <time>2026-09-03T08:27:43.000Z</time>
        <extensions>
          <ns3:TrackPointExtension>
            <ns3:hr>148</ns3:hr>
            <ns3:cad>82</ns3:cad>
          </ns3:TrackPointExtension>
        </extensions>
      </trkpt>
      <trkpt lat="44.6702993474900722503662109375" lon="6.77427367307245731353759765625">
        <ele>1660.199951171875</ele>
        <time>2026-09-03T08:27:44.000Z</time>
        <extensions>
          <ns3:TrackPointExtension>
            <ns3:hr>148</ns3:hr>
            <ns3:cad>83</ns3:cad>
          </ns3:TrackPointExtension>
        </extensions>
      </trkpt>
      <trkpt lat="44.6703016944229602813720703125" lon="6.7743066139519214630126953125">
        <ele>1660.199951171875</ele>
        <time>2026-09-03T08:27:45.000Z</time>
        <extensions>
          <ns3:TrackPointExtension>
            <ns3:hr>148</ns3:hr>
            <ns3:cad>83</ns3:cad>
          </ns3:TrackPointExtension>
        </extensions>
      </trkpt>
      <trkpt lat="44.6703095734119415283203125" lon="6.774336956441402435302734375">
        <ele>1660.199951171875</ele>
        <time>2026-09-03T08:27:46.000Z</time>
        <extensions>
          <ns3:TrackPointExtension>
            <ns3:hr>149</ns3:hr>
            <ns3:cad>83</ns3:cad>
          </ns3:TrackPointExtension>
        </extensions>
      </trkpt>
      <trkpt lat="44.67031954787671566009521484375" lon="6.774374507367610931396484375">
        <ele>1660.4000244140625</ele>
        <time>2026-09-03T08:27:47.000Z</time>
        <extensions>
          <ns3:TrackPointExtension>
            <ns3:hr>149</ns3:hr>
            <ns3:cad>83</ns3:cad>
          </ns3:TrackPointExtension>
        </extensions>
      </trkpt>
      <trkpt lat="44.6703243255615234375" lon="6.77440493367612361907958984375">
        <ele>1660.4000244140625</ele>
        <time>2026-09-03T08:27:48.000Z</time>
        <extensions>
          <ns3:TrackPointExtension>
            <ns3:hr>148</ns3:hr>
            <ns3:cad>83</ns3:cad>
          </ns3:TrackPointExtension>
        </extensions>
      </trkpt>
      <trkpt lat="44.67033304274082183837890625" lon="6.7744407244026660919189453125">
        <ele>1660.4000244140625</ele>
        <time>2026-09-03T08:27:49.000Z</time>
        <extensions>
          <ns3:TrackPointExtension>
            <ns3:hr>148</ns3:hr>
            <ns3:cad>83</ns3:cad>
          </ns3:TrackPointExtension>
        </extensions>
      </trkpt>
      <trkpt lat="44.6703442744910717010498046875" lon="6.774475090205669403076171875">
        <ele>1660.4000244140625</ele>
        <time>2026-09-03T08:27:50.000Z</time>
        <extensions>
          <ns3:TrackPointExtension>
            <ns3:hr>148</ns3:hr>
            <ns3:cad>83</ns3:cad>
          </ns3:TrackPointExtension>
        </extensions>
      </trkpt>
      <trkpt lat="44.67035508714616298675537109375" lon="6.77450199611485004425048828125">
        <ele>1660.4000244140625</ele>
        <time>2026-09-03T08:27:51.000Z</time>
        <extensions>
          <ns3:TrackPointExtension>
            <ns3:hr>147</ns3:hr>
            <ns3:cad>83</ns3:cad>
          </ns3:TrackPointExtension>
        </extensions>
      </trkpt>
      <trkpt lat="44.67036363668739795684814453125" lon="6.774538792669773101806640625">
        <ele>1660.4000244140625</ele>
        <time>2026-09-03T08:27:52.000Z</time>
        <extensions>
          <ns3:TrackPointExtension>
            <ns3:hr>147</ns3:hr>
            <ns3:cad>83</ns3:cad>
          </ns3:TrackPointExtension>
        </extensions>
      </trkpt>
      <trkpt lat="44.67036665417253971099853515625" lon="6.774569638073444366455078125">
        <ele>1660.4000244140625</ele>
        <time>2026-09-03T08:27:53.000Z</time>
        <extensions>
          <ns3:TrackPointExtension>
            <ns3:hr>147</ns3:hr>
            <ns3:cad>83</ns3:cad>
          </ns3:TrackPointExtension>
        </extensions>
      </trkpt>
      <trkpt lat="44.6703811548650264739990234375" lon="6.7746009863913059234619140625">
        <ele>1660.5999755859375</ele>
        <time>2026-09-03T08:27:54.000Z</time>
        <extensions>
          <ns3:TrackPointExtension>
            <ns3:hr>147</ns3:hr>
            <ns3:cad>83</ns3:cad>
          </ns3:TrackPointExtension>
        </extensions>
      </trkpt>
      <trkpt lat="44.67038710601627826690673828125" lon="6.77463971078395843505859375">
        <ele>1660.5999755859375</ele>
        <time>2026-09-03T08:27:55.000Z</time>
        <extensions>
          <ns3:TrackPointExtension>
            <ns3:hr>147</ns3:hr>
            <ns3:cad>83</ns3:cad>
          </ns3:TrackPointExtension>
        </extensions>
      </trkpt>
      <trkpt lat="44.67038995586335659027099609375" lon="6.77466594614088535308837890625">
        <ele>1660.5999755859375</ele>
        <time>2026-09-03T08:27:56.000Z</time>
        <extensions>
          <ns3:TrackPointExtension>
            <ns3:hr>148</ns3:hr>
            <ns3:cad>83</ns3:cad>
          </ns3:TrackPointExtension>
        </extensions>
      </trkpt>
      <trkpt lat="44.67039733193814754486083984375" lon="6.77470332942903041839599609375">
        <ele>1660.800048828125</ele>
        <time>2026-09-03T08:27:57.000Z</time>
        <extensions>
          <ns3:TrackPointExtension>
            <ns3:hr>148</ns3:hr>
            <ns3:cad>82</ns3:cad>
          </ns3:TrackPointExtension>
        </extensions>
      </trkpt>
      <trkpt lat="44.67039582319557666778564453125" lon="6.774737946689128875732421875">
        <ele>1660.800048828125</ele>
        <time>2026-09-03T08:27:58.000Z</time>
        <extensions>
          <ns3:TrackPointExtension>
            <ns3:hr>148</ns3:hr>
            <ns3:cad>82</ns3:cad>
          </ns3:TrackPointExtension>
        </extensions>
      </trkpt>
      <trkpt lat="44.670397080481052398681640625" lon="6.77476250566542148590087890625">
        <ele>1660.5999755859375</ele>
        <time>2026-09-03T08:27:59.000Z</time>
        <extensions>
          <ns3:TrackPointExtension>
            <ns3:hr>148</ns3:hr>
            <ns3:cad>82</ns3:cad>
          </ns3:TrackPointExtension>
        </extensions>
      </trkpt>
      <trkpt lat="44.6703994274139404296875" lon="6.77480190061032772064208984375">
        <ele>1660.800048828125</ele>
        <time>2026-09-03T08:28:00.000Z</time>
        <extensions>
          <ns3:TrackPointExtension>
            <ns3:hr>148</ns3:hr>
            <ns3:cad>82</ns3:cad>
          </ns3:TrackPointExtension>
        </extensions>
      </trkpt>
      <trkpt lat="44.67040152288973331451416015625" lon="6.774834506213665008544921875">
        <ele>1660.800048828125</ele>
        <time>2026-09-03T08:28:01.000Z</time>
        <extensions>
          <ns3:TrackPointExtension>
            <ns3:hr>148</ns3:hr>
            <ns3:cad>82</ns3:cad>
          </ns3:TrackPointExtension>
        </extensions>
      </trkpt>
      <trkpt lat="44.67040537856519222259521484375" lon="6.7748631723225116729736328125">
        <ele>1660.800048828125</ele>
        <time>2026-09-03T08:28:02.000Z</time>
        <extensions>
          <ns3:TrackPointExtension>
            <ns3:hr>148</ns3:hr>
            <ns3:cad>82</ns3:cad>
          </ns3:TrackPointExtension>
        </extensions>
      </trkpt>
      <trkpt lat="44.67040789313614368438720703125" lon="6.77489988505840301513671875">
        <ele>1660.800048828125</ele>
        <time>2026-09-03T08:28:03.000Z</time>
        <extensions>
          <ns3:TrackPointExtension>
            <ns3:hr>148</ns3:hr>
            <ns3:cad>82</ns3:cad>
          </ns3:TrackPointExtension>
        </extensions>
      </trkpt>
      <trkpt lat="44.6704133413732051849365234375" lon="6.7749273777008056640625">
        <ele>1661</ele>
        <time>2026-09-03T08:28:04.000Z</time>
        <extensions>
          <ns3:TrackPointExtension>
            <ns3:hr>149</ns3:hr>
            <ns3:cad>82</ns3:cad>
          </ns3:TrackPointExtension>
        </extensions>
      </trkpt>
      <trkpt lat="44.6704208850860595703125" lon="6.77497540600597858428955078125">
        <ele>1661</ele>
        <time>2026-09-03T08:28:05.000Z</time>
        <extensions>
          <ns3:TrackPointExtension>
            <ns3:hr>149</ns3:hr>
            <ns3:cad>82</ns3:cad>
          </ns3:TrackPointExtension>
        </extensions>
      </trkpt>
      <trkpt lat="44.67042415402829647064208984375" lon="6.7750039882957935333251953125">
        <ele>1661</ele>
        <time>2026-09-03T08:28:06.000Z</time>
        <extensions>
          <ns3:TrackPointExtension>
            <ns3:hr>149</ns3:hr>
            <ns3:cad>82</ns3:cad>
          </ns3:TrackPointExtension>
        </extensions>
      </trkpt>
      <trkpt lat="44.6704304404556751251220703125" lon="6.77503592334687709808349609375">
        <ele>1661</ele>
        <time>2026-09-03T08:28:07.000Z</time>
        <extensions>
          <ns3:TrackPointExtension>
            <ns3:hr>149</ns3:hr>
            <ns3:cad>83</ns3:cad>
          </ns3:TrackPointExtension>
        </extensions>
      </trkpt>
      <trkpt lat="44.6704334579408168792724609375" lon="6.7750770784914493560791015625">
        <ele>1661.199951171875</ele>
        <time>2026-09-03T08:28:08.000Z</time>
        <extensions>
          <ns3:TrackPointExtension>
            <ns3:hr>150</ns3:hr>
            <ns3:cad>83</ns3:cad>
          </ns3:TrackPointExtension>
        </extensions>
      </trkpt>
      <trkpt lat="44.67043496668338775634765625" lon="6.775108091533184051513671875">
        <ele>1661.199951171875</ele>
        <time>2026-09-03T08:28:09.000Z</time>
        <extensions>
          <ns3:TrackPointExtension>
            <ns3:hr>150</ns3:hr>
            <ns3:cad>83</ns3:cad>
          </ns3:TrackPointExtension>
        </extensions>
      </trkpt>
      <trkpt lat="44.67043974436819553375244140625" lon="6.7751397751271724700927734375">
        <ele>1661.4000244140625</ele>
        <time>2026-09-03T08:28:10.000Z</time>
        <extensions>
          <ns3:TrackPointExtension>
            <ns3:hr>150</ns3:hr>
            <ns3:cad>83</ns3:cad>
          </ns3:TrackPointExtension>
        </extensions>
      </trkpt>
      <trkpt lat="44.6704408340156078338623046875" lon="6.77517791278660297393798828125">
        <ele>1661.4000244140625</ele>
        <time>2026-09-03T08:28:11.000Z</time>
        <extensions>
          <ns3:TrackPointExtension>
            <ns3:hr>150</ns3:hr>
            <ns3:cad>83</ns3:cad>
          </ns3:TrackPointExtension>
        </extensions>
      </trkpt>
      <trkpt lat="44.670439660549163818359375" lon="6.775206662714481353759765625">
        <ele>1661.4000244140625</ele>
        <time>2026-09-03T08:28:12.000Z</time>
        <extensions>
          <ns3:TrackPointExtension>
            <ns3:hr>150</ns3:hr>
            <ns3:cad>82</ns3:cad>
          </ns3:TrackPointExtension>
        </extensions>
      </trkpt>
      <trkpt lat="44.67043630778789520263671875" lon="6.77524312399327754974365234375">
        <ele>1661.4000244140625</ele>
        <time>2026-09-03T08:28:13.000Z</time>
        <extensions>
          <ns3:TrackPointExtension>
            <ns3:hr>150</ns3:hr>
            <ns3:cad>82</ns3:cad>
          </ns3:TrackPointExtension>
        </extensions>
      </trkpt>
      <trkpt lat="44.67042968608438968658447265625" lon="6.77527681924402713775634765625">
        <ele>1661.4000244140625</ele>
        <time>2026-09-03T08:28:14.000Z</time>
        <extensions>
          <ns3:TrackPointExtension>
            <ns3:hr>150</ns3:hr>
            <ns3:cad>81</ns3:cad>
          </ns3:TrackPointExtension>
        </extensions>
      </trkpt>
      <trkpt lat="44.6704287640750408172607421875" lon="6.7753027193248271942138671875">
        <ele>1661.4000244140625</ele>
        <time>2026-09-03T08:28:15.000Z</time>
        <extensions>
          <ns3:TrackPointExtension>
            <ns3:hr>151</ns3:hr>
            <ns3:cad>81</ns3:cad>
          </ns3:TrackPointExtension>
        </extensions>
      </trkpt>
      <trkpt lat="44.67042398639023303985595703125" lon="6.77533901296555995941162109375">
        <ele>1661.199951171875</ele>
        <time>2026-09-03T08:28:16.000Z</time>
        <extensions>
          <ns3:TrackPointExtension>
            <ns3:hr>151</ns3:hr>
            <ns3:cad>82</ns3:cad>
          </ns3:TrackPointExtension>
        </extensions>
      </trkpt>
      <trkpt lat="44.6704173646867275238037109375" lon="6.7753711156547069549560546875">
        <ele>1661.199951171875</ele>
        <time>2026-09-03T08:28:17.000Z</time>
        <extensions>
          <ns3:TrackPointExtension>
            <ns3:hr>151</ns3:hr>
            <ns3:cad>82</ns3:cad>
          </ns3:TrackPointExtension>
        </extensions>
      </trkpt>
      <trkpt lat="44.6704126708209514617919921875" lon="6.77540724165737628936767578125">
        <ele>1661</ele>
        <time>2026-09-03T08:28:18.000Z</time>
        <extensions>
          <ns3:TrackPointExtension>
            <ns3:hr>151</ns3:hr>
            <ns3:cad>83</ns3:cad>
          </ns3:TrackPointExtension>
        </extensions>
      </trkpt>
      <trkpt lat="44.67040537856519222259521484375" lon="6.77544630132615566253662109375">
        <ele>1660.800048828125</ele>
        <time>2026-09-03T08:28:19.000Z</time>
        <extensions>
          <ns3:TrackPointExtension>
            <ns3:hr>151</ns3:hr>
            <ns3:cad>83</ns3:cad>
          </ns3:TrackPointExtension>
        </extensions>
      </trkpt>
      <trkpt lat="44.67039867304265499114990234375" lon="6.77547429688274860382080078125">
        <ele>1660.800048828125</ele>
        <time>2026-09-03T08:28:20.000Z</time>
        <extensions>
          <ns3:TrackPointExtension>
            <ns3:hr>151</ns3:hr>
            <ns3:cad>82</ns3:cad>
          </ns3:TrackPointExtension>
        </extensions>
      </trkpt>
      <trkpt lat="44.67038936913013458251953125" lon="6.77551209926605224609375">
        <ele>1660.5999755859375</ele>
        <time>2026-09-03T08:28:21.000Z</time>
        <extensions>
          <ns3:TrackPointExtension>
            <ns3:hr>151</ns3:hr>
            <ns3:cad>82</ns3:cad>
          </ns3:TrackPointExtension>
        </extensions>
      </trkpt>
      <trkpt lat="44.6703821606934070587158203125" lon="6.77554420195519924163818359375">
        <ele>1660.4000244140625</ele>
        <time>2026-09-03T08:28:22.000Z</time>
        <extensions>
          <ns3:TrackPointExtension>
            <ns3:hr>151</ns3:hr>
            <ns3:cad>82</ns3:cad>
          </ns3:TrackPointExtension>
        </extensions>
      </trkpt>
      <trkpt lat="44.67037587426602840423583984375" lon="6.77557638846337795257568359375">
        <ele>1660.4000244140625</ele>
        <time>2026-09-03T08:28:23.000Z</time>
        <extensions>
          <ns3:TrackPointExtension>
            <ns3:hr>151</ns3:hr>
            <ns3:cad>82</ns3:cad>
          </ns3:TrackPointExtension>
        </extensions>
      </trkpt>
      <trkpt lat="44.67036782763898372650146484375" lon="6.77561729215085506439208984375">
        <ele>1660.4000244140625</ele>
        <time>2026-09-03T08:28:24.000Z</time>
        <extensions>
          <ns3:TrackPointExtension>
            <ns3:hr>151</ns3:hr>
            <ns3:cad>82</ns3:cad>
          </ns3:TrackPointExtension>
        </extensions>
      </trkpt>
      <trkpt lat="44.6703617088496685028076171875" lon="6.7756517417728900909423828125">
        <ele>1660.199951171875</ele>
        <time>2026-09-03T08:28:25.000Z</time>
        <extensions>
          <ns3:TrackPointExtension>
            <ns3:hr>152</ns3:hr>
            <ns3:cad>82</ns3:cad>
          </ns3:TrackPointExtension>
        </extensions>
      </trkpt>
      <trkpt lat="44.670359529554843902587890625" lon="6.775684766471385955810546875">
        <ele>1660.199951171875</ele>
        <time>2026-09-03T08:28:26.000Z</time>
        <extensions>
          <ns3:TrackPointExtension>
            <ns3:hr>151</ns3:hr>
            <ns3:cad>82</ns3:cad>
          </ns3:TrackPointExtension>
        </extensions>
      </trkpt>
      <trkpt lat="44.67035257257521152496337890625" lon="6.7757241614162921905517578125">
        <ele>1660</ele>
        <time>2026-09-03T08:28:27.000Z</time>
        <extensions>
          <ns3:TrackPointExtension>
            <ns3:hr>151</ns3:hr>
            <ns3:cad>82</ns3:cad>
          </ns3:TrackPointExtension>
        </extensions>
      </trkpt>
      <trkpt lat="44.6703466214239597320556640625" lon="6.77575408481061458587646484375">
        <ele>1659.800048828125</ele>
        <time>2026-09-03T08:28:28.000Z</time>
        <extensions>
          <ns3:TrackPointExtension>
            <ns3:hr>151</ns3:hr>
            <ns3:cad>82</ns3:cad>
          </ns3:TrackPointExtension>
        </extensions>
      </trkpt>
      <trkpt lat="44.67034243047237396240234375" lon="6.7757932282984256744384765625">
        <ele>1659.5999755859375</ele>
        <time>2026-09-03T08:28:29.000Z</time>
        <extensions>
          <ns3:TrackPointExtension>
            <ns3:hr>151</ns3:hr>
            <ns3:cad>82</ns3:cad>
          </ns3:TrackPointExtension>
        </extensions>
      </trkpt>
      <trkpt lat="44.67033329419791698455810546875" lon="6.77583203651010990142822265625">
        <ele>1659.4000244140625</ele>
        <time>2026-09-03T08:28:30.000Z</time>
        <extensions>
          <ns3:TrackPointExtension>
            <ns3:hr>151</ns3:hr>
            <ns3:cad>83</ns3:cad>
          </ns3:TrackPointExtension>
        </extensions>
      </trkpt>
      <trkpt lat="44.6703295223414897918701171875" lon="6.77586355246603488922119140625">
        <ele>1659.4000244140625</ele>
        <time>2026-09-03T08:28:31.000Z</time>
        <extensions>
          <ns3:TrackPointExtension>
            <ns3:hr>151</ns3:hr>
            <ns3:cad>83</ns3:cad>
          </ns3:TrackPointExtension>
        </extensions>
      </trkpt>
      <trkpt lat="44.67032105661928653717041015625" lon="6.775902025401592254638671875">
        <ele>1659.199951171875</ele>
        <time>2026-09-03T08:28:32.000Z</time>
        <extensions>
          <ns3:TrackPointExtension>
            <ns3:hr>151</ns3:hr>
            <ns3:cad>83</ns3:cad>
          </ns3:TrackPointExtension>
        </extensions>
      </trkpt>
      <trkpt lat="44.67031158506870269775390625" lon="6.7759358882904052734375">
        <ele>1659.199951171875</ele>
        <time>2026-09-03T08:28:33.000Z</time>
        <extensions>
          <ns3:TrackPointExtension>
            <ns3:hr>151</ns3:hr>
            <ns3:cad>82</ns3:cad>
          </ns3:TrackPointExtension>
        </extensions>
      </trkpt>
      <trkpt lat="44.67030622065067291259765625" lon="6.77596815861761569976806640625">
        <ele>1659</ele>
        <time>2026-09-03T08:28:34.000Z</time>
        <extensions>
          <ns3:TrackPointExtension>
            <ns3:hr>150</ns3:hr>
            <ns3:cad>82</ns3:cad>
          </ns3:TrackPointExtension>
        </extensions>
      </trkpt>
      <trkpt lat="44.670296497642993927001953125" lon="6.7760074697434902191162109375">
        <ele>1658.800048828125</ele>
        <time>2026-09-03T08:28:35.000Z</time>
        <extensions>
          <ns3:TrackPointExtension>
            <ns3:hr>151</ns3:hr>
            <ns3:cad>81</ns3:cad>
          </ns3:TrackPointExtension>
        </extensions>
      </trkpt>
      <trkpt lat="44.67028702609241008758544921875" lon="6.77603554911911487579345703125">
        <ele>1658.800048828125</ele>
        <time>2026-09-03T08:28:36.000Z</time>
        <extensions>
          <ns3:TrackPointExtension>
            <ns3:hr>150</ns3:hr>
            <ns3:cad>81</ns3:cad>
          </ns3:TrackPointExtension>
        </extensions>
      </trkpt>
      <trkpt lat="44.670277051627635955810546875" lon="6.7760708369314670562744140625">
        <ele>1658.5999755859375</ele>
        <time>2026-09-03T08:28:37.000Z</time>
        <extensions>
          <ns3:TrackPointExtension>
            <ns3:hr>150</ns3:hr>
            <ns3:cad>82</ns3:cad>
          </ns3:TrackPointExtension>
        </extensions>
      </trkpt>
      <trkpt lat="44.67026573605835437774658203125" lon="6.77610210143029689788818359375">
        <ele>1658.4000244140625</ele>
        <time>2026-09-03T08:28:38.000Z</time>
        <extensions>
          <ns3:TrackPointExtension>
            <ns3:hr>150</ns3:hr>
            <ns3:cad>82</ns3:cad>
          </ns3:TrackPointExtension>
        </extensions>
      </trkpt>
      <trkpt lat="44.67025651596486568450927734375" lon="6.7761321924626827239990234375">
        <ele>1658.4000244140625</ele>
        <time>2026-09-03T08:28:39.000Z</time>
        <extensions>
          <ns3:TrackPointExtension>
            <ns3:hr>149</ns3:hr>
            <ns3:cad>82</ns3:cad>
          </ns3:TrackPointExtension>
        </extensions>
      </trkpt>
      <trkpt lat="44.670242853462696075439453125" lon="6.77616898901760578155517578125">
        <ele>1658.199951171875</ele>
        <time>2026-09-03T08:28:40.000Z</time>
        <extensions>
          <ns3:TrackPointExtension>
            <ns3:hr>149</ns3:hr>
            <ns3:cad>82</ns3:cad>
          </ns3:TrackPointExtension>
        </extensions>
      </trkpt>
      <trkpt lat="44.67023338191211223602294921875" lon="6.77619966678321361541748046875">
        <ele>1658.199951171875</ele>
        <time>2026-09-03T08:28:41.000Z</time>
        <extensions>
          <ns3:TrackPointExtension>
            <ns3:hr>149</ns3:hr>
            <ns3:cad>83</ns3:cad>
          </ns3:TrackPointExtension>
        </extensions>
      </trkpt>
      <trkpt lat="44.6702239103615283966064453125" lon="6.776231937110424041748046875">
        <ele>1658.199951171875</ele>
        <time>2026-09-03T08:28:42.000Z</time>
        <extensions>
          <ns3:TrackPointExtension>
            <ns3:hr>149</ns3:hr>
            <ns3:cad>83</ns3:cad>
          </ns3:TrackPointExtension>
        </extensions>
      </trkpt>
      <trkpt lat="44.670213349163532257080078125" lon="6.77626454271376132965087890625">
        <ele>1658</ele>
        <time>2026-09-03T08:28:43.000Z</time>
        <extensions>
          <ns3:TrackPointExtension>
            <ns3:hr>149</ns3:hr>
            <ns3:cad>83</ns3:cad>
          </ns3:TrackPointExtension>
        </extensions>
      </trkpt>
      <trkpt lat="44.6702063083648681640625" lon="6.7762897722423076629638671875">
        <ele>1658</ele>
        <time>2026-09-03T08:28:44.000Z</time>
        <extensions>
          <ns3:TrackPointExtension>
            <ns3:hr>149</ns3:hr>
            <ns3:cad>83</ns3:cad>
          </ns3:TrackPointExtension>
        </extensions>
      </trkpt>
      <trkpt lat="44.67019549570977687835693359375" lon="6.77632623352110385894775390625">
        <ele>1658</ele>
        <time>2026-09-03T08:28:45.000Z</time>
        <extensions>
          <ns3:TrackPointExtension>
            <ns3:hr>149</ns3:hr>
            <ns3:cad>83</ns3:cad>
          </ns3:TrackPointExtension>
        </extensions>
      </trkpt>
      <trkpt lat="44.67018208466470241546630859375" lon="6.77635624073445796966552734375">
        <ele>1658</ele>
        <time>2026-09-03T08:28:46.000Z</time>
        <extensions>
          <ns3:TrackPointExtension>
            <ns3:hr>149</ns3:hr>
            <ns3:cad>83</ns3:cad>
          </ns3:TrackPointExtension>
        </extensions>
      </trkpt>
      <trkpt lat="44.67017135582864284515380859375" lon="6.77639194764196872711181640625">
        <ele>1658</ele>
        <time>2026-09-03T08:28:47.000Z</time>
        <extensions>
          <ns3:TrackPointExtension>
            <ns3:hr>149</ns3:hr>
            <ns3:cad>83</ns3:cad>
          </ns3:TrackPointExtension>
        </extensions>
      </trkpt>
      <trkpt lat="44.67015693895518779754638671875" lon="6.7764238826930522918701171875">
        <ele>1657.800048828125</ele>
        <time>2026-09-03T08:28:48.000Z</time>
        <extensions>
          <ns3:TrackPointExtension>
            <ns3:hr>148</ns3:hr>
            <ns3:cad>83</ns3:cad>
          </ns3:TrackPointExtension>
        </extensions>
      </trkpt>
      <trkpt lat="44.67014268971979618072509765625" lon="6.77645313553512096405029296875">
        <ele>1657.800048828125</ele>
        <time>2026-09-03T08:28:49.000Z</time>
        <extensions>
          <ns3:TrackPointExtension>
            <ns3:hr>148</ns3:hr>
            <ns3:cad>83</ns3:cad>
          </ns3:TrackPointExtension>
        </extensions>
      </trkpt>
      <trkpt lat="44.67012424953281879425048828125" lon="6.7764909379184246063232421875">
        <ele>1657.800048828125</ele>
        <time>2026-09-03T08:28:50.000Z</time>
        <extensions>
          <ns3:TrackPointExtension>
            <ns3:hr>148</ns3:hr>
            <ns3:cad>83</ns3:cad>
          </ns3:TrackPointExtension>
        </extensions>
      </trkpt>
      <trkpt lat="44.67010547406971454620361328125" lon="6.77651750855147838592529296875">
        <ele>1657.800048828125</ele>
        <time>2026-09-03T08:28:51.000Z</time>
        <extensions>
          <ns3:TrackPointExtension>
            <ns3:hr>148</ns3:hr>
            <ns3:cad>83</ns3:cad>
          </ns3:TrackPointExtension>
        </extensions>
      </trkpt>
      <trkpt lat="44.67009038664400577545166015625" lon="6.7765479348599910736083984375">
        <ele>1657.800048828125</ele>
        <time>2026-09-03T08:28:52.000Z</time>
        <extensions>
          <ns3:TrackPointExtension>
            <ns3:hr>148</ns3:hr>
            <ns3:cad>84</ns3:cad>
          </ns3:TrackPointExtension>
        </extensions>
      </trkpt>
      <trkpt lat="44.67007420957088470458984375" lon="6.77658355794847011566162109375">
        <ele>1657.5999755859375</ele>
        <time>2026-09-03T08:28:53.000Z</time>
        <extensions>
          <ns3:TrackPointExtension>
            <ns3:hr>148</ns3:hr>
            <ns3:cad>84</ns3:cad>
          </ns3:TrackPointExtension>
        </extensions>
      </trkpt>
      <trkpt lat="44.67006071470677852630615234375" lon="6.77661272697150707244873046875">
        <ele>1657.5999755859375</ele>
        <time>2026-09-03T08:28:54.000Z</time>
        <extensions>
          <ns3:TrackPointExtension>
            <ns3:hr>148</ns3:hr>
            <ns3:cad>84</ns3:cad>
          </ns3:TrackPointExtension>
        </extensions>
      </trkpt>
      <trkpt lat="44.67004495672881603240966796875" lon="6.77664608694612979888916015625">
        <ele>1657.800048828125</ele>
        <time>2026-09-03T08:28:55.000Z</time>
        <extensions>
          <ns3:TrackPointExtension>
            <ns3:hr>148</ns3:hr>
            <ns3:cad>83</ns3:cad>
          </ns3:TrackPointExtension>
        </extensions>
      </trkpt>
      <trkpt lat="44.6700264327228069305419921875" lon="6.77667626179754734039306640625">
        <ele>1657.800048828125</ele>
        <time>2026-09-03T08:28:56.000Z</time>
        <extensions>
          <ns3:TrackPointExtension>
            <ns3:hr>148</ns3:hr>
            <ns3:cad>83</ns3:cad>
          </ns3:TrackPointExtension>
        </extensions>
      </trkpt>
      <trkpt lat="44.67000824399292469024658203125" lon="6.7767038382589817047119140625">
        <ele>1657.800048828125</ele>
        <time>2026-09-03T08:28:57.000Z</time>
        <extensions>
          <ns3:TrackPointExtension>
            <ns3:hr>148</ns3:hr>
            <ns3:cad>83</ns3:cad>
          </ns3:TrackPointExtension>
        </extensions>
      </trkpt>
      <trkpt lat="44.669991396367549896240234375" lon="6.77673744969069957733154296875">
        <ele>1657.800048828125</ele>
        <time>2026-09-03T08:28:58.000Z</time>
        <extensions>
          <ns3:TrackPointExtension>
            <ns3:hr>148</ns3:hr>
            <ns3:cad>83</ns3:cad>
          </ns3:TrackPointExtension>
        </extensions>
      </trkpt>
      <trkpt lat="44.66997588984668254852294921875" lon="6.7767633497714996337890625">
        <ele>1657.800048828125</ele>
        <time>2026-09-03T08:28:59.000Z</time>
        <extensions>
          <ns3:TrackPointExtension>
            <ns3:hr>148</ns3:hr>
            <ns3:cad>83</ns3:cad>
          </ns3:TrackPointExtension>
        </extensions>
      </trkpt>
      <trkpt lat="44.66995812021195888519287109375" lon="6.77679209969937801361083984375">
        <ele>1657.800048828125</ele>
        <time>2026-09-03T08:29:00.000Z</time>
        <extensions>
          <ns3:TrackPointExtension>
            <ns3:hr>148</ns3:hr>
            <ns3:cad>82</ns3:cad>
          </ns3:TrackPointExtension>
        </extensions>
      </trkpt>
      <trkpt lat="44.66993498615920543670654296875" lon="6.7768161557614803314208984375">
        <ele>1657.800048828125</ele>
        <time>2026-09-03T08:29:01.000Z</time>
        <extensions>
          <ns3:TrackPointExtension>
            <ns3:hr>148</ns3:hr>
            <ns3:cad>83</ns3:cad>
          </ns3:TrackPointExtension>
        </extensions>
      </trkpt>
      <trkpt lat="44.66992308385670185089111328125" lon="6.77684247493743896484375">
        <ele>1657.5999755859375</ele>
        <time>2026-09-03T08:29:02.000Z</time>
        <extensions>
          <ns3:TrackPointExtension>
            <ns3:hr>148</ns3:hr>
            <ns3:cad>83</ns3:cad>
          </ns3:TrackPointExtension>
        </extensions>
      </trkpt>
      <trkpt lat="44.66990162618458271026611328125" lon="6.77687256596982479095458984375">
        <ele>1657.5999755859375</ele>
        <time>2026-09-03T08:29:03.000Z</time>
        <extensions>
          <ns3:TrackPointExtension>
            <ns3:hr>148</ns3:hr>
            <ns3:cad>83</ns3:cad>
          </ns3:TrackPointExtension>
        </extensions>
      </trkpt>
      <trkpt lat="44.66988000087440013885498046875" lon="6.7768959514796733856201171875">
        <ele>1657.800048828125</ele>
        <time>2026-09-03T08:29:04.000Z</time>
        <extensions>
          <ns3:TrackPointExtension>
            <ns3:hr>148</ns3:hr>
            <ns3:cad>83</ns3:cad>
          </ns3:TrackPointExtension>
        </extensions>
      </trkpt>
      <trkpt lat="44.66986524872481822967529296875" lon="6.7769167385995388031005859375">
        <ele>1657.800048828125</ele>
        <time>2026-09-03T08:29:05.000Z</time>
        <extensions>
          <ns3:TrackPointExtension>
            <ns3:hr>147</ns3:hr>
            <ns3:cad>82</ns3:cad>
          </ns3:TrackPointExtension>
        </extensions>
      </trkpt>
      <trkpt lat="44.66984479688107967376708984375" lon="6.77694280631840229034423828125">
        <ele>1657.800048828125</ele>
        <time>2026-09-03T08:29:06.000Z</time>
        <extensions>
          <ns3:TrackPointExtension>
            <ns3:hr>147</ns3:hr>
            <ns3:cad>82</ns3:cad>
          </ns3:TrackPointExtension>
        </extensions>
      </trkpt>
      <trkpt lat="44.6698356606066226959228515625" lon="6.77696409635245800018310546875">
        <ele>1657.800048828125</ele>
        <time>2026-09-03T08:29:07.000Z</time>
        <extensions>
          <ns3:TrackPointExtension>
            <ns3:hr>147</ns3:hr>
            <ns3:cad>82</ns3:cad>
          </ns3:TrackPointExtension>
        </extensions>
      </trkpt>
      <trkpt lat="44.66981671750545501708984375" lon="6.77699376828968524932861328125">
        <ele>1657.800048828125</ele>
        <time>2026-09-03T08:29:08.000Z</time>
        <extensions>
          <ns3:TrackPointExtension>
            <ns3:hr>147</ns3:hr>
            <ns3:cad>82</ns3:cad>
          </ns3:TrackPointExtension>
        </extensions>
      </trkpt>
      <trkpt lat="44.66980221681296825408935546875" lon="6.7770173214375972747802734375">
        <ele>1657.800048828125</ele>
        <time>2026-09-03T08:29:09.000Z</time>
        <extensions>
          <ns3:TrackPointExtension>
            <ns3:hr>147</ns3:hr>
            <ns3:cad>82</ns3:cad>
          </ns3:TrackPointExtension>
        </extensions>
      </trkpt>
      <trkpt lat="44.66978930868208408355712890625" lon="6.777042634785175323486328125">
        <ele>1657.800048828125</ele>
        <time>2026-09-03T08:29:10.000Z</time>
        <extensions>
          <ns3:TrackPointExtension>
            <ns3:hr>147</ns3:hr>
            <ns3:cad>82</ns3:cad>
          </ns3:TrackPointExtension>
        </extensions>
      </trkpt>
      <trkpt lat="44.66976181603968143463134765625" lon="6.77706736139953136444091796875">
        <ele>1657.800048828125</ele>
        <time>2026-09-03T08:29:11.000Z</time>
        <extensions>
          <ns3:TrackPointExtension>
            <ns3:hr>147</ns3:hr>
            <ns3:cad>82</ns3:cad>
          </ns3:TrackPointExtension>
        </extensions>
      </trkpt>
      <trkpt lat="44.669741950929164886474609375" lon="6.77707876078784465789794921875">
        <ele>1657.5999755859375</ele>
        <time>2026-09-03T08:29:12.000Z</time>
        <extensions>
          <ns3:TrackPointExtension>
            <ns3:hr>147</ns3:hr>
            <ns3:cad>82</ns3:cad>
          </ns3:TrackPointExtension>
        </extensions>
      </trkpt>
      <trkpt lat="44.66972107999026775360107421875" lon="6.77709820680320262908935546875">
        <ele>1657.4000244140625</ele>
        <time>2026-09-03T08:29:13.000Z</time>
        <extensions>
          <ns3:TrackPointExtension>
            <ns3:hr>147</ns3:hr>
            <ns3:cad>83</ns3:cad>
          </ns3:TrackPointExtension>
        </extensions>
      </trkpt>
      <trkpt lat="44.66969375498592853546142578125" lon="6.77711631171405315399169921875">
        <ele>1657.4000244140625</ele>
        <time>2026-09-03T08:29:14.000Z</time>
        <extensions>
          <ns3:TrackPointExtension>
            <ns3:hr>147</ns3:hr>
            <ns3:cad>84</ns3:cad>
          </ns3:TrackPointExtension>
        </extensions>
      </trkpt>
      <trkpt lat="44.6696807630360126495361328125" lon="6.77713684737682342529296875">
        <ele>1657.199951171875</ele>
        <time>2026-09-03T08:29:15.000Z</time>
        <extensions>
          <ns3:TrackPointExtension>
            <ns3:hr>147</ns3:hr>
            <ns3:cad>84</ns3:cad>
          </ns3:TrackPointExtension>
        </extensions>
      </trkpt>
      <trkpt lat="44.66965402476489543914794921875" lon="6.77715419791638851165771484375">
        <ele>1657</ele>
        <time>2026-09-03T08:29:16.000Z</time>
        <extensions>
          <ns3:TrackPointExtension>
            <ns3:hr>147</ns3:hr>
            <ns3:cad>83</ns3:cad>
          </ns3:TrackPointExtension>
        </extensions>
      </trkpt>
      <trkpt lat="44.66963231563568115234375" lon="6.77716626785695552825927734375">
        <ele>1657</ele>
        <time>2026-09-03T08:29:17.000Z</time>
        <extensions>
          <ns3:TrackPointExtension>
            <ns3:hr>147</ns3:hr>
            <ns3:cad>83</ns3:cad>
          </ns3:TrackPointExtension>
        </extensions>
      </trkpt>
      <trkpt lat="44.669615216553211212158203125" lon="6.7771876417100429534912109375">
        <ele>1657.199951171875</ele>
        <time>2026-09-03T08:29:18.000Z</time>
        <extensions>
          <ns3:TrackPointExtension>
            <ns3:hr>147</ns3:hr>
            <ns3:cad>83</ns3:cad>
          </ns3:TrackPointExtension>
        </extensions>
      </trkpt>
      <trkpt lat="44.66958495788276195526123046875" lon="6.77720616571605205535888671875">
        <ele>1657.199951171875</ele>
        <time>2026-09-03T08:29:19.000Z</time>
        <extensions>
          <ns3:TrackPointExtension>
            <ns3:hr>147</ns3:hr>
            <ns3:cad>83</ns3:cad>
          </ns3:TrackPointExtension>
        </extensions>
      </trkpt>
      <trkpt lat="44.66956593096256256103515625" lon="6.77721790038049221038818359375">
        <ele>1657.199951171875</ele>
        <time>2026-09-03T08:29:20.000Z</time>
        <extensions>
          <ns3:TrackPointExtension>
            <ns3:hr>147</ns3:hr>
            <ns3:cad>83</ns3:cad>
          </ns3:TrackPointExtension>
        </extensions>
      </trkpt>
      <trkpt lat="44.66954179108142852783203125" lon="6.77723667584359645843505859375">
        <ele>1657.199951171875</ele>
        <time>2026-09-03T08:29:21.000Z</time>
        <extensions>
          <ns3:TrackPointExtension>
            <ns3:hr>147</ns3:hr>
            <ns3:cad>82</ns3:cad>
          </ns3:TrackPointExtension>
        </extensions>
      </trkpt>
      <trkpt lat="44.6695151366293430328369140625" lon="6.77725084125995635986328125">
        <ele>1657.199951171875</ele>
        <time>2026-09-03T08:29:22.000Z</time>
        <extensions>
          <ns3:TrackPointExtension>
            <ns3:hr>147</ns3:hr>
            <ns3:cad>82</ns3:cad>
          </ns3:TrackPointExtension>
        </extensions>
      </trkpt>
      <trkpt lat="44.66949963010847568511962890625" lon="6.77726902998983860015869140625">
        <ele>1657.199951171875</ele>
        <time>2026-09-03T08:29:23.000Z</time>
        <extensions>
          <ns3:TrackPointExtension>
            <ns3:hr>147</ns3:hr>
            <ns3:cad>82</ns3:cad>
          </ns3:TrackPointExtension>
        </extensions>
      </trkpt>
      <trkpt lat="44.6694728918373584747314453125" lon="6.77728973329067230224609375">
        <ele>1657</ele>
        <time>2026-09-03T08:29:24.000Z</time>
        <extensions>
          <ns3:TrackPointExtension>
            <ns3:hr>147</ns3:hr>
            <ns3:cad>82</ns3:cad>
          </ns3:TrackPointExtension>
        </extensions>
      </trkpt>
      <trkpt lat="44.669451601803302764892578125" lon="6.77730716764926910400390625">
        <ele>1657</ele>
        <time>2026-09-03T08:29:25.000Z</time>
        <extensions>
          <ns3:TrackPointExtension>
            <ns3:hr>147</ns3:hr>
            <ns3:cad>82</ns3:cad>
          </ns3:TrackPointExtension>
        </extensions>
      </trkpt>
      <trkpt lat="44.6694336645305156707763671875" lon="6.77733088843524456024169921875">
        <ele>1657.199951171875</ele>
        <time>2026-09-03T08:29:26.000Z</time>
        <extensions>
          <ns3:TrackPointExtension>
            <ns3:hr>146</ns3:hr>
            <ns3:cad>82</ns3:cad>
          </ns3:TrackPointExtension>
        </extensions>
      </trkpt>
      <trkpt lat="44.66940826736390590667724609375" lon="6.77735385484993457794189453125">
        <ele>1657.199951171875</ele>
        <time>2026-09-03T08:29:27.000Z</time>
        <extensions>
          <ns3:TrackPointExtension>
            <ns3:hr>147</ns3:hr>
            <ns3:cad>82</ns3:cad>
          </ns3:TrackPointExtension>
        </extensions>
      </trkpt>
      <trkpt lat="44.6693971194326877593994140625" lon="6.77737564779818058013916015625">
        <ele>1657.199951171875</ele>
        <time>2026-09-03T08:29:28.000Z</time>
        <extensions>
          <ns3:TrackPointExtension>
            <ns3:hr>147</ns3:hr>
            <ns3:cad>82</ns3:cad>
          </ns3:TrackPointExtension>
        </extensions>
      </trkpt>
      <trkpt lat="44.66937608085572719573974609375" lon="6.77740749903023242950439453125">
        <ele>1657.199951171875</ele>
        <time>2026-09-03T08:29:29.000Z</time>
        <extensions>
          <ns3:TrackPointExtension>
            <ns3:hr>147</ns3:hr>
            <ns3:cad>82</ns3:cad>
          </ns3:TrackPointExtension>
        </extensions>
      </trkpt>
      <trkpt lat="44.66935613192617893218994140625" lon="6.7774307169020175933837890625">
        <ele>1657</ele>
        <time>2026-09-03T08:29:30.000Z</time>
        <extensions>
          <ns3:TrackPointExtension>
            <ns3:hr>146</ns3:hr>
            <ns3:cad>82</ns3:cad>
          </ns3:TrackPointExtension>
        </extensions>
      </trkpt>
      <trkpt lat="44.66934389434754848480224609375" lon="6.77744890563189983367919921875">
        <ele>1657</ele>
        <time>2026-09-03T08:29:31.000Z</time>
        <extensions>
          <ns3:TrackPointExtension>
            <ns3:hr>146</ns3:hr>
            <ns3:cad>82</ns3:cad>
          </ns3:TrackPointExtension>
        </extensions>
      </trkpt>
      <trkpt lat="44.66932528652250766754150390625" lon="6.777466423809528350830078125">
        <ele>1657</ele>
        <time>2026-09-03T08:29:32.000Z</time>
        <extensions>
          <ns3:TrackPointExtension>
            <ns3:hr>146</ns3:hr>
            <ns3:cad>82</ns3:cad>
          </ns3:TrackPointExtension>
        </extensions>
      </trkpt>
      <trkpt lat="44.66930131427943706512451171875" lon="6.77747639827430248260498046875">
        <ele>1657</ele>
        <time>2026-09-03T08:29:33.000Z</time>
        <extensions>
          <ns3:TrackPointExtension>
            <ns3:hr>147</ns3:hr>
            <ns3:cad>82</ns3:cad>
          </ns3:TrackPointExtension>
        </extensions>
      </trkpt>
      <trkpt lat="44.66928253881633281707763671875" lon="6.77749198861420154571533203125">
        <ele>1657.199951171875</ele>
        <time>2026-09-03T08:29:34.000Z</time>
        <extensions>
          <ns3:TrackPointExtension>
            <ns3:hr>146</ns3:hr>
            <ns3:cad>82</ns3:cad>
          </ns3:TrackPointExtension>
        </extensions>
      </trkpt>
      <trkpt lat="44.66925554908812046051025390625" lon="6.7775063216686248779296875">
        <ele>1657.199951171875</ele>
        <time>2026-09-03T08:29:35.000Z</time>
        <extensions>
          <ns3:TrackPointExtension>
            <ns3:hr>146</ns3:hr>
            <ns3:cad>82</ns3:cad>
          </ns3:TrackPointExtension>
        </extensions>
      </trkpt>
      <trkpt lat="44.66923593543469905853271484375" lon="6.77752308547496795654296875">
        <ele>1657.199951171875</ele>
        <time>2026-09-03T08:29:36.000Z</time>
        <extensions>
          <ns3:TrackPointExtension>
            <ns3:hr>146</ns3:hr>
            <ns3:cad>82</ns3:cad>
          </ns3:TrackPointExtension>
        </extensions>
      </trkpt>
      <trkpt lat="44.66921313665807247161865234375" lon="6.77754194475710391998291015625">
        <ele>1657</ele>
        <time>2026-09-03T08:29:37.000Z</time>
        <extensions>
          <ns3:TrackPointExtension>
            <ns3:hr>147</ns3:hr>
            <ns3:cad>83</ns3:cad>
          </ns3:TrackPointExtension>
        </extensions>
      </trkpt>
      <trkpt lat="44.669186733663082122802734375" lon="6.7775638215243816375732421875">
        <ele>1656.800048828125</ele>
        <time>2026-09-03T08:29:38.000Z</time>
        <extensions>
          <ns3:TrackPointExtension>
            <ns3:hr>146</ns3:hr>
            <ns3:cad>83</ns3:cad>
          </ns3:TrackPointExtension>
        </extensions>
      </trkpt>
      <trkpt lat="44.66917424462735652923583984375" lon="6.77758536301553249359130859375">
        <ele>1656.800048828125</ele>
        <time>2026-09-03T08:29:39.000Z</time>
        <extensions>
          <ns3:TrackPointExtension>
            <ns3:hr>146</ns3:hr>
            <ns3:cad>82</ns3:cad>
          </ns3:TrackPointExtension>
        </extensions>
      </trkpt>
      <trkpt lat="44.66914524324238300323486328125" lon="6.7776003666222095489501953125">
        <ele>1656.5999755859375</ele>
        <time>2026-09-03T08:29:40.000Z</time>
        <extensions>
          <ns3:TrackPointExtension>
            <ns3:hr>146</ns3:hr>
            <ns3:cad>82</ns3:cad>
          </ns3:TrackPointExtension>
        </extensions>
      </trkpt>
      <trkpt lat="44.6691228635609149932861328125" lon="6.77761520259082317352294921875">
        <ele>1656.800048828125</ele>
        <time>2026-09-03T08:29:41.000Z</time>
        <extensions>
          <ns3:TrackPointExtension>
            <ns3:hr>147</ns3:hr>
            <ns3:cad>81</ns3:cad>
          </ns3:TrackPointExtension>
        </extensions>
      </trkpt>
      <trkpt lat="44.66910450719296932220458984375" lon="6.77762978710234165191650390625">
        <ele>1656.800048828125</ele>
        <time>2026-09-03T08:29:42.000Z</time>
        <extensions>
          <ns3:TrackPointExtension>
            <ns3:hr>148</ns3:hr>
            <ns3:cad>81</ns3:cad>
          </ns3:TrackPointExtension>
        </extensions>
      </trkpt>
      <trkpt lat="44.66907952912151813507080078125" lon="6.777644120156764984130859375">
        <ele>1657</ele>
        <time>2026-09-03T08:29:43.000Z</time>
        <extensions>
          <ns3:TrackPointExtension>
            <ns3:hr>148</ns3:hr>
            <ns3:cad>82</ns3:cad>
          </ns3:TrackPointExtension>
        </extensions>
      </trkpt>
      <trkpt lat="44.66906745918095111846923828125" lon="6.7776600457727909088134765625">
        <ele>1657</ele>
        <time>2026-09-03T08:29:44.000Z</time>
        <extensions>
          <ns3:TrackPointExtension>
            <ns3:hr>149</ns3:hr>
            <ns3:cad>82</ns3:cad>
          </ns3:TrackPointExtension>
        </extensions>
      </trkpt>
      <trkpt lat="44.66905337758362293243408203125" lon="6.7776664160192012786865234375">
        <ele>1657</ele>
        <time>2026-09-03T08:29:45.000Z</time>
        <extensions>
          <ns3:TrackPointExtension>
            <ns3:hr>149</ns3:hr>
            <ns3:cad>82</ns3:cad>
          </ns3:TrackPointExtension>
        </extensions>
      </trkpt>
      <trkpt lat="44.6690353564918041229248046875" lon="6.77767102606594562530517578125">
        <ele>1657</ele>
        <time>2026-09-03T08:29:46.000Z</time>
        <extensions>
          <ns3:TrackPointExtension>
            <ns3:hr>149</ns3:hr>
            <ns3:cad>82</ns3:cad>
          </ns3:TrackPointExtension>
        </extensions>
      </trkpt>
      <trkpt lat="44.6690236218273639678955078125" lon="6.7776801623404026031494140625">
        <ele>1657</ele>
        <time>2026-09-03T08:29:47.000Z</time>
        <extensions>
          <ns3:TrackPointExtension>
            <ns3:hr>149</ns3:hr>
            <ns3:cad>82</ns3:cad>
          </ns3:TrackPointExtension>
        </extensions>
      </trkpt>
      <trkpt lat="44.66900392435491085052490234375" lon="6.77768091671168804168701171875">
        <ele>1657</ele>
        <time>2026-09-03T08:29:48.000Z</time>
        <extensions>
          <ns3:TrackPointExtension>
            <ns3:hr>149</ns3:hr>
            <ns3:cad>82</ns3:cad>
          </ns3:TrackPointExtension>
        </extensions>
      </trkpt>
      <trkpt lat="44.66899403370916843414306640625" lon="6.77769131027162075042724609375">
        <ele>1657</ele>
        <time>2026-09-03T08:29:49.000Z</time>
        <extensions>
          <ns3:TrackPointExtension>
            <ns3:hr>150</ns3:hr>
            <ns3:cad>82</ns3:cad>
          </ns3:TrackPointExtension>
        </extensions>
      </trkpt>
      <trkpt lat="44.668978191912174224853515625" lon="6.777706481516361236572265625">
        <ele>1656.800048828125</ele>
        <time>2026-09-03T08:29:50.000Z</time>
        <extensions>
          <ns3:TrackPointExtension>
            <ns3:hr>150</ns3:hr>
            <ns3:cad>82</ns3:cad>
          </ns3:TrackPointExtension>
        </extensions>
      </trkpt>
      <trkpt lat="44.66895882971584796905517578125" lon="6.7777254246175289154052734375">
        <ele>1656.800048828125</ele>
        <time>2026-09-03T08:29:51.000Z</time>
        <extensions>
          <ns3:TrackPointExtension>
            <ns3:hr>150</ns3:hr>
            <ns3:cad>81</ns3:cad>
          </ns3:TrackPointExtension>
        </extensions>
      </trkpt>
      <trkpt lat="44.66893737204372882843017578125" lon="6.777740679681301116943359375">
        <ele>1657</ele>
        <time>2026-09-03T08:29:52.000Z</time>
        <extensions>
          <ns3:TrackPointExtension>
            <ns3:hr>150</ns3:hr>
            <ns3:cad>81</ns3:cad>
          </ns3:TrackPointExtension>
        </extensions>
      </trkpt>
      <trkpt lat="44.66891507618129253387451171875" lon="6.77775601856410503387451171875">
        <ele>1657</ele>
        <time>2026-09-03T08:29:53.000Z</time>
        <extensions>
          <ns3:TrackPointExtension>
            <ns3:hr>150</ns3:hr>
            <ns3:cad>81</ns3:cad>
          </ns3:TrackPointExtension>
        </extensions>
      </trkpt>
      <trkpt lat="44.6688928641378879547119140625" lon="6.77777211181819438934326171875">
        <ele>1656.800048828125</ele>
        <time>2026-09-03T08:29:54.000Z</time>
        <extensions>
          <ns3:TrackPointExtension>
            <ns3:hr>150</ns3:hr>
            <ns3:cad>81</ns3:cad>
          </ns3:TrackPointExtension>
        </extensions>
      </trkpt>
      <trkpt lat="44.66887014918029308319091796875" lon="6.77778384648263454437255859375">
        <ele>1656.800048828125</ele>
        <time>2026-09-03T08:29:55.000Z</time>
        <extensions>
          <ns3:TrackPointExtension>
            <ns3:hr>149</ns3:hr>
            <ns3:cad>81</ns3:cad>
          </ns3:TrackPointExtension>
        </extensions>
      </trkpt>
      <trkpt lat="44.668843746185302734375" lon="6.777797006070613861083984375">
        <ele>1656.800048828125</ele>
        <time>2026-09-03T08:29:56.000Z</time>
        <extensions>
          <ns3:TrackPointExtension>
            <ns3:hr>150</ns3:hr>
            <ns3:cad>81</ns3:cad>
          </ns3:TrackPointExtension>
        </extensions>
      </trkpt>
      <trkpt lat="44.6688155829906463623046875" lon="6.77781150676310062408447265625">
        <ele>1656.5999755859375</ele>
        <time>2026-09-03T08:29:57.000Z</time>
        <extensions>
          <ns3:TrackPointExtension>
            <ns3:hr>150</ns3:hr>
            <ns3:cad>82</ns3:cad>
          </ns3:TrackPointExtension>
        </extensions>
      </trkpt>
      <trkpt lat="44.6687778644263744354248046875" lon="6.777827180922031402587890625">
        <ele>1656.5999755859375</ele>
        <time>2026-09-03T08:29:58.000Z</time>
        <extensions>
          <ns3:TrackPointExtension>
            <ns3:hr>149</ns3:hr>
            <ns3:cad>82</ns3:cad>
          </ns3:TrackPointExtension>
        </extensions>
      </trkpt>
      <trkpt lat="44.66874827630817890167236328125" lon="6.77784226834774017333984375">
        <ele>1656.5999755859375</ele>
        <time>2026-09-03T08:29:59.000Z</time>
        <extensions>
          <ns3:TrackPointExtension>
            <ns3:hr>150</ns3:hr>
            <ns3:cad>82</ns3:cad>
          </ns3:TrackPointExtension>
        </extensions>
      </trkpt>
      <trkpt lat="44.66872598044574260711669921875" lon="6.77785458974540233612060546875">
        <ele>1656.5999755859375</ele>
        <time>2026-09-03T08:30:00.000Z</time>
        <extensions>
          <ns3:TrackPointExtension>
            <ns3:hr>150</ns3:hr>
            <ns3:cad>82</ns3:cad>
          </ns3:TrackPointExtension>
        </extensions>
      </trkpt>
      <trkpt lat="44.668690860271453857421875" lon="6.777872778475284576416015625">
        <ele>1656.5999755859375</ele>
        <time>2026-09-03T08:30:01.000Z</time>
        <extensions>
          <ns3:TrackPointExtension>
            <ns3:hr>150</ns3:hr>
            <ns3:cad>82</ns3:cad>
          </ns3:TrackPointExtension>
        </extensions>
      </trkpt>
      <trkpt lat="44.66867116279900074005126953125" lon="6.77791996859014034271240234375">
        <ele>1656.4000244140625</ele>
        <time>2026-09-03T08:30:02.000Z</time>
        <extensions>
          <ns3:TrackPointExtension>
            <ns3:hr>150</ns3:hr>
            <ns3:cad>82</ns3:cad>
          </ns3:TrackPointExtension>
        </extensions>
      </trkpt>
      <trkpt lat="44.66865322552621364593505859375" lon="6.777944527566432952880859375">
        <ele>1656.4000244140625</ele>
        <time>2026-09-03T08:30:03.000Z</time>
        <extensions>
          <ns3:TrackPointExtension>
            <ns3:hr>151</ns3:hr>
            <ns3:cad>82</ns3:cad>
          </ns3:TrackPointExtension>
        </extensions>
      </trkpt>
      <trkpt lat="44.66863059438765048980712890625" lon="6.7779832519590854644775390625">
        <ele>1656.199951171875</ele>
        <time>2026-09-03T08:30:04.000Z</time>
        <extensions>
          <ns3:TrackPointExtension>
            <ns3:hr>151</ns3:hr>
            <ns3:cad>82</ns3:cad>
          </ns3:TrackPointExtension>
        </extensions>
      </trkpt>
      <trkpt lat="44.6686135791242122650146484375" lon="6.7780100740492343902587890625">
        <ele>1656.199951171875</ele>
        <time>2026-09-03T08:30:05.000Z</time>
        <extensions>
          <ns3:TrackPointExtension>
            <ns3:hr>151</ns3:hr>
            <ns3:cad>82</ns3:cad>
          </ns3:TrackPointExtension>
        </extensions>
      </trkpt>
      <trkpt lat="44.66859572567045688629150390625" lon="6.77802775986492633819580078125">
        <ele>1656</ele>
        <time>2026-09-03T08:30:06.000Z</time>
        <extensions>
          <ns3:TrackPointExtension>
            <ns3:hr>151</ns3:hr>
            <ns3:cad>82</ns3:cad>
          </ns3:TrackPointExtension>
        </extensions>
      </trkpt>
      <trkpt lat="44.66857351362705230712890625" lon="6.778053157031536102294921875">
        <ele>1656</ele>
        <time>2026-09-03T08:30:07.000Z</time>
        <extensions>
          <ns3:TrackPointExtension>
            <ns3:hr>151</ns3:hr>
            <ns3:cad>82</ns3:cad>
          </ns3:TrackPointExtension>
        </extensions>
      </trkpt>
      <trkpt lat="44.668561778962612152099609375" lon="6.77806698717176914215087890625">
        <ele>1656</ele>
        <time>2026-09-03T08:30:08.000Z</time>
        <extensions>
          <ns3:TrackPointExtension>
            <ns3:hr>151</ns3:hr>
            <ns3:cad>82</ns3:cad>
          </ns3:TrackPointExtension>
        </extensions>
      </trkpt>
      <trkpt lat="44.66855415143072605133056640625" lon="6.77807805128395557403564453125">
        <ele>1656.199951171875</ele>
        <time>2026-09-03T08:30:09.000Z</time>
        <extensions>
          <ns3:TrackPointExtension>
            <ns3:hr>152</ns3:hr>
            <ns3:cad>81</ns3:cad>
          </ns3:TrackPointExtension>
        </extensions>
      </trkpt>
      <trkpt lat="44.66854543425142765045166015625" lon="6.77808542735874652862548828125">
        <ele>1656.199951171875</ele>
        <time>2026-09-03T08:30:10.000Z</time>
        <extensions>
          <ns3:TrackPointExtension>
            <ns3:hr>152</ns3:hr>
            <ns3:cad>81</ns3:cad>
          </ns3:TrackPointExtension>
        </extensions>
      </trkpt>
      <trkpt lat="44.66854124329984188079833984375" lon="6.77809582091867923736572265625">
        <ele>1656.199951171875</ele>
        <time>2026-09-03T08:30:11.000Z</time>
        <extensions>
          <ns3:TrackPointExtension>
            <ns3:hr>152</ns3:hr>
            <ns3:cad>81</ns3:cad>
          </ns3:TrackPointExtension>
        </extensions>
      </trkpt>
      <trkpt lat="44.66853872872889041900634765625" lon="6.77810822613537311553955078125">
        <ele>1656.199951171875</ele>
        <time>2026-09-03T08:30:12.000Z</time>
        <extensions>
          <ns3:TrackPointExtension>
            <ns3:hr>152</ns3:hr>
            <ns3:cad>0</ns3:cad>
          </ns3:TrackPointExtension>
        </extensions>
      </trkpt>
      <trkpt lat="44.6685339510440826416015625" lon="6.77812599577009677886962890625">
        <ele>1656</ele>
        <time>2026-09-03T08:30:13.000Z</time>
        <extensions>
          <ns3:TrackPointExtension>
            <ns3:hr>152</ns3:hr>
            <ns3:cad>0</ns3:cad>
          </ns3:TrackPointExtension>
        </extensions>
      </trkpt>
      <trkpt lat="44.66852657496929168701171875" lon="6.7781260795891284942626953125">
        <ele>1656</ele>
        <time>2026-09-03T08:30:14.000Z</time>
        <extensions>
          <ns3:TrackPointExtension>
            <ns3:hr>151</ns3:hr>
            <ns3:cad>58</ns3:cad>
          </ns3:TrackPointExtension>
        </extensions>
      </trkpt>
      <trkpt lat="44.6685243956744670867919921875" lon="6.77813437767326831817626953125">
        <ele>1656</ele>
        <time>2026-09-03T08:30:15.000Z</time>
        <extensions>
          <ns3:TrackPointExtension>
            <ns3:hr>150</ns3:hr>
            <ns3:cad>58</ns3:cad>
          </ns3:TrackPointExtension>
        </extensions>
      </trkpt>
      <trkpt lat="44.66851542703807353973388671875" lon="6.778139658272266387939453125">
        <ele>1655.800048828125</ele>
        <time>2026-09-03T08:30:16.000Z</time>
        <extensions>
          <ns3:TrackPointExtension>
            <ns3:hr>150</ns3:hr>
            <ns3:cad>57</ns3:cad>
          </ns3:TrackPointExtension>
        </extensions>
      </trkpt>
      <trkpt lat="44.66850972734391689300537109375" lon="6.77814896218478679656982421875">
        <ele>1655.800048828125</ele>
        <time>2026-09-03T08:30:17.000Z</time>
        <extensions>
          <ns3:TrackPointExtension>
            <ns3:hr>149</ns3:hr>
            <ns3:cad>57</ns3:cad>
          </ns3:TrackPointExtension>
        </extensions>
      </trkpt>
      <trkpt lat="44.668501429259777069091796875" lon="6.7781545780599117279052734375">
        <ele>1655.800048828125</ele>
        <time>2026-09-03T08:30:18.000Z</time>
        <extensions>
          <ns3:TrackPointExtension>
            <ns3:hr>148</ns3:hr>
            <ns3:cad>57</ns3:cad>
          </ns3:TrackPointExtension>
        </extensions>
      </trkpt>
      <trkpt lat="44.66849748976528644561767578125" lon="6.7781589366495609283447265625">
        <ele>1655.800048828125</ele>
        <time>2026-09-03T08:30:19.000Z</time>
        <extensions>
          <ns3:TrackPointExtension>
            <ns3:hr>147</ns3:hr>
            <ns3:cad>57</ns3:cad>
          </ns3:TrackPointExtension>
        </extensions>
      </trkpt>
      <trkpt lat="44.6684878505766391754150390625" lon="6.778163127601146697998046875">
        <ele>1655.800048828125</ele>
        <time>2026-09-03T08:30:20.000Z</time>
        <extensions>
          <ns3:TrackPointExtension>
            <ns3:hr>147</ns3:hr>
            <ns3:cad>57</ns3:cad>
          </ns3:TrackPointExtension>
        </extensions>
      </trkpt>
      <trkpt lat="44.668481983244419097900390625" lon="6.7781710065901279449462890625">
        <ele>1655.800048828125</ele>
        <time>2026-09-03T08:30:21.000Z</time>
        <extensions>
          <ns3:TrackPointExtension>
            <ns3:hr>146</ns3:hr>
            <ns3:cad>57</ns3:cad>
          </ns3:TrackPointExtension>
        </extensions>
      </trkpt>
      <trkpt lat="44.66848634183406829833984375" lon="6.77818466909229755401611328125">
        <ele>1655.800048828125</ele>
        <time>2026-09-03T08:30:22.000Z</time>
        <extensions>
          <ns3:TrackPointExtension>
            <ns3:hr>146</ns3:hr>
            <ns3:cad>0</ns3:cad>
          </ns3:TrackPointExtension>
        </extensions>
      </trkpt>
      <trkpt lat="44.668492712080478668212890625" lon="6.7782035283744335174560546875">
        <ele>1655.5999755859375</ele>
        <time>2026-09-03T08:30:23.000Z</time>
        <extensions>
          <ns3:TrackPointExtension>
            <ns3:hr>146</ns3:hr>
            <ns3:cad>0</ns3:cad>
          </ns3:TrackPointExtension>
        </extensions>
      </trkpt>
      <trkpt lat="44.66849715448915958404541015625" lon="6.77821635268628597259521484375">
        <ele>1655.5999755859375</ele>
        <time>2026-09-03T08:30:24.000Z</time>
        <extensions>
          <ns3:TrackPointExtension>
            <ns3:hr>145</ns3:hr>
            <ns3:cad>0</ns3:cad>
          </ns3:TrackPointExtension>
        </extensions>
      </trkpt>
      <trkpt lat="44.668500423431396484375" lon="6.77822808735072612762451171875">
        <ele>1655.5999755859375</ele>
        <time>2026-09-03T08:30:25.000Z</time>
        <extensions>
          <ns3:TrackPointExtension>
            <ns3:hr>145</ns3:hr>
            <ns3:cad>18</ns3:cad>
          </ns3:TrackPointExtension>
        </extensions>
      </trkpt>
      <trkpt lat="44.66850469820201396942138671875" lon="6.7782380618155002593994140625">
        <ele>1655.5999755859375</ele>
        <time>2026-09-03T08:30:26.000Z</time>
        <extensions>
          <ns3:TrackPointExtension>
            <ns3:hr>144</ns3:hr>
            <ns3:cad>18</ns3:cad>
          </ns3:TrackPointExtension>
        </extensions>
      </trkpt>
      <trkpt lat="44.668506123125553131103515625" lon="6.77824619226157665252685546875">
        <ele>1655.5999755859375</ele>
        <time>2026-09-03T08:30:27.000Z</time>
        <extensions>
          <ns3:TrackPointExtension>
            <ns3:hr>144</ns3:hr>
            <ns3:cad>51</ns3:cad>
          </ns3:TrackPointExtension>
        </extensions>
      </trkpt>
      <trkpt lat="44.66850511729717254638671875" lon="6.7782578431069850921630859375">
        <ele>1655.5999755859375</ele>
        <time>2026-09-03T08:30:28.000Z</time>
        <extensions>
          <ns3:TrackPointExtension>
            <ns3:hr>143</ns3:hr>
            <ns3:cad>52</ns3:cad>
          </ns3:TrackPointExtension>
        </extensions>
      </trkpt>
      <trkpt lat="44.66850587166845798492431640625" lon="6.77826463244855403900146484375">
        <ele>1655.5999755859375</ele>
        <time>2026-09-03T08:30:29.000Z</time>
        <extensions>
          <ns3:TrackPointExtension>
            <ns3:hr>143</ns3:hr>
            <ns3:cad>53</ns3:cad>
          </ns3:TrackPointExtension>
        </extensions>
      </trkpt>
      <trkpt lat="44.66850922442972660064697265625" lon="6.77826815284788608551025390625">
        <ele>1655.5999755859375</ele>
        <time>2026-09-03T08:30:30.000Z</time>
        <extensions>
          <ns3:TrackPointExtension>
            <ns3:hr>142</ns3:hr>
            <ns3:cad>53</ns3:cad>
          </ns3:TrackPointExtension>
        </extensions>
      </trkpt>
      <trkpt lat="44.66851274482905864715576171875" lon="6.778276450932025909423828125">
        <ele>1655.5999755859375</ele>
        <time>2026-09-03T08:30:31.000Z</time>
        <extensions>
          <ns3:TrackPointExtension>
            <ns3:hr>142</ns3:hr>
            <ns3:cad>0</ns3:cad>
          </ns3:TrackPointExtension>
        </extensions>
      </trkpt>
      <trkpt lat="44.6685160137712955474853515625" lon="6.778282485902309417724609375">
        <ele>1655.800048828125</ele>
        <time>2026-09-03T08:30:32.000Z</time>
        <extensions>
          <ns3:TrackPointExtension>
            <ns3:hr>141</ns3:hr>
            <ns3:cad>0</ns3:cad>
          </ns3:TrackPointExtension>
        </extensions>
      </trkpt>
      <trkpt lat="44.66851794160902500152587890625" lon="6.778286509215831756591796875">
        <ele>1655.800048828125</ele>
        <time>2026-09-03T08:30:33.000Z</time>
        <extensions>
          <ns3:TrackPointExtension>
            <ns3:hr>141</ns3:hr>
            <ns3:cad>0</ns3:cad>
          </ns3:TrackPointExtension>
        </extensions>
      </trkpt>
      <trkpt lat="44.6685217134654521942138671875" lon="6.77828122861683368682861328125">
        <ele>1655.800048828125</ele>
        <time>2026-09-03T08:30:34.000Z</time>
        <extensions>
          <ns3:TrackPointExtension>
            <ns3:hr>140</ns3:hr>
            <ns3:cad>0</ns3:cad>
          </ns3:TrackPointExtension>
        </extensions>
      </trkpt>
      <trkpt lat="44.6685240603983402252197265625" lon="6.7782803066074848175048828125">
        <ele>1655.800048828125</ele>
        <time>2026-09-03T08:30:35.000Z</time>
        <extensions>
          <ns3:TrackPointExtension>
            <ns3:hr>140</ns3:hr>
            <ns3:cad>0</ns3:cad>
          </ns3:TrackPointExtension>
        </extensions>
      </trkpt>
      <trkpt lat="44.66852397657930850982666015625" lon="6.7782752774655818939208984375">
        <ele>1655.800048828125</ele>
        <time>2026-09-03T08:30:36.000Z</time>
        <extensions>
          <ns3:TrackPointExtension>
            <ns3:hr>139</ns3:hr>
            <ns3:cad>0</ns3:cad>
          </ns3:TrackPointExtension>
        </extensions>
      </trkpt>
      <trkpt lat="44.668522216379642486572265625" lon="6.7782695777714252471923828125">
        <ele>1655.800048828125</ele>
        <time>2026-09-03T08:30:37.000Z</time>
        <extensions>
          <ns3:TrackPointExtension>
            <ns3:hr>138</ns3:hr>
            <ns3:cad>0</ns3:cad>
          </ns3:TrackPointExtension>
        </extensions>
      </trkpt>
      <trkpt lat="44.668522886931896209716796875" lon="6.77826681174337863922119140625">
        <ele>1655.800048828125</ele>
        <time>2026-09-03T08:30:38.000Z</time>
        <extensions>
          <ns3:TrackPointExtension>
            <ns3:hr>137</ns3:hr>
            <ns3:cad>0</ns3:cad>
          </ns3:TrackPointExtension>
        </extensions>
      </trkpt>
      <trkpt lat="44.66852447949349880218505859375" lon="6.7782652191817760467529296875">
        <ele>1655.800048828125</ele>
        <time>2026-09-03T08:30:39.000Z</time>
        <extensions>
          <ns3:TrackPointExtension>
            <ns3:hr>137</ns3:hr>
            <ns3:cad>0</ns3:cad>
          </ns3:TrackPointExtension>
        </extensions>
      </trkpt>
      <trkpt lat="44.66852431185543537139892578125" lon="6.77826697938144207000732421875">
        <ele>1656</ele>
        <time>2026-09-03T08:30:40.000Z</time>
        <extensions>
          <ns3:TrackPointExtension>
            <ns3:hr>136</ns3:hr>
            <ns3:cad>0</ns3:cad>
          </ns3:TrackPointExtension>
        </extensions>
      </trkpt>
    </trkseg>
  </trk>
</gpx>
